<?xml version="1.0" encoding="UTF-8" standalone="no" ?>
<gpx xmlns="http://www.topografix.com/GPX/1/1" xmlns:xsi="http://www.w3.org/2001/XMLSchema-instance" xsi:schemaLocation="http://www.topografix.com/GPX/1/1 http://www.topografix.com/GPX/1/1/gpx.xsd" version="1.1" creator="VisuGPX - https://www.visugpx.com">
  <metadata>
    <name>premiere partie voyage</name>
  </metadata>
  <trk>
    <name><![CDATA[Jour 2 - Saint Maixent/La Couarde]]></name>
    <trkseg>
      <trkpt lat="46.42031" lon="-0.19587">
        <ele>64.1</ele>
        <time>2020-05-31T07:45:55Z</time>
      </trkpt>
      <trkpt lat="46.42022" lon="-0.19592">
        <ele>64</ele>
        <time>2020-05-31T07:45:56Z</time>
      </trkpt>
      <trkpt lat="46.42015" lon="-0.19594">
        <ele>63.9</ele>
        <time>2020-05-31T07:45:57Z</time>
      </trkpt>
      <trkpt lat="46.42009" lon="-0.19599">
        <ele>63.8</ele>
        <time>2020-05-31T07:45:58Z</time>
      </trkpt>
      <trkpt lat="46.42003" lon="-0.19603">
        <ele>63.7</ele>
        <time>2020-05-31T07:45:59Z</time>
      </trkpt>
      <trkpt lat="46.41998" lon="-0.1961">
        <ele>63.6</ele>
        <time>2020-05-31T07:46:00Z</time>
      </trkpt>
      <trkpt lat="46.41996" lon="-0.19626">
        <ele>63.4</ele>
        <time>2020-05-31T07:46:01Z</time>
      </trkpt>
      <trkpt lat="46.41991" lon="-0.19626">
        <ele>63.4</ele>
        <time>2020-05-31T07:46:02Z</time>
      </trkpt>
      <trkpt lat="46.41989" lon="-0.1963">
        <ele>63.3</ele>
        <time>2020-05-31T07:46:03Z</time>
      </trkpt>
      <trkpt lat="46.41985" lon="-0.19637">
        <ele>63.3</ele>
        <time>2020-05-31T07:46:04Z</time>
      </trkpt>
      <trkpt lat="46.41981" lon="-0.19643">
        <ele>63.3</ele>
        <time>2020-05-31T07:46:05Z</time>
      </trkpt>
      <trkpt lat="46.41976" lon="-0.1965">
        <ele>63.3</ele>
        <time>2020-05-31T07:46:06Z</time>
      </trkpt>
      <trkpt lat="46.41971" lon="-0.19656">
        <ele>63.3</ele>
        <time>2020-05-31T07:46:07Z</time>
      </trkpt>
      <trkpt lat="46.41966" lon="-0.19662">
        <ele>63.3</ele>
        <time>2020-05-31T07:46:08Z</time>
      </trkpt>
      <trkpt lat="46.41962" lon="-0.19668">
        <ele>63.3</ele>
        <time>2020-05-31T07:46:09Z</time>
      </trkpt>
      <trkpt lat="46.41957" lon="-0.19672">
        <ele>63.3</ele>
        <time>2020-05-31T07:46:10Z</time>
      </trkpt>
      <trkpt lat="46.41951" lon="-0.19676">
        <ele>63.3</ele>
        <time>2020-05-31T07:46:11Z</time>
      </trkpt>
      <trkpt lat="46.41946" lon="-0.1968">
        <ele>63.3</ele>
        <time>2020-05-31T07:46:12Z</time>
      </trkpt>
      <trkpt lat="46.4194" lon="-0.19685">
        <ele>63.3</ele>
        <time>2020-05-31T07:46:13Z</time>
      </trkpt>
      <trkpt lat="46.41933" lon="-0.1969">
        <ele>63.3</ele>
        <time>2020-05-31T07:46:14Z</time>
      </trkpt>
      <trkpt lat="46.41927" lon="-0.19694">
        <ele>63.2</ele>
        <time>2020-05-31T07:46:16Z</time>
      </trkpt>
      <trkpt lat="46.41921" lon="-0.19697">
        <ele>63.2</ele>
        <time>2020-05-31T07:46:17Z</time>
      </trkpt>
      <trkpt lat="46.41915" lon="-0.19701">
        <ele>63.2</ele>
        <time>2020-05-31T07:46:18Z</time>
      </trkpt>
      <trkpt lat="46.41909" lon="-0.19704">
        <ele>63.2</ele>
        <time>2020-05-31T07:46:19Z</time>
      </trkpt>
      <trkpt lat="46.41903" lon="-0.19707">
        <ele>63.2</ele>
        <time>2020-05-31T07:46:20Z</time>
      </trkpt>
      <trkpt lat="46.41896" lon="-0.19709">
        <ele>63.2</ele>
        <time>2020-05-31T07:46:21Z</time>
      </trkpt>
      <trkpt lat="46.4189" lon="-0.19711">
        <ele>63.3</ele>
        <time>2020-05-31T07:46:22Z</time>
      </trkpt>
      <trkpt lat="46.41884" lon="-0.19713">
        <ele>63.3</ele>
        <time>2020-05-31T07:46:23Z</time>
      </trkpt>
      <trkpt lat="46.41881" lon="-0.19715">
        <ele>63.3</ele>
        <time>2020-05-31T07:46:24Z</time>
      </trkpt>
      <trkpt lat="46.41877" lon="-0.19715">
        <ele>63.3</ele>
        <time>2020-05-31T07:46:25Z</time>
      </trkpt>
      <trkpt lat="46.41876" lon="-0.19716">
        <ele>63.3</ele>
        <time>2020-05-31T07:46:26Z</time>
      </trkpt>
      <trkpt lat="46.41872" lon="-0.19718">
        <ele>63.2</ele>
        <time>2020-05-31T07:46:27Z</time>
      </trkpt>
      <trkpt lat="46.41868" lon="-0.19719">
        <ele>63.2</ele>
        <time>2020-05-31T07:46:28Z</time>
      </trkpt>
      <trkpt lat="46.41864" lon="-0.1972">
        <ele>63.2</ele>
        <time>2020-05-31T07:46:29Z</time>
      </trkpt>
      <trkpt lat="46.4186" lon="-0.19722">
        <ele>63.1</ele>
        <time>2020-05-31T07:46:30Z</time>
      </trkpt>
      <trkpt lat="46.41856" lon="-0.19724">
        <ele>63.1</ele>
        <time>2020-05-31T07:46:31Z</time>
      </trkpt>
      <trkpt lat="46.41852" lon="-0.19725">
        <ele>63.1</ele>
        <time>2020-05-31T07:46:32Z</time>
      </trkpt>
      <trkpt lat="46.41847" lon="-0.19728">
        <ele>63</ele>
        <time>2020-05-31T07:46:33Z</time>
      </trkpt>
      <trkpt lat="46.41843" lon="-0.1973">
        <ele>63</ele>
        <time>2020-05-31T07:46:34Z</time>
      </trkpt>
      <trkpt lat="46.41834" lon="-0.19734">
        <ele>62.9</ele>
        <time>2020-05-31T07:46:35Z</time>
      </trkpt>
      <trkpt lat="46.41828" lon="-0.19735">
        <ele>62.9</ele>
        <time>2020-05-31T07:46:36Z</time>
      </trkpt>
      <trkpt lat="46.41824" lon="-0.19737">
        <ele>62.9</ele>
        <time>2020-05-31T07:46:37Z</time>
      </trkpt>
      <trkpt lat="46.41819" lon="-0.19739">
        <ele>62.8</ele>
        <time>2020-05-31T07:46:38Z</time>
      </trkpt>
      <trkpt lat="46.41814" lon="-0.19742">
        <ele>62.8</ele>
        <time>2020-05-31T07:46:39Z</time>
      </trkpt>
      <trkpt lat="46.41809" lon="-0.19744">
        <ele>62.8</ele>
        <time>2020-05-31T07:46:40Z</time>
      </trkpt>
      <trkpt lat="46.41805" lon="-0.19746">
        <ele>62.8</ele>
        <time>2020-05-31T07:46:41Z</time>
      </trkpt>
      <trkpt lat="46.41801" lon="-0.19748">
        <ele>62.8</ele>
        <time>2020-05-31T07:46:42Z</time>
      </trkpt>
      <trkpt lat="46.41797" lon="-0.1975">
        <ele>62.8</ele>
        <time>2020-05-31T07:46:43Z</time>
      </trkpt>
      <trkpt lat="46.41792" lon="-0.19751">
        <ele>62.8</ele>
        <time>2020-05-31T07:46:44Z</time>
      </trkpt>
      <trkpt lat="46.41789" lon="-0.19753">
        <ele>62.7</ele>
        <time>2020-05-31T07:46:45Z</time>
      </trkpt>
      <trkpt lat="46.41785" lon="-0.19756">
        <ele>62.7</ele>
        <time>2020-05-31T07:46:46Z</time>
      </trkpt>
      <trkpt lat="46.41781" lon="-0.19758">
        <ele>62.7</ele>
        <time>2020-05-31T07:46:47Z</time>
      </trkpt>
      <trkpt lat="46.41775" lon="-0.19759">
        <ele>62.6</ele>
        <time>2020-05-31T07:46:48Z</time>
      </trkpt>
      <trkpt lat="46.4177" lon="-0.19761">
        <ele>62.5</ele>
        <time>2020-05-31T07:46:49Z</time>
      </trkpt>
      <trkpt lat="46.41766" lon="-0.19763">
        <ele>62.4</ele>
        <time>2020-05-31T07:46:50Z</time>
      </trkpt>
      <trkpt lat="46.41761" lon="-0.19766">
        <ele>62.4</ele>
        <time>2020-05-31T07:46:51Z</time>
      </trkpt>
      <trkpt lat="46.41757" lon="-0.19768">
        <ele>62.3</ele>
        <time>2020-05-31T07:46:52Z</time>
      </trkpt>
      <trkpt lat="46.41751" lon="-0.19771">
        <ele>62.2</ele>
        <time>2020-05-31T07:46:53Z</time>
      </trkpt>
      <trkpt lat="46.41747" lon="-0.19774">
        <ele>62.1</ele>
        <time>2020-05-31T07:46:54Z</time>
      </trkpt>
      <trkpt lat="46.41741" lon="-0.19777">
        <ele>62</ele>
        <time>2020-05-31T07:46:55Z</time>
      </trkpt>
      <trkpt lat="46.41737" lon="-0.19781">
        <ele>61.9</ele>
        <time>2020-05-31T07:46:56Z</time>
      </trkpt>
      <trkpt lat="46.41732" lon="-0.19784">
        <ele>61.8</ele>
        <time>2020-05-31T07:46:57Z</time>
      </trkpt>
      <trkpt lat="46.41727" lon="-0.19788">
        <ele>61.7</ele>
        <time>2020-05-31T07:46:58Z</time>
      </trkpt>
      <trkpt lat="46.41722" lon="-0.19792">
        <ele>61.6</ele>
        <time>2020-05-31T07:46:59Z</time>
      </trkpt>
      <trkpt lat="46.41718" lon="-0.19795">
        <ele>61.5</ele>
        <time>2020-05-31T07:47:00Z</time>
      </trkpt>
      <trkpt lat="46.41713" lon="-0.19798">
        <ele>61.4</ele>
        <time>2020-05-31T07:47:01Z</time>
      </trkpt>
      <trkpt lat="46.41708" lon="-0.19801">
        <ele>61.3</ele>
        <time>2020-05-31T07:47:02Z</time>
      </trkpt>
      <trkpt lat="46.41703" lon="-0.19805">
        <ele>61.2</ele>
        <time>2020-05-31T07:47:03Z</time>
      </trkpt>
      <trkpt lat="46.41698" lon="-0.19808">
        <ele>61.1</ele>
        <time>2020-05-31T07:47:04Z</time>
      </trkpt>
      <trkpt lat="46.41693" lon="-0.1981">
        <ele>61.1</ele>
        <time>2020-05-31T07:47:05Z</time>
      </trkpt>
      <trkpt lat="46.41686" lon="-0.19812">
        <ele>61</ele>
        <time>2020-05-31T07:47:06Z</time>
      </trkpt>
      <trkpt lat="46.41681" lon="-0.19815">
        <ele>61</ele>
        <time>2020-05-31T07:47:07Z</time>
      </trkpt>
      <trkpt lat="46.41675" lon="-0.19816">
        <ele>61</ele>
        <time>2020-05-31T07:47:08Z</time>
      </trkpt>
      <trkpt lat="46.41669" lon="-0.19817">
        <ele>61</ele>
        <time>2020-05-31T07:47:09Z</time>
      </trkpt>
      <trkpt lat="46.41663" lon="-0.19819">
        <ele>61</ele>
        <time>2020-05-31T07:47:10Z</time>
      </trkpt>
      <trkpt lat="46.41658" lon="-0.19821">
        <ele>61</ele>
        <time>2020-05-31T07:47:11Z</time>
      </trkpt>
      <trkpt lat="46.41653" lon="-0.19823">
        <ele>61</ele>
        <time>2020-05-31T07:47:12Z</time>
      </trkpt>
      <trkpt lat="46.41648" lon="-0.19825">
        <ele>61</ele>
        <time>2020-05-31T07:47:13Z</time>
      </trkpt>
      <trkpt lat="46.41643" lon="-0.19826">
        <ele>61</ele>
        <time>2020-05-31T07:47:14Z</time>
      </trkpt>
      <trkpt lat="46.41639" lon="-0.19827">
        <ele>61</ele>
        <time>2020-05-31T07:47:15Z</time>
      </trkpt>
      <trkpt lat="46.41634" lon="-0.19829">
        <ele>61</ele>
        <time>2020-05-31T07:47:16Z</time>
      </trkpt>
      <trkpt lat="46.4163" lon="-0.19829">
        <ele>61</ele>
        <time>2020-05-31T07:47:17Z</time>
      </trkpt>
      <trkpt lat="46.41626" lon="-0.1983">
        <ele>61</ele>
        <time>2020-05-31T07:47:18Z</time>
      </trkpt>
      <trkpt lat="46.41621" lon="-0.1983">
        <ele>61</ele>
        <time>2020-05-31T07:47:19Z</time>
      </trkpt>
      <trkpt lat="46.41617" lon="-0.19832">
        <ele>61</ele>
        <time>2020-05-31T07:47:20Z</time>
      </trkpt>
      <trkpt lat="46.41614" lon="-0.19834">
        <ele>61</ele>
        <time>2020-05-31T07:47:21Z</time>
      </trkpt>
      <trkpt lat="46.4161" lon="-0.19833">
        <ele>61</ele>
        <time>2020-05-31T07:47:22Z</time>
      </trkpt>
      <trkpt lat="46.41606" lon="-0.19834">
        <ele>61</ele>
        <time>2020-05-31T07:47:23Z</time>
      </trkpt>
      <trkpt lat="46.41603" lon="-0.19836">
        <ele>61</ele>
        <time>2020-05-31T07:47:24Z</time>
      </trkpt>
      <trkpt lat="46.416" lon="-0.19834">
        <ele>61</ele>
        <time>2020-05-31T07:47:25Z</time>
      </trkpt>
      <trkpt lat="46.41594" lon="-0.1983">
        <ele>61</ele>
        <time>2020-05-31T07:47:26Z</time>
      </trkpt>
      <trkpt lat="46.41591" lon="-0.19828">
        <ele>61</ele>
        <time>2020-05-31T07:47:27Z</time>
      </trkpt>
      <trkpt lat="46.41589" lon="-0.19828">
        <ele>61</ele>
        <time>2020-05-31T07:47:28Z</time>
      </trkpt>
      <trkpt lat="46.41586" lon="-0.19826">
        <ele>61</ele>
        <time>2020-05-31T07:47:29Z</time>
      </trkpt>
      <trkpt lat="46.41586" lon="-0.19826">
        <ele>61</ele>
        <time>2020-05-31T07:47:30Z</time>
      </trkpt>
      <trkpt lat="46.41584" lon="-0.19825">
        <ele>61</ele>
        <time>2020-05-31T07:47:31Z</time>
      </trkpt>
      <trkpt lat="46.41583" lon="-0.19826">
        <ele>61</ele>
        <time>2020-05-31T07:47:32Z</time>
      </trkpt>
      <trkpt lat="46.41583" lon="-0.19826">
        <ele>61</ele>
        <time>2020-05-31T07:47:33Z</time>
      </trkpt>
      <trkpt lat="46.41583" lon="-0.19826">
        <ele>61</ele>
        <time>2020-05-31T07:47:34Z</time>
      </trkpt>
      <trkpt lat="46.41583" lon="-0.19826">
        <ele>61</ele>
        <time>2020-05-31T07:47:35Z</time>
      </trkpt>
      <trkpt lat="46.41583" lon="-0.19826">
        <ele>61</ele>
        <time>2020-05-31T07:47:36Z</time>
      </trkpt>
      <trkpt lat="46.41582" lon="-0.19827">
        <ele>61</ele>
        <time>2020-05-31T07:47:37Z</time>
      </trkpt>
      <trkpt lat="46.41582" lon="-0.19827">
        <ele>61</ele>
        <time>2020-05-31T07:47:38Z</time>
      </trkpt>
      <trkpt lat="46.41582" lon="-0.19827">
        <ele>61</ele>
        <time>2020-05-31T07:47:39Z</time>
      </trkpt>
      <trkpt lat="46.41582" lon="-0.19827">
        <ele>61</ele>
        <time>2020-05-31T07:47:40Z</time>
      </trkpt>
      <trkpt lat="46.41582" lon="-0.19827">
        <ele>61</ele>
        <time>2020-05-31T07:47:41Z</time>
      </trkpt>
      <trkpt lat="46.41581" lon="-0.19829">
        <ele>61</ele>
        <time>2020-05-31T07:47:42Z</time>
      </trkpt>
      <trkpt lat="46.4158" lon="-0.1983">
        <ele>61</ele>
        <time>2020-05-31T07:47:43Z</time>
      </trkpt>
      <trkpt lat="46.41579" lon="-0.19831">
        <ele>61</ele>
        <time>2020-05-31T07:47:44Z</time>
      </trkpt>
      <trkpt lat="46.41578" lon="-0.19834">
        <ele>61</ele>
        <time>2020-05-31T07:47:45Z</time>
      </trkpt>
      <trkpt lat="46.41577" lon="-0.19835">
        <ele>61</ele>
        <time>2020-05-31T07:47:46Z</time>
      </trkpt>
      <trkpt lat="46.41577" lon="-0.19836">
        <ele>61</ele>
        <time>2020-05-31T07:47:47Z</time>
      </trkpt>
      <trkpt lat="46.41575" lon="-0.19841">
        <ele>61</ele>
        <time>2020-05-31T07:47:48Z</time>
      </trkpt>
      <trkpt lat="46.41575" lon="-0.19843">
        <ele>61</ele>
        <time>2020-05-31T07:47:49Z</time>
      </trkpt>
      <trkpt lat="46.41573" lon="-0.19848">
        <ele>61.1</ele>
        <time>2020-05-31T07:47:50Z</time>
      </trkpt>
      <trkpt lat="46.41571" lon="-0.19853">
        <ele>61.1</ele>
        <time>2020-05-31T07:47:51Z</time>
      </trkpt>
      <trkpt lat="46.41568" lon="-0.1986">
        <ele>61.2</ele>
        <time>2020-05-31T07:47:52Z</time>
      </trkpt>
      <trkpt lat="46.41566" lon="-0.19865">
        <ele>61.2</ele>
        <time>2020-05-31T07:47:53Z</time>
      </trkpt>
      <trkpt lat="46.41565" lon="-0.19872">
        <ele>61.2</ele>
        <time>2020-05-31T07:47:54Z</time>
      </trkpt>
      <trkpt lat="46.41563" lon="-0.19878">
        <ele>61.3</ele>
        <time>2020-05-31T07:47:55Z</time>
      </trkpt>
      <trkpt lat="46.41561" lon="-0.19884">
        <ele>61.3</ele>
        <time>2020-05-31T07:47:56Z</time>
      </trkpt>
      <trkpt lat="46.41559" lon="-0.19891">
        <ele>61.4</ele>
        <time>2020-05-31T07:47:57Z</time>
      </trkpt>
      <trkpt lat="46.41557" lon="-0.19898">
        <ele>61.4</ele>
        <time>2020-05-31T07:47:58Z</time>
      </trkpt>
      <trkpt lat="46.41555" lon="-0.19904">
        <ele>61.4</ele>
        <time>2020-05-31T07:47:59Z</time>
      </trkpt>
      <trkpt lat="46.41553" lon="-0.1991">
        <ele>61.4</ele>
        <time>2020-05-31T07:48:00Z</time>
      </trkpt>
      <trkpt lat="46.41551" lon="-0.19916">
        <ele>61.5</ele>
        <time>2020-05-31T07:48:01Z</time>
      </trkpt>
      <trkpt lat="46.41549" lon="-0.19922">
        <ele>61.5</ele>
        <time>2020-05-31T07:48:02Z</time>
      </trkpt>
      <trkpt lat="46.41548" lon="-0.19929">
        <ele>61.5</ele>
        <time>2020-05-31T07:48:03Z</time>
      </trkpt>
      <trkpt lat="46.41546" lon="-0.19936">
        <ele>61.6</ele>
        <time>2020-05-31T07:48:04Z</time>
      </trkpt>
      <trkpt lat="46.41545" lon="-0.19942">
        <ele>61.6</ele>
        <time>2020-05-31T07:48:05Z</time>
      </trkpt>
      <trkpt lat="46.41543" lon="-0.19948">
        <ele>61.6</ele>
        <time>2020-05-31T07:48:06Z</time>
      </trkpt>
      <trkpt lat="46.41542" lon="-0.19953">
        <ele>61.6</ele>
        <time>2020-05-31T07:48:07Z</time>
      </trkpt>
      <trkpt lat="46.41539" lon="-0.1996">
        <ele>61.7</ele>
        <time>2020-05-31T07:48:08Z</time>
      </trkpt>
      <trkpt lat="46.41537" lon="-0.19965">
        <ele>61.7</ele>
        <time>2020-05-31T07:48:09Z</time>
      </trkpt>
      <trkpt lat="46.41534" lon="-0.19972">
        <ele>61.7</ele>
        <time>2020-05-31T07:48:10Z</time>
      </trkpt>
      <trkpt lat="46.41533" lon="-0.19978">
        <ele>61.7</ele>
        <time>2020-05-31T07:48:11Z</time>
      </trkpt>
      <trkpt lat="46.41531" lon="-0.19985">
        <ele>61.8</ele>
        <time>2020-05-31T07:48:12Z</time>
      </trkpt>
      <trkpt lat="46.4153" lon="-0.19991">
        <ele>61.8</ele>
        <time>2020-05-31T07:48:13Z</time>
      </trkpt>
      <trkpt lat="46.41528" lon="-0.19997">
        <ele>61.8</ele>
        <time>2020-05-31T07:48:14Z</time>
      </trkpt>
      <trkpt lat="46.41526" lon="-0.20001">
        <ele>61.8</ele>
        <time>2020-05-31T07:48:15Z</time>
      </trkpt>
      <trkpt lat="46.41524" lon="-0.20007">
        <ele>61.8</ele>
        <time>2020-05-31T07:48:16Z</time>
      </trkpt>
      <trkpt lat="46.41522" lon="-0.20013">
        <ele>61.8</ele>
        <time>2020-05-31T07:48:17Z</time>
      </trkpt>
      <trkpt lat="46.41519" lon="-0.2002">
        <ele>61.8</ele>
        <time>2020-05-31T07:48:18Z</time>
      </trkpt>
      <trkpt lat="46.41518" lon="-0.20026">
        <ele>61.8</ele>
        <time>2020-05-31T07:48:19Z</time>
      </trkpt>
      <trkpt lat="46.41515" lon="-0.20033">
        <ele>61.8</ele>
        <time>2020-05-31T07:48:20Z</time>
      </trkpt>
      <trkpt lat="46.41513" lon="-0.2004">
        <ele>61.7</ele>
        <time>2020-05-31T07:48:21Z</time>
      </trkpt>
      <trkpt lat="46.41511" lon="-0.20046">
        <ele>61.7</ele>
        <time>2020-05-31T07:48:22Z</time>
      </trkpt>
      <trkpt lat="46.41508" lon="-0.20052">
        <ele>61.7</ele>
        <time>2020-05-31T07:48:23Z</time>
      </trkpt>
      <trkpt lat="46.41506" lon="-0.20058">
        <ele>61.7</ele>
        <time>2020-05-31T07:48:24Z</time>
      </trkpt>
      <trkpt lat="46.41504" lon="-0.20064">
        <ele>61.7</ele>
        <time>2020-05-31T07:48:25Z</time>
      </trkpt>
      <trkpt lat="46.41503" lon="-0.2007">
        <ele>61.7</ele>
        <time>2020-05-31T07:48:26Z</time>
      </trkpt>
      <trkpt lat="46.41504" lon="-0.20076">
        <ele>61.7</ele>
        <time>2020-05-31T07:48:27Z</time>
      </trkpt>
      <trkpt lat="46.41505" lon="-0.20083">
        <ele>61.7</ele>
        <time>2020-05-31T07:48:28Z</time>
      </trkpt>
      <trkpt lat="46.41508" lon="-0.2009">
        <ele>61.7</ele>
        <time>2020-05-31T07:48:29Z</time>
      </trkpt>
      <trkpt lat="46.41509" lon="-0.20097">
        <ele>61.7</ele>
        <time>2020-05-31T07:48:30Z</time>
      </trkpt>
      <trkpt lat="46.41511" lon="-0.20103">
        <ele>61.8</ele>
        <time>2020-05-31T07:48:31Z</time>
      </trkpt>
      <trkpt lat="46.41513" lon="-0.20109">
        <ele>61.8</ele>
        <time>2020-05-31T07:48:32Z</time>
      </trkpt>
      <trkpt lat="46.41515" lon="-0.20115">
        <ele>61.8</ele>
        <time>2020-05-31T07:48:33Z</time>
      </trkpt>
      <trkpt lat="46.41517" lon="-0.20119">
        <ele>61.8</ele>
        <time>2020-05-31T07:48:34Z</time>
      </trkpt>
      <trkpt lat="46.41518" lon="-0.20123">
        <ele>61.8</ele>
        <time>2020-05-31T07:48:35Z</time>
      </trkpt>
      <trkpt lat="46.41518" lon="-0.20129">
        <ele>61.8</ele>
        <time>2020-05-31T07:48:36Z</time>
      </trkpt>
      <trkpt lat="46.41517" lon="-0.20131">
        <ele>61.8</ele>
        <time>2020-05-31T07:48:37Z</time>
      </trkpt>
      <trkpt lat="46.41514" lon="-0.20134">
        <ele>61.8</ele>
        <time>2020-05-31T07:48:38Z</time>
      </trkpt>
      <trkpt lat="46.41513" lon="-0.20136">
        <ele>61.8</ele>
        <time>2020-05-31T07:48:39Z</time>
      </trkpt>
      <trkpt lat="46.41509" lon="-0.20137">
        <ele>61.8</ele>
        <time>2020-05-31T07:48:40Z</time>
      </trkpt>
      <trkpt lat="46.41505" lon="-0.20138">
        <ele>61.8</ele>
        <time>2020-05-31T07:48:41Z</time>
      </trkpt>
      <trkpt lat="46.41502" lon="-0.20138">
        <ele>62.1</ele>
        <time>2020-05-31T07:48:42Z</time>
      </trkpt>
      <trkpt lat="46.41501" lon="-0.20139">
        <ele>62.1</ele>
        <time>2020-05-31T07:48:43Z</time>
      </trkpt>
      <trkpt lat="46.41499" lon="-0.2014">
        <ele>62.1</ele>
        <time>2020-05-31T07:48:44Z</time>
      </trkpt>
      <trkpt lat="46.41497" lon="-0.2014">
        <ele>62.1</ele>
        <time>2020-05-31T07:48:45Z</time>
      </trkpt>
      <trkpt lat="46.41497" lon="-0.20139">
        <ele>62.1</ele>
        <time>2020-05-31T07:48:46Z</time>
      </trkpt>
      <trkpt lat="46.41496" lon="-0.2014">
        <ele>62.1</ele>
        <time>2020-05-31T07:48:47Z</time>
      </trkpt>
      <trkpt lat="46.41496" lon="-0.20142">
        <ele>62.2</ele>
        <time>2020-05-31T07:48:48Z</time>
      </trkpt>
      <trkpt lat="46.41496" lon="-0.20143">
        <ele>62.2</ele>
        <time>2020-05-31T07:48:49Z</time>
      </trkpt>
      <trkpt lat="46.41496" lon="-0.20144">
        <ele>62.2</ele>
        <time>2020-05-31T07:48:50Z</time>
      </trkpt>
      <trkpt lat="46.41496" lon="-0.20145">
        <ele>62.2</ele>
        <time>2020-05-31T07:48:51Z</time>
      </trkpt>
      <trkpt lat="46.41496" lon="-0.20146">
        <ele>62.2</ele>
        <time>2020-05-31T07:48:52Z</time>
      </trkpt>
      <trkpt lat="46.41495" lon="-0.20146">
        <ele>62.2</ele>
        <time>2020-05-31T07:48:53Z</time>
      </trkpt>
      <trkpt lat="46.41494" lon="-0.20145">
        <ele>62.2</ele>
        <time>2020-05-31T07:48:54Z</time>
      </trkpt>
      <trkpt lat="46.41493" lon="-0.20144">
        <ele>62.3</ele>
        <time>2020-05-31T07:48:55Z</time>
      </trkpt>
      <trkpt lat="46.41491" lon="-0.20145">
        <ele>62.3</ele>
        <time>2020-05-31T07:48:56Z</time>
      </trkpt>
      <trkpt lat="46.41491" lon="-0.20145">
        <ele>62.3</ele>
        <time>2020-05-31T07:48:57Z</time>
      </trkpt>
      <trkpt lat="46.4149" lon="-0.20145">
        <ele>62.3</ele>
        <time>2020-05-31T07:48:58Z</time>
      </trkpt>
      <trkpt lat="46.4149" lon="-0.20144">
        <ele>62.3</ele>
        <time>2020-05-31T07:48:59Z</time>
      </trkpt>
      <trkpt lat="46.4149" lon="-0.20144">
        <ele>62.3</ele>
        <time>2020-05-31T07:49:00Z</time>
      </trkpt>
      <trkpt lat="46.4149" lon="-0.20144">
        <ele>62.3</ele>
        <time>2020-05-31T07:49:01Z</time>
      </trkpt>
      <trkpt lat="46.4149" lon="-0.20144">
        <ele>62.3</ele>
        <time>2020-05-31T07:49:02Z</time>
      </trkpt>
      <trkpt lat="46.4149" lon="-0.20144">
        <ele>62.3</ele>
        <time>2020-05-31T07:49:03Z</time>
      </trkpt>
      <trkpt lat="46.4149" lon="-0.20145">
        <ele>62.3</ele>
        <time>2020-05-31T07:49:04Z</time>
      </trkpt>
      <trkpt lat="46.4149" lon="-0.20145">
        <ele>62.3</ele>
        <time>2020-05-31T07:49:05Z</time>
      </trkpt>
      <trkpt lat="46.41489" lon="-0.20146">
        <ele>62.3</ele>
        <time>2020-05-31T07:49:06Z</time>
      </trkpt>
      <trkpt lat="46.4149" lon="-0.20146">
        <ele>62.4</ele>
        <time>2020-05-31T07:49:07Z</time>
      </trkpt>
      <trkpt lat="46.4149" lon="-0.20146">
        <ele>62.4</ele>
        <time>2020-05-31T07:49:08Z</time>
      </trkpt>
      <trkpt lat="46.4149" lon="-0.20146">
        <ele>62.4</ele>
        <time>2020-05-31T07:49:09Z</time>
      </trkpt>
      <trkpt lat="46.41491" lon="-0.20146">
        <ele>62.4</ele>
        <time>2020-05-31T07:49:10Z</time>
      </trkpt>
      <trkpt lat="46.41491" lon="-0.20146">
        <ele>62.4</ele>
        <time>2020-05-31T07:49:11Z</time>
      </trkpt>
      <trkpt lat="46.41491" lon="-0.20145">
        <ele>62.4</ele>
        <time>2020-05-31T07:49:12Z</time>
      </trkpt>
      <trkpt lat="46.41491" lon="-0.20144">
        <ele>62.4</ele>
        <time>2020-05-31T07:49:13Z</time>
      </trkpt>
      <trkpt lat="46.41491" lon="-0.20143">
        <ele>62.4</ele>
        <time>2020-05-31T07:49:14Z</time>
      </trkpt>
      <trkpt lat="46.41491" lon="-0.20144">
        <ele>62.4</ele>
        <time>2020-05-31T07:49:15Z</time>
      </trkpt>
      <trkpt lat="46.41468" lon="-0.20157">
        <ele>62.9</ele>
        <time>2020-05-31T07:57:30Z</time>
      </trkpt>
      <trkpt lat="46.41468" lon="-0.2016">
        <ele>62.9</ele>
        <time>2020-05-31T07:57:31Z</time>
      </trkpt>
      <trkpt lat="46.41466" lon="-0.20166">
        <ele>63</ele>
        <time>2020-05-31T07:57:32Z</time>
      </trkpt>
      <trkpt lat="46.4146" lon="-0.20169">
        <ele>63.2</ele>
        <time>2020-05-31T07:57:33Z</time>
      </trkpt>
      <trkpt lat="46.41458" lon="-0.20175">
        <ele>63.2</ele>
        <time>2020-05-31T07:57:34Z</time>
      </trkpt>
      <trkpt lat="46.41458" lon="-0.20179">
        <ele>63.3</ele>
        <time>2020-05-31T07:57:35Z</time>
      </trkpt>
      <trkpt lat="46.41456" lon="-0.20185">
        <ele>63.4</ele>
        <time>2020-05-31T07:57:36Z</time>
      </trkpt>
      <trkpt lat="46.41454" lon="-0.20188">
        <ele>63.4</ele>
        <time>2020-05-31T07:57:37Z</time>
      </trkpt>
      <trkpt lat="46.41452" lon="-0.20193">
        <ele>63.5</ele>
        <time>2020-05-31T07:57:38Z</time>
      </trkpt>
      <trkpt lat="46.4145" lon="-0.20198">
        <ele>63.6</ele>
        <time>2020-05-31T07:57:39Z</time>
      </trkpt>
      <trkpt lat="46.41447" lon="-0.20202">
        <ele>63.7</ele>
        <time>2020-05-31T07:57:40Z</time>
      </trkpt>
      <trkpt lat="46.41445" lon="-0.20207">
        <ele>63.8</ele>
        <time>2020-05-31T07:57:41Z</time>
      </trkpt>
      <trkpt lat="46.41443" lon="-0.20212">
        <ele>63.9</ele>
        <time>2020-05-31T07:57:42Z</time>
      </trkpt>
      <trkpt lat="46.41441" lon="-0.20217">
        <ele>64</ele>
        <time>2020-05-31T07:57:43Z</time>
      </trkpt>
      <trkpt lat="46.4144" lon="-0.20221">
        <ele>64.1</ele>
        <time>2020-05-31T07:57:44Z</time>
      </trkpt>
      <trkpt lat="46.41437" lon="-0.20226">
        <ele>64.2</ele>
        <time>2020-05-31T07:57:45Z</time>
      </trkpt>
      <trkpt lat="46.41436" lon="-0.20233">
        <ele>64.3</ele>
        <time>2020-05-31T07:57:46Z</time>
      </trkpt>
      <trkpt lat="46.41436" lon="-0.20239">
        <ele>64.4</ele>
        <time>2020-05-31T07:57:47Z</time>
      </trkpt>
      <trkpt lat="46.41434" lon="-0.20245">
        <ele>64.5</ele>
        <time>2020-05-31T07:57:48Z</time>
      </trkpt>
      <trkpt lat="46.41432" lon="-0.20249">
        <ele>64.6</ele>
        <time>2020-05-31T07:57:49Z</time>
      </trkpt>
      <trkpt lat="46.4143" lon="-0.20256">
        <ele>64.7</ele>
        <time>2020-05-31T07:57:50Z</time>
      </trkpt>
      <trkpt lat="46.41429" lon="-0.20263">
        <ele>64.8</ele>
        <time>2020-05-31T07:57:51Z</time>
      </trkpt>
      <trkpt lat="46.41428" lon="-0.20269">
        <ele>64.8</ele>
        <time>2020-05-31T07:57:52Z</time>
      </trkpt>
      <trkpt lat="46.41426" lon="-0.20276">
        <ele>64.9</ele>
        <time>2020-05-31T07:57:53Z</time>
      </trkpt>
      <trkpt lat="46.41423" lon="-0.20281">
        <ele>64.9</ele>
        <time>2020-05-31T07:57:54Z</time>
      </trkpt>
      <trkpt lat="46.4142" lon="-0.20288">
        <ele>65.1</ele>
        <time>2020-05-31T07:57:55Z</time>
      </trkpt>
      <trkpt lat="46.41417" lon="-0.20293">
        <ele>65.2</ele>
        <time>2020-05-31T07:57:56Z</time>
      </trkpt>
      <trkpt lat="46.41415" lon="-0.20299">
        <ele>65.3</ele>
        <time>2020-05-31T07:57:57Z</time>
      </trkpt>
      <trkpt lat="46.41413" lon="-0.20305">
        <ele>65.4</ele>
        <time>2020-05-31T07:57:58Z</time>
      </trkpt>
      <trkpt lat="46.4141" lon="-0.20311">
        <ele>65.6</ele>
        <time>2020-05-31T07:57:59Z</time>
      </trkpt>
      <trkpt lat="46.41408" lon="-0.20316">
        <ele>65.8</ele>
        <time>2020-05-31T07:58:00Z</time>
      </trkpt>
      <trkpt lat="46.41407" lon="-0.20322">
        <ele>65.9</ele>
        <time>2020-05-31T07:58:01Z</time>
      </trkpt>
      <trkpt lat="46.41404" lon="-0.20329">
        <ele>66.1</ele>
        <time>2020-05-31T07:58:02Z</time>
      </trkpt>
      <trkpt lat="46.41402" lon="-0.20335">
        <ele>66.2</ele>
        <time>2020-05-31T07:58:03Z</time>
      </trkpt>
      <trkpt lat="46.414" lon="-0.20341">
        <ele>66.4</ele>
        <time>2020-05-31T07:58:04Z</time>
      </trkpt>
      <trkpt lat="46.41398" lon="-0.20348">
        <ele>66.5</ele>
        <time>2020-05-31T07:58:05Z</time>
      </trkpt>
      <trkpt lat="46.41396" lon="-0.20354">
        <ele>66.6</ele>
        <time>2020-05-31T07:58:06Z</time>
      </trkpt>
      <trkpt lat="46.41394" lon="-0.2036">
        <ele>66.8</ele>
        <time>2020-05-31T07:58:07Z</time>
      </trkpt>
      <trkpt lat="46.41392" lon="-0.20366">
        <ele>66.9</ele>
        <time>2020-05-31T07:58:08Z</time>
      </trkpt>
      <trkpt lat="46.4139" lon="-0.20373">
        <ele>67</ele>
        <time>2020-05-31T07:58:09Z</time>
      </trkpt>
      <trkpt lat="46.41389" lon="-0.2038">
        <ele>67.1</ele>
        <time>2020-05-31T07:58:10Z</time>
      </trkpt>
      <trkpt lat="46.41387" lon="-0.20386">
        <ele>67.3</ele>
        <time>2020-05-31T07:58:11Z</time>
      </trkpt>
      <trkpt lat="46.41385" lon="-0.20391">
        <ele>67.4</ele>
        <time>2020-05-31T07:58:12Z</time>
      </trkpt>
      <trkpt lat="46.41383" lon="-0.20397">
        <ele>67.6</ele>
        <time>2020-05-31T07:58:13Z</time>
      </trkpt>
      <trkpt lat="46.41381" lon="-0.20403">
        <ele>67.8</ele>
        <time>2020-05-31T07:58:14Z</time>
      </trkpt>
      <trkpt lat="46.4138" lon="-0.2041">
        <ele>68</ele>
        <time>2020-05-31T07:58:15Z</time>
      </trkpt>
      <trkpt lat="46.41377" lon="-0.20417">
        <ele>68.2</ele>
        <time>2020-05-31T07:58:16Z</time>
      </trkpt>
      <trkpt lat="46.41376" lon="-0.20423">
        <ele>68.4</ele>
        <time>2020-05-31T07:58:17Z</time>
      </trkpt>
      <trkpt lat="46.41374" lon="-0.20429">
        <ele>68.6</ele>
        <time>2020-05-31T07:58:18Z</time>
      </trkpt>
      <trkpt lat="46.41371" lon="-0.20435">
        <ele>68.8</ele>
        <time>2020-05-31T07:58:19Z</time>
      </trkpt>
      <trkpt lat="46.4137" lon="-0.20441">
        <ele>68.9</ele>
        <time>2020-05-31T07:58:20Z</time>
      </trkpt>
      <trkpt lat="46.41368" lon="-0.20447">
        <ele>69.1</ele>
        <time>2020-05-31T07:58:21Z</time>
      </trkpt>
      <trkpt lat="46.41367" lon="-0.20453">
        <ele>69.2</ele>
        <time>2020-05-31T07:58:22Z</time>
      </trkpt>
      <trkpt lat="46.41365" lon="-0.2046">
        <ele>69.4</ele>
        <time>2020-05-31T07:58:23Z</time>
      </trkpt>
      <trkpt lat="46.41363" lon="-0.20466">
        <ele>69.5</ele>
        <time>2020-05-31T07:58:24Z</time>
      </trkpt>
      <trkpt lat="46.41361" lon="-0.20472">
        <ele>69.6</ele>
        <time>2020-05-31T07:58:25Z</time>
      </trkpt>
      <trkpt lat="46.4136" lon="-0.20479">
        <ele>69.7</ele>
        <time>2020-05-31T07:58:26Z</time>
      </trkpt>
      <trkpt lat="46.41358" lon="-0.20485">
        <ele>69.8</ele>
        <time>2020-05-31T07:58:27Z</time>
      </trkpt>
      <trkpt lat="46.41356" lon="-0.20491">
        <ele>70</ele>
        <time>2020-05-31T07:58:28Z</time>
      </trkpt>
      <trkpt lat="46.41354" lon="-0.20497">
        <ele>70.1</ele>
        <time>2020-05-31T07:58:29Z</time>
      </trkpt>
      <trkpt lat="46.41352" lon="-0.20503">
        <ele>70.2</ele>
        <time>2020-05-31T07:58:30Z</time>
      </trkpt>
      <trkpt lat="46.4135" lon="-0.20509">
        <ele>70.4</ele>
        <time>2020-05-31T07:58:31Z</time>
      </trkpt>
      <trkpt lat="46.41348" lon="-0.20515">
        <ele>70.5</ele>
        <time>2020-05-31T07:58:32Z</time>
      </trkpt>
      <trkpt lat="46.41347" lon="-0.20521">
        <ele>70.7</ele>
        <time>2020-05-31T07:58:33Z</time>
      </trkpt>
      <trkpt lat="46.41345" lon="-0.20527">
        <ele>70.9</ele>
        <time>2020-05-31T07:58:34Z</time>
      </trkpt>
      <trkpt lat="46.41343" lon="-0.20534">
        <ele>71.1</ele>
        <time>2020-05-31T07:58:35Z</time>
      </trkpt>
      <trkpt lat="46.41342" lon="-0.2054">
        <ele>71.2</ele>
        <time>2020-05-31T07:58:36Z</time>
      </trkpt>
      <trkpt lat="46.4134" lon="-0.20547">
        <ele>71.4</ele>
        <time>2020-05-31T07:58:37Z</time>
      </trkpt>
      <trkpt lat="46.41338" lon="-0.20553">
        <ele>71.5</ele>
        <time>2020-05-31T07:58:38Z</time>
      </trkpt>
      <trkpt lat="46.41336" lon="-0.2056">
        <ele>71.6</ele>
        <time>2020-05-31T07:58:39Z</time>
      </trkpt>
      <trkpt lat="46.41334" lon="-0.20565">
        <ele>71.7</ele>
        <time>2020-05-31T07:58:40Z</time>
      </trkpt>
      <trkpt lat="46.41332" lon="-0.20571">
        <ele>71.9</ele>
        <time>2020-05-31T07:58:41Z</time>
      </trkpt>
      <trkpt lat="46.41329" lon="-0.20576">
        <ele>72.1</ele>
        <time>2020-05-31T07:58:42Z</time>
      </trkpt>
      <trkpt lat="46.41328" lon="-0.20581">
        <ele>72.3</ele>
        <time>2020-05-31T07:58:43Z</time>
      </trkpt>
      <trkpt lat="46.41325" lon="-0.20587">
        <ele>72.5</ele>
        <time>2020-05-31T07:58:44Z</time>
      </trkpt>
      <trkpt lat="46.41323" lon="-0.20593">
        <ele>72.7</ele>
        <time>2020-05-31T07:58:45Z</time>
      </trkpt>
      <trkpt lat="46.41321" lon="-0.20599">
        <ele>72.9</ele>
        <time>2020-05-31T07:58:46Z</time>
      </trkpt>
      <trkpt lat="46.41319" lon="-0.20604">
        <ele>73.1</ele>
        <time>2020-05-31T07:58:47Z</time>
      </trkpt>
      <trkpt lat="46.41316" lon="-0.20609">
        <ele>73.3</ele>
        <time>2020-05-31T07:58:48Z</time>
      </trkpt>
      <trkpt lat="46.41315" lon="-0.20615">
        <ele>73.5</ele>
        <time>2020-05-31T07:58:49Z</time>
      </trkpt>
      <trkpt lat="46.41313" lon="-0.2062">
        <ele>73.7</ele>
        <time>2020-05-31T07:58:50Z</time>
      </trkpt>
      <trkpt lat="46.41312" lon="-0.20626">
        <ele>73.8</ele>
        <time>2020-05-31T07:58:51Z</time>
      </trkpt>
      <trkpt lat="46.4131" lon="-0.20632">
        <ele>74</ele>
        <time>2020-05-31T07:58:52Z</time>
      </trkpt>
      <trkpt lat="46.41308" lon="-0.20637">
        <ele>74.1</ele>
        <time>2020-05-31T07:58:53Z</time>
      </trkpt>
      <trkpt lat="46.41306" lon="-0.20643">
        <ele>74.3</ele>
        <time>2020-05-31T07:58:54Z</time>
      </trkpt>
      <trkpt lat="46.41305" lon="-0.2065">
        <ele>74.6</ele>
        <time>2020-05-31T07:58:55Z</time>
      </trkpt>
      <trkpt lat="46.41303" lon="-0.20656">
        <ele>74.8</ele>
        <time>2020-05-31T07:58:56Z</time>
      </trkpt>
      <trkpt lat="46.41301" lon="-0.20663">
        <ele>75</ele>
        <time>2020-05-31T07:58:57Z</time>
      </trkpt>
      <trkpt lat="46.41298" lon="-0.20668">
        <ele>75.2</ele>
        <time>2020-05-31T07:58:58Z</time>
      </trkpt>
      <trkpt lat="46.41297" lon="-0.20674">
        <ele>75.3</ele>
        <time>2020-05-31T07:58:59Z</time>
      </trkpt>
      <trkpt lat="46.41296" lon="-0.2068">
        <ele>75.5</ele>
        <time>2020-05-31T07:59:00Z</time>
      </trkpt>
      <trkpt lat="46.41293" lon="-0.20686">
        <ele>75.6</ele>
        <time>2020-05-31T07:59:01Z</time>
      </trkpt>
      <trkpt lat="46.41291" lon="-0.20692">
        <ele>75.8</ele>
        <time>2020-05-31T07:59:02Z</time>
      </trkpt>
      <trkpt lat="46.41289" lon="-0.20698">
        <ele>76</ele>
        <time>2020-05-31T07:59:03Z</time>
      </trkpt>
      <trkpt lat="46.41288" lon="-0.20704">
        <ele>76.1</ele>
        <time>2020-05-31T07:59:04Z</time>
      </trkpt>
      <trkpt lat="46.41286" lon="-0.20709">
        <ele>76.3</ele>
        <time>2020-05-31T07:59:05Z</time>
      </trkpt>
      <trkpt lat="46.41285" lon="-0.20714">
        <ele>76.5</ele>
        <time>2020-05-31T07:59:06Z</time>
      </trkpt>
      <trkpt lat="46.41283" lon="-0.20719">
        <ele>76.7</ele>
        <time>2020-05-31T07:59:07Z</time>
      </trkpt>
      <trkpt lat="46.41282" lon="-0.20724">
        <ele>76.9</ele>
        <time>2020-05-31T07:59:08Z</time>
      </trkpt>
      <trkpt lat="46.4128" lon="-0.2073">
        <ele>77.2</ele>
        <time>2020-05-31T07:59:09Z</time>
      </trkpt>
      <trkpt lat="46.41278" lon="-0.20737">
        <ele>77.5</ele>
        <time>2020-05-31T07:59:10Z</time>
      </trkpt>
      <trkpt lat="46.41277" lon="-0.20743">
        <ele>77.7</ele>
        <time>2020-05-31T07:59:11Z</time>
      </trkpt>
      <trkpt lat="46.41275" lon="-0.20748">
        <ele>77.9</ele>
        <time>2020-05-31T07:59:12Z</time>
      </trkpt>
      <trkpt lat="46.41274" lon="-0.20754">
        <ele>78.1</ele>
        <time>2020-05-31T07:59:13Z</time>
      </trkpt>
      <trkpt lat="46.41273" lon="-0.20759">
        <ele>78.3</ele>
        <time>2020-05-31T07:59:14Z</time>
      </trkpt>
      <trkpt lat="46.41272" lon="-0.20764">
        <ele>78.5</ele>
        <time>2020-05-31T07:59:15Z</time>
      </trkpt>
      <trkpt lat="46.4127" lon="-0.2077">
        <ele>78.6</ele>
        <time>2020-05-31T07:59:16Z</time>
      </trkpt>
      <trkpt lat="46.41269" lon="-0.20776">
        <ele>78.7</ele>
        <time>2020-05-31T07:59:17Z</time>
      </trkpt>
      <trkpt lat="46.41267" lon="-0.2078">
        <ele>78.8</ele>
        <time>2020-05-31T07:59:18Z</time>
      </trkpt>
      <trkpt lat="46.41266" lon="-0.20785">
        <ele>78.9</ele>
        <time>2020-05-31T07:59:19Z</time>
      </trkpt>
      <trkpt lat="46.41264" lon="-0.20791">
        <ele>79</ele>
        <time>2020-05-31T07:59:20Z</time>
      </trkpt>
      <trkpt lat="46.41263" lon="-0.20797">
        <ele>79.1</ele>
        <time>2020-05-31T07:59:21Z</time>
      </trkpt>
      <trkpt lat="46.41261" lon="-0.20803">
        <ele>79.2</ele>
        <time>2020-05-31T07:59:22Z</time>
      </trkpt>
      <trkpt lat="46.41259" lon="-0.20809">
        <ele>79.2</ele>
        <time>2020-05-31T07:59:23Z</time>
      </trkpt>
      <trkpt lat="46.41257" lon="-0.20814">
        <ele>79.3</ele>
        <time>2020-05-31T07:59:24Z</time>
      </trkpt>
      <trkpt lat="46.41255" lon="-0.2082">
        <ele>79.3</ele>
        <time>2020-05-31T07:59:25Z</time>
      </trkpt>
      <trkpt lat="46.41254" lon="-0.20825">
        <ele>79.3</ele>
        <time>2020-05-31T07:59:26Z</time>
      </trkpt>
      <trkpt lat="46.41252" lon="-0.2083">
        <ele>79.5</ele>
        <time>2020-05-31T07:59:27Z</time>
      </trkpt>
      <trkpt lat="46.41251" lon="-0.20835">
        <ele>79.7</ele>
        <time>2020-05-31T07:59:28Z</time>
      </trkpt>
      <trkpt lat="46.41249" lon="-0.20839">
        <ele>79.9</ele>
        <time>2020-05-31T07:59:29Z</time>
      </trkpt>
      <trkpt lat="46.41248" lon="-0.20845">
        <ele>80.1</ele>
        <time>2020-05-31T07:59:30Z</time>
      </trkpt>
      <trkpt lat="46.41247" lon="-0.2085">
        <ele>80.2</ele>
        <time>2020-05-31T07:59:31Z</time>
      </trkpt>
      <trkpt lat="46.41245" lon="-0.20855">
        <ele>80.4</ele>
        <time>2020-05-31T07:59:32Z</time>
      </trkpt>
      <trkpt lat="46.41243" lon="-0.2086">
        <ele>80.6</ele>
        <time>2020-05-31T07:59:33Z</time>
      </trkpt>
      <trkpt lat="46.41242" lon="-0.20865">
        <ele>80.8</ele>
        <time>2020-05-31T07:59:34Z</time>
      </trkpt>
      <trkpt lat="46.4124" lon="-0.2087">
        <ele>81</ele>
        <time>2020-05-31T07:59:35Z</time>
      </trkpt>
      <trkpt lat="46.41239" lon="-0.20875">
        <ele>81.2</ele>
        <time>2020-05-31T07:59:36Z</time>
      </trkpt>
      <trkpt lat="46.41238" lon="-0.2088">
        <ele>81.5</ele>
        <time>2020-05-31T07:59:37Z</time>
      </trkpt>
      <trkpt lat="46.41237" lon="-0.20886">
        <ele>81.7</ele>
        <time>2020-05-31T07:59:38Z</time>
      </trkpt>
      <trkpt lat="46.41236" lon="-0.20891">
        <ele>81.9</ele>
        <time>2020-05-31T07:59:39Z</time>
      </trkpt>
      <trkpt lat="46.41235" lon="-0.20896">
        <ele>82.1</ele>
        <time>2020-05-31T07:59:40Z</time>
      </trkpt>
      <trkpt lat="46.41233" lon="-0.20901">
        <ele>82.4</ele>
        <time>2020-05-31T07:59:41Z</time>
      </trkpt>
      <trkpt lat="46.41232" lon="-0.20906">
        <ele>82.6</ele>
        <time>2020-05-31T07:59:42Z</time>
      </trkpt>
      <trkpt lat="46.41231" lon="-0.20911">
        <ele>82.8</ele>
        <time>2020-05-31T07:59:43Z</time>
      </trkpt>
      <trkpt lat="46.41229" lon="-0.20916">
        <ele>82.9</ele>
        <time>2020-05-31T07:59:44Z</time>
      </trkpt>
      <trkpt lat="46.41228" lon="-0.20922">
        <ele>83.1</ele>
        <time>2020-05-31T07:59:45Z</time>
      </trkpt>
      <trkpt lat="46.41227" lon="-0.20927">
        <ele>83.3</ele>
        <time>2020-05-31T07:59:46Z</time>
      </trkpt>
      <trkpt lat="46.41225" lon="-0.20932">
        <ele>83.5</ele>
        <time>2020-05-31T07:59:47Z</time>
      </trkpt>
      <trkpt lat="46.41223" lon="-0.20938">
        <ele>83.6</ele>
        <time>2020-05-31T07:59:48Z</time>
      </trkpt>
      <trkpt lat="46.41221" lon="-0.20943">
        <ele>83.7</ele>
        <time>2020-05-31T07:59:49Z</time>
      </trkpt>
      <trkpt lat="46.4122" lon="-0.20948">
        <ele>83.8</ele>
        <time>2020-05-31T07:59:50Z</time>
      </trkpt>
      <trkpt lat="46.41218" lon="-0.20953">
        <ele>84.1</ele>
        <time>2020-05-31T07:59:51Z</time>
      </trkpt>
      <trkpt lat="46.41216" lon="-0.20958">
        <ele>84.2</ele>
        <time>2020-05-31T07:59:52Z</time>
      </trkpt>
      <trkpt lat="46.41214" lon="-0.20963">
        <ele>84.4</ele>
        <time>2020-05-31T07:59:53Z</time>
      </trkpt>
      <trkpt lat="46.41213" lon="-0.20967">
        <ele>84.6</ele>
        <time>2020-05-31T07:59:54Z</time>
      </trkpt>
      <trkpt lat="46.41212" lon="-0.20972">
        <ele>84.7</ele>
        <time>2020-05-31T07:59:55Z</time>
      </trkpt>
      <trkpt lat="46.41211" lon="-0.20977">
        <ele>84.9</ele>
        <time>2020-05-31T07:59:56Z</time>
      </trkpt>
      <trkpt lat="46.4121" lon="-0.20982">
        <ele>85.1</ele>
        <time>2020-05-31T07:59:57Z</time>
      </trkpt>
      <trkpt lat="46.41209" lon="-0.20987">
        <ele>85.3</ele>
        <time>2020-05-31T07:59:58Z</time>
      </trkpt>
      <trkpt lat="46.41208" lon="-0.20991">
        <ele>85.5</ele>
        <time>2020-05-31T07:59:59Z</time>
      </trkpt>
      <trkpt lat="46.41206" lon="-0.20996">
        <ele>85.6</ele>
        <time>2020-05-31T08:00:00Z</time>
      </trkpt>
      <trkpt lat="46.41205" lon="-0.21">
        <ele>85.8</ele>
        <time>2020-05-31T08:00:01Z</time>
      </trkpt>
      <trkpt lat="46.41204" lon="-0.21005">
        <ele>86</ele>
        <time>2020-05-31T08:00:02Z</time>
      </trkpt>
      <trkpt lat="46.41202" lon="-0.21009">
        <ele>86.1</ele>
        <time>2020-05-31T08:00:03Z</time>
      </trkpt>
      <trkpt lat="46.41201" lon="-0.21014">
        <ele>86.3</ele>
        <time>2020-05-31T08:00:04Z</time>
      </trkpt>
      <trkpt lat="46.412" lon="-0.2102">
        <ele>86.4</ele>
        <time>2020-05-31T08:00:05Z</time>
      </trkpt>
      <trkpt lat="46.41199" lon="-0.21024">
        <ele>86.6</ele>
        <time>2020-05-31T08:00:06Z</time>
      </trkpt>
      <trkpt lat="46.41199" lon="-0.2103">
        <ele>86.7</ele>
        <time>2020-05-31T08:00:07Z</time>
      </trkpt>
      <trkpt lat="46.41198" lon="-0.21034">
        <ele>86.8</ele>
        <time>2020-05-31T08:00:08Z</time>
      </trkpt>
      <trkpt lat="46.41196" lon="-0.21038">
        <ele>86.9</ele>
        <time>2020-05-31T08:00:09Z</time>
      </trkpt>
      <trkpt lat="46.41195" lon="-0.21043">
        <ele>86.9</ele>
        <time>2020-05-31T08:00:10Z</time>
      </trkpt>
      <trkpt lat="46.41193" lon="-0.21047">
        <ele>87</ele>
        <time>2020-05-31T08:00:11Z</time>
      </trkpt>
      <trkpt lat="46.41191" lon="-0.21052">
        <ele>87.1</ele>
        <time>2020-05-31T08:00:12Z</time>
      </trkpt>
      <trkpt lat="46.41189" lon="-0.21056">
        <ele>87.2</ele>
        <time>2020-05-31T08:00:13Z</time>
      </trkpt>
      <trkpt lat="46.41188" lon="-0.2106">
        <ele>87.3</ele>
        <time>2020-05-31T08:00:14Z</time>
      </trkpt>
      <trkpt lat="46.41186" lon="-0.21065">
        <ele>87.5</ele>
        <time>2020-05-31T08:00:15Z</time>
      </trkpt>
      <trkpt lat="46.41185" lon="-0.21069">
        <ele>87.6</ele>
        <time>2020-05-31T08:00:16Z</time>
      </trkpt>
      <trkpt lat="46.41183" lon="-0.21073">
        <ele>87.7</ele>
        <time>2020-05-31T08:00:17Z</time>
      </trkpt>
      <trkpt lat="46.41182" lon="-0.21077">
        <ele>87.8</ele>
        <time>2020-05-31T08:00:18Z</time>
      </trkpt>
      <trkpt lat="46.4118" lon="-0.21082">
        <ele>88</ele>
        <time>2020-05-31T08:00:19Z</time>
      </trkpt>
      <trkpt lat="46.4118" lon="-0.21086">
        <ele>88.1</ele>
        <time>2020-05-31T08:00:20Z</time>
      </trkpt>
      <trkpt lat="46.41178" lon="-0.21091">
        <ele>88.3</ele>
        <time>2020-05-31T08:00:21Z</time>
      </trkpt>
      <trkpt lat="46.41176" lon="-0.21096">
        <ele>88.4</ele>
        <time>2020-05-31T08:00:22Z</time>
      </trkpt>
      <trkpt lat="46.41175" lon="-0.211">
        <ele>88.6</ele>
        <time>2020-05-31T08:00:23Z</time>
      </trkpt>
      <trkpt lat="46.41174" lon="-0.21104">
        <ele>88.7</ele>
        <time>2020-05-31T08:00:24Z</time>
      </trkpt>
      <trkpt lat="46.41173" lon="-0.21108">
        <ele>88.8</ele>
        <time>2020-05-31T08:00:25Z</time>
      </trkpt>
      <trkpt lat="46.41171" lon="-0.21114">
        <ele>89</ele>
        <time>2020-05-31T08:00:26Z</time>
      </trkpt>
      <trkpt lat="46.41169" lon="-0.21119">
        <ele>89.2</ele>
        <time>2020-05-31T08:00:27Z</time>
      </trkpt>
      <trkpt lat="46.41168" lon="-0.21125">
        <ele>89.4</ele>
        <time>2020-05-31T08:00:28Z</time>
      </trkpt>
      <trkpt lat="46.41167" lon="-0.21131">
        <ele>89.6</ele>
        <time>2020-05-31T08:00:29Z</time>
      </trkpt>
      <trkpt lat="46.41165" lon="-0.21137">
        <ele>89.8</ele>
        <time>2020-05-31T08:00:30Z</time>
      </trkpt>
      <trkpt lat="46.41164" lon="-0.21143">
        <ele>90</ele>
        <time>2020-05-31T08:00:31Z</time>
      </trkpt>
      <trkpt lat="46.41162" lon="-0.21149">
        <ele>90.2</ele>
        <time>2020-05-31T08:00:32Z</time>
      </trkpt>
      <trkpt lat="46.4116" lon="-0.21155">
        <ele>90.4</ele>
        <time>2020-05-31T08:00:33Z</time>
      </trkpt>
      <trkpt lat="46.41159" lon="-0.21161">
        <ele>90.6</ele>
        <time>2020-05-31T08:00:34Z</time>
      </trkpt>
      <trkpt lat="46.41157" lon="-0.21168">
        <ele>90.9</ele>
        <time>2020-05-31T08:00:35Z</time>
      </trkpt>
      <trkpt lat="46.41156" lon="-0.21175">
        <ele>91.1</ele>
        <time>2020-05-31T08:00:36Z</time>
      </trkpt>
      <trkpt lat="46.41153" lon="-0.21183">
        <ele>91.4</ele>
        <time>2020-05-31T08:00:37Z</time>
      </trkpt>
      <trkpt lat="46.41151" lon="-0.2119">
        <ele>91.6</ele>
        <time>2020-05-31T08:00:38Z</time>
      </trkpt>
      <trkpt lat="46.4115" lon="-0.21196">
        <ele>91.9</ele>
        <time>2020-05-31T08:00:39Z</time>
      </trkpt>
      <trkpt lat="46.41148" lon="-0.21203">
        <ele>92.1</ele>
        <time>2020-05-31T08:00:40Z</time>
      </trkpt>
      <trkpt lat="46.41146" lon="-0.21209">
        <ele>92.3</ele>
        <time>2020-05-31T08:00:41Z</time>
      </trkpt>
      <trkpt lat="46.41143" lon="-0.21216">
        <ele>92.6</ele>
        <time>2020-05-31T08:00:42Z</time>
      </trkpt>
      <trkpt lat="46.41141" lon="-0.21222">
        <ele>92.8</ele>
        <time>2020-05-31T08:00:43Z</time>
      </trkpt>
      <trkpt lat="46.4114" lon="-0.21229">
        <ele>93</ele>
        <time>2020-05-31T08:00:44Z</time>
      </trkpt>
      <trkpt lat="46.41138" lon="-0.21236">
        <ele>93.2</ele>
        <time>2020-05-31T08:00:45Z</time>
      </trkpt>
      <trkpt lat="46.41136" lon="-0.21242">
        <ele>93.4</ele>
        <time>2020-05-31T08:00:46Z</time>
      </trkpt>
      <trkpt lat="46.41134" lon="-0.21249">
        <ele>93.7</ele>
        <time>2020-05-31T08:00:47Z</time>
      </trkpt>
      <trkpt lat="46.41133" lon="-0.21256">
        <ele>93.9</ele>
        <time>2020-05-31T08:00:48Z</time>
      </trkpt>
      <trkpt lat="46.41131" lon="-0.21262">
        <ele>94.1</ele>
        <time>2020-05-31T08:00:49Z</time>
      </trkpt>
      <trkpt lat="46.41129" lon="-0.21269">
        <ele>94.3</ele>
        <time>2020-05-31T08:00:50Z</time>
      </trkpt>
      <trkpt lat="46.41127" lon="-0.21276">
        <ele>94.5</ele>
        <time>2020-05-31T08:00:51Z</time>
      </trkpt>
      <trkpt lat="46.41125" lon="-0.21283">
        <ele>94.7</ele>
        <time>2020-05-31T08:00:52Z</time>
      </trkpt>
      <trkpt lat="46.41123" lon="-0.2129">
        <ele>94.8</ele>
        <time>2020-05-31T08:00:53Z</time>
      </trkpt>
      <trkpt lat="46.41121" lon="-0.21296">
        <ele>94.9</ele>
        <time>2020-05-31T08:00:54Z</time>
      </trkpt>
      <trkpt lat="46.4112" lon="-0.21304">
        <ele>94.9</ele>
        <time>2020-05-31T08:00:55Z</time>
      </trkpt>
      <trkpt lat="46.41118" lon="-0.21311">
        <ele>95</ele>
        <time>2020-05-31T08:00:56Z</time>
      </trkpt>
      <trkpt lat="46.41116" lon="-0.21318">
        <ele>95.4</ele>
        <time>2020-05-31T08:00:57Z</time>
      </trkpt>
      <trkpt lat="46.41114" lon="-0.21324">
        <ele>95.6</ele>
        <time>2020-05-31T08:00:58Z</time>
      </trkpt>
      <trkpt lat="46.41112" lon="-0.21331">
        <ele>95.8</ele>
        <time>2020-05-31T08:00:59Z</time>
      </trkpt>
      <trkpt lat="46.4111" lon="-0.21339">
        <ele>96.1</ele>
        <time>2020-05-31T08:01:00Z</time>
      </trkpt>
      <trkpt lat="46.41108" lon="-0.21345">
        <ele>96.4</ele>
        <time>2020-05-31T08:01:01Z</time>
      </trkpt>
      <trkpt lat="46.41107" lon="-0.21352">
        <ele>96.6</ele>
        <time>2020-05-31T08:01:02Z</time>
      </trkpt>
      <trkpt lat="46.41105" lon="-0.21359">
        <ele>96.9</ele>
        <time>2020-05-31T08:01:03Z</time>
      </trkpt>
      <trkpt lat="46.41103" lon="-0.21364">
        <ele>97.1</ele>
        <time>2020-05-31T08:01:04Z</time>
      </trkpt>
      <trkpt lat="46.41101" lon="-0.21372">
        <ele>97.4</ele>
        <time>2020-05-31T08:01:05Z</time>
      </trkpt>
      <trkpt lat="46.41099" lon="-0.21379">
        <ele>97.6</ele>
        <time>2020-05-31T08:01:06Z</time>
      </trkpt>
      <trkpt lat="46.41096" lon="-0.21387">
        <ele>97.9</ele>
        <time>2020-05-31T08:01:07Z</time>
      </trkpt>
      <trkpt lat="46.41095" lon="-0.21393">
        <ele>98.2</ele>
        <time>2020-05-31T08:01:08Z</time>
      </trkpt>
      <trkpt lat="46.41093" lon="-0.21399">
        <ele>98.4</ele>
        <time>2020-05-31T08:01:09Z</time>
      </trkpt>
      <trkpt lat="46.41092" lon="-0.21405">
        <ele>98.6</ele>
        <time>2020-05-31T08:01:10Z</time>
      </trkpt>
      <trkpt lat="46.4109" lon="-0.21411">
        <ele>98.8</ele>
        <time>2020-05-31T08:01:11Z</time>
      </trkpt>
      <trkpt lat="46.41089" lon="-0.21417">
        <ele>99</ele>
        <time>2020-05-31T08:01:12Z</time>
      </trkpt>
      <trkpt lat="46.41087" lon="-0.21423">
        <ele>99.2</ele>
        <time>2020-05-31T08:01:13Z</time>
      </trkpt>
      <trkpt lat="46.41086" lon="-0.21429">
        <ele>99.3</ele>
        <time>2020-05-31T08:01:14Z</time>
      </trkpt>
      <trkpt lat="46.41084" lon="-0.21436">
        <ele>99.5</ele>
        <time>2020-05-31T08:01:15Z</time>
      </trkpt>
      <trkpt lat="46.41082" lon="-0.21443">
        <ele>99.8</ele>
        <time>2020-05-31T08:01:16Z</time>
      </trkpt>
      <trkpt lat="46.41081" lon="-0.21449">
        <ele>99.9</ele>
        <time>2020-05-31T08:01:17Z</time>
      </trkpt>
      <trkpt lat="46.41078" lon="-0.21455">
        <ele>100.1</ele>
        <time>2020-05-31T08:01:18Z</time>
      </trkpt>
      <trkpt lat="46.41075" lon="-0.21461">
        <ele>100.2</ele>
        <time>2020-05-31T08:01:19Z</time>
      </trkpt>
      <trkpt lat="46.41072" lon="-0.21467">
        <ele>100.4</ele>
        <time>2020-05-31T08:01:20Z</time>
      </trkpt>
      <trkpt lat="46.41069" lon="-0.21473">
        <ele>100.5</ele>
        <time>2020-05-31T08:01:21Z</time>
      </trkpt>
      <trkpt lat="46.41065" lon="-0.2148">
        <ele>100.7</ele>
        <time>2020-05-31T08:01:22Z</time>
      </trkpt>
      <trkpt lat="46.41062" lon="-0.21488">
        <ele>100.9</ele>
        <time>2020-05-31T08:01:23Z</time>
      </trkpt>
      <trkpt lat="46.41059" lon="-0.21494">
        <ele>101</ele>
        <time>2020-05-31T08:01:24Z</time>
      </trkpt>
      <trkpt lat="46.41056" lon="-0.21502">
        <ele>101</ele>
        <time>2020-05-31T08:01:25Z</time>
      </trkpt>
      <trkpt lat="46.41052" lon="-0.2151">
        <ele>101.1</ele>
        <time>2020-05-31T08:01:26Z</time>
      </trkpt>
      <trkpt lat="46.41049" lon="-0.21518">
        <ele>101.2</ele>
        <time>2020-05-31T08:01:27Z</time>
      </trkpt>
      <trkpt lat="46.41045" lon="-0.21526">
        <ele>101.3</ele>
        <time>2020-05-31T08:01:28Z</time>
      </trkpt>
      <trkpt lat="46.41042" lon="-0.21534">
        <ele>101.3</ele>
        <time>2020-05-31T08:01:29Z</time>
      </trkpt>
      <trkpt lat="46.41038" lon="-0.21543">
        <ele>101.4</ele>
        <time>2020-05-31T08:01:30Z</time>
      </trkpt>
      <trkpt lat="46.41034" lon="-0.21551">
        <ele>101.5</ele>
        <time>2020-05-31T08:01:31Z</time>
      </trkpt>
      <trkpt lat="46.41031" lon="-0.21558">
        <ele>101.5</ele>
        <time>2020-05-31T08:01:32Z</time>
      </trkpt>
      <trkpt lat="46.41029" lon="-0.21566">
        <ele>101.6</ele>
        <time>2020-05-31T08:01:33Z</time>
      </trkpt>
      <trkpt lat="46.41025" lon="-0.21574">
        <ele>101.6</ele>
        <time>2020-05-31T08:01:34Z</time>
      </trkpt>
      <trkpt lat="46.41021" lon="-0.21582">
        <ele>101.7</ele>
        <time>2020-05-31T08:01:35Z</time>
      </trkpt>
      <trkpt lat="46.41017" lon="-0.21591">
        <ele>101.7</ele>
        <time>2020-05-31T08:01:36Z</time>
      </trkpt>
      <trkpt lat="46.41014" lon="-0.21599">
        <ele>101.7</ele>
        <time>2020-05-31T08:01:37Z</time>
      </trkpt>
      <trkpt lat="46.41011" lon="-0.21607">
        <ele>101.7</ele>
        <time>2020-05-31T08:01:38Z</time>
      </trkpt>
      <trkpt lat="46.41007" lon="-0.21616">
        <ele>101.7</ele>
        <time>2020-05-31T08:01:39Z</time>
      </trkpt>
      <trkpt lat="46.41004" lon="-0.21624">
        <ele>101.7</ele>
        <time>2020-05-31T08:01:40Z</time>
      </trkpt>
      <trkpt lat="46.41" lon="-0.21633">
        <ele>101.7</ele>
        <time>2020-05-31T08:01:41Z</time>
      </trkpt>
      <trkpt lat="46.40997" lon="-0.21641">
        <ele>101.7</ele>
        <time>2020-05-31T08:01:42Z</time>
      </trkpt>
      <trkpt lat="46.40994" lon="-0.21648">
        <ele>101.7</ele>
        <time>2020-05-31T08:01:43Z</time>
      </trkpt>
      <trkpt lat="46.4099" lon="-0.21657">
        <ele>101.8</ele>
        <time>2020-05-31T08:01:44Z</time>
      </trkpt>
      <trkpt lat="46.40988" lon="-0.21666">
        <ele>101.9</ele>
        <time>2020-05-31T08:01:45Z</time>
      </trkpt>
      <trkpt lat="46.40984" lon="-0.21675">
        <ele>102</ele>
        <time>2020-05-31T08:01:46Z</time>
      </trkpt>
      <trkpt lat="46.40981" lon="-0.21684">
        <ele>102.2</ele>
        <time>2020-05-31T08:01:47Z</time>
      </trkpt>
      <trkpt lat="46.40978" lon="-0.21692">
        <ele>102.3</ele>
        <time>2020-05-31T08:01:48Z</time>
      </trkpt>
      <trkpt lat="46.40973" lon="-0.21701">
        <ele>102.5</ele>
        <time>2020-05-31T08:01:49Z</time>
      </trkpt>
      <trkpt lat="46.4097" lon="-0.21709">
        <ele>102.6</ele>
        <time>2020-05-31T08:01:50Z</time>
      </trkpt>
      <trkpt lat="46.40966" lon="-0.21718">
        <ele>102.8</ele>
        <time>2020-05-31T08:01:51Z</time>
      </trkpt>
      <trkpt lat="46.40961" lon="-0.21726">
        <ele>102.9</ele>
        <time>2020-05-31T08:01:52Z</time>
      </trkpt>
      <trkpt lat="46.40957" lon="-0.21733">
        <ele>103.1</ele>
        <time>2020-05-31T08:01:53Z</time>
      </trkpt>
      <trkpt lat="46.40954" lon="-0.21742">
        <ele>103.3</ele>
        <time>2020-05-31T08:01:54Z</time>
      </trkpt>
      <trkpt lat="46.4095" lon="-0.21751">
        <ele>103.5</ele>
        <time>2020-05-31T08:01:55Z</time>
      </trkpt>
      <trkpt lat="46.40947" lon="-0.2176">
        <ele>103.6</ele>
        <time>2020-05-31T08:01:56Z</time>
      </trkpt>
      <trkpt lat="46.40944" lon="-0.21769">
        <ele>103.9</ele>
        <time>2020-05-31T08:01:57Z</time>
      </trkpt>
      <trkpt lat="46.4094" lon="-0.21777">
        <ele>104.1</ele>
        <time>2020-05-31T08:01:58Z</time>
      </trkpt>
      <trkpt lat="46.40937" lon="-0.21786">
        <ele>104.4</ele>
        <time>2020-05-31T08:01:59Z</time>
      </trkpt>
      <trkpt lat="46.40933" lon="-0.21795">
        <ele>104.7</ele>
        <time>2020-05-31T08:02:00Z</time>
      </trkpt>
      <trkpt lat="46.4093" lon="-0.21803">
        <ele>105</ele>
        <time>2020-05-31T08:02:01Z</time>
      </trkpt>
      <trkpt lat="46.40927" lon="-0.21811">
        <ele>105.3</ele>
        <time>2020-05-31T08:02:02Z</time>
      </trkpt>
      <trkpt lat="46.40924" lon="-0.2182">
        <ele>105.6</ele>
        <time>2020-05-31T08:02:03Z</time>
      </trkpt>
      <trkpt lat="46.40921" lon="-0.21828">
        <ele>105.9</ele>
        <time>2020-05-31T08:02:04Z</time>
      </trkpt>
      <trkpt lat="46.40918" lon="-0.21836">
        <ele>106.2</ele>
        <time>2020-05-31T08:02:05Z</time>
      </trkpt>
      <trkpt lat="46.40914" lon="-0.21842">
        <ele>106.6</ele>
        <time>2020-05-31T08:02:06Z</time>
      </trkpt>
      <trkpt lat="46.40911" lon="-0.21849">
        <ele>106.9</ele>
        <time>2020-05-31T08:02:07Z</time>
      </trkpt>
      <trkpt lat="46.40908" lon="-0.21856">
        <ele>107.2</ele>
        <time>2020-05-31T08:02:08Z</time>
      </trkpt>
      <trkpt lat="46.40905" lon="-0.21862">
        <ele>107.5</ele>
        <time>2020-05-31T08:02:09Z</time>
      </trkpt>
      <trkpt lat="46.40902" lon="-0.21868">
        <ele>107.7</ele>
        <time>2020-05-31T08:02:10Z</time>
      </trkpt>
      <trkpt lat="46.40899" lon="-0.21875">
        <ele>108</ele>
        <time>2020-05-31T08:02:11Z</time>
      </trkpt>
      <trkpt lat="46.40896" lon="-0.21882">
        <ele>108.3</ele>
        <time>2020-05-31T08:02:12Z</time>
      </trkpt>
      <trkpt lat="46.40894" lon="-0.21889">
        <ele>108.6</ele>
        <time>2020-05-31T08:02:13Z</time>
      </trkpt>
      <trkpt lat="46.40891" lon="-0.21896">
        <ele>108.8</ele>
        <time>2020-05-31T08:02:14Z</time>
      </trkpt>
      <trkpt lat="46.40889" lon="-0.219">
        <ele>109</ele>
        <time>2020-05-31T08:02:15Z</time>
      </trkpt>
      <trkpt lat="46.40886" lon="-0.21906">
        <ele>109.3</ele>
        <time>2020-05-31T08:02:16Z</time>
      </trkpt>
      <trkpt lat="46.40881" lon="-0.21915">
        <ele>109.7</ele>
        <time>2020-05-31T08:02:17Z</time>
      </trkpt>
      <trkpt lat="46.40878" lon="-0.21921">
        <ele>110</ele>
        <time>2020-05-31T08:02:18Z</time>
      </trkpt>
      <trkpt lat="46.40876" lon="-0.21925">
        <ele>110.2</ele>
        <time>2020-05-31T08:02:19Z</time>
      </trkpt>
      <trkpt lat="46.40873" lon="-0.21931">
        <ele>110.4</ele>
        <time>2020-05-31T08:02:20Z</time>
      </trkpt>
      <trkpt lat="46.40871" lon="-0.21938">
        <ele>110.7</ele>
        <time>2020-05-31T08:02:21Z</time>
      </trkpt>
      <trkpt lat="46.40869" lon="-0.21942">
        <ele>110.9</ele>
        <time>2020-05-31T08:02:22Z</time>
      </trkpt>
      <trkpt lat="46.40867" lon="-0.21948">
        <ele>111.1</ele>
        <time>2020-05-31T08:02:23Z</time>
      </trkpt>
      <trkpt lat="46.40864" lon="-0.21954">
        <ele>111.3</ele>
        <time>2020-05-31T08:02:24Z</time>
      </trkpt>
      <trkpt lat="46.40862" lon="-0.21959">
        <ele>111.5</ele>
        <time>2020-05-31T08:02:25Z</time>
      </trkpt>
      <trkpt lat="46.4086" lon="-0.21964">
        <ele>111.6</ele>
        <time>2020-05-31T08:02:26Z</time>
      </trkpt>
      <trkpt lat="46.40858" lon="-0.2197">
        <ele>111.7</ele>
        <time>2020-05-31T08:02:27Z</time>
      </trkpt>
      <trkpt lat="46.40856" lon="-0.21976">
        <ele>111.8</ele>
        <time>2020-05-31T08:02:28Z</time>
      </trkpt>
      <trkpt lat="46.40854" lon="-0.21982">
        <ele>111.9</ele>
        <time>2020-05-31T08:02:29Z</time>
      </trkpt>
      <trkpt lat="46.40851" lon="-0.21989">
        <ele>112</ele>
        <time>2020-05-31T08:02:30Z</time>
      </trkpt>
      <trkpt lat="46.40847" lon="-0.21995">
        <ele>112.1</ele>
        <time>2020-05-31T08:02:31Z</time>
      </trkpt>
      <trkpt lat="46.40845" lon="-0.22001">
        <ele>112.2</ele>
        <time>2020-05-31T08:02:32Z</time>
      </trkpt>
      <trkpt lat="46.40842" lon="-0.22008">
        <ele>112.4</ele>
        <time>2020-05-31T08:02:33Z</time>
      </trkpt>
      <trkpt lat="46.4084" lon="-0.22014">
        <ele>112.6</ele>
        <time>2020-05-31T08:02:34Z</time>
      </trkpt>
      <trkpt lat="46.40838" lon="-0.22019">
        <ele>112.8</ele>
        <time>2020-05-31T08:02:35Z</time>
      </trkpt>
      <trkpt lat="46.40836" lon="-0.22024">
        <ele>112.9</ele>
        <time>2020-05-31T08:02:36Z</time>
      </trkpt>
      <trkpt lat="46.40834" lon="-0.22029">
        <ele>113.1</ele>
        <time>2020-05-31T08:02:37Z</time>
      </trkpt>
      <trkpt lat="46.40831" lon="-0.22034">
        <ele>113.1</ele>
        <time>2020-05-31T08:02:38Z</time>
      </trkpt>
      <trkpt lat="46.40829" lon="-0.22041">
        <ele>113.2</ele>
        <time>2020-05-31T08:02:39Z</time>
      </trkpt>
      <trkpt lat="46.40826" lon="-0.22048">
        <ele>113.2</ele>
        <time>2020-05-31T08:02:40Z</time>
      </trkpt>
      <trkpt lat="46.40823" lon="-0.22056">
        <ele>113.4</ele>
        <time>2020-05-31T08:02:41Z</time>
      </trkpt>
      <trkpt lat="46.4082" lon="-0.22063">
        <ele>113.5</ele>
        <time>2020-05-31T08:02:42Z</time>
      </trkpt>
      <trkpt lat="46.40817" lon="-0.22069">
        <ele>113.6</ele>
        <time>2020-05-31T08:02:43Z</time>
      </trkpt>
      <trkpt lat="46.40814" lon="-0.22076">
        <ele>113.8</ele>
        <time>2020-05-31T08:02:44Z</time>
      </trkpt>
      <trkpt lat="46.4081" lon="-0.22083">
        <ele>114</ele>
        <time>2020-05-31T08:02:45Z</time>
      </trkpt>
      <trkpt lat="46.40807" lon="-0.2209">
        <ele>114.2</ele>
        <time>2020-05-31T08:02:46Z</time>
      </trkpt>
      <trkpt lat="46.40805" lon="-0.22097">
        <ele>114.3</ele>
        <time>2020-05-31T08:02:47Z</time>
      </trkpt>
      <trkpt lat="46.40802" lon="-0.22104">
        <ele>114.5</ele>
        <time>2020-05-31T08:02:48Z</time>
      </trkpt>
      <trkpt lat="46.408" lon="-0.22112">
        <ele>114.6</ele>
        <time>2020-05-31T08:02:49Z</time>
      </trkpt>
      <trkpt lat="46.40797" lon="-0.22119">
        <ele>114.6</ele>
        <time>2020-05-31T08:02:50Z</time>
      </trkpt>
      <trkpt lat="46.40794" lon="-0.22126">
        <ele>114.7</ele>
        <time>2020-05-31T08:02:51Z</time>
      </trkpt>
      <trkpt lat="46.40791" lon="-0.22133">
        <ele>114.7</ele>
        <time>2020-05-31T08:02:52Z</time>
      </trkpt>
      <trkpt lat="46.40789" lon="-0.22139">
        <ele>114.8</ele>
        <time>2020-05-31T08:02:53Z</time>
      </trkpt>
      <trkpt lat="46.40786" lon="-0.22147">
        <ele>114.9</ele>
        <time>2020-05-31T08:02:54Z</time>
      </trkpt>
      <trkpt lat="46.40784" lon="-0.22152">
        <ele>115</ele>
        <time>2020-05-31T08:02:55Z</time>
      </trkpt>
      <trkpt lat="46.40781" lon="-0.22161">
        <ele>115.1</ele>
        <time>2020-05-31T08:02:56Z</time>
      </trkpt>
      <trkpt lat="46.40779" lon="-0.22167">
        <ele>115.2</ele>
        <time>2020-05-31T08:02:57Z</time>
      </trkpt>
      <trkpt lat="46.40777" lon="-0.22173">
        <ele>115.3</ele>
        <time>2020-05-31T08:02:58Z</time>
      </trkpt>
      <trkpt lat="46.40775" lon="-0.22178">
        <ele>115.4</ele>
        <time>2020-05-31T08:02:59Z</time>
      </trkpt>
      <trkpt lat="46.40774" lon="-0.22183">
        <ele>115.4</ele>
        <time>2020-05-31T08:03:00Z</time>
      </trkpt>
      <trkpt lat="46.40772" lon="-0.22187">
        <ele>115.5</ele>
        <time>2020-05-31T08:03:01Z</time>
      </trkpt>
      <trkpt lat="46.40771" lon="-0.22189">
        <ele>115.5</ele>
        <time>2020-05-31T08:03:02Z</time>
      </trkpt>
      <trkpt lat="46.40771" lon="-0.22189">
        <ele>115.5</ele>
        <time>2020-05-31T08:03:03Z</time>
      </trkpt>
      <trkpt lat="46.40771" lon="-0.22189">
        <ele>115.5</ele>
        <time>2020-05-31T08:03:04Z</time>
      </trkpt>
      <trkpt lat="46.40771" lon="-0.22189">
        <ele>115.6</ele>
        <time>2020-05-31T08:03:05Z</time>
      </trkpt>
      <trkpt lat="46.40772" lon="-0.22188">
        <ele>115.6</ele>
        <time>2020-05-31T08:03:06Z</time>
      </trkpt>
      <trkpt lat="46.40772" lon="-0.22187">
        <ele>115.6</ele>
        <time>2020-05-31T08:03:07Z</time>
      </trkpt>
      <trkpt lat="46.40771" lon="-0.22187">
        <ele>115.6</ele>
        <time>2020-05-31T08:03:08Z</time>
      </trkpt>
      <trkpt lat="46.40771" lon="-0.22188">
        <ele>115.6</ele>
        <time>2020-05-31T08:03:09Z</time>
      </trkpt>
      <trkpt lat="46.40771" lon="-0.22188">
        <ele>115.6</ele>
        <time>2020-05-31T08:03:10Z</time>
      </trkpt>
      <trkpt lat="46.40771" lon="-0.22188">
        <ele>115.6</ele>
        <time>2020-05-31T08:03:11Z</time>
      </trkpt>
      <trkpt lat="46.40771" lon="-0.22188">
        <ele>115.6</ele>
        <time>2020-05-31T08:03:12Z</time>
      </trkpt>
      <trkpt lat="46.40771" lon="-0.22188">
        <ele>115.6</ele>
        <time>2020-05-31T08:03:13Z</time>
      </trkpt>
      <trkpt lat="46.40771" lon="-0.22188">
        <ele>115.6</ele>
        <time>2020-05-31T08:03:14Z</time>
      </trkpt>
      <trkpt lat="46.40771" lon="-0.22188">
        <ele>115.6</ele>
        <time>2020-05-31T08:03:15Z</time>
      </trkpt>
      <trkpt lat="46.40771" lon="-0.22188">
        <ele>115.6</ele>
        <time>2020-05-31T08:03:16Z</time>
      </trkpt>
      <trkpt lat="46.40771" lon="-0.22188">
        <ele>115.6</ele>
        <time>2020-05-31T08:03:17Z</time>
      </trkpt>
      <trkpt lat="46.40771" lon="-0.22188">
        <ele>115.6</ele>
        <time>2020-05-31T08:03:18Z</time>
      </trkpt>
      <trkpt lat="46.40771" lon="-0.22189">
        <ele>115.6</ele>
        <time>2020-05-31T08:03:19Z</time>
      </trkpt>
      <trkpt lat="46.40771" lon="-0.22189">
        <ele>115.6</ele>
        <time>2020-05-31T08:03:20Z</time>
      </trkpt>
      <trkpt lat="46.40771" lon="-0.22189">
        <ele>115.7</ele>
        <time>2020-05-31T08:03:21Z</time>
      </trkpt>
      <trkpt lat="46.40771" lon="-0.22189">
        <ele>115.7</ele>
        <time>2020-05-31T08:03:22Z</time>
      </trkpt>
      <trkpt lat="46.40771" lon="-0.22189">
        <ele>115.7</ele>
        <time>2020-05-31T08:03:23Z</time>
      </trkpt>
      <trkpt lat="46.40771" lon="-0.22189">
        <ele>115.7</ele>
        <time>2020-05-31T08:03:24Z</time>
      </trkpt>
      <trkpt lat="46.40771" lon="-0.22188">
        <ele>115.7</ele>
        <time>2020-05-31T08:03:25Z</time>
      </trkpt>
      <trkpt lat="46.40771" lon="-0.22188">
        <ele>115.7</ele>
        <time>2020-05-31T08:03:26Z</time>
      </trkpt>
      <trkpt lat="46.40771" lon="-0.22188">
        <ele>115.7</ele>
        <time>2020-05-31T08:03:27Z</time>
      </trkpt>
      <trkpt lat="46.40771" lon="-0.22188">
        <ele>115.7</ele>
        <time>2020-05-31T08:03:28Z</time>
      </trkpt>
      <trkpt lat="46.40771" lon="-0.22188">
        <ele>115.7</ele>
        <time>2020-05-31T08:03:29Z</time>
      </trkpt>
      <trkpt lat="46.40771" lon="-0.22188">
        <ele>115.7</ele>
        <time>2020-05-31T08:03:30Z</time>
      </trkpt>
      <trkpt lat="46.4077" lon="-0.22189">
        <ele>115.7</ele>
        <time>2020-05-31T08:03:31Z</time>
      </trkpt>
      <trkpt lat="46.4077" lon="-0.22189">
        <ele>115.7</ele>
        <time>2020-05-31T08:03:32Z</time>
      </trkpt>
      <trkpt lat="46.4077" lon="-0.22189">
        <ele>115.7</ele>
        <time>2020-05-31T08:03:33Z</time>
      </trkpt>
      <trkpt lat="46.40771" lon="-0.22189">
        <ele>115.7</ele>
        <time>2020-05-31T08:03:34Z</time>
      </trkpt>
      <trkpt lat="46.40771" lon="-0.22188">
        <ele>115.7</ele>
        <time>2020-05-31T08:03:35Z</time>
      </trkpt>
      <trkpt lat="46.40771" lon="-0.22188">
        <ele>115.7</ele>
        <time>2020-05-31T08:03:36Z</time>
      </trkpt>
      <trkpt lat="46.4077" lon="-0.22188">
        <ele>115.7</ele>
        <time>2020-05-31T08:03:37Z</time>
      </trkpt>
      <trkpt lat="46.40771" lon="-0.22187">
        <ele>115.7</ele>
        <time>2020-05-31T08:03:38Z</time>
      </trkpt>
      <trkpt lat="46.4077" lon="-0.22187">
        <ele>115.7</ele>
        <time>2020-05-31T08:03:39Z</time>
      </trkpt>
      <trkpt lat="46.4077" lon="-0.22187">
        <ele>115.7</ele>
        <time>2020-05-31T08:03:40Z</time>
      </trkpt>
      <trkpt lat="46.4077" lon="-0.22187">
        <ele>115.7</ele>
        <time>2020-05-31T08:03:41Z</time>
      </trkpt>
      <trkpt lat="46.4077" lon="-0.22188">
        <ele>115.8</ele>
        <time>2020-05-31T08:03:42Z</time>
      </trkpt>
      <trkpt lat="46.4077" lon="-0.22188">
        <ele>115.8</ele>
        <time>2020-05-31T08:03:43Z</time>
      </trkpt>
      <trkpt lat="46.40771" lon="-0.22188">
        <ele>115.8</ele>
        <time>2020-05-31T08:03:44Z</time>
      </trkpt>
      <trkpt lat="46.40771" lon="-0.22187">
        <ele>115.8</ele>
        <time>2020-05-31T08:03:45Z</time>
      </trkpt>
      <trkpt lat="46.40771" lon="-0.22188">
        <ele>115.8</ele>
        <time>2020-05-31T08:03:46Z</time>
      </trkpt>
      <trkpt lat="46.40771" lon="-0.22188">
        <ele>115.8</ele>
        <time>2020-05-31T08:03:47Z</time>
      </trkpt>
      <trkpt lat="46.40771" lon="-0.22189">
        <ele>115.8</ele>
        <time>2020-05-31T08:03:48Z</time>
      </trkpt>
      <trkpt lat="46.40771" lon="-0.22188">
        <ele>115.8</ele>
        <time>2020-05-31T08:03:49Z</time>
      </trkpt>
      <trkpt lat="46.40771" lon="-0.22187">
        <ele>115.8</ele>
        <time>2020-05-31T08:03:50Z</time>
      </trkpt>
      <trkpt lat="46.40771" lon="-0.22187">
        <ele>115.8</ele>
        <time>2020-05-31T08:03:51Z</time>
      </trkpt>
      <trkpt lat="46.40771" lon="-0.22186">
        <ele>115.8</ele>
        <time>2020-05-31T08:03:52Z</time>
      </trkpt>
      <trkpt lat="46.40772" lon="-0.22185">
        <ele>115.8</ele>
        <time>2020-05-31T08:03:53Z</time>
      </trkpt>
      <trkpt lat="46.40772" lon="-0.22185">
        <ele>115.8</ele>
        <time>2020-05-31T08:03:54Z</time>
      </trkpt>
      <trkpt lat="46.40772" lon="-0.22185">
        <ele>115.8</ele>
        <time>2020-05-31T08:03:55Z</time>
      </trkpt>
      <trkpt lat="46.40772" lon="-0.22184">
        <ele>115.9</ele>
        <time>2020-05-31T08:03:56Z</time>
      </trkpt>
      <trkpt lat="46.40772" lon="-0.22184">
        <ele>115.9</ele>
        <time>2020-05-31T08:03:57Z</time>
      </trkpt>
      <trkpt lat="46.40772" lon="-0.22184">
        <ele>115.9</ele>
        <time>2020-05-31T08:03:58Z</time>
      </trkpt>
      <trkpt lat="46.40772" lon="-0.22184">
        <ele>115.9</ele>
        <time>2020-05-31T08:03:59Z</time>
      </trkpt>
      <trkpt lat="46.40772" lon="-0.22184">
        <ele>115.9</ele>
        <time>2020-05-31T08:04:00Z</time>
      </trkpt>
      <trkpt lat="46.40772" lon="-0.22184">
        <ele>115.9</ele>
        <time>2020-05-31T08:04:01Z</time>
      </trkpt>
      <trkpt lat="46.40772" lon="-0.22183">
        <ele>115.9</ele>
        <time>2020-05-31T08:04:02Z</time>
      </trkpt>
      <trkpt lat="46.40772" lon="-0.22183">
        <ele>115.9</ele>
        <time>2020-05-31T08:04:03Z</time>
      </trkpt>
      <trkpt lat="46.40772" lon="-0.22182">
        <ele>115.9</ele>
        <time>2020-05-31T08:04:04Z</time>
      </trkpt>
      <trkpt lat="46.40772" lon="-0.22182">
        <ele>115.9</ele>
        <time>2020-05-31T08:04:05Z</time>
      </trkpt>
      <trkpt lat="46.40772" lon="-0.22182">
        <ele>115.9</ele>
        <time>2020-05-31T08:04:06Z</time>
      </trkpt>
      <trkpt lat="46.40772" lon="-0.22183">
        <ele>115.9</ele>
        <time>2020-05-31T08:04:07Z</time>
      </trkpt>
      <trkpt lat="46.40772" lon="-0.22183">
        <ele>115.9</ele>
        <time>2020-05-31T08:04:08Z</time>
      </trkpt>
      <trkpt lat="46.40772" lon="-0.22183">
        <ele>115.9</ele>
        <time>2020-05-31T08:04:09Z</time>
      </trkpt>
      <trkpt lat="46.40772" lon="-0.22183">
        <ele>115.9</ele>
        <time>2020-05-31T08:04:10Z</time>
      </trkpt>
      <trkpt lat="46.40772" lon="-0.22183">
        <ele>115.9</ele>
        <time>2020-05-31T08:04:11Z</time>
      </trkpt>
      <trkpt lat="46.40772" lon="-0.22183">
        <ele>115.9</ele>
        <time>2020-05-31T08:04:12Z</time>
      </trkpt>
      <trkpt lat="46.40772" lon="-0.22183">
        <ele>115.9</ele>
        <time>2020-05-31T08:04:13Z</time>
      </trkpt>
      <trkpt lat="46.40772" lon="-0.22183">
        <ele>115.9</ele>
        <time>2020-05-31T08:04:14Z</time>
      </trkpt>
      <trkpt lat="46.40772" lon="-0.22184">
        <ele>115.9</ele>
        <time>2020-05-31T08:04:15Z</time>
      </trkpt>
      <trkpt lat="46.40772" lon="-0.22184">
        <ele>115.9</ele>
        <time>2020-05-31T08:04:16Z</time>
      </trkpt>
      <trkpt lat="46.40772" lon="-0.22184">
        <ele>115.9</ele>
        <time>2020-05-31T08:04:17Z</time>
      </trkpt>
      <trkpt lat="46.40772" lon="-0.22184">
        <ele>115.9</ele>
        <time>2020-05-31T08:04:18Z</time>
      </trkpt>
      <trkpt lat="46.40772" lon="-0.22184">
        <ele>115.9</ele>
        <time>2020-05-31T08:04:19Z</time>
      </trkpt>
      <trkpt lat="46.40772" lon="-0.22184">
        <ele>116</ele>
        <time>2020-05-31T08:04:20Z</time>
      </trkpt>
      <trkpt lat="46.40772" lon="-0.22184">
        <ele>116</ele>
        <time>2020-05-31T08:04:21Z</time>
      </trkpt>
      <trkpt lat="46.40772" lon="-0.22183">
        <ele>116</ele>
        <time>2020-05-31T08:04:22Z</time>
      </trkpt>
      <trkpt lat="46.40772" lon="-0.22183">
        <ele>116</ele>
        <time>2020-05-31T08:04:23Z</time>
      </trkpt>
      <trkpt lat="46.40772" lon="-0.22184">
        <ele>116</ele>
        <time>2020-05-31T08:04:24Z</time>
      </trkpt>
      <trkpt lat="46.40772" lon="-0.22184">
        <ele>116</ele>
        <time>2020-05-31T08:04:25Z</time>
      </trkpt>
      <trkpt lat="46.40772" lon="-0.22184">
        <ele>116</ele>
        <time>2020-05-31T08:04:26Z</time>
      </trkpt>
      <trkpt lat="46.40772" lon="-0.22185">
        <ele>116</ele>
        <time>2020-05-31T08:04:27Z</time>
      </trkpt>
      <trkpt lat="46.40772" lon="-0.22186">
        <ele>116</ele>
        <time>2020-05-31T08:04:28Z</time>
      </trkpt>
      <trkpt lat="46.40771" lon="-0.22186">
        <ele>116</ele>
        <time>2020-05-31T08:04:29Z</time>
      </trkpt>
      <trkpt lat="46.40771" lon="-0.22186">
        <ele>116</ele>
        <time>2020-05-31T08:04:30Z</time>
      </trkpt>
      <trkpt lat="46.40771" lon="-0.22186">
        <ele>116</ele>
        <time>2020-05-31T08:04:31Z</time>
      </trkpt>
      <trkpt lat="46.40771" lon="-0.22187">
        <ele>116</ele>
        <time>2020-05-31T08:04:32Z</time>
      </trkpt>
      <trkpt lat="46.40771" lon="-0.22187">
        <ele>116</ele>
        <time>2020-05-31T08:04:33Z</time>
      </trkpt>
      <trkpt lat="46.40771" lon="-0.22187">
        <ele>116</ele>
        <time>2020-05-31T08:04:34Z</time>
      </trkpt>
      <trkpt lat="46.40771" lon="-0.22186">
        <ele>116</ele>
        <time>2020-05-31T08:04:35Z</time>
      </trkpt>
      <trkpt lat="46.40771" lon="-0.22186">
        <ele>116</ele>
        <time>2020-05-31T08:04:36Z</time>
      </trkpt>
      <trkpt lat="46.40771" lon="-0.22186">
        <ele>116</ele>
        <time>2020-05-31T08:04:37Z</time>
      </trkpt>
      <trkpt lat="46.40771" lon="-0.22186">
        <ele>116</ele>
        <time>2020-05-31T08:04:38Z</time>
      </trkpt>
      <trkpt lat="46.40771" lon="-0.22186">
        <ele>116</ele>
        <time>2020-05-31T08:04:39Z</time>
      </trkpt>
      <trkpt lat="46.4077" lon="-0.22186">
        <ele>116</ele>
        <time>2020-05-31T08:04:40Z</time>
      </trkpt>
      <trkpt lat="46.4077" lon="-0.22186">
        <ele>116</ele>
        <time>2020-05-31T08:04:42Z</time>
      </trkpt>
      <trkpt lat="46.4077" lon="-0.22186">
        <ele>116</ele>
        <time>2020-05-31T08:04:43Z</time>
      </trkpt>
      <trkpt lat="46.4077" lon="-0.22186">
        <ele>116.1</ele>
        <time>2020-05-31T08:04:44Z</time>
      </trkpt>
      <trkpt lat="46.4077" lon="-0.22187">
        <ele>116.1</ele>
        <time>2020-05-31T08:04:45Z</time>
      </trkpt>
      <trkpt lat="46.40769" lon="-0.22187">
        <ele>116.1</ele>
        <time>2020-05-31T08:04:46Z</time>
      </trkpt>
      <trkpt lat="46.40769" lon="-0.22187">
        <ele>116.1</ele>
        <time>2020-05-31T08:04:47Z</time>
      </trkpt>
      <trkpt lat="46.40769" lon="-0.22187">
        <ele>116.1</ele>
        <time>2020-05-31T08:04:48Z</time>
      </trkpt>
      <trkpt lat="46.40769" lon="-0.22187">
        <ele>116.1</ele>
        <time>2020-05-31T08:04:49Z</time>
      </trkpt>
      <trkpt lat="46.40769" lon="-0.22188">
        <ele>116.1</ele>
        <time>2020-05-31T08:04:50Z</time>
      </trkpt>
      <trkpt lat="46.40769" lon="-0.22188">
        <ele>116.1</ele>
        <time>2020-05-31T08:04:51Z</time>
      </trkpt>
      <trkpt lat="46.40769" lon="-0.22188">
        <ele>116.1</ele>
        <time>2020-05-31T08:04:52Z</time>
      </trkpt>
      <trkpt lat="46.40769" lon="-0.22189">
        <ele>116.1</ele>
        <time>2020-05-31T08:04:53Z</time>
      </trkpt>
      <trkpt lat="46.40768" lon="-0.22193">
        <ele>116.2</ele>
        <time>2020-05-31T08:04:54Z</time>
      </trkpt>
      <trkpt lat="46.40768" lon="-0.22195">
        <ele>116.2</ele>
        <time>2020-05-31T08:04:55Z</time>
      </trkpt>
      <trkpt lat="46.40766" lon="-0.22199">
        <ele>116.2</ele>
        <time>2020-05-31T08:04:56Z</time>
      </trkpt>
      <trkpt lat="46.40765" lon="-0.22202">
        <ele>116.3</ele>
        <time>2020-05-31T08:04:57Z</time>
      </trkpt>
      <trkpt lat="46.40764" lon="-0.22204">
        <ele>116.3</ele>
        <time>2020-05-31T08:04:58Z</time>
      </trkpt>
      <trkpt lat="46.40762" lon="-0.22207">
        <ele>116.4</ele>
        <time>2020-05-31T08:04:59Z</time>
      </trkpt>
      <trkpt lat="46.4076" lon="-0.22211">
        <ele>116.4</ele>
        <time>2020-05-31T08:05:00Z</time>
      </trkpt>
      <trkpt lat="46.40759" lon="-0.22216">
        <ele>116.5</ele>
        <time>2020-05-31T08:05:01Z</time>
      </trkpt>
      <trkpt lat="46.40758" lon="-0.22221">
        <ele>116.5</ele>
        <time>2020-05-31T08:05:02Z</time>
      </trkpt>
      <trkpt lat="46.40755" lon="-0.22225">
        <ele>116.6</ele>
        <time>2020-05-31T08:05:03Z</time>
      </trkpt>
      <trkpt lat="46.40753" lon="-0.2223">
        <ele>116.6</ele>
        <time>2020-05-31T08:05:04Z</time>
      </trkpt>
      <trkpt lat="46.40752" lon="-0.22236">
        <ele>116.6</ele>
        <time>2020-05-31T08:05:05Z</time>
      </trkpt>
      <trkpt lat="46.40751" lon="-0.22243">
        <ele>116.7</ele>
        <time>2020-05-31T08:05:06Z</time>
      </trkpt>
      <trkpt lat="46.40751" lon="-0.22248">
        <ele>116.7</ele>
        <time>2020-05-31T08:05:07Z</time>
      </trkpt>
      <trkpt lat="46.40754" lon="-0.2226">
        <ele>116.7</ele>
        <time>2020-05-31T08:05:08Z</time>
      </trkpt>
      <trkpt lat="46.40755" lon="-0.22265">
        <ele>116.7</ele>
        <time>2020-05-31T08:05:09Z</time>
      </trkpt>
      <trkpt lat="46.40756" lon="-0.2227">
        <ele>116.7</ele>
        <time>2020-05-31T08:05:10Z</time>
      </trkpt>
      <trkpt lat="46.40757" lon="-0.22276">
        <ele>116.7</ele>
        <time>2020-05-31T08:05:11Z</time>
      </trkpt>
      <trkpt lat="46.40757" lon="-0.22282">
        <ele>116.7</ele>
        <time>2020-05-31T08:05:12Z</time>
      </trkpt>
      <trkpt lat="46.40757" lon="-0.22287">
        <ele>116.7</ele>
        <time>2020-05-31T08:05:13Z</time>
      </trkpt>
      <trkpt lat="46.40757" lon="-0.22292">
        <ele>116.7</ele>
        <time>2020-05-31T08:05:14Z</time>
      </trkpt>
      <trkpt lat="46.40757" lon="-0.22298">
        <ele>116.7</ele>
        <time>2020-05-31T08:05:15Z</time>
      </trkpt>
      <trkpt lat="46.40758" lon="-0.22302">
        <ele>116.8</ele>
        <time>2020-05-31T08:05:16Z</time>
      </trkpt>
      <trkpt lat="46.40759" lon="-0.22307">
        <ele>116.8</ele>
        <time>2020-05-31T08:05:17Z</time>
      </trkpt>
      <trkpt lat="46.4076" lon="-0.22313">
        <ele>116.8</ele>
        <time>2020-05-31T08:05:18Z</time>
      </trkpt>
      <trkpt lat="46.40761" lon="-0.2232">
        <ele>116.7</ele>
        <time>2020-05-31T08:05:19Z</time>
      </trkpt>
      <trkpt lat="46.40761" lon="-0.22325">
        <ele>116.7</ele>
        <time>2020-05-31T08:05:20Z</time>
      </trkpt>
      <trkpt lat="46.40761" lon="-0.22331">
        <ele>116.7</ele>
        <time>2020-05-31T08:05:21Z</time>
      </trkpt>
      <trkpt lat="46.40761" lon="-0.22338">
        <ele>116.7</ele>
        <time>2020-05-31T08:05:22Z</time>
      </trkpt>
      <trkpt lat="46.40762" lon="-0.22346">
        <ele>116.7</ele>
        <time>2020-05-31T08:05:23Z</time>
      </trkpt>
      <trkpt lat="46.40762" lon="-0.22353">
        <ele>116.7</ele>
        <time>2020-05-31T08:05:24Z</time>
      </trkpt>
      <trkpt lat="46.40763" lon="-0.22359">
        <ele>116.7</ele>
        <time>2020-05-31T08:05:25Z</time>
      </trkpt>
      <trkpt lat="46.40763" lon="-0.22367">
        <ele>116.7</ele>
        <time>2020-05-31T08:05:26Z</time>
      </trkpt>
      <trkpt lat="46.40763" lon="-0.22373">
        <ele>116.7</ele>
        <time>2020-05-31T08:05:27Z</time>
      </trkpt>
      <trkpt lat="46.40763" lon="-0.22379">
        <ele>116.7</ele>
        <time>2020-05-31T08:05:28Z</time>
      </trkpt>
      <trkpt lat="46.40764" lon="-0.22387">
        <ele>116.7</ele>
        <time>2020-05-31T08:05:29Z</time>
      </trkpt>
      <trkpt lat="46.40764" lon="-0.22395">
        <ele>116.7</ele>
        <time>2020-05-31T08:05:30Z</time>
      </trkpt>
      <trkpt lat="46.40764" lon="-0.22403">
        <ele>116.7</ele>
        <time>2020-05-31T08:05:31Z</time>
      </trkpt>
      <trkpt lat="46.40764" lon="-0.22412">
        <ele>116.7</ele>
        <time>2020-05-31T08:05:32Z</time>
      </trkpt>
      <trkpt lat="46.40765" lon="-0.22419">
        <ele>116.7</ele>
        <time>2020-05-31T08:05:33Z</time>
      </trkpt>
      <trkpt lat="46.40766" lon="-0.22422">
        <ele>116.8</ele>
        <time>2020-05-31T08:05:34Z</time>
      </trkpt>
      <trkpt lat="46.40768" lon="-0.22429">
        <ele>116.4</ele>
        <time>2020-05-31T08:05:35Z</time>
      </trkpt>
      <trkpt lat="46.40769" lon="-0.22435">
        <ele>116.4</ele>
        <time>2020-05-31T08:05:36Z</time>
      </trkpt>
      <trkpt lat="46.40769" lon="-0.22441">
        <ele>116.3</ele>
        <time>2020-05-31T08:05:37Z</time>
      </trkpt>
      <trkpt lat="46.40768" lon="-0.22446">
        <ele>116.4</ele>
        <time>2020-05-31T08:05:38Z</time>
      </trkpt>
      <trkpt lat="46.40765" lon="-0.2245">
        <ele>116.4</ele>
        <time>2020-05-31T08:05:39Z</time>
      </trkpt>
      <trkpt lat="46.4076" lon="-0.22451">
        <ele>116.4</ele>
        <time>2020-05-31T08:05:40Z</time>
      </trkpt>
      <trkpt lat="46.40757" lon="-0.2245">
        <ele>116.9</ele>
        <time>2020-05-31T08:05:41Z</time>
      </trkpt>
      <trkpt lat="46.40752" lon="-0.22449">
        <ele>117</ele>
        <time>2020-05-31T08:05:42Z</time>
      </trkpt>
      <trkpt lat="46.40749" lon="-0.2245">
        <ele>117.1</ele>
        <time>2020-05-31T08:05:43Z</time>
      </trkpt>
      <trkpt lat="46.40745" lon="-0.22451">
        <ele>117.2</ele>
        <time>2020-05-31T08:05:44Z</time>
      </trkpt>
      <trkpt lat="46.40742" lon="-0.22453">
        <ele>117.3</ele>
        <time>2020-05-31T08:05:45Z</time>
      </trkpt>
      <trkpt lat="46.4074" lon="-0.22458">
        <ele>117.3</ele>
        <time>2020-05-31T08:05:46Z</time>
      </trkpt>
      <trkpt lat="46.40738" lon="-0.22463">
        <ele>117.3</ele>
        <time>2020-05-31T08:05:47Z</time>
      </trkpt>
      <trkpt lat="46.40736" lon="-0.22468">
        <ele>117.4</ele>
        <time>2020-05-31T08:05:48Z</time>
      </trkpt>
      <trkpt lat="46.40734" lon="-0.22474">
        <ele>117.4</ele>
        <time>2020-05-31T08:05:49Z</time>
      </trkpt>
      <trkpt lat="46.40732" lon="-0.2248">
        <ele>117.5</ele>
        <time>2020-05-31T08:05:50Z</time>
      </trkpt>
      <trkpt lat="46.4073" lon="-0.22484">
        <ele>117.5</ele>
        <time>2020-05-31T08:05:51Z</time>
      </trkpt>
      <trkpt lat="46.40728" lon="-0.22489">
        <ele>117.6</ele>
        <time>2020-05-31T08:05:52Z</time>
      </trkpt>
      <trkpt lat="46.40726" lon="-0.22494">
        <ele>117.6</ele>
        <time>2020-05-31T08:05:53Z</time>
      </trkpt>
      <trkpt lat="46.40724" lon="-0.225">
        <ele>117.7</ele>
        <time>2020-05-31T08:05:54Z</time>
      </trkpt>
      <trkpt lat="46.40722" lon="-0.22504">
        <ele>117.7</ele>
        <time>2020-05-31T08:05:55Z</time>
      </trkpt>
      <trkpt lat="46.4072" lon="-0.2251">
        <ele>117.8</ele>
        <time>2020-05-31T08:05:56Z</time>
      </trkpt>
      <trkpt lat="46.40718" lon="-0.22516">
        <ele>117.9</ele>
        <time>2020-05-31T08:05:57Z</time>
      </trkpt>
      <trkpt lat="46.40716" lon="-0.22522">
        <ele>118.1</ele>
        <time>2020-05-31T08:05:58Z</time>
      </trkpt>
      <trkpt lat="46.40714" lon="-0.22528">
        <ele>118.2</ele>
        <time>2020-05-31T08:05:59Z</time>
      </trkpt>
      <trkpt lat="46.40713" lon="-0.22534">
        <ele>118.3</ele>
        <time>2020-05-31T08:06:00Z</time>
      </trkpt>
      <trkpt lat="46.40712" lon="-0.2254">
        <ele>118.5</ele>
        <time>2020-05-31T08:06:01Z</time>
      </trkpt>
      <trkpt lat="46.4071" lon="-0.22545">
        <ele>118.6</ele>
        <time>2020-05-31T08:06:02Z</time>
      </trkpt>
      <trkpt lat="46.40708" lon="-0.22549">
        <ele>118.7</ele>
        <time>2020-05-31T08:06:03Z</time>
      </trkpt>
      <trkpt lat="46.40707" lon="-0.22553">
        <ele>118.7</ele>
        <time>2020-05-31T08:06:04Z</time>
      </trkpt>
      <trkpt lat="46.40706" lon="-0.22557">
        <ele>118.8</ele>
        <time>2020-05-31T08:06:05Z</time>
      </trkpt>
      <trkpt lat="46.40705" lon="-0.22563">
        <ele>118.9</ele>
        <time>2020-05-31T08:06:06Z</time>
      </trkpt>
      <trkpt lat="46.40704" lon="-0.22569">
        <ele>118.9</ele>
        <time>2020-05-31T08:06:07Z</time>
      </trkpt>
      <trkpt lat="46.40702" lon="-0.22575">
        <ele>119</ele>
        <time>2020-05-31T08:06:08Z</time>
      </trkpt>
      <trkpt lat="46.407" lon="-0.22581">
        <ele>119</ele>
        <time>2020-05-31T08:06:09Z</time>
      </trkpt>
      <trkpt lat="46.40698" lon="-0.22587">
        <ele>119.1</ele>
        <time>2020-05-31T08:06:10Z</time>
      </trkpt>
      <trkpt lat="46.40696" lon="-0.22593">
        <ele>119.1</ele>
        <time>2020-05-31T08:06:11Z</time>
      </trkpt>
      <trkpt lat="46.40694" lon="-0.226">
        <ele>119.1</ele>
        <time>2020-05-31T08:06:12Z</time>
      </trkpt>
      <trkpt lat="46.40691" lon="-0.22607">
        <ele>119.2</ele>
        <time>2020-05-31T08:06:13Z</time>
      </trkpt>
      <trkpt lat="46.40689" lon="-0.22614">
        <ele>119.2</ele>
        <time>2020-05-31T08:06:14Z</time>
      </trkpt>
      <trkpt lat="46.40687" lon="-0.2262">
        <ele>119.2</ele>
        <time>2020-05-31T08:06:15Z</time>
      </trkpt>
      <trkpt lat="46.40686" lon="-0.22626">
        <ele>119.2</ele>
        <time>2020-05-31T08:06:16Z</time>
      </trkpt>
      <trkpt lat="46.40684" lon="-0.22633">
        <ele>119.3</ele>
        <time>2020-05-31T08:06:17Z</time>
      </trkpt>
      <trkpt lat="46.40681" lon="-0.22639">
        <ele>119.2</ele>
        <time>2020-05-31T08:06:18Z</time>
      </trkpt>
      <trkpt lat="46.40678" lon="-0.22646">
        <ele>119.1</ele>
        <time>2020-05-31T08:06:19Z</time>
      </trkpt>
      <trkpt lat="46.40675" lon="-0.22653">
        <ele>119.1</ele>
        <time>2020-05-31T08:06:20Z</time>
      </trkpt>
      <trkpt lat="46.40672" lon="-0.2266">
        <ele>119</ele>
        <time>2020-05-31T08:06:21Z</time>
      </trkpt>
      <trkpt lat="46.40669" lon="-0.22667">
        <ele>119</ele>
        <time>2020-05-31T08:06:22Z</time>
      </trkpt>
      <trkpt lat="46.40667" lon="-0.22674">
        <ele>118.9</ele>
        <time>2020-05-31T08:06:23Z</time>
      </trkpt>
      <trkpt lat="46.40665" lon="-0.22679">
        <ele>118.9</ele>
        <time>2020-05-31T08:06:24Z</time>
      </trkpt>
      <trkpt lat="46.40663" lon="-0.22685">
        <ele>118.8</ele>
        <time>2020-05-31T08:06:25Z</time>
      </trkpt>
      <trkpt lat="46.40661" lon="-0.2269">
        <ele>118.8</ele>
        <time>2020-05-31T08:06:26Z</time>
      </trkpt>
      <trkpt lat="46.40659" lon="-0.22696">
        <ele>118.8</ele>
        <time>2020-05-31T08:06:27Z</time>
      </trkpt>
      <trkpt lat="46.40658" lon="-0.22702">
        <ele>118.8</ele>
        <time>2020-05-31T08:06:28Z</time>
      </trkpt>
      <trkpt lat="46.40656" lon="-0.22708">
        <ele>118.9</ele>
        <time>2020-05-31T08:06:29Z</time>
      </trkpt>
      <trkpt lat="46.40654" lon="-0.22713">
        <ele>119</ele>
        <time>2020-05-31T08:06:30Z</time>
      </trkpt>
      <trkpt lat="46.40652" lon="-0.22719">
        <ele>119</ele>
        <time>2020-05-31T08:06:31Z</time>
      </trkpt>
      <trkpt lat="46.40649" lon="-0.22725">
        <ele>119.1</ele>
        <time>2020-05-31T08:06:32Z</time>
      </trkpt>
      <trkpt lat="46.40647" lon="-0.22732">
        <ele>119.2</ele>
        <time>2020-05-31T08:06:33Z</time>
      </trkpt>
      <trkpt lat="46.40646" lon="-0.22736">
        <ele>119.2</ele>
        <time>2020-05-31T08:06:34Z</time>
      </trkpt>
      <trkpt lat="46.40645" lon="-0.22742">
        <ele>119.2</ele>
        <time>2020-05-31T08:06:35Z</time>
      </trkpt>
      <trkpt lat="46.40644" lon="-0.22747">
        <ele>119.3</ele>
        <time>2020-05-31T08:06:36Z</time>
      </trkpt>
      <trkpt lat="46.40642" lon="-0.22752">
        <ele>119.3</ele>
        <time>2020-05-31T08:06:37Z</time>
      </trkpt>
      <trkpt lat="46.4064" lon="-0.22757">
        <ele>119.3</ele>
        <time>2020-05-31T08:06:38Z</time>
      </trkpt>
      <trkpt lat="46.40639" lon="-0.22761">
        <ele>119.4</ele>
        <time>2020-05-31T08:06:39Z</time>
      </trkpt>
      <trkpt lat="46.40636" lon="-0.22765">
        <ele>119.4</ele>
        <time>2020-05-31T08:06:40Z</time>
      </trkpt>
      <trkpt lat="46.40636" lon="-0.22766">
        <ele>119.4</ele>
        <time>2020-05-31T08:06:41Z</time>
      </trkpt>
      <trkpt lat="46.40634" lon="-0.2277">
        <ele>119.4</ele>
        <time>2020-05-31T08:06:42Z</time>
      </trkpt>
      <trkpt lat="46.40633" lon="-0.22774">
        <ele>119.4</ele>
        <time>2020-05-31T08:06:43Z</time>
      </trkpt>
      <trkpt lat="46.40631" lon="-0.22779">
        <ele>119.4</ele>
        <time>2020-05-31T08:06:44Z</time>
      </trkpt>
      <trkpt lat="46.4063" lon="-0.22784">
        <ele>119.5</ele>
        <time>2020-05-31T08:06:45Z</time>
      </trkpt>
      <trkpt lat="46.40627" lon="-0.2279">
        <ele>119.5</ele>
        <time>2020-05-31T08:06:46Z</time>
      </trkpt>
      <trkpt lat="46.40625" lon="-0.22796">
        <ele>119.5</ele>
        <time>2020-05-31T08:06:47Z</time>
      </trkpt>
      <trkpt lat="46.40623" lon="-0.22802">
        <ele>119.5</ele>
        <time>2020-05-31T08:06:48Z</time>
      </trkpt>
      <trkpt lat="46.40621" lon="-0.22807">
        <ele>119.5</ele>
        <time>2020-05-31T08:06:49Z</time>
      </trkpt>
      <trkpt lat="46.4062" lon="-0.22812">
        <ele>119.6</ele>
        <time>2020-05-31T08:06:50Z</time>
      </trkpt>
      <trkpt lat="46.40618" lon="-0.22818">
        <ele>119.6</ele>
        <time>2020-05-31T08:06:51Z</time>
      </trkpt>
      <trkpt lat="46.40616" lon="-0.22823">
        <ele>119.6</ele>
        <time>2020-05-31T08:06:52Z</time>
      </trkpt>
      <trkpt lat="46.40614" lon="-0.22828">
        <ele>119.6</ele>
        <time>2020-05-31T08:06:53Z</time>
      </trkpt>
      <trkpt lat="46.40613" lon="-0.22834">
        <ele>119.7</ele>
        <time>2020-05-31T08:06:54Z</time>
      </trkpt>
      <trkpt lat="46.40611" lon="-0.2284">
        <ele>119.7</ele>
        <time>2020-05-31T08:06:55Z</time>
      </trkpt>
      <trkpt lat="46.40609" lon="-0.22846">
        <ele>119.7</ele>
        <time>2020-05-31T08:06:56Z</time>
      </trkpt>
      <trkpt lat="46.40607" lon="-0.22852">
        <ele>119.8</ele>
        <time>2020-05-31T08:06:57Z</time>
      </trkpt>
      <trkpt lat="46.40605" lon="-0.22858">
        <ele>119.8</ele>
        <time>2020-05-31T08:06:58Z</time>
      </trkpt>
      <trkpt lat="46.40603" lon="-0.22864">
        <ele>119.9</ele>
        <time>2020-05-31T08:06:59Z</time>
      </trkpt>
      <trkpt lat="46.40601" lon="-0.2287">
        <ele>119.9</ele>
        <time>2020-05-31T08:07:00Z</time>
      </trkpt>
      <trkpt lat="46.40599" lon="-0.22875">
        <ele>120</ele>
        <time>2020-05-31T08:07:01Z</time>
      </trkpt>
      <trkpt lat="46.40597" lon="-0.2288">
        <ele>120.1</ele>
        <time>2020-05-31T08:07:02Z</time>
      </trkpt>
      <trkpt lat="46.40596" lon="-0.22887">
        <ele>120.2</ele>
        <time>2020-05-31T08:07:03Z</time>
      </trkpt>
      <trkpt lat="46.40594" lon="-0.22891">
        <ele>120.2</ele>
        <time>2020-05-31T08:07:04Z</time>
      </trkpt>
      <trkpt lat="46.40593" lon="-0.22897">
        <ele>120.3</ele>
        <time>2020-05-31T08:07:05Z</time>
      </trkpt>
      <trkpt lat="46.4059" lon="-0.22904">
        <ele>120.4</ele>
        <time>2020-05-31T08:07:06Z</time>
      </trkpt>
      <trkpt lat="46.40587" lon="-0.22909">
        <ele>120.5</ele>
        <time>2020-05-31T08:07:07Z</time>
      </trkpt>
      <trkpt lat="46.40585" lon="-0.22916">
        <ele>120.6</ele>
        <time>2020-05-31T08:07:08Z</time>
      </trkpt>
      <trkpt lat="46.40583" lon="-0.22922">
        <ele>120.6</ele>
        <time>2020-05-31T08:07:09Z</time>
      </trkpt>
      <trkpt lat="46.40581" lon="-0.22928">
        <ele>120.7</ele>
        <time>2020-05-31T08:07:10Z</time>
      </trkpt>
      <trkpt lat="46.4058" lon="-0.22933">
        <ele>120.8</ele>
        <time>2020-05-31T08:07:11Z</time>
      </trkpt>
      <trkpt lat="46.40577" lon="-0.22938">
        <ele>120.8</ele>
        <time>2020-05-31T08:07:12Z</time>
      </trkpt>
      <trkpt lat="46.40576" lon="-0.22943">
        <ele>120.8</ele>
        <time>2020-05-31T08:07:13Z</time>
      </trkpt>
      <trkpt lat="46.40573" lon="-0.22948">
        <ele>120.9</ele>
        <time>2020-05-31T08:07:14Z</time>
      </trkpt>
      <trkpt lat="46.40572" lon="-0.22954">
        <ele>120.9</ele>
        <time>2020-05-31T08:07:15Z</time>
      </trkpt>
      <trkpt lat="46.4057" lon="-0.2296">
        <ele>120.9</ele>
        <time>2020-05-31T08:07:16Z</time>
      </trkpt>
      <trkpt lat="46.40568" lon="-0.22965">
        <ele>120.9</ele>
        <time>2020-05-31T08:07:17Z</time>
      </trkpt>
      <trkpt lat="46.40566" lon="-0.2297">
        <ele>120.9</ele>
        <time>2020-05-31T08:07:18Z</time>
      </trkpt>
      <trkpt lat="46.40563" lon="-0.22975">
        <ele>121</ele>
        <time>2020-05-31T08:07:19Z</time>
      </trkpt>
      <trkpt lat="46.40562" lon="-0.2298">
        <ele>121</ele>
        <time>2020-05-31T08:07:20Z</time>
      </trkpt>
      <trkpt lat="46.4056" lon="-0.22984">
        <ele>121</ele>
        <time>2020-05-31T08:07:21Z</time>
      </trkpt>
      <trkpt lat="46.40557" lon="-0.22989">
        <ele>121.1</ele>
        <time>2020-05-31T08:07:22Z</time>
      </trkpt>
      <trkpt lat="46.40555" lon="-0.22994">
        <ele>121.1</ele>
        <time>2020-05-31T08:07:23Z</time>
      </trkpt>
      <trkpt lat="46.40552" lon="-0.23">
        <ele>121.2</ele>
        <time>2020-05-31T08:07:24Z</time>
      </trkpt>
      <trkpt lat="46.4055" lon="-0.23005">
        <ele>121.2</ele>
        <time>2020-05-31T08:07:25Z</time>
      </trkpt>
      <trkpt lat="46.40549" lon="-0.23011">
        <ele>121.2</ele>
        <time>2020-05-31T08:07:26Z</time>
      </trkpt>
      <trkpt lat="46.40547" lon="-0.23018">
        <ele>121.3</ele>
        <time>2020-05-31T08:07:27Z</time>
      </trkpt>
      <trkpt lat="46.40544" lon="-0.23024">
        <ele>121.4</ele>
        <time>2020-05-31T08:07:28Z</time>
      </trkpt>
      <trkpt lat="46.40543" lon="-0.23031">
        <ele>121.4</ele>
        <time>2020-05-31T08:07:29Z</time>
      </trkpt>
      <trkpt lat="46.40541" lon="-0.23038">
        <ele>121.5</ele>
        <time>2020-05-31T08:07:30Z</time>
      </trkpt>
      <trkpt lat="46.4054" lon="-0.23045">
        <ele>121.5</ele>
        <time>2020-05-31T08:07:31Z</time>
      </trkpt>
      <trkpt lat="46.40539" lon="-0.2305">
        <ele>121.6</ele>
        <time>2020-05-31T08:07:32Z</time>
      </trkpt>
      <trkpt lat="46.40537" lon="-0.23056">
        <ele>121.6</ele>
        <time>2020-05-31T08:07:33Z</time>
      </trkpt>
      <trkpt lat="46.40536" lon="-0.23062">
        <ele>121.7</ele>
        <time>2020-05-31T08:07:34Z</time>
      </trkpt>
      <trkpt lat="46.40535" lon="-0.23068">
        <ele>121.8</ele>
        <time>2020-05-31T08:07:35Z</time>
      </trkpt>
      <trkpt lat="46.40533" lon="-0.23074">
        <ele>121.9</ele>
        <time>2020-05-31T08:07:36Z</time>
      </trkpt>
      <trkpt lat="46.40532" lon="-0.2308">
        <ele>122</ele>
        <time>2020-05-31T08:07:37Z</time>
      </trkpt>
      <trkpt lat="46.40531" lon="-0.23086">
        <ele>122</ele>
        <time>2020-05-31T08:07:38Z</time>
      </trkpt>
      <trkpt lat="46.4053" lon="-0.23092">
        <ele>122.1</ele>
        <time>2020-05-31T08:07:39Z</time>
      </trkpt>
      <trkpt lat="46.40529" lon="-0.23098">
        <ele>122.2</ele>
        <time>2020-05-31T08:07:40Z</time>
      </trkpt>
      <trkpt lat="46.40528" lon="-0.23104">
        <ele>122.2</ele>
        <time>2020-05-31T08:07:41Z</time>
      </trkpt>
      <trkpt lat="46.40527" lon="-0.23111">
        <ele>122.3</ele>
        <time>2020-05-31T08:07:42Z</time>
      </trkpt>
      <trkpt lat="46.40526" lon="-0.23118">
        <ele>122.4</ele>
        <time>2020-05-31T08:07:43Z</time>
      </trkpt>
      <trkpt lat="46.40525" lon="-0.23124">
        <ele>122.5</ele>
        <time>2020-05-31T08:07:44Z</time>
      </trkpt>
      <trkpt lat="46.40524" lon="-0.2313">
        <ele>122.5</ele>
        <time>2020-05-31T08:07:45Z</time>
      </trkpt>
      <trkpt lat="46.40524" lon="-0.23136">
        <ele>122.6</ele>
        <time>2020-05-31T08:07:46Z</time>
      </trkpt>
      <trkpt lat="46.40523" lon="-0.23142">
        <ele>122.7</ele>
        <time>2020-05-31T08:07:47Z</time>
      </trkpt>
      <trkpt lat="46.40521" lon="-0.23149">
        <ele>122.8</ele>
        <time>2020-05-31T08:07:48Z</time>
      </trkpt>
      <trkpt lat="46.4052" lon="-0.23155">
        <ele>122.9</ele>
        <time>2020-05-31T08:07:49Z</time>
      </trkpt>
      <trkpt lat="46.4052" lon="-0.23161">
        <ele>123</ele>
        <time>2020-05-31T08:07:50Z</time>
      </trkpt>
      <trkpt lat="46.40519" lon="-0.23168">
        <ele>123.1</ele>
        <time>2020-05-31T08:07:51Z</time>
      </trkpt>
      <trkpt lat="46.40518" lon="-0.23175">
        <ele>123.3</ele>
        <time>2020-05-31T08:07:52Z</time>
      </trkpt>
      <trkpt lat="46.40516" lon="-0.2318">
        <ele>123.4</ele>
        <time>2020-05-31T08:07:53Z</time>
      </trkpt>
      <trkpt lat="46.40515" lon="-0.23186">
        <ele>123.5</ele>
        <time>2020-05-31T08:07:54Z</time>
      </trkpt>
      <trkpt lat="46.40514" lon="-0.23193">
        <ele>123.6</ele>
        <time>2020-05-31T08:07:55Z</time>
      </trkpt>
      <trkpt lat="46.40513" lon="-0.23199">
        <ele>123.7</ele>
        <time>2020-05-31T08:07:56Z</time>
      </trkpt>
      <trkpt lat="46.40512" lon="-0.23205">
        <ele>123.8</ele>
        <time>2020-05-31T08:07:57Z</time>
      </trkpt>
      <trkpt lat="46.4051" lon="-0.23212">
        <ele>123.9</ele>
        <time>2020-05-31T08:07:58Z</time>
      </trkpt>
      <trkpt lat="46.40509" lon="-0.23218">
        <ele>123.9</ele>
        <time>2020-05-31T08:07:59Z</time>
      </trkpt>
      <trkpt lat="46.40508" lon="-0.23225">
        <ele>124</ele>
        <time>2020-05-31T08:08:00Z</time>
      </trkpt>
      <trkpt lat="46.40507" lon="-0.23232">
        <ele>124.1</ele>
        <time>2020-05-31T08:08:01Z</time>
      </trkpt>
      <trkpt lat="46.40506" lon="-0.23238">
        <ele>124.2</ele>
        <time>2020-05-31T08:08:02Z</time>
      </trkpt>
      <trkpt lat="46.40504" lon="-0.23245">
        <ele>124.4</ele>
        <time>2020-05-31T08:08:03Z</time>
      </trkpt>
      <trkpt lat="46.40502" lon="-0.2325">
        <ele>124.5</ele>
        <time>2020-05-31T08:08:04Z</time>
      </trkpt>
      <trkpt lat="46.405" lon="-0.23256">
        <ele>124.7</ele>
        <time>2020-05-31T08:08:05Z</time>
      </trkpt>
      <trkpt lat="46.40498" lon="-0.23261">
        <ele>124.8</ele>
        <time>2020-05-31T08:08:06Z</time>
      </trkpt>
      <trkpt lat="46.40496" lon="-0.23265">
        <ele>124.9</ele>
        <time>2020-05-31T08:08:07Z</time>
      </trkpt>
      <trkpt lat="46.40495" lon="-0.23268">
        <ele>125</ele>
        <time>2020-05-31T08:08:08Z</time>
      </trkpt>
      <trkpt lat="46.40495" lon="-0.23273">
        <ele>125.1</ele>
        <time>2020-05-31T08:08:09Z</time>
      </trkpt>
      <trkpt lat="46.40493" lon="-0.23276">
        <ele>125.2</ele>
        <time>2020-05-31T08:08:10Z</time>
      </trkpt>
      <trkpt lat="46.40492" lon="-0.2328">
        <ele>125.3</ele>
        <time>2020-05-31T08:08:11Z</time>
      </trkpt>
      <trkpt lat="46.4049" lon="-0.23285">
        <ele>125.5</ele>
        <time>2020-05-31T08:08:12Z</time>
      </trkpt>
      <trkpt lat="46.40489" lon="-0.2329">
        <ele>125.6</ele>
        <time>2020-05-31T08:08:13Z</time>
      </trkpt>
      <trkpt lat="46.40487" lon="-0.23296">
        <ele>125.7</ele>
        <time>2020-05-31T08:08:14Z</time>
      </trkpt>
      <trkpt lat="46.40484" lon="-0.23302">
        <ele>125.8</ele>
        <time>2020-05-31T08:08:15Z</time>
      </trkpt>
      <trkpt lat="46.40483" lon="-0.23306">
        <ele>125.8</ele>
        <time>2020-05-31T08:08:16Z</time>
      </trkpt>
      <trkpt lat="46.4048" lon="-0.23311">
        <ele>125.9</ele>
        <time>2020-05-31T08:08:17Z</time>
      </trkpt>
      <trkpt lat="46.40478" lon="-0.23316">
        <ele>125.9</ele>
        <time>2020-05-31T08:08:18Z</time>
      </trkpt>
      <trkpt lat="46.40475" lon="-0.23321">
        <ele>126</ele>
        <time>2020-05-31T08:08:19Z</time>
      </trkpt>
      <trkpt lat="46.40473" lon="-0.23326">
        <ele>126</ele>
        <time>2020-05-31T08:08:20Z</time>
      </trkpt>
      <trkpt lat="46.4047" lon="-0.23331">
        <ele>126</ele>
        <time>2020-05-31T08:08:21Z</time>
      </trkpt>
      <trkpt lat="46.40467" lon="-0.23337">
        <ele>126</ele>
        <time>2020-05-31T08:08:22Z</time>
      </trkpt>
      <trkpt lat="46.40465" lon="-0.23341">
        <ele>126</ele>
        <time>2020-05-31T08:08:23Z</time>
      </trkpt>
      <trkpt lat="46.40462" lon="-0.23346">
        <ele>126</ele>
        <time>2020-05-31T08:08:24Z</time>
      </trkpt>
      <trkpt lat="46.40458" lon="-0.23351">
        <ele>126</ele>
        <time>2020-05-31T08:08:25Z</time>
      </trkpt>
      <trkpt lat="46.40456" lon="-0.23356">
        <ele>126</ele>
        <time>2020-05-31T08:08:26Z</time>
      </trkpt>
      <trkpt lat="46.40453" lon="-0.23362">
        <ele>126</ele>
        <time>2020-05-31T08:08:27Z</time>
      </trkpt>
      <trkpt lat="46.4045" lon="-0.23368">
        <ele>125.9</ele>
        <time>2020-05-31T08:08:28Z</time>
      </trkpt>
      <trkpt lat="46.40447" lon="-0.23375">
        <ele>125.9</ele>
        <time>2020-05-31T08:08:29Z</time>
      </trkpt>
      <trkpt lat="46.40443" lon="-0.23381">
        <ele>125.8</ele>
        <time>2020-05-31T08:08:30Z</time>
      </trkpt>
      <trkpt lat="46.40439" lon="-0.23387">
        <ele>125.8</ele>
        <time>2020-05-31T08:08:31Z</time>
      </trkpt>
      <trkpt lat="46.40436" lon="-0.23393">
        <ele>125.8</ele>
        <time>2020-05-31T08:08:32Z</time>
      </trkpt>
      <trkpt lat="46.40432" lon="-0.23401">
        <ele>125.7</ele>
        <time>2020-05-31T08:08:33Z</time>
      </trkpt>
      <trkpt lat="46.40428" lon="-0.23407">
        <ele>125.7</ele>
        <time>2020-05-31T08:08:34Z</time>
      </trkpt>
      <trkpt lat="46.40424" lon="-0.23412">
        <ele>125.6</ele>
        <time>2020-05-31T08:08:35Z</time>
      </trkpt>
      <trkpt lat="46.4042" lon="-0.23419">
        <ele>125.6</ele>
        <time>2020-05-31T08:08:36Z</time>
      </trkpt>
      <trkpt lat="46.40415" lon="-0.23426">
        <ele>125.5</ele>
        <time>2020-05-31T08:08:37Z</time>
      </trkpt>
      <trkpt lat="46.40411" lon="-0.23432">
        <ele>125.3</ele>
        <time>2020-05-31T08:08:38Z</time>
      </trkpt>
      <trkpt lat="46.40406" lon="-0.23438">
        <ele>125.2</ele>
        <time>2020-05-31T08:08:39Z</time>
      </trkpt>
      <trkpt lat="46.40402" lon="-0.23444">
        <ele>125</ele>
        <time>2020-05-31T08:08:40Z</time>
      </trkpt>
      <trkpt lat="46.40397" lon="-0.23451">
        <ele>124.8</ele>
        <time>2020-05-31T08:08:41Z</time>
      </trkpt>
      <trkpt lat="46.40393" lon="-0.23455">
        <ele>124.7</ele>
        <time>2020-05-31T08:08:42Z</time>
      </trkpt>
      <trkpt lat="46.40389" lon="-0.23461">
        <ele>124.5</ele>
        <time>2020-05-31T08:08:43Z</time>
      </trkpt>
      <trkpt lat="46.40384" lon="-0.23468">
        <ele>124.3</ele>
        <time>2020-05-31T08:08:44Z</time>
      </trkpt>
      <trkpt lat="46.4038" lon="-0.23474">
        <ele>124.1</ele>
        <time>2020-05-31T08:08:45Z</time>
      </trkpt>
      <trkpt lat="46.40376" lon="-0.23481">
        <ele>123.9</ele>
        <time>2020-05-31T08:08:46Z</time>
      </trkpt>
      <trkpt lat="46.4037" lon="-0.2349">
        <ele>123.7</ele>
        <time>2020-05-31T08:08:47Z</time>
      </trkpt>
      <trkpt lat="46.40366" lon="-0.23495">
        <ele>123.5</ele>
        <time>2020-05-31T08:08:48Z</time>
      </trkpt>
      <trkpt lat="46.40361" lon="-0.23503">
        <ele>123.3</ele>
        <time>2020-05-31T08:08:49Z</time>
      </trkpt>
      <trkpt lat="46.40356" lon="-0.2351">
        <ele>123.1</ele>
        <time>2020-05-31T08:08:50Z</time>
      </trkpt>
      <trkpt lat="46.40353" lon="-0.23518">
        <ele>122.9</ele>
        <time>2020-05-31T08:08:51Z</time>
      </trkpt>
      <trkpt lat="46.40348" lon="-0.23526">
        <ele>122.8</ele>
        <time>2020-05-31T08:08:52Z</time>
      </trkpt>
      <trkpt lat="46.40344" lon="-0.23535">
        <ele>122.6</ele>
        <time>2020-05-31T08:08:53Z</time>
      </trkpt>
      <trkpt lat="46.4034" lon="-0.23544">
        <ele>122.5</ele>
        <time>2020-05-31T08:08:54Z</time>
      </trkpt>
      <trkpt lat="46.40335" lon="-0.23552">
        <ele>122.4</ele>
        <time>2020-05-31T08:08:55Z</time>
      </trkpt>
      <trkpt lat="46.4033" lon="-0.23563">
        <ele>122.2</ele>
        <time>2020-05-31T08:08:56Z</time>
      </trkpt>
      <trkpt lat="46.40325" lon="-0.23572">
        <ele>122.1</ele>
        <time>2020-05-31T08:08:57Z</time>
      </trkpt>
      <trkpt lat="46.40321" lon="-0.23581">
        <ele>122</ele>
        <time>2020-05-31T08:08:58Z</time>
      </trkpt>
      <trkpt lat="46.40317" lon="-0.23589">
        <ele>121.9</ele>
        <time>2020-05-31T08:08:59Z</time>
      </trkpt>
      <trkpt lat="46.40312" lon="-0.23598">
        <ele>121.8</ele>
        <time>2020-05-31T08:09:00Z</time>
      </trkpt>
      <trkpt lat="46.40308" lon="-0.23607">
        <ele>121.7</ele>
        <time>2020-05-31T08:09:01Z</time>
      </trkpt>
      <trkpt lat="46.40303" lon="-0.23615">
        <ele>121.7</ele>
        <time>2020-05-31T08:09:02Z</time>
      </trkpt>
      <trkpt lat="46.40299" lon="-0.23624">
        <ele>121.6</ele>
        <time>2020-05-31T08:09:03Z</time>
      </trkpt>
      <trkpt lat="46.40294" lon="-0.23631">
        <ele>121.6</ele>
        <time>2020-05-31T08:09:04Z</time>
      </trkpt>
      <trkpt lat="46.4029" lon="-0.2364">
        <ele>121.5</ele>
        <time>2020-05-31T08:09:05Z</time>
      </trkpt>
      <trkpt lat="46.40285" lon="-0.23648">
        <ele>121.5</ele>
        <time>2020-05-31T08:09:06Z</time>
      </trkpt>
      <trkpt lat="46.40281" lon="-0.23656">
        <ele>121.5</ele>
        <time>2020-05-31T08:09:07Z</time>
      </trkpt>
      <trkpt lat="46.40277" lon="-0.23664">
        <ele>121.5</ele>
        <time>2020-05-31T08:09:08Z</time>
      </trkpt>
      <trkpt lat="46.40272" lon="-0.23671">
        <ele>121.4</ele>
        <time>2020-05-31T08:09:09Z</time>
      </trkpt>
      <trkpt lat="46.40267" lon="-0.23679">
        <ele>121.4</ele>
        <time>2020-05-31T08:09:10Z</time>
      </trkpt>
      <trkpt lat="46.40263" lon="-0.23686">
        <ele>121.4</ele>
        <time>2020-05-31T08:09:11Z</time>
      </trkpt>
      <trkpt lat="46.40259" lon="-0.23693">
        <ele>121.4</ele>
        <time>2020-05-31T08:09:12Z</time>
      </trkpt>
      <trkpt lat="46.40254" lon="-0.23701">
        <ele>121.4</ele>
        <time>2020-05-31T08:09:13Z</time>
      </trkpt>
      <trkpt lat="46.40251" lon="-0.23708">
        <ele>121.3</ele>
        <time>2020-05-31T08:09:14Z</time>
      </trkpt>
      <trkpt lat="46.40247" lon="-0.23716">
        <ele>121.3</ele>
        <time>2020-05-31T08:09:15Z</time>
      </trkpt>
      <trkpt lat="46.40244" lon="-0.23725">
        <ele>121.2</ele>
        <time>2020-05-31T08:09:16Z</time>
      </trkpt>
      <trkpt lat="46.40241" lon="-0.23734">
        <ele>121.2</ele>
        <time>2020-05-31T08:09:17Z</time>
      </trkpt>
      <trkpt lat="46.4024" lon="-0.23745">
        <ele>121.2</ele>
        <time>2020-05-31T08:09:18Z</time>
      </trkpt>
      <trkpt lat="46.40238" lon="-0.23754">
        <ele>121.2</ele>
        <time>2020-05-31T08:09:19Z</time>
      </trkpt>
      <trkpt lat="46.40237" lon="-0.23764">
        <ele>121.2</ele>
        <time>2020-05-31T08:09:20Z</time>
      </trkpt>
      <trkpt lat="46.40235" lon="-0.23774">
        <ele>121.2</ele>
        <time>2020-05-31T08:09:21Z</time>
      </trkpt>
      <trkpt lat="46.40233" lon="-0.23784">
        <ele>121.2</ele>
        <time>2020-05-31T08:09:22Z</time>
      </trkpt>
      <trkpt lat="46.40232" lon="-0.23794">
        <ele>121.3</ele>
        <time>2020-05-31T08:09:23Z</time>
      </trkpt>
      <trkpt lat="46.40231" lon="-0.23804">
        <ele>121.3</ele>
        <time>2020-05-31T08:09:24Z</time>
      </trkpt>
      <trkpt lat="46.40229" lon="-0.23812">
        <ele>121.4</ele>
        <time>2020-05-31T08:09:25Z</time>
      </trkpt>
      <trkpt lat="46.40227" lon="-0.23821">
        <ele>121.4</ele>
        <time>2020-05-31T08:09:26Z</time>
      </trkpt>
      <trkpt lat="46.40226" lon="-0.23829">
        <ele>121.5</ele>
        <time>2020-05-31T08:09:27Z</time>
      </trkpt>
      <trkpt lat="46.40225" lon="-0.23837">
        <ele>121.5</ele>
        <time>2020-05-31T08:09:28Z</time>
      </trkpt>
      <trkpt lat="46.40224" lon="-0.23845">
        <ele>121.5</ele>
        <time>2020-05-31T08:09:29Z</time>
      </trkpt>
      <trkpt lat="46.40222" lon="-0.23853">
        <ele>121.6</ele>
        <time>2020-05-31T08:09:30Z</time>
      </trkpt>
      <trkpt lat="46.40221" lon="-0.2386">
        <ele>121.6</ele>
        <time>2020-05-31T08:09:31Z</time>
      </trkpt>
      <trkpt lat="46.40221" lon="-0.23868">
        <ele>121.7</ele>
        <time>2020-05-31T08:09:32Z</time>
      </trkpt>
      <trkpt lat="46.40219" lon="-0.23877">
        <ele>121.7</ele>
        <time>2020-05-31T08:09:33Z</time>
      </trkpt>
      <trkpt lat="46.40218" lon="-0.23885">
        <ele>121.7</ele>
        <time>2020-05-31T08:09:34Z</time>
      </trkpt>
      <trkpt lat="46.40216" lon="-0.23893">
        <ele>121.8</ele>
        <time>2020-05-31T08:09:35Z</time>
      </trkpt>
      <trkpt lat="46.40216" lon="-0.23901">
        <ele>121.8</ele>
        <time>2020-05-31T08:09:36Z</time>
      </trkpt>
      <trkpt lat="46.40214" lon="-0.23908">
        <ele>121.8</ele>
        <time>2020-05-31T08:09:37Z</time>
      </trkpt>
      <trkpt lat="46.40212" lon="-0.23916">
        <ele>121.8</ele>
        <time>2020-05-31T08:09:38Z</time>
      </trkpt>
      <trkpt lat="46.4021" lon="-0.23922">
        <ele>121.8</ele>
        <time>2020-05-31T08:09:39Z</time>
      </trkpt>
      <trkpt lat="46.40207" lon="-0.23928">
        <ele>121.8</ele>
        <time>2020-05-31T08:09:40Z</time>
      </trkpt>
      <trkpt lat="46.40205" lon="-0.23934">
        <ele>121.8</ele>
        <time>2020-05-31T08:09:41Z</time>
      </trkpt>
      <trkpt lat="46.40203" lon="-0.23939">
        <ele>121.8</ele>
        <time>2020-05-31T08:09:42Z</time>
      </trkpt>
      <trkpt lat="46.40201" lon="-0.23944">
        <ele>121.8</ele>
        <time>2020-05-31T08:09:43Z</time>
      </trkpt>
      <trkpt lat="46.40199" lon="-0.23949">
        <ele>121.8</ele>
        <time>2020-05-31T08:09:44Z</time>
      </trkpt>
      <trkpt lat="46.40197" lon="-0.23953">
        <ele>121.9</ele>
        <time>2020-05-31T08:09:45Z</time>
      </trkpt>
      <trkpt lat="46.40197" lon="-0.23958">
        <ele>121.9</ele>
        <time>2020-05-31T08:09:46Z</time>
      </trkpt>
      <trkpt lat="46.40196" lon="-0.23961">
        <ele>121.9</ele>
        <time>2020-05-31T08:09:47Z</time>
      </trkpt>
      <trkpt lat="46.40195" lon="-0.23967">
        <ele>121.9</ele>
        <time>2020-05-31T08:09:48Z</time>
      </trkpt>
      <trkpt lat="46.40195" lon="-0.23969">
        <ele>121.9</ele>
        <time>2020-05-31T08:09:49Z</time>
      </trkpt>
      <trkpt lat="46.40193" lon="-0.23973">
        <ele>121.9</ele>
        <time>2020-05-31T08:09:50Z</time>
      </trkpt>
      <trkpt lat="46.40193" lon="-0.23975">
        <ele>121.9</ele>
        <time>2020-05-31T08:09:51Z</time>
      </trkpt>
      <trkpt lat="46.40192" lon="-0.23979">
        <ele>121.9</ele>
        <time>2020-05-31T08:09:52Z</time>
      </trkpt>
      <trkpt lat="46.40191" lon="-0.2398">
        <ele>121.9</ele>
        <time>2020-05-31T08:09:53Z</time>
      </trkpt>
      <trkpt lat="46.4019" lon="-0.23985">
        <ele>121.9</ele>
        <time>2020-05-31T08:09:54Z</time>
      </trkpt>
      <trkpt lat="46.40189" lon="-0.23986">
        <ele>121.9</ele>
        <time>2020-05-31T08:09:55Z</time>
      </trkpt>
      <trkpt lat="46.40187" lon="-0.23991">
        <ele>121.9</ele>
        <time>2020-05-31T08:09:56Z</time>
      </trkpt>
      <trkpt lat="46.40187" lon="-0.23993">
        <ele>121.9</ele>
        <time>2020-05-31T08:09:57Z</time>
      </trkpt>
      <trkpt lat="46.40186" lon="-0.23996">
        <ele>121.9</ele>
        <time>2020-05-31T08:09:58Z</time>
      </trkpt>
      <trkpt lat="46.40184" lon="-0.23999">
        <ele>121.9</ele>
        <time>2020-05-31T08:09:59Z</time>
      </trkpt>
      <trkpt lat="46.40182" lon="-0.24003">
        <ele>121.9</ele>
        <time>2020-05-31T08:10:00Z</time>
      </trkpt>
      <trkpt lat="46.40182" lon="-0.24007">
        <ele>121.9</ele>
        <time>2020-05-31T08:10:01Z</time>
      </trkpt>
      <trkpt lat="46.40181" lon="-0.24009">
        <ele>121.9</ele>
        <time>2020-05-31T08:10:02Z</time>
      </trkpt>
      <trkpt lat="46.4018" lon="-0.24014">
        <ele>121.9</ele>
        <time>2020-05-31T08:10:03Z</time>
      </trkpt>
      <trkpt lat="46.40179" lon="-0.24015">
        <ele>121.9</ele>
        <time>2020-05-31T08:10:04Z</time>
      </trkpt>
      <trkpt lat="46.40178" lon="-0.2402">
        <ele>121.9</ele>
        <time>2020-05-31T08:10:05Z</time>
      </trkpt>
      <trkpt lat="46.40177" lon="-0.24021">
        <ele>121.9</ele>
        <time>2020-05-31T08:10:06Z</time>
      </trkpt>
      <trkpt lat="46.40176" lon="-0.24025">
        <ele>121.8</ele>
        <time>2020-05-31T08:10:07Z</time>
      </trkpt>
      <trkpt lat="46.40175" lon="-0.24028">
        <ele>121.8</ele>
        <time>2020-05-31T08:10:08Z</time>
      </trkpt>
      <trkpt lat="46.40174" lon="-0.24032">
        <ele>121.8</ele>
        <time>2020-05-31T08:10:09Z</time>
      </trkpt>
      <trkpt lat="46.40172" lon="-0.24035">
        <ele>121.7</ele>
        <time>2020-05-31T08:10:10Z</time>
      </trkpt>
      <trkpt lat="46.40172" lon="-0.24039">
        <ele>121.7</ele>
        <time>2020-05-31T08:10:11Z</time>
      </trkpt>
      <trkpt lat="46.40171" lon="-0.24043">
        <ele>121.7</ele>
        <time>2020-05-31T08:10:12Z</time>
      </trkpt>
      <trkpt lat="46.40171" lon="-0.24047">
        <ele>121.6</ele>
        <time>2020-05-31T08:10:13Z</time>
      </trkpt>
      <trkpt lat="46.40171" lon="-0.24052">
        <ele>121.5</ele>
        <time>2020-05-31T08:10:14Z</time>
      </trkpt>
      <trkpt lat="46.40171" lon="-0.24057">
        <ele>121.5</ele>
        <time>2020-05-31T08:10:15Z</time>
      </trkpt>
      <trkpt lat="46.4017" lon="-0.2406">
        <ele>121.4</ele>
        <time>2020-05-31T08:10:16Z</time>
      </trkpt>
      <trkpt lat="46.40169" lon="-0.24065">
        <ele>121.4</ele>
        <time>2020-05-31T08:10:17Z</time>
      </trkpt>
      <trkpt lat="46.40169" lon="-0.24069">
        <ele>121.3</ele>
        <time>2020-05-31T08:10:18Z</time>
      </trkpt>
      <trkpt lat="46.40167" lon="-0.24072">
        <ele>121.3</ele>
        <time>2020-05-31T08:10:19Z</time>
      </trkpt>
      <trkpt lat="46.40166" lon="-0.24077">
        <ele>121.2</ele>
        <time>2020-05-31T08:10:20Z</time>
      </trkpt>
      <trkpt lat="46.40165" lon="-0.24081">
        <ele>121.1</ele>
        <time>2020-05-31T08:10:21Z</time>
      </trkpt>
      <trkpt lat="46.40164" lon="-0.24086">
        <ele>121.1</ele>
        <time>2020-05-31T08:10:22Z</time>
      </trkpt>
      <trkpt lat="46.40163" lon="-0.2409">
        <ele>121</ele>
        <time>2020-05-31T08:10:23Z</time>
      </trkpt>
      <trkpt lat="46.40162" lon="-0.24094">
        <ele>121</ele>
        <time>2020-05-31T08:10:24Z</time>
      </trkpt>
      <trkpt lat="46.40161" lon="-0.24099">
        <ele>120.9</ele>
        <time>2020-05-31T08:10:25Z</time>
      </trkpt>
      <trkpt lat="46.4016" lon="-0.24103">
        <ele>120.9</ele>
        <time>2020-05-31T08:10:26Z</time>
      </trkpt>
      <trkpt lat="46.40159" lon="-0.24107">
        <ele>120.9</ele>
        <time>2020-05-31T08:10:27Z</time>
      </trkpt>
      <trkpt lat="46.40158" lon="-0.24113">
        <ele>120.8</ele>
        <time>2020-05-31T08:10:28Z</time>
      </trkpt>
      <trkpt lat="46.40158" lon="-0.24115">
        <ele>120.8</ele>
        <time>2020-05-31T08:10:29Z</time>
      </trkpt>
      <trkpt lat="46.40159" lon="-0.2412">
        <ele>120.8</ele>
        <time>2020-05-31T08:10:30Z</time>
      </trkpt>
      <trkpt lat="46.40159" lon="-0.24122">
        <ele>120.8</ele>
        <time>2020-05-31T08:10:31Z</time>
      </trkpt>
      <trkpt lat="46.40158" lon="-0.24128">
        <ele>120.7</ele>
        <time>2020-05-31T08:10:32Z</time>
      </trkpt>
      <trkpt lat="46.40158" lon="-0.2413">
        <ele>120.7</ele>
        <time>2020-05-31T08:10:33Z</time>
      </trkpt>
      <trkpt lat="46.40158" lon="-0.24134">
        <ele>120.7</ele>
        <time>2020-05-31T08:10:34Z</time>
      </trkpt>
      <trkpt lat="46.40157" lon="-0.24136">
        <ele>120.7</ele>
        <time>2020-05-31T08:10:35Z</time>
      </trkpt>
      <trkpt lat="46.40156" lon="-0.2414">
        <ele>120.6</ele>
        <time>2020-05-31T08:10:36Z</time>
      </trkpt>
      <trkpt lat="46.40156" lon="-0.24141">
        <ele>120.6</ele>
        <time>2020-05-31T08:10:37Z</time>
      </trkpt>
      <trkpt lat="46.40155" lon="-0.24145">
        <ele>120.6</ele>
        <time>2020-05-31T08:10:38Z</time>
      </trkpt>
      <trkpt lat="46.40154" lon="-0.24147">
        <ele>120.6</ele>
        <time>2020-05-31T08:10:39Z</time>
      </trkpt>
      <trkpt lat="46.40153" lon="-0.2415">
        <ele>120.5</ele>
        <time>2020-05-31T08:10:40Z</time>
      </trkpt>
      <trkpt lat="46.40151" lon="-0.24153">
        <ele>120.5</ele>
        <time>2020-05-31T08:10:41Z</time>
      </trkpt>
      <trkpt lat="46.4015" lon="-0.24158">
        <ele>120.4</ele>
        <time>2020-05-31T08:10:42Z</time>
      </trkpt>
      <trkpt lat="46.4015" lon="-0.2416">
        <ele>120.4</ele>
        <time>2020-05-31T08:10:43Z</time>
      </trkpt>
      <trkpt lat="46.40149" lon="-0.24164">
        <ele>120.4</ele>
        <time>2020-05-31T08:10:44Z</time>
      </trkpt>
      <trkpt lat="46.40149" lon="-0.24165">
        <ele>120.3</ele>
        <time>2020-05-31T08:10:45Z</time>
      </trkpt>
      <trkpt lat="46.40148" lon="-0.24171">
        <ele>120.3</ele>
        <time>2020-05-31T08:10:46Z</time>
      </trkpt>
      <trkpt lat="46.40148" lon="-0.24173">
        <ele>120.2</ele>
        <time>2020-05-31T08:10:47Z</time>
      </trkpt>
      <trkpt lat="46.40148" lon="-0.24178">
        <ele>120.2</ele>
        <time>2020-05-31T08:10:48Z</time>
      </trkpt>
      <trkpt lat="46.40147" lon="-0.24182">
        <ele>120.1</ele>
        <time>2020-05-31T08:10:49Z</time>
      </trkpt>
      <trkpt lat="46.40147" lon="-0.24187">
        <ele>120.1</ele>
        <time>2020-05-31T08:10:50Z</time>
      </trkpt>
      <trkpt lat="46.40147" lon="-0.24191">
        <ele>120</ele>
        <time>2020-05-31T08:10:51Z</time>
      </trkpt>
      <trkpt lat="46.40147" lon="-0.24195">
        <ele>119.9</ele>
        <time>2020-05-31T08:10:52Z</time>
      </trkpt>
      <trkpt lat="46.40147" lon="-0.24201">
        <ele>119.9</ele>
        <time>2020-05-31T08:10:53Z</time>
      </trkpt>
      <trkpt lat="46.40146" lon="-0.24202">
        <ele>119.8</ele>
        <time>2020-05-31T08:10:54Z</time>
      </trkpt>
      <trkpt lat="46.40145" lon="-0.24208">
        <ele>119.8</ele>
        <time>2020-05-31T08:10:55Z</time>
      </trkpt>
      <trkpt lat="46.40145" lon="-0.2421">
        <ele>119.7</ele>
        <time>2020-05-31T08:10:56Z</time>
      </trkpt>
      <trkpt lat="46.40144" lon="-0.24214">
        <ele>119.7</ele>
        <time>2020-05-31T08:10:57Z</time>
      </trkpt>
      <trkpt lat="46.40144" lon="-0.24218">
        <ele>119.6</ele>
        <time>2020-05-31T08:10:58Z</time>
      </trkpt>
      <trkpt lat="46.40143" lon="-0.24223">
        <ele>119.5</ele>
        <time>2020-05-31T08:10:59Z</time>
      </trkpt>
      <trkpt lat="46.40143" lon="-0.24227">
        <ele>119.5</ele>
        <time>2020-05-31T08:11:00Z</time>
      </trkpt>
      <trkpt lat="46.40143" lon="-0.24231">
        <ele>119.4</ele>
        <time>2020-05-31T08:11:01Z</time>
      </trkpt>
      <trkpt lat="46.40142" lon="-0.24236">
        <ele>119.3</ele>
        <time>2020-05-31T08:11:02Z</time>
      </trkpt>
      <trkpt lat="46.40142" lon="-0.24241">
        <ele>119.2</ele>
        <time>2020-05-31T08:11:03Z</time>
      </trkpt>
      <trkpt lat="46.40141" lon="-0.24247">
        <ele>119.1</ele>
        <time>2020-05-31T08:11:04Z</time>
      </trkpt>
      <trkpt lat="46.4014" lon="-0.24252">
        <ele>119.1</ele>
        <time>2020-05-31T08:11:05Z</time>
      </trkpt>
      <trkpt lat="46.40139" lon="-0.24257">
        <ele>119</ele>
        <time>2020-05-31T08:11:06Z</time>
      </trkpt>
      <trkpt lat="46.40137" lon="-0.24261">
        <ele>118.9</ele>
        <time>2020-05-31T08:11:07Z</time>
      </trkpt>
      <trkpt lat="46.40137" lon="-0.24265">
        <ele>118.8</ele>
        <time>2020-05-31T08:11:08Z</time>
      </trkpt>
      <trkpt lat="46.40137" lon="-0.2427">
        <ele>118.8</ele>
        <time>2020-05-31T08:11:09Z</time>
      </trkpt>
      <trkpt lat="46.40136" lon="-0.24275">
        <ele>118.7</ele>
        <time>2020-05-31T08:11:10Z</time>
      </trkpt>
      <trkpt lat="46.40136" lon="-0.2428">
        <ele>118.6</ele>
        <time>2020-05-31T08:11:11Z</time>
      </trkpt>
      <trkpt lat="46.40135" lon="-0.24284">
        <ele>118.5</ele>
        <time>2020-05-31T08:11:12Z</time>
      </trkpt>
      <trkpt lat="46.40135" lon="-0.24288">
        <ele>118.4</ele>
        <time>2020-05-31T08:11:13Z</time>
      </trkpt>
      <trkpt lat="46.40136" lon="-0.24292">
        <ele>118.4</ele>
        <time>2020-05-31T08:11:14Z</time>
      </trkpt>
      <trkpt lat="46.40136" lon="-0.24298">
        <ele>118.2</ele>
        <time>2020-05-31T08:11:15Z</time>
      </trkpt>
      <trkpt lat="46.40135" lon="-0.243">
        <ele>118.2</ele>
        <time>2020-05-31T08:11:16Z</time>
      </trkpt>
      <trkpt lat="46.40135" lon="-0.24305">
        <ele>118.1</ele>
        <time>2020-05-31T08:11:17Z</time>
      </trkpt>
      <trkpt lat="46.40134" lon="-0.2431">
        <ele>118</ele>
        <time>2020-05-31T08:11:18Z</time>
      </trkpt>
      <trkpt lat="46.40134" lon="-0.24314">
        <ele>118</ele>
        <time>2020-05-31T08:11:19Z</time>
      </trkpt>
      <trkpt lat="46.40133" lon="-0.24317">
        <ele>117.9</ele>
        <time>2020-05-31T08:11:20Z</time>
      </trkpt>
      <trkpt lat="46.40131" lon="-0.24322">
        <ele>117.8</ele>
        <time>2020-05-31T08:11:21Z</time>
      </trkpt>
      <trkpt lat="46.40131" lon="-0.24324">
        <ele>117.8</ele>
        <time>2020-05-31T08:11:22Z</time>
      </trkpt>
      <trkpt lat="46.40131" lon="-0.24329">
        <ele>117.7</ele>
        <time>2020-05-31T08:11:23Z</time>
      </trkpt>
      <trkpt lat="46.40131" lon="-0.2433">
        <ele>117.7</ele>
        <time>2020-05-31T08:11:24Z</time>
      </trkpt>
      <trkpt lat="46.40129" lon="-0.24334">
        <ele>117.6</ele>
        <time>2020-05-31T08:11:25Z</time>
      </trkpt>
      <trkpt lat="46.40128" lon="-0.24335">
        <ele>117.5</ele>
        <time>2020-05-31T08:11:26Z</time>
      </trkpt>
      <trkpt lat="46.40127" lon="-0.24337">
        <ele>117.5</ele>
        <time>2020-05-31T08:11:27Z</time>
      </trkpt>
      <trkpt lat="46.40127" lon="-0.24338">
        <ele>117.5</ele>
        <time>2020-05-31T08:11:28Z</time>
      </trkpt>
      <trkpt lat="46.40127" lon="-0.24338">
        <ele>117.5</ele>
        <time>2020-05-31T08:11:29Z</time>
      </trkpt>
      <trkpt lat="46.40126" lon="-0.24338">
        <ele>117.5</ele>
        <time>2020-05-31T08:11:30Z</time>
      </trkpt>
      <trkpt lat="46.40125" lon="-0.24338">
        <ele>117.4</ele>
        <time>2020-05-31T08:11:31Z</time>
      </trkpt>
      <trkpt lat="46.40125" lon="-0.24338">
        <ele>117.4</ele>
        <time>2020-05-31T08:11:32Z</time>
      </trkpt>
      <trkpt lat="46.40125" lon="-0.24338">
        <ele>117.4</ele>
        <time>2020-05-31T08:11:33Z</time>
      </trkpt>
      <trkpt lat="46.40124" lon="-0.24338">
        <ele>117.4</ele>
        <time>2020-05-31T08:11:34Z</time>
      </trkpt>
      <trkpt lat="46.40124" lon="-0.24338">
        <ele>117.4</ele>
        <time>2020-05-31T08:11:35Z</time>
      </trkpt>
      <trkpt lat="46.40123" lon="-0.24339">
        <ele>117.4</ele>
        <time>2020-05-31T08:11:36Z</time>
      </trkpt>
      <trkpt lat="46.40122" lon="-0.2434">
        <ele>117.3</ele>
        <time>2020-05-31T08:11:37Z</time>
      </trkpt>
      <trkpt lat="46.40121" lon="-0.24341">
        <ele>117.3</ele>
        <time>2020-05-31T08:11:38Z</time>
      </trkpt>
      <trkpt lat="46.40119" lon="-0.24342">
        <ele>117.2</ele>
        <time>2020-05-31T08:11:39Z</time>
      </trkpt>
      <trkpt lat="46.40118" lon="-0.24342">
        <ele>117.2</ele>
        <time>2020-05-31T08:11:40Z</time>
      </trkpt>
      <trkpt lat="46.40116" lon="-0.24342">
        <ele>117.2</ele>
        <time>2020-05-31T08:11:41Z</time>
      </trkpt>
      <trkpt lat="46.40115" lon="-0.24342">
        <ele>117.1</ele>
        <time>2020-05-31T08:11:42Z</time>
      </trkpt>
      <trkpt lat="46.40113" lon="-0.24341">
        <ele>117.1</ele>
        <time>2020-05-31T08:11:43Z</time>
      </trkpt>
      <trkpt lat="46.40111" lon="-0.24342">
        <ele>117.1</ele>
        <time>2020-05-31T08:11:44Z</time>
      </trkpt>
      <trkpt lat="46.4011" lon="-0.24342">
        <ele>117</ele>
        <time>2020-05-31T08:11:45Z</time>
      </trkpt>
      <trkpt lat="46.40108" lon="-0.24341">
        <ele>117</ele>
        <time>2020-05-31T08:11:46Z</time>
      </trkpt>
      <trkpt lat="46.40107" lon="-0.2434">
        <ele>117</ele>
        <time>2020-05-31T08:11:47Z</time>
      </trkpt>
      <trkpt lat="46.40106" lon="-0.2434">
        <ele>117</ele>
        <time>2020-05-31T08:11:48Z</time>
      </trkpt>
      <trkpt lat="46.40105" lon="-0.24341">
        <ele>116.9</ele>
        <time>2020-05-31T08:11:49Z</time>
      </trkpt>
      <trkpt lat="46.40103" lon="-0.24341">
        <ele>116.9</ele>
        <time>2020-05-31T08:11:50Z</time>
      </trkpt>
      <trkpt lat="46.40102" lon="-0.24341">
        <ele>116.9</ele>
        <time>2020-05-31T08:11:51Z</time>
      </trkpt>
      <trkpt lat="46.40101" lon="-0.24342">
        <ele>116.9</ele>
        <time>2020-05-31T08:11:52Z</time>
      </trkpt>
      <trkpt lat="46.40101" lon="-0.24341">
        <ele>116.9</ele>
        <time>2020-05-31T08:11:53Z</time>
      </trkpt>
      <trkpt lat="46.401" lon="-0.24341">
        <ele>116.9</ele>
        <time>2020-05-31T08:11:54Z</time>
      </trkpt>
      <trkpt lat="46.40099" lon="-0.24341">
        <ele>116.9</ele>
        <time>2020-05-31T08:11:55Z</time>
      </trkpt>
      <trkpt lat="46.40098" lon="-0.2434">
        <ele>116.8</ele>
        <time>2020-05-31T08:11:56Z</time>
      </trkpt>
      <trkpt lat="46.40097" lon="-0.2434">
        <ele>116.8</ele>
        <time>2020-05-31T08:11:57Z</time>
      </trkpt>
      <trkpt lat="46.40096" lon="-0.24339">
        <ele>116.8</ele>
        <time>2020-05-31T08:11:58Z</time>
      </trkpt>
      <trkpt lat="46.40096" lon="-0.24338">
        <ele>116.8</ele>
        <time>2020-05-31T08:11:59Z</time>
      </trkpt>
      <trkpt lat="46.40096" lon="-0.24338">
        <ele>116.8</ele>
        <time>2020-05-31T08:12:00Z</time>
      </trkpt>
      <trkpt lat="46.40096" lon="-0.24338">
        <ele>116.8</ele>
        <time>2020-05-31T08:12:01Z</time>
      </trkpt>
      <trkpt lat="46.40096" lon="-0.2434">
        <ele>116.8</ele>
        <time>2020-05-31T08:12:02Z</time>
      </trkpt>
      <trkpt lat="46.40095" lon="-0.24341">
        <ele>116.8</ele>
        <time>2020-05-31T08:12:03Z</time>
      </trkpt>
      <trkpt lat="46.40095" lon="-0.24341">
        <ele>116.8</ele>
        <time>2020-05-31T08:12:04Z</time>
      </trkpt>
      <trkpt lat="46.40095" lon="-0.24342">
        <ele>116.7</ele>
        <time>2020-05-31T08:12:05Z</time>
      </trkpt>
      <trkpt lat="46.40095" lon="-0.24342">
        <ele>116.7</ele>
        <time>2020-05-31T08:12:06Z</time>
      </trkpt>
      <trkpt lat="46.40095" lon="-0.24342">
        <ele>116.7</ele>
        <time>2020-05-31T08:12:07Z</time>
      </trkpt>
      <trkpt lat="46.40095" lon="-0.24342">
        <ele>116.7</ele>
        <time>2020-05-31T08:12:08Z</time>
      </trkpt>
      <trkpt lat="46.40095" lon="-0.24342">
        <ele>116.7</ele>
        <time>2020-05-31T08:12:09Z</time>
      </trkpt>
      <trkpt lat="46.40095" lon="-0.24342">
        <ele>116.7</ele>
        <time>2020-05-31T08:12:10Z</time>
      </trkpt>
      <trkpt lat="46.40095" lon="-0.24342">
        <ele>116.7</ele>
        <time>2020-05-31T08:12:11Z</time>
      </trkpt>
      <trkpt lat="46.40095" lon="-0.24342">
        <ele>116.7</ele>
        <time>2020-05-31T08:12:12Z</time>
      </trkpt>
      <trkpt lat="46.40095" lon="-0.24342">
        <ele>116.7</ele>
        <time>2020-05-31T08:12:13Z</time>
      </trkpt>
      <trkpt lat="46.40095" lon="-0.24342">
        <ele>116.7</ele>
        <time>2020-05-31T08:12:14Z</time>
      </trkpt>
      <trkpt lat="46.40095" lon="-0.24342">
        <ele>116.7</ele>
        <time>2020-05-31T08:12:15Z</time>
      </trkpt>
      <trkpt lat="46.40095" lon="-0.24342">
        <ele>116.7</ele>
        <time>2020-05-31T08:12:16Z</time>
      </trkpt>
      <trkpt lat="46.40095" lon="-0.24342">
        <ele>116.7</ele>
        <time>2020-05-31T08:12:17Z</time>
      </trkpt>
      <trkpt lat="46.40095" lon="-0.24342">
        <ele>116.7</ele>
        <time>2020-05-31T08:12:18Z</time>
      </trkpt>
      <trkpt lat="46.40095" lon="-0.24342">
        <ele>116.7</ele>
        <time>2020-05-31T08:12:19Z</time>
      </trkpt>
      <trkpt lat="46.40095" lon="-0.24342">
        <ele>116.7</ele>
        <time>2020-05-31T08:12:20Z</time>
      </trkpt>
      <trkpt lat="46.40095" lon="-0.24342">
        <ele>116.7</ele>
        <time>2020-05-31T08:12:21Z</time>
      </trkpt>
      <trkpt lat="46.40095" lon="-0.24342">
        <ele>116.7</ele>
        <time>2020-05-31T08:12:22Z</time>
      </trkpt>
      <trkpt lat="46.40095" lon="-0.24342">
        <ele>116.7</ele>
        <time>2020-05-31T08:12:23Z</time>
      </trkpt>
      <trkpt lat="46.40095" lon="-0.24342">
        <ele>116.7</ele>
        <time>2020-05-31T08:12:24Z</time>
      </trkpt>
      <trkpt lat="46.40095" lon="-0.24342">
        <ele>116.7</ele>
        <time>2020-05-31T08:12:25Z</time>
      </trkpt>
      <trkpt lat="46.40095" lon="-0.24342">
        <ele>116.7</ele>
        <time>2020-05-31T08:12:26Z</time>
      </trkpt>
      <trkpt lat="46.40095" lon="-0.24342">
        <ele>116.7</ele>
        <time>2020-05-31T08:12:27Z</time>
      </trkpt>
      <trkpt lat="46.40095" lon="-0.24342">
        <ele>116.7</ele>
        <time>2020-05-31T08:12:28Z</time>
      </trkpt>
      <trkpt lat="46.40095" lon="-0.24342">
        <ele>116.7</ele>
        <time>2020-05-31T08:12:29Z</time>
      </trkpt>
      <trkpt lat="46.40095" lon="-0.24342">
        <ele>116.7</ele>
        <time>2020-05-31T08:12:30Z</time>
      </trkpt>
      <trkpt lat="46.40095" lon="-0.24342">
        <ele>116.7</ele>
        <time>2020-05-31T08:12:31Z</time>
      </trkpt>
      <trkpt lat="46.40095" lon="-0.24342">
        <ele>116.7</ele>
        <time>2020-05-31T08:12:32Z</time>
      </trkpt>
      <trkpt lat="46.40095" lon="-0.24342">
        <ele>116.7</ele>
        <time>2020-05-31T08:12:33Z</time>
      </trkpt>
      <trkpt lat="46.40095" lon="-0.24342">
        <ele>116.7</ele>
        <time>2020-05-31T08:12:34Z</time>
      </trkpt>
      <trkpt lat="46.40095" lon="-0.24342">
        <ele>116.7</ele>
        <time>2020-05-31T08:12:35Z</time>
      </trkpt>
      <trkpt lat="46.40095" lon="-0.24342">
        <ele>116.7</ele>
        <time>2020-05-31T08:12:36Z</time>
      </trkpt>
      <trkpt lat="46.40095" lon="-0.24342">
        <ele>116.7</ele>
        <time>2020-05-31T08:12:37Z</time>
      </trkpt>
      <trkpt lat="46.40095" lon="-0.24342">
        <ele>116.7</ele>
        <time>2020-05-31T08:12:38Z</time>
      </trkpt>
      <trkpt lat="46.40095" lon="-0.24343">
        <ele>116.7</ele>
        <time>2020-05-31T08:12:39Z</time>
      </trkpt>
      <trkpt lat="46.40095" lon="-0.24343">
        <ele>116.7</ele>
        <time>2020-05-31T08:12:40Z</time>
      </trkpt>
      <trkpt lat="46.40095" lon="-0.24343">
        <ele>116.7</ele>
        <time>2020-05-31T08:12:41Z</time>
      </trkpt>
      <trkpt lat="46.40095" lon="-0.24343">
        <ele>116.7</ele>
        <time>2020-05-31T08:12:42Z</time>
      </trkpt>
      <trkpt lat="46.40095" lon="-0.24343">
        <ele>116.7</ele>
        <time>2020-05-31T08:12:43Z</time>
      </trkpt>
      <trkpt lat="46.40095" lon="-0.24343">
        <ele>116.7</ele>
        <time>2020-05-31T08:12:44Z</time>
      </trkpt>
      <trkpt lat="46.40095" lon="-0.24343">
        <ele>116.7</ele>
        <time>2020-05-31T08:12:45Z</time>
      </trkpt>
      <trkpt lat="46.40095" lon="-0.24343">
        <ele>116.7</ele>
        <time>2020-05-31T08:12:46Z</time>
      </trkpt>
      <trkpt lat="46.40095" lon="-0.24343">
        <ele>116.7</ele>
        <time>2020-05-31T08:12:47Z</time>
      </trkpt>
      <trkpt lat="46.40095" lon="-0.24343">
        <ele>116.7</ele>
        <time>2020-05-31T08:12:48Z</time>
      </trkpt>
      <trkpt lat="46.40095" lon="-0.24343">
        <ele>116.7</ele>
        <time>2020-05-31T08:12:49Z</time>
      </trkpt>
      <trkpt lat="46.40095" lon="-0.24343">
        <ele>116.7</ele>
        <time>2020-05-31T08:12:50Z</time>
      </trkpt>
      <trkpt lat="46.40095" lon="-0.24343">
        <ele>116.7</ele>
        <time>2020-05-31T08:12:51Z</time>
      </trkpt>
      <trkpt lat="46.40095" lon="-0.24343">
        <ele>116.7</ele>
        <time>2020-05-31T08:12:52Z</time>
      </trkpt>
      <trkpt lat="46.40095" lon="-0.24343">
        <ele>116.7</ele>
        <time>2020-05-31T08:12:53Z</time>
      </trkpt>
      <trkpt lat="46.40095" lon="-0.24343">
        <ele>116.7</ele>
        <time>2020-05-31T08:12:54Z</time>
      </trkpt>
      <trkpt lat="46.40095" lon="-0.24343">
        <ele>116.7</ele>
        <time>2020-05-31T08:12:55Z</time>
      </trkpt>
      <trkpt lat="46.40095" lon="-0.24343">
        <ele>116.7</ele>
        <time>2020-05-31T08:12:56Z</time>
      </trkpt>
      <trkpt lat="46.40095" lon="-0.24343">
        <ele>116.7</ele>
        <time>2020-05-31T08:12:57Z</time>
      </trkpt>
      <trkpt lat="46.40095" lon="-0.24343">
        <ele>116.7</ele>
        <time>2020-05-31T08:12:58Z</time>
      </trkpt>
      <trkpt lat="46.40094" lon="-0.24343">
        <ele>116.7</ele>
        <time>2020-05-31T08:12:59Z</time>
      </trkpt>
      <trkpt lat="46.40094" lon="-0.24343">
        <ele>116.7</ele>
        <time>2020-05-31T08:13:00Z</time>
      </trkpt>
      <trkpt lat="46.40094" lon="-0.24343">
        <ele>116.7</ele>
        <time>2020-05-31T08:13:01Z</time>
      </trkpt>
      <trkpt lat="46.40094" lon="-0.24343">
        <ele>116.7</ele>
        <time>2020-05-31T08:13:02Z</time>
      </trkpt>
      <trkpt lat="46.40094" lon="-0.24343">
        <ele>116.7</ele>
        <time>2020-05-31T08:13:03Z</time>
      </trkpt>
      <trkpt lat="46.40094" lon="-0.24343">
        <ele>116.7</ele>
        <time>2020-05-31T08:13:04Z</time>
      </trkpt>
      <trkpt lat="46.40094" lon="-0.24343">
        <ele>116.7</ele>
        <time>2020-05-31T08:13:05Z</time>
      </trkpt>
      <trkpt lat="46.40094" lon="-0.24343">
        <ele>116.7</ele>
        <time>2020-05-31T08:13:06Z</time>
      </trkpt>
      <trkpt lat="46.40094" lon="-0.24343">
        <ele>116.7</ele>
        <time>2020-05-31T08:13:07Z</time>
      </trkpt>
      <trkpt lat="46.40094" lon="-0.24343">
        <ele>116.7</ele>
        <time>2020-05-31T08:13:08Z</time>
      </trkpt>
      <trkpt lat="46.40094" lon="-0.24343">
        <ele>116.7</ele>
        <time>2020-05-31T08:13:09Z</time>
      </trkpt>
      <trkpt lat="46.40094" lon="-0.24343">
        <ele>116.7</ele>
        <time>2020-05-31T08:13:10Z</time>
      </trkpt>
      <trkpt lat="46.40094" lon="-0.24343">
        <ele>116.7</ele>
        <time>2020-05-31T08:13:11Z</time>
      </trkpt>
      <trkpt lat="46.40094" lon="-0.24343">
        <ele>116.7</ele>
        <time>2020-05-31T08:13:12Z</time>
      </trkpt>
      <trkpt lat="46.40094" lon="-0.24343">
        <ele>116.7</ele>
        <time>2020-05-31T08:13:13Z</time>
      </trkpt>
      <trkpt lat="46.40094" lon="-0.24343">
        <ele>116.7</ele>
        <time>2020-05-31T08:13:14Z</time>
      </trkpt>
      <trkpt lat="46.40094" lon="-0.24343">
        <ele>116.7</ele>
        <time>2020-05-31T08:13:15Z</time>
      </trkpt>
      <trkpt lat="46.40094" lon="-0.24343">
        <ele>116.7</ele>
        <time>2020-05-31T08:13:16Z</time>
      </trkpt>
      <trkpt lat="46.40094" lon="-0.24343">
        <ele>116.7</ele>
        <time>2020-05-31T08:13:17Z</time>
      </trkpt>
      <trkpt lat="46.40094" lon="-0.24343">
        <ele>116.7</ele>
        <time>2020-05-31T08:13:18Z</time>
      </trkpt>
      <trkpt lat="46.40094" lon="-0.24344">
        <ele>116.7</ele>
        <time>2020-05-31T08:13:19Z</time>
      </trkpt>
      <trkpt lat="46.40094" lon="-0.24344">
        <ele>116.7</ele>
        <time>2020-05-31T08:13:20Z</time>
      </trkpt>
      <trkpt lat="46.40094" lon="-0.24344">
        <ele>116.7</ele>
        <time>2020-05-31T08:13:21Z</time>
      </trkpt>
      <trkpt lat="46.40094" lon="-0.24344">
        <ele>116.7</ele>
        <time>2020-05-31T08:13:22Z</time>
      </trkpt>
      <trkpt lat="46.40094" lon="-0.24344">
        <ele>116.7</ele>
        <time>2020-05-31T08:13:23Z</time>
      </trkpt>
      <trkpt lat="46.40094" lon="-0.24344">
        <ele>116.7</ele>
        <time>2020-05-31T08:13:24Z</time>
      </trkpt>
      <trkpt lat="46.40094" lon="-0.24344">
        <ele>116.7</ele>
        <time>2020-05-31T08:13:25Z</time>
      </trkpt>
      <trkpt lat="46.40094" lon="-0.24344">
        <ele>116.7</ele>
        <time>2020-05-31T08:13:26Z</time>
      </trkpt>
      <trkpt lat="46.40094" lon="-0.24344">
        <ele>116.7</ele>
        <time>2020-05-31T08:13:27Z</time>
      </trkpt>
      <trkpt lat="46.40094" lon="-0.24344">
        <ele>116.7</ele>
        <time>2020-05-31T08:13:28Z</time>
      </trkpt>
      <trkpt lat="46.40094" lon="-0.24344">
        <ele>116.7</ele>
        <time>2020-05-31T08:13:29Z</time>
      </trkpt>
      <trkpt lat="46.40094" lon="-0.24344">
        <ele>116.7</ele>
        <time>2020-05-31T08:13:30Z</time>
      </trkpt>
      <trkpt lat="46.40094" lon="-0.24344">
        <ele>116.7</ele>
        <time>2020-05-31T08:13:31Z</time>
      </trkpt>
      <trkpt lat="46.40094" lon="-0.24344">
        <ele>116.7</ele>
        <time>2020-05-31T08:13:32Z</time>
      </trkpt>
      <trkpt lat="46.40094" lon="-0.24344">
        <ele>116.7</ele>
        <time>2020-05-31T08:13:33Z</time>
      </trkpt>
      <trkpt lat="46.40094" lon="-0.24344">
        <ele>116.7</ele>
        <time>2020-05-31T08:13:34Z</time>
      </trkpt>
      <trkpt lat="46.40094" lon="-0.24344">
        <ele>116.7</ele>
        <time>2020-05-31T08:13:35Z</time>
      </trkpt>
      <trkpt lat="46.40094" lon="-0.24344">
        <ele>116.7</ele>
        <time>2020-05-31T08:13:36Z</time>
      </trkpt>
      <trkpt lat="46.40094" lon="-0.24344">
        <ele>116.7</ele>
        <time>2020-05-31T08:13:37Z</time>
      </trkpt>
      <trkpt lat="46.40094" lon="-0.24344">
        <ele>116.7</ele>
        <time>2020-05-31T08:13:38Z</time>
      </trkpt>
      <trkpt lat="46.40094" lon="-0.24344">
        <ele>116.7</ele>
        <time>2020-05-31T08:13:39Z</time>
      </trkpt>
      <trkpt lat="46.40094" lon="-0.24344">
        <ele>116.7</ele>
        <time>2020-05-31T08:13:40Z</time>
      </trkpt>
      <trkpt lat="46.40094" lon="-0.24344">
        <ele>116.7</ele>
        <time>2020-05-31T08:13:41Z</time>
      </trkpt>
      <trkpt lat="46.40094" lon="-0.24344">
        <ele>116.7</ele>
        <time>2020-05-31T08:13:42Z</time>
      </trkpt>
      <trkpt lat="46.40094" lon="-0.24344">
        <ele>116.7</ele>
        <time>2020-05-31T08:13:43Z</time>
      </trkpt>
      <trkpt lat="46.40094" lon="-0.24344">
        <ele>116.7</ele>
        <time>2020-05-31T08:13:44Z</time>
      </trkpt>
      <trkpt lat="46.40094" lon="-0.24344">
        <ele>116.7</ele>
        <time>2020-05-31T08:13:45Z</time>
      </trkpt>
      <trkpt lat="46.40094" lon="-0.24344">
        <ele>116.7</ele>
        <time>2020-05-31T08:13:46Z</time>
      </trkpt>
      <trkpt lat="46.40094" lon="-0.24344">
        <ele>116.7</ele>
        <time>2020-05-31T08:13:47Z</time>
      </trkpt>
      <trkpt lat="46.40094" lon="-0.24344">
        <ele>116.7</ele>
        <time>2020-05-31T08:13:48Z</time>
      </trkpt>
      <trkpt lat="46.40094" lon="-0.24344">
        <ele>116.7</ele>
        <time>2020-05-31T08:13:49Z</time>
      </trkpt>
      <trkpt lat="46.40094" lon="-0.24344">
        <ele>116.7</ele>
        <time>2020-05-31T08:13:50Z</time>
      </trkpt>
      <trkpt lat="46.40094" lon="-0.24344">
        <ele>116.7</ele>
        <time>2020-05-31T08:13:51Z</time>
      </trkpt>
      <trkpt lat="46.40094" lon="-0.24344">
        <ele>116.7</ele>
        <time>2020-05-31T08:13:52Z</time>
      </trkpt>
      <trkpt lat="46.40094" lon="-0.24344">
        <ele>116.7</ele>
        <time>2020-05-31T08:13:53Z</time>
      </trkpt>
      <trkpt lat="46.40094" lon="-0.24344">
        <ele>116.7</ele>
        <time>2020-05-31T08:13:54Z</time>
      </trkpt>
      <trkpt lat="46.40094" lon="-0.24344">
        <ele>116.7</ele>
        <time>2020-05-31T08:13:55Z</time>
      </trkpt>
      <trkpt lat="46.40094" lon="-0.24344">
        <ele>116.7</ele>
        <time>2020-05-31T08:13:56Z</time>
      </trkpt>
      <trkpt lat="46.40094" lon="-0.24344">
        <ele>116.7</ele>
        <time>2020-05-31T08:13:57Z</time>
      </trkpt>
      <trkpt lat="46.40094" lon="-0.24344">
        <ele>116.7</ele>
        <time>2020-05-31T08:13:58Z</time>
      </trkpt>
      <trkpt lat="46.40094" lon="-0.24345">
        <ele>116.7</ele>
        <time>2020-05-31T08:13:59Z</time>
      </trkpt>
      <trkpt lat="46.40094" lon="-0.24345">
        <ele>116.7</ele>
        <time>2020-05-31T08:14:00Z</time>
      </trkpt>
      <trkpt lat="46.40094" lon="-0.24345">
        <ele>116.7</ele>
        <time>2020-05-31T08:14:01Z</time>
      </trkpt>
      <trkpt lat="46.40094" lon="-0.24345">
        <ele>116.7</ele>
        <time>2020-05-31T08:14:02Z</time>
      </trkpt>
      <trkpt lat="46.40094" lon="-0.24345">
        <ele>116.7</ele>
        <time>2020-05-31T08:14:03Z</time>
      </trkpt>
      <trkpt lat="46.40094" lon="-0.24345">
        <ele>116.7</ele>
        <time>2020-05-31T08:14:04Z</time>
      </trkpt>
      <trkpt lat="46.40094" lon="-0.24345">
        <ele>116.7</ele>
        <time>2020-05-31T08:14:05Z</time>
      </trkpt>
      <trkpt lat="46.40094" lon="-0.24345">
        <ele>116.7</ele>
        <time>2020-05-31T08:14:06Z</time>
      </trkpt>
      <trkpt lat="46.40094" lon="-0.24345">
        <ele>116.7</ele>
        <time>2020-05-31T08:14:07Z</time>
      </trkpt>
      <trkpt lat="46.40094" lon="-0.24345">
        <ele>116.7</ele>
        <time>2020-05-31T08:14:08Z</time>
      </trkpt>
      <trkpt lat="46.40094" lon="-0.24345">
        <ele>116.7</ele>
        <time>2020-05-31T08:14:09Z</time>
      </trkpt>
      <trkpt lat="46.40094" lon="-0.24345">
        <ele>116.7</ele>
        <time>2020-05-31T08:14:10Z</time>
      </trkpt>
      <trkpt lat="46.40094" lon="-0.24345">
        <ele>116.7</ele>
        <time>2020-05-31T08:14:11Z</time>
      </trkpt>
      <trkpt lat="46.40094" lon="-0.24345">
        <ele>116.7</ele>
        <time>2020-05-31T08:14:12Z</time>
      </trkpt>
      <trkpt lat="46.40094" lon="-0.24345">
        <ele>116.7</ele>
        <time>2020-05-31T08:14:13Z</time>
      </trkpt>
      <trkpt lat="46.40094" lon="-0.24345">
        <ele>116.7</ele>
        <time>2020-05-31T08:14:14Z</time>
      </trkpt>
      <trkpt lat="46.40094" lon="-0.24345">
        <ele>116.7</ele>
        <time>2020-05-31T08:14:15Z</time>
      </trkpt>
      <trkpt lat="46.40094" lon="-0.24345">
        <ele>116.7</ele>
        <time>2020-05-31T08:14:16Z</time>
      </trkpt>
      <trkpt lat="46.40094" lon="-0.24345">
        <ele>116.7</ele>
        <time>2020-05-31T08:14:17Z</time>
      </trkpt>
      <trkpt lat="46.40094" lon="-0.24345">
        <ele>116.7</ele>
        <time>2020-05-31T08:14:18Z</time>
      </trkpt>
      <trkpt lat="46.40094" lon="-0.24345">
        <ele>116.7</ele>
        <time>2020-05-31T08:14:19Z</time>
      </trkpt>
      <trkpt lat="46.40094" lon="-0.24345">
        <ele>116.7</ele>
        <time>2020-05-31T08:14:20Z</time>
      </trkpt>
      <trkpt lat="46.40094" lon="-0.24345">
        <ele>116.7</ele>
        <time>2020-05-31T08:14:21Z</time>
      </trkpt>
      <trkpt lat="46.40094" lon="-0.24345">
        <ele>116.7</ele>
        <time>2020-05-31T08:14:22Z</time>
      </trkpt>
      <trkpt lat="46.40094" lon="-0.24345">
        <ele>116.7</ele>
        <time>2020-05-31T08:14:23Z</time>
      </trkpt>
      <trkpt lat="46.40094" lon="-0.24345">
        <ele>116.7</ele>
        <time>2020-05-31T08:14:24Z</time>
      </trkpt>
      <trkpt lat="46.40094" lon="-0.24345">
        <ele>116.7</ele>
        <time>2020-05-31T08:14:25Z</time>
      </trkpt>
      <trkpt lat="46.40094" lon="-0.24345">
        <ele>116.7</ele>
        <time>2020-05-31T08:14:26Z</time>
      </trkpt>
      <trkpt lat="46.40094" lon="-0.24345">
        <ele>116.7</ele>
        <time>2020-05-31T08:14:27Z</time>
      </trkpt>
      <trkpt lat="46.40094" lon="-0.24345">
        <ele>116.7</ele>
        <time>2020-05-31T08:14:28Z</time>
      </trkpt>
      <trkpt lat="46.40094" lon="-0.24345">
        <ele>116.7</ele>
        <time>2020-05-31T08:14:29Z</time>
      </trkpt>
      <trkpt lat="46.40094" lon="-0.24345">
        <ele>116.7</ele>
        <time>2020-05-31T08:14:30Z</time>
      </trkpt>
      <trkpt lat="46.40094" lon="-0.24345">
        <ele>116.7</ele>
        <time>2020-05-31T08:14:31Z</time>
      </trkpt>
      <trkpt lat="46.40094" lon="-0.24345">
        <ele>116.7</ele>
        <time>2020-05-31T08:14:32Z</time>
      </trkpt>
      <trkpt lat="46.40094" lon="-0.24345">
        <ele>116.7</ele>
        <time>2020-05-31T08:14:33Z</time>
      </trkpt>
      <trkpt lat="46.40094" lon="-0.24345">
        <ele>116.7</ele>
        <time>2020-05-31T08:14:34Z</time>
      </trkpt>
      <trkpt lat="46.40094" lon="-0.24345">
        <ele>116.7</ele>
        <time>2020-05-31T08:14:35Z</time>
      </trkpt>
      <trkpt lat="46.40094" lon="-0.24345">
        <ele>116.7</ele>
        <time>2020-05-31T08:14:36Z</time>
      </trkpt>
      <trkpt lat="46.40094" lon="-0.24345">
        <ele>116.7</ele>
        <time>2020-05-31T08:14:37Z</time>
      </trkpt>
      <trkpt lat="46.40094" lon="-0.24346">
        <ele>116.7</ele>
        <time>2020-05-31T08:14:38Z</time>
      </trkpt>
      <trkpt lat="46.40094" lon="-0.24346">
        <ele>116.7</ele>
        <time>2020-05-31T08:14:39Z</time>
      </trkpt>
      <trkpt lat="46.40094" lon="-0.24346">
        <ele>116.7</ele>
        <time>2020-05-31T08:14:40Z</time>
      </trkpt>
      <trkpt lat="46.40094" lon="-0.24346">
        <ele>116.7</ele>
        <time>2020-05-31T08:14:41Z</time>
      </trkpt>
      <trkpt lat="46.40094" lon="-0.24346">
        <ele>116.7</ele>
        <time>2020-05-31T08:14:42Z</time>
      </trkpt>
      <trkpt lat="46.40094" lon="-0.24346">
        <ele>116.7</ele>
        <time>2020-05-31T08:14:43Z</time>
      </trkpt>
      <trkpt lat="46.40094" lon="-0.24346">
        <ele>116.7</ele>
        <time>2020-05-31T08:14:44Z</time>
      </trkpt>
      <trkpt lat="46.40094" lon="-0.24346">
        <ele>116.7</ele>
        <time>2020-05-31T08:14:45Z</time>
      </trkpt>
      <trkpt lat="46.40094" lon="-0.24346">
        <ele>116.7</ele>
        <time>2020-05-31T08:14:46Z</time>
      </trkpt>
      <trkpt lat="46.40094" lon="-0.24346">
        <ele>116.7</ele>
        <time>2020-05-31T08:14:47Z</time>
      </trkpt>
      <trkpt lat="46.40094" lon="-0.24346">
        <ele>116.7</ele>
        <time>2020-05-31T08:14:48Z</time>
      </trkpt>
      <trkpt lat="46.40094" lon="-0.24346">
        <ele>116.7</ele>
        <time>2020-05-31T08:14:49Z</time>
      </trkpt>
      <trkpt lat="46.40094" lon="-0.24346">
        <ele>116.7</ele>
        <time>2020-05-31T08:14:50Z</time>
      </trkpt>
      <trkpt lat="46.40094" lon="-0.24346">
        <ele>116.7</ele>
        <time>2020-05-31T08:14:51Z</time>
      </trkpt>
      <trkpt lat="46.40094" lon="-0.24346">
        <ele>116.7</ele>
        <time>2020-05-31T08:14:52Z</time>
      </trkpt>
      <trkpt lat="46.40094" lon="-0.24346">
        <ele>116.7</ele>
        <time>2020-05-31T08:14:53Z</time>
      </trkpt>
      <trkpt lat="46.40094" lon="-0.24346">
        <ele>116.7</ele>
        <time>2020-05-31T08:14:54Z</time>
      </trkpt>
      <trkpt lat="46.40094" lon="-0.24346">
        <ele>116.7</ele>
        <time>2020-05-31T08:14:55Z</time>
      </trkpt>
      <trkpt lat="46.40094" lon="-0.24346">
        <ele>116.7</ele>
        <time>2020-05-31T08:14:56Z</time>
      </trkpt>
      <trkpt lat="46.40094" lon="-0.24346">
        <ele>116.7</ele>
        <time>2020-05-31T08:14:57Z</time>
      </trkpt>
      <trkpt lat="46.40094" lon="-0.24346">
        <ele>116.7</ele>
        <time>2020-05-31T08:14:58Z</time>
      </trkpt>
      <trkpt lat="46.40094" lon="-0.24346">
        <ele>116.7</ele>
        <time>2020-05-31T08:14:59Z</time>
      </trkpt>
      <trkpt lat="46.40094" lon="-0.24346">
        <ele>116.7</ele>
        <time>2020-05-31T08:15:00Z</time>
      </trkpt>
      <trkpt lat="46.40094" lon="-0.24346">
        <ele>116.8</ele>
        <time>2020-05-31T08:15:01Z</time>
      </trkpt>
      <trkpt lat="46.40094" lon="-0.24346">
        <ele>116.8</ele>
        <time>2020-05-31T08:15:02Z</time>
      </trkpt>
      <trkpt lat="46.40094" lon="-0.24346">
        <ele>116.8</ele>
        <time>2020-05-31T08:15:03Z</time>
      </trkpt>
      <trkpt lat="46.40094" lon="-0.24346">
        <ele>116.8</ele>
        <time>2020-05-31T08:15:04Z</time>
      </trkpt>
      <trkpt lat="46.40094" lon="-0.24346">
        <ele>116.8</ele>
        <time>2020-05-31T08:15:05Z</time>
      </trkpt>
      <trkpt lat="46.40094" lon="-0.24346">
        <ele>116.8</ele>
        <time>2020-05-31T08:15:06Z</time>
      </trkpt>
      <trkpt lat="46.40094" lon="-0.24346">
        <ele>116.8</ele>
        <time>2020-05-31T08:15:07Z</time>
      </trkpt>
      <trkpt lat="46.40094" lon="-0.24346">
        <ele>116.8</ele>
        <time>2020-05-31T08:15:08Z</time>
      </trkpt>
      <trkpt lat="46.40094" lon="-0.24346">
        <ele>116.8</ele>
        <time>2020-05-31T08:15:09Z</time>
      </trkpt>
      <trkpt lat="46.40094" lon="-0.24346">
        <ele>116.8</ele>
        <time>2020-05-31T08:15:10Z</time>
      </trkpt>
      <trkpt lat="46.40094" lon="-0.24346">
        <ele>116.8</ele>
        <time>2020-05-31T08:15:11Z</time>
      </trkpt>
      <trkpt lat="46.40094" lon="-0.24346">
        <ele>116.8</ele>
        <time>2020-05-31T08:15:12Z</time>
      </trkpt>
      <trkpt lat="46.40094" lon="-0.24346">
        <ele>116.8</ele>
        <time>2020-05-31T08:15:13Z</time>
      </trkpt>
      <trkpt lat="46.40094" lon="-0.24346">
        <ele>116.8</ele>
        <time>2020-05-31T08:15:14Z</time>
      </trkpt>
      <trkpt lat="46.40094" lon="-0.24346">
        <ele>116.8</ele>
        <time>2020-05-31T08:15:15Z</time>
      </trkpt>
      <trkpt lat="46.40094" lon="-0.24346">
        <ele>116.8</ele>
        <time>2020-05-31T08:15:16Z</time>
      </trkpt>
      <trkpt lat="46.40094" lon="-0.24346">
        <ele>116.8</ele>
        <time>2020-05-31T08:15:17Z</time>
      </trkpt>
      <trkpt lat="46.40094" lon="-0.24347">
        <ele>116.8</ele>
        <time>2020-05-31T08:15:18Z</time>
      </trkpt>
      <trkpt lat="46.40094" lon="-0.24347">
        <ele>116.8</ele>
        <time>2020-05-31T08:15:19Z</time>
      </trkpt>
      <trkpt lat="46.40094" lon="-0.24347">
        <ele>116.8</ele>
        <time>2020-05-31T08:15:20Z</time>
      </trkpt>
      <trkpt lat="46.40094" lon="-0.24347">
        <ele>116.8</ele>
        <time>2020-05-31T08:15:21Z</time>
      </trkpt>
      <trkpt lat="46.40094" lon="-0.24347">
        <ele>116.9</ele>
        <time>2020-05-31T08:15:22Z</time>
      </trkpt>
      <trkpt lat="46.40094" lon="-0.24347">
        <ele>116.9</ele>
        <time>2020-05-31T08:15:23Z</time>
      </trkpt>
      <trkpt lat="46.40094" lon="-0.24347">
        <ele>116.9</ele>
        <time>2020-05-31T08:15:24Z</time>
      </trkpt>
      <trkpt lat="46.40094" lon="-0.24347">
        <ele>116.9</ele>
        <time>2020-05-31T08:15:25Z</time>
      </trkpt>
      <trkpt lat="46.40094" lon="-0.24347">
        <ele>116.9</ele>
        <time>2020-05-31T08:15:26Z</time>
      </trkpt>
      <trkpt lat="46.40094" lon="-0.24347">
        <ele>116.9</ele>
        <time>2020-05-31T08:15:27Z</time>
      </trkpt>
      <trkpt lat="46.40094" lon="-0.24347">
        <ele>116.9</ele>
        <time>2020-05-31T08:15:28Z</time>
      </trkpt>
      <trkpt lat="46.40094" lon="-0.24347">
        <ele>116.9</ele>
        <time>2020-05-31T08:15:29Z</time>
      </trkpt>
      <trkpt lat="46.40094" lon="-0.24347">
        <ele>116.9</ele>
        <time>2020-05-31T08:15:30Z</time>
      </trkpt>
      <trkpt lat="46.40094" lon="-0.24347">
        <ele>116.9</ele>
        <time>2020-05-31T08:15:31Z</time>
      </trkpt>
      <trkpt lat="46.40094" lon="-0.24347">
        <ele>116.9</ele>
        <time>2020-05-31T08:15:32Z</time>
      </trkpt>
      <trkpt lat="46.40094" lon="-0.24347">
        <ele>116.9</ele>
        <time>2020-05-31T08:15:33Z</time>
      </trkpt>
      <trkpt lat="46.40094" lon="-0.24347">
        <ele>116.9</ele>
        <time>2020-05-31T08:15:34Z</time>
      </trkpt>
      <trkpt lat="46.40094" lon="-0.24347">
        <ele>116.9</ele>
        <time>2020-05-31T08:15:35Z</time>
      </trkpt>
      <trkpt lat="46.40094" lon="-0.24347">
        <ele>116.9</ele>
        <time>2020-05-31T08:15:36Z</time>
      </trkpt>
      <trkpt lat="46.40094" lon="-0.24347">
        <ele>116.9</ele>
        <time>2020-05-31T08:15:37Z</time>
      </trkpt>
      <trkpt lat="46.40094" lon="-0.24347">
        <ele>116.9</ele>
        <time>2020-05-31T08:15:38Z</time>
      </trkpt>
      <trkpt lat="46.40094" lon="-0.24347">
        <ele>116.9</ele>
        <time>2020-05-31T08:15:39Z</time>
      </trkpt>
      <trkpt lat="46.40094" lon="-0.24347">
        <ele>116.9</ele>
        <time>2020-05-31T08:15:40Z</time>
      </trkpt>
      <trkpt lat="46.40094" lon="-0.24347">
        <ele>116.9</ele>
        <time>2020-05-31T08:15:41Z</time>
      </trkpt>
      <trkpt lat="46.40094" lon="-0.24347">
        <ele>117</ele>
        <time>2020-05-31T08:15:42Z</time>
      </trkpt>
      <trkpt lat="46.40094" lon="-0.24347">
        <ele>117</ele>
        <time>2020-05-31T08:15:43Z</time>
      </trkpt>
      <trkpt lat="46.40094" lon="-0.24347">
        <ele>117</ele>
        <time>2020-05-31T08:15:44Z</time>
      </trkpt>
      <trkpt lat="46.40094" lon="-0.24347">
        <ele>117</ele>
        <time>2020-05-31T08:15:45Z</time>
      </trkpt>
      <trkpt lat="46.40094" lon="-0.24347">
        <ele>117</ele>
        <time>2020-05-31T08:15:46Z</time>
      </trkpt>
      <trkpt lat="46.40094" lon="-0.24347">
        <ele>117</ele>
        <time>2020-05-31T08:15:47Z</time>
      </trkpt>
      <trkpt lat="46.40094" lon="-0.24347">
        <ele>117</ele>
        <time>2020-05-31T08:15:48Z</time>
      </trkpt>
      <trkpt lat="46.40094" lon="-0.24347">
        <ele>117</ele>
        <time>2020-05-31T08:15:49Z</time>
      </trkpt>
      <trkpt lat="46.40094" lon="-0.24347">
        <ele>117</ele>
        <time>2020-05-31T08:15:50Z</time>
      </trkpt>
      <trkpt lat="46.40094" lon="-0.24347">
        <ele>117</ele>
        <time>2020-05-31T08:15:51Z</time>
      </trkpt>
      <trkpt lat="46.40094" lon="-0.24347">
        <ele>117</ele>
        <time>2020-05-31T08:15:52Z</time>
      </trkpt>
      <trkpt lat="46.40094" lon="-0.24347">
        <ele>117</ele>
        <time>2020-05-31T08:15:53Z</time>
      </trkpt>
      <trkpt lat="46.40094" lon="-0.24347">
        <ele>117</ele>
        <time>2020-05-31T08:15:54Z</time>
      </trkpt>
      <trkpt lat="46.40094" lon="-0.24347">
        <ele>117</ele>
        <time>2020-05-31T08:15:55Z</time>
      </trkpt>
      <trkpt lat="46.40094" lon="-0.24347">
        <ele>117</ele>
        <time>2020-05-31T08:15:56Z</time>
      </trkpt>
      <trkpt lat="46.40094" lon="-0.24347">
        <ele>117</ele>
        <time>2020-05-31T08:15:57Z</time>
      </trkpt>
      <trkpt lat="46.40094" lon="-0.24348">
        <ele>117</ele>
        <time>2020-05-31T08:15:58Z</time>
      </trkpt>
      <trkpt lat="46.40094" lon="-0.24348">
        <ele>117</ele>
        <time>2020-05-31T08:15:59Z</time>
      </trkpt>
      <trkpt lat="46.40094" lon="-0.24348">
        <ele>117</ele>
        <time>2020-05-31T08:16:00Z</time>
      </trkpt>
      <trkpt lat="46.40094" lon="-0.24348">
        <ele>117</ele>
        <time>2020-05-31T08:16:01Z</time>
      </trkpt>
      <trkpt lat="46.40094" lon="-0.24348">
        <ele>117.1</ele>
        <time>2020-05-31T08:16:02Z</time>
      </trkpt>
      <trkpt lat="46.40094" lon="-0.24348">
        <ele>117.1</ele>
        <time>2020-05-31T08:16:03Z</time>
      </trkpt>
      <trkpt lat="46.40094" lon="-0.24348">
        <ele>117.1</ele>
        <time>2020-05-31T08:16:04Z</time>
      </trkpt>
      <trkpt lat="46.40094" lon="-0.24348">
        <ele>117.1</ele>
        <time>2020-05-31T08:16:05Z</time>
      </trkpt>
      <trkpt lat="46.40094" lon="-0.24348">
        <ele>117.1</ele>
        <time>2020-05-31T08:16:06Z</time>
      </trkpt>
      <trkpt lat="46.40094" lon="-0.24348">
        <ele>117.1</ele>
        <time>2020-05-31T08:16:07Z</time>
      </trkpt>
      <trkpt lat="46.40094" lon="-0.24348">
        <ele>117.1</ele>
        <time>2020-05-31T08:16:08Z</time>
      </trkpt>
      <trkpt lat="46.40094" lon="-0.24348">
        <ele>117.1</ele>
        <time>2020-05-31T08:16:09Z</time>
      </trkpt>
      <trkpt lat="46.40094" lon="-0.24348">
        <ele>117.1</ele>
        <time>2020-05-31T08:16:10Z</time>
      </trkpt>
      <trkpt lat="46.40094" lon="-0.24348">
        <ele>117.1</ele>
        <time>2020-05-31T08:16:11Z</time>
      </trkpt>
      <trkpt lat="46.40094" lon="-0.24348">
        <ele>117.1</ele>
        <time>2020-05-31T08:16:12Z</time>
      </trkpt>
      <trkpt lat="46.40094" lon="-0.24348">
        <ele>117.1</ele>
        <time>2020-05-31T08:16:13Z</time>
      </trkpt>
      <trkpt lat="46.40094" lon="-0.24348">
        <ele>117.1</ele>
        <time>2020-05-31T08:16:14Z</time>
      </trkpt>
      <trkpt lat="46.40094" lon="-0.24348">
        <ele>117.1</ele>
        <time>2020-05-31T08:16:15Z</time>
      </trkpt>
      <trkpt lat="46.40094" lon="-0.24348">
        <ele>117.1</ele>
        <time>2020-05-31T08:16:16Z</time>
      </trkpt>
      <trkpt lat="46.40094" lon="-0.24348">
        <ele>117.1</ele>
        <time>2020-05-31T08:16:17Z</time>
      </trkpt>
      <trkpt lat="46.40094" lon="-0.24348">
        <ele>117.1</ele>
        <time>2020-05-31T08:16:18Z</time>
      </trkpt>
      <trkpt lat="46.40094" lon="-0.24348">
        <ele>117.1</ele>
        <time>2020-05-31T08:16:19Z</time>
      </trkpt>
      <trkpt lat="46.40094" lon="-0.24348">
        <ele>117.1</ele>
        <time>2020-05-31T08:16:20Z</time>
      </trkpt>
      <trkpt lat="46.40094" lon="-0.24348">
        <ele>117.1</ele>
        <time>2020-05-31T08:16:21Z</time>
      </trkpt>
      <trkpt lat="46.40094" lon="-0.24348">
        <ele>117.1</ele>
        <time>2020-05-31T08:16:22Z</time>
      </trkpt>
      <trkpt lat="46.40094" lon="-0.24348">
        <ele>117.1</ele>
        <time>2020-05-31T08:16:23Z</time>
      </trkpt>
      <trkpt lat="46.40094" lon="-0.24348">
        <ele>117.2</ele>
        <time>2020-05-31T08:16:24Z</time>
      </trkpt>
      <trkpt lat="46.40094" lon="-0.24348">
        <ele>117.2</ele>
        <time>2020-05-31T08:16:25Z</time>
      </trkpt>
      <trkpt lat="46.40094" lon="-0.24348">
        <ele>117.2</ele>
        <time>2020-05-31T08:16:26Z</time>
      </trkpt>
      <trkpt lat="46.40094" lon="-0.24348">
        <ele>117.2</ele>
        <time>2020-05-31T08:16:27Z</time>
      </trkpt>
      <trkpt lat="46.40094" lon="-0.24348">
        <ele>117.2</ele>
        <time>2020-05-31T08:16:28Z</time>
      </trkpt>
      <trkpt lat="46.40094" lon="-0.24348">
        <ele>117.2</ele>
        <time>2020-05-31T08:16:29Z</time>
      </trkpt>
      <trkpt lat="46.40094" lon="-0.24348">
        <ele>117.2</ele>
        <time>2020-05-31T08:16:30Z</time>
      </trkpt>
      <trkpt lat="46.40093" lon="-0.24348">
        <ele>117.2</ele>
        <time>2020-05-31T08:16:31Z</time>
      </trkpt>
      <trkpt lat="46.40093" lon="-0.24348">
        <ele>117.2</ele>
        <time>2020-05-31T08:16:32Z</time>
      </trkpt>
      <trkpt lat="46.40093" lon="-0.24348">
        <ele>117.2</ele>
        <time>2020-05-31T08:16:33Z</time>
      </trkpt>
      <trkpt lat="46.40093" lon="-0.24348">
        <ele>117.2</ele>
        <time>2020-05-31T08:16:34Z</time>
      </trkpt>
      <trkpt lat="46.40093" lon="-0.24348">
        <ele>117.2</ele>
        <time>2020-05-31T08:16:35Z</time>
      </trkpt>
      <trkpt lat="46.40093" lon="-0.24348">
        <ele>117.2</ele>
        <time>2020-05-31T08:16:36Z</time>
      </trkpt>
      <trkpt lat="46.40093" lon="-0.24349">
        <ele>117.2</ele>
        <time>2020-05-31T08:16:37Z</time>
      </trkpt>
      <trkpt lat="46.40093" lon="-0.24349">
        <ele>117.2</ele>
        <time>2020-05-31T08:16:38Z</time>
      </trkpt>
      <trkpt lat="46.40093" lon="-0.24349">
        <ele>117.2</ele>
        <time>2020-05-31T08:16:39Z</time>
      </trkpt>
      <trkpt lat="46.40093" lon="-0.24349">
        <ele>117.2</ele>
        <time>2020-05-31T08:16:40Z</time>
      </trkpt>
      <trkpt lat="46.40093" lon="-0.24349">
        <ele>117.2</ele>
        <time>2020-05-31T08:16:41Z</time>
      </trkpt>
      <trkpt lat="46.40093" lon="-0.24349">
        <ele>117.2</ele>
        <time>2020-05-31T08:16:42Z</time>
      </trkpt>
      <trkpt lat="46.40093" lon="-0.24349">
        <ele>117.2</ele>
        <time>2020-05-31T08:16:43Z</time>
      </trkpt>
      <trkpt lat="46.40093" lon="-0.24349">
        <ele>117.2</ele>
        <time>2020-05-31T08:16:44Z</time>
      </trkpt>
      <trkpt lat="46.40093" lon="-0.24349">
        <ele>117.2</ele>
        <time>2020-05-31T08:16:45Z</time>
      </trkpt>
      <trkpt lat="46.40093" lon="-0.24349">
        <ele>117.2</ele>
        <time>2020-05-31T08:16:46Z</time>
      </trkpt>
      <trkpt lat="46.40093" lon="-0.24349">
        <ele>117.2</ele>
        <time>2020-05-31T08:16:47Z</time>
      </trkpt>
      <trkpt lat="46.40093" lon="-0.24349">
        <ele>117.2</ele>
        <time>2020-05-31T08:16:48Z</time>
      </trkpt>
      <trkpt lat="46.40093" lon="-0.24349">
        <ele>117.2</ele>
        <time>2020-05-31T08:16:49Z</time>
      </trkpt>
      <trkpt lat="46.40093" lon="-0.24349">
        <ele>117.2</ele>
        <time>2020-05-31T08:16:50Z</time>
      </trkpt>
      <trkpt lat="46.40093" lon="-0.24349">
        <ele>117.2</ele>
        <time>2020-05-31T08:16:51Z</time>
      </trkpt>
      <trkpt lat="46.40093" lon="-0.24349">
        <ele>117.2</ele>
        <time>2020-05-31T08:16:52Z</time>
      </trkpt>
      <trkpt lat="46.40093" lon="-0.24349">
        <ele>117.2</ele>
        <time>2020-05-31T08:16:53Z</time>
      </trkpt>
      <trkpt lat="46.40093" lon="-0.24349">
        <ele>117.2</ele>
        <time>2020-05-31T08:16:54Z</time>
      </trkpt>
      <trkpt lat="46.40093" lon="-0.24349">
        <ele>117.2</ele>
        <time>2020-05-31T08:16:55Z</time>
      </trkpt>
      <trkpt lat="46.40093" lon="-0.24349">
        <ele>117.2</ele>
        <time>2020-05-31T08:16:56Z</time>
      </trkpt>
      <trkpt lat="46.40093" lon="-0.24349">
        <ele>117.2</ele>
        <time>2020-05-31T08:16:57Z</time>
      </trkpt>
      <trkpt lat="46.40093" lon="-0.24349">
        <ele>117.2</ele>
        <time>2020-05-31T08:16:58Z</time>
      </trkpt>
      <trkpt lat="46.40093" lon="-0.24349">
        <ele>117.2</ele>
        <time>2020-05-31T08:16:59Z</time>
      </trkpt>
      <trkpt lat="46.40093" lon="-0.24349">
        <ele>117.2</ele>
        <time>2020-05-31T08:17:00Z</time>
      </trkpt>
      <trkpt lat="46.40093" lon="-0.24349">
        <ele>117.2</ele>
        <time>2020-05-31T08:17:01Z</time>
      </trkpt>
      <trkpt lat="46.40093" lon="-0.24349">
        <ele>117.2</ele>
        <time>2020-05-31T08:17:02Z</time>
      </trkpt>
      <trkpt lat="46.40093" lon="-0.24349">
        <ele>117.2</ele>
        <time>2020-05-31T08:17:03Z</time>
      </trkpt>
      <trkpt lat="46.40093" lon="-0.24349">
        <ele>117.2</ele>
        <time>2020-05-31T08:17:04Z</time>
      </trkpt>
      <trkpt lat="46.40093" lon="-0.24349">
        <ele>117.2</ele>
        <time>2020-05-31T08:17:05Z</time>
      </trkpt>
      <trkpt lat="46.40093" lon="-0.24349">
        <ele>117.2</ele>
        <time>2020-05-31T08:17:06Z</time>
      </trkpt>
      <trkpt lat="46.40093" lon="-0.24349">
        <ele>117.2</ele>
        <time>2020-05-31T08:17:07Z</time>
      </trkpt>
      <trkpt lat="46.40093" lon="-0.24349">
        <ele>117.2</ele>
        <time>2020-05-31T08:17:08Z</time>
      </trkpt>
      <trkpt lat="46.40093" lon="-0.24349">
        <ele>117.2</ele>
        <time>2020-05-31T08:17:09Z</time>
      </trkpt>
      <trkpt lat="46.40093" lon="-0.24349">
        <ele>117.2</ele>
        <time>2020-05-31T08:17:10Z</time>
      </trkpt>
      <trkpt lat="46.40093" lon="-0.24349">
        <ele>117.2</ele>
        <time>2020-05-31T08:17:11Z</time>
      </trkpt>
      <trkpt lat="46.40093" lon="-0.24349">
        <ele>117.2</ele>
        <time>2020-05-31T08:17:12Z</time>
      </trkpt>
      <trkpt lat="46.40093" lon="-0.24349">
        <ele>117.2</ele>
        <time>2020-05-31T08:17:13Z</time>
      </trkpt>
      <trkpt lat="46.40093" lon="-0.24349">
        <ele>117.2</ele>
        <time>2020-05-31T08:17:14Z</time>
      </trkpt>
      <trkpt lat="46.40093" lon="-0.24349">
        <ele>117.2</ele>
        <time>2020-05-31T08:17:15Z</time>
      </trkpt>
      <trkpt lat="46.40093" lon="-0.24349">
        <ele>117.2</ele>
        <time>2020-05-31T08:17:16Z</time>
      </trkpt>
      <trkpt lat="46.40093" lon="-0.2435">
        <ele>117.2</ele>
        <time>2020-05-31T08:17:17Z</time>
      </trkpt>
      <trkpt lat="46.40093" lon="-0.2435">
        <ele>117.2</ele>
        <time>2020-05-31T08:17:18Z</time>
      </trkpt>
      <trkpt lat="46.40093" lon="-0.2435">
        <ele>117.2</ele>
        <time>2020-05-31T08:17:19Z</time>
      </trkpt>
      <trkpt lat="46.40093" lon="-0.2435">
        <ele>117.2</ele>
        <time>2020-05-31T08:17:20Z</time>
      </trkpt>
      <trkpt lat="46.40093" lon="-0.2435">
        <ele>117.2</ele>
        <time>2020-05-31T08:17:21Z</time>
      </trkpt>
      <trkpt lat="46.40093" lon="-0.2435">
        <ele>117.2</ele>
        <time>2020-05-31T08:17:22Z</time>
      </trkpt>
      <trkpt lat="46.40093" lon="-0.2435">
        <ele>117.2</ele>
        <time>2020-05-31T08:17:23Z</time>
      </trkpt>
      <trkpt lat="46.40093" lon="-0.2435">
        <ele>117.2</ele>
        <time>2020-05-31T08:17:24Z</time>
      </trkpt>
      <trkpt lat="46.40093" lon="-0.2435">
        <ele>117.2</ele>
        <time>2020-05-31T08:17:25Z</time>
      </trkpt>
      <trkpt lat="46.40093" lon="-0.2435">
        <ele>117.2</ele>
        <time>2020-05-31T08:17:26Z</time>
      </trkpt>
      <trkpt lat="46.40093" lon="-0.2435">
        <ele>117.2</ele>
        <time>2020-05-31T08:17:27Z</time>
      </trkpt>
      <trkpt lat="46.40093" lon="-0.2435">
        <ele>117.2</ele>
        <time>2020-05-31T08:17:28Z</time>
      </trkpt>
      <trkpt lat="46.40093" lon="-0.2435">
        <ele>117.2</ele>
        <time>2020-05-31T08:17:29Z</time>
      </trkpt>
      <trkpt lat="46.40093" lon="-0.2435">
        <ele>117.2</ele>
        <time>2020-05-31T08:17:30Z</time>
      </trkpt>
      <trkpt lat="46.40093" lon="-0.2435">
        <ele>117.2</ele>
        <time>2020-05-31T08:17:31Z</time>
      </trkpt>
      <trkpt lat="46.40093" lon="-0.2435">
        <ele>117.2</ele>
        <time>2020-05-31T08:17:32Z</time>
      </trkpt>
      <trkpt lat="46.40093" lon="-0.2435">
        <ele>117.2</ele>
        <time>2020-05-31T08:17:33Z</time>
      </trkpt>
      <trkpt lat="46.40093" lon="-0.2435">
        <ele>117.2</ele>
        <time>2020-05-31T08:17:34Z</time>
      </trkpt>
      <trkpt lat="46.40093" lon="-0.2435">
        <ele>117.2</ele>
        <time>2020-05-31T08:17:35Z</time>
      </trkpt>
      <trkpt lat="46.40093" lon="-0.2435">
        <ele>117.2</ele>
        <time>2020-05-31T08:17:36Z</time>
      </trkpt>
      <trkpt lat="46.40093" lon="-0.2435">
        <ele>117.2</ele>
        <time>2020-05-31T08:17:37Z</time>
      </trkpt>
      <trkpt lat="46.40093" lon="-0.2435">
        <ele>117.2</ele>
        <time>2020-05-31T08:17:38Z</time>
      </trkpt>
      <trkpt lat="46.40093" lon="-0.2435">
        <ele>117.2</ele>
        <time>2020-05-31T08:17:39Z</time>
      </trkpt>
      <trkpt lat="46.40093" lon="-0.2435">
        <ele>117.2</ele>
        <time>2020-05-31T08:17:40Z</time>
      </trkpt>
      <trkpt lat="46.40093" lon="-0.2435">
        <ele>117.2</ele>
        <time>2020-05-31T08:17:41Z</time>
      </trkpt>
      <trkpt lat="46.40093" lon="-0.2435">
        <ele>117.2</ele>
        <time>2020-05-31T08:17:42Z</time>
      </trkpt>
      <trkpt lat="46.40093" lon="-0.2435">
        <ele>117.2</ele>
        <time>2020-05-31T08:17:43Z</time>
      </trkpt>
      <trkpt lat="46.40093" lon="-0.2435">
        <ele>117.2</ele>
        <time>2020-05-31T08:17:44Z</time>
      </trkpt>
      <trkpt lat="46.40093" lon="-0.2435">
        <ele>117.2</ele>
        <time>2020-05-31T08:17:45Z</time>
      </trkpt>
      <trkpt lat="46.40093" lon="-0.2435">
        <ele>117.2</ele>
        <time>2020-05-31T08:17:46Z</time>
      </trkpt>
      <trkpt lat="46.40093" lon="-0.2435">
        <ele>117.2</ele>
        <time>2020-05-31T08:17:47Z</time>
      </trkpt>
      <trkpt lat="46.40093" lon="-0.2435">
        <ele>117.2</ele>
        <time>2020-05-31T08:17:48Z</time>
      </trkpt>
      <trkpt lat="46.40093" lon="-0.2435">
        <ele>117.2</ele>
        <time>2020-05-31T08:17:49Z</time>
      </trkpt>
      <trkpt lat="46.40093" lon="-0.2435">
        <ele>117.2</ele>
        <time>2020-05-31T08:17:50Z</time>
      </trkpt>
      <trkpt lat="46.40093" lon="-0.2435">
        <ele>117.2</ele>
        <time>2020-05-31T08:17:51Z</time>
      </trkpt>
      <trkpt lat="46.40093" lon="-0.2435">
        <ele>117.2</ele>
        <time>2020-05-31T08:17:52Z</time>
      </trkpt>
      <trkpt lat="46.40093" lon="-0.2435">
        <ele>117.2</ele>
        <time>2020-05-31T08:17:53Z</time>
      </trkpt>
      <trkpt lat="46.40093" lon="-0.2435">
        <ele>117.2</ele>
        <time>2020-05-31T08:17:54Z</time>
      </trkpt>
      <trkpt lat="46.40093" lon="-0.2435">
        <ele>117.2</ele>
        <time>2020-05-31T08:17:55Z</time>
      </trkpt>
      <trkpt lat="46.40093" lon="-0.2435">
        <ele>117.2</ele>
        <time>2020-05-31T08:17:56Z</time>
      </trkpt>
      <trkpt lat="46.40093" lon="-0.24351">
        <ele>117.2</ele>
        <time>2020-05-31T08:17:57Z</time>
      </trkpt>
      <trkpt lat="46.40093" lon="-0.24351">
        <ele>117.2</ele>
        <time>2020-05-31T08:17:58Z</time>
      </trkpt>
      <trkpt lat="46.40093" lon="-0.24351">
        <ele>117.2</ele>
        <time>2020-05-31T08:17:59Z</time>
      </trkpt>
      <trkpt lat="46.40093" lon="-0.24351">
        <ele>117.2</ele>
        <time>2020-05-31T08:18:00Z</time>
      </trkpt>
      <trkpt lat="46.40093" lon="-0.24351">
        <ele>117.2</ele>
        <time>2020-05-31T08:18:01Z</time>
      </trkpt>
      <trkpt lat="46.40093" lon="-0.24351">
        <ele>117.2</ele>
        <time>2020-05-31T08:18:02Z</time>
      </trkpt>
      <trkpt lat="46.40093" lon="-0.24351">
        <ele>117.2</ele>
        <time>2020-05-31T08:18:03Z</time>
      </trkpt>
      <trkpt lat="46.40093" lon="-0.24351">
        <ele>117.2</ele>
        <time>2020-05-31T08:18:04Z</time>
      </trkpt>
      <trkpt lat="46.40093" lon="-0.24351">
        <ele>117.2</ele>
        <time>2020-05-31T08:18:05Z</time>
      </trkpt>
      <trkpt lat="46.40093" lon="-0.24351">
        <ele>117.2</ele>
        <time>2020-05-31T08:18:06Z</time>
      </trkpt>
      <trkpt lat="46.40093" lon="-0.24351">
        <ele>117.2</ele>
        <time>2020-05-31T08:18:07Z</time>
      </trkpt>
      <trkpt lat="46.40093" lon="-0.24351">
        <ele>117.2</ele>
        <time>2020-05-31T08:18:08Z</time>
      </trkpt>
      <trkpt lat="46.40093" lon="-0.24351">
        <ele>117.2</ele>
        <time>2020-05-31T08:18:09Z</time>
      </trkpt>
      <trkpt lat="46.40093" lon="-0.24351">
        <ele>117.2</ele>
        <time>2020-05-31T08:18:10Z</time>
      </trkpt>
      <trkpt lat="46.40093" lon="-0.24351">
        <ele>117.2</ele>
        <time>2020-05-31T08:18:11Z</time>
      </trkpt>
      <trkpt lat="46.40093" lon="-0.24351">
        <ele>117.2</ele>
        <time>2020-05-31T08:18:12Z</time>
      </trkpt>
      <trkpt lat="46.40093" lon="-0.24351">
        <ele>117.2</ele>
        <time>2020-05-31T08:18:13Z</time>
      </trkpt>
      <trkpt lat="46.40093" lon="-0.24351">
        <ele>117.2</ele>
        <time>2020-05-31T08:18:14Z</time>
      </trkpt>
      <trkpt lat="46.40093" lon="-0.24351">
        <ele>117.2</ele>
        <time>2020-05-31T08:18:15Z</time>
      </trkpt>
      <trkpt lat="46.40093" lon="-0.24351">
        <ele>117.2</ele>
        <time>2020-05-31T08:18:16Z</time>
      </trkpt>
      <trkpt lat="46.40093" lon="-0.24351">
        <ele>117.2</ele>
        <time>2020-05-31T08:18:17Z</time>
      </trkpt>
      <trkpt lat="46.40093" lon="-0.24351">
        <ele>117.2</ele>
        <time>2020-05-31T08:18:18Z</time>
      </trkpt>
      <trkpt lat="46.40093" lon="-0.24351">
        <ele>117.2</ele>
        <time>2020-05-31T08:18:19Z</time>
      </trkpt>
      <trkpt lat="46.40093" lon="-0.24351">
        <ele>117.2</ele>
        <time>2020-05-31T08:18:20Z</time>
      </trkpt>
      <trkpt lat="46.40093" lon="-0.24351">
        <ele>117.2</ele>
        <time>2020-05-31T08:18:21Z</time>
      </trkpt>
      <trkpt lat="46.40093" lon="-0.24351">
        <ele>117.2</ele>
        <time>2020-05-31T08:18:22Z</time>
      </trkpt>
      <trkpt lat="46.40093" lon="-0.24351">
        <ele>117.2</ele>
        <time>2020-05-31T08:18:23Z</time>
      </trkpt>
      <trkpt lat="46.40093" lon="-0.24351">
        <ele>117.2</ele>
        <time>2020-05-31T08:18:24Z</time>
      </trkpt>
      <trkpt lat="46.40093" lon="-0.24351">
        <ele>117.2</ele>
        <time>2020-05-31T08:18:25Z</time>
      </trkpt>
      <trkpt lat="46.40093" lon="-0.24351">
        <ele>117.2</ele>
        <time>2020-05-31T08:18:26Z</time>
      </trkpt>
      <trkpt lat="46.40093" lon="-0.24351">
        <ele>117.2</ele>
        <time>2020-05-31T08:18:27Z</time>
      </trkpt>
      <trkpt lat="46.40093" lon="-0.24351">
        <ele>117.2</ele>
        <time>2020-05-31T08:18:28Z</time>
      </trkpt>
      <trkpt lat="46.40093" lon="-0.24351">
        <ele>117.2</ele>
        <time>2020-05-31T08:18:29Z</time>
      </trkpt>
      <trkpt lat="46.40093" lon="-0.24351">
        <ele>117.2</ele>
        <time>2020-05-31T08:18:30Z</time>
      </trkpt>
      <trkpt lat="46.40093" lon="-0.24351">
        <ele>117.2</ele>
        <time>2020-05-31T08:18:31Z</time>
      </trkpt>
      <trkpt lat="46.40093" lon="-0.24351">
        <ele>117.2</ele>
        <time>2020-05-31T08:18:32Z</time>
      </trkpt>
      <trkpt lat="46.40093" lon="-0.24351">
        <ele>117.2</ele>
        <time>2020-05-31T08:18:33Z</time>
      </trkpt>
      <trkpt lat="46.40093" lon="-0.24351">
        <ele>117.2</ele>
        <time>2020-05-31T08:18:34Z</time>
      </trkpt>
      <trkpt lat="46.40093" lon="-0.24351">
        <ele>117.2</ele>
        <time>2020-05-31T08:18:35Z</time>
      </trkpt>
      <trkpt lat="46.40093" lon="-0.24352">
        <ele>117.2</ele>
        <time>2020-05-31T08:18:36Z</time>
      </trkpt>
      <trkpt lat="46.40093" lon="-0.24352">
        <ele>117.2</ele>
        <time>2020-05-31T08:18:37Z</time>
      </trkpt>
      <trkpt lat="46.40093" lon="-0.24352">
        <ele>117.2</ele>
        <time>2020-05-31T08:18:38Z</time>
      </trkpt>
      <trkpt lat="46.40093" lon="-0.24352">
        <ele>117.2</ele>
        <time>2020-05-31T08:18:39Z</time>
      </trkpt>
      <trkpt lat="46.40093" lon="-0.24352">
        <ele>117.2</ele>
        <time>2020-05-31T08:18:40Z</time>
      </trkpt>
      <trkpt lat="46.40093" lon="-0.24352">
        <ele>117.2</ele>
        <time>2020-05-31T08:18:41Z</time>
      </trkpt>
      <trkpt lat="46.40093" lon="-0.24352">
        <ele>117.2</ele>
        <time>2020-05-31T08:18:42Z</time>
      </trkpt>
      <trkpt lat="46.40093" lon="-0.24352">
        <ele>117.2</ele>
        <time>2020-05-31T08:18:43Z</time>
      </trkpt>
      <trkpt lat="46.40093" lon="-0.24352">
        <ele>117.2</ele>
        <time>2020-05-31T08:18:44Z</time>
      </trkpt>
      <trkpt lat="46.40093" lon="-0.24352">
        <ele>117.2</ele>
        <time>2020-05-31T08:18:45Z</time>
      </trkpt>
      <trkpt lat="46.40093" lon="-0.24352">
        <ele>117.2</ele>
        <time>2020-05-31T08:18:46Z</time>
      </trkpt>
      <trkpt lat="46.40093" lon="-0.24352">
        <ele>117.2</ele>
        <time>2020-05-31T08:18:47Z</time>
      </trkpt>
      <trkpt lat="46.40093" lon="-0.24352">
        <ele>117.2</ele>
        <time>2020-05-31T08:18:48Z</time>
      </trkpt>
      <trkpt lat="46.40093" lon="-0.24352">
        <ele>117.2</ele>
        <time>2020-05-31T08:18:49Z</time>
      </trkpt>
      <trkpt lat="46.40093" lon="-0.24352">
        <ele>117.2</ele>
        <time>2020-05-31T08:18:50Z</time>
      </trkpt>
      <trkpt lat="46.40093" lon="-0.24352">
        <ele>117.2</ele>
        <time>2020-05-31T08:18:51Z</time>
      </trkpt>
      <trkpt lat="46.40093" lon="-0.24352">
        <ele>117.2</ele>
        <time>2020-05-31T08:18:52Z</time>
      </trkpt>
      <trkpt lat="46.40093" lon="-0.24352">
        <ele>117.2</ele>
        <time>2020-05-31T08:18:53Z</time>
      </trkpt>
      <trkpt lat="46.40093" lon="-0.24352">
        <ele>117.2</ele>
        <time>2020-05-31T08:18:54Z</time>
      </trkpt>
      <trkpt lat="46.40093" lon="-0.24352">
        <ele>117.2</ele>
        <time>2020-05-31T08:18:55Z</time>
      </trkpt>
      <trkpt lat="46.40093" lon="-0.24352">
        <ele>117.2</ele>
        <time>2020-05-31T08:18:56Z</time>
      </trkpt>
      <trkpt lat="46.40093" lon="-0.24352">
        <ele>117.2</ele>
        <time>2020-05-31T08:18:57Z</time>
      </trkpt>
      <trkpt lat="46.40093" lon="-0.24352">
        <ele>117.2</ele>
        <time>2020-05-31T08:18:58Z</time>
      </trkpt>
      <trkpt lat="46.40093" lon="-0.24352">
        <ele>117.2</ele>
        <time>2020-05-31T08:18:59Z</time>
      </trkpt>
      <trkpt lat="46.40093" lon="-0.24352">
        <ele>117.2</ele>
        <time>2020-05-31T08:19:00Z</time>
      </trkpt>
      <trkpt lat="46.40093" lon="-0.24352">
        <ele>117.2</ele>
        <time>2020-05-31T08:19:01Z</time>
      </trkpt>
      <trkpt lat="46.40093" lon="-0.24352">
        <ele>117.2</ele>
        <time>2020-05-31T08:19:02Z</time>
      </trkpt>
      <trkpt lat="46.40093" lon="-0.24352">
        <ele>117.2</ele>
        <time>2020-05-31T08:19:03Z</time>
      </trkpt>
      <trkpt lat="46.40093" lon="-0.24352">
        <ele>117.2</ele>
        <time>2020-05-31T08:19:04Z</time>
      </trkpt>
      <trkpt lat="46.40093" lon="-0.24352">
        <ele>117.2</ele>
        <time>2020-05-31T08:19:05Z</time>
      </trkpt>
      <trkpt lat="46.40093" lon="-0.24352">
        <ele>117.2</ele>
        <time>2020-05-31T08:19:06Z</time>
      </trkpt>
      <trkpt lat="46.40093" lon="-0.24352">
        <ele>117.2</ele>
        <time>2020-05-31T08:19:07Z</time>
      </trkpt>
      <trkpt lat="46.40093" lon="-0.24352">
        <ele>117.2</ele>
        <time>2020-05-31T08:19:08Z</time>
      </trkpt>
      <trkpt lat="46.40093" lon="-0.24352">
        <ele>117.2</ele>
        <time>2020-05-31T08:19:09Z</time>
      </trkpt>
      <trkpt lat="46.40093" lon="-0.24352">
        <ele>117.2</ele>
        <time>2020-05-31T08:19:10Z</time>
      </trkpt>
      <trkpt lat="46.40093" lon="-0.24352">
        <ele>117.2</ele>
        <time>2020-05-31T08:19:11Z</time>
      </trkpt>
      <trkpt lat="46.40093" lon="-0.24352">
        <ele>117.2</ele>
        <time>2020-05-31T08:19:12Z</time>
      </trkpt>
      <trkpt lat="46.40093" lon="-0.24352">
        <ele>117.2</ele>
        <time>2020-05-31T08:19:13Z</time>
      </trkpt>
      <trkpt lat="46.40093" lon="-0.24352">
        <ele>117.2</ele>
        <time>2020-05-31T08:19:14Z</time>
      </trkpt>
      <trkpt lat="46.40093" lon="-0.24352">
        <ele>117.2</ele>
        <time>2020-05-31T08:19:15Z</time>
      </trkpt>
      <trkpt lat="46.40093" lon="-0.24353">
        <ele>117.2</ele>
        <time>2020-05-31T08:19:16Z</time>
      </trkpt>
      <trkpt lat="46.40093" lon="-0.24353">
        <ele>117.2</ele>
        <time>2020-05-31T08:19:17Z</time>
      </trkpt>
      <trkpt lat="46.40093" lon="-0.24353">
        <ele>117.2</ele>
        <time>2020-05-31T08:19:18Z</time>
      </trkpt>
      <trkpt lat="46.40093" lon="-0.24353">
        <ele>117.2</ele>
        <time>2020-05-31T08:19:19Z</time>
      </trkpt>
      <trkpt lat="46.40093" lon="-0.24353">
        <ele>117.2</ele>
        <time>2020-05-31T08:19:20Z</time>
      </trkpt>
      <trkpt lat="46.40093" lon="-0.24353">
        <ele>117.2</ele>
        <time>2020-05-31T08:19:21Z</time>
      </trkpt>
      <trkpt lat="46.40093" lon="-0.24353">
        <ele>117.2</ele>
        <time>2020-05-31T08:19:22Z</time>
      </trkpt>
      <trkpt lat="46.40093" lon="-0.24353">
        <ele>117.2</ele>
        <time>2020-05-31T08:19:23Z</time>
      </trkpt>
      <trkpt lat="46.40093" lon="-0.24353">
        <ele>117.2</ele>
        <time>2020-05-31T08:19:24Z</time>
      </trkpt>
      <trkpt lat="46.40093" lon="-0.24353">
        <ele>117.2</ele>
        <time>2020-05-31T08:19:25Z</time>
      </trkpt>
      <trkpt lat="46.40093" lon="-0.24353">
        <ele>117.2</ele>
        <time>2020-05-31T08:19:26Z</time>
      </trkpt>
      <trkpt lat="46.40093" lon="-0.24353">
        <ele>117.2</ele>
        <time>2020-05-31T08:19:27Z</time>
      </trkpt>
      <trkpt lat="46.40093" lon="-0.24353">
        <ele>117.2</ele>
        <time>2020-05-31T08:19:28Z</time>
      </trkpt>
      <trkpt lat="46.40093" lon="-0.24353">
        <ele>117.2</ele>
        <time>2020-05-31T08:19:29Z</time>
      </trkpt>
      <trkpt lat="46.40093" lon="-0.24353">
        <ele>117.2</ele>
        <time>2020-05-31T08:19:30Z</time>
      </trkpt>
      <trkpt lat="46.40093" lon="-0.24353">
        <ele>117.2</ele>
        <time>2020-05-31T08:19:31Z</time>
      </trkpt>
      <trkpt lat="46.40093" lon="-0.24353">
        <ele>117.2</ele>
        <time>2020-05-31T08:19:32Z</time>
      </trkpt>
      <trkpt lat="46.40093" lon="-0.24353">
        <ele>117.2</ele>
        <time>2020-05-31T08:19:33Z</time>
      </trkpt>
      <trkpt lat="46.40093" lon="-0.24353">
        <ele>117.2</ele>
        <time>2020-05-31T08:19:34Z</time>
      </trkpt>
      <trkpt lat="46.40093" lon="-0.24353">
        <ele>117.2</ele>
        <time>2020-05-31T08:19:35Z</time>
      </trkpt>
      <trkpt lat="46.40093" lon="-0.24353">
        <ele>117.2</ele>
        <time>2020-05-31T08:19:36Z</time>
      </trkpt>
      <trkpt lat="46.40093" lon="-0.24353">
        <ele>117.2</ele>
        <time>2020-05-31T08:19:37Z</time>
      </trkpt>
      <trkpt lat="46.40093" lon="-0.24353">
        <ele>117.2</ele>
        <time>2020-05-31T08:19:38Z</time>
      </trkpt>
      <trkpt lat="46.40093" lon="-0.24353">
        <ele>117.2</ele>
        <time>2020-05-31T08:19:39Z</time>
      </trkpt>
      <trkpt lat="46.40093" lon="-0.24353">
        <ele>117.2</ele>
        <time>2020-05-31T08:19:40Z</time>
      </trkpt>
      <trkpt lat="46.40093" lon="-0.24353">
        <ele>117.2</ele>
        <time>2020-05-31T08:19:41Z</time>
      </trkpt>
      <trkpt lat="46.40093" lon="-0.24353">
        <ele>117.2</ele>
        <time>2020-05-31T08:19:42Z</time>
      </trkpt>
      <trkpt lat="46.40093" lon="-0.24353">
        <ele>117.2</ele>
        <time>2020-05-31T08:19:43Z</time>
      </trkpt>
      <trkpt lat="46.40093" lon="-0.24353">
        <ele>117.2</ele>
        <time>2020-05-31T08:19:44Z</time>
      </trkpt>
      <trkpt lat="46.40093" lon="-0.24353">
        <ele>117.2</ele>
        <time>2020-05-31T08:19:45Z</time>
      </trkpt>
      <trkpt lat="46.40093" lon="-0.24353">
        <ele>117.2</ele>
        <time>2020-05-31T08:19:46Z</time>
      </trkpt>
      <trkpt lat="46.40093" lon="-0.24353">
        <ele>117.2</ele>
        <time>2020-05-31T08:19:47Z</time>
      </trkpt>
      <trkpt lat="46.40093" lon="-0.24353">
        <ele>117.2</ele>
        <time>2020-05-31T08:19:48Z</time>
      </trkpt>
      <trkpt lat="46.40093" lon="-0.24353">
        <ele>117.2</ele>
        <time>2020-05-31T08:19:49Z</time>
      </trkpt>
      <trkpt lat="46.40093" lon="-0.24353">
        <ele>117.2</ele>
        <time>2020-05-31T08:19:50Z</time>
      </trkpt>
      <trkpt lat="46.40093" lon="-0.24353">
        <ele>117.2</ele>
        <time>2020-05-31T08:19:51Z</time>
      </trkpt>
      <trkpt lat="46.40093" lon="-0.24353">
        <ele>117.2</ele>
        <time>2020-05-31T08:19:52Z</time>
      </trkpt>
      <trkpt lat="46.40093" lon="-0.24353">
        <ele>117.2</ele>
        <time>2020-05-31T08:19:53Z</time>
      </trkpt>
      <trkpt lat="46.40093" lon="-0.24353">
        <ele>117.2</ele>
        <time>2020-05-31T08:19:54Z</time>
      </trkpt>
      <trkpt lat="46.40093" lon="-0.24353">
        <ele>117.2</ele>
        <time>2020-05-31T08:19:55Z</time>
      </trkpt>
      <trkpt lat="46.40093" lon="-0.24354">
        <ele>117.2</ele>
        <time>2020-05-31T08:19:56Z</time>
      </trkpt>
      <trkpt lat="46.40093" lon="-0.24354">
        <ele>117.2</ele>
        <time>2020-05-31T08:19:57Z</time>
      </trkpt>
      <trkpt lat="46.40093" lon="-0.24354">
        <ele>117.2</ele>
        <time>2020-05-31T08:19:58Z</time>
      </trkpt>
      <trkpt lat="46.40093" lon="-0.24354">
        <ele>117.2</ele>
        <time>2020-05-31T08:19:59Z</time>
      </trkpt>
      <trkpt lat="46.40093" lon="-0.24354">
        <ele>117.2</ele>
        <time>2020-05-31T08:20:00Z</time>
      </trkpt>
      <trkpt lat="46.40093" lon="-0.24354">
        <ele>117.2</ele>
        <time>2020-05-31T08:20:01Z</time>
      </trkpt>
      <trkpt lat="46.40093" lon="-0.24354">
        <ele>117.2</ele>
        <time>2020-05-31T08:20:02Z</time>
      </trkpt>
      <trkpt lat="46.40092" lon="-0.24354">
        <ele>117.2</ele>
        <time>2020-05-31T08:20:03Z</time>
      </trkpt>
      <trkpt lat="46.40092" lon="-0.24354">
        <ele>117.2</ele>
        <time>2020-05-31T08:20:04Z</time>
      </trkpt>
      <trkpt lat="46.40092" lon="-0.24354">
        <ele>117.2</ele>
        <time>2020-05-31T08:20:05Z</time>
      </trkpt>
      <trkpt lat="46.40092" lon="-0.24354">
        <ele>117.2</ele>
        <time>2020-05-31T08:20:06Z</time>
      </trkpt>
      <trkpt lat="46.40092" lon="-0.24354">
        <ele>117.2</ele>
        <time>2020-05-31T08:20:07Z</time>
      </trkpt>
      <trkpt lat="46.40092" lon="-0.24354">
        <ele>117.2</ele>
        <time>2020-05-31T08:20:08Z</time>
      </trkpt>
      <trkpt lat="46.40092" lon="-0.24354">
        <ele>117.2</ele>
        <time>2020-05-31T08:20:09Z</time>
      </trkpt>
      <trkpt lat="46.40092" lon="-0.24354">
        <ele>117.2</ele>
        <time>2020-05-31T08:20:10Z</time>
      </trkpt>
      <trkpt lat="46.40092" lon="-0.24354">
        <ele>117.2</ele>
        <time>2020-05-31T08:20:11Z</time>
      </trkpt>
      <trkpt lat="46.40092" lon="-0.24354">
        <ele>117.2</ele>
        <time>2020-05-31T08:20:12Z</time>
      </trkpt>
      <trkpt lat="46.40092" lon="-0.24354">
        <ele>117.2</ele>
        <time>2020-05-31T08:20:13Z</time>
      </trkpt>
      <trkpt lat="46.40092" lon="-0.24354">
        <ele>117.2</ele>
        <time>2020-05-31T08:20:14Z</time>
      </trkpt>
      <trkpt lat="46.40092" lon="-0.24354">
        <ele>117.2</ele>
        <time>2020-05-31T08:20:15Z</time>
      </trkpt>
      <trkpt lat="46.40092" lon="-0.24354">
        <ele>117.2</ele>
        <time>2020-05-31T08:20:16Z</time>
      </trkpt>
      <trkpt lat="46.40092" lon="-0.24354">
        <ele>117.2</ele>
        <time>2020-05-31T08:20:17Z</time>
      </trkpt>
      <trkpt lat="46.40092" lon="-0.24354">
        <ele>117.2</ele>
        <time>2020-05-31T08:20:18Z</time>
      </trkpt>
      <trkpt lat="46.40092" lon="-0.24354">
        <ele>117.2</ele>
        <time>2020-05-31T08:20:19Z</time>
      </trkpt>
      <trkpt lat="46.40092" lon="-0.24354">
        <ele>117.2</ele>
        <time>2020-05-31T08:20:20Z</time>
      </trkpt>
      <trkpt lat="46.40092" lon="-0.24354">
        <ele>117.2</ele>
        <time>2020-05-31T08:20:21Z</time>
      </trkpt>
      <trkpt lat="46.40092" lon="-0.24354">
        <ele>117.2</ele>
        <time>2020-05-31T08:20:22Z</time>
      </trkpt>
      <trkpt lat="46.40092" lon="-0.24354">
        <ele>117.2</ele>
        <time>2020-05-31T08:20:23Z</time>
      </trkpt>
      <trkpt lat="46.40092" lon="-0.24354">
        <ele>117.2</ele>
        <time>2020-05-31T08:20:24Z</time>
      </trkpt>
      <trkpt lat="46.40092" lon="-0.24354">
        <ele>117.2</ele>
        <time>2020-05-31T08:20:25Z</time>
      </trkpt>
      <trkpt lat="46.40092" lon="-0.24354">
        <ele>117.2</ele>
        <time>2020-05-31T08:20:26Z</time>
      </trkpt>
      <trkpt lat="46.40092" lon="-0.24354">
        <ele>117.2</ele>
        <time>2020-05-31T08:20:27Z</time>
      </trkpt>
      <trkpt lat="46.40092" lon="-0.24354">
        <ele>117.2</ele>
        <time>2020-05-31T08:20:28Z</time>
      </trkpt>
      <trkpt lat="46.40092" lon="-0.24354">
        <ele>117.2</ele>
        <time>2020-05-31T08:20:29Z</time>
      </trkpt>
      <trkpt lat="46.40092" lon="-0.24354">
        <ele>117.2</ele>
        <time>2020-05-31T08:20:30Z</time>
      </trkpt>
      <trkpt lat="46.40092" lon="-0.24354">
        <ele>117.2</ele>
        <time>2020-05-31T08:20:31Z</time>
      </trkpt>
      <trkpt lat="46.40092" lon="-0.24354">
        <ele>117.2</ele>
        <time>2020-05-31T08:20:32Z</time>
      </trkpt>
      <trkpt lat="46.40092" lon="-0.24354">
        <ele>117.2</ele>
        <time>2020-05-31T08:20:33Z</time>
      </trkpt>
      <trkpt lat="46.40092" lon="-0.24355">
        <ele>117.2</ele>
        <time>2020-05-31T08:20:34Z</time>
      </trkpt>
      <trkpt lat="46.40092" lon="-0.24355">
        <ele>117.2</ele>
        <time>2020-05-31T08:20:35Z</time>
      </trkpt>
      <trkpt lat="46.40092" lon="-0.24355">
        <ele>117.2</ele>
        <time>2020-05-31T08:20:36Z</time>
      </trkpt>
      <trkpt lat="46.40092" lon="-0.24355">
        <ele>117.2</ele>
        <time>2020-05-31T08:20:37Z</time>
      </trkpt>
      <trkpt lat="46.40092" lon="-0.24355">
        <ele>117.2</ele>
        <time>2020-05-31T08:20:38Z</time>
      </trkpt>
      <trkpt lat="46.40092" lon="-0.24355">
        <ele>117.2</ele>
        <time>2020-05-31T08:20:39Z</time>
      </trkpt>
      <trkpt lat="46.40092" lon="-0.24355">
        <ele>117.2</ele>
        <time>2020-05-31T08:20:40Z</time>
      </trkpt>
      <trkpt lat="46.40092" lon="-0.24355">
        <ele>117.2</ele>
        <time>2020-05-31T08:20:41Z</time>
      </trkpt>
      <trkpt lat="46.40092" lon="-0.24355">
        <ele>117.2</ele>
        <time>2020-05-31T08:20:42Z</time>
      </trkpt>
      <trkpt lat="46.40092" lon="-0.24355">
        <ele>117.2</ele>
        <time>2020-05-31T08:20:43Z</time>
      </trkpt>
      <trkpt lat="46.40092" lon="-0.24355">
        <ele>117.2</ele>
        <time>2020-05-31T08:20:44Z</time>
      </trkpt>
      <trkpt lat="46.40092" lon="-0.24355">
        <ele>117.2</ele>
        <time>2020-05-31T08:20:45Z</time>
      </trkpt>
      <trkpt lat="46.40092" lon="-0.24355">
        <ele>117.2</ele>
        <time>2020-05-31T08:20:46Z</time>
      </trkpt>
      <trkpt lat="46.40092" lon="-0.24355">
        <ele>117.2</ele>
        <time>2020-05-31T08:20:47Z</time>
      </trkpt>
      <trkpt lat="46.40092" lon="-0.24355">
        <ele>117.2</ele>
        <time>2020-05-31T08:20:48Z</time>
      </trkpt>
      <trkpt lat="46.40092" lon="-0.24355">
        <ele>117.2</ele>
        <time>2020-05-31T08:20:49Z</time>
      </trkpt>
      <trkpt lat="46.40092" lon="-0.24355">
        <ele>117.2</ele>
        <time>2020-05-31T08:20:50Z</time>
      </trkpt>
      <trkpt lat="46.40092" lon="-0.24355">
        <ele>117.2</ele>
        <time>2020-05-31T08:20:51Z</time>
      </trkpt>
      <trkpt lat="46.40092" lon="-0.24355">
        <ele>117.2</ele>
        <time>2020-05-31T08:20:52Z</time>
      </trkpt>
      <trkpt lat="46.40092" lon="-0.24355">
        <ele>117.2</ele>
        <time>2020-05-31T08:20:53Z</time>
      </trkpt>
      <trkpt lat="46.40092" lon="-0.24355">
        <ele>117.2</ele>
        <time>2020-05-31T08:20:54Z</time>
      </trkpt>
      <trkpt lat="46.40092" lon="-0.24355">
        <ele>117.2</ele>
        <time>2020-05-31T08:20:55Z</time>
      </trkpt>
      <trkpt lat="46.40092" lon="-0.24355">
        <ele>117.2</ele>
        <time>2020-05-31T08:20:56Z</time>
      </trkpt>
      <trkpt lat="46.40092" lon="-0.24355">
        <ele>117.2</ele>
        <time>2020-05-31T08:20:57Z</time>
      </trkpt>
      <trkpt lat="46.40092" lon="-0.24355">
        <ele>117.2</ele>
        <time>2020-05-31T08:20:58Z</time>
      </trkpt>
      <trkpt lat="46.40092" lon="-0.24355">
        <ele>117.2</ele>
        <time>2020-05-31T08:20:59Z</time>
      </trkpt>
      <trkpt lat="46.40092" lon="-0.24355">
        <ele>117.2</ele>
        <time>2020-05-31T08:21:00Z</time>
      </trkpt>
      <trkpt lat="46.40092" lon="-0.24355">
        <ele>117.2</ele>
        <time>2020-05-31T08:21:01Z</time>
      </trkpt>
      <trkpt lat="46.40092" lon="-0.24355">
        <ele>117.2</ele>
        <time>2020-05-31T08:21:02Z</time>
      </trkpt>
      <trkpt lat="46.40092" lon="-0.24355">
        <ele>117.2</ele>
        <time>2020-05-31T08:21:03Z</time>
      </trkpt>
      <trkpt lat="46.40092" lon="-0.24355">
        <ele>117.2</ele>
        <time>2020-05-31T08:21:04Z</time>
      </trkpt>
      <trkpt lat="46.40092" lon="-0.24355">
        <ele>117.2</ele>
        <time>2020-05-31T08:21:05Z</time>
      </trkpt>
      <trkpt lat="46.40092" lon="-0.24355">
        <ele>117.2</ele>
        <time>2020-05-31T08:21:06Z</time>
      </trkpt>
      <trkpt lat="46.40092" lon="-0.24355">
        <ele>117.2</ele>
        <time>2020-05-31T08:21:07Z</time>
      </trkpt>
      <trkpt lat="46.40092" lon="-0.24355">
        <ele>117.2</ele>
        <time>2020-05-31T08:21:08Z</time>
      </trkpt>
      <trkpt lat="46.40092" lon="-0.24355">
        <ele>117.2</ele>
        <time>2020-05-31T08:21:09Z</time>
      </trkpt>
      <trkpt lat="46.40092" lon="-0.24356">
        <ele>117.2</ele>
        <time>2020-05-31T08:21:10Z</time>
      </trkpt>
      <trkpt lat="46.40091" lon="-0.24356">
        <ele>117.2</ele>
        <time>2020-05-31T08:21:11Z</time>
      </trkpt>
      <trkpt lat="46.40091" lon="-0.24356">
        <ele>117.2</ele>
        <time>2020-05-31T08:21:12Z</time>
      </trkpt>
      <trkpt lat="46.40091" lon="-0.24356">
        <ele>117.2</ele>
        <time>2020-05-31T08:21:13Z</time>
      </trkpt>
      <trkpt lat="46.40091" lon="-0.24356">
        <ele>117.2</ele>
        <time>2020-05-31T08:21:14Z</time>
      </trkpt>
      <trkpt lat="46.40091" lon="-0.24356">
        <ele>117.2</ele>
        <time>2020-05-31T08:21:15Z</time>
      </trkpt>
      <trkpt lat="46.40091" lon="-0.24356">
        <ele>117.2</ele>
        <time>2020-05-31T08:21:16Z</time>
      </trkpt>
      <trkpt lat="46.40091" lon="-0.24356">
        <ele>117.2</ele>
        <time>2020-05-31T08:21:17Z</time>
      </trkpt>
      <trkpt lat="46.40091" lon="-0.24356">
        <ele>117.2</ele>
        <time>2020-05-31T08:21:18Z</time>
      </trkpt>
      <trkpt lat="46.40091" lon="-0.24356">
        <ele>117.2</ele>
        <time>2020-05-31T08:21:19Z</time>
      </trkpt>
      <trkpt lat="46.40091" lon="-0.24356">
        <ele>117.2</ele>
        <time>2020-05-31T08:21:20Z</time>
      </trkpt>
      <trkpt lat="46.40091" lon="-0.24356">
        <ele>117.2</ele>
        <time>2020-05-31T08:21:21Z</time>
      </trkpt>
      <trkpt lat="46.40091" lon="-0.24356">
        <ele>117.2</ele>
        <time>2020-05-31T08:21:22Z</time>
      </trkpt>
      <trkpt lat="46.40091" lon="-0.24356">
        <ele>117.2</ele>
        <time>2020-05-31T08:21:23Z</time>
      </trkpt>
      <trkpt lat="46.40091" lon="-0.24356">
        <ele>117.2</ele>
        <time>2020-05-31T08:21:24Z</time>
      </trkpt>
      <trkpt lat="46.40091" lon="-0.24356">
        <ele>117.2</ele>
        <time>2020-05-31T08:21:25Z</time>
      </trkpt>
      <trkpt lat="46.40091" lon="-0.24356">
        <ele>117.2</ele>
        <time>2020-05-31T08:21:26Z</time>
      </trkpt>
      <trkpt lat="46.40091" lon="-0.24356">
        <ele>117.2</ele>
        <time>2020-05-31T08:21:27Z</time>
      </trkpt>
      <trkpt lat="46.40091" lon="-0.24356">
        <ele>117.2</ele>
        <time>2020-05-31T08:21:28Z</time>
      </trkpt>
      <trkpt lat="46.40091" lon="-0.24356">
        <ele>117.2</ele>
        <time>2020-05-31T08:21:29Z</time>
      </trkpt>
      <trkpt lat="46.40091" lon="-0.24356">
        <ele>117.2</ele>
        <time>2020-05-31T08:21:30Z</time>
      </trkpt>
      <trkpt lat="46.40091" lon="-0.24356">
        <ele>117.2</ele>
        <time>2020-05-31T08:21:31Z</time>
      </trkpt>
      <trkpt lat="46.40091" lon="-0.24356">
        <ele>117.2</ele>
        <time>2020-05-31T08:21:32Z</time>
      </trkpt>
      <trkpt lat="46.40091" lon="-0.24356">
        <ele>117.2</ele>
        <time>2020-05-31T08:21:33Z</time>
      </trkpt>
      <trkpt lat="46.40091" lon="-0.24356">
        <ele>117.2</ele>
        <time>2020-05-31T08:21:34Z</time>
      </trkpt>
      <trkpt lat="46.40091" lon="-0.24356">
        <ele>117.2</ele>
        <time>2020-05-31T08:21:35Z</time>
      </trkpt>
      <trkpt lat="46.40091" lon="-0.24356">
        <ele>117.2</ele>
        <time>2020-05-31T08:21:36Z</time>
      </trkpt>
      <trkpt lat="46.40091" lon="-0.24356">
        <ele>117.2</ele>
        <time>2020-05-31T08:21:37Z</time>
      </trkpt>
      <trkpt lat="46.40091" lon="-0.24356">
        <ele>117.2</ele>
        <time>2020-05-31T08:21:38Z</time>
      </trkpt>
      <trkpt lat="46.40091" lon="-0.24356">
        <ele>117.2</ele>
        <time>2020-05-31T08:21:39Z</time>
      </trkpt>
      <trkpt lat="46.40091" lon="-0.24356">
        <ele>117.2</ele>
        <time>2020-05-31T08:21:40Z</time>
      </trkpt>
      <trkpt lat="46.40091" lon="-0.24356">
        <ele>117.2</ele>
        <time>2020-05-31T08:21:41Z</time>
      </trkpt>
      <trkpt lat="46.40091" lon="-0.24356">
        <ele>117.2</ele>
        <time>2020-05-31T08:21:42Z</time>
      </trkpt>
      <trkpt lat="46.40091" lon="-0.24356">
        <ele>117.2</ele>
        <time>2020-05-31T08:21:43Z</time>
      </trkpt>
      <trkpt lat="46.40091" lon="-0.24356">
        <ele>117.2</ele>
        <time>2020-05-31T08:21:44Z</time>
      </trkpt>
      <trkpt lat="46.40091" lon="-0.24356">
        <ele>117.2</ele>
        <time>2020-05-31T08:21:45Z</time>
      </trkpt>
      <trkpt lat="46.40091" lon="-0.24356">
        <ele>117.2</ele>
        <time>2020-05-31T08:21:46Z</time>
      </trkpt>
      <trkpt lat="46.40091" lon="-0.24357">
        <ele>117.2</ele>
        <time>2020-05-31T08:21:47Z</time>
      </trkpt>
      <trkpt lat="46.40091" lon="-0.24357">
        <ele>117.2</ele>
        <time>2020-05-31T08:21:48Z</time>
      </trkpt>
      <trkpt lat="46.40091" lon="-0.24357">
        <ele>117.2</ele>
        <time>2020-05-31T08:21:49Z</time>
      </trkpt>
      <trkpt lat="46.40091" lon="-0.24357">
        <ele>117.2</ele>
        <time>2020-05-31T08:21:50Z</time>
      </trkpt>
      <trkpt lat="46.40091" lon="-0.24357">
        <ele>117.2</ele>
        <time>2020-05-31T08:21:51Z</time>
      </trkpt>
      <trkpt lat="46.40091" lon="-0.24357">
        <ele>117.2</ele>
        <time>2020-05-31T08:21:52Z</time>
      </trkpt>
      <trkpt lat="46.40091" lon="-0.24357">
        <ele>117.2</ele>
        <time>2020-05-31T08:21:53Z</time>
      </trkpt>
      <trkpt lat="46.40091" lon="-0.24357">
        <ele>117.2</ele>
        <time>2020-05-31T08:21:54Z</time>
      </trkpt>
      <trkpt lat="46.40091" lon="-0.24357">
        <ele>117.2</ele>
        <time>2020-05-31T08:21:55Z</time>
      </trkpt>
      <trkpt lat="46.40091" lon="-0.24357">
        <ele>117.2</ele>
        <time>2020-05-31T08:21:56Z</time>
      </trkpt>
      <trkpt lat="46.40091" lon="-0.24357">
        <ele>117.2</ele>
        <time>2020-05-31T08:21:57Z</time>
      </trkpt>
      <trkpt lat="46.40091" lon="-0.24357">
        <ele>117.2</ele>
        <time>2020-05-31T08:21:58Z</time>
      </trkpt>
      <trkpt lat="46.40091" lon="-0.24357">
        <ele>117.2</ele>
        <time>2020-05-31T08:21:59Z</time>
      </trkpt>
      <trkpt lat="46.40091" lon="-0.24357">
        <ele>117.2</ele>
        <time>2020-05-31T08:22:00Z</time>
      </trkpt>
      <trkpt lat="46.40091" lon="-0.24357">
        <ele>117.2</ele>
        <time>2020-05-31T08:22:01Z</time>
      </trkpt>
      <trkpt lat="46.40091" lon="-0.24357">
        <ele>117.2</ele>
        <time>2020-05-31T08:22:02Z</time>
      </trkpt>
      <trkpt lat="46.40091" lon="-0.24357">
        <ele>117.2</ele>
        <time>2020-05-31T08:22:03Z</time>
      </trkpt>
      <trkpt lat="46.40091" lon="-0.24357">
        <ele>117.2</ele>
        <time>2020-05-31T08:22:04Z</time>
      </trkpt>
      <trkpt lat="46.40091" lon="-0.24357">
        <ele>117.2</ele>
        <time>2020-05-31T08:22:05Z</time>
      </trkpt>
      <trkpt lat="46.40091" lon="-0.24357">
        <ele>117.2</ele>
        <time>2020-05-31T08:22:06Z</time>
      </trkpt>
      <trkpt lat="46.40091" lon="-0.24357">
        <ele>117.2</ele>
        <time>2020-05-31T08:22:07Z</time>
      </trkpt>
      <trkpt lat="46.40091" lon="-0.24357">
        <ele>117.2</ele>
        <time>2020-05-31T08:22:08Z</time>
      </trkpt>
      <trkpt lat="46.40091" lon="-0.24357">
        <ele>117.2</ele>
        <time>2020-05-31T08:22:09Z</time>
      </trkpt>
      <trkpt lat="46.40091" lon="-0.24357">
        <ele>117.2</ele>
        <time>2020-05-31T08:22:10Z</time>
      </trkpt>
      <trkpt lat="46.4009" lon="-0.24357">
        <ele>117.2</ele>
        <time>2020-05-31T08:22:11Z</time>
      </trkpt>
      <trkpt lat="46.4009" lon="-0.24357">
        <ele>117.2</ele>
        <time>2020-05-31T08:22:12Z</time>
      </trkpt>
      <trkpt lat="46.4009" lon="-0.24357">
        <ele>117.2</ele>
        <time>2020-05-31T08:22:13Z</time>
      </trkpt>
      <trkpt lat="46.4009" lon="-0.24357">
        <ele>117.2</ele>
        <time>2020-05-31T08:22:14Z</time>
      </trkpt>
      <trkpt lat="46.4009" lon="-0.24357">
        <ele>117.2</ele>
        <time>2020-05-31T08:22:15Z</time>
      </trkpt>
      <trkpt lat="46.4009" lon="-0.24357">
        <ele>117.2</ele>
        <time>2020-05-31T08:22:16Z</time>
      </trkpt>
      <trkpt lat="46.4009" lon="-0.24357">
        <ele>117.2</ele>
        <time>2020-05-31T08:22:17Z</time>
      </trkpt>
      <trkpt lat="46.4009" lon="-0.24357">
        <ele>117.2</ele>
        <time>2020-05-31T08:22:18Z</time>
      </trkpt>
      <trkpt lat="46.4009" lon="-0.24357">
        <ele>117.2</ele>
        <time>2020-05-31T08:22:19Z</time>
      </trkpt>
      <trkpt lat="46.4009" lon="-0.24357">
        <ele>117.2</ele>
        <time>2020-05-31T08:22:20Z</time>
      </trkpt>
      <trkpt lat="46.4009" lon="-0.24357">
        <ele>117.2</ele>
        <time>2020-05-31T08:22:21Z</time>
      </trkpt>
      <trkpt lat="46.4009" lon="-0.24357">
        <ele>117.2</ele>
        <time>2020-05-31T08:22:22Z</time>
      </trkpt>
      <trkpt lat="46.4009" lon="-0.24358">
        <ele>117.2</ele>
        <time>2020-05-31T08:22:23Z</time>
      </trkpt>
      <trkpt lat="46.4009" lon="-0.24358">
        <ele>117.2</ele>
        <time>2020-05-31T08:22:24Z</time>
      </trkpt>
      <trkpt lat="46.4009" lon="-0.24358">
        <ele>117.2</ele>
        <time>2020-05-31T08:22:25Z</time>
      </trkpt>
      <trkpt lat="46.4009" lon="-0.24358">
        <ele>117.2</ele>
        <time>2020-05-31T08:22:26Z</time>
      </trkpt>
      <trkpt lat="46.4009" lon="-0.24358">
        <ele>117.2</ele>
        <time>2020-05-31T08:22:27Z</time>
      </trkpt>
      <trkpt lat="46.4009" lon="-0.24358">
        <ele>117.2</ele>
        <time>2020-05-31T08:22:28Z</time>
      </trkpt>
      <trkpt lat="46.4009" lon="-0.24358">
        <ele>117.2</ele>
        <time>2020-05-31T08:22:29Z</time>
      </trkpt>
      <trkpt lat="46.4009" lon="-0.24358">
        <ele>117.2</ele>
        <time>2020-05-31T08:22:30Z</time>
      </trkpt>
      <trkpt lat="46.4009" lon="-0.24358">
        <ele>117.2</ele>
        <time>2020-05-31T08:22:31Z</time>
      </trkpt>
      <trkpt lat="46.4009" lon="-0.24358">
        <ele>117.2</ele>
        <time>2020-05-31T08:22:32Z</time>
      </trkpt>
      <trkpt lat="46.4009" lon="-0.24358">
        <ele>117.2</ele>
        <time>2020-05-31T08:22:33Z</time>
      </trkpt>
      <trkpt lat="46.4009" lon="-0.24358">
        <ele>117.2</ele>
        <time>2020-05-31T08:22:34Z</time>
      </trkpt>
      <trkpt lat="46.4009" lon="-0.24358">
        <ele>117.2</ele>
        <time>2020-05-31T08:22:35Z</time>
      </trkpt>
      <trkpt lat="46.4009" lon="-0.24358">
        <ele>117.2</ele>
        <time>2020-05-31T08:22:36Z</time>
      </trkpt>
      <trkpt lat="46.4009" lon="-0.24358">
        <ele>117.2</ele>
        <time>2020-05-31T08:22:37Z</time>
      </trkpt>
      <trkpt lat="46.4009" lon="-0.24358">
        <ele>117.2</ele>
        <time>2020-05-31T08:22:38Z</time>
      </trkpt>
      <trkpt lat="46.4009" lon="-0.24358">
        <ele>117.2</ele>
        <time>2020-05-31T08:22:39Z</time>
      </trkpt>
      <trkpt lat="46.4009" lon="-0.24358">
        <ele>117.2</ele>
        <time>2020-05-31T08:22:40Z</time>
      </trkpt>
      <trkpt lat="46.4009" lon="-0.24358">
        <ele>117.2</ele>
        <time>2020-05-31T08:22:41Z</time>
      </trkpt>
      <trkpt lat="46.4009" lon="-0.24358">
        <ele>117.2</ele>
        <time>2020-05-31T08:22:42Z</time>
      </trkpt>
      <trkpt lat="46.4009" lon="-0.24358">
        <ele>117.2</ele>
        <time>2020-05-31T08:22:43Z</time>
      </trkpt>
      <trkpt lat="46.4009" lon="-0.24358">
        <ele>117.2</ele>
        <time>2020-05-31T08:22:44Z</time>
      </trkpt>
      <trkpt lat="46.4009" lon="-0.24358">
        <ele>117.2</ele>
        <time>2020-05-31T08:22:45Z</time>
      </trkpt>
      <trkpt lat="46.4009" lon="-0.24358">
        <ele>117.2</ele>
        <time>2020-05-31T08:22:46Z</time>
      </trkpt>
      <trkpt lat="46.4009" lon="-0.24358">
        <ele>117.2</ele>
        <time>2020-05-31T08:22:47Z</time>
      </trkpt>
      <trkpt lat="46.4009" lon="-0.24358">
        <ele>117.2</ele>
        <time>2020-05-31T08:22:48Z</time>
      </trkpt>
      <trkpt lat="46.4009" lon="-0.24358">
        <ele>117.2</ele>
        <time>2020-05-31T08:22:49Z</time>
      </trkpt>
      <trkpt lat="46.4009" lon="-0.24358">
        <ele>117.2</ele>
        <time>2020-05-31T08:22:50Z</time>
      </trkpt>
      <trkpt lat="46.4009" lon="-0.24358">
        <ele>117.2</ele>
        <time>2020-05-31T08:22:51Z</time>
      </trkpt>
      <trkpt lat="46.4009" lon="-0.24358">
        <ele>117.2</ele>
        <time>2020-05-31T08:22:52Z</time>
      </trkpt>
      <trkpt lat="46.4009" lon="-0.24358">
        <ele>117.2</ele>
        <time>2020-05-31T08:22:53Z</time>
      </trkpt>
      <trkpt lat="46.4009" lon="-0.24358">
        <ele>117.2</ele>
        <time>2020-05-31T08:22:54Z</time>
      </trkpt>
      <trkpt lat="46.4009" lon="-0.24358">
        <ele>117.2</ele>
        <time>2020-05-31T08:22:55Z</time>
      </trkpt>
      <trkpt lat="46.4009" lon="-0.24358">
        <ele>117.2</ele>
        <time>2020-05-31T08:22:56Z</time>
      </trkpt>
      <trkpt lat="46.4009" lon="-0.24358">
        <ele>117.2</ele>
        <time>2020-05-31T08:22:57Z</time>
      </trkpt>
      <trkpt lat="46.4009" lon="-0.24358">
        <ele>117.2</ele>
        <time>2020-05-31T08:22:58Z</time>
      </trkpt>
      <trkpt lat="46.4009" lon="-0.24358">
        <ele>117.2</ele>
        <time>2020-05-31T08:22:59Z</time>
      </trkpt>
      <trkpt lat="46.4009" lon="-0.24359">
        <ele>117.2</ele>
        <time>2020-05-31T08:23:00Z</time>
      </trkpt>
      <trkpt lat="46.4009" lon="-0.24359">
        <ele>117.2</ele>
        <time>2020-05-31T08:23:01Z</time>
      </trkpt>
      <trkpt lat="46.4009" lon="-0.24359">
        <ele>117.2</ele>
        <time>2020-05-31T08:23:02Z</time>
      </trkpt>
      <trkpt lat="46.4009" lon="-0.24359">
        <ele>117.2</ele>
        <time>2020-05-31T08:23:03Z</time>
      </trkpt>
      <trkpt lat="46.4009" lon="-0.24359">
        <ele>117.2</ele>
        <time>2020-05-31T08:23:04Z</time>
      </trkpt>
      <trkpt lat="46.4009" lon="-0.24359">
        <ele>117.2</ele>
        <time>2020-05-31T08:23:05Z</time>
      </trkpt>
      <trkpt lat="46.4009" lon="-0.24359">
        <ele>117.2</ele>
        <time>2020-05-31T08:23:06Z</time>
      </trkpt>
      <trkpt lat="46.4009" lon="-0.24359">
        <ele>117.2</ele>
        <time>2020-05-31T08:23:07Z</time>
      </trkpt>
      <trkpt lat="46.4009" lon="-0.24359">
        <ele>117.2</ele>
        <time>2020-05-31T08:23:08Z</time>
      </trkpt>
      <trkpt lat="46.4009" lon="-0.24359">
        <ele>117.2</ele>
        <time>2020-05-31T08:23:09Z</time>
      </trkpt>
      <trkpt lat="46.4009" lon="-0.24359">
        <ele>117.2</ele>
        <time>2020-05-31T08:23:10Z</time>
      </trkpt>
      <trkpt lat="46.40089" lon="-0.24359">
        <ele>117.2</ele>
        <time>2020-05-31T08:23:11Z</time>
      </trkpt>
      <trkpt lat="46.40089" lon="-0.24359">
        <ele>117.2</ele>
        <time>2020-05-31T08:23:12Z</time>
      </trkpt>
      <trkpt lat="46.40089" lon="-0.24359">
        <ele>117.2</ele>
        <time>2020-05-31T08:23:13Z</time>
      </trkpt>
      <trkpt lat="46.40089" lon="-0.24359">
        <ele>117.2</ele>
        <time>2020-05-31T08:23:14Z</time>
      </trkpt>
      <trkpt lat="46.40089" lon="-0.24359">
        <ele>117.2</ele>
        <time>2020-05-31T08:23:15Z</time>
      </trkpt>
      <trkpt lat="46.40089" lon="-0.24359">
        <ele>117.2</ele>
        <time>2020-05-31T08:23:16Z</time>
      </trkpt>
      <trkpt lat="46.40089" lon="-0.24359">
        <ele>117.2</ele>
        <time>2020-05-31T08:23:17Z</time>
      </trkpt>
      <trkpt lat="46.40089" lon="-0.24359">
        <ele>117.2</ele>
        <time>2020-05-31T08:23:18Z</time>
      </trkpt>
      <trkpt lat="46.40089" lon="-0.24359">
        <ele>117.2</ele>
        <time>2020-05-31T08:23:19Z</time>
      </trkpt>
      <trkpt lat="46.40089" lon="-0.24359">
        <ele>117.2</ele>
        <time>2020-05-31T08:23:20Z</time>
      </trkpt>
      <trkpt lat="46.40089" lon="-0.24359">
        <ele>117.2</ele>
        <time>2020-05-31T08:23:21Z</time>
      </trkpt>
      <trkpt lat="46.40089" lon="-0.24359">
        <ele>117.2</ele>
        <time>2020-05-31T08:23:22Z</time>
      </trkpt>
      <trkpt lat="46.40089" lon="-0.24359">
        <ele>117.2</ele>
        <time>2020-05-31T08:23:23Z</time>
      </trkpt>
      <trkpt lat="46.40089" lon="-0.24359">
        <ele>117.2</ele>
        <time>2020-05-31T08:23:24Z</time>
      </trkpt>
      <trkpt lat="46.40089" lon="-0.24359">
        <ele>117.2</ele>
        <time>2020-05-31T08:23:25Z</time>
      </trkpt>
      <trkpt lat="46.40089" lon="-0.24359">
        <ele>117.2</ele>
        <time>2020-05-31T08:23:26Z</time>
      </trkpt>
      <trkpt lat="46.40089" lon="-0.24359">
        <ele>117.2</ele>
        <time>2020-05-31T08:23:27Z</time>
      </trkpt>
      <trkpt lat="46.40089" lon="-0.24359">
        <ele>117.2</ele>
        <time>2020-05-31T08:23:28Z</time>
      </trkpt>
      <trkpt lat="46.40089" lon="-0.24359">
        <ele>117.2</ele>
        <time>2020-05-31T08:23:29Z</time>
      </trkpt>
      <trkpt lat="46.40089" lon="-0.24359">
        <ele>117.2</ele>
        <time>2020-05-31T08:23:30Z</time>
      </trkpt>
      <trkpt lat="46.40089" lon="-0.24359">
        <ele>117.2</ele>
        <time>2020-05-31T08:23:31Z</time>
      </trkpt>
      <trkpt lat="46.40089" lon="-0.24359">
        <ele>117.2</ele>
        <time>2020-05-31T08:23:32Z</time>
      </trkpt>
      <trkpt lat="46.40089" lon="-0.24359">
        <ele>117.2</ele>
        <time>2020-05-31T08:23:33Z</time>
      </trkpt>
      <trkpt lat="46.40089" lon="-0.24359">
        <ele>117.2</ele>
        <time>2020-05-31T08:23:34Z</time>
      </trkpt>
      <trkpt lat="46.40089" lon="-0.24359">
        <ele>117.2</ele>
        <time>2020-05-31T08:23:35Z</time>
      </trkpt>
      <trkpt lat="46.40089" lon="-0.24359">
        <ele>117.2</ele>
        <time>2020-05-31T08:23:36Z</time>
      </trkpt>
      <trkpt lat="46.40089" lon="-0.2436">
        <ele>117.2</ele>
        <time>2020-05-31T08:23:37Z</time>
      </trkpt>
      <trkpt lat="46.40089" lon="-0.2436">
        <ele>117.2</ele>
        <time>2020-05-31T08:23:38Z</time>
      </trkpt>
      <trkpt lat="46.40089" lon="-0.2436">
        <ele>117.2</ele>
        <time>2020-05-31T08:23:39Z</time>
      </trkpt>
      <trkpt lat="46.40089" lon="-0.2436">
        <ele>117.2</ele>
        <time>2020-05-31T08:23:40Z</time>
      </trkpt>
      <trkpt lat="46.40089" lon="-0.2436">
        <ele>117.2</ele>
        <time>2020-05-31T08:23:41Z</time>
      </trkpt>
      <trkpt lat="46.40089" lon="-0.2436">
        <ele>117.2</ele>
        <time>2020-05-31T08:23:42Z</time>
      </trkpt>
      <trkpt lat="46.40089" lon="-0.2436">
        <ele>117.2</ele>
        <time>2020-05-31T08:23:43Z</time>
      </trkpt>
      <trkpt lat="46.40089" lon="-0.2436">
        <ele>117.2</ele>
        <time>2020-05-31T08:23:44Z</time>
      </trkpt>
      <trkpt lat="46.40089" lon="-0.2436">
        <ele>117.2</ele>
        <time>2020-05-31T08:23:45Z</time>
      </trkpt>
      <trkpt lat="46.40089" lon="-0.2436">
        <ele>117.2</ele>
        <time>2020-05-31T08:23:46Z</time>
      </trkpt>
      <trkpt lat="46.40089" lon="-0.2436">
        <ele>117.2</ele>
        <time>2020-05-31T08:23:47Z</time>
      </trkpt>
      <trkpt lat="46.40089" lon="-0.2436">
        <ele>117.2</ele>
        <time>2020-05-31T08:23:48Z</time>
      </trkpt>
      <trkpt lat="46.40089" lon="-0.2436">
        <ele>117.2</ele>
        <time>2020-05-31T08:23:49Z</time>
      </trkpt>
      <trkpt lat="46.4009" lon="-0.24361">
        <ele>117.2</ele>
        <time>2020-05-31T08:23:50Z</time>
      </trkpt>
      <trkpt lat="46.4009" lon="-0.24361">
        <ele>117.2</ele>
        <time>2020-05-31T08:23:51Z</time>
      </trkpt>
      <trkpt lat="46.40091" lon="-0.24363">
        <ele>117.2</ele>
        <time>2020-05-31T08:23:52Z</time>
      </trkpt>
      <trkpt lat="46.40091" lon="-0.24363">
        <ele>117.2</ele>
        <time>2020-05-31T08:23:53Z</time>
      </trkpt>
      <trkpt lat="46.40091" lon="-0.24364">
        <ele>117.2</ele>
        <time>2020-05-31T08:23:54Z</time>
      </trkpt>
      <trkpt lat="46.40091" lon="-0.24364">
        <ele>117.2</ele>
        <time>2020-05-31T08:23:55Z</time>
      </trkpt>
      <trkpt lat="46.40091" lon="-0.24365">
        <ele>117.2</ele>
        <time>2020-05-31T08:23:56Z</time>
      </trkpt>
      <trkpt lat="46.40091" lon="-0.24364">
        <ele>117.2</ele>
        <time>2020-05-31T08:23:57Z</time>
      </trkpt>
      <trkpt lat="46.40091" lon="-0.24365">
        <ele>117.2</ele>
        <time>2020-05-31T08:23:58Z</time>
      </trkpt>
      <trkpt lat="46.40092" lon="-0.24365">
        <ele>117.2</ele>
        <time>2020-05-31T08:23:59Z</time>
      </trkpt>
      <trkpt lat="46.40093" lon="-0.24366">
        <ele>117.2</ele>
        <time>2020-05-31T08:24:00Z</time>
      </trkpt>
      <trkpt lat="46.40093" lon="-0.24366">
        <ele>117.2</ele>
        <time>2020-05-31T08:24:01Z</time>
      </trkpt>
      <trkpt lat="46.40093" lon="-0.24366">
        <ele>117.2</ele>
        <time>2020-05-31T08:24:02Z</time>
      </trkpt>
      <trkpt lat="46.40093" lon="-0.24366">
        <ele>117.2</ele>
        <time>2020-05-31T08:24:03Z</time>
      </trkpt>
      <trkpt lat="46.40093" lon="-0.24366">
        <ele>117.2</ele>
        <time>2020-05-31T08:24:04Z</time>
      </trkpt>
      <trkpt lat="46.40093" lon="-0.24366">
        <ele>117.2</ele>
        <time>2020-05-31T08:24:05Z</time>
      </trkpt>
      <trkpt lat="46.40092" lon="-0.24366">
        <ele>117.2</ele>
        <time>2020-05-31T08:24:06Z</time>
      </trkpt>
      <trkpt lat="46.40093" lon="-0.24366">
        <ele>117.2</ele>
        <time>2020-05-31T08:24:07Z</time>
      </trkpt>
      <trkpt lat="46.40092" lon="-0.24365">
        <ele>117.2</ele>
        <time>2020-05-31T08:24:08Z</time>
      </trkpt>
      <trkpt lat="46.40092" lon="-0.24365">
        <ele>117.2</ele>
        <time>2020-05-31T08:24:09Z</time>
      </trkpt>
      <trkpt lat="46.40092" lon="-0.24366">
        <ele>117.2</ele>
        <time>2020-05-31T08:24:10Z</time>
      </trkpt>
      <trkpt lat="46.40092" lon="-0.24366">
        <ele>117.2</ele>
        <time>2020-05-31T08:24:11Z</time>
      </trkpt>
      <trkpt lat="46.40092" lon="-0.24365">
        <ele>117.2</ele>
        <time>2020-05-31T08:24:12Z</time>
      </trkpt>
      <trkpt lat="46.40092" lon="-0.24365">
        <ele>117.2</ele>
        <time>2020-05-31T08:24:13Z</time>
      </trkpt>
      <trkpt lat="46.40091" lon="-0.24365">
        <ele>117.2</ele>
        <time>2020-05-31T08:24:14Z</time>
      </trkpt>
      <trkpt lat="46.40091" lon="-0.24364">
        <ele>117.2</ele>
        <time>2020-05-31T08:24:15Z</time>
      </trkpt>
      <trkpt lat="46.40091" lon="-0.24365">
        <ele>117.2</ele>
        <time>2020-05-31T08:24:16Z</time>
      </trkpt>
      <trkpt lat="46.40091" lon="-0.24365">
        <ele>117.2</ele>
        <time>2020-05-31T08:24:17Z</time>
      </trkpt>
      <trkpt lat="46.40091" lon="-0.24365">
        <ele>117.2</ele>
        <time>2020-05-31T08:24:18Z</time>
      </trkpt>
      <trkpt lat="46.40091" lon="-0.24365">
        <ele>117.2</ele>
        <time>2020-05-31T08:24:19Z</time>
      </trkpt>
      <trkpt lat="46.40092" lon="-0.24365">
        <ele>117.2</ele>
        <time>2020-05-31T08:24:20Z</time>
      </trkpt>
      <trkpt lat="46.40092" lon="-0.24366">
        <ele>117.2</ele>
        <time>2020-05-31T08:24:21Z</time>
      </trkpt>
      <trkpt lat="46.40092" lon="-0.24367">
        <ele>117.1</ele>
        <time>2020-05-31T08:24:22Z</time>
      </trkpt>
      <trkpt lat="46.40092" lon="-0.24367">
        <ele>117.1</ele>
        <time>2020-05-31T08:24:23Z</time>
      </trkpt>
      <trkpt lat="46.40092" lon="-0.24367">
        <ele>117.1</ele>
        <time>2020-05-31T08:24:24Z</time>
      </trkpt>
      <trkpt lat="46.40092" lon="-0.24367">
        <ele>117.1</ele>
        <time>2020-05-31T08:24:25Z</time>
      </trkpt>
      <trkpt lat="46.40093" lon="-0.24367">
        <ele>117.1</ele>
        <time>2020-05-31T08:24:26Z</time>
      </trkpt>
      <trkpt lat="46.40092" lon="-0.24367">
        <ele>117.1</ele>
        <time>2020-05-31T08:24:27Z</time>
      </trkpt>
      <trkpt lat="46.40092" lon="-0.24367">
        <ele>117.1</ele>
        <time>2020-05-31T08:24:28Z</time>
      </trkpt>
      <trkpt lat="46.40092" lon="-0.24367">
        <ele>117.1</ele>
        <time>2020-05-31T08:24:29Z</time>
      </trkpt>
      <trkpt lat="46.40092" lon="-0.24368">
        <ele>117.1</ele>
        <time>2020-05-31T08:24:30Z</time>
      </trkpt>
      <trkpt lat="46.40091" lon="-0.24368">
        <ele>117.1</ele>
        <time>2020-05-31T08:24:31Z</time>
      </trkpt>
      <trkpt lat="46.40091" lon="-0.24369">
        <ele>117.1</ele>
        <time>2020-05-31T08:24:32Z</time>
      </trkpt>
      <trkpt lat="46.4009" lon="-0.2437">
        <ele>117.1</ele>
        <time>2020-05-31T08:24:33Z</time>
      </trkpt>
      <trkpt lat="46.4009" lon="-0.24371">
        <ele>117.1</ele>
        <time>2020-05-31T08:24:34Z</time>
      </trkpt>
      <trkpt lat="46.40089" lon="-0.24372">
        <ele>117.1</ele>
        <time>2020-05-31T08:24:35Z</time>
      </trkpt>
      <trkpt lat="46.40089" lon="-0.24374">
        <ele>117.1</ele>
        <time>2020-05-31T08:24:36Z</time>
      </trkpt>
      <trkpt lat="46.4009" lon="-0.24377">
        <ele>117.1</ele>
        <time>2020-05-31T08:24:37Z</time>
      </trkpt>
      <trkpt lat="46.4009" lon="-0.24378">
        <ele>117.1</ele>
        <time>2020-05-31T08:24:38Z</time>
      </trkpt>
      <trkpt lat="46.4009" lon="-0.2438">
        <ele>117.1</ele>
        <time>2020-05-31T08:24:39Z</time>
      </trkpt>
      <trkpt lat="46.40092" lon="-0.24383">
        <ele>117.1</ele>
        <time>2020-05-31T08:24:40Z</time>
      </trkpt>
      <trkpt lat="46.40093" lon="-0.24384">
        <ele>117.1</ele>
        <time>2020-05-31T08:24:41Z</time>
      </trkpt>
      <trkpt lat="46.40095" lon="-0.24388">
        <ele>117.1</ele>
        <time>2020-05-31T08:24:42Z</time>
      </trkpt>
      <trkpt lat="46.40095" lon="-0.2439">
        <ele>117.1</ele>
        <time>2020-05-31T08:24:43Z</time>
      </trkpt>
      <trkpt lat="46.40095" lon="-0.24396">
        <ele>117.1</ele>
        <time>2020-05-31T08:24:44Z</time>
      </trkpt>
      <trkpt lat="46.40094" lon="-0.24398">
        <ele>117.1</ele>
        <time>2020-05-31T08:24:45Z</time>
      </trkpt>
      <trkpt lat="46.40093" lon="-0.24402">
        <ele>117</ele>
        <time>2020-05-31T08:24:46Z</time>
      </trkpt>
      <trkpt lat="46.40093" lon="-0.24406">
        <ele>117</ele>
        <time>2020-05-31T08:24:47Z</time>
      </trkpt>
      <trkpt lat="46.40091" lon="-0.24411">
        <ele>117</ele>
        <time>2020-05-31T08:24:48Z</time>
      </trkpt>
      <trkpt lat="46.40091" lon="-0.24413">
        <ele>117</ele>
        <time>2020-05-31T08:24:49Z</time>
      </trkpt>
      <trkpt lat="46.4009" lon="-0.24417">
        <ele>117</ele>
        <time>2020-05-31T08:24:50Z</time>
      </trkpt>
      <trkpt lat="46.4009" lon="-0.24422">
        <ele>117</ele>
        <time>2020-05-31T08:24:51Z</time>
      </trkpt>
      <trkpt lat="46.40089" lon="-0.24426">
        <ele>117</ele>
        <time>2020-05-31T08:24:52Z</time>
      </trkpt>
      <trkpt lat="46.40089" lon="-0.2443">
        <ele>117</ele>
        <time>2020-05-31T08:24:53Z</time>
      </trkpt>
      <trkpt lat="46.40087" lon="-0.24434">
        <ele>117</ele>
        <time>2020-05-31T08:24:54Z</time>
      </trkpt>
      <trkpt lat="46.40086" lon="-0.24439">
        <ele>116.9</ele>
        <time>2020-05-31T08:24:55Z</time>
      </trkpt>
      <trkpt lat="46.40086" lon="-0.24441">
        <ele>116.9</ele>
        <time>2020-05-31T08:24:56Z</time>
      </trkpt>
      <trkpt lat="46.40086" lon="-0.24446">
        <ele>116.9</ele>
        <time>2020-05-31T08:24:57Z</time>
      </trkpt>
      <trkpt lat="46.40086" lon="-0.24451">
        <ele>116.9</ele>
        <time>2020-05-31T08:24:58Z</time>
      </trkpt>
      <trkpt lat="46.40086" lon="-0.24456">
        <ele>116.9</ele>
        <time>2020-05-31T08:24:59Z</time>
      </trkpt>
      <trkpt lat="46.40086" lon="-0.24458">
        <ele>116.9</ele>
        <time>2020-05-31T08:25:00Z</time>
      </trkpt>
      <trkpt lat="46.40085" lon="-0.24463">
        <ele>116.9</ele>
        <time>2020-05-31T08:25:01Z</time>
      </trkpt>
      <trkpt lat="46.40084" lon="-0.24468">
        <ele>116.9</ele>
        <time>2020-05-31T08:25:02Z</time>
      </trkpt>
      <trkpt lat="46.40083" lon="-0.2447">
        <ele>116.9</ele>
        <time>2020-05-31T08:25:03Z</time>
      </trkpt>
      <trkpt lat="46.40082" lon="-0.24476">
        <ele>116.8</ele>
        <time>2020-05-31T08:25:04Z</time>
      </trkpt>
      <trkpt lat="46.40082" lon="-0.24478">
        <ele>116.8</ele>
        <time>2020-05-31T08:25:05Z</time>
      </trkpt>
      <trkpt lat="46.40082" lon="-0.24483">
        <ele>116.8</ele>
        <time>2020-05-31T08:25:06Z</time>
      </trkpt>
      <trkpt lat="46.40082" lon="-0.24484">
        <ele>116.8</ele>
        <time>2020-05-31T08:25:07Z</time>
      </trkpt>
      <trkpt lat="46.40081" lon="-0.24487">
        <ele>116.8</ele>
        <time>2020-05-31T08:25:08Z</time>
      </trkpt>
      <trkpt lat="46.4008" lon="-0.24489">
        <ele>116.8</ele>
        <time>2020-05-31T08:25:09Z</time>
      </trkpt>
      <trkpt lat="46.40079" lon="-0.24492">
        <ele>116.8</ele>
        <time>2020-05-31T08:25:10Z</time>
      </trkpt>
      <trkpt lat="46.40079" lon="-0.24494">
        <ele>116.8</ele>
        <time>2020-05-31T08:25:11Z</time>
      </trkpt>
      <trkpt lat="46.40078" lon="-0.245">
        <ele>116.8</ele>
        <time>2020-05-31T08:25:12Z</time>
      </trkpt>
      <trkpt lat="46.40078" lon="-0.24502">
        <ele>116.8</ele>
        <time>2020-05-31T08:25:13Z</time>
      </trkpt>
      <trkpt lat="46.40078" lon="-0.24504">
        <ele>116.8</ele>
        <time>2020-05-31T08:25:14Z</time>
      </trkpt>
      <trkpt lat="46.40076" lon="-0.24505">
        <ele>116.8</ele>
        <time>2020-05-31T08:25:15Z</time>
      </trkpt>
      <trkpt lat="46.40075" lon="-0.2451">
        <ele>116.8</ele>
        <time>2020-05-31T08:25:16Z</time>
      </trkpt>
      <trkpt lat="46.40074" lon="-0.24512">
        <ele>116.8</ele>
        <time>2020-05-31T08:25:17Z</time>
      </trkpt>
      <trkpt lat="46.40071" lon="-0.24513">
        <ele>116.9</ele>
        <time>2020-05-31T08:25:18Z</time>
      </trkpt>
      <trkpt lat="46.4007" lon="-0.24512">
        <ele>116.9</ele>
        <time>2020-05-31T08:25:19Z</time>
      </trkpt>
      <trkpt lat="46.40066" lon="-0.2451">
        <ele>116.9</ele>
        <time>2020-05-31T08:25:20Z</time>
      </trkpt>
      <trkpt lat="46.40065" lon="-0.24509">
        <ele>116.9</ele>
        <time>2020-05-31T08:25:21Z</time>
      </trkpt>
      <trkpt lat="46.40063" lon="-0.24507">
        <ele>116.9</ele>
        <time>2020-05-31T08:25:22Z</time>
      </trkpt>
      <trkpt lat="46.4006" lon="-0.24506">
        <ele>116.8</ele>
        <time>2020-05-31T08:25:23Z</time>
      </trkpt>
      <trkpt lat="46.40056" lon="-0.24503">
        <ele>116.8</ele>
        <time>2020-05-31T08:25:24Z</time>
      </trkpt>
      <trkpt lat="46.40053" lon="-0.245">
        <ele>116.8</ele>
        <time>2020-05-31T08:25:25Z</time>
      </trkpt>
      <trkpt lat="46.40049" lon="-0.24497">
        <ele>116.9</ele>
        <time>2020-05-31T08:25:26Z</time>
      </trkpt>
      <trkpt lat="46.40045" lon="-0.24496">
        <ele>116.9</ele>
        <time>2020-05-31T08:25:27Z</time>
      </trkpt>
      <trkpt lat="46.40043" lon="-0.24496">
        <ele>117</ele>
        <time>2020-05-31T08:25:28Z</time>
      </trkpt>
      <trkpt lat="46.40039" lon="-0.24494">
        <ele>117.1</ele>
        <time>2020-05-31T08:25:29Z</time>
      </trkpt>
      <trkpt lat="46.40036" lon="-0.24494">
        <ele>117.2</ele>
        <time>2020-05-31T08:25:30Z</time>
      </trkpt>
      <trkpt lat="46.40033" lon="-0.24492">
        <ele>117.3</ele>
        <time>2020-05-31T08:25:31Z</time>
      </trkpt>
      <trkpt lat="46.40029" lon="-0.24491">
        <ele>117.4</ele>
        <time>2020-05-31T08:25:32Z</time>
      </trkpt>
      <trkpt lat="46.40025" lon="-0.2449">
        <ele>117.5</ele>
        <time>2020-05-31T08:25:33Z</time>
      </trkpt>
      <trkpt lat="46.40022" lon="-0.24489">
        <ele>117.6</ele>
        <time>2020-05-31T08:25:34Z</time>
      </trkpt>
      <trkpt lat="46.40019" lon="-0.24487">
        <ele>117.7</ele>
        <time>2020-05-31T08:25:35Z</time>
      </trkpt>
      <trkpt lat="46.40015" lon="-0.24485">
        <ele>117.8</ele>
        <time>2020-05-31T08:25:36Z</time>
      </trkpt>
      <trkpt lat="46.40011" lon="-0.24484">
        <ele>117.9</ele>
        <time>2020-05-31T08:25:37Z</time>
      </trkpt>
      <trkpt lat="46.40008" lon="-0.24483">
        <ele>118</ele>
        <time>2020-05-31T08:25:38Z</time>
      </trkpt>
      <trkpt lat="46.40005" lon="-0.24483">
        <ele>118.1</ele>
        <time>2020-05-31T08:25:39Z</time>
      </trkpt>
      <trkpt lat="46.40002" lon="-0.24481">
        <ele>118.2</ele>
        <time>2020-05-31T08:25:40Z</time>
      </trkpt>
      <trkpt lat="46.39999" lon="-0.2448">
        <ele>118.3</ele>
        <time>2020-05-31T08:25:41Z</time>
      </trkpt>
      <trkpt lat="46.39995" lon="-0.24478">
        <ele>118.3</ele>
        <time>2020-05-31T08:25:42Z</time>
      </trkpt>
      <trkpt lat="46.39992" lon="-0.24476">
        <ele>118.4</ele>
        <time>2020-05-31T08:25:43Z</time>
      </trkpt>
      <trkpt lat="46.39989" lon="-0.24474">
        <ele>118.5</ele>
        <time>2020-05-31T08:25:44Z</time>
      </trkpt>
      <trkpt lat="46.39985" lon="-0.24471">
        <ele>118.5</ele>
        <time>2020-05-31T08:25:45Z</time>
      </trkpt>
      <trkpt lat="46.39982" lon="-0.24468">
        <ele>118.5</ele>
        <time>2020-05-31T08:25:46Z</time>
      </trkpt>
      <trkpt lat="46.39978" lon="-0.24466">
        <ele>118.5</ele>
        <time>2020-05-31T08:25:47Z</time>
      </trkpt>
      <trkpt lat="46.39975" lon="-0.24465">
        <ele>118.6</ele>
        <time>2020-05-31T08:25:48Z</time>
      </trkpt>
      <trkpt lat="46.39972" lon="-0.24464">
        <ele>118.7</ele>
        <time>2020-05-31T08:25:49Z</time>
      </trkpt>
      <trkpt lat="46.3997" lon="-0.24463">
        <ele>118.8</ele>
        <time>2020-05-31T08:25:50Z</time>
      </trkpt>
      <trkpt lat="46.39966" lon="-0.2446">
        <ele>119</ele>
        <time>2020-05-31T08:25:51Z</time>
      </trkpt>
      <trkpt lat="46.39963" lon="-0.24458">
        <ele>119.1</ele>
        <time>2020-05-31T08:25:52Z</time>
      </trkpt>
      <trkpt lat="46.39961" lon="-0.24456">
        <ele>119.2</ele>
        <time>2020-05-31T08:25:53Z</time>
      </trkpt>
      <trkpt lat="46.39956" lon="-0.24455">
        <ele>119.3</ele>
        <time>2020-05-31T08:25:54Z</time>
      </trkpt>
      <trkpt lat="46.39954" lon="-0.24455">
        <ele>119.4</ele>
        <time>2020-05-31T08:25:55Z</time>
      </trkpt>
      <trkpt lat="46.39951" lon="-0.24454">
        <ele>119.5</ele>
        <time>2020-05-31T08:25:56Z</time>
      </trkpt>
      <trkpt lat="46.39948" lon="-0.24454">
        <ele>119.6</ele>
        <time>2020-05-31T08:25:57Z</time>
      </trkpt>
      <trkpt lat="46.39944" lon="-0.24453">
        <ele>119.7</ele>
        <time>2020-05-31T08:25:58Z</time>
      </trkpt>
      <trkpt lat="46.39942" lon="-0.24452">
        <ele>119.8</ele>
        <time>2020-05-31T08:25:59Z</time>
      </trkpt>
      <trkpt lat="46.39939" lon="-0.24451">
        <ele>119.9</ele>
        <time>2020-05-31T08:26:00Z</time>
      </trkpt>
      <trkpt lat="46.39935" lon="-0.2445">
        <ele>120.1</ele>
        <time>2020-05-31T08:26:01Z</time>
      </trkpt>
      <trkpt lat="46.39932" lon="-0.2445">
        <ele>120.2</ele>
        <time>2020-05-31T08:26:02Z</time>
      </trkpt>
      <trkpt lat="46.39929" lon="-0.24449">
        <ele>120.3</ele>
        <time>2020-05-31T08:26:03Z</time>
      </trkpt>
      <trkpt lat="46.39926" lon="-0.24448">
        <ele>120.4</ele>
        <time>2020-05-31T08:26:04Z</time>
      </trkpt>
      <trkpt lat="46.39922" lon="-0.24448">
        <ele>120.5</ele>
        <time>2020-05-31T08:26:05Z</time>
      </trkpt>
      <trkpt lat="46.3992" lon="-0.24449">
        <ele>120.8</ele>
        <time>2020-05-31T08:26:06Z</time>
      </trkpt>
      <trkpt lat="46.39918" lon="-0.24454">
        <ele>120.9</ele>
        <time>2020-05-31T08:26:07Z</time>
      </trkpt>
      <trkpt lat="46.39918" lon="-0.24456">
        <ele>121</ele>
        <time>2020-05-31T08:26:08Z</time>
      </trkpt>
      <trkpt lat="46.39917" lon="-0.2446">
        <ele>121.1</ele>
        <time>2020-05-31T08:26:09Z</time>
      </trkpt>
      <trkpt lat="46.39916" lon="-0.24464">
        <ele>121.2</ele>
        <time>2020-05-31T08:26:10Z</time>
      </trkpt>
      <trkpt lat="46.39915" lon="-0.24469">
        <ele>121.4</ele>
        <time>2020-05-31T08:26:11Z</time>
      </trkpt>
      <trkpt lat="46.39914" lon="-0.24473">
        <ele>121.5</ele>
        <time>2020-05-31T08:26:12Z</time>
      </trkpt>
      <trkpt lat="46.39914" lon="-0.24474">
        <ele>121.5</ele>
        <time>2020-05-31T08:26:13Z</time>
      </trkpt>
      <trkpt lat="46.39913" lon="-0.24475">
        <ele>121.6</ele>
        <time>2020-05-31T08:26:14Z</time>
      </trkpt>
      <trkpt lat="46.39913" lon="-0.24475">
        <ele>121.6</ele>
        <time>2020-05-31T08:26:15Z</time>
      </trkpt>
      <trkpt lat="46.39913" lon="-0.24475">
        <ele>121.6</ele>
        <time>2020-05-31T08:26:16Z</time>
      </trkpt>
      <trkpt lat="46.39913" lon="-0.24475">
        <ele>121.6</ele>
        <time>2020-05-31T08:26:17Z</time>
      </trkpt>
      <trkpt lat="46.39913" lon="-0.24475">
        <ele>121.6</ele>
        <time>2020-05-31T08:26:18Z</time>
      </trkpt>
      <trkpt lat="46.39913" lon="-0.24475">
        <ele>121.6</ele>
        <time>2020-05-31T08:26:19Z</time>
      </trkpt>
      <trkpt lat="46.39913" lon="-0.24476">
        <ele>121.6</ele>
        <time>2020-05-31T08:26:20Z</time>
      </trkpt>
      <trkpt lat="46.39913" lon="-0.24476">
        <ele>121.6</ele>
        <time>2020-05-31T08:26:21Z</time>
      </trkpt>
      <trkpt lat="46.39913" lon="-0.24476">
        <ele>121.6</ele>
        <time>2020-05-31T08:26:22Z</time>
      </trkpt>
      <trkpt lat="46.39913" lon="-0.24476">
        <ele>121.6</ele>
        <time>2020-05-31T08:26:23Z</time>
      </trkpt>
      <trkpt lat="46.39913" lon="-0.24476">
        <ele>121.6</ele>
        <time>2020-05-31T08:26:24Z</time>
      </trkpt>
      <trkpt lat="46.39913" lon="-0.24476">
        <ele>121.6</ele>
        <time>2020-05-31T08:26:25Z</time>
      </trkpt>
      <trkpt lat="46.39913" lon="-0.24476">
        <ele>121.6</ele>
        <time>2020-05-31T08:26:26Z</time>
      </trkpt>
      <trkpt lat="46.39913" lon="-0.24477">
        <ele>121.6</ele>
        <time>2020-05-31T08:26:27Z</time>
      </trkpt>
      <trkpt lat="46.39913" lon="-0.24477">
        <ele>121.6</ele>
        <time>2020-05-31T08:26:28Z</time>
      </trkpt>
      <trkpt lat="46.39913" lon="-0.24477">
        <ele>121.6</ele>
        <time>2020-05-31T08:26:29Z</time>
      </trkpt>
      <trkpt lat="46.39914" lon="-0.24477">
        <ele>121.8</ele>
        <time>2020-05-31T08:26:30Z</time>
      </trkpt>
      <trkpt lat="46.39914" lon="-0.24477">
        <ele>121.8</ele>
        <time>2020-05-31T08:26:31Z</time>
      </trkpt>
      <trkpt lat="46.39914" lon="-0.24477">
        <ele>121.8</ele>
        <time>2020-05-31T08:26:32Z</time>
      </trkpt>
      <trkpt lat="46.39914" lon="-0.24477">
        <ele>121.8</ele>
        <time>2020-05-31T08:26:33Z</time>
      </trkpt>
      <trkpt lat="46.39914" lon="-0.24478">
        <ele>121.8</ele>
        <time>2020-05-31T08:26:34Z</time>
      </trkpt>
      <trkpt lat="46.39914" lon="-0.24478">
        <ele>121.8</ele>
        <time>2020-05-31T08:26:35Z</time>
      </trkpt>
      <trkpt lat="46.39914" lon="-0.24478">
        <ele>121.8</ele>
        <time>2020-05-31T08:26:36Z</time>
      </trkpt>
      <trkpt lat="46.39914" lon="-0.24478">
        <ele>121.8</ele>
        <time>2020-05-31T08:26:37Z</time>
      </trkpt>
      <trkpt lat="46.39914" lon="-0.24478">
        <ele>121.8</ele>
        <time>2020-05-31T08:26:38Z</time>
      </trkpt>
      <trkpt lat="46.39914" lon="-0.24478">
        <ele>121.8</ele>
        <time>2020-05-31T08:26:39Z</time>
      </trkpt>
      <trkpt lat="46.39914" lon="-0.24478">
        <ele>121.8</ele>
        <time>2020-05-31T08:26:40Z</time>
      </trkpt>
      <trkpt lat="46.39914" lon="-0.24479">
        <ele>121.8</ele>
        <time>2020-05-31T08:26:41Z</time>
      </trkpt>
      <trkpt lat="46.39914" lon="-0.24479">
        <ele>121.8</ele>
        <time>2020-05-31T08:26:42Z</time>
      </trkpt>
      <trkpt lat="46.39914" lon="-0.24479">
        <ele>121.8</ele>
        <time>2020-05-31T08:26:43Z</time>
      </trkpt>
      <trkpt lat="46.39914" lon="-0.24479">
        <ele>121.8</ele>
        <time>2020-05-31T08:26:44Z</time>
      </trkpt>
      <trkpt lat="46.39914" lon="-0.24479">
        <ele>121.8</ele>
        <time>2020-05-31T08:26:45Z</time>
      </trkpt>
      <trkpt lat="46.39914" lon="-0.24479">
        <ele>121.8</ele>
        <time>2020-05-31T08:26:46Z</time>
      </trkpt>
      <trkpt lat="46.39914" lon="-0.24479">
        <ele>121.8</ele>
        <time>2020-05-31T08:26:47Z</time>
      </trkpt>
      <trkpt lat="46.39914" lon="-0.2448">
        <ele>121.8</ele>
        <time>2020-05-31T08:26:48Z</time>
      </trkpt>
      <trkpt lat="46.39915" lon="-0.2448">
        <ele>121.8</ele>
        <time>2020-05-31T08:26:49Z</time>
      </trkpt>
      <trkpt lat="46.39915" lon="-0.2448">
        <ele>121.8</ele>
        <time>2020-05-31T08:26:50Z</time>
      </trkpt>
      <trkpt lat="46.39915" lon="-0.2448">
        <ele>121.8</ele>
        <time>2020-05-31T08:26:51Z</time>
      </trkpt>
      <trkpt lat="46.39916" lon="-0.24484">
        <ele>121.8</ele>
        <time>2020-05-31T08:26:52Z</time>
      </trkpt>
      <trkpt lat="46.39916" lon="-0.24486">
        <ele>121.8</ele>
        <time>2020-05-31T08:26:53Z</time>
      </trkpt>
      <trkpt lat="46.39917" lon="-0.24489">
        <ele>121.7</ele>
        <time>2020-05-31T08:26:54Z</time>
      </trkpt>
      <trkpt lat="46.39918" lon="-0.24494">
        <ele>121.7</ele>
        <time>2020-05-31T08:26:55Z</time>
      </trkpt>
      <trkpt lat="46.39919" lon="-0.24498">
        <ele>121.7</ele>
        <time>2020-05-31T08:26:56Z</time>
      </trkpt>
      <trkpt lat="46.39921" lon="-0.24502">
        <ele>121.7</ele>
        <time>2020-05-31T08:26:57Z</time>
      </trkpt>
      <trkpt lat="46.39923" lon="-0.24507">
        <ele>121.7</ele>
        <time>2020-05-31T08:26:58Z</time>
      </trkpt>
      <trkpt lat="46.39925" lon="-0.24511">
        <ele>121.7</ele>
        <time>2020-05-31T08:26:59Z</time>
      </trkpt>
      <trkpt lat="46.39927" lon="-0.24516">
        <ele>121.6</ele>
        <time>2020-05-31T08:27:00Z</time>
      </trkpt>
      <trkpt lat="46.39929" lon="-0.24522">
        <ele>121.6</ele>
        <time>2020-05-31T08:27:01Z</time>
      </trkpt>
      <trkpt lat="46.39931" lon="-0.24525">
        <ele>121.5</ele>
        <time>2020-05-31T08:27:02Z</time>
      </trkpt>
      <trkpt lat="46.39933" lon="-0.24529">
        <ele>121.5</ele>
        <time>2020-05-31T08:27:03Z</time>
      </trkpt>
      <trkpt lat="46.39935" lon="-0.24533">
        <ele>121.4</ele>
        <time>2020-05-31T08:27:04Z</time>
      </trkpt>
      <trkpt lat="46.39937" lon="-0.24538">
        <ele>121.4</ele>
        <time>2020-05-31T08:27:05Z</time>
      </trkpt>
      <trkpt lat="46.3994" lon="-0.24542">
        <ele>121.3</ele>
        <time>2020-05-31T08:27:06Z</time>
      </trkpt>
      <trkpt lat="46.39943" lon="-0.24546">
        <ele>121.2</ele>
        <time>2020-05-31T08:27:07Z</time>
      </trkpt>
      <trkpt lat="46.39946" lon="-0.24551">
        <ele>121.2</ele>
        <time>2020-05-31T08:27:08Z</time>
      </trkpt>
      <trkpt lat="46.39948" lon="-0.24555">
        <ele>121.1</ele>
        <time>2020-05-31T08:27:09Z</time>
      </trkpt>
      <trkpt lat="46.39949" lon="-0.24562">
        <ele>121</ele>
        <time>2020-05-31T08:27:10Z</time>
      </trkpt>
      <trkpt lat="46.39951" lon="-0.24567">
        <ele>121</ele>
        <time>2020-05-31T08:27:11Z</time>
      </trkpt>
      <trkpt lat="46.39953" lon="-0.24572">
        <ele>120.9</ele>
        <time>2020-05-31T08:27:12Z</time>
      </trkpt>
      <trkpt lat="46.39955" lon="-0.24578">
        <ele>120.8</ele>
        <time>2020-05-31T08:27:13Z</time>
      </trkpt>
      <trkpt lat="46.39958" lon="-0.24583">
        <ele>120.8</ele>
        <time>2020-05-31T08:27:14Z</time>
      </trkpt>
      <trkpt lat="46.3996" lon="-0.2459">
        <ele>120.7</ele>
        <time>2020-05-31T08:27:15Z</time>
      </trkpt>
      <trkpt lat="46.39962" lon="-0.24594">
        <ele>120.7</ele>
        <time>2020-05-31T08:27:16Z</time>
      </trkpt>
      <trkpt lat="46.39966" lon="-0.24599">
        <ele>120.6</ele>
        <time>2020-05-31T08:27:17Z</time>
      </trkpt>
      <trkpt lat="46.39968" lon="-0.24604">
        <ele>120.5</ele>
        <time>2020-05-31T08:27:18Z</time>
      </trkpt>
      <trkpt lat="46.39971" lon="-0.24608">
        <ele>120.4</ele>
        <time>2020-05-31T08:27:19Z</time>
      </trkpt>
      <trkpt lat="46.39973" lon="-0.24614">
        <ele>120.4</ele>
        <time>2020-05-31T08:27:20Z</time>
      </trkpt>
      <trkpt lat="46.39976" lon="-0.24618">
        <ele>120.3</ele>
        <time>2020-05-31T08:27:21Z</time>
      </trkpt>
      <trkpt lat="46.39979" lon="-0.24624">
        <ele>120.2</ele>
        <time>2020-05-31T08:27:22Z</time>
      </trkpt>
      <trkpt lat="46.39982" lon="-0.24629">
        <ele>120.1</ele>
        <time>2020-05-31T08:27:23Z</time>
      </trkpt>
      <trkpt lat="46.39985" lon="-0.24634">
        <ele>119.9</ele>
        <time>2020-05-31T08:27:24Z</time>
      </trkpt>
      <trkpt lat="46.39988" lon="-0.24641">
        <ele>119.8</ele>
        <time>2020-05-31T08:27:25Z</time>
      </trkpt>
      <trkpt lat="46.3999" lon="-0.24648">
        <ele>119.7</ele>
        <time>2020-05-31T08:27:26Z</time>
      </trkpt>
      <trkpt lat="46.39993" lon="-0.24654">
        <ele>119.5</ele>
        <time>2020-05-31T08:27:27Z</time>
      </trkpt>
      <trkpt lat="46.39996" lon="-0.24661">
        <ele>119.3</ele>
        <time>2020-05-31T08:27:28Z</time>
      </trkpt>
      <trkpt lat="46.39998" lon="-0.24669">
        <ele>119.2</ele>
        <time>2020-05-31T08:27:29Z</time>
      </trkpt>
      <trkpt lat="46.40001" lon="-0.24676">
        <ele>119</ele>
        <time>2020-05-31T08:27:30Z</time>
      </trkpt>
      <trkpt lat="46.40004" lon="-0.24683">
        <ele>118.8</ele>
        <time>2020-05-31T08:27:31Z</time>
      </trkpt>
      <trkpt lat="46.40007" lon="-0.2469">
        <ele>118.7</ele>
        <time>2020-05-31T08:27:32Z</time>
      </trkpt>
      <trkpt lat="46.40011" lon="-0.24697">
        <ele>118.5</ele>
        <time>2020-05-31T08:27:33Z</time>
      </trkpt>
      <trkpt lat="46.40014" lon="-0.24705">
        <ele>118.4</ele>
        <time>2020-05-31T08:27:34Z</time>
      </trkpt>
      <trkpt lat="46.40017" lon="-0.24712">
        <ele>118.3</ele>
        <time>2020-05-31T08:27:35Z</time>
      </trkpt>
      <trkpt lat="46.40022" lon="-0.24717">
        <ele>118.2</ele>
        <time>2020-05-31T08:27:36Z</time>
      </trkpt>
      <trkpt lat="46.40026" lon="-0.24721">
        <ele>118.2</ele>
        <time>2020-05-31T08:27:37Z</time>
      </trkpt>
      <trkpt lat="46.40032" lon="-0.24724">
        <ele>118</ele>
        <time>2020-05-31T08:27:38Z</time>
      </trkpt>
      <trkpt lat="46.40038" lon="-0.24727">
        <ele>117.9</ele>
        <time>2020-05-31T08:27:39Z</time>
      </trkpt>
      <trkpt lat="46.40043" lon="-0.24729">
        <ele>117.8</ele>
        <time>2020-05-31T08:27:40Z</time>
      </trkpt>
      <trkpt lat="46.40049" lon="-0.24731">
        <ele>117.7</ele>
        <time>2020-05-31T08:27:41Z</time>
      </trkpt>
      <trkpt lat="46.40054" lon="-0.24732">
        <ele>117.7</ele>
        <time>2020-05-31T08:27:42Z</time>
      </trkpt>
      <trkpt lat="46.40058" lon="-0.24734">
        <ele>117.6</ele>
        <time>2020-05-31T08:27:43Z</time>
      </trkpt>
      <trkpt lat="46.40061" lon="-0.24738">
        <ele>117.5</ele>
        <time>2020-05-31T08:27:44Z</time>
      </trkpt>
      <trkpt lat="46.40062" lon="-0.24744">
        <ele>117.3</ele>
        <time>2020-05-31T08:27:45Z</time>
      </trkpt>
      <trkpt lat="46.40062" lon="-0.24752">
        <ele>117</ele>
        <time>2020-05-31T08:27:46Z</time>
      </trkpt>
      <trkpt lat="46.40061" lon="-0.24761">
        <ele>116.8</ele>
        <time>2020-05-31T08:27:47Z</time>
      </trkpt>
      <trkpt lat="46.4006" lon="-0.24768">
        <ele>116.5</ele>
        <time>2020-05-31T08:27:48Z</time>
      </trkpt>
      <trkpt lat="46.40059" lon="-0.24776">
        <ele>116.3</ele>
        <time>2020-05-31T08:27:49Z</time>
      </trkpt>
      <trkpt lat="46.40059" lon="-0.24784">
        <ele>116.1</ele>
        <time>2020-05-31T08:27:50Z</time>
      </trkpt>
      <trkpt lat="46.40059" lon="-0.24792">
        <ele>115.9</ele>
        <time>2020-05-31T08:27:51Z</time>
      </trkpt>
      <trkpt lat="46.40059" lon="-0.248">
        <ele>115.7</ele>
        <time>2020-05-31T08:27:52Z</time>
      </trkpt>
      <trkpt lat="46.40059" lon="-0.24808">
        <ele>115.4</ele>
        <time>2020-05-31T08:27:53Z</time>
      </trkpt>
      <trkpt lat="46.40058" lon="-0.24817">
        <ele>115.2</ele>
        <time>2020-05-31T08:27:54Z</time>
      </trkpt>
      <trkpt lat="46.40058" lon="-0.24825">
        <ele>115.1</ele>
        <time>2020-05-31T08:27:55Z</time>
      </trkpt>
      <trkpt lat="46.40058" lon="-0.24835">
        <ele>115</ele>
        <time>2020-05-31T08:27:56Z</time>
      </trkpt>
      <trkpt lat="46.40058" lon="-0.24844">
        <ele>114.8</ele>
        <time>2020-05-31T08:27:57Z</time>
      </trkpt>
      <trkpt lat="46.40059" lon="-0.24853">
        <ele>114.7</ele>
        <time>2020-05-31T08:27:58Z</time>
      </trkpt>
      <trkpt lat="46.4006" lon="-0.24862">
        <ele>114.6</ele>
        <time>2020-05-31T08:27:59Z</time>
      </trkpt>
      <trkpt lat="46.4006" lon="-0.24871">
        <ele>114.4</ele>
        <time>2020-05-31T08:28:00Z</time>
      </trkpt>
      <trkpt lat="46.40059" lon="-0.2488">
        <ele>114.3</ele>
        <time>2020-05-31T08:28:01Z</time>
      </trkpt>
      <trkpt lat="46.4006" lon="-0.24889">
        <ele>114.2</ele>
        <time>2020-05-31T08:28:02Z</time>
      </trkpt>
      <trkpt lat="46.40061" lon="-0.24898">
        <ele>114.1</ele>
        <time>2020-05-31T08:28:03Z</time>
      </trkpt>
      <trkpt lat="46.40064" lon="-0.24907">
        <ele>114.1</ele>
        <time>2020-05-31T08:28:04Z</time>
      </trkpt>
      <trkpt lat="46.40066" lon="-0.24915">
        <ele>113.5</ele>
        <time>2020-05-31T08:28:05Z</time>
      </trkpt>
      <trkpt lat="46.40069" lon="-0.24923">
        <ele>113.2</ele>
        <time>2020-05-31T08:28:06Z</time>
      </trkpt>
      <trkpt lat="46.40072" lon="-0.24929">
        <ele>113</ele>
        <time>2020-05-31T08:28:07Z</time>
      </trkpt>
      <trkpt lat="46.40074" lon="-0.24935">
        <ele>112.8</ele>
        <time>2020-05-31T08:28:08Z</time>
      </trkpt>
      <trkpt lat="46.40076" lon="-0.2494">
        <ele>112.7</ele>
        <time>2020-05-31T08:28:09Z</time>
      </trkpt>
      <trkpt lat="46.40079" lon="-0.24945">
        <ele>112.5</ele>
        <time>2020-05-31T08:28:10Z</time>
      </trkpt>
      <trkpt lat="46.4008" lon="-0.24948">
        <ele>112.4</ele>
        <time>2020-05-31T08:28:11Z</time>
      </trkpt>
      <trkpt lat="46.40083" lon="-0.24953">
        <ele>112.3</ele>
        <time>2020-05-31T08:28:12Z</time>
      </trkpt>
      <trkpt lat="46.40085" lon="-0.24956">
        <ele>112.1</ele>
        <time>2020-05-31T08:28:13Z</time>
      </trkpt>
      <trkpt lat="46.40089" lon="-0.2496">
        <ele>112</ele>
        <time>2020-05-31T08:28:14Z</time>
      </trkpt>
      <trkpt lat="46.40092" lon="-0.24963">
        <ele>111.7</ele>
        <time>2020-05-31T08:28:15Z</time>
      </trkpt>
      <trkpt lat="46.40095" lon="-0.24966">
        <ele>111.7</ele>
        <time>2020-05-31T08:28:16Z</time>
      </trkpt>
      <trkpt lat="46.40098" lon="-0.24968">
        <ele>111.6</ele>
        <time>2020-05-31T08:28:17Z</time>
      </trkpt>
      <trkpt lat="46.40104" lon="-0.24973">
        <ele>111.5</ele>
        <time>2020-05-31T08:28:18Z</time>
      </trkpt>
      <trkpt lat="46.40109" lon="-0.24976">
        <ele>111.4</ele>
        <time>2020-05-31T08:28:19Z</time>
      </trkpt>
      <trkpt lat="46.40113" lon="-0.24979">
        <ele>111.4</ele>
        <time>2020-05-31T08:28:20Z</time>
      </trkpt>
      <trkpt lat="46.40116" lon="-0.24981">
        <ele>111.3</ele>
        <time>2020-05-31T08:28:21Z</time>
      </trkpt>
      <trkpt lat="46.4012" lon="-0.24983">
        <ele>111.3</ele>
        <time>2020-05-31T08:28:22Z</time>
      </trkpt>
      <trkpt lat="46.40123" lon="-0.24986">
        <ele>111.3</ele>
        <time>2020-05-31T08:28:23Z</time>
      </trkpt>
      <trkpt lat="46.40126" lon="-0.24987">
        <ele>111.3</ele>
        <time>2020-05-31T08:28:24Z</time>
      </trkpt>
      <trkpt lat="46.40129" lon="-0.24987">
        <ele>111.3</ele>
        <time>2020-05-31T08:28:25Z</time>
      </trkpt>
      <trkpt lat="46.4013" lon="-0.24987">
        <ele>111.3</ele>
        <time>2020-05-31T08:28:26Z</time>
      </trkpt>
      <trkpt lat="46.40133" lon="-0.24987">
        <ele>111.3</ele>
        <time>2020-05-31T08:28:27Z</time>
      </trkpt>
      <trkpt lat="46.40134" lon="-0.24986">
        <ele>111.3</ele>
        <time>2020-05-31T08:28:28Z</time>
      </trkpt>
      <trkpt lat="46.40137" lon="-0.24986">
        <ele>111.3</ele>
        <time>2020-05-31T08:28:29Z</time>
      </trkpt>
      <trkpt lat="46.40138" lon="-0.24986">
        <ele>111.3</ele>
        <time>2020-05-31T08:28:30Z</time>
      </trkpt>
      <trkpt lat="46.40139" lon="-0.24986">
        <ele>111.3</ele>
        <time>2020-05-31T08:28:31Z</time>
      </trkpt>
      <trkpt lat="46.40138" lon="-0.24986">
        <ele>111.3</ele>
        <time>2020-05-31T08:28:32Z</time>
      </trkpt>
      <trkpt lat="46.40139" lon="-0.24986">
        <ele>111.3</ele>
        <time>2020-05-31T08:28:33Z</time>
      </trkpt>
      <trkpt lat="46.40136" lon="-0.24986">
        <ele>111.3</ele>
        <time>2020-05-31T08:28:34Z</time>
      </trkpt>
      <trkpt lat="46.40136" lon="-0.24986">
        <ele>111.3</ele>
        <time>2020-05-31T08:28:35Z</time>
      </trkpt>
      <trkpt lat="46.40136" lon="-0.24986">
        <ele>111.3</ele>
        <time>2020-05-31T08:28:36Z</time>
      </trkpt>
      <trkpt lat="46.40136" lon="-0.24986">
        <ele>111.3</ele>
        <time>2020-05-31T08:28:37Z</time>
      </trkpt>
      <trkpt lat="46.40136" lon="-0.24986">
        <ele>111.3</ele>
        <time>2020-05-31T08:28:38Z</time>
      </trkpt>
      <trkpt lat="46.40136" lon="-0.24987">
        <ele>111.3</ele>
        <time>2020-05-31T08:28:39Z</time>
      </trkpt>
      <trkpt lat="46.40137" lon="-0.24987">
        <ele>111.3</ele>
        <time>2020-05-31T08:28:40Z</time>
      </trkpt>
      <trkpt lat="46.40137" lon="-0.24987">
        <ele>111.3</ele>
        <time>2020-05-31T08:28:41Z</time>
      </trkpt>
      <trkpt lat="46.40137" lon="-0.24987">
        <ele>111.3</ele>
        <time>2020-05-31T08:28:42Z</time>
      </trkpt>
      <trkpt lat="46.40137" lon="-0.24987">
        <ele>111.3</ele>
        <time>2020-05-31T08:28:43Z</time>
      </trkpt>
      <trkpt lat="46.40137" lon="-0.24987">
        <ele>111.3</ele>
        <time>2020-05-31T08:28:44Z</time>
      </trkpt>
      <trkpt lat="46.40138" lon="-0.24988">
        <ele>111.3</ele>
        <time>2020-05-31T08:28:45Z</time>
      </trkpt>
      <trkpt lat="46.40138" lon="-0.24988">
        <ele>111.3</ele>
        <time>2020-05-31T08:28:46Z</time>
      </trkpt>
      <trkpt lat="46.40138" lon="-0.24989">
        <ele>111.3</ele>
        <time>2020-05-31T08:28:47Z</time>
      </trkpt>
      <trkpt lat="46.40138" lon="-0.24988">
        <ele>111.3</ele>
        <time>2020-05-31T08:28:48Z</time>
      </trkpt>
      <trkpt lat="46.40137" lon="-0.24988">
        <ele>111.3</ele>
        <time>2020-05-31T08:28:49Z</time>
      </trkpt>
      <trkpt lat="46.40137" lon="-0.24988">
        <ele>111.3</ele>
        <time>2020-05-31T08:28:50Z</time>
      </trkpt>
      <trkpt lat="46.40137" lon="-0.24988">
        <ele>111.3</ele>
        <time>2020-05-31T08:28:51Z</time>
      </trkpt>
      <trkpt lat="46.40137" lon="-0.24987">
        <ele>111.3</ele>
        <time>2020-05-31T08:28:52Z</time>
      </trkpt>
      <trkpt lat="46.40137" lon="-0.24987">
        <ele>111.3</ele>
        <time>2020-05-31T08:28:53Z</time>
      </trkpt>
      <trkpt lat="46.40137" lon="-0.24987">
        <ele>111.3</ele>
        <time>2020-05-31T08:28:54Z</time>
      </trkpt>
      <trkpt lat="46.40137" lon="-0.24987">
        <ele>111.3</ele>
        <time>2020-05-31T08:28:55Z</time>
      </trkpt>
      <trkpt lat="46.40137" lon="-0.24988">
        <ele>111.3</ele>
        <time>2020-05-31T08:28:56Z</time>
      </trkpt>
      <trkpt lat="46.40135" lon="-0.24987">
        <ele>111.3</ele>
        <time>2020-05-31T08:28:57Z</time>
      </trkpt>
      <trkpt lat="46.40135" lon="-0.24987">
        <ele>111.3</ele>
        <time>2020-05-31T08:28:58Z</time>
      </trkpt>
      <trkpt lat="46.40135" lon="-0.24986">
        <ele>111.3</ele>
        <time>2020-05-31T08:28:59Z</time>
      </trkpt>
      <trkpt lat="46.40136" lon="-0.24987">
        <ele>111.3</ele>
        <time>2020-05-31T08:29:00Z</time>
      </trkpt>
      <trkpt lat="46.40136" lon="-0.24987">
        <ele>111.3</ele>
        <time>2020-05-31T08:29:01Z</time>
      </trkpt>
      <trkpt lat="46.40137" lon="-0.24987">
        <ele>111.3</ele>
        <time>2020-05-31T08:29:02Z</time>
      </trkpt>
      <trkpt lat="46.40137" lon="-0.24987">
        <ele>111.3</ele>
        <time>2020-05-31T08:29:03Z</time>
      </trkpt>
      <trkpt lat="46.40137" lon="-0.24987">
        <ele>111.3</ele>
        <time>2020-05-31T08:29:04Z</time>
      </trkpt>
      <trkpt lat="46.40137" lon="-0.24987">
        <ele>111.3</ele>
        <time>2020-05-31T08:29:05Z</time>
      </trkpt>
      <trkpt lat="46.40137" lon="-0.24987">
        <ele>111.3</ele>
        <time>2020-05-31T08:29:06Z</time>
      </trkpt>
      <trkpt lat="46.40137" lon="-0.24987">
        <ele>111.3</ele>
        <time>2020-05-31T08:29:07Z</time>
      </trkpt>
      <trkpt lat="46.40136" lon="-0.24987">
        <ele>111.3</ele>
        <time>2020-05-31T08:29:08Z</time>
      </trkpt>
      <trkpt lat="46.40136" lon="-0.24986">
        <ele>111.3</ele>
        <time>2020-05-31T08:29:09Z</time>
      </trkpt>
      <trkpt lat="46.40136" lon="-0.24987">
        <ele>111.3</ele>
        <time>2020-05-31T08:29:10Z</time>
      </trkpt>
      <trkpt lat="46.40136" lon="-0.24987">
        <ele>111.3</ele>
        <time>2020-05-31T08:29:11Z</time>
      </trkpt>
      <trkpt lat="46.40135" lon="-0.24987">
        <ele>111.3</ele>
        <time>2020-05-31T08:29:12Z</time>
      </trkpt>
      <trkpt lat="46.40136" lon="-0.24987">
        <ele>111.3</ele>
        <time>2020-05-31T08:29:13Z</time>
      </trkpt>
      <trkpt lat="46.40136" lon="-0.24987">
        <ele>111.3</ele>
        <time>2020-05-31T08:29:14Z</time>
      </trkpt>
      <trkpt lat="46.40136" lon="-0.24987">
        <ele>111.3</ele>
        <time>2020-05-31T08:29:15Z</time>
      </trkpt>
      <trkpt lat="46.40136" lon="-0.24986">
        <ele>111.3</ele>
        <time>2020-05-31T08:29:16Z</time>
      </trkpt>
      <trkpt lat="46.40136" lon="-0.24986">
        <ele>111.3</ele>
        <time>2020-05-31T08:29:17Z</time>
      </trkpt>
      <trkpt lat="46.40137" lon="-0.24986">
        <ele>111.3</ele>
        <time>2020-05-31T08:29:18Z</time>
      </trkpt>
      <trkpt lat="46.40136" lon="-0.24985">
        <ele>111.3</ele>
        <time>2020-05-31T08:29:19Z</time>
      </trkpt>
      <trkpt lat="46.40136" lon="-0.24985">
        <ele>111.3</ele>
        <time>2020-05-31T08:29:20Z</time>
      </trkpt>
      <trkpt lat="46.40136" lon="-0.24985">
        <ele>111.3</ele>
        <time>2020-05-31T08:29:21Z</time>
      </trkpt>
      <trkpt lat="46.40136" lon="-0.24985">
        <ele>111.3</ele>
        <time>2020-05-31T08:29:22Z</time>
      </trkpt>
      <trkpt lat="46.40136" lon="-0.24985">
        <ele>111.3</ele>
        <time>2020-05-31T08:29:23Z</time>
      </trkpt>
      <trkpt lat="46.40137" lon="-0.24984">
        <ele>111.3</ele>
        <time>2020-05-31T08:29:24Z</time>
      </trkpt>
      <trkpt lat="46.40137" lon="-0.24983">
        <ele>111.3</ele>
        <time>2020-05-31T08:29:25Z</time>
      </trkpt>
      <trkpt lat="46.40137" lon="-0.24983">
        <ele>111.3</ele>
        <time>2020-05-31T08:29:26Z</time>
      </trkpt>
      <trkpt lat="46.40137" lon="-0.24982">
        <ele>111.3</ele>
        <time>2020-05-31T08:29:27Z</time>
      </trkpt>
      <trkpt lat="46.40138" lon="-0.24982">
        <ele>111.3</ele>
        <time>2020-05-31T08:29:28Z</time>
      </trkpt>
      <trkpt lat="46.40138" lon="-0.24981">
        <ele>111.3</ele>
        <time>2020-05-31T08:29:29Z</time>
      </trkpt>
      <trkpt lat="46.40139" lon="-0.2498">
        <ele>111.3</ele>
        <time>2020-05-31T08:29:30Z</time>
      </trkpt>
      <trkpt lat="46.40139" lon="-0.2498">
        <ele>111.3</ele>
        <time>2020-05-31T08:29:31Z</time>
      </trkpt>
      <trkpt lat="46.40139" lon="-0.2498">
        <ele>111.3</ele>
        <time>2020-05-31T08:29:32Z</time>
      </trkpt>
      <trkpt lat="46.40139" lon="-0.2498">
        <ele>111.3</ele>
        <time>2020-05-31T08:29:33Z</time>
      </trkpt>
      <trkpt lat="46.40139" lon="-0.2498">
        <ele>111.3</ele>
        <time>2020-05-31T08:29:34Z</time>
      </trkpt>
      <trkpt lat="46.40139" lon="-0.24979">
        <ele>111.3</ele>
        <time>2020-05-31T08:29:35Z</time>
      </trkpt>
      <trkpt lat="46.40139" lon="-0.2498">
        <ele>111.3</ele>
        <time>2020-05-31T08:29:36Z</time>
      </trkpt>
      <trkpt lat="46.40139" lon="-0.2498">
        <ele>111.3</ele>
        <time>2020-05-31T08:29:37Z</time>
      </trkpt>
      <trkpt lat="46.40139" lon="-0.2498">
        <ele>111.3</ele>
        <time>2020-05-31T08:29:38Z</time>
      </trkpt>
      <trkpt lat="46.4014" lon="-0.24981">
        <ele>111.3</ele>
        <time>2020-05-31T08:29:39Z</time>
      </trkpt>
      <trkpt lat="46.4014" lon="-0.24981">
        <ele>111.3</ele>
        <time>2020-05-31T08:29:40Z</time>
      </trkpt>
      <trkpt lat="46.4014" lon="-0.2498">
        <ele>111.3</ele>
        <time>2020-05-31T08:29:41Z</time>
      </trkpt>
      <trkpt lat="46.40139" lon="-0.24979">
        <ele>111.3</ele>
        <time>2020-05-31T08:29:42Z</time>
      </trkpt>
      <trkpt lat="46.40137" lon="-0.24979">
        <ele>111.3</ele>
        <time>2020-05-31T08:29:43Z</time>
      </trkpt>
      <trkpt lat="46.40135" lon="-0.24978">
        <ele>111.3</ele>
        <time>2020-05-31T08:29:44Z</time>
      </trkpt>
      <trkpt lat="46.40134" lon="-0.2498">
        <ele>111.3</ele>
        <time>2020-05-31T08:29:45Z</time>
      </trkpt>
      <trkpt lat="46.40133" lon="-0.2498">
        <ele>111.3</ele>
        <time>2020-05-31T08:29:46Z</time>
      </trkpt>
      <trkpt lat="46.40131" lon="-0.24981">
        <ele>111.3</ele>
        <time>2020-05-31T08:29:47Z</time>
      </trkpt>
      <trkpt lat="46.4013" lon="-0.24981">
        <ele>111.3</ele>
        <time>2020-05-31T08:29:48Z</time>
      </trkpt>
      <trkpt lat="46.40128" lon="-0.24983">
        <ele>111.3</ele>
        <time>2020-05-31T08:29:49Z</time>
      </trkpt>
      <trkpt lat="46.40127" lon="-0.24983">
        <ele>111.3</ele>
        <time>2020-05-31T08:29:50Z</time>
      </trkpt>
      <trkpt lat="46.40127" lon="-0.24983">
        <ele>111.3</ele>
        <time>2020-05-31T08:29:51Z</time>
      </trkpt>
      <trkpt lat="46.40127" lon="-0.24983">
        <ele>111.3</ele>
        <time>2020-05-31T08:29:52Z</time>
      </trkpt>
      <trkpt lat="46.40127" lon="-0.24983">
        <ele>111.4</ele>
        <time>2020-05-31T08:29:53Z</time>
      </trkpt>
      <trkpt lat="46.40127" lon="-0.24983">
        <ele>111.4</ele>
        <time>2020-05-31T08:29:54Z</time>
      </trkpt>
      <trkpt lat="46.40127" lon="-0.24983">
        <ele>111.4</ele>
        <time>2020-05-31T08:29:55Z</time>
      </trkpt>
      <trkpt lat="46.40128" lon="-0.24983">
        <ele>111.4</ele>
        <time>2020-05-31T08:29:56Z</time>
      </trkpt>
      <trkpt lat="46.40128" lon="-0.24983">
        <ele>111.4</ele>
        <time>2020-05-31T08:29:57Z</time>
      </trkpt>
      <trkpt lat="46.40128" lon="-0.24983">
        <ele>111.4</ele>
        <time>2020-05-31T08:29:58Z</time>
      </trkpt>
      <trkpt lat="46.40128" lon="-0.24983">
        <ele>111.4</ele>
        <time>2020-05-31T08:29:59Z</time>
      </trkpt>
      <trkpt lat="46.40128" lon="-0.24983">
        <ele>111.4</ele>
        <time>2020-05-31T08:30:00Z</time>
      </trkpt>
      <trkpt lat="46.40129" lon="-0.24983">
        <ele>111.4</ele>
        <time>2020-05-31T08:30:01Z</time>
      </trkpt>
      <trkpt lat="46.40129" lon="-0.24983">
        <ele>111.4</ele>
        <time>2020-05-31T08:30:02Z</time>
      </trkpt>
      <trkpt lat="46.40129" lon="-0.24983">
        <ele>111.4</ele>
        <time>2020-05-31T08:30:03Z</time>
      </trkpt>
      <trkpt lat="46.40129" lon="-0.24983">
        <ele>111.4</ele>
        <time>2020-05-31T08:30:04Z</time>
      </trkpt>
      <trkpt lat="46.40129" lon="-0.24983">
        <ele>111.4</ele>
        <time>2020-05-31T08:30:05Z</time>
      </trkpt>
      <trkpt lat="46.4013" lon="-0.24983">
        <ele>111.4</ele>
        <time>2020-05-31T08:30:06Z</time>
      </trkpt>
      <trkpt lat="46.4013" lon="-0.24982">
        <ele>111.4</ele>
        <time>2020-05-31T08:30:07Z</time>
      </trkpt>
      <trkpt lat="46.4013" lon="-0.24982">
        <ele>111.4</ele>
        <time>2020-05-31T08:30:08Z</time>
      </trkpt>
      <trkpt lat="46.4013" lon="-0.24982">
        <ele>111.4</ele>
        <time>2020-05-31T08:30:09Z</time>
      </trkpt>
      <trkpt lat="46.4013" lon="-0.24982">
        <ele>111.4</ele>
        <time>2020-05-31T08:30:10Z</time>
      </trkpt>
      <trkpt lat="46.40131" lon="-0.24982">
        <ele>111.4</ele>
        <time>2020-05-31T08:30:11Z</time>
      </trkpt>
      <trkpt lat="46.40131" lon="-0.24982">
        <ele>111.4</ele>
        <time>2020-05-31T08:30:12Z</time>
      </trkpt>
      <trkpt lat="46.40132" lon="-0.24982">
        <ele>111.4</ele>
        <time>2020-05-31T08:30:13Z</time>
      </trkpt>
      <trkpt lat="46.40134" lon="-0.24981">
        <ele>111.4</ele>
        <time>2020-05-31T08:30:14Z</time>
      </trkpt>
      <trkpt lat="46.40135" lon="-0.24981">
        <ele>111.4</ele>
        <time>2020-05-31T08:30:15Z</time>
      </trkpt>
      <trkpt lat="46.40136" lon="-0.2498">
        <ele>111.4</ele>
        <time>2020-05-31T08:30:16Z</time>
      </trkpt>
      <trkpt lat="46.40136" lon="-0.2498">
        <ele>111.4</ele>
        <time>2020-05-31T08:30:17Z</time>
      </trkpt>
      <trkpt lat="46.40136" lon="-0.2498">
        <ele>111.4</ele>
        <time>2020-05-31T08:30:18Z</time>
      </trkpt>
      <trkpt lat="46.40136" lon="-0.24979">
        <ele>111.4</ele>
        <time>2020-05-31T08:30:19Z</time>
      </trkpt>
      <trkpt lat="46.40136" lon="-0.24979">
        <ele>111.4</ele>
        <time>2020-05-31T08:30:20Z</time>
      </trkpt>
      <trkpt lat="46.40136" lon="-0.24979">
        <ele>111.4</ele>
        <time>2020-05-31T08:30:21Z</time>
      </trkpt>
      <trkpt lat="46.40136" lon="-0.24979">
        <ele>111.4</ele>
        <time>2020-05-31T08:30:22Z</time>
      </trkpt>
      <trkpt lat="46.40136" lon="-0.24979">
        <ele>111.4</ele>
        <time>2020-05-31T08:30:23Z</time>
      </trkpt>
      <trkpt lat="46.40136" lon="-0.24979">
        <ele>111.4</ele>
        <time>2020-05-31T08:30:24Z</time>
      </trkpt>
      <trkpt lat="46.40136" lon="-0.2498">
        <ele>111.4</ele>
        <time>2020-05-31T08:30:25Z</time>
      </trkpt>
      <trkpt lat="46.40136" lon="-0.2498">
        <ele>111.4</ele>
        <time>2020-05-31T08:30:26Z</time>
      </trkpt>
      <trkpt lat="46.40137" lon="-0.24981">
        <ele>111.4</ele>
        <time>2020-05-31T08:30:27Z</time>
      </trkpt>
      <trkpt lat="46.40137" lon="-0.24981">
        <ele>111.4</ele>
        <time>2020-05-31T08:30:28Z</time>
      </trkpt>
      <trkpt lat="46.40137" lon="-0.24981">
        <ele>111.4</ele>
        <time>2020-05-31T08:30:29Z</time>
      </trkpt>
      <trkpt lat="46.40137" lon="-0.24981">
        <ele>111.4</ele>
        <time>2020-05-31T08:30:30Z</time>
      </trkpt>
      <trkpt lat="46.40137" lon="-0.24981">
        <ele>111.4</ele>
        <time>2020-05-31T08:30:31Z</time>
      </trkpt>
      <trkpt lat="46.40137" lon="-0.24981">
        <ele>111.4</ele>
        <time>2020-05-31T08:30:32Z</time>
      </trkpt>
      <trkpt lat="46.40137" lon="-0.24981">
        <ele>111.4</ele>
        <time>2020-05-31T08:30:33Z</time>
      </trkpt>
      <trkpt lat="46.40137" lon="-0.24981">
        <ele>111.4</ele>
        <time>2020-05-31T08:30:34Z</time>
      </trkpt>
      <trkpt lat="46.40137" lon="-0.24981">
        <ele>111.4</ele>
        <time>2020-05-31T08:30:35Z</time>
      </trkpt>
      <trkpt lat="46.40137" lon="-0.24981">
        <ele>111.4</ele>
        <time>2020-05-31T08:30:36Z</time>
      </trkpt>
      <trkpt lat="46.40137" lon="-0.24981">
        <ele>111.4</ele>
        <time>2020-05-31T08:30:37Z</time>
      </trkpt>
      <trkpt lat="46.40137" lon="-0.24981">
        <ele>111.4</ele>
        <time>2020-05-31T08:30:38Z</time>
      </trkpt>
      <trkpt lat="46.40137" lon="-0.24981">
        <ele>111.4</ele>
        <time>2020-05-31T08:30:39Z</time>
      </trkpt>
      <trkpt lat="46.40137" lon="-0.24981">
        <ele>111.4</ele>
        <time>2020-05-31T08:30:40Z</time>
      </trkpt>
      <trkpt lat="46.40137" lon="-0.24981">
        <ele>111.4</ele>
        <time>2020-05-31T08:30:41Z</time>
      </trkpt>
      <trkpt lat="46.40138" lon="-0.24982">
        <ele>111.4</ele>
        <time>2020-05-31T08:30:42Z</time>
      </trkpt>
      <trkpt lat="46.40138" lon="-0.24983">
        <ele>111.4</ele>
        <time>2020-05-31T08:30:43Z</time>
      </trkpt>
      <trkpt lat="46.40139" lon="-0.24984">
        <ele>111.4</ele>
        <time>2020-05-31T08:30:44Z</time>
      </trkpt>
      <trkpt lat="46.40138" lon="-0.24985">
        <ele>111.4</ele>
        <time>2020-05-31T08:30:45Z</time>
      </trkpt>
      <trkpt lat="46.40138" lon="-0.24986">
        <ele>111.4</ele>
        <time>2020-05-31T08:30:46Z</time>
      </trkpt>
      <trkpt lat="46.40137" lon="-0.24986">
        <ele>111.4</ele>
        <time>2020-05-31T08:30:47Z</time>
      </trkpt>
      <trkpt lat="46.40136" lon="-0.24986">
        <ele>111.4</ele>
        <time>2020-05-31T08:30:48Z</time>
      </trkpt>
      <trkpt lat="46.40136" lon="-0.24987">
        <ele>111.4</ele>
        <time>2020-05-31T08:30:49Z</time>
      </trkpt>
      <trkpt lat="46.40136" lon="-0.24987">
        <ele>111.4</ele>
        <time>2020-05-31T08:30:50Z</time>
      </trkpt>
      <trkpt lat="46.40135" lon="-0.24986">
        <ele>111.4</ele>
        <time>2020-05-31T08:30:51Z</time>
      </trkpt>
      <trkpt lat="46.40134" lon="-0.24985">
        <ele>111.4</ele>
        <time>2020-05-31T08:30:52Z</time>
      </trkpt>
      <trkpt lat="46.40133" lon="-0.24984">
        <ele>111.4</ele>
        <time>2020-05-31T08:30:53Z</time>
      </trkpt>
      <trkpt lat="46.40132" lon="-0.24984">
        <ele>111.4</ele>
        <time>2020-05-31T08:30:54Z</time>
      </trkpt>
      <trkpt lat="46.40131" lon="-0.24984">
        <ele>111.4</ele>
        <time>2020-05-31T08:30:55Z</time>
      </trkpt>
      <trkpt lat="46.4013" lon="-0.24984">
        <ele>111.4</ele>
        <time>2020-05-31T08:30:56Z</time>
      </trkpt>
      <trkpt lat="46.40127" lon="-0.24986">
        <ele>111.4</ele>
        <time>2020-05-31T08:30:57Z</time>
      </trkpt>
      <trkpt lat="46.40124" lon="-0.24989">
        <ele>111.4</ele>
        <time>2020-05-31T08:30:58Z</time>
      </trkpt>
      <trkpt lat="46.40124" lon="-0.24991">
        <ele>111.4</ele>
        <time>2020-05-31T08:30:59Z</time>
      </trkpt>
      <trkpt lat="46.40122" lon="-0.24994">
        <ele>111.4</ele>
        <time>2020-05-31T08:31:00Z</time>
      </trkpt>
      <trkpt lat="46.4012" lon="-0.24997">
        <ele>111.4</ele>
        <time>2020-05-31T08:31:01Z</time>
      </trkpt>
      <trkpt lat="46.40119" lon="-0.24999">
        <ele>111.4</ele>
        <time>2020-05-31T08:31:02Z</time>
      </trkpt>
      <trkpt lat="46.40118" lon="-0.25003">
        <ele>111.5</ele>
        <time>2020-05-31T08:31:03Z</time>
      </trkpt>
      <trkpt lat="46.40117" lon="-0.25007">
        <ele>111.5</ele>
        <time>2020-05-31T08:31:04Z</time>
      </trkpt>
      <trkpt lat="46.40116" lon="-0.25011">
        <ele>111.5</ele>
        <time>2020-05-31T08:31:05Z</time>
      </trkpt>
      <trkpt lat="46.40115" lon="-0.25016">
        <ele>111.5</ele>
        <time>2020-05-31T08:31:06Z</time>
      </trkpt>
      <trkpt lat="46.40114" lon="-0.25022">
        <ele>111.5</ele>
        <time>2020-05-31T08:31:07Z</time>
      </trkpt>
      <trkpt lat="46.40114" lon="-0.25028">
        <ele>111.5</ele>
        <time>2020-05-31T08:31:08Z</time>
      </trkpt>
      <trkpt lat="46.40112" lon="-0.25035">
        <ele>111.6</ele>
        <time>2020-05-31T08:31:09Z</time>
      </trkpt>
      <trkpt lat="46.40111" lon="-0.25041">
        <ele>111.6</ele>
        <time>2020-05-31T08:31:10Z</time>
      </trkpt>
      <trkpt lat="46.4011" lon="-0.25046">
        <ele>111.6</ele>
        <time>2020-05-31T08:31:11Z</time>
      </trkpt>
      <trkpt lat="46.40108" lon="-0.25052">
        <ele>111.6</ele>
        <time>2020-05-31T08:31:12Z</time>
      </trkpt>
      <trkpt lat="46.40105" lon="-0.25056">
        <ele>111.6</ele>
        <time>2020-05-31T08:31:13Z</time>
      </trkpt>
      <trkpt lat="46.40101" lon="-0.2506">
        <ele>111.6</ele>
        <time>2020-05-31T08:31:14Z</time>
      </trkpt>
      <trkpt lat="46.40096" lon="-0.25063">
        <ele>111.7</ele>
        <time>2020-05-31T08:31:15Z</time>
      </trkpt>
      <trkpt lat="46.40092" lon="-0.25064">
        <ele>111.7</ele>
        <time>2020-05-31T08:31:16Z</time>
      </trkpt>
      <trkpt lat="46.40088" lon="-0.25065">
        <ele>111.7</ele>
        <time>2020-05-31T08:31:17Z</time>
      </trkpt>
      <trkpt lat="46.40084" lon="-0.25065">
        <ele>111.7</ele>
        <time>2020-05-31T08:31:18Z</time>
      </trkpt>
      <trkpt lat="46.40079" lon="-0.25065">
        <ele>111.7</ele>
        <time>2020-05-31T08:31:19Z</time>
      </trkpt>
      <trkpt lat="46.40074" lon="-0.25066">
        <ele>111.7</ele>
        <time>2020-05-31T08:31:20Z</time>
      </trkpt>
      <trkpt lat="46.40069" lon="-0.25067">
        <ele>111.7</ele>
        <time>2020-05-31T08:31:21Z</time>
      </trkpt>
      <trkpt lat="46.40066" lon="-0.25067">
        <ele>111.7</ele>
        <time>2020-05-31T08:31:22Z</time>
      </trkpt>
      <trkpt lat="46.40062" lon="-0.25068">
        <ele>111.7</ele>
        <time>2020-05-31T08:31:23Z</time>
      </trkpt>
      <trkpt lat="46.40059" lon="-0.25069">
        <ele>111.7</ele>
        <time>2020-05-31T08:31:24Z</time>
      </trkpt>
      <trkpt lat="46.40055" lon="-0.2507">
        <ele>111.7</ele>
        <time>2020-05-31T08:31:25Z</time>
      </trkpt>
      <trkpt lat="46.40051" lon="-0.2507">
        <ele>111.7</ele>
        <time>2020-05-31T08:31:26Z</time>
      </trkpt>
      <trkpt lat="46.40047" lon="-0.2507">
        <ele>111.7</ele>
        <time>2020-05-31T08:31:27Z</time>
      </trkpt>
      <trkpt lat="46.40043" lon="-0.25071">
        <ele>111.7</ele>
        <time>2020-05-31T08:31:28Z</time>
      </trkpt>
      <trkpt lat="46.4004" lon="-0.25073">
        <ele>111.7</ele>
        <time>2020-05-31T08:31:29Z</time>
      </trkpt>
      <trkpt lat="46.40037" lon="-0.25076">
        <ele>111.7</ele>
        <time>2020-05-31T08:31:30Z</time>
      </trkpt>
      <trkpt lat="46.40035" lon="-0.25082">
        <ele>111.7</ele>
        <time>2020-05-31T08:31:31Z</time>
      </trkpt>
      <trkpt lat="46.40033" lon="-0.25088">
        <ele>111.6</ele>
        <time>2020-05-31T08:31:32Z</time>
      </trkpt>
      <trkpt lat="46.40031" lon="-0.25094">
        <ele>111.6</ele>
        <time>2020-05-31T08:31:33Z</time>
      </trkpt>
      <trkpt lat="46.4003" lon="-0.251">
        <ele>111.6</ele>
        <time>2020-05-31T08:31:34Z</time>
      </trkpt>
      <trkpt lat="46.40027" lon="-0.25105">
        <ele>111.5</ele>
        <time>2020-05-31T08:31:35Z</time>
      </trkpt>
      <trkpt lat="46.40024" lon="-0.2511">
        <ele>111.5</ele>
        <time>2020-05-31T08:31:36Z</time>
      </trkpt>
      <trkpt lat="46.4002" lon="-0.25113">
        <ele>111.4</ele>
        <time>2020-05-31T08:31:37Z</time>
      </trkpt>
      <trkpt lat="46.40015" lon="-0.25116">
        <ele>111.3</ele>
        <time>2020-05-31T08:31:38Z</time>
      </trkpt>
      <trkpt lat="46.4001" lon="-0.25119">
        <ele>111.2</ele>
        <time>2020-05-31T08:31:39Z</time>
      </trkpt>
      <trkpt lat="46.40005" lon="-0.25122">
        <ele>111.1</ele>
        <time>2020-05-31T08:31:40Z</time>
      </trkpt>
      <trkpt lat="46.4" lon="-0.25125">
        <ele>111</ele>
        <time>2020-05-31T08:31:41Z</time>
      </trkpt>
      <trkpt lat="46.39996" lon="-0.25127">
        <ele>111</ele>
        <time>2020-05-31T08:31:42Z</time>
      </trkpt>
      <trkpt lat="46.39991" lon="-0.2513">
        <ele>110.9</ele>
        <time>2020-05-31T08:31:43Z</time>
      </trkpt>
      <trkpt lat="46.39987" lon="-0.25133">
        <ele>110.9</ele>
        <time>2020-05-31T08:31:44Z</time>
      </trkpt>
      <trkpt lat="46.39982" lon="-0.25136">
        <ele>110.6</ele>
        <time>2020-05-31T08:31:45Z</time>
      </trkpt>
      <trkpt lat="46.39978" lon="-0.25138">
        <ele>110.2</ele>
        <time>2020-05-31T08:31:46Z</time>
      </trkpt>
      <trkpt lat="46.39974" lon="-0.2514">
        <ele>109.9</ele>
        <time>2020-05-31T08:31:47Z</time>
      </trkpt>
      <trkpt lat="46.3997" lon="-0.25142">
        <ele>109.6</ele>
        <time>2020-05-31T08:31:48Z</time>
      </trkpt>
      <trkpt lat="46.39967" lon="-0.25147">
        <ele>109.3</ele>
        <time>2020-05-31T08:31:49Z</time>
      </trkpt>
      <trkpt lat="46.39964" lon="-0.25153">
        <ele>108.8</ele>
        <time>2020-05-31T08:31:50Z</time>
      </trkpt>
      <trkpt lat="46.39962" lon="-0.25161">
        <ele>108.6</ele>
        <time>2020-05-31T08:31:51Z</time>
      </trkpt>
      <trkpt lat="46.39961" lon="-0.25171">
        <ele>108.2</ele>
        <time>2020-05-31T08:31:52Z</time>
      </trkpt>
      <trkpt lat="46.39962" lon="-0.25181">
        <ele>107.7</ele>
        <time>2020-05-31T08:31:53Z</time>
      </trkpt>
      <trkpt lat="46.39963" lon="-0.25191">
        <ele>107.3</ele>
        <time>2020-05-31T08:31:54Z</time>
      </trkpt>
      <trkpt lat="46.39963" lon="-0.252">
        <ele>106.9</ele>
        <time>2020-05-31T08:31:55Z</time>
      </trkpt>
      <trkpt lat="46.39963" lon="-0.25208">
        <ele>106.6</ele>
        <time>2020-05-31T08:31:56Z</time>
      </trkpt>
      <trkpt lat="46.39964" lon="-0.25217">
        <ele>106.2</ele>
        <time>2020-05-31T08:31:57Z</time>
      </trkpt>
      <trkpt lat="46.39965" lon="-0.25227">
        <ele>105.8</ele>
        <time>2020-05-31T08:31:58Z</time>
      </trkpt>
      <trkpt lat="46.39966" lon="-0.25237">
        <ele>105.4</ele>
        <time>2020-05-31T08:31:59Z</time>
      </trkpt>
      <trkpt lat="46.39967" lon="-0.25247">
        <ele>104.9</ele>
        <time>2020-05-31T08:32:00Z</time>
      </trkpt>
      <trkpt lat="46.39968" lon="-0.25258">
        <ele>104.5</ele>
        <time>2020-05-31T08:32:01Z</time>
      </trkpt>
      <trkpt lat="46.39969" lon="-0.2527">
        <ele>104.1</ele>
        <time>2020-05-31T08:32:02Z</time>
      </trkpt>
      <trkpt lat="46.3997" lon="-0.25282">
        <ele>103.8</ele>
        <time>2020-05-31T08:32:03Z</time>
      </trkpt>
      <trkpt lat="46.39972" lon="-0.25293">
        <ele>103.6</ele>
        <time>2020-05-31T08:32:04Z</time>
      </trkpt>
      <trkpt lat="46.39974" lon="-0.25304">
        <ele>103.3</ele>
        <time>2020-05-31T08:32:05Z</time>
      </trkpt>
      <trkpt lat="46.39977" lon="-0.25316">
        <ele>102.9</ele>
        <time>2020-05-31T08:32:06Z</time>
      </trkpt>
      <trkpt lat="46.39981" lon="-0.25327">
        <ele>102.6</ele>
        <time>2020-05-31T08:32:07Z</time>
      </trkpt>
      <trkpt lat="46.39984" lon="-0.25338">
        <ele>102.2</ele>
        <time>2020-05-31T08:32:08Z</time>
      </trkpt>
      <trkpt lat="46.39988" lon="-0.25349">
        <ele>101.9</ele>
        <time>2020-05-31T08:32:09Z</time>
      </trkpt>
      <trkpt lat="46.39992" lon="-0.2536">
        <ele>101.6</ele>
        <time>2020-05-31T08:32:10Z</time>
      </trkpt>
      <trkpt lat="46.39995" lon="-0.25372">
        <ele>101.4</ele>
        <time>2020-05-31T08:32:11Z</time>
      </trkpt>
      <trkpt lat="46.39999" lon="-0.25383">
        <ele>101.3</ele>
        <time>2020-05-31T08:32:12Z</time>
      </trkpt>
      <trkpt lat="46.40002" lon="-0.25394">
        <ele>101.2</ele>
        <time>2020-05-31T08:32:13Z</time>
      </trkpt>
      <trkpt lat="46.40004" lon="-0.25405">
        <ele>101.1</ele>
        <time>2020-05-31T08:32:14Z</time>
      </trkpt>
      <trkpt lat="46.40006" lon="-0.25416">
        <ele>101.1</ele>
        <time>2020-05-31T08:32:15Z</time>
      </trkpt>
      <trkpt lat="46.40007" lon="-0.25427">
        <ele>101</ele>
        <time>2020-05-31T08:32:16Z</time>
      </trkpt>
      <trkpt lat="46.40008" lon="-0.25438">
        <ele>101</ele>
        <time>2020-05-31T08:32:17Z</time>
      </trkpt>
      <trkpt lat="46.40009" lon="-0.2545">
        <ele>100.9</ele>
        <time>2020-05-31T08:32:18Z</time>
      </trkpt>
      <trkpt lat="46.40009" lon="-0.25461">
        <ele>100.9</ele>
        <time>2020-05-31T08:32:19Z</time>
      </trkpt>
      <trkpt lat="46.40009" lon="-0.25471">
        <ele>100.9</ele>
        <time>2020-05-31T08:32:20Z</time>
      </trkpt>
      <trkpt lat="46.40009" lon="-0.25482">
        <ele>100.9</ele>
        <time>2020-05-31T08:32:21Z</time>
      </trkpt>
      <trkpt lat="46.4001" lon="-0.25493">
        <ele>100.9</ele>
        <time>2020-05-31T08:32:22Z</time>
      </trkpt>
      <trkpt lat="46.40011" lon="-0.25505">
        <ele>100.9</ele>
        <time>2020-05-31T08:32:23Z</time>
      </trkpt>
      <trkpt lat="46.40012" lon="-0.25516">
        <ele>100.9</ele>
        <time>2020-05-31T08:32:24Z</time>
      </trkpt>
      <trkpt lat="46.40011" lon="-0.25526">
        <ele>101</ele>
        <time>2020-05-31T08:32:25Z</time>
      </trkpt>
      <trkpt lat="46.40011" lon="-0.25537">
        <ele>101</ele>
        <time>2020-05-31T08:32:26Z</time>
      </trkpt>
      <trkpt lat="46.40012" lon="-0.25548">
        <ele>101</ele>
        <time>2020-05-31T08:32:27Z</time>
      </trkpt>
      <trkpt lat="46.40013" lon="-0.25559">
        <ele>101</ele>
        <time>2020-05-31T08:32:28Z</time>
      </trkpt>
      <trkpt lat="46.40013" lon="-0.25568">
        <ele>101</ele>
        <time>2020-05-31T08:32:29Z</time>
      </trkpt>
      <trkpt lat="46.40014" lon="-0.25578">
        <ele>101.1</ele>
        <time>2020-05-31T08:32:30Z</time>
      </trkpt>
      <trkpt lat="46.40015" lon="-0.25587">
        <ele>101.1</ele>
        <time>2020-05-31T08:32:31Z</time>
      </trkpt>
      <trkpt lat="46.40016" lon="-0.25595">
        <ele>101.2</ele>
        <time>2020-05-31T08:32:32Z</time>
      </trkpt>
      <trkpt lat="46.40016" lon="-0.25605">
        <ele>101.2</ele>
        <time>2020-05-31T08:32:33Z</time>
      </trkpt>
      <trkpt lat="46.40017" lon="-0.25613">
        <ele>101.3</ele>
        <time>2020-05-31T08:32:34Z</time>
      </trkpt>
      <trkpt lat="46.40019" lon="-0.25621">
        <ele>101.3</ele>
        <time>2020-05-31T08:32:35Z</time>
      </trkpt>
      <trkpt lat="46.4002" lon="-0.2563">
        <ele>101.3</ele>
        <time>2020-05-31T08:32:36Z</time>
      </trkpt>
      <trkpt lat="46.40022" lon="-0.25639">
        <ele>101.3</ele>
        <time>2020-05-31T08:32:37Z</time>
      </trkpt>
      <trkpt lat="46.40024" lon="-0.25647">
        <ele>101.3</ele>
        <time>2020-05-31T08:32:38Z</time>
      </trkpt>
      <trkpt lat="46.40026" lon="-0.25655">
        <ele>101.3</ele>
        <time>2020-05-31T08:32:39Z</time>
      </trkpt>
      <trkpt lat="46.40029" lon="-0.25663">
        <ele>101.4</ele>
        <time>2020-05-31T08:32:40Z</time>
      </trkpt>
      <trkpt lat="46.40031" lon="-0.25671">
        <ele>101.4</ele>
        <time>2020-05-31T08:32:41Z</time>
      </trkpt>
      <trkpt lat="46.40033" lon="-0.25678">
        <ele>101.5</ele>
        <time>2020-05-31T08:32:42Z</time>
      </trkpt>
      <trkpt lat="46.40034" lon="-0.25687">
        <ele>101.7</ele>
        <time>2020-05-31T08:32:43Z</time>
      </trkpt>
      <trkpt lat="46.40036" lon="-0.25695">
        <ele>101.8</ele>
        <time>2020-05-31T08:32:44Z</time>
      </trkpt>
      <trkpt lat="46.40037" lon="-0.25703">
        <ele>101.9</ele>
        <time>2020-05-31T08:32:45Z</time>
      </trkpt>
      <trkpt lat="46.40037" lon="-0.25711">
        <ele>102.1</ele>
        <time>2020-05-31T08:32:46Z</time>
      </trkpt>
      <trkpt lat="46.40036" lon="-0.25719">
        <ele>102.2</ele>
        <time>2020-05-31T08:32:47Z</time>
      </trkpt>
      <trkpt lat="46.40036" lon="-0.25727">
        <ele>102.3</ele>
        <time>2020-05-31T08:32:48Z</time>
      </trkpt>
      <trkpt lat="46.40037" lon="-0.25735">
        <ele>102.4</ele>
        <time>2020-05-31T08:32:49Z</time>
      </trkpt>
      <trkpt lat="46.40038" lon="-0.25743">
        <ele>102.5</ele>
        <time>2020-05-31T08:32:50Z</time>
      </trkpt>
      <trkpt lat="46.40038" lon="-0.2575">
        <ele>102.6</ele>
        <time>2020-05-31T08:32:51Z</time>
      </trkpt>
      <trkpt lat="46.40038" lon="-0.25758">
        <ele>102.7</ele>
        <time>2020-05-31T08:32:52Z</time>
      </trkpt>
      <trkpt lat="46.40038" lon="-0.25766">
        <ele>102.9</ele>
        <time>2020-05-31T08:32:53Z</time>
      </trkpt>
      <trkpt lat="46.40037" lon="-0.25773">
        <ele>102.9</ele>
        <time>2020-05-31T08:32:54Z</time>
      </trkpt>
      <trkpt lat="46.40037" lon="-0.25781">
        <ele>103</ele>
        <time>2020-05-31T08:32:55Z</time>
      </trkpt>
      <trkpt lat="46.40037" lon="-0.25789">
        <ele>103</ele>
        <time>2020-05-31T08:32:56Z</time>
      </trkpt>
      <trkpt lat="46.40038" lon="-0.25797">
        <ele>103.1</ele>
        <time>2020-05-31T08:32:57Z</time>
      </trkpt>
      <trkpt lat="46.40039" lon="-0.25804">
        <ele>103.3</ele>
        <time>2020-05-31T08:32:58Z</time>
      </trkpt>
      <trkpt lat="46.4004" lon="-0.25812">
        <ele>103.4</ele>
        <time>2020-05-31T08:32:59Z</time>
      </trkpt>
      <trkpt lat="46.4004" lon="-0.25819">
        <ele>103.6</ele>
        <time>2020-05-31T08:33:00Z</time>
      </trkpt>
      <trkpt lat="46.40041" lon="-0.25827">
        <ele>103.8</ele>
        <time>2020-05-31T08:33:01Z</time>
      </trkpt>
      <trkpt lat="46.40043" lon="-0.25834">
        <ele>104.1</ele>
        <time>2020-05-31T08:33:02Z</time>
      </trkpt>
      <trkpt lat="46.40044" lon="-0.25843">
        <ele>104.4</ele>
        <time>2020-05-31T08:33:03Z</time>
      </trkpt>
      <trkpt lat="46.40045" lon="-0.25852">
        <ele>104.7</ele>
        <time>2020-05-31T08:33:04Z</time>
      </trkpt>
      <trkpt lat="46.40046" lon="-0.25861">
        <ele>105</ele>
        <time>2020-05-31T08:33:05Z</time>
      </trkpt>
      <trkpt lat="46.40048" lon="-0.2587">
        <ele>105.4</ele>
        <time>2020-05-31T08:33:06Z</time>
      </trkpt>
      <trkpt lat="46.40049" lon="-0.25879">
        <ele>105.7</ele>
        <time>2020-05-31T08:33:07Z</time>
      </trkpt>
      <trkpt lat="46.40049" lon="-0.25888">
        <ele>106</ele>
        <time>2020-05-31T08:33:08Z</time>
      </trkpt>
      <trkpt lat="46.40049" lon="-0.25897">
        <ele>106.3</ele>
        <time>2020-05-31T08:33:09Z</time>
      </trkpt>
      <trkpt lat="46.4005" lon="-0.25906">
        <ele>106.7</ele>
        <time>2020-05-31T08:33:10Z</time>
      </trkpt>
      <trkpt lat="46.40052" lon="-0.25914">
        <ele>107.1</ele>
        <time>2020-05-31T08:33:11Z</time>
      </trkpt>
      <trkpt lat="46.40052" lon="-0.25923">
        <ele>107.5</ele>
        <time>2020-05-31T08:33:12Z</time>
      </trkpt>
      <trkpt lat="46.40053" lon="-0.25931">
        <ele>107.9</ele>
        <time>2020-05-31T08:33:13Z</time>
      </trkpt>
      <trkpt lat="46.40053" lon="-0.25939">
        <ele>108.3</ele>
        <time>2020-05-31T08:33:14Z</time>
      </trkpt>
      <trkpt lat="46.40053" lon="-0.25948">
        <ele>108.7</ele>
        <time>2020-05-31T08:33:15Z</time>
      </trkpt>
      <trkpt lat="46.40054" lon="-0.25956">
        <ele>109.1</ele>
        <time>2020-05-31T08:33:16Z</time>
      </trkpt>
      <trkpt lat="46.40055" lon="-0.25963">
        <ele>109.4</ele>
        <time>2020-05-31T08:33:17Z</time>
      </trkpt>
      <trkpt lat="46.40056" lon="-0.25971">
        <ele>109.8</ele>
        <time>2020-05-31T08:33:18Z</time>
      </trkpt>
      <trkpt lat="46.40057" lon="-0.25978">
        <ele>110</ele>
        <time>2020-05-31T08:33:19Z</time>
      </trkpt>
      <trkpt lat="46.40057" lon="-0.25986">
        <ele>110.3</ele>
        <time>2020-05-31T08:33:20Z</time>
      </trkpt>
      <trkpt lat="46.40058" lon="-0.25992">
        <ele>110.5</ele>
        <time>2020-05-31T08:33:21Z</time>
      </trkpt>
      <trkpt lat="46.40058" lon="-0.25999">
        <ele>110.8</ele>
        <time>2020-05-31T08:33:22Z</time>
      </trkpt>
      <trkpt lat="46.40058" lon="-0.26006">
        <ele>111</ele>
        <time>2020-05-31T08:33:23Z</time>
      </trkpt>
      <trkpt lat="46.40057" lon="-0.26012">
        <ele>111.2</ele>
        <time>2020-05-31T08:33:24Z</time>
      </trkpt>
      <trkpt lat="46.40057" lon="-0.26018">
        <ele>111.4</ele>
        <time>2020-05-31T08:33:25Z</time>
      </trkpt>
      <trkpt lat="46.40057" lon="-0.26024">
        <ele>111.6</ele>
        <time>2020-05-31T08:33:26Z</time>
      </trkpt>
      <trkpt lat="46.40056" lon="-0.2603">
        <ele>111.7</ele>
        <time>2020-05-31T08:33:27Z</time>
      </trkpt>
      <trkpt lat="46.40055" lon="-0.26036">
        <ele>111.9</ele>
        <time>2020-05-31T08:33:28Z</time>
      </trkpt>
      <trkpt lat="46.40053" lon="-0.26042">
        <ele>112</ele>
        <time>2020-05-31T08:33:29Z</time>
      </trkpt>
      <trkpt lat="46.40051" lon="-0.26048">
        <ele>112.1</ele>
        <time>2020-05-31T08:33:30Z</time>
      </trkpt>
      <trkpt lat="46.40049" lon="-0.26053">
        <ele>112.2</ele>
        <time>2020-05-31T08:33:31Z</time>
      </trkpt>
      <trkpt lat="46.40047" lon="-0.26057">
        <ele>112.2</ele>
        <time>2020-05-31T08:33:32Z</time>
      </trkpt>
      <trkpt lat="46.40045" lon="-0.26062">
        <ele>112.2</ele>
        <time>2020-05-31T08:33:33Z</time>
      </trkpt>
      <trkpt lat="46.40043" lon="-0.26067">
        <ele>112.2</ele>
        <time>2020-05-31T08:33:34Z</time>
      </trkpt>
      <trkpt lat="46.4004" lon="-0.26071">
        <ele>112.2</ele>
        <time>2020-05-31T08:33:35Z</time>
      </trkpt>
      <trkpt lat="46.40037" lon="-0.26075">
        <ele>112.1</ele>
        <time>2020-05-31T08:33:36Z</time>
      </trkpt>
      <trkpt lat="46.40035" lon="-0.26082">
        <ele>112</ele>
        <time>2020-05-31T08:33:37Z</time>
      </trkpt>
      <trkpt lat="46.40033" lon="-0.26089">
        <ele>111.9</ele>
        <time>2020-05-31T08:33:38Z</time>
      </trkpt>
      <trkpt lat="46.4003" lon="-0.26095">
        <ele>111.8</ele>
        <time>2020-05-31T08:33:39Z</time>
      </trkpt>
      <trkpt lat="46.40026" lon="-0.261">
        <ele>111.6</ele>
        <time>2020-05-31T08:33:40Z</time>
      </trkpt>
      <trkpt lat="46.40022" lon="-0.26105">
        <ele>111.5</ele>
        <time>2020-05-31T08:33:41Z</time>
      </trkpt>
      <trkpt lat="46.40018" lon="-0.26112">
        <ele>111.3</ele>
        <time>2020-05-31T08:33:42Z</time>
      </trkpt>
      <trkpt lat="46.40014" lon="-0.26118">
        <ele>111.2</ele>
        <time>2020-05-31T08:33:43Z</time>
      </trkpt>
      <trkpt lat="46.40011" lon="-0.26124">
        <ele>111</ele>
        <time>2020-05-31T08:33:44Z</time>
      </trkpt>
      <trkpt lat="46.40007" lon="-0.2613">
        <ele>110.9</ele>
        <time>2020-05-31T08:33:45Z</time>
      </trkpt>
      <trkpt lat="46.40003" lon="-0.26136">
        <ele>110.7</ele>
        <time>2020-05-31T08:33:46Z</time>
      </trkpt>
      <trkpt lat="46.39999" lon="-0.26143">
        <ele>110.5</ele>
        <time>2020-05-31T08:33:47Z</time>
      </trkpt>
      <trkpt lat="46.39995" lon="-0.2615">
        <ele>110.3</ele>
        <time>2020-05-31T08:33:48Z</time>
      </trkpt>
      <trkpt lat="46.39991" lon="-0.26157">
        <ele>110</ele>
        <time>2020-05-31T08:33:49Z</time>
      </trkpt>
      <trkpt lat="46.39988" lon="-0.26165">
        <ele>109.8</ele>
        <time>2020-05-31T08:33:50Z</time>
      </trkpt>
      <trkpt lat="46.39984" lon="-0.26173">
        <ele>109.5</ele>
        <time>2020-05-31T08:33:51Z</time>
      </trkpt>
      <trkpt lat="46.3998" lon="-0.26181">
        <ele>109.3</ele>
        <time>2020-05-31T08:33:52Z</time>
      </trkpt>
      <trkpt lat="46.39976" lon="-0.26189">
        <ele>109</ele>
        <time>2020-05-31T08:33:53Z</time>
      </trkpt>
      <trkpt lat="46.39971" lon="-0.26196">
        <ele>108.8</ele>
        <time>2020-05-31T08:33:54Z</time>
      </trkpt>
      <trkpt lat="46.39966" lon="-0.26204">
        <ele>108.5</ele>
        <time>2020-05-31T08:33:55Z</time>
      </trkpt>
      <trkpt lat="46.39961" lon="-0.26212">
        <ele>108.3</ele>
        <time>2020-05-31T08:33:56Z</time>
      </trkpt>
      <trkpt lat="46.39956" lon="-0.2622">
        <ele>108</ele>
        <time>2020-05-31T08:33:57Z</time>
      </trkpt>
      <trkpt lat="46.39951" lon="-0.26229">
        <ele>107.8</ele>
        <time>2020-05-31T08:33:58Z</time>
      </trkpt>
      <trkpt lat="46.39946" lon="-0.26238">
        <ele>107.6</ele>
        <time>2020-05-31T08:33:59Z</time>
      </trkpt>
      <trkpt lat="46.39941" lon="-0.26248">
        <ele>107.5</ele>
        <time>2020-05-31T08:34:00Z</time>
      </trkpt>
      <trkpt lat="46.39937" lon="-0.26257">
        <ele>107.3</ele>
        <time>2020-05-31T08:34:01Z</time>
      </trkpt>
      <trkpt lat="46.39932" lon="-0.26266">
        <ele>107.1</ele>
        <time>2020-05-31T08:34:02Z</time>
      </trkpt>
      <trkpt lat="46.39927" lon="-0.26276">
        <ele>107</ele>
        <time>2020-05-31T08:34:03Z</time>
      </trkpt>
      <trkpt lat="46.39923" lon="-0.26285">
        <ele>106.9</ele>
        <time>2020-05-31T08:34:04Z</time>
      </trkpt>
      <trkpt lat="46.39918" lon="-0.26294">
        <ele>106.8</ele>
        <time>2020-05-31T08:34:05Z</time>
      </trkpt>
      <trkpt lat="46.39915" lon="-0.26304">
        <ele>106.7</ele>
        <time>2020-05-31T08:34:06Z</time>
      </trkpt>
      <trkpt lat="46.39911" lon="-0.26313">
        <ele>106.6</ele>
        <time>2020-05-31T08:34:07Z</time>
      </trkpt>
      <trkpt lat="46.39908" lon="-0.26323">
        <ele>106.6</ele>
        <time>2020-05-31T08:34:08Z</time>
      </trkpt>
      <trkpt lat="46.39904" lon="-0.26333">
        <ele>106.6</ele>
        <time>2020-05-31T08:34:09Z</time>
      </trkpt>
      <trkpt lat="46.39902" lon="-0.26343">
        <ele>106.6</ele>
        <time>2020-05-31T08:34:10Z</time>
      </trkpt>
      <trkpt lat="46.39899" lon="-0.26353">
        <ele>106.6</ele>
        <time>2020-05-31T08:34:11Z</time>
      </trkpt>
      <trkpt lat="46.39897" lon="-0.26363">
        <ele>106.5</ele>
        <time>2020-05-31T08:34:12Z</time>
      </trkpt>
      <trkpt lat="46.39895" lon="-0.26373">
        <ele>106.5</ele>
        <time>2020-05-31T08:34:13Z</time>
      </trkpt>
      <trkpt lat="46.39894" lon="-0.26382">
        <ele>106.4</ele>
        <time>2020-05-31T08:34:14Z</time>
      </trkpt>
      <trkpt lat="46.39892" lon="-0.26392">
        <ele>106.3</ele>
        <time>2020-05-31T08:34:15Z</time>
      </trkpt>
      <trkpt lat="46.3989" lon="-0.26402">
        <ele>106.3</ele>
        <time>2020-05-31T08:34:16Z</time>
      </trkpt>
      <trkpt lat="46.39889" lon="-0.26411">
        <ele>106.3</ele>
        <time>2020-05-31T08:34:17Z</time>
      </trkpt>
      <trkpt lat="46.39887" lon="-0.26421">
        <ele>106.3</ele>
        <time>2020-05-31T08:34:18Z</time>
      </trkpt>
      <trkpt lat="46.39885" lon="-0.2643">
        <ele>106.3</ele>
        <time>2020-05-31T08:34:19Z</time>
      </trkpt>
      <trkpt lat="46.39884" lon="-0.26439">
        <ele>106.3</ele>
        <time>2020-05-31T08:34:20Z</time>
      </trkpt>
      <trkpt lat="46.39882" lon="-0.26448">
        <ele>106.2</ele>
        <time>2020-05-31T08:34:21Z</time>
      </trkpt>
      <trkpt lat="46.3988" lon="-0.26458">
        <ele>106.2</ele>
        <time>2020-05-31T08:34:22Z</time>
      </trkpt>
      <trkpt lat="46.39879" lon="-0.26467">
        <ele>106.2</ele>
        <time>2020-05-31T08:34:23Z</time>
      </trkpt>
      <trkpt lat="46.39877" lon="-0.26476">
        <ele>106.1</ele>
        <time>2020-05-31T08:34:24Z</time>
      </trkpt>
      <trkpt lat="46.39875" lon="-0.26485">
        <ele>106.1</ele>
        <time>2020-05-31T08:34:25Z</time>
      </trkpt>
      <trkpt lat="46.39874" lon="-0.26494">
        <ele>106.1</ele>
        <time>2020-05-31T08:34:26Z</time>
      </trkpt>
      <trkpt lat="46.39872" lon="-0.26503">
        <ele>106.1</ele>
        <time>2020-05-31T08:34:27Z</time>
      </trkpt>
      <trkpt lat="46.39871" lon="-0.26511">
        <ele>106.2</ele>
        <time>2020-05-31T08:34:28Z</time>
      </trkpt>
      <trkpt lat="46.3987" lon="-0.2652">
        <ele>106.2</ele>
        <time>2020-05-31T08:34:29Z</time>
      </trkpt>
      <trkpt lat="46.39868" lon="-0.26528">
        <ele>106.2</ele>
        <time>2020-05-31T08:34:30Z</time>
      </trkpt>
      <trkpt lat="46.39867" lon="-0.26537">
        <ele>106.3</ele>
        <time>2020-05-31T08:34:31Z</time>
      </trkpt>
      <trkpt lat="46.39866" lon="-0.26545">
        <ele>106.3</ele>
        <time>2020-05-31T08:34:32Z</time>
      </trkpt>
      <trkpt lat="46.39865" lon="-0.26553">
        <ele>106.4</ele>
        <time>2020-05-31T08:34:33Z</time>
      </trkpt>
      <trkpt lat="46.39864" lon="-0.2656">
        <ele>106.5</ele>
        <time>2020-05-31T08:34:34Z</time>
      </trkpt>
      <trkpt lat="46.39863" lon="-0.26568">
        <ele>106.5</ele>
        <time>2020-05-31T08:34:35Z</time>
      </trkpt>
      <trkpt lat="46.39862" lon="-0.26575">
        <ele>106.6</ele>
        <time>2020-05-31T08:34:36Z</time>
      </trkpt>
      <trkpt lat="46.39861" lon="-0.26582">
        <ele>106.7</ele>
        <time>2020-05-31T08:34:37Z</time>
      </trkpt>
      <trkpt lat="46.3986" lon="-0.26589">
        <ele>106.8</ele>
        <time>2020-05-31T08:34:38Z</time>
      </trkpt>
      <trkpt lat="46.39859" lon="-0.26596">
        <ele>106.8</ele>
        <time>2020-05-31T08:34:39Z</time>
      </trkpt>
      <trkpt lat="46.39858" lon="-0.26602">
        <ele>106.9</ele>
        <time>2020-05-31T08:34:40Z</time>
      </trkpt>
      <trkpt lat="46.39857" lon="-0.26609">
        <ele>107</ele>
        <time>2020-05-31T08:34:41Z</time>
      </trkpt>
      <trkpt lat="46.39857" lon="-0.26615">
        <ele>107.1</ele>
        <time>2020-05-31T08:34:42Z</time>
      </trkpt>
      <trkpt lat="46.39856" lon="-0.26621">
        <ele>107.2</ele>
        <time>2020-05-31T08:34:43Z</time>
      </trkpt>
      <trkpt lat="46.39856" lon="-0.26626">
        <ele>107.3</ele>
        <time>2020-05-31T08:34:44Z</time>
      </trkpt>
      <trkpt lat="46.39856" lon="-0.26631">
        <ele>107.4</ele>
        <time>2020-05-31T08:34:45Z</time>
      </trkpt>
      <trkpt lat="46.39856" lon="-0.26636">
        <ele>107.5</ele>
        <time>2020-05-31T08:34:46Z</time>
      </trkpt>
      <trkpt lat="46.39855" lon="-0.2664">
        <ele>107.6</ele>
        <time>2020-05-31T08:34:47Z</time>
      </trkpt>
      <trkpt lat="46.39855" lon="-0.26644">
        <ele>107.6</ele>
        <time>2020-05-31T08:34:48Z</time>
      </trkpt>
      <trkpt lat="46.39854" lon="-0.26649">
        <ele>107.7</ele>
        <time>2020-05-31T08:34:49Z</time>
      </trkpt>
      <trkpt lat="46.39853" lon="-0.26654">
        <ele>107.8</ele>
        <time>2020-05-31T08:34:50Z</time>
      </trkpt>
      <trkpt lat="46.39852" lon="-0.26659">
        <ele>107.9</ele>
        <time>2020-05-31T08:34:51Z</time>
      </trkpt>
      <trkpt lat="46.39852" lon="-0.26665">
        <ele>108</ele>
        <time>2020-05-31T08:34:52Z</time>
      </trkpt>
      <trkpt lat="46.39852" lon="-0.2667">
        <ele>108.1</ele>
        <time>2020-05-31T08:34:53Z</time>
      </trkpt>
      <trkpt lat="46.39851" lon="-0.26676">
        <ele>108.2</ele>
        <time>2020-05-31T08:34:54Z</time>
      </trkpt>
      <trkpt lat="46.39851" lon="-0.26682">
        <ele>108.3</ele>
        <time>2020-05-31T08:34:55Z</time>
      </trkpt>
      <trkpt lat="46.3985" lon="-0.26688">
        <ele>108.3</ele>
        <time>2020-05-31T08:34:56Z</time>
      </trkpt>
      <trkpt lat="46.3985" lon="-0.26694">
        <ele>108.4</ele>
        <time>2020-05-31T08:34:57Z</time>
      </trkpt>
      <trkpt lat="46.3985" lon="-0.267">
        <ele>108.4</ele>
        <time>2020-05-31T08:34:58Z</time>
      </trkpt>
      <trkpt lat="46.39849" lon="-0.26706">
        <ele>108.4</ele>
        <time>2020-05-31T08:34:59Z</time>
      </trkpt>
      <trkpt lat="46.39849" lon="-0.26713">
        <ele>108.4</ele>
        <time>2020-05-31T08:35:00Z</time>
      </trkpt>
      <trkpt lat="46.3985" lon="-0.2672">
        <ele>108.4</ele>
        <time>2020-05-31T08:35:01Z</time>
      </trkpt>
      <trkpt lat="46.3985" lon="-0.26726">
        <ele>108.3</ele>
        <time>2020-05-31T08:35:02Z</time>
      </trkpt>
      <trkpt lat="46.3985" lon="-0.26733">
        <ele>108.3</ele>
        <time>2020-05-31T08:35:03Z</time>
      </trkpt>
      <trkpt lat="46.3985" lon="-0.26739">
        <ele>108.2</ele>
        <time>2020-05-31T08:35:04Z</time>
      </trkpt>
      <trkpt lat="46.3985" lon="-0.26746">
        <ele>108.1</ele>
        <time>2020-05-31T08:35:05Z</time>
      </trkpt>
      <trkpt lat="46.39849" lon="-0.26753">
        <ele>108.1</ele>
        <time>2020-05-31T08:35:06Z</time>
      </trkpt>
      <trkpt lat="46.3985" lon="-0.26761">
        <ele>108</ele>
        <time>2020-05-31T08:35:07Z</time>
      </trkpt>
      <trkpt lat="46.3985" lon="-0.26768">
        <ele>107.9</ele>
        <time>2020-05-31T08:35:08Z</time>
      </trkpt>
      <trkpt lat="46.3985" lon="-0.26775">
        <ele>107.8</ele>
        <time>2020-05-31T08:35:09Z</time>
      </trkpt>
      <trkpt lat="46.39852" lon="-0.26783">
        <ele>107.7</ele>
        <time>2020-05-31T08:35:10Z</time>
      </trkpt>
      <trkpt lat="46.39852" lon="-0.2679">
        <ele>107.5</ele>
        <time>2020-05-31T08:35:11Z</time>
      </trkpt>
      <trkpt lat="46.39852" lon="-0.26797">
        <ele>107.5</ele>
        <time>2020-05-31T08:35:12Z</time>
      </trkpt>
      <trkpt lat="46.39851" lon="-0.26802">
        <ele>107.4</ele>
        <time>2020-05-31T08:35:13Z</time>
      </trkpt>
      <trkpt lat="46.39851" lon="-0.26808">
        <ele>107.3</ele>
        <time>2020-05-31T08:35:14Z</time>
      </trkpt>
      <trkpt lat="46.3985" lon="-0.26814">
        <ele>107.2</ele>
        <time>2020-05-31T08:35:15Z</time>
      </trkpt>
      <trkpt lat="46.39849" lon="-0.2682">
        <ele>107.1</ele>
        <time>2020-05-31T08:35:16Z</time>
      </trkpt>
      <trkpt lat="46.39849" lon="-0.26827">
        <ele>107</ele>
        <time>2020-05-31T08:35:17Z</time>
      </trkpt>
      <trkpt lat="46.3985" lon="-0.26834">
        <ele>107</ele>
        <time>2020-05-31T08:35:18Z</time>
      </trkpt>
      <trkpt lat="46.3985" lon="-0.26841">
        <ele>106.9</ele>
        <time>2020-05-31T08:35:19Z</time>
      </trkpt>
      <trkpt lat="46.39851" lon="-0.26848">
        <ele>106.9</ele>
        <time>2020-05-31T08:35:20Z</time>
      </trkpt>
      <trkpt lat="46.39851" lon="-0.26855">
        <ele>106.8</ele>
        <time>2020-05-31T08:35:21Z</time>
      </trkpt>
      <trkpt lat="46.39851" lon="-0.26863">
        <ele>106.8</ele>
        <time>2020-05-31T08:35:22Z</time>
      </trkpt>
      <trkpt lat="46.39852" lon="-0.2687">
        <ele>106.8</ele>
        <time>2020-05-31T08:35:23Z</time>
      </trkpt>
      <trkpt lat="46.39853" lon="-0.26878">
        <ele>106.8</ele>
        <time>2020-05-31T08:35:24Z</time>
      </trkpt>
      <trkpt lat="46.39853" lon="-0.26886">
        <ele>106.8</ele>
        <time>2020-05-31T08:35:25Z</time>
      </trkpt>
      <trkpt lat="46.39854" lon="-0.26893">
        <ele>106.8</ele>
        <time>2020-05-31T08:35:26Z</time>
      </trkpt>
      <trkpt lat="46.39854" lon="-0.26901">
        <ele>106.8</ele>
        <time>2020-05-31T08:35:27Z</time>
      </trkpt>
      <trkpt lat="46.39855" lon="-0.26909">
        <ele>106.8</ele>
        <time>2020-05-31T08:35:28Z</time>
      </trkpt>
      <trkpt lat="46.39857" lon="-0.26916">
        <ele>106.9</ele>
        <time>2020-05-31T08:35:29Z</time>
      </trkpt>
      <trkpt lat="46.39858" lon="-0.26923">
        <ele>106.9</ele>
        <time>2020-05-31T08:35:30Z</time>
      </trkpt>
      <trkpt lat="46.39858" lon="-0.2693">
        <ele>106.9</ele>
        <time>2020-05-31T08:35:31Z</time>
      </trkpt>
      <trkpt lat="46.39859" lon="-0.26937">
        <ele>107</ele>
        <time>2020-05-31T08:35:32Z</time>
      </trkpt>
      <trkpt lat="46.39859" lon="-0.26944">
        <ele>107</ele>
        <time>2020-05-31T08:35:33Z</time>
      </trkpt>
      <trkpt lat="46.39859" lon="-0.26951">
        <ele>107</ele>
        <time>2020-05-31T08:35:34Z</time>
      </trkpt>
      <trkpt lat="46.39859" lon="-0.26959">
        <ele>107</ele>
        <time>2020-05-31T08:35:35Z</time>
      </trkpt>
      <trkpt lat="46.3986" lon="-0.26966">
        <ele>107</ele>
        <time>2020-05-31T08:35:36Z</time>
      </trkpt>
      <trkpt lat="46.39861" lon="-0.26974">
        <ele>107.1</ele>
        <time>2020-05-31T08:35:37Z</time>
      </trkpt>
      <trkpt lat="46.39862" lon="-0.26982">
        <ele>107.1</ele>
        <time>2020-05-31T08:35:38Z</time>
      </trkpt>
      <trkpt lat="46.39864" lon="-0.2699">
        <ele>107.1</ele>
        <time>2020-05-31T08:35:39Z</time>
      </trkpt>
      <trkpt lat="46.39866" lon="-0.26998">
        <ele>107.1</ele>
        <time>2020-05-31T08:35:40Z</time>
      </trkpt>
      <trkpt lat="46.39868" lon="-0.27006">
        <ele>107.1</ele>
        <time>2020-05-31T08:35:41Z</time>
      </trkpt>
      <trkpt lat="46.39869" lon="-0.27014">
        <ele>107.1</ele>
        <time>2020-05-31T08:35:42Z</time>
      </trkpt>
      <trkpt lat="46.39871" lon="-0.27021">
        <ele>107.2</ele>
        <time>2020-05-31T08:35:43Z</time>
      </trkpt>
      <trkpt lat="46.39873" lon="-0.27028">
        <ele>107.2</ele>
        <time>2020-05-31T08:35:44Z</time>
      </trkpt>
      <trkpt lat="46.39875" lon="-0.27035">
        <ele>107.3</ele>
        <time>2020-05-31T08:35:45Z</time>
      </trkpt>
      <trkpt lat="46.39877" lon="-0.27042">
        <ele>107.4</ele>
        <time>2020-05-31T08:35:46Z</time>
      </trkpt>
      <trkpt lat="46.39878" lon="-0.27049">
        <ele>107.5</ele>
        <time>2020-05-31T08:35:47Z</time>
      </trkpt>
      <trkpt lat="46.39878" lon="-0.27056">
        <ele>107.6</ele>
        <time>2020-05-31T08:35:48Z</time>
      </trkpt>
      <trkpt lat="46.3988" lon="-0.27062">
        <ele>107.6</ele>
        <time>2020-05-31T08:35:49Z</time>
      </trkpt>
      <trkpt lat="46.3988" lon="-0.27068">
        <ele>107.7</ele>
        <time>2020-05-31T08:35:50Z</time>
      </trkpt>
      <trkpt lat="46.39878" lon="-0.27072">
        <ele>108.1</ele>
        <time>2020-05-31T08:35:51Z</time>
      </trkpt>
      <trkpt lat="46.39876" lon="-0.27077">
        <ele>108.2</ele>
        <time>2020-05-31T08:35:52Z</time>
      </trkpt>
      <trkpt lat="46.39873" lon="-0.2708">
        <ele>108.3</ele>
        <time>2020-05-31T08:35:53Z</time>
      </trkpt>
      <trkpt lat="46.3987" lon="-0.27083">
        <ele>108.4</ele>
        <time>2020-05-31T08:35:54Z</time>
      </trkpt>
      <trkpt lat="46.39866" lon="-0.27084">
        <ele>108.5</ele>
        <time>2020-05-31T08:35:55Z</time>
      </trkpt>
      <trkpt lat="46.39863" lon="-0.27084">
        <ele>108.5</ele>
        <time>2020-05-31T08:35:56Z</time>
      </trkpt>
      <trkpt lat="46.39859" lon="-0.27086">
        <ele>108.6</ele>
        <time>2020-05-31T08:35:57Z</time>
      </trkpt>
      <trkpt lat="46.39857" lon="-0.27089">
        <ele>108.7</ele>
        <time>2020-05-31T08:35:58Z</time>
      </trkpt>
      <trkpt lat="46.39855" lon="-0.27093">
        <ele>108.8</ele>
        <time>2020-05-31T08:35:59Z</time>
      </trkpt>
      <trkpt lat="46.39854" lon="-0.27097">
        <ele>108.8</ele>
        <time>2020-05-31T08:36:00Z</time>
      </trkpt>
      <trkpt lat="46.39852" lon="-0.27101">
        <ele>108.9</ele>
        <time>2020-05-31T08:36:01Z</time>
      </trkpt>
      <trkpt lat="46.39849" lon="-0.27102">
        <ele>109</ele>
        <time>2020-05-31T08:36:02Z</time>
      </trkpt>
      <trkpt lat="46.39846" lon="-0.27104">
        <ele>109.1</ele>
        <time>2020-05-31T08:36:03Z</time>
      </trkpt>
      <trkpt lat="46.39843" lon="-0.27108">
        <ele>109.2</ele>
        <time>2020-05-31T08:36:04Z</time>
      </trkpt>
      <trkpt lat="46.39841" lon="-0.27112">
        <ele>109.3</ele>
        <time>2020-05-31T08:36:05Z</time>
      </trkpt>
      <trkpt lat="46.39841" lon="-0.27118">
        <ele>109.4</ele>
        <time>2020-05-31T08:36:06Z</time>
      </trkpt>
      <trkpt lat="46.39839" lon="-0.27121">
        <ele>109.5</ele>
        <time>2020-05-31T08:36:07Z</time>
      </trkpt>
      <trkpt lat="46.39836" lon="-0.27124">
        <ele>109.6</ele>
        <time>2020-05-31T08:36:08Z</time>
      </trkpt>
      <trkpt lat="46.39834" lon="-0.27126">
        <ele>109.6</ele>
        <time>2020-05-31T08:36:09Z</time>
      </trkpt>
      <trkpt lat="46.39831" lon="-0.27129">
        <ele>109.7</ele>
        <time>2020-05-31T08:36:10Z</time>
      </trkpt>
      <trkpt lat="46.3983" lon="-0.2713">
        <ele>109.7</ele>
        <time>2020-05-31T08:36:11Z</time>
      </trkpt>
      <trkpt lat="46.39827" lon="-0.27132">
        <ele>109.8</ele>
        <time>2020-05-31T08:36:12Z</time>
      </trkpt>
      <trkpt lat="46.39826" lon="-0.27133">
        <ele>109.8</ele>
        <time>2020-05-31T08:36:13Z</time>
      </trkpt>
      <trkpt lat="46.39825" lon="-0.27136">
        <ele>109.9</ele>
        <time>2020-05-31T08:36:14Z</time>
      </trkpt>
      <trkpt lat="46.39822" lon="-0.27139">
        <ele>110</ele>
        <time>2020-05-31T08:36:15Z</time>
      </trkpt>
      <trkpt lat="46.3982" lon="-0.27142">
        <ele>110</ele>
        <time>2020-05-31T08:36:16Z</time>
      </trkpt>
      <trkpt lat="46.39817" lon="-0.27144">
        <ele>110.1</ele>
        <time>2020-05-31T08:36:17Z</time>
      </trkpt>
      <trkpt lat="46.39815" lon="-0.27147">
        <ele>110.2</ele>
        <time>2020-05-31T08:36:18Z</time>
      </trkpt>
      <trkpt lat="46.39813" lon="-0.2715">
        <ele>110.2</ele>
        <time>2020-05-31T08:36:19Z</time>
      </trkpt>
      <trkpt lat="46.3981" lon="-0.27152">
        <ele>110.3</ele>
        <time>2020-05-31T08:36:20Z</time>
      </trkpt>
      <trkpt lat="46.39807" lon="-0.27153">
        <ele>110.3</ele>
        <time>2020-05-31T08:36:21Z</time>
      </trkpt>
      <trkpt lat="46.39804" lon="-0.27156">
        <ele>110.4</ele>
        <time>2020-05-31T08:36:22Z</time>
      </trkpt>
      <trkpt lat="46.39801" lon="-0.27158">
        <ele>110.4</ele>
        <time>2020-05-31T08:36:23Z</time>
      </trkpt>
      <trkpt lat="46.39798" lon="-0.2716">
        <ele>110.4</ele>
        <time>2020-05-31T08:36:24Z</time>
      </trkpt>
      <trkpt lat="46.39795" lon="-0.27164">
        <ele>110.5</ele>
        <time>2020-05-31T08:36:25Z</time>
      </trkpt>
      <trkpt lat="46.39791" lon="-0.27167">
        <ele>110.5</ele>
        <time>2020-05-31T08:36:26Z</time>
      </trkpt>
      <trkpt lat="46.39788" lon="-0.27171">
        <ele>110.6</ele>
        <time>2020-05-31T08:36:27Z</time>
      </trkpt>
      <trkpt lat="46.39785" lon="-0.27175">
        <ele>110.6</ele>
        <time>2020-05-31T08:36:28Z</time>
      </trkpt>
      <trkpt lat="46.39781" lon="-0.27179">
        <ele>110.6</ele>
        <time>2020-05-31T08:36:29Z</time>
      </trkpt>
      <trkpt lat="46.39777" lon="-0.27182">
        <ele>110.6</ele>
        <time>2020-05-31T08:36:30Z</time>
      </trkpt>
      <trkpt lat="46.39773" lon="-0.27186">
        <ele>110.6</ele>
        <time>2020-05-31T08:36:31Z</time>
      </trkpt>
      <trkpt lat="46.3977" lon="-0.27191">
        <ele>110.5</ele>
        <time>2020-05-31T08:36:32Z</time>
      </trkpt>
      <trkpt lat="46.39766" lon="-0.27195">
        <ele>110.5</ele>
        <time>2020-05-31T08:36:33Z</time>
      </trkpt>
      <trkpt lat="46.39762" lon="-0.272">
        <ele>110.4</ele>
        <time>2020-05-31T08:36:34Z</time>
      </trkpt>
      <trkpt lat="46.39759" lon="-0.27205">
        <ele>110.3</ele>
        <time>2020-05-31T08:36:35Z</time>
      </trkpt>
      <trkpt lat="46.39756" lon="-0.2721">
        <ele>110.2</ele>
        <time>2020-05-31T08:36:36Z</time>
      </trkpt>
      <trkpt lat="46.39752" lon="-0.27215">
        <ele>110.1</ele>
        <time>2020-05-31T08:36:37Z</time>
      </trkpt>
      <trkpt lat="46.39748" lon="-0.2722">
        <ele>110</ele>
        <time>2020-05-31T08:36:38Z</time>
      </trkpt>
      <trkpt lat="46.39744" lon="-0.27224">
        <ele>109.9</ele>
        <time>2020-05-31T08:36:39Z</time>
      </trkpt>
      <trkpt lat="46.39739" lon="-0.27228">
        <ele>109.8</ele>
        <time>2020-05-31T08:36:40Z</time>
      </trkpt>
      <trkpt lat="46.39734" lon="-0.27232">
        <ele>109.7</ele>
        <time>2020-05-31T08:36:41Z</time>
      </trkpt>
      <trkpt lat="46.3973" lon="-0.27236">
        <ele>109.6</ele>
        <time>2020-05-31T08:36:42Z</time>
      </trkpt>
      <trkpt lat="46.39725" lon="-0.2724">
        <ele>109.5</ele>
        <time>2020-05-31T08:36:43Z</time>
      </trkpt>
      <trkpt lat="46.3972" lon="-0.27245">
        <ele>109.4</ele>
        <time>2020-05-31T08:36:44Z</time>
      </trkpt>
      <trkpt lat="46.39714" lon="-0.27249">
        <ele>109.3</ele>
        <time>2020-05-31T08:36:45Z</time>
      </trkpt>
      <trkpt lat="46.39709" lon="-0.27253">
        <ele>109.2</ele>
        <time>2020-05-31T08:36:46Z</time>
      </trkpt>
      <trkpt lat="46.39704" lon="-0.27258">
        <ele>109</ele>
        <time>2020-05-31T08:36:47Z</time>
      </trkpt>
      <trkpt lat="46.39699" lon="-0.27263">
        <ele>108.9</ele>
        <time>2020-05-31T08:36:48Z</time>
      </trkpt>
      <trkpt lat="46.39694" lon="-0.27267">
        <ele>108.8</ele>
        <time>2020-05-31T08:36:49Z</time>
      </trkpt>
      <trkpt lat="46.39688" lon="-0.27272">
        <ele>108.7</ele>
        <time>2020-05-31T08:36:50Z</time>
      </trkpt>
      <trkpt lat="46.39683" lon="-0.27277">
        <ele>108.6</ele>
        <time>2020-05-31T08:36:51Z</time>
      </trkpt>
      <trkpt lat="46.39677" lon="-0.2728">
        <ele>108.5</ele>
        <time>2020-05-31T08:36:52Z</time>
      </trkpt>
      <trkpt lat="46.39671" lon="-0.27283">
        <ele>108.4</ele>
        <time>2020-05-31T08:36:53Z</time>
      </trkpt>
      <trkpt lat="46.39666" lon="-0.27288">
        <ele>108.4</ele>
        <time>2020-05-31T08:36:54Z</time>
      </trkpt>
      <trkpt lat="46.3966" lon="-0.27291">
        <ele>108.3</ele>
        <time>2020-05-31T08:36:55Z</time>
      </trkpt>
      <trkpt lat="46.39654" lon="-0.27295">
        <ele>108.2</ele>
        <time>2020-05-31T08:36:56Z</time>
      </trkpt>
      <trkpt lat="46.3965" lon="-0.27299">
        <ele>108.1</ele>
        <time>2020-05-31T08:36:57Z</time>
      </trkpt>
      <trkpt lat="46.39645" lon="-0.27303">
        <ele>108.1</ele>
        <time>2020-05-31T08:36:58Z</time>
      </trkpt>
      <trkpt lat="46.39641" lon="-0.27308">
        <ele>108</ele>
        <time>2020-05-31T08:36:59Z</time>
      </trkpt>
      <trkpt lat="46.39637" lon="-0.27312">
        <ele>108</ele>
        <time>2020-05-31T08:37:00Z</time>
      </trkpt>
      <trkpt lat="46.39632" lon="-0.27316">
        <ele>107.9</ele>
        <time>2020-05-31T08:37:01Z</time>
      </trkpt>
      <trkpt lat="46.39628" lon="-0.27321">
        <ele>107.9</ele>
        <time>2020-05-31T08:37:02Z</time>
      </trkpt>
      <trkpt lat="46.39623" lon="-0.27324">
        <ele>107.8</ele>
        <time>2020-05-31T08:37:03Z</time>
      </trkpt>
      <trkpt lat="46.39618" lon="-0.27329">
        <ele>107.7</ele>
        <time>2020-05-31T08:37:04Z</time>
      </trkpt>
      <trkpt lat="46.39613" lon="-0.27333">
        <ele>107.7</ele>
        <time>2020-05-31T08:37:05Z</time>
      </trkpt>
      <trkpt lat="46.39609" lon="-0.27336">
        <ele>107.6</ele>
        <time>2020-05-31T08:37:06Z</time>
      </trkpt>
      <trkpt lat="46.39604" lon="-0.2734">
        <ele>107.5</ele>
        <time>2020-05-31T08:37:07Z</time>
      </trkpt>
      <trkpt lat="46.39599" lon="-0.27344">
        <ele>107.4</ele>
        <time>2020-05-31T08:37:08Z</time>
      </trkpt>
      <trkpt lat="46.39594" lon="-0.27348">
        <ele>107.4</ele>
        <time>2020-05-31T08:37:09Z</time>
      </trkpt>
      <trkpt lat="46.39589" lon="-0.27351">
        <ele>107.3</ele>
        <time>2020-05-31T08:37:10Z</time>
      </trkpt>
      <trkpt lat="46.39584" lon="-0.27354">
        <ele>107.2</ele>
        <time>2020-05-31T08:37:11Z</time>
      </trkpt>
      <trkpt lat="46.3958" lon="-0.27361">
        <ele>107.2</ele>
        <time>2020-05-31T08:37:12Z</time>
      </trkpt>
      <trkpt lat="46.39575" lon="-0.27365">
        <ele>107.1</ele>
        <time>2020-05-31T08:37:13Z</time>
      </trkpt>
      <trkpt lat="46.3957" lon="-0.27369">
        <ele>107.1</ele>
        <time>2020-05-31T08:37:14Z</time>
      </trkpt>
      <trkpt lat="46.39566" lon="-0.27374">
        <ele>107</ele>
        <time>2020-05-31T08:37:15Z</time>
      </trkpt>
      <trkpt lat="46.39562" lon="-0.27378">
        <ele>106.9</ele>
        <time>2020-05-31T08:37:16Z</time>
      </trkpt>
      <trkpt lat="46.39557" lon="-0.27382">
        <ele>106.9</ele>
        <time>2020-05-31T08:37:17Z</time>
      </trkpt>
      <trkpt lat="46.39552" lon="-0.27387">
        <ele>106.8</ele>
        <time>2020-05-31T08:37:18Z</time>
      </trkpt>
      <trkpt lat="46.39547" lon="-0.27392">
        <ele>106.8</ele>
        <time>2020-05-31T08:37:19Z</time>
      </trkpt>
      <trkpt lat="46.39542" lon="-0.27396">
        <ele>106.7</ele>
        <time>2020-05-31T08:37:20Z</time>
      </trkpt>
      <trkpt lat="46.39538" lon="-0.27401">
        <ele>106.7</ele>
        <time>2020-05-31T08:37:21Z</time>
      </trkpt>
      <trkpt lat="46.39534" lon="-0.27406">
        <ele>106.7</ele>
        <time>2020-05-31T08:37:22Z</time>
      </trkpt>
      <trkpt lat="46.3953" lon="-0.27412">
        <ele>106.6</ele>
        <time>2020-05-31T08:37:23Z</time>
      </trkpt>
      <trkpt lat="46.39525" lon="-0.27417">
        <ele>106.6</ele>
        <time>2020-05-31T08:37:24Z</time>
      </trkpt>
      <trkpt lat="46.3952" lon="-0.27422">
        <ele>106.6</ele>
        <time>2020-05-31T08:37:25Z</time>
      </trkpt>
      <trkpt lat="46.39515" lon="-0.27426">
        <ele>106.6</ele>
        <time>2020-05-31T08:37:26Z</time>
      </trkpt>
      <trkpt lat="46.3951" lon="-0.27431">
        <ele>106.5</ele>
        <time>2020-05-31T08:37:27Z</time>
      </trkpt>
      <trkpt lat="46.39506" lon="-0.27435">
        <ele>106.5</ele>
        <time>2020-05-31T08:37:28Z</time>
      </trkpt>
      <trkpt lat="46.39501" lon="-0.27439">
        <ele>106.4</ele>
        <time>2020-05-31T08:37:29Z</time>
      </trkpt>
      <trkpt lat="46.39496" lon="-0.27443">
        <ele>106.4</ele>
        <time>2020-05-31T08:37:30Z</time>
      </trkpt>
      <trkpt lat="46.39491" lon="-0.27447">
        <ele>106.3</ele>
        <time>2020-05-31T08:37:31Z</time>
      </trkpt>
      <trkpt lat="46.39486" lon="-0.27451">
        <ele>106.3</ele>
        <time>2020-05-31T08:37:32Z</time>
      </trkpt>
      <trkpt lat="46.39481" lon="-0.27454">
        <ele>106.2</ele>
        <time>2020-05-31T08:37:33Z</time>
      </trkpt>
      <trkpt lat="46.39476" lon="-0.27458">
        <ele>106.2</ele>
        <time>2020-05-31T08:37:34Z</time>
      </trkpt>
      <trkpt lat="46.3947" lon="-0.27461">
        <ele>106.1</ele>
        <time>2020-05-31T08:37:35Z</time>
      </trkpt>
      <trkpt lat="46.39465" lon="-0.27464">
        <ele>106.1</ele>
        <time>2020-05-31T08:37:36Z</time>
      </trkpt>
      <trkpt lat="46.39459" lon="-0.27466">
        <ele>106</ele>
        <time>2020-05-31T08:37:37Z</time>
      </trkpt>
      <trkpt lat="46.39454" lon="-0.27469">
        <ele>105.9</ele>
        <time>2020-05-31T08:37:38Z</time>
      </trkpt>
      <trkpt lat="46.39448" lon="-0.27471">
        <ele>105.8</ele>
        <time>2020-05-31T08:37:39Z</time>
      </trkpt>
      <trkpt lat="46.39442" lon="-0.27473">
        <ele>105.8</ele>
        <time>2020-05-31T08:37:40Z</time>
      </trkpt>
      <trkpt lat="46.39436" lon="-0.27475">
        <ele>105.7</ele>
        <time>2020-05-31T08:37:41Z</time>
      </trkpt>
      <trkpt lat="46.39431" lon="-0.27478">
        <ele>105.5</ele>
        <time>2020-05-31T08:37:42Z</time>
      </trkpt>
      <trkpt lat="46.39426" lon="-0.27481">
        <ele>105.4</ele>
        <time>2020-05-31T08:37:43Z</time>
      </trkpt>
      <trkpt lat="46.39421" lon="-0.27484">
        <ele>105.3</ele>
        <time>2020-05-31T08:37:44Z</time>
      </trkpt>
      <trkpt lat="46.39415" lon="-0.27486">
        <ele>105.2</ele>
        <time>2020-05-31T08:37:45Z</time>
      </trkpt>
      <trkpt lat="46.3941" lon="-0.27488">
        <ele>105.1</ele>
        <time>2020-05-31T08:37:46Z</time>
      </trkpt>
      <trkpt lat="46.39404" lon="-0.2749">
        <ele>105.1</ele>
        <time>2020-05-31T08:37:47Z</time>
      </trkpt>
      <trkpt lat="46.39399" lon="-0.27494">
        <ele>105</ele>
        <time>2020-05-31T08:37:48Z</time>
      </trkpt>
      <trkpt lat="46.39394" lon="-0.27496">
        <ele>104.9</ele>
        <time>2020-05-31T08:37:49Z</time>
      </trkpt>
      <trkpt lat="46.39389" lon="-0.27501">
        <ele>104.8</ele>
        <time>2020-05-31T08:37:50Z</time>
      </trkpt>
      <trkpt lat="46.39383" lon="-0.27504">
        <ele>104.6</ele>
        <time>2020-05-31T08:37:51Z</time>
      </trkpt>
      <trkpt lat="46.39377" lon="-0.27508">
        <ele>104.5</ele>
        <time>2020-05-31T08:37:52Z</time>
      </trkpt>
      <trkpt lat="46.39371" lon="-0.27512">
        <ele>104.4</ele>
        <time>2020-05-31T08:37:53Z</time>
      </trkpt>
      <trkpt lat="46.39365" lon="-0.27516">
        <ele>104.2</ele>
        <time>2020-05-31T08:37:54Z</time>
      </trkpt>
      <trkpt lat="46.39359" lon="-0.27522">
        <ele>104.1</ele>
        <time>2020-05-31T08:37:55Z</time>
      </trkpt>
      <trkpt lat="46.39353" lon="-0.27528">
        <ele>103.9</ele>
        <time>2020-05-31T08:37:56Z</time>
      </trkpt>
      <trkpt lat="46.39348" lon="-0.27535">
        <ele>103.8</ele>
        <time>2020-05-31T08:37:57Z</time>
      </trkpt>
      <trkpt lat="46.39342" lon="-0.2754">
        <ele>103.6</ele>
        <time>2020-05-31T08:37:58Z</time>
      </trkpt>
      <trkpt lat="46.39336" lon="-0.27546">
        <ele>103.5</ele>
        <time>2020-05-31T08:37:59Z</time>
      </trkpt>
      <trkpt lat="46.3933" lon="-0.27552">
        <ele>103.4</ele>
        <time>2020-05-31T08:38:00Z</time>
      </trkpt>
      <trkpt lat="46.39325" lon="-0.27557">
        <ele>103.3</ele>
        <time>2020-05-31T08:38:01Z</time>
      </trkpt>
      <trkpt lat="46.39319" lon="-0.27563">
        <ele>103.2</ele>
        <time>2020-05-31T08:38:02Z</time>
      </trkpt>
      <trkpt lat="46.39313" lon="-0.27569">
        <ele>103.2</ele>
        <time>2020-05-31T08:38:03Z</time>
      </trkpt>
      <trkpt lat="46.39308" lon="-0.27574">
        <ele>103.1</ele>
        <time>2020-05-31T08:38:04Z</time>
      </trkpt>
      <trkpt lat="46.39302" lon="-0.2758">
        <ele>103</ele>
        <time>2020-05-31T08:38:05Z</time>
      </trkpt>
      <trkpt lat="46.39297" lon="-0.27585">
        <ele>102.9</ele>
        <time>2020-05-31T08:38:06Z</time>
      </trkpt>
      <trkpt lat="46.39291" lon="-0.27591">
        <ele>102.9</ele>
        <time>2020-05-31T08:38:07Z</time>
      </trkpt>
      <trkpt lat="46.39285" lon="-0.27596">
        <ele>102.8</ele>
        <time>2020-05-31T08:38:08Z</time>
      </trkpt>
      <trkpt lat="46.39279" lon="-0.27601">
        <ele>102.8</ele>
        <time>2020-05-31T08:38:09Z</time>
      </trkpt>
      <trkpt lat="46.39274" lon="-0.27606">
        <ele>102.7</ele>
        <time>2020-05-31T08:38:10Z</time>
      </trkpt>
      <trkpt lat="46.39268" lon="-0.27611">
        <ele>102.6</ele>
        <time>2020-05-31T08:38:11Z</time>
      </trkpt>
      <trkpt lat="46.39263" lon="-0.27616">
        <ele>102.5</ele>
        <time>2020-05-31T08:38:12Z</time>
      </trkpt>
      <trkpt lat="46.39257" lon="-0.27619">
        <ele>102.5</ele>
        <time>2020-05-31T08:38:13Z</time>
      </trkpt>
      <trkpt lat="46.39252" lon="-0.27622">
        <ele>102.4</ele>
        <time>2020-05-31T08:38:14Z</time>
      </trkpt>
      <trkpt lat="46.39247" lon="-0.27625">
        <ele>102.4</ele>
        <time>2020-05-31T08:38:15Z</time>
      </trkpt>
      <trkpt lat="46.39242" lon="-0.2763">
        <ele>102.3</ele>
        <time>2020-05-31T08:38:16Z</time>
      </trkpt>
      <trkpt lat="46.39237" lon="-0.27634">
        <ele>102.2</ele>
        <time>2020-05-31T08:38:17Z</time>
      </trkpt>
      <trkpt lat="46.39232" lon="-0.27638">
        <ele>102.2</ele>
        <time>2020-05-31T08:38:18Z</time>
      </trkpt>
      <trkpt lat="46.39227" lon="-0.27643">
        <ele>102.1</ele>
        <time>2020-05-31T08:38:19Z</time>
      </trkpt>
      <trkpt lat="46.39222" lon="-0.27648">
        <ele>102</ele>
        <time>2020-05-31T08:38:20Z</time>
      </trkpt>
      <trkpt lat="46.39217" lon="-0.27653">
        <ele>101.9</ele>
        <time>2020-05-31T08:38:21Z</time>
      </trkpt>
      <trkpt lat="46.39213" lon="-0.27659">
        <ele>101.8</ele>
        <time>2020-05-31T08:38:22Z</time>
      </trkpt>
      <trkpt lat="46.39208" lon="-0.27663">
        <ele>101.7</ele>
        <time>2020-05-31T08:38:23Z</time>
      </trkpt>
      <trkpt lat="46.39204" lon="-0.27666">
        <ele>101.6</ele>
        <time>2020-05-31T08:38:24Z</time>
      </trkpt>
      <trkpt lat="46.39199" lon="-0.2767">
        <ele>101.5</ele>
        <time>2020-05-31T08:38:25Z</time>
      </trkpt>
      <trkpt lat="46.39194" lon="-0.27675">
        <ele>101.4</ele>
        <time>2020-05-31T08:38:26Z</time>
      </trkpt>
      <trkpt lat="46.39189" lon="-0.27679">
        <ele>101.4</ele>
        <time>2020-05-31T08:38:27Z</time>
      </trkpt>
      <trkpt lat="46.39184" lon="-0.27683">
        <ele>101.3</ele>
        <time>2020-05-31T08:38:28Z</time>
      </trkpt>
      <trkpt lat="46.39179" lon="-0.27688">
        <ele>101.2</ele>
        <time>2020-05-31T08:38:29Z</time>
      </trkpt>
      <trkpt lat="46.39174" lon="-0.27691">
        <ele>101.2</ele>
        <time>2020-05-31T08:38:30Z</time>
      </trkpt>
      <trkpt lat="46.3917" lon="-0.27695">
        <ele>101.2</ele>
        <time>2020-05-31T08:38:31Z</time>
      </trkpt>
      <trkpt lat="46.39165" lon="-0.27697">
        <ele>101.1</ele>
        <time>2020-05-31T08:38:32Z</time>
      </trkpt>
      <trkpt lat="46.3916" lon="-0.277">
        <ele>101.1</ele>
        <time>2020-05-31T08:38:33Z</time>
      </trkpt>
      <trkpt lat="46.39154" lon="-0.27702">
        <ele>101</ele>
        <time>2020-05-31T08:38:34Z</time>
      </trkpt>
      <trkpt lat="46.39149" lon="-0.27705">
        <ele>100.9</ele>
        <time>2020-05-31T08:38:35Z</time>
      </trkpt>
      <trkpt lat="46.39144" lon="-0.27708">
        <ele>100.9</ele>
        <time>2020-05-31T08:38:36Z</time>
      </trkpt>
      <trkpt lat="46.3914" lon="-0.27712">
        <ele>100.8</ele>
        <time>2020-05-31T08:38:37Z</time>
      </trkpt>
      <trkpt lat="46.39137" lon="-0.27718">
        <ele>100.8</ele>
        <time>2020-05-31T08:38:38Z</time>
      </trkpt>
      <trkpt lat="46.39135" lon="-0.27724">
        <ele>100.9</ele>
        <time>2020-05-31T08:38:39Z</time>
      </trkpt>
      <trkpt lat="46.39133" lon="-0.2773">
        <ele>100.9</ele>
        <time>2020-05-31T08:38:40Z</time>
      </trkpt>
      <trkpt lat="46.39131" lon="-0.27736">
        <ele>101</ele>
        <time>2020-05-31T08:38:41Z</time>
      </trkpt>
      <trkpt lat="46.39129" lon="-0.27742">
        <ele>100.8</ele>
        <time>2020-05-31T08:38:42Z</time>
      </trkpt>
      <trkpt lat="46.39127" lon="-0.27749">
        <ele>100.7</ele>
        <time>2020-05-31T08:38:43Z</time>
      </trkpt>
      <trkpt lat="46.39125" lon="-0.27755">
        <ele>100.6</ele>
        <time>2020-05-31T08:38:44Z</time>
      </trkpt>
      <trkpt lat="46.39122" lon="-0.27761">
        <ele>100.4</ele>
        <time>2020-05-31T08:38:45Z</time>
      </trkpt>
      <trkpt lat="46.39118" lon="-0.27767">
        <ele>100.3</ele>
        <time>2020-05-31T08:38:46Z</time>
      </trkpt>
      <trkpt lat="46.39114" lon="-0.2777">
        <ele>100.1</ele>
        <time>2020-05-31T08:38:47Z</time>
      </trkpt>
      <trkpt lat="46.39109" lon="-0.27774">
        <ele>100</ele>
        <time>2020-05-31T08:38:48Z</time>
      </trkpt>
      <trkpt lat="46.39104" lon="-0.27778">
        <ele>99.8</ele>
        <time>2020-05-31T08:38:49Z</time>
      </trkpt>
      <trkpt lat="46.39099" lon="-0.27783">
        <ele>99.6</ele>
        <time>2020-05-31T08:38:50Z</time>
      </trkpt>
      <trkpt lat="46.39094" lon="-0.27787">
        <ele>99.4</ele>
        <time>2020-05-31T08:38:51Z</time>
      </trkpt>
      <trkpt lat="46.39089" lon="-0.27793">
        <ele>99.3</ele>
        <time>2020-05-31T08:38:52Z</time>
      </trkpt>
      <trkpt lat="46.39085" lon="-0.27799">
        <ele>99.1</ele>
        <time>2020-05-31T08:38:53Z</time>
      </trkpt>
      <trkpt lat="46.39083" lon="-0.27806">
        <ele>99</ele>
        <time>2020-05-31T08:38:54Z</time>
      </trkpt>
      <trkpt lat="46.39082" lon="-0.27816">
        <ele>98.5</ele>
        <time>2020-05-31T08:38:55Z</time>
      </trkpt>
      <trkpt lat="46.39085" lon="-0.27824">
        <ele>98.4</ele>
        <time>2020-05-31T08:38:56Z</time>
      </trkpt>
      <trkpt lat="46.39089" lon="-0.27831">
        <ele>98.3</ele>
        <time>2020-05-31T08:38:57Z</time>
      </trkpt>
      <trkpt lat="46.39092" lon="-0.27839">
        <ele>98.2</ele>
        <time>2020-05-31T08:38:58Z</time>
      </trkpt>
      <trkpt lat="46.39096" lon="-0.27846">
        <ele>98.1</ele>
        <time>2020-05-31T08:38:59Z</time>
      </trkpt>
      <trkpt lat="46.39099" lon="-0.27853">
        <ele>97.9</ele>
        <time>2020-05-31T08:39:00Z</time>
      </trkpt>
      <trkpt lat="46.39103" lon="-0.2786">
        <ele>97.8</ele>
        <time>2020-05-31T08:39:01Z</time>
      </trkpt>
      <trkpt lat="46.39107" lon="-0.27866">
        <ele>97.7</ele>
        <time>2020-05-31T08:39:02Z</time>
      </trkpt>
      <trkpt lat="46.39112" lon="-0.27872">
        <ele>97.6</ele>
        <time>2020-05-31T08:39:03Z</time>
      </trkpt>
      <trkpt lat="46.39117" lon="-0.27879">
        <ele>97.5</ele>
        <time>2020-05-31T08:39:04Z</time>
      </trkpt>
      <trkpt lat="46.39121" lon="-0.27887">
        <ele>97.3</ele>
        <time>2020-05-31T08:39:05Z</time>
      </trkpt>
      <trkpt lat="46.39126" lon="-0.27894">
        <ele>97.2</ele>
        <time>2020-05-31T08:39:06Z</time>
      </trkpt>
      <trkpt lat="46.3913" lon="-0.27899">
        <ele>97.1</ele>
        <time>2020-05-31T08:39:07Z</time>
      </trkpt>
      <trkpt lat="46.39134" lon="-0.27906">
        <ele>96.9</ele>
        <time>2020-05-31T08:39:08Z</time>
      </trkpt>
      <trkpt lat="46.39138" lon="-0.27913">
        <ele>96.8</ele>
        <time>2020-05-31T08:39:09Z</time>
      </trkpt>
      <trkpt lat="46.39142" lon="-0.2792">
        <ele>96.7</ele>
        <time>2020-05-31T08:39:10Z</time>
      </trkpt>
      <trkpt lat="46.39147" lon="-0.27925">
        <ele>96.6</ele>
        <time>2020-05-31T08:39:11Z</time>
      </trkpt>
      <trkpt lat="46.39152" lon="-0.2793">
        <ele>96.5</ele>
        <time>2020-05-31T08:39:12Z</time>
      </trkpt>
      <trkpt lat="46.39156" lon="-0.27935">
        <ele>96.4</ele>
        <time>2020-05-31T08:39:13Z</time>
      </trkpt>
      <trkpt lat="46.39161" lon="-0.2794">
        <ele>96.3</ele>
        <time>2020-05-31T08:39:14Z</time>
      </trkpt>
      <trkpt lat="46.39166" lon="-0.27945">
        <ele>96.2</ele>
        <time>2020-05-31T08:39:15Z</time>
      </trkpt>
      <trkpt lat="46.3917" lon="-0.2795">
        <ele>96</ele>
        <time>2020-05-31T08:39:16Z</time>
      </trkpt>
      <trkpt lat="46.39174" lon="-0.27956">
        <ele>96</ele>
        <time>2020-05-31T08:39:17Z</time>
      </trkpt>
      <trkpt lat="46.39177" lon="-0.27963">
        <ele>95.9</ele>
        <time>2020-05-31T08:39:18Z</time>
      </trkpt>
      <trkpt lat="46.39181" lon="-0.2797">
        <ele>95.8</ele>
        <time>2020-05-31T08:39:19Z</time>
      </trkpt>
      <trkpt lat="46.39184" lon="-0.27977">
        <ele>95.7</ele>
        <time>2020-05-31T08:39:20Z</time>
      </trkpt>
      <trkpt lat="46.39187" lon="-0.27984">
        <ele>95.6</ele>
        <time>2020-05-31T08:39:21Z</time>
      </trkpt>
      <trkpt lat="46.39191" lon="-0.27991">
        <ele>95.5</ele>
        <time>2020-05-31T08:39:22Z</time>
      </trkpt>
      <trkpt lat="46.39194" lon="-0.27999">
        <ele>95.4</ele>
        <time>2020-05-31T08:39:23Z</time>
      </trkpt>
      <trkpt lat="46.39197" lon="-0.28007">
        <ele>95.4</ele>
        <time>2020-05-31T08:39:24Z</time>
      </trkpt>
      <trkpt lat="46.392" lon="-0.28015">
        <ele>95.3</ele>
        <time>2020-05-31T08:39:25Z</time>
      </trkpt>
      <trkpt lat="46.39202" lon="-0.28023">
        <ele>95.3</ele>
        <time>2020-05-31T08:39:26Z</time>
      </trkpt>
      <trkpt lat="46.39206" lon="-0.2803">
        <ele>95.3</ele>
        <time>2020-05-31T08:39:27Z</time>
      </trkpt>
      <trkpt lat="46.39209" lon="-0.28038">
        <ele>95.3</ele>
        <time>2020-05-31T08:39:28Z</time>
      </trkpt>
      <trkpt lat="46.39211" lon="-0.28046">
        <ele>95.2</ele>
        <time>2020-05-31T08:39:29Z</time>
      </trkpt>
      <trkpt lat="46.39214" lon="-0.28053">
        <ele>95.2</ele>
        <time>2020-05-31T08:39:30Z</time>
      </trkpt>
      <trkpt lat="46.39217" lon="-0.28061">
        <ele>95.2</ele>
        <time>2020-05-31T08:39:31Z</time>
      </trkpt>
      <trkpt lat="46.3922" lon="-0.28068">
        <ele>95.2</ele>
        <time>2020-05-31T08:39:32Z</time>
      </trkpt>
      <trkpt lat="46.39223" lon="-0.28075">
        <ele>95.1</ele>
        <time>2020-05-31T08:39:33Z</time>
      </trkpt>
      <trkpt lat="46.39226" lon="-0.28082">
        <ele>95.1</ele>
        <time>2020-05-31T08:39:34Z</time>
      </trkpt>
      <trkpt lat="46.39229" lon="-0.2809">
        <ele>95.1</ele>
        <time>2020-05-31T08:39:35Z</time>
      </trkpt>
      <trkpt lat="46.39232" lon="-0.28097">
        <ele>95.2</ele>
        <time>2020-05-31T08:39:36Z</time>
      </trkpt>
      <trkpt lat="46.39235" lon="-0.28104">
        <ele>95.3</ele>
        <time>2020-05-31T08:39:37Z</time>
      </trkpt>
      <trkpt lat="46.39238" lon="-0.28111">
        <ele>95.3</ele>
        <time>2020-05-31T08:39:38Z</time>
      </trkpt>
      <trkpt lat="46.39241" lon="-0.28118">
        <ele>95.4</ele>
        <time>2020-05-31T08:39:39Z</time>
      </trkpt>
      <trkpt lat="46.39245" lon="-0.28124">
        <ele>95.5</ele>
        <time>2020-05-31T08:39:40Z</time>
      </trkpt>
      <trkpt lat="46.39248" lon="-0.2813">
        <ele>95.6</ele>
        <time>2020-05-31T08:39:41Z</time>
      </trkpt>
      <trkpt lat="46.39252" lon="-0.28136">
        <ele>95.7</ele>
        <time>2020-05-31T08:39:42Z</time>
      </trkpt>
      <trkpt lat="46.39255" lon="-0.28142">
        <ele>95.8</ele>
        <time>2020-05-31T08:39:43Z</time>
      </trkpt>
      <trkpt lat="46.39258" lon="-0.28148">
        <ele>95.8</ele>
        <time>2020-05-31T08:39:44Z</time>
      </trkpt>
      <trkpt lat="46.39261" lon="-0.28154">
        <ele>95.9</ele>
        <time>2020-05-31T08:39:45Z</time>
      </trkpt>
      <trkpt lat="46.39264" lon="-0.2816">
        <ele>95.9</ele>
        <time>2020-05-31T08:39:46Z</time>
      </trkpt>
      <trkpt lat="46.39268" lon="-0.28166">
        <ele>96</ele>
        <time>2020-05-31T08:39:47Z</time>
      </trkpt>
      <trkpt lat="46.39271" lon="-0.28171">
        <ele>96.1</ele>
        <time>2020-05-31T08:39:48Z</time>
      </trkpt>
      <trkpt lat="46.39275" lon="-0.28176">
        <ele>96.1</ele>
        <time>2020-05-31T08:39:49Z</time>
      </trkpt>
      <trkpt lat="46.39278" lon="-0.28182">
        <ele>96.2</ele>
        <time>2020-05-31T08:39:50Z</time>
      </trkpt>
      <trkpt lat="46.39282" lon="-0.28187">
        <ele>96.2</ele>
        <time>2020-05-31T08:39:51Z</time>
      </trkpt>
      <trkpt lat="46.39285" lon="-0.28192">
        <ele>96.3</ele>
        <time>2020-05-31T08:39:52Z</time>
      </trkpt>
      <trkpt lat="46.39289" lon="-0.28198">
        <ele>96.3</ele>
        <time>2020-05-31T08:39:53Z</time>
      </trkpt>
      <trkpt lat="46.39293" lon="-0.28203">
        <ele>96.4</ele>
        <time>2020-05-31T08:39:54Z</time>
      </trkpt>
      <trkpt lat="46.39297" lon="-0.28208">
        <ele>96.5</ele>
        <time>2020-05-31T08:39:55Z</time>
      </trkpt>
      <trkpt lat="46.39301" lon="-0.28213">
        <ele>96.5</ele>
        <time>2020-05-31T08:39:56Z</time>
      </trkpt>
      <trkpt lat="46.39305" lon="-0.28218">
        <ele>96.6</ele>
        <time>2020-05-31T08:39:57Z</time>
      </trkpt>
      <trkpt lat="46.39309" lon="-0.28223">
        <ele>96.7</ele>
        <time>2020-05-31T08:39:58Z</time>
      </trkpt>
      <trkpt lat="46.39313" lon="-0.28228">
        <ele>96.8</ele>
        <time>2020-05-31T08:39:59Z</time>
      </trkpt>
      <trkpt lat="46.39318" lon="-0.28233">
        <ele>96.8</ele>
        <time>2020-05-31T08:40:00Z</time>
      </trkpt>
      <trkpt lat="46.39322" lon="-0.28237">
        <ele>96.9</ele>
        <time>2020-05-31T08:40:01Z</time>
      </trkpt>
      <trkpt lat="46.39326" lon="-0.28241">
        <ele>97</ele>
        <time>2020-05-31T08:40:02Z</time>
      </trkpt>
      <trkpt lat="46.39331" lon="-0.28245">
        <ele>97.1</ele>
        <time>2020-05-31T08:40:03Z</time>
      </trkpt>
      <trkpt lat="46.39335" lon="-0.28249">
        <ele>97.1</ele>
        <time>2020-05-31T08:40:04Z</time>
      </trkpt>
      <trkpt lat="46.3934" lon="-0.28253">
        <ele>97.2</ele>
        <time>2020-05-31T08:40:05Z</time>
      </trkpt>
      <trkpt lat="46.39344" lon="-0.28257">
        <ele>97.3</ele>
        <time>2020-05-31T08:40:06Z</time>
      </trkpt>
      <trkpt lat="46.39349" lon="-0.28261">
        <ele>97.3</ele>
        <time>2020-05-31T08:40:07Z</time>
      </trkpt>
      <trkpt lat="46.39354" lon="-0.28265">
        <ele>97.3</ele>
        <time>2020-05-31T08:40:08Z</time>
      </trkpt>
      <trkpt lat="46.39359" lon="-0.28268">
        <ele>97.3</ele>
        <time>2020-05-31T08:40:09Z</time>
      </trkpt>
      <trkpt lat="46.39364" lon="-0.28271">
        <ele>97.4</ele>
        <time>2020-05-31T08:40:10Z</time>
      </trkpt>
      <trkpt lat="46.39368" lon="-0.28275">
        <ele>97.4</ele>
        <time>2020-05-31T08:40:11Z</time>
      </trkpt>
      <trkpt lat="46.39372" lon="-0.28279">
        <ele>97.5</ele>
        <time>2020-05-31T08:40:12Z</time>
      </trkpt>
      <trkpt lat="46.39376" lon="-0.28284">
        <ele>97.6</ele>
        <time>2020-05-31T08:40:13Z</time>
      </trkpt>
      <trkpt lat="46.39379" lon="-0.28288">
        <ele>97.7</ele>
        <time>2020-05-31T08:40:14Z</time>
      </trkpt>
      <trkpt lat="46.39383" lon="-0.28291">
        <ele>97.9</ele>
        <time>2020-05-31T08:40:15Z</time>
      </trkpt>
      <trkpt lat="46.39387" lon="-0.28296">
        <ele>98</ele>
        <time>2020-05-31T08:40:16Z</time>
      </trkpt>
      <trkpt lat="46.39391" lon="-0.28299">
        <ele>98.1</ele>
        <time>2020-05-31T08:40:17Z</time>
      </trkpt>
      <trkpt lat="46.39396" lon="-0.28303">
        <ele>98.3</ele>
        <time>2020-05-31T08:40:18Z</time>
      </trkpt>
      <trkpt lat="46.394" lon="-0.28306">
        <ele>98.4</ele>
        <time>2020-05-31T08:40:19Z</time>
      </trkpt>
      <trkpt lat="46.39404" lon="-0.28309">
        <ele>98.6</ele>
        <time>2020-05-31T08:40:20Z</time>
      </trkpt>
      <trkpt lat="46.39408" lon="-0.28313">
        <ele>98.7</ele>
        <time>2020-05-31T08:40:21Z</time>
      </trkpt>
      <trkpt lat="46.39412" lon="-0.28317">
        <ele>98.8</ele>
        <time>2020-05-31T08:40:22Z</time>
      </trkpt>
      <trkpt lat="46.39415" lon="-0.28323">
        <ele>99</ele>
        <time>2020-05-31T08:40:23Z</time>
      </trkpt>
      <trkpt lat="46.39419" lon="-0.28328">
        <ele>99.1</ele>
        <time>2020-05-31T08:40:24Z</time>
      </trkpt>
      <trkpt lat="46.39422" lon="-0.28333">
        <ele>99.2</ele>
        <time>2020-05-31T08:40:25Z</time>
      </trkpt>
      <trkpt lat="46.39425" lon="-0.28338">
        <ele>99.4</ele>
        <time>2020-05-31T08:40:26Z</time>
      </trkpt>
      <trkpt lat="46.39429" lon="-0.28343">
        <ele>99.5</ele>
        <time>2020-05-31T08:40:27Z</time>
      </trkpt>
      <trkpt lat="46.39433" lon="-0.28347">
        <ele>99.7</ele>
        <time>2020-05-31T08:40:28Z</time>
      </trkpt>
      <trkpt lat="46.39437" lon="-0.28351">
        <ele>99.8</ele>
        <time>2020-05-31T08:40:29Z</time>
      </trkpt>
      <trkpt lat="46.3944" lon="-0.28355">
        <ele>100</ele>
        <time>2020-05-31T08:40:30Z</time>
      </trkpt>
      <trkpt lat="46.39443" lon="-0.2836">
        <ele>100.1</ele>
        <time>2020-05-31T08:40:31Z</time>
      </trkpt>
      <trkpt lat="46.39446" lon="-0.28365">
        <ele>100.3</ele>
        <time>2020-05-31T08:40:32Z</time>
      </trkpt>
      <trkpt lat="46.39449" lon="-0.28369">
        <ele>100.5</ele>
        <time>2020-05-31T08:40:33Z</time>
      </trkpt>
      <trkpt lat="46.39452" lon="-0.28374">
        <ele>100.6</ele>
        <time>2020-05-31T08:40:34Z</time>
      </trkpt>
      <trkpt lat="46.39455" lon="-0.28378">
        <ele>100.8</ele>
        <time>2020-05-31T08:40:35Z</time>
      </trkpt>
      <trkpt lat="46.39458" lon="-0.28383">
        <ele>100.9</ele>
        <time>2020-05-31T08:40:36Z</time>
      </trkpt>
      <trkpt lat="46.39462" lon="-0.28386">
        <ele>101.1</ele>
        <time>2020-05-31T08:40:37Z</time>
      </trkpt>
      <trkpt lat="46.39465" lon="-0.2839">
        <ele>101.2</ele>
        <time>2020-05-31T08:40:38Z</time>
      </trkpt>
      <trkpt lat="46.39467" lon="-0.28394">
        <ele>101.3</ele>
        <time>2020-05-31T08:40:39Z</time>
      </trkpt>
      <trkpt lat="46.3947" lon="-0.28398">
        <ele>101.5</ele>
        <time>2020-05-31T08:40:40Z</time>
      </trkpt>
      <trkpt lat="46.39473" lon="-0.28402">
        <ele>101.6</ele>
        <time>2020-05-31T08:40:41Z</time>
      </trkpt>
      <trkpt lat="46.39475" lon="-0.28405">
        <ele>101.7</ele>
        <time>2020-05-31T08:40:42Z</time>
      </trkpt>
      <trkpt lat="46.39478" lon="-0.28407">
        <ele>101.8</ele>
        <time>2020-05-31T08:40:43Z</time>
      </trkpt>
      <trkpt lat="46.39481" lon="-0.28409">
        <ele>102</ele>
        <time>2020-05-31T08:40:44Z</time>
      </trkpt>
      <trkpt lat="46.39483" lon="-0.28412">
        <ele>102.1</ele>
        <time>2020-05-31T08:40:45Z</time>
      </trkpt>
      <trkpt lat="46.39486" lon="-0.28416">
        <ele>102.2</ele>
        <time>2020-05-31T08:40:46Z</time>
      </trkpt>
      <trkpt lat="46.39489" lon="-0.28418">
        <ele>102.3</ele>
        <time>2020-05-31T08:40:47Z</time>
      </trkpt>
      <trkpt lat="46.39493" lon="-0.2842">
        <ele>102.4</ele>
        <time>2020-05-31T08:40:48Z</time>
      </trkpt>
      <trkpt lat="46.39496" lon="-0.28423">
        <ele>102.5</ele>
        <time>2020-05-31T08:40:49Z</time>
      </trkpt>
      <trkpt lat="46.39499" lon="-0.28427">
        <ele>102.6</ele>
        <time>2020-05-31T08:40:50Z</time>
      </trkpt>
      <trkpt lat="46.39501" lon="-0.2843">
        <ele>102.7</ele>
        <time>2020-05-31T08:40:51Z</time>
      </trkpt>
      <trkpt lat="46.39504" lon="-0.28434">
        <ele>102.8</ele>
        <time>2020-05-31T08:40:52Z</time>
      </trkpt>
      <trkpt lat="46.39505" lon="-0.28436">
        <ele>102.8</ele>
        <time>2020-05-31T08:40:53Z</time>
      </trkpt>
      <trkpt lat="46.39508" lon="-0.28439">
        <ele>102.8</ele>
        <time>2020-05-31T08:40:54Z</time>
      </trkpt>
      <trkpt lat="46.39511" lon="-0.28442">
        <ele>102.9</ele>
        <time>2020-05-31T08:40:55Z</time>
      </trkpt>
      <trkpt lat="46.39514" lon="-0.28446">
        <ele>103</ele>
        <time>2020-05-31T08:40:56Z</time>
      </trkpt>
      <trkpt lat="46.39518" lon="-0.2845">
        <ele>103.1</ele>
        <time>2020-05-31T08:40:57Z</time>
      </trkpt>
      <trkpt lat="46.39521" lon="-0.28454">
        <ele>103.2</ele>
        <time>2020-05-31T08:40:58Z</time>
      </trkpt>
      <trkpt lat="46.39525" lon="-0.28458">
        <ele>103.2</ele>
        <time>2020-05-31T08:40:59Z</time>
      </trkpt>
      <trkpt lat="46.39529" lon="-0.28461">
        <ele>103.3</ele>
        <time>2020-05-31T08:41:00Z</time>
      </trkpt>
      <trkpt lat="46.39533" lon="-0.28464">
        <ele>103.3</ele>
        <time>2020-05-31T08:41:01Z</time>
      </trkpt>
      <trkpt lat="46.39537" lon="-0.28468">
        <ele>103.4</ele>
        <time>2020-05-31T08:41:02Z</time>
      </trkpt>
      <trkpt lat="46.39541" lon="-0.28473">
        <ele>103.4</ele>
        <time>2020-05-31T08:41:03Z</time>
      </trkpt>
      <trkpt lat="46.39545" lon="-0.28475">
        <ele>103.5</ele>
        <time>2020-05-31T08:41:04Z</time>
      </trkpt>
      <trkpt lat="46.39548" lon="-0.28481">
        <ele>103.5</ele>
        <time>2020-05-31T08:41:05Z</time>
      </trkpt>
      <trkpt lat="46.39552" lon="-0.28485">
        <ele>103.5</ele>
        <time>2020-05-31T08:41:06Z</time>
      </trkpt>
      <trkpt lat="46.39554" lon="-0.28487">
        <ele>103.5</ele>
        <time>2020-05-31T08:41:07Z</time>
      </trkpt>
      <trkpt lat="46.39556" lon="-0.2849">
        <ele>103.5</ele>
        <time>2020-05-31T08:41:08Z</time>
      </trkpt>
      <trkpt lat="46.39559" lon="-0.28493">
        <ele>103.6</ele>
        <time>2020-05-31T08:41:09Z</time>
      </trkpt>
      <trkpt lat="46.39561" lon="-0.28495">
        <ele>103.6</ele>
        <time>2020-05-31T08:41:10Z</time>
      </trkpt>
      <trkpt lat="46.39564" lon="-0.28497">
        <ele>103.6</ele>
        <time>2020-05-31T08:41:11Z</time>
      </trkpt>
      <trkpt lat="46.39567" lon="-0.285">
        <ele>103.6</ele>
        <time>2020-05-31T08:41:12Z</time>
      </trkpt>
      <trkpt lat="46.3957" lon="-0.28503">
        <ele>103.6</ele>
        <time>2020-05-31T08:41:13Z</time>
      </trkpt>
      <trkpt lat="46.39573" lon="-0.28508">
        <ele>103.6</ele>
        <time>2020-05-31T08:41:14Z</time>
      </trkpt>
      <trkpt lat="46.39576" lon="-0.28512">
        <ele>103.6</ele>
        <time>2020-05-31T08:41:15Z</time>
      </trkpt>
      <trkpt lat="46.39579" lon="-0.28516">
        <ele>103.6</ele>
        <time>2020-05-31T08:41:16Z</time>
      </trkpt>
      <trkpt lat="46.39582" lon="-0.28519">
        <ele>103.6</ele>
        <time>2020-05-31T08:41:17Z</time>
      </trkpt>
      <trkpt lat="46.39586" lon="-0.28523">
        <ele>103.6</ele>
        <time>2020-05-31T08:41:18Z</time>
      </trkpt>
      <trkpt lat="46.39588" lon="-0.28525">
        <ele>103.6</ele>
        <time>2020-05-31T08:41:19Z</time>
      </trkpt>
      <trkpt lat="46.39591" lon="-0.2853">
        <ele>103.6</ele>
        <time>2020-05-31T08:41:20Z</time>
      </trkpt>
      <trkpt lat="46.39592" lon="-0.28532">
        <ele>103.6</ele>
        <time>2020-05-31T08:41:21Z</time>
      </trkpt>
      <trkpt lat="46.39595" lon="-0.28536">
        <ele>103.5</ele>
        <time>2020-05-31T08:41:22Z</time>
      </trkpt>
      <trkpt lat="46.39599" lon="-0.28544">
        <ele>103.5</ele>
        <time>2020-05-31T08:41:23Z</time>
      </trkpt>
      <trkpt lat="46.39601" lon="-0.2855">
        <ele>103.5</ele>
        <time>2020-05-31T08:41:24Z</time>
      </trkpt>
      <trkpt lat="46.39601" lon="-0.28556">
        <ele>103.4</ele>
        <time>2020-05-31T08:41:25Z</time>
      </trkpt>
      <trkpt lat="46.396" lon="-0.28563">
        <ele>103.3</ele>
        <time>2020-05-31T08:41:26Z</time>
      </trkpt>
      <trkpt lat="46.39598" lon="-0.2857">
        <ele>103.2</ele>
        <time>2020-05-31T08:41:27Z</time>
      </trkpt>
      <trkpt lat="46.39596" lon="-0.28578">
        <ele>103.1</ele>
        <time>2020-05-31T08:41:28Z</time>
      </trkpt>
      <trkpt lat="46.39593" lon="-0.28583">
        <ele>103</ele>
        <time>2020-05-31T08:41:29Z</time>
      </trkpt>
      <trkpt lat="46.39591" lon="-0.2859">
        <ele>102.9</ele>
        <time>2020-05-31T08:41:30Z</time>
      </trkpt>
      <trkpt lat="46.39588" lon="-0.28597">
        <ele>102.8</ele>
        <time>2020-05-31T08:41:31Z</time>
      </trkpt>
      <trkpt lat="46.39585" lon="-0.28604">
        <ele>102.6</ele>
        <time>2020-05-31T08:41:32Z</time>
      </trkpt>
      <trkpt lat="46.39583" lon="-0.28611">
        <ele>102.5</ele>
        <time>2020-05-31T08:41:33Z</time>
      </trkpt>
      <trkpt lat="46.3958" lon="-0.28618">
        <ele>102.4</ele>
        <time>2020-05-31T08:41:34Z</time>
      </trkpt>
      <trkpt lat="46.39577" lon="-0.28625">
        <ele>102.3</ele>
        <time>2020-05-31T08:41:35Z</time>
      </trkpt>
      <trkpt lat="46.39573" lon="-0.28632">
        <ele>102.2</ele>
        <time>2020-05-31T08:41:36Z</time>
      </trkpt>
      <trkpt lat="46.3957" lon="-0.2864">
        <ele>102</ele>
        <time>2020-05-31T08:41:37Z</time>
      </trkpt>
      <trkpt lat="46.39568" lon="-0.28649">
        <ele>101.9</ele>
        <time>2020-05-31T08:41:38Z</time>
      </trkpt>
      <trkpt lat="46.39565" lon="-0.28657">
        <ele>101.8</ele>
        <time>2020-05-31T08:41:39Z</time>
      </trkpt>
      <trkpt lat="46.39561" lon="-0.28666">
        <ele>101.6</ele>
        <time>2020-05-31T08:41:40Z</time>
      </trkpt>
      <trkpt lat="46.39558" lon="-0.28675">
        <ele>101.5</ele>
        <time>2020-05-31T08:41:41Z</time>
      </trkpt>
      <trkpt lat="46.39554" lon="-0.28683">
        <ele>101.4</ele>
        <time>2020-05-31T08:41:42Z</time>
      </trkpt>
      <trkpt lat="46.3955" lon="-0.28692">
        <ele>101.3</ele>
        <time>2020-05-31T08:41:43Z</time>
      </trkpt>
      <trkpt lat="46.39547" lon="-0.287">
        <ele>101.1</ele>
        <time>2020-05-31T08:41:44Z</time>
      </trkpt>
      <trkpt lat="46.39544" lon="-0.28711">
        <ele>101</ele>
        <time>2020-05-31T08:41:45Z</time>
      </trkpt>
      <trkpt lat="46.3954" lon="-0.2872">
        <ele>100.9</ele>
        <time>2020-05-31T08:41:46Z</time>
      </trkpt>
      <trkpt lat="46.39537" lon="-0.28728">
        <ele>100.7</ele>
        <time>2020-05-31T08:41:47Z</time>
      </trkpt>
      <trkpt lat="46.39533" lon="-0.28737">
        <ele>100.6</ele>
        <time>2020-05-31T08:41:48Z</time>
      </trkpt>
      <trkpt lat="46.39529" lon="-0.28747">
        <ele>100.4</ele>
        <time>2020-05-31T08:41:49Z</time>
      </trkpt>
      <trkpt lat="46.39524" lon="-0.28755">
        <ele>100.2</ele>
        <time>2020-05-31T08:41:50Z</time>
      </trkpt>
      <trkpt lat="46.3952" lon="-0.28765">
        <ele>100.1</ele>
        <time>2020-05-31T08:41:51Z</time>
      </trkpt>
      <trkpt lat="46.39516" lon="-0.28773">
        <ele>100</ele>
        <time>2020-05-31T08:41:52Z</time>
      </trkpt>
      <trkpt lat="46.39512" lon="-0.28782">
        <ele>99.9</ele>
        <time>2020-05-31T08:41:53Z</time>
      </trkpt>
      <trkpt lat="46.39508" lon="-0.28791">
        <ele>99.8</ele>
        <time>2020-05-31T08:41:54Z</time>
      </trkpt>
      <trkpt lat="46.39504" lon="-0.288">
        <ele>99.7</ele>
        <time>2020-05-31T08:41:55Z</time>
      </trkpt>
      <trkpt lat="46.395" lon="-0.28808">
        <ele>99.6</ele>
        <time>2020-05-31T08:41:56Z</time>
      </trkpt>
      <trkpt lat="46.39496" lon="-0.28817">
        <ele>99.5</ele>
        <time>2020-05-31T08:41:57Z</time>
      </trkpt>
      <trkpt lat="46.39492" lon="-0.28825">
        <ele>99.5</ele>
        <time>2020-05-31T08:41:58Z</time>
      </trkpt>
      <trkpt lat="46.39488" lon="-0.28833">
        <ele>99.4</ele>
        <time>2020-05-31T08:41:59Z</time>
      </trkpt>
      <trkpt lat="46.39483" lon="-0.2884">
        <ele>99.4</ele>
        <time>2020-05-31T08:42:00Z</time>
      </trkpt>
      <trkpt lat="46.39478" lon="-0.28848">
        <ele>99.4</ele>
        <time>2020-05-31T08:42:01Z</time>
      </trkpt>
      <trkpt lat="46.39473" lon="-0.28855">
        <ele>99.4</ele>
        <time>2020-05-31T08:42:02Z</time>
      </trkpt>
      <trkpt lat="46.39469" lon="-0.28863">
        <ele>99.3</ele>
        <time>2020-05-31T08:42:03Z</time>
      </trkpt>
      <trkpt lat="46.39465" lon="-0.28871">
        <ele>99.2</ele>
        <time>2020-05-31T08:42:04Z</time>
      </trkpt>
      <trkpt lat="46.3946" lon="-0.28879">
        <ele>99.1</ele>
        <time>2020-05-31T08:42:05Z</time>
      </trkpt>
      <trkpt lat="46.39456" lon="-0.28886">
        <ele>99</ele>
        <time>2020-05-31T08:42:06Z</time>
      </trkpt>
      <trkpt lat="46.39452" lon="-0.28895">
        <ele>98.8</ele>
        <time>2020-05-31T08:42:07Z</time>
      </trkpt>
      <trkpt lat="46.39448" lon="-0.28902">
        <ele>98.6</ele>
        <time>2020-05-31T08:42:08Z</time>
      </trkpt>
      <trkpt lat="46.39444" lon="-0.28911">
        <ele>98.5</ele>
        <time>2020-05-31T08:42:09Z</time>
      </trkpt>
      <trkpt lat="46.3944" lon="-0.28919">
        <ele>98.4</ele>
        <time>2020-05-31T08:42:10Z</time>
      </trkpt>
      <trkpt lat="46.39436" lon="-0.28927">
        <ele>98.3</ele>
        <time>2020-05-31T08:42:11Z</time>
      </trkpt>
      <trkpt lat="46.39432" lon="-0.28935">
        <ele>98.3</ele>
        <time>2020-05-31T08:42:12Z</time>
      </trkpt>
      <trkpt lat="46.39429" lon="-0.28944">
        <ele>98.2</ele>
        <time>2020-05-31T08:42:13Z</time>
      </trkpt>
      <trkpt lat="46.39425" lon="-0.28952">
        <ele>98.1</ele>
        <time>2020-05-31T08:42:14Z</time>
      </trkpt>
      <trkpt lat="46.39422" lon="-0.2896">
        <ele>98</ele>
        <time>2020-05-31T08:42:15Z</time>
      </trkpt>
      <trkpt lat="46.39418" lon="-0.28968">
        <ele>97.9</ele>
        <time>2020-05-31T08:42:16Z</time>
      </trkpt>
      <trkpt lat="46.39414" lon="-0.28975">
        <ele>97.8</ele>
        <time>2020-05-31T08:42:17Z</time>
      </trkpt>
      <trkpt lat="46.3941" lon="-0.28983">
        <ele>97.7</ele>
        <time>2020-05-31T08:42:18Z</time>
      </trkpt>
      <trkpt lat="46.39406" lon="-0.28991">
        <ele>97.5</ele>
        <time>2020-05-31T08:42:19Z</time>
      </trkpt>
      <trkpt lat="46.39401" lon="-0.28999">
        <ele>97.4</ele>
        <time>2020-05-31T08:42:20Z</time>
      </trkpt>
      <trkpt lat="46.39397" lon="-0.29006">
        <ele>97.4</ele>
        <time>2020-05-31T08:42:21Z</time>
      </trkpt>
      <trkpt lat="46.39392" lon="-0.29014">
        <ele>97.3</ele>
        <time>2020-05-31T08:42:22Z</time>
      </trkpt>
      <trkpt lat="46.39389" lon="-0.29023">
        <ele>97.2</ele>
        <time>2020-05-31T08:42:23Z</time>
      </trkpt>
      <trkpt lat="46.39384" lon="-0.2903">
        <ele>97.1</ele>
        <time>2020-05-31T08:42:24Z</time>
      </trkpt>
      <trkpt lat="46.39381" lon="-0.29038">
        <ele>97.1</ele>
        <time>2020-05-31T08:42:25Z</time>
      </trkpt>
      <trkpt lat="46.39377" lon="-0.29046">
        <ele>97</ele>
        <time>2020-05-31T08:42:26Z</time>
      </trkpt>
      <trkpt lat="46.39374" lon="-0.29054">
        <ele>96.9</ele>
        <time>2020-05-31T08:42:27Z</time>
      </trkpt>
      <trkpt lat="46.3937" lon="-0.29062">
        <ele>96.8</ele>
        <time>2020-05-31T08:42:28Z</time>
      </trkpt>
      <trkpt lat="46.39366" lon="-0.29071">
        <ele>96.7</ele>
        <time>2020-05-31T08:42:29Z</time>
      </trkpt>
      <trkpt lat="46.39362" lon="-0.29078">
        <ele>96.6</ele>
        <time>2020-05-31T08:42:30Z</time>
      </trkpt>
      <trkpt lat="46.39359" lon="-0.29087">
        <ele>96.5</ele>
        <time>2020-05-31T08:42:31Z</time>
      </trkpt>
      <trkpt lat="46.39355" lon="-0.29095">
        <ele>96.4</ele>
        <time>2020-05-31T08:42:32Z</time>
      </trkpt>
      <trkpt lat="46.39351" lon="-0.29102">
        <ele>96.3</ele>
        <time>2020-05-31T08:42:33Z</time>
      </trkpt>
      <trkpt lat="46.39347" lon="-0.2911">
        <ele>96.2</ele>
        <time>2020-05-31T08:42:34Z</time>
      </trkpt>
      <trkpt lat="46.39344" lon="-0.29118">
        <ele>96.1</ele>
        <time>2020-05-31T08:42:35Z</time>
      </trkpt>
      <trkpt lat="46.39341" lon="-0.29125">
        <ele>96</ele>
        <time>2020-05-31T08:42:36Z</time>
      </trkpt>
      <trkpt lat="46.39337" lon="-0.29132">
        <ele>95.9</ele>
        <time>2020-05-31T08:42:37Z</time>
      </trkpt>
      <trkpt lat="46.39334" lon="-0.2914">
        <ele>95.8</ele>
        <time>2020-05-31T08:42:38Z</time>
      </trkpt>
      <trkpt lat="46.3933" lon="-0.29147">
        <ele>95.7</ele>
        <time>2020-05-31T08:42:39Z</time>
      </trkpt>
      <trkpt lat="46.39326" lon="-0.29155">
        <ele>95.6</ele>
        <time>2020-05-31T08:42:40Z</time>
      </trkpt>
      <trkpt lat="46.39322" lon="-0.29162">
        <ele>95.5</ele>
        <time>2020-05-31T08:42:41Z</time>
      </trkpt>
      <trkpt lat="46.39318" lon="-0.29169">
        <ele>95.3</ele>
        <time>2020-05-31T08:42:42Z</time>
      </trkpt>
      <trkpt lat="46.39315" lon="-0.29177">
        <ele>95.2</ele>
        <time>2020-05-31T08:42:43Z</time>
      </trkpt>
      <trkpt lat="46.39311" lon="-0.29184">
        <ele>95.1</ele>
        <time>2020-05-31T08:42:44Z</time>
      </trkpt>
      <trkpt lat="46.39307" lon="-0.29192">
        <ele>95</ele>
        <time>2020-05-31T08:42:45Z</time>
      </trkpt>
      <trkpt lat="46.39303" lon="-0.29199">
        <ele>94.9</ele>
        <time>2020-05-31T08:42:46Z</time>
      </trkpt>
      <trkpt lat="46.39299" lon="-0.29206">
        <ele>94.7</ele>
        <time>2020-05-31T08:42:47Z</time>
      </trkpt>
      <trkpt lat="46.39294" lon="-0.29213">
        <ele>94.6</ele>
        <time>2020-05-31T08:42:48Z</time>
      </trkpt>
      <trkpt lat="46.3929" lon="-0.29221">
        <ele>94.5</ele>
        <time>2020-05-31T08:42:49Z</time>
      </trkpt>
      <trkpt lat="46.39285" lon="-0.29228">
        <ele>94.4</ele>
        <time>2020-05-31T08:42:50Z</time>
      </trkpt>
      <trkpt lat="46.39281" lon="-0.29236">
        <ele>94.2</ele>
        <time>2020-05-31T08:42:51Z</time>
      </trkpt>
      <trkpt lat="46.39276" lon="-0.29243">
        <ele>94.1</ele>
        <time>2020-05-31T08:42:52Z</time>
      </trkpt>
      <trkpt lat="46.39272" lon="-0.29251">
        <ele>93.9</ele>
        <time>2020-05-31T08:42:53Z</time>
      </trkpt>
      <trkpt lat="46.39267" lon="-0.29259">
        <ele>93.8</ele>
        <time>2020-05-31T08:42:54Z</time>
      </trkpt>
      <trkpt lat="46.39263" lon="-0.29267">
        <ele>93.7</ele>
        <time>2020-05-31T08:42:55Z</time>
      </trkpt>
      <trkpt lat="46.39258" lon="-0.29274">
        <ele>93.5</ele>
        <time>2020-05-31T08:42:56Z</time>
      </trkpt>
      <trkpt lat="46.39253" lon="-0.29282">
        <ele>93.4</ele>
        <time>2020-05-31T08:42:57Z</time>
      </trkpt>
      <trkpt lat="46.39249" lon="-0.2929">
        <ele>93.3</ele>
        <time>2020-05-31T08:42:58Z</time>
      </trkpt>
      <trkpt lat="46.39245" lon="-0.29298">
        <ele>93.1</ele>
        <time>2020-05-31T08:42:59Z</time>
      </trkpt>
      <trkpt lat="46.3924" lon="-0.29306">
        <ele>93</ele>
        <time>2020-05-31T08:43:00Z</time>
      </trkpt>
      <trkpt lat="46.39235" lon="-0.29313">
        <ele>92.8</ele>
        <time>2020-05-31T08:43:01Z</time>
      </trkpt>
      <trkpt lat="46.39231" lon="-0.29321">
        <ele>92.7</ele>
        <time>2020-05-31T08:43:02Z</time>
      </trkpt>
      <trkpt lat="46.39226" lon="-0.29329">
        <ele>92.5</ele>
        <time>2020-05-31T08:43:03Z</time>
      </trkpt>
      <trkpt lat="46.39222" lon="-0.29337">
        <ele>92.4</ele>
        <time>2020-05-31T08:43:04Z</time>
      </trkpt>
      <trkpt lat="46.39217" lon="-0.29345">
        <ele>92.3</ele>
        <time>2020-05-31T08:43:05Z</time>
      </trkpt>
      <trkpt lat="46.39213" lon="-0.29353">
        <ele>92.1</ele>
        <time>2020-05-31T08:43:06Z</time>
      </trkpt>
      <trkpt lat="46.39209" lon="-0.29362">
        <ele>92</ele>
        <time>2020-05-31T08:43:07Z</time>
      </trkpt>
      <trkpt lat="46.39204" lon="-0.2937">
        <ele>91.9</ele>
        <time>2020-05-31T08:43:08Z</time>
      </trkpt>
      <trkpt lat="46.39199" lon="-0.29378">
        <ele>91.8</ele>
        <time>2020-05-31T08:43:09Z</time>
      </trkpt>
      <trkpt lat="46.39195" lon="-0.29387">
        <ele>91.7</ele>
        <time>2020-05-31T08:43:10Z</time>
      </trkpt>
      <trkpt lat="46.3919" lon="-0.29396">
        <ele>91.6</ele>
        <time>2020-05-31T08:43:11Z</time>
      </trkpt>
      <trkpt lat="46.39186" lon="-0.29405">
        <ele>91.4</ele>
        <time>2020-05-31T08:43:12Z</time>
      </trkpt>
      <trkpt lat="46.39181" lon="-0.29414">
        <ele>91.2</ele>
        <time>2020-05-31T08:43:13Z</time>
      </trkpt>
      <trkpt lat="46.39177" lon="-0.29422">
        <ele>91</ele>
        <time>2020-05-31T08:43:14Z</time>
      </trkpt>
      <trkpt lat="46.39173" lon="-0.2943">
        <ele>90.8</ele>
        <time>2020-05-31T08:43:15Z</time>
      </trkpt>
      <trkpt lat="46.39168" lon="-0.29439">
        <ele>90.6</ele>
        <time>2020-05-31T08:43:16Z</time>
      </trkpt>
      <trkpt lat="46.39164" lon="-0.29447">
        <ele>90.4</ele>
        <time>2020-05-31T08:43:17Z</time>
      </trkpt>
      <trkpt lat="46.39159" lon="-0.29455">
        <ele>90.2</ele>
        <time>2020-05-31T08:43:18Z</time>
      </trkpt>
      <trkpt lat="46.39154" lon="-0.29464">
        <ele>90</ele>
        <time>2020-05-31T08:43:19Z</time>
      </trkpt>
      <trkpt lat="46.39148" lon="-0.29473">
        <ele>89.8</ele>
        <time>2020-05-31T08:43:20Z</time>
      </trkpt>
      <trkpt lat="46.39144" lon="-0.29482">
        <ele>89.6</ele>
        <time>2020-05-31T08:43:21Z</time>
      </trkpt>
      <trkpt lat="46.39139" lon="-0.29491">
        <ele>89.4</ele>
        <time>2020-05-31T08:43:22Z</time>
      </trkpt>
      <trkpt lat="46.39135" lon="-0.29501">
        <ele>89.2</ele>
        <time>2020-05-31T08:43:23Z</time>
      </trkpt>
      <trkpt lat="46.3913" lon="-0.2951">
        <ele>89</ele>
        <time>2020-05-31T08:43:24Z</time>
      </trkpt>
      <trkpt lat="46.39126" lon="-0.29519">
        <ele>88.7</ele>
        <time>2020-05-31T08:43:25Z</time>
      </trkpt>
      <trkpt lat="46.39121" lon="-0.29528">
        <ele>88.5</ele>
        <time>2020-05-31T08:43:26Z</time>
      </trkpt>
      <trkpt lat="46.39116" lon="-0.29538">
        <ele>88.3</ele>
        <time>2020-05-31T08:43:27Z</time>
      </trkpt>
      <trkpt lat="46.39112" lon="-0.29548">
        <ele>88</ele>
        <time>2020-05-31T08:43:28Z</time>
      </trkpt>
      <trkpt lat="46.39108" lon="-0.29558">
        <ele>87.8</ele>
        <time>2020-05-31T08:43:29Z</time>
      </trkpt>
      <trkpt lat="46.39105" lon="-0.29569">
        <ele>87.5</ele>
        <time>2020-05-31T08:43:30Z</time>
      </trkpt>
      <trkpt lat="46.39101" lon="-0.2958">
        <ele>87.3</ele>
        <time>2020-05-31T08:43:31Z</time>
      </trkpt>
      <trkpt lat="46.39097" lon="-0.29591">
        <ele>87.1</ele>
        <time>2020-05-31T08:43:32Z</time>
      </trkpt>
      <trkpt lat="46.39093" lon="-0.29602">
        <ele>86.9</ele>
        <time>2020-05-31T08:43:33Z</time>
      </trkpt>
      <trkpt lat="46.39089" lon="-0.29613">
        <ele>86.7</ele>
        <time>2020-05-31T08:43:34Z</time>
      </trkpt>
      <trkpt lat="46.39084" lon="-0.29623">
        <ele>86.5</ele>
        <time>2020-05-31T08:43:35Z</time>
      </trkpt>
      <trkpt lat="46.3908" lon="-0.29634">
        <ele>86.3</ele>
        <time>2020-05-31T08:43:36Z</time>
      </trkpt>
      <trkpt lat="46.39076" lon="-0.29646">
        <ele>86</ele>
        <time>2020-05-31T08:43:37Z</time>
      </trkpt>
      <trkpt lat="46.39072" lon="-0.29657">
        <ele>85.8</ele>
        <time>2020-05-31T08:43:38Z</time>
      </trkpt>
      <trkpt lat="46.39067" lon="-0.29667">
        <ele>85.6</ele>
        <time>2020-05-31T08:43:39Z</time>
      </trkpt>
      <trkpt lat="46.39063" lon="-0.29678">
        <ele>85.4</ele>
        <time>2020-05-31T08:43:40Z</time>
      </trkpt>
      <trkpt lat="46.39059" lon="-0.29689">
        <ele>85.2</ele>
        <time>2020-05-31T08:43:41Z</time>
      </trkpt>
      <trkpt lat="46.39055" lon="-0.297">
        <ele>85</ele>
        <time>2020-05-31T08:43:42Z</time>
      </trkpt>
      <trkpt lat="46.39051" lon="-0.29711">
        <ele>84.9</ele>
        <time>2020-05-31T08:43:43Z</time>
      </trkpt>
      <trkpt lat="46.39047" lon="-0.29722">
        <ele>84.8</ele>
        <time>2020-05-31T08:43:44Z</time>
      </trkpt>
      <trkpt lat="46.39042" lon="-0.29733">
        <ele>84.7</ele>
        <time>2020-05-31T08:43:45Z</time>
      </trkpt>
      <trkpt lat="46.39038" lon="-0.29743">
        <ele>84.6</ele>
        <time>2020-05-31T08:43:46Z</time>
      </trkpt>
      <trkpt lat="46.39033" lon="-0.29754">
        <ele>84.4</ele>
        <time>2020-05-31T08:43:47Z</time>
      </trkpt>
      <trkpt lat="46.39029" lon="-0.29765">
        <ele>84.2</ele>
        <time>2020-05-31T08:43:48Z</time>
      </trkpt>
      <trkpt lat="46.39025" lon="-0.29776">
        <ele>84.1</ele>
        <time>2020-05-31T08:43:49Z</time>
      </trkpt>
      <trkpt lat="46.39021" lon="-0.29788">
        <ele>83.9</ele>
        <time>2020-05-31T08:43:50Z</time>
      </trkpt>
      <trkpt lat="46.39016" lon="-0.29799">
        <ele>83.7</ele>
        <time>2020-05-31T08:43:51Z</time>
      </trkpt>
      <trkpt lat="46.39012" lon="-0.29811">
        <ele>83.5</ele>
        <time>2020-05-31T08:43:52Z</time>
      </trkpt>
      <trkpt lat="46.39008" lon="-0.29822">
        <ele>83.3</ele>
        <time>2020-05-31T08:43:53Z</time>
      </trkpt>
      <trkpt lat="46.39004" lon="-0.29834">
        <ele>83.1</ele>
        <time>2020-05-31T08:43:54Z</time>
      </trkpt>
      <trkpt lat="46.39" lon="-0.29845">
        <ele>82.9</ele>
        <time>2020-05-31T08:43:55Z</time>
      </trkpt>
      <trkpt lat="46.38995" lon="-0.29857">
        <ele>82.6</ele>
        <time>2020-05-31T08:43:56Z</time>
      </trkpt>
      <trkpt lat="46.38991" lon="-0.29869">
        <ele>82.4</ele>
        <time>2020-05-31T08:43:57Z</time>
      </trkpt>
      <trkpt lat="46.38987" lon="-0.29883">
        <ele>82.2</ele>
        <time>2020-05-31T08:43:58Z</time>
      </trkpt>
      <trkpt lat="46.38982" lon="-0.29896">
        <ele>82</ele>
        <time>2020-05-31T08:43:59Z</time>
      </trkpt>
      <trkpt lat="46.38979" lon="-0.29909">
        <ele>81.7</ele>
        <time>2020-05-31T08:44:00Z</time>
      </trkpt>
      <trkpt lat="46.38974" lon="-0.29921">
        <ele>81.5</ele>
        <time>2020-05-31T08:44:01Z</time>
      </trkpt>
      <trkpt lat="46.38969" lon="-0.29933">
        <ele>81.3</ele>
        <time>2020-05-31T08:44:02Z</time>
      </trkpt>
      <trkpt lat="46.38964" lon="-0.29946">
        <ele>81.1</ele>
        <time>2020-05-31T08:44:03Z</time>
      </trkpt>
      <trkpt lat="46.38959" lon="-0.29957">
        <ele>80.9</ele>
        <time>2020-05-31T08:44:04Z</time>
      </trkpt>
      <trkpt lat="46.38953" lon="-0.29968">
        <ele>80.7</ele>
        <time>2020-05-31T08:44:05Z</time>
      </trkpt>
      <trkpt lat="46.38947" lon="-0.29978">
        <ele>80.4</ele>
        <time>2020-05-31T08:44:06Z</time>
      </trkpt>
      <trkpt lat="46.38942" lon="-0.29988">
        <ele>80.3</ele>
        <time>2020-05-31T08:44:07Z</time>
      </trkpt>
      <trkpt lat="46.38936" lon="-0.29999">
        <ele>80.1</ele>
        <time>2020-05-31T08:44:08Z</time>
      </trkpt>
      <trkpt lat="46.38932" lon="-0.3001">
        <ele>79.9</ele>
        <time>2020-05-31T08:44:09Z</time>
      </trkpt>
      <trkpt lat="46.38928" lon="-0.30021">
        <ele>79.7</ele>
        <time>2020-05-31T08:44:10Z</time>
      </trkpt>
      <trkpt lat="46.38923" lon="-0.30033">
        <ele>79.5</ele>
        <time>2020-05-31T08:44:11Z</time>
      </trkpt>
      <trkpt lat="46.38919" lon="-0.30044">
        <ele>79.4</ele>
        <time>2020-05-31T08:44:12Z</time>
      </trkpt>
      <trkpt lat="46.38915" lon="-0.30055">
        <ele>79.3</ele>
        <time>2020-05-31T08:44:13Z</time>
      </trkpt>
      <trkpt lat="46.3891" lon="-0.30065">
        <ele>79.3</ele>
        <time>2020-05-31T08:44:14Z</time>
      </trkpt>
      <trkpt lat="46.38906" lon="-0.30076">
        <ele>79.2</ele>
        <time>2020-05-31T08:44:15Z</time>
      </trkpt>
      <trkpt lat="46.38902" lon="-0.30086">
        <ele>79.1</ele>
        <time>2020-05-31T08:44:16Z</time>
      </trkpt>
      <trkpt lat="46.38898" lon="-0.30097">
        <ele>78.9</ele>
        <time>2020-05-31T08:44:17Z</time>
      </trkpt>
      <trkpt lat="46.38893" lon="-0.30107">
        <ele>78.8</ele>
        <time>2020-05-31T08:44:18Z</time>
      </trkpt>
      <trkpt lat="46.38889" lon="-0.30117">
        <ele>78.7</ele>
        <time>2020-05-31T08:44:19Z</time>
      </trkpt>
      <trkpt lat="46.38884" lon="-0.30127">
        <ele>78.6</ele>
        <time>2020-05-31T08:44:20Z</time>
      </trkpt>
      <trkpt lat="46.3888" lon="-0.30137">
        <ele>78.5</ele>
        <time>2020-05-31T08:44:21Z</time>
      </trkpt>
      <trkpt lat="46.38876" lon="-0.30147">
        <ele>78.4</ele>
        <time>2020-05-31T08:44:22Z</time>
      </trkpt>
      <trkpt lat="46.38872" lon="-0.30157">
        <ele>78.4</ele>
        <time>2020-05-31T08:44:23Z</time>
      </trkpt>
      <trkpt lat="46.38869" lon="-0.30167">
        <ele>78.3</ele>
        <time>2020-05-31T08:44:24Z</time>
      </trkpt>
      <trkpt lat="46.38865" lon="-0.30176">
        <ele>78.3</ele>
        <time>2020-05-31T08:44:25Z</time>
      </trkpt>
      <trkpt lat="46.38861" lon="-0.30185">
        <ele>78.3</ele>
        <time>2020-05-31T08:44:26Z</time>
      </trkpt>
      <trkpt lat="46.38857" lon="-0.30194">
        <ele>78.2</ele>
        <time>2020-05-31T08:44:27Z</time>
      </trkpt>
      <trkpt lat="46.38854" lon="-0.30204">
        <ele>78.2</ele>
        <time>2020-05-31T08:44:28Z</time>
      </trkpt>
      <trkpt lat="46.38851" lon="-0.30214">
        <ele>78.2</ele>
        <time>2020-05-31T08:44:29Z</time>
      </trkpt>
      <trkpt lat="46.38847" lon="-0.30224">
        <ele>78.1</ele>
        <time>2020-05-31T08:44:30Z</time>
      </trkpt>
      <trkpt lat="46.38844" lon="-0.30233">
        <ele>78.1</ele>
        <time>2020-05-31T08:44:31Z</time>
      </trkpt>
      <trkpt lat="46.38841" lon="-0.30243">
        <ele>78</ele>
        <time>2020-05-31T08:44:32Z</time>
      </trkpt>
      <trkpt lat="46.38837" lon="-0.30252">
        <ele>78</ele>
        <time>2020-05-31T08:44:33Z</time>
      </trkpt>
      <trkpt lat="46.38834" lon="-0.30261">
        <ele>78</ele>
        <time>2020-05-31T08:44:34Z</time>
      </trkpt>
      <trkpt lat="46.38831" lon="-0.30269">
        <ele>77.9</ele>
        <time>2020-05-31T08:44:35Z</time>
      </trkpt>
      <trkpt lat="46.38828" lon="-0.30278">
        <ele>77.9</ele>
        <time>2020-05-31T08:44:36Z</time>
      </trkpt>
      <trkpt lat="46.38824" lon="-0.30286">
        <ele>77.9</ele>
        <time>2020-05-31T08:44:37Z</time>
      </trkpt>
      <trkpt lat="46.38821" lon="-0.30294">
        <ele>77.9</ele>
        <time>2020-05-31T08:44:38Z</time>
      </trkpt>
      <trkpt lat="46.38818" lon="-0.30302">
        <ele>77.9</ele>
        <time>2020-05-31T08:44:39Z</time>
      </trkpt>
      <trkpt lat="46.38814" lon="-0.3031">
        <ele>77.9</ele>
        <time>2020-05-31T08:44:40Z</time>
      </trkpt>
      <trkpt lat="46.38811" lon="-0.30317">
        <ele>77.9</ele>
        <time>2020-05-31T08:44:41Z</time>
      </trkpt>
      <trkpt lat="46.38808" lon="-0.30325">
        <ele>78</ele>
        <time>2020-05-31T08:44:42Z</time>
      </trkpt>
      <trkpt lat="46.38804" lon="-0.30332">
        <ele>78</ele>
        <time>2020-05-31T08:44:43Z</time>
      </trkpt>
      <trkpt lat="46.38801" lon="-0.30339">
        <ele>78</ele>
        <time>2020-05-31T08:44:44Z</time>
      </trkpt>
      <trkpt lat="46.38798" lon="-0.30346">
        <ele>78</ele>
        <time>2020-05-31T08:44:45Z</time>
      </trkpt>
      <trkpt lat="46.38796" lon="-0.30353">
        <ele>78</ele>
        <time>2020-05-31T08:44:46Z</time>
      </trkpt>
      <trkpt lat="46.38794" lon="-0.3036">
        <ele>78.1</ele>
        <time>2020-05-31T08:44:47Z</time>
      </trkpt>
      <trkpt lat="46.38792" lon="-0.30367">
        <ele>78.1</ele>
        <time>2020-05-31T08:44:48Z</time>
      </trkpt>
      <trkpt lat="46.38789" lon="-0.30374">
        <ele>78.1</ele>
        <time>2020-05-31T08:44:49Z</time>
      </trkpt>
      <trkpt lat="46.38787" lon="-0.3038">
        <ele>78.1</ele>
        <time>2020-05-31T08:44:50Z</time>
      </trkpt>
      <trkpt lat="46.38785" lon="-0.30387">
        <ele>78.1</ele>
        <time>2020-05-31T08:44:51Z</time>
      </trkpt>
      <trkpt lat="46.38784" lon="-0.30394">
        <ele>78.2</ele>
        <time>2020-05-31T08:44:52Z</time>
      </trkpt>
      <trkpt lat="46.38783" lon="-0.304">
        <ele>78.2</ele>
        <time>2020-05-31T08:44:53Z</time>
      </trkpt>
      <trkpt lat="46.3878" lon="-0.30406">
        <ele>78.2</ele>
        <time>2020-05-31T08:44:54Z</time>
      </trkpt>
      <trkpt lat="46.38778" lon="-0.30412">
        <ele>78.2</ele>
        <time>2020-05-31T08:44:55Z</time>
      </trkpt>
      <trkpt lat="46.38777" lon="-0.30419">
        <ele>78.3</ele>
        <time>2020-05-31T08:44:56Z</time>
      </trkpt>
      <trkpt lat="46.38775" lon="-0.30425">
        <ele>78.2</ele>
        <time>2020-05-31T08:44:57Z</time>
      </trkpt>
      <trkpt lat="46.38774" lon="-0.30431">
        <ele>78.2</ele>
        <time>2020-05-31T08:44:58Z</time>
      </trkpt>
      <trkpt lat="46.38773" lon="-0.30438">
        <ele>78.2</ele>
        <time>2020-05-31T08:44:59Z</time>
      </trkpt>
      <trkpt lat="46.38772" lon="-0.30444">
        <ele>78.2</ele>
        <time>2020-05-31T08:45:00Z</time>
      </trkpt>
      <trkpt lat="46.3877" lon="-0.3045">
        <ele>78.1</ele>
        <time>2020-05-31T08:45:01Z</time>
      </trkpt>
      <trkpt lat="46.38769" lon="-0.30456">
        <ele>78.1</ele>
        <time>2020-05-31T08:45:02Z</time>
      </trkpt>
      <trkpt lat="46.38768" lon="-0.30462">
        <ele>78.1</ele>
        <time>2020-05-31T08:45:03Z</time>
      </trkpt>
      <trkpt lat="46.38768" lon="-0.30469">
        <ele>78</ele>
        <time>2020-05-31T08:45:04Z</time>
      </trkpt>
      <trkpt lat="46.38766" lon="-0.30475">
        <ele>78</ele>
        <time>2020-05-31T08:45:05Z</time>
      </trkpt>
      <trkpt lat="46.38765" lon="-0.30481">
        <ele>78</ele>
        <time>2020-05-31T08:45:06Z</time>
      </trkpt>
      <trkpt lat="46.38763" lon="-0.30487">
        <ele>77.9</ele>
        <time>2020-05-31T08:45:07Z</time>
      </trkpt>
      <trkpt lat="46.38761" lon="-0.30494">
        <ele>77.9</ele>
        <time>2020-05-31T08:45:08Z</time>
      </trkpt>
      <trkpt lat="46.3876" lon="-0.305">
        <ele>77.8</ele>
        <time>2020-05-31T08:45:09Z</time>
      </trkpt>
      <trkpt lat="46.38759" lon="-0.30507">
        <ele>77.7</ele>
        <time>2020-05-31T08:45:10Z</time>
      </trkpt>
      <trkpt lat="46.38757" lon="-0.30513">
        <ele>77.7</ele>
        <time>2020-05-31T08:45:11Z</time>
      </trkpt>
      <trkpt lat="46.38755" lon="-0.30519">
        <ele>77.6</ele>
        <time>2020-05-31T08:45:12Z</time>
      </trkpt>
      <trkpt lat="46.38754" lon="-0.30526">
        <ele>77.5</ele>
        <time>2020-05-31T08:45:13Z</time>
      </trkpt>
      <trkpt lat="46.38753" lon="-0.30533">
        <ele>77.4</ele>
        <time>2020-05-31T08:45:14Z</time>
      </trkpt>
      <trkpt lat="46.38751" lon="-0.3054">
        <ele>77.4</ele>
        <time>2020-05-31T08:45:15Z</time>
      </trkpt>
      <trkpt lat="46.3875" lon="-0.30546">
        <ele>77.3</ele>
        <time>2020-05-31T08:45:16Z</time>
      </trkpt>
      <trkpt lat="46.38748" lon="-0.30552">
        <ele>77.3</ele>
        <time>2020-05-31T08:45:17Z</time>
      </trkpt>
      <trkpt lat="46.38746" lon="-0.30558">
        <ele>77.2</ele>
        <time>2020-05-31T08:45:18Z</time>
      </trkpt>
      <trkpt lat="46.38743" lon="-0.30564">
        <ele>77.1</ele>
        <time>2020-05-31T08:45:19Z</time>
      </trkpt>
      <trkpt lat="46.38742" lon="-0.30571">
        <ele>77.1</ele>
        <time>2020-05-31T08:45:20Z</time>
      </trkpt>
      <trkpt lat="46.38741" lon="-0.30578">
        <ele>76.9</ele>
        <time>2020-05-31T08:45:21Z</time>
      </trkpt>
      <trkpt lat="46.3874" lon="-0.30585">
        <ele>76.8</ele>
        <time>2020-05-31T08:45:22Z</time>
      </trkpt>
      <trkpt lat="46.38739" lon="-0.30592">
        <ele>76.7</ele>
        <time>2020-05-31T08:45:23Z</time>
      </trkpt>
      <trkpt lat="46.38738" lon="-0.30597">
        <ele>76.6</ele>
        <time>2020-05-31T08:45:24Z</time>
      </trkpt>
      <trkpt lat="46.38737" lon="-0.30602">
        <ele>76.6</ele>
        <time>2020-05-31T08:45:25Z</time>
      </trkpt>
      <trkpt lat="46.38737" lon="-0.30608">
        <ele>76.5</ele>
        <time>2020-05-31T08:45:26Z</time>
      </trkpt>
      <trkpt lat="46.38736" lon="-0.30613">
        <ele>76.4</ele>
        <time>2020-05-31T08:45:27Z</time>
      </trkpt>
      <trkpt lat="46.38735" lon="-0.30617">
        <ele>76.3</ele>
        <time>2020-05-31T08:45:28Z</time>
      </trkpt>
      <trkpt lat="46.38735" lon="-0.30621">
        <ele>76.3</ele>
        <time>2020-05-31T08:45:29Z</time>
      </trkpt>
      <trkpt lat="46.38733" lon="-0.30626">
        <ele>76.3</ele>
        <time>2020-05-31T08:45:30Z</time>
      </trkpt>
      <trkpt lat="46.38733" lon="-0.30627">
        <ele>76.3</ele>
        <time>2020-05-31T08:45:31Z</time>
      </trkpt>
      <trkpt lat="46.38731" lon="-0.30629">
        <ele>76.2</ele>
        <time>2020-05-31T08:45:32Z</time>
      </trkpt>
      <trkpt lat="46.3873" lon="-0.3063">
        <ele>76.2</ele>
        <time>2020-05-31T08:45:33Z</time>
      </trkpt>
      <trkpt lat="46.3873" lon="-0.3063">
        <ele>76.2</ele>
        <time>2020-05-31T08:45:34Z</time>
      </trkpt>
      <trkpt lat="46.3873" lon="-0.3063">
        <ele>76.2</ele>
        <time>2020-05-31T08:45:35Z</time>
      </trkpt>
      <trkpt lat="46.3873" lon="-0.30631">
        <ele>76.2</ele>
        <time>2020-05-31T08:45:36Z</time>
      </trkpt>
      <trkpt lat="46.3873" lon="-0.30631">
        <ele>76.2</ele>
        <time>2020-05-31T08:45:37Z</time>
      </trkpt>
      <trkpt lat="46.3873" lon="-0.30631">
        <ele>76.2</ele>
        <time>2020-05-31T08:45:38Z</time>
      </trkpt>
      <trkpt lat="46.38731" lon="-0.30631">
        <ele>76.2</ele>
        <time>2020-05-31T08:45:39Z</time>
      </trkpt>
      <trkpt lat="46.3873" lon="-0.30631">
        <ele>76.2</ele>
        <time>2020-05-31T08:45:40Z</time>
      </trkpt>
      <trkpt lat="46.3873" lon="-0.3063">
        <ele>76.2</ele>
        <time>2020-05-31T08:45:41Z</time>
      </trkpt>
      <trkpt lat="46.3873" lon="-0.3063">
        <ele>76.2</ele>
        <time>2020-05-31T08:45:42Z</time>
      </trkpt>
      <trkpt lat="46.38729" lon="-0.30629">
        <ele>76.2</ele>
        <time>2020-05-31T08:45:43Z</time>
      </trkpt>
      <trkpt lat="46.3873" lon="-0.30629">
        <ele>76.2</ele>
        <time>2020-05-31T08:45:44Z</time>
      </trkpt>
      <trkpt lat="46.3873" lon="-0.30629">
        <ele>76.2</ele>
        <time>2020-05-31T08:45:45Z</time>
      </trkpt>
      <trkpt lat="46.3873" lon="-0.30629">
        <ele>76.2</ele>
        <time>2020-05-31T08:45:46Z</time>
      </trkpt>
      <trkpt lat="46.38731" lon="-0.3063">
        <ele>76.2</ele>
        <time>2020-05-31T08:45:47Z</time>
      </trkpt>
      <trkpt lat="46.3873" lon="-0.3063">
        <ele>76.2</ele>
        <time>2020-05-31T08:45:48Z</time>
      </trkpt>
      <trkpt lat="46.3873" lon="-0.3063">
        <ele>76.2</ele>
        <time>2020-05-31T08:45:49Z</time>
      </trkpt>
      <trkpt lat="46.3873" lon="-0.3063">
        <ele>76.2</ele>
        <time>2020-05-31T08:45:50Z</time>
      </trkpt>
      <trkpt lat="46.3873" lon="-0.30631">
        <ele>76.2</ele>
        <time>2020-05-31T08:45:51Z</time>
      </trkpt>
      <trkpt lat="46.38731" lon="-0.30631">
        <ele>76.2</ele>
        <time>2020-05-31T08:45:52Z</time>
      </trkpt>
      <trkpt lat="46.38731" lon="-0.30631">
        <ele>76.2</ele>
        <time>2020-05-31T08:45:53Z</time>
      </trkpt>
      <trkpt lat="46.38731" lon="-0.30632">
        <ele>76.2</ele>
        <time>2020-05-31T08:45:54Z</time>
      </trkpt>
      <trkpt lat="46.38731" lon="-0.30632">
        <ele>76.2</ele>
        <time>2020-05-31T08:45:55Z</time>
      </trkpt>
      <trkpt lat="46.3873" lon="-0.30632">
        <ele>76.2</ele>
        <time>2020-05-31T08:45:56Z</time>
      </trkpt>
      <trkpt lat="46.3873" lon="-0.30632">
        <ele>76.2</ele>
        <time>2020-05-31T08:45:57Z</time>
      </trkpt>
      <trkpt lat="46.3873" lon="-0.30632">
        <ele>76.2</ele>
        <time>2020-05-31T08:45:58Z</time>
      </trkpt>
      <trkpt lat="46.3873" lon="-0.30632">
        <ele>76.2</ele>
        <time>2020-05-31T08:45:59Z</time>
      </trkpt>
      <trkpt lat="46.3873" lon="-0.30631">
        <ele>76.2</ele>
        <time>2020-05-31T08:46:00Z</time>
      </trkpt>
      <trkpt lat="46.3873" lon="-0.30631">
        <ele>76.2</ele>
        <time>2020-05-31T08:46:01Z</time>
      </trkpt>
      <trkpt lat="46.3873" lon="-0.30632">
        <ele>76.2</ele>
        <time>2020-05-31T08:46:02Z</time>
      </trkpt>
      <trkpt lat="46.3873" lon="-0.30633">
        <ele>76.2</ele>
        <time>2020-05-31T08:46:03Z</time>
      </trkpt>
      <trkpt lat="46.38729" lon="-0.30632">
        <ele>76.2</ele>
        <time>2020-05-31T08:46:04Z</time>
      </trkpt>
      <trkpt lat="46.38728" lon="-0.30632">
        <ele>76.2</ele>
        <time>2020-05-31T08:46:05Z</time>
      </trkpt>
      <trkpt lat="46.38727" lon="-0.30632">
        <ele>76.2</ele>
        <time>2020-05-31T08:46:06Z</time>
      </trkpt>
      <trkpt lat="46.38728" lon="-0.30632">
        <ele>76.2</ele>
        <time>2020-05-31T08:46:07Z</time>
      </trkpt>
      <trkpt lat="46.38729" lon="-0.30632">
        <ele>76.2</ele>
        <time>2020-05-31T08:46:08Z</time>
      </trkpt>
      <trkpt lat="46.38728" lon="-0.30632">
        <ele>76.2</ele>
        <time>2020-05-31T08:46:09Z</time>
      </trkpt>
      <trkpt lat="46.38729" lon="-0.30632">
        <ele>76.2</ele>
        <time>2020-05-31T08:46:10Z</time>
      </trkpt>
      <trkpt lat="46.3873" lon="-0.30632">
        <ele>76.2</ele>
        <time>2020-05-31T08:46:11Z</time>
      </trkpt>
      <trkpt lat="46.38729" lon="-0.30632">
        <ele>76.2</ele>
        <time>2020-05-31T08:46:12Z</time>
      </trkpt>
      <trkpt lat="46.38729" lon="-0.30632">
        <ele>76.2</ele>
        <time>2020-05-31T08:46:13Z</time>
      </trkpt>
      <trkpt lat="46.38729" lon="-0.30632">
        <ele>76.2</ele>
        <time>2020-05-31T08:46:14Z</time>
      </trkpt>
      <trkpt lat="46.38729" lon="-0.30632">
        <ele>76.2</ele>
        <time>2020-05-31T08:46:15Z</time>
      </trkpt>
      <trkpt lat="46.38728" lon="-0.30632">
        <ele>76.2</ele>
        <time>2020-05-31T08:46:16Z</time>
      </trkpt>
      <trkpt lat="46.38728" lon="-0.30632">
        <ele>76.2</ele>
        <time>2020-05-31T08:46:17Z</time>
      </trkpt>
      <trkpt lat="46.38729" lon="-0.30632">
        <ele>76.2</ele>
        <time>2020-05-31T08:46:18Z</time>
      </trkpt>
      <trkpt lat="46.38729" lon="-0.30632">
        <ele>76.2</ele>
        <time>2020-05-31T08:46:19Z</time>
      </trkpt>
      <trkpt lat="46.38728" lon="-0.30633">
        <ele>76.2</ele>
        <time>2020-05-31T08:46:20Z</time>
      </trkpt>
      <trkpt lat="46.38728" lon="-0.30633">
        <ele>76.2</ele>
        <time>2020-05-31T08:46:21Z</time>
      </trkpt>
      <trkpt lat="46.38728" lon="-0.30633">
        <ele>76.2</ele>
        <time>2020-05-31T08:46:22Z</time>
      </trkpt>
      <trkpt lat="46.38728" lon="-0.30633">
        <ele>76.2</ele>
        <time>2020-05-31T08:46:23Z</time>
      </trkpt>
      <trkpt lat="46.38728" lon="-0.30633">
        <ele>76.2</ele>
        <time>2020-05-31T08:46:24Z</time>
      </trkpt>
      <trkpt lat="46.38728" lon="-0.30633">
        <ele>76.2</ele>
        <time>2020-05-31T08:46:25Z</time>
      </trkpt>
      <trkpt lat="46.38728" lon="-0.30633">
        <ele>76.2</ele>
        <time>2020-05-31T08:46:26Z</time>
      </trkpt>
      <trkpt lat="46.38728" lon="-0.30633">
        <ele>76.2</ele>
        <time>2020-05-31T08:46:27Z</time>
      </trkpt>
      <trkpt lat="46.38728" lon="-0.30633">
        <ele>76.2</ele>
        <time>2020-05-31T08:46:28Z</time>
      </trkpt>
      <trkpt lat="46.38728" lon="-0.30633">
        <ele>76.2</ele>
        <time>2020-05-31T08:46:29Z</time>
      </trkpt>
      <trkpt lat="46.38728" lon="-0.30633">
        <ele>76.2</ele>
        <time>2020-05-31T08:46:30Z</time>
      </trkpt>
      <trkpt lat="46.38728" lon="-0.30633">
        <ele>76.2</ele>
        <time>2020-05-31T08:46:31Z</time>
      </trkpt>
      <trkpt lat="46.38728" lon="-0.30633">
        <ele>76.2</ele>
        <time>2020-05-31T08:46:32Z</time>
      </trkpt>
      <trkpt lat="46.38727" lon="-0.30633">
        <ele>76.2</ele>
        <time>2020-05-31T08:46:33Z</time>
      </trkpt>
      <trkpt lat="46.38727" lon="-0.30634">
        <ele>76.2</ele>
        <time>2020-05-31T08:46:34Z</time>
      </trkpt>
      <trkpt lat="46.38726" lon="-0.30634">
        <ele>76.2</ele>
        <time>2020-05-31T08:46:35Z</time>
      </trkpt>
      <trkpt lat="46.38727" lon="-0.30634">
        <ele>76.2</ele>
        <time>2020-05-31T08:46:36Z</time>
      </trkpt>
      <trkpt lat="46.38726" lon="-0.30634">
        <ele>76.2</ele>
        <time>2020-05-31T08:46:37Z</time>
      </trkpt>
      <trkpt lat="46.38727" lon="-0.30633">
        <ele>76.2</ele>
        <time>2020-05-31T08:46:38Z</time>
      </trkpt>
      <trkpt lat="46.38727" lon="-0.30634">
        <ele>76.2</ele>
        <time>2020-05-31T08:46:39Z</time>
      </trkpt>
      <trkpt lat="46.38727" lon="-0.30634">
        <ele>76.2</ele>
        <time>2020-05-31T08:46:40Z</time>
      </trkpt>
      <trkpt lat="46.38727" lon="-0.30635">
        <ele>76.2</ele>
        <time>2020-05-31T08:46:41Z</time>
      </trkpt>
      <trkpt lat="46.38727" lon="-0.30636">
        <ele>76.2</ele>
        <time>2020-05-31T08:46:42Z</time>
      </trkpt>
      <trkpt lat="46.38726" lon="-0.30637">
        <ele>76.2</ele>
        <time>2020-05-31T08:46:43Z</time>
      </trkpt>
      <trkpt lat="46.38727" lon="-0.30637">
        <ele>76.2</ele>
        <time>2020-05-31T08:46:44Z</time>
      </trkpt>
      <trkpt lat="46.38727" lon="-0.30637">
        <ele>76.2</ele>
        <time>2020-05-31T08:46:45Z</time>
      </trkpt>
      <trkpt lat="46.38727" lon="-0.30637">
        <ele>76.2</ele>
        <time>2020-05-31T08:46:46Z</time>
      </trkpt>
      <trkpt lat="46.38727" lon="-0.30637">
        <ele>76.2</ele>
        <time>2020-05-31T08:46:47Z</time>
      </trkpt>
      <trkpt lat="46.38728" lon="-0.30637">
        <ele>76.2</ele>
        <time>2020-05-31T08:46:48Z</time>
      </trkpt>
      <trkpt lat="46.38728" lon="-0.30637">
        <ele>76.2</ele>
        <time>2020-05-31T08:46:49Z</time>
      </trkpt>
      <trkpt lat="46.38728" lon="-0.30638">
        <ele>76.2</ele>
        <time>2020-05-31T08:46:50Z</time>
      </trkpt>
      <trkpt lat="46.38728" lon="-0.30637">
        <ele>76.2</ele>
        <time>2020-05-31T08:46:51Z</time>
      </trkpt>
      <trkpt lat="46.38729" lon="-0.30637">
        <ele>76.2</ele>
        <time>2020-05-31T08:46:52Z</time>
      </trkpt>
      <trkpt lat="46.38729" lon="-0.30638">
        <ele>76.2</ele>
        <time>2020-05-31T08:46:53Z</time>
      </trkpt>
      <trkpt lat="46.38728" lon="-0.30638">
        <ele>76.2</ele>
        <time>2020-05-31T08:46:54Z</time>
      </trkpt>
      <trkpt lat="46.38728" lon="-0.30638">
        <ele>76.2</ele>
        <time>2020-05-31T08:46:55Z</time>
      </trkpt>
      <trkpt lat="46.38728" lon="-0.30638">
        <ele>76.2</ele>
        <time>2020-05-31T08:46:56Z</time>
      </trkpt>
      <trkpt lat="46.38729" lon="-0.30638">
        <ele>76.2</ele>
        <time>2020-05-31T08:46:57Z</time>
      </trkpt>
      <trkpt lat="46.38729" lon="-0.30638">
        <ele>76.2</ele>
        <time>2020-05-31T08:46:58Z</time>
      </trkpt>
      <trkpt lat="46.38729" lon="-0.30638">
        <ele>76.2</ele>
        <time>2020-05-31T08:46:59Z</time>
      </trkpt>
      <trkpt lat="46.38728" lon="-0.30638">
        <ele>76.2</ele>
        <time>2020-05-31T08:47:00Z</time>
      </trkpt>
      <trkpt lat="46.38728" lon="-0.30639">
        <ele>76.2</ele>
        <time>2020-05-31T08:47:01Z</time>
      </trkpt>
      <trkpt lat="46.38727" lon="-0.30639">
        <ele>76.2</ele>
        <time>2020-05-31T08:47:02Z</time>
      </trkpt>
      <trkpt lat="46.38727" lon="-0.30639">
        <ele>76.2</ele>
        <time>2020-05-31T08:47:03Z</time>
      </trkpt>
      <trkpt lat="46.38727" lon="-0.30639">
        <ele>76.2</ele>
        <time>2020-05-31T08:47:04Z</time>
      </trkpt>
      <trkpt lat="46.38727" lon="-0.30638">
        <ele>76.2</ele>
        <time>2020-05-31T08:47:05Z</time>
      </trkpt>
      <trkpt lat="46.38728" lon="-0.30638">
        <ele>76.2</ele>
        <time>2020-05-31T08:47:06Z</time>
      </trkpt>
      <trkpt lat="46.38728" lon="-0.30638">
        <ele>76.2</ele>
        <time>2020-05-31T08:47:07Z</time>
      </trkpt>
      <trkpt lat="46.38727" lon="-0.30638">
        <ele>76.2</ele>
        <time>2020-05-31T08:47:08Z</time>
      </trkpt>
      <trkpt lat="46.38727" lon="-0.30638">
        <ele>76.2</ele>
        <time>2020-05-31T08:47:09Z</time>
      </trkpt>
      <trkpt lat="46.38726" lon="-0.30637">
        <ele>76.2</ele>
        <time>2020-05-31T08:47:10Z</time>
      </trkpt>
      <trkpt lat="46.38727" lon="-0.30638">
        <ele>76.2</ele>
        <time>2020-05-31T08:47:11Z</time>
      </trkpt>
      <trkpt lat="46.38728" lon="-0.30638">
        <ele>76.2</ele>
        <time>2020-05-31T08:47:12Z</time>
      </trkpt>
      <trkpt lat="46.38728" lon="-0.30638">
        <ele>76.2</ele>
        <time>2020-05-31T08:47:13Z</time>
      </trkpt>
      <trkpt lat="46.38728" lon="-0.30638">
        <ele>76.2</ele>
        <time>2020-05-31T08:47:14Z</time>
      </trkpt>
      <trkpt lat="46.38728" lon="-0.30638">
        <ele>76.2</ele>
        <time>2020-05-31T08:47:15Z</time>
      </trkpt>
      <trkpt lat="46.38728" lon="-0.30638">
        <ele>76.2</ele>
        <time>2020-05-31T08:47:16Z</time>
      </trkpt>
      <trkpt lat="46.38728" lon="-0.30638">
        <ele>76.2</ele>
        <time>2020-05-31T08:47:17Z</time>
      </trkpt>
      <trkpt lat="46.38728" lon="-0.30638">
        <ele>76.2</ele>
        <time>2020-05-31T08:47:18Z</time>
      </trkpt>
      <trkpt lat="46.38728" lon="-0.30638">
        <ele>76.2</ele>
        <time>2020-05-31T08:47:19Z</time>
      </trkpt>
      <trkpt lat="46.38728" lon="-0.30638">
        <ele>76.2</ele>
        <time>2020-05-31T08:47:20Z</time>
      </trkpt>
      <trkpt lat="46.38728" lon="-0.30638">
        <ele>76.2</ele>
        <time>2020-05-31T08:47:21Z</time>
      </trkpt>
      <trkpt lat="46.38728" lon="-0.30637">
        <ele>76.2</ele>
        <time>2020-05-31T08:47:22Z</time>
      </trkpt>
      <trkpt lat="46.38728" lon="-0.30637">
        <ele>76.2</ele>
        <time>2020-05-31T08:47:23Z</time>
      </trkpt>
      <trkpt lat="46.38728" lon="-0.30637">
        <ele>76.2</ele>
        <time>2020-05-31T08:47:24Z</time>
      </trkpt>
      <trkpt lat="46.38728" lon="-0.30637">
        <ele>76.2</ele>
        <time>2020-05-31T08:47:25Z</time>
      </trkpt>
      <trkpt lat="46.38728" lon="-0.30637">
        <ele>76.2</ele>
        <time>2020-05-31T08:47:26Z</time>
      </trkpt>
      <trkpt lat="46.38728" lon="-0.30637">
        <ele>76.2</ele>
        <time>2020-05-31T08:47:27Z</time>
      </trkpt>
      <trkpt lat="46.38727" lon="-0.30637">
        <ele>76.2</ele>
        <time>2020-05-31T08:47:28Z</time>
      </trkpt>
      <trkpt lat="46.38727" lon="-0.30637">
        <ele>76.2</ele>
        <time>2020-05-31T08:47:29Z</time>
      </trkpt>
      <trkpt lat="46.38727" lon="-0.30637">
        <ele>76.2</ele>
        <time>2020-05-31T08:47:30Z</time>
      </trkpt>
      <trkpt lat="46.38727" lon="-0.30637">
        <ele>76.2</ele>
        <time>2020-05-31T08:47:31Z</time>
      </trkpt>
      <trkpt lat="46.38727" lon="-0.30637">
        <ele>76.2</ele>
        <time>2020-05-31T08:47:32Z</time>
      </trkpt>
      <trkpt lat="46.38727" lon="-0.30637">
        <ele>76.2</ele>
        <time>2020-05-31T08:47:33Z</time>
      </trkpt>
      <trkpt lat="46.38727" lon="-0.30637">
        <ele>76.2</ele>
        <time>2020-05-31T08:47:34Z</time>
      </trkpt>
      <trkpt lat="46.38727" lon="-0.30637">
        <ele>76.2</ele>
        <time>2020-05-31T08:47:35Z</time>
      </trkpt>
      <trkpt lat="46.38727" lon="-0.30637">
        <ele>76.2</ele>
        <time>2020-05-31T08:47:36Z</time>
      </trkpt>
      <trkpt lat="46.38727" lon="-0.30637">
        <ele>76.2</ele>
        <time>2020-05-31T08:47:37Z</time>
      </trkpt>
      <trkpt lat="46.38727" lon="-0.30637">
        <ele>76.2</ele>
        <time>2020-05-31T08:47:38Z</time>
      </trkpt>
      <trkpt lat="46.38727" lon="-0.30637">
        <ele>76.2</ele>
        <time>2020-05-31T08:47:39Z</time>
      </trkpt>
      <trkpt lat="46.38727" lon="-0.30637">
        <ele>76.2</ele>
        <time>2020-05-31T08:47:40Z</time>
      </trkpt>
      <trkpt lat="46.38727" lon="-0.30637">
        <ele>76.2</ele>
        <time>2020-05-31T08:47:41Z</time>
      </trkpt>
      <trkpt lat="46.38727" lon="-0.30637">
        <ele>76.2</ele>
        <time>2020-05-31T08:47:42Z</time>
      </trkpt>
      <trkpt lat="46.38727" lon="-0.30637">
        <ele>76.2</ele>
        <time>2020-05-31T08:47:43Z</time>
      </trkpt>
      <trkpt lat="46.38727" lon="-0.30636">
        <ele>76.2</ele>
        <time>2020-05-31T08:47:44Z</time>
      </trkpt>
      <trkpt lat="46.38727" lon="-0.30636">
        <ele>76.2</ele>
        <time>2020-05-31T08:47:45Z</time>
      </trkpt>
      <trkpt lat="46.38727" lon="-0.30636">
        <ele>76.2</ele>
        <time>2020-05-31T08:47:46Z</time>
      </trkpt>
      <trkpt lat="46.38727" lon="-0.30636">
        <ele>76.2</ele>
        <time>2020-05-31T08:47:47Z</time>
      </trkpt>
      <trkpt lat="46.38727" lon="-0.30636">
        <ele>76.2</ele>
        <time>2020-05-31T08:47:48Z</time>
      </trkpt>
      <trkpt lat="46.38727" lon="-0.30636">
        <ele>76.2</ele>
        <time>2020-05-31T08:47:49Z</time>
      </trkpt>
      <trkpt lat="46.38727" lon="-0.30636">
        <ele>76.2</ele>
        <time>2020-05-31T08:47:50Z</time>
      </trkpt>
      <trkpt lat="46.38727" lon="-0.30636">
        <ele>76.2</ele>
        <time>2020-05-31T08:47:51Z</time>
      </trkpt>
      <trkpt lat="46.38727" lon="-0.30636">
        <ele>76.2</ele>
        <time>2020-05-31T08:47:52Z</time>
      </trkpt>
      <trkpt lat="46.38727" lon="-0.30636">
        <ele>76.2</ele>
        <time>2020-05-31T08:47:53Z</time>
      </trkpt>
      <trkpt lat="46.38727" lon="-0.30636">
        <ele>76.2</ele>
        <time>2020-05-31T08:47:54Z</time>
      </trkpt>
      <trkpt lat="46.38727" lon="-0.30636">
        <ele>76.2</ele>
        <time>2020-05-31T08:47:55Z</time>
      </trkpt>
      <trkpt lat="46.38727" lon="-0.30636">
        <ele>76.2</ele>
        <time>2020-05-31T08:47:56Z</time>
      </trkpt>
      <trkpt lat="46.38727" lon="-0.30636">
        <ele>76.2</ele>
        <time>2020-05-31T08:47:57Z</time>
      </trkpt>
      <trkpt lat="46.38727" lon="-0.30636">
        <ele>76.2</ele>
        <time>2020-05-31T08:47:58Z</time>
      </trkpt>
      <trkpt lat="46.38727" lon="-0.30636">
        <ele>76.2</ele>
        <time>2020-05-31T08:47:59Z</time>
      </trkpt>
      <trkpt lat="46.38727" lon="-0.30636">
        <ele>76.2</ele>
        <time>2020-05-31T08:48:00Z</time>
      </trkpt>
      <trkpt lat="46.38727" lon="-0.30636">
        <ele>76.2</ele>
        <time>2020-05-31T08:48:01Z</time>
      </trkpt>
      <trkpt lat="46.38727" lon="-0.30636">
        <ele>76.2</ele>
        <time>2020-05-31T08:48:02Z</time>
      </trkpt>
      <trkpt lat="46.38727" lon="-0.30637">
        <ele>76.2</ele>
        <time>2020-05-31T08:48:03Z</time>
      </trkpt>
      <trkpt lat="46.38727" lon="-0.30637">
        <ele>76.2</ele>
        <time>2020-05-31T08:48:04Z</time>
      </trkpt>
      <trkpt lat="46.38727" lon="-0.30637">
        <ele>76.2</ele>
        <time>2020-05-31T08:48:05Z</time>
      </trkpt>
      <trkpt lat="46.38727" lon="-0.30637">
        <ele>76.2</ele>
        <time>2020-05-31T08:48:06Z</time>
      </trkpt>
      <trkpt lat="46.38727" lon="-0.30637">
        <ele>76.2</ele>
        <time>2020-05-31T08:48:07Z</time>
      </trkpt>
      <trkpt lat="46.38727" lon="-0.30637">
        <ele>76.2</ele>
        <time>2020-05-31T08:48:08Z</time>
      </trkpt>
      <trkpt lat="46.38727" lon="-0.30637">
        <ele>76.2</ele>
        <time>2020-05-31T08:48:09Z</time>
      </trkpt>
      <trkpt lat="46.38727" lon="-0.30637">
        <ele>76.2</ele>
        <time>2020-05-31T08:48:10Z</time>
      </trkpt>
      <trkpt lat="46.38727" lon="-0.30637">
        <ele>76.2</ele>
        <time>2020-05-31T08:48:11Z</time>
      </trkpt>
      <trkpt lat="46.38727" lon="-0.30637">
        <ele>76.2</ele>
        <time>2020-05-31T08:48:12Z</time>
      </trkpt>
      <trkpt lat="46.38727" lon="-0.30637">
        <ele>76.2</ele>
        <time>2020-05-31T08:48:13Z</time>
      </trkpt>
      <trkpt lat="46.38727" lon="-0.30637">
        <ele>76.2</ele>
        <time>2020-05-31T08:48:14Z</time>
      </trkpt>
      <trkpt lat="46.38727" lon="-0.30637">
        <ele>76.2</ele>
        <time>2020-05-31T08:48:15Z</time>
      </trkpt>
      <trkpt lat="46.38727" lon="-0.30637">
        <ele>76.2</ele>
        <time>2020-05-31T08:48:16Z</time>
      </trkpt>
      <trkpt lat="46.38728" lon="-0.30637">
        <ele>76.2</ele>
        <time>2020-05-31T08:48:17Z</time>
      </trkpt>
      <trkpt lat="46.38728" lon="-0.30637">
        <ele>76.2</ele>
        <time>2020-05-31T08:48:18Z</time>
      </trkpt>
      <trkpt lat="46.38728" lon="-0.30637">
        <ele>76.2</ele>
        <time>2020-05-31T08:48:19Z</time>
      </trkpt>
      <trkpt lat="46.38728" lon="-0.30637">
        <ele>76.2</ele>
        <time>2020-05-31T08:48:20Z</time>
      </trkpt>
      <trkpt lat="46.38728" lon="-0.30637">
        <ele>76.2</ele>
        <time>2020-05-31T08:48:21Z</time>
      </trkpt>
      <trkpt lat="46.38728" lon="-0.30637">
        <ele>76.2</ele>
        <time>2020-05-31T08:48:22Z</time>
      </trkpt>
      <trkpt lat="46.38728" lon="-0.30638">
        <ele>76.2</ele>
        <time>2020-05-31T08:48:23Z</time>
      </trkpt>
      <trkpt lat="46.38728" lon="-0.30638">
        <ele>76.2</ele>
        <time>2020-05-31T08:48:24Z</time>
      </trkpt>
      <trkpt lat="46.38728" lon="-0.30637">
        <ele>76.2</ele>
        <time>2020-05-31T08:48:25Z</time>
      </trkpt>
      <trkpt lat="46.38727" lon="-0.30637">
        <ele>76.2</ele>
        <time>2020-05-31T08:48:26Z</time>
      </trkpt>
      <trkpt lat="46.38727" lon="-0.30637">
        <ele>76.2</ele>
        <time>2020-05-31T08:48:27Z</time>
      </trkpt>
      <trkpt lat="46.38727" lon="-0.30637">
        <ele>76.2</ele>
        <time>2020-05-31T08:48:28Z</time>
      </trkpt>
      <trkpt lat="46.38727" lon="-0.30637">
        <ele>76.2</ele>
        <time>2020-05-31T08:48:29Z</time>
      </trkpt>
      <trkpt lat="46.38727" lon="-0.30637">
        <ele>76.2</ele>
        <time>2020-05-31T08:48:30Z</time>
      </trkpt>
      <trkpt lat="46.38727" lon="-0.30637">
        <ele>76.2</ele>
        <time>2020-05-31T08:48:31Z</time>
      </trkpt>
      <trkpt lat="46.38727" lon="-0.30637">
        <ele>76.2</ele>
        <time>2020-05-31T08:48:32Z</time>
      </trkpt>
      <trkpt lat="46.38727" lon="-0.30637">
        <ele>76.2</ele>
        <time>2020-05-31T08:48:33Z</time>
      </trkpt>
      <trkpt lat="46.38727" lon="-0.30637">
        <ele>76.2</ele>
        <time>2020-05-31T08:48:34Z</time>
      </trkpt>
      <trkpt lat="46.38727" lon="-0.30637">
        <ele>76.2</ele>
        <time>2020-05-31T08:48:35Z</time>
      </trkpt>
      <trkpt lat="46.38727" lon="-0.30637">
        <ele>76.2</ele>
        <time>2020-05-31T08:48:36Z</time>
      </trkpt>
      <trkpt lat="46.38727" lon="-0.30637">
        <ele>76.2</ele>
        <time>2020-05-31T08:48:37Z</time>
      </trkpt>
      <trkpt lat="46.38727" lon="-0.30638">
        <ele>76.2</ele>
        <time>2020-05-31T08:48:38Z</time>
      </trkpt>
      <trkpt lat="46.38727" lon="-0.30637">
        <ele>76.2</ele>
        <time>2020-05-31T08:48:39Z</time>
      </trkpt>
      <trkpt lat="46.38727" lon="-0.30638">
        <ele>76.2</ele>
        <time>2020-05-31T08:48:40Z</time>
      </trkpt>
      <trkpt lat="46.38727" lon="-0.30638">
        <ele>76.2</ele>
        <time>2020-05-31T08:48:41Z</time>
      </trkpt>
      <trkpt lat="46.38728" lon="-0.30638">
        <ele>76.2</ele>
        <time>2020-05-31T08:48:42Z</time>
      </trkpt>
      <trkpt lat="46.38728" lon="-0.30639">
        <ele>76.2</ele>
        <time>2020-05-31T08:48:43Z</time>
      </trkpt>
      <trkpt lat="46.38729" lon="-0.3064">
        <ele>76.2</ele>
        <time>2020-05-31T08:48:44Z</time>
      </trkpt>
      <trkpt lat="46.3873" lon="-0.30645">
        <ele>76.2</ele>
        <time>2020-05-31T08:48:45Z</time>
      </trkpt>
      <trkpt lat="46.3873" lon="-0.30646">
        <ele>76.2</ele>
        <time>2020-05-31T08:48:46Z</time>
      </trkpt>
      <trkpt lat="46.38731" lon="-0.30652">
        <ele>76.2</ele>
        <time>2020-05-31T08:48:47Z</time>
      </trkpt>
      <trkpt lat="46.38731" lon="-0.30658">
        <ele>76.2</ele>
        <time>2020-05-31T08:48:48Z</time>
      </trkpt>
      <trkpt lat="46.38731" lon="-0.30663">
        <ele>76.2</ele>
        <time>2020-05-31T08:48:49Z</time>
      </trkpt>
      <trkpt lat="46.38731" lon="-0.30668">
        <ele>76.2</ele>
        <time>2020-05-31T08:48:50Z</time>
      </trkpt>
      <trkpt lat="46.38733" lon="-0.30672">
        <ele>76.2</ele>
        <time>2020-05-31T08:48:51Z</time>
      </trkpt>
      <trkpt lat="46.38733" lon="-0.30674">
        <ele>76.2</ele>
        <time>2020-05-31T08:48:52Z</time>
      </trkpt>
      <trkpt lat="46.38735" lon="-0.30678">
        <ele>76.2</ele>
        <time>2020-05-31T08:48:53Z</time>
      </trkpt>
      <trkpt lat="46.38735" lon="-0.30684">
        <ele>76.3</ele>
        <time>2020-05-31T08:48:54Z</time>
      </trkpt>
      <trkpt lat="46.38735" lon="-0.30688">
        <ele>76.3</ele>
        <time>2020-05-31T08:48:55Z</time>
      </trkpt>
      <trkpt lat="46.38735" lon="-0.30693">
        <ele>76.3</ele>
        <time>2020-05-31T08:48:56Z</time>
      </trkpt>
      <trkpt lat="46.38735" lon="-0.307">
        <ele>76.3</ele>
        <time>2020-05-31T08:48:57Z</time>
      </trkpt>
      <trkpt lat="46.38735" lon="-0.30705">
        <ele>76.3</ele>
        <time>2020-05-31T08:48:58Z</time>
      </trkpt>
      <trkpt lat="46.38735" lon="-0.3071">
        <ele>76.3</ele>
        <time>2020-05-31T08:48:59Z</time>
      </trkpt>
      <trkpt lat="46.38736" lon="-0.30714">
        <ele>76.2</ele>
        <time>2020-05-31T08:49:00Z</time>
      </trkpt>
      <trkpt lat="46.38734" lon="-0.30719">
        <ele>76.1</ele>
        <time>2020-05-31T08:49:01Z</time>
      </trkpt>
      <trkpt lat="46.38734" lon="-0.30724">
        <ele>76</ele>
        <time>2020-05-31T08:49:02Z</time>
      </trkpt>
      <trkpt lat="46.38734" lon="-0.3073">
        <ele>75.9</ele>
        <time>2020-05-31T08:49:03Z</time>
      </trkpt>
      <trkpt lat="46.38733" lon="-0.30735">
        <ele>75.8</ele>
        <time>2020-05-31T08:49:04Z</time>
      </trkpt>
      <trkpt lat="46.38731" lon="-0.30739">
        <ele>75.7</ele>
        <time>2020-05-31T08:49:05Z</time>
      </trkpt>
      <trkpt lat="46.38729" lon="-0.30743">
        <ele>75.7</ele>
        <time>2020-05-31T08:49:06Z</time>
      </trkpt>
      <trkpt lat="46.38728" lon="-0.30748">
        <ele>75.6</ele>
        <time>2020-05-31T08:49:07Z</time>
      </trkpt>
      <trkpt lat="46.38728" lon="-0.3075">
        <ele>75.5</ele>
        <time>2020-05-31T08:49:08Z</time>
      </trkpt>
      <trkpt lat="46.38726" lon="-0.30755">
        <ele>75.4</ele>
        <time>2020-05-31T08:49:09Z</time>
      </trkpt>
      <trkpt lat="46.38726" lon="-0.30759">
        <ele>75.4</ele>
        <time>2020-05-31T08:49:10Z</time>
      </trkpt>
      <trkpt lat="46.38725" lon="-0.30764">
        <ele>75.3</ele>
        <time>2020-05-31T08:49:11Z</time>
      </trkpt>
      <trkpt lat="46.38725" lon="-0.3077">
        <ele>75.1</ele>
        <time>2020-05-31T08:49:12Z</time>
      </trkpt>
      <trkpt lat="46.38724" lon="-0.30776">
        <ele>75</ele>
        <time>2020-05-31T08:49:13Z</time>
      </trkpt>
      <trkpt lat="46.38723" lon="-0.30781">
        <ele>74.9</ele>
        <time>2020-05-31T08:49:14Z</time>
      </trkpt>
      <trkpt lat="46.38721" lon="-0.30786">
        <ele>74.8</ele>
        <time>2020-05-31T08:49:15Z</time>
      </trkpt>
      <trkpt lat="46.3872" lon="-0.30793">
        <ele>74.7</ele>
        <time>2020-05-31T08:49:16Z</time>
      </trkpt>
      <trkpt lat="46.38719" lon="-0.30799">
        <ele>74.6</ele>
        <time>2020-05-31T08:49:17Z</time>
      </trkpt>
      <trkpt lat="46.38719" lon="-0.30804">
        <ele>74.5</ele>
        <time>2020-05-31T08:49:18Z</time>
      </trkpt>
      <trkpt lat="46.38718" lon="-0.30812">
        <ele>74.3</ele>
        <time>2020-05-31T08:49:19Z</time>
      </trkpt>
      <trkpt lat="46.38716" lon="-0.30819">
        <ele>74.2</ele>
        <time>2020-05-31T08:49:20Z</time>
      </trkpt>
      <trkpt lat="46.38717" lon="-0.30824">
        <ele>74.1</ele>
        <time>2020-05-31T08:49:21Z</time>
      </trkpt>
      <trkpt lat="46.38717" lon="-0.30829">
        <ele>73.9</ele>
        <time>2020-05-31T08:49:22Z</time>
      </trkpt>
      <trkpt lat="46.38716" lon="-0.30834">
        <ele>73.8</ele>
        <time>2020-05-31T08:49:23Z</time>
      </trkpt>
      <trkpt lat="46.38715" lon="-0.3084">
        <ele>73.7</ele>
        <time>2020-05-31T08:49:24Z</time>
      </trkpt>
      <trkpt lat="46.38714" lon="-0.30846">
        <ele>73.5</ele>
        <time>2020-05-31T08:49:25Z</time>
      </trkpt>
      <trkpt lat="46.38712" lon="-0.30853">
        <ele>73.4</ele>
        <time>2020-05-31T08:49:26Z</time>
      </trkpt>
      <trkpt lat="46.3871" lon="-0.3086">
        <ele>73.2</ele>
        <time>2020-05-31T08:49:27Z</time>
      </trkpt>
      <trkpt lat="46.38708" lon="-0.30869">
        <ele>73.1</ele>
        <time>2020-05-31T08:49:28Z</time>
      </trkpt>
      <trkpt lat="46.38706" lon="-0.30878">
        <ele>72.9</ele>
        <time>2020-05-31T08:49:29Z</time>
      </trkpt>
      <trkpt lat="46.38703" lon="-0.30887">
        <ele>72.7</ele>
        <time>2020-05-31T08:49:30Z</time>
      </trkpt>
      <trkpt lat="46.38701" lon="-0.30895">
        <ele>72.4</ele>
        <time>2020-05-31T08:49:31Z</time>
      </trkpt>
      <trkpt lat="46.387" lon="-0.30903">
        <ele>72.2</ele>
        <time>2020-05-31T08:49:32Z</time>
      </trkpt>
      <trkpt lat="46.38698" lon="-0.30911">
        <ele>72.1</ele>
        <time>2020-05-31T08:49:33Z</time>
      </trkpt>
      <trkpt lat="46.38696" lon="-0.30919">
        <ele>71.8</ele>
        <time>2020-05-31T08:49:34Z</time>
      </trkpt>
      <trkpt lat="46.38694" lon="-0.30926">
        <ele>71.6</ele>
        <time>2020-05-31T08:49:35Z</time>
      </trkpt>
      <trkpt lat="46.38691" lon="-0.30934">
        <ele>71.4</ele>
        <time>2020-05-31T08:49:36Z</time>
      </trkpt>
      <trkpt lat="46.38688" lon="-0.30941">
        <ele>71.2</ele>
        <time>2020-05-31T08:49:37Z</time>
      </trkpt>
      <trkpt lat="46.38684" lon="-0.30949">
        <ele>70.9</ele>
        <time>2020-05-31T08:49:38Z</time>
      </trkpt>
      <trkpt lat="46.38681" lon="-0.30957">
        <ele>70.7</ele>
        <time>2020-05-31T08:49:39Z</time>
      </trkpt>
      <trkpt lat="46.38677" lon="-0.30965">
        <ele>70.5</ele>
        <time>2020-05-31T08:49:40Z</time>
      </trkpt>
      <trkpt lat="46.38673" lon="-0.30972">
        <ele>70.3</ele>
        <time>2020-05-31T08:49:41Z</time>
      </trkpt>
      <trkpt lat="46.3867" lon="-0.30979">
        <ele>70.2</ele>
        <time>2020-05-31T08:49:42Z</time>
      </trkpt>
      <trkpt lat="46.38666" lon="-0.30986">
        <ele>70</ele>
        <time>2020-05-31T08:49:43Z</time>
      </trkpt>
      <trkpt lat="46.38662" lon="-0.30994">
        <ele>70</ele>
        <time>2020-05-31T08:49:44Z</time>
      </trkpt>
      <trkpt lat="46.38658" lon="-0.31">
        <ele>70</ele>
        <time>2020-05-31T08:49:45Z</time>
      </trkpt>
      <trkpt lat="46.38655" lon="-0.31006">
        <ele>70.1</ele>
        <time>2020-05-31T08:49:46Z</time>
      </trkpt>
      <trkpt lat="46.38651" lon="-0.31014">
        <ele>70.1</ele>
        <time>2020-05-31T08:49:47Z</time>
      </trkpt>
      <trkpt lat="46.38648" lon="-0.31021">
        <ele>70.1</ele>
        <time>2020-05-31T08:49:48Z</time>
      </trkpt>
      <trkpt lat="46.38644" lon="-0.31027">
        <ele>70.1</ele>
        <time>2020-05-31T08:49:49Z</time>
      </trkpt>
      <trkpt lat="46.38639" lon="-0.31034">
        <ele>70.1</ele>
        <time>2020-05-31T08:49:50Z</time>
      </trkpt>
      <trkpt lat="46.38636" lon="-0.31039">
        <ele>70.1</ele>
        <time>2020-05-31T08:49:51Z</time>
      </trkpt>
      <trkpt lat="46.38632" lon="-0.31045">
        <ele>70.1</ele>
        <time>2020-05-31T08:49:52Z</time>
      </trkpt>
      <trkpt lat="46.38627" lon="-0.31054">
        <ele>70</ele>
        <time>2020-05-31T08:49:53Z</time>
      </trkpt>
      <trkpt lat="46.38623" lon="-0.31062">
        <ele>69.9</ele>
        <time>2020-05-31T08:49:54Z</time>
      </trkpt>
      <trkpt lat="46.38619" lon="-0.3107">
        <ele>69.8</ele>
        <time>2020-05-31T08:49:55Z</time>
      </trkpt>
      <trkpt lat="46.38614" lon="-0.31078">
        <ele>69.6</ele>
        <time>2020-05-31T08:49:56Z</time>
      </trkpt>
      <trkpt lat="46.38612" lon="-0.31085">
        <ele>69.5</ele>
        <time>2020-05-31T08:49:57Z</time>
      </trkpt>
      <trkpt lat="46.38608" lon="-0.31093">
        <ele>69.4</ele>
        <time>2020-05-31T08:49:58Z</time>
      </trkpt>
      <trkpt lat="46.38605" lon="-0.31102">
        <ele>69.2</ele>
        <time>2020-05-31T08:49:59Z</time>
      </trkpt>
      <trkpt lat="46.38601" lon="-0.31111">
        <ele>69.1</ele>
        <time>2020-05-31T08:50:00Z</time>
      </trkpt>
      <trkpt lat="46.38599" lon="-0.31119">
        <ele>69</ele>
        <time>2020-05-31T08:50:01Z</time>
      </trkpt>
      <trkpt lat="46.38596" lon="-0.31129">
        <ele>68.8</ele>
        <time>2020-05-31T08:50:02Z</time>
      </trkpt>
      <trkpt lat="46.38592" lon="-0.31137">
        <ele>68.7</ele>
        <time>2020-05-31T08:50:03Z</time>
      </trkpt>
      <trkpt lat="46.38589" lon="-0.31146">
        <ele>68.6</ele>
        <time>2020-05-31T08:50:04Z</time>
      </trkpt>
      <trkpt lat="46.38587" lon="-0.31154">
        <ele>68.6</ele>
        <time>2020-05-31T08:50:05Z</time>
      </trkpt>
      <trkpt lat="46.38583" lon="-0.31163">
        <ele>68.5</ele>
        <time>2020-05-31T08:50:06Z</time>
      </trkpt>
      <trkpt lat="46.3858" lon="-0.31172">
        <ele>68.4</ele>
        <time>2020-05-31T08:50:07Z</time>
      </trkpt>
      <trkpt lat="46.38577" lon="-0.31181">
        <ele>68.3</ele>
        <time>2020-05-31T08:50:08Z</time>
      </trkpt>
      <trkpt lat="46.38574" lon="-0.3119">
        <ele>68.2</ele>
        <time>2020-05-31T08:50:09Z</time>
      </trkpt>
      <trkpt lat="46.38571" lon="-0.312">
        <ele>68.2</ele>
        <time>2020-05-31T08:50:10Z</time>
      </trkpt>
      <trkpt lat="46.38568" lon="-0.3121">
        <ele>68.1</ele>
        <time>2020-05-31T08:50:11Z</time>
      </trkpt>
      <trkpt lat="46.38565" lon="-0.31219">
        <ele>68</ele>
        <time>2020-05-31T08:50:12Z</time>
      </trkpt>
      <trkpt lat="46.38562" lon="-0.31228">
        <ele>68</ele>
        <time>2020-05-31T08:50:13Z</time>
      </trkpt>
      <trkpt lat="46.3856" lon="-0.31236">
        <ele>67.9</ele>
        <time>2020-05-31T08:50:14Z</time>
      </trkpt>
      <trkpt lat="46.38557" lon="-0.31244">
        <ele>67.9</ele>
        <time>2020-05-31T08:50:15Z</time>
      </trkpt>
      <trkpt lat="46.38554" lon="-0.31251">
        <ele>67.9</ele>
        <time>2020-05-31T08:50:16Z</time>
      </trkpt>
      <trkpt lat="46.38551" lon="-0.31259">
        <ele>67.8</ele>
        <time>2020-05-31T08:50:17Z</time>
      </trkpt>
      <trkpt lat="46.38547" lon="-0.31267">
        <ele>67.8</ele>
        <time>2020-05-31T08:50:18Z</time>
      </trkpt>
      <trkpt lat="46.38544" lon="-0.31275">
        <ele>67.8</ele>
        <time>2020-05-31T08:50:19Z</time>
      </trkpt>
      <trkpt lat="46.38541" lon="-0.31283">
        <ele>67.8</ele>
        <time>2020-05-31T08:50:20Z</time>
      </trkpt>
      <trkpt lat="46.38537" lon="-0.31291">
        <ele>67.8</ele>
        <time>2020-05-31T08:50:21Z</time>
      </trkpt>
      <trkpt lat="46.38535" lon="-0.31298">
        <ele>67.8</ele>
        <time>2020-05-31T08:50:22Z</time>
      </trkpt>
      <trkpt lat="46.38532" lon="-0.31305">
        <ele>67.8</ele>
        <time>2020-05-31T08:50:23Z</time>
      </trkpt>
      <trkpt lat="46.38529" lon="-0.31312">
        <ele>67.8</ele>
        <time>2020-05-31T08:50:24Z</time>
      </trkpt>
      <trkpt lat="46.38526" lon="-0.3132">
        <ele>67.7</ele>
        <time>2020-05-31T08:50:25Z</time>
      </trkpt>
      <trkpt lat="46.38524" lon="-0.31328">
        <ele>67.7</ele>
        <time>2020-05-31T08:50:26Z</time>
      </trkpt>
      <trkpt lat="46.38521" lon="-0.31336">
        <ele>67.6</ele>
        <time>2020-05-31T08:50:27Z</time>
      </trkpt>
      <trkpt lat="46.38519" lon="-0.31344">
        <ele>67.6</ele>
        <time>2020-05-31T08:50:28Z</time>
      </trkpt>
      <trkpt lat="46.38516" lon="-0.31352">
        <ele>67.5</ele>
        <time>2020-05-31T08:50:29Z</time>
      </trkpt>
      <trkpt lat="46.38514" lon="-0.31361">
        <ele>67.5</ele>
        <time>2020-05-31T08:50:30Z</time>
      </trkpt>
      <trkpt lat="46.38513" lon="-0.3137">
        <ele>67.6</ele>
        <time>2020-05-31T08:50:31Z</time>
      </trkpt>
      <trkpt lat="46.3851" lon="-0.31379">
        <ele>67.6</ele>
        <time>2020-05-31T08:50:32Z</time>
      </trkpt>
      <trkpt lat="46.38508" lon="-0.31388">
        <ele>67.7</ele>
        <time>2020-05-31T08:50:33Z</time>
      </trkpt>
      <trkpt lat="46.38506" lon="-0.31396">
        <ele>67.8</ele>
        <time>2020-05-31T08:50:34Z</time>
      </trkpt>
      <trkpt lat="46.38503" lon="-0.31404">
        <ele>67.9</ele>
        <time>2020-05-31T08:50:35Z</time>
      </trkpt>
      <trkpt lat="46.38501" lon="-0.31411">
        <ele>68</ele>
        <time>2020-05-31T08:50:36Z</time>
      </trkpt>
      <trkpt lat="46.38499" lon="-0.31418">
        <ele>68.1</ele>
        <time>2020-05-31T08:50:37Z</time>
      </trkpt>
      <trkpt lat="46.38497" lon="-0.31425">
        <ele>68.2</ele>
        <time>2020-05-31T08:50:38Z</time>
      </trkpt>
      <trkpt lat="46.38493" lon="-0.3143">
        <ele>68.3</ele>
        <time>2020-05-31T08:50:39Z</time>
      </trkpt>
      <trkpt lat="46.38491" lon="-0.31437">
        <ele>68.4</ele>
        <time>2020-05-31T08:50:40Z</time>
      </trkpt>
      <trkpt lat="46.38488" lon="-0.31443">
        <ele>68.6</ele>
        <time>2020-05-31T08:50:41Z</time>
      </trkpt>
      <trkpt lat="46.38485" lon="-0.3145">
        <ele>68.7</ele>
        <time>2020-05-31T08:50:42Z</time>
      </trkpt>
      <trkpt lat="46.38482" lon="-0.31456">
        <ele>68.8</ele>
        <time>2020-05-31T08:50:43Z</time>
      </trkpt>
      <trkpt lat="46.38479" lon="-0.31461">
        <ele>68.9</ele>
        <time>2020-05-31T08:50:44Z</time>
      </trkpt>
      <trkpt lat="46.38477" lon="-0.31467">
        <ele>69</ele>
        <time>2020-05-31T08:50:45Z</time>
      </trkpt>
      <trkpt lat="46.38474" lon="-0.31473">
        <ele>69.1</ele>
        <time>2020-05-31T08:50:46Z</time>
      </trkpt>
      <trkpt lat="46.3847" lon="-0.31478">
        <ele>69.2</ele>
        <time>2020-05-31T08:50:47Z</time>
      </trkpt>
      <trkpt lat="46.38467" lon="-0.31483">
        <ele>69.2</ele>
        <time>2020-05-31T08:50:48Z</time>
      </trkpt>
      <trkpt lat="46.38463" lon="-0.31487">
        <ele>69.3</ele>
        <time>2020-05-31T08:50:49Z</time>
      </trkpt>
      <trkpt lat="46.3846" lon="-0.31492">
        <ele>69.3</ele>
        <time>2020-05-31T08:50:50Z</time>
      </trkpt>
      <trkpt lat="46.38457" lon="-0.31497">
        <ele>69.3</ele>
        <time>2020-05-31T08:50:51Z</time>
      </trkpt>
      <trkpt lat="46.38455" lon="-0.31502">
        <ele>69.4</ele>
        <time>2020-05-31T08:50:52Z</time>
      </trkpt>
      <trkpt lat="46.38453" lon="-0.31507">
        <ele>69.5</ele>
        <time>2020-05-31T08:50:53Z</time>
      </trkpt>
      <trkpt lat="46.38451" lon="-0.31512">
        <ele>69.6</ele>
        <time>2020-05-31T08:50:54Z</time>
      </trkpt>
      <trkpt lat="46.38449" lon="-0.31517">
        <ele>69.6</ele>
        <time>2020-05-31T08:50:55Z</time>
      </trkpt>
      <trkpt lat="46.38447" lon="-0.31521">
        <ele>69.7</ele>
        <time>2020-05-31T08:50:56Z</time>
      </trkpt>
      <trkpt lat="46.38446" lon="-0.31525">
        <ele>69.8</ele>
        <time>2020-05-31T08:50:57Z</time>
      </trkpt>
      <trkpt lat="46.38444" lon="-0.31529">
        <ele>69.8</ele>
        <time>2020-05-31T08:50:58Z</time>
      </trkpt>
      <trkpt lat="46.38443" lon="-0.31532">
        <ele>69.9</ele>
        <time>2020-05-31T08:50:59Z</time>
      </trkpt>
      <trkpt lat="46.38442" lon="-0.31533">
        <ele>69.9</ele>
        <time>2020-05-31T08:51:00Z</time>
      </trkpt>
      <trkpt lat="46.38442" lon="-0.31534">
        <ele>69.9</ele>
        <time>2020-05-31T08:51:01Z</time>
      </trkpt>
      <trkpt lat="46.38442" lon="-0.31535">
        <ele>69.9</ele>
        <time>2020-05-31T08:51:02Z</time>
      </trkpt>
      <trkpt lat="46.38442" lon="-0.31535">
        <ele>69.9</ele>
        <time>2020-05-31T08:51:03Z</time>
      </trkpt>
      <trkpt lat="46.38442" lon="-0.31535">
        <ele>69.9</ele>
        <time>2020-05-31T08:51:04Z</time>
      </trkpt>
      <trkpt lat="46.38442" lon="-0.31536">
        <ele>69.9</ele>
        <time>2020-05-31T08:51:05Z</time>
      </trkpt>
      <trkpt lat="46.38442" lon="-0.31536">
        <ele>69.9</ele>
        <time>2020-05-31T08:51:06Z</time>
      </trkpt>
      <trkpt lat="46.38442" lon="-0.31536">
        <ele>69.9</ele>
        <time>2020-05-31T08:51:07Z</time>
      </trkpt>
      <trkpt lat="46.38441" lon="-0.31536">
        <ele>69.9</ele>
        <time>2020-05-31T08:51:08Z</time>
      </trkpt>
      <trkpt lat="46.38441" lon="-0.31535">
        <ele>69.9</ele>
        <time>2020-05-31T08:51:09Z</time>
      </trkpt>
      <trkpt lat="46.38441" lon="-0.31536">
        <ele>70</ele>
        <time>2020-05-31T08:51:10Z</time>
      </trkpt>
      <trkpt lat="46.38441" lon="-0.31535">
        <ele>70</ele>
        <time>2020-05-31T08:51:11Z</time>
      </trkpt>
      <trkpt lat="46.38442" lon="-0.31536">
        <ele>70</ele>
        <time>2020-05-31T08:51:12Z</time>
      </trkpt>
      <trkpt lat="46.38442" lon="-0.31537">
        <ele>70</ele>
        <time>2020-05-31T08:51:13Z</time>
      </trkpt>
      <trkpt lat="46.38442" lon="-0.31537">
        <ele>70</ele>
        <time>2020-05-31T08:51:14Z</time>
      </trkpt>
      <trkpt lat="46.38442" lon="-0.31538">
        <ele>70</ele>
        <time>2020-05-31T08:51:15Z</time>
      </trkpt>
      <trkpt lat="46.38441" lon="-0.31537">
        <ele>70</ele>
        <time>2020-05-31T08:51:16Z</time>
      </trkpt>
      <trkpt lat="46.38441" lon="-0.31538">
        <ele>70</ele>
        <time>2020-05-31T08:51:17Z</time>
      </trkpt>
      <trkpt lat="46.38441" lon="-0.31538">
        <ele>70</ele>
        <time>2020-05-31T08:51:18Z</time>
      </trkpt>
      <trkpt lat="46.38441" lon="-0.31538">
        <ele>70</ele>
        <time>2020-05-31T08:51:19Z</time>
      </trkpt>
      <trkpt lat="46.38441" lon="-0.31538">
        <ele>70</ele>
        <time>2020-05-31T08:51:20Z</time>
      </trkpt>
      <trkpt lat="46.38441" lon="-0.31539">
        <ele>70</ele>
        <time>2020-05-31T08:51:21Z</time>
      </trkpt>
      <trkpt lat="46.38442" lon="-0.31539">
        <ele>70</ele>
        <time>2020-05-31T08:51:22Z</time>
      </trkpt>
      <trkpt lat="46.38442" lon="-0.31539">
        <ele>70</ele>
        <time>2020-05-31T08:51:23Z</time>
      </trkpt>
      <trkpt lat="46.38442" lon="-0.3154">
        <ele>70</ele>
        <time>2020-05-31T08:51:24Z</time>
      </trkpt>
      <trkpt lat="46.38442" lon="-0.3154">
        <ele>70.1</ele>
        <time>2020-05-31T08:51:25Z</time>
      </trkpt>
      <trkpt lat="46.38442" lon="-0.3154">
        <ele>70.1</ele>
        <time>2020-05-31T08:51:26Z</time>
      </trkpt>
      <trkpt lat="46.38442" lon="-0.3154">
        <ele>70.1</ele>
        <time>2020-05-31T08:51:27Z</time>
      </trkpt>
      <trkpt lat="46.38442" lon="-0.3154">
        <ele>70.1</ele>
        <time>2020-05-31T08:51:28Z</time>
      </trkpt>
      <trkpt lat="46.38443" lon="-0.3154">
        <ele>70.1</ele>
        <time>2020-05-31T08:51:29Z</time>
      </trkpt>
      <trkpt lat="46.38443" lon="-0.3154">
        <ele>70.1</ele>
        <time>2020-05-31T08:51:30Z</time>
      </trkpt>
      <trkpt lat="46.38442" lon="-0.3154">
        <ele>70.1</ele>
        <time>2020-05-31T08:51:31Z</time>
      </trkpt>
      <trkpt lat="46.38443" lon="-0.31541">
        <ele>70.1</ele>
        <time>2020-05-31T08:51:32Z</time>
      </trkpt>
      <trkpt lat="46.38442" lon="-0.3154">
        <ele>70.1</ele>
        <time>2020-05-31T08:51:33Z</time>
      </trkpt>
      <trkpt lat="46.38442" lon="-0.3154">
        <ele>70.1</ele>
        <time>2020-05-31T08:51:34Z</time>
      </trkpt>
      <trkpt lat="46.38441" lon="-0.3154">
        <ele>70.1</ele>
        <time>2020-05-31T08:51:35Z</time>
      </trkpt>
      <trkpt lat="46.38441" lon="-0.3154">
        <ele>70.1</ele>
        <time>2020-05-31T08:51:36Z</time>
      </trkpt>
      <trkpt lat="46.38441" lon="-0.3154">
        <ele>70.1</ele>
        <time>2020-05-31T08:51:37Z</time>
      </trkpt>
      <trkpt lat="46.38441" lon="-0.3154">
        <ele>70.1</ele>
        <time>2020-05-31T08:51:38Z</time>
      </trkpt>
      <trkpt lat="46.38441" lon="-0.31541">
        <ele>70.1</ele>
        <time>2020-05-31T08:51:39Z</time>
      </trkpt>
      <trkpt lat="46.38441" lon="-0.31541">
        <ele>70.1</ele>
        <time>2020-05-31T08:51:40Z</time>
      </trkpt>
      <trkpt lat="46.38441" lon="-0.31541">
        <ele>70.1</ele>
        <time>2020-05-31T08:51:41Z</time>
      </trkpt>
      <trkpt lat="46.38441" lon="-0.31541">
        <ele>70.1</ele>
        <time>2020-05-31T08:51:42Z</time>
      </trkpt>
      <trkpt lat="46.38442" lon="-0.31541">
        <ele>70.1</ele>
        <time>2020-05-31T08:51:43Z</time>
      </trkpt>
      <trkpt lat="46.38442" lon="-0.31541">
        <ele>70.1</ele>
        <time>2020-05-31T08:51:44Z</time>
      </trkpt>
      <trkpt lat="46.38442" lon="-0.31542">
        <ele>70.2</ele>
        <time>2020-05-31T08:51:45Z</time>
      </trkpt>
      <trkpt lat="46.38442" lon="-0.31542">
        <ele>70.2</ele>
        <time>2020-05-31T08:51:46Z</time>
      </trkpt>
      <trkpt lat="46.38442" lon="-0.31542">
        <ele>70.2</ele>
        <time>2020-05-31T08:51:47Z</time>
      </trkpt>
      <trkpt lat="46.38442" lon="-0.31541">
        <ele>70.2</ele>
        <time>2020-05-31T08:51:48Z</time>
      </trkpt>
      <trkpt lat="46.38442" lon="-0.31541">
        <ele>70.2</ele>
        <time>2020-05-31T08:51:49Z</time>
      </trkpt>
      <trkpt lat="46.38442" lon="-0.31541">
        <ele>70.2</ele>
        <time>2020-05-31T08:51:50Z</time>
      </trkpt>
      <trkpt lat="46.38441" lon="-0.31541">
        <ele>70.2</ele>
        <time>2020-05-31T08:51:51Z</time>
      </trkpt>
      <trkpt lat="46.38441" lon="-0.31541">
        <ele>70.2</ele>
        <time>2020-05-31T08:51:52Z</time>
      </trkpt>
      <trkpt lat="46.38441" lon="-0.31541">
        <ele>70.2</ele>
        <time>2020-05-31T08:51:53Z</time>
      </trkpt>
      <trkpt lat="46.3844" lon="-0.31541">
        <ele>70.2</ele>
        <time>2020-05-31T08:51:54Z</time>
      </trkpt>
      <trkpt lat="46.3844" lon="-0.31541">
        <ele>70.2</ele>
        <time>2020-05-31T08:51:55Z</time>
      </trkpt>
      <trkpt lat="46.3844" lon="-0.3154">
        <ele>70.2</ele>
        <time>2020-05-31T08:51:56Z</time>
      </trkpt>
      <trkpt lat="46.3844" lon="-0.3154">
        <ele>70.2</ele>
        <time>2020-05-31T08:51:57Z</time>
      </trkpt>
      <trkpt lat="46.3844" lon="-0.3154">
        <ele>70.2</ele>
        <time>2020-05-31T08:51:58Z</time>
      </trkpt>
      <trkpt lat="46.38441" lon="-0.3154">
        <ele>70.2</ele>
        <time>2020-05-31T08:51:59Z</time>
      </trkpt>
      <trkpt lat="46.38441" lon="-0.3154">
        <ele>70.2</ele>
        <time>2020-05-31T08:52:00Z</time>
      </trkpt>
      <trkpt lat="46.38441" lon="-0.3154">
        <ele>70.2</ele>
        <time>2020-05-31T08:52:01Z</time>
      </trkpt>
      <trkpt lat="46.38441" lon="-0.3154">
        <ele>70.2</ele>
        <time>2020-05-31T08:52:02Z</time>
      </trkpt>
      <trkpt lat="46.38441" lon="-0.31541">
        <ele>70.2</ele>
        <time>2020-05-31T08:52:03Z</time>
      </trkpt>
      <trkpt lat="46.38441" lon="-0.3154">
        <ele>70.2</ele>
        <time>2020-05-31T08:52:04Z</time>
      </trkpt>
      <trkpt lat="46.38441" lon="-0.31541">
        <ele>70.2</ele>
        <time>2020-05-31T08:52:05Z</time>
      </trkpt>
      <trkpt lat="46.38441" lon="-0.31541">
        <ele>70.2</ele>
        <time>2020-05-31T08:52:06Z</time>
      </trkpt>
      <trkpt lat="46.38441" lon="-0.31541">
        <ele>70.2</ele>
        <time>2020-05-31T08:52:07Z</time>
      </trkpt>
      <trkpt lat="46.38441" lon="-0.31541">
        <ele>70.2</ele>
        <time>2020-05-31T08:52:08Z</time>
      </trkpt>
      <trkpt lat="46.38442" lon="-0.31542">
        <ele>70.2</ele>
        <time>2020-05-31T08:52:09Z</time>
      </trkpt>
      <trkpt lat="46.38441" lon="-0.31541">
        <ele>70.2</ele>
        <time>2020-05-31T08:52:10Z</time>
      </trkpt>
      <trkpt lat="46.38441" lon="-0.31541">
        <ele>70.2</ele>
        <time>2020-05-31T08:52:11Z</time>
      </trkpt>
      <trkpt lat="46.3844" lon="-0.31541">
        <ele>70.2</ele>
        <time>2020-05-31T08:52:12Z</time>
      </trkpt>
      <trkpt lat="46.3844" lon="-0.31542">
        <ele>70.2</ele>
        <time>2020-05-31T08:52:13Z</time>
      </trkpt>
      <trkpt lat="46.3844" lon="-0.31542">
        <ele>70.2</ele>
        <time>2020-05-31T08:52:14Z</time>
      </trkpt>
      <trkpt lat="46.3844" lon="-0.31542">
        <ele>70.2</ele>
        <time>2020-05-31T08:52:15Z</time>
      </trkpt>
      <trkpt lat="46.3844" lon="-0.31542">
        <ele>70.2</ele>
        <time>2020-05-31T08:52:16Z</time>
      </trkpt>
      <trkpt lat="46.3844" lon="-0.31542">
        <ele>70.2</ele>
        <time>2020-05-31T08:52:17Z</time>
      </trkpt>
      <trkpt lat="46.3844" lon="-0.31542">
        <ele>70.2</ele>
        <time>2020-05-31T08:52:18Z</time>
      </trkpt>
      <trkpt lat="46.3844" lon="-0.31542">
        <ele>70.2</ele>
        <time>2020-05-31T08:52:19Z</time>
      </trkpt>
      <trkpt lat="46.3844" lon="-0.31542">
        <ele>70.2</ele>
        <time>2020-05-31T08:52:20Z</time>
      </trkpt>
      <trkpt lat="46.3844" lon="-0.31542">
        <ele>70.2</ele>
        <time>2020-05-31T08:52:21Z</time>
      </trkpt>
      <trkpt lat="46.3844" lon="-0.31542">
        <ele>70.2</ele>
        <time>2020-05-31T08:52:22Z</time>
      </trkpt>
      <trkpt lat="46.3844" lon="-0.31542">
        <ele>70.2</ele>
        <time>2020-05-31T08:52:23Z</time>
      </trkpt>
      <trkpt lat="46.3844" lon="-0.31542">
        <ele>70.2</ele>
        <time>2020-05-31T08:52:24Z</time>
      </trkpt>
      <trkpt lat="46.3844" lon="-0.31542">
        <ele>70.2</ele>
        <time>2020-05-31T08:52:25Z</time>
      </trkpt>
      <trkpt lat="46.3844" lon="-0.31542">
        <ele>70.2</ele>
        <time>2020-05-31T08:52:26Z</time>
      </trkpt>
      <trkpt lat="46.3844" lon="-0.31542">
        <ele>70.2</ele>
        <time>2020-05-31T08:52:27Z</time>
      </trkpt>
      <trkpt lat="46.3844" lon="-0.31542">
        <ele>70.2</ele>
        <time>2020-05-31T08:52:28Z</time>
      </trkpt>
      <trkpt lat="46.3844" lon="-0.31542">
        <ele>70.2</ele>
        <time>2020-05-31T08:52:29Z</time>
      </trkpt>
      <trkpt lat="46.3844" lon="-0.31542">
        <ele>70.2</ele>
        <time>2020-05-31T08:52:30Z</time>
      </trkpt>
      <trkpt lat="46.3844" lon="-0.31542">
        <ele>70.2</ele>
        <time>2020-05-31T08:52:31Z</time>
      </trkpt>
      <trkpt lat="46.3844" lon="-0.31542">
        <ele>70.2</ele>
        <time>2020-05-31T08:52:32Z</time>
      </trkpt>
      <trkpt lat="46.3844" lon="-0.31542">
        <ele>70.2</ele>
        <time>2020-05-31T08:52:33Z</time>
      </trkpt>
      <trkpt lat="46.3844" lon="-0.31542">
        <ele>70.2</ele>
        <time>2020-05-31T08:52:34Z</time>
      </trkpt>
      <trkpt lat="46.3844" lon="-0.31542">
        <ele>70.2</ele>
        <time>2020-05-31T08:52:35Z</time>
      </trkpt>
      <trkpt lat="46.3844" lon="-0.31542">
        <ele>70.2</ele>
        <time>2020-05-31T08:52:36Z</time>
      </trkpt>
      <trkpt lat="46.3844" lon="-0.31542">
        <ele>70.2</ele>
        <time>2020-05-31T08:52:37Z</time>
      </trkpt>
      <trkpt lat="46.3844" lon="-0.31542">
        <ele>70.2</ele>
        <time>2020-05-31T08:52:38Z</time>
      </trkpt>
      <trkpt lat="46.3844" lon="-0.31542">
        <ele>70.2</ele>
        <time>2020-05-31T08:52:39Z</time>
      </trkpt>
      <trkpt lat="46.3844" lon="-0.31542">
        <ele>70.2</ele>
        <time>2020-05-31T08:52:40Z</time>
      </trkpt>
      <trkpt lat="46.3844" lon="-0.31542">
        <ele>70.2</ele>
        <time>2020-05-31T08:52:41Z</time>
      </trkpt>
      <trkpt lat="46.3844" lon="-0.31542">
        <ele>70.2</ele>
        <time>2020-05-31T08:52:42Z</time>
      </trkpt>
      <trkpt lat="46.3844" lon="-0.31542">
        <ele>70.2</ele>
        <time>2020-05-31T08:52:43Z</time>
      </trkpt>
      <trkpt lat="46.3844" lon="-0.31542">
        <ele>70.2</ele>
        <time>2020-05-31T08:52:44Z</time>
      </trkpt>
      <trkpt lat="46.3844" lon="-0.31543">
        <ele>70.2</ele>
        <time>2020-05-31T08:52:45Z</time>
      </trkpt>
      <trkpt lat="46.38439" lon="-0.31543">
        <ele>70.2</ele>
        <time>2020-05-31T08:52:46Z</time>
      </trkpt>
      <trkpt lat="46.38439" lon="-0.31543">
        <ele>70.2</ele>
        <time>2020-05-31T08:52:47Z</time>
      </trkpt>
      <trkpt lat="46.38439" lon="-0.31543">
        <ele>70.3</ele>
        <time>2020-05-31T08:52:48Z</time>
      </trkpt>
      <trkpt lat="46.38439" lon="-0.31544">
        <ele>70.3</ele>
        <time>2020-05-31T08:52:49Z</time>
      </trkpt>
      <trkpt lat="46.3844" lon="-0.31544">
        <ele>70.3</ele>
        <time>2020-05-31T08:52:50Z</time>
      </trkpt>
      <trkpt lat="46.3844" lon="-0.31544">
        <ele>70.3</ele>
        <time>2020-05-31T08:52:51Z</time>
      </trkpt>
      <trkpt lat="46.3844" lon="-0.31545">
        <ele>70.3</ele>
        <time>2020-05-31T08:52:52Z</time>
      </trkpt>
      <trkpt lat="46.38441" lon="-0.31545">
        <ele>70.3</ele>
        <time>2020-05-31T08:52:53Z</time>
      </trkpt>
      <trkpt lat="46.38441" lon="-0.31546">
        <ele>70.3</ele>
        <time>2020-05-31T08:52:54Z</time>
      </trkpt>
      <trkpt lat="46.38441" lon="-0.31546">
        <ele>70.3</ele>
        <time>2020-05-31T08:52:55Z</time>
      </trkpt>
      <trkpt lat="46.38442" lon="-0.31547">
        <ele>70.3</ele>
        <time>2020-05-31T08:52:56Z</time>
      </trkpt>
      <trkpt lat="46.38442" lon="-0.31547">
        <ele>70.3</ele>
        <time>2020-05-31T08:52:57Z</time>
      </trkpt>
      <trkpt lat="46.38442" lon="-0.31547">
        <ele>70.3</ele>
        <time>2020-05-31T08:52:58Z</time>
      </trkpt>
      <trkpt lat="46.38442" lon="-0.31547">
        <ele>70.3</ele>
        <time>2020-05-31T08:52:59Z</time>
      </trkpt>
      <trkpt lat="46.38443" lon="-0.31548">
        <ele>70.3</ele>
        <time>2020-05-31T08:53:00Z</time>
      </trkpt>
      <trkpt lat="46.38442" lon="-0.31547">
        <ele>70.3</ele>
        <time>2020-05-31T08:53:01Z</time>
      </trkpt>
      <trkpt lat="46.38442" lon="-0.31547">
        <ele>70.3</ele>
        <time>2020-05-31T08:53:02Z</time>
      </trkpt>
      <trkpt lat="46.38442" lon="-0.31547">
        <ele>70.3</ele>
        <time>2020-05-31T08:53:03Z</time>
      </trkpt>
      <trkpt lat="46.38441" lon="-0.31547">
        <ele>70.3</ele>
        <time>2020-05-31T08:53:04Z</time>
      </trkpt>
      <trkpt lat="46.38441" lon="-0.31547">
        <ele>70.3</ele>
        <time>2020-05-31T08:53:05Z</time>
      </trkpt>
      <trkpt lat="46.38441" lon="-0.31547">
        <ele>70.3</ele>
        <time>2020-05-31T08:53:06Z</time>
      </trkpt>
      <trkpt lat="46.3844" lon="-0.31547">
        <ele>70.3</ele>
        <time>2020-05-31T08:53:07Z</time>
      </trkpt>
      <trkpt lat="46.3844" lon="-0.31547">
        <ele>70.3</ele>
        <time>2020-05-31T08:53:08Z</time>
      </trkpt>
      <trkpt lat="46.3844" lon="-0.31547">
        <ele>70.3</ele>
        <time>2020-05-31T08:53:09Z</time>
      </trkpt>
      <trkpt lat="46.3844" lon="-0.31547">
        <ele>70.3</ele>
        <time>2020-05-31T08:53:10Z</time>
      </trkpt>
      <trkpt lat="46.38441" lon="-0.31548">
        <ele>70.3</ele>
        <time>2020-05-31T08:53:11Z</time>
      </trkpt>
      <trkpt lat="46.3844" lon="-0.31548">
        <ele>70.3</ele>
        <time>2020-05-31T08:53:12Z</time>
      </trkpt>
      <trkpt lat="46.3844" lon="-0.31548">
        <ele>70.3</ele>
        <time>2020-05-31T08:53:13Z</time>
      </trkpt>
      <trkpt lat="46.3844" lon="-0.31548">
        <ele>70.3</ele>
        <time>2020-05-31T08:53:14Z</time>
      </trkpt>
      <trkpt lat="46.3844" lon="-0.31549">
        <ele>70.3</ele>
        <time>2020-05-31T08:53:15Z</time>
      </trkpt>
      <trkpt lat="46.3844" lon="-0.31549">
        <ele>70.3</ele>
        <time>2020-05-31T08:53:16Z</time>
      </trkpt>
      <trkpt lat="46.3844" lon="-0.31549">
        <ele>70.3</ele>
        <time>2020-05-31T08:53:17Z</time>
      </trkpt>
      <trkpt lat="46.3844" lon="-0.31549">
        <ele>70.3</ele>
        <time>2020-05-31T08:53:18Z</time>
      </trkpt>
      <trkpt lat="46.3844" lon="-0.31549">
        <ele>70.3</ele>
        <time>2020-05-31T08:53:19Z</time>
      </trkpt>
      <trkpt lat="46.3844" lon="-0.31549">
        <ele>70.4</ele>
        <time>2020-05-31T08:53:20Z</time>
      </trkpt>
      <trkpt lat="46.38441" lon="-0.3155">
        <ele>70.4</ele>
        <time>2020-05-31T08:53:21Z</time>
      </trkpt>
      <trkpt lat="46.38442" lon="-0.3155">
        <ele>70.4</ele>
        <time>2020-05-31T08:53:22Z</time>
      </trkpt>
      <trkpt lat="46.38442" lon="-0.31551">
        <ele>70.4</ele>
        <time>2020-05-31T08:53:23Z</time>
      </trkpt>
      <trkpt lat="46.38443" lon="-0.31551">
        <ele>70.4</ele>
        <time>2020-05-31T08:53:24Z</time>
      </trkpt>
      <trkpt lat="46.38442" lon="-0.3155">
        <ele>70.4</ele>
        <time>2020-05-31T08:53:25Z</time>
      </trkpt>
      <trkpt lat="46.38442" lon="-0.3155">
        <ele>70.4</ele>
        <time>2020-05-31T08:53:26Z</time>
      </trkpt>
      <trkpt lat="46.38442" lon="-0.3155">
        <ele>70.4</ele>
        <time>2020-05-31T08:53:27Z</time>
      </trkpt>
      <trkpt lat="46.38443" lon="-0.31551">
        <ele>70.4</ele>
        <time>2020-05-31T08:53:28Z</time>
      </trkpt>
      <trkpt lat="46.38444" lon="-0.31551">
        <ele>70.4</ele>
        <time>2020-05-31T08:53:29Z</time>
      </trkpt>
      <trkpt lat="46.38444" lon="-0.31552">
        <ele>70.4</ele>
        <time>2020-05-31T08:53:30Z</time>
      </trkpt>
      <trkpt lat="46.38444" lon="-0.31553">
        <ele>70.4</ele>
        <time>2020-05-31T08:53:31Z</time>
      </trkpt>
      <trkpt lat="46.38444" lon="-0.31554">
        <ele>70.4</ele>
        <time>2020-05-31T08:53:32Z</time>
      </trkpt>
      <trkpt lat="46.38443" lon="-0.31555">
        <ele>70.4</ele>
        <time>2020-05-31T08:53:33Z</time>
      </trkpt>
      <trkpt lat="46.38443" lon="-0.31556">
        <ele>70.4</ele>
        <time>2020-05-31T08:53:34Z</time>
      </trkpt>
      <trkpt lat="46.38442" lon="-0.31556">
        <ele>70.4</ele>
        <time>2020-05-31T08:53:35Z</time>
      </trkpt>
      <trkpt lat="46.38442" lon="-0.31556">
        <ele>70.4</ele>
        <time>2020-05-31T08:53:36Z</time>
      </trkpt>
      <trkpt lat="46.3844" lon="-0.31554">
        <ele>70.4</ele>
        <time>2020-05-31T08:53:37Z</time>
      </trkpt>
      <trkpt lat="46.38439" lon="-0.31554">
        <ele>70.4</ele>
        <time>2020-05-31T08:53:38Z</time>
      </trkpt>
      <trkpt lat="46.38439" lon="-0.31554">
        <ele>70.4</ele>
        <time>2020-05-31T08:53:39Z</time>
      </trkpt>
      <trkpt lat="46.38438" lon="-0.31555">
        <ele>70.4</ele>
        <time>2020-05-31T08:53:40Z</time>
      </trkpt>
      <trkpt lat="46.38438" lon="-0.31556">
        <ele>70.4</ele>
        <time>2020-05-31T08:53:41Z</time>
      </trkpt>
      <trkpt lat="46.38437" lon="-0.31556">
        <ele>70.4</ele>
        <time>2020-05-31T08:53:42Z</time>
      </trkpt>
      <trkpt lat="46.38435" lon="-0.31559">
        <ele>70.4</ele>
        <time>2020-05-31T08:53:43Z</time>
      </trkpt>
      <trkpt lat="46.38434" lon="-0.3156">
        <ele>70.4</ele>
        <time>2020-05-31T08:53:44Z</time>
      </trkpt>
      <trkpt lat="46.38433" lon="-0.31565">
        <ele>70.3</ele>
        <time>2020-05-31T08:53:45Z</time>
      </trkpt>
      <trkpt lat="46.38432" lon="-0.31567">
        <ele>70.3</ele>
        <time>2020-05-31T08:53:46Z</time>
      </trkpt>
      <trkpt lat="46.38432" lon="-0.31572">
        <ele>70.3</ele>
        <time>2020-05-31T08:53:47Z</time>
      </trkpt>
      <trkpt lat="46.3843" lon="-0.31576">
        <ele>70.3</ele>
        <time>2020-05-31T08:53:48Z</time>
      </trkpt>
      <trkpt lat="46.38428" lon="-0.3158">
        <ele>70.2</ele>
        <time>2020-05-31T08:53:49Z</time>
      </trkpt>
      <trkpt lat="46.38426" lon="-0.31584">
        <ele>70.2</ele>
        <time>2020-05-31T08:53:50Z</time>
      </trkpt>
      <trkpt lat="46.38425" lon="-0.31588">
        <ele>70.2</ele>
        <time>2020-05-31T08:53:51Z</time>
      </trkpt>
      <trkpt lat="46.38423" lon="-0.31593">
        <ele>70.1</ele>
        <time>2020-05-31T08:53:52Z</time>
      </trkpt>
      <trkpt lat="46.38421" lon="-0.31597">
        <ele>70.1</ele>
        <time>2020-05-31T08:53:53Z</time>
      </trkpt>
      <trkpt lat="46.3842" lon="-0.31601">
        <ele>70.1</ele>
        <time>2020-05-31T08:53:54Z</time>
      </trkpt>
      <trkpt lat="46.38417" lon="-0.31604">
        <ele>70</ele>
        <time>2020-05-31T08:53:55Z</time>
      </trkpt>
      <trkpt lat="46.38416" lon="-0.3161">
        <ele>70</ele>
        <time>2020-05-31T08:53:56Z</time>
      </trkpt>
      <trkpt lat="46.38413" lon="-0.31615">
        <ele>69.9</ele>
        <time>2020-05-31T08:53:57Z</time>
      </trkpt>
      <trkpt lat="46.3841" lon="-0.3162">
        <ele>69.8</ele>
        <time>2020-05-31T08:53:58Z</time>
      </trkpt>
      <trkpt lat="46.38407" lon="-0.31626">
        <ele>69.7</ele>
        <time>2020-05-31T08:53:59Z</time>
      </trkpt>
      <trkpt lat="46.38405" lon="-0.31632">
        <ele>69.7</ele>
        <time>2020-05-31T08:54:00Z</time>
      </trkpt>
      <trkpt lat="46.38403" lon="-0.31637">
        <ele>69.7</ele>
        <time>2020-05-31T08:54:01Z</time>
      </trkpt>
      <trkpt lat="46.384" lon="-0.31643">
        <ele>69.6</ele>
        <time>2020-05-31T08:54:02Z</time>
      </trkpt>
      <trkpt lat="46.38398" lon="-0.3165">
        <ele>69.6</ele>
        <time>2020-05-31T08:54:03Z</time>
      </trkpt>
      <trkpt lat="46.38397" lon="-0.31656">
        <ele>69.5</ele>
        <time>2020-05-31T08:54:04Z</time>
      </trkpt>
      <trkpt lat="46.38395" lon="-0.31663">
        <ele>69.5</ele>
        <time>2020-05-31T08:54:05Z</time>
      </trkpt>
      <trkpt lat="46.38393" lon="-0.31671">
        <ele>69.4</ele>
        <time>2020-05-31T08:54:06Z</time>
      </trkpt>
      <trkpt lat="46.3839" lon="-0.31678">
        <ele>69.4</ele>
        <time>2020-05-31T08:54:07Z</time>
      </trkpt>
      <trkpt lat="46.38387" lon="-0.31686">
        <ele>69.3</ele>
        <time>2020-05-31T08:54:08Z</time>
      </trkpt>
      <trkpt lat="46.38384" lon="-0.31692">
        <ele>69.2</ele>
        <time>2020-05-31T08:54:09Z</time>
      </trkpt>
      <trkpt lat="46.38383" lon="-0.31698">
        <ele>69.2</ele>
        <time>2020-05-31T08:54:10Z</time>
      </trkpt>
      <trkpt lat="46.3838" lon="-0.31705">
        <ele>69.1</ele>
        <time>2020-05-31T08:54:11Z</time>
      </trkpt>
      <trkpt lat="46.38378" lon="-0.31713">
        <ele>69</ele>
        <time>2020-05-31T08:54:12Z</time>
      </trkpt>
      <trkpt lat="46.38375" lon="-0.31721">
        <ele>69</ele>
        <time>2020-05-31T08:54:13Z</time>
      </trkpt>
      <trkpt lat="46.38373" lon="-0.3173">
        <ele>68.9</ele>
        <time>2020-05-31T08:54:14Z</time>
      </trkpt>
      <trkpt lat="46.38372" lon="-0.31738">
        <ele>68.9</ele>
        <time>2020-05-31T08:54:15Z</time>
      </trkpt>
      <trkpt lat="46.3837" lon="-0.31745">
        <ele>68.8</ele>
        <time>2020-05-31T08:54:16Z</time>
      </trkpt>
      <trkpt lat="46.38368" lon="-0.31754">
        <ele>68.8</ele>
        <time>2020-05-31T08:54:17Z</time>
      </trkpt>
      <trkpt lat="46.38367" lon="-0.31762">
        <ele>68.8</ele>
        <time>2020-05-31T08:54:18Z</time>
      </trkpt>
      <trkpt lat="46.38366" lon="-0.3177">
        <ele>68.7</ele>
        <time>2020-05-31T08:54:19Z</time>
      </trkpt>
      <trkpt lat="46.38366" lon="-0.31778">
        <ele>68.7</ele>
        <time>2020-05-31T08:54:20Z</time>
      </trkpt>
      <trkpt lat="46.38366" lon="-0.31786">
        <ele>68.7</ele>
        <time>2020-05-31T08:54:21Z</time>
      </trkpt>
      <trkpt lat="46.38366" lon="-0.31794">
        <ele>68.7</ele>
        <time>2020-05-31T08:54:22Z</time>
      </trkpt>
      <trkpt lat="46.38366" lon="-0.318">
        <ele>68.6</ele>
        <time>2020-05-31T08:54:23Z</time>
      </trkpt>
      <trkpt lat="46.38366" lon="-0.31807">
        <ele>68.6</ele>
        <time>2020-05-31T08:54:24Z</time>
      </trkpt>
      <trkpt lat="46.38366" lon="-0.31814">
        <ele>68.6</ele>
        <time>2020-05-31T08:54:25Z</time>
      </trkpt>
      <trkpt lat="46.38366" lon="-0.3182">
        <ele>68.6</ele>
        <time>2020-05-31T08:54:26Z</time>
      </trkpt>
      <trkpt lat="46.38367" lon="-0.31826">
        <ele>68.6</ele>
        <time>2020-05-31T08:54:27Z</time>
      </trkpt>
      <trkpt lat="46.38367" lon="-0.3183">
        <ele>68.6</ele>
        <time>2020-05-31T08:54:28Z</time>
      </trkpt>
      <trkpt lat="46.38367" lon="-0.31838">
        <ele>68.6</ele>
        <time>2020-05-31T08:54:29Z</time>
      </trkpt>
      <trkpt lat="46.38367" lon="-0.31846">
        <ele>68.6</ele>
        <time>2020-05-31T08:54:30Z</time>
      </trkpt>
      <trkpt lat="46.38367" lon="-0.31852">
        <ele>68.5</ele>
        <time>2020-05-31T08:54:31Z</time>
      </trkpt>
      <trkpt lat="46.38367" lon="-0.3186">
        <ele>68.5</ele>
        <time>2020-05-31T08:54:32Z</time>
      </trkpt>
      <trkpt lat="46.38367" lon="-0.31868">
        <ele>68.5</ele>
        <time>2020-05-31T08:54:33Z</time>
      </trkpt>
      <trkpt lat="46.38366" lon="-0.31875">
        <ele>68.4</ele>
        <time>2020-05-31T08:54:34Z</time>
      </trkpt>
      <trkpt lat="46.38366" lon="-0.31884">
        <ele>68.4</ele>
        <time>2020-05-31T08:54:35Z</time>
      </trkpt>
      <trkpt lat="46.38366" lon="-0.31892">
        <ele>68.3</ele>
        <time>2020-05-31T08:54:36Z</time>
      </trkpt>
      <trkpt lat="46.38367" lon="-0.319">
        <ele>68.2</ele>
        <time>2020-05-31T08:54:37Z</time>
      </trkpt>
      <trkpt lat="46.38367" lon="-0.31908">
        <ele>68.1</ele>
        <time>2020-05-31T08:54:38Z</time>
      </trkpt>
      <trkpt lat="46.38367" lon="-0.31914">
        <ele>68.1</ele>
        <time>2020-05-31T08:54:39Z</time>
      </trkpt>
      <trkpt lat="46.38367" lon="-0.31922">
        <ele>68</ele>
        <time>2020-05-31T08:54:40Z</time>
      </trkpt>
      <trkpt lat="46.38367" lon="-0.31928">
        <ele>67.9</ele>
        <time>2020-05-31T08:54:41Z</time>
      </trkpt>
      <trkpt lat="46.38367" lon="-0.31936">
        <ele>67.9</ele>
        <time>2020-05-31T08:54:42Z</time>
      </trkpt>
      <trkpt lat="46.38367" lon="-0.31944">
        <ele>67.8</ele>
        <time>2020-05-31T08:54:43Z</time>
      </trkpt>
      <trkpt lat="46.38367" lon="-0.31952">
        <ele>67.8</ele>
        <time>2020-05-31T08:54:44Z</time>
      </trkpt>
      <trkpt lat="46.38366" lon="-0.3196">
        <ele>67.7</ele>
        <time>2020-05-31T08:54:45Z</time>
      </trkpt>
      <trkpt lat="46.38367" lon="-0.31967">
        <ele>67.7</ele>
        <time>2020-05-31T08:54:46Z</time>
      </trkpt>
      <trkpt lat="46.38367" lon="-0.31975">
        <ele>67.6</ele>
        <time>2020-05-31T08:54:47Z</time>
      </trkpt>
      <trkpt lat="46.38367" lon="-0.31982">
        <ele>67.6</ele>
        <time>2020-05-31T08:54:48Z</time>
      </trkpt>
      <trkpt lat="46.38366" lon="-0.3199">
        <ele>67.5</ele>
        <time>2020-05-31T08:54:49Z</time>
      </trkpt>
      <trkpt lat="46.38366" lon="-0.31998">
        <ele>67.5</ele>
        <time>2020-05-31T08:54:50Z</time>
      </trkpt>
      <trkpt lat="46.38366" lon="-0.32007">
        <ele>67.4</ele>
        <time>2020-05-31T08:54:51Z</time>
      </trkpt>
      <trkpt lat="46.38365" lon="-0.32016">
        <ele>67.4</ele>
        <time>2020-05-31T08:54:52Z</time>
      </trkpt>
      <trkpt lat="46.38364" lon="-0.32024">
        <ele>67.4</ele>
        <time>2020-05-31T08:54:53Z</time>
      </trkpt>
      <trkpt lat="46.38364" lon="-0.32032">
        <ele>67.4</ele>
        <time>2020-05-31T08:54:54Z</time>
      </trkpt>
      <trkpt lat="46.38363" lon="-0.32039">
        <ele>67.4</ele>
        <time>2020-05-31T08:54:55Z</time>
      </trkpt>
      <trkpt lat="46.38362" lon="-0.32047">
        <ele>67.4</ele>
        <time>2020-05-31T08:54:56Z</time>
      </trkpt>
      <trkpt lat="46.3836" lon="-0.32054">
        <ele>67.4</ele>
        <time>2020-05-31T08:54:57Z</time>
      </trkpt>
      <trkpt lat="46.38358" lon="-0.32062">
        <ele>67.4</ele>
        <time>2020-05-31T08:54:58Z</time>
      </trkpt>
      <trkpt lat="46.38358" lon="-0.32069">
        <ele>67.4</ele>
        <time>2020-05-31T08:54:59Z</time>
      </trkpt>
      <trkpt lat="46.38357" lon="-0.32077">
        <ele>67.4</ele>
        <time>2020-05-31T08:55:00Z</time>
      </trkpt>
      <trkpt lat="46.38356" lon="-0.32085">
        <ele>67.4</ele>
        <time>2020-05-31T08:55:01Z</time>
      </trkpt>
      <trkpt lat="46.38355" lon="-0.32093">
        <ele>67.4</ele>
        <time>2020-05-31T08:55:02Z</time>
      </trkpt>
      <trkpt lat="46.38354" lon="-0.32101">
        <ele>67.4</ele>
        <time>2020-05-31T08:55:03Z</time>
      </trkpt>
      <trkpt lat="46.38353" lon="-0.32108">
        <ele>67.4</ele>
        <time>2020-05-31T08:55:04Z</time>
      </trkpt>
      <trkpt lat="46.38351" lon="-0.32116">
        <ele>67.4</ele>
        <time>2020-05-31T08:55:05Z</time>
      </trkpt>
      <trkpt lat="46.3835" lon="-0.32124">
        <ele>67.3</ele>
        <time>2020-05-31T08:55:06Z</time>
      </trkpt>
      <trkpt lat="46.38348" lon="-0.32132">
        <ele>67.3</ele>
        <time>2020-05-31T08:55:07Z</time>
      </trkpt>
      <trkpt lat="46.38347" lon="-0.32139">
        <ele>67.3</ele>
        <time>2020-05-31T08:55:08Z</time>
      </trkpt>
      <trkpt lat="46.38346" lon="-0.32146">
        <ele>67.3</ele>
        <time>2020-05-31T08:55:09Z</time>
      </trkpt>
      <trkpt lat="46.38345" lon="-0.32154">
        <ele>67.3</ele>
        <time>2020-05-31T08:55:10Z</time>
      </trkpt>
      <trkpt lat="46.38345" lon="-0.32161">
        <ele>67.3</ele>
        <time>2020-05-31T08:55:11Z</time>
      </trkpt>
      <trkpt lat="46.38344" lon="-0.3217">
        <ele>67.3</ele>
        <time>2020-05-31T08:55:12Z</time>
      </trkpt>
      <trkpt lat="46.38343" lon="-0.32177">
        <ele>67.3</ele>
        <time>2020-05-31T08:55:13Z</time>
      </trkpt>
      <trkpt lat="46.38342" lon="-0.32186">
        <ele>67.3</ele>
        <time>2020-05-31T08:55:14Z</time>
      </trkpt>
      <trkpt lat="46.38341" lon="-0.32192">
        <ele>67.3</ele>
        <time>2020-05-31T08:55:15Z</time>
      </trkpt>
      <trkpt lat="46.3834" lon="-0.32199">
        <ele>67.3</ele>
        <time>2020-05-31T08:55:16Z</time>
      </trkpt>
      <trkpt lat="46.38338" lon="-0.32208">
        <ele>67.3</ele>
        <time>2020-05-31T08:55:17Z</time>
      </trkpt>
      <trkpt lat="46.38336" lon="-0.32215">
        <ele>67.3</ele>
        <time>2020-05-31T08:55:18Z</time>
      </trkpt>
      <trkpt lat="46.38336" lon="-0.32222">
        <ele>67.3</ele>
        <time>2020-05-31T08:55:19Z</time>
      </trkpt>
      <trkpt lat="46.38336" lon="-0.32229">
        <ele>67.3</ele>
        <time>2020-05-31T08:55:20Z</time>
      </trkpt>
      <trkpt lat="46.38338" lon="-0.32234">
        <ele>67.3</ele>
        <time>2020-05-31T08:55:21Z</time>
      </trkpt>
      <trkpt lat="46.38342" lon="-0.32235">
        <ele>67.1</ele>
        <time>2020-05-31T08:55:22Z</time>
      </trkpt>
      <trkpt lat="46.38347" lon="-0.32235">
        <ele>67</ele>
        <time>2020-05-31T08:55:23Z</time>
      </trkpt>
      <trkpt lat="46.38353" lon="-0.32235">
        <ele>66.8</ele>
        <time>2020-05-31T08:55:24Z</time>
      </trkpt>
      <trkpt lat="46.3836" lon="-0.32235">
        <ele>66.6</ele>
        <time>2020-05-31T08:55:25Z</time>
      </trkpt>
      <trkpt lat="46.38366" lon="-0.32236">
        <ele>66.3</ele>
        <time>2020-05-31T08:55:26Z</time>
      </trkpt>
      <trkpt lat="46.38373" lon="-0.32238">
        <ele>66.1</ele>
        <time>2020-05-31T08:55:27Z</time>
      </trkpt>
      <trkpt lat="46.38381" lon="-0.3224">
        <ele>65.8</ele>
        <time>2020-05-31T08:55:28Z</time>
      </trkpt>
      <trkpt lat="46.38389" lon="-0.32242">
        <ele>65.5</ele>
        <time>2020-05-31T08:55:29Z</time>
      </trkpt>
      <trkpt lat="46.38397" lon="-0.32244">
        <ele>65.2</ele>
        <time>2020-05-31T08:55:30Z</time>
      </trkpt>
      <trkpt lat="46.38407" lon="-0.32246">
        <ele>64.9</ele>
        <time>2020-05-31T08:55:31Z</time>
      </trkpt>
      <trkpt lat="46.38417" lon="-0.32249">
        <ele>64.6</ele>
        <time>2020-05-31T08:55:32Z</time>
      </trkpt>
      <trkpt lat="46.38426" lon="-0.32251">
        <ele>64.3</ele>
        <time>2020-05-31T08:55:33Z</time>
      </trkpt>
      <trkpt lat="46.38435" lon="-0.32254">
        <ele>64</ele>
        <time>2020-05-31T08:55:34Z</time>
      </trkpt>
      <trkpt lat="46.38445" lon="-0.32258">
        <ele>63.6</ele>
        <time>2020-05-31T08:55:35Z</time>
      </trkpt>
      <trkpt lat="46.38455" lon="-0.32263">
        <ele>63.3</ele>
        <time>2020-05-31T08:55:36Z</time>
      </trkpt>
      <trkpt lat="46.38465" lon="-0.32268">
        <ele>62.9</ele>
        <time>2020-05-31T08:55:37Z</time>
      </trkpt>
      <trkpt lat="46.38475" lon="-0.32274">
        <ele>62.5</ele>
        <time>2020-05-31T08:55:38Z</time>
      </trkpt>
      <trkpt lat="46.38485" lon="-0.3228">
        <ele>62</ele>
        <time>2020-05-31T08:55:39Z</time>
      </trkpt>
      <trkpt lat="46.38496" lon="-0.32286">
        <ele>61.6</ele>
        <time>2020-05-31T08:55:40Z</time>
      </trkpt>
      <trkpt lat="46.38506" lon="-0.32294">
        <ele>61.1</ele>
        <time>2020-05-31T08:55:41Z</time>
      </trkpt>
      <trkpt lat="46.38516" lon="-0.323">
        <ele>60.6</ele>
        <time>2020-05-31T08:55:42Z</time>
      </trkpt>
      <trkpt lat="46.38527" lon="-0.32307">
        <ele>59.9</ele>
        <time>2020-05-31T08:55:43Z</time>
      </trkpt>
      <trkpt lat="46.38538" lon="-0.32316">
        <ele>59.3</ele>
        <time>2020-05-31T08:55:44Z</time>
      </trkpt>
      <trkpt lat="46.38548" lon="-0.32324">
        <ele>58.6</ele>
        <time>2020-05-31T08:55:45Z</time>
      </trkpt>
      <trkpt lat="46.38559" lon="-0.32333">
        <ele>57.8</ele>
        <time>2020-05-31T08:55:46Z</time>
      </trkpt>
      <trkpt lat="46.38571" lon="-0.32342">
        <ele>56.9</ele>
        <time>2020-05-31T08:55:47Z</time>
      </trkpt>
      <trkpt lat="46.38582" lon="-0.32353">
        <ele>56</ele>
        <time>2020-05-31T08:55:48Z</time>
      </trkpt>
      <trkpt lat="46.38593" lon="-0.32364">
        <ele>55.2</ele>
        <time>2020-05-31T08:55:49Z</time>
      </trkpt>
      <trkpt lat="46.38604" lon="-0.32374">
        <ele>54.3</ele>
        <time>2020-05-31T08:55:50Z</time>
      </trkpt>
      <trkpt lat="46.38615" lon="-0.32386">
        <ele>53.4</ele>
        <time>2020-05-31T08:55:51Z</time>
      </trkpt>
      <trkpt lat="46.38626" lon="-0.32397">
        <ele>52.4</ele>
        <time>2020-05-31T08:55:52Z</time>
      </trkpt>
      <trkpt lat="46.38637" lon="-0.32409">
        <ele>51.4</ele>
        <time>2020-05-31T08:55:53Z</time>
      </trkpt>
      <trkpt lat="46.38648" lon="-0.32422">
        <ele>50.4</ele>
        <time>2020-05-31T08:55:54Z</time>
      </trkpt>
      <trkpt lat="46.38659" lon="-0.32434">
        <ele>49.3</ele>
        <time>2020-05-31T08:55:55Z</time>
      </trkpt>
      <trkpt lat="46.38669" lon="-0.32449">
        <ele>48.1</ele>
        <time>2020-05-31T08:55:56Z</time>
      </trkpt>
      <trkpt lat="46.38678" lon="-0.32465">
        <ele>47</ele>
        <time>2020-05-31T08:55:57Z</time>
      </trkpt>
      <trkpt lat="46.38687" lon="-0.3248">
        <ele>45.9</ele>
        <time>2020-05-31T08:55:58Z</time>
      </trkpt>
      <trkpt lat="46.38696" lon="-0.32497">
        <ele>44.8</ele>
        <time>2020-05-31T08:55:59Z</time>
      </trkpt>
      <trkpt lat="46.38705" lon="-0.32515">
        <ele>43.7</ele>
        <time>2020-05-31T08:56:00Z</time>
      </trkpt>
      <trkpt lat="46.38714" lon="-0.32532">
        <ele>42.7</ele>
        <time>2020-05-31T08:56:01Z</time>
      </trkpt>
      <trkpt lat="46.38722" lon="-0.3255">
        <ele>41.9</ele>
        <time>2020-05-31T08:56:02Z</time>
      </trkpt>
      <trkpt lat="46.38731" lon="-0.32567">
        <ele>41.4</ele>
        <time>2020-05-31T08:56:03Z</time>
      </trkpt>
      <trkpt lat="46.3874" lon="-0.32583">
        <ele>41</ele>
        <time>2020-05-31T08:56:04Z</time>
      </trkpt>
      <trkpt lat="46.38747" lon="-0.326">
        <ele>40.8</ele>
        <time>2020-05-31T08:56:05Z</time>
      </trkpt>
      <trkpt lat="46.38753" lon="-0.32617">
        <ele>40.7</ele>
        <time>2020-05-31T08:56:06Z</time>
      </trkpt>
      <trkpt lat="46.38759" lon="-0.32633">
        <ele>40.6</ele>
        <time>2020-05-31T08:56:07Z</time>
      </trkpt>
      <trkpt lat="46.38764" lon="-0.32649">
        <ele>40.5</ele>
        <time>2020-05-31T08:56:08Z</time>
      </trkpt>
      <trkpt lat="46.38769" lon="-0.32663">
        <ele>40.5</ele>
        <time>2020-05-31T08:56:09Z</time>
      </trkpt>
      <trkpt lat="46.38774" lon="-0.32677">
        <ele>40.4</ele>
        <time>2020-05-31T08:56:10Z</time>
      </trkpt>
      <trkpt lat="46.38779" lon="-0.32691">
        <ele>40.4</ele>
        <time>2020-05-31T08:56:11Z</time>
      </trkpt>
      <trkpt lat="46.38784" lon="-0.32703">
        <ele>40.4</ele>
        <time>2020-05-31T08:56:12Z</time>
      </trkpt>
      <trkpt lat="46.38788" lon="-0.32715">
        <ele>40.3</ele>
        <time>2020-05-31T08:56:13Z</time>
      </trkpt>
      <trkpt lat="46.38792" lon="-0.32726">
        <ele>40.3</ele>
        <time>2020-05-31T08:56:14Z</time>
      </trkpt>
      <trkpt lat="46.38797" lon="-0.32736">
        <ele>40.3</ele>
        <time>2020-05-31T08:56:15Z</time>
      </trkpt>
      <trkpt lat="46.38801" lon="-0.32747">
        <ele>40.3</ele>
        <time>2020-05-31T08:56:16Z</time>
      </trkpt>
      <trkpt lat="46.38806" lon="-0.32757">
        <ele>40.3</ele>
        <time>2020-05-31T08:56:17Z</time>
      </trkpt>
      <trkpt lat="46.38809" lon="-0.32767">
        <ele>40.3</ele>
        <time>2020-05-31T08:56:18Z</time>
      </trkpt>
      <trkpt lat="46.38813" lon="-0.32777">
        <ele>40.3</ele>
        <time>2020-05-31T08:56:19Z</time>
      </trkpt>
      <trkpt lat="46.38816" lon="-0.32787">
        <ele>40.3</ele>
        <time>2020-05-31T08:56:20Z</time>
      </trkpt>
      <trkpt lat="46.3882" lon="-0.32797">
        <ele>40.3</ele>
        <time>2020-05-31T08:56:21Z</time>
      </trkpt>
      <trkpt lat="46.38823" lon="-0.32806">
        <ele>40.4</ele>
        <time>2020-05-31T08:56:22Z</time>
      </trkpt>
      <trkpt lat="46.38827" lon="-0.32816">
        <ele>40.5</ele>
        <time>2020-05-31T08:56:23Z</time>
      </trkpt>
      <trkpt lat="46.38831" lon="-0.32826">
        <ele>40.5</ele>
        <time>2020-05-31T08:56:24Z</time>
      </trkpt>
      <trkpt lat="46.38834" lon="-0.32837">
        <ele>40.5</ele>
        <time>2020-05-31T08:56:25Z</time>
      </trkpt>
      <trkpt lat="46.38838" lon="-0.32846">
        <ele>40.5</ele>
        <time>2020-05-31T08:56:26Z</time>
      </trkpt>
      <trkpt lat="46.38842" lon="-0.32856">
        <ele>40.5</ele>
        <time>2020-05-31T08:56:27Z</time>
      </trkpt>
      <trkpt lat="46.38845" lon="-0.32866">
        <ele>40.5</ele>
        <time>2020-05-31T08:56:28Z</time>
      </trkpt>
      <trkpt lat="46.38849" lon="-0.32876">
        <ele>40.5</ele>
        <time>2020-05-31T08:56:29Z</time>
      </trkpt>
      <trkpt lat="46.38852" lon="-0.32886">
        <ele>40.6</ele>
        <time>2020-05-31T08:56:30Z</time>
      </trkpt>
      <trkpt lat="46.38855" lon="-0.32895">
        <ele>40.7</ele>
        <time>2020-05-31T08:56:31Z</time>
      </trkpt>
      <trkpt lat="46.38859" lon="-0.32904">
        <ele>40.8</ele>
        <time>2020-05-31T08:56:32Z</time>
      </trkpt>
      <trkpt lat="46.38862" lon="-0.32913">
        <ele>40.9</ele>
        <time>2020-05-31T08:56:33Z</time>
      </trkpt>
      <trkpt lat="46.38865" lon="-0.32922">
        <ele>41</ele>
        <time>2020-05-31T08:56:34Z</time>
      </trkpt>
      <trkpt lat="46.38869" lon="-0.3293">
        <ele>41.1</ele>
        <time>2020-05-31T08:56:35Z</time>
      </trkpt>
      <trkpt lat="46.38872" lon="-0.32939">
        <ele>41.3</ele>
        <time>2020-05-31T08:56:36Z</time>
      </trkpt>
      <trkpt lat="46.38875" lon="-0.32947">
        <ele>41.5</ele>
        <time>2020-05-31T08:56:37Z</time>
      </trkpt>
      <trkpt lat="46.38878" lon="-0.32956">
        <ele>41.7</ele>
        <time>2020-05-31T08:56:38Z</time>
      </trkpt>
      <trkpt lat="46.38881" lon="-0.32964">
        <ele>41.9</ele>
        <time>2020-05-31T08:56:39Z</time>
      </trkpt>
      <trkpt lat="46.38884" lon="-0.32972">
        <ele>42.1</ele>
        <time>2020-05-31T08:56:40Z</time>
      </trkpt>
      <trkpt lat="46.38887" lon="-0.3298">
        <ele>42.4</ele>
        <time>2020-05-31T08:56:41Z</time>
      </trkpt>
      <trkpt lat="46.38889" lon="-0.32988">
        <ele>42.6</ele>
        <time>2020-05-31T08:56:42Z</time>
      </trkpt>
      <trkpt lat="46.38891" lon="-0.32995">
        <ele>42.9</ele>
        <time>2020-05-31T08:56:43Z</time>
      </trkpt>
      <trkpt lat="46.38894" lon="-0.33003">
        <ele>43.2</ele>
        <time>2020-05-31T08:56:44Z</time>
      </trkpt>
      <trkpt lat="46.38896" lon="-0.3301">
        <ele>43.4</ele>
        <time>2020-05-31T08:56:45Z</time>
      </trkpt>
      <trkpt lat="46.38899" lon="-0.33017">
        <ele>43.7</ele>
        <time>2020-05-31T08:56:46Z</time>
      </trkpt>
      <trkpt lat="46.38902" lon="-0.33024">
        <ele>44</ele>
        <time>2020-05-31T08:56:47Z</time>
      </trkpt>
      <trkpt lat="46.38905" lon="-0.3303">
        <ele>44.3</ele>
        <time>2020-05-31T08:56:48Z</time>
      </trkpt>
      <trkpt lat="46.38907" lon="-0.33036">
        <ele>44.6</ele>
        <time>2020-05-31T08:56:49Z</time>
      </trkpt>
      <trkpt lat="46.3891" lon="-0.3304">
        <ele>44.9</ele>
        <time>2020-05-31T08:56:50Z</time>
      </trkpt>
      <trkpt lat="46.38912" lon="-0.33046">
        <ele>45.1</ele>
        <time>2020-05-31T08:56:51Z</time>
      </trkpt>
      <trkpt lat="46.38913" lon="-0.33051">
        <ele>45.4</ele>
        <time>2020-05-31T08:56:52Z</time>
      </trkpt>
      <trkpt lat="46.38915" lon="-0.33056">
        <ele>45.7</ele>
        <time>2020-05-31T08:56:53Z</time>
      </trkpt>
      <trkpt lat="46.38916" lon="-0.33061">
        <ele>46</ele>
        <time>2020-05-31T08:56:54Z</time>
      </trkpt>
      <trkpt lat="46.38917" lon="-0.33067">
        <ele>46.3</ele>
        <time>2020-05-31T08:56:55Z</time>
      </trkpt>
      <trkpt lat="46.38918" lon="-0.33071">
        <ele>46.6</ele>
        <time>2020-05-31T08:56:56Z</time>
      </trkpt>
      <trkpt lat="46.3892" lon="-0.33076">
        <ele>46.9</ele>
        <time>2020-05-31T08:56:57Z</time>
      </trkpt>
      <trkpt lat="46.38921" lon="-0.33081">
        <ele>47.2</ele>
        <time>2020-05-31T08:56:58Z</time>
      </trkpt>
      <trkpt lat="46.38923" lon="-0.33085">
        <ele>47.4</ele>
        <time>2020-05-31T08:56:59Z</time>
      </trkpt>
      <trkpt lat="46.38925" lon="-0.3309">
        <ele>47.7</ele>
        <time>2020-05-31T08:57:00Z</time>
      </trkpt>
      <trkpt lat="46.38927" lon="-0.33093">
        <ele>47.9</ele>
        <time>2020-05-31T08:57:01Z</time>
      </trkpt>
      <trkpt lat="46.38929" lon="-0.33097">
        <ele>48.2</ele>
        <time>2020-05-31T08:57:02Z</time>
      </trkpt>
      <trkpt lat="46.38931" lon="-0.331">
        <ele>48.4</ele>
        <time>2020-05-31T08:57:03Z</time>
      </trkpt>
      <trkpt lat="46.38933" lon="-0.33105">
        <ele>48.7</ele>
        <time>2020-05-31T08:57:04Z</time>
      </trkpt>
      <trkpt lat="46.38935" lon="-0.3311">
        <ele>49</ele>
        <time>2020-05-31T08:57:05Z</time>
      </trkpt>
      <trkpt lat="46.38936" lon="-0.33115">
        <ele>49.3</ele>
        <time>2020-05-31T08:57:06Z</time>
      </trkpt>
      <trkpt lat="46.38938" lon="-0.3312">
        <ele>49.6</ele>
        <time>2020-05-31T08:57:07Z</time>
      </trkpt>
      <trkpt lat="46.38939" lon="-0.33123">
        <ele>49.8</ele>
        <time>2020-05-31T08:57:08Z</time>
      </trkpt>
      <trkpt lat="46.3894" lon="-0.33127">
        <ele>50.1</ele>
        <time>2020-05-31T08:57:09Z</time>
      </trkpt>
      <trkpt lat="46.38942" lon="-0.33131">
        <ele>50.4</ele>
        <time>2020-05-31T08:57:10Z</time>
      </trkpt>
      <trkpt lat="46.38944" lon="-0.33137">
        <ele>50.8</ele>
        <time>2020-05-31T08:57:11Z</time>
      </trkpt>
      <trkpt lat="46.38945" lon="-0.33139">
        <ele>51</ele>
        <time>2020-05-31T08:57:12Z</time>
      </trkpt>
      <trkpt lat="46.38947" lon="-0.33143">
        <ele>51.3</ele>
        <time>2020-05-31T08:57:13Z</time>
      </trkpt>
      <trkpt lat="46.38949" lon="-0.33147">
        <ele>51.6</ele>
        <time>2020-05-31T08:57:14Z</time>
      </trkpt>
      <trkpt lat="46.38951" lon="-0.33153">
        <ele>52</ele>
        <time>2020-05-31T08:57:15Z</time>
      </trkpt>
      <trkpt lat="46.38952" lon="-0.33156">
        <ele>52.2</ele>
        <time>2020-05-31T08:57:16Z</time>
      </trkpt>
      <trkpt lat="46.38954" lon="-0.33161">
        <ele>52.6</ele>
        <time>2020-05-31T08:57:17Z</time>
      </trkpt>
      <trkpt lat="46.38955" lon="-0.33166">
        <ele>52.9</ele>
        <time>2020-05-31T08:57:18Z</time>
      </trkpt>
      <trkpt lat="46.38958" lon="-0.33172">
        <ele>53.3</ele>
        <time>2020-05-31T08:57:19Z</time>
      </trkpt>
      <trkpt lat="46.3896" lon="-0.33176">
        <ele>53.6</ele>
        <time>2020-05-31T08:57:20Z</time>
      </trkpt>
      <trkpt lat="46.38962" lon="-0.3318">
        <ele>53.9</ele>
        <time>2020-05-31T08:57:21Z</time>
      </trkpt>
      <trkpt lat="46.38963" lon="-0.33184">
        <ele>54.1</ele>
        <time>2020-05-31T08:57:22Z</time>
      </trkpt>
      <trkpt lat="46.38966" lon="-0.3319">
        <ele>54.4</ele>
        <time>2020-05-31T08:57:23Z</time>
      </trkpt>
      <trkpt lat="46.38967" lon="-0.33192">
        <ele>54.6</ele>
        <time>2020-05-31T08:57:24Z</time>
      </trkpt>
      <trkpt lat="46.38968" lon="-0.33198">
        <ele>54.9</ele>
        <time>2020-05-31T08:57:25Z</time>
      </trkpt>
      <trkpt lat="46.38968" lon="-0.332">
        <ele>55</ele>
        <time>2020-05-31T08:57:26Z</time>
      </trkpt>
      <trkpt lat="46.38971" lon="-0.33206">
        <ele>55.3</ele>
        <time>2020-05-31T08:57:27Z</time>
      </trkpt>
      <trkpt lat="46.38972" lon="-0.33208">
        <ele>55.4</ele>
        <time>2020-05-31T08:57:28Z</time>
      </trkpt>
      <trkpt lat="46.38973" lon="-0.33213">
        <ele>55.6</ele>
        <time>2020-05-31T08:57:29Z</time>
      </trkpt>
      <trkpt lat="46.38975" lon="-0.33216">
        <ele>55.8</ele>
        <time>2020-05-31T08:57:30Z</time>
      </trkpt>
      <trkpt lat="46.38976" lon="-0.33221">
        <ele>56.1</ele>
        <time>2020-05-31T08:57:31Z</time>
      </trkpt>
      <trkpt lat="46.38977" lon="-0.33222">
        <ele>56.1</ele>
        <time>2020-05-31T08:57:32Z</time>
      </trkpt>
      <trkpt lat="46.38978" lon="-0.33227">
        <ele>56.4</ele>
        <time>2020-05-31T08:57:33Z</time>
      </trkpt>
      <trkpt lat="46.3898" lon="-0.33232">
        <ele>56.6</ele>
        <time>2020-05-31T08:57:34Z</time>
      </trkpt>
      <trkpt lat="46.38982" lon="-0.33238">
        <ele>57</ele>
        <time>2020-05-31T08:57:35Z</time>
      </trkpt>
      <trkpt lat="46.38983" lon="-0.33242">
        <ele>57.2</ele>
        <time>2020-05-31T08:57:36Z</time>
      </trkpt>
      <trkpt lat="46.38985" lon="-0.33246">
        <ele>57.5</ele>
        <time>2020-05-31T08:57:37Z</time>
      </trkpt>
      <trkpt lat="46.38987" lon="-0.33251">
        <ele>57.7</ele>
        <time>2020-05-31T08:57:38Z</time>
      </trkpt>
      <trkpt lat="46.38988" lon="-0.33255">
        <ele>58</ele>
        <time>2020-05-31T08:57:39Z</time>
      </trkpt>
      <trkpt lat="46.3899" lon="-0.3326">
        <ele>58.3</ele>
        <time>2020-05-31T08:57:40Z</time>
      </trkpt>
      <trkpt lat="46.38992" lon="-0.33265">
        <ele>58.6</ele>
        <time>2020-05-31T08:57:41Z</time>
      </trkpt>
      <trkpt lat="46.38994" lon="-0.33271">
        <ele>59.1</ele>
        <time>2020-05-31T08:57:42Z</time>
      </trkpt>
      <trkpt lat="46.38996" lon="-0.33277">
        <ele>59.5</ele>
        <time>2020-05-31T08:57:43Z</time>
      </trkpt>
      <trkpt lat="46.38999" lon="-0.33282">
        <ele>59.9</ele>
        <time>2020-05-31T08:57:44Z</time>
      </trkpt>
      <trkpt lat="46.39" lon="-0.33286">
        <ele>60.1</ele>
        <time>2020-05-31T08:57:45Z</time>
      </trkpt>
      <trkpt lat="46.39002" lon="-0.3329">
        <ele>60.5</ele>
        <time>2020-05-31T08:57:46Z</time>
      </trkpt>
      <trkpt lat="46.39003" lon="-0.33295">
        <ele>60.8</ele>
        <time>2020-05-31T08:57:47Z</time>
      </trkpt>
      <trkpt lat="46.39005" lon="-0.33299">
        <ele>61.1</ele>
        <time>2020-05-31T08:57:48Z</time>
      </trkpt>
      <trkpt lat="46.39006" lon="-0.33305">
        <ele>61.5</ele>
        <time>2020-05-31T08:57:49Z</time>
      </trkpt>
      <trkpt lat="46.39007" lon="-0.33308">
        <ele>61.7</ele>
        <time>2020-05-31T08:57:50Z</time>
      </trkpt>
      <trkpt lat="46.39008" lon="-0.33311">
        <ele>61.9</ele>
        <time>2020-05-31T08:57:51Z</time>
      </trkpt>
      <trkpt lat="46.39009" lon="-0.33318">
        <ele>62.3</ele>
        <time>2020-05-31T08:57:52Z</time>
      </trkpt>
      <trkpt lat="46.3901" lon="-0.33321">
        <ele>62.5</ele>
        <time>2020-05-31T08:57:53Z</time>
      </trkpt>
      <trkpt lat="46.39012" lon="-0.33326">
        <ele>62.8</ele>
        <time>2020-05-31T08:57:54Z</time>
      </trkpt>
      <trkpt lat="46.39013" lon="-0.33328">
        <ele>63</ele>
        <time>2020-05-31T08:57:55Z</time>
      </trkpt>
      <trkpt lat="46.39015" lon="-0.33332">
        <ele>63.2</ele>
        <time>2020-05-31T08:57:56Z</time>
      </trkpt>
      <trkpt lat="46.39016" lon="-0.33337">
        <ele>63.5</ele>
        <time>2020-05-31T08:57:57Z</time>
      </trkpt>
      <trkpt lat="46.39017" lon="-0.33341">
        <ele>63.7</ele>
        <time>2020-05-31T08:57:58Z</time>
      </trkpt>
      <trkpt lat="46.39019" lon="-0.33345">
        <ele>63.9</ele>
        <time>2020-05-31T08:57:59Z</time>
      </trkpt>
      <trkpt lat="46.3902" lon="-0.33349">
        <ele>64.1</ele>
        <time>2020-05-31T08:58:00Z</time>
      </trkpt>
      <trkpt lat="46.39021" lon="-0.33353">
        <ele>64.2</ele>
        <time>2020-05-31T08:58:01Z</time>
      </trkpt>
      <trkpt lat="46.39022" lon="-0.33358">
        <ele>64.4</ele>
        <time>2020-05-31T08:58:02Z</time>
      </trkpt>
      <trkpt lat="46.39023" lon="-0.3336">
        <ele>64.4</ele>
        <time>2020-05-31T08:58:03Z</time>
      </trkpt>
      <trkpt lat="46.39024" lon="-0.33364">
        <ele>64.6</ele>
        <time>2020-05-31T08:58:04Z</time>
      </trkpt>
      <trkpt lat="46.39025" lon="-0.33369">
        <ele>64.7</ele>
        <time>2020-05-31T08:58:05Z</time>
      </trkpt>
      <trkpt lat="46.39026" lon="-0.33373">
        <ele>64.8</ele>
        <time>2020-05-31T08:58:06Z</time>
      </trkpt>
      <trkpt lat="46.39027" lon="-0.33379">
        <ele>65</ele>
        <time>2020-05-31T08:58:07Z</time>
      </trkpt>
      <trkpt lat="46.39028" lon="-0.33381">
        <ele>65.1</ele>
        <time>2020-05-31T08:58:08Z</time>
      </trkpt>
      <trkpt lat="46.39029" lon="-0.33386">
        <ele>65.3</ele>
        <time>2020-05-31T08:58:09Z</time>
      </trkpt>
      <trkpt lat="46.3903" lon="-0.3339">
        <ele>65.5</ele>
        <time>2020-05-31T08:58:10Z</time>
      </trkpt>
      <trkpt lat="46.39031" lon="-0.33395">
        <ele>65.7</ele>
        <time>2020-05-31T08:58:11Z</time>
      </trkpt>
      <trkpt lat="46.39032" lon="-0.33399">
        <ele>65.9</ele>
        <time>2020-05-31T08:58:12Z</time>
      </trkpt>
      <trkpt lat="46.39033" lon="-0.33403">
        <ele>66</ele>
        <time>2020-05-31T08:58:13Z</time>
      </trkpt>
      <trkpt lat="46.39035" lon="-0.33407">
        <ele>66.3</ele>
        <time>2020-05-31T08:58:14Z</time>
      </trkpt>
      <trkpt lat="46.39035" lon="-0.33411">
        <ele>66.4</ele>
        <time>2020-05-31T08:58:15Z</time>
      </trkpt>
      <trkpt lat="46.39037" lon="-0.33417">
        <ele>66.7</ele>
        <time>2020-05-31T08:58:16Z</time>
      </trkpt>
      <trkpt lat="46.39038" lon="-0.33423">
        <ele>67</ele>
        <time>2020-05-31T08:58:17Z</time>
      </trkpt>
      <trkpt lat="46.39038" lon="-0.33428">
        <ele>67.2</ele>
        <time>2020-05-31T08:58:18Z</time>
      </trkpt>
      <trkpt lat="46.3904" lon="-0.33433">
        <ele>67.4</ele>
        <time>2020-05-31T08:58:19Z</time>
      </trkpt>
      <trkpt lat="46.39041" lon="-0.33438">
        <ele>67.6</ele>
        <time>2020-05-31T08:58:20Z</time>
      </trkpt>
      <trkpt lat="46.39042" lon="-0.33443">
        <ele>67.8</ele>
        <time>2020-05-31T08:58:21Z</time>
      </trkpt>
      <trkpt lat="46.39042" lon="-0.33447">
        <ele>67.9</ele>
        <time>2020-05-31T08:58:22Z</time>
      </trkpt>
      <trkpt lat="46.39043" lon="-0.33449">
        <ele>68</ele>
        <time>2020-05-31T08:58:23Z</time>
      </trkpt>
      <trkpt lat="46.39044" lon="-0.33455">
        <ele>68.3</ele>
        <time>2020-05-31T08:58:24Z</time>
      </trkpt>
      <trkpt lat="46.39045" lon="-0.3346">
        <ele>68.4</ele>
        <time>2020-05-31T08:58:25Z</time>
      </trkpt>
      <trkpt lat="46.39046" lon="-0.33465">
        <ele>68.5</ele>
        <time>2020-05-31T08:58:26Z</time>
      </trkpt>
      <trkpt lat="46.39046" lon="-0.3347">
        <ele>68.7</ele>
        <time>2020-05-31T08:58:27Z</time>
      </trkpt>
      <trkpt lat="46.39047" lon="-0.33476">
        <ele>68.8</ele>
        <time>2020-05-31T08:58:28Z</time>
      </trkpt>
      <trkpt lat="46.39049" lon="-0.33482">
        <ele>69</ele>
        <time>2020-05-31T08:58:29Z</time>
      </trkpt>
      <trkpt lat="46.39049" lon="-0.33486">
        <ele>69.1</ele>
        <time>2020-05-31T08:58:30Z</time>
      </trkpt>
      <trkpt lat="46.39051" lon="-0.33491">
        <ele>69.2</ele>
        <time>2020-05-31T08:58:31Z</time>
      </trkpt>
      <trkpt lat="46.39052" lon="-0.33496">
        <ele>69.4</ele>
        <time>2020-05-31T08:58:32Z</time>
      </trkpt>
      <trkpt lat="46.39053" lon="-0.33501">
        <ele>69.5</ele>
        <time>2020-05-31T08:58:33Z</time>
      </trkpt>
      <trkpt lat="46.39054" lon="-0.33508">
        <ele>69.6</ele>
        <time>2020-05-31T08:58:34Z</time>
      </trkpt>
      <trkpt lat="46.39055" lon="-0.33513">
        <ele>69.7</ele>
        <time>2020-05-31T08:58:35Z</time>
      </trkpt>
      <trkpt lat="46.39055" lon="-0.33517">
        <ele>69.8</ele>
        <time>2020-05-31T08:58:36Z</time>
      </trkpt>
      <trkpt lat="46.39056" lon="-0.33521">
        <ele>69.9</ele>
        <time>2020-05-31T08:58:37Z</time>
      </trkpt>
      <trkpt lat="46.39057" lon="-0.33525">
        <ele>70</ele>
        <time>2020-05-31T08:58:38Z</time>
      </trkpt>
      <trkpt lat="46.39058" lon="-0.3353">
        <ele>70.1</ele>
        <time>2020-05-31T08:58:39Z</time>
      </trkpt>
      <trkpt lat="46.39059" lon="-0.33536">
        <ele>70.2</ele>
        <time>2020-05-31T08:58:40Z</time>
      </trkpt>
      <trkpt lat="46.3906" lon="-0.33541">
        <ele>70.3</ele>
        <time>2020-05-31T08:58:41Z</time>
      </trkpt>
      <trkpt lat="46.39061" lon="-0.33546">
        <ele>70.3</ele>
        <time>2020-05-31T08:58:42Z</time>
      </trkpt>
      <trkpt lat="46.39062" lon="-0.3355">
        <ele>70.4</ele>
        <time>2020-05-31T08:58:43Z</time>
      </trkpt>
      <trkpt lat="46.39063" lon="-0.33555">
        <ele>70.5</ele>
        <time>2020-05-31T08:58:44Z</time>
      </trkpt>
      <trkpt lat="46.39065" lon="-0.3356">
        <ele>70.5</ele>
        <time>2020-05-31T08:58:45Z</time>
      </trkpt>
      <trkpt lat="46.39066" lon="-0.33565">
        <ele>70.6</ele>
        <time>2020-05-31T08:58:46Z</time>
      </trkpt>
      <trkpt lat="46.39067" lon="-0.33569">
        <ele>70.6</ele>
        <time>2020-05-31T08:58:47Z</time>
      </trkpt>
      <trkpt lat="46.39069" lon="-0.33574">
        <ele>70.7</ele>
        <time>2020-05-31T08:58:48Z</time>
      </trkpt>
      <trkpt lat="46.3907" lon="-0.33577">
        <ele>70.7</ele>
        <time>2020-05-31T08:58:49Z</time>
      </trkpt>
      <trkpt lat="46.39071" lon="-0.33581">
        <ele>70.8</ele>
        <time>2020-05-31T08:58:50Z</time>
      </trkpt>
      <trkpt lat="46.39072" lon="-0.33586">
        <ele>70.8</ele>
        <time>2020-05-31T08:58:51Z</time>
      </trkpt>
      <trkpt lat="46.39073" lon="-0.33592">
        <ele>70.8</ele>
        <time>2020-05-31T08:58:52Z</time>
      </trkpt>
      <trkpt lat="46.39073" lon="-0.33595">
        <ele>70.8</ele>
        <time>2020-05-31T08:58:53Z</time>
      </trkpt>
      <trkpt lat="46.39074" lon="-0.33599">
        <ele>70.8</ele>
        <time>2020-05-31T08:58:54Z</time>
      </trkpt>
      <trkpt lat="46.39075" lon="-0.33603">
        <ele>70.8</ele>
        <time>2020-05-31T08:58:55Z</time>
      </trkpt>
      <trkpt lat="46.39075" lon="-0.33608">
        <ele>70.8</ele>
        <time>2020-05-31T08:58:56Z</time>
      </trkpt>
      <trkpt lat="46.39076" lon="-0.33613">
        <ele>70.7</ele>
        <time>2020-05-31T08:58:57Z</time>
      </trkpt>
      <trkpt lat="46.39078" lon="-0.33616">
        <ele>70.7</ele>
        <time>2020-05-31T08:58:58Z</time>
      </trkpt>
      <trkpt lat="46.3908" lon="-0.33624">
        <ele>70.6</ele>
        <time>2020-05-31T08:58:59Z</time>
      </trkpt>
      <trkpt lat="46.39081" lon="-0.33629">
        <ele>70.5</ele>
        <time>2020-05-31T08:59:00Z</time>
      </trkpt>
      <trkpt lat="46.39082" lon="-0.33634">
        <ele>70.4</ele>
        <time>2020-05-31T08:59:01Z</time>
      </trkpt>
      <trkpt lat="46.39083" lon="-0.3364">
        <ele>70.3</ele>
        <time>2020-05-31T08:59:02Z</time>
      </trkpt>
      <trkpt lat="46.39085" lon="-0.33646">
        <ele>70.2</ele>
        <time>2020-05-31T08:59:03Z</time>
      </trkpt>
      <trkpt lat="46.39086" lon="-0.33652">
        <ele>70</ele>
        <time>2020-05-31T08:59:04Z</time>
      </trkpt>
      <trkpt lat="46.39088" lon="-0.33659">
        <ele>69.9</ele>
        <time>2020-05-31T08:59:05Z</time>
      </trkpt>
      <trkpt lat="46.3909" lon="-0.33667">
        <ele>69.7</ele>
        <time>2020-05-31T08:59:06Z</time>
      </trkpt>
      <trkpt lat="46.39093" lon="-0.33675">
        <ele>69.5</ele>
        <time>2020-05-31T08:59:07Z</time>
      </trkpt>
      <trkpt lat="46.39095" lon="-0.33682">
        <ele>69.3</ele>
        <time>2020-05-31T08:59:08Z</time>
      </trkpt>
      <trkpt lat="46.39097" lon="-0.33691">
        <ele>69.1</ele>
        <time>2020-05-31T08:59:09Z</time>
      </trkpt>
      <trkpt lat="46.39099" lon="-0.33699">
        <ele>69</ele>
        <time>2020-05-31T08:59:10Z</time>
      </trkpt>
      <trkpt lat="46.39101" lon="-0.33708">
        <ele>68.8</ele>
        <time>2020-05-31T08:59:11Z</time>
      </trkpt>
      <trkpt lat="46.39104" lon="-0.33718">
        <ele>68.5</ele>
        <time>2020-05-31T08:59:12Z</time>
      </trkpt>
      <trkpt lat="46.39108" lon="-0.33726">
        <ele>68.4</ele>
        <time>2020-05-31T08:59:13Z</time>
      </trkpt>
      <trkpt lat="46.39111" lon="-0.33733">
        <ele>68.2</ele>
        <time>2020-05-31T08:59:14Z</time>
      </trkpt>
      <trkpt lat="46.39113" lon="-0.33741">
        <ele>68.1</ele>
        <time>2020-05-31T08:59:15Z</time>
      </trkpt>
      <trkpt lat="46.39115" lon="-0.33747">
        <ele>68</ele>
        <time>2020-05-31T08:59:16Z</time>
      </trkpt>
      <trkpt lat="46.39118" lon="-0.33753">
        <ele>68</ele>
        <time>2020-05-31T08:59:17Z</time>
      </trkpt>
      <trkpt lat="46.3912" lon="-0.33759">
        <ele>68</ele>
        <time>2020-05-31T08:59:18Z</time>
      </trkpt>
      <trkpt lat="46.39122" lon="-0.33762">
        <ele>68.1</ele>
        <time>2020-05-31T08:59:19Z</time>
      </trkpt>
      <trkpt lat="46.39123" lon="-0.33766">
        <ele>68.1</ele>
        <time>2020-05-31T08:59:20Z</time>
      </trkpt>
      <trkpt lat="46.39124" lon="-0.33768">
        <ele>68</ele>
        <time>2020-05-31T08:59:21Z</time>
      </trkpt>
      <trkpt lat="46.39124" lon="-0.33769">
        <ele>68</ele>
        <time>2020-05-31T08:59:22Z</time>
      </trkpt>
      <trkpt lat="46.39123" lon="-0.33775">
        <ele>68</ele>
        <time>2020-05-31T08:59:23Z</time>
      </trkpt>
      <trkpt lat="46.39121" lon="-0.33777">
        <ele>68</ele>
        <time>2020-05-31T08:59:24Z</time>
      </trkpt>
      <trkpt lat="46.39118" lon="-0.33781">
        <ele>68</ele>
        <time>2020-05-31T08:59:25Z</time>
      </trkpt>
      <trkpt lat="46.39114" lon="-0.33782">
        <ele>67.9</ele>
        <time>2020-05-31T08:59:26Z</time>
      </trkpt>
      <trkpt lat="46.3911" lon="-0.33782">
        <ele>67.9</ele>
        <time>2020-05-31T08:59:27Z</time>
      </trkpt>
      <trkpt lat="46.39105" lon="-0.33782">
        <ele>67.9</ele>
        <time>2020-05-31T08:59:28Z</time>
      </trkpt>
      <trkpt lat="46.39102" lon="-0.33783">
        <ele>67.9</ele>
        <time>2020-05-31T08:59:29Z</time>
      </trkpt>
      <trkpt lat="46.39099" lon="-0.33786">
        <ele>67.8</ele>
        <time>2020-05-31T08:59:30Z</time>
      </trkpt>
      <trkpt lat="46.39098" lon="-0.33787">
        <ele>67.8</ele>
        <time>2020-05-31T08:59:31Z</time>
      </trkpt>
      <trkpt lat="46.39096" lon="-0.33789">
        <ele>67.8</ele>
        <time>2020-05-31T08:59:32Z</time>
      </trkpt>
      <trkpt lat="46.39095" lon="-0.3379">
        <ele>67.8</ele>
        <time>2020-05-31T08:59:33Z</time>
      </trkpt>
      <trkpt lat="46.39094" lon="-0.33791">
        <ele>67.8</ele>
        <time>2020-05-31T08:59:34Z</time>
      </trkpt>
      <trkpt lat="46.39093" lon="-0.33793">
        <ele>67.8</ele>
        <time>2020-05-31T08:59:35Z</time>
      </trkpt>
      <trkpt lat="46.39093" lon="-0.33794">
        <ele>67.8</ele>
        <time>2020-05-31T08:59:36Z</time>
      </trkpt>
      <trkpt lat="46.39093" lon="-0.33794">
        <ele>67.8</ele>
        <time>2020-05-31T08:59:37Z</time>
      </trkpt>
      <trkpt lat="46.39094" lon="-0.33793">
        <ele>67.8</ele>
        <time>2020-05-31T08:59:38Z</time>
      </trkpt>
      <trkpt lat="46.39094" lon="-0.33793">
        <ele>67.8</ele>
        <time>2020-05-31T08:59:39Z</time>
      </trkpt>
      <trkpt lat="46.39094" lon="-0.33793">
        <ele>67.8</ele>
        <time>2020-05-31T08:59:40Z</time>
      </trkpt>
      <trkpt lat="46.39094" lon="-0.33793">
        <ele>67.8</ele>
        <time>2020-05-31T08:59:41Z</time>
      </trkpt>
      <trkpt lat="46.39094" lon="-0.33794">
        <ele>67.8</ele>
        <time>2020-05-31T08:59:42Z</time>
      </trkpt>
      <trkpt lat="46.39094" lon="-0.33794">
        <ele>67.8</ele>
        <time>2020-05-31T08:59:43Z</time>
      </trkpt>
      <trkpt lat="46.39094" lon="-0.33794">
        <ele>67.8</ele>
        <time>2020-05-31T08:59:44Z</time>
      </trkpt>
      <trkpt lat="46.39094" lon="-0.33794">
        <ele>67.8</ele>
        <time>2020-05-31T08:59:45Z</time>
      </trkpt>
      <trkpt lat="46.39094" lon="-0.33794">
        <ele>67.8</ele>
        <time>2020-05-31T08:59:46Z</time>
      </trkpt>
      <trkpt lat="46.39094" lon="-0.33794">
        <ele>67.8</ele>
        <time>2020-05-31T08:59:47Z</time>
      </trkpt>
      <trkpt lat="46.39094" lon="-0.33794">
        <ele>67.8</ele>
        <time>2020-05-31T08:59:48Z</time>
      </trkpt>
      <trkpt lat="46.39093" lon="-0.33794">
        <ele>67.8</ele>
        <time>2020-05-31T08:59:49Z</time>
      </trkpt>
      <trkpt lat="46.39093" lon="-0.33793">
        <ele>67.8</ele>
        <time>2020-05-31T08:59:50Z</time>
      </trkpt>
      <trkpt lat="46.39092" lon="-0.33793">
        <ele>67.8</ele>
        <time>2020-05-31T08:59:51Z</time>
      </trkpt>
      <trkpt lat="46.39093" lon="-0.33792">
        <ele>67.8</ele>
        <time>2020-05-31T08:59:52Z</time>
      </trkpt>
      <trkpt lat="46.39093" lon="-0.33792">
        <ele>67.8</ele>
        <time>2020-05-31T08:59:53Z</time>
      </trkpt>
      <trkpt lat="46.39093" lon="-0.33792">
        <ele>67.8</ele>
        <time>2020-05-31T08:59:54Z</time>
      </trkpt>
      <trkpt lat="46.39094" lon="-0.33792">
        <ele>67.8</ele>
        <time>2020-05-31T08:59:55Z</time>
      </trkpt>
      <trkpt lat="46.39094" lon="-0.33792">
        <ele>67.8</ele>
        <time>2020-05-31T08:59:56Z</time>
      </trkpt>
      <trkpt lat="46.39094" lon="-0.33791">
        <ele>67.8</ele>
        <time>2020-05-31T08:59:57Z</time>
      </trkpt>
      <trkpt lat="46.39094" lon="-0.33791">
        <ele>67.8</ele>
        <time>2020-05-31T08:59:58Z</time>
      </trkpt>
      <trkpt lat="46.39094" lon="-0.33791">
        <ele>67.8</ele>
        <time>2020-05-31T08:59:59Z</time>
      </trkpt>
      <trkpt lat="46.39094" lon="-0.33791">
        <ele>67.8</ele>
        <time>2020-05-31T09:00:00Z</time>
      </trkpt>
      <trkpt lat="46.39094" lon="-0.33791">
        <ele>67.8</ele>
        <time>2020-05-31T09:00:01Z</time>
      </trkpt>
      <trkpt lat="46.39094" lon="-0.33792">
        <ele>67.8</ele>
        <time>2020-05-31T09:00:02Z</time>
      </trkpt>
      <trkpt lat="46.39094" lon="-0.33793">
        <ele>67.8</ele>
        <time>2020-05-31T09:00:03Z</time>
      </trkpt>
      <trkpt lat="46.39094" lon="-0.33792">
        <ele>67.7</ele>
        <time>2020-05-31T09:00:04Z</time>
      </trkpt>
      <trkpt lat="46.39093" lon="-0.33792">
        <ele>67.7</ele>
        <time>2020-05-31T09:00:05Z</time>
      </trkpt>
      <trkpt lat="46.39093" lon="-0.33793">
        <ele>67.7</ele>
        <time>2020-05-31T09:00:06Z</time>
      </trkpt>
      <trkpt lat="46.3909" lon="-0.33794">
        <ele>67.7</ele>
        <time>2020-05-31T09:00:07Z</time>
      </trkpt>
      <trkpt lat="46.39088" lon="-0.33796">
        <ele>67.7</ele>
        <time>2020-05-31T09:00:08Z</time>
      </trkpt>
      <trkpt lat="46.39086" lon="-0.33799">
        <ele>67.7</ele>
        <time>2020-05-31T09:00:09Z</time>
      </trkpt>
      <trkpt lat="46.39083" lon="-0.33802">
        <ele>67.6</ele>
        <time>2020-05-31T09:00:10Z</time>
      </trkpt>
      <trkpt lat="46.3908" lon="-0.33805">
        <ele>67.6</ele>
        <time>2020-05-31T09:00:11Z</time>
      </trkpt>
      <trkpt lat="46.39077" lon="-0.33809">
        <ele>67.5</ele>
        <time>2020-05-31T09:00:12Z</time>
      </trkpt>
      <trkpt lat="46.39074" lon="-0.33812">
        <ele>67.5</ele>
        <time>2020-05-31T09:00:13Z</time>
      </trkpt>
      <trkpt lat="46.3907" lon="-0.33816">
        <ele>67.5</ele>
        <time>2020-05-31T09:00:14Z</time>
      </trkpt>
      <trkpt lat="46.39067" lon="-0.33819">
        <ele>67.4</ele>
        <time>2020-05-31T09:00:15Z</time>
      </trkpt>
      <trkpt lat="46.39061" lon="-0.33824">
        <ele>67.3</ele>
        <time>2020-05-31T09:00:16Z</time>
      </trkpt>
      <trkpt lat="46.39056" lon="-0.33828">
        <ele>67.3</ele>
        <time>2020-05-31T09:00:17Z</time>
      </trkpt>
      <trkpt lat="46.39051" lon="-0.33832">
        <ele>67.2</ele>
        <time>2020-05-31T09:00:18Z</time>
      </trkpt>
      <trkpt lat="46.39046" lon="-0.33837">
        <ele>67.1</ele>
        <time>2020-05-31T09:00:19Z</time>
      </trkpt>
      <trkpt lat="46.39041" lon="-0.33841">
        <ele>67</ele>
        <time>2020-05-31T09:00:20Z</time>
      </trkpt>
      <trkpt lat="46.39036" lon="-0.33846">
        <ele>67</ele>
        <time>2020-05-31T09:00:21Z</time>
      </trkpt>
      <trkpt lat="46.39031" lon="-0.33851">
        <ele>66.9</ele>
        <time>2020-05-31T09:00:22Z</time>
      </trkpt>
      <trkpt lat="46.39027" lon="-0.33856">
        <ele>66.8</ele>
        <time>2020-05-31T09:00:23Z</time>
      </trkpt>
      <trkpt lat="46.39022" lon="-0.33861">
        <ele>66.7</ele>
        <time>2020-05-31T09:00:24Z</time>
      </trkpt>
      <trkpt lat="46.39016" lon="-0.33867">
        <ele>66.5</ele>
        <time>2020-05-31T09:00:25Z</time>
      </trkpt>
      <trkpt lat="46.3901" lon="-0.33872">
        <ele>66.4</ele>
        <time>2020-05-31T09:00:26Z</time>
      </trkpt>
      <trkpt lat="46.39005" lon="-0.33878">
        <ele>66.3</ele>
        <time>2020-05-31T09:00:27Z</time>
      </trkpt>
      <trkpt lat="46.39" lon="-0.33884">
        <ele>66.1</ele>
        <time>2020-05-31T09:00:28Z</time>
      </trkpt>
      <trkpt lat="46.38994" lon="-0.33889">
        <ele>66</ele>
        <time>2020-05-31T09:00:29Z</time>
      </trkpt>
      <trkpt lat="46.38989" lon="-0.33894">
        <ele>65.9</ele>
        <time>2020-05-31T09:00:30Z</time>
      </trkpt>
      <trkpt lat="46.38983" lon="-0.33899">
        <ele>65.8</ele>
        <time>2020-05-31T09:00:31Z</time>
      </trkpt>
      <trkpt lat="46.38977" lon="-0.33904">
        <ele>65.7</ele>
        <time>2020-05-31T09:00:32Z</time>
      </trkpt>
      <trkpt lat="46.38972" lon="-0.3391">
        <ele>65.6</ele>
        <time>2020-05-31T09:00:33Z</time>
      </trkpt>
      <trkpt lat="46.38967" lon="-0.33916">
        <ele>65.5</ele>
        <time>2020-05-31T09:00:34Z</time>
      </trkpt>
      <trkpt lat="46.38962" lon="-0.33921">
        <ele>65.5</ele>
        <time>2020-05-31T09:00:35Z</time>
      </trkpt>
      <trkpt lat="46.38956" lon="-0.33927">
        <ele>65.4</ele>
        <time>2020-05-31T09:00:36Z</time>
      </trkpt>
      <trkpt lat="46.38951" lon="-0.33933">
        <ele>65.3</ele>
        <time>2020-05-31T09:00:37Z</time>
      </trkpt>
      <trkpt lat="46.38946" lon="-0.33938">
        <ele>65.3</ele>
        <time>2020-05-31T09:00:38Z</time>
      </trkpt>
      <trkpt lat="46.38941" lon="-0.33944">
        <ele>65.3</ele>
        <time>2020-05-31T09:00:39Z</time>
      </trkpt>
      <trkpt lat="46.38935" lon="-0.3395">
        <ele>65.3</ele>
        <time>2020-05-31T09:00:40Z</time>
      </trkpt>
      <trkpt lat="46.38929" lon="-0.33957">
        <ele>65.3</ele>
        <time>2020-05-31T09:00:41Z</time>
      </trkpt>
      <trkpt lat="46.38924" lon="-0.33962">
        <ele>65.3</ele>
        <time>2020-05-31T09:00:42Z</time>
      </trkpt>
      <trkpt lat="46.3892" lon="-0.33967">
        <ele>65.3</ele>
        <time>2020-05-31T09:00:43Z</time>
      </trkpt>
      <trkpt lat="46.38914" lon="-0.33973">
        <ele>65.2</ele>
        <time>2020-05-31T09:00:44Z</time>
      </trkpt>
      <trkpt lat="46.38908" lon="-0.33978">
        <ele>65.2</ele>
        <time>2020-05-31T09:00:45Z</time>
      </trkpt>
      <trkpt lat="46.38902" lon="-0.33983">
        <ele>65.2</ele>
        <time>2020-05-31T09:00:46Z</time>
      </trkpt>
      <trkpt lat="46.38897" lon="-0.33989">
        <ele>65.2</ele>
        <time>2020-05-31T09:00:47Z</time>
      </trkpt>
      <trkpt lat="46.38891" lon="-0.33996">
        <ele>65.2</ele>
        <time>2020-05-31T09:00:48Z</time>
      </trkpt>
      <trkpt lat="46.38885" lon="-0.34002">
        <ele>65.2</ele>
        <time>2020-05-31T09:00:49Z</time>
      </trkpt>
      <trkpt lat="46.38878" lon="-0.34008">
        <ele>65.2</ele>
        <time>2020-05-31T09:00:50Z</time>
      </trkpt>
      <trkpt lat="46.38871" lon="-0.34012">
        <ele>65.2</ele>
        <time>2020-05-31T09:00:51Z</time>
      </trkpt>
      <trkpt lat="46.38864" lon="-0.34016">
        <ele>65.2</ele>
        <time>2020-05-31T09:00:52Z</time>
      </trkpt>
      <trkpt lat="46.38857" lon="-0.3402">
        <ele>65.2</ele>
        <time>2020-05-31T09:00:53Z</time>
      </trkpt>
      <trkpt lat="46.3885" lon="-0.34024">
        <ele>65.2</ele>
        <time>2020-05-31T09:00:54Z</time>
      </trkpt>
      <trkpt lat="46.38843" lon="-0.34027">
        <ele>65.3</ele>
        <time>2020-05-31T09:00:55Z</time>
      </trkpt>
      <trkpt lat="46.38835" lon="-0.3403">
        <ele>65.3</ele>
        <time>2020-05-31T09:00:56Z</time>
      </trkpt>
      <trkpt lat="46.38828" lon="-0.34033">
        <ele>65.3</ele>
        <time>2020-05-31T09:00:57Z</time>
      </trkpt>
      <trkpt lat="46.38821" lon="-0.34036">
        <ele>65.3</ele>
        <time>2020-05-31T09:00:58Z</time>
      </trkpt>
      <trkpt lat="46.38814" lon="-0.34039">
        <ele>65.4</ele>
        <time>2020-05-31T09:00:59Z</time>
      </trkpt>
      <trkpt lat="46.38807" lon="-0.34042">
        <ele>65.4</ele>
        <time>2020-05-31T09:01:00Z</time>
      </trkpt>
      <trkpt lat="46.388" lon="-0.34045">
        <ele>65.5</ele>
        <time>2020-05-31T09:01:01Z</time>
      </trkpt>
      <trkpt lat="46.38793" lon="-0.34049">
        <ele>65.5</ele>
        <time>2020-05-31T09:01:02Z</time>
      </trkpt>
      <trkpt lat="46.38785" lon="-0.34052">
        <ele>65.6</ele>
        <time>2020-05-31T09:01:03Z</time>
      </trkpt>
      <trkpt lat="46.38778" lon="-0.34055">
        <ele>65.6</ele>
        <time>2020-05-31T09:01:04Z</time>
      </trkpt>
      <trkpt lat="46.38771" lon="-0.34059">
        <ele>65.6</ele>
        <time>2020-05-31T09:01:05Z</time>
      </trkpt>
      <trkpt lat="46.38764" lon="-0.34062">
        <ele>65.7</ele>
        <time>2020-05-31T09:01:06Z</time>
      </trkpt>
      <trkpt lat="46.38757" lon="-0.34065">
        <ele>65.8</ele>
        <time>2020-05-31T09:01:07Z</time>
      </trkpt>
      <trkpt lat="46.3875" lon="-0.34067">
        <ele>65.9</ele>
        <time>2020-05-31T09:01:08Z</time>
      </trkpt>
      <trkpt lat="46.38743" lon="-0.3407">
        <ele>66</ele>
        <time>2020-05-31T09:01:09Z</time>
      </trkpt>
      <trkpt lat="46.38736" lon="-0.34073">
        <ele>66.1</ele>
        <time>2020-05-31T09:01:10Z</time>
      </trkpt>
      <trkpt lat="46.3873" lon="-0.34076">
        <ele>66.2</ele>
        <time>2020-05-31T09:01:11Z</time>
      </trkpt>
      <trkpt lat="46.38723" lon="-0.34079">
        <ele>66.2</ele>
        <time>2020-05-31T09:01:12Z</time>
      </trkpt>
      <trkpt lat="46.38716" lon="-0.34083">
        <ele>66.2</ele>
        <time>2020-05-31T09:01:13Z</time>
      </trkpt>
      <trkpt lat="46.38709" lon="-0.34086">
        <ele>66.3</ele>
        <time>2020-05-31T09:01:14Z</time>
      </trkpt>
      <trkpt lat="46.38703" lon="-0.34089">
        <ele>66.5</ele>
        <time>2020-05-31T09:01:15Z</time>
      </trkpt>
      <trkpt lat="46.38696" lon="-0.34092">
        <ele>66.6</ele>
        <time>2020-05-31T09:01:16Z</time>
      </trkpt>
      <trkpt lat="46.38689" lon="-0.34095">
        <ele>66.7</ele>
        <time>2020-05-31T09:01:17Z</time>
      </trkpt>
      <trkpt lat="46.38682" lon="-0.34098">
        <ele>66.8</ele>
        <time>2020-05-31T09:01:18Z</time>
      </trkpt>
      <trkpt lat="46.38676" lon="-0.341">
        <ele>66.9</ele>
        <time>2020-05-31T09:01:19Z</time>
      </trkpt>
      <trkpt lat="46.38669" lon="-0.34103">
        <ele>67</ele>
        <time>2020-05-31T09:01:20Z</time>
      </trkpt>
      <trkpt lat="46.38663" lon="-0.34105">
        <ele>67.1</ele>
        <time>2020-05-31T09:01:21Z</time>
      </trkpt>
      <trkpt lat="46.38656" lon="-0.34108">
        <ele>67.2</ele>
        <time>2020-05-31T09:01:22Z</time>
      </trkpt>
      <trkpt lat="46.3865" lon="-0.3411">
        <ele>67.4</ele>
        <time>2020-05-31T09:01:23Z</time>
      </trkpt>
      <trkpt lat="46.38643" lon="-0.34113">
        <ele>67.4</ele>
        <time>2020-05-31T09:01:24Z</time>
      </trkpt>
      <trkpt lat="46.38636" lon="-0.34116">
        <ele>67.5</ele>
        <time>2020-05-31T09:01:25Z</time>
      </trkpt>
      <trkpt lat="46.3863" lon="-0.34118">
        <ele>67.5</ele>
        <time>2020-05-31T09:01:26Z</time>
      </trkpt>
      <trkpt lat="46.38624" lon="-0.34122">
        <ele>67.5</ele>
        <time>2020-05-31T09:01:27Z</time>
      </trkpt>
      <trkpt lat="46.38618" lon="-0.34125">
        <ele>67.5</ele>
        <time>2020-05-31T09:01:28Z</time>
      </trkpt>
      <trkpt lat="46.38612" lon="-0.34128">
        <ele>67.5</ele>
        <time>2020-05-31T09:01:29Z</time>
      </trkpt>
      <trkpt lat="46.38606" lon="-0.34131">
        <ele>67.5</ele>
        <time>2020-05-31T09:01:30Z</time>
      </trkpt>
      <trkpt lat="46.386" lon="-0.34133">
        <ele>67.4</ele>
        <time>2020-05-31T09:01:31Z</time>
      </trkpt>
      <trkpt lat="46.38594" lon="-0.34137">
        <ele>67.4</ele>
        <time>2020-05-31T09:01:32Z</time>
      </trkpt>
      <trkpt lat="46.38587" lon="-0.34139">
        <ele>67.3</ele>
        <time>2020-05-31T09:01:33Z</time>
      </trkpt>
      <trkpt lat="46.38581" lon="-0.34142">
        <ele>67.3</ele>
        <time>2020-05-31T09:01:34Z</time>
      </trkpt>
      <trkpt lat="46.38574" lon="-0.34145">
        <ele>67.2</ele>
        <time>2020-05-31T09:01:35Z</time>
      </trkpt>
      <trkpt lat="46.38568" lon="-0.34149">
        <ele>67.2</ele>
        <time>2020-05-31T09:01:36Z</time>
      </trkpt>
      <trkpt lat="46.38562" lon="-0.34152">
        <ele>67.1</ele>
        <time>2020-05-31T09:01:37Z</time>
      </trkpt>
      <trkpt lat="46.38556" lon="-0.34154">
        <ele>67</ele>
        <time>2020-05-31T09:01:38Z</time>
      </trkpt>
      <trkpt lat="46.38549" lon="-0.34156">
        <ele>66.9</ele>
        <time>2020-05-31T09:01:39Z</time>
      </trkpt>
      <trkpt lat="46.38543" lon="-0.34159">
        <ele>66.7</ele>
        <time>2020-05-31T09:01:40Z</time>
      </trkpt>
      <trkpt lat="46.38537" lon="-0.34162">
        <ele>66.6</ele>
        <time>2020-05-31T09:01:41Z</time>
      </trkpt>
      <trkpt lat="46.3853" lon="-0.34165">
        <ele>66.4</ele>
        <time>2020-05-31T09:01:42Z</time>
      </trkpt>
      <trkpt lat="46.38524" lon="-0.34167">
        <ele>66.3</ele>
        <time>2020-05-31T09:01:43Z</time>
      </trkpt>
      <trkpt lat="46.38518" lon="-0.3417">
        <ele>66.2</ele>
        <time>2020-05-31T09:01:44Z</time>
      </trkpt>
      <trkpt lat="46.38511" lon="-0.34172">
        <ele>66.1</ele>
        <time>2020-05-31T09:01:45Z</time>
      </trkpt>
      <trkpt lat="46.38505" lon="-0.34174">
        <ele>66</ele>
        <time>2020-05-31T09:01:46Z</time>
      </trkpt>
      <trkpt lat="46.38498" lon="-0.34176">
        <ele>65.9</ele>
        <time>2020-05-31T09:01:47Z</time>
      </trkpt>
      <trkpt lat="46.38491" lon="-0.34177">
        <ele>65.8</ele>
        <time>2020-05-31T09:01:48Z</time>
      </trkpt>
      <trkpt lat="46.38484" lon="-0.34179">
        <ele>65.7</ele>
        <time>2020-05-31T09:01:49Z</time>
      </trkpt>
      <trkpt lat="46.38477" lon="-0.34181">
        <ele>65.6</ele>
        <time>2020-05-31T09:01:50Z</time>
      </trkpt>
      <trkpt lat="46.3847" lon="-0.34183">
        <ele>65.4</ele>
        <time>2020-05-31T09:01:51Z</time>
      </trkpt>
      <trkpt lat="46.38463" lon="-0.34183">
        <ele>65.3</ele>
        <time>2020-05-31T09:01:52Z</time>
      </trkpt>
      <trkpt lat="46.38455" lon="-0.34184">
        <ele>65.1</ele>
        <time>2020-05-31T09:01:53Z</time>
      </trkpt>
      <trkpt lat="46.38447" lon="-0.34185">
        <ele>65</ele>
        <time>2020-05-31T09:01:54Z</time>
      </trkpt>
      <trkpt lat="46.38439" lon="-0.34187">
        <ele>64.9</ele>
        <time>2020-05-31T09:01:55Z</time>
      </trkpt>
      <trkpt lat="46.38432" lon="-0.34187">
        <ele>64.8</ele>
        <time>2020-05-31T09:01:56Z</time>
      </trkpt>
      <trkpt lat="46.38424" lon="-0.34188">
        <ele>64.7</ele>
        <time>2020-05-31T09:01:57Z</time>
      </trkpt>
      <trkpt lat="46.38416" lon="-0.34188">
        <ele>64.7</ele>
        <time>2020-05-31T09:01:58Z</time>
      </trkpt>
      <trkpt lat="46.38409" lon="-0.34188">
        <ele>64.6</ele>
        <time>2020-05-31T09:01:59Z</time>
      </trkpt>
      <trkpt lat="46.38401" lon="-0.34189">
        <ele>64.5</ele>
        <time>2020-05-31T09:02:00Z</time>
      </trkpt>
      <trkpt lat="46.38394" lon="-0.34189">
        <ele>64.5</ele>
        <time>2020-05-31T09:02:01Z</time>
      </trkpt>
      <trkpt lat="46.38388" lon="-0.34189">
        <ele>64.5</ele>
        <time>2020-05-31T09:02:02Z</time>
      </trkpt>
      <trkpt lat="46.38381" lon="-0.34188">
        <ele>64.5</ele>
        <time>2020-05-31T09:02:03Z</time>
      </trkpt>
      <trkpt lat="46.38375" lon="-0.34188">
        <ele>64.5</ele>
        <time>2020-05-31T09:02:04Z</time>
      </trkpt>
      <trkpt lat="46.38369" lon="-0.34186">
        <ele>64.5</ele>
        <time>2020-05-31T09:02:05Z</time>
      </trkpt>
      <trkpt lat="46.38363" lon="-0.34186">
        <ele>64.4</ele>
        <time>2020-05-31T09:02:06Z</time>
      </trkpt>
      <trkpt lat="46.38357" lon="-0.34186">
        <ele>64.4</ele>
        <time>2020-05-31T09:02:07Z</time>
      </trkpt>
      <trkpt lat="46.38352" lon="-0.34187">
        <ele>64.4</ele>
        <time>2020-05-31T09:02:08Z</time>
      </trkpt>
      <trkpt lat="46.38346" lon="-0.34186">
        <ele>64.4</ele>
        <time>2020-05-31T09:02:09Z</time>
      </trkpt>
      <trkpt lat="46.3834" lon="-0.34185">
        <ele>64.3</ele>
        <time>2020-05-31T09:02:10Z</time>
      </trkpt>
      <trkpt lat="46.38335" lon="-0.34184">
        <ele>64.3</ele>
        <time>2020-05-31T09:02:11Z</time>
      </trkpt>
      <trkpt lat="46.38329" lon="-0.34183">
        <ele>64.3</ele>
        <time>2020-05-31T09:02:12Z</time>
      </trkpt>
      <trkpt lat="46.38323" lon="-0.34182">
        <ele>64.3</ele>
        <time>2020-05-31T09:02:13Z</time>
      </trkpt>
      <trkpt lat="46.38317" lon="-0.34181">
        <ele>64.3</ele>
        <time>2020-05-31T09:02:14Z</time>
      </trkpt>
      <trkpt lat="46.38311" lon="-0.34181">
        <ele>64.3</ele>
        <time>2020-05-31T09:02:15Z</time>
      </trkpt>
      <trkpt lat="46.38305" lon="-0.34181">
        <ele>64.2</ele>
        <time>2020-05-31T09:02:16Z</time>
      </trkpt>
      <trkpt lat="46.38299" lon="-0.3418">
        <ele>64.1</ele>
        <time>2020-05-31T09:02:17Z</time>
      </trkpt>
      <trkpt lat="46.38293" lon="-0.34181">
        <ele>63.9</ele>
        <time>2020-05-31T09:02:18Z</time>
      </trkpt>
      <trkpt lat="46.38287" lon="-0.34181">
        <ele>63.7</ele>
        <time>2020-05-31T09:02:19Z</time>
      </trkpt>
      <trkpt lat="46.38281" lon="-0.3418">
        <ele>63.6</ele>
        <time>2020-05-31T09:02:20Z</time>
      </trkpt>
      <trkpt lat="46.38274" lon="-0.3418">
        <ele>63.4</ele>
        <time>2020-05-31T09:02:21Z</time>
      </trkpt>
      <trkpt lat="46.38267" lon="-0.34179">
        <ele>63.2</ele>
        <time>2020-05-31T09:02:22Z</time>
      </trkpt>
      <trkpt lat="46.3826" lon="-0.34179">
        <ele>63</ele>
        <time>2020-05-31T09:02:23Z</time>
      </trkpt>
      <trkpt lat="46.38253" lon="-0.34179">
        <ele>62.8</ele>
        <time>2020-05-31T09:02:24Z</time>
      </trkpt>
      <trkpt lat="46.38246" lon="-0.34178">
        <ele>62.6</ele>
        <time>2020-05-31T09:02:25Z</time>
      </trkpt>
      <trkpt lat="46.38239" lon="-0.3418">
        <ele>62.4</ele>
        <time>2020-05-31T09:02:26Z</time>
      </trkpt>
      <trkpt lat="46.38231" lon="-0.34181">
        <ele>62.2</ele>
        <time>2020-05-31T09:02:27Z</time>
      </trkpt>
      <trkpt lat="46.38224" lon="-0.34182">
        <ele>62</ele>
        <time>2020-05-31T09:02:28Z</time>
      </trkpt>
      <trkpt lat="46.38216" lon="-0.34183">
        <ele>61.8</ele>
        <time>2020-05-31T09:02:29Z</time>
      </trkpt>
      <trkpt lat="46.38208" lon="-0.34182">
        <ele>61.7</ele>
        <time>2020-05-31T09:02:30Z</time>
      </trkpt>
      <trkpt lat="46.38201" lon="-0.34182">
        <ele>61.5</ele>
        <time>2020-05-31T09:02:31Z</time>
      </trkpt>
      <trkpt lat="46.38193" lon="-0.34184">
        <ele>61.4</ele>
        <time>2020-05-31T09:02:32Z</time>
      </trkpt>
      <trkpt lat="46.38186" lon="-0.34184">
        <ele>61.2</ele>
        <time>2020-05-31T09:02:33Z</time>
      </trkpt>
      <trkpt lat="46.38178" lon="-0.34184">
        <ele>61.1</ele>
        <time>2020-05-31T09:02:34Z</time>
      </trkpt>
      <trkpt lat="46.3817" lon="-0.34184">
        <ele>61</ele>
        <time>2020-05-31T09:02:35Z</time>
      </trkpt>
      <trkpt lat="46.38162" lon="-0.34184">
        <ele>60.9</ele>
        <time>2020-05-31T09:02:36Z</time>
      </trkpt>
      <trkpt lat="46.38154" lon="-0.34184">
        <ele>60.7</ele>
        <time>2020-05-31T09:02:37Z</time>
      </trkpt>
      <trkpt lat="46.38147" lon="-0.34185">
        <ele>60.5</ele>
        <time>2020-05-31T09:02:38Z</time>
      </trkpt>
      <trkpt lat="46.38139" lon="-0.34187">
        <ele>60.3</ele>
        <time>2020-05-31T09:02:39Z</time>
      </trkpt>
      <trkpt lat="46.38132" lon="-0.34189">
        <ele>60.2</ele>
        <time>2020-05-31T09:02:40Z</time>
      </trkpt>
      <trkpt lat="46.38125" lon="-0.34193">
        <ele>60.1</ele>
        <time>2020-05-31T09:02:41Z</time>
      </trkpt>
      <trkpt lat="46.38118" lon="-0.34196">
        <ele>60</ele>
        <time>2020-05-31T09:02:42Z</time>
      </trkpt>
      <trkpt lat="46.38111" lon="-0.34198">
        <ele>59.9</ele>
        <time>2020-05-31T09:02:43Z</time>
      </trkpt>
      <trkpt lat="46.38103" lon="-0.34201">
        <ele>59.8</ele>
        <time>2020-05-31T09:02:44Z</time>
      </trkpt>
      <trkpt lat="46.38096" lon="-0.34203">
        <ele>59.7</ele>
        <time>2020-05-31T09:02:45Z</time>
      </trkpt>
      <trkpt lat="46.38089" lon="-0.34206">
        <ele>59.5</ele>
        <time>2020-05-31T09:02:46Z</time>
      </trkpt>
      <trkpt lat="46.38083" lon="-0.34209">
        <ele>59.4</ele>
        <time>2020-05-31T09:02:47Z</time>
      </trkpt>
      <trkpt lat="46.38076" lon="-0.34212">
        <ele>59.2</ele>
        <time>2020-05-31T09:02:48Z</time>
      </trkpt>
      <trkpt lat="46.38069" lon="-0.34215">
        <ele>59</ele>
        <time>2020-05-31T09:02:49Z</time>
      </trkpt>
      <trkpt lat="46.38062" lon="-0.34217">
        <ele>58.8</ele>
        <time>2020-05-31T09:02:50Z</time>
      </trkpt>
      <trkpt lat="46.38054" lon="-0.3422">
        <ele>58.6</ele>
        <time>2020-05-31T09:02:51Z</time>
      </trkpt>
      <trkpt lat="46.38047" lon="-0.34223">
        <ele>58.3</ele>
        <time>2020-05-31T09:02:52Z</time>
      </trkpt>
      <trkpt lat="46.38039" lon="-0.34225">
        <ele>58.1</ele>
        <time>2020-05-31T09:02:53Z</time>
      </trkpt>
      <trkpt lat="46.38032" lon="-0.34227">
        <ele>57.8</ele>
        <time>2020-05-31T09:02:54Z</time>
      </trkpt>
      <trkpt lat="46.38024" lon="-0.34229">
        <ele>57.5</ele>
        <time>2020-05-31T09:02:55Z</time>
      </trkpt>
      <trkpt lat="46.38017" lon="-0.34232">
        <ele>57.2</ele>
        <time>2020-05-31T09:02:56Z</time>
      </trkpt>
      <trkpt lat="46.38009" lon="-0.34236">
        <ele>56.7</ele>
        <time>2020-05-31T09:02:57Z</time>
      </trkpt>
      <trkpt lat="46.38001" lon="-0.34239">
        <ele>56.2</ele>
        <time>2020-05-31T09:02:58Z</time>
      </trkpt>
      <trkpt lat="46.37992" lon="-0.34243">
        <ele>55.7</ele>
        <time>2020-05-31T09:02:59Z</time>
      </trkpt>
      <trkpt lat="46.37984" lon="-0.34247">
        <ele>55</ele>
        <time>2020-05-31T09:03:00Z</time>
      </trkpt>
      <trkpt lat="46.37974" lon="-0.34251">
        <ele>54.2</ele>
        <time>2020-05-31T09:03:01Z</time>
      </trkpt>
      <trkpt lat="46.37965" lon="-0.34256">
        <ele>53.4</ele>
        <time>2020-05-31T09:03:02Z</time>
      </trkpt>
      <trkpt lat="46.37956" lon="-0.34261">
        <ele>52.4</ele>
        <time>2020-05-31T09:03:03Z</time>
      </trkpt>
      <trkpt lat="46.37947" lon="-0.34267">
        <ele>51.2</ele>
        <time>2020-05-31T09:03:04Z</time>
      </trkpt>
      <trkpt lat="46.37938" lon="-0.34274">
        <ele>50</ele>
        <time>2020-05-31T09:03:05Z</time>
      </trkpt>
      <trkpt lat="46.37929" lon="-0.34281">
        <ele>48.9</ele>
        <time>2020-05-31T09:03:06Z</time>
      </trkpt>
      <trkpt lat="46.3792" lon="-0.34286">
        <ele>47.7</ele>
        <time>2020-05-31T09:03:07Z</time>
      </trkpt>
      <trkpt lat="46.37911" lon="-0.34289">
        <ele>46.6</ele>
        <time>2020-05-31T09:03:08Z</time>
      </trkpt>
      <trkpt lat="46.37901" lon="-0.34293">
        <ele>45.4</ele>
        <time>2020-05-31T09:03:09Z</time>
      </trkpt>
      <trkpt lat="46.3789" lon="-0.34298">
        <ele>44.3</ele>
        <time>2020-05-31T09:03:10Z</time>
      </trkpt>
      <trkpt lat="46.37879" lon="-0.343">
        <ele>43.5</ele>
        <time>2020-05-31T09:03:11Z</time>
      </trkpt>
      <trkpt lat="46.37868" lon="-0.34301">
        <ele>43.2</ele>
        <time>2020-05-31T09:03:12Z</time>
      </trkpt>
      <trkpt lat="46.37856" lon="-0.34301">
        <ele>42.5</ele>
        <time>2020-05-31T09:03:13Z</time>
      </trkpt>
      <trkpt lat="46.37844" lon="-0.34301">
        <ele>41.7</ele>
        <time>2020-05-31T09:03:14Z</time>
      </trkpt>
      <trkpt lat="46.37831" lon="-0.34299">
        <ele>40.9</ele>
        <time>2020-05-31T09:03:15Z</time>
      </trkpt>
      <trkpt lat="46.37818" lon="-0.34296">
        <ele>40.3</ele>
        <time>2020-05-31T09:03:16Z</time>
      </trkpt>
      <trkpt lat="46.37805" lon="-0.34295">
        <ele>39.9</ele>
        <time>2020-05-31T09:03:17Z</time>
      </trkpt>
      <trkpt lat="46.37793" lon="-0.34292">
        <ele>39.5</ele>
        <time>2020-05-31T09:03:18Z</time>
      </trkpt>
      <trkpt lat="46.37781" lon="-0.34288">
        <ele>39.3</ele>
        <time>2020-05-31T09:03:19Z</time>
      </trkpt>
      <trkpt lat="46.37769" lon="-0.34284">
        <ele>39.1</ele>
        <time>2020-05-31T09:03:20Z</time>
      </trkpt>
      <trkpt lat="46.37758" lon="-0.34282">
        <ele>39.1</ele>
        <time>2020-05-31T09:03:21Z</time>
      </trkpt>
      <trkpt lat="46.37747" lon="-0.3428">
        <ele>39.1</ele>
        <time>2020-05-31T09:03:22Z</time>
      </trkpt>
      <trkpt lat="46.37736" lon="-0.34277">
        <ele>39.1</ele>
        <time>2020-05-31T09:03:23Z</time>
      </trkpt>
      <trkpt lat="46.37725" lon="-0.34275">
        <ele>39</ele>
        <time>2020-05-31T09:03:24Z</time>
      </trkpt>
      <trkpt lat="46.37714" lon="-0.34272">
        <ele>38.9</ele>
        <time>2020-05-31T09:03:25Z</time>
      </trkpt>
      <trkpt lat="46.37704" lon="-0.34269">
        <ele>38.8</ele>
        <time>2020-05-31T09:03:26Z</time>
      </trkpt>
      <trkpt lat="46.37694" lon="-0.34266">
        <ele>38.8</ele>
        <time>2020-05-31T09:03:27Z</time>
      </trkpt>
      <trkpt lat="46.37685" lon="-0.34263">
        <ele>38.8</ele>
        <time>2020-05-31T09:03:28Z</time>
      </trkpt>
      <trkpt lat="46.37676" lon="-0.3426">
        <ele>38.8</ele>
        <time>2020-05-31T09:03:29Z</time>
      </trkpt>
      <trkpt lat="46.37666" lon="-0.34258">
        <ele>38.7</ele>
        <time>2020-05-31T09:03:30Z</time>
      </trkpt>
      <trkpt lat="46.37658" lon="-0.34255">
        <ele>38.7</ele>
        <time>2020-05-31T09:03:31Z</time>
      </trkpt>
      <trkpt lat="46.37649" lon="-0.34253">
        <ele>38.7</ele>
        <time>2020-05-31T09:03:32Z</time>
      </trkpt>
      <trkpt lat="46.37641" lon="-0.3425">
        <ele>38.6</ele>
        <time>2020-05-31T09:03:33Z</time>
      </trkpt>
      <trkpt lat="46.37632" lon="-0.34247">
        <ele>38.6</ele>
        <time>2020-05-31T09:03:34Z</time>
      </trkpt>
      <trkpt lat="46.37624" lon="-0.34244">
        <ele>38.6</ele>
        <time>2020-05-31T09:03:35Z</time>
      </trkpt>
      <trkpt lat="46.37616" lon="-0.34241">
        <ele>38.6</ele>
        <time>2020-05-31T09:03:36Z</time>
      </trkpt>
      <trkpt lat="46.37609" lon="-0.34237">
        <ele>38.6</ele>
        <time>2020-05-31T09:03:37Z</time>
      </trkpt>
      <trkpt lat="46.37601" lon="-0.34234">
        <ele>38.6</ele>
        <time>2020-05-31T09:03:38Z</time>
      </trkpt>
      <trkpt lat="46.37593" lon="-0.34231">
        <ele>38.6</ele>
        <time>2020-05-31T09:03:39Z</time>
      </trkpt>
      <trkpt lat="46.37585" lon="-0.34229">
        <ele>38.6</ele>
        <time>2020-05-31T09:03:40Z</time>
      </trkpt>
      <trkpt lat="46.37577" lon="-0.34228">
        <ele>38.6</ele>
        <time>2020-05-31T09:03:41Z</time>
      </trkpt>
      <trkpt lat="46.3757" lon="-0.34225">
        <ele>38.6</ele>
        <time>2020-05-31T09:03:42Z</time>
      </trkpt>
      <trkpt lat="46.37562" lon="-0.34223">
        <ele>38.6</ele>
        <time>2020-05-31T09:03:43Z</time>
      </trkpt>
      <trkpt lat="46.37555" lon="-0.34222">
        <ele>38.6</ele>
        <time>2020-05-31T09:03:44Z</time>
      </trkpt>
      <trkpt lat="46.37547" lon="-0.3422">
        <ele>38.6</ele>
        <time>2020-05-31T09:03:45Z</time>
      </trkpt>
      <trkpt lat="46.3754" lon="-0.34219">
        <ele>38.5</ele>
        <time>2020-05-31T09:03:46Z</time>
      </trkpt>
      <trkpt lat="46.37532" lon="-0.34218">
        <ele>38.5</ele>
        <time>2020-05-31T09:03:47Z</time>
      </trkpt>
      <trkpt lat="46.37525" lon="-0.34219">
        <ele>38.5</ele>
        <time>2020-05-31T09:03:48Z</time>
      </trkpt>
      <trkpt lat="46.37517" lon="-0.3422">
        <ele>38.4</ele>
        <time>2020-05-31T09:03:49Z</time>
      </trkpt>
      <trkpt lat="46.3751" lon="-0.34221">
        <ele>38.4</ele>
        <time>2020-05-31T09:03:50Z</time>
      </trkpt>
      <trkpt lat="46.37503" lon="-0.34223">
        <ele>38.4</ele>
        <time>2020-05-31T09:03:51Z</time>
      </trkpt>
      <trkpt lat="46.37496" lon="-0.34225">
        <ele>38.4</ele>
        <time>2020-05-31T09:03:52Z</time>
      </trkpt>
      <trkpt lat="46.3749" lon="-0.34227">
        <ele>38.5</ele>
        <time>2020-05-31T09:03:53Z</time>
      </trkpt>
      <trkpt lat="46.37483" lon="-0.3423">
        <ele>38.5</ele>
        <time>2020-05-31T09:03:54Z</time>
      </trkpt>
      <trkpt lat="46.37476" lon="-0.34233">
        <ele>38.5</ele>
        <time>2020-05-31T09:03:55Z</time>
      </trkpt>
      <trkpt lat="46.37469" lon="-0.34237">
        <ele>38.5</ele>
        <time>2020-05-31T09:03:56Z</time>
      </trkpt>
      <trkpt lat="46.37463" lon="-0.34241">
        <ele>38.5</ele>
        <time>2020-05-31T09:03:57Z</time>
      </trkpt>
      <trkpt lat="46.37457" lon="-0.34246">
        <ele>38.5</ele>
        <time>2020-05-31T09:03:58Z</time>
      </trkpt>
      <trkpt lat="46.37451" lon="-0.34251">
        <ele>38.5</ele>
        <time>2020-05-31T09:03:59Z</time>
      </trkpt>
      <trkpt lat="46.37445" lon="-0.34255">
        <ele>38.5</ele>
        <time>2020-05-31T09:04:00Z</time>
      </trkpt>
      <trkpt lat="46.37439" lon="-0.34259">
        <ele>38.5</ele>
        <time>2020-05-31T09:04:01Z</time>
      </trkpt>
      <trkpt lat="46.37433" lon="-0.34264">
        <ele>38.5</ele>
        <time>2020-05-31T09:04:02Z</time>
      </trkpt>
      <trkpt lat="46.37428" lon="-0.34268">
        <ele>38.5</ele>
        <time>2020-05-31T09:04:03Z</time>
      </trkpt>
      <trkpt lat="46.37422" lon="-0.34272">
        <ele>38.5</ele>
        <time>2020-05-31T09:04:04Z</time>
      </trkpt>
      <trkpt lat="46.37416" lon="-0.34275">
        <ele>38.4</ele>
        <time>2020-05-31T09:04:05Z</time>
      </trkpt>
      <trkpt lat="46.37411" lon="-0.3428">
        <ele>38.4</ele>
        <time>2020-05-31T09:04:06Z</time>
      </trkpt>
      <trkpt lat="46.37406" lon="-0.34285">
        <ele>38.4</ele>
        <time>2020-05-31T09:04:07Z</time>
      </trkpt>
      <trkpt lat="46.374" lon="-0.3429">
        <ele>38.4</ele>
        <time>2020-05-31T09:04:08Z</time>
      </trkpt>
      <trkpt lat="46.37395" lon="-0.34294">
        <ele>38.3</ele>
        <time>2020-05-31T09:04:09Z</time>
      </trkpt>
      <trkpt lat="46.37389" lon="-0.34299">
        <ele>38.3</ele>
        <time>2020-05-31T09:04:10Z</time>
      </trkpt>
      <trkpt lat="46.37384" lon="-0.34304">
        <ele>38.3</ele>
        <time>2020-05-31T09:04:11Z</time>
      </trkpt>
      <trkpt lat="46.37379" lon="-0.34308">
        <ele>38.3</ele>
        <time>2020-05-31T09:04:12Z</time>
      </trkpt>
      <trkpt lat="46.37374" lon="-0.34314">
        <ele>38.2</ele>
        <time>2020-05-31T09:04:13Z</time>
      </trkpt>
      <trkpt lat="46.37369" lon="-0.34318">
        <ele>38.2</ele>
        <time>2020-05-31T09:04:14Z</time>
      </trkpt>
      <trkpt lat="46.37365" lon="-0.34323">
        <ele>38.2</ele>
        <time>2020-05-31T09:04:15Z</time>
      </trkpt>
      <trkpt lat="46.37361" lon="-0.34327">
        <ele>38.2</ele>
        <time>2020-05-31T09:04:16Z</time>
      </trkpt>
      <trkpt lat="46.37358" lon="-0.34333">
        <ele>38.2</ele>
        <time>2020-05-31T09:04:17Z</time>
      </trkpt>
      <trkpt lat="46.37353" lon="-0.34336">
        <ele>38.2</ele>
        <time>2020-05-31T09:04:18Z</time>
      </trkpt>
      <trkpt lat="46.37349" lon="-0.3434">
        <ele>38.2</ele>
        <time>2020-05-31T09:04:19Z</time>
      </trkpt>
      <trkpt lat="46.37345" lon="-0.34344">
        <ele>38.2</ele>
        <time>2020-05-31T09:04:20Z</time>
      </trkpt>
      <trkpt lat="46.37341" lon="-0.34348">
        <ele>38.3</ele>
        <time>2020-05-31T09:04:21Z</time>
      </trkpt>
      <trkpt lat="46.37337" lon="-0.34352">
        <ele>38.3</ele>
        <time>2020-05-31T09:04:22Z</time>
      </trkpt>
      <trkpt lat="46.37332" lon="-0.34356">
        <ele>38.4</ele>
        <time>2020-05-31T09:04:23Z</time>
      </trkpt>
      <trkpt lat="46.37327" lon="-0.3436">
        <ele>38.4</ele>
        <time>2020-05-31T09:04:24Z</time>
      </trkpt>
      <trkpt lat="46.37321" lon="-0.34364">
        <ele>38.5</ele>
        <time>2020-05-31T09:04:25Z</time>
      </trkpt>
      <trkpt lat="46.37315" lon="-0.34368">
        <ele>38.6</ele>
        <time>2020-05-31T09:04:26Z</time>
      </trkpt>
      <trkpt lat="46.37309" lon="-0.34372">
        <ele>38.7</ele>
        <time>2020-05-31T09:04:27Z</time>
      </trkpt>
      <trkpt lat="46.37304" lon="-0.34376">
        <ele>38.8</ele>
        <time>2020-05-31T09:04:28Z</time>
      </trkpt>
      <trkpt lat="46.37298" lon="-0.34381">
        <ele>38.8</ele>
        <time>2020-05-31T09:04:29Z</time>
      </trkpt>
      <trkpt lat="46.37292" lon="-0.34385">
        <ele>38.9</ele>
        <time>2020-05-31T09:04:30Z</time>
      </trkpt>
      <trkpt lat="46.37286" lon="-0.34387">
        <ele>39</ele>
        <time>2020-05-31T09:04:31Z</time>
      </trkpt>
      <trkpt lat="46.37279" lon="-0.3439">
        <ele>39.1</ele>
        <time>2020-05-31T09:04:32Z</time>
      </trkpt>
      <trkpt lat="46.37272" lon="-0.34393">
        <ele>39.3</ele>
        <time>2020-05-31T09:04:33Z</time>
      </trkpt>
      <trkpt lat="46.37266" lon="-0.34397">
        <ele>39.5</ele>
        <time>2020-05-31T09:04:34Z</time>
      </trkpt>
      <trkpt lat="46.37259" lon="-0.34402">
        <ele>39.6</ele>
        <time>2020-05-31T09:04:35Z</time>
      </trkpt>
      <trkpt lat="46.37252" lon="-0.34407">
        <ele>39.7</ele>
        <time>2020-05-31T09:04:36Z</time>
      </trkpt>
      <trkpt lat="46.37246" lon="-0.34412">
        <ele>39.9</ele>
        <time>2020-05-31T09:04:37Z</time>
      </trkpt>
      <trkpt lat="46.37241" lon="-0.34417">
        <ele>40.1</ele>
        <time>2020-05-31T09:04:38Z</time>
      </trkpt>
      <trkpt lat="46.37237" lon="-0.34421">
        <ele>40.2</ele>
        <time>2020-05-31T09:04:39Z</time>
      </trkpt>
      <trkpt lat="46.37233" lon="-0.34426">
        <ele>40.3</ele>
        <time>2020-05-31T09:04:40Z</time>
      </trkpt>
      <trkpt lat="46.37229" lon="-0.34431">
        <ele>40.4</ele>
        <time>2020-05-31T09:04:41Z</time>
      </trkpt>
      <trkpt lat="46.37225" lon="-0.34436">
        <ele>40.6</ele>
        <time>2020-05-31T09:04:42Z</time>
      </trkpt>
      <trkpt lat="46.37223" lon="-0.34444">
        <ele>40.9</ele>
        <time>2020-05-31T09:04:43Z</time>
      </trkpt>
      <trkpt lat="46.37223" lon="-0.34452">
        <ele>40.8</ele>
        <time>2020-05-31T09:04:44Z</time>
      </trkpt>
      <trkpt lat="46.37225" lon="-0.3446">
        <ele>40.8</ele>
        <time>2020-05-31T09:04:45Z</time>
      </trkpt>
      <trkpt lat="46.37227" lon="-0.34467">
        <ele>40.8</ele>
        <time>2020-05-31T09:04:46Z</time>
      </trkpt>
      <trkpt lat="46.37229" lon="-0.34474">
        <ele>40.7</ele>
        <time>2020-05-31T09:04:47Z</time>
      </trkpt>
      <trkpt lat="46.37231" lon="-0.3448">
        <ele>40.7</ele>
        <time>2020-05-31T09:04:48Z</time>
      </trkpt>
      <trkpt lat="46.37233" lon="-0.34485">
        <ele>40.7</ele>
        <time>2020-05-31T09:04:49Z</time>
      </trkpt>
      <trkpt lat="46.37236" lon="-0.34491">
        <ele>40.7</ele>
        <time>2020-05-31T09:04:50Z</time>
      </trkpt>
      <trkpt lat="46.37239" lon="-0.34496">
        <ele>40.7</ele>
        <time>2020-05-31T09:04:51Z</time>
      </trkpt>
      <trkpt lat="46.37241" lon="-0.34503">
        <ele>40.6</ele>
        <time>2020-05-31T09:04:52Z</time>
      </trkpt>
      <trkpt lat="46.37245" lon="-0.34508">
        <ele>40.6</ele>
        <time>2020-05-31T09:04:53Z</time>
      </trkpt>
      <trkpt lat="46.37251" lon="-0.34513">
        <ele>40.5</ele>
        <time>2020-05-31T09:04:54Z</time>
      </trkpt>
      <trkpt lat="46.37257" lon="-0.34517">
        <ele>40.5</ele>
        <time>2020-05-31T09:04:55Z</time>
      </trkpt>
      <trkpt lat="46.37263" lon="-0.34523">
        <ele>40.4</ele>
        <time>2020-05-31T09:04:56Z</time>
      </trkpt>
      <trkpt lat="46.37268" lon="-0.34529">
        <ele>40.4</ele>
        <time>2020-05-31T09:04:57Z</time>
      </trkpt>
      <trkpt lat="46.37274" lon="-0.34534">
        <ele>40.3</ele>
        <time>2020-05-31T09:04:58Z</time>
      </trkpt>
      <trkpt lat="46.37279" lon="-0.34541">
        <ele>40.3</ele>
        <time>2020-05-31T09:04:59Z</time>
      </trkpt>
      <trkpt lat="46.37285" lon="-0.34547">
        <ele>40.3</ele>
        <time>2020-05-31T09:05:00Z</time>
      </trkpt>
      <trkpt lat="46.37288" lon="-0.34556">
        <ele>40.3</ele>
        <time>2020-05-31T09:05:01Z</time>
      </trkpt>
      <trkpt lat="46.37291" lon="-0.34565">
        <ele>40.3</ele>
        <time>2020-05-31T09:05:02Z</time>
      </trkpt>
      <trkpt lat="46.37293" lon="-0.34575">
        <ele>40.3</ele>
        <time>2020-05-31T09:05:03Z</time>
      </trkpt>
      <trkpt lat="46.37295" lon="-0.34585">
        <ele>40.5</ele>
        <time>2020-05-31T09:05:04Z</time>
      </trkpt>
      <trkpt lat="46.37294" lon="-0.34594">
        <ele>40.7</ele>
        <time>2020-05-31T09:05:05Z</time>
      </trkpt>
      <trkpt lat="46.37292" lon="-0.34603">
        <ele>40.8</ele>
        <time>2020-05-31T09:05:06Z</time>
      </trkpt>
      <trkpt lat="46.37291" lon="-0.34611">
        <ele>40.9</ele>
        <time>2020-05-31T09:05:07Z</time>
      </trkpt>
      <trkpt lat="46.3729" lon="-0.3462">
        <ele>41.1</ele>
        <time>2020-05-31T09:05:08Z</time>
      </trkpt>
      <trkpt lat="46.37289" lon="-0.34628">
        <ele>41.3</ele>
        <time>2020-05-31T09:05:09Z</time>
      </trkpt>
      <trkpt lat="46.37287" lon="-0.34635">
        <ele>41.5</ele>
        <time>2020-05-31T09:05:10Z</time>
      </trkpt>
      <trkpt lat="46.37286" lon="-0.34643">
        <ele>41.8</ele>
        <time>2020-05-31T09:05:11Z</time>
      </trkpt>
      <trkpt lat="46.37285" lon="-0.3465">
        <ele>42</ele>
        <time>2020-05-31T09:05:12Z</time>
      </trkpt>
      <trkpt lat="46.37283" lon="-0.34656">
        <ele>42.2</ele>
        <time>2020-05-31T09:05:13Z</time>
      </trkpt>
      <trkpt lat="46.37283" lon="-0.34664">
        <ele>42.5</ele>
        <time>2020-05-31T09:05:14Z</time>
      </trkpt>
      <trkpt lat="46.37283" lon="-0.34671">
        <ele>42.8</ele>
        <time>2020-05-31T09:05:15Z</time>
      </trkpt>
      <trkpt lat="46.37283" lon="-0.34679">
        <ele>43.1</ele>
        <time>2020-05-31T09:05:16Z</time>
      </trkpt>
      <trkpt lat="46.37282" lon="-0.34686">
        <ele>43.4</ele>
        <time>2020-05-31T09:05:17Z</time>
      </trkpt>
      <trkpt lat="46.37282" lon="-0.34693">
        <ele>43.7</ele>
        <time>2020-05-31T09:05:18Z</time>
      </trkpt>
      <trkpt lat="46.37282" lon="-0.347">
        <ele>44</ele>
        <time>2020-05-31T09:05:19Z</time>
      </trkpt>
      <trkpt lat="46.37281" lon="-0.34708">
        <ele>44.4</ele>
        <time>2020-05-31T09:05:20Z</time>
      </trkpt>
      <trkpt lat="46.37281" lon="-0.34714">
        <ele>44.7</ele>
        <time>2020-05-31T09:05:21Z</time>
      </trkpt>
      <trkpt lat="46.37281" lon="-0.3472">
        <ele>45</ele>
        <time>2020-05-31T09:05:22Z</time>
      </trkpt>
      <trkpt lat="46.37281" lon="-0.34726">
        <ele>45.3</ele>
        <time>2020-05-31T09:05:23Z</time>
      </trkpt>
      <trkpt lat="46.37281" lon="-0.34731">
        <ele>45.6</ele>
        <time>2020-05-31T09:05:24Z</time>
      </trkpt>
      <trkpt lat="46.37282" lon="-0.34737">
        <ele>45.9</ele>
        <time>2020-05-31T09:05:25Z</time>
      </trkpt>
      <trkpt lat="46.37282" lon="-0.34742">
        <ele>46.2</ele>
        <time>2020-05-31T09:05:26Z</time>
      </trkpt>
      <trkpt lat="46.37282" lon="-0.34747">
        <ele>46.5</ele>
        <time>2020-05-31T09:05:27Z</time>
      </trkpt>
      <trkpt lat="46.37283" lon="-0.34753">
        <ele>46.8</ele>
        <time>2020-05-31T09:05:28Z</time>
      </trkpt>
      <trkpt lat="46.37283" lon="-0.34758">
        <ele>47</ele>
        <time>2020-05-31T09:05:29Z</time>
      </trkpt>
      <trkpt lat="46.37283" lon="-0.34764">
        <ele>47.3</ele>
        <time>2020-05-31T09:05:30Z</time>
      </trkpt>
      <trkpt lat="46.37283" lon="-0.34769">
        <ele>47.6</ele>
        <time>2020-05-31T09:05:31Z</time>
      </trkpt>
      <trkpt lat="46.37283" lon="-0.34775">
        <ele>47.8</ele>
        <time>2020-05-31T09:05:32Z</time>
      </trkpt>
      <trkpt lat="46.37283" lon="-0.34781">
        <ele>48.1</ele>
        <time>2020-05-31T09:05:33Z</time>
      </trkpt>
      <trkpt lat="46.37283" lon="-0.34787">
        <ele>48.4</ele>
        <time>2020-05-31T09:05:34Z</time>
      </trkpt>
      <trkpt lat="46.37283" lon="-0.34794">
        <ele>48.7</ele>
        <time>2020-05-31T09:05:35Z</time>
      </trkpt>
      <trkpt lat="46.37282" lon="-0.34801">
        <ele>49</ele>
        <time>2020-05-31T09:05:36Z</time>
      </trkpt>
      <trkpt lat="46.37283" lon="-0.34806">
        <ele>49.2</ele>
        <time>2020-05-31T09:05:37Z</time>
      </trkpt>
      <trkpt lat="46.37283" lon="-0.34811">
        <ele>49.4</ele>
        <time>2020-05-31T09:05:38Z</time>
      </trkpt>
      <trkpt lat="46.37282" lon="-0.34815">
        <ele>49.6</ele>
        <time>2020-05-31T09:05:39Z</time>
      </trkpt>
      <trkpt lat="46.37281" lon="-0.34821">
        <ele>49.9</ele>
        <time>2020-05-31T09:05:40Z</time>
      </trkpt>
      <trkpt lat="46.3728" lon="-0.34826">
        <ele>50.1</ele>
        <time>2020-05-31T09:05:41Z</time>
      </trkpt>
      <trkpt lat="46.3728" lon="-0.34828">
        <ele>50.2</ele>
        <time>2020-05-31T09:05:42Z</time>
      </trkpt>
      <trkpt lat="46.37279" lon="-0.34833">
        <ele>50.4</ele>
        <time>2020-05-31T09:05:43Z</time>
      </trkpt>
      <trkpt lat="46.37277" lon="-0.34837">
        <ele>50.6</ele>
        <time>2020-05-31T09:05:44Z</time>
      </trkpt>
      <trkpt lat="46.37276" lon="-0.34842">
        <ele>50.7</ele>
        <time>2020-05-31T09:05:45Z</time>
      </trkpt>
      <trkpt lat="46.37275" lon="-0.34847">
        <ele>50.9</ele>
        <time>2020-05-31T09:05:46Z</time>
      </trkpt>
      <trkpt lat="46.37275" lon="-0.34849">
        <ele>51</ele>
        <time>2020-05-31T09:05:47Z</time>
      </trkpt>
      <trkpt lat="46.37274" lon="-0.34854">
        <ele>51.2</ele>
        <time>2020-05-31T09:05:48Z</time>
      </trkpt>
      <trkpt lat="46.37273" lon="-0.34856">
        <ele>51.2</ele>
        <time>2020-05-31T09:05:49Z</time>
      </trkpt>
      <trkpt lat="46.37273" lon="-0.34861">
        <ele>51.4</ele>
        <time>2020-05-31T09:05:50Z</time>
      </trkpt>
      <trkpt lat="46.37271" lon="-0.34865">
        <ele>51.5</ele>
        <time>2020-05-31T09:05:51Z</time>
      </trkpt>
      <trkpt lat="46.3727" lon="-0.34869">
        <ele>51.6</ele>
        <time>2020-05-31T09:05:52Z</time>
      </trkpt>
      <trkpt lat="46.37268" lon="-0.34874">
        <ele>51.8</ele>
        <time>2020-05-31T09:05:53Z</time>
      </trkpt>
      <trkpt lat="46.37267" lon="-0.3488">
        <ele>51.9</ele>
        <time>2020-05-31T09:05:54Z</time>
      </trkpt>
      <trkpt lat="46.37266" lon="-0.34881">
        <ele>52</ele>
        <time>2020-05-31T09:05:55Z</time>
      </trkpt>
      <trkpt lat="46.37264" lon="-0.34885">
        <ele>52.1</ele>
        <time>2020-05-31T09:05:56Z</time>
      </trkpt>
      <trkpt lat="46.37262" lon="-0.3489">
        <ele>52.2</ele>
        <time>2020-05-31T09:05:57Z</time>
      </trkpt>
      <trkpt lat="46.37261" lon="-0.34893">
        <ele>52.3</ele>
        <time>2020-05-31T09:05:58Z</time>
      </trkpt>
      <trkpt lat="46.37258" lon="-0.34897">
        <ele>52.4</ele>
        <time>2020-05-31T09:05:59Z</time>
      </trkpt>
      <trkpt lat="46.37258" lon="-0.34899">
        <ele>52.4</ele>
        <time>2020-05-31T09:06:00Z</time>
      </trkpt>
      <trkpt lat="46.37256" lon="-0.34903">
        <ele>52.5</ele>
        <time>2020-05-31T09:06:01Z</time>
      </trkpt>
      <trkpt lat="46.37254" lon="-0.34907">
        <ele>52.5</ele>
        <time>2020-05-31T09:06:02Z</time>
      </trkpt>
      <trkpt lat="46.37252" lon="-0.34911">
        <ele>52.6</ele>
        <time>2020-05-31T09:06:03Z</time>
      </trkpt>
      <trkpt lat="46.37251" lon="-0.34916">
        <ele>52.6</ele>
        <time>2020-05-31T09:06:04Z</time>
      </trkpt>
      <trkpt lat="46.37249" lon="-0.34921">
        <ele>52.6</ele>
        <time>2020-05-31T09:06:05Z</time>
      </trkpt>
      <trkpt lat="46.37249" lon="-0.34923">
        <ele>52.6</ele>
        <time>2020-05-31T09:06:06Z</time>
      </trkpt>
      <trkpt lat="46.37247" lon="-0.34928">
        <ele>52.6</ele>
        <time>2020-05-31T09:06:07Z</time>
      </trkpt>
      <trkpt lat="46.37246" lon="-0.34932">
        <ele>52.6</ele>
        <time>2020-05-31T09:06:08Z</time>
      </trkpt>
      <trkpt lat="46.37245" lon="-0.34936">
        <ele>52.6</ele>
        <time>2020-05-31T09:06:09Z</time>
      </trkpt>
      <trkpt lat="46.37244" lon="-0.3494">
        <ele>52.6</ele>
        <time>2020-05-31T09:06:10Z</time>
      </trkpt>
      <trkpt lat="46.37242" lon="-0.34945">
        <ele>52.6</ele>
        <time>2020-05-31T09:06:11Z</time>
      </trkpt>
      <trkpt lat="46.3724" lon="-0.34949">
        <ele>52.6</ele>
        <time>2020-05-31T09:06:12Z</time>
      </trkpt>
      <trkpt lat="46.37239" lon="-0.34954">
        <ele>52.6</ele>
        <time>2020-05-31T09:06:13Z</time>
      </trkpt>
      <trkpt lat="46.37238" lon="-0.34955">
        <ele>52.6</ele>
        <time>2020-05-31T09:06:14Z</time>
      </trkpt>
      <trkpt lat="46.37236" lon="-0.34961">
        <ele>52.6</ele>
        <time>2020-05-31T09:06:15Z</time>
      </trkpt>
      <trkpt lat="46.37235" lon="-0.34963">
        <ele>52.6</ele>
        <time>2020-05-31T09:06:16Z</time>
      </trkpt>
      <trkpt lat="46.37234" lon="-0.34967">
        <ele>52.6</ele>
        <time>2020-05-31T09:06:17Z</time>
      </trkpt>
      <trkpt lat="46.37233" lon="-0.34971">
        <ele>52.6</ele>
        <time>2020-05-31T09:06:18Z</time>
      </trkpt>
      <trkpt lat="46.37232" lon="-0.34976">
        <ele>52.6</ele>
        <time>2020-05-31T09:06:19Z</time>
      </trkpt>
      <trkpt lat="46.37231" lon="-0.34982">
        <ele>52.7</ele>
        <time>2020-05-31T09:06:20Z</time>
      </trkpt>
      <trkpt lat="46.3723" lon="-0.34988">
        <ele>52.7</ele>
        <time>2020-05-31T09:06:21Z</time>
      </trkpt>
      <trkpt lat="46.37229" lon="-0.34994">
        <ele>52.6</ele>
        <time>2020-05-31T09:06:22Z</time>
      </trkpt>
      <trkpt lat="46.37226" lon="-0.35">
        <ele>52.6</ele>
        <time>2020-05-31T09:06:23Z</time>
      </trkpt>
      <trkpt lat="46.37225" lon="-0.35005">
        <ele>52.6</ele>
        <time>2020-05-31T09:06:24Z</time>
      </trkpt>
      <trkpt lat="46.37224" lon="-0.35011">
        <ele>52.6</ele>
        <time>2020-05-31T09:06:25Z</time>
      </trkpt>
      <trkpt lat="46.37223" lon="-0.35015">
        <ele>52.5</ele>
        <time>2020-05-31T09:06:26Z</time>
      </trkpt>
      <trkpt lat="46.37222" lon="-0.35017">
        <ele>52.5</ele>
        <time>2020-05-31T09:06:27Z</time>
      </trkpt>
      <trkpt lat="46.37222" lon="-0.35022">
        <ele>52.5</ele>
        <time>2020-05-31T09:06:28Z</time>
      </trkpt>
      <trkpt lat="46.37221" lon="-0.35027">
        <ele>52.5</ele>
        <time>2020-05-31T09:06:29Z</time>
      </trkpt>
      <trkpt lat="46.37219" lon="-0.35032">
        <ele>52.5</ele>
        <time>2020-05-31T09:06:30Z</time>
      </trkpt>
      <trkpt lat="46.37218" lon="-0.35039">
        <ele>52.5</ele>
        <time>2020-05-31T09:06:31Z</time>
      </trkpt>
      <trkpt lat="46.37216" lon="-0.35045">
        <ele>52.4</ele>
        <time>2020-05-31T09:06:32Z</time>
      </trkpt>
      <trkpt lat="46.37215" lon="-0.35051">
        <ele>52.4</ele>
        <time>2020-05-31T09:06:33Z</time>
      </trkpt>
      <trkpt lat="46.37213" lon="-0.35056">
        <ele>52.4</ele>
        <time>2020-05-31T09:06:34Z</time>
      </trkpt>
      <trkpt lat="46.37212" lon="-0.35062">
        <ele>52.3</ele>
        <time>2020-05-31T09:06:35Z</time>
      </trkpt>
      <trkpt lat="46.3721" lon="-0.35069">
        <ele>52.3</ele>
        <time>2020-05-31T09:06:36Z</time>
      </trkpt>
      <trkpt lat="46.37208" lon="-0.35074">
        <ele>52.2</ele>
        <time>2020-05-31T09:06:37Z</time>
      </trkpt>
      <trkpt lat="46.37207" lon="-0.35081">
        <ele>52.1</ele>
        <time>2020-05-31T09:06:38Z</time>
      </trkpt>
      <trkpt lat="46.37206" lon="-0.35088">
        <ele>52</ele>
        <time>2020-05-31T09:06:39Z</time>
      </trkpt>
      <trkpt lat="46.37205" lon="-0.35095">
        <ele>51.9</ele>
        <time>2020-05-31T09:06:40Z</time>
      </trkpt>
      <trkpt lat="46.37203" lon="-0.351">
        <ele>51.8</ele>
        <time>2020-05-31T09:06:41Z</time>
      </trkpt>
      <trkpt lat="46.37201" lon="-0.35107">
        <ele>51.7</ele>
        <time>2020-05-31T09:06:42Z</time>
      </trkpt>
      <trkpt lat="46.37199" lon="-0.35114">
        <ele>51.5</ele>
        <time>2020-05-31T09:06:43Z</time>
      </trkpt>
      <trkpt lat="46.37196" lon="-0.35124">
        <ele>51.3</ele>
        <time>2020-05-31T09:06:44Z</time>
      </trkpt>
      <trkpt lat="46.37194" lon="-0.35134">
        <ele>51.1</ele>
        <time>2020-05-31T09:06:45Z</time>
      </trkpt>
      <trkpt lat="46.37192" lon="-0.35142">
        <ele>50.7</ele>
        <time>2020-05-31T09:06:46Z</time>
      </trkpt>
      <trkpt lat="46.3719" lon="-0.3515">
        <ele>50.4</ele>
        <time>2020-05-31T09:06:47Z</time>
      </trkpt>
      <trkpt lat="46.37187" lon="-0.3516">
        <ele>49.9</ele>
        <time>2020-05-31T09:06:48Z</time>
      </trkpt>
      <trkpt lat="46.37185" lon="-0.35171">
        <ele>49.4</ele>
        <time>2020-05-31T09:06:49Z</time>
      </trkpt>
      <trkpt lat="46.37183" lon="-0.35182">
        <ele>48.8</ele>
        <time>2020-05-31T09:06:50Z</time>
      </trkpt>
      <trkpt lat="46.37181" lon="-0.35194">
        <ele>48.2</ele>
        <time>2020-05-31T09:06:51Z</time>
      </trkpt>
      <trkpt lat="46.37179" lon="-0.35205">
        <ele>47.6</ele>
        <time>2020-05-31T09:06:52Z</time>
      </trkpt>
      <trkpt lat="46.37177" lon="-0.35217">
        <ele>46.9</ele>
        <time>2020-05-31T09:06:53Z</time>
      </trkpt>
      <trkpt lat="46.37176" lon="-0.35231">
        <ele>46.2</ele>
        <time>2020-05-31T09:06:54Z</time>
      </trkpt>
      <trkpt lat="46.37174" lon="-0.35244">
        <ele>45.6</ele>
        <time>2020-05-31T09:06:55Z</time>
      </trkpt>
      <trkpt lat="46.37174" lon="-0.35259">
        <ele>45.3</ele>
        <time>2020-05-31T09:06:56Z</time>
      </trkpt>
      <trkpt lat="46.37173" lon="-0.35273">
        <ele>45.1</ele>
        <time>2020-05-31T09:06:57Z</time>
      </trkpt>
      <trkpt lat="46.37172" lon="-0.35287">
        <ele>44.9</ele>
        <time>2020-05-31T09:06:58Z</time>
      </trkpt>
      <trkpt lat="46.37171" lon="-0.35301">
        <ele>44.6</ele>
        <time>2020-05-31T09:06:59Z</time>
      </trkpt>
      <trkpt lat="46.3717" lon="-0.35315">
        <ele>44.3</ele>
        <time>2020-05-31T09:07:00Z</time>
      </trkpt>
      <trkpt lat="46.37169" lon="-0.35329">
        <ele>44.1</ele>
        <time>2020-05-31T09:07:01Z</time>
      </trkpt>
      <trkpt lat="46.37167" lon="-0.35343">
        <ele>43.8</ele>
        <time>2020-05-31T09:07:02Z</time>
      </trkpt>
      <trkpt lat="46.37165" lon="-0.35356">
        <ele>43.8</ele>
        <time>2020-05-31T09:07:03Z</time>
      </trkpt>
      <trkpt lat="46.37163" lon="-0.35368">
        <ele>43.9</ele>
        <time>2020-05-31T09:07:04Z</time>
      </trkpt>
      <trkpt lat="46.37161" lon="-0.3538">
        <ele>44.1</ele>
        <time>2020-05-31T09:07:05Z</time>
      </trkpt>
      <trkpt lat="46.37159" lon="-0.35392">
        <ele>44.3</ele>
        <time>2020-05-31T09:07:06Z</time>
      </trkpt>
      <trkpt lat="46.37158" lon="-0.35403">
        <ele>44.5</ele>
        <time>2020-05-31T09:07:07Z</time>
      </trkpt>
      <trkpt lat="46.37155" lon="-0.35413">
        <ele>44.6</ele>
        <time>2020-05-31T09:07:08Z</time>
      </trkpt>
      <trkpt lat="46.37152" lon="-0.35423">
        <ele>44.8</ele>
        <time>2020-05-31T09:07:09Z</time>
      </trkpt>
      <trkpt lat="46.37148" lon="-0.35431">
        <ele>45</ele>
        <time>2020-05-31T09:07:10Z</time>
      </trkpt>
      <trkpt lat="46.37144" lon="-0.3544">
        <ele>45.3</ele>
        <time>2020-05-31T09:07:11Z</time>
      </trkpt>
      <trkpt lat="46.37141" lon="-0.35449">
        <ele>45.6</ele>
        <time>2020-05-31T09:07:12Z</time>
      </trkpt>
      <trkpt lat="46.37137" lon="-0.35456">
        <ele>46</ele>
        <time>2020-05-31T09:07:13Z</time>
      </trkpt>
      <trkpt lat="46.37133" lon="-0.35464">
        <ele>46.3</ele>
        <time>2020-05-31T09:07:14Z</time>
      </trkpt>
      <trkpt lat="46.37129" lon="-0.35471">
        <ele>46.6</ele>
        <time>2020-05-31T09:07:15Z</time>
      </trkpt>
      <trkpt lat="46.37125" lon="-0.35478">
        <ele>46.9</ele>
        <time>2020-05-31T09:07:16Z</time>
      </trkpt>
      <trkpt lat="46.3712" lon="-0.35484">
        <ele>47.3</ele>
        <time>2020-05-31T09:07:17Z</time>
      </trkpt>
      <trkpt lat="46.37116" lon="-0.35491">
        <ele>47.6</ele>
        <time>2020-05-31T09:07:18Z</time>
      </trkpt>
      <trkpt lat="46.37111" lon="-0.35496">
        <ele>47.9</ele>
        <time>2020-05-31T09:07:19Z</time>
      </trkpt>
      <trkpt lat="46.37106" lon="-0.35502">
        <ele>48.1</ele>
        <time>2020-05-31T09:07:20Z</time>
      </trkpt>
      <trkpt lat="46.37101" lon="-0.35507">
        <ele>48.2</ele>
        <time>2020-05-31T09:07:21Z</time>
      </trkpt>
      <trkpt lat="46.37096" lon="-0.35512">
        <ele>48.3</ele>
        <time>2020-05-31T09:07:22Z</time>
      </trkpt>
      <trkpt lat="46.37091" lon="-0.35516">
        <ele>48.6</ele>
        <time>2020-05-31T09:07:23Z</time>
      </trkpt>
      <trkpt lat="46.37086" lon="-0.3552">
        <ele>48.9</ele>
        <time>2020-05-31T09:07:24Z</time>
      </trkpt>
      <trkpt lat="46.37082" lon="-0.35523">
        <ele>49.2</ele>
        <time>2020-05-31T09:07:25Z</time>
      </trkpt>
      <trkpt lat="46.37078" lon="-0.35528">
        <ele>49.4</ele>
        <time>2020-05-31T09:07:26Z</time>
      </trkpt>
      <trkpt lat="46.37074" lon="-0.35534">
        <ele>49.7</ele>
        <time>2020-05-31T09:07:27Z</time>
      </trkpt>
      <trkpt lat="46.37069" lon="-0.35539">
        <ele>49.9</ele>
        <time>2020-05-31T09:07:28Z</time>
      </trkpt>
      <trkpt lat="46.37065" lon="-0.35542">
        <ele>50.1</ele>
        <time>2020-05-31T09:07:29Z</time>
      </trkpt>
      <trkpt lat="46.3706" lon="-0.35546">
        <ele>50.4</ele>
        <time>2020-05-31T09:07:30Z</time>
      </trkpt>
      <trkpt lat="46.37057" lon="-0.3555">
        <ele>50.5</ele>
        <time>2020-05-31T09:07:31Z</time>
      </trkpt>
      <trkpt lat="46.37052" lon="-0.35556">
        <ele>50.7</ele>
        <time>2020-05-31T09:07:32Z</time>
      </trkpt>
      <trkpt lat="46.37048" lon="-0.35559">
        <ele>50.9</ele>
        <time>2020-05-31T09:07:33Z</time>
      </trkpt>
      <trkpt lat="46.37045" lon="-0.35563">
        <ele>51</ele>
        <time>2020-05-31T09:07:34Z</time>
      </trkpt>
      <trkpt lat="46.37042" lon="-0.35566">
        <ele>51.2</ele>
        <time>2020-05-31T09:07:35Z</time>
      </trkpt>
      <trkpt lat="46.37037" lon="-0.35571">
        <ele>51.3</ele>
        <time>2020-05-31T09:07:36Z</time>
      </trkpt>
      <trkpt lat="46.37033" lon="-0.35575">
        <ele>51.5</ele>
        <time>2020-05-31T09:07:37Z</time>
      </trkpt>
      <trkpt lat="46.37029" lon="-0.3558">
        <ele>51.6</ele>
        <time>2020-05-31T09:07:38Z</time>
      </trkpt>
      <trkpt lat="46.37025" lon="-0.35583">
        <ele>51.7</ele>
        <time>2020-05-31T09:07:39Z</time>
      </trkpt>
      <trkpt lat="46.3702" lon="-0.35587">
        <ele>51.8</ele>
        <time>2020-05-31T09:07:40Z</time>
      </trkpt>
      <trkpt lat="46.37016" lon="-0.35591">
        <ele>51.9</ele>
        <time>2020-05-31T09:07:41Z</time>
      </trkpt>
      <trkpt lat="46.37012" lon="-0.35595">
        <ele>52.1</ele>
        <time>2020-05-31T09:07:42Z</time>
      </trkpt>
      <trkpt lat="46.37009" lon="-0.35597">
        <ele>52.2</ele>
        <time>2020-05-31T09:07:43Z</time>
      </trkpt>
      <trkpt lat="46.37005" lon="-0.35601">
        <ele>52.3</ele>
        <time>2020-05-31T09:07:44Z</time>
      </trkpt>
      <trkpt lat="46.37001" lon="-0.35605">
        <ele>52.4</ele>
        <time>2020-05-31T09:07:45Z</time>
      </trkpt>
      <trkpt lat="46.36997" lon="-0.35609">
        <ele>52.6</ele>
        <time>2020-05-31T09:07:46Z</time>
      </trkpt>
      <trkpt lat="46.36994" lon="-0.35612">
        <ele>52.7</ele>
        <time>2020-05-31T09:07:47Z</time>
      </trkpt>
      <trkpt lat="46.36989" lon="-0.35617">
        <ele>52.8</ele>
        <time>2020-05-31T09:07:48Z</time>
      </trkpt>
      <trkpt lat="46.36985" lon="-0.35621">
        <ele>53</ele>
        <time>2020-05-31T09:07:49Z</time>
      </trkpt>
      <trkpt lat="46.36981" lon="-0.35624">
        <ele>53.1</ele>
        <time>2020-05-31T09:07:50Z</time>
      </trkpt>
      <trkpt lat="46.36977" lon="-0.35629">
        <ele>53.3</ele>
        <time>2020-05-31T09:07:51Z</time>
      </trkpt>
      <trkpt lat="46.36972" lon="-0.35633">
        <ele>53.4</ele>
        <time>2020-05-31T09:07:52Z</time>
      </trkpt>
      <trkpt lat="46.36968" lon="-0.35638">
        <ele>53.5</ele>
        <time>2020-05-31T09:07:53Z</time>
      </trkpt>
      <trkpt lat="46.36966" lon="-0.35642">
        <ele>53.6</ele>
        <time>2020-05-31T09:07:54Z</time>
      </trkpt>
      <trkpt lat="46.36962" lon="-0.35646">
        <ele>53.7</ele>
        <time>2020-05-31T09:07:55Z</time>
      </trkpt>
      <trkpt lat="46.36957" lon="-0.35651">
        <ele>53.8</ele>
        <time>2020-05-31T09:07:56Z</time>
      </trkpt>
      <trkpt lat="46.36953" lon="-0.35654">
        <ele>53.8</ele>
        <time>2020-05-31T09:07:57Z</time>
      </trkpt>
      <trkpt lat="46.36949" lon="-0.35658">
        <ele>53.9</ele>
        <time>2020-05-31T09:07:58Z</time>
      </trkpt>
      <trkpt lat="46.36945" lon="-0.35662">
        <ele>53.9</ele>
        <time>2020-05-31T09:07:59Z</time>
      </trkpt>
      <trkpt lat="46.36942" lon="-0.35668">
        <ele>54</ele>
        <time>2020-05-31T09:08:00Z</time>
      </trkpt>
      <trkpt lat="46.36938" lon="-0.35674">
        <ele>54</ele>
        <time>2020-05-31T09:08:01Z</time>
      </trkpt>
      <trkpt lat="46.36933" lon="-0.35678">
        <ele>54.1</ele>
        <time>2020-05-31T09:08:02Z</time>
      </trkpt>
      <trkpt lat="46.36929" lon="-0.35683">
        <ele>54.1</ele>
        <time>2020-05-31T09:08:03Z</time>
      </trkpt>
      <trkpt lat="46.36925" lon="-0.35686">
        <ele>54.1</ele>
        <time>2020-05-31T09:08:04Z</time>
      </trkpt>
      <trkpt lat="46.3692" lon="-0.35691">
        <ele>54.2</ele>
        <time>2020-05-31T09:08:05Z</time>
      </trkpt>
      <trkpt lat="46.36916" lon="-0.35695">
        <ele>54.2</ele>
        <time>2020-05-31T09:08:06Z</time>
      </trkpt>
      <trkpt lat="46.36912" lon="-0.35696">
        <ele>54.2</ele>
        <time>2020-05-31T09:08:07Z</time>
      </trkpt>
      <trkpt lat="46.36908" lon="-0.35698">
        <ele>54.2</ele>
        <time>2020-05-31T09:08:08Z</time>
      </trkpt>
      <trkpt lat="46.36904" lon="-0.35701">
        <ele>54.2</ele>
        <time>2020-05-31T09:08:09Z</time>
      </trkpt>
      <trkpt lat="46.369" lon="-0.35704">
        <ele>54.2</ele>
        <time>2020-05-31T09:08:10Z</time>
      </trkpt>
      <trkpt lat="46.36896" lon="-0.35708">
        <ele>54.2</ele>
        <time>2020-05-31T09:08:11Z</time>
      </trkpt>
      <trkpt lat="46.36891" lon="-0.35712">
        <ele>54.2</ele>
        <time>2020-05-31T09:08:12Z</time>
      </trkpt>
      <trkpt lat="46.36888" lon="-0.35715">
        <ele>54.2</ele>
        <time>2020-05-31T09:08:13Z</time>
      </trkpt>
      <trkpt lat="46.36885" lon="-0.35718">
        <ele>54.2</ele>
        <time>2020-05-31T09:08:14Z</time>
      </trkpt>
      <trkpt lat="46.36882" lon="-0.35721">
        <ele>54.2</ele>
        <time>2020-05-31T09:08:15Z</time>
      </trkpt>
      <trkpt lat="46.36878" lon="-0.35724">
        <ele>54.2</ele>
        <time>2020-05-31T09:08:16Z</time>
      </trkpt>
      <trkpt lat="46.36875" lon="-0.35728">
        <ele>54.2</ele>
        <time>2020-05-31T09:08:17Z</time>
      </trkpt>
      <trkpt lat="46.36872" lon="-0.35731">
        <ele>54.3</ele>
        <time>2020-05-31T09:08:18Z</time>
      </trkpt>
      <trkpt lat="46.36867" lon="-0.35734">
        <ele>54.3</ele>
        <time>2020-05-31T09:08:19Z</time>
      </trkpt>
      <trkpt lat="46.36863" lon="-0.35739">
        <ele>54.3</ele>
        <time>2020-05-31T09:08:20Z</time>
      </trkpt>
      <trkpt lat="46.36859" lon="-0.35744">
        <ele>54.3</ele>
        <time>2020-05-31T09:08:21Z</time>
      </trkpt>
      <trkpt lat="46.36855" lon="-0.35748">
        <ele>54.4</ele>
        <time>2020-05-31T09:08:22Z</time>
      </trkpt>
      <trkpt lat="46.3685" lon="-0.35752">
        <ele>54.4</ele>
        <time>2020-05-31T09:08:23Z</time>
      </trkpt>
      <trkpt lat="46.36845" lon="-0.35756">
        <ele>54.4</ele>
        <time>2020-05-31T09:08:24Z</time>
      </trkpt>
      <trkpt lat="46.36841" lon="-0.35761">
        <ele>54.4</ele>
        <time>2020-05-31T09:08:25Z</time>
      </trkpt>
      <trkpt lat="46.36837" lon="-0.35765">
        <ele>54.4</ele>
        <time>2020-05-31T09:08:26Z</time>
      </trkpt>
      <trkpt lat="46.36833" lon="-0.35768">
        <ele>54.5</ele>
        <time>2020-05-31T09:08:27Z</time>
      </trkpt>
      <trkpt lat="46.36829" lon="-0.35772">
        <ele>54.5</ele>
        <time>2020-05-31T09:08:28Z</time>
      </trkpt>
      <trkpt lat="46.36824" lon="-0.35775">
        <ele>54.5</ele>
        <time>2020-05-31T09:08:29Z</time>
      </trkpt>
      <trkpt lat="46.36819" lon="-0.35778">
        <ele>54.5</ele>
        <time>2020-05-31T09:08:30Z</time>
      </trkpt>
      <trkpt lat="46.36814" lon="-0.35782">
        <ele>54.5</ele>
        <time>2020-05-31T09:08:31Z</time>
      </trkpt>
      <trkpt lat="46.36809" lon="-0.35787">
        <ele>54.6</ele>
        <time>2020-05-31T09:08:32Z</time>
      </trkpt>
      <trkpt lat="46.36805" lon="-0.35788">
        <ele>54.6</ele>
        <time>2020-05-31T09:08:33Z</time>
      </trkpt>
      <trkpt lat="46.368" lon="-0.35793">
        <ele>54.6</ele>
        <time>2020-05-31T09:08:34Z</time>
      </trkpt>
      <trkpt lat="46.36794" lon="-0.35798">
        <ele>54.7</ele>
        <time>2020-05-31T09:08:35Z</time>
      </trkpt>
      <trkpt lat="46.36788" lon="-0.35802">
        <ele>54.8</ele>
        <time>2020-05-31T09:08:36Z</time>
      </trkpt>
      <trkpt lat="46.36783" lon="-0.35806">
        <ele>54.9</ele>
        <time>2020-05-31T09:08:37Z</time>
      </trkpt>
      <trkpt lat="46.36777" lon="-0.3581">
        <ele>55</ele>
        <time>2020-05-31T09:08:38Z</time>
      </trkpt>
      <trkpt lat="46.36773" lon="-0.35814">
        <ele>55.2</ele>
        <time>2020-05-31T09:08:39Z</time>
      </trkpt>
      <trkpt lat="46.36768" lon="-0.35818">
        <ele>55.3</ele>
        <time>2020-05-31T09:08:40Z</time>
      </trkpt>
      <trkpt lat="46.36763" lon="-0.35822">
        <ele>55.4</ele>
        <time>2020-05-31T09:08:41Z</time>
      </trkpt>
      <trkpt lat="46.36758" lon="-0.35826">
        <ele>55.6</ele>
        <time>2020-05-31T09:08:42Z</time>
      </trkpt>
      <trkpt lat="46.36753" lon="-0.35829">
        <ele>55.7</ele>
        <time>2020-05-31T09:08:43Z</time>
      </trkpt>
      <trkpt lat="46.36749" lon="-0.35833">
        <ele>55.8</ele>
        <time>2020-05-31T09:08:44Z</time>
      </trkpt>
      <trkpt lat="46.36744" lon="-0.35836">
        <ele>55.9</ele>
        <time>2020-05-31T09:08:45Z</time>
      </trkpt>
      <trkpt lat="46.36739" lon="-0.35838">
        <ele>56</ele>
        <time>2020-05-31T09:08:46Z</time>
      </trkpt>
      <trkpt lat="46.36735" lon="-0.35841">
        <ele>56.2</ele>
        <time>2020-05-31T09:08:47Z</time>
      </trkpt>
      <trkpt lat="46.3673" lon="-0.35843">
        <ele>56.3</ele>
        <time>2020-05-31T09:08:48Z</time>
      </trkpt>
      <trkpt lat="46.36725" lon="-0.35846">
        <ele>56.4</ele>
        <time>2020-05-31T09:08:49Z</time>
      </trkpt>
      <trkpt lat="46.3672" lon="-0.35849">
        <ele>56.5</ele>
        <time>2020-05-31T09:08:50Z</time>
      </trkpt>
      <trkpt lat="46.36715" lon="-0.35853">
        <ele>56.6</ele>
        <time>2020-05-31T09:08:51Z</time>
      </trkpt>
      <trkpt lat="46.3671" lon="-0.35858">
        <ele>56.7</ele>
        <time>2020-05-31T09:08:52Z</time>
      </trkpt>
      <trkpt lat="46.36705" lon="-0.3586">
        <ele>56.8</ele>
        <time>2020-05-31T09:08:53Z</time>
      </trkpt>
      <trkpt lat="46.36701" lon="-0.35863">
        <ele>56.8</ele>
        <time>2020-05-31T09:08:54Z</time>
      </trkpt>
      <trkpt lat="46.36698" lon="-0.35866">
        <ele>56.9</ele>
        <time>2020-05-31T09:08:55Z</time>
      </trkpt>
      <trkpt lat="46.36695" lon="-0.35868">
        <ele>56.9</ele>
        <time>2020-05-31T09:08:56Z</time>
      </trkpt>
      <trkpt lat="46.3669" lon="-0.35872">
        <ele>57</ele>
        <time>2020-05-31T09:08:57Z</time>
      </trkpt>
      <trkpt lat="46.36686" lon="-0.35875">
        <ele>57</ele>
        <time>2020-05-31T09:08:58Z</time>
      </trkpt>
      <trkpt lat="46.36682" lon="-0.35878">
        <ele>57</ele>
        <time>2020-05-31T09:08:59Z</time>
      </trkpt>
      <trkpt lat="46.36677" lon="-0.35882">
        <ele>57</ele>
        <time>2020-05-31T09:09:00Z</time>
      </trkpt>
      <trkpt lat="46.36673" lon="-0.35884">
        <ele>57</ele>
        <time>2020-05-31T09:09:01Z</time>
      </trkpt>
      <trkpt lat="46.36669" lon="-0.35888">
        <ele>57</ele>
        <time>2020-05-31T09:09:02Z</time>
      </trkpt>
      <trkpt lat="46.36664" lon="-0.35891">
        <ele>57</ele>
        <time>2020-05-31T09:09:03Z</time>
      </trkpt>
      <trkpt lat="46.36658" lon="-0.35893">
        <ele>56.9</ele>
        <time>2020-05-31T09:09:04Z</time>
      </trkpt>
      <trkpt lat="46.36653" lon="-0.35896">
        <ele>56.9</ele>
        <time>2020-05-31T09:09:05Z</time>
      </trkpt>
      <trkpt lat="46.36648" lon="-0.359">
        <ele>56.9</ele>
        <time>2020-05-31T09:09:06Z</time>
      </trkpt>
      <trkpt lat="46.36643" lon="-0.35904">
        <ele>56.8</ele>
        <time>2020-05-31T09:09:07Z</time>
      </trkpt>
      <trkpt lat="46.36638" lon="-0.35907">
        <ele>56.8</ele>
        <time>2020-05-31T09:09:08Z</time>
      </trkpt>
      <trkpt lat="46.36634" lon="-0.3591">
        <ele>56.8</ele>
        <time>2020-05-31T09:09:09Z</time>
      </trkpt>
      <trkpt lat="46.36629" lon="-0.35913">
        <ele>56.7</ele>
        <time>2020-05-31T09:09:10Z</time>
      </trkpt>
      <trkpt lat="46.36625" lon="-0.35916">
        <ele>56.7</ele>
        <time>2020-05-31T09:09:11Z</time>
      </trkpt>
      <trkpt lat="46.36622" lon="-0.3592">
        <ele>56.7</ele>
        <time>2020-05-31T09:09:12Z</time>
      </trkpt>
      <trkpt lat="46.36618" lon="-0.35925">
        <ele>56.6</ele>
        <time>2020-05-31T09:09:13Z</time>
      </trkpt>
      <trkpt lat="46.36613" lon="-0.3593">
        <ele>56.6</ele>
        <time>2020-05-31T09:09:14Z</time>
      </trkpt>
      <trkpt lat="46.36609" lon="-0.35934">
        <ele>56.5</ele>
        <time>2020-05-31T09:09:15Z</time>
      </trkpt>
      <trkpt lat="46.36605" lon="-0.35938">
        <ele>56.5</ele>
        <time>2020-05-31T09:09:16Z</time>
      </trkpt>
      <trkpt lat="46.36601" lon="-0.35944">
        <ele>56.5</ele>
        <time>2020-05-31T09:09:17Z</time>
      </trkpt>
      <trkpt lat="46.36596" lon="-0.35949">
        <ele>56.5</ele>
        <time>2020-05-31T09:09:18Z</time>
      </trkpt>
      <trkpt lat="46.36592" lon="-0.35953">
        <ele>56.5</ele>
        <time>2020-05-31T09:09:19Z</time>
      </trkpt>
      <trkpt lat="46.36588" lon="-0.35958">
        <ele>56.4</ele>
        <time>2020-05-31T09:09:20Z</time>
      </trkpt>
      <trkpt lat="46.36583" lon="-0.35961">
        <ele>56.4</ele>
        <time>2020-05-31T09:09:21Z</time>
      </trkpt>
      <trkpt lat="46.3658" lon="-0.35966">
        <ele>56.4</ele>
        <time>2020-05-31T09:09:22Z</time>
      </trkpt>
      <trkpt lat="46.36575" lon="-0.35971">
        <ele>56.4</ele>
        <time>2020-05-31T09:09:23Z</time>
      </trkpt>
      <trkpt lat="46.36571" lon="-0.35975">
        <ele>56.4</ele>
        <time>2020-05-31T09:09:24Z</time>
      </trkpt>
      <trkpt lat="46.36568" lon="-0.35981">
        <ele>56.4</ele>
        <time>2020-05-31T09:09:25Z</time>
      </trkpt>
      <trkpt lat="46.36564" lon="-0.35987">
        <ele>56.4</ele>
        <time>2020-05-31T09:09:26Z</time>
      </trkpt>
      <trkpt lat="46.3656" lon="-0.35993">
        <ele>56.4</ele>
        <time>2020-05-31T09:09:27Z</time>
      </trkpt>
      <trkpt lat="46.36557" lon="-0.35998">
        <ele>56.4</ele>
        <time>2020-05-31T09:09:28Z</time>
      </trkpt>
      <trkpt lat="46.36553" lon="-0.36002">
        <ele>56.4</ele>
        <time>2020-05-31T09:09:29Z</time>
      </trkpt>
      <trkpt lat="46.3655" lon="-0.36008">
        <ele>56.5</ele>
        <time>2020-05-31T09:09:30Z</time>
      </trkpt>
      <trkpt lat="46.36546" lon="-0.36012">
        <ele>56.5</ele>
        <time>2020-05-31T09:09:31Z</time>
      </trkpt>
      <trkpt lat="46.36543" lon="-0.36017">
        <ele>56.5</ele>
        <time>2020-05-31T09:09:32Z</time>
      </trkpt>
      <trkpt lat="46.3654" lon="-0.36023">
        <ele>56.5</ele>
        <time>2020-05-31T09:09:33Z</time>
      </trkpt>
      <trkpt lat="46.36535" lon="-0.36028">
        <ele>56.5</ele>
        <time>2020-05-31T09:09:34Z</time>
      </trkpt>
      <trkpt lat="46.36531" lon="-0.36034">
        <ele>56.5</ele>
        <time>2020-05-31T09:09:35Z</time>
      </trkpt>
      <trkpt lat="46.36527" lon="-0.36039">
        <ele>56.5</ele>
        <time>2020-05-31T09:09:36Z</time>
      </trkpt>
      <trkpt lat="46.36522" lon="-0.36045">
        <ele>56.5</ele>
        <time>2020-05-31T09:09:37Z</time>
      </trkpt>
      <trkpt lat="46.36518" lon="-0.36049">
        <ele>56.5</ele>
        <time>2020-05-31T09:09:38Z</time>
      </trkpt>
      <trkpt lat="46.36514" lon="-0.36055">
        <ele>56.5</ele>
        <time>2020-05-31T09:09:39Z</time>
      </trkpt>
      <trkpt lat="46.36511" lon="-0.36061">
        <ele>56.5</ele>
        <time>2020-05-31T09:09:40Z</time>
      </trkpt>
      <trkpt lat="46.36508" lon="-0.36065">
        <ele>56.6</ele>
        <time>2020-05-31T09:09:41Z</time>
      </trkpt>
      <trkpt lat="46.36505" lon="-0.3607">
        <ele>56.6</ele>
        <time>2020-05-31T09:09:42Z</time>
      </trkpt>
      <trkpt lat="46.36501" lon="-0.36076">
        <ele>56.6</ele>
        <time>2020-05-31T09:09:43Z</time>
      </trkpt>
      <trkpt lat="46.36498" lon="-0.36082">
        <ele>56.6</ele>
        <time>2020-05-31T09:09:44Z</time>
      </trkpt>
      <trkpt lat="46.36495" lon="-0.36089">
        <ele>56.6</ele>
        <time>2020-05-31T09:09:45Z</time>
      </trkpt>
      <trkpt lat="46.36492" lon="-0.36096">
        <ele>56.6</ele>
        <time>2020-05-31T09:09:46Z</time>
      </trkpt>
      <trkpt lat="46.3649" lon="-0.36103">
        <ele>56.6</ele>
        <time>2020-05-31T09:09:47Z</time>
      </trkpt>
      <trkpt lat="46.36487" lon="-0.3611">
        <ele>56.6</ele>
        <time>2020-05-31T09:09:48Z</time>
      </trkpt>
      <trkpt lat="46.36484" lon="-0.36116">
        <ele>56.7</ele>
        <time>2020-05-31T09:09:49Z</time>
      </trkpt>
      <trkpt lat="46.36481" lon="-0.36123">
        <ele>56.7</ele>
        <time>2020-05-31T09:09:50Z</time>
      </trkpt>
      <trkpt lat="46.36477" lon="-0.36129">
        <ele>56.7</ele>
        <time>2020-05-31T09:09:51Z</time>
      </trkpt>
      <trkpt lat="46.36474" lon="-0.36134">
        <ele>56.7</ele>
        <time>2020-05-31T09:09:52Z</time>
      </trkpt>
      <trkpt lat="46.36472" lon="-0.3614">
        <ele>56.7</ele>
        <time>2020-05-31T09:09:53Z</time>
      </trkpt>
      <trkpt lat="46.36469" lon="-0.36146">
        <ele>56.7</ele>
        <time>2020-05-31T09:09:54Z</time>
      </trkpt>
      <trkpt lat="46.36466" lon="-0.36153">
        <ele>56.7</ele>
        <time>2020-05-31T09:09:55Z</time>
      </trkpt>
      <trkpt lat="46.36464" lon="-0.3616">
        <ele>56.7</ele>
        <time>2020-05-31T09:09:56Z</time>
      </trkpt>
      <trkpt lat="46.36461" lon="-0.36167">
        <ele>56.8</ele>
        <time>2020-05-31T09:09:57Z</time>
      </trkpt>
      <trkpt lat="46.36459" lon="-0.36173">
        <ele>56.9</ele>
        <time>2020-05-31T09:09:58Z</time>
      </trkpt>
      <trkpt lat="46.36458" lon="-0.3618">
        <ele>57</ele>
        <time>2020-05-31T09:09:59Z</time>
      </trkpt>
      <trkpt lat="46.36455" lon="-0.36187">
        <ele>57.2</ele>
        <time>2020-05-31T09:10:00Z</time>
      </trkpt>
      <trkpt lat="46.36453" lon="-0.36194">
        <ele>57.3</ele>
        <time>2020-05-31T09:10:01Z</time>
      </trkpt>
      <trkpt lat="46.36451" lon="-0.362">
        <ele>57.4</ele>
        <time>2020-05-31T09:10:02Z</time>
      </trkpt>
      <trkpt lat="46.36448" lon="-0.36207">
        <ele>57.5</ele>
        <time>2020-05-31T09:10:03Z</time>
      </trkpt>
      <trkpt lat="46.36445" lon="-0.36213">
        <ele>57.5</ele>
        <time>2020-05-31T09:10:04Z</time>
      </trkpt>
      <trkpt lat="46.36443" lon="-0.3622">
        <ele>57.6</ele>
        <time>2020-05-31T09:10:05Z</time>
      </trkpt>
      <trkpt lat="46.3644" lon="-0.36226">
        <ele>57.6</ele>
        <time>2020-05-31T09:10:06Z</time>
      </trkpt>
      <trkpt lat="46.36439" lon="-0.36232">
        <ele>57.6</ele>
        <time>2020-05-31T09:10:07Z</time>
      </trkpt>
      <trkpt lat="46.36436" lon="-0.36237">
        <ele>57.6</ele>
        <time>2020-05-31T09:10:08Z</time>
      </trkpt>
      <trkpt lat="46.36434" lon="-0.36243">
        <ele>57.6</ele>
        <time>2020-05-31T09:10:09Z</time>
      </trkpt>
      <trkpt lat="46.36432" lon="-0.3625">
        <ele>57.6</ele>
        <time>2020-05-31T09:10:10Z</time>
      </trkpt>
      <trkpt lat="46.3643" lon="-0.36256">
        <ele>57.7</ele>
        <time>2020-05-31T09:10:11Z</time>
      </trkpt>
      <trkpt lat="46.36428" lon="-0.36263">
        <ele>57.8</ele>
        <time>2020-05-31T09:10:12Z</time>
      </trkpt>
      <trkpt lat="46.36426" lon="-0.3627">
        <ele>57.9</ele>
        <time>2020-05-31T09:10:13Z</time>
      </trkpt>
      <trkpt lat="46.36425" lon="-0.36276">
        <ele>57.9</ele>
        <time>2020-05-31T09:10:14Z</time>
      </trkpt>
      <trkpt lat="46.36423" lon="-0.36283">
        <ele>58</ele>
        <time>2020-05-31T09:10:15Z</time>
      </trkpt>
      <trkpt lat="46.36422" lon="-0.36291">
        <ele>58.1</ele>
        <time>2020-05-31T09:10:16Z</time>
      </trkpt>
      <trkpt lat="46.3642" lon="-0.36298">
        <ele>58.2</ele>
        <time>2020-05-31T09:10:17Z</time>
      </trkpt>
      <trkpt lat="46.36418" lon="-0.36305">
        <ele>58.3</ele>
        <time>2020-05-31T09:10:18Z</time>
      </trkpt>
      <trkpt lat="46.36416" lon="-0.36312">
        <ele>58.3</ele>
        <time>2020-05-31T09:10:19Z</time>
      </trkpt>
      <trkpt lat="46.36415" lon="-0.36318">
        <ele>58.4</ele>
        <time>2020-05-31T09:10:20Z</time>
      </trkpt>
      <trkpt lat="46.36414" lon="-0.36325">
        <ele>58.4</ele>
        <time>2020-05-31T09:10:21Z</time>
      </trkpt>
      <trkpt lat="46.36412" lon="-0.36333">
        <ele>58.5</ele>
        <time>2020-05-31T09:10:22Z</time>
      </trkpt>
      <trkpt lat="46.36411" lon="-0.3634">
        <ele>58.5</ele>
        <time>2020-05-31T09:10:23Z</time>
      </trkpt>
      <trkpt lat="46.36409" lon="-0.36347">
        <ele>58.6</ele>
        <time>2020-05-31T09:10:24Z</time>
      </trkpt>
      <trkpt lat="46.36407" lon="-0.36353">
        <ele>58.6</ele>
        <time>2020-05-31T09:10:25Z</time>
      </trkpt>
      <trkpt lat="46.36406" lon="-0.36359">
        <ele>58.7</ele>
        <time>2020-05-31T09:10:26Z</time>
      </trkpt>
      <trkpt lat="46.36404" lon="-0.36366">
        <ele>58.7</ele>
        <time>2020-05-31T09:10:27Z</time>
      </trkpt>
      <trkpt lat="46.36403" lon="-0.36372">
        <ele>58.8</ele>
        <time>2020-05-31T09:10:28Z</time>
      </trkpt>
      <trkpt lat="46.36402" lon="-0.36379">
        <ele>58.8</ele>
        <time>2020-05-31T09:10:29Z</time>
      </trkpt>
      <trkpt lat="46.36401" lon="-0.36388">
        <ele>58.8</ele>
        <time>2020-05-31T09:10:30Z</time>
      </trkpt>
      <trkpt lat="46.364" lon="-0.36394">
        <ele>58.8</ele>
        <time>2020-05-31T09:10:31Z</time>
      </trkpt>
      <trkpt lat="46.36399" lon="-0.36401">
        <ele>58.8</ele>
        <time>2020-05-31T09:10:32Z</time>
      </trkpt>
      <trkpt lat="46.36397" lon="-0.36409">
        <ele>58.8</ele>
        <time>2020-05-31T09:10:33Z</time>
      </trkpt>
      <trkpt lat="46.36396" lon="-0.36417">
        <ele>58.7</ele>
        <time>2020-05-31T09:10:34Z</time>
      </trkpt>
      <trkpt lat="46.36395" lon="-0.36425">
        <ele>58.7</ele>
        <time>2020-05-31T09:10:35Z</time>
      </trkpt>
      <trkpt lat="46.36394" lon="-0.36433">
        <ele>58.6</ele>
        <time>2020-05-31T09:10:36Z</time>
      </trkpt>
      <trkpt lat="46.36391" lon="-0.36441">
        <ele>58.5</ele>
        <time>2020-05-31T09:10:37Z</time>
      </trkpt>
      <trkpt lat="46.36388" lon="-0.36449">
        <ele>58.4</ele>
        <time>2020-05-31T09:10:38Z</time>
      </trkpt>
      <trkpt lat="46.36385" lon="-0.36458">
        <ele>58.3</ele>
        <time>2020-05-31T09:10:39Z</time>
      </trkpt>
      <trkpt lat="46.36382" lon="-0.36466">
        <ele>58.2</ele>
        <time>2020-05-31T09:10:40Z</time>
      </trkpt>
      <trkpt lat="46.36379" lon="-0.36477">
        <ele>58</ele>
        <time>2020-05-31T09:10:41Z</time>
      </trkpt>
      <trkpt lat="46.36375" lon="-0.36488">
        <ele>57.8</ele>
        <time>2020-05-31T09:10:42Z</time>
      </trkpt>
      <trkpt lat="46.36371" lon="-0.36497">
        <ele>57.6</ele>
        <time>2020-05-31T09:10:43Z</time>
      </trkpt>
      <trkpt lat="46.36366" lon="-0.36508">
        <ele>57.4</ele>
        <time>2020-05-31T09:10:44Z</time>
      </trkpt>
      <trkpt lat="46.3636" lon="-0.3652">
        <ele>57.1</ele>
        <time>2020-05-31T09:10:45Z</time>
      </trkpt>
      <trkpt lat="46.36354" lon="-0.36532">
        <ele>57</ele>
        <time>2020-05-31T09:10:46Z</time>
      </trkpt>
      <trkpt lat="46.36348" lon="-0.36543">
        <ele>57</ele>
        <time>2020-05-31T09:10:47Z</time>
      </trkpt>
      <trkpt lat="46.36341" lon="-0.36554">
        <ele>57.1</ele>
        <time>2020-05-31T09:10:48Z</time>
      </trkpt>
      <trkpt lat="46.36335" lon="-0.36564">
        <ele>57.2</ele>
        <time>2020-05-31T09:10:49Z</time>
      </trkpt>
      <trkpt lat="46.36329" lon="-0.36575">
        <ele>57.4</ele>
        <time>2020-05-31T09:10:50Z</time>
      </trkpt>
      <trkpt lat="46.36322" lon="-0.36584">
        <ele>57.6</ele>
        <time>2020-05-31T09:10:51Z</time>
      </trkpt>
      <trkpt lat="46.36316" lon="-0.36594">
        <ele>57.8</ele>
        <time>2020-05-31T09:10:52Z</time>
      </trkpt>
      <trkpt lat="46.3631" lon="-0.36605">
        <ele>57.9</ele>
        <time>2020-05-31T09:10:53Z</time>
      </trkpt>
      <trkpt lat="46.36305" lon="-0.36615">
        <ele>58</ele>
        <time>2020-05-31T09:10:54Z</time>
      </trkpt>
      <trkpt lat="46.36301" lon="-0.36626">
        <ele>58.2</ele>
        <time>2020-05-31T09:10:55Z</time>
      </trkpt>
      <trkpt lat="46.36298" lon="-0.36637">
        <ele>58.4</ele>
        <time>2020-05-31T09:10:56Z</time>
      </trkpt>
      <trkpt lat="46.36294" lon="-0.36648">
        <ele>58.7</ele>
        <time>2020-05-31T09:10:57Z</time>
      </trkpt>
      <trkpt lat="46.3629" lon="-0.36658">
        <ele>58.9</ele>
        <time>2020-05-31T09:10:58Z</time>
      </trkpt>
      <trkpt lat="46.36287" lon="-0.36669">
        <ele>59.1</ele>
        <time>2020-05-31T09:10:59Z</time>
      </trkpt>
      <trkpt lat="46.36283" lon="-0.36679">
        <ele>59.3</ele>
        <time>2020-05-31T09:11:00Z</time>
      </trkpt>
      <trkpt lat="46.3628" lon="-0.3669">
        <ele>59.5</ele>
        <time>2020-05-31T09:11:01Z</time>
      </trkpt>
      <trkpt lat="46.36276" lon="-0.36699">
        <ele>59.7</ele>
        <time>2020-05-31T09:11:02Z</time>
      </trkpt>
      <trkpt lat="46.36272" lon="-0.36709">
        <ele>60</ele>
        <time>2020-05-31T09:11:03Z</time>
      </trkpt>
      <trkpt lat="46.36269" lon="-0.36718">
        <ele>60.3</ele>
        <time>2020-05-31T09:11:04Z</time>
      </trkpt>
      <trkpt lat="46.36266" lon="-0.36728">
        <ele>60.6</ele>
        <time>2020-05-31T09:11:05Z</time>
      </trkpt>
      <trkpt lat="46.36262" lon="-0.36738">
        <ele>60.9</ele>
        <time>2020-05-31T09:11:06Z</time>
      </trkpt>
      <trkpt lat="46.36259" lon="-0.36749">
        <ele>61.1</ele>
        <time>2020-05-31T09:11:07Z</time>
      </trkpt>
      <trkpt lat="46.36256" lon="-0.36759">
        <ele>61.4</ele>
        <time>2020-05-31T09:11:08Z</time>
      </trkpt>
      <trkpt lat="46.36254" lon="-0.36769">
        <ele>61.6</ele>
        <time>2020-05-31T09:11:09Z</time>
      </trkpt>
      <trkpt lat="46.36252" lon="-0.3678">
        <ele>61.9</ele>
        <time>2020-05-31T09:11:10Z</time>
      </trkpt>
      <trkpt lat="46.3625" lon="-0.3679">
        <ele>62</ele>
        <time>2020-05-31T09:11:11Z</time>
      </trkpt>
      <trkpt lat="46.36249" lon="-0.368">
        <ele>62.1</ele>
        <time>2020-05-31T09:11:12Z</time>
      </trkpt>
      <trkpt lat="46.36247" lon="-0.3681">
        <ele>62.3</ele>
        <time>2020-05-31T09:11:13Z</time>
      </trkpt>
      <trkpt lat="46.36246" lon="-0.3682">
        <ele>62.5</ele>
        <time>2020-05-31T09:11:14Z</time>
      </trkpt>
      <trkpt lat="46.36246" lon="-0.36829">
        <ele>62.7</ele>
        <time>2020-05-31T09:11:15Z</time>
      </trkpt>
      <trkpt lat="46.36246" lon="-0.36839">
        <ele>62.9</ele>
        <time>2020-05-31T09:11:16Z</time>
      </trkpt>
      <trkpt lat="46.36246" lon="-0.36848">
        <ele>63.2</ele>
        <time>2020-05-31T09:11:17Z</time>
      </trkpt>
      <trkpt lat="46.36245" lon="-0.36858">
        <ele>63.4</ele>
        <time>2020-05-31T09:11:18Z</time>
      </trkpt>
      <trkpt lat="46.36246" lon="-0.36867">
        <ele>63.6</ele>
        <time>2020-05-31T09:11:19Z</time>
      </trkpt>
      <trkpt lat="46.36245" lon="-0.36876">
        <ele>63.8</ele>
        <time>2020-05-31T09:11:20Z</time>
      </trkpt>
      <trkpt lat="46.36246" lon="-0.36885">
        <ele>64</ele>
        <time>2020-05-31T09:11:21Z</time>
      </trkpt>
      <trkpt lat="46.36246" lon="-0.36893">
        <ele>64.2</ele>
        <time>2020-05-31T09:11:22Z</time>
      </trkpt>
      <trkpt lat="46.36245" lon="-0.36901">
        <ele>64.3</ele>
        <time>2020-05-31T09:11:23Z</time>
      </trkpt>
      <trkpt lat="46.36246" lon="-0.3691">
        <ele>64.6</ele>
        <time>2020-05-31T09:11:24Z</time>
      </trkpt>
      <trkpt lat="46.36245" lon="-0.36918">
        <ele>64.7</ele>
        <time>2020-05-31T09:11:25Z</time>
      </trkpt>
      <trkpt lat="46.36244" lon="-0.36925">
        <ele>64.9</ele>
        <time>2020-05-31T09:11:26Z</time>
      </trkpt>
      <trkpt lat="46.36243" lon="-0.36933">
        <ele>65</ele>
        <time>2020-05-31T09:11:27Z</time>
      </trkpt>
      <trkpt lat="46.36243" lon="-0.36941">
        <ele>65.2</ele>
        <time>2020-05-31T09:11:28Z</time>
      </trkpt>
      <trkpt lat="46.36241" lon="-0.36948">
        <ele>65.4</ele>
        <time>2020-05-31T09:11:29Z</time>
      </trkpt>
      <trkpt lat="46.3624" lon="-0.36955">
        <ele>65.6</ele>
        <time>2020-05-31T09:11:30Z</time>
      </trkpt>
      <trkpt lat="46.36239" lon="-0.36962">
        <ele>65.7</ele>
        <time>2020-05-31T09:11:31Z</time>
      </trkpt>
      <trkpt lat="46.36237" lon="-0.36969">
        <ele>65.9</ele>
        <time>2020-05-31T09:11:32Z</time>
      </trkpt>
      <trkpt lat="46.36236" lon="-0.36977">
        <ele>66.1</ele>
        <time>2020-05-31T09:11:33Z</time>
      </trkpt>
      <trkpt lat="46.36236" lon="-0.36984">
        <ele>66.3</ele>
        <time>2020-05-31T09:11:34Z</time>
      </trkpt>
      <trkpt lat="46.36236" lon="-0.36989">
        <ele>66.4</ele>
        <time>2020-05-31T09:11:35Z</time>
      </trkpt>
      <trkpt lat="46.36234" lon="-0.36997">
        <ele>66.6</ele>
        <time>2020-05-31T09:11:36Z</time>
      </trkpt>
      <trkpt lat="46.36232" lon="-0.37004">
        <ele>66.8</ele>
        <time>2020-05-31T09:11:37Z</time>
      </trkpt>
      <trkpt lat="46.36231" lon="-0.37008">
        <ele>67</ele>
        <time>2020-05-31T09:11:38Z</time>
      </trkpt>
      <trkpt lat="46.36228" lon="-0.37017">
        <ele>67.2</ele>
        <time>2020-05-31T09:11:39Z</time>
      </trkpt>
      <trkpt lat="46.36225" lon="-0.37024">
        <ele>67.4</ele>
        <time>2020-05-31T09:11:40Z</time>
      </trkpt>
      <trkpt lat="46.36223" lon="-0.3703">
        <ele>67.5</ele>
        <time>2020-05-31T09:11:41Z</time>
      </trkpt>
      <trkpt lat="46.36221" lon="-0.37036">
        <ele>67.7</ele>
        <time>2020-05-31T09:11:42Z</time>
      </trkpt>
      <trkpt lat="46.36219" lon="-0.37042">
        <ele>67.8</ele>
        <time>2020-05-31T09:11:43Z</time>
      </trkpt>
      <trkpt lat="46.36218" lon="-0.37049">
        <ele>68</ele>
        <time>2020-05-31T09:11:44Z</time>
      </trkpt>
      <trkpt lat="46.36216" lon="-0.37056">
        <ele>68.2</ele>
        <time>2020-05-31T09:11:45Z</time>
      </trkpt>
      <trkpt lat="46.36214" lon="-0.37063">
        <ele>68.4</ele>
        <time>2020-05-31T09:11:46Z</time>
      </trkpt>
      <trkpt lat="46.36213" lon="-0.3707">
        <ele>68.5</ele>
        <time>2020-05-31T09:11:47Z</time>
      </trkpt>
      <trkpt lat="46.36212" lon="-0.37076">
        <ele>68.7</ele>
        <time>2020-05-31T09:11:48Z</time>
      </trkpt>
      <trkpt lat="46.36211" lon="-0.37084">
        <ele>68.8</ele>
        <time>2020-05-31T09:11:49Z</time>
      </trkpt>
      <trkpt lat="46.3621" lon="-0.3709">
        <ele>69</ele>
        <time>2020-05-31T09:11:50Z</time>
      </trkpt>
      <trkpt lat="46.36208" lon="-0.37095">
        <ele>69.1</ele>
        <time>2020-05-31T09:11:51Z</time>
      </trkpt>
      <trkpt lat="46.36207" lon="-0.37101">
        <ele>69.2</ele>
        <time>2020-05-31T09:11:52Z</time>
      </trkpt>
      <trkpt lat="46.36206" lon="-0.37107">
        <ele>69.3</ele>
        <time>2020-05-31T09:11:53Z</time>
      </trkpt>
      <trkpt lat="46.36205" lon="-0.37113">
        <ele>69.5</ele>
        <time>2020-05-31T09:11:54Z</time>
      </trkpt>
      <trkpt lat="46.36204" lon="-0.37117">
        <ele>69.6</ele>
        <time>2020-05-31T09:11:55Z</time>
      </trkpt>
      <trkpt lat="46.36204" lon="-0.37123">
        <ele>69.8</ele>
        <time>2020-05-31T09:11:56Z</time>
      </trkpt>
      <trkpt lat="46.36204" lon="-0.3713">
        <ele>69.9</ele>
        <time>2020-05-31T09:11:57Z</time>
      </trkpt>
      <trkpt lat="46.36204" lon="-0.37136">
        <ele>70.1</ele>
        <time>2020-05-31T09:11:58Z</time>
      </trkpt>
      <trkpt lat="46.36204" lon="-0.3714">
        <ele>70.2</ele>
        <time>2020-05-31T09:11:59Z</time>
      </trkpt>
      <trkpt lat="46.36205" lon="-0.37145">
        <ele>70.3</ele>
        <time>2020-05-31T09:12:00Z</time>
      </trkpt>
      <trkpt lat="46.36206" lon="-0.37153">
        <ele>70.5</ele>
        <time>2020-05-31T09:12:01Z</time>
      </trkpt>
      <trkpt lat="46.36208" lon="-0.37161">
        <ele>70.4</ele>
        <time>2020-05-31T09:12:02Z</time>
      </trkpt>
      <trkpt lat="46.3621" lon="-0.37169">
        <ele>70.3</ele>
        <time>2020-05-31T09:12:03Z</time>
      </trkpt>
      <trkpt lat="46.3621" lon="-0.37176">
        <ele>70.3</ele>
        <time>2020-05-31T09:12:04Z</time>
      </trkpt>
      <trkpt lat="46.36209" lon="-0.37183">
        <ele>70.2</ele>
        <time>2020-05-31T09:12:05Z</time>
      </trkpt>
      <trkpt lat="46.36207" lon="-0.37188">
        <ele>70.2</ele>
        <time>2020-05-31T09:12:06Z</time>
      </trkpt>
      <trkpt lat="46.36204" lon="-0.37194">
        <ele>70.5</ele>
        <time>2020-05-31T09:12:07Z</time>
      </trkpt>
      <trkpt lat="46.362" lon="-0.37199">
        <ele>70.6</ele>
        <time>2020-05-31T09:12:08Z</time>
      </trkpt>
      <trkpt lat="46.36196" lon="-0.37205">
        <ele>70.7</ele>
        <time>2020-05-31T09:12:09Z</time>
      </trkpt>
      <trkpt lat="46.36191" lon="-0.37209">
        <ele>70.8</ele>
        <time>2020-05-31T09:12:10Z</time>
      </trkpt>
      <trkpt lat="46.36187" lon="-0.37213">
        <ele>70.9</ele>
        <time>2020-05-31T09:12:11Z</time>
      </trkpt>
      <trkpt lat="46.36182" lon="-0.37215">
        <ele>71</ele>
        <time>2020-05-31T09:12:12Z</time>
      </trkpt>
      <trkpt lat="46.36178" lon="-0.37217">
        <ele>71.1</ele>
        <time>2020-05-31T09:12:13Z</time>
      </trkpt>
      <trkpt lat="46.36175" lon="-0.37219">
        <ele>71.2</ele>
        <time>2020-05-31T09:12:14Z</time>
      </trkpt>
      <trkpt lat="46.36174" lon="-0.37219">
        <ele>71.2</ele>
        <time>2020-05-31T09:12:15Z</time>
      </trkpt>
      <trkpt lat="46.36174" lon="-0.37219">
        <ele>71.2</ele>
        <time>2020-05-31T09:12:16Z</time>
      </trkpt>
      <trkpt lat="46.36176" lon="-0.37219">
        <ele>71.3</ele>
        <time>2020-05-31T09:12:17Z</time>
      </trkpt>
      <trkpt lat="46.36176" lon="-0.37218">
        <ele>71.3</ele>
        <time>2020-05-31T09:12:18Z</time>
      </trkpt>
      <trkpt lat="46.36175" lon="-0.37218">
        <ele>71.3</ele>
        <time>2020-05-31T09:12:19Z</time>
      </trkpt>
      <trkpt lat="46.36175" lon="-0.37218">
        <ele>71.3</ele>
        <time>2020-05-31T09:12:20Z</time>
      </trkpt>
      <trkpt lat="46.36175" lon="-0.37218">
        <ele>71.3</ele>
        <time>2020-05-31T09:12:21Z</time>
      </trkpt>
      <trkpt lat="46.36175" lon="-0.37218">
        <ele>71.3</ele>
        <time>2020-05-31T09:12:22Z</time>
      </trkpt>
      <trkpt lat="46.36175" lon="-0.37218">
        <ele>71.3</ele>
        <time>2020-05-31T09:12:23Z</time>
      </trkpt>
      <trkpt lat="46.36175" lon="-0.37218">
        <ele>71.3</ele>
        <time>2020-05-31T09:12:24Z</time>
      </trkpt>
      <trkpt lat="46.36175" lon="-0.37217">
        <ele>71.3</ele>
        <time>2020-05-31T09:12:25Z</time>
      </trkpt>
      <trkpt lat="46.36175" lon="-0.37217">
        <ele>71.3</ele>
        <time>2020-05-31T09:12:26Z</time>
      </trkpt>
      <trkpt lat="46.36175" lon="-0.37217">
        <ele>71.3</ele>
        <time>2020-05-31T09:12:27Z</time>
      </trkpt>
      <trkpt lat="46.36175" lon="-0.37217">
        <ele>71.3</ele>
        <time>2020-05-31T09:12:28Z</time>
      </trkpt>
      <trkpt lat="46.36176" lon="-0.37217">
        <ele>71.3</ele>
        <time>2020-05-31T09:12:29Z</time>
      </trkpt>
      <trkpt lat="46.36176" lon="-0.37217">
        <ele>71.3</ele>
        <time>2020-05-31T09:12:30Z</time>
      </trkpt>
      <trkpt lat="46.36176" lon="-0.37217">
        <ele>71.4</ele>
        <time>2020-05-31T09:12:31Z</time>
      </trkpt>
      <trkpt lat="46.36176" lon="-0.37217">
        <ele>71.4</ele>
        <time>2020-05-31T09:12:32Z</time>
      </trkpt>
      <trkpt lat="46.36177" lon="-0.37217">
        <ele>71.4</ele>
        <time>2020-05-31T09:12:33Z</time>
      </trkpt>
      <trkpt lat="46.36177" lon="-0.37217">
        <ele>71.4</ele>
        <time>2020-05-31T09:12:34Z</time>
      </trkpt>
      <trkpt lat="46.36176" lon="-0.37217">
        <ele>71.4</ele>
        <time>2020-05-31T09:12:35Z</time>
      </trkpt>
      <trkpt lat="46.36176" lon="-0.37217">
        <ele>71.4</ele>
        <time>2020-05-31T09:12:36Z</time>
      </trkpt>
      <trkpt lat="46.36176" lon="-0.37217">
        <ele>71.4</ele>
        <time>2020-05-31T09:12:37Z</time>
      </trkpt>
      <trkpt lat="46.36175" lon="-0.37217">
        <ele>71.4</ele>
        <time>2020-05-31T09:12:38Z</time>
      </trkpt>
      <trkpt lat="46.36175" lon="-0.37218">
        <ele>71.4</ele>
        <time>2020-05-31T09:12:39Z</time>
      </trkpt>
      <trkpt lat="46.36175" lon="-0.37217">
        <ele>71.4</ele>
        <time>2020-05-31T09:12:40Z</time>
      </trkpt>
      <trkpt lat="46.36175" lon="-0.37218">
        <ele>71.4</ele>
        <time>2020-05-31T09:12:41Z</time>
      </trkpt>
      <trkpt lat="46.36174" lon="-0.37218">
        <ele>71.5</ele>
        <time>2020-05-31T09:12:42Z</time>
      </trkpt>
      <trkpt lat="46.36174" lon="-0.37219">
        <ele>71.5</ele>
        <time>2020-05-31T09:12:43Z</time>
      </trkpt>
      <trkpt lat="46.36174" lon="-0.37219">
        <ele>71.5</ele>
        <time>2020-05-31T09:12:44Z</time>
      </trkpt>
      <trkpt lat="46.36174" lon="-0.37219">
        <ele>71.5</ele>
        <time>2020-05-31T09:12:45Z</time>
      </trkpt>
      <trkpt lat="46.36174" lon="-0.37219">
        <ele>71.5</ele>
        <time>2020-05-31T09:12:46Z</time>
      </trkpt>
      <trkpt lat="46.36173" lon="-0.3722">
        <ele>71.5</ele>
        <time>2020-05-31T09:12:47Z</time>
      </trkpt>
      <trkpt lat="46.36173" lon="-0.3722">
        <ele>71.5</ele>
        <time>2020-05-31T09:12:48Z</time>
      </trkpt>
      <trkpt lat="46.36172" lon="-0.37221">
        <ele>71.5</ele>
        <time>2020-05-31T09:12:49Z</time>
      </trkpt>
      <trkpt lat="46.36172" lon="-0.37221">
        <ele>71.5</ele>
        <time>2020-05-31T09:12:50Z</time>
      </trkpt>
      <trkpt lat="46.36172" lon="-0.37221">
        <ele>71.5</ele>
        <time>2020-05-31T09:12:51Z</time>
      </trkpt>
      <trkpt lat="46.36172" lon="-0.37221">
        <ele>71.6</ele>
        <time>2020-05-31T09:12:52Z</time>
      </trkpt>
      <trkpt lat="46.36172" lon="-0.37221">
        <ele>71.6</ele>
        <time>2020-05-31T09:12:53Z</time>
      </trkpt>
      <trkpt lat="46.36172" lon="-0.37222">
        <ele>71.6</ele>
        <time>2020-05-31T09:12:54Z</time>
      </trkpt>
      <trkpt lat="46.36172" lon="-0.37221">
        <ele>71.6</ele>
        <time>2020-05-31T09:12:55Z</time>
      </trkpt>
      <trkpt lat="46.36172" lon="-0.37222">
        <ele>71.6</ele>
        <time>2020-05-31T09:12:56Z</time>
      </trkpt>
      <trkpt lat="46.36172" lon="-0.37222">
        <ele>71.6</ele>
        <time>2020-05-31T09:12:57Z</time>
      </trkpt>
      <trkpt lat="46.36171" lon="-0.37222">
        <ele>71.6</ele>
        <time>2020-05-31T09:12:58Z</time>
      </trkpt>
      <trkpt lat="46.36172" lon="-0.37221">
        <ele>71.6</ele>
        <time>2020-05-31T09:12:59Z</time>
      </trkpt>
      <trkpt lat="46.36172" lon="-0.37221">
        <ele>71.6</ele>
        <time>2020-05-31T09:13:00Z</time>
      </trkpt>
      <trkpt lat="46.36172" lon="-0.3722">
        <ele>71.6</ele>
        <time>2020-05-31T09:13:01Z</time>
      </trkpt>
      <trkpt lat="46.36173" lon="-0.3722">
        <ele>71.6</ele>
        <time>2020-05-31T09:13:02Z</time>
      </trkpt>
      <trkpt lat="46.36173" lon="-0.3722">
        <ele>71.6</ele>
        <time>2020-05-31T09:13:03Z</time>
      </trkpt>
      <trkpt lat="46.36173" lon="-0.3722">
        <ele>71.6</ele>
        <time>2020-05-31T09:13:04Z</time>
      </trkpt>
      <trkpt lat="46.36173" lon="-0.3722">
        <ele>71.6</ele>
        <time>2020-05-31T09:13:05Z</time>
      </trkpt>
      <trkpt lat="46.36173" lon="-0.3722">
        <ele>71.6</ele>
        <time>2020-05-31T09:13:06Z</time>
      </trkpt>
      <trkpt lat="46.36173" lon="-0.37219">
        <ele>71.7</ele>
        <time>2020-05-31T09:13:07Z</time>
      </trkpt>
      <trkpt lat="46.36173" lon="-0.37219">
        <ele>71.7</ele>
        <time>2020-05-31T09:13:08Z</time>
      </trkpt>
      <trkpt lat="46.36174" lon="-0.37218">
        <ele>71.7</ele>
        <time>2020-05-31T09:13:09Z</time>
      </trkpt>
      <trkpt lat="46.36174" lon="-0.37218">
        <ele>71.7</ele>
        <time>2020-05-31T09:13:10Z</time>
      </trkpt>
      <trkpt lat="46.36174" lon="-0.37218">
        <ele>71.7</ele>
        <time>2020-05-31T09:13:11Z</time>
      </trkpt>
      <trkpt lat="46.36174" lon="-0.37218">
        <ele>71.7</ele>
        <time>2020-05-31T09:13:12Z</time>
      </trkpt>
      <trkpt lat="46.36174" lon="-0.37218">
        <ele>71.7</ele>
        <time>2020-05-31T09:13:13Z</time>
      </trkpt>
      <trkpt lat="46.36173" lon="-0.37218">
        <ele>71.7</ele>
        <time>2020-05-31T09:13:14Z</time>
      </trkpt>
      <trkpt lat="46.36173" lon="-0.37219">
        <ele>71.7</ele>
        <time>2020-05-31T09:13:15Z</time>
      </trkpt>
      <trkpt lat="46.36173" lon="-0.3722">
        <ele>71.7</ele>
        <time>2020-05-31T09:13:16Z</time>
      </trkpt>
      <trkpt lat="46.36172" lon="-0.3722">
        <ele>71.7</ele>
        <time>2020-05-31T09:13:17Z</time>
      </trkpt>
      <trkpt lat="46.36172" lon="-0.37221">
        <ele>71.7</ele>
        <time>2020-05-31T09:13:18Z</time>
      </trkpt>
      <trkpt lat="46.36172" lon="-0.37221">
        <ele>71.7</ele>
        <time>2020-05-31T09:13:19Z</time>
      </trkpt>
      <trkpt lat="46.36172" lon="-0.37222">
        <ele>71.8</ele>
        <time>2020-05-31T09:13:20Z</time>
      </trkpt>
      <trkpt lat="46.36171" lon="-0.37222">
        <ele>71.8</ele>
        <time>2020-05-31T09:13:21Z</time>
      </trkpt>
      <trkpt lat="46.36169" lon="-0.37225">
        <ele>71.9</ele>
        <time>2020-05-31T09:13:22Z</time>
      </trkpt>
      <trkpt lat="46.36168" lon="-0.37225">
        <ele>72</ele>
        <time>2020-05-31T09:13:23Z</time>
      </trkpt>
      <trkpt lat="46.36166" lon="-0.37228">
        <ele>72.1</ele>
        <time>2020-05-31T09:13:24Z</time>
      </trkpt>
      <trkpt lat="46.36165" lon="-0.37235">
        <ele>72.3</ele>
        <time>2020-05-31T09:13:25Z</time>
      </trkpt>
      <trkpt lat="46.36164" lon="-0.37238">
        <ele>72.4</ele>
        <time>2020-05-31T09:13:26Z</time>
      </trkpt>
      <trkpt lat="46.36162" lon="-0.37243">
        <ele>72.5</ele>
        <time>2020-05-31T09:13:27Z</time>
      </trkpt>
      <trkpt lat="46.36159" lon="-0.37248">
        <ele>72.7</ele>
        <time>2020-05-31T09:13:28Z</time>
      </trkpt>
      <trkpt lat="46.36158" lon="-0.37252">
        <ele>72.8</ele>
        <time>2020-05-31T09:13:29Z</time>
      </trkpt>
      <trkpt lat="46.36154" lon="-0.37258">
        <ele>73</ele>
        <time>2020-05-31T09:13:30Z</time>
      </trkpt>
      <trkpt lat="46.36151" lon="-0.37262">
        <ele>73.2</ele>
        <time>2020-05-31T09:13:31Z</time>
      </trkpt>
      <trkpt lat="46.36147" lon="-0.37269">
        <ele>73.4</ele>
        <time>2020-05-31T09:13:32Z</time>
      </trkpt>
      <trkpt lat="46.36144" lon="-0.37274">
        <ele>73.6</ele>
        <time>2020-05-31T09:13:33Z</time>
      </trkpt>
      <trkpt lat="46.36141" lon="-0.37279">
        <ele>73.8</ele>
        <time>2020-05-31T09:13:34Z</time>
      </trkpt>
      <trkpt lat="46.36138" lon="-0.37285">
        <ele>74</ele>
        <time>2020-05-31T09:13:35Z</time>
      </trkpt>
      <trkpt lat="46.36136" lon="-0.37289">
        <ele>74.1</ele>
        <time>2020-05-31T09:13:36Z</time>
      </trkpt>
      <trkpt lat="46.36133" lon="-0.37295">
        <ele>74.3</ele>
        <time>2020-05-31T09:13:37Z</time>
      </trkpt>
      <trkpt lat="46.36131" lon="-0.373">
        <ele>74.4</ele>
        <time>2020-05-31T09:13:38Z</time>
      </trkpt>
      <trkpt lat="46.36129" lon="-0.37306">
        <ele>74.7</ele>
        <time>2020-05-31T09:13:39Z</time>
      </trkpt>
      <trkpt lat="46.36126" lon="-0.37311">
        <ele>74.8</ele>
        <time>2020-05-31T09:13:40Z</time>
      </trkpt>
      <trkpt lat="46.36123" lon="-0.37316">
        <ele>75</ele>
        <time>2020-05-31T09:13:41Z</time>
      </trkpt>
      <trkpt lat="46.36121" lon="-0.3732">
        <ele>75.1</ele>
        <time>2020-05-31T09:13:42Z</time>
      </trkpt>
      <trkpt lat="46.36118" lon="-0.37323">
        <ele>75.2</ele>
        <time>2020-05-31T09:13:43Z</time>
      </trkpt>
      <trkpt lat="46.36115" lon="-0.37328">
        <ele>75.4</ele>
        <time>2020-05-31T09:13:44Z</time>
      </trkpt>
      <trkpt lat="46.36113" lon="-0.37332">
        <ele>75.5</ele>
        <time>2020-05-31T09:13:45Z</time>
      </trkpt>
      <trkpt lat="46.3611" lon="-0.37337">
        <ele>75.8</ele>
        <time>2020-05-31T09:13:46Z</time>
      </trkpt>
      <trkpt lat="46.36107" lon="-0.37341">
        <ele>76</ele>
        <time>2020-05-31T09:13:47Z</time>
      </trkpt>
      <trkpt lat="46.36105" lon="-0.37345">
        <ele>76.2</ele>
        <time>2020-05-31T09:13:48Z</time>
      </trkpt>
      <trkpt lat="46.36103" lon="-0.37348">
        <ele>76.4</ele>
        <time>2020-05-31T09:13:49Z</time>
      </trkpt>
      <trkpt lat="46.36101" lon="-0.37354">
        <ele>76.6</ele>
        <time>2020-05-31T09:13:50Z</time>
      </trkpt>
      <trkpt lat="46.36099" lon="-0.37357">
        <ele>76.8</ele>
        <time>2020-05-31T09:13:51Z</time>
      </trkpt>
      <trkpt lat="46.36096" lon="-0.37362">
        <ele>77</ele>
        <time>2020-05-31T09:13:52Z</time>
      </trkpt>
      <trkpt lat="46.36096" lon="-0.37365">
        <ele>77.1</ele>
        <time>2020-05-31T09:13:53Z</time>
      </trkpt>
      <trkpt lat="46.36094" lon="-0.37369">
        <ele>77.3</ele>
        <time>2020-05-31T09:13:54Z</time>
      </trkpt>
      <trkpt lat="46.36092" lon="-0.37373">
        <ele>77.4</ele>
        <time>2020-05-31T09:13:55Z</time>
      </trkpt>
      <trkpt lat="46.36088" lon="-0.37377">
        <ele>77.6</ele>
        <time>2020-05-31T09:13:56Z</time>
      </trkpt>
      <trkpt lat="46.36085" lon="-0.37382">
        <ele>77.6</ele>
        <time>2020-05-31T09:13:57Z</time>
      </trkpt>
      <trkpt lat="46.36083" lon="-0.37386">
        <ele>77.6</ele>
        <time>2020-05-31T09:13:58Z</time>
      </trkpt>
      <trkpt lat="46.3608" lon="-0.37391">
        <ele>77.6</ele>
        <time>2020-05-31T09:13:59Z</time>
      </trkpt>
      <trkpt lat="46.36077" lon="-0.37395">
        <ele>77.7</ele>
        <time>2020-05-31T09:14:00Z</time>
      </trkpt>
      <trkpt lat="46.36075" lon="-0.37401">
        <ele>77.8</ele>
        <time>2020-05-31T09:14:01Z</time>
      </trkpt>
      <trkpt lat="46.36072" lon="-0.37404">
        <ele>77.9</ele>
        <time>2020-05-31T09:14:02Z</time>
      </trkpt>
      <trkpt lat="46.3607" lon="-0.37408">
        <ele>78</ele>
        <time>2020-05-31T09:14:03Z</time>
      </trkpt>
      <trkpt lat="46.36069" lon="-0.3741">
        <ele>78.1</ele>
        <time>2020-05-31T09:14:04Z</time>
      </trkpt>
      <trkpt lat="46.36067" lon="-0.37413">
        <ele>78.2</ele>
        <time>2020-05-31T09:14:05Z</time>
      </trkpt>
      <trkpt lat="46.36065" lon="-0.37417">
        <ele>78.3</ele>
        <time>2020-05-31T09:14:06Z</time>
      </trkpt>
      <trkpt lat="46.36062" lon="-0.37421">
        <ele>78.4</ele>
        <time>2020-05-31T09:14:07Z</time>
      </trkpt>
      <trkpt lat="46.36059" lon="-0.37425">
        <ele>78.6</ele>
        <time>2020-05-31T09:14:08Z</time>
      </trkpt>
      <trkpt lat="46.36056" lon="-0.37429">
        <ele>78.7</ele>
        <time>2020-05-31T09:14:09Z</time>
      </trkpt>
      <trkpt lat="46.36054" lon="-0.37432">
        <ele>78.9</ele>
        <time>2020-05-31T09:14:10Z</time>
      </trkpt>
      <trkpt lat="46.36051" lon="-0.37436">
        <ele>79</ele>
        <time>2020-05-31T09:14:11Z</time>
      </trkpt>
      <trkpt lat="46.36049" lon="-0.37439">
        <ele>79.2</ele>
        <time>2020-05-31T09:14:12Z</time>
      </trkpt>
      <trkpt lat="46.36048" lon="-0.37442">
        <ele>79.3</ele>
        <time>2020-05-31T09:14:13Z</time>
      </trkpt>
      <trkpt lat="46.36046" lon="-0.37446">
        <ele>79.4</ele>
        <time>2020-05-31T09:14:14Z</time>
      </trkpt>
      <trkpt lat="46.36043" lon="-0.37449">
        <ele>79.6</ele>
        <time>2020-05-31T09:14:15Z</time>
      </trkpt>
      <trkpt lat="46.36041" lon="-0.37452">
        <ele>79.7</ele>
        <time>2020-05-31T09:14:16Z</time>
      </trkpt>
      <trkpt lat="46.36037" lon="-0.37456">
        <ele>79.8</ele>
        <time>2020-05-31T09:14:17Z</time>
      </trkpt>
      <trkpt lat="46.36034" lon="-0.37459">
        <ele>79.9</ele>
        <time>2020-05-31T09:14:18Z</time>
      </trkpt>
      <trkpt lat="46.3603" lon="-0.37462">
        <ele>80</ele>
        <time>2020-05-31T09:14:19Z</time>
      </trkpt>
      <trkpt lat="46.36027" lon="-0.37465">
        <ele>80</ele>
        <time>2020-05-31T09:14:20Z</time>
      </trkpt>
      <trkpt lat="46.36022" lon="-0.37468">
        <ele>80.1</ele>
        <time>2020-05-31T09:14:21Z</time>
      </trkpt>
      <trkpt lat="46.36019" lon="-0.37473">
        <ele>80.2</ele>
        <time>2020-05-31T09:14:22Z</time>
      </trkpt>
      <trkpt lat="46.36016" lon="-0.37476">
        <ele>80.4</ele>
        <time>2020-05-31T09:14:23Z</time>
      </trkpt>
      <trkpt lat="46.36011" lon="-0.37479">
        <ele>80.5</ele>
        <time>2020-05-31T09:14:24Z</time>
      </trkpt>
      <trkpt lat="46.36008" lon="-0.37484">
        <ele>80.5</ele>
        <time>2020-05-31T09:14:25Z</time>
      </trkpt>
      <trkpt lat="46.36004" lon="-0.37488">
        <ele>80.6</ele>
        <time>2020-05-31T09:14:26Z</time>
      </trkpt>
      <trkpt lat="46.36001" lon="-0.37491">
        <ele>80.7</ele>
        <time>2020-05-31T09:14:27Z</time>
      </trkpt>
      <trkpt lat="46.35997" lon="-0.37495">
        <ele>80.8</ele>
        <time>2020-05-31T09:14:28Z</time>
      </trkpt>
      <trkpt lat="46.35994" lon="-0.375">
        <ele>80.9</ele>
        <time>2020-05-31T09:14:29Z</time>
      </trkpt>
      <trkpt lat="46.35991" lon="-0.37503">
        <ele>81</ele>
        <time>2020-05-31T09:14:30Z</time>
      </trkpt>
      <trkpt lat="46.35988" lon="-0.37507">
        <ele>81.1</ele>
        <time>2020-05-31T09:14:31Z</time>
      </trkpt>
      <trkpt lat="46.35985" lon="-0.37511">
        <ele>81.2</ele>
        <time>2020-05-31T09:14:32Z</time>
      </trkpt>
      <trkpt lat="46.35983" lon="-0.37513">
        <ele>81.2</ele>
        <time>2020-05-31T09:14:33Z</time>
      </trkpt>
      <trkpt lat="46.35981" lon="-0.37515">
        <ele>81.3</ele>
        <time>2020-05-31T09:14:34Z</time>
      </trkpt>
      <trkpt lat="46.35978" lon="-0.37519">
        <ele>81.4</ele>
        <time>2020-05-31T09:14:35Z</time>
      </trkpt>
      <trkpt lat="46.35974" lon="-0.37523">
        <ele>81.5</ele>
        <time>2020-05-31T09:14:36Z</time>
      </trkpt>
      <trkpt lat="46.3597" lon="-0.37527">
        <ele>81.5</ele>
        <time>2020-05-31T09:14:37Z</time>
      </trkpt>
      <trkpt lat="46.35966" lon="-0.37532">
        <ele>81.5</ele>
        <time>2020-05-31T09:14:38Z</time>
      </trkpt>
      <trkpt lat="46.35962" lon="-0.37538">
        <ele>81.5</ele>
        <time>2020-05-31T09:14:39Z</time>
      </trkpt>
      <trkpt lat="46.35958" lon="-0.37543">
        <ele>81.5</ele>
        <time>2020-05-31T09:14:40Z</time>
      </trkpt>
      <trkpt lat="46.35954" lon="-0.3755">
        <ele>81.4</ele>
        <time>2020-05-31T09:14:41Z</time>
      </trkpt>
      <trkpt lat="46.3595" lon="-0.37555">
        <ele>81.4</ele>
        <time>2020-05-31T09:14:42Z</time>
      </trkpt>
      <trkpt lat="46.35947" lon="-0.3756">
        <ele>81.4</ele>
        <time>2020-05-31T09:14:43Z</time>
      </trkpt>
      <trkpt lat="46.35943" lon="-0.37565">
        <ele>81.4</ele>
        <time>2020-05-31T09:14:44Z</time>
      </trkpt>
      <trkpt lat="46.3594" lon="-0.37571">
        <ele>81.4</ele>
        <time>2020-05-31T09:14:45Z</time>
      </trkpt>
      <trkpt lat="46.35937" lon="-0.37575">
        <ele>81.4</ele>
        <time>2020-05-31T09:14:46Z</time>
      </trkpt>
      <trkpt lat="46.35933" lon="-0.37581">
        <ele>81.5</ele>
        <time>2020-05-31T09:14:47Z</time>
      </trkpt>
      <trkpt lat="46.3593" lon="-0.37585">
        <ele>81.5</ele>
        <time>2020-05-31T09:14:48Z</time>
      </trkpt>
      <trkpt lat="46.35927" lon="-0.3759">
        <ele>81.5</ele>
        <time>2020-05-31T09:14:49Z</time>
      </trkpt>
      <trkpt lat="46.35924" lon="-0.37594">
        <ele>81.5</ele>
        <time>2020-05-31T09:14:50Z</time>
      </trkpt>
      <trkpt lat="46.35922" lon="-0.37598">
        <ele>81.5</ele>
        <time>2020-05-31T09:14:51Z</time>
      </trkpt>
      <trkpt lat="46.35919" lon="-0.37602">
        <ele>81.5</ele>
        <time>2020-05-31T09:14:52Z</time>
      </trkpt>
      <trkpt lat="46.35918" lon="-0.37602">
        <ele>81.5</ele>
        <time>2020-05-31T09:14:53Z</time>
      </trkpt>
      <trkpt lat="46.35917" lon="-0.37605">
        <ele>81.5</ele>
        <time>2020-05-31T09:14:54Z</time>
      </trkpt>
      <trkpt lat="46.35916" lon="-0.37606">
        <ele>81.5</ele>
        <time>2020-05-31T09:14:55Z</time>
      </trkpt>
      <trkpt lat="46.35915" lon="-0.37606">
        <ele>81.5</ele>
        <time>2020-05-31T09:14:56Z</time>
      </trkpt>
      <trkpt lat="46.35916" lon="-0.37606">
        <ele>81.5</ele>
        <time>2020-05-31T09:14:57Z</time>
      </trkpt>
      <trkpt lat="46.35916" lon="-0.37605">
        <ele>81.5</ele>
        <time>2020-05-31T09:14:58Z</time>
      </trkpt>
      <trkpt lat="46.35916" lon="-0.37603">
        <ele>81.5</ele>
        <time>2020-05-31T09:14:59Z</time>
      </trkpt>
      <trkpt lat="46.35916" lon="-0.37604">
        <ele>81.5</ele>
        <time>2020-05-31T09:15:00Z</time>
      </trkpt>
      <trkpt lat="46.35916" lon="-0.37603">
        <ele>81.5</ele>
        <time>2020-05-31T09:15:01Z</time>
      </trkpt>
      <trkpt lat="46.35916" lon="-0.37603">
        <ele>81.5</ele>
        <time>2020-05-31T09:15:02Z</time>
      </trkpt>
      <trkpt lat="46.35916" lon="-0.37603">
        <ele>81.5</ele>
        <time>2020-05-31T09:15:03Z</time>
      </trkpt>
      <trkpt lat="46.35916" lon="-0.37603">
        <ele>81.5</ele>
        <time>2020-05-31T09:15:04Z</time>
      </trkpt>
      <trkpt lat="46.35916" lon="-0.37603">
        <ele>81.5</ele>
        <time>2020-05-31T09:15:05Z</time>
      </trkpt>
      <trkpt lat="46.35916" lon="-0.37603">
        <ele>81.5</ele>
        <time>2020-05-31T09:15:06Z</time>
      </trkpt>
      <trkpt lat="46.35916" lon="-0.37603">
        <ele>81.5</ele>
        <time>2020-05-31T09:15:07Z</time>
      </trkpt>
      <trkpt lat="46.35916" lon="-0.37603">
        <ele>81.5</ele>
        <time>2020-05-31T09:15:08Z</time>
      </trkpt>
      <trkpt lat="46.35916" lon="-0.37603">
        <ele>81.5</ele>
        <time>2020-05-31T09:15:09Z</time>
      </trkpt>
      <trkpt lat="46.35916" lon="-0.37603">
        <ele>81.5</ele>
        <time>2020-05-31T09:15:10Z</time>
      </trkpt>
      <trkpt lat="46.35916" lon="-0.37602">
        <ele>81.5</ele>
        <time>2020-05-31T09:15:11Z</time>
      </trkpt>
      <trkpt lat="46.35917" lon="-0.37602">
        <ele>81.5</ele>
        <time>2020-05-31T09:15:12Z</time>
      </trkpt>
      <trkpt lat="46.35917" lon="-0.37603">
        <ele>81.5</ele>
        <time>2020-05-31T09:15:13Z</time>
      </trkpt>
      <trkpt lat="46.35917" lon="-0.37603">
        <ele>81.5</ele>
        <time>2020-05-31T09:15:14Z</time>
      </trkpt>
      <trkpt lat="46.35917" lon="-0.37603">
        <ele>81.5</ele>
        <time>2020-05-31T09:15:15Z</time>
      </trkpt>
      <trkpt lat="46.35917" lon="-0.37603">
        <ele>81.5</ele>
        <time>2020-05-31T09:15:16Z</time>
      </trkpt>
      <trkpt lat="46.35917" lon="-0.37603">
        <ele>81.5</ele>
        <time>2020-05-31T09:15:17Z</time>
      </trkpt>
      <trkpt lat="46.35917" lon="-0.37602">
        <ele>81.5</ele>
        <time>2020-05-31T09:15:18Z</time>
      </trkpt>
      <trkpt lat="46.35917" lon="-0.37602">
        <ele>81.5</ele>
        <time>2020-05-31T09:15:19Z</time>
      </trkpt>
      <trkpt lat="46.35916" lon="-0.37603">
        <ele>81.5</ele>
        <time>2020-05-31T09:15:20Z</time>
      </trkpt>
      <trkpt lat="46.35915" lon="-0.37604">
        <ele>81.5</ele>
        <time>2020-05-31T09:15:21Z</time>
      </trkpt>
      <trkpt lat="46.35913" lon="-0.37607">
        <ele>81.5</ele>
        <time>2020-05-31T09:15:22Z</time>
      </trkpt>
      <trkpt lat="46.35911" lon="-0.37612">
        <ele>81.5</ele>
        <time>2020-05-31T09:15:23Z</time>
      </trkpt>
      <trkpt lat="46.3591" lon="-0.37614">
        <ele>81.5</ele>
        <time>2020-05-31T09:15:24Z</time>
      </trkpt>
      <trkpt lat="46.35908" lon="-0.37618">
        <ele>81.5</ele>
        <time>2020-05-31T09:15:25Z</time>
      </trkpt>
      <trkpt lat="46.35906" lon="-0.37622">
        <ele>81.5</ele>
        <time>2020-05-31T09:15:26Z</time>
      </trkpt>
      <trkpt lat="46.35904" lon="-0.37628">
        <ele>81.5</ele>
        <time>2020-05-31T09:15:27Z</time>
      </trkpt>
      <trkpt lat="46.35901" lon="-0.37633">
        <ele>81.4</ele>
        <time>2020-05-31T09:15:28Z</time>
      </trkpt>
      <trkpt lat="46.359" lon="-0.37635">
        <ele>81.4</ele>
        <time>2020-05-31T09:15:29Z</time>
      </trkpt>
      <trkpt lat="46.35897" lon="-0.37639">
        <ele>81.4</ele>
        <time>2020-05-31T09:15:30Z</time>
      </trkpt>
      <trkpt lat="46.35894" lon="-0.37643">
        <ele>81.3</ele>
        <time>2020-05-31T09:15:31Z</time>
      </trkpt>
      <trkpt lat="46.3589" lon="-0.37648">
        <ele>81.3</ele>
        <time>2020-05-31T09:15:32Z</time>
      </trkpt>
      <trkpt lat="46.35888" lon="-0.37653">
        <ele>81.3</ele>
        <time>2020-05-31T09:15:33Z</time>
      </trkpt>
      <trkpt lat="46.35883" lon="-0.3766">
        <ele>81.2</ele>
        <time>2020-05-31T09:15:34Z</time>
      </trkpt>
      <trkpt lat="46.3588" lon="-0.37666">
        <ele>81.1</ele>
        <time>2020-05-31T09:15:35Z</time>
      </trkpt>
      <trkpt lat="46.35877" lon="-0.37672">
        <ele>81.1</ele>
        <time>2020-05-31T09:15:36Z</time>
      </trkpt>
      <trkpt lat="46.35873" lon="-0.37677">
        <ele>81</ele>
        <time>2020-05-31T09:15:37Z</time>
      </trkpt>
      <trkpt lat="46.3587" lon="-0.37684">
        <ele>80.9</ele>
        <time>2020-05-31T09:15:38Z</time>
      </trkpt>
      <trkpt lat="46.35866" lon="-0.37691">
        <ele>80.9</ele>
        <time>2020-05-31T09:15:39Z</time>
      </trkpt>
      <trkpt lat="46.35863" lon="-0.37697">
        <ele>80.9</ele>
        <time>2020-05-31T09:15:40Z</time>
      </trkpt>
      <trkpt lat="46.3586" lon="-0.37702">
        <ele>80.8</ele>
        <time>2020-05-31T09:15:41Z</time>
      </trkpt>
      <trkpt lat="46.35857" lon="-0.37707">
        <ele>80.8</ele>
        <time>2020-05-31T09:15:42Z</time>
      </trkpt>
      <trkpt lat="46.35855" lon="-0.37713">
        <ele>80.8</ele>
        <time>2020-05-31T09:15:43Z</time>
      </trkpt>
      <trkpt lat="46.35852" lon="-0.3772">
        <ele>80.8</ele>
        <time>2020-05-31T09:15:44Z</time>
      </trkpt>
      <trkpt lat="46.35851" lon="-0.37727">
        <ele>80.8</ele>
        <time>2020-05-31T09:15:45Z</time>
      </trkpt>
      <trkpt lat="46.35851" lon="-0.37733">
        <ele>80.9</ele>
        <time>2020-05-31T09:15:46Z</time>
      </trkpt>
      <trkpt lat="46.35852" lon="-0.37741">
        <ele>80.9</ele>
        <time>2020-05-31T09:15:47Z</time>
      </trkpt>
      <trkpt lat="46.35852" lon="-0.37749">
        <ele>80.9</ele>
        <time>2020-05-31T09:15:48Z</time>
      </trkpt>
      <trkpt lat="46.35849" lon="-0.37754">
        <ele>80.9</ele>
        <time>2020-05-31T09:15:49Z</time>
      </trkpt>
      <trkpt lat="46.35846" lon="-0.37757">
        <ele>80.8</ele>
        <time>2020-05-31T09:15:50Z</time>
      </trkpt>
      <trkpt lat="46.35841" lon="-0.37758">
        <ele>80.8</ele>
        <time>2020-05-31T09:15:51Z</time>
      </trkpt>
      <trkpt lat="46.35837" lon="-0.37759">
        <ele>80.8</ele>
        <time>2020-05-31T09:15:52Z</time>
      </trkpt>
      <trkpt lat="46.35832" lon="-0.37761">
        <ele>80.8</ele>
        <time>2020-05-31T09:15:53Z</time>
      </trkpt>
      <trkpt lat="46.35827" lon="-0.37763">
        <ele>80.8</ele>
        <time>2020-05-31T09:15:54Z</time>
      </trkpt>
      <trkpt lat="46.35824" lon="-0.37767">
        <ele>80.8</ele>
        <time>2020-05-31T09:15:55Z</time>
      </trkpt>
      <trkpt lat="46.3582" lon="-0.37772">
        <ele>80.7</ele>
        <time>2020-05-31T09:15:56Z</time>
      </trkpt>
      <trkpt lat="46.35816" lon="-0.37779">
        <ele>80.7</ele>
        <time>2020-05-31T09:15:57Z</time>
      </trkpt>
      <trkpt lat="46.35812" lon="-0.37786">
        <ele>80.7</ele>
        <time>2020-05-31T09:15:58Z</time>
      </trkpt>
      <trkpt lat="46.35809" lon="-0.37793">
        <ele>80.7</ele>
        <time>2020-05-31T09:15:59Z</time>
      </trkpt>
      <trkpt lat="46.35806" lon="-0.378">
        <ele>80.7</ele>
        <time>2020-05-31T09:16:00Z</time>
      </trkpt>
      <trkpt lat="46.35803" lon="-0.37806">
        <ele>80.7</ele>
        <time>2020-05-31T09:16:01Z</time>
      </trkpt>
      <trkpt lat="46.35799" lon="-0.37812">
        <ele>80.7</ele>
        <time>2020-05-31T09:16:02Z</time>
      </trkpt>
      <trkpt lat="46.35795" lon="-0.37818">
        <ele>80.7</ele>
        <time>2020-05-31T09:16:03Z</time>
      </trkpt>
      <trkpt lat="46.35792" lon="-0.37824">
        <ele>80.7</ele>
        <time>2020-05-31T09:16:04Z</time>
      </trkpt>
      <trkpt lat="46.35787" lon="-0.37828">
        <ele>80.6</ele>
        <time>2020-05-31T09:16:05Z</time>
      </trkpt>
      <trkpt lat="46.35782" lon="-0.37833">
        <ele>80.6</ele>
        <time>2020-05-31T09:16:06Z</time>
      </trkpt>
      <trkpt lat="46.35778" lon="-0.37837">
        <ele>80.6</ele>
        <time>2020-05-31T09:16:07Z</time>
      </trkpt>
      <trkpt lat="46.35775" lon="-0.37844">
        <ele>80.5</ele>
        <time>2020-05-31T09:16:08Z</time>
      </trkpt>
      <trkpt lat="46.35771" lon="-0.3785">
        <ele>80.5</ele>
        <time>2020-05-31T09:16:09Z</time>
      </trkpt>
      <trkpt lat="46.35768" lon="-0.37854">
        <ele>80.5</ele>
        <time>2020-05-31T09:16:10Z</time>
      </trkpt>
      <trkpt lat="46.35765" lon="-0.37859">
        <ele>80.4</ele>
        <time>2020-05-31T09:16:11Z</time>
      </trkpt>
      <trkpt lat="46.35761" lon="-0.37864">
        <ele>80.4</ele>
        <time>2020-05-31T09:16:12Z</time>
      </trkpt>
      <trkpt lat="46.35758" lon="-0.3787">
        <ele>80.3</ele>
        <time>2020-05-31T09:16:13Z</time>
      </trkpt>
      <trkpt lat="46.35755" lon="-0.37874">
        <ele>80.2</ele>
        <time>2020-05-31T09:16:14Z</time>
      </trkpt>
      <trkpt lat="46.35751" lon="-0.37878">
        <ele>80.2</ele>
        <time>2020-05-31T09:16:15Z</time>
      </trkpt>
      <trkpt lat="46.35747" lon="-0.37882">
        <ele>80.1</ele>
        <time>2020-05-31T09:16:16Z</time>
      </trkpt>
      <trkpt lat="46.35743" lon="-0.37887">
        <ele>80</ele>
        <time>2020-05-31T09:16:17Z</time>
      </trkpt>
      <trkpt lat="46.35739" lon="-0.37892">
        <ele>79.9</ele>
        <time>2020-05-31T09:16:18Z</time>
      </trkpt>
      <trkpt lat="46.35735" lon="-0.37896">
        <ele>79.8</ele>
        <time>2020-05-31T09:16:19Z</time>
      </trkpt>
      <trkpt lat="46.3573" lon="-0.37901">
        <ele>79.8</ele>
        <time>2020-05-31T09:16:20Z</time>
      </trkpt>
      <trkpt lat="46.35726" lon="-0.37905">
        <ele>79.7</ele>
        <time>2020-05-31T09:16:21Z</time>
      </trkpt>
      <trkpt lat="46.35722" lon="-0.37911">
        <ele>79.6</ele>
        <time>2020-05-31T09:16:22Z</time>
      </trkpt>
      <trkpt lat="46.35719" lon="-0.37916">
        <ele>79.6</ele>
        <time>2020-05-31T09:16:23Z</time>
      </trkpt>
      <trkpt lat="46.35714" lon="-0.3792">
        <ele>79.5</ele>
        <time>2020-05-31T09:16:24Z</time>
      </trkpt>
      <trkpt lat="46.3571" lon="-0.37925">
        <ele>79.5</ele>
        <time>2020-05-31T09:16:25Z</time>
      </trkpt>
      <trkpt lat="46.35706" lon="-0.3793">
        <ele>79.4</ele>
        <time>2020-05-31T09:16:26Z</time>
      </trkpt>
      <trkpt lat="46.35702" lon="-0.37935">
        <ele>79.3</ele>
        <time>2020-05-31T09:16:27Z</time>
      </trkpt>
      <trkpt lat="46.35699" lon="-0.3794">
        <ele>79.2</ele>
        <time>2020-05-31T09:16:28Z</time>
      </trkpt>
      <trkpt lat="46.35693" lon="-0.37945">
        <ele>79.2</ele>
        <time>2020-05-31T09:16:29Z</time>
      </trkpt>
      <trkpt lat="46.35689" lon="-0.37949">
        <ele>79.1</ele>
        <time>2020-05-31T09:16:30Z</time>
      </trkpt>
      <trkpt lat="46.35684" lon="-0.37954">
        <ele>79.1</ele>
        <time>2020-05-31T09:16:31Z</time>
      </trkpt>
      <trkpt lat="46.35679" lon="-0.37958">
        <ele>79</ele>
        <time>2020-05-31T09:16:32Z</time>
      </trkpt>
      <trkpt lat="46.35675" lon="-0.37964">
        <ele>79</ele>
        <time>2020-05-31T09:16:33Z</time>
      </trkpt>
      <trkpt lat="46.35671" lon="-0.3797">
        <ele>78.9</ele>
        <time>2020-05-31T09:16:34Z</time>
      </trkpt>
      <trkpt lat="46.35666" lon="-0.37975">
        <ele>78.8</ele>
        <time>2020-05-31T09:16:35Z</time>
      </trkpt>
      <trkpt lat="46.35662" lon="-0.3798">
        <ele>78.8</ele>
        <time>2020-05-31T09:16:36Z</time>
      </trkpt>
      <trkpt lat="46.35658" lon="-0.37984">
        <ele>78.7</ele>
        <time>2020-05-31T09:16:37Z</time>
      </trkpt>
      <trkpt lat="46.35654" lon="-0.37989">
        <ele>78.7</ele>
        <time>2020-05-31T09:16:38Z</time>
      </trkpt>
      <trkpt lat="46.3565" lon="-0.37993">
        <ele>78.6</ele>
        <time>2020-05-31T09:16:39Z</time>
      </trkpt>
      <trkpt lat="46.35644" lon="-0.37997">
        <ele>78.6</ele>
        <time>2020-05-31T09:16:40Z</time>
      </trkpt>
      <trkpt lat="46.3564" lon="-0.38002">
        <ele>78.5</ele>
        <time>2020-05-31T09:16:41Z</time>
      </trkpt>
      <trkpt lat="46.35636" lon="-0.38007">
        <ele>78.4</ele>
        <time>2020-05-31T09:16:42Z</time>
      </trkpt>
      <trkpt lat="46.3563" lon="-0.38013">
        <ele>78.2</ele>
        <time>2020-05-31T09:16:43Z</time>
      </trkpt>
      <trkpt lat="46.35625" lon="-0.3802">
        <ele>78.1</ele>
        <time>2020-05-31T09:16:44Z</time>
      </trkpt>
      <trkpt lat="46.35621" lon="-0.38026">
        <ele>78</ele>
        <time>2020-05-31T09:16:45Z</time>
      </trkpt>
      <trkpt lat="46.35617" lon="-0.38032">
        <ele>78</ele>
        <time>2020-05-31T09:16:46Z</time>
      </trkpt>
      <trkpt lat="46.35612" lon="-0.38038">
        <ele>77.9</ele>
        <time>2020-05-31T09:16:47Z</time>
      </trkpt>
      <trkpt lat="46.35608" lon="-0.38044">
        <ele>77.8</ele>
        <time>2020-05-31T09:16:48Z</time>
      </trkpt>
      <trkpt lat="46.35604" lon="-0.38049">
        <ele>77.7</ele>
        <time>2020-05-31T09:16:49Z</time>
      </trkpt>
      <trkpt lat="46.356" lon="-0.38054">
        <ele>77.6</ele>
        <time>2020-05-31T09:16:50Z</time>
      </trkpt>
      <trkpt lat="46.35597" lon="-0.38059">
        <ele>77.5</ele>
        <time>2020-05-31T09:16:51Z</time>
      </trkpt>
      <trkpt lat="46.35594" lon="-0.38064">
        <ele>77.4</ele>
        <time>2020-05-31T09:16:52Z</time>
      </trkpt>
      <trkpt lat="46.35592" lon="-0.38068">
        <ele>77.4</ele>
        <time>2020-05-31T09:16:53Z</time>
      </trkpt>
      <trkpt lat="46.35592" lon="-0.38069">
        <ele>77.4</ele>
        <time>2020-05-31T09:16:54Z</time>
      </trkpt>
      <trkpt lat="46.35593" lon="-0.38071">
        <ele>77.4</ele>
        <time>2020-05-31T09:16:55Z</time>
      </trkpt>
      <trkpt lat="46.35593" lon="-0.38071">
        <ele>77.3</ele>
        <time>2020-05-31T09:16:56Z</time>
      </trkpt>
      <trkpt lat="46.35594" lon="-0.38069">
        <ele>77.3</ele>
        <time>2020-05-31T09:16:57Z</time>
      </trkpt>
      <trkpt lat="46.35594" lon="-0.38069">
        <ele>77.3</ele>
        <time>2020-05-31T09:16:58Z</time>
      </trkpt>
      <trkpt lat="46.35594" lon="-0.38068">
        <ele>77.3</ele>
        <time>2020-05-31T09:16:59Z</time>
      </trkpt>
      <trkpt lat="46.35594" lon="-0.38067">
        <ele>77.3</ele>
        <time>2020-05-31T09:17:00Z</time>
      </trkpt>
      <trkpt lat="46.35594" lon="-0.38067">
        <ele>77.3</ele>
        <time>2020-05-31T09:17:01Z</time>
      </trkpt>
      <trkpt lat="46.35594" lon="-0.38068">
        <ele>77.3</ele>
        <time>2020-05-31T09:17:02Z</time>
      </trkpt>
      <trkpt lat="46.35595" lon="-0.38067">
        <ele>77.3</ele>
        <time>2020-05-31T09:17:03Z</time>
      </trkpt>
      <trkpt lat="46.35595" lon="-0.38066">
        <ele>77.3</ele>
        <time>2020-05-31T09:17:04Z</time>
      </trkpt>
      <trkpt lat="46.35596" lon="-0.38066">
        <ele>77.2</ele>
        <time>2020-05-31T09:17:05Z</time>
      </trkpt>
      <trkpt lat="46.35596" lon="-0.38065">
        <ele>77.2</ele>
        <time>2020-05-31T09:17:06Z</time>
      </trkpt>
      <trkpt lat="46.35596" lon="-0.38065">
        <ele>77.2</ele>
        <time>2020-05-31T09:17:07Z</time>
      </trkpt>
      <trkpt lat="46.35596" lon="-0.38066">
        <ele>77.2</ele>
        <time>2020-05-31T09:17:08Z</time>
      </trkpt>
      <trkpt lat="46.35596" lon="-0.38066">
        <ele>77.2</ele>
        <time>2020-05-31T09:17:09Z</time>
      </trkpt>
      <trkpt lat="46.35596" lon="-0.38066">
        <ele>77.2</ele>
        <time>2020-05-31T09:17:10Z</time>
      </trkpt>
      <trkpt lat="46.35597" lon="-0.38066">
        <ele>77.2</ele>
        <time>2020-05-31T09:17:11Z</time>
      </trkpt>
      <trkpt lat="46.35597" lon="-0.38066">
        <ele>77.2</ele>
        <time>2020-05-31T09:17:12Z</time>
      </trkpt>
      <trkpt lat="46.35596" lon="-0.38067">
        <ele>77.2</ele>
        <time>2020-05-31T09:17:13Z</time>
      </trkpt>
      <trkpt lat="46.35596" lon="-0.38067">
        <ele>77.2</ele>
        <time>2020-05-31T09:17:14Z</time>
      </trkpt>
      <trkpt lat="46.35596" lon="-0.38068">
        <ele>77.2</ele>
        <time>2020-05-31T09:17:15Z</time>
      </trkpt>
      <trkpt lat="46.35596" lon="-0.38068">
        <ele>77.2</ele>
        <time>2020-05-31T09:17:16Z</time>
      </trkpt>
      <trkpt lat="46.35596" lon="-0.38068">
        <ele>77.2</ele>
        <time>2020-05-31T09:17:17Z</time>
      </trkpt>
      <trkpt lat="46.35597" lon="-0.38067">
        <ele>77.2</ele>
        <time>2020-05-31T09:17:18Z</time>
      </trkpt>
      <trkpt lat="46.35597" lon="-0.38066">
        <ele>77.1</ele>
        <time>2020-05-31T09:17:19Z</time>
      </trkpt>
      <trkpt lat="46.35597" lon="-0.38066">
        <ele>77.1</ele>
        <time>2020-05-31T09:17:20Z</time>
      </trkpt>
      <trkpt lat="46.35598" lon="-0.38066">
        <ele>77.2</ele>
        <time>2020-05-31T09:17:21Z</time>
      </trkpt>
      <trkpt lat="46.35598" lon="-0.38066">
        <ele>77.2</ele>
        <time>2020-05-31T09:17:22Z</time>
      </trkpt>
      <trkpt lat="46.35598" lon="-0.38066">
        <ele>77.2</ele>
        <time>2020-05-31T09:17:23Z</time>
      </trkpt>
      <trkpt lat="46.35598" lon="-0.38066">
        <ele>77.2</ele>
        <time>2020-05-31T09:17:24Z</time>
      </trkpt>
      <trkpt lat="46.35598" lon="-0.38066">
        <ele>77.2</ele>
        <time>2020-05-31T09:17:25Z</time>
      </trkpt>
      <trkpt lat="46.35598" lon="-0.38066">
        <ele>77.2</ele>
        <time>2020-05-31T09:17:26Z</time>
      </trkpt>
      <trkpt lat="46.35598" lon="-0.38066">
        <ele>77.2</ele>
        <time>2020-05-31T09:17:27Z</time>
      </trkpt>
      <trkpt lat="46.35597" lon="-0.38067">
        <ele>77.2</ele>
        <time>2020-05-31T09:17:28Z</time>
      </trkpt>
      <trkpt lat="46.35597" lon="-0.38066">
        <ele>77.2</ele>
        <time>2020-05-31T09:17:29Z</time>
      </trkpt>
      <trkpt lat="46.35598" lon="-0.38066">
        <ele>77.2</ele>
        <time>2020-05-31T09:17:30Z</time>
      </trkpt>
      <trkpt lat="46.35598" lon="-0.38066">
        <ele>77.2</ele>
        <time>2020-05-31T09:17:31Z</time>
      </trkpt>
      <trkpt lat="46.35598" lon="-0.38066">
        <ele>77.2</ele>
        <time>2020-05-31T09:17:32Z</time>
      </trkpt>
      <trkpt lat="46.35598" lon="-0.38066">
        <ele>77.2</ele>
        <time>2020-05-31T09:17:33Z</time>
      </trkpt>
      <trkpt lat="46.35598" lon="-0.38066">
        <ele>77.2</ele>
        <time>2020-05-31T09:17:34Z</time>
      </trkpt>
      <trkpt lat="46.35598" lon="-0.38066">
        <ele>77.2</ele>
        <time>2020-05-31T09:17:35Z</time>
      </trkpt>
      <trkpt lat="46.35598" lon="-0.38066">
        <ele>77.2</ele>
        <time>2020-05-31T09:17:36Z</time>
      </trkpt>
      <trkpt lat="46.35598" lon="-0.38066">
        <ele>77.2</ele>
        <time>2020-05-31T09:17:37Z</time>
      </trkpt>
      <trkpt lat="46.35598" lon="-0.38066">
        <ele>77.2</ele>
        <time>2020-05-31T09:17:38Z</time>
      </trkpt>
      <trkpt lat="46.35598" lon="-0.38066">
        <ele>77.2</ele>
        <time>2020-05-31T09:17:39Z</time>
      </trkpt>
      <trkpt lat="46.35598" lon="-0.38066">
        <ele>77.2</ele>
        <time>2020-05-31T09:17:40Z</time>
      </trkpt>
      <trkpt lat="46.35598" lon="-0.38066">
        <ele>77.2</ele>
        <time>2020-05-31T09:17:41Z</time>
      </trkpt>
      <trkpt lat="46.35598" lon="-0.38066">
        <ele>77.2</ele>
        <time>2020-05-31T09:17:42Z</time>
      </trkpt>
      <trkpt lat="46.35598" lon="-0.38066">
        <ele>77.2</ele>
        <time>2020-05-31T09:17:43Z</time>
      </trkpt>
      <trkpt lat="46.35598" lon="-0.38066">
        <ele>77.2</ele>
        <time>2020-05-31T09:17:44Z</time>
      </trkpt>
      <trkpt lat="46.35598" lon="-0.38066">
        <ele>77.2</ele>
        <time>2020-05-31T09:17:45Z</time>
      </trkpt>
      <trkpt lat="46.35598" lon="-0.38066">
        <ele>77.2</ele>
        <time>2020-05-31T09:17:46Z</time>
      </trkpt>
      <trkpt lat="46.35598" lon="-0.38067">
        <ele>77.2</ele>
        <time>2020-05-31T09:17:47Z</time>
      </trkpt>
      <trkpt lat="46.35598" lon="-0.38067">
        <ele>77.2</ele>
        <time>2020-05-31T09:17:48Z</time>
      </trkpt>
      <trkpt lat="46.35598" lon="-0.38067">
        <ele>77.2</ele>
        <time>2020-05-31T09:17:49Z</time>
      </trkpt>
      <trkpt lat="46.35598" lon="-0.38068">
        <ele>77.2</ele>
        <time>2020-05-31T09:17:50Z</time>
      </trkpt>
      <trkpt lat="46.35598" lon="-0.38068">
        <ele>77.2</ele>
        <time>2020-05-31T09:17:51Z</time>
      </trkpt>
      <trkpt lat="46.35598" lon="-0.38068">
        <ele>77.2</ele>
        <time>2020-05-31T09:17:52Z</time>
      </trkpt>
      <trkpt lat="46.35598" lon="-0.38068">
        <ele>77.2</ele>
        <time>2020-05-31T09:17:53Z</time>
      </trkpt>
      <trkpt lat="46.35598" lon="-0.38069">
        <ele>77.2</ele>
        <time>2020-05-31T09:17:54Z</time>
      </trkpt>
      <trkpt lat="46.35598" lon="-0.38069">
        <ele>77.2</ele>
        <time>2020-05-31T09:17:55Z</time>
      </trkpt>
      <trkpt lat="46.35598" lon="-0.38069">
        <ele>77.1</ele>
        <time>2020-05-31T09:17:56Z</time>
      </trkpt>
      <trkpt lat="46.35598" lon="-0.38069">
        <ele>77.1</ele>
        <time>2020-05-31T09:17:57Z</time>
      </trkpt>
      <trkpt lat="46.35598" lon="-0.38069">
        <ele>77.1</ele>
        <time>2020-05-31T09:17:58Z</time>
      </trkpt>
      <trkpt lat="46.35598" lon="-0.38069">
        <ele>77.1</ele>
        <time>2020-05-31T09:17:59Z</time>
      </trkpt>
      <trkpt lat="46.35598" lon="-0.38069">
        <ele>77.1</ele>
        <time>2020-05-31T09:18:00Z</time>
      </trkpt>
      <trkpt lat="46.35598" lon="-0.38069">
        <ele>77.1</ele>
        <time>2020-05-31T09:18:01Z</time>
      </trkpt>
      <trkpt lat="46.35598" lon="-0.38069">
        <ele>77.1</ele>
        <time>2020-05-31T09:18:02Z</time>
      </trkpt>
      <trkpt lat="46.35598" lon="-0.38069">
        <ele>77.1</ele>
        <time>2020-05-31T09:18:03Z</time>
      </trkpt>
      <trkpt lat="46.35598" lon="-0.38069">
        <ele>77.1</ele>
        <time>2020-05-31T09:18:04Z</time>
      </trkpt>
      <trkpt lat="46.35598" lon="-0.38069">
        <ele>77.1</ele>
        <time>2020-05-31T09:18:05Z</time>
      </trkpt>
      <trkpt lat="46.35598" lon="-0.38069">
        <ele>77.1</ele>
        <time>2020-05-31T09:18:06Z</time>
      </trkpt>
      <trkpt lat="46.35598" lon="-0.38069">
        <ele>77.1</ele>
        <time>2020-05-31T09:18:07Z</time>
      </trkpt>
      <trkpt lat="46.35598" lon="-0.38069">
        <ele>77.1</ele>
        <time>2020-05-31T09:18:08Z</time>
      </trkpt>
      <trkpt lat="46.35598" lon="-0.38069">
        <ele>77.1</ele>
        <time>2020-05-31T09:18:09Z</time>
      </trkpt>
      <trkpt lat="46.35598" lon="-0.38069">
        <ele>77.2</ele>
        <time>2020-05-31T09:18:10Z</time>
      </trkpt>
      <trkpt lat="46.35598" lon="-0.38069">
        <ele>77.2</ele>
        <time>2020-05-31T09:18:11Z</time>
      </trkpt>
      <trkpt lat="46.35598" lon="-0.38069">
        <ele>77.2</ele>
        <time>2020-05-31T09:18:12Z</time>
      </trkpt>
      <trkpt lat="46.35598" lon="-0.38069">
        <ele>77.2</ele>
        <time>2020-05-31T09:18:13Z</time>
      </trkpt>
      <trkpt lat="46.35598" lon="-0.3807">
        <ele>77.2</ele>
        <time>2020-05-31T09:18:14Z</time>
      </trkpt>
      <trkpt lat="46.35598" lon="-0.3807">
        <ele>77.2</ele>
        <time>2020-05-31T09:18:15Z</time>
      </trkpt>
      <trkpt lat="46.35598" lon="-0.38069">
        <ele>77.2</ele>
        <time>2020-05-31T09:18:16Z</time>
      </trkpt>
      <trkpt lat="46.35598" lon="-0.3807">
        <ele>77.2</ele>
        <time>2020-05-31T09:18:17Z</time>
      </trkpt>
      <trkpt lat="46.35599" lon="-0.38069">
        <ele>77.2</ele>
        <time>2020-05-31T09:18:18Z</time>
      </trkpt>
      <trkpt lat="46.35599" lon="-0.3807">
        <ele>77.2</ele>
        <time>2020-05-31T09:18:19Z</time>
      </trkpt>
      <trkpt lat="46.35599" lon="-0.38069">
        <ele>77.2</ele>
        <time>2020-05-31T09:18:20Z</time>
      </trkpt>
      <trkpt lat="46.35599" lon="-0.38069">
        <ele>77.2</ele>
        <time>2020-05-31T09:18:21Z</time>
      </trkpt>
      <trkpt lat="46.35599" lon="-0.38069">
        <ele>77.2</ele>
        <time>2020-05-31T09:18:22Z</time>
      </trkpt>
      <trkpt lat="46.35599" lon="-0.38068">
        <ele>77.2</ele>
        <time>2020-05-31T09:18:23Z</time>
      </trkpt>
      <trkpt lat="46.35599" lon="-0.38068">
        <ele>77.2</ele>
        <time>2020-05-31T09:18:24Z</time>
      </trkpt>
      <trkpt lat="46.35599" lon="-0.38068">
        <ele>77.2</ele>
        <time>2020-05-31T09:18:25Z</time>
      </trkpt>
      <trkpt lat="46.35598" lon="-0.38068">
        <ele>77.2</ele>
        <time>2020-05-31T09:18:26Z</time>
      </trkpt>
      <trkpt lat="46.35598" lon="-0.38069">
        <ele>77.2</ele>
        <time>2020-05-31T09:18:27Z</time>
      </trkpt>
      <trkpt lat="46.35599" lon="-0.38069">
        <ele>77.2</ele>
        <time>2020-05-31T09:18:28Z</time>
      </trkpt>
      <trkpt lat="46.35599" lon="-0.38069">
        <ele>77.2</ele>
        <time>2020-05-31T09:18:29Z</time>
      </trkpt>
      <trkpt lat="46.35599" lon="-0.38069">
        <ele>77.2</ele>
        <time>2020-05-31T09:18:30Z</time>
      </trkpt>
      <trkpt lat="46.35599" lon="-0.38069">
        <ele>77.2</ele>
        <time>2020-05-31T09:18:31Z</time>
      </trkpt>
      <trkpt lat="46.35599" lon="-0.38068">
        <ele>77.1</ele>
        <time>2020-05-31T09:18:32Z</time>
      </trkpt>
      <trkpt lat="46.35599" lon="-0.38068">
        <ele>77.1</ele>
        <time>2020-05-31T09:18:33Z</time>
      </trkpt>
      <trkpt lat="46.35599" lon="-0.38068">
        <ele>77.1</ele>
        <time>2020-05-31T09:18:34Z</time>
      </trkpt>
      <trkpt lat="46.35599" lon="-0.38068">
        <ele>77.1</ele>
        <time>2020-05-31T09:18:35Z</time>
      </trkpt>
      <trkpt lat="46.35599" lon="-0.38068">
        <ele>77.1</ele>
        <time>2020-05-31T09:18:36Z</time>
      </trkpt>
      <trkpt lat="46.35599" lon="-0.38068">
        <ele>77.1</ele>
        <time>2020-05-31T09:18:37Z</time>
      </trkpt>
      <trkpt lat="46.35599" lon="-0.38068">
        <ele>77.1</ele>
        <time>2020-05-31T09:18:38Z</time>
      </trkpt>
      <trkpt lat="46.35599" lon="-0.38068">
        <ele>77.1</ele>
        <time>2020-05-31T09:18:39Z</time>
      </trkpt>
      <trkpt lat="46.35599" lon="-0.38068">
        <ele>77.1</ele>
        <time>2020-05-31T09:18:40Z</time>
      </trkpt>
      <trkpt lat="46.35599" lon="-0.38068">
        <ele>77.1</ele>
        <time>2020-05-31T09:18:41Z</time>
      </trkpt>
      <trkpt lat="46.35599" lon="-0.38068">
        <ele>77.1</ele>
        <time>2020-05-31T09:18:42Z</time>
      </trkpt>
      <trkpt lat="46.35599" lon="-0.38068">
        <ele>77.1</ele>
        <time>2020-05-31T09:18:43Z</time>
      </trkpt>
      <trkpt lat="46.35599" lon="-0.38069">
        <ele>77.1</ele>
        <time>2020-05-31T09:18:44Z</time>
      </trkpt>
      <trkpt lat="46.35599" lon="-0.38069">
        <ele>77.1</ele>
        <time>2020-05-31T09:18:45Z</time>
      </trkpt>
      <trkpt lat="46.35599" lon="-0.38069">
        <ele>77.1</ele>
        <time>2020-05-31T09:18:46Z</time>
      </trkpt>
      <trkpt lat="46.35599" lon="-0.38069">
        <ele>77.1</ele>
        <time>2020-05-31T09:18:47Z</time>
      </trkpt>
      <trkpt lat="46.35599" lon="-0.38069">
        <ele>77.1</ele>
        <time>2020-05-31T09:18:48Z</time>
      </trkpt>
      <trkpt lat="46.35599" lon="-0.38068">
        <ele>77.1</ele>
        <time>2020-05-31T09:18:49Z</time>
      </trkpt>
      <trkpt lat="46.35599" lon="-0.38068">
        <ele>77.1</ele>
        <time>2020-05-31T09:18:50Z</time>
      </trkpt>
      <trkpt lat="46.35599" lon="-0.38068">
        <ele>77.1</ele>
        <time>2020-05-31T09:18:51Z</time>
      </trkpt>
      <trkpt lat="46.35599" lon="-0.38068">
        <ele>77.1</ele>
        <time>2020-05-31T09:18:52Z</time>
      </trkpt>
      <trkpt lat="46.35599" lon="-0.38068">
        <ele>77.1</ele>
        <time>2020-05-31T09:18:53Z</time>
      </trkpt>
      <trkpt lat="46.35599" lon="-0.38068">
        <ele>77.1</ele>
        <time>2020-05-31T09:18:54Z</time>
      </trkpt>
      <trkpt lat="46.35599" lon="-0.38068">
        <ele>77.1</ele>
        <time>2020-05-31T09:18:55Z</time>
      </trkpt>
      <trkpt lat="46.35599" lon="-0.38069">
        <ele>77.1</ele>
        <time>2020-05-31T09:18:56Z</time>
      </trkpt>
      <trkpt lat="46.35599" lon="-0.38069">
        <ele>77.1</ele>
        <time>2020-05-31T09:18:57Z</time>
      </trkpt>
      <trkpt lat="46.35599" lon="-0.38069">
        <ele>77.1</ele>
        <time>2020-05-31T09:18:58Z</time>
      </trkpt>
      <trkpt lat="46.35599" lon="-0.38069">
        <ele>77.1</ele>
        <time>2020-05-31T09:18:59Z</time>
      </trkpt>
      <trkpt lat="46.35599" lon="-0.38069">
        <ele>77.1</ele>
        <time>2020-05-31T09:19:00Z</time>
      </trkpt>
      <trkpt lat="46.35599" lon="-0.38069">
        <ele>77.1</ele>
        <time>2020-05-31T09:19:01Z</time>
      </trkpt>
      <trkpt lat="46.35599" lon="-0.38069">
        <ele>77.1</ele>
        <time>2020-05-31T09:19:02Z</time>
      </trkpt>
      <trkpt lat="46.35599" lon="-0.38069">
        <ele>77.1</ele>
        <time>2020-05-31T09:19:03Z</time>
      </trkpt>
      <trkpt lat="46.35599" lon="-0.38069">
        <ele>77.1</ele>
        <time>2020-05-31T09:19:04Z</time>
      </trkpt>
      <trkpt lat="46.35599" lon="-0.38069">
        <ele>77.1</ele>
        <time>2020-05-31T09:19:05Z</time>
      </trkpt>
      <trkpt lat="46.35598" lon="-0.38069">
        <ele>77.1</ele>
        <time>2020-05-31T09:19:06Z</time>
      </trkpt>
      <trkpt lat="46.35598" lon="-0.38069">
        <ele>77.1</ele>
        <time>2020-05-31T09:19:07Z</time>
      </trkpt>
      <trkpt lat="46.35597" lon="-0.3807">
        <ele>77.1</ele>
        <time>2020-05-31T09:19:08Z</time>
      </trkpt>
      <trkpt lat="46.35597" lon="-0.38071">
        <ele>77.1</ele>
        <time>2020-05-31T09:19:09Z</time>
      </trkpt>
      <trkpt lat="46.35597" lon="-0.38071">
        <ele>77.1</ele>
        <time>2020-05-31T09:19:10Z</time>
      </trkpt>
      <trkpt lat="46.35597" lon="-0.38071">
        <ele>77.1</ele>
        <time>2020-05-31T09:19:11Z</time>
      </trkpt>
      <trkpt lat="46.35597" lon="-0.38071">
        <ele>77.1</ele>
        <time>2020-05-31T09:19:12Z</time>
      </trkpt>
      <trkpt lat="46.35597" lon="-0.38071">
        <ele>77.1</ele>
        <time>2020-05-31T09:19:13Z</time>
      </trkpt>
      <trkpt lat="46.35597" lon="-0.3807">
        <ele>77.1</ele>
        <time>2020-05-31T09:19:14Z</time>
      </trkpt>
      <trkpt lat="46.35597" lon="-0.3807">
        <ele>77.1</ele>
        <time>2020-05-31T09:19:15Z</time>
      </trkpt>
      <trkpt lat="46.35597" lon="-0.3807">
        <ele>77.1</ele>
        <time>2020-05-31T09:19:16Z</time>
      </trkpt>
      <trkpt lat="46.35598" lon="-0.3807">
        <ele>77.1</ele>
        <time>2020-05-31T09:19:17Z</time>
      </trkpt>
      <trkpt lat="46.35598" lon="-0.3807">
        <ele>77.1</ele>
        <time>2020-05-31T09:19:18Z</time>
      </trkpt>
      <trkpt lat="46.35598" lon="-0.3807">
        <ele>77.1</ele>
        <time>2020-05-31T09:19:19Z</time>
      </trkpt>
      <trkpt lat="46.35598" lon="-0.38069">
        <ele>77.1</ele>
        <time>2020-05-31T09:19:20Z</time>
      </trkpt>
      <trkpt lat="46.35598" lon="-0.38069">
        <ele>77.1</ele>
        <time>2020-05-31T09:19:21Z</time>
      </trkpt>
      <trkpt lat="46.35598" lon="-0.38069">
        <ele>77.1</ele>
        <time>2020-05-31T09:19:22Z</time>
      </trkpt>
      <trkpt lat="46.35598" lon="-0.38069">
        <ele>77.1</ele>
        <time>2020-05-31T09:19:23Z</time>
      </trkpt>
      <trkpt lat="46.35599" lon="-0.38069">
        <ele>77.1</ele>
        <time>2020-05-31T09:19:24Z</time>
      </trkpt>
      <trkpt lat="46.35599" lon="-0.38069">
        <ele>77.1</ele>
        <time>2020-05-31T09:19:25Z</time>
      </trkpt>
      <trkpt lat="46.35599" lon="-0.38068">
        <ele>77.1</ele>
        <time>2020-05-31T09:19:26Z</time>
      </trkpt>
      <trkpt lat="46.35599" lon="-0.38068">
        <ele>77.1</ele>
        <time>2020-05-31T09:19:27Z</time>
      </trkpt>
      <trkpt lat="46.35599" lon="-0.38068">
        <ele>77</ele>
        <time>2020-05-31T09:19:28Z</time>
      </trkpt>
      <trkpt lat="46.35599" lon="-0.38068">
        <ele>77</ele>
        <time>2020-05-31T09:19:29Z</time>
      </trkpt>
      <trkpt lat="46.35599" lon="-0.38068">
        <ele>77</ele>
        <time>2020-05-31T09:19:30Z</time>
      </trkpt>
      <trkpt lat="46.356" lon="-0.38068">
        <ele>77</ele>
        <time>2020-05-31T09:19:31Z</time>
      </trkpt>
      <trkpt lat="46.356" lon="-0.38067">
        <ele>77</ele>
        <time>2020-05-31T09:19:32Z</time>
      </trkpt>
      <trkpt lat="46.356" lon="-0.38067">
        <ele>77</ele>
        <time>2020-05-31T09:19:33Z</time>
      </trkpt>
      <trkpt lat="46.356" lon="-0.38067">
        <ele>77</ele>
        <time>2020-05-31T09:19:34Z</time>
      </trkpt>
      <trkpt lat="46.356" lon="-0.38069">
        <ele>77</ele>
        <time>2020-05-31T09:19:35Z</time>
      </trkpt>
      <trkpt lat="46.35601" lon="-0.38069">
        <ele>77</ele>
        <time>2020-05-31T09:19:36Z</time>
      </trkpt>
      <trkpt lat="46.35601" lon="-0.38069">
        <ele>77</ele>
        <time>2020-05-31T09:19:37Z</time>
      </trkpt>
      <trkpt lat="46.35601" lon="-0.38069">
        <ele>77</ele>
        <time>2020-05-31T09:19:38Z</time>
      </trkpt>
      <trkpt lat="46.35601" lon="-0.38069">
        <ele>77</ele>
        <time>2020-05-31T09:19:39Z</time>
      </trkpt>
      <trkpt lat="46.356" lon="-0.38069">
        <ele>77</ele>
        <time>2020-05-31T09:19:40Z</time>
      </trkpt>
      <trkpt lat="46.35601" lon="-0.38068">
        <ele>77</ele>
        <time>2020-05-31T09:19:41Z</time>
      </trkpt>
      <trkpt lat="46.356" lon="-0.38068">
        <ele>77</ele>
        <time>2020-05-31T09:19:42Z</time>
      </trkpt>
      <trkpt lat="46.356" lon="-0.38068">
        <ele>77</ele>
        <time>2020-05-31T09:19:43Z</time>
      </trkpt>
      <trkpt lat="46.356" lon="-0.38068">
        <ele>77</ele>
        <time>2020-05-31T09:19:44Z</time>
      </trkpt>
      <trkpt lat="46.356" lon="-0.38068">
        <ele>77</ele>
        <time>2020-05-31T09:19:45Z</time>
      </trkpt>
      <trkpt lat="46.356" lon="-0.38069">
        <ele>77</ele>
        <time>2020-05-31T09:19:46Z</time>
      </trkpt>
      <trkpt lat="46.356" lon="-0.38069">
        <ele>77</ele>
        <time>2020-05-31T09:19:47Z</time>
      </trkpt>
      <trkpt lat="46.356" lon="-0.3807">
        <ele>77</ele>
        <time>2020-05-31T09:19:48Z</time>
      </trkpt>
      <trkpt lat="46.356" lon="-0.3807">
        <ele>77</ele>
        <time>2020-05-31T09:19:49Z</time>
      </trkpt>
      <trkpt lat="46.356" lon="-0.3807">
        <ele>77</ele>
        <time>2020-05-31T09:19:50Z</time>
      </trkpt>
      <trkpt lat="46.356" lon="-0.3807">
        <ele>77</ele>
        <time>2020-05-31T09:19:51Z</time>
      </trkpt>
      <trkpt lat="46.356" lon="-0.3807">
        <ele>77</ele>
        <time>2020-05-31T09:19:52Z</time>
      </trkpt>
      <trkpt lat="46.35599" lon="-0.38071">
        <ele>76.9</ele>
        <time>2020-05-31T09:19:53Z</time>
      </trkpt>
      <trkpt lat="46.35599" lon="-0.3807">
        <ele>76.9</ele>
        <time>2020-05-31T09:19:54Z</time>
      </trkpt>
      <trkpt lat="46.356" lon="-0.3807">
        <ele>76.9</ele>
        <time>2020-05-31T09:19:55Z</time>
      </trkpt>
      <trkpt lat="46.356" lon="-0.3807">
        <ele>76.9</ele>
        <time>2020-05-31T09:19:56Z</time>
      </trkpt>
      <trkpt lat="46.356" lon="-0.3807">
        <ele>76.9</ele>
        <time>2020-05-31T09:19:57Z</time>
      </trkpt>
      <trkpt lat="46.356" lon="-0.3807">
        <ele>76.9</ele>
        <time>2020-05-31T09:19:58Z</time>
      </trkpt>
      <trkpt lat="46.35599" lon="-0.3807">
        <ele>76.9</ele>
        <time>2020-05-31T09:19:59Z</time>
      </trkpt>
      <trkpt lat="46.356" lon="-0.3807">
        <ele>76.9</ele>
        <time>2020-05-31T09:20:00Z</time>
      </trkpt>
      <trkpt lat="46.356" lon="-0.38071">
        <ele>76.9</ele>
        <time>2020-05-31T09:20:01Z</time>
      </trkpt>
      <trkpt lat="46.356" lon="-0.38071">
        <ele>76.9</ele>
        <time>2020-05-31T09:20:02Z</time>
      </trkpt>
      <trkpt lat="46.356" lon="-0.38071">
        <ele>76.9</ele>
        <time>2020-05-31T09:20:03Z</time>
      </trkpt>
      <trkpt lat="46.356" lon="-0.3807">
        <ele>76.9</ele>
        <time>2020-05-31T09:20:04Z</time>
      </trkpt>
      <trkpt lat="46.356" lon="-0.3807">
        <ele>76.9</ele>
        <time>2020-05-31T09:20:05Z</time>
      </trkpt>
      <trkpt lat="46.356" lon="-0.3807">
        <ele>76.9</ele>
        <time>2020-05-31T09:20:06Z</time>
      </trkpt>
      <trkpt lat="46.356" lon="-0.3807">
        <ele>76.9</ele>
        <time>2020-05-31T09:20:07Z</time>
      </trkpt>
      <trkpt lat="46.356" lon="-0.3807">
        <ele>76.9</ele>
        <time>2020-05-31T09:20:08Z</time>
      </trkpt>
      <trkpt lat="46.356" lon="-0.3807">
        <ele>76.9</ele>
        <time>2020-05-31T09:20:09Z</time>
      </trkpt>
      <trkpt lat="46.356" lon="-0.3807">
        <ele>76.9</ele>
        <time>2020-05-31T09:20:10Z</time>
      </trkpt>
      <trkpt lat="46.356" lon="-0.3807">
        <ele>76.9</ele>
        <time>2020-05-31T09:20:11Z</time>
      </trkpt>
      <trkpt lat="46.356" lon="-0.3807">
        <ele>76.9</ele>
        <time>2020-05-31T09:20:12Z</time>
      </trkpt>
      <trkpt lat="46.356" lon="-0.3807">
        <ele>76.9</ele>
        <time>2020-05-31T09:20:13Z</time>
      </trkpt>
      <trkpt lat="46.356" lon="-0.3807">
        <ele>76.9</ele>
        <time>2020-05-31T09:20:14Z</time>
      </trkpt>
      <trkpt lat="46.356" lon="-0.3807">
        <ele>76.9</ele>
        <time>2020-05-31T09:20:15Z</time>
      </trkpt>
      <trkpt lat="46.356" lon="-0.3807">
        <ele>76.9</ele>
        <time>2020-05-31T09:20:16Z</time>
      </trkpt>
      <trkpt lat="46.356" lon="-0.3807">
        <ele>76.9</ele>
        <time>2020-05-31T09:20:17Z</time>
      </trkpt>
      <trkpt lat="46.356" lon="-0.3807">
        <ele>76.9</ele>
        <time>2020-05-31T09:20:18Z</time>
      </trkpt>
      <trkpt lat="46.356" lon="-0.3807">
        <ele>76.9</ele>
        <time>2020-05-31T09:20:19Z</time>
      </trkpt>
      <trkpt lat="46.356" lon="-0.3807">
        <ele>76.9</ele>
        <time>2020-05-31T09:20:20Z</time>
      </trkpt>
      <trkpt lat="46.356" lon="-0.3807">
        <ele>76.9</ele>
        <time>2020-05-31T09:20:21Z</time>
      </trkpt>
      <trkpt lat="46.356" lon="-0.3807">
        <ele>76.9</ele>
        <time>2020-05-31T09:20:22Z</time>
      </trkpt>
      <trkpt lat="46.356" lon="-0.3807">
        <ele>76.9</ele>
        <time>2020-05-31T09:20:23Z</time>
      </trkpt>
      <trkpt lat="46.356" lon="-0.3807">
        <ele>76.9</ele>
        <time>2020-05-31T09:20:24Z</time>
      </trkpt>
      <trkpt lat="46.356" lon="-0.3807">
        <ele>76.9</ele>
        <time>2020-05-31T09:20:25Z</time>
      </trkpt>
      <trkpt lat="46.356" lon="-0.38069">
        <ele>76.9</ele>
        <time>2020-05-31T09:20:26Z</time>
      </trkpt>
      <trkpt lat="46.356" lon="-0.38069">
        <ele>76.9</ele>
        <time>2020-05-31T09:20:27Z</time>
      </trkpt>
      <trkpt lat="46.356" lon="-0.38069">
        <ele>76.9</ele>
        <time>2020-05-31T09:20:28Z</time>
      </trkpt>
      <trkpt lat="46.356" lon="-0.38068">
        <ele>76.9</ele>
        <time>2020-05-31T09:20:29Z</time>
      </trkpt>
      <trkpt lat="46.356" lon="-0.38068">
        <ele>76.9</ele>
        <time>2020-05-31T09:20:30Z</time>
      </trkpt>
      <trkpt lat="46.35601" lon="-0.38066">
        <ele>76.9</ele>
        <time>2020-05-31T09:20:31Z</time>
      </trkpt>
      <trkpt lat="46.35601" lon="-0.38066">
        <ele>76.9</ele>
        <time>2020-05-31T09:20:32Z</time>
      </trkpt>
      <trkpt lat="46.356" lon="-0.38066">
        <ele>76.9</ele>
        <time>2020-05-31T09:20:33Z</time>
      </trkpt>
      <trkpt lat="46.356" lon="-0.38066">
        <ele>76.9</ele>
        <time>2020-05-31T09:20:34Z</time>
      </trkpt>
      <trkpt lat="46.356" lon="-0.38066">
        <ele>76.9</ele>
        <time>2020-05-31T09:20:35Z</time>
      </trkpt>
      <trkpt lat="46.356" lon="-0.38066">
        <ele>76.9</ele>
        <time>2020-05-31T09:20:36Z</time>
      </trkpt>
      <trkpt lat="46.356" lon="-0.38065">
        <ele>76.9</ele>
        <time>2020-05-31T09:20:37Z</time>
      </trkpt>
      <trkpt lat="46.356" lon="-0.38066">
        <ele>76.9</ele>
        <time>2020-05-31T09:20:38Z</time>
      </trkpt>
      <trkpt lat="46.356" lon="-0.38066">
        <ele>76.9</ele>
        <time>2020-05-31T09:20:39Z</time>
      </trkpt>
      <trkpt lat="46.356" lon="-0.38066">
        <ele>76.9</ele>
        <time>2020-05-31T09:20:40Z</time>
      </trkpt>
      <trkpt lat="46.356" lon="-0.38066">
        <ele>76.9</ele>
        <time>2020-05-31T09:20:41Z</time>
      </trkpt>
      <trkpt lat="46.356" lon="-0.38066">
        <ele>76.9</ele>
        <time>2020-05-31T09:20:42Z</time>
      </trkpt>
      <trkpt lat="46.35601" lon="-0.38065">
        <ele>76.8</ele>
        <time>2020-05-31T09:20:43Z</time>
      </trkpt>
      <trkpt lat="46.35601" lon="-0.38065">
        <ele>76.8</ele>
        <time>2020-05-31T09:20:44Z</time>
      </trkpt>
      <trkpt lat="46.35601" lon="-0.38065">
        <ele>76.8</ele>
        <time>2020-05-31T09:20:45Z</time>
      </trkpt>
      <trkpt lat="46.35601" lon="-0.38065">
        <ele>76.8</ele>
        <time>2020-05-31T09:20:46Z</time>
      </trkpt>
      <trkpt lat="46.35601" lon="-0.38065">
        <ele>76.8</ele>
        <time>2020-05-31T09:20:47Z</time>
      </trkpt>
      <trkpt lat="46.35601" lon="-0.38065">
        <ele>76.8</ele>
        <time>2020-05-31T09:20:48Z</time>
      </trkpt>
      <trkpt lat="46.35601" lon="-0.38065">
        <ele>76.8</ele>
        <time>2020-05-31T09:20:49Z</time>
      </trkpt>
      <trkpt lat="46.35601" lon="-0.38065">
        <ele>76.8</ele>
        <time>2020-05-31T09:20:50Z</time>
      </trkpt>
      <trkpt lat="46.35601" lon="-0.38065">
        <ele>76.8</ele>
        <time>2020-05-31T09:20:51Z</time>
      </trkpt>
      <trkpt lat="46.356" lon="-0.38065">
        <ele>76.8</ele>
        <time>2020-05-31T09:20:52Z</time>
      </trkpt>
      <trkpt lat="46.356" lon="-0.38065">
        <ele>76.8</ele>
        <time>2020-05-31T09:20:53Z</time>
      </trkpt>
      <trkpt lat="46.35601" lon="-0.38065">
        <ele>76.8</ele>
        <time>2020-05-31T09:20:54Z</time>
      </trkpt>
      <trkpt lat="46.356" lon="-0.38065">
        <ele>76.8</ele>
        <time>2020-05-31T09:20:55Z</time>
      </trkpt>
      <trkpt lat="46.356" lon="-0.38065">
        <ele>76.8</ele>
        <time>2020-05-31T09:20:56Z</time>
      </trkpt>
      <trkpt lat="46.35601" lon="-0.38065">
        <ele>76.8</ele>
        <time>2020-05-31T09:20:57Z</time>
      </trkpt>
      <trkpt lat="46.35601" lon="-0.38066">
        <ele>76.8</ele>
        <time>2020-05-31T09:20:58Z</time>
      </trkpt>
      <trkpt lat="46.35601" lon="-0.38065">
        <ele>76.8</ele>
        <time>2020-05-31T09:20:59Z</time>
      </trkpt>
      <trkpt lat="46.35601" lon="-0.38065">
        <ele>76.8</ele>
        <time>2020-05-31T09:21:00Z</time>
      </trkpt>
      <trkpt lat="46.35601" lon="-0.38065">
        <ele>76.8</ele>
        <time>2020-05-31T09:21:01Z</time>
      </trkpt>
      <trkpt lat="46.35601" lon="-0.38065">
        <ele>76.8</ele>
        <time>2020-05-31T09:21:02Z</time>
      </trkpt>
      <trkpt lat="46.35601" lon="-0.38065">
        <ele>76.8</ele>
        <time>2020-05-31T09:21:03Z</time>
      </trkpt>
      <trkpt lat="46.35601" lon="-0.38065">
        <ele>76.8</ele>
        <time>2020-05-31T09:21:04Z</time>
      </trkpt>
      <trkpt lat="46.35601" lon="-0.38065">
        <ele>76.8</ele>
        <time>2020-05-31T09:21:05Z</time>
      </trkpt>
      <trkpt lat="46.35601" lon="-0.38065">
        <ele>76.8</ele>
        <time>2020-05-31T09:21:06Z</time>
      </trkpt>
      <trkpt lat="46.35601" lon="-0.38065">
        <ele>76.8</ele>
        <time>2020-05-31T09:21:07Z</time>
      </trkpt>
      <trkpt lat="46.35601" lon="-0.38065">
        <ele>76.8</ele>
        <time>2020-05-31T09:21:08Z</time>
      </trkpt>
      <trkpt lat="46.35601" lon="-0.38065">
        <ele>76.8</ele>
        <time>2020-05-31T09:21:09Z</time>
      </trkpt>
      <trkpt lat="46.35601" lon="-0.38065">
        <ele>76.8</ele>
        <time>2020-05-31T09:21:10Z</time>
      </trkpt>
      <trkpt lat="46.35601" lon="-0.38064">
        <ele>76.8</ele>
        <time>2020-05-31T09:21:11Z</time>
      </trkpt>
      <trkpt lat="46.35602" lon="-0.38065">
        <ele>76.8</ele>
        <time>2020-05-31T09:21:12Z</time>
      </trkpt>
      <trkpt lat="46.35602" lon="-0.38065">
        <ele>76.8</ele>
        <time>2020-05-31T09:21:13Z</time>
      </trkpt>
      <trkpt lat="46.35602" lon="-0.38065">
        <ele>76.8</ele>
        <time>2020-05-31T09:21:14Z</time>
      </trkpt>
      <trkpt lat="46.35602" lon="-0.38065">
        <ele>76.8</ele>
        <time>2020-05-31T09:21:15Z</time>
      </trkpt>
      <trkpt lat="46.35602" lon="-0.38065">
        <ele>76.8</ele>
        <time>2020-05-31T09:21:16Z</time>
      </trkpt>
      <trkpt lat="46.35602" lon="-0.38065">
        <ele>76.8</ele>
        <time>2020-05-31T09:21:17Z</time>
      </trkpt>
      <trkpt lat="46.35602" lon="-0.38065">
        <ele>76.8</ele>
        <time>2020-05-31T09:21:18Z</time>
      </trkpt>
      <trkpt lat="46.35602" lon="-0.38065">
        <ele>76.8</ele>
        <time>2020-05-31T09:21:19Z</time>
      </trkpt>
      <trkpt lat="46.35602" lon="-0.38065">
        <ele>76.8</ele>
        <time>2020-05-31T09:21:20Z</time>
      </trkpt>
      <trkpt lat="46.35602" lon="-0.38065">
        <ele>76.8</ele>
        <time>2020-05-31T09:21:21Z</time>
      </trkpt>
      <trkpt lat="46.35602" lon="-0.38065">
        <ele>76.8</ele>
        <time>2020-05-31T09:21:22Z</time>
      </trkpt>
      <trkpt lat="46.35602" lon="-0.38065">
        <ele>76.8</ele>
        <time>2020-05-31T09:21:23Z</time>
      </trkpt>
      <trkpt lat="46.35602" lon="-0.38065">
        <ele>76.8</ele>
        <time>2020-05-31T09:21:24Z</time>
      </trkpt>
      <trkpt lat="46.35601" lon="-0.38065">
        <ele>76.8</ele>
        <time>2020-05-31T09:21:25Z</time>
      </trkpt>
      <trkpt lat="46.35601" lon="-0.38066">
        <ele>76.8</ele>
        <time>2020-05-31T09:21:26Z</time>
      </trkpt>
      <trkpt lat="46.356" lon="-0.38066">
        <ele>76.8</ele>
        <time>2020-05-31T09:21:27Z</time>
      </trkpt>
      <trkpt lat="46.356" lon="-0.38066">
        <ele>76.8</ele>
        <time>2020-05-31T09:21:28Z</time>
      </trkpt>
      <trkpt lat="46.356" lon="-0.38066">
        <ele>76.8</ele>
        <time>2020-05-31T09:21:29Z</time>
      </trkpt>
      <trkpt lat="46.356" lon="-0.38066">
        <ele>76.7</ele>
        <time>2020-05-31T09:21:30Z</time>
      </trkpt>
      <trkpt lat="46.356" lon="-0.38066">
        <ele>76.7</ele>
        <time>2020-05-31T09:21:31Z</time>
      </trkpt>
      <trkpt lat="46.356" lon="-0.38066">
        <ele>76.7</ele>
        <time>2020-05-31T09:21:32Z</time>
      </trkpt>
      <trkpt lat="46.35599" lon="-0.38066">
        <ele>76.7</ele>
        <time>2020-05-31T09:21:33Z</time>
      </trkpt>
      <trkpt lat="46.35599" lon="-0.38066">
        <ele>76.7</ele>
        <time>2020-05-31T09:21:34Z</time>
      </trkpt>
      <trkpt lat="46.356" lon="-0.38066">
        <ele>76.7</ele>
        <time>2020-05-31T09:21:35Z</time>
      </trkpt>
      <trkpt lat="46.356" lon="-0.38067">
        <ele>76.7</ele>
        <time>2020-05-31T09:21:36Z</time>
      </trkpt>
      <trkpt lat="46.35599" lon="-0.38067">
        <ele>76.7</ele>
        <time>2020-05-31T09:21:37Z</time>
      </trkpt>
      <trkpt lat="46.35599" lon="-0.38067">
        <ele>76.7</ele>
        <time>2020-05-31T09:21:38Z</time>
      </trkpt>
      <trkpt lat="46.35598" lon="-0.38067">
        <ele>76.7</ele>
        <time>2020-05-31T09:21:39Z</time>
      </trkpt>
      <trkpt lat="46.35598" lon="-0.38067">
        <ele>76.7</ele>
        <time>2020-05-31T09:21:40Z</time>
      </trkpt>
      <trkpt lat="46.35598" lon="-0.38067">
        <ele>76.7</ele>
        <time>2020-05-31T09:21:41Z</time>
      </trkpt>
      <trkpt lat="46.35598" lon="-0.38067">
        <ele>76.7</ele>
        <time>2020-05-31T09:21:42Z</time>
      </trkpt>
      <trkpt lat="46.35598" lon="-0.38067">
        <ele>76.7</ele>
        <time>2020-05-31T09:21:43Z</time>
      </trkpt>
      <trkpt lat="46.35598" lon="-0.38066">
        <ele>76.7</ele>
        <time>2020-05-31T09:21:44Z</time>
      </trkpt>
      <trkpt lat="46.35598" lon="-0.38066">
        <ele>76.7</ele>
        <time>2020-05-31T09:21:45Z</time>
      </trkpt>
      <trkpt lat="46.35598" lon="-0.38066">
        <ele>76.7</ele>
        <time>2020-05-31T09:21:46Z</time>
      </trkpt>
      <trkpt lat="46.35598" lon="-0.38066">
        <ele>76.7</ele>
        <time>2020-05-31T09:21:47Z</time>
      </trkpt>
      <trkpt lat="46.35598" lon="-0.38066">
        <ele>76.7</ele>
        <time>2020-05-31T09:21:48Z</time>
      </trkpt>
      <trkpt lat="46.35598" lon="-0.38066">
        <ele>76.7</ele>
        <time>2020-05-31T09:21:49Z</time>
      </trkpt>
      <trkpt lat="46.35598" lon="-0.38066">
        <ele>76.7</ele>
        <time>2020-05-31T09:21:50Z</time>
      </trkpt>
      <trkpt lat="46.35598" lon="-0.38066">
        <ele>76.7</ele>
        <time>2020-05-31T09:21:51Z</time>
      </trkpt>
      <trkpt lat="46.35598" lon="-0.38066">
        <ele>76.7</ele>
        <time>2020-05-31T09:21:52Z</time>
      </trkpt>
      <trkpt lat="46.35598" lon="-0.38066">
        <ele>76.7</ele>
        <time>2020-05-31T09:21:53Z</time>
      </trkpt>
      <trkpt lat="46.35598" lon="-0.38067">
        <ele>76.7</ele>
        <time>2020-05-31T09:21:54Z</time>
      </trkpt>
      <trkpt lat="46.35598" lon="-0.38067">
        <ele>76.7</ele>
        <time>2020-05-31T09:21:55Z</time>
      </trkpt>
      <trkpt lat="46.35598" lon="-0.38067">
        <ele>76.7</ele>
        <time>2020-05-31T09:21:56Z</time>
      </trkpt>
      <trkpt lat="46.35598" lon="-0.38067">
        <ele>76.7</ele>
        <time>2020-05-31T09:21:57Z</time>
      </trkpt>
      <trkpt lat="46.35598" lon="-0.38068">
        <ele>76.7</ele>
        <time>2020-05-31T09:21:58Z</time>
      </trkpt>
      <trkpt lat="46.35598" lon="-0.38069">
        <ele>76.6</ele>
        <time>2020-05-31T09:21:59Z</time>
      </trkpt>
      <trkpt lat="46.35597" lon="-0.38069">
        <ele>76.6</ele>
        <time>2020-05-31T09:22:00Z</time>
      </trkpt>
      <trkpt lat="46.35598" lon="-0.38069">
        <ele>76.6</ele>
        <time>2020-05-31T09:22:01Z</time>
      </trkpt>
      <trkpt lat="46.35598" lon="-0.38069">
        <ele>76.6</ele>
        <time>2020-05-31T09:22:02Z</time>
      </trkpt>
      <trkpt lat="46.35598" lon="-0.38069">
        <ele>76.6</ele>
        <time>2020-05-31T09:22:03Z</time>
      </trkpt>
      <trkpt lat="46.35598" lon="-0.38069">
        <ele>76.6</ele>
        <time>2020-05-31T09:22:04Z</time>
      </trkpt>
      <trkpt lat="46.35598" lon="-0.38069">
        <ele>76.6</ele>
        <time>2020-05-31T09:22:05Z</time>
      </trkpt>
      <trkpt lat="46.35598" lon="-0.38068">
        <ele>76.6</ele>
        <time>2020-05-31T09:22:06Z</time>
      </trkpt>
      <trkpt lat="46.35598" lon="-0.38068">
        <ele>76.6</ele>
        <time>2020-05-31T09:22:07Z</time>
      </trkpt>
      <trkpt lat="46.35598" lon="-0.38068">
        <ele>76.6</ele>
        <time>2020-05-31T09:22:08Z</time>
      </trkpt>
      <trkpt lat="46.35598" lon="-0.38068">
        <ele>76.6</ele>
        <time>2020-05-31T09:22:09Z</time>
      </trkpt>
      <trkpt lat="46.35598" lon="-0.38068">
        <ele>76.6</ele>
        <time>2020-05-31T09:22:10Z</time>
      </trkpt>
      <trkpt lat="46.35597" lon="-0.38069">
        <ele>76.6</ele>
        <time>2020-05-31T09:22:11Z</time>
      </trkpt>
      <trkpt lat="46.35597" lon="-0.38069">
        <ele>76.6</ele>
        <time>2020-05-31T09:22:12Z</time>
      </trkpt>
      <trkpt lat="46.35598" lon="-0.3807">
        <ele>76.6</ele>
        <time>2020-05-31T09:22:13Z</time>
      </trkpt>
      <trkpt lat="46.35598" lon="-0.3807">
        <ele>76.6</ele>
        <time>2020-05-31T09:22:14Z</time>
      </trkpt>
      <trkpt lat="46.35599" lon="-0.3807">
        <ele>76.6</ele>
        <time>2020-05-31T09:22:15Z</time>
      </trkpt>
      <trkpt lat="46.35599" lon="-0.3807">
        <ele>76.6</ele>
        <time>2020-05-31T09:22:16Z</time>
      </trkpt>
      <trkpt lat="46.35599" lon="-0.3807">
        <ele>76.6</ele>
        <time>2020-05-31T09:22:17Z</time>
      </trkpt>
      <trkpt lat="46.35599" lon="-0.3807">
        <ele>76.6</ele>
        <time>2020-05-31T09:22:18Z</time>
      </trkpt>
      <trkpt lat="46.35599" lon="-0.3807">
        <ele>76.6</ele>
        <time>2020-05-31T09:22:19Z</time>
      </trkpt>
      <trkpt lat="46.35599" lon="-0.38071">
        <ele>76.6</ele>
        <time>2020-05-31T09:22:20Z</time>
      </trkpt>
      <trkpt lat="46.356" lon="-0.38071">
        <ele>76.6</ele>
        <time>2020-05-31T09:22:21Z</time>
      </trkpt>
      <trkpt lat="46.356" lon="-0.38071">
        <ele>76.6</ele>
        <time>2020-05-31T09:22:22Z</time>
      </trkpt>
      <trkpt lat="46.35601" lon="-0.38071">
        <ele>76.6</ele>
        <time>2020-05-31T09:22:23Z</time>
      </trkpt>
      <trkpt lat="46.35601" lon="-0.38071">
        <ele>76.6</ele>
        <time>2020-05-31T09:22:24Z</time>
      </trkpt>
      <trkpt lat="46.35601" lon="-0.38071">
        <ele>76.6</ele>
        <time>2020-05-31T09:22:25Z</time>
      </trkpt>
      <trkpt lat="46.35601" lon="-0.38071">
        <ele>76.6</ele>
        <time>2020-05-31T09:22:26Z</time>
      </trkpt>
      <trkpt lat="46.35601" lon="-0.38071">
        <ele>76.6</ele>
        <time>2020-05-31T09:22:27Z</time>
      </trkpt>
      <trkpt lat="46.35601" lon="-0.38071">
        <ele>76.6</ele>
        <time>2020-05-31T09:22:28Z</time>
      </trkpt>
      <trkpt lat="46.35601" lon="-0.38071">
        <ele>76.6</ele>
        <time>2020-05-31T09:22:29Z</time>
      </trkpt>
      <trkpt lat="46.35601" lon="-0.38071">
        <ele>76.6</ele>
        <time>2020-05-31T09:22:30Z</time>
      </trkpt>
      <trkpt lat="46.35601" lon="-0.38071">
        <ele>76.6</ele>
        <time>2020-05-31T09:22:31Z</time>
      </trkpt>
      <trkpt lat="46.356" lon="-0.38071">
        <ele>76.5</ele>
        <time>2020-05-31T09:22:32Z</time>
      </trkpt>
      <trkpt lat="46.356" lon="-0.38071">
        <ele>76.5</ele>
        <time>2020-05-31T09:22:33Z</time>
      </trkpt>
      <trkpt lat="46.35599" lon="-0.38071">
        <ele>76.5</ele>
        <time>2020-05-31T09:22:34Z</time>
      </trkpt>
      <trkpt lat="46.35599" lon="-0.3807">
        <ele>76.5</ele>
        <time>2020-05-31T09:22:35Z</time>
      </trkpt>
      <trkpt lat="46.35599" lon="-0.38069">
        <ele>76.5</ele>
        <time>2020-05-31T09:22:36Z</time>
      </trkpt>
      <trkpt lat="46.35598" lon="-0.38069">
        <ele>76.5</ele>
        <time>2020-05-31T09:22:37Z</time>
      </trkpt>
      <trkpt lat="46.35598" lon="-0.38069">
        <ele>76.5</ele>
        <time>2020-05-31T09:22:38Z</time>
      </trkpt>
      <trkpt lat="46.35598" lon="-0.38069">
        <ele>76.5</ele>
        <time>2020-05-31T09:22:39Z</time>
      </trkpt>
      <trkpt lat="46.35598" lon="-0.38068">
        <ele>76.5</ele>
        <time>2020-05-31T09:22:40Z</time>
      </trkpt>
      <trkpt lat="46.35598" lon="-0.38067">
        <ele>76.5</ele>
        <time>2020-05-31T09:22:41Z</time>
      </trkpt>
      <trkpt lat="46.35598" lon="-0.38067">
        <ele>76.5</ele>
        <time>2020-05-31T09:22:42Z</time>
      </trkpt>
      <trkpt lat="46.35598" lon="-0.38067">
        <ele>76.5</ele>
        <time>2020-05-31T09:22:43Z</time>
      </trkpt>
      <trkpt lat="46.35598" lon="-0.38067">
        <ele>76.5</ele>
        <time>2020-05-31T09:22:44Z</time>
      </trkpt>
      <trkpt lat="46.35598" lon="-0.38067">
        <ele>76.5</ele>
        <time>2020-05-31T09:22:45Z</time>
      </trkpt>
      <trkpt lat="46.35598" lon="-0.38067">
        <ele>76.5</ele>
        <time>2020-05-31T09:22:46Z</time>
      </trkpt>
      <trkpt lat="46.35598" lon="-0.38067">
        <ele>76.5</ele>
        <time>2020-05-31T09:22:47Z</time>
      </trkpt>
      <trkpt lat="46.35598" lon="-0.38068">
        <ele>76.5</ele>
        <time>2020-05-31T09:22:48Z</time>
      </trkpt>
      <trkpt lat="46.35598" lon="-0.38068">
        <ele>76.5</ele>
        <time>2020-05-31T09:22:49Z</time>
      </trkpt>
      <trkpt lat="46.35598" lon="-0.38068">
        <ele>76.5</ele>
        <time>2020-05-31T09:22:50Z</time>
      </trkpt>
      <trkpt lat="46.35598" lon="-0.38068">
        <ele>76.5</ele>
        <time>2020-05-31T09:22:51Z</time>
      </trkpt>
      <trkpt lat="46.35598" lon="-0.38068">
        <ele>76.5</ele>
        <time>2020-05-31T09:22:52Z</time>
      </trkpt>
      <trkpt lat="46.35598" lon="-0.38068">
        <ele>76.5</ele>
        <time>2020-05-31T09:22:53Z</time>
      </trkpt>
      <trkpt lat="46.35598" lon="-0.38069">
        <ele>76.5</ele>
        <time>2020-05-31T09:22:54Z</time>
      </trkpt>
      <trkpt lat="46.35598" lon="-0.3807">
        <ele>76.4</ele>
        <time>2020-05-31T09:22:55Z</time>
      </trkpt>
      <trkpt lat="46.35598" lon="-0.3807">
        <ele>76.4</ele>
        <time>2020-05-31T09:22:56Z</time>
      </trkpt>
      <trkpt lat="46.35598" lon="-0.3807">
        <ele>76.4</ele>
        <time>2020-05-31T09:22:57Z</time>
      </trkpt>
      <trkpt lat="46.35599" lon="-0.3807">
        <ele>76.4</ele>
        <time>2020-05-31T09:22:58Z</time>
      </trkpt>
      <trkpt lat="46.35599" lon="-0.38069">
        <ele>76.4</ele>
        <time>2020-05-31T09:22:59Z</time>
      </trkpt>
      <trkpt lat="46.35599" lon="-0.38069">
        <ele>76.4</ele>
        <time>2020-05-31T09:23:00Z</time>
      </trkpt>
      <trkpt lat="46.35599" lon="-0.38069">
        <ele>76.4</ele>
        <time>2020-05-31T09:23:01Z</time>
      </trkpt>
      <trkpt lat="46.35599" lon="-0.3807">
        <ele>76.4</ele>
        <time>2020-05-31T09:23:02Z</time>
      </trkpt>
      <trkpt lat="46.35599" lon="-0.38069">
        <ele>76.4</ele>
        <time>2020-05-31T09:23:03Z</time>
      </trkpt>
      <trkpt lat="46.35599" lon="-0.38069">
        <ele>76.4</ele>
        <time>2020-05-31T09:23:04Z</time>
      </trkpt>
      <trkpt lat="46.35599" lon="-0.38069">
        <ele>76.4</ele>
        <time>2020-05-31T09:23:05Z</time>
      </trkpt>
      <trkpt lat="46.35599" lon="-0.38069">
        <ele>76.4</ele>
        <time>2020-05-31T09:23:06Z</time>
      </trkpt>
      <trkpt lat="46.35599" lon="-0.3807">
        <ele>76.4</ele>
        <time>2020-05-31T09:23:07Z</time>
      </trkpt>
      <trkpt lat="46.35599" lon="-0.3807">
        <ele>76.4</ele>
        <time>2020-05-31T09:23:08Z</time>
      </trkpt>
      <trkpt lat="46.356" lon="-0.3807">
        <ele>76.4</ele>
        <time>2020-05-31T09:23:09Z</time>
      </trkpt>
      <trkpt lat="46.356" lon="-0.38069">
        <ele>76.4</ele>
        <time>2020-05-31T09:23:10Z</time>
      </trkpt>
      <trkpt lat="46.356" lon="-0.38068">
        <ele>76.4</ele>
        <time>2020-05-31T09:23:11Z</time>
      </trkpt>
      <trkpt lat="46.356" lon="-0.38068">
        <ele>76.4</ele>
        <time>2020-05-31T09:23:12Z</time>
      </trkpt>
      <trkpt lat="46.356" lon="-0.38068">
        <ele>76.4</ele>
        <time>2020-05-31T09:23:13Z</time>
      </trkpt>
      <trkpt lat="46.356" lon="-0.38068">
        <ele>76.4</ele>
        <time>2020-05-31T09:23:14Z</time>
      </trkpt>
      <trkpt lat="46.356" lon="-0.38068">
        <ele>76.4</ele>
        <time>2020-05-31T09:23:15Z</time>
      </trkpt>
      <trkpt lat="46.356" lon="-0.38068">
        <ele>76.4</ele>
        <time>2020-05-31T09:23:16Z</time>
      </trkpt>
      <trkpt lat="46.35601" lon="-0.38067">
        <ele>76.4</ele>
        <time>2020-05-31T09:23:17Z</time>
      </trkpt>
      <trkpt lat="46.35601" lon="-0.38067">
        <ele>76.4</ele>
        <time>2020-05-31T09:23:18Z</time>
      </trkpt>
      <trkpt lat="46.35601" lon="-0.38067">
        <ele>76.4</ele>
        <time>2020-05-31T09:23:19Z</time>
      </trkpt>
      <trkpt lat="46.35601" lon="-0.38067">
        <ele>76.4</ele>
        <time>2020-05-31T09:23:20Z</time>
      </trkpt>
      <trkpt lat="46.35601" lon="-0.38067">
        <ele>76.4</ele>
        <time>2020-05-31T09:23:21Z</time>
      </trkpt>
      <trkpt lat="46.35601" lon="-0.38067">
        <ele>76.4</ele>
        <time>2020-05-31T09:23:22Z</time>
      </trkpt>
      <trkpt lat="46.356" lon="-0.38067">
        <ele>76.4</ele>
        <time>2020-05-31T09:23:23Z</time>
      </trkpt>
      <trkpt lat="46.35601" lon="-0.38067">
        <ele>76.4</ele>
        <time>2020-05-31T09:23:24Z</time>
      </trkpt>
      <trkpt lat="46.356" lon="-0.38067">
        <ele>76.3</ele>
        <time>2020-05-31T09:23:25Z</time>
      </trkpt>
      <trkpt lat="46.356" lon="-0.38067">
        <ele>76.3</ele>
        <time>2020-05-31T09:23:26Z</time>
      </trkpt>
      <trkpt lat="46.35601" lon="-0.38067">
        <ele>76.3</ele>
        <time>2020-05-31T09:23:27Z</time>
      </trkpt>
      <trkpt lat="46.356" lon="-0.38068">
        <ele>76.3</ele>
        <time>2020-05-31T09:23:28Z</time>
      </trkpt>
      <trkpt lat="46.356" lon="-0.38069">
        <ele>76.3</ele>
        <time>2020-05-31T09:23:29Z</time>
      </trkpt>
      <trkpt lat="46.356" lon="-0.38069">
        <ele>76.3</ele>
        <time>2020-05-31T09:23:30Z</time>
      </trkpt>
      <trkpt lat="46.356" lon="-0.38069">
        <ele>76.3</ele>
        <time>2020-05-31T09:23:31Z</time>
      </trkpt>
      <trkpt lat="46.356" lon="-0.38069">
        <ele>76.3</ele>
        <time>2020-05-31T09:23:32Z</time>
      </trkpt>
      <trkpt lat="46.356" lon="-0.38069">
        <ele>76.3</ele>
        <time>2020-05-31T09:23:33Z</time>
      </trkpt>
      <trkpt lat="46.356" lon="-0.38069">
        <ele>76.3</ele>
        <time>2020-05-31T09:23:34Z</time>
      </trkpt>
      <trkpt lat="46.356" lon="-0.38069">
        <ele>76.3</ele>
        <time>2020-05-31T09:23:35Z</time>
      </trkpt>
      <trkpt lat="46.356" lon="-0.38069">
        <ele>76.3</ele>
        <time>2020-05-31T09:23:36Z</time>
      </trkpt>
      <trkpt lat="46.356" lon="-0.38069">
        <ele>76.3</ele>
        <time>2020-05-31T09:23:37Z</time>
      </trkpt>
      <trkpt lat="46.356" lon="-0.38068">
        <ele>76.3</ele>
        <time>2020-05-31T09:23:38Z</time>
      </trkpt>
      <trkpt lat="46.35601" lon="-0.38069">
        <ele>76.3</ele>
        <time>2020-05-31T09:23:39Z</time>
      </trkpt>
      <trkpt lat="46.35601" lon="-0.3807">
        <ele>76.3</ele>
        <time>2020-05-31T09:23:40Z</time>
      </trkpt>
      <trkpt lat="46.356" lon="-0.3807">
        <ele>76.3</ele>
        <time>2020-05-31T09:23:41Z</time>
      </trkpt>
      <trkpt lat="46.356" lon="-0.3807">
        <ele>76.3</ele>
        <time>2020-05-31T09:23:42Z</time>
      </trkpt>
      <trkpt lat="46.35601" lon="-0.3807">
        <ele>76.3</ele>
        <time>2020-05-31T09:23:43Z</time>
      </trkpt>
      <trkpt lat="46.35601" lon="-0.3807">
        <ele>76.3</ele>
        <time>2020-05-31T09:23:44Z</time>
      </trkpt>
      <trkpt lat="46.35601" lon="-0.3807">
        <ele>76.3</ele>
        <time>2020-05-31T09:23:45Z</time>
      </trkpt>
      <trkpt lat="46.35601" lon="-0.3807">
        <ele>76.3</ele>
        <time>2020-05-31T09:23:46Z</time>
      </trkpt>
      <trkpt lat="46.35601" lon="-0.38071">
        <ele>76.3</ele>
        <time>2020-05-31T09:23:47Z</time>
      </trkpt>
      <trkpt lat="46.35601" lon="-0.3807">
        <ele>76.3</ele>
        <time>2020-05-31T09:23:48Z</time>
      </trkpt>
      <trkpt lat="46.35601" lon="-0.38069">
        <ele>76.2</ele>
        <time>2020-05-31T09:23:49Z</time>
      </trkpt>
      <trkpt lat="46.35601" lon="-0.38069">
        <ele>76.2</ele>
        <time>2020-05-31T09:23:50Z</time>
      </trkpt>
      <trkpt lat="46.35602" lon="-0.38068">
        <ele>76.2</ele>
        <time>2020-05-31T09:23:51Z</time>
      </trkpt>
      <trkpt lat="46.35602" lon="-0.38068">
        <ele>76.2</ele>
        <time>2020-05-31T09:23:52Z</time>
      </trkpt>
      <trkpt lat="46.35602" lon="-0.38068">
        <ele>76.2</ele>
        <time>2020-05-31T09:23:53Z</time>
      </trkpt>
      <trkpt lat="46.35602" lon="-0.38068">
        <ele>76.2</ele>
        <time>2020-05-31T09:23:54Z</time>
      </trkpt>
      <trkpt lat="46.35602" lon="-0.38068">
        <ele>76.2</ele>
        <time>2020-05-31T09:23:55Z</time>
      </trkpt>
      <trkpt lat="46.35602" lon="-0.38068">
        <ele>76.2</ele>
        <time>2020-05-31T09:23:56Z</time>
      </trkpt>
      <trkpt lat="46.35602" lon="-0.38068">
        <ele>76.2</ele>
        <time>2020-05-31T09:23:57Z</time>
      </trkpt>
      <trkpt lat="46.35602" lon="-0.38067">
        <ele>76.2</ele>
        <time>2020-05-31T09:23:58Z</time>
      </trkpt>
      <trkpt lat="46.35602" lon="-0.38067">
        <ele>76.2</ele>
        <time>2020-05-31T09:23:59Z</time>
      </trkpt>
      <trkpt lat="46.35602" lon="-0.38067">
        <ele>76.2</ele>
        <time>2020-05-31T09:24:00Z</time>
      </trkpt>
      <trkpt lat="46.35602" lon="-0.38067">
        <ele>76.2</ele>
        <time>2020-05-31T09:24:01Z</time>
      </trkpt>
      <trkpt lat="46.35602" lon="-0.38067">
        <ele>76.2</ele>
        <time>2020-05-31T09:24:02Z</time>
      </trkpt>
      <trkpt lat="46.35602" lon="-0.38067">
        <ele>76.2</ele>
        <time>2020-05-31T09:24:03Z</time>
      </trkpt>
      <trkpt lat="46.35602" lon="-0.38067">
        <ele>76.2</ele>
        <time>2020-05-31T09:24:04Z</time>
      </trkpt>
      <trkpt lat="46.35602" lon="-0.38067">
        <ele>76.2</ele>
        <time>2020-05-31T09:24:05Z</time>
      </trkpt>
      <trkpt lat="46.35602" lon="-0.38067">
        <ele>76.2</ele>
        <time>2020-05-31T09:24:06Z</time>
      </trkpt>
      <trkpt lat="46.35602" lon="-0.38067">
        <ele>76.2</ele>
        <time>2020-05-31T09:24:07Z</time>
      </trkpt>
      <trkpt lat="46.35602" lon="-0.38067">
        <ele>76.2</ele>
        <time>2020-05-31T09:24:08Z</time>
      </trkpt>
      <trkpt lat="46.35602" lon="-0.38067">
        <ele>76.2</ele>
        <time>2020-05-31T09:24:09Z</time>
      </trkpt>
      <trkpt lat="46.35602" lon="-0.38067">
        <ele>76.2</ele>
        <time>2020-05-31T09:24:10Z</time>
      </trkpt>
      <trkpt lat="46.35602" lon="-0.38067">
        <ele>76.2</ele>
        <time>2020-05-31T09:24:11Z</time>
      </trkpt>
      <trkpt lat="46.35601" lon="-0.38067">
        <ele>76.2</ele>
        <time>2020-05-31T09:24:12Z</time>
      </trkpt>
      <trkpt lat="46.35601" lon="-0.38067">
        <ele>76.2</ele>
        <time>2020-05-31T09:24:13Z</time>
      </trkpt>
      <trkpt lat="46.35601" lon="-0.38067">
        <ele>76.2</ele>
        <time>2020-05-31T09:24:14Z</time>
      </trkpt>
      <trkpt lat="46.35601" lon="-0.38067">
        <ele>76.2</ele>
        <time>2020-05-31T09:24:15Z</time>
      </trkpt>
      <trkpt lat="46.35601" lon="-0.38067">
        <ele>76.2</ele>
        <time>2020-05-31T09:24:16Z</time>
      </trkpt>
      <trkpt lat="46.35601" lon="-0.38068">
        <ele>76.2</ele>
        <time>2020-05-31T09:24:17Z</time>
      </trkpt>
      <trkpt lat="46.35601" lon="-0.38068">
        <ele>76.2</ele>
        <time>2020-05-31T09:24:18Z</time>
      </trkpt>
      <trkpt lat="46.35601" lon="-0.38068">
        <ele>76.2</ele>
        <time>2020-05-31T09:24:19Z</time>
      </trkpt>
      <trkpt lat="46.35601" lon="-0.38068">
        <ele>76.2</ele>
        <time>2020-05-31T09:24:20Z</time>
      </trkpt>
      <trkpt lat="46.35601" lon="-0.38067">
        <ele>76.2</ele>
        <time>2020-05-31T09:24:21Z</time>
      </trkpt>
      <trkpt lat="46.35601" lon="-0.38067">
        <ele>76.2</ele>
        <time>2020-05-31T09:24:22Z</time>
      </trkpt>
      <trkpt lat="46.35601" lon="-0.38067">
        <ele>76.2</ele>
        <time>2020-05-31T09:24:23Z</time>
      </trkpt>
      <trkpt lat="46.35601" lon="-0.38067">
        <ele>76.2</ele>
        <time>2020-05-31T09:24:24Z</time>
      </trkpt>
      <trkpt lat="46.35601" lon="-0.38067">
        <ele>76.2</ele>
        <time>2020-05-31T09:24:25Z</time>
      </trkpt>
      <trkpt lat="46.35601" lon="-0.38068">
        <ele>76.2</ele>
        <time>2020-05-31T09:24:26Z</time>
      </trkpt>
      <trkpt lat="46.35601" lon="-0.38068">
        <ele>76.2</ele>
        <time>2020-05-31T09:24:27Z</time>
      </trkpt>
      <trkpt lat="46.35601" lon="-0.38069">
        <ele>76.2</ele>
        <time>2020-05-31T09:24:28Z</time>
      </trkpt>
      <trkpt lat="46.35601" lon="-0.38069">
        <ele>76.2</ele>
        <time>2020-05-31T09:24:29Z</time>
      </trkpt>
      <trkpt lat="46.35601" lon="-0.38069">
        <ele>76.2</ele>
        <time>2020-05-31T09:24:30Z</time>
      </trkpt>
      <trkpt lat="46.35602" lon="-0.38068">
        <ele>76.1</ele>
        <time>2020-05-31T09:24:31Z</time>
      </trkpt>
      <trkpt lat="46.35601" lon="-0.38068">
        <ele>76.1</ele>
        <time>2020-05-31T09:24:32Z</time>
      </trkpt>
      <trkpt lat="46.35602" lon="-0.38069">
        <ele>76.1</ele>
        <time>2020-05-31T09:24:33Z</time>
      </trkpt>
      <trkpt lat="46.35602" lon="-0.3807">
        <ele>76.1</ele>
        <time>2020-05-31T09:24:34Z</time>
      </trkpt>
      <trkpt lat="46.35603" lon="-0.3807">
        <ele>76.1</ele>
        <time>2020-05-31T09:24:35Z</time>
      </trkpt>
      <trkpt lat="46.35603" lon="-0.3807">
        <ele>76.1</ele>
        <time>2020-05-31T09:24:36Z</time>
      </trkpt>
      <trkpt lat="46.35605" lon="-0.38068">
        <ele>76.1</ele>
        <time>2020-05-31T09:24:37Z</time>
      </trkpt>
      <trkpt lat="46.35605" lon="-0.38067">
        <ele>76.1</ele>
        <time>2020-05-31T09:24:38Z</time>
      </trkpt>
      <trkpt lat="46.35605" lon="-0.38067">
        <ele>76.1</ele>
        <time>2020-05-31T09:24:39Z</time>
      </trkpt>
      <trkpt lat="46.35605" lon="-0.38067">
        <ele>76.1</ele>
        <time>2020-05-31T09:24:40Z</time>
      </trkpt>
      <trkpt lat="46.35605" lon="-0.38067">
        <ele>76.1</ele>
        <time>2020-05-31T09:24:41Z</time>
      </trkpt>
      <trkpt lat="46.35605" lon="-0.38067">
        <ele>76.1</ele>
        <time>2020-05-31T09:24:42Z</time>
      </trkpt>
      <trkpt lat="46.35605" lon="-0.38067">
        <ele>76.1</ele>
        <time>2020-05-31T09:24:43Z</time>
      </trkpt>
      <trkpt lat="46.35604" lon="-0.38067">
        <ele>76.1</ele>
        <time>2020-05-31T09:24:44Z</time>
      </trkpt>
      <trkpt lat="46.35604" lon="-0.38068">
        <ele>76.1</ele>
        <time>2020-05-31T09:24:45Z</time>
      </trkpt>
      <trkpt lat="46.35603" lon="-0.38068">
        <ele>76.1</ele>
        <time>2020-05-31T09:24:46Z</time>
      </trkpt>
      <trkpt lat="46.35603" lon="-0.38068">
        <ele>76.1</ele>
        <time>2020-05-31T09:24:47Z</time>
      </trkpt>
      <trkpt lat="46.35603" lon="-0.38068">
        <ele>76.1</ele>
        <time>2020-05-31T09:24:48Z</time>
      </trkpt>
      <trkpt lat="46.35603" lon="-0.38068">
        <ele>76.1</ele>
        <time>2020-05-31T09:24:49Z</time>
      </trkpt>
      <trkpt lat="46.35603" lon="-0.38068">
        <ele>76</ele>
        <time>2020-05-31T09:24:50Z</time>
      </trkpt>
      <trkpt lat="46.35603" lon="-0.38068">
        <ele>76</ele>
        <time>2020-05-31T09:24:51Z</time>
      </trkpt>
      <trkpt lat="46.35603" lon="-0.38068">
        <ele>76</ele>
        <time>2020-05-31T09:24:52Z</time>
      </trkpt>
      <trkpt lat="46.35603" lon="-0.38068">
        <ele>76</ele>
        <time>2020-05-31T09:24:53Z</time>
      </trkpt>
      <trkpt lat="46.35603" lon="-0.38068">
        <ele>76</ele>
        <time>2020-05-31T09:24:54Z</time>
      </trkpt>
      <trkpt lat="46.35603" lon="-0.38068">
        <ele>76</ele>
        <time>2020-05-31T09:24:55Z</time>
      </trkpt>
      <trkpt lat="46.35603" lon="-0.38068">
        <ele>76</ele>
        <time>2020-05-31T09:24:56Z</time>
      </trkpt>
      <trkpt lat="46.35603" lon="-0.38068">
        <ele>76</ele>
        <time>2020-05-31T09:24:57Z</time>
      </trkpt>
      <trkpt lat="46.35603" lon="-0.38068">
        <ele>76</ele>
        <time>2020-05-31T09:24:58Z</time>
      </trkpt>
      <trkpt lat="46.35603" lon="-0.38068">
        <ele>76</ele>
        <time>2020-05-31T09:24:59Z</time>
      </trkpt>
      <trkpt lat="46.35603" lon="-0.38068">
        <ele>76</ele>
        <time>2020-05-31T09:25:00Z</time>
      </trkpt>
      <trkpt lat="46.35603" lon="-0.38068">
        <ele>76</ele>
        <time>2020-05-31T09:25:01Z</time>
      </trkpt>
      <trkpt lat="46.35602" lon="-0.38068">
        <ele>76</ele>
        <time>2020-05-31T09:25:02Z</time>
      </trkpt>
      <trkpt lat="46.35602" lon="-0.38068">
        <ele>76</ele>
        <time>2020-05-31T09:25:03Z</time>
      </trkpt>
      <trkpt lat="46.35602" lon="-0.38068">
        <ele>76</ele>
        <time>2020-05-31T09:25:04Z</time>
      </trkpt>
      <trkpt lat="46.35602" lon="-0.38068">
        <ele>76</ele>
        <time>2020-05-31T09:25:05Z</time>
      </trkpt>
      <trkpt lat="46.35602" lon="-0.38068">
        <ele>76</ele>
        <time>2020-05-31T09:25:06Z</time>
      </trkpt>
      <trkpt lat="46.35602" lon="-0.38068">
        <ele>76</ele>
        <time>2020-05-31T09:25:07Z</time>
      </trkpt>
      <trkpt lat="46.35602" lon="-0.38068">
        <ele>76</ele>
        <time>2020-05-31T09:25:08Z</time>
      </trkpt>
      <trkpt lat="46.35602" lon="-0.38068">
        <ele>76</ele>
        <time>2020-05-31T09:25:09Z</time>
      </trkpt>
      <trkpt lat="46.35602" lon="-0.38068">
        <ele>76</ele>
        <time>2020-05-31T09:25:10Z</time>
      </trkpt>
      <trkpt lat="46.35602" lon="-0.38068">
        <ele>76</ele>
        <time>2020-05-31T09:25:11Z</time>
      </trkpt>
      <trkpt lat="46.35602" lon="-0.38068">
        <ele>76</ele>
        <time>2020-05-31T09:25:12Z</time>
      </trkpt>
      <trkpt lat="46.35602" lon="-0.38068">
        <ele>76</ele>
        <time>2020-05-31T09:25:13Z</time>
      </trkpt>
      <trkpt lat="46.35602" lon="-0.38068">
        <ele>76</ele>
        <time>2020-05-31T09:25:14Z</time>
      </trkpt>
      <trkpt lat="46.35602" lon="-0.38068">
        <ele>76</ele>
        <time>2020-05-31T09:25:15Z</time>
      </trkpt>
      <trkpt lat="46.35602" lon="-0.38068">
        <ele>76</ele>
        <time>2020-05-31T09:25:16Z</time>
      </trkpt>
      <trkpt lat="46.35601" lon="-0.38067">
        <ele>76</ele>
        <time>2020-05-31T09:25:17Z</time>
      </trkpt>
      <trkpt lat="46.35601" lon="-0.38066">
        <ele>76</ele>
        <time>2020-05-31T09:25:18Z</time>
      </trkpt>
      <trkpt lat="46.356" lon="-0.38066">
        <ele>76</ele>
        <time>2020-05-31T09:25:19Z</time>
      </trkpt>
      <trkpt lat="46.356" lon="-0.38066">
        <ele>76</ele>
        <time>2020-05-31T09:25:20Z</time>
      </trkpt>
      <trkpt lat="46.356" lon="-0.38066">
        <ele>76</ele>
        <time>2020-05-31T09:25:21Z</time>
      </trkpt>
      <trkpt lat="46.356" lon="-0.38066">
        <ele>76</ele>
        <time>2020-05-31T09:25:22Z</time>
      </trkpt>
      <trkpt lat="46.356" lon="-0.38066">
        <ele>76</ele>
        <time>2020-05-31T09:25:23Z</time>
      </trkpt>
      <trkpt lat="46.356" lon="-0.38066">
        <ele>76</ele>
        <time>2020-05-31T09:25:24Z</time>
      </trkpt>
      <trkpt lat="46.35599" lon="-0.38066">
        <ele>76</ele>
        <time>2020-05-31T09:25:25Z</time>
      </trkpt>
      <trkpt lat="46.35599" lon="-0.38066">
        <ele>76</ele>
        <time>2020-05-31T09:25:26Z</time>
      </trkpt>
      <trkpt lat="46.35599" lon="-0.38066">
        <ele>76</ele>
        <time>2020-05-31T09:25:27Z</time>
      </trkpt>
      <trkpt lat="46.35598" lon="-0.38065">
        <ele>75.9</ele>
        <time>2020-05-31T09:25:28Z</time>
      </trkpt>
      <trkpt lat="46.35598" lon="-0.38066">
        <ele>75.9</ele>
        <time>2020-05-31T09:25:29Z</time>
      </trkpt>
      <trkpt lat="46.35598" lon="-0.38066">
        <ele>75.9</ele>
        <time>2020-05-31T09:25:30Z</time>
      </trkpt>
      <trkpt lat="46.35598" lon="-0.38066">
        <ele>75.9</ele>
        <time>2020-05-31T09:25:31Z</time>
      </trkpt>
      <trkpt lat="46.35598" lon="-0.38066">
        <ele>75.9</ele>
        <time>2020-05-31T09:25:32Z</time>
      </trkpt>
      <trkpt lat="46.35597" lon="-0.38066">
        <ele>75.9</ele>
        <time>2020-05-31T09:25:33Z</time>
      </trkpt>
      <trkpt lat="46.35598" lon="-0.38066">
        <ele>75.9</ele>
        <time>2020-05-31T09:25:34Z</time>
      </trkpt>
      <trkpt lat="46.35597" lon="-0.38066">
        <ele>75.9</ele>
        <time>2020-05-31T09:25:35Z</time>
      </trkpt>
      <trkpt lat="46.35597" lon="-0.38066">
        <ele>75.9</ele>
        <time>2020-05-31T09:25:36Z</time>
      </trkpt>
      <trkpt lat="46.35598" lon="-0.38066">
        <ele>75.9</ele>
        <time>2020-05-31T09:25:37Z</time>
      </trkpt>
      <trkpt lat="46.35598" lon="-0.38065">
        <ele>75.9</ele>
        <time>2020-05-31T09:25:38Z</time>
      </trkpt>
      <trkpt lat="46.35598" lon="-0.38065">
        <ele>75.9</ele>
        <time>2020-05-31T09:25:39Z</time>
      </trkpt>
      <trkpt lat="46.35598" lon="-0.38065">
        <ele>75.9</ele>
        <time>2020-05-31T09:25:40Z</time>
      </trkpt>
      <trkpt lat="46.35597" lon="-0.38065">
        <ele>75.9</ele>
        <time>2020-05-31T09:25:41Z</time>
      </trkpt>
      <trkpt lat="46.35597" lon="-0.38065">
        <ele>75.9</ele>
        <time>2020-05-31T09:25:42Z</time>
      </trkpt>
      <trkpt lat="46.35597" lon="-0.38065">
        <ele>75.9</ele>
        <time>2020-05-31T09:25:43Z</time>
      </trkpt>
      <trkpt lat="46.35597" lon="-0.38065">
        <ele>75.9</ele>
        <time>2020-05-31T09:25:44Z</time>
      </trkpt>
      <trkpt lat="46.35597" lon="-0.38064">
        <ele>75.9</ele>
        <time>2020-05-31T09:25:45Z</time>
      </trkpt>
      <trkpt lat="46.35597" lon="-0.38064">
        <ele>75.9</ele>
        <time>2020-05-31T09:25:46Z</time>
      </trkpt>
      <trkpt lat="46.35597" lon="-0.38064">
        <ele>75.9</ele>
        <time>2020-05-31T09:25:47Z</time>
      </trkpt>
      <trkpt lat="46.35597" lon="-0.38064">
        <ele>75.9</ele>
        <time>2020-05-31T09:25:48Z</time>
      </trkpt>
      <trkpt lat="46.35597" lon="-0.38064">
        <ele>75.9</ele>
        <time>2020-05-31T09:25:49Z</time>
      </trkpt>
      <trkpt lat="46.35597" lon="-0.38064">
        <ele>75.9</ele>
        <time>2020-05-31T09:25:50Z</time>
      </trkpt>
      <trkpt lat="46.35597" lon="-0.38065">
        <ele>75.9</ele>
        <time>2020-05-31T09:25:51Z</time>
      </trkpt>
      <trkpt lat="46.35596" lon="-0.38065">
        <ele>75.9</ele>
        <time>2020-05-31T09:25:52Z</time>
      </trkpt>
      <trkpt lat="46.35596" lon="-0.38065">
        <ele>75.9</ele>
        <time>2020-05-31T09:25:53Z</time>
      </trkpt>
      <trkpt lat="46.35595" lon="-0.38066">
        <ele>75.9</ele>
        <time>2020-05-31T09:25:54Z</time>
      </trkpt>
      <trkpt lat="46.35595" lon="-0.38066">
        <ele>75.9</ele>
        <time>2020-05-31T09:25:55Z</time>
      </trkpt>
      <trkpt lat="46.35594" lon="-0.38066">
        <ele>75.9</ele>
        <time>2020-05-31T09:25:56Z</time>
      </trkpt>
      <trkpt lat="46.35594" lon="-0.38067">
        <ele>75.9</ele>
        <time>2020-05-31T09:25:57Z</time>
      </trkpt>
      <trkpt lat="46.35594" lon="-0.38067">
        <ele>75.9</ele>
        <time>2020-05-31T09:25:58Z</time>
      </trkpt>
      <trkpt lat="46.35593" lon="-0.38067">
        <ele>75.9</ele>
        <time>2020-05-31T09:25:59Z</time>
      </trkpt>
      <trkpt lat="46.35593" lon="-0.38067">
        <ele>75.9</ele>
        <time>2020-05-31T09:26:00Z</time>
      </trkpt>
      <trkpt lat="46.35592" lon="-0.38068">
        <ele>75.9</ele>
        <time>2020-05-31T09:26:01Z</time>
      </trkpt>
      <trkpt lat="46.3559" lon="-0.38071">
        <ele>75.8</ele>
        <time>2020-05-31T09:26:02Z</time>
      </trkpt>
      <trkpt lat="46.35586" lon="-0.38078">
        <ele>75.8</ele>
        <time>2020-05-31T09:26:03Z</time>
      </trkpt>
      <trkpt lat="46.35582" lon="-0.38085">
        <ele>75.7</ele>
        <time>2020-05-31T09:26:04Z</time>
      </trkpt>
      <trkpt lat="46.35578" lon="-0.38091">
        <ele>75.7</ele>
        <time>2020-05-31T09:26:05Z</time>
      </trkpt>
      <trkpt lat="46.35575" lon="-0.38095">
        <ele>75.7</ele>
        <time>2020-05-31T09:26:06Z</time>
      </trkpt>
      <trkpt lat="46.35572" lon="-0.381">
        <ele>75.6</ele>
        <time>2020-05-31T09:26:07Z</time>
      </trkpt>
      <trkpt lat="46.35569" lon="-0.38105">
        <ele>75.6</ele>
        <time>2020-05-31T09:26:08Z</time>
      </trkpt>
      <trkpt lat="46.35566" lon="-0.3811">
        <ele>75.6</ele>
        <time>2020-05-31T09:26:09Z</time>
      </trkpt>
      <trkpt lat="46.35563" lon="-0.38115">
        <ele>75.4</ele>
        <time>2020-05-31T09:26:10Z</time>
      </trkpt>
      <trkpt lat="46.3556" lon="-0.38121">
        <ele>75.4</ele>
        <time>2020-05-31T09:26:11Z</time>
      </trkpt>
      <trkpt lat="46.35557" lon="-0.38128">
        <ele>75.2</ele>
        <time>2020-05-31T09:26:12Z</time>
      </trkpt>
      <trkpt lat="46.35554" lon="-0.38133">
        <ele>75.1</ele>
        <time>2020-05-31T09:26:13Z</time>
      </trkpt>
      <trkpt lat="46.35551" lon="-0.38138">
        <ele>75.1</ele>
        <time>2020-05-31T09:26:14Z</time>
      </trkpt>
      <trkpt lat="46.35548" lon="-0.38143">
        <ele>75</ele>
        <time>2020-05-31T09:26:15Z</time>
      </trkpt>
      <trkpt lat="46.35544" lon="-0.38148">
        <ele>74.8</ele>
        <time>2020-05-31T09:26:16Z</time>
      </trkpt>
      <trkpt lat="46.3554" lon="-0.38153">
        <ele>74.7</ele>
        <time>2020-05-31T09:26:17Z</time>
      </trkpt>
      <trkpt lat="46.35537" lon="-0.38157">
        <ele>74.5</ele>
        <time>2020-05-31T09:26:18Z</time>
      </trkpt>
      <trkpt lat="46.35533" lon="-0.38163">
        <ele>74.3</ele>
        <time>2020-05-31T09:26:19Z</time>
      </trkpt>
      <trkpt lat="46.35528" lon="-0.38169">
        <ele>74.1</ele>
        <time>2020-05-31T09:26:20Z</time>
      </trkpt>
      <trkpt lat="46.35523" lon="-0.38176">
        <ele>73.9</ele>
        <time>2020-05-31T09:26:21Z</time>
      </trkpt>
      <trkpt lat="46.3552" lon="-0.38182">
        <ele>73.7</ele>
        <time>2020-05-31T09:26:22Z</time>
      </trkpt>
      <trkpt lat="46.35515" lon="-0.3819">
        <ele>73.5</ele>
        <time>2020-05-31T09:26:23Z</time>
      </trkpt>
      <trkpt lat="46.35511" lon="-0.38197">
        <ele>73.4</ele>
        <time>2020-05-31T09:26:24Z</time>
      </trkpt>
      <trkpt lat="46.35507" lon="-0.38203">
        <ele>73.2</ele>
        <time>2020-05-31T09:26:25Z</time>
      </trkpt>
      <trkpt lat="46.35503" lon="-0.3821">
        <ele>73.1</ele>
        <time>2020-05-31T09:26:26Z</time>
      </trkpt>
      <trkpt lat="46.35498" lon="-0.38215">
        <ele>72.9</ele>
        <time>2020-05-31T09:26:27Z</time>
      </trkpt>
      <trkpt lat="46.35493" lon="-0.38222">
        <ele>72.7</ele>
        <time>2020-05-31T09:26:28Z</time>
      </trkpt>
      <trkpt lat="46.35487" lon="-0.38229">
        <ele>72.4</ele>
        <time>2020-05-31T09:26:29Z</time>
      </trkpt>
      <trkpt lat="46.35481" lon="-0.38237">
        <ele>72.2</ele>
        <time>2020-05-31T09:26:30Z</time>
      </trkpt>
      <trkpt lat="46.35475" lon="-0.38244">
        <ele>71.9</ele>
        <time>2020-05-31T09:26:31Z</time>
      </trkpt>
      <trkpt lat="46.35469" lon="-0.38251">
        <ele>71.7</ele>
        <time>2020-05-31T09:26:32Z</time>
      </trkpt>
      <trkpt lat="46.35462" lon="-0.38258">
        <ele>71.5</ele>
        <time>2020-05-31T09:26:33Z</time>
      </trkpt>
      <trkpt lat="46.35455" lon="-0.38265">
        <ele>71.3</ele>
        <time>2020-05-31T09:26:34Z</time>
      </trkpt>
      <trkpt lat="46.35449" lon="-0.38272">
        <ele>71.1</ele>
        <time>2020-05-31T09:26:35Z</time>
      </trkpt>
      <trkpt lat="46.35442" lon="-0.38279">
        <ele>70.8</ele>
        <time>2020-05-31T09:26:36Z</time>
      </trkpt>
      <trkpt lat="46.35436" lon="-0.38286">
        <ele>70.6</ele>
        <time>2020-05-31T09:26:37Z</time>
      </trkpt>
      <trkpt lat="46.35429" lon="-0.38293">
        <ele>70.4</ele>
        <time>2020-05-31T09:26:38Z</time>
      </trkpt>
      <trkpt lat="46.35423" lon="-0.383">
        <ele>70.2</ele>
        <time>2020-05-31T09:26:39Z</time>
      </trkpt>
      <trkpt lat="46.35417" lon="-0.38306">
        <ele>70</ele>
        <time>2020-05-31T09:26:40Z</time>
      </trkpt>
      <trkpt lat="46.3541" lon="-0.38314">
        <ele>69.8</ele>
        <time>2020-05-31T09:26:41Z</time>
      </trkpt>
      <trkpt lat="46.35404" lon="-0.38321">
        <ele>69.6</ele>
        <time>2020-05-31T09:26:42Z</time>
      </trkpt>
      <trkpt lat="46.35399" lon="-0.38329">
        <ele>69.5</ele>
        <time>2020-05-31T09:26:43Z</time>
      </trkpt>
      <trkpt lat="46.35393" lon="-0.38337">
        <ele>69.3</ele>
        <time>2020-05-31T09:26:44Z</time>
      </trkpt>
      <trkpt lat="46.35388" lon="-0.38345">
        <ele>69.1</ele>
        <time>2020-05-31T09:26:45Z</time>
      </trkpt>
      <trkpt lat="46.35383" lon="-0.38353">
        <ele>69</ele>
        <time>2020-05-31T09:26:46Z</time>
      </trkpt>
      <trkpt lat="46.35379" lon="-0.38362">
        <ele>68.8</ele>
        <time>2020-05-31T09:26:47Z</time>
      </trkpt>
      <trkpt lat="46.35374" lon="-0.38371">
        <ele>68.7</ele>
        <time>2020-05-31T09:26:48Z</time>
      </trkpt>
      <trkpt lat="46.35369" lon="-0.3838">
        <ele>68.6</ele>
        <time>2020-05-31T09:26:49Z</time>
      </trkpt>
      <trkpt lat="46.35364" lon="-0.38388">
        <ele>68.4</ele>
        <time>2020-05-31T09:26:50Z</time>
      </trkpt>
      <trkpt lat="46.3536" lon="-0.38398">
        <ele>68.3</ele>
        <time>2020-05-31T09:26:51Z</time>
      </trkpt>
      <trkpt lat="46.35356" lon="-0.38407">
        <ele>68.1</ele>
        <time>2020-05-31T09:26:52Z</time>
      </trkpt>
      <trkpt lat="46.35352" lon="-0.38416">
        <ele>68</ele>
        <time>2020-05-31T09:26:53Z</time>
      </trkpt>
      <trkpt lat="46.35347" lon="-0.38426">
        <ele>67.8</ele>
        <time>2020-05-31T09:26:54Z</time>
      </trkpt>
      <trkpt lat="46.35343" lon="-0.38435">
        <ele>67.7</ele>
        <time>2020-05-31T09:26:55Z</time>
      </trkpt>
      <trkpt lat="46.35338" lon="-0.38444">
        <ele>67.5</ele>
        <time>2020-05-31T09:26:56Z</time>
      </trkpt>
      <trkpt lat="46.35333" lon="-0.38453">
        <ele>67.4</ele>
        <time>2020-05-31T09:26:57Z</time>
      </trkpt>
      <trkpt lat="46.35329" lon="-0.38463">
        <ele>67.4</ele>
        <time>2020-05-31T09:26:58Z</time>
      </trkpt>
      <trkpt lat="46.35324" lon="-0.38473">
        <ele>67.3</ele>
        <time>2020-05-31T09:26:59Z</time>
      </trkpt>
      <trkpt lat="46.3532" lon="-0.38483">
        <ele>67.2</ele>
        <time>2020-05-31T09:27:00Z</time>
      </trkpt>
      <trkpt lat="46.35315" lon="-0.38493">
        <ele>67.1</ele>
        <time>2020-05-31T09:27:01Z</time>
      </trkpt>
      <trkpt lat="46.3531" lon="-0.38503">
        <ele>67</ele>
        <time>2020-05-31T09:27:02Z</time>
      </trkpt>
      <trkpt lat="46.35305" lon="-0.38512">
        <ele>66.9</ele>
        <time>2020-05-31T09:27:03Z</time>
      </trkpt>
      <trkpt lat="46.353" lon="-0.38522">
        <ele>66.8</ele>
        <time>2020-05-31T09:27:04Z</time>
      </trkpt>
      <trkpt lat="46.35295" lon="-0.38531">
        <ele>66.6</ele>
        <time>2020-05-31T09:27:05Z</time>
      </trkpt>
      <trkpt lat="46.3529" lon="-0.3854">
        <ele>66.4</ele>
        <time>2020-05-31T09:27:06Z</time>
      </trkpt>
      <trkpt lat="46.35284" lon="-0.38549">
        <ele>66.3</ele>
        <time>2020-05-31T09:27:07Z</time>
      </trkpt>
      <trkpt lat="46.35279" lon="-0.38559">
        <ele>66.2</ele>
        <time>2020-05-31T09:27:08Z</time>
      </trkpt>
      <trkpt lat="46.35274" lon="-0.38568">
        <ele>66.2</ele>
        <time>2020-05-31T09:27:09Z</time>
      </trkpt>
      <trkpt lat="46.35269" lon="-0.38577">
        <ele>66.1</ele>
        <time>2020-05-31T09:27:10Z</time>
      </trkpt>
      <trkpt lat="46.35265" lon="-0.38586">
        <ele>66.1</ele>
        <time>2020-05-31T09:27:11Z</time>
      </trkpt>
      <trkpt lat="46.3526" lon="-0.38594">
        <ele>66</ele>
        <time>2020-05-31T09:27:12Z</time>
      </trkpt>
      <trkpt lat="46.35255" lon="-0.38602">
        <ele>66</ele>
        <time>2020-05-31T09:27:13Z</time>
      </trkpt>
      <trkpt lat="46.35251" lon="-0.3861">
        <ele>65.9</ele>
        <time>2020-05-31T09:27:14Z</time>
      </trkpt>
      <trkpt lat="46.35247" lon="-0.38617">
        <ele>65.9</ele>
        <time>2020-05-31T09:27:15Z</time>
      </trkpt>
      <trkpt lat="46.35244" lon="-0.38625">
        <ele>65.8</ele>
        <time>2020-05-31T09:27:16Z</time>
      </trkpt>
      <trkpt lat="46.35243" lon="-0.38634">
        <ele>65.8</ele>
        <time>2020-05-31T09:27:17Z</time>
      </trkpt>
      <trkpt lat="46.35243" lon="-0.38642">
        <ele>65.9</ele>
        <time>2020-05-31T09:27:18Z</time>
      </trkpt>
      <trkpt lat="46.35241" lon="-0.38651">
        <ele>65.9</ele>
        <time>2020-05-31T09:27:19Z</time>
      </trkpt>
      <trkpt lat="46.35237" lon="-0.38657">
        <ele>65.9</ele>
        <time>2020-05-31T09:27:20Z</time>
      </trkpt>
      <trkpt lat="46.35231" lon="-0.38659">
        <ele>65.7</ele>
        <time>2020-05-31T09:27:21Z</time>
      </trkpt>
      <trkpt lat="46.35227" lon="-0.38655">
        <ele>65.7</ele>
        <time>2020-05-31T09:27:22Z</time>
      </trkpt>
      <trkpt lat="46.35225" lon="-0.38649">
        <ele>65.6</ele>
        <time>2020-05-31T09:27:23Z</time>
      </trkpt>
      <trkpt lat="46.35224" lon="-0.38641">
        <ele>65.6</ele>
        <time>2020-05-31T09:27:24Z</time>
      </trkpt>
      <trkpt lat="46.35227" lon="-0.38634">
        <ele>65.7</ele>
        <time>2020-05-31T09:27:25Z</time>
      </trkpt>
      <trkpt lat="46.3523" lon="-0.38629">
        <ele>65.7</ele>
        <time>2020-05-31T09:27:26Z</time>
      </trkpt>
      <trkpt lat="46.35235" lon="-0.38626">
        <ele>65.8</ele>
        <time>2020-05-31T09:27:27Z</time>
      </trkpt>
      <trkpt lat="46.3524" lon="-0.38627">
        <ele>65.8</ele>
        <time>2020-05-31T09:27:28Z</time>
      </trkpt>
      <trkpt lat="46.35243" lon="-0.38633">
        <ele>65.8</ele>
        <time>2020-05-31T09:27:29Z</time>
      </trkpt>
      <trkpt lat="46.35244" lon="-0.3864">
        <ele>65.9</ele>
        <time>2020-05-31T09:27:30Z</time>
      </trkpt>
      <trkpt lat="46.35243" lon="-0.38647">
        <ele>65.9</ele>
        <time>2020-05-31T09:27:31Z</time>
      </trkpt>
      <trkpt lat="46.35239" lon="-0.38652">
        <ele>65.9</ele>
        <time>2020-05-31T09:27:32Z</time>
      </trkpt>
      <trkpt lat="46.35235" lon="-0.38656">
        <ele>65.8</ele>
        <time>2020-05-31T09:27:33Z</time>
      </trkpt>
      <trkpt lat="46.35231" lon="-0.3866">
        <ele>65.7</ele>
        <time>2020-05-31T09:27:34Z</time>
      </trkpt>
      <trkpt lat="46.35227" lon="-0.38663">
        <ele>65.7</ele>
        <time>2020-05-31T09:27:35Z</time>
      </trkpt>
      <trkpt lat="46.35222" lon="-0.38665">
        <ele>65.5</ele>
        <time>2020-05-31T09:27:36Z</time>
      </trkpt>
      <trkpt lat="46.35219" lon="-0.38666">
        <ele>65.4</ele>
        <time>2020-05-31T09:27:37Z</time>
      </trkpt>
      <trkpt lat="46.35217" lon="-0.3867">
        <ele>65.4</ele>
        <time>2020-05-31T09:27:38Z</time>
      </trkpt>
      <trkpt lat="46.35218" lon="-0.38675">
        <ele>65.3</ele>
        <time>2020-05-31T09:27:39Z</time>
      </trkpt>
      <trkpt lat="46.35217" lon="-0.38681">
        <ele>65.2</ele>
        <time>2020-05-31T09:27:40Z</time>
      </trkpt>
      <trkpt lat="46.35215" lon="-0.38687">
        <ele>65.2</ele>
        <time>2020-05-31T09:27:41Z</time>
      </trkpt>
      <trkpt lat="46.35212" lon="-0.38692">
        <ele>65.1</ele>
        <time>2020-05-31T09:27:42Z</time>
      </trkpt>
      <trkpt lat="46.35208" lon="-0.38698">
        <ele>64.9</ele>
        <time>2020-05-31T09:27:43Z</time>
      </trkpt>
      <trkpt lat="46.35204" lon="-0.38704">
        <ele>64.8</ele>
        <time>2020-05-31T09:27:44Z</time>
      </trkpt>
      <trkpt lat="46.352" lon="-0.3871">
        <ele>64.7</ele>
        <time>2020-05-31T09:27:45Z</time>
      </trkpt>
      <trkpt lat="46.35196" lon="-0.38717">
        <ele>64.6</ele>
        <time>2020-05-31T09:27:46Z</time>
      </trkpt>
      <trkpt lat="46.35191" lon="-0.38723">
        <ele>64.4</ele>
        <time>2020-05-31T09:27:47Z</time>
      </trkpt>
      <trkpt lat="46.35186" lon="-0.38729">
        <ele>64.3</ele>
        <time>2020-05-31T09:27:48Z</time>
      </trkpt>
      <trkpt lat="46.35181" lon="-0.38736">
        <ele>64.2</ele>
        <time>2020-05-31T09:27:49Z</time>
      </trkpt>
      <trkpt lat="46.35176" lon="-0.38743">
        <ele>64.1</ele>
        <time>2020-05-31T09:27:50Z</time>
      </trkpt>
      <trkpt lat="46.3517" lon="-0.3875">
        <ele>64</ele>
        <time>2020-05-31T09:27:51Z</time>
      </trkpt>
      <trkpt lat="46.35165" lon="-0.38758">
        <ele>63.8</ele>
        <time>2020-05-31T09:27:52Z</time>
      </trkpt>
      <trkpt lat="46.3516" lon="-0.38766">
        <ele>63.7</ele>
        <time>2020-05-31T09:27:53Z</time>
      </trkpt>
      <trkpt lat="46.35155" lon="-0.38774">
        <ele>63.6</ele>
        <time>2020-05-31T09:27:54Z</time>
      </trkpt>
      <trkpt lat="46.3515" lon="-0.38783">
        <ele>63.5</ele>
        <time>2020-05-31T09:27:55Z</time>
      </trkpt>
      <trkpt lat="46.35145" lon="-0.38791">
        <ele>63.3</ele>
        <time>2020-05-31T09:27:56Z</time>
      </trkpt>
      <trkpt lat="46.3514" lon="-0.38799">
        <ele>63.2</ele>
        <time>2020-05-31T09:27:57Z</time>
      </trkpt>
      <trkpt lat="46.35135" lon="-0.38808">
        <ele>63.2</ele>
        <time>2020-05-31T09:27:58Z</time>
      </trkpt>
      <trkpt lat="46.35129" lon="-0.38817">
        <ele>63.1</ele>
        <time>2020-05-31T09:27:59Z</time>
      </trkpt>
      <trkpt lat="46.35124" lon="-0.38825">
        <ele>63</ele>
        <time>2020-05-31T09:28:00Z</time>
      </trkpt>
      <trkpt lat="46.3512" lon="-0.38833">
        <ele>62.9</ele>
        <time>2020-05-31T09:28:01Z</time>
      </trkpt>
      <trkpt lat="46.35115" lon="-0.38842">
        <ele>62.8</ele>
        <time>2020-05-31T09:28:02Z</time>
      </trkpt>
      <trkpt lat="46.35111" lon="-0.38851">
        <ele>62.7</ele>
        <time>2020-05-31T09:28:03Z</time>
      </trkpt>
      <trkpt lat="46.35107" lon="-0.38859">
        <ele>62.7</ele>
        <time>2020-05-31T09:28:04Z</time>
      </trkpt>
      <trkpt lat="46.35103" lon="-0.38867">
        <ele>62.6</ele>
        <time>2020-05-31T09:28:05Z</time>
      </trkpt>
      <trkpt lat="46.35099" lon="-0.38875">
        <ele>62.5</ele>
        <time>2020-05-31T09:28:06Z</time>
      </trkpt>
      <trkpt lat="46.35096" lon="-0.38881">
        <ele>62.4</ele>
        <time>2020-05-31T09:28:07Z</time>
      </trkpt>
      <trkpt lat="46.35093" lon="-0.38888">
        <ele>62.4</ele>
        <time>2020-05-31T09:28:08Z</time>
      </trkpt>
      <trkpt lat="46.3509" lon="-0.38895">
        <ele>62.4</ele>
        <time>2020-05-31T09:28:09Z</time>
      </trkpt>
      <trkpt lat="46.35086" lon="-0.38901">
        <ele>62.4</ele>
        <time>2020-05-31T09:28:10Z</time>
      </trkpt>
      <trkpt lat="46.35082" lon="-0.38907">
        <ele>62.4</ele>
        <time>2020-05-31T09:28:11Z</time>
      </trkpt>
      <trkpt lat="46.35079" lon="-0.38914">
        <ele>62.5</ele>
        <time>2020-05-31T09:28:12Z</time>
      </trkpt>
      <trkpt lat="46.35075" lon="-0.3892">
        <ele>62.6</ele>
        <time>2020-05-31T09:28:13Z</time>
      </trkpt>
      <trkpt lat="46.35071" lon="-0.38927">
        <ele>62.6</ele>
        <time>2020-05-31T09:28:14Z</time>
      </trkpt>
      <trkpt lat="46.35068" lon="-0.38934">
        <ele>62.7</ele>
        <time>2020-05-31T09:28:15Z</time>
      </trkpt>
      <trkpt lat="46.35065" lon="-0.38939">
        <ele>62.8</ele>
        <time>2020-05-31T09:28:16Z</time>
      </trkpt>
      <trkpt lat="46.35062" lon="-0.38945">
        <ele>62.8</ele>
        <time>2020-05-31T09:28:17Z</time>
      </trkpt>
      <trkpt lat="46.35059" lon="-0.38951">
        <ele>62.9</ele>
        <time>2020-05-31T09:28:18Z</time>
      </trkpt>
      <trkpt lat="46.35056" lon="-0.38957">
        <ele>62.9</ele>
        <time>2020-05-31T09:28:19Z</time>
      </trkpt>
      <trkpt lat="46.35053" lon="-0.38962">
        <ele>63</ele>
        <time>2020-05-31T09:28:20Z</time>
      </trkpt>
      <trkpt lat="46.35049" lon="-0.38968">
        <ele>63</ele>
        <time>2020-05-31T09:28:21Z</time>
      </trkpt>
      <trkpt lat="46.35046" lon="-0.38973">
        <ele>63</ele>
        <time>2020-05-31T09:28:22Z</time>
      </trkpt>
      <trkpt lat="46.35042" lon="-0.38978">
        <ele>63</ele>
        <time>2020-05-31T09:28:23Z</time>
      </trkpt>
      <trkpt lat="46.35038" lon="-0.38983">
        <ele>63</ele>
        <time>2020-05-31T09:28:24Z</time>
      </trkpt>
      <trkpt lat="46.35034" lon="-0.38987">
        <ele>62.9</ele>
        <time>2020-05-31T09:28:25Z</time>
      </trkpt>
      <trkpt lat="46.3503" lon="-0.38992">
        <ele>62.9</ele>
        <time>2020-05-31T09:28:26Z</time>
      </trkpt>
      <trkpt lat="46.35026" lon="-0.38997">
        <ele>63</ele>
        <time>2020-05-31T09:28:27Z</time>
      </trkpt>
      <trkpt lat="46.35022" lon="-0.39003">
        <ele>62.9</ele>
        <time>2020-05-31T09:28:28Z</time>
      </trkpt>
      <trkpt lat="46.35018" lon="-0.39009">
        <ele>62.9</ele>
        <time>2020-05-31T09:28:29Z</time>
      </trkpt>
      <trkpt lat="46.35014" lon="-0.39014">
        <ele>62.9</ele>
        <time>2020-05-31T09:28:30Z</time>
      </trkpt>
      <trkpt lat="46.3501" lon="-0.3902">
        <ele>62.8</ele>
        <time>2020-05-31T09:28:31Z</time>
      </trkpt>
      <trkpt lat="46.35005" lon="-0.39026">
        <ele>62.7</ele>
        <time>2020-05-31T09:28:32Z</time>
      </trkpt>
      <trkpt lat="46.35001" lon="-0.39031">
        <ele>62.7</ele>
        <time>2020-05-31T09:28:33Z</time>
      </trkpt>
      <trkpt lat="46.34996" lon="-0.39037">
        <ele>62.6</ele>
        <time>2020-05-31T09:28:34Z</time>
      </trkpt>
      <trkpt lat="46.34991" lon="-0.39042">
        <ele>62.5</ele>
        <time>2020-05-31T09:28:35Z</time>
      </trkpt>
      <trkpt lat="46.34986" lon="-0.39046">
        <ele>62.5</ele>
        <time>2020-05-31T09:28:36Z</time>
      </trkpt>
      <trkpt lat="46.3498" lon="-0.3905">
        <ele>62.5</ele>
        <time>2020-05-31T09:28:37Z</time>
      </trkpt>
      <trkpt lat="46.34975" lon="-0.39053">
        <ele>62.4</ele>
        <time>2020-05-31T09:28:38Z</time>
      </trkpt>
      <trkpt lat="46.3497" lon="-0.39057">
        <ele>62.4</ele>
        <time>2020-05-31T09:28:39Z</time>
      </trkpt>
      <trkpt lat="46.34966" lon="-0.39059">
        <ele>62.4</ele>
        <time>2020-05-31T09:28:40Z</time>
      </trkpt>
      <trkpt lat="46.34964" lon="-0.39063">
        <ele>62.4</ele>
        <time>2020-05-31T09:28:41Z</time>
      </trkpt>
      <trkpt lat="46.34961" lon="-0.39065">
        <ele>62.4</ele>
        <time>2020-05-31T09:28:42Z</time>
      </trkpt>
      <trkpt lat="46.34958" lon="-0.39069">
        <ele>62.4</ele>
        <time>2020-05-31T09:28:43Z</time>
      </trkpt>
      <trkpt lat="46.34958" lon="-0.39071">
        <ele>62.4</ele>
        <time>2020-05-31T09:28:44Z</time>
      </trkpt>
      <trkpt lat="46.34955" lon="-0.39075">
        <ele>62.5</ele>
        <time>2020-05-31T09:28:45Z</time>
      </trkpt>
      <trkpt lat="46.34951" lon="-0.39077">
        <ele>62.5</ele>
        <time>2020-05-31T09:28:46Z</time>
      </trkpt>
      <trkpt lat="46.34948" lon="-0.3908">
        <ele>62.5</ele>
        <time>2020-05-31T09:28:47Z</time>
      </trkpt>
      <trkpt lat="46.34945" lon="-0.39082">
        <ele>62.6</ele>
        <time>2020-05-31T09:28:48Z</time>
      </trkpt>
      <trkpt lat="46.34942" lon="-0.39086">
        <ele>62.6</ele>
        <time>2020-05-31T09:28:49Z</time>
      </trkpt>
      <trkpt lat="46.3494" lon="-0.3909">
        <ele>62.6</ele>
        <time>2020-05-31T09:28:50Z</time>
      </trkpt>
      <trkpt lat="46.34936" lon="-0.39094">
        <ele>62.7</ele>
        <time>2020-05-31T09:28:51Z</time>
      </trkpt>
      <trkpt lat="46.34932" lon="-0.39098">
        <ele>62.8</ele>
        <time>2020-05-31T09:28:52Z</time>
      </trkpt>
      <trkpt lat="46.34928" lon="-0.39101">
        <ele>62.8</ele>
        <time>2020-05-31T09:28:53Z</time>
      </trkpt>
      <trkpt lat="46.34924" lon="-0.39104">
        <ele>62.9</ele>
        <time>2020-05-31T09:28:54Z</time>
      </trkpt>
      <trkpt lat="46.34921" lon="-0.39107">
        <ele>63</ele>
        <time>2020-05-31T09:28:55Z</time>
      </trkpt>
      <trkpt lat="46.34918" lon="-0.39111">
        <ele>63.1</ele>
        <time>2020-05-31T09:28:56Z</time>
      </trkpt>
      <trkpt lat="46.34915" lon="-0.39114">
        <ele>63.1</ele>
        <time>2020-05-31T09:28:57Z</time>
      </trkpt>
      <trkpt lat="46.34911" lon="-0.39118">
        <ele>63.2</ele>
        <time>2020-05-31T09:28:58Z</time>
      </trkpt>
      <trkpt lat="46.34907" lon="-0.39122">
        <ele>63.3</ele>
        <time>2020-05-31T09:28:59Z</time>
      </trkpt>
      <trkpt lat="46.34902" lon="-0.39127">
        <ele>63.5</ele>
        <time>2020-05-31T09:29:00Z</time>
      </trkpt>
      <trkpt lat="46.34898" lon="-0.39131">
        <ele>63.6</ele>
        <time>2020-05-31T09:29:01Z</time>
      </trkpt>
      <trkpt lat="46.34893" lon="-0.39136">
        <ele>63.7</ele>
        <time>2020-05-31T09:29:02Z</time>
      </trkpt>
      <trkpt lat="46.34887" lon="-0.39142">
        <ele>63.8</ele>
        <time>2020-05-31T09:29:03Z</time>
      </trkpt>
      <trkpt lat="46.34882" lon="-0.39147">
        <ele>64</ele>
        <time>2020-05-31T09:29:04Z</time>
      </trkpt>
      <trkpt lat="46.34877" lon="-0.39152">
        <ele>64</ele>
        <time>2020-05-31T09:29:05Z</time>
      </trkpt>
      <trkpt lat="46.34872" lon="-0.39156">
        <ele>64.1</ele>
        <time>2020-05-31T09:29:06Z</time>
      </trkpt>
      <trkpt lat="46.34867" lon="-0.3916">
        <ele>64.2</ele>
        <time>2020-05-31T09:29:07Z</time>
      </trkpt>
      <trkpt lat="46.34863" lon="-0.39163">
        <ele>64.3</ele>
        <time>2020-05-31T09:29:08Z</time>
      </trkpt>
      <trkpt lat="46.34859" lon="-0.39165">
        <ele>64.4</ele>
        <time>2020-05-31T09:29:09Z</time>
      </trkpt>
      <trkpt lat="46.34856" lon="-0.39169">
        <ele>64.6</ele>
        <time>2020-05-31T09:29:10Z</time>
      </trkpt>
      <trkpt lat="46.34852" lon="-0.39172">
        <ele>64.7</ele>
        <time>2020-05-31T09:29:11Z</time>
      </trkpt>
      <trkpt lat="46.34849" lon="-0.39175">
        <ele>64.8</ele>
        <time>2020-05-31T09:29:12Z</time>
      </trkpt>
      <trkpt lat="46.34846" lon="-0.3918">
        <ele>64.9</ele>
        <time>2020-05-31T09:29:13Z</time>
      </trkpt>
      <trkpt lat="46.34843" lon="-0.39184">
        <ele>65</ele>
        <time>2020-05-31T09:29:14Z</time>
      </trkpt>
      <trkpt lat="46.34841" lon="-0.39188">
        <ele>65</ele>
        <time>2020-05-31T09:29:15Z</time>
      </trkpt>
      <trkpt lat="46.34839" lon="-0.39191">
        <ele>65.1</ele>
        <time>2020-05-31T09:29:16Z</time>
      </trkpt>
      <trkpt lat="46.34836" lon="-0.39194">
        <ele>65.1</ele>
        <time>2020-05-31T09:29:17Z</time>
      </trkpt>
      <trkpt lat="46.34834" lon="-0.39197">
        <ele>65.1</ele>
        <time>2020-05-31T09:29:18Z</time>
      </trkpt>
      <trkpt lat="46.3483" lon="-0.392">
        <ele>65.2</ele>
        <time>2020-05-31T09:29:19Z</time>
      </trkpt>
      <trkpt lat="46.34827" lon="-0.39203">
        <ele>65.2</ele>
        <time>2020-05-31T09:29:20Z</time>
      </trkpt>
      <trkpt lat="46.34824" lon="-0.39207">
        <ele>65.3</ele>
        <time>2020-05-31T09:29:21Z</time>
      </trkpt>
      <trkpt lat="46.34821" lon="-0.39211">
        <ele>65.3</ele>
        <time>2020-05-31T09:29:22Z</time>
      </trkpt>
      <trkpt lat="46.34818" lon="-0.39215">
        <ele>65.4</ele>
        <time>2020-05-31T09:29:23Z</time>
      </trkpt>
      <trkpt lat="46.34816" lon="-0.39218">
        <ele>65.4</ele>
        <time>2020-05-31T09:29:24Z</time>
      </trkpt>
      <trkpt lat="46.34814" lon="-0.39222">
        <ele>65.4</ele>
        <time>2020-05-31T09:29:25Z</time>
      </trkpt>
      <trkpt lat="46.3481" lon="-0.39227">
        <ele>65.5</ele>
        <time>2020-05-31T09:29:26Z</time>
      </trkpt>
      <trkpt lat="46.34808" lon="-0.39231">
        <ele>65.5</ele>
        <time>2020-05-31T09:29:27Z</time>
      </trkpt>
      <trkpt lat="46.34805" lon="-0.39236">
        <ele>65.6</ele>
        <time>2020-05-31T09:29:28Z</time>
      </trkpt>
      <trkpt lat="46.34803" lon="-0.3924">
        <ele>65.6</ele>
        <time>2020-05-31T09:29:29Z</time>
      </trkpt>
      <trkpt lat="46.34802" lon="-0.39244">
        <ele>65.7</ele>
        <time>2020-05-31T09:29:30Z</time>
      </trkpt>
      <trkpt lat="46.348" lon="-0.39248">
        <ele>65.8</ele>
        <time>2020-05-31T09:29:31Z</time>
      </trkpt>
      <trkpt lat="46.34797" lon="-0.39253">
        <ele>65.8</ele>
        <time>2020-05-31T09:29:32Z</time>
      </trkpt>
      <trkpt lat="46.34795" lon="-0.39258">
        <ele>65.9</ele>
        <time>2020-05-31T09:29:33Z</time>
      </trkpt>
      <trkpt lat="46.34792" lon="-0.39261">
        <ele>66</ele>
        <time>2020-05-31T09:29:34Z</time>
      </trkpt>
      <trkpt lat="46.3479" lon="-0.39266">
        <ele>66.1</ele>
        <time>2020-05-31T09:29:35Z</time>
      </trkpt>
      <trkpt lat="46.34787" lon="-0.39271">
        <ele>66.2</ele>
        <time>2020-05-31T09:29:36Z</time>
      </trkpt>
      <trkpt lat="46.34785" lon="-0.39276">
        <ele>66.3</ele>
        <time>2020-05-31T09:29:37Z</time>
      </trkpt>
      <trkpt lat="46.34782" lon="-0.39282">
        <ele>66.4</ele>
        <time>2020-05-31T09:29:38Z</time>
      </trkpt>
      <trkpt lat="46.34779" lon="-0.39287">
        <ele>66.5</ele>
        <time>2020-05-31T09:29:39Z</time>
      </trkpt>
      <trkpt lat="46.34777" lon="-0.39294">
        <ele>66.6</ele>
        <time>2020-05-31T09:29:40Z</time>
      </trkpt>
      <trkpt lat="46.34774" lon="-0.39299">
        <ele>66.8</ele>
        <time>2020-05-31T09:29:41Z</time>
      </trkpt>
      <trkpt lat="46.34772" lon="-0.39305">
        <ele>66.9</ele>
        <time>2020-05-31T09:29:42Z</time>
      </trkpt>
      <trkpt lat="46.34769" lon="-0.39312">
        <ele>67.1</ele>
        <time>2020-05-31T09:29:43Z</time>
      </trkpt>
      <trkpt lat="46.34767" lon="-0.39318">
        <ele>67.2</ele>
        <time>2020-05-31T09:29:44Z</time>
      </trkpt>
      <trkpt lat="46.34766" lon="-0.39323">
        <ele>67.3</ele>
        <time>2020-05-31T09:29:45Z</time>
      </trkpt>
      <trkpt lat="46.34764" lon="-0.39329">
        <ele>67.4</ele>
        <time>2020-05-31T09:29:46Z</time>
      </trkpt>
      <trkpt lat="46.34763" lon="-0.39335">
        <ele>67.5</ele>
        <time>2020-05-31T09:29:47Z</time>
      </trkpt>
      <trkpt lat="46.34762" lon="-0.3934">
        <ele>67.6</ele>
        <time>2020-05-31T09:29:48Z</time>
      </trkpt>
      <trkpt lat="46.3476" lon="-0.39347">
        <ele>67.8</ele>
        <time>2020-05-31T09:29:49Z</time>
      </trkpt>
      <trkpt lat="46.34757" lon="-0.39353">
        <ele>67.9</ele>
        <time>2020-05-31T09:29:50Z</time>
      </trkpt>
      <trkpt lat="46.34755" lon="-0.39359">
        <ele>68</ele>
        <time>2020-05-31T09:29:51Z</time>
      </trkpt>
      <trkpt lat="46.34754" lon="-0.39365">
        <ele>68.2</ele>
        <time>2020-05-31T09:29:52Z</time>
      </trkpt>
      <trkpt lat="46.34752" lon="-0.39371">
        <ele>68.3</ele>
        <time>2020-05-31T09:29:53Z</time>
      </trkpt>
      <trkpt lat="46.3475" lon="-0.39378">
        <ele>68.4</ele>
        <time>2020-05-31T09:29:54Z</time>
      </trkpt>
      <trkpt lat="46.34748" lon="-0.39384">
        <ele>68.5</ele>
        <time>2020-05-31T09:29:55Z</time>
      </trkpt>
      <trkpt lat="46.34748" lon="-0.39389">
        <ele>68.7</ele>
        <time>2020-05-31T09:29:56Z</time>
      </trkpt>
      <trkpt lat="46.34747" lon="-0.39396">
        <ele>68.8</ele>
        <time>2020-05-31T09:29:57Z</time>
      </trkpt>
      <trkpt lat="46.34747" lon="-0.39402">
        <ele>68.9</ele>
        <time>2020-05-31T09:29:58Z</time>
      </trkpt>
      <trkpt lat="46.34747" lon="-0.39408">
        <ele>69.1</ele>
        <time>2020-05-31T09:29:59Z</time>
      </trkpt>
      <trkpt lat="46.34746" lon="-0.39412">
        <ele>69.2</ele>
        <time>2020-05-31T09:30:00Z</time>
      </trkpt>
      <trkpt lat="46.34745" lon="-0.39419">
        <ele>69.4</ele>
        <time>2020-05-31T09:30:01Z</time>
      </trkpt>
      <trkpt lat="46.34744" lon="-0.39424">
        <ele>69.6</ele>
        <time>2020-05-31T09:30:02Z</time>
      </trkpt>
      <trkpt lat="46.34743" lon="-0.39429">
        <ele>69.7</ele>
        <time>2020-05-31T09:30:03Z</time>
      </trkpt>
      <trkpt lat="46.34742" lon="-0.39433">
        <ele>69.9</ele>
        <time>2020-05-31T09:30:04Z</time>
      </trkpt>
      <trkpt lat="46.3474" lon="-0.39439">
        <ele>70.1</ele>
        <time>2020-05-31T09:30:05Z</time>
      </trkpt>
      <trkpt lat="46.34738" lon="-0.39444">
        <ele>70.3</ele>
        <time>2020-05-31T09:30:06Z</time>
      </trkpt>
      <trkpt lat="46.34735" lon="-0.3945">
        <ele>70.6</ele>
        <time>2020-05-31T09:30:07Z</time>
      </trkpt>
      <trkpt lat="46.34732" lon="-0.39454">
        <ele>70.9</ele>
        <time>2020-05-31T09:30:08Z</time>
      </trkpt>
      <trkpt lat="46.3473" lon="-0.39458">
        <ele>71.1</ele>
        <time>2020-05-31T09:30:09Z</time>
      </trkpt>
      <trkpt lat="46.34728" lon="-0.39463">
        <ele>71.3</ele>
        <time>2020-05-31T09:30:10Z</time>
      </trkpt>
      <trkpt lat="46.34727" lon="-0.39467">
        <ele>71.5</ele>
        <time>2020-05-31T09:30:11Z</time>
      </trkpt>
      <trkpt lat="46.34725" lon="-0.39471">
        <ele>71.7</ele>
        <time>2020-05-31T09:30:12Z</time>
      </trkpt>
      <trkpt lat="46.34723" lon="-0.39476">
        <ele>72</ele>
        <time>2020-05-31T09:30:13Z</time>
      </trkpt>
      <trkpt lat="46.3472" lon="-0.39482">
        <ele>72.3</ele>
        <time>2020-05-31T09:30:14Z</time>
      </trkpt>
      <trkpt lat="46.34718" lon="-0.39486">
        <ele>72.5</ele>
        <time>2020-05-31T09:30:15Z</time>
      </trkpt>
      <trkpt lat="46.34715" lon="-0.39491">
        <ele>72.8</ele>
        <time>2020-05-31T09:30:16Z</time>
      </trkpt>
      <trkpt lat="46.34713" lon="-0.39496">
        <ele>73</ele>
        <time>2020-05-31T09:30:17Z</time>
      </trkpt>
      <trkpt lat="46.3471" lon="-0.395">
        <ele>73.3</ele>
        <time>2020-05-31T09:30:18Z</time>
      </trkpt>
      <trkpt lat="46.34709" lon="-0.39505">
        <ele>73.5</ele>
        <time>2020-05-31T09:30:19Z</time>
      </trkpt>
      <trkpt lat="46.3471" lon="-0.39509">
        <ele>73.6</ele>
        <time>2020-05-31T09:30:20Z</time>
      </trkpt>
      <trkpt lat="46.3471" lon="-0.3951">
        <ele>73.7</ele>
        <time>2020-05-31T09:30:21Z</time>
      </trkpt>
      <trkpt lat="46.34709" lon="-0.39515">
        <ele>73.8</ele>
        <time>2020-05-31T09:30:22Z</time>
      </trkpt>
      <trkpt lat="46.34709" lon="-0.39516">
        <ele>73.9</ele>
        <time>2020-05-31T09:30:23Z</time>
      </trkpt>
      <trkpt lat="46.34709" lon="-0.39519">
        <ele>73.9</ele>
        <time>2020-05-31T09:30:24Z</time>
      </trkpt>
      <trkpt lat="46.34709" lon="-0.39522">
        <ele>74</ele>
        <time>2020-05-31T09:30:25Z</time>
      </trkpt>
      <trkpt lat="46.34708" lon="-0.39524">
        <ele>74.1</ele>
        <time>2020-05-31T09:30:26Z</time>
      </trkpt>
      <trkpt lat="46.34709" lon="-0.39526">
        <ele>74.1</ele>
        <time>2020-05-31T09:30:27Z</time>
      </trkpt>
      <trkpt lat="46.34709" lon="-0.39526">
        <ele>74.1</ele>
        <time>2020-05-31T09:30:28Z</time>
      </trkpt>
      <trkpt lat="46.34709" lon="-0.39527">
        <ele>74.2</ele>
        <time>2020-05-31T09:30:29Z</time>
      </trkpt>
      <trkpt lat="46.34709" lon="-0.39528">
        <ele>74.2</ele>
        <time>2020-05-31T09:30:30Z</time>
      </trkpt>
      <trkpt lat="46.34708" lon="-0.39528">
        <ele>74.2</ele>
        <time>2020-05-31T09:30:31Z</time>
      </trkpt>
      <trkpt lat="46.34708" lon="-0.39528">
        <ele>74.2</ele>
        <time>2020-05-31T09:30:32Z</time>
      </trkpt>
      <trkpt lat="46.34708" lon="-0.39529">
        <ele>74.2</ele>
        <time>2020-05-31T09:30:33Z</time>
      </trkpt>
      <trkpt lat="46.34708" lon="-0.39529">
        <ele>74.2</ele>
        <time>2020-05-31T09:30:34Z</time>
      </trkpt>
      <trkpt lat="46.34708" lon="-0.39529">
        <ele>74.2</ele>
        <time>2020-05-31T09:30:35Z</time>
      </trkpt>
      <trkpt lat="46.34709" lon="-0.3953">
        <ele>74.3</ele>
        <time>2020-05-31T09:30:36Z</time>
      </trkpt>
      <trkpt lat="46.34709" lon="-0.3953">
        <ele>74.3</ele>
        <time>2020-05-31T09:30:37Z</time>
      </trkpt>
      <trkpt lat="46.34709" lon="-0.39529">
        <ele>74.3</ele>
        <time>2020-05-31T09:30:38Z</time>
      </trkpt>
      <trkpt lat="46.34709" lon="-0.39529">
        <ele>74.3</ele>
        <time>2020-05-31T09:30:39Z</time>
      </trkpt>
      <trkpt lat="46.34709" lon="-0.39528">
        <ele>74.3</ele>
        <time>2020-05-31T09:30:40Z</time>
      </trkpt>
      <trkpt lat="46.34708" lon="-0.39531">
        <ele>74.3</ele>
        <time>2020-05-31T09:30:41Z</time>
      </trkpt>
      <trkpt lat="46.34707" lon="-0.39534">
        <ele>74.4</ele>
        <time>2020-05-31T09:30:42Z</time>
      </trkpt>
      <trkpt lat="46.34704" lon="-0.39538">
        <ele>74.5</ele>
        <time>2020-05-31T09:30:43Z</time>
      </trkpt>
      <trkpt lat="46.34703" lon="-0.39539">
        <ele>74.7</ele>
        <time>2020-05-31T09:30:44Z</time>
      </trkpt>
      <trkpt lat="46.34699" lon="-0.3954">
        <ele>74.9</ele>
        <time>2020-05-31T09:30:45Z</time>
      </trkpt>
      <trkpt lat="46.34695" lon="-0.39541">
        <ele>75</ele>
        <time>2020-05-31T09:30:46Z</time>
      </trkpt>
      <trkpt lat="46.34694" lon="-0.39542">
        <ele>75.1</ele>
        <time>2020-05-31T09:30:47Z</time>
      </trkpt>
      <trkpt lat="46.34691" lon="-0.39544">
        <ele>75.2</ele>
        <time>2020-05-31T09:30:48Z</time>
      </trkpt>
      <trkpt lat="46.34688" lon="-0.39548">
        <ele>75.3</ele>
        <time>2020-05-31T09:30:49Z</time>
      </trkpt>
      <trkpt lat="46.34685" lon="-0.39553">
        <ele>75.5</ele>
        <time>2020-05-31T09:30:50Z</time>
      </trkpt>
      <trkpt lat="46.34683" lon="-0.39557">
        <ele>75.6</ele>
        <time>2020-05-31T09:30:51Z</time>
      </trkpt>
      <trkpt lat="46.34681" lon="-0.39561">
        <ele>75.7</ele>
        <time>2020-05-31T09:30:52Z</time>
      </trkpt>
      <trkpt lat="46.34679" lon="-0.39566">
        <ele>75.8</ele>
        <time>2020-05-31T09:30:53Z</time>
      </trkpt>
      <trkpt lat="46.34676" lon="-0.3957">
        <ele>75.9</ele>
        <time>2020-05-31T09:30:54Z</time>
      </trkpt>
      <trkpt lat="46.34675" lon="-0.39574">
        <ele>76</ele>
        <time>2020-05-31T09:30:55Z</time>
      </trkpt>
      <trkpt lat="46.34672" lon="-0.39578">
        <ele>76.1</ele>
        <time>2020-05-31T09:30:56Z</time>
      </trkpt>
      <trkpt lat="46.34671" lon="-0.39582">
        <ele>76.2</ele>
        <time>2020-05-31T09:30:57Z</time>
      </trkpt>
      <trkpt lat="46.34668" lon="-0.39587">
        <ele>76.3</ele>
        <time>2020-05-31T09:30:58Z</time>
      </trkpt>
      <trkpt lat="46.34666" lon="-0.39592">
        <ele>76.4</ele>
        <time>2020-05-31T09:30:59Z</time>
      </trkpt>
      <trkpt lat="46.34665" lon="-0.39596">
        <ele>76.5</ele>
        <time>2020-05-31T09:31:00Z</time>
      </trkpt>
      <trkpt lat="46.34663" lon="-0.39601">
        <ele>76.5</ele>
        <time>2020-05-31T09:31:01Z</time>
      </trkpt>
      <trkpt lat="46.34661" lon="-0.39606">
        <ele>76.6</ele>
        <time>2020-05-31T09:31:02Z</time>
      </trkpt>
      <trkpt lat="46.34658" lon="-0.39611">
        <ele>76.7</ele>
        <time>2020-05-31T09:31:03Z</time>
      </trkpt>
      <trkpt lat="46.34655" lon="-0.39616">
        <ele>76.8</ele>
        <time>2020-05-31T09:31:04Z</time>
      </trkpt>
      <trkpt lat="46.34652" lon="-0.3962">
        <ele>76.9</ele>
        <time>2020-05-31T09:31:05Z</time>
      </trkpt>
      <trkpt lat="46.34649" lon="-0.39625">
        <ele>77</ele>
        <time>2020-05-31T09:31:06Z</time>
      </trkpt>
      <trkpt lat="46.34646" lon="-0.3963">
        <ele>77.1</ele>
        <time>2020-05-31T09:31:07Z</time>
      </trkpt>
      <trkpt lat="46.34643" lon="-0.39634">
        <ele>77.2</ele>
        <time>2020-05-31T09:31:08Z</time>
      </trkpt>
      <trkpt lat="46.3464" lon="-0.39638">
        <ele>77.3</ele>
        <time>2020-05-31T09:31:09Z</time>
      </trkpt>
      <trkpt lat="46.34637" lon="-0.39642">
        <ele>77.3</ele>
        <time>2020-05-31T09:31:10Z</time>
      </trkpt>
      <trkpt lat="46.34635" lon="-0.39647">
        <ele>77.4</ele>
        <time>2020-05-31T09:31:11Z</time>
      </trkpt>
      <trkpt lat="46.34633" lon="-0.39653">
        <ele>77.5</ele>
        <time>2020-05-31T09:31:12Z</time>
      </trkpt>
      <trkpt lat="46.34632" lon="-0.39655">
        <ele>77.5</ele>
        <time>2020-05-31T09:31:13Z</time>
      </trkpt>
      <trkpt lat="46.3463" lon="-0.39661">
        <ele>77.5</ele>
        <time>2020-05-31T09:31:14Z</time>
      </trkpt>
      <trkpt lat="46.34628" lon="-0.39667">
        <ele>77.6</ele>
        <time>2020-05-31T09:31:15Z</time>
      </trkpt>
      <trkpt lat="46.34626" lon="-0.39672">
        <ele>77.6</ele>
        <time>2020-05-31T09:31:16Z</time>
      </trkpt>
      <trkpt lat="46.34623" lon="-0.39678">
        <ele>77.6</ele>
        <time>2020-05-31T09:31:17Z</time>
      </trkpt>
      <trkpt lat="46.34621" lon="-0.39684">
        <ele>77.7</ele>
        <time>2020-05-31T09:31:18Z</time>
      </trkpt>
      <trkpt lat="46.34619" lon="-0.3969">
        <ele>77.7</ele>
        <time>2020-05-31T09:31:19Z</time>
      </trkpt>
      <trkpt lat="46.34616" lon="-0.39697">
        <ele>77.7</ele>
        <time>2020-05-31T09:31:20Z</time>
      </trkpt>
      <trkpt lat="46.34613" lon="-0.39702">
        <ele>77.7</ele>
        <time>2020-05-31T09:31:21Z</time>
      </trkpt>
      <trkpt lat="46.3461" lon="-0.39706">
        <ele>77.7</ele>
        <time>2020-05-31T09:31:22Z</time>
      </trkpt>
      <trkpt lat="46.34607" lon="-0.39711">
        <ele>77.7</ele>
        <time>2020-05-31T09:31:23Z</time>
      </trkpt>
      <trkpt lat="46.34605" lon="-0.39718">
        <ele>77.7</ele>
        <time>2020-05-31T09:31:24Z</time>
      </trkpt>
      <trkpt lat="46.34602" lon="-0.39726">
        <ele>77.7</ele>
        <time>2020-05-31T09:31:25Z</time>
      </trkpt>
      <trkpt lat="46.34601" lon="-0.39734">
        <ele>77.7</ele>
        <time>2020-05-31T09:31:26Z</time>
      </trkpt>
      <trkpt lat="46.346" lon="-0.3974">
        <ele>77.7</ele>
        <time>2020-05-31T09:31:27Z</time>
      </trkpt>
      <trkpt lat="46.34599" lon="-0.39746">
        <ele>77.7</ele>
        <time>2020-05-31T09:31:28Z</time>
      </trkpt>
      <trkpt lat="46.34597" lon="-0.39753">
        <ele>77.8</ele>
        <time>2020-05-31T09:31:29Z</time>
      </trkpt>
      <trkpt lat="46.34597" lon="-0.39757">
        <ele>77.8</ele>
        <time>2020-05-31T09:31:30Z</time>
      </trkpt>
      <trkpt lat="46.34595" lon="-0.39765">
        <ele>77.8</ele>
        <time>2020-05-31T09:31:31Z</time>
      </trkpt>
      <trkpt lat="46.34593" lon="-0.39773">
        <ele>77.8</ele>
        <time>2020-05-31T09:31:32Z</time>
      </trkpt>
      <trkpt lat="46.34592" lon="-0.3978">
        <ele>77.8</ele>
        <time>2020-05-31T09:31:33Z</time>
      </trkpt>
      <trkpt lat="46.3459" lon="-0.39787">
        <ele>77.8</ele>
        <time>2020-05-31T09:31:34Z</time>
      </trkpt>
      <trkpt lat="46.34589" lon="-0.39794">
        <ele>77.8</ele>
        <time>2020-05-31T09:31:35Z</time>
      </trkpt>
      <trkpt lat="46.34588" lon="-0.39802">
        <ele>77.8</ele>
        <time>2020-05-31T09:31:36Z</time>
      </trkpt>
      <trkpt lat="46.34586" lon="-0.39808">
        <ele>77.8</ele>
        <time>2020-05-31T09:31:37Z</time>
      </trkpt>
      <trkpt lat="46.34584" lon="-0.39816">
        <ele>77.9</ele>
        <time>2020-05-31T09:31:38Z</time>
      </trkpt>
      <trkpt lat="46.34583" lon="-0.39823">
        <ele>77.9</ele>
        <time>2020-05-31T09:31:39Z</time>
      </trkpt>
      <trkpt lat="46.34583" lon="-0.39827">
        <ele>77.9</ele>
        <time>2020-05-31T09:31:40Z</time>
      </trkpt>
      <trkpt lat="46.34583" lon="-0.39832">
        <ele>77.8</ele>
        <time>2020-05-31T09:31:41Z</time>
      </trkpt>
      <trkpt lat="46.34584" lon="-0.39837">
        <ele>77.8</ele>
        <time>2020-05-31T09:31:42Z</time>
      </trkpt>
      <trkpt lat="46.34583" lon="-0.39842">
        <ele>77.8</ele>
        <time>2020-05-31T09:31:43Z</time>
      </trkpt>
      <trkpt lat="46.34583" lon="-0.39847">
        <ele>77.8</ele>
        <time>2020-05-31T09:31:44Z</time>
      </trkpt>
      <trkpt lat="46.34582" lon="-0.39853">
        <ele>77.7</ele>
        <time>2020-05-31T09:31:45Z</time>
      </trkpt>
      <trkpt lat="46.34582" lon="-0.39859">
        <ele>77.7</ele>
        <time>2020-05-31T09:31:46Z</time>
      </trkpt>
      <trkpt lat="46.34581" lon="-0.39866">
        <ele>77.7</ele>
        <time>2020-05-31T09:31:47Z</time>
      </trkpt>
      <trkpt lat="46.3458" lon="-0.39872">
        <ele>77.6</ele>
        <time>2020-05-31T09:31:48Z</time>
      </trkpt>
      <trkpt lat="46.3458" lon="-0.39878">
        <ele>77.6</ele>
        <time>2020-05-31T09:31:49Z</time>
      </trkpt>
      <trkpt lat="46.3458" lon="-0.39884">
        <ele>77.6</ele>
        <time>2020-05-31T09:31:50Z</time>
      </trkpt>
      <trkpt lat="46.34581" lon="-0.3989">
        <ele>77.5</ele>
        <time>2020-05-31T09:31:51Z</time>
      </trkpt>
      <trkpt lat="46.34579" lon="-0.39896">
        <ele>77.5</ele>
        <time>2020-05-31T09:31:52Z</time>
      </trkpt>
      <trkpt lat="46.3458" lon="-0.39902">
        <ele>77.4</ele>
        <time>2020-05-31T09:31:53Z</time>
      </trkpt>
      <trkpt lat="46.3458" lon="-0.39907">
        <ele>77.4</ele>
        <time>2020-05-31T09:31:54Z</time>
      </trkpt>
      <trkpt lat="46.3458" lon="-0.39913">
        <ele>77.4</ele>
        <time>2020-05-31T09:31:55Z</time>
      </trkpt>
      <trkpt lat="46.3458" lon="-0.39915">
        <ele>77.4</ele>
        <time>2020-05-31T09:31:56Z</time>
      </trkpt>
      <trkpt lat="46.34578" lon="-0.39918">
        <ele>77.4</ele>
        <time>2020-05-31T09:31:57Z</time>
      </trkpt>
      <trkpt lat="46.34578" lon="-0.39919">
        <ele>77.4</ele>
        <time>2020-05-31T09:31:58Z</time>
      </trkpt>
      <trkpt lat="46.34578" lon="-0.39924">
        <ele>77.4</ele>
        <time>2020-05-31T09:31:59Z</time>
      </trkpt>
      <trkpt lat="46.34579" lon="-0.39926">
        <ele>77.4</ele>
        <time>2020-05-31T09:32:00Z</time>
      </trkpt>
      <trkpt lat="46.34581" lon="-0.39929">
        <ele>77.4</ele>
        <time>2020-05-31T09:32:01Z</time>
      </trkpt>
      <trkpt lat="46.34582" lon="-0.39933">
        <ele>77.4</ele>
        <time>2020-05-31T09:32:02Z</time>
      </trkpt>
      <trkpt lat="46.34585" lon="-0.39936">
        <ele>77.3</ele>
        <time>2020-05-31T09:32:03Z</time>
      </trkpt>
      <trkpt lat="46.34587" lon="-0.39941">
        <ele>77.3</ele>
        <time>2020-05-31T09:32:04Z</time>
      </trkpt>
      <trkpt lat="46.34588" lon="-0.39946">
        <ele>77.3</ele>
        <time>2020-05-31T09:32:05Z</time>
      </trkpt>
      <trkpt lat="46.34589" lon="-0.39951">
        <ele>77.3</ele>
        <time>2020-05-31T09:32:06Z</time>
      </trkpt>
      <trkpt lat="46.3459" lon="-0.39958">
        <ele>77.3</ele>
        <time>2020-05-31T09:32:07Z</time>
      </trkpt>
      <trkpt lat="46.34591" lon="-0.39964">
        <ele>77.3</ele>
        <time>2020-05-31T09:32:08Z</time>
      </trkpt>
      <trkpt lat="46.34592" lon="-0.3997">
        <ele>77.3</ele>
        <time>2020-05-31T09:32:09Z</time>
      </trkpt>
      <trkpt lat="46.34593" lon="-0.39978">
        <ele>77.2</ele>
        <time>2020-05-31T09:32:10Z</time>
      </trkpt>
      <trkpt lat="46.34593" lon="-0.39983">
        <ele>77.2</ele>
        <time>2020-05-31T09:32:11Z</time>
      </trkpt>
      <trkpt lat="46.34594" lon="-0.39988">
        <ele>77.2</ele>
        <time>2020-05-31T09:32:12Z</time>
      </trkpt>
      <trkpt lat="46.34595" lon="-0.39994">
        <ele>77.3</ele>
        <time>2020-05-31T09:32:13Z</time>
      </trkpt>
      <trkpt lat="46.34595" lon="-0.4">
        <ele>77.3</ele>
        <time>2020-05-31T09:32:14Z</time>
      </trkpt>
      <trkpt lat="46.34596" lon="-0.40005">
        <ele>77.3</ele>
        <time>2020-05-31T09:32:15Z</time>
      </trkpt>
      <trkpt lat="46.34596" lon="-0.40011">
        <ele>77.3</ele>
        <time>2020-05-31T09:32:16Z</time>
      </trkpt>
      <trkpt lat="46.34597" lon="-0.40018">
        <ele>77.3</ele>
        <time>2020-05-31T09:32:17Z</time>
      </trkpt>
      <trkpt lat="46.34598" lon="-0.40025">
        <ele>77.3</ele>
        <time>2020-05-31T09:32:18Z</time>
      </trkpt>
      <trkpt lat="46.34598" lon="-0.40032">
        <ele>77.4</ele>
        <time>2020-05-31T09:32:19Z</time>
      </trkpt>
      <trkpt lat="46.34599" lon="-0.40037">
        <ele>77.4</ele>
        <time>2020-05-31T09:32:20Z</time>
      </trkpt>
      <trkpt lat="46.34599" lon="-0.40043">
        <ele>77.4</ele>
        <time>2020-05-31T09:32:21Z</time>
      </trkpt>
      <trkpt lat="46.346" lon="-0.40049">
        <ele>77.4</ele>
        <time>2020-05-31T09:32:22Z</time>
      </trkpt>
      <trkpt lat="46.34601" lon="-0.40056">
        <ele>77.4</ele>
        <time>2020-05-31T09:32:23Z</time>
      </trkpt>
      <trkpt lat="46.34602" lon="-0.40062">
        <ele>77.4</ele>
        <time>2020-05-31T09:32:24Z</time>
      </trkpt>
      <trkpt lat="46.34602" lon="-0.4007">
        <ele>77.4</ele>
        <time>2020-05-31T09:32:25Z</time>
      </trkpt>
      <trkpt lat="46.34603" lon="-0.40076">
        <ele>77.4</ele>
        <time>2020-05-31T09:32:26Z</time>
      </trkpt>
      <trkpt lat="46.34603" lon="-0.40082">
        <ele>77.4</ele>
        <time>2020-05-31T09:32:27Z</time>
      </trkpt>
      <trkpt lat="46.34605" lon="-0.4009">
        <ele>77.4</ele>
        <time>2020-05-31T09:32:28Z</time>
      </trkpt>
      <trkpt lat="46.34606" lon="-0.40098">
        <ele>77.5</ele>
        <time>2020-05-31T09:32:29Z</time>
      </trkpt>
      <trkpt lat="46.34606" lon="-0.40105">
        <ele>77.5</ele>
        <time>2020-05-31T09:32:30Z</time>
      </trkpt>
      <trkpt lat="46.34606" lon="-0.40111">
        <ele>77.5</ele>
        <time>2020-05-31T09:32:31Z</time>
      </trkpt>
      <trkpt lat="46.34607" lon="-0.40118">
        <ele>77.5</ele>
        <time>2020-05-31T09:32:32Z</time>
      </trkpt>
      <trkpt lat="46.34609" lon="-0.40124">
        <ele>77.5</ele>
        <time>2020-05-31T09:32:33Z</time>
      </trkpt>
      <trkpt lat="46.34609" lon="-0.40132">
        <ele>77.5</ele>
        <time>2020-05-31T09:32:34Z</time>
      </trkpt>
      <trkpt lat="46.3461" lon="-0.4014">
        <ele>77.5</ele>
        <time>2020-05-31T09:32:35Z</time>
      </trkpt>
      <trkpt lat="46.3461" lon="-0.40147">
        <ele>77.5</ele>
        <time>2020-05-31T09:32:36Z</time>
      </trkpt>
      <trkpt lat="46.34611" lon="-0.40155">
        <ele>77.5</ele>
        <time>2020-05-31T09:32:37Z</time>
      </trkpt>
      <trkpt lat="46.34612" lon="-0.40162">
        <ele>77.4</ele>
        <time>2020-05-31T09:32:38Z</time>
      </trkpt>
      <trkpt lat="46.34613" lon="-0.40169">
        <ele>77.4</ele>
        <time>2020-05-31T09:32:39Z</time>
      </trkpt>
      <trkpt lat="46.34614" lon="-0.40177">
        <ele>77.4</ele>
        <time>2020-05-31T09:32:40Z</time>
      </trkpt>
      <trkpt lat="46.34615" lon="-0.40185">
        <ele>77.3</ele>
        <time>2020-05-31T09:32:41Z</time>
      </trkpt>
      <trkpt lat="46.34615" lon="-0.40193">
        <ele>77.3</ele>
        <time>2020-05-31T09:32:42Z</time>
      </trkpt>
      <trkpt lat="46.34615" lon="-0.402">
        <ele>77.2</ele>
        <time>2020-05-31T09:32:43Z</time>
      </trkpt>
      <trkpt lat="46.34616" lon="-0.40208">
        <ele>77.2</ele>
        <time>2020-05-31T09:32:44Z</time>
      </trkpt>
      <trkpt lat="46.34615" lon="-0.40215">
        <ele>77.2</ele>
        <time>2020-05-31T09:32:45Z</time>
      </trkpt>
      <trkpt lat="46.34616" lon="-0.40221">
        <ele>77.2</ele>
        <time>2020-05-31T09:32:46Z</time>
      </trkpt>
      <trkpt lat="46.34617" lon="-0.40228">
        <ele>77.2</ele>
        <time>2020-05-31T09:32:47Z</time>
      </trkpt>
      <trkpt lat="46.34617" lon="-0.40235">
        <ele>77.2</ele>
        <time>2020-05-31T09:32:48Z</time>
      </trkpt>
      <trkpt lat="46.34618" lon="-0.40242">
        <ele>77.1</ele>
        <time>2020-05-31T09:32:49Z</time>
      </trkpt>
      <trkpt lat="46.34618" lon="-0.40251">
        <ele>77.1</ele>
        <time>2020-05-31T09:32:50Z</time>
      </trkpt>
      <trkpt lat="46.34618" lon="-0.40259">
        <ele>77.1</ele>
        <time>2020-05-31T09:32:51Z</time>
      </trkpt>
      <trkpt lat="46.34618" lon="-0.40267">
        <ele>77</ele>
        <time>2020-05-31T09:32:52Z</time>
      </trkpt>
      <trkpt lat="46.34618" lon="-0.40274">
        <ele>76.9</ele>
        <time>2020-05-31T09:32:53Z</time>
      </trkpt>
      <trkpt lat="46.34617" lon="-0.40282">
        <ele>76.8</ele>
        <time>2020-05-31T09:32:54Z</time>
      </trkpt>
      <trkpt lat="46.34617" lon="-0.4029">
        <ele>76.7</ele>
        <time>2020-05-31T09:32:55Z</time>
      </trkpt>
      <trkpt lat="46.34615" lon="-0.40296">
        <ele>76.6</ele>
        <time>2020-05-31T09:32:56Z</time>
      </trkpt>
      <trkpt lat="46.34614" lon="-0.40305">
        <ele>76.5</ele>
        <time>2020-05-31T09:32:57Z</time>
      </trkpt>
      <trkpt lat="46.34614" lon="-0.40314">
        <ele>76.4</ele>
        <time>2020-05-31T09:32:58Z</time>
      </trkpt>
      <trkpt lat="46.34613" lon="-0.40322">
        <ele>76.3</ele>
        <time>2020-05-31T09:32:59Z</time>
      </trkpt>
      <trkpt lat="46.34613" lon="-0.40331">
        <ele>76.2</ele>
        <time>2020-05-31T09:33:00Z</time>
      </trkpt>
      <trkpt lat="46.34611" lon="-0.4034">
        <ele>76.1</ele>
        <time>2020-05-31T09:33:01Z</time>
      </trkpt>
      <trkpt lat="46.3461" lon="-0.40349">
        <ele>76</ele>
        <time>2020-05-31T09:33:02Z</time>
      </trkpt>
      <trkpt lat="46.3461" lon="-0.40358">
        <ele>75.9</ele>
        <time>2020-05-31T09:33:03Z</time>
      </trkpt>
      <trkpt lat="46.34609" lon="-0.40367">
        <ele>75.8</ele>
        <time>2020-05-31T09:33:04Z</time>
      </trkpt>
      <trkpt lat="46.34608" lon="-0.40377">
        <ele>75.7</ele>
        <time>2020-05-31T09:33:05Z</time>
      </trkpt>
      <trkpt lat="46.34607" lon="-0.40387">
        <ele>75.6</ele>
        <time>2020-05-31T09:33:06Z</time>
      </trkpt>
      <trkpt lat="46.34605" lon="-0.40396">
        <ele>75.5</ele>
        <time>2020-05-31T09:33:07Z</time>
      </trkpt>
      <trkpt lat="46.34602" lon="-0.40406">
        <ele>75.5</ele>
        <time>2020-05-31T09:33:08Z</time>
      </trkpt>
      <trkpt lat="46.34601" lon="-0.40413">
        <ele>75.4</ele>
        <time>2020-05-31T09:33:09Z</time>
      </trkpt>
      <trkpt lat="46.34598" lon="-0.40423">
        <ele>75.3</ele>
        <time>2020-05-31T09:33:10Z</time>
      </trkpt>
      <trkpt lat="46.34595" lon="-0.40433">
        <ele>75.1</ele>
        <time>2020-05-31T09:33:11Z</time>
      </trkpt>
      <trkpt lat="46.34593" lon="-0.40443">
        <ele>75</ele>
        <time>2020-05-31T09:33:12Z</time>
      </trkpt>
      <trkpt lat="46.3459" lon="-0.40452">
        <ele>74.9</ele>
        <time>2020-05-31T09:33:13Z</time>
      </trkpt>
      <trkpt lat="46.34588" lon="-0.4046">
        <ele>74.8</ele>
        <time>2020-05-31T09:33:14Z</time>
      </trkpt>
      <trkpt lat="46.34585" lon="-0.40468">
        <ele>74.7</ele>
        <time>2020-05-31T09:33:15Z</time>
      </trkpt>
      <trkpt lat="46.34583" lon="-0.40475">
        <ele>74.6</ele>
        <time>2020-05-31T09:33:16Z</time>
      </trkpt>
      <trkpt lat="46.34582" lon="-0.40483">
        <ele>74.6</ele>
        <time>2020-05-31T09:33:17Z</time>
      </trkpt>
      <trkpt lat="46.34581" lon="-0.40489">
        <ele>74.5</ele>
        <time>2020-05-31T09:33:18Z</time>
      </trkpt>
      <trkpt lat="46.34581" lon="-0.40496">
        <ele>74.4</ele>
        <time>2020-05-31T09:33:19Z</time>
      </trkpt>
      <trkpt lat="46.3458" lon="-0.40503">
        <ele>74.4</ele>
        <time>2020-05-31T09:33:20Z</time>
      </trkpt>
      <trkpt lat="46.34578" lon="-0.40508">
        <ele>74.3</ele>
        <time>2020-05-31T09:33:21Z</time>
      </trkpt>
      <trkpt lat="46.34574" lon="-0.40513">
        <ele>74.2</ele>
        <time>2020-05-31T09:33:22Z</time>
      </trkpt>
      <trkpt lat="46.34569" lon="-0.40518">
        <ele>74.1</ele>
        <time>2020-05-31T09:33:23Z</time>
      </trkpt>
      <trkpt lat="46.34565" lon="-0.40526">
        <ele>74</ele>
        <time>2020-05-31T09:33:24Z</time>
      </trkpt>
      <trkpt lat="46.34562" lon="-0.40533">
        <ele>73.8</ele>
        <time>2020-05-31T09:33:25Z</time>
      </trkpt>
      <trkpt lat="46.34559" lon="-0.40541">
        <ele>73.7</ele>
        <time>2020-05-31T09:33:26Z</time>
      </trkpt>
      <trkpt lat="46.34555" lon="-0.40549">
        <ele>73.6</ele>
        <time>2020-05-31T09:33:27Z</time>
      </trkpt>
      <trkpt lat="46.34551" lon="-0.40557">
        <ele>73.4</ele>
        <time>2020-05-31T09:33:28Z</time>
      </trkpt>
      <trkpt lat="46.34549" lon="-0.40561">
        <ele>73.4</ele>
        <time>2020-05-31T09:33:29Z</time>
      </trkpt>
      <trkpt lat="46.34545" lon="-0.40569">
        <ele>73.2</ele>
        <time>2020-05-31T09:33:30Z</time>
      </trkpt>
      <trkpt lat="46.34542" lon="-0.40577">
        <ele>73.1</ele>
        <time>2020-05-31T09:33:31Z</time>
      </trkpt>
      <trkpt lat="46.34538" lon="-0.40585">
        <ele>73</ele>
        <time>2020-05-31T09:33:32Z</time>
      </trkpt>
      <trkpt lat="46.34535" lon="-0.40592">
        <ele>72.8</ele>
        <time>2020-05-31T09:33:33Z</time>
      </trkpt>
      <trkpt lat="46.34531" lon="-0.406">
        <ele>72.7</ele>
        <time>2020-05-31T09:33:34Z</time>
      </trkpt>
      <trkpt lat="46.34528" lon="-0.40607">
        <ele>72.5</ele>
        <time>2020-05-31T09:33:35Z</time>
      </trkpt>
      <trkpt lat="46.34525" lon="-0.40615">
        <ele>72.3</ele>
        <time>2020-05-31T09:33:36Z</time>
      </trkpt>
      <trkpt lat="46.34522" lon="-0.40623">
        <ele>72.2</ele>
        <time>2020-05-31T09:33:37Z</time>
      </trkpt>
      <trkpt lat="46.34518" lon="-0.4063">
        <ele>72.1</ele>
        <time>2020-05-31T09:33:38Z</time>
      </trkpt>
      <trkpt lat="46.34515" lon="-0.40636">
        <ele>72</ele>
        <time>2020-05-31T09:33:39Z</time>
      </trkpt>
      <trkpt lat="46.34511" lon="-0.40643">
        <ele>71.9</ele>
        <time>2020-05-31T09:33:40Z</time>
      </trkpt>
      <trkpt lat="46.34506" lon="-0.4065">
        <ele>71.9</ele>
        <time>2020-05-31T09:33:41Z</time>
      </trkpt>
      <trkpt lat="46.34503" lon="-0.40658">
        <ele>71.9</ele>
        <time>2020-05-31T09:33:42Z</time>
      </trkpt>
      <trkpt lat="46.34501" lon="-0.40666">
        <ele>71.8</ele>
        <time>2020-05-31T09:33:43Z</time>
      </trkpt>
      <trkpt lat="46.34498" lon="-0.40675">
        <ele>71.7</ele>
        <time>2020-05-31T09:33:44Z</time>
      </trkpt>
      <trkpt lat="46.34496" lon="-0.40683">
        <ele>71.6</ele>
        <time>2020-05-31T09:33:45Z</time>
      </trkpt>
      <trkpt lat="46.34494" lon="-0.4069">
        <ele>71.6</ele>
        <time>2020-05-31T09:33:46Z</time>
      </trkpt>
      <trkpt lat="46.34491" lon="-0.40698">
        <ele>71.5</ele>
        <time>2020-05-31T09:33:47Z</time>
      </trkpt>
      <trkpt lat="46.34488" lon="-0.40707">
        <ele>71.4</ele>
        <time>2020-05-31T09:33:48Z</time>
      </trkpt>
      <trkpt lat="46.34487" lon="-0.40715">
        <ele>71.3</ele>
        <time>2020-05-31T09:33:49Z</time>
      </trkpt>
      <trkpt lat="46.34484" lon="-0.40724">
        <ele>71.1</ele>
        <time>2020-05-31T09:33:50Z</time>
      </trkpt>
      <trkpt lat="46.34483" lon="-0.40731">
        <ele>71.1</ele>
        <time>2020-05-31T09:33:51Z</time>
      </trkpt>
      <trkpt lat="46.34481" lon="-0.40739">
        <ele>71</ele>
        <time>2020-05-31T09:33:52Z</time>
      </trkpt>
      <trkpt lat="46.34479" lon="-0.40746">
        <ele>70.9</ele>
        <time>2020-05-31T09:33:53Z</time>
      </trkpt>
      <trkpt lat="46.34476" lon="-0.40753">
        <ele>70.9</ele>
        <time>2020-05-31T09:33:54Z</time>
      </trkpt>
      <trkpt lat="46.34473" lon="-0.40759">
        <ele>70.9</ele>
        <time>2020-05-31T09:33:55Z</time>
      </trkpt>
      <trkpt lat="46.34471" lon="-0.40767">
        <ele>70.9</ele>
        <time>2020-05-31T09:33:56Z</time>
      </trkpt>
      <trkpt lat="46.34469" lon="-0.40774">
        <ele>70.8</ele>
        <time>2020-05-31T09:33:57Z</time>
      </trkpt>
      <trkpt lat="46.34467" lon="-0.40781">
        <ele>70.7</ele>
        <time>2020-05-31T09:33:58Z</time>
      </trkpt>
      <trkpt lat="46.34464" lon="-0.40788">
        <ele>70.7</ele>
        <time>2020-05-31T09:33:59Z</time>
      </trkpt>
      <trkpt lat="46.34462" lon="-0.40796">
        <ele>70.6</ele>
        <time>2020-05-31T09:34:00Z</time>
      </trkpt>
      <trkpt lat="46.34459" lon="-0.40803">
        <ele>70.5</ele>
        <time>2020-05-31T09:34:01Z</time>
      </trkpt>
      <trkpt lat="46.34455" lon="-0.4081">
        <ele>70.4</ele>
        <time>2020-05-31T09:34:02Z</time>
      </trkpt>
      <trkpt lat="46.34451" lon="-0.40816">
        <ele>70.3</ele>
        <time>2020-05-31T09:34:03Z</time>
      </trkpt>
      <trkpt lat="46.34447" lon="-0.40824">
        <ele>70.2</ele>
        <time>2020-05-31T09:34:04Z</time>
      </trkpt>
      <trkpt lat="46.34443" lon="-0.4083">
        <ele>70.1</ele>
        <time>2020-05-31T09:34:05Z</time>
      </trkpt>
      <trkpt lat="46.3444" lon="-0.40838">
        <ele>70</ele>
        <time>2020-05-31T09:34:06Z</time>
      </trkpt>
      <trkpt lat="46.34436" lon="-0.40844">
        <ele>69.9</ele>
        <time>2020-05-31T09:34:07Z</time>
      </trkpt>
      <trkpt lat="46.34432" lon="-0.40851">
        <ele>69.8</ele>
        <time>2020-05-31T09:34:08Z</time>
      </trkpt>
      <trkpt lat="46.34429" lon="-0.40857">
        <ele>69.8</ele>
        <time>2020-05-31T09:34:09Z</time>
      </trkpt>
      <trkpt lat="46.34426" lon="-0.40863">
        <ele>69.7</ele>
        <time>2020-05-31T09:34:10Z</time>
      </trkpt>
      <trkpt lat="46.34422" lon="-0.40869">
        <ele>69.6</ele>
        <time>2020-05-31T09:34:11Z</time>
      </trkpt>
      <trkpt lat="46.34418" lon="-0.40876">
        <ele>69.6</ele>
        <time>2020-05-31T09:34:12Z</time>
      </trkpt>
      <trkpt lat="46.34415" lon="-0.40883">
        <ele>69.5</ele>
        <time>2020-05-31T09:34:13Z</time>
      </trkpt>
      <trkpt lat="46.34411" lon="-0.40889">
        <ele>69.4</ele>
        <time>2020-05-31T09:34:14Z</time>
      </trkpt>
      <trkpt lat="46.34408" lon="-0.40897">
        <ele>69.4</ele>
        <time>2020-05-31T09:34:15Z</time>
      </trkpt>
      <trkpt lat="46.34405" lon="-0.40904">
        <ele>69.3</ele>
        <time>2020-05-31T09:34:16Z</time>
      </trkpt>
      <trkpt lat="46.34401" lon="-0.4091">
        <ele>69.3</ele>
        <time>2020-05-31T09:34:17Z</time>
      </trkpt>
      <trkpt lat="46.34397" lon="-0.40916">
        <ele>69.3</ele>
        <time>2020-05-31T09:34:18Z</time>
      </trkpt>
      <trkpt lat="46.34394" lon="-0.40922">
        <ele>69.3</ele>
        <time>2020-05-31T09:34:19Z</time>
      </trkpt>
      <trkpt lat="46.34392" lon="-0.40929">
        <ele>69.3</ele>
        <time>2020-05-31T09:34:20Z</time>
      </trkpt>
      <trkpt lat="46.3439" lon="-0.40936">
        <ele>69.4</ele>
        <time>2020-05-31T09:34:21Z</time>
      </trkpt>
      <trkpt lat="46.34388" lon="-0.40943">
        <ele>69.4</ele>
        <time>2020-05-31T09:34:22Z</time>
      </trkpt>
      <trkpt lat="46.34386" lon="-0.40951">
        <ele>69.5</ele>
        <time>2020-05-31T09:34:23Z</time>
      </trkpt>
      <trkpt lat="46.34383" lon="-0.40959">
        <ele>69.5</ele>
        <time>2020-05-31T09:34:24Z</time>
      </trkpt>
      <trkpt lat="46.34381" lon="-0.40964">
        <ele>69.5</ele>
        <time>2020-05-31T09:34:25Z</time>
      </trkpt>
      <trkpt lat="46.34379" lon="-0.40972">
        <ele>69.5</ele>
        <time>2020-05-31T09:34:26Z</time>
      </trkpt>
      <trkpt lat="46.34376" lon="-0.4098">
        <ele>69.4</ele>
        <time>2020-05-31T09:34:27Z</time>
      </trkpt>
      <trkpt lat="46.34374" lon="-0.40987">
        <ele>69.4</ele>
        <time>2020-05-31T09:34:28Z</time>
      </trkpt>
      <trkpt lat="46.34371" lon="-0.40993">
        <ele>69.4</ele>
        <time>2020-05-31T09:34:29Z</time>
      </trkpt>
      <trkpt lat="46.34369" lon="-0.41001">
        <ele>69.3</ele>
        <time>2020-05-31T09:34:30Z</time>
      </trkpt>
      <trkpt lat="46.34366" lon="-0.41011">
        <ele>69.3</ele>
        <time>2020-05-31T09:34:31Z</time>
      </trkpt>
      <trkpt lat="46.34364" lon="-0.41017">
        <ele>69.3</ele>
        <time>2020-05-31T09:34:32Z</time>
      </trkpt>
      <trkpt lat="46.34362" lon="-0.41025">
        <ele>69.3</ele>
        <time>2020-05-31T09:34:33Z</time>
      </trkpt>
      <trkpt lat="46.3436" lon="-0.41031">
        <ele>69.3</ele>
        <time>2020-05-31T09:34:34Z</time>
      </trkpt>
      <trkpt lat="46.34357" lon="-0.41037">
        <ele>69.3</ele>
        <time>2020-05-31T09:34:35Z</time>
      </trkpt>
      <trkpt lat="46.34355" lon="-0.41043">
        <ele>69.4</ele>
        <time>2020-05-31T09:34:36Z</time>
      </trkpt>
      <trkpt lat="46.34354" lon="-0.41049">
        <ele>69.4</ele>
        <time>2020-05-31T09:34:37Z</time>
      </trkpt>
      <trkpt lat="46.34351" lon="-0.41057">
        <ele>69.4</ele>
        <time>2020-05-31T09:34:38Z</time>
      </trkpt>
      <trkpt lat="46.34349" lon="-0.41063">
        <ele>69.5</ele>
        <time>2020-05-31T09:34:39Z</time>
      </trkpt>
      <trkpt lat="46.34347" lon="-0.41069">
        <ele>69.5</ele>
        <time>2020-05-31T09:34:40Z</time>
      </trkpt>
      <trkpt lat="46.34343" lon="-0.41076">
        <ele>69.5</ele>
        <time>2020-05-31T09:34:41Z</time>
      </trkpt>
      <trkpt lat="46.34341" lon="-0.41084">
        <ele>69.6</ele>
        <time>2020-05-31T09:34:42Z</time>
      </trkpt>
      <trkpt lat="46.34339" lon="-0.4109">
        <ele>69.6</ele>
        <time>2020-05-31T09:34:43Z</time>
      </trkpt>
      <trkpt lat="46.34337" lon="-0.41097">
        <ele>69.7</ele>
        <time>2020-05-31T09:34:44Z</time>
      </trkpt>
      <trkpt lat="46.34334" lon="-0.41104">
        <ele>69.7</ele>
        <time>2020-05-31T09:34:45Z</time>
      </trkpt>
      <trkpt lat="46.34331" lon="-0.4111">
        <ele>69.8</ele>
        <time>2020-05-31T09:34:46Z</time>
      </trkpt>
      <trkpt lat="46.34328" lon="-0.41118">
        <ele>69.9</ele>
        <time>2020-05-31T09:34:47Z</time>
      </trkpt>
      <trkpt lat="46.34327" lon="-0.41125">
        <ele>69.9</ele>
        <time>2020-05-31T09:34:48Z</time>
      </trkpt>
      <trkpt lat="46.34325" lon="-0.41132">
        <ele>70</ele>
        <time>2020-05-31T09:34:49Z</time>
      </trkpt>
      <trkpt lat="46.34323" lon="-0.4114">
        <ele>70.1</ele>
        <time>2020-05-31T09:34:50Z</time>
      </trkpt>
      <trkpt lat="46.34321" lon="-0.41149">
        <ele>70.2</ele>
        <time>2020-05-31T09:34:51Z</time>
      </trkpt>
      <trkpt lat="46.3432" lon="-0.41157">
        <ele>70.3</ele>
        <time>2020-05-31T09:34:52Z</time>
      </trkpt>
      <trkpt lat="46.34317" lon="-0.41164">
        <ele>70.4</ele>
        <time>2020-05-31T09:34:53Z</time>
      </trkpt>
      <trkpt lat="46.34315" lon="-0.41171">
        <ele>70.4</ele>
        <time>2020-05-31T09:34:54Z</time>
      </trkpt>
      <trkpt lat="46.34313" lon="-0.41178">
        <ele>70.5</ele>
        <time>2020-05-31T09:34:55Z</time>
      </trkpt>
      <trkpt lat="46.34311" lon="-0.41185">
        <ele>70.5</ele>
        <time>2020-05-31T09:34:56Z</time>
      </trkpt>
      <trkpt lat="46.34309" lon="-0.41193">
        <ele>70.5</ele>
        <time>2020-05-31T09:34:57Z</time>
      </trkpt>
      <trkpt lat="46.34307" lon="-0.412">
        <ele>70.5</ele>
        <time>2020-05-31T09:34:58Z</time>
      </trkpt>
      <trkpt lat="46.34305" lon="-0.41207">
        <ele>70.5</ele>
        <time>2020-05-31T09:34:59Z</time>
      </trkpt>
      <trkpt lat="46.34304" lon="-0.41215">
        <ele>70.5</ele>
        <time>2020-05-31T09:35:00Z</time>
      </trkpt>
      <trkpt lat="46.34302" lon="-0.4122">
        <ele>70.5</ele>
        <time>2020-05-31T09:35:01Z</time>
      </trkpt>
      <trkpt lat="46.34301" lon="-0.41228">
        <ele>70.5</ele>
        <time>2020-05-31T09:35:02Z</time>
      </trkpt>
      <trkpt lat="46.34299" lon="-0.41237">
        <ele>70.5</ele>
        <time>2020-05-31T09:35:03Z</time>
      </trkpt>
      <trkpt lat="46.34296" lon="-0.41243">
        <ele>70.5</ele>
        <time>2020-05-31T09:35:04Z</time>
      </trkpt>
      <trkpt lat="46.34295" lon="-0.41251">
        <ele>70.5</ele>
        <time>2020-05-31T09:35:05Z</time>
      </trkpt>
      <trkpt lat="46.34293" lon="-0.41259">
        <ele>70.5</ele>
        <time>2020-05-31T09:35:06Z</time>
      </trkpt>
      <trkpt lat="46.34291" lon="-0.41265">
        <ele>70.6</ele>
        <time>2020-05-31T09:35:07Z</time>
      </trkpt>
      <trkpt lat="46.3429" lon="-0.41274">
        <ele>70.6</ele>
        <time>2020-05-31T09:35:08Z</time>
      </trkpt>
      <trkpt lat="46.34289" lon="-0.4128">
        <ele>70.6</ele>
        <time>2020-05-31T09:35:09Z</time>
      </trkpt>
      <trkpt lat="46.34287" lon="-0.41288">
        <ele>70.6</ele>
        <time>2020-05-31T09:35:10Z</time>
      </trkpt>
      <trkpt lat="46.34286" lon="-0.41297">
        <ele>70.6</ele>
        <time>2020-05-31T09:35:11Z</time>
      </trkpt>
      <trkpt lat="46.34285" lon="-0.41304">
        <ele>70.6</ele>
        <time>2020-05-31T09:35:12Z</time>
      </trkpt>
      <trkpt lat="46.34284" lon="-0.41309">
        <ele>70.7</ele>
        <time>2020-05-31T09:35:13Z</time>
      </trkpt>
      <trkpt lat="46.34282" lon="-0.41317">
        <ele>70.7</ele>
        <time>2020-05-31T09:35:14Z</time>
      </trkpt>
      <trkpt lat="46.34281" lon="-0.41325">
        <ele>70.7</ele>
        <time>2020-05-31T09:35:15Z</time>
      </trkpt>
      <trkpt lat="46.34281" lon="-0.41332">
        <ele>70.7</ele>
        <time>2020-05-31T09:35:16Z</time>
      </trkpt>
      <trkpt lat="46.34279" lon="-0.41341">
        <ele>70.7</ele>
        <time>2020-05-31T09:35:17Z</time>
      </trkpt>
      <trkpt lat="46.34278" lon="-0.41349">
        <ele>70.7</ele>
        <time>2020-05-31T09:35:18Z</time>
      </trkpt>
      <trkpt lat="46.34278" lon="-0.41357">
        <ele>70.7</ele>
        <time>2020-05-31T09:35:19Z</time>
      </trkpt>
      <trkpt lat="46.34277" lon="-0.41364">
        <ele>70.7</ele>
        <time>2020-05-31T09:35:20Z</time>
      </trkpt>
      <trkpt lat="46.34276" lon="-0.41371">
        <ele>70.7</ele>
        <time>2020-05-31T09:35:21Z</time>
      </trkpt>
      <trkpt lat="46.34274" lon="-0.41378">
        <ele>70.6</ele>
        <time>2020-05-31T09:35:22Z</time>
      </trkpt>
      <trkpt lat="46.34272" lon="-0.41386">
        <ele>70.6</ele>
        <time>2020-05-31T09:35:23Z</time>
      </trkpt>
      <trkpt lat="46.3427" lon="-0.41394">
        <ele>70.6</ele>
        <time>2020-05-31T09:35:24Z</time>
      </trkpt>
      <trkpt lat="46.34268" lon="-0.41402">
        <ele>70.6</ele>
        <time>2020-05-31T09:35:25Z</time>
      </trkpt>
      <trkpt lat="46.34266" lon="-0.4141">
        <ele>70.6</ele>
        <time>2020-05-31T09:35:26Z</time>
      </trkpt>
      <trkpt lat="46.34265" lon="-0.41418">
        <ele>70.6</ele>
        <time>2020-05-31T09:35:27Z</time>
      </trkpt>
      <trkpt lat="46.34264" lon="-0.41425">
        <ele>70.6</ele>
        <time>2020-05-31T09:35:28Z</time>
      </trkpt>
      <trkpt lat="46.34263" lon="-0.41434">
        <ele>70.6</ele>
        <time>2020-05-31T09:35:29Z</time>
      </trkpt>
      <trkpt lat="46.34261" lon="-0.41442">
        <ele>70.6</ele>
        <time>2020-05-31T09:35:30Z</time>
      </trkpt>
      <trkpt lat="46.3426" lon="-0.4145">
        <ele>70.6</ele>
        <time>2020-05-31T09:35:31Z</time>
      </trkpt>
      <trkpt lat="46.34258" lon="-0.41458">
        <ele>70.5</ele>
        <time>2020-05-31T09:35:32Z</time>
      </trkpt>
      <trkpt lat="46.34255" lon="-0.41466">
        <ele>70.5</ele>
        <time>2020-05-31T09:35:33Z</time>
      </trkpt>
      <trkpt lat="46.34253" lon="-0.41473">
        <ele>70.4</ele>
        <time>2020-05-31T09:35:34Z</time>
      </trkpt>
      <trkpt lat="46.34251" lon="-0.4148">
        <ele>70.3</ele>
        <time>2020-05-31T09:35:35Z</time>
      </trkpt>
      <trkpt lat="46.3425" lon="-0.4149">
        <ele>70.3</ele>
        <time>2020-05-31T09:35:36Z</time>
      </trkpt>
      <trkpt lat="46.34248" lon="-0.41497">
        <ele>70.2</ele>
        <time>2020-05-31T09:35:37Z</time>
      </trkpt>
      <trkpt lat="46.34246" lon="-0.41504">
        <ele>70.2</ele>
        <time>2020-05-31T09:35:38Z</time>
      </trkpt>
      <trkpt lat="46.34244" lon="-0.41512">
        <ele>70.2</ele>
        <time>2020-05-31T09:35:39Z</time>
      </trkpt>
      <trkpt lat="46.34241" lon="-0.41519">
        <ele>70.2</ele>
        <time>2020-05-31T09:35:40Z</time>
      </trkpt>
      <trkpt lat="46.34238" lon="-0.41527">
        <ele>70.2</ele>
        <time>2020-05-31T09:35:41Z</time>
      </trkpt>
      <trkpt lat="46.34233" lon="-0.41535">
        <ele>70.2</ele>
        <time>2020-05-31T09:35:42Z</time>
      </trkpt>
      <trkpt lat="46.34228" lon="-0.41542">
        <ele>70.2</ele>
        <time>2020-05-31T09:35:43Z</time>
      </trkpt>
      <trkpt lat="46.34224" lon="-0.41548">
        <ele>70.2</ele>
        <time>2020-05-31T09:35:44Z</time>
      </trkpt>
      <trkpt lat="46.3422" lon="-0.41553">
        <ele>70.2</ele>
        <time>2020-05-31T09:35:45Z</time>
      </trkpt>
      <trkpt lat="46.34216" lon="-0.41558">
        <ele>70.1</ele>
        <time>2020-05-31T09:35:46Z</time>
      </trkpt>
      <trkpt lat="46.34211" lon="-0.41564">
        <ele>70.1</ele>
        <time>2020-05-31T09:35:47Z</time>
      </trkpt>
      <trkpt lat="46.34207" lon="-0.4157">
        <ele>70.1</ele>
        <time>2020-05-31T09:35:48Z</time>
      </trkpt>
      <trkpt lat="46.34202" lon="-0.41576">
        <ele>70</ele>
        <time>2020-05-31T09:35:49Z</time>
      </trkpt>
      <trkpt lat="46.34197" lon="-0.41582">
        <ele>70</ele>
        <time>2020-05-31T09:35:50Z</time>
      </trkpt>
      <trkpt lat="46.34193" lon="-0.41586">
        <ele>70</ele>
        <time>2020-05-31T09:35:51Z</time>
      </trkpt>
      <trkpt lat="46.34189" lon="-0.41593">
        <ele>69.8</ele>
        <time>2020-05-31T09:35:52Z</time>
      </trkpt>
      <trkpt lat="46.34184" lon="-0.41598">
        <ele>69.7</ele>
        <time>2020-05-31T09:35:53Z</time>
      </trkpt>
      <trkpt lat="46.3418" lon="-0.41603">
        <ele>69.6</ele>
        <time>2020-05-31T09:35:54Z</time>
      </trkpt>
      <trkpt lat="46.34176" lon="-0.41609">
        <ele>69.5</ele>
        <time>2020-05-31T09:35:55Z</time>
      </trkpt>
      <trkpt lat="46.34171" lon="-0.41615">
        <ele>69.3</ele>
        <time>2020-05-31T09:35:56Z</time>
      </trkpt>
      <trkpt lat="46.34166" lon="-0.4162">
        <ele>69.2</ele>
        <time>2020-05-31T09:35:57Z</time>
      </trkpt>
      <trkpt lat="46.34162" lon="-0.41625">
        <ele>69.1</ele>
        <time>2020-05-31T09:35:58Z</time>
      </trkpt>
      <trkpt lat="46.34156" lon="-0.41633">
        <ele>68.9</ele>
        <time>2020-05-31T09:35:59Z</time>
      </trkpt>
      <trkpt lat="46.34153" lon="-0.41637">
        <ele>68.9</ele>
        <time>2020-05-31T09:36:00Z</time>
      </trkpt>
      <trkpt lat="46.34149" lon="-0.41642">
        <ele>68.8</ele>
        <time>2020-05-31T09:36:01Z</time>
      </trkpt>
      <trkpt lat="46.34145" lon="-0.41647">
        <ele>68.8</ele>
        <time>2020-05-31T09:36:02Z</time>
      </trkpt>
      <trkpt lat="46.34141" lon="-0.41653">
        <ele>68.8</ele>
        <time>2020-05-31T09:36:03Z</time>
      </trkpt>
      <trkpt lat="46.34136" lon="-0.41658">
        <ele>68.7</ele>
        <time>2020-05-31T09:36:04Z</time>
      </trkpt>
      <trkpt lat="46.34132" lon="-0.41663">
        <ele>68.7</ele>
        <time>2020-05-31T09:36:05Z</time>
      </trkpt>
      <trkpt lat="46.34128" lon="-0.41668">
        <ele>68.6</ele>
        <time>2020-05-31T09:36:06Z</time>
      </trkpt>
      <trkpt lat="46.34124" lon="-0.41674">
        <ele>68.5</ele>
        <time>2020-05-31T09:36:07Z</time>
      </trkpt>
      <trkpt lat="46.3412" lon="-0.4168">
        <ele>68.5</ele>
        <time>2020-05-31T09:36:08Z</time>
      </trkpt>
      <trkpt lat="46.34116" lon="-0.41687">
        <ele>68.3</ele>
        <time>2020-05-31T09:36:09Z</time>
      </trkpt>
      <trkpt lat="46.34113" lon="-0.41692">
        <ele>68.3</ele>
        <time>2020-05-31T09:36:10Z</time>
      </trkpt>
      <trkpt lat="46.34108" lon="-0.41699">
        <ele>68.2</ele>
        <time>2020-05-31T09:36:11Z</time>
      </trkpt>
      <trkpt lat="46.34104" lon="-0.41705">
        <ele>68.1</ele>
        <time>2020-05-31T09:36:12Z</time>
      </trkpt>
      <trkpt lat="46.34101" lon="-0.4171">
        <ele>68.1</ele>
        <time>2020-05-31T09:36:13Z</time>
      </trkpt>
      <trkpt lat="46.34096" lon="-0.41718">
        <ele>68.1</ele>
        <time>2020-05-31T09:36:14Z</time>
      </trkpt>
      <trkpt lat="46.34092" lon="-0.41724">
        <ele>68</ele>
        <time>2020-05-31T09:36:15Z</time>
      </trkpt>
      <trkpt lat="46.34088" lon="-0.4173">
        <ele>68</ele>
        <time>2020-05-31T09:36:16Z</time>
      </trkpt>
      <trkpt lat="46.34086" lon="-0.41736">
        <ele>68</ele>
        <time>2020-05-31T09:36:17Z</time>
      </trkpt>
      <trkpt lat="46.34082" lon="-0.41744">
        <ele>67.8</ele>
        <time>2020-05-31T09:36:18Z</time>
      </trkpt>
      <trkpt lat="46.34079" lon="-0.4175">
        <ele>67.8</ele>
        <time>2020-05-31T09:36:19Z</time>
      </trkpt>
      <trkpt lat="46.34075" lon="-0.41754">
        <ele>67.7</ele>
        <time>2020-05-31T09:36:20Z</time>
      </trkpt>
      <trkpt lat="46.3407" lon="-0.4176">
        <ele>67.6</ele>
        <time>2020-05-31T09:36:21Z</time>
      </trkpt>
      <trkpt lat="46.34066" lon="-0.41766">
        <ele>67.5</ele>
        <time>2020-05-31T09:36:22Z</time>
      </trkpt>
      <trkpt lat="46.34061" lon="-0.41772">
        <ele>67.5</ele>
        <time>2020-05-31T09:36:23Z</time>
      </trkpt>
      <trkpt lat="46.34058" lon="-0.41776">
        <ele>67.5</ele>
        <time>2020-05-31T09:36:24Z</time>
      </trkpt>
      <trkpt lat="46.34054" lon="-0.41782">
        <ele>67.4</ele>
        <time>2020-05-31T09:36:25Z</time>
      </trkpt>
      <trkpt lat="46.3405" lon="-0.41788">
        <ele>67.3</ele>
        <time>2020-05-31T09:36:26Z</time>
      </trkpt>
      <trkpt lat="46.34046" lon="-0.41796">
        <ele>67.2</ele>
        <time>2020-05-31T09:36:27Z</time>
      </trkpt>
      <trkpt lat="46.34042" lon="-0.41803">
        <ele>67.1</ele>
        <time>2020-05-31T09:36:28Z</time>
      </trkpt>
      <trkpt lat="46.34039" lon="-0.4181">
        <ele>67</ele>
        <time>2020-05-31T09:36:29Z</time>
      </trkpt>
      <trkpt lat="46.34035" lon="-0.41817">
        <ele>66.9</ele>
        <time>2020-05-31T09:36:30Z</time>
      </trkpt>
      <trkpt lat="46.34033" lon="-0.41822">
        <ele>66.8</ele>
        <time>2020-05-31T09:36:31Z</time>
      </trkpt>
      <trkpt lat="46.34029" lon="-0.4183">
        <ele>66.7</ele>
        <time>2020-05-31T09:36:32Z</time>
      </trkpt>
      <trkpt lat="46.34025" lon="-0.41836">
        <ele>66.7</ele>
        <time>2020-05-31T09:36:33Z</time>
      </trkpt>
      <trkpt lat="46.34022" lon="-0.41843">
        <ele>66.6</ele>
        <time>2020-05-31T09:36:34Z</time>
      </trkpt>
      <trkpt lat="46.34018" lon="-0.41848">
        <ele>66.5</ele>
        <time>2020-05-31T09:36:35Z</time>
      </trkpt>
      <trkpt lat="46.34014" lon="-0.41855">
        <ele>66.4</ele>
        <time>2020-05-31T09:36:36Z</time>
      </trkpt>
      <trkpt lat="46.3401" lon="-0.41861">
        <ele>66.3</ele>
        <time>2020-05-31T09:36:37Z</time>
      </trkpt>
      <trkpt lat="46.34004" lon="-0.41869">
        <ele>66.1</ele>
        <time>2020-05-31T09:36:38Z</time>
      </trkpt>
      <trkpt lat="46.34" lon="-0.41876">
        <ele>66</ele>
        <time>2020-05-31T09:36:39Z</time>
      </trkpt>
      <trkpt lat="46.33996" lon="-0.41883">
        <ele>65.9</ele>
        <time>2020-05-31T09:36:40Z</time>
      </trkpt>
      <trkpt lat="46.33991" lon="-0.41888">
        <ele>65.9</ele>
        <time>2020-05-31T09:36:41Z</time>
      </trkpt>
      <trkpt lat="46.33987" lon="-0.41895">
        <ele>65.9</ele>
        <time>2020-05-31T09:36:42Z</time>
      </trkpt>
      <trkpt lat="46.33983" lon="-0.41902">
        <ele>65.8</ele>
        <time>2020-05-31T09:36:43Z</time>
      </trkpt>
      <trkpt lat="46.3398" lon="-0.4191">
        <ele>65.6</ele>
        <time>2020-05-31T09:36:44Z</time>
      </trkpt>
      <trkpt lat="46.33976" lon="-0.41919">
        <ele>65.5</ele>
        <time>2020-05-31T09:36:45Z</time>
      </trkpt>
      <trkpt lat="46.33971" lon="-0.41928">
        <ele>65.4</ele>
        <time>2020-05-31T09:36:46Z</time>
      </trkpt>
      <trkpt lat="46.33967" lon="-0.41937">
        <ele>65.2</ele>
        <time>2020-05-31T09:36:47Z</time>
      </trkpt>
      <trkpt lat="46.33962" lon="-0.41946">
        <ele>65.1</ele>
        <time>2020-05-31T09:36:48Z</time>
      </trkpt>
      <trkpt lat="46.33958" lon="-0.41954">
        <ele>65</ele>
        <time>2020-05-31T09:36:49Z</time>
      </trkpt>
      <trkpt lat="46.33954" lon="-0.41962">
        <ele>64.8</ele>
        <time>2020-05-31T09:36:50Z</time>
      </trkpt>
      <trkpt lat="46.33951" lon="-0.41969">
        <ele>64.7</ele>
        <time>2020-05-31T09:36:51Z</time>
      </trkpt>
      <trkpt lat="46.33947" lon="-0.41978">
        <ele>64.5</ele>
        <time>2020-05-31T09:36:52Z</time>
      </trkpt>
      <trkpt lat="46.33942" lon="-0.41985">
        <ele>64.3</ele>
        <time>2020-05-31T09:36:53Z</time>
      </trkpt>
      <trkpt lat="46.33938" lon="-0.41993">
        <ele>64.1</ele>
        <time>2020-05-31T09:36:54Z</time>
      </trkpt>
      <trkpt lat="46.33934" lon="-0.42002">
        <ele>64</ele>
        <time>2020-05-31T09:36:55Z</time>
      </trkpt>
      <trkpt lat="46.3393" lon="-0.4201">
        <ele>63.9</ele>
        <time>2020-05-31T09:36:56Z</time>
      </trkpt>
      <trkpt lat="46.33927" lon="-0.42019">
        <ele>63.8</ele>
        <time>2020-05-31T09:36:57Z</time>
      </trkpt>
      <trkpt lat="46.33923" lon="-0.42029">
        <ele>63.6</ele>
        <time>2020-05-31T09:36:58Z</time>
      </trkpt>
      <trkpt lat="46.3392" lon="-0.42038">
        <ele>63.5</ele>
        <time>2020-05-31T09:36:59Z</time>
      </trkpt>
      <trkpt lat="46.33916" lon="-0.42046">
        <ele>63.3</ele>
        <time>2020-05-31T09:37:00Z</time>
      </trkpt>
      <trkpt lat="46.33913" lon="-0.42054">
        <ele>63.2</ele>
        <time>2020-05-31T09:37:01Z</time>
      </trkpt>
      <trkpt lat="46.3391" lon="-0.42062">
        <ele>63.1</ele>
        <time>2020-05-31T09:37:02Z</time>
      </trkpt>
      <trkpt lat="46.33908" lon="-0.4207">
        <ele>62.9</ele>
        <time>2020-05-31T09:37:03Z</time>
      </trkpt>
      <trkpt lat="46.33908" lon="-0.42077">
        <ele>62.9</ele>
        <time>2020-05-31T09:37:04Z</time>
      </trkpt>
      <trkpt lat="46.33913" lon="-0.42083">
        <ele>62.9</ele>
        <time>2020-05-31T09:37:05Z</time>
      </trkpt>
      <trkpt lat="46.33918" lon="-0.42087">
        <ele>62.8</ele>
        <time>2020-05-31T09:37:06Z</time>
      </trkpt>
      <trkpt lat="46.33922" lon="-0.42092">
        <ele>62.7</ele>
        <time>2020-05-31T09:37:07Z</time>
      </trkpt>
      <trkpt lat="46.33925" lon="-0.42099">
        <ele>62.6</ele>
        <time>2020-05-31T09:37:08Z</time>
      </trkpt>
      <trkpt lat="46.33929" lon="-0.42104">
        <ele>62.5</ele>
        <time>2020-05-31T09:37:09Z</time>
      </trkpt>
      <trkpt lat="46.33932" lon="-0.4211">
        <ele>62.3</ele>
        <time>2020-05-31T09:37:10Z</time>
      </trkpt>
      <trkpt lat="46.33936" lon="-0.42116">
        <ele>62.2</ele>
        <time>2020-05-31T09:37:11Z</time>
      </trkpt>
      <trkpt lat="46.3394" lon="-0.42121">
        <ele>62</ele>
        <time>2020-05-31T09:37:12Z</time>
      </trkpt>
      <trkpt lat="46.33944" lon="-0.42127">
        <ele>61.9</ele>
        <time>2020-05-31T09:37:13Z</time>
      </trkpt>
      <trkpt lat="46.33949" lon="-0.42133">
        <ele>61.7</ele>
        <time>2020-05-31T09:37:14Z</time>
      </trkpt>
      <trkpt lat="46.33954" lon="-0.4214">
        <ele>61.5</ele>
        <time>2020-05-31T09:37:15Z</time>
      </trkpt>
      <trkpt lat="46.33959" lon="-0.42147">
        <ele>61.2</ele>
        <time>2020-05-31T09:37:16Z</time>
      </trkpt>
      <trkpt lat="46.33964" lon="-0.42153">
        <ele>61</ele>
        <time>2020-05-31T09:37:17Z</time>
      </trkpt>
      <trkpt lat="46.3397" lon="-0.4216">
        <ele>60.7</ele>
        <time>2020-05-31T09:37:18Z</time>
      </trkpt>
      <trkpt lat="46.33975" lon="-0.42167">
        <ele>60.5</ele>
        <time>2020-05-31T09:37:19Z</time>
      </trkpt>
      <trkpt lat="46.3398" lon="-0.42174">
        <ele>60.2</ele>
        <time>2020-05-31T09:37:20Z</time>
      </trkpt>
      <trkpt lat="46.33985" lon="-0.42182">
        <ele>59.8</ele>
        <time>2020-05-31T09:37:21Z</time>
      </trkpt>
      <trkpt lat="46.3399" lon="-0.4219">
        <ele>59.5</ele>
        <time>2020-05-31T09:37:22Z</time>
      </trkpt>
      <trkpt lat="46.33995" lon="-0.42199">
        <ele>59.2</ele>
        <time>2020-05-31T09:37:23Z</time>
      </trkpt>
      <trkpt lat="46.34001" lon="-0.42207">
        <ele>58.9</ele>
        <time>2020-05-31T09:37:24Z</time>
      </trkpt>
      <trkpt lat="46.34007" lon="-0.42215">
        <ele>58.7</ele>
        <time>2020-05-31T09:37:25Z</time>
      </trkpt>
      <trkpt lat="46.34013" lon="-0.42223">
        <ele>58.5</ele>
        <time>2020-05-31T09:37:26Z</time>
      </trkpt>
      <trkpt lat="46.34019" lon="-0.4223">
        <ele>58.5</ele>
        <time>2020-05-31T09:37:27Z</time>
      </trkpt>
      <trkpt lat="46.34025" lon="-0.42238">
        <ele>58.6</ele>
        <time>2020-05-31T09:37:28Z</time>
      </trkpt>
      <trkpt lat="46.34029" lon="-0.42247">
        <ele>58.6</ele>
        <time>2020-05-31T09:37:29Z</time>
      </trkpt>
      <trkpt lat="46.34033" lon="-0.42255">
        <ele>58.6</ele>
        <time>2020-05-31T09:37:30Z</time>
      </trkpt>
      <trkpt lat="46.34038" lon="-0.42263">
        <ele>58.7</ele>
        <time>2020-05-31T09:37:31Z</time>
      </trkpt>
      <trkpt lat="46.34042" lon="-0.4227">
        <ele>58.8</ele>
        <time>2020-05-31T09:37:32Z</time>
      </trkpt>
      <trkpt lat="46.34047" lon="-0.42277">
        <ele>58.8</ele>
        <time>2020-05-31T09:37:33Z</time>
      </trkpt>
      <trkpt lat="46.34051" lon="-0.42284">
        <ele>58.9</ele>
        <time>2020-05-31T09:37:34Z</time>
      </trkpt>
      <trkpt lat="46.34056" lon="-0.4229">
        <ele>59</ele>
        <time>2020-05-31T09:37:35Z</time>
      </trkpt>
      <trkpt lat="46.3406" lon="-0.42296">
        <ele>59.1</ele>
        <time>2020-05-31T09:37:36Z</time>
      </trkpt>
      <trkpt lat="46.34064" lon="-0.42303">
        <ele>59.3</ele>
        <time>2020-05-31T09:37:37Z</time>
      </trkpt>
      <trkpt lat="46.34067" lon="-0.42309">
        <ele>59.5</ele>
        <time>2020-05-31T09:37:38Z</time>
      </trkpt>
      <trkpt lat="46.34071" lon="-0.42315">
        <ele>59.7</ele>
        <time>2020-05-31T09:37:39Z</time>
      </trkpt>
      <trkpt lat="46.34075" lon="-0.4232">
        <ele>59.9</ele>
        <time>2020-05-31T09:37:40Z</time>
      </trkpt>
      <trkpt lat="46.34079" lon="-0.42326">
        <ele>60.1</ele>
        <time>2020-05-31T09:37:41Z</time>
      </trkpt>
      <trkpt lat="46.34083" lon="-0.42331">
        <ele>60.4</ele>
        <time>2020-05-31T09:37:42Z</time>
      </trkpt>
      <trkpt lat="46.34087" lon="-0.42337">
        <ele>60.6</ele>
        <time>2020-05-31T09:37:43Z</time>
      </trkpt>
      <trkpt lat="46.3409" lon="-0.42342">
        <ele>60.8</ele>
        <time>2020-05-31T09:37:44Z</time>
      </trkpt>
      <trkpt lat="46.34094" lon="-0.42348">
        <ele>61</ele>
        <time>2020-05-31T09:37:45Z</time>
      </trkpt>
      <trkpt lat="46.34097" lon="-0.42353">
        <ele>61.3</ele>
        <time>2020-05-31T09:37:46Z</time>
      </trkpt>
      <trkpt lat="46.341" lon="-0.4236">
        <ele>61.5</ele>
        <time>2020-05-31T09:37:47Z</time>
      </trkpt>
      <trkpt lat="46.34104" lon="-0.42365">
        <ele>61.7</ele>
        <time>2020-05-31T09:37:48Z</time>
      </trkpt>
      <trkpt lat="46.34106" lon="-0.42371">
        <ele>61.9</ele>
        <time>2020-05-31T09:37:49Z</time>
      </trkpt>
      <trkpt lat="46.34109" lon="-0.42377">
        <ele>62.1</ele>
        <time>2020-05-31T09:37:50Z</time>
      </trkpt>
      <trkpt lat="46.34113" lon="-0.42379">
        <ele>62.2</ele>
        <time>2020-05-31T09:37:51Z</time>
      </trkpt>
      <trkpt lat="46.34117" lon="-0.42383">
        <ele>62.4</ele>
        <time>2020-05-31T09:37:52Z</time>
      </trkpt>
      <trkpt lat="46.3412" lon="-0.42386">
        <ele>62.5</ele>
        <time>2020-05-31T09:37:53Z</time>
      </trkpt>
      <trkpt lat="46.34122" lon="-0.42389">
        <ele>62.6</ele>
        <time>2020-05-31T09:37:54Z</time>
      </trkpt>
      <trkpt lat="46.34124" lon="-0.42392">
        <ele>62.7</ele>
        <time>2020-05-31T09:37:55Z</time>
      </trkpt>
      <trkpt lat="46.34125" lon="-0.42392">
        <ele>62.7</ele>
        <time>2020-05-31T09:37:56Z</time>
      </trkpt>
      <trkpt lat="46.34125" lon="-0.42393">
        <ele>62.8</ele>
        <time>2020-05-31T09:37:57Z</time>
      </trkpt>
      <trkpt lat="46.34126" lon="-0.42393">
        <ele>62.8</ele>
        <time>2020-05-31T09:37:58Z</time>
      </trkpt>
      <trkpt lat="46.34126" lon="-0.42393">
        <ele>62.8</ele>
        <time>2020-05-31T09:37:59Z</time>
      </trkpt>
      <trkpt lat="46.34126" lon="-0.42393">
        <ele>62.8</ele>
        <time>2020-05-31T09:38:00Z</time>
      </trkpt>
      <trkpt lat="46.34127" lon="-0.42393">
        <ele>62.8</ele>
        <time>2020-05-31T09:38:01Z</time>
      </trkpt>
      <trkpt lat="46.34127" lon="-0.42394">
        <ele>62.8</ele>
        <time>2020-05-31T09:38:02Z</time>
      </trkpt>
      <trkpt lat="46.34127" lon="-0.42394">
        <ele>62.8</ele>
        <time>2020-05-31T09:38:03Z</time>
      </trkpt>
      <trkpt lat="46.34128" lon="-0.42394">
        <ele>62.9</ele>
        <time>2020-05-31T09:38:04Z</time>
      </trkpt>
      <trkpt lat="46.34129" lon="-0.42396">
        <ele>62.9</ele>
        <time>2020-05-31T09:38:05Z</time>
      </trkpt>
      <trkpt lat="46.3413" lon="-0.42398">
        <ele>63</ele>
        <time>2020-05-31T09:38:06Z</time>
      </trkpt>
      <trkpt lat="46.3413" lon="-0.42399">
        <ele>63</ele>
        <time>2020-05-31T09:38:07Z</time>
      </trkpt>
      <trkpt lat="46.34132" lon="-0.42403">
        <ele>63.1</ele>
        <time>2020-05-31T09:38:08Z</time>
      </trkpt>
      <trkpt lat="46.34133" lon="-0.42404">
        <ele>63.1</ele>
        <time>2020-05-31T09:38:09Z</time>
      </trkpt>
      <trkpt lat="46.34135" lon="-0.42407">
        <ele>63.2</ele>
        <time>2020-05-31T09:38:10Z</time>
      </trkpt>
      <trkpt lat="46.34139" lon="-0.42409">
        <ele>63.3</ele>
        <time>2020-05-31T09:38:11Z</time>
      </trkpt>
      <trkpt lat="46.34142" lon="-0.4241">
        <ele>63.5</ele>
        <time>2020-05-31T09:38:12Z</time>
      </trkpt>
      <trkpt lat="46.34145" lon="-0.4241">
        <ele>63.5</ele>
        <time>2020-05-31T09:38:13Z</time>
      </trkpt>
      <trkpt lat="46.34148" lon="-0.42409">
        <ele>63.5</ele>
        <time>2020-05-31T09:38:14Z</time>
      </trkpt>
      <trkpt lat="46.34151" lon="-0.42406">
        <ele>63.5</ele>
        <time>2020-05-31T09:38:15Z</time>
      </trkpt>
      <trkpt lat="46.34154" lon="-0.42403">
        <ele>63.5</ele>
        <time>2020-05-31T09:38:16Z</time>
      </trkpt>
      <trkpt lat="46.34157" lon="-0.424">
        <ele>63.6</ele>
        <time>2020-05-31T09:38:17Z</time>
      </trkpt>
      <trkpt lat="46.34158" lon="-0.42399">
        <ele>63.6</ele>
        <time>2020-05-31T09:38:18Z</time>
      </trkpt>
      <trkpt lat="46.34162" lon="-0.42397">
        <ele>63.6</ele>
        <time>2020-05-31T09:38:19Z</time>
      </trkpt>
      <trkpt lat="46.34164" lon="-0.42397">
        <ele>63.6</ele>
        <time>2020-05-31T09:38:20Z</time>
      </trkpt>
      <trkpt lat="46.34168" lon="-0.42397">
        <ele>63.7</ele>
        <time>2020-05-31T09:38:21Z</time>
      </trkpt>
      <trkpt lat="46.34171" lon="-0.42397">
        <ele>63.7</ele>
        <time>2020-05-31T09:38:22Z</time>
      </trkpt>
      <trkpt lat="46.34175" lon="-0.42402">
        <ele>63.7</ele>
        <time>2020-05-31T09:38:23Z</time>
      </trkpt>
      <trkpt lat="46.34178" lon="-0.42406">
        <ele>63.8</ele>
        <time>2020-05-31T09:38:24Z</time>
      </trkpt>
      <trkpt lat="46.34181" lon="-0.4241">
        <ele>63.8</ele>
        <time>2020-05-31T09:38:25Z</time>
      </trkpt>
      <trkpt lat="46.34185" lon="-0.42413">
        <ele>63.9</ele>
        <time>2020-05-31T09:38:26Z</time>
      </trkpt>
      <trkpt lat="46.34188" lon="-0.42417">
        <ele>64</ele>
        <time>2020-05-31T09:38:27Z</time>
      </trkpt>
      <trkpt lat="46.34192" lon="-0.42421">
        <ele>64</ele>
        <time>2020-05-31T09:38:28Z</time>
      </trkpt>
      <trkpt lat="46.34195" lon="-0.42424">
        <ele>64.1</ele>
        <time>2020-05-31T09:38:29Z</time>
      </trkpt>
      <trkpt lat="46.34199" lon="-0.42428">
        <ele>64.2</ele>
        <time>2020-05-31T09:38:30Z</time>
      </trkpt>
      <trkpt lat="46.34203" lon="-0.42432">
        <ele>64.3</ele>
        <time>2020-05-31T09:38:31Z</time>
      </trkpt>
      <trkpt lat="46.34208" lon="-0.42436">
        <ele>64.4</ele>
        <time>2020-05-31T09:38:32Z</time>
      </trkpt>
      <trkpt lat="46.34211" lon="-0.4244">
        <ele>64.5</ele>
        <time>2020-05-31T09:38:33Z</time>
      </trkpt>
      <trkpt lat="46.34213" lon="-0.42445">
        <ele>64.6</ele>
        <time>2020-05-31T09:38:34Z</time>
      </trkpt>
      <trkpt lat="46.34216" lon="-0.42449">
        <ele>64.6</ele>
        <time>2020-05-31T09:38:35Z</time>
      </trkpt>
      <trkpt lat="46.34219" lon="-0.42453">
        <ele>64.7</ele>
        <time>2020-05-31T09:38:36Z</time>
      </trkpt>
      <trkpt lat="46.34221" lon="-0.42457">
        <ele>64.8</ele>
        <time>2020-05-31T09:38:37Z</time>
      </trkpt>
      <trkpt lat="46.34224" lon="-0.42461">
        <ele>64.8</ele>
        <time>2020-05-31T09:38:38Z</time>
      </trkpt>
      <trkpt lat="46.34226" lon="-0.42464">
        <ele>64.8</ele>
        <time>2020-05-31T09:38:39Z</time>
      </trkpt>
      <trkpt lat="46.3423" lon="-0.42468">
        <ele>64.9</ele>
        <time>2020-05-31T09:38:40Z</time>
      </trkpt>
      <trkpt lat="46.34231" lon="-0.42469">
        <ele>64.9</ele>
        <time>2020-05-31T09:38:41Z</time>
      </trkpt>
      <trkpt lat="46.34234" lon="-0.42472">
        <ele>64.9</ele>
        <time>2020-05-31T09:38:42Z</time>
      </trkpt>
      <trkpt lat="46.34236" lon="-0.42476">
        <ele>64.9</ele>
        <time>2020-05-31T09:38:43Z</time>
      </trkpt>
      <trkpt lat="46.34238" lon="-0.42478">
        <ele>64.9</ele>
        <time>2020-05-31T09:38:44Z</time>
      </trkpt>
      <trkpt lat="46.34239" lon="-0.42482">
        <ele>64.9</ele>
        <time>2020-05-31T09:38:45Z</time>
      </trkpt>
      <trkpt lat="46.34241" lon="-0.42487">
        <ele>64.9</ele>
        <time>2020-05-31T09:38:46Z</time>
      </trkpt>
      <trkpt lat="46.34243" lon="-0.42492">
        <ele>64.9</ele>
        <time>2020-05-31T09:38:47Z</time>
      </trkpt>
      <trkpt lat="46.34245" lon="-0.42495">
        <ele>64.9</ele>
        <time>2020-05-31T09:38:48Z</time>
      </trkpt>
      <trkpt lat="46.34248" lon="-0.42498">
        <ele>64.9</ele>
        <time>2020-05-31T09:38:49Z</time>
      </trkpt>
      <trkpt lat="46.34251" lon="-0.42501">
        <ele>64.9</ele>
        <time>2020-05-31T09:38:50Z</time>
      </trkpt>
      <trkpt lat="46.34255" lon="-0.42504">
        <ele>64.9</ele>
        <time>2020-05-31T09:38:51Z</time>
      </trkpt>
      <trkpt lat="46.34258" lon="-0.42509">
        <ele>64.9</ele>
        <time>2020-05-31T09:38:52Z</time>
      </trkpt>
      <trkpt lat="46.34261" lon="-0.42513">
        <ele>64.8</ele>
        <time>2020-05-31T09:38:53Z</time>
      </trkpt>
      <trkpt lat="46.34265" lon="-0.42517">
        <ele>64.8</ele>
        <time>2020-05-31T09:38:54Z</time>
      </trkpt>
      <trkpt lat="46.34269" lon="-0.4252">
        <ele>64.7</ele>
        <time>2020-05-31T09:38:55Z</time>
      </trkpt>
      <trkpt lat="46.34272" lon="-0.42524">
        <ele>64.6</ele>
        <time>2020-05-31T09:38:56Z</time>
      </trkpt>
      <trkpt lat="46.34275" lon="-0.42528">
        <ele>64.6</ele>
        <time>2020-05-31T09:38:57Z</time>
      </trkpt>
      <trkpt lat="46.34279" lon="-0.42534">
        <ele>64.5</ele>
        <time>2020-05-31T09:38:58Z</time>
      </trkpt>
      <trkpt lat="46.34283" lon="-0.42538">
        <ele>64.4</ele>
        <time>2020-05-31T09:38:59Z</time>
      </trkpt>
      <trkpt lat="46.34286" lon="-0.42543">
        <ele>64.3</ele>
        <time>2020-05-31T09:39:00Z</time>
      </trkpt>
      <trkpt lat="46.34289" lon="-0.42548">
        <ele>64.2</ele>
        <time>2020-05-31T09:39:01Z</time>
      </trkpt>
      <trkpt lat="46.34293" lon="-0.42553">
        <ele>64.1</ele>
        <time>2020-05-31T09:39:02Z</time>
      </trkpt>
      <trkpt lat="46.34296" lon="-0.42559">
        <ele>64</ele>
        <time>2020-05-31T09:39:03Z</time>
      </trkpt>
      <trkpt lat="46.34299" lon="-0.42565">
        <ele>63.9</ele>
        <time>2020-05-31T09:39:04Z</time>
      </trkpt>
      <trkpt lat="46.34302" lon="-0.42572">
        <ele>63.7</ele>
        <time>2020-05-31T09:39:05Z</time>
      </trkpt>
      <trkpt lat="46.34306" lon="-0.42578">
        <ele>63.6</ele>
        <time>2020-05-31T09:39:06Z</time>
      </trkpt>
      <trkpt lat="46.3431" lon="-0.42584">
        <ele>63.4</ele>
        <time>2020-05-31T09:39:07Z</time>
      </trkpt>
      <trkpt lat="46.34314" lon="-0.42591">
        <ele>63.3</ele>
        <time>2020-05-31T09:39:08Z</time>
      </trkpt>
      <trkpt lat="46.34319" lon="-0.42598">
        <ele>63.1</ele>
        <time>2020-05-31T09:39:09Z</time>
      </trkpt>
      <trkpt lat="46.34323" lon="-0.42605">
        <ele>62.9</ele>
        <time>2020-05-31T09:39:10Z</time>
      </trkpt>
      <trkpt lat="46.34327" lon="-0.42611">
        <ele>62.7</ele>
        <time>2020-05-31T09:39:11Z</time>
      </trkpt>
      <trkpt lat="46.34332" lon="-0.42618">
        <ele>62.5</ele>
        <time>2020-05-31T09:39:12Z</time>
      </trkpt>
      <trkpt lat="46.34336" lon="-0.42626">
        <ele>62.3</ele>
        <time>2020-05-31T09:39:13Z</time>
      </trkpt>
      <trkpt lat="46.3434" lon="-0.42634">
        <ele>62.1</ele>
        <time>2020-05-31T09:39:14Z</time>
      </trkpt>
      <trkpt lat="46.34345" lon="-0.42642">
        <ele>61.9</ele>
        <time>2020-05-31T09:39:15Z</time>
      </trkpt>
      <trkpt lat="46.3435" lon="-0.42648">
        <ele>61.8</ele>
        <time>2020-05-31T09:39:16Z</time>
      </trkpt>
      <trkpt lat="46.34355" lon="-0.42656">
        <ele>61.6</ele>
        <time>2020-05-31T09:39:17Z</time>
      </trkpt>
      <trkpt lat="46.3436" lon="-0.42663">
        <ele>61.4</ele>
        <time>2020-05-31T09:39:18Z</time>
      </trkpt>
      <trkpt lat="46.34365" lon="-0.42671">
        <ele>61.3</ele>
        <time>2020-05-31T09:39:19Z</time>
      </trkpt>
      <trkpt lat="46.34369" lon="-0.42678">
        <ele>61.3</ele>
        <time>2020-05-31T09:39:20Z</time>
      </trkpt>
      <trkpt lat="46.34373" lon="-0.42685">
        <ele>61.3</ele>
        <time>2020-05-31T09:39:21Z</time>
      </trkpt>
      <trkpt lat="46.34377" lon="-0.42694">
        <ele>61.3</ele>
        <time>2020-05-31T09:39:22Z</time>
      </trkpt>
      <trkpt lat="46.34381" lon="-0.42703">
        <ele>61.4</ele>
        <time>2020-05-31T09:39:23Z</time>
      </trkpt>
      <trkpt lat="46.34384" lon="-0.42712">
        <ele>61.4</ele>
        <time>2020-05-31T09:39:24Z</time>
      </trkpt>
      <trkpt lat="46.34388" lon="-0.4272">
        <ele>61.4</ele>
        <time>2020-05-31T09:39:25Z</time>
      </trkpt>
      <trkpt lat="46.34391" lon="-0.42727">
        <ele>61.5</ele>
        <time>2020-05-31T09:39:26Z</time>
      </trkpt>
      <trkpt lat="46.34394" lon="-0.42732">
        <ele>61.5</ele>
        <time>2020-05-31T09:39:27Z</time>
      </trkpt>
      <trkpt lat="46.34399" lon="-0.42738">
        <ele>61.5</ele>
        <time>2020-05-31T09:39:28Z</time>
      </trkpt>
      <trkpt lat="46.34404" lon="-0.42743">
        <ele>61.5</ele>
        <time>2020-05-31T09:39:29Z</time>
      </trkpt>
      <trkpt lat="46.34408" lon="-0.42749">
        <ele>61.6</ele>
        <time>2020-05-31T09:39:30Z</time>
      </trkpt>
      <trkpt lat="46.34414" lon="-0.42754">
        <ele>61.7</ele>
        <time>2020-05-31T09:39:31Z</time>
      </trkpt>
      <trkpt lat="46.34419" lon="-0.4276">
        <ele>61.7</ele>
        <time>2020-05-31T09:39:32Z</time>
      </trkpt>
      <trkpt lat="46.34424" lon="-0.42767">
        <ele>61.7</ele>
        <time>2020-05-31T09:39:33Z</time>
      </trkpt>
      <trkpt lat="46.34428" lon="-0.42773">
        <ele>61.7</ele>
        <time>2020-05-31T09:39:34Z</time>
      </trkpt>
      <trkpt lat="46.34433" lon="-0.4278">
        <ele>61.7</ele>
        <time>2020-05-31T09:39:35Z</time>
      </trkpt>
      <trkpt lat="46.34437" lon="-0.42787">
        <ele>61.7</ele>
        <time>2020-05-31T09:39:36Z</time>
      </trkpt>
      <trkpt lat="46.34442" lon="-0.42793">
        <ele>61.7</ele>
        <time>2020-05-31T09:39:37Z</time>
      </trkpt>
      <trkpt lat="46.34447" lon="-0.42798">
        <ele>61.7</ele>
        <time>2020-05-31T09:39:38Z</time>
      </trkpt>
      <trkpt lat="46.34451" lon="-0.42803">
        <ele>61.7</ele>
        <time>2020-05-31T09:39:39Z</time>
      </trkpt>
      <trkpt lat="46.34456" lon="-0.42809">
        <ele>61.8</ele>
        <time>2020-05-31T09:39:40Z</time>
      </trkpt>
      <trkpt lat="46.3446" lon="-0.42815">
        <ele>61.8</ele>
        <time>2020-05-31T09:39:41Z</time>
      </trkpt>
      <trkpt lat="46.34465" lon="-0.42821">
        <ele>62</ele>
        <time>2020-05-31T09:39:42Z</time>
      </trkpt>
      <trkpt lat="46.34469" lon="-0.42826">
        <ele>62.2</ele>
        <time>2020-05-31T09:39:43Z</time>
      </trkpt>
      <trkpt lat="46.34473" lon="-0.42832">
        <ele>62.4</ele>
        <time>2020-05-31T09:39:44Z</time>
      </trkpt>
      <trkpt lat="46.34478" lon="-0.42837">
        <ele>62.6</ele>
        <time>2020-05-31T09:39:45Z</time>
      </trkpt>
      <trkpt lat="46.34483" lon="-0.42841">
        <ele>62.8</ele>
        <time>2020-05-31T09:39:46Z</time>
      </trkpt>
      <trkpt lat="46.34487" lon="-0.42846">
        <ele>63</ele>
        <time>2020-05-31T09:39:47Z</time>
      </trkpt>
      <trkpt lat="46.34491" lon="-0.4285">
        <ele>63.2</ele>
        <time>2020-05-31T09:39:48Z</time>
      </trkpt>
      <trkpt lat="46.34494" lon="-0.42854">
        <ele>63.4</ele>
        <time>2020-05-31T09:39:49Z</time>
      </trkpt>
      <trkpt lat="46.34498" lon="-0.42859">
        <ele>63.5</ele>
        <time>2020-05-31T09:39:50Z</time>
      </trkpt>
      <trkpt lat="46.34501" lon="-0.42863">
        <ele>63.7</ele>
        <time>2020-05-31T09:39:51Z</time>
      </trkpt>
      <trkpt lat="46.34504" lon="-0.42868">
        <ele>63.9</ele>
        <time>2020-05-31T09:39:52Z</time>
      </trkpt>
      <trkpt lat="46.34506" lon="-0.42873">
        <ele>64</ele>
        <time>2020-05-31T09:39:53Z</time>
      </trkpt>
      <trkpt lat="46.34509" lon="-0.42877">
        <ele>64.2</ele>
        <time>2020-05-31T09:39:54Z</time>
      </trkpt>
      <trkpt lat="46.34512" lon="-0.42881">
        <ele>64.3</ele>
        <time>2020-05-31T09:39:55Z</time>
      </trkpt>
      <trkpt lat="46.34516" lon="-0.42885">
        <ele>64.5</ele>
        <time>2020-05-31T09:39:56Z</time>
      </trkpt>
      <trkpt lat="46.3452" lon="-0.42889">
        <ele>64.6</ele>
        <time>2020-05-31T09:39:57Z</time>
      </trkpt>
      <trkpt lat="46.34524" lon="-0.42892">
        <ele>64.8</ele>
        <time>2020-05-31T09:39:58Z</time>
      </trkpt>
      <trkpt lat="46.34527" lon="-0.42896">
        <ele>64.9</ele>
        <time>2020-05-31T09:39:59Z</time>
      </trkpt>
      <trkpt lat="46.34531" lon="-0.429">
        <ele>65.1</ele>
        <time>2020-05-31T09:40:00Z</time>
      </trkpt>
      <trkpt lat="46.34535" lon="-0.42904">
        <ele>65.2</ele>
        <time>2020-05-31T09:40:01Z</time>
      </trkpt>
      <trkpt lat="46.34539" lon="-0.42907">
        <ele>65.4</ele>
        <time>2020-05-31T09:40:02Z</time>
      </trkpt>
      <trkpt lat="46.34543" lon="-0.4291">
        <ele>65.6</ele>
        <time>2020-05-31T09:40:03Z</time>
      </trkpt>
      <trkpt lat="46.34546" lon="-0.42914">
        <ele>65.7</ele>
        <time>2020-05-31T09:40:04Z</time>
      </trkpt>
      <trkpt lat="46.34549" lon="-0.42918">
        <ele>65.8</ele>
        <time>2020-05-31T09:40:05Z</time>
      </trkpt>
      <trkpt lat="46.34552" lon="-0.4292">
        <ele>66</ele>
        <time>2020-05-31T09:40:06Z</time>
      </trkpt>
      <trkpt lat="46.34556" lon="-0.42923">
        <ele>66.1</ele>
        <time>2020-05-31T09:40:07Z</time>
      </trkpt>
      <trkpt lat="46.3456" lon="-0.42926">
        <ele>66.3</ele>
        <time>2020-05-31T09:40:08Z</time>
      </trkpt>
      <trkpt lat="46.34564" lon="-0.4293">
        <ele>66.5</ele>
        <time>2020-05-31T09:40:09Z</time>
      </trkpt>
      <trkpt lat="46.34567" lon="-0.42933">
        <ele>66.7</ele>
        <time>2020-05-31T09:40:10Z</time>
      </trkpt>
      <trkpt lat="46.3457" lon="-0.42937">
        <ele>66.8</ele>
        <time>2020-05-31T09:40:11Z</time>
      </trkpt>
      <trkpt lat="46.34574" lon="-0.42941">
        <ele>67</ele>
        <time>2020-05-31T09:40:12Z</time>
      </trkpt>
      <trkpt lat="46.34578" lon="-0.42944">
        <ele>67.2</ele>
        <time>2020-05-31T09:40:13Z</time>
      </trkpt>
      <trkpt lat="46.34581" lon="-0.42947">
        <ele>67.4</ele>
        <time>2020-05-31T09:40:14Z</time>
      </trkpt>
      <trkpt lat="46.34585" lon="-0.42951">
        <ele>67.5</ele>
        <time>2020-05-31T09:40:15Z</time>
      </trkpt>
      <trkpt lat="46.34588" lon="-0.42954">
        <ele>67.7</ele>
        <time>2020-05-31T09:40:16Z</time>
      </trkpt>
      <trkpt lat="46.34591" lon="-0.42958">
        <ele>67.8</ele>
        <time>2020-05-31T09:40:17Z</time>
      </trkpt>
      <trkpt lat="46.34594" lon="-0.42961">
        <ele>67.9</ele>
        <time>2020-05-31T09:40:18Z</time>
      </trkpt>
      <trkpt lat="46.34598" lon="-0.42965">
        <ele>68</ele>
        <time>2020-05-31T09:40:19Z</time>
      </trkpt>
      <trkpt lat="46.34601" lon="-0.42968">
        <ele>68.1</ele>
        <time>2020-05-31T09:40:20Z</time>
      </trkpt>
      <trkpt lat="46.34605" lon="-0.42972">
        <ele>68.2</ele>
        <time>2020-05-31T09:40:21Z</time>
      </trkpt>
      <trkpt lat="46.34608" lon="-0.42977">
        <ele>68.3</ele>
        <time>2020-05-31T09:40:22Z</time>
      </trkpt>
      <trkpt lat="46.34612" lon="-0.4298">
        <ele>68.4</ele>
        <time>2020-05-31T09:40:23Z</time>
      </trkpt>
      <trkpt lat="46.34616" lon="-0.42985">
        <ele>68.5</ele>
        <time>2020-05-31T09:40:24Z</time>
      </trkpt>
      <trkpt lat="46.3462" lon="-0.42989">
        <ele>68.5</ele>
        <time>2020-05-31T09:40:25Z</time>
      </trkpt>
      <trkpt lat="46.34624" lon="-0.42993">
        <ele>68.5</ele>
        <time>2020-05-31T09:40:26Z</time>
      </trkpt>
      <trkpt lat="46.34628" lon="-0.42996">
        <ele>68.6</ele>
        <time>2020-05-31T09:40:27Z</time>
      </trkpt>
      <trkpt lat="46.34633" lon="-0.43">
        <ele>68.7</ele>
        <time>2020-05-31T09:40:28Z</time>
      </trkpt>
      <trkpt lat="46.34637" lon="-0.43004">
        <ele>68.7</ele>
        <time>2020-05-31T09:40:29Z</time>
      </trkpt>
      <trkpt lat="46.3464" lon="-0.43009">
        <ele>68.8</ele>
        <time>2020-05-31T09:40:30Z</time>
      </trkpt>
      <trkpt lat="46.34644" lon="-0.43014">
        <ele>68.9</ele>
        <time>2020-05-31T09:40:31Z</time>
      </trkpt>
      <trkpt lat="46.34648" lon="-0.43019">
        <ele>69</ele>
        <time>2020-05-31T09:40:32Z</time>
      </trkpt>
      <trkpt lat="46.34652" lon="-0.43023">
        <ele>69</ele>
        <time>2020-05-31T09:40:33Z</time>
      </trkpt>
      <trkpt lat="46.34656" lon="-0.43026">
        <ele>69.1</ele>
        <time>2020-05-31T09:40:34Z</time>
      </trkpt>
      <trkpt lat="46.34659" lon="-0.43031">
        <ele>69.1</ele>
        <time>2020-05-31T09:40:35Z</time>
      </trkpt>
      <trkpt lat="46.34663" lon="-0.43035">
        <ele>69.2</ele>
        <time>2020-05-31T09:40:36Z</time>
      </trkpt>
      <trkpt lat="46.34667" lon="-0.43039">
        <ele>69.2</ele>
        <time>2020-05-31T09:40:37Z</time>
      </trkpt>
      <trkpt lat="46.3467" lon="-0.43044">
        <ele>69.2</ele>
        <time>2020-05-31T09:40:38Z</time>
      </trkpt>
      <trkpt lat="46.34674" lon="-0.43048">
        <ele>69.2</ele>
        <time>2020-05-31T09:40:39Z</time>
      </trkpt>
      <trkpt lat="46.34677" lon="-0.43053">
        <ele>69.2</ele>
        <time>2020-05-31T09:40:40Z</time>
      </trkpt>
      <trkpt lat="46.34682" lon="-0.43057">
        <ele>69.3</ele>
        <time>2020-05-31T09:40:41Z</time>
      </trkpt>
      <trkpt lat="46.34686" lon="-0.43061">
        <ele>69.3</ele>
        <time>2020-05-31T09:40:42Z</time>
      </trkpt>
      <trkpt lat="46.34689" lon="-0.43066">
        <ele>69.3</ele>
        <time>2020-05-31T09:40:43Z</time>
      </trkpt>
      <trkpt lat="46.34692" lon="-0.43072">
        <ele>69.3</ele>
        <time>2020-05-31T09:40:44Z</time>
      </trkpt>
      <trkpt lat="46.34696" lon="-0.43076">
        <ele>69.3</ele>
        <time>2020-05-31T09:40:45Z</time>
      </trkpt>
      <trkpt lat="46.347" lon="-0.43081">
        <ele>69.3</ele>
        <time>2020-05-31T09:40:46Z</time>
      </trkpt>
      <trkpt lat="46.34704" lon="-0.43085">
        <ele>69.3</ele>
        <time>2020-05-31T09:40:47Z</time>
      </trkpt>
      <trkpt lat="46.34708" lon="-0.43089">
        <ele>69.3</ele>
        <time>2020-05-31T09:40:48Z</time>
      </trkpt>
      <trkpt lat="46.34712" lon="-0.43093">
        <ele>69.3</ele>
        <time>2020-05-31T09:40:49Z</time>
      </trkpt>
      <trkpt lat="46.34716" lon="-0.43097">
        <ele>69.3</ele>
        <time>2020-05-31T09:40:50Z</time>
      </trkpt>
      <trkpt lat="46.3472" lon="-0.43099">
        <ele>69.3</ele>
        <time>2020-05-31T09:40:51Z</time>
      </trkpt>
      <trkpt lat="46.34724" lon="-0.43104">
        <ele>69.3</ele>
        <time>2020-05-31T09:40:52Z</time>
      </trkpt>
      <trkpt lat="46.34728" lon="-0.43108">
        <ele>69.3</ele>
        <time>2020-05-31T09:40:53Z</time>
      </trkpt>
      <trkpt lat="46.34732" lon="-0.43111">
        <ele>69.3</ele>
        <time>2020-05-31T09:40:54Z</time>
      </trkpt>
      <trkpt lat="46.34736" lon="-0.43114">
        <ele>69.3</ele>
        <time>2020-05-31T09:40:55Z</time>
      </trkpt>
      <trkpt lat="46.3474" lon="-0.43118">
        <ele>69.3</ele>
        <time>2020-05-31T09:40:56Z</time>
      </trkpt>
      <trkpt lat="46.34744" lon="-0.43122">
        <ele>69.3</ele>
        <time>2020-05-31T09:40:57Z</time>
      </trkpt>
      <trkpt lat="46.34747" lon="-0.43127">
        <ele>69.3</ele>
        <time>2020-05-31T09:40:58Z</time>
      </trkpt>
      <trkpt lat="46.3475" lon="-0.43132">
        <ele>69.3</ele>
        <time>2020-05-31T09:40:59Z</time>
      </trkpt>
      <trkpt lat="46.34754" lon="-0.43136">
        <ele>69.3</ele>
        <time>2020-05-31T09:41:00Z</time>
      </trkpt>
      <trkpt lat="46.34757" lon="-0.4314">
        <ele>69.3</ele>
        <time>2020-05-31T09:41:01Z</time>
      </trkpt>
      <trkpt lat="46.3476" lon="-0.43143">
        <ele>69.3</ele>
        <time>2020-05-31T09:41:02Z</time>
      </trkpt>
      <trkpt lat="46.34764" lon="-0.43147">
        <ele>69.3</ele>
        <time>2020-05-31T09:41:03Z</time>
      </trkpt>
      <trkpt lat="46.34767" lon="-0.4315">
        <ele>69.3</ele>
        <time>2020-05-31T09:41:04Z</time>
      </trkpt>
      <trkpt lat="46.3477" lon="-0.43155">
        <ele>69.4</ele>
        <time>2020-05-31T09:41:05Z</time>
      </trkpt>
      <trkpt lat="46.34773" lon="-0.43158">
        <ele>69.4</ele>
        <time>2020-05-31T09:41:06Z</time>
      </trkpt>
      <trkpt lat="46.34776" lon="-0.43162">
        <ele>69.4</ele>
        <time>2020-05-31T09:41:07Z</time>
      </trkpt>
      <trkpt lat="46.34779" lon="-0.43165">
        <ele>69.4</ele>
        <time>2020-05-31T09:41:08Z</time>
      </trkpt>
      <trkpt lat="46.34783" lon="-0.43168">
        <ele>69.4</ele>
        <time>2020-05-31T09:41:09Z</time>
      </trkpt>
      <trkpt lat="46.34786" lon="-0.4317">
        <ele>69.4</ele>
        <time>2020-05-31T09:41:10Z</time>
      </trkpt>
      <trkpt lat="46.3479" lon="-0.4317">
        <ele>69.4</ele>
        <time>2020-05-31T09:41:11Z</time>
      </trkpt>
      <trkpt lat="46.34794" lon="-0.4317">
        <ele>69.5</ele>
        <time>2020-05-31T09:41:12Z</time>
      </trkpt>
      <trkpt lat="46.34797" lon="-0.43166">
        <ele>69.6</ele>
        <time>2020-05-31T09:41:13Z</time>
      </trkpt>
      <trkpt lat="46.34799" lon="-0.43161">
        <ele>69.7</ele>
        <time>2020-05-31T09:41:14Z</time>
      </trkpt>
      <trkpt lat="46.34801" lon="-0.43156">
        <ele>69.8</ele>
        <time>2020-05-31T09:41:15Z</time>
      </trkpt>
      <trkpt lat="46.34804" lon="-0.43152">
        <ele>69.9</ele>
        <time>2020-05-31T09:41:16Z</time>
      </trkpt>
      <trkpt lat="46.34806" lon="-0.43148">
        <ele>70</ele>
        <time>2020-05-31T09:41:17Z</time>
      </trkpt>
      <trkpt lat="46.34809" lon="-0.43144">
        <ele>70.1</ele>
        <time>2020-05-31T09:41:18Z</time>
      </trkpt>
      <trkpt lat="46.34811" lon="-0.4314">
        <ele>70.2</ele>
        <time>2020-05-31T09:41:19Z</time>
      </trkpt>
      <trkpt lat="46.34814" lon="-0.43136">
        <ele>70.4</ele>
        <time>2020-05-31T09:41:20Z</time>
      </trkpt>
      <trkpt lat="46.34816" lon="-0.43131">
        <ele>70.5</ele>
        <time>2020-05-31T09:41:21Z</time>
      </trkpt>
      <trkpt lat="46.34818" lon="-0.43126">
        <ele>70.6</ele>
        <time>2020-05-31T09:41:22Z</time>
      </trkpt>
      <trkpt lat="46.34821" lon="-0.43122">
        <ele>70.7</ele>
        <time>2020-05-31T09:41:23Z</time>
      </trkpt>
      <trkpt lat="46.34823" lon="-0.43118">
        <ele>70.9</ele>
        <time>2020-05-31T09:41:24Z</time>
      </trkpt>
      <trkpt lat="46.34826" lon="-0.43113">
        <ele>71</ele>
        <time>2020-05-31T09:41:25Z</time>
      </trkpt>
      <trkpt lat="46.34828" lon="-0.43109">
        <ele>71.1</ele>
        <time>2020-05-31T09:41:26Z</time>
      </trkpt>
      <trkpt lat="46.3483" lon="-0.43105">
        <ele>71.2</ele>
        <time>2020-05-31T09:41:27Z</time>
      </trkpt>
      <trkpt lat="46.34831" lon="-0.43099">
        <ele>71.3</ele>
        <time>2020-05-31T09:41:28Z</time>
      </trkpt>
      <trkpt lat="46.34832" lon="-0.43095">
        <ele>71.4</ele>
        <time>2020-05-31T09:41:29Z</time>
      </trkpt>
      <trkpt lat="46.34835" lon="-0.43091">
        <ele>71.5</ele>
        <time>2020-05-31T09:41:30Z</time>
      </trkpt>
      <trkpt lat="46.34837" lon="-0.43086">
        <ele>71.6</ele>
        <time>2020-05-31T09:41:31Z</time>
      </trkpt>
      <trkpt lat="46.34839" lon="-0.43082">
        <ele>71.7</ele>
        <time>2020-05-31T09:41:32Z</time>
      </trkpt>
      <trkpt lat="46.34842" lon="-0.43078">
        <ele>71.8</ele>
        <time>2020-05-31T09:41:33Z</time>
      </trkpt>
      <trkpt lat="46.34845" lon="-0.43073">
        <ele>72</ele>
        <time>2020-05-31T09:41:34Z</time>
      </trkpt>
      <trkpt lat="46.34848" lon="-0.43069">
        <ele>72.1</ele>
        <time>2020-05-31T09:41:35Z</time>
      </trkpt>
      <trkpt lat="46.34851" lon="-0.43065">
        <ele>72.2</ele>
        <time>2020-05-31T09:41:36Z</time>
      </trkpt>
      <trkpt lat="46.34854" lon="-0.43063">
        <ele>72.3</ele>
        <time>2020-05-31T09:41:37Z</time>
      </trkpt>
      <trkpt lat="46.34856" lon="-0.4306">
        <ele>72.6</ele>
        <time>2020-05-31T09:41:38Z</time>
      </trkpt>
      <trkpt lat="46.34859" lon="-0.43058">
        <ele>72.7</ele>
        <time>2020-05-31T09:41:39Z</time>
      </trkpt>
      <trkpt lat="46.34862" lon="-0.43056">
        <ele>72.7</ele>
        <time>2020-05-31T09:41:40Z</time>
      </trkpt>
      <trkpt lat="46.34865" lon="-0.43059">
        <ele>72.8</ele>
        <time>2020-05-31T09:41:41Z</time>
      </trkpt>
      <trkpt lat="46.34866" lon="-0.43061">
        <ele>72.8</ele>
        <time>2020-05-31T09:41:42Z</time>
      </trkpt>
      <trkpt lat="46.34867" lon="-0.43066">
        <ele>72.8</ele>
        <time>2020-05-31T09:41:43Z</time>
      </trkpt>
      <trkpt lat="46.34869" lon="-0.4307">
        <ele>72.9</ele>
        <time>2020-05-31T09:41:44Z</time>
      </trkpt>
      <trkpt lat="46.34871" lon="-0.43074">
        <ele>72.9</ele>
        <time>2020-05-31T09:41:45Z</time>
      </trkpt>
      <trkpt lat="46.34873" lon="-0.43078">
        <ele>73</ele>
        <time>2020-05-31T09:41:46Z</time>
      </trkpt>
      <trkpt lat="46.34874" lon="-0.43082">
        <ele>73</ele>
        <time>2020-05-31T09:41:47Z</time>
      </trkpt>
      <trkpt lat="46.34875" lon="-0.43086">
        <ele>73</ele>
        <time>2020-05-31T09:41:48Z</time>
      </trkpt>
      <trkpt lat="46.34877" lon="-0.43091">
        <ele>73.1</ele>
        <time>2020-05-31T09:41:49Z</time>
      </trkpt>
      <trkpt lat="46.34877" lon="-0.43093">
        <ele>73.1</ele>
        <time>2020-05-31T09:41:50Z</time>
      </trkpt>
      <trkpt lat="46.34879" lon="-0.43098">
        <ele>73.2</ele>
        <time>2020-05-31T09:41:51Z</time>
      </trkpt>
      <trkpt lat="46.3488" lon="-0.431">
        <ele>73.2</ele>
        <time>2020-05-31T09:41:52Z</time>
      </trkpt>
      <trkpt lat="46.34881" lon="-0.43104">
        <ele>73.3</ele>
        <time>2020-05-31T09:41:53Z</time>
      </trkpt>
      <trkpt lat="46.34883" lon="-0.43107">
        <ele>73.3</ele>
        <time>2020-05-31T09:41:54Z</time>
      </trkpt>
      <trkpt lat="46.34885" lon="-0.43112">
        <ele>73.4</ele>
        <time>2020-05-31T09:41:55Z</time>
      </trkpt>
      <trkpt lat="46.34886" lon="-0.43118">
        <ele>73.5</ele>
        <time>2020-05-31T09:41:56Z</time>
      </trkpt>
      <trkpt lat="46.34888" lon="-0.43122">
        <ele>73.5</ele>
        <time>2020-05-31T09:41:57Z</time>
      </trkpt>
      <trkpt lat="46.3489" lon="-0.43125">
        <ele>73.6</ele>
        <time>2020-05-31T09:41:58Z</time>
      </trkpt>
      <trkpt lat="46.34891" lon="-0.43129">
        <ele>73.6</ele>
        <time>2020-05-31T09:41:59Z</time>
      </trkpt>
      <trkpt lat="46.34893" lon="-0.43132">
        <ele>73.6</ele>
        <time>2020-05-31T09:42:00Z</time>
      </trkpt>
      <trkpt lat="46.34895" lon="-0.43136">
        <ele>73.6</ele>
        <time>2020-05-31T09:42:01Z</time>
      </trkpt>
      <trkpt lat="46.34897" lon="-0.43139">
        <ele>73.6</ele>
        <time>2020-05-31T09:42:02Z</time>
      </trkpt>
      <trkpt lat="46.34899" lon="-0.43142">
        <ele>73.6</ele>
        <time>2020-05-31T09:42:03Z</time>
      </trkpt>
      <trkpt lat="46.34901" lon="-0.43146">
        <ele>73.6</ele>
        <time>2020-05-31T09:42:04Z</time>
      </trkpt>
      <trkpt lat="46.34905" lon="-0.43149">
        <ele>73.6</ele>
        <time>2020-05-31T09:42:05Z</time>
      </trkpt>
      <trkpt lat="46.34906" lon="-0.43154">
        <ele>73.6</ele>
        <time>2020-05-31T09:42:06Z</time>
      </trkpt>
      <trkpt lat="46.34909" lon="-0.43158">
        <ele>73.6</ele>
        <time>2020-05-31T09:42:07Z</time>
      </trkpt>
      <trkpt lat="46.34912" lon="-0.43162">
        <ele>73.6</ele>
        <time>2020-05-31T09:42:08Z</time>
      </trkpt>
      <trkpt lat="46.34914" lon="-0.43166">
        <ele>73.6</ele>
        <time>2020-05-31T09:42:09Z</time>
      </trkpt>
      <trkpt lat="46.34917" lon="-0.4317">
        <ele>73.6</ele>
        <time>2020-05-31T09:42:10Z</time>
      </trkpt>
      <trkpt lat="46.34918" lon="-0.43175">
        <ele>73.6</ele>
        <time>2020-05-31T09:42:11Z</time>
      </trkpt>
      <trkpt lat="46.3492" lon="-0.43179">
        <ele>73.6</ele>
        <time>2020-05-31T09:42:12Z</time>
      </trkpt>
      <trkpt lat="46.34922" lon="-0.43182">
        <ele>73.6</ele>
        <time>2020-05-31T09:42:13Z</time>
      </trkpt>
      <trkpt lat="46.34924" lon="-0.43185">
        <ele>73.5</ele>
        <time>2020-05-31T09:42:14Z</time>
      </trkpt>
      <trkpt lat="46.34926" lon="-0.43189">
        <ele>73.5</ele>
        <time>2020-05-31T09:42:15Z</time>
      </trkpt>
      <trkpt lat="46.34928" lon="-0.43192">
        <ele>73.5</ele>
        <time>2020-05-31T09:42:16Z</time>
      </trkpt>
      <trkpt lat="46.3493" lon="-0.43197">
        <ele>73.5</ele>
        <time>2020-05-31T09:42:17Z</time>
      </trkpt>
      <trkpt lat="46.34933" lon="-0.43202">
        <ele>73.5</ele>
        <time>2020-05-31T09:42:18Z</time>
      </trkpt>
      <trkpt lat="46.34934" lon="-0.43207">
        <ele>73.5</ele>
        <time>2020-05-31T09:42:19Z</time>
      </trkpt>
      <trkpt lat="46.34936" lon="-0.43212">
        <ele>73.5</ele>
        <time>2020-05-31T09:42:20Z</time>
      </trkpt>
      <trkpt lat="46.34937" lon="-0.43217">
        <ele>73.5</ele>
        <time>2020-05-31T09:42:21Z</time>
      </trkpt>
      <trkpt lat="46.34938" lon="-0.43222">
        <ele>73.5</ele>
        <time>2020-05-31T09:42:22Z</time>
      </trkpt>
      <trkpt lat="46.34939" lon="-0.43227">
        <ele>73.4</ele>
        <time>2020-05-31T09:42:23Z</time>
      </trkpt>
      <trkpt lat="46.34942" lon="-0.43231">
        <ele>73.4</ele>
        <time>2020-05-31T09:42:24Z</time>
      </trkpt>
      <trkpt lat="46.34944" lon="-0.43236">
        <ele>73.4</ele>
        <time>2020-05-31T09:42:25Z</time>
      </trkpt>
      <trkpt lat="46.34945" lon="-0.43242">
        <ele>73.4</ele>
        <time>2020-05-31T09:42:26Z</time>
      </trkpt>
      <trkpt lat="46.34947" lon="-0.43247">
        <ele>73.3</ele>
        <time>2020-05-31T09:42:27Z</time>
      </trkpt>
      <trkpt lat="46.3495" lon="-0.43251">
        <ele>73.3</ele>
        <time>2020-05-31T09:42:28Z</time>
      </trkpt>
      <trkpt lat="46.34953" lon="-0.43256">
        <ele>73.2</ele>
        <time>2020-05-31T09:42:29Z</time>
      </trkpt>
      <trkpt lat="46.34954" lon="-0.43262">
        <ele>73.2</ele>
        <time>2020-05-31T09:42:30Z</time>
      </trkpt>
      <trkpt lat="46.34957" lon="-0.43268">
        <ele>73.1</ele>
        <time>2020-05-31T09:42:31Z</time>
      </trkpt>
      <trkpt lat="46.34959" lon="-0.43274">
        <ele>73</ele>
        <time>2020-05-31T09:42:32Z</time>
      </trkpt>
      <trkpt lat="46.34962" lon="-0.4328">
        <ele>73</ele>
        <time>2020-05-31T09:42:33Z</time>
      </trkpt>
      <trkpt lat="46.34964" lon="-0.43285">
        <ele>72.9</ele>
        <time>2020-05-31T09:42:34Z</time>
      </trkpt>
      <trkpt lat="46.34967" lon="-0.43291">
        <ele>72.8</ele>
        <time>2020-05-31T09:42:35Z</time>
      </trkpt>
      <trkpt lat="46.34969" lon="-0.43297">
        <ele>72.8</ele>
        <time>2020-05-31T09:42:36Z</time>
      </trkpt>
      <trkpt lat="46.34971" lon="-0.43304">
        <ele>72.7</ele>
        <time>2020-05-31T09:42:37Z</time>
      </trkpt>
      <trkpt lat="46.34973" lon="-0.4331">
        <ele>72.6</ele>
        <time>2020-05-31T09:42:38Z</time>
      </trkpt>
      <trkpt lat="46.34975" lon="-0.43317">
        <ele>72.6</ele>
        <time>2020-05-31T09:42:39Z</time>
      </trkpt>
      <trkpt lat="46.34977" lon="-0.43324">
        <ele>72.5</ele>
        <time>2020-05-31T09:42:40Z</time>
      </trkpt>
      <trkpt lat="46.34978" lon="-0.43331">
        <ele>72.4</ele>
        <time>2020-05-31T09:42:41Z</time>
      </trkpt>
      <trkpt lat="46.3498" lon="-0.43338">
        <ele>72.4</ele>
        <time>2020-05-31T09:42:42Z</time>
      </trkpt>
      <trkpt lat="46.34982" lon="-0.43344">
        <ele>72.3</ele>
        <time>2020-05-31T09:42:43Z</time>
      </trkpt>
      <trkpt lat="46.34984" lon="-0.43351">
        <ele>72.3</ele>
        <time>2020-05-31T09:42:44Z</time>
      </trkpt>
      <trkpt lat="46.34986" lon="-0.43358">
        <ele>72.2</ele>
        <time>2020-05-31T09:42:45Z</time>
      </trkpt>
      <trkpt lat="46.34988" lon="-0.43364">
        <ele>72.2</ele>
        <time>2020-05-31T09:42:46Z</time>
      </trkpt>
      <trkpt lat="46.3499" lon="-0.43371">
        <ele>72.2</ele>
        <time>2020-05-31T09:42:47Z</time>
      </trkpt>
      <trkpt lat="46.34993" lon="-0.43378">
        <ele>72.2</ele>
        <time>2020-05-31T09:42:48Z</time>
      </trkpt>
      <trkpt lat="46.34995" lon="-0.43385">
        <ele>72.2</ele>
        <time>2020-05-31T09:42:49Z</time>
      </trkpt>
      <trkpt lat="46.34997" lon="-0.43392">
        <ele>72.1</ele>
        <time>2020-05-31T09:42:50Z</time>
      </trkpt>
      <trkpt lat="46.34998" lon="-0.43398">
        <ele>72.1</ele>
        <time>2020-05-31T09:42:51Z</time>
      </trkpt>
      <trkpt lat="46.35" lon="-0.43406">
        <ele>72</ele>
        <time>2020-05-31T09:42:52Z</time>
      </trkpt>
      <trkpt lat="46.35001" lon="-0.43413">
        <ele>71.9</ele>
        <time>2020-05-31T09:42:53Z</time>
      </trkpt>
      <trkpt lat="46.35004" lon="-0.43419">
        <ele>71.8</ele>
        <time>2020-05-31T09:42:54Z</time>
      </trkpt>
      <trkpt lat="46.35005" lon="-0.43427">
        <ele>71.7</ele>
        <time>2020-05-31T09:42:55Z</time>
      </trkpt>
      <trkpt lat="46.35007" lon="-0.43433">
        <ele>71.6</ele>
        <time>2020-05-31T09:42:56Z</time>
      </trkpt>
      <trkpt lat="46.35008" lon="-0.4344">
        <ele>71.4</ele>
        <time>2020-05-31T09:42:57Z</time>
      </trkpt>
      <trkpt lat="46.3501" lon="-0.43447">
        <ele>71.3</ele>
        <time>2020-05-31T09:42:58Z</time>
      </trkpt>
      <trkpt lat="46.35011" lon="-0.43454">
        <ele>71.2</ele>
        <time>2020-05-31T09:42:59Z</time>
      </trkpt>
      <trkpt lat="46.35013" lon="-0.43461">
        <ele>71</ele>
        <time>2020-05-31T09:43:00Z</time>
      </trkpt>
      <trkpt lat="46.35015" lon="-0.43468">
        <ele>70.9</ele>
        <time>2020-05-31T09:43:01Z</time>
      </trkpt>
      <trkpt lat="46.35017" lon="-0.43475">
        <ele>70.8</ele>
        <time>2020-05-31T09:43:02Z</time>
      </trkpt>
      <trkpt lat="46.35018" lon="-0.43482">
        <ele>70.7</ele>
        <time>2020-05-31T09:43:03Z</time>
      </trkpt>
      <trkpt lat="46.35019" lon="-0.4349">
        <ele>70.6</ele>
        <time>2020-05-31T09:43:04Z</time>
      </trkpt>
      <trkpt lat="46.35021" lon="-0.43497">
        <ele>70.5</ele>
        <time>2020-05-31T09:43:05Z</time>
      </trkpt>
      <trkpt lat="46.35023" lon="-0.43504">
        <ele>70.4</ele>
        <time>2020-05-31T09:43:06Z</time>
      </trkpt>
      <trkpt lat="46.35024" lon="-0.43511">
        <ele>70.3</ele>
        <time>2020-05-31T09:43:07Z</time>
      </trkpt>
      <trkpt lat="46.35026" lon="-0.43518">
        <ele>70.3</ele>
        <time>2020-05-31T09:43:08Z</time>
      </trkpt>
      <trkpt lat="46.35027" lon="-0.43526">
        <ele>70.2</ele>
        <time>2020-05-31T09:43:09Z</time>
      </trkpt>
      <trkpt lat="46.3503" lon="-0.43534">
        <ele>70.1</ele>
        <time>2020-05-31T09:43:10Z</time>
      </trkpt>
      <trkpt lat="46.35031" lon="-0.43541">
        <ele>70</ele>
        <time>2020-05-31T09:43:11Z</time>
      </trkpt>
      <trkpt lat="46.35033" lon="-0.43547">
        <ele>69.9</ele>
        <time>2020-05-31T09:43:12Z</time>
      </trkpt>
      <trkpt lat="46.35035" lon="-0.43555">
        <ele>69.8</ele>
        <time>2020-05-31T09:43:13Z</time>
      </trkpt>
      <trkpt lat="46.35036" lon="-0.43562">
        <ele>69.7</ele>
        <time>2020-05-31T09:43:14Z</time>
      </trkpt>
      <trkpt lat="46.35038" lon="-0.43569">
        <ele>69.6</ele>
        <time>2020-05-31T09:43:15Z</time>
      </trkpt>
      <trkpt lat="46.3504" lon="-0.43577">
        <ele>69.5</ele>
        <time>2020-05-31T09:43:16Z</time>
      </trkpt>
      <trkpt lat="46.35042" lon="-0.43584">
        <ele>69.4</ele>
        <time>2020-05-31T09:43:17Z</time>
      </trkpt>
      <trkpt lat="46.35043" lon="-0.43592">
        <ele>69.3</ele>
        <time>2020-05-31T09:43:18Z</time>
      </trkpt>
      <trkpt lat="46.35044" lon="-0.436">
        <ele>69.2</ele>
        <time>2020-05-31T09:43:19Z</time>
      </trkpt>
      <trkpt lat="46.35047" lon="-0.43608">
        <ele>69.1</ele>
        <time>2020-05-31T09:43:20Z</time>
      </trkpt>
      <trkpt lat="46.35049" lon="-0.43616">
        <ele>69</ele>
        <time>2020-05-31T09:43:21Z</time>
      </trkpt>
      <trkpt lat="46.3505" lon="-0.43623">
        <ele>68.9</ele>
        <time>2020-05-31T09:43:22Z</time>
      </trkpt>
      <trkpt lat="46.35052" lon="-0.43631">
        <ele>68.8</ele>
        <time>2020-05-31T09:43:23Z</time>
      </trkpt>
      <trkpt lat="46.35054" lon="-0.43639">
        <ele>68.7</ele>
        <time>2020-05-31T09:43:24Z</time>
      </trkpt>
      <trkpt lat="46.35056" lon="-0.43646">
        <ele>68.6</ele>
        <time>2020-05-31T09:43:25Z</time>
      </trkpt>
      <trkpt lat="46.35057" lon="-0.43653">
        <ele>68.6</ele>
        <time>2020-05-31T09:43:26Z</time>
      </trkpt>
      <trkpt lat="46.35059" lon="-0.43661">
        <ele>68.5</ele>
        <time>2020-05-31T09:43:27Z</time>
      </trkpt>
      <trkpt lat="46.35061" lon="-0.43668">
        <ele>68.5</ele>
        <time>2020-05-31T09:43:28Z</time>
      </trkpt>
      <trkpt lat="46.35063" lon="-0.43675">
        <ele>68.4</ele>
        <time>2020-05-31T09:43:29Z</time>
      </trkpt>
      <trkpt lat="46.35065" lon="-0.43682">
        <ele>68.4</ele>
        <time>2020-05-31T09:43:30Z</time>
      </trkpt>
      <trkpt lat="46.35065" lon="-0.43689">
        <ele>68.4</ele>
        <time>2020-05-31T09:43:31Z</time>
      </trkpt>
      <trkpt lat="46.35067" lon="-0.43696">
        <ele>68.3</ele>
        <time>2020-05-31T09:43:32Z</time>
      </trkpt>
      <trkpt lat="46.35068" lon="-0.43703">
        <ele>68.3</ele>
        <time>2020-05-31T09:43:33Z</time>
      </trkpt>
      <trkpt lat="46.35069" lon="-0.4371">
        <ele>68.3</ele>
        <time>2020-05-31T09:43:34Z</time>
      </trkpt>
      <trkpt lat="46.35071" lon="-0.43718">
        <ele>68.2</ele>
        <time>2020-05-31T09:43:35Z</time>
      </trkpt>
      <trkpt lat="46.35072" lon="-0.43726">
        <ele>68.2</ele>
        <time>2020-05-31T09:43:36Z</time>
      </trkpt>
      <trkpt lat="46.35072" lon="-0.43733">
        <ele>68.1</ele>
        <time>2020-05-31T09:43:37Z</time>
      </trkpt>
      <trkpt lat="46.35073" lon="-0.4374">
        <ele>68</ele>
        <time>2020-05-31T09:43:38Z</time>
      </trkpt>
      <trkpt lat="46.35075" lon="-0.43746">
        <ele>67.9</ele>
        <time>2020-05-31T09:43:39Z</time>
      </trkpt>
      <trkpt lat="46.35075" lon="-0.43753">
        <ele>67.7</ele>
        <time>2020-05-31T09:43:40Z</time>
      </trkpt>
      <trkpt lat="46.35075" lon="-0.4376">
        <ele>67.6</ele>
        <time>2020-05-31T09:43:41Z</time>
      </trkpt>
      <trkpt lat="46.35076" lon="-0.43768">
        <ele>67.4</ele>
        <time>2020-05-31T09:43:42Z</time>
      </trkpt>
      <trkpt lat="46.35077" lon="-0.43776">
        <ele>67.3</ele>
        <time>2020-05-31T09:43:43Z</time>
      </trkpt>
      <trkpt lat="46.35078" lon="-0.43784">
        <ele>67.2</ele>
        <time>2020-05-31T09:43:44Z</time>
      </trkpt>
      <trkpt lat="46.35078" lon="-0.43793">
        <ele>67.1</ele>
        <time>2020-05-31T09:43:45Z</time>
      </trkpt>
      <trkpt lat="46.35079" lon="-0.43802">
        <ele>67.1</ele>
        <time>2020-05-31T09:43:46Z</time>
      </trkpt>
      <trkpt lat="46.3508" lon="-0.4381">
        <ele>67</ele>
        <time>2020-05-31T09:43:47Z</time>
      </trkpt>
      <trkpt lat="46.35082" lon="-0.43819">
        <ele>67</ele>
        <time>2020-05-31T09:43:48Z</time>
      </trkpt>
      <trkpt lat="46.35084" lon="-0.43827">
        <ele>66.9</ele>
        <time>2020-05-31T09:43:49Z</time>
      </trkpt>
      <trkpt lat="46.35085" lon="-0.43836">
        <ele>66.8</ele>
        <time>2020-05-31T09:43:50Z</time>
      </trkpt>
      <trkpt lat="46.35084" lon="-0.43845">
        <ele>66.7</ele>
        <time>2020-05-31T09:43:51Z</time>
      </trkpt>
      <trkpt lat="46.35084" lon="-0.43854">
        <ele>66.6</ele>
        <time>2020-05-31T09:43:52Z</time>
      </trkpt>
      <trkpt lat="46.35084" lon="-0.43864">
        <ele>66.6</ele>
        <time>2020-05-31T09:43:53Z</time>
      </trkpt>
      <trkpt lat="46.35084" lon="-0.43873">
        <ele>66.5</ele>
        <time>2020-05-31T09:43:54Z</time>
      </trkpt>
      <trkpt lat="46.35085" lon="-0.43882">
        <ele>66.4</ele>
        <time>2020-05-31T09:43:55Z</time>
      </trkpt>
      <trkpt lat="46.35086" lon="-0.43891">
        <ele>66.3</ele>
        <time>2020-05-31T09:43:56Z</time>
      </trkpt>
      <trkpt lat="46.35087" lon="-0.439">
        <ele>66.3</ele>
        <time>2020-05-31T09:43:57Z</time>
      </trkpt>
      <trkpt lat="46.35088" lon="-0.43908">
        <ele>66.2</ele>
        <time>2020-05-31T09:43:58Z</time>
      </trkpt>
      <trkpt lat="46.35089" lon="-0.43917">
        <ele>66.2</ele>
        <time>2020-05-31T09:43:59Z</time>
      </trkpt>
      <trkpt lat="46.35091" lon="-0.43926">
        <ele>66.1</ele>
        <time>2020-05-31T09:44:00Z</time>
      </trkpt>
      <trkpt lat="46.35092" lon="-0.43935">
        <ele>66.1</ele>
        <time>2020-05-31T09:44:01Z</time>
      </trkpt>
      <trkpt lat="46.35094" lon="-0.43944">
        <ele>66</ele>
        <time>2020-05-31T09:44:02Z</time>
      </trkpt>
      <trkpt lat="46.35095" lon="-0.43952">
        <ele>65.9</ele>
        <time>2020-05-31T09:44:03Z</time>
      </trkpt>
      <trkpt lat="46.35097" lon="-0.4396">
        <ele>65.9</ele>
        <time>2020-05-31T09:44:04Z</time>
      </trkpt>
      <trkpt lat="46.35099" lon="-0.43969">
        <ele>65.8</ele>
        <time>2020-05-31T09:44:05Z</time>
      </trkpt>
      <trkpt lat="46.35101" lon="-0.43977">
        <ele>65.7</ele>
        <time>2020-05-31T09:44:06Z</time>
      </trkpt>
      <trkpt lat="46.35103" lon="-0.43985">
        <ele>65.6</ele>
        <time>2020-05-31T09:44:07Z</time>
      </trkpt>
      <trkpt lat="46.35105" lon="-0.43993">
        <ele>65.5</ele>
        <time>2020-05-31T09:44:08Z</time>
      </trkpt>
      <trkpt lat="46.35106" lon="-0.44">
        <ele>65.5</ele>
        <time>2020-05-31T09:44:09Z</time>
      </trkpt>
      <trkpt lat="46.35107" lon="-0.44008">
        <ele>65.4</ele>
        <time>2020-05-31T09:44:10Z</time>
      </trkpt>
      <trkpt lat="46.3511" lon="-0.44015">
        <ele>65.3</ele>
        <time>2020-05-31T09:44:11Z</time>
      </trkpt>
      <trkpt lat="46.35112" lon="-0.44022">
        <ele>65.3</ele>
        <time>2020-05-31T09:44:12Z</time>
      </trkpt>
      <trkpt lat="46.35113" lon="-0.44029">
        <ele>65.2</ele>
        <time>2020-05-31T09:44:13Z</time>
      </trkpt>
      <trkpt lat="46.35114" lon="-0.44036">
        <ele>65.1</ele>
        <time>2020-05-31T09:44:14Z</time>
      </trkpt>
      <trkpt lat="46.35115" lon="-0.44042">
        <ele>65</ele>
        <time>2020-05-31T09:44:15Z</time>
      </trkpt>
      <trkpt lat="46.35117" lon="-0.44047">
        <ele>65</ele>
        <time>2020-05-31T09:44:16Z</time>
      </trkpt>
      <trkpt lat="46.3512" lon="-0.4405">
        <ele>64.9</ele>
        <time>2020-05-31T09:44:17Z</time>
      </trkpt>
      <trkpt lat="46.35121" lon="-0.44054">
        <ele>64.9</ele>
        <time>2020-05-31T09:44:18Z</time>
      </trkpt>
      <trkpt lat="46.35121" lon="-0.44055">
        <ele>64.8</ele>
        <time>2020-05-31T09:44:19Z</time>
      </trkpt>
      <trkpt lat="46.35121" lon="-0.44057">
        <ele>64.8</ele>
        <time>2020-05-31T09:44:20Z</time>
      </trkpt>
      <trkpt lat="46.35122" lon="-0.44058">
        <ele>64.8</ele>
        <time>2020-05-31T09:44:21Z</time>
      </trkpt>
      <trkpt lat="46.35123" lon="-0.44059">
        <ele>64.8</ele>
        <time>2020-05-31T09:44:22Z</time>
      </trkpt>
      <trkpt lat="46.35124" lon="-0.44059">
        <ele>64.8</ele>
        <time>2020-05-31T09:44:23Z</time>
      </trkpt>
      <trkpt lat="46.35124" lon="-0.44059">
        <ele>64.8</ele>
        <time>2020-05-31T09:44:24Z</time>
      </trkpt>
      <trkpt lat="46.35124" lon="-0.4406">
        <ele>64.7</ele>
        <time>2020-05-31T09:44:25Z</time>
      </trkpt>
      <trkpt lat="46.35124" lon="-0.4406">
        <ele>64.7</ele>
        <time>2020-05-31T09:44:26Z</time>
      </trkpt>
      <trkpt lat="46.35124" lon="-0.4406">
        <ele>64.7</ele>
        <time>2020-05-31T09:44:27Z</time>
      </trkpt>
      <trkpt lat="46.35125" lon="-0.4406">
        <ele>64.7</ele>
        <time>2020-05-31T09:44:28Z</time>
      </trkpt>
      <trkpt lat="46.35124" lon="-0.44062">
        <ele>64.7</ele>
        <time>2020-05-31T09:44:29Z</time>
      </trkpt>
      <trkpt lat="46.35125" lon="-0.44066">
        <ele>64.6</ele>
        <time>2020-05-31T09:44:30Z</time>
      </trkpt>
      <trkpt lat="46.35125" lon="-0.44068">
        <ele>64.6</ele>
        <time>2020-05-31T09:44:31Z</time>
      </trkpt>
      <trkpt lat="46.35125" lon="-0.44072">
        <ele>64.6</ele>
        <time>2020-05-31T09:44:32Z</time>
      </trkpt>
      <trkpt lat="46.35125" lon="-0.44077">
        <ele>64.5</ele>
        <time>2020-05-31T09:44:33Z</time>
      </trkpt>
      <trkpt lat="46.35125" lon="-0.44082">
        <ele>64.5</ele>
        <time>2020-05-31T09:44:34Z</time>
      </trkpt>
      <trkpt lat="46.35125" lon="-0.44088">
        <ele>64.5</ele>
        <time>2020-05-31T09:44:35Z</time>
      </trkpt>
      <trkpt lat="46.35125" lon="-0.44093">
        <ele>64.4</ele>
        <time>2020-05-31T09:44:36Z</time>
      </trkpt>
      <trkpt lat="46.35125" lon="-0.44099">
        <ele>64.4</ele>
        <time>2020-05-31T09:44:37Z</time>
      </trkpt>
      <trkpt lat="46.35125" lon="-0.44104">
        <ele>64.4</ele>
        <time>2020-05-31T09:44:38Z</time>
      </trkpt>
      <trkpt lat="46.35126" lon="-0.44109">
        <ele>64.4</ele>
        <time>2020-05-31T09:44:39Z</time>
      </trkpt>
      <trkpt lat="46.35126" lon="-0.44115">
        <ele>64.4</ele>
        <time>2020-05-31T09:44:40Z</time>
      </trkpt>
      <trkpt lat="46.35127" lon="-0.44121">
        <ele>64.4</ele>
        <time>2020-05-31T09:44:41Z</time>
      </trkpt>
      <trkpt lat="46.35127" lon="-0.44127">
        <ele>64.4</ele>
        <time>2020-05-31T09:44:42Z</time>
      </trkpt>
      <trkpt lat="46.35128" lon="-0.44133">
        <ele>64.4</ele>
        <time>2020-05-31T09:44:43Z</time>
      </trkpt>
      <trkpt lat="46.35129" lon="-0.44139">
        <ele>64.4</ele>
        <time>2020-05-31T09:44:44Z</time>
      </trkpt>
      <trkpt lat="46.3513" lon="-0.44145">
        <ele>64.4</ele>
        <time>2020-05-31T09:44:45Z</time>
      </trkpt>
      <trkpt lat="46.35131" lon="-0.44152">
        <ele>64.4</ele>
        <time>2020-05-31T09:44:46Z</time>
      </trkpt>
      <trkpt lat="46.35132" lon="-0.44158">
        <ele>64.3</ele>
        <time>2020-05-31T09:44:47Z</time>
      </trkpt>
      <trkpt lat="46.35133" lon="-0.44165">
        <ele>64.3</ele>
        <time>2020-05-31T09:44:48Z</time>
      </trkpt>
      <trkpt lat="46.35133" lon="-0.44172">
        <ele>64.3</ele>
        <time>2020-05-31T09:44:49Z</time>
      </trkpt>
      <trkpt lat="46.35134" lon="-0.44178">
        <ele>64.3</ele>
        <time>2020-05-31T09:44:50Z</time>
      </trkpt>
      <trkpt lat="46.35136" lon="-0.44185">
        <ele>64.3</ele>
        <time>2020-05-31T09:44:51Z</time>
      </trkpt>
      <trkpt lat="46.35137" lon="-0.44192">
        <ele>64.2</ele>
        <time>2020-05-31T09:44:52Z</time>
      </trkpt>
      <trkpt lat="46.35139" lon="-0.44198">
        <ele>64.2</ele>
        <time>2020-05-31T09:44:53Z</time>
      </trkpt>
      <trkpt lat="46.3514" lon="-0.44205">
        <ele>64.2</ele>
        <time>2020-05-31T09:44:54Z</time>
      </trkpt>
      <trkpt lat="46.3514" lon="-0.44212">
        <ele>64.2</ele>
        <time>2020-05-31T09:44:55Z</time>
      </trkpt>
      <trkpt lat="46.35141" lon="-0.44218">
        <ele>64.1</ele>
        <time>2020-05-31T09:44:56Z</time>
      </trkpt>
      <trkpt lat="46.35143" lon="-0.44225">
        <ele>64.1</ele>
        <time>2020-05-31T09:44:57Z</time>
      </trkpt>
      <trkpt lat="46.35145" lon="-0.44231">
        <ele>64.1</ele>
        <time>2020-05-31T09:44:58Z</time>
      </trkpt>
      <trkpt lat="46.35146" lon="-0.44238">
        <ele>64</ele>
        <time>2020-05-31T09:44:59Z</time>
      </trkpt>
      <trkpt lat="46.35146" lon="-0.44244">
        <ele>64</ele>
        <time>2020-05-31T09:45:00Z</time>
      </trkpt>
      <trkpt lat="46.35146" lon="-0.4425">
        <ele>64</ele>
        <time>2020-05-31T09:45:01Z</time>
      </trkpt>
      <trkpt lat="46.35148" lon="-0.44257">
        <ele>63.9</ele>
        <time>2020-05-31T09:45:02Z</time>
      </trkpt>
      <trkpt lat="46.35149" lon="-0.44264">
        <ele>63.9</ele>
        <time>2020-05-31T09:45:03Z</time>
      </trkpt>
      <trkpt lat="46.35151" lon="-0.44271">
        <ele>63.8</ele>
        <time>2020-05-31T09:45:04Z</time>
      </trkpt>
      <trkpt lat="46.3515" lon="-0.44279">
        <ele>63.8</ele>
        <time>2020-05-31T09:45:05Z</time>
      </trkpt>
      <trkpt lat="46.35151" lon="-0.44286">
        <ele>63.7</ele>
        <time>2020-05-31T09:45:06Z</time>
      </trkpt>
      <trkpt lat="46.35151" lon="-0.44294">
        <ele>63.7</ele>
        <time>2020-05-31T09:45:07Z</time>
      </trkpt>
      <trkpt lat="46.35152" lon="-0.44301">
        <ele>63.7</ele>
        <time>2020-05-31T09:45:08Z</time>
      </trkpt>
      <trkpt lat="46.35153" lon="-0.44308">
        <ele>63.6</ele>
        <time>2020-05-31T09:45:09Z</time>
      </trkpt>
      <trkpt lat="46.35153" lon="-0.44315">
        <ele>63.6</ele>
        <time>2020-05-31T09:45:10Z</time>
      </trkpt>
      <trkpt lat="46.35153" lon="-0.44322">
        <ele>63.5</ele>
        <time>2020-05-31T09:45:11Z</time>
      </trkpt>
      <trkpt lat="46.35154" lon="-0.44329">
        <ele>63.5</ele>
        <time>2020-05-31T09:45:12Z</time>
      </trkpt>
      <trkpt lat="46.35154" lon="-0.44337">
        <ele>63.4</ele>
        <time>2020-05-31T09:45:13Z</time>
      </trkpt>
      <trkpt lat="46.35154" lon="-0.44345">
        <ele>63.4</ele>
        <time>2020-05-31T09:45:14Z</time>
      </trkpt>
      <trkpt lat="46.35155" lon="-0.44353">
        <ele>63.3</ele>
        <time>2020-05-31T09:45:15Z</time>
      </trkpt>
      <trkpt lat="46.35155" lon="-0.44361">
        <ele>63.3</ele>
        <time>2020-05-31T09:45:16Z</time>
      </trkpt>
      <trkpt lat="46.35156" lon="-0.4437">
        <ele>63.3</ele>
        <time>2020-05-31T09:45:17Z</time>
      </trkpt>
      <trkpt lat="46.35158" lon="-0.44378">
        <ele>63.2</ele>
        <time>2020-05-31T09:45:18Z</time>
      </trkpt>
      <trkpt lat="46.3516" lon="-0.44386">
        <ele>63.2</ele>
        <time>2020-05-31T09:45:19Z</time>
      </trkpt>
      <trkpt lat="46.35161" lon="-0.44394">
        <ele>63.1</ele>
        <time>2020-05-31T09:45:20Z</time>
      </trkpt>
      <trkpt lat="46.35162" lon="-0.44403">
        <ele>63.1</ele>
        <time>2020-05-31T09:45:21Z</time>
      </trkpt>
      <trkpt lat="46.35163" lon="-0.44412">
        <ele>63</ele>
        <time>2020-05-31T09:45:22Z</time>
      </trkpt>
      <trkpt lat="46.35165" lon="-0.4442">
        <ele>63</ele>
        <time>2020-05-31T09:45:23Z</time>
      </trkpt>
      <trkpt lat="46.35166" lon="-0.44428">
        <ele>62.9</ele>
        <time>2020-05-31T09:45:24Z</time>
      </trkpt>
      <trkpt lat="46.35168" lon="-0.44437">
        <ele>62.8</ele>
        <time>2020-05-31T09:45:25Z</time>
      </trkpt>
      <trkpt lat="46.35171" lon="-0.44446">
        <ele>62.8</ele>
        <time>2020-05-31T09:45:26Z</time>
      </trkpt>
      <trkpt lat="46.35173" lon="-0.44454">
        <ele>62.7</ele>
        <time>2020-05-31T09:45:27Z</time>
      </trkpt>
      <trkpt lat="46.35175" lon="-0.44463">
        <ele>62.7</ele>
        <time>2020-05-31T09:45:28Z</time>
      </trkpt>
      <trkpt lat="46.35178" lon="-0.44472">
        <ele>62.6</ele>
        <time>2020-05-31T09:45:29Z</time>
      </trkpt>
      <trkpt lat="46.35179" lon="-0.44481">
        <ele>62.5</ele>
        <time>2020-05-31T09:45:30Z</time>
      </trkpt>
      <trkpt lat="46.35181" lon="-0.4449">
        <ele>62.4</ele>
        <time>2020-05-31T09:45:31Z</time>
      </trkpt>
      <trkpt lat="46.35183" lon="-0.44498">
        <ele>62.4</ele>
        <time>2020-05-31T09:45:32Z</time>
      </trkpt>
      <trkpt lat="46.35185" lon="-0.44506">
        <ele>62.2</ele>
        <time>2020-05-31T09:45:33Z</time>
      </trkpt>
      <trkpt lat="46.35187" lon="-0.44515">
        <ele>62.1</ele>
        <time>2020-05-31T09:45:34Z</time>
      </trkpt>
      <trkpt lat="46.35189" lon="-0.44524">
        <ele>62</ele>
        <time>2020-05-31T09:45:35Z</time>
      </trkpt>
      <trkpt lat="46.35191" lon="-0.44532">
        <ele>61.9</ele>
        <time>2020-05-31T09:45:36Z</time>
      </trkpt>
      <trkpt lat="46.35194" lon="-0.4454">
        <ele>61.8</ele>
        <time>2020-05-31T09:45:37Z</time>
      </trkpt>
      <trkpt lat="46.35196" lon="-0.44549">
        <ele>61.7</ele>
        <time>2020-05-31T09:45:38Z</time>
      </trkpt>
      <trkpt lat="46.35197" lon="-0.44559">
        <ele>61.6</ele>
        <time>2020-05-31T09:45:39Z</time>
      </trkpt>
      <trkpt lat="46.35199" lon="-0.44568">
        <ele>61.5</ele>
        <time>2020-05-31T09:45:40Z</time>
      </trkpt>
      <trkpt lat="46.35202" lon="-0.44578">
        <ele>61.4</ele>
        <time>2020-05-31T09:45:41Z</time>
      </trkpt>
      <trkpt lat="46.35204" lon="-0.44587">
        <ele>61.3</ele>
        <time>2020-05-31T09:45:42Z</time>
      </trkpt>
      <trkpt lat="46.35207" lon="-0.44596">
        <ele>61.2</ele>
        <time>2020-05-31T09:45:43Z</time>
      </trkpt>
      <trkpt lat="46.35209" lon="-0.44605">
        <ele>61</ele>
        <time>2020-05-31T09:45:44Z</time>
      </trkpt>
      <trkpt lat="46.3521" lon="-0.44614">
        <ele>60.9</ele>
        <time>2020-05-31T09:45:45Z</time>
      </trkpt>
      <trkpt lat="46.35212" lon="-0.44622">
        <ele>60.8</ele>
        <time>2020-05-31T09:45:46Z</time>
      </trkpt>
      <trkpt lat="46.35215" lon="-0.4463">
        <ele>60.7</ele>
        <time>2020-05-31T09:45:47Z</time>
      </trkpt>
      <trkpt lat="46.35217" lon="-0.44639">
        <ele>60.6</ele>
        <time>2020-05-31T09:45:48Z</time>
      </trkpt>
      <trkpt lat="46.35219" lon="-0.44648">
        <ele>60.4</ele>
        <time>2020-05-31T09:45:49Z</time>
      </trkpt>
      <trkpt lat="46.3522" lon="-0.44656">
        <ele>60.3</ele>
        <time>2020-05-31T09:45:50Z</time>
      </trkpt>
      <trkpt lat="46.35221" lon="-0.44665">
        <ele>60.1</ele>
        <time>2020-05-31T09:45:51Z</time>
      </trkpt>
      <trkpt lat="46.35223" lon="-0.44674">
        <ele>60</ele>
        <time>2020-05-31T09:45:52Z</time>
      </trkpt>
      <trkpt lat="46.35225" lon="-0.44683">
        <ele>59.9</ele>
        <time>2020-05-31T09:45:53Z</time>
      </trkpt>
      <trkpt lat="46.35227" lon="-0.44693">
        <ele>59.8</ele>
        <time>2020-05-31T09:45:54Z</time>
      </trkpt>
      <trkpt lat="46.3523" lon="-0.44701">
        <ele>59.7</ele>
        <time>2020-05-31T09:45:55Z</time>
      </trkpt>
      <trkpt lat="46.35232" lon="-0.4471">
        <ele>59.6</ele>
        <time>2020-05-31T09:45:56Z</time>
      </trkpt>
      <trkpt lat="46.35235" lon="-0.44719">
        <ele>59.4</ele>
        <time>2020-05-31T09:45:57Z</time>
      </trkpt>
      <trkpt lat="46.35238" lon="-0.44729">
        <ele>59.2</ele>
        <time>2020-05-31T09:45:58Z</time>
      </trkpt>
      <trkpt lat="46.35241" lon="-0.44737">
        <ele>59</ele>
        <time>2020-05-31T09:45:59Z</time>
      </trkpt>
      <trkpt lat="46.35244" lon="-0.44746">
        <ele>58.8</ele>
        <time>2020-05-31T09:46:00Z</time>
      </trkpt>
      <trkpt lat="46.35248" lon="-0.44755">
        <ele>58.7</ele>
        <time>2020-05-31T09:46:01Z</time>
      </trkpt>
      <trkpt lat="46.35251" lon="-0.44764">
        <ele>58.5</ele>
        <time>2020-05-31T09:46:02Z</time>
      </trkpt>
      <trkpt lat="46.35255" lon="-0.44774">
        <ele>58.3</ele>
        <time>2020-05-31T09:46:03Z</time>
      </trkpt>
      <trkpt lat="46.35259" lon="-0.44782">
        <ele>58.1</ele>
        <time>2020-05-31T09:46:04Z</time>
      </trkpt>
      <trkpt lat="46.35263" lon="-0.44791">
        <ele>58</ele>
        <time>2020-05-31T09:46:05Z</time>
      </trkpt>
      <trkpt lat="46.35267" lon="-0.44799">
        <ele>57.8</ele>
        <time>2020-05-31T09:46:06Z</time>
      </trkpt>
      <trkpt lat="46.35272" lon="-0.44806">
        <ele>57.6</ele>
        <time>2020-05-31T09:46:07Z</time>
      </trkpt>
      <trkpt lat="46.35276" lon="-0.44814">
        <ele>57.5</ele>
        <time>2020-05-31T09:46:08Z</time>
      </trkpt>
      <trkpt lat="46.35281" lon="-0.44822">
        <ele>57.3</ele>
        <time>2020-05-31T09:46:09Z</time>
      </trkpt>
      <trkpt lat="46.35286" lon="-0.44829">
        <ele>57.1</ele>
        <time>2020-05-31T09:46:10Z</time>
      </trkpt>
      <trkpt lat="46.35291" lon="-0.44837">
        <ele>57</ele>
        <time>2020-05-31T09:46:11Z</time>
      </trkpt>
      <trkpt lat="46.35297" lon="-0.44844">
        <ele>56.8</ele>
        <time>2020-05-31T09:46:12Z</time>
      </trkpt>
      <trkpt lat="46.35302" lon="-0.44851">
        <ele>56.6</ele>
        <time>2020-05-31T09:46:13Z</time>
      </trkpt>
      <trkpt lat="46.35308" lon="-0.44858">
        <ele>56.4</ele>
        <time>2020-05-31T09:46:14Z</time>
      </trkpt>
      <trkpt lat="46.35313" lon="-0.44865">
        <ele>56.2</ele>
        <time>2020-05-31T09:46:15Z</time>
      </trkpt>
      <trkpt lat="46.35319" lon="-0.44871">
        <ele>56</ele>
        <time>2020-05-31T09:46:16Z</time>
      </trkpt>
      <trkpt lat="46.35325" lon="-0.44877">
        <ele>55.8</ele>
        <time>2020-05-31T09:46:17Z</time>
      </trkpt>
      <trkpt lat="46.35332" lon="-0.44882">
        <ele>55.6</ele>
        <time>2020-05-31T09:46:18Z</time>
      </trkpt>
      <trkpt lat="46.35338" lon="-0.44888">
        <ele>55.3</ele>
        <time>2020-05-31T09:46:19Z</time>
      </trkpt>
      <trkpt lat="46.35344" lon="-0.44893">
        <ele>55.1</ele>
        <time>2020-05-31T09:46:20Z</time>
      </trkpt>
      <trkpt lat="46.35349" lon="-0.44899">
        <ele>54.9</ele>
        <time>2020-05-31T09:46:21Z</time>
      </trkpt>
      <trkpt lat="46.35355" lon="-0.44905">
        <ele>54.7</ele>
        <time>2020-05-31T09:46:22Z</time>
      </trkpt>
      <trkpt lat="46.35362" lon="-0.44911">
        <ele>54.4</ele>
        <time>2020-05-31T09:46:23Z</time>
      </trkpt>
      <trkpt lat="46.35368" lon="-0.44918">
        <ele>54.2</ele>
        <time>2020-05-31T09:46:24Z</time>
      </trkpt>
      <trkpt lat="46.35374" lon="-0.44925">
        <ele>54</ele>
        <time>2020-05-31T09:46:25Z</time>
      </trkpt>
      <trkpt lat="46.35379" lon="-0.44933">
        <ele>53.7</ele>
        <time>2020-05-31T09:46:26Z</time>
      </trkpt>
      <trkpt lat="46.35386" lon="-0.44942">
        <ele>53.4</ele>
        <time>2020-05-31T09:46:27Z</time>
      </trkpt>
      <trkpt lat="46.35392" lon="-0.4495">
        <ele>53.2</ele>
        <time>2020-05-31T09:46:28Z</time>
      </trkpt>
      <trkpt lat="46.35397" lon="-0.44958">
        <ele>52.9</ele>
        <time>2020-05-31T09:46:29Z</time>
      </trkpt>
      <trkpt lat="46.35402" lon="-0.4497">
        <ele>52.6</ele>
        <time>2020-05-31T09:46:30Z</time>
      </trkpt>
      <trkpt lat="46.35406" lon="-0.44981">
        <ele>52.3</ele>
        <time>2020-05-31T09:46:31Z</time>
      </trkpt>
      <trkpt lat="46.3541" lon="-0.44991">
        <ele>52</ele>
        <time>2020-05-31T09:46:32Z</time>
      </trkpt>
      <trkpt lat="46.35414" lon="-0.45">
        <ele>51.7</ele>
        <time>2020-05-31T09:46:33Z</time>
      </trkpt>
      <trkpt lat="46.35418" lon="-0.45011">
        <ele>51.5</ele>
        <time>2020-05-31T09:46:34Z</time>
      </trkpt>
      <trkpt lat="46.35422" lon="-0.45021">
        <ele>51.2</ele>
        <time>2020-05-31T09:46:35Z</time>
      </trkpt>
      <trkpt lat="46.35426" lon="-0.45032">
        <ele>50.9</ele>
        <time>2020-05-31T09:46:36Z</time>
      </trkpt>
      <trkpt lat="46.3543" lon="-0.45041">
        <ele>50.7</ele>
        <time>2020-05-31T09:46:37Z</time>
      </trkpt>
      <trkpt lat="46.35434" lon="-0.45051">
        <ele>50.5</ele>
        <time>2020-05-31T09:46:38Z</time>
      </trkpt>
      <trkpt lat="46.35438" lon="-0.45062">
        <ele>50.4</ele>
        <time>2020-05-31T09:46:39Z</time>
      </trkpt>
      <trkpt lat="46.35443" lon="-0.45073">
        <ele>50.1</ele>
        <time>2020-05-31T09:46:40Z</time>
      </trkpt>
      <trkpt lat="46.35447" lon="-0.45082">
        <ele>49.9</ele>
        <time>2020-05-31T09:46:41Z</time>
      </trkpt>
      <trkpt lat="46.35451" lon="-0.45093">
        <ele>49.6</ele>
        <time>2020-05-31T09:46:42Z</time>
      </trkpt>
      <trkpt lat="46.35454" lon="-0.45103">
        <ele>49.3</ele>
        <time>2020-05-31T09:46:43Z</time>
      </trkpt>
      <trkpt lat="46.35458" lon="-0.45114">
        <ele>49</ele>
        <time>2020-05-31T09:46:44Z</time>
      </trkpt>
      <trkpt lat="46.35462" lon="-0.45124">
        <ele>48.7</ele>
        <time>2020-05-31T09:46:45Z</time>
      </trkpt>
      <trkpt lat="46.35466" lon="-0.45133">
        <ele>48.5</ele>
        <time>2020-05-31T09:46:46Z</time>
      </trkpt>
      <trkpt lat="46.3547" lon="-0.45144">
        <ele>48.4</ele>
        <time>2020-05-31T09:46:47Z</time>
      </trkpt>
      <trkpt lat="46.35474" lon="-0.45155">
        <ele>48</ele>
        <time>2020-05-31T09:46:48Z</time>
      </trkpt>
      <trkpt lat="46.35478" lon="-0.45166">
        <ele>47.6</ele>
        <time>2020-05-31T09:46:49Z</time>
      </trkpt>
      <trkpt lat="46.35483" lon="-0.45176">
        <ele>47.2</ele>
        <time>2020-05-31T09:46:50Z</time>
      </trkpt>
      <trkpt lat="46.35487" lon="-0.45186">
        <ele>46.8</ele>
        <time>2020-05-31T09:46:51Z</time>
      </trkpt>
      <trkpt lat="46.3549" lon="-0.45196">
        <ele>46.6</ele>
        <time>2020-05-31T09:46:52Z</time>
      </trkpt>
      <trkpt lat="46.35494" lon="-0.45207">
        <ele>46.4</ele>
        <time>2020-05-31T09:46:53Z</time>
      </trkpt>
      <trkpt lat="46.35497" lon="-0.45217">
        <ele>46.2</ele>
        <time>2020-05-31T09:46:54Z</time>
      </trkpt>
      <trkpt lat="46.35502" lon="-0.45226">
        <ele>45.9</ele>
        <time>2020-05-31T09:46:55Z</time>
      </trkpt>
      <trkpt lat="46.35507" lon="-0.45236">
        <ele>45.6</ele>
        <time>2020-05-31T09:46:56Z</time>
      </trkpt>
      <trkpt lat="46.3551" lon="-0.45246">
        <ele>45.3</ele>
        <time>2020-05-31T09:46:57Z</time>
      </trkpt>
      <trkpt lat="46.35513" lon="-0.45256">
        <ele>45</ele>
        <time>2020-05-31T09:46:58Z</time>
      </trkpt>
      <trkpt lat="46.35516" lon="-0.45265">
        <ele>44.7</ele>
        <time>2020-05-31T09:46:59Z</time>
      </trkpt>
      <trkpt lat="46.35519" lon="-0.45274">
        <ele>44.5</ele>
        <time>2020-05-31T09:47:00Z</time>
      </trkpt>
      <trkpt lat="46.3552" lon="-0.45283">
        <ele>44.3</ele>
        <time>2020-05-31T09:47:01Z</time>
      </trkpt>
      <trkpt lat="46.35523" lon="-0.4529">
        <ele>44.1</ele>
        <time>2020-05-31T09:47:02Z</time>
      </trkpt>
      <trkpt lat="46.35524" lon="-0.45299">
        <ele>43.9</ele>
        <time>2020-05-31T09:47:03Z</time>
      </trkpt>
      <trkpt lat="46.35526" lon="-0.45308">
        <ele>43.6</ele>
        <time>2020-05-31T09:47:04Z</time>
      </trkpt>
      <trkpt lat="46.35529" lon="-0.45318">
        <ele>43.5</ele>
        <time>2020-05-31T09:47:05Z</time>
      </trkpt>
      <trkpt lat="46.35531" lon="-0.45328">
        <ele>43.3</ele>
        <time>2020-05-31T09:47:06Z</time>
      </trkpt>
      <trkpt lat="46.35532" lon="-0.45339">
        <ele>43.1</ele>
        <time>2020-05-31T09:47:07Z</time>
      </trkpt>
      <trkpt lat="46.35535" lon="-0.45349">
        <ele>42.8</ele>
        <time>2020-05-31T09:47:08Z</time>
      </trkpt>
      <trkpt lat="46.3554" lon="-0.45358">
        <ele>42.6</ele>
        <time>2020-05-31T09:47:09Z</time>
      </trkpt>
      <trkpt lat="46.35544" lon="-0.45367">
        <ele>42.4</ele>
        <time>2020-05-31T09:47:10Z</time>
      </trkpt>
      <trkpt lat="46.35548" lon="-0.45377">
        <ele>42.2</ele>
        <time>2020-05-31T09:47:11Z</time>
      </trkpt>
      <trkpt lat="46.35552" lon="-0.45385">
        <ele>42.1</ele>
        <time>2020-05-31T09:47:12Z</time>
      </trkpt>
      <trkpt lat="46.35556" lon="-0.45393">
        <ele>41.9</ele>
        <time>2020-05-31T09:47:13Z</time>
      </trkpt>
      <trkpt lat="46.3556" lon="-0.45401">
        <ele>41.8</ele>
        <time>2020-05-31T09:47:14Z</time>
      </trkpt>
      <trkpt lat="46.35563" lon="-0.45408">
        <ele>41.6</ele>
        <time>2020-05-31T09:47:15Z</time>
      </trkpt>
      <trkpt lat="46.35567" lon="-0.45415">
        <ele>41.5</ele>
        <time>2020-05-31T09:47:16Z</time>
      </trkpt>
      <trkpt lat="46.35571" lon="-0.45421">
        <ele>41.3</ele>
        <time>2020-05-31T09:47:17Z</time>
      </trkpt>
      <trkpt lat="46.35574" lon="-0.45428">
        <ele>41.1</ele>
        <time>2020-05-31T09:47:18Z</time>
      </trkpt>
      <trkpt lat="46.35578" lon="-0.45435">
        <ele>40.9</ele>
        <time>2020-05-31T09:47:19Z</time>
      </trkpt>
      <trkpt lat="46.35582" lon="-0.45442">
        <ele>40.7</ele>
        <time>2020-05-31T09:47:20Z</time>
      </trkpt>
      <trkpt lat="46.35585" lon="-0.45448">
        <ele>40.5</ele>
        <time>2020-05-31T09:47:21Z</time>
      </trkpt>
      <trkpt lat="46.35588" lon="-0.45455">
        <ele>40.4</ele>
        <time>2020-05-31T09:47:22Z</time>
      </trkpt>
      <trkpt lat="46.35592" lon="-0.45462">
        <ele>40.2</ele>
        <time>2020-05-31T09:47:23Z</time>
      </trkpt>
      <trkpt lat="46.35596" lon="-0.45468">
        <ele>40</ele>
        <time>2020-05-31T09:47:24Z</time>
      </trkpt>
      <trkpt lat="46.356" lon="-0.45475">
        <ele>39.8</ele>
        <time>2020-05-31T09:47:25Z</time>
      </trkpt>
      <trkpt lat="46.35604" lon="-0.45481">
        <ele>39.6</ele>
        <time>2020-05-31T09:47:26Z</time>
      </trkpt>
      <trkpt lat="46.35609" lon="-0.45486">
        <ele>39.4</ele>
        <time>2020-05-31T09:47:27Z</time>
      </trkpt>
      <trkpt lat="46.35612" lon="-0.45492">
        <ele>39.2</ele>
        <time>2020-05-31T09:47:28Z</time>
      </trkpt>
      <trkpt lat="46.35616" lon="-0.45499">
        <ele>39</ele>
        <time>2020-05-31T09:47:29Z</time>
      </trkpt>
      <trkpt lat="46.3562" lon="-0.45506">
        <ele>38.7</ele>
        <time>2020-05-31T09:47:30Z</time>
      </trkpt>
      <trkpt lat="46.35623" lon="-0.45514">
        <ele>38.4</ele>
        <time>2020-05-31T09:47:31Z</time>
      </trkpt>
      <trkpt lat="46.35628" lon="-0.45521">
        <ele>38.1</ele>
        <time>2020-05-31T09:47:32Z</time>
      </trkpt>
      <trkpt lat="46.35632" lon="-0.45529">
        <ele>37.7</ele>
        <time>2020-05-31T09:47:33Z</time>
      </trkpt>
      <trkpt lat="46.35637" lon="-0.45536">
        <ele>37.4</ele>
        <time>2020-05-31T09:47:34Z</time>
      </trkpt>
      <trkpt lat="46.35642" lon="-0.45543">
        <ele>37.1</ele>
        <time>2020-05-31T09:47:35Z</time>
      </trkpt>
      <trkpt lat="46.35644" lon="-0.45552">
        <ele>36.8</ele>
        <time>2020-05-31T09:47:36Z</time>
      </trkpt>
      <trkpt lat="46.35648" lon="-0.45561">
        <ele>36.5</ele>
        <time>2020-05-31T09:47:37Z</time>
      </trkpt>
      <trkpt lat="46.35651" lon="-0.45569">
        <ele>36.2</ele>
        <time>2020-05-31T09:47:38Z</time>
      </trkpt>
      <trkpt lat="46.35655" lon="-0.45577">
        <ele>35.9</ele>
        <time>2020-05-31T09:47:39Z</time>
      </trkpt>
      <trkpt lat="46.35657" lon="-0.45585">
        <ele>35.7</ele>
        <time>2020-05-31T09:47:40Z</time>
      </trkpt>
      <trkpt lat="46.35662" lon="-0.45592">
        <ele>35.4</ele>
        <time>2020-05-31T09:47:41Z</time>
      </trkpt>
      <trkpt lat="46.35665" lon="-0.456">
        <ele>35.2</ele>
        <time>2020-05-31T09:47:42Z</time>
      </trkpt>
      <trkpt lat="46.35667" lon="-0.45609">
        <ele>35</ele>
        <time>2020-05-31T09:47:43Z</time>
      </trkpt>
      <trkpt lat="46.35669" lon="-0.45618">
        <ele>34.7</ele>
        <time>2020-05-31T09:47:44Z</time>
      </trkpt>
      <trkpt lat="46.35672" lon="-0.45627">
        <ele>34.4</ele>
        <time>2020-05-31T09:47:45Z</time>
      </trkpt>
      <trkpt lat="46.35674" lon="-0.45637">
        <ele>34.1</ele>
        <time>2020-05-31T09:47:46Z</time>
      </trkpt>
      <trkpt lat="46.35676" lon="-0.45647">
        <ele>33.8</ele>
        <time>2020-05-31T09:47:47Z</time>
      </trkpt>
      <trkpt lat="46.35677" lon="-0.45658">
        <ele>33.6</ele>
        <time>2020-05-31T09:47:48Z</time>
      </trkpt>
      <trkpt lat="46.3568" lon="-0.45668">
        <ele>33.4</ele>
        <time>2020-05-31T09:47:49Z</time>
      </trkpt>
      <trkpt lat="46.35684" lon="-0.45678">
        <ele>33.2</ele>
        <time>2020-05-31T09:47:50Z</time>
      </trkpt>
      <trkpt lat="46.35688" lon="-0.45687">
        <ele>32.9</ele>
        <time>2020-05-31T09:47:51Z</time>
      </trkpt>
      <trkpt lat="46.35691" lon="-0.45695">
        <ele>32.5</ele>
        <time>2020-05-31T09:47:52Z</time>
      </trkpt>
      <trkpt lat="46.35694" lon="-0.45706">
        <ele>32</ele>
        <time>2020-05-31T09:47:53Z</time>
      </trkpt>
      <trkpt lat="46.35696" lon="-0.45715">
        <ele>31.5</ele>
        <time>2020-05-31T09:47:54Z</time>
      </trkpt>
      <trkpt lat="46.35698" lon="-0.45725">
        <ele>31</ele>
        <time>2020-05-31T09:47:55Z</time>
      </trkpt>
      <trkpt lat="46.357" lon="-0.45734">
        <ele>30.4</ele>
        <time>2020-05-31T09:47:56Z</time>
      </trkpt>
      <trkpt lat="46.35702" lon="-0.45743">
        <ele>29.9</ele>
        <time>2020-05-31T09:47:57Z</time>
      </trkpt>
      <trkpt lat="46.35703" lon="-0.45751">
        <ele>29.4</ele>
        <time>2020-05-31T09:47:58Z</time>
      </trkpt>
      <trkpt lat="46.35704" lon="-0.45759">
        <ele>28.9</ele>
        <time>2020-05-31T09:47:59Z</time>
      </trkpt>
      <trkpt lat="46.35707" lon="-0.45766">
        <ele>28.5</ele>
        <time>2020-05-31T09:48:00Z</time>
      </trkpt>
      <trkpt lat="46.35708" lon="-0.45773">
        <ele>28.1</ele>
        <time>2020-05-31T09:48:01Z</time>
      </trkpt>
      <trkpt lat="46.35709" lon="-0.4578">
        <ele>27.8</ele>
        <time>2020-05-31T09:48:02Z</time>
      </trkpt>
      <trkpt lat="46.35709" lon="-0.45784">
        <ele>27.6</ele>
        <time>2020-05-31T09:48:03Z</time>
      </trkpt>
      <trkpt lat="46.35708" lon="-0.45787">
        <ele>27.1</ele>
        <time>2020-05-31T09:48:04Z</time>
      </trkpt>
      <trkpt lat="46.35704" lon="-0.45789">
        <ele>26.9</ele>
        <time>2020-05-31T09:48:05Z</time>
      </trkpt>
      <trkpt lat="46.357" lon="-0.45788">
        <ele>26.6</ele>
        <time>2020-05-31T09:48:06Z</time>
      </trkpt>
      <trkpt lat="46.35695" lon="-0.45789">
        <ele>26.3</ele>
        <time>2020-05-31T09:48:07Z</time>
      </trkpt>
      <trkpt lat="46.35691" lon="-0.45792">
        <ele>25.9</ele>
        <time>2020-05-31T09:48:08Z</time>
      </trkpt>
      <trkpt lat="46.35687" lon="-0.45794">
        <ele>25.5</ele>
        <time>2020-05-31T09:48:09Z</time>
      </trkpt>
      <trkpt lat="46.35682" lon="-0.45793">
        <ele>25</ele>
        <time>2020-05-31T09:48:10Z</time>
      </trkpt>
      <trkpt lat="46.35676" lon="-0.45789">
        <ele>24.4</ele>
        <time>2020-05-31T09:48:11Z</time>
      </trkpt>
      <trkpt lat="46.35671" lon="-0.45783">
        <ele>23.8</ele>
        <time>2020-05-31T09:48:12Z</time>
      </trkpt>
      <trkpt lat="46.35667" lon="-0.45774">
        <ele>23.1</ele>
        <time>2020-05-31T09:48:13Z</time>
      </trkpt>
      <trkpt lat="46.35661" lon="-0.45765">
        <ele>22.3</ele>
        <time>2020-05-31T09:48:14Z</time>
      </trkpt>
      <trkpt lat="46.35656" lon="-0.45754">
        <ele>21.6</ele>
        <time>2020-05-31T09:48:15Z</time>
      </trkpt>
      <trkpt lat="46.3565" lon="-0.45743">
        <ele>21</ele>
        <time>2020-05-31T09:48:16Z</time>
      </trkpt>
      <trkpt lat="46.35644" lon="-0.45732">
        <ele>20.4</ele>
        <time>2020-05-31T09:48:17Z</time>
      </trkpt>
      <trkpt lat="46.35637" lon="-0.45722">
        <ele>19.8</ele>
        <time>2020-05-31T09:48:18Z</time>
      </trkpt>
      <trkpt lat="46.35629" lon="-0.45712">
        <ele>19.2</ele>
        <time>2020-05-31T09:48:19Z</time>
      </trkpt>
      <trkpt lat="46.35622" lon="-0.45701">
        <ele>18.7</ele>
        <time>2020-05-31T09:48:20Z</time>
      </trkpt>
      <trkpt lat="46.35615" lon="-0.4569">
        <ele>18.3</ele>
        <time>2020-05-31T09:48:21Z</time>
      </trkpt>
      <trkpt lat="46.35608" lon="-0.45681">
        <ele>18.1</ele>
        <time>2020-05-31T09:48:22Z</time>
      </trkpt>
      <trkpt lat="46.35601" lon="-0.45671">
        <ele>17.9</ele>
        <time>2020-05-31T09:48:23Z</time>
      </trkpt>
      <trkpt lat="46.35594" lon="-0.45663">
        <ele>17.8</ele>
        <time>2020-05-31T09:48:24Z</time>
      </trkpt>
      <trkpt lat="46.35588" lon="-0.45656">
        <ele>17.7</ele>
        <time>2020-05-31T09:48:25Z</time>
      </trkpt>
      <trkpt lat="46.35583" lon="-0.45648">
        <ele>17.6</ele>
        <time>2020-05-31T09:48:26Z</time>
      </trkpt>
      <trkpt lat="46.35578" lon="-0.45642">
        <ele>17.5</ele>
        <time>2020-05-31T09:48:27Z</time>
      </trkpt>
      <trkpt lat="46.35573" lon="-0.45638">
        <ele>17.5</ele>
        <time>2020-05-31T09:48:28Z</time>
      </trkpt>
      <trkpt lat="46.35565" lon="-0.45639">
        <ele>17.4</ele>
        <time>2020-05-31T09:48:29Z</time>
      </trkpt>
      <trkpt lat="46.35559" lon="-0.45643">
        <ele>17.4</ele>
        <time>2020-05-31T09:48:30Z</time>
      </trkpt>
      <trkpt lat="46.35554" lon="-0.45649">
        <ele>17.4</ele>
        <time>2020-05-31T09:48:31Z</time>
      </trkpt>
      <trkpt lat="46.35549" lon="-0.45656">
        <ele>17.3</ele>
        <time>2020-05-31T09:48:32Z</time>
      </trkpt>
      <trkpt lat="46.35546" lon="-0.45661">
        <ele>17.3</ele>
        <time>2020-05-31T09:48:33Z</time>
      </trkpt>
      <trkpt lat="46.35543" lon="-0.45664">
        <ele>17.3</ele>
        <time>2020-05-31T09:48:34Z</time>
      </trkpt>
      <trkpt lat="46.3554" lon="-0.45667">
        <ele>17.3</ele>
        <time>2020-05-31T09:48:35Z</time>
      </trkpt>
      <trkpt lat="46.35537" lon="-0.45669">
        <ele>17.3</ele>
        <time>2020-05-31T09:48:36Z</time>
      </trkpt>
      <trkpt lat="46.35533" lon="-0.45674">
        <ele>17.2</ele>
        <time>2020-05-31T09:48:37Z</time>
      </trkpt>
      <trkpt lat="46.35529" lon="-0.45679">
        <ele>17.2</ele>
        <time>2020-05-31T09:48:38Z</time>
      </trkpt>
      <trkpt lat="46.35524" lon="-0.45685">
        <ele>17.2</ele>
        <time>2020-05-31T09:48:39Z</time>
      </trkpt>
      <trkpt lat="46.3552" lon="-0.45691">
        <ele>17.2</ele>
        <time>2020-05-31T09:48:40Z</time>
      </trkpt>
      <trkpt lat="46.35515" lon="-0.45698">
        <ele>17.2</ele>
        <time>2020-05-31T09:48:41Z</time>
      </trkpt>
      <trkpt lat="46.3551" lon="-0.45704">
        <ele>17.1</ele>
        <time>2020-05-31T09:48:42Z</time>
      </trkpt>
      <trkpt lat="46.35506" lon="-0.45712">
        <ele>17.1</ele>
        <time>2020-05-31T09:48:43Z</time>
      </trkpt>
      <trkpt lat="46.35502" lon="-0.45719">
        <ele>17</ele>
        <time>2020-05-31T09:48:44Z</time>
      </trkpt>
      <trkpt lat="46.35498" lon="-0.45727">
        <ele>17</ele>
        <time>2020-05-31T09:48:45Z</time>
      </trkpt>
      <trkpt lat="46.35494" lon="-0.45734">
        <ele>16.9</ele>
        <time>2020-05-31T09:48:46Z</time>
      </trkpt>
      <trkpt lat="46.3549" lon="-0.45741">
        <ele>16.8</ele>
        <time>2020-05-31T09:48:47Z</time>
      </trkpt>
      <trkpt lat="46.35485" lon="-0.45746">
        <ele>16.8</ele>
        <time>2020-05-31T09:48:48Z</time>
      </trkpt>
      <trkpt lat="46.35481" lon="-0.45752">
        <ele>16.8</ele>
        <time>2020-05-31T09:48:49Z</time>
      </trkpt>
      <trkpt lat="46.35476" lon="-0.45756">
        <ele>16.7</ele>
        <time>2020-05-31T09:48:50Z</time>
      </trkpt>
      <trkpt lat="46.35471" lon="-0.45757">
        <ele>16.8</ele>
        <time>2020-05-31T09:48:51Z</time>
      </trkpt>
      <trkpt lat="46.35466" lon="-0.45756">
        <ele>16.8</ele>
        <time>2020-05-31T09:48:52Z</time>
      </trkpt>
      <trkpt lat="46.3546" lon="-0.45751">
        <ele>16.9</ele>
        <time>2020-05-31T09:48:53Z</time>
      </trkpt>
      <trkpt lat="46.35456" lon="-0.45746">
        <ele>16.9</ele>
        <time>2020-05-31T09:48:54Z</time>
      </trkpt>
      <trkpt lat="46.35452" lon="-0.45741">
        <ele>17</ele>
        <time>2020-05-31T09:48:55Z</time>
      </trkpt>
      <trkpt lat="46.35448" lon="-0.45736">
        <ele>17.1</ele>
        <time>2020-05-31T09:48:56Z</time>
      </trkpt>
      <trkpt lat="46.35444" lon="-0.45732">
        <ele>17.2</ele>
        <time>2020-05-31T09:48:57Z</time>
      </trkpt>
      <trkpt lat="46.35441" lon="-0.45727">
        <ele>17.2</ele>
        <time>2020-05-31T09:48:58Z</time>
      </trkpt>
      <trkpt lat="46.35437" lon="-0.45724">
        <ele>17.3</ele>
        <time>2020-05-31T09:48:59Z</time>
      </trkpt>
      <trkpt lat="46.35433" lon="-0.4572">
        <ele>17.4</ele>
        <time>2020-05-31T09:49:00Z</time>
      </trkpt>
      <trkpt lat="46.3543" lon="-0.45716">
        <ele>17.5</ele>
        <time>2020-05-31T09:49:01Z</time>
      </trkpt>
      <trkpt lat="46.35426" lon="-0.45712">
        <ele>17.6</ele>
        <time>2020-05-31T09:49:02Z</time>
      </trkpt>
      <trkpt lat="46.35421" lon="-0.4571">
        <ele>17.8</ele>
        <time>2020-05-31T09:49:03Z</time>
      </trkpt>
      <trkpt lat="46.35416" lon="-0.45709">
        <ele>17.9</ele>
        <time>2020-05-31T09:49:04Z</time>
      </trkpt>
      <trkpt lat="46.35412" lon="-0.45709">
        <ele>18</ele>
        <time>2020-05-31T09:49:05Z</time>
      </trkpt>
      <trkpt lat="46.35408" lon="-0.45708">
        <ele>18.1</ele>
        <time>2020-05-31T09:49:06Z</time>
      </trkpt>
      <trkpt lat="46.35404" lon="-0.45708">
        <ele>18.2</ele>
        <time>2020-05-31T09:49:07Z</time>
      </trkpt>
      <trkpt lat="46.354" lon="-0.45709">
        <ele>18.5</ele>
        <time>2020-05-31T09:49:08Z</time>
      </trkpt>
      <trkpt lat="46.35396" lon="-0.45711">
        <ele>18.6</ele>
        <time>2020-05-31T09:49:09Z</time>
      </trkpt>
      <trkpt lat="46.35392" lon="-0.45713">
        <ele>18.8</ele>
        <time>2020-05-31T09:49:10Z</time>
      </trkpt>
      <trkpt lat="46.35389" lon="-0.45716">
        <ele>19</ele>
        <time>2020-05-31T09:49:11Z</time>
      </trkpt>
      <trkpt lat="46.35386" lon="-0.45719">
        <ele>19.2</ele>
        <time>2020-05-31T09:49:12Z</time>
      </trkpt>
      <trkpt lat="46.35385" lon="-0.4572">
        <ele>19.3</ele>
        <time>2020-05-31T09:49:13Z</time>
      </trkpt>
      <trkpt lat="46.35382" lon="-0.45724">
        <ele>19.6</ele>
        <time>2020-05-31T09:49:14Z</time>
      </trkpt>
      <trkpt lat="46.35379" lon="-0.45727">
        <ele>19.8</ele>
        <time>2020-05-31T09:49:15Z</time>
      </trkpt>
      <trkpt lat="46.35377" lon="-0.45729">
        <ele>20.1</ele>
        <time>2020-05-31T09:49:16Z</time>
      </trkpt>
      <trkpt lat="46.35374" lon="-0.45732">
        <ele>20.3</ele>
        <time>2020-05-31T09:49:17Z</time>
      </trkpt>
      <trkpt lat="46.35371" lon="-0.45736">
        <ele>20.5</ele>
        <time>2020-05-31T09:49:18Z</time>
      </trkpt>
      <trkpt lat="46.35369" lon="-0.45739">
        <ele>20.8</ele>
        <time>2020-05-31T09:49:19Z</time>
      </trkpt>
      <trkpt lat="46.35367" lon="-0.45743">
        <ele>21</ele>
        <time>2020-05-31T09:49:20Z</time>
      </trkpt>
      <trkpt lat="46.35365" lon="-0.45746">
        <ele>21.2</ele>
        <time>2020-05-31T09:49:21Z</time>
      </trkpt>
      <trkpt lat="46.35362" lon="-0.45748">
        <ele>21.3</ele>
        <time>2020-05-31T09:49:22Z</time>
      </trkpt>
      <trkpt lat="46.3536" lon="-0.45751">
        <ele>21.5</ele>
        <time>2020-05-31T09:49:23Z</time>
      </trkpt>
      <trkpt lat="46.35358" lon="-0.45754">
        <ele>21.7</ele>
        <time>2020-05-31T09:49:24Z</time>
      </trkpt>
      <trkpt lat="46.35355" lon="-0.45758">
        <ele>22</ele>
        <time>2020-05-31T09:49:25Z</time>
      </trkpt>
      <trkpt lat="46.35354" lon="-0.4576">
        <ele>22</ele>
        <time>2020-05-31T09:49:26Z</time>
      </trkpt>
      <trkpt lat="46.3535" lon="-0.45764">
        <ele>22.3</ele>
        <time>2020-05-31T09:49:27Z</time>
      </trkpt>
      <trkpt lat="46.35348" lon="-0.45767">
        <ele>22.5</ele>
        <time>2020-05-31T09:49:28Z</time>
      </trkpt>
      <trkpt lat="46.35347" lon="-0.45769">
        <ele>22.5</ele>
        <time>2020-05-31T09:49:29Z</time>
      </trkpt>
      <trkpt lat="46.35344" lon="-0.45773">
        <ele>22.7</ele>
        <time>2020-05-31T09:49:30Z</time>
      </trkpt>
      <trkpt lat="46.35342" lon="-0.45775">
        <ele>22.8</ele>
        <time>2020-05-31T09:49:31Z</time>
      </trkpt>
      <trkpt lat="46.3534" lon="-0.45779">
        <ele>23</ele>
        <time>2020-05-31T09:49:32Z</time>
      </trkpt>
      <trkpt lat="46.35339" lon="-0.4578">
        <ele>23.1</ele>
        <time>2020-05-31T09:49:33Z</time>
      </trkpt>
      <trkpt lat="46.35336" lon="-0.45783">
        <ele>23.2</ele>
        <time>2020-05-31T09:49:34Z</time>
      </trkpt>
      <trkpt lat="46.35332" lon="-0.45787">
        <ele>23.3</ele>
        <time>2020-05-31T09:49:35Z</time>
      </trkpt>
      <trkpt lat="46.35329" lon="-0.4579">
        <ele>23.5</ele>
        <time>2020-05-31T09:49:36Z</time>
      </trkpt>
      <trkpt lat="46.35326" lon="-0.45794">
        <ele>23.6</ele>
        <time>2020-05-31T09:49:37Z</time>
      </trkpt>
      <trkpt lat="46.35324" lon="-0.45798">
        <ele>23.7</ele>
        <time>2020-05-31T09:49:38Z</time>
      </trkpt>
      <trkpt lat="46.35321" lon="-0.45802">
        <ele>23.9</ele>
        <time>2020-05-31T09:49:39Z</time>
      </trkpt>
      <trkpt lat="46.35318" lon="-0.45806">
        <ele>24</ele>
        <time>2020-05-31T09:49:40Z</time>
      </trkpt>
      <trkpt lat="46.35315" lon="-0.4581">
        <ele>24.1</ele>
        <time>2020-05-31T09:49:41Z</time>
      </trkpt>
      <trkpt lat="46.35313" lon="-0.45813">
        <ele>24.1</ele>
        <time>2020-05-31T09:49:42Z</time>
      </trkpt>
      <trkpt lat="46.3531" lon="-0.4582">
        <ele>24.2</ele>
        <time>2020-05-31T09:49:43Z</time>
      </trkpt>
      <trkpt lat="46.35307" lon="-0.45824">
        <ele>24.3</ele>
        <time>2020-05-31T09:49:44Z</time>
      </trkpt>
      <trkpt lat="46.35303" lon="-0.45826">
        <ele>24.4</ele>
        <time>2020-05-31T09:49:45Z</time>
      </trkpt>
      <trkpt lat="46.353" lon="-0.4583">
        <ele>24.4</ele>
        <time>2020-05-31T09:49:46Z</time>
      </trkpt>
      <trkpt lat="46.35297" lon="-0.45834">
        <ele>24.5</ele>
        <time>2020-05-31T09:49:47Z</time>
      </trkpt>
      <trkpt lat="46.35294" lon="-0.45838">
        <ele>24.6</ele>
        <time>2020-05-31T09:49:48Z</time>
      </trkpt>
      <trkpt lat="46.35291" lon="-0.45842">
        <ele>24.7</ele>
        <time>2020-05-31T09:49:49Z</time>
      </trkpt>
      <trkpt lat="46.35288" lon="-0.45846">
        <ele>24.7</ele>
        <time>2020-05-31T09:49:50Z</time>
      </trkpt>
      <trkpt lat="46.35285" lon="-0.4585">
        <ele>24.8</ele>
        <time>2020-05-31T09:49:51Z</time>
      </trkpt>
      <trkpt lat="46.35283" lon="-0.45854">
        <ele>24.9</ele>
        <time>2020-05-31T09:49:52Z</time>
      </trkpt>
      <trkpt lat="46.3528" lon="-0.45858">
        <ele>24.9</ele>
        <time>2020-05-31T09:49:53Z</time>
      </trkpt>
      <trkpt lat="46.35278" lon="-0.45863">
        <ele>25</ele>
        <time>2020-05-31T09:49:54Z</time>
      </trkpt>
      <trkpt lat="46.35275" lon="-0.45869">
        <ele>25.1</ele>
        <time>2020-05-31T09:49:55Z</time>
      </trkpt>
      <trkpt lat="46.35272" lon="-0.45872">
        <ele>25.2</ele>
        <time>2020-05-31T09:49:56Z</time>
      </trkpt>
      <trkpt lat="46.3527" lon="-0.45874">
        <ele>25.2</ele>
        <time>2020-05-31T09:49:57Z</time>
      </trkpt>
      <trkpt lat="46.35267" lon="-0.45878">
        <ele>25.2</ele>
        <time>2020-05-31T09:49:58Z</time>
      </trkpt>
      <trkpt lat="46.35265" lon="-0.45882">
        <ele>25.3</ele>
        <time>2020-05-31T09:49:59Z</time>
      </trkpt>
      <trkpt lat="46.35263" lon="-0.45886">
        <ele>25.3</ele>
        <time>2020-05-31T09:50:00Z</time>
      </trkpt>
      <trkpt lat="46.35259" lon="-0.45892">
        <ele>25.4</ele>
        <time>2020-05-31T09:50:01Z</time>
      </trkpt>
      <trkpt lat="46.35257" lon="-0.45897">
        <ele>25.4</ele>
        <time>2020-05-31T09:50:02Z</time>
      </trkpt>
      <trkpt lat="46.35255" lon="-0.45901">
        <ele>25.5</ele>
        <time>2020-05-31T09:50:03Z</time>
      </trkpt>
      <trkpt lat="46.35252" lon="-0.45907">
        <ele>25.5</ele>
        <time>2020-05-31T09:50:04Z</time>
      </trkpt>
      <trkpt lat="46.3525" lon="-0.45913">
        <ele>25.6</ele>
        <time>2020-05-31T09:50:05Z</time>
      </trkpt>
      <trkpt lat="46.35249" lon="-0.45918">
        <ele>25.6</ele>
        <time>2020-05-31T09:50:06Z</time>
      </trkpt>
      <trkpt lat="46.35247" lon="-0.45922">
        <ele>25.7</ele>
        <time>2020-05-31T09:50:07Z</time>
      </trkpt>
      <trkpt lat="46.35244" lon="-0.45926">
        <ele>25.7</ele>
        <time>2020-05-31T09:50:08Z</time>
      </trkpt>
      <trkpt lat="46.35242" lon="-0.45931">
        <ele>25.8</ele>
        <time>2020-05-31T09:50:09Z</time>
      </trkpt>
      <trkpt lat="46.35239" lon="-0.45935">
        <ele>25.9</ele>
        <time>2020-05-31T09:50:10Z</time>
      </trkpt>
      <trkpt lat="46.35236" lon="-0.4594">
        <ele>26</ele>
        <time>2020-05-31T09:50:11Z</time>
      </trkpt>
      <trkpt lat="46.35234" lon="-0.45946">
        <ele>26</ele>
        <time>2020-05-31T09:50:12Z</time>
      </trkpt>
      <trkpt lat="46.35232" lon="-0.4595">
        <ele>26.1</ele>
        <time>2020-05-31T09:50:13Z</time>
      </trkpt>
      <trkpt lat="46.35229" lon="-0.45956">
        <ele>26.2</ele>
        <time>2020-05-31T09:50:14Z</time>
      </trkpt>
      <trkpt lat="46.35226" lon="-0.45963">
        <ele>26.3</ele>
        <time>2020-05-31T09:50:15Z</time>
      </trkpt>
      <trkpt lat="46.35223" lon="-0.45968">
        <ele>26.3</ele>
        <time>2020-05-31T09:50:16Z</time>
      </trkpt>
      <trkpt lat="46.35221" lon="-0.45972">
        <ele>26.4</ele>
        <time>2020-05-31T09:50:17Z</time>
      </trkpt>
      <trkpt lat="46.35219" lon="-0.45977">
        <ele>26.5</ele>
        <time>2020-05-31T09:50:18Z</time>
      </trkpt>
      <trkpt lat="46.35217" lon="-0.45983">
        <ele>26.6</ele>
        <time>2020-05-31T09:50:19Z</time>
      </trkpt>
      <trkpt lat="46.35215" lon="-0.45989">
        <ele>26.7</ele>
        <time>2020-05-31T09:50:20Z</time>
      </trkpt>
      <trkpt lat="46.35211" lon="-0.45995">
        <ele>26.8</ele>
        <time>2020-05-31T09:50:21Z</time>
      </trkpt>
      <trkpt lat="46.3521" lon="-0.46">
        <ele>26.9</ele>
        <time>2020-05-31T09:50:22Z</time>
      </trkpt>
      <trkpt lat="46.35208" lon="-0.46006">
        <ele>26.9</ele>
        <time>2020-05-31T09:50:23Z</time>
      </trkpt>
      <trkpt lat="46.35207" lon="-0.46011">
        <ele>27</ele>
        <time>2020-05-31T09:50:24Z</time>
      </trkpt>
      <trkpt lat="46.35205" lon="-0.46016">
        <ele>27.1</ele>
        <time>2020-05-31T09:50:25Z</time>
      </trkpt>
      <trkpt lat="46.35204" lon="-0.4602">
        <ele>27.1</ele>
        <time>2020-05-31T09:50:26Z</time>
      </trkpt>
      <trkpt lat="46.35203" lon="-0.46026">
        <ele>27.2</ele>
        <time>2020-05-31T09:50:27Z</time>
      </trkpt>
      <trkpt lat="46.35202" lon="-0.46031">
        <ele>27.3</ele>
        <time>2020-05-31T09:50:28Z</time>
      </trkpt>
      <trkpt lat="46.35201" lon="-0.46037">
        <ele>27.3</ele>
        <time>2020-05-31T09:50:29Z</time>
      </trkpt>
      <trkpt lat="46.35201" lon="-0.46042">
        <ele>27.4</ele>
        <time>2020-05-31T09:50:30Z</time>
      </trkpt>
      <trkpt lat="46.352" lon="-0.46048">
        <ele>27.5</ele>
        <time>2020-05-31T09:50:31Z</time>
      </trkpt>
      <trkpt lat="46.35199" lon="-0.46054">
        <ele>27.6</ele>
        <time>2020-05-31T09:50:32Z</time>
      </trkpt>
      <trkpt lat="46.35197" lon="-0.4606">
        <ele>27.7</ele>
        <time>2020-05-31T09:50:33Z</time>
      </trkpt>
      <trkpt lat="46.35196" lon="-0.46066">
        <ele>27.7</ele>
        <time>2020-05-31T09:50:34Z</time>
      </trkpt>
      <trkpt lat="46.35195" lon="-0.46073">
        <ele>27.8</ele>
        <time>2020-05-31T09:50:35Z</time>
      </trkpt>
      <trkpt lat="46.35193" lon="-0.46078">
        <ele>27.9</ele>
        <time>2020-05-31T09:50:36Z</time>
      </trkpt>
      <trkpt lat="46.35192" lon="-0.46084">
        <ele>28</ele>
        <time>2020-05-31T09:50:37Z</time>
      </trkpt>
      <trkpt lat="46.35189" lon="-0.46089">
        <ele>28.1</ele>
        <time>2020-05-31T09:50:38Z</time>
      </trkpt>
      <trkpt lat="46.35187" lon="-0.46093">
        <ele>28.2</ele>
        <time>2020-05-31T09:50:39Z</time>
      </trkpt>
      <trkpt lat="46.35184" lon="-0.46097">
        <ele>28.3</ele>
        <time>2020-05-31T09:50:40Z</time>
      </trkpt>
      <trkpt lat="46.35182" lon="-0.46102">
        <ele>28.4</ele>
        <time>2020-05-31T09:50:41Z</time>
      </trkpt>
      <trkpt lat="46.3518" lon="-0.46106">
        <ele>28.4</ele>
        <time>2020-05-31T09:50:42Z</time>
      </trkpt>
      <trkpt lat="46.35177" lon="-0.46111">
        <ele>28.5</ele>
        <time>2020-05-31T09:50:43Z</time>
      </trkpt>
      <trkpt lat="46.35175" lon="-0.46116">
        <ele>28.6</ele>
        <time>2020-05-31T09:50:44Z</time>
      </trkpt>
      <trkpt lat="46.35174" lon="-0.46122">
        <ele>28.7</ele>
        <time>2020-05-31T09:50:45Z</time>
      </trkpt>
      <trkpt lat="46.35173" lon="-0.46128">
        <ele>28.7</ele>
        <time>2020-05-31T09:50:46Z</time>
      </trkpt>
      <trkpt lat="46.35172" lon="-0.46135">
        <ele>28.8</ele>
        <time>2020-05-31T09:50:47Z</time>
      </trkpt>
      <trkpt lat="46.35173" lon="-0.4614">
        <ele>28.9</ele>
        <time>2020-05-31T09:50:48Z</time>
      </trkpt>
      <trkpt lat="46.35174" lon="-0.46145">
        <ele>28.9</ele>
        <time>2020-05-31T09:50:49Z</time>
      </trkpt>
      <trkpt lat="46.35175" lon="-0.46151">
        <ele>28.9</ele>
        <time>2020-05-31T09:50:50Z</time>
      </trkpt>
      <trkpt lat="46.35177" lon="-0.46156">
        <ele>29</ele>
        <time>2020-05-31T09:50:51Z</time>
      </trkpt>
      <trkpt lat="46.35179" lon="-0.46161">
        <ele>29</ele>
        <time>2020-05-31T09:50:52Z</time>
      </trkpt>
      <trkpt lat="46.35181" lon="-0.46165">
        <ele>29.1</ele>
        <time>2020-05-31T09:50:53Z</time>
      </trkpt>
      <trkpt lat="46.35183" lon="-0.4617">
        <ele>29.2</ele>
        <time>2020-05-31T09:50:54Z</time>
      </trkpt>
      <trkpt lat="46.35185" lon="-0.46175">
        <ele>29.2</ele>
        <time>2020-05-31T09:50:55Z</time>
      </trkpt>
      <trkpt lat="46.35187" lon="-0.46181">
        <ele>29.4</ele>
        <time>2020-05-31T09:50:56Z</time>
      </trkpt>
      <trkpt lat="46.35189" lon="-0.46186">
        <ele>29.5</ele>
        <time>2020-05-31T09:50:57Z</time>
      </trkpt>
      <trkpt lat="46.35191" lon="-0.4619">
        <ele>29.6</ele>
        <time>2020-05-31T09:50:58Z</time>
      </trkpt>
      <trkpt lat="46.35192" lon="-0.46194">
        <ele>29.6</ele>
        <time>2020-05-31T09:50:59Z</time>
      </trkpt>
      <trkpt lat="46.35194" lon="-0.46198">
        <ele>29.7</ele>
        <time>2020-05-31T09:51:00Z</time>
      </trkpt>
      <trkpt lat="46.35195" lon="-0.46202">
        <ele>29.8</ele>
        <time>2020-05-31T09:51:01Z</time>
      </trkpt>
      <trkpt lat="46.35197" lon="-0.46206">
        <ele>29.9</ele>
        <time>2020-05-31T09:51:02Z</time>
      </trkpt>
      <trkpt lat="46.35199" lon="-0.4621">
        <ele>30</ele>
        <time>2020-05-31T09:51:03Z</time>
      </trkpt>
      <trkpt lat="46.35201" lon="-0.46214">
        <ele>30.1</ele>
        <time>2020-05-31T09:51:04Z</time>
      </trkpt>
      <trkpt lat="46.35204" lon="-0.46218">
        <ele>30.2</ele>
        <time>2020-05-31T09:51:05Z</time>
      </trkpt>
      <trkpt lat="46.35204" lon="-0.46219">
        <ele>30.2</ele>
        <time>2020-05-31T09:51:06Z</time>
      </trkpt>
      <trkpt lat="46.35206" lon="-0.46223">
        <ele>30.3</ele>
        <time>2020-05-31T09:51:07Z</time>
      </trkpt>
      <trkpt lat="46.35207" lon="-0.46228">
        <ele>30.4</ele>
        <time>2020-05-31T09:51:08Z</time>
      </trkpt>
      <trkpt lat="46.35208" lon="-0.46232">
        <ele>30.5</ele>
        <time>2020-05-31T09:51:09Z</time>
      </trkpt>
      <trkpt lat="46.3521" lon="-0.46237">
        <ele>30.6</ele>
        <time>2020-05-31T09:51:10Z</time>
      </trkpt>
      <trkpt lat="46.35212" lon="-0.46241">
        <ele>30.7</ele>
        <time>2020-05-31T09:51:11Z</time>
      </trkpt>
      <trkpt lat="46.35214" lon="-0.46245">
        <ele>30.8</ele>
        <time>2020-05-31T09:51:12Z</time>
      </trkpt>
      <trkpt lat="46.35216" lon="-0.46249">
        <ele>30.9</ele>
        <time>2020-05-31T09:51:13Z</time>
      </trkpt>
      <trkpt lat="46.35217" lon="-0.46255">
        <ele>31</ele>
        <time>2020-05-31T09:51:14Z</time>
      </trkpt>
      <trkpt lat="46.35218" lon="-0.46258">
        <ele>31</ele>
        <time>2020-05-31T09:51:15Z</time>
      </trkpt>
      <trkpt lat="46.3522" lon="-0.46264">
        <ele>31.1</ele>
        <time>2020-05-31T09:51:16Z</time>
      </trkpt>
      <trkpt lat="46.35221" lon="-0.46266">
        <ele>31.1</ele>
        <time>2020-05-31T09:51:17Z</time>
      </trkpt>
      <trkpt lat="46.35223" lon="-0.46272">
        <ele>31.1</ele>
        <time>2020-05-31T09:51:18Z</time>
      </trkpt>
      <trkpt lat="46.35223" lon="-0.46274">
        <ele>31.3</ele>
        <time>2020-05-31T09:51:19Z</time>
      </trkpt>
      <trkpt lat="46.35224" lon="-0.46281">
        <ele>31.4</ele>
        <time>2020-05-31T09:51:20Z</time>
      </trkpt>
      <trkpt lat="46.35225" lon="-0.46286">
        <ele>31.5</ele>
        <time>2020-05-31T09:51:21Z</time>
      </trkpt>
      <trkpt lat="46.35225" lon="-0.46291">
        <ele>31.6</ele>
        <time>2020-05-31T09:51:22Z</time>
      </trkpt>
      <trkpt lat="46.35226" lon="-0.46296">
        <ele>31.7</ele>
        <time>2020-05-31T09:51:23Z</time>
      </trkpt>
      <trkpt lat="46.35227" lon="-0.46303">
        <ele>31.9</ele>
        <time>2020-05-31T09:51:24Z</time>
      </trkpt>
      <trkpt lat="46.35228" lon="-0.46307">
        <ele>32</ele>
        <time>2020-05-31T09:51:25Z</time>
      </trkpt>
      <trkpt lat="46.35229" lon="-0.46313">
        <ele>32.1</ele>
        <time>2020-05-31T09:51:26Z</time>
      </trkpt>
      <trkpt lat="46.3523" lon="-0.46318">
        <ele>32.2</ele>
        <time>2020-05-31T09:51:27Z</time>
      </trkpt>
      <trkpt lat="46.35229" lon="-0.46324">
        <ele>32.4</ele>
        <time>2020-05-31T09:51:28Z</time>
      </trkpt>
      <trkpt lat="46.3523" lon="-0.4633">
        <ele>32.5</ele>
        <time>2020-05-31T09:51:29Z</time>
      </trkpt>
      <trkpt lat="46.35231" lon="-0.46335">
        <ele>32.6</ele>
        <time>2020-05-31T09:51:30Z</time>
      </trkpt>
      <trkpt lat="46.35231" lon="-0.46341">
        <ele>32.7</ele>
        <time>2020-05-31T09:51:31Z</time>
      </trkpt>
      <trkpt lat="46.35231" lon="-0.46347">
        <ele>32.9</ele>
        <time>2020-05-31T09:51:32Z</time>
      </trkpt>
      <trkpt lat="46.35231" lon="-0.46352">
        <ele>33</ele>
        <time>2020-05-31T09:51:33Z</time>
      </trkpt>
      <trkpt lat="46.3523" lon="-0.46358">
        <ele>33.1</ele>
        <time>2020-05-31T09:51:34Z</time>
      </trkpt>
      <trkpt lat="46.35229" lon="-0.46364">
        <ele>33.3</ele>
        <time>2020-05-31T09:51:35Z</time>
      </trkpt>
      <trkpt lat="46.35228" lon="-0.46369">
        <ele>33.4</ele>
        <time>2020-05-31T09:51:36Z</time>
      </trkpt>
      <trkpt lat="46.35227" lon="-0.46374">
        <ele>33.5</ele>
        <time>2020-05-31T09:51:37Z</time>
      </trkpt>
      <trkpt lat="46.35226" lon="-0.46378">
        <ele>33.6</ele>
        <time>2020-05-31T09:51:38Z</time>
      </trkpt>
      <trkpt lat="46.35225" lon="-0.46384">
        <ele>33.7</ele>
        <time>2020-05-31T09:51:39Z</time>
      </trkpt>
      <trkpt lat="46.35225" lon="-0.46386">
        <ele>33.7</ele>
        <time>2020-05-31T09:51:40Z</time>
      </trkpt>
      <trkpt lat="46.35223" lon="-0.4639">
        <ele>33.8</ele>
        <time>2020-05-31T09:51:41Z</time>
      </trkpt>
      <trkpt lat="46.35221" lon="-0.46395">
        <ele>34</ele>
        <time>2020-05-31T09:51:42Z</time>
      </trkpt>
      <trkpt lat="46.3522" lon="-0.46401">
        <ele>34.1</ele>
        <time>2020-05-31T09:51:43Z</time>
      </trkpt>
      <trkpt lat="46.35218" lon="-0.46406">
        <ele>34.2</ele>
        <time>2020-05-31T09:51:44Z</time>
      </trkpt>
      <trkpt lat="46.35216" lon="-0.4641">
        <ele>34.3</ele>
        <time>2020-05-31T09:51:45Z</time>
      </trkpt>
      <trkpt lat="46.35216" lon="-0.46416">
        <ele>34.4</ele>
        <time>2020-05-31T09:51:46Z</time>
      </trkpt>
      <trkpt lat="46.35215" lon="-0.46422">
        <ele>34.6</ele>
        <time>2020-05-31T09:51:47Z</time>
      </trkpt>
      <trkpt lat="46.35213" lon="-0.46427">
        <ele>34.7</ele>
        <time>2020-05-31T09:51:48Z</time>
      </trkpt>
      <trkpt lat="46.35212" lon="-0.46431">
        <ele>34.8</ele>
        <time>2020-05-31T09:51:49Z</time>
      </trkpt>
      <trkpt lat="46.35211" lon="-0.46436">
        <ele>34.9</ele>
        <time>2020-05-31T09:51:50Z</time>
      </trkpt>
      <trkpt lat="46.35211" lon="-0.4644">
        <ele>34.9</ele>
        <time>2020-05-31T09:51:51Z</time>
      </trkpt>
      <trkpt lat="46.3521" lon="-0.46445">
        <ele>35</ele>
        <time>2020-05-31T09:51:52Z</time>
      </trkpt>
      <trkpt lat="46.35209" lon="-0.4645">
        <ele>35.1</ele>
        <time>2020-05-31T09:51:53Z</time>
      </trkpt>
      <trkpt lat="46.35209" lon="-0.46456">
        <ele>35.3</ele>
        <time>2020-05-31T09:51:54Z</time>
      </trkpt>
      <trkpt lat="46.35208" lon="-0.46462">
        <ele>35.3</ele>
        <time>2020-05-31T09:51:55Z</time>
      </trkpt>
      <trkpt lat="46.35208" lon="-0.46466">
        <ele>35.4</ele>
        <time>2020-05-31T09:51:56Z</time>
      </trkpt>
      <trkpt lat="46.35208" lon="-0.46472">
        <ele>35.5</ele>
        <time>2020-05-31T09:51:57Z</time>
      </trkpt>
      <trkpt lat="46.35206" lon="-0.46475">
        <ele>35.5</ele>
        <time>2020-05-31T09:51:58Z</time>
      </trkpt>
      <trkpt lat="46.35205" lon="-0.4648">
        <ele>35.6</ele>
        <time>2020-05-31T09:51:59Z</time>
      </trkpt>
      <trkpt lat="46.35204" lon="-0.46484">
        <ele>35.6</ele>
        <time>2020-05-31T09:52:00Z</time>
      </trkpt>
      <trkpt lat="46.35202" lon="-0.46488">
        <ele>35.7</ele>
        <time>2020-05-31T09:52:01Z</time>
      </trkpt>
      <trkpt lat="46.35201" lon="-0.46493">
        <ele>35.7</ele>
        <time>2020-05-31T09:52:02Z</time>
      </trkpt>
      <trkpt lat="46.35198" lon="-0.46497">
        <ele>35.7</ele>
        <time>2020-05-31T09:52:03Z</time>
      </trkpt>
      <trkpt lat="46.35196" lon="-0.46502">
        <ele>35.8</ele>
        <time>2020-05-31T09:52:04Z</time>
      </trkpt>
      <trkpt lat="46.35194" lon="-0.46506">
        <ele>35.8</ele>
        <time>2020-05-31T09:52:05Z</time>
      </trkpt>
      <trkpt lat="46.35191" lon="-0.46509">
        <ele>35.9</ele>
        <time>2020-05-31T09:52:06Z</time>
      </trkpt>
      <trkpt lat="46.35189" lon="-0.46512">
        <ele>35.9</ele>
        <time>2020-05-31T09:52:07Z</time>
      </trkpt>
      <trkpt lat="46.35187" lon="-0.46514">
        <ele>36</ele>
        <time>2020-05-31T09:52:08Z</time>
      </trkpt>
      <trkpt lat="46.35186" lon="-0.46515">
        <ele>36</ele>
        <time>2020-05-31T09:52:09Z</time>
      </trkpt>
      <trkpt lat="46.35185" lon="-0.46515">
        <ele>36</ele>
        <time>2020-05-31T09:52:10Z</time>
      </trkpt>
      <trkpt lat="46.35186" lon="-0.46515">
        <ele>36</ele>
        <time>2020-05-31T09:52:11Z</time>
      </trkpt>
      <trkpt lat="46.35186" lon="-0.46515">
        <ele>36</ele>
        <time>2020-05-31T09:52:12Z</time>
      </trkpt>
      <trkpt lat="46.35187" lon="-0.46515">
        <ele>36</ele>
        <time>2020-05-31T09:52:13Z</time>
      </trkpt>
      <trkpt lat="46.35187" lon="-0.46515">
        <ele>36</ele>
        <time>2020-05-31T09:52:14Z</time>
      </trkpt>
      <trkpt lat="46.35187" lon="-0.46515">
        <ele>36</ele>
        <time>2020-05-31T09:52:15Z</time>
      </trkpt>
      <trkpt lat="46.35187" lon="-0.46515">
        <ele>36.1</ele>
        <time>2020-05-31T09:52:16Z</time>
      </trkpt>
      <trkpt lat="46.35187" lon="-0.46515">
        <ele>36.1</ele>
        <time>2020-05-31T09:52:17Z</time>
      </trkpt>
      <trkpt lat="46.35187" lon="-0.46515">
        <ele>36.1</ele>
        <time>2020-05-31T09:52:18Z</time>
      </trkpt>
      <trkpt lat="46.35188" lon="-0.46515">
        <ele>36.1</ele>
        <time>2020-05-31T09:52:19Z</time>
      </trkpt>
      <trkpt lat="46.35188" lon="-0.46515">
        <ele>36.1</ele>
        <time>2020-05-31T09:52:20Z</time>
      </trkpt>
      <trkpt lat="46.35188" lon="-0.46516">
        <ele>36.1</ele>
        <time>2020-05-31T09:52:21Z</time>
      </trkpt>
      <trkpt lat="46.35188" lon="-0.46516">
        <ele>36.1</ele>
        <time>2020-05-31T09:52:22Z</time>
      </trkpt>
      <trkpt lat="46.35188" lon="-0.46516">
        <ele>36.1</ele>
        <time>2020-05-31T09:52:23Z</time>
      </trkpt>
      <trkpt lat="46.35188" lon="-0.46516">
        <ele>36.1</ele>
        <time>2020-05-31T09:52:24Z</time>
      </trkpt>
      <trkpt lat="46.35188" lon="-0.46516">
        <ele>36.1</ele>
        <time>2020-05-31T09:52:25Z</time>
      </trkpt>
      <trkpt lat="46.35188" lon="-0.46516">
        <ele>36.1</ele>
        <time>2020-05-31T09:52:26Z</time>
      </trkpt>
      <trkpt lat="46.35188" lon="-0.46516">
        <ele>36.1</ele>
        <time>2020-05-31T09:52:27Z</time>
      </trkpt>
      <trkpt lat="46.35188" lon="-0.46516">
        <ele>36.1</ele>
        <time>2020-05-31T09:52:28Z</time>
      </trkpt>
      <trkpt lat="46.35188" lon="-0.46516">
        <ele>36.1</ele>
        <time>2020-05-31T09:52:29Z</time>
      </trkpt>
      <trkpt lat="46.35188" lon="-0.46516">
        <ele>36.1</ele>
        <time>2020-05-31T09:52:30Z</time>
      </trkpt>
      <trkpt lat="46.35188" lon="-0.46516">
        <ele>36.1</ele>
        <time>2020-05-31T09:52:31Z</time>
      </trkpt>
      <trkpt lat="46.35188" lon="-0.46516">
        <ele>36.1</ele>
        <time>2020-05-31T09:52:32Z</time>
      </trkpt>
      <trkpt lat="46.35188" lon="-0.46516">
        <ele>36.1</ele>
        <time>2020-05-31T09:52:33Z</time>
      </trkpt>
      <trkpt lat="46.35188" lon="-0.46516">
        <ele>36.1</ele>
        <time>2020-05-31T09:52:34Z</time>
      </trkpt>
      <trkpt lat="46.35188" lon="-0.46516">
        <ele>36.1</ele>
        <time>2020-05-31T09:52:35Z</time>
      </trkpt>
      <trkpt lat="46.35188" lon="-0.46516">
        <ele>36.1</ele>
        <time>2020-05-31T09:52:36Z</time>
      </trkpt>
      <trkpt lat="46.35188" lon="-0.46516">
        <ele>36.1</ele>
        <time>2020-05-31T09:52:37Z</time>
      </trkpt>
      <trkpt lat="46.35188" lon="-0.46516">
        <ele>36.1</ele>
        <time>2020-05-31T09:52:38Z</time>
      </trkpt>
      <trkpt lat="46.35188" lon="-0.46516">
        <ele>36.1</ele>
        <time>2020-05-31T09:52:39Z</time>
      </trkpt>
      <trkpt lat="46.35188" lon="-0.46516">
        <ele>36.1</ele>
        <time>2020-05-31T09:52:40Z</time>
      </trkpt>
      <trkpt lat="46.35188" lon="-0.46516">
        <ele>36.1</ele>
        <time>2020-05-31T09:52:41Z</time>
      </trkpt>
      <trkpt lat="46.35188" lon="-0.46516">
        <ele>36.1</ele>
        <time>2020-05-31T09:52:42Z</time>
      </trkpt>
      <trkpt lat="46.35188" lon="-0.46516">
        <ele>36.1</ele>
        <time>2020-05-31T09:52:43Z</time>
      </trkpt>
      <trkpt lat="46.35188" lon="-0.46516">
        <ele>36.1</ele>
        <time>2020-05-31T09:52:44Z</time>
      </trkpt>
      <trkpt lat="46.35188" lon="-0.46517">
        <ele>36.1</ele>
        <time>2020-05-31T09:52:45Z</time>
      </trkpt>
      <trkpt lat="46.35188" lon="-0.46517">
        <ele>36.1</ele>
        <time>2020-05-31T09:52:46Z</time>
      </trkpt>
      <trkpt lat="46.35188" lon="-0.46517">
        <ele>36.1</ele>
        <time>2020-05-31T09:52:47Z</time>
      </trkpt>
      <trkpt lat="46.35188" lon="-0.46517">
        <ele>36.1</ele>
        <time>2020-05-31T09:52:48Z</time>
      </trkpt>
      <trkpt lat="46.35188" lon="-0.46517">
        <ele>36.1</ele>
        <time>2020-05-31T09:52:49Z</time>
      </trkpt>
      <trkpt lat="46.35188" lon="-0.46516">
        <ele>36.1</ele>
        <time>2020-05-31T09:52:50Z</time>
      </trkpt>
      <trkpt lat="46.35188" lon="-0.46517">
        <ele>36.1</ele>
        <time>2020-05-31T09:52:51Z</time>
      </trkpt>
      <trkpt lat="46.35188" lon="-0.46517">
        <ele>36.1</ele>
        <time>2020-05-31T09:52:52Z</time>
      </trkpt>
      <trkpt lat="46.35188" lon="-0.46516">
        <ele>36.1</ele>
        <time>2020-05-31T09:52:53Z</time>
      </trkpt>
      <trkpt lat="46.35188" lon="-0.46516">
        <ele>36.1</ele>
        <time>2020-05-31T09:52:54Z</time>
      </trkpt>
      <trkpt lat="46.35188" lon="-0.46516">
        <ele>36.1</ele>
        <time>2020-05-31T09:52:55Z</time>
      </trkpt>
      <trkpt lat="46.35188" lon="-0.46515">
        <ele>36.2</ele>
        <time>2020-05-31T09:52:56Z</time>
      </trkpt>
      <trkpt lat="46.35188" lon="-0.46513">
        <ele>36.2</ele>
        <time>2020-05-31T09:52:57Z</time>
      </trkpt>
      <trkpt lat="46.35188" lon="-0.46514">
        <ele>36.2</ele>
        <time>2020-05-31T09:52:58Z</time>
      </trkpt>
      <trkpt lat="46.35187" lon="-0.46514">
        <ele>36.2</ele>
        <time>2020-05-31T09:52:59Z</time>
      </trkpt>
      <trkpt lat="46.35188" lon="-0.46514">
        <ele>36.2</ele>
        <time>2020-05-31T09:53:00Z</time>
      </trkpt>
      <trkpt lat="46.35188" lon="-0.46513">
        <ele>36.2</ele>
        <time>2020-05-31T09:53:01Z</time>
      </trkpt>
      <trkpt lat="46.35187" lon="-0.46514">
        <ele>36.2</ele>
        <time>2020-05-31T09:53:02Z</time>
      </trkpt>
      <trkpt lat="46.35187" lon="-0.46515">
        <ele>36.2</ele>
        <time>2020-05-31T09:53:03Z</time>
      </trkpt>
      <trkpt lat="46.35186" lon="-0.46516">
        <ele>36.2</ele>
        <time>2020-05-31T09:53:04Z</time>
      </trkpt>
      <trkpt lat="46.35184" lon="-0.46518">
        <ele>36.3</ele>
        <time>2020-05-31T09:53:05Z</time>
      </trkpt>
      <trkpt lat="46.3518" lon="-0.46519">
        <ele>36.3</ele>
        <time>2020-05-31T09:53:06Z</time>
      </trkpt>
      <trkpt lat="46.35179" lon="-0.46519">
        <ele>36.3</ele>
        <time>2020-05-31T09:53:07Z</time>
      </trkpt>
      <trkpt lat="46.35176" lon="-0.4652">
        <ele>36.4</ele>
        <time>2020-05-31T09:53:08Z</time>
      </trkpt>
      <trkpt lat="46.35175" lon="-0.4652">
        <ele>36.4</ele>
        <time>2020-05-31T09:53:09Z</time>
      </trkpt>
      <trkpt lat="46.35171" lon="-0.46521">
        <ele>36.4</ele>
        <time>2020-05-31T09:53:10Z</time>
      </trkpt>
      <trkpt lat="46.35171" lon="-0.46522">
        <ele>36.5</ele>
        <time>2020-05-31T09:53:11Z</time>
      </trkpt>
      <trkpt lat="46.35168" lon="-0.46525">
        <ele>36.5</ele>
        <time>2020-05-31T09:53:12Z</time>
      </trkpt>
      <trkpt lat="46.35166" lon="-0.46525">
        <ele>36.5</ele>
        <time>2020-05-31T09:53:13Z</time>
      </trkpt>
      <trkpt lat="46.35164" lon="-0.46526">
        <ele>36.5</ele>
        <time>2020-05-31T09:53:14Z</time>
      </trkpt>
      <trkpt lat="46.35163" lon="-0.46527">
        <ele>36.5</ele>
        <time>2020-05-31T09:53:15Z</time>
      </trkpt>
      <trkpt lat="46.3516" lon="-0.4653">
        <ele>36.6</ele>
        <time>2020-05-31T09:53:16Z</time>
      </trkpt>
      <trkpt lat="46.35159" lon="-0.46531">
        <ele>36.7</ele>
        <time>2020-05-31T09:53:17Z</time>
      </trkpt>
      <trkpt lat="46.35155" lon="-0.46534">
        <ele>36.7</ele>
        <time>2020-05-31T09:53:18Z</time>
      </trkpt>
      <trkpt lat="46.35154" lon="-0.46535">
        <ele>36.8</ele>
        <time>2020-05-31T09:53:19Z</time>
      </trkpt>
      <trkpt lat="46.35152" lon="-0.46537">
        <ele>36.8</ele>
        <time>2020-05-31T09:53:20Z</time>
      </trkpt>
      <trkpt lat="46.35149" lon="-0.46539">
        <ele>36.9</ele>
        <time>2020-05-31T09:53:21Z</time>
      </trkpt>
      <trkpt lat="46.35146" lon="-0.4654">
        <ele>37</ele>
        <time>2020-05-31T09:53:22Z</time>
      </trkpt>
      <trkpt lat="46.35143" lon="-0.46543">
        <ele>37.1</ele>
        <time>2020-05-31T09:53:23Z</time>
      </trkpt>
      <trkpt lat="46.35142" lon="-0.46544">
        <ele>37.1</ele>
        <time>2020-05-31T09:53:24Z</time>
      </trkpt>
      <trkpt lat="46.35139" lon="-0.46547">
        <ele>37.2</ele>
        <time>2020-05-31T09:53:25Z</time>
      </trkpt>
      <trkpt lat="46.35136" lon="-0.46551">
        <ele>37.3</ele>
        <time>2020-05-31T09:53:26Z</time>
      </trkpt>
      <trkpt lat="46.35134" lon="-0.46554">
        <ele>37.4</ele>
        <time>2020-05-31T09:53:27Z</time>
      </trkpt>
      <trkpt lat="46.35131" lon="-0.46557">
        <ele>37.5</ele>
        <time>2020-05-31T09:53:28Z</time>
      </trkpt>
      <trkpt lat="46.35129" lon="-0.4656">
        <ele>37.6</ele>
        <time>2020-05-31T09:53:29Z</time>
      </trkpt>
      <trkpt lat="46.35127" lon="-0.46563">
        <ele>37.8</ele>
        <time>2020-05-31T09:53:30Z</time>
      </trkpt>
      <trkpt lat="46.35124" lon="-0.46567">
        <ele>37.9</ele>
        <time>2020-05-31T09:53:31Z</time>
      </trkpt>
      <trkpt lat="46.35123" lon="-0.46569">
        <ele>38</ele>
        <time>2020-05-31T09:53:32Z</time>
      </trkpt>
      <trkpt lat="46.3512" lon="-0.46571">
        <ele>38.1</ele>
        <time>2020-05-31T09:53:33Z</time>
      </trkpt>
      <trkpt lat="46.35116" lon="-0.46575">
        <ele>38.3</ele>
        <time>2020-05-31T09:53:34Z</time>
      </trkpt>
      <trkpt lat="46.35114" lon="-0.46579">
        <ele>38.4</ele>
        <time>2020-05-31T09:53:35Z</time>
      </trkpt>
      <trkpt lat="46.35111" lon="-0.46582">
        <ele>38.6</ele>
        <time>2020-05-31T09:53:36Z</time>
      </trkpt>
      <trkpt lat="46.35108" lon="-0.46584">
        <ele>38.7</ele>
        <time>2020-05-31T09:53:37Z</time>
      </trkpt>
      <trkpt lat="46.35105" lon="-0.46586">
        <ele>38.9</ele>
        <time>2020-05-31T09:53:38Z</time>
      </trkpt>
      <trkpt lat="46.35101" lon="-0.4659">
        <ele>39.1</ele>
        <time>2020-05-31T09:53:39Z</time>
      </trkpt>
      <trkpt lat="46.35099" lon="-0.46592">
        <ele>39.2</ele>
        <time>2020-05-31T09:53:40Z</time>
      </trkpt>
      <trkpt lat="46.35095" lon="-0.46596">
        <ele>39.4</ele>
        <time>2020-05-31T09:53:41Z</time>
      </trkpt>
      <trkpt lat="46.35091" lon="-0.46601">
        <ele>39.6</ele>
        <time>2020-05-31T09:53:42Z</time>
      </trkpt>
      <trkpt lat="46.35087" lon="-0.46604">
        <ele>39.8</ele>
        <time>2020-05-31T09:53:43Z</time>
      </trkpt>
      <trkpt lat="46.35083" lon="-0.46608">
        <ele>40</ele>
        <time>2020-05-31T09:53:44Z</time>
      </trkpt>
      <trkpt lat="46.3508" lon="-0.46611">
        <ele>40.1</ele>
        <time>2020-05-31T09:53:45Z</time>
      </trkpt>
      <trkpt lat="46.35076" lon="-0.46615">
        <ele>40.3</ele>
        <time>2020-05-31T09:53:46Z</time>
      </trkpt>
      <trkpt lat="46.35073" lon="-0.46618">
        <ele>40.4</ele>
        <time>2020-05-31T09:53:47Z</time>
      </trkpt>
      <trkpt lat="46.35071" lon="-0.46622">
        <ele>40.4</ele>
        <time>2020-05-31T09:53:48Z</time>
      </trkpt>
      <trkpt lat="46.35067" lon="-0.46626">
        <ele>40.5</ele>
        <time>2020-05-31T09:53:49Z</time>
      </trkpt>
      <trkpt lat="46.35065" lon="-0.4663">
        <ele>40.6</ele>
        <time>2020-05-31T09:53:50Z</time>
      </trkpt>
      <trkpt lat="46.35062" lon="-0.46633">
        <ele>40.7</ele>
        <time>2020-05-31T09:53:51Z</time>
      </trkpt>
      <trkpt lat="46.3506" lon="-0.46636">
        <ele>40.7</ele>
        <time>2020-05-31T09:53:52Z</time>
      </trkpt>
      <trkpt lat="46.35058" lon="-0.46639">
        <ele>40.8</ele>
        <time>2020-05-31T09:53:53Z</time>
      </trkpt>
      <trkpt lat="46.35057" lon="-0.46643">
        <ele>40.8</ele>
        <time>2020-05-31T09:53:54Z</time>
      </trkpt>
      <trkpt lat="46.35055" lon="-0.46647">
        <ele>40.9</ele>
        <time>2020-05-31T09:53:55Z</time>
      </trkpt>
      <trkpt lat="46.35054" lon="-0.46649">
        <ele>40.9</ele>
        <time>2020-05-31T09:53:56Z</time>
      </trkpt>
      <trkpt lat="46.35053" lon="-0.46654">
        <ele>41.3</ele>
        <time>2020-05-31T09:53:57Z</time>
      </trkpt>
      <trkpt lat="46.35052" lon="-0.46658">
        <ele>41.5</ele>
        <time>2020-05-31T09:53:58Z</time>
      </trkpt>
      <trkpt lat="46.35052" lon="-0.46663">
        <ele>41.7</ele>
        <time>2020-05-31T09:53:59Z</time>
      </trkpt>
      <trkpt lat="46.35053" lon="-0.46667">
        <ele>41.8</ele>
        <time>2020-05-31T09:54:00Z</time>
      </trkpt>
      <trkpt lat="46.35054" lon="-0.46671">
        <ele>41.9</ele>
        <time>2020-05-31T09:54:01Z</time>
      </trkpt>
      <trkpt lat="46.35055" lon="-0.46676">
        <ele>42.1</ele>
        <time>2020-05-31T09:54:02Z</time>
      </trkpt>
      <trkpt lat="46.35055" lon="-0.46681">
        <ele>42.2</ele>
        <time>2020-05-31T09:54:03Z</time>
      </trkpt>
      <trkpt lat="46.35056" lon="-0.46685">
        <ele>42.4</ele>
        <time>2020-05-31T09:54:04Z</time>
      </trkpt>
      <trkpt lat="46.35057" lon="-0.46689">
        <ele>42.5</ele>
        <time>2020-05-31T09:54:05Z</time>
      </trkpt>
      <trkpt lat="46.35057" lon="-0.46694">
        <ele>42.7</ele>
        <time>2020-05-31T09:54:06Z</time>
      </trkpt>
      <trkpt lat="46.35057" lon="-0.46698">
        <ele>42.8</ele>
        <time>2020-05-31T09:54:07Z</time>
      </trkpt>
      <trkpt lat="46.35055" lon="-0.46703">
        <ele>43</ele>
        <time>2020-05-31T09:54:08Z</time>
      </trkpt>
      <trkpt lat="46.35055" lon="-0.46705">
        <ele>43.1</ele>
        <time>2020-05-31T09:54:09Z</time>
      </trkpt>
      <trkpt lat="46.35056" lon="-0.46707">
        <ele>43.1</ele>
        <time>2020-05-31T09:54:10Z</time>
      </trkpt>
      <trkpt lat="46.35057" lon="-0.4671">
        <ele>43.2</ele>
        <time>2020-05-31T09:54:11Z</time>
      </trkpt>
      <trkpt lat="46.35056" lon="-0.46715">
        <ele>43.4</ele>
        <time>2020-05-31T09:54:12Z</time>
      </trkpt>
      <trkpt lat="46.35057" lon="-0.46717">
        <ele>43.5</ele>
        <time>2020-05-31T09:54:13Z</time>
      </trkpt>
      <trkpt lat="46.35057" lon="-0.46722">
        <ele>43.7</ele>
        <time>2020-05-31T09:54:14Z</time>
      </trkpt>
      <trkpt lat="46.35058" lon="-0.46726">
        <ele>43.9</ele>
        <time>2020-05-31T09:54:15Z</time>
      </trkpt>
      <trkpt lat="46.3506" lon="-0.4673">
        <ele>44</ele>
        <time>2020-05-31T09:54:16Z</time>
      </trkpt>
      <trkpt lat="46.35061" lon="-0.46734">
        <ele>44.2</ele>
        <time>2020-05-31T09:54:17Z</time>
      </trkpt>
      <trkpt lat="46.35062" lon="-0.46739">
        <ele>44.4</ele>
        <time>2020-05-31T09:54:18Z</time>
      </trkpt>
      <trkpt lat="46.35062" lon="-0.46743">
        <ele>44.5</ele>
        <time>2020-05-31T09:54:19Z</time>
      </trkpt>
      <trkpt lat="46.35062" lon="-0.46748">
        <ele>44.7</ele>
        <time>2020-05-31T09:54:20Z</time>
      </trkpt>
      <trkpt lat="46.35061" lon="-0.46753">
        <ele>44.9</ele>
        <time>2020-05-31T09:54:21Z</time>
      </trkpt>
      <trkpt lat="46.35061" lon="-0.46755">
        <ele>45</ele>
        <time>2020-05-31T09:54:22Z</time>
      </trkpt>
      <trkpt lat="46.35061" lon="-0.46759">
        <ele>45.1</ele>
        <time>2020-05-31T09:54:23Z</time>
      </trkpt>
      <trkpt lat="46.35061" lon="-0.46765">
        <ele>45.3</ele>
        <time>2020-05-31T09:54:24Z</time>
      </trkpt>
      <trkpt lat="46.35061" lon="-0.46767">
        <ele>45.4</ele>
        <time>2020-05-31T09:54:25Z</time>
      </trkpt>
      <trkpt lat="46.3506" lon="-0.46771">
        <ele>45.5</ele>
        <time>2020-05-31T09:54:26Z</time>
      </trkpt>
      <trkpt lat="46.35058" lon="-0.46776">
        <ele>45.7</ele>
        <time>2020-05-31T09:54:27Z</time>
      </trkpt>
      <trkpt lat="46.35057" lon="-0.46781">
        <ele>45.8</ele>
        <time>2020-05-31T09:54:28Z</time>
      </trkpt>
      <trkpt lat="46.35057" lon="-0.46787">
        <ele>46</ele>
        <time>2020-05-31T09:54:29Z</time>
      </trkpt>
      <trkpt lat="46.35057" lon="-0.46793">
        <ele>46.1</ele>
        <time>2020-05-31T09:54:30Z</time>
      </trkpt>
      <trkpt lat="46.35055" lon="-0.46798">
        <ele>46.3</ele>
        <time>2020-05-31T09:54:31Z</time>
      </trkpt>
      <trkpt lat="46.35054" lon="-0.46804">
        <ele>46.4</ele>
        <time>2020-05-31T09:54:32Z</time>
      </trkpt>
      <trkpt lat="46.35052" lon="-0.46809">
        <ele>46.6</ele>
        <time>2020-05-31T09:54:33Z</time>
      </trkpt>
      <trkpt lat="46.3505" lon="-0.46814">
        <ele>46.7</ele>
        <time>2020-05-31T09:54:34Z</time>
      </trkpt>
      <trkpt lat="46.35047" lon="-0.46819">
        <ele>46.8</ele>
        <time>2020-05-31T09:54:35Z</time>
      </trkpt>
      <trkpt lat="46.35045" lon="-0.46823">
        <ele>46.9</ele>
        <time>2020-05-31T09:54:36Z</time>
      </trkpt>
      <trkpt lat="46.35043" lon="-0.46827">
        <ele>47</ele>
        <time>2020-05-31T09:54:37Z</time>
      </trkpt>
      <trkpt lat="46.3504" lon="-0.46831">
        <ele>47.1</ele>
        <time>2020-05-31T09:54:38Z</time>
      </trkpt>
      <trkpt lat="46.35037" lon="-0.46835">
        <ele>47.2</ele>
        <time>2020-05-31T09:54:39Z</time>
      </trkpt>
      <trkpt lat="46.35035" lon="-0.4684">
        <ele>47.2</ele>
        <time>2020-05-31T09:54:40Z</time>
      </trkpt>
      <trkpt lat="46.35032" lon="-0.46845">
        <ele>47.3</ele>
        <time>2020-05-31T09:54:41Z</time>
      </trkpt>
      <trkpt lat="46.35029" lon="-0.46849">
        <ele>47.3</ele>
        <time>2020-05-31T09:54:42Z</time>
      </trkpt>
      <trkpt lat="46.35026" lon="-0.46854">
        <ele>47.3</ele>
        <time>2020-05-31T09:54:43Z</time>
      </trkpt>
      <trkpt lat="46.35024" lon="-0.46861">
        <ele>47.4</ele>
        <time>2020-05-31T09:54:44Z</time>
      </trkpt>
      <trkpt lat="46.35023" lon="-0.46867">
        <ele>47.4</ele>
        <time>2020-05-31T09:54:45Z</time>
      </trkpt>
      <trkpt lat="46.35021" lon="-0.46871">
        <ele>47.5</ele>
        <time>2020-05-31T09:54:46Z</time>
      </trkpt>
      <trkpt lat="46.35018" lon="-0.46876">
        <ele>47.5</ele>
        <time>2020-05-31T09:54:47Z</time>
      </trkpt>
      <trkpt lat="46.35016" lon="-0.46881">
        <ele>47.5</ele>
        <time>2020-05-31T09:54:48Z</time>
      </trkpt>
      <trkpt lat="46.35013" lon="-0.46887">
        <ele>47.6</ele>
        <time>2020-05-31T09:54:49Z</time>
      </trkpt>
      <trkpt lat="46.35011" lon="-0.46892">
        <ele>47.7</ele>
        <time>2020-05-31T09:54:50Z</time>
      </trkpt>
      <trkpt lat="46.35008" lon="-0.46896">
        <ele>47.9</ele>
        <time>2020-05-31T09:54:51Z</time>
      </trkpt>
      <trkpt lat="46.35005" lon="-0.46901">
        <ele>48</ele>
        <time>2020-05-31T09:54:52Z</time>
      </trkpt>
      <trkpt lat="46.35003" lon="-0.46906">
        <ele>48.1</ele>
        <time>2020-05-31T09:54:53Z</time>
      </trkpt>
      <trkpt lat="46.35001" lon="-0.46911">
        <ele>48.3</ele>
        <time>2020-05-31T09:54:54Z</time>
      </trkpt>
      <trkpt lat="46.35" lon="-0.46915">
        <ele>48.3</ele>
        <time>2020-05-31T09:54:55Z</time>
      </trkpt>
      <trkpt lat="46.34999" lon="-0.4692">
        <ele>48.4</ele>
        <time>2020-05-31T09:54:56Z</time>
      </trkpt>
      <trkpt lat="46.34998" lon="-0.46926">
        <ele>48.5</ele>
        <time>2020-05-31T09:54:57Z</time>
      </trkpt>
      <trkpt lat="46.34998" lon="-0.46931">
        <ele>48.6</ele>
        <time>2020-05-31T09:54:58Z</time>
      </trkpt>
      <trkpt lat="46.34998" lon="-0.46937">
        <ele>48.8</ele>
        <time>2020-05-31T09:54:59Z</time>
      </trkpt>
      <trkpt lat="46.34998" lon="-0.46942">
        <ele>48.9</ele>
        <time>2020-05-31T09:55:00Z</time>
      </trkpt>
      <trkpt lat="46.34998" lon="-0.46947">
        <ele>49.1</ele>
        <time>2020-05-31T09:55:01Z</time>
      </trkpt>
      <trkpt lat="46.34998" lon="-0.46951">
        <ele>49.2</ele>
        <time>2020-05-31T09:55:02Z</time>
      </trkpt>
      <trkpt lat="46.34997" lon="-0.46956">
        <ele>49.4</ele>
        <time>2020-05-31T09:55:03Z</time>
      </trkpt>
      <trkpt lat="46.34997" lon="-0.46958">
        <ele>49.4</ele>
        <time>2020-05-31T09:55:04Z</time>
      </trkpt>
      <trkpt lat="46.34996" lon="-0.46962">
        <ele>49.7</ele>
        <time>2020-05-31T09:55:05Z</time>
      </trkpt>
      <trkpt lat="46.34995" lon="-0.46963">
        <ele>49.7</ele>
        <time>2020-05-31T09:55:06Z</time>
      </trkpt>
      <trkpt lat="46.34992" lon="-0.46965">
        <ele>49.8</ele>
        <time>2020-05-31T09:55:07Z</time>
      </trkpt>
      <trkpt lat="46.34992" lon="-0.46967">
        <ele>49.8</ele>
        <time>2020-05-31T09:55:08Z</time>
      </trkpt>
      <trkpt lat="46.34991" lon="-0.46968">
        <ele>49.8</ele>
        <time>2020-05-31T09:55:09Z</time>
      </trkpt>
      <trkpt lat="46.3499" lon="-0.46969">
        <ele>49.9</ele>
        <time>2020-05-31T09:55:10Z</time>
      </trkpt>
      <trkpt lat="46.34988" lon="-0.4697">
        <ele>49.9</ele>
        <time>2020-05-31T09:55:11Z</time>
      </trkpt>
      <trkpt lat="46.34987" lon="-0.4697">
        <ele>49.9</ele>
        <time>2020-05-31T09:55:12Z</time>
      </trkpt>
      <trkpt lat="46.34986" lon="-0.4697">
        <ele>49.9</ele>
        <time>2020-05-31T09:55:13Z</time>
      </trkpt>
      <trkpt lat="46.34985" lon="-0.46971">
        <ele>50</ele>
        <time>2020-05-31T09:55:14Z</time>
      </trkpt>
      <trkpt lat="46.34983" lon="-0.46972">
        <ele>50</ele>
        <time>2020-05-31T09:55:15Z</time>
      </trkpt>
      <trkpt lat="46.34981" lon="-0.46973">
        <ele>50.1</ele>
        <time>2020-05-31T09:55:16Z</time>
      </trkpt>
      <trkpt lat="46.3498" lon="-0.46974">
        <ele>50.1</ele>
        <time>2020-05-31T09:55:17Z</time>
      </trkpt>
      <trkpt lat="46.34979" lon="-0.46974">
        <ele>50.1</ele>
        <time>2020-05-31T09:55:18Z</time>
      </trkpt>
      <trkpt lat="46.34977" lon="-0.46975">
        <ele>50.1</ele>
        <time>2020-05-31T09:55:19Z</time>
      </trkpt>
      <trkpt lat="46.34977" lon="-0.46976">
        <ele>50.1</ele>
        <time>2020-05-31T09:55:20Z</time>
      </trkpt>
      <trkpt lat="46.34975" lon="-0.46977">
        <ele>50.2</ele>
        <time>2020-05-31T09:55:21Z</time>
      </trkpt>
      <trkpt lat="46.34974" lon="-0.46977">
        <ele>50.2</ele>
        <time>2020-05-31T09:55:22Z</time>
      </trkpt>
      <trkpt lat="46.34973" lon="-0.46978">
        <ele>50.2</ele>
        <time>2020-05-31T09:55:23Z</time>
      </trkpt>
      <trkpt lat="46.34971" lon="-0.46978">
        <ele>50.3</ele>
        <time>2020-05-31T09:55:24Z</time>
      </trkpt>
      <trkpt lat="46.34971" lon="-0.46978">
        <ele>50.3</ele>
        <time>2020-05-31T09:55:25Z</time>
      </trkpt>
      <trkpt lat="46.3497" lon="-0.46979">
        <ele>50.3</ele>
        <time>2020-05-31T09:55:26Z</time>
      </trkpt>
      <trkpt lat="46.34967" lon="-0.4698">
        <ele>50.4</ele>
        <time>2020-05-31T09:55:27Z</time>
      </trkpt>
      <trkpt lat="46.34966" lon="-0.4698">
        <ele>50.4</ele>
        <time>2020-05-31T09:55:28Z</time>
      </trkpt>
      <trkpt lat="46.34964" lon="-0.46981">
        <ele>50.4</ele>
        <time>2020-05-31T09:55:29Z</time>
      </trkpt>
      <trkpt lat="46.34963" lon="-0.46982">
        <ele>50.4</ele>
        <time>2020-05-31T09:55:30Z</time>
      </trkpt>
      <trkpt lat="46.34962" lon="-0.46982">
        <ele>50.5</ele>
        <time>2020-05-31T09:55:31Z</time>
      </trkpt>
      <trkpt lat="46.34961" lon="-0.46982">
        <ele>50.5</ele>
        <time>2020-05-31T09:55:32Z</time>
      </trkpt>
      <trkpt lat="46.34961" lon="-0.46982">
        <ele>50.5</ele>
        <time>2020-05-31T09:55:33Z</time>
      </trkpt>
      <trkpt lat="46.3496" lon="-0.46982">
        <ele>50.5</ele>
        <time>2020-05-31T09:55:34Z</time>
      </trkpt>
      <trkpt lat="46.3496" lon="-0.46982">
        <ele>50.5</ele>
        <time>2020-05-31T09:55:35Z</time>
      </trkpt>
      <trkpt lat="46.3496" lon="-0.46982">
        <ele>50.5</ele>
        <time>2020-05-31T09:55:36Z</time>
      </trkpt>
      <trkpt lat="46.3496" lon="-0.46982">
        <ele>50.5</ele>
        <time>2020-05-31T09:55:37Z</time>
      </trkpt>
      <trkpt lat="46.3496" lon="-0.46982">
        <ele>50.5</ele>
        <time>2020-05-31T09:55:38Z</time>
      </trkpt>
      <trkpt lat="46.3496" lon="-0.46982">
        <ele>50.5</ele>
        <time>2020-05-31T09:55:39Z</time>
      </trkpt>
      <trkpt lat="46.3496" lon="-0.46982">
        <ele>50.5</ele>
        <time>2020-05-31T09:55:40Z</time>
      </trkpt>
      <trkpt lat="46.3496" lon="-0.46982">
        <ele>50.5</ele>
        <time>2020-05-31T09:55:41Z</time>
      </trkpt>
      <trkpt lat="46.3496" lon="-0.46982">
        <ele>50.5</ele>
        <time>2020-05-31T09:55:42Z</time>
      </trkpt>
      <trkpt lat="46.3496" lon="-0.46982">
        <ele>50.5</ele>
        <time>2020-05-31T09:55:43Z</time>
      </trkpt>
      <trkpt lat="46.3496" lon="-0.46982">
        <ele>50.5</ele>
        <time>2020-05-31T09:55:44Z</time>
      </trkpt>
      <trkpt lat="46.3496" lon="-0.46983">
        <ele>50.5</ele>
        <time>2020-05-31T09:55:45Z</time>
      </trkpt>
      <trkpt lat="46.3496" lon="-0.46983">
        <ele>50.5</ele>
        <time>2020-05-31T09:55:46Z</time>
      </trkpt>
      <trkpt lat="46.3496" lon="-0.46984">
        <ele>50.5</ele>
        <time>2020-05-31T09:55:47Z</time>
      </trkpt>
      <trkpt lat="46.34959" lon="-0.46985">
        <ele>50.6</ele>
        <time>2020-05-31T09:55:48Z</time>
      </trkpt>
      <trkpt lat="46.34959" lon="-0.46986">
        <ele>50.6</ele>
        <time>2020-05-31T09:55:49Z</time>
      </trkpt>
      <trkpt lat="46.34959" lon="-0.46986">
        <ele>50.6</ele>
        <time>2020-05-31T09:55:50Z</time>
      </trkpt>
      <trkpt lat="46.34959" lon="-0.46986">
        <ele>50.6</ele>
        <time>2020-05-31T09:55:51Z</time>
      </trkpt>
      <trkpt lat="46.34959" lon="-0.46985">
        <ele>50.6</ele>
        <time>2020-05-31T09:55:52Z</time>
      </trkpt>
      <trkpt lat="46.34958" lon="-0.46986">
        <ele>50.6</ele>
        <time>2020-05-31T09:55:53Z</time>
      </trkpt>
      <trkpt lat="46.34957" lon="-0.46986">
        <ele>50.6</ele>
        <time>2020-05-31T09:55:54Z</time>
      </trkpt>
      <trkpt lat="46.34956" lon="-0.46986">
        <ele>50.6</ele>
        <time>2020-05-31T09:55:55Z</time>
      </trkpt>
      <trkpt lat="46.34954" lon="-0.46987">
        <ele>50.6</ele>
        <time>2020-05-31T09:55:56Z</time>
      </trkpt>
      <trkpt lat="46.34953" lon="-0.46988">
        <ele>50.7</ele>
        <time>2020-05-31T09:55:57Z</time>
      </trkpt>
      <trkpt lat="46.3495" lon="-0.4699">
        <ele>50.7</ele>
        <time>2020-05-31T09:55:58Z</time>
      </trkpt>
      <trkpt lat="46.34947" lon="-0.46993">
        <ele>50.7</ele>
        <time>2020-05-31T09:55:59Z</time>
      </trkpt>
      <trkpt lat="46.34944" lon="-0.46995">
        <ele>50.8</ele>
        <time>2020-05-31T09:56:00Z</time>
      </trkpt>
      <trkpt lat="46.34941" lon="-0.46997">
        <ele>50.8</ele>
        <time>2020-05-31T09:56:01Z</time>
      </trkpt>
      <trkpt lat="46.3494" lon="-0.46998">
        <ele>50.8</ele>
        <time>2020-05-31T09:56:02Z</time>
      </trkpt>
      <trkpt lat="46.34937" lon="-0.47001">
        <ele>50.9</ele>
        <time>2020-05-31T09:56:03Z</time>
      </trkpt>
      <trkpt lat="46.34936" lon="-0.47002">
        <ele>50.9</ele>
        <time>2020-05-31T09:56:04Z</time>
      </trkpt>
      <trkpt lat="46.34933" lon="-0.47004">
        <ele>50.9</ele>
        <time>2020-05-31T09:56:05Z</time>
      </trkpt>
      <trkpt lat="46.34929" lon="-0.47005">
        <ele>51</ele>
        <time>2020-05-31T09:56:06Z</time>
      </trkpt>
      <trkpt lat="46.34926" lon="-0.47005">
        <ele>51</ele>
        <time>2020-05-31T09:56:07Z</time>
      </trkpt>
      <trkpt lat="46.34922" lon="-0.47006">
        <ele>51</ele>
        <time>2020-05-31T09:56:08Z</time>
      </trkpt>
      <trkpt lat="46.34919" lon="-0.47007">
        <ele>51.1</ele>
        <time>2020-05-31T09:56:09Z</time>
      </trkpt>
      <trkpt lat="46.34916" lon="-0.47009">
        <ele>51.1</ele>
        <time>2020-05-31T09:56:10Z</time>
      </trkpt>
      <trkpt lat="46.34913" lon="-0.4701">
        <ele>51.2</ele>
        <time>2020-05-31T09:56:11Z</time>
      </trkpt>
      <trkpt lat="46.34912" lon="-0.47011">
        <ele>51.2</ele>
        <time>2020-05-31T09:56:12Z</time>
      </trkpt>
      <trkpt lat="46.34908" lon="-0.47013">
        <ele>51.2</ele>
        <time>2020-05-31T09:56:13Z</time>
      </trkpt>
      <trkpt lat="46.34907" lon="-0.47013">
        <ele>51.2</ele>
        <time>2020-05-31T09:56:14Z</time>
      </trkpt>
      <trkpt lat="46.34904" lon="-0.47016">
        <ele>51.2</ele>
        <time>2020-05-31T09:56:15Z</time>
      </trkpt>
      <trkpt lat="46.34904" lon="-0.47016">
        <ele>51.3</ele>
        <time>2020-05-31T09:56:16Z</time>
      </trkpt>
      <trkpt lat="46.34901" lon="-0.47017">
        <ele>51.3</ele>
        <time>2020-05-31T09:56:17Z</time>
      </trkpt>
      <trkpt lat="46.34899" lon="-0.47016">
        <ele>51.3</ele>
        <time>2020-05-31T09:56:18Z</time>
      </trkpt>
      <trkpt lat="46.34897" lon="-0.47017">
        <ele>51.3</ele>
        <time>2020-05-31T09:56:19Z</time>
      </trkpt>
      <trkpt lat="46.34896" lon="-0.47017">
        <ele>51.3</ele>
        <time>2020-05-31T09:56:20Z</time>
      </trkpt>
      <trkpt lat="46.34893" lon="-0.47018">
        <ele>51.2</ele>
        <time>2020-05-31T09:56:21Z</time>
      </trkpt>
      <trkpt lat="46.34892" lon="-0.47018">
        <ele>51.2</ele>
        <time>2020-05-31T09:56:22Z</time>
      </trkpt>
      <trkpt lat="46.34891" lon="-0.47019">
        <ele>51.2</ele>
        <time>2020-05-31T09:56:23Z</time>
      </trkpt>
      <trkpt lat="46.3489" lon="-0.4702">
        <ele>51.2</ele>
        <time>2020-05-31T09:56:24Z</time>
      </trkpt>
      <trkpt lat="46.34889" lon="-0.47021">
        <ele>51.2</ele>
        <time>2020-05-31T12:13:22Z</time>
      </trkpt>
      <trkpt lat="46.34888" lon="-0.47022">
        <ele>51.2</ele>
        <time>2020-05-31T12:13:23Z</time>
      </trkpt>
      <trkpt lat="46.34887" lon="-0.47023">
        <ele>51.2</ele>
        <time>2020-05-31T12:13:24Z</time>
      </trkpt>
      <trkpt lat="46.34886" lon="-0.47024">
        <ele>51.2</ele>
        <time>2020-05-31T12:13:25Z</time>
      </trkpt>
      <trkpt lat="46.34885" lon="-0.47025">
        <ele>51.2</ele>
        <time>2020-05-31T12:13:26Z</time>
      </trkpt>
      <trkpt lat="46.34884" lon="-0.47026">
        <ele>51.2</ele>
        <time>2020-05-31T12:13:27Z</time>
      </trkpt>
      <trkpt lat="46.34883" lon="-0.47027">
        <ele>51.2</ele>
        <time>2020-05-31T12:13:28Z</time>
      </trkpt>
      <trkpt lat="46.34882" lon="-0.47029">
        <ele>51.1</ele>
        <time>2020-05-31T12:13:29Z</time>
      </trkpt>
      <trkpt lat="46.34881" lon="-0.4703">
        <ele>51.1</ele>
        <time>2020-05-31T12:13:30Z</time>
      </trkpt>
      <trkpt lat="46.34877" lon="-0.47032">
        <ele>51.1</ele>
        <time>2020-05-31T12:13:31Z</time>
      </trkpt>
      <trkpt lat="46.34876" lon="-0.47032">
        <ele>51.1</ele>
        <time>2020-05-31T12:13:32Z</time>
      </trkpt>
      <trkpt lat="46.34873" lon="-0.47035">
        <ele>51.1</ele>
        <time>2020-05-31T12:13:33Z</time>
      </trkpt>
      <trkpt lat="46.3487" lon="-0.47037">
        <ele>51</ele>
        <time>2020-05-31T12:13:34Z</time>
      </trkpt>
      <trkpt lat="46.34867" lon="-0.47038">
        <ele>51</ele>
        <time>2020-05-31T12:13:35Z</time>
      </trkpt>
      <trkpt lat="46.34863" lon="-0.47038">
        <ele>50.9</ele>
        <time>2020-05-31T12:13:36Z</time>
      </trkpt>
      <trkpt lat="46.3486" lon="-0.47039">
        <ele>50.9</ele>
        <time>2020-05-31T12:13:37Z</time>
      </trkpt>
      <trkpt lat="46.34856" lon="-0.47041">
        <ele>50.9</ele>
        <time>2020-05-31T12:13:38Z</time>
      </trkpt>
      <trkpt lat="46.34852" lon="-0.47043">
        <ele>50.8</ele>
        <time>2020-05-31T12:13:39Z</time>
      </trkpt>
      <trkpt lat="46.34849" lon="-0.47044">
        <ele>50.8</ele>
        <time>2020-05-31T12:13:40Z</time>
      </trkpt>
      <trkpt lat="46.34845" lon="-0.47046">
        <ele>50.7</ele>
        <time>2020-05-31T12:13:41Z</time>
      </trkpt>
      <trkpt lat="46.34841" lon="-0.47048">
        <ele>50.7</ele>
        <time>2020-05-31T12:13:42Z</time>
      </trkpt>
      <trkpt lat="46.34837" lon="-0.47049">
        <ele>50.6</ele>
        <time>2020-05-31T12:13:43Z</time>
      </trkpt>
      <trkpt lat="46.34833" lon="-0.4705">
        <ele>50.6</ele>
        <time>2020-05-31T12:13:44Z</time>
      </trkpt>
      <trkpt lat="46.34829" lon="-0.47054">
        <ele>50.6</ele>
        <time>2020-05-31T12:13:45Z</time>
      </trkpt>
      <trkpt lat="46.34825" lon="-0.47056">
        <ele>50.5</ele>
        <time>2020-05-31T12:13:46Z</time>
      </trkpt>
      <trkpt lat="46.3482" lon="-0.47057">
        <ele>50.5</ele>
        <time>2020-05-31T12:13:47Z</time>
      </trkpt>
      <trkpt lat="46.34816" lon="-0.4706">
        <ele>50.5</ele>
        <time>2020-05-31T12:13:48Z</time>
      </trkpt>
      <trkpt lat="46.34812" lon="-0.47063">
        <ele>50.5</ele>
        <time>2020-05-31T12:13:49Z</time>
      </trkpt>
      <trkpt lat="46.34807" lon="-0.47065">
        <ele>50.5</ele>
        <time>2020-05-31T12:13:50Z</time>
      </trkpt>
      <trkpt lat="46.34803" lon="-0.47068">
        <ele>50.6</ele>
        <time>2020-05-31T12:13:51Z</time>
      </trkpt>
      <trkpt lat="46.34799" lon="-0.47071">
        <ele>50.6</ele>
        <time>2020-05-31T12:13:52Z</time>
      </trkpt>
      <trkpt lat="46.34796" lon="-0.47077">
        <ele>50.6</ele>
        <time>2020-05-31T12:13:53Z</time>
      </trkpt>
      <trkpt lat="46.34794" lon="-0.47082">
        <ele>50.6</ele>
        <time>2020-05-31T12:13:54Z</time>
      </trkpt>
      <trkpt lat="46.34792" lon="-0.47088">
        <ele>50.6</ele>
        <time>2020-05-31T12:13:55Z</time>
      </trkpt>
      <trkpt lat="46.34792" lon="-0.47094">
        <ele>50.6</ele>
        <time>2020-05-31T12:13:56Z</time>
      </trkpt>
      <trkpt lat="46.34793" lon="-0.47099">
        <ele>50.7</ele>
        <time>2020-05-31T12:13:57Z</time>
      </trkpt>
      <trkpt lat="46.34794" lon="-0.47104">
        <ele>50.7</ele>
        <time>2020-05-31T12:13:58Z</time>
      </trkpt>
      <trkpt lat="46.34796" lon="-0.47108">
        <ele>50.7</ele>
        <time>2020-05-31T12:13:59Z</time>
      </trkpt>
      <trkpt lat="46.34799" lon="-0.47114">
        <ele>50.8</ele>
        <time>2020-05-31T12:14:00Z</time>
      </trkpt>
      <trkpt lat="46.34802" lon="-0.47119">
        <ele>50.9</ele>
        <time>2020-05-31T12:14:01Z</time>
      </trkpt>
      <trkpt lat="46.34804" lon="-0.47125">
        <ele>51</ele>
        <time>2020-05-31T12:14:02Z</time>
      </trkpt>
      <trkpt lat="46.34807" lon="-0.4713">
        <ele>51.1</ele>
        <time>2020-05-31T12:14:03Z</time>
      </trkpt>
      <trkpt lat="46.34809" lon="-0.47135">
        <ele>51.2</ele>
        <time>2020-05-31T12:14:04Z</time>
      </trkpt>
      <trkpt lat="46.3481" lon="-0.47142">
        <ele>51.4</ele>
        <time>2020-05-31T12:14:05Z</time>
      </trkpt>
      <trkpt lat="46.34813" lon="-0.47147">
        <ele>51.5</ele>
        <time>2020-05-31T12:14:06Z</time>
      </trkpt>
      <trkpt lat="46.34815" lon="-0.47153">
        <ele>51.6</ele>
        <time>2020-05-31T12:14:07Z</time>
      </trkpt>
      <trkpt lat="46.34818" lon="-0.4716">
        <ele>51.8</ele>
        <time>2020-05-31T12:14:08Z</time>
      </trkpt>
      <trkpt lat="46.3482" lon="-0.47165">
        <ele>51.9</ele>
        <time>2020-05-31T12:14:09Z</time>
      </trkpt>
      <trkpt lat="46.34823" lon="-0.4717">
        <ele>52</ele>
        <time>2020-05-31T12:14:10Z</time>
      </trkpt>
      <trkpt lat="46.34826" lon="-0.47176">
        <ele>52.1</ele>
        <time>2020-05-31T12:14:11Z</time>
      </trkpt>
      <trkpt lat="46.34829" lon="-0.47182">
        <ele>52.3</ele>
        <time>2020-05-31T12:14:12Z</time>
      </trkpt>
      <trkpt lat="46.34831" lon="-0.47187">
        <ele>52.4</ele>
        <time>2020-05-31T12:14:13Z</time>
      </trkpt>
      <trkpt lat="46.34833" lon="-0.47192">
        <ele>52.4</ele>
        <time>2020-05-31T12:14:14Z</time>
      </trkpt>
      <trkpt lat="46.34835" lon="-0.47196">
        <ele>52.5</ele>
        <time>2020-05-31T12:14:15Z</time>
      </trkpt>
      <trkpt lat="46.34835" lon="-0.47201">
        <ele>52.6</ele>
        <time>2020-05-31T12:14:16Z</time>
      </trkpt>
      <trkpt lat="46.34835" lon="-0.47205">
        <ele>52.6</ele>
        <time>2020-05-31T12:14:17Z</time>
      </trkpt>
      <trkpt lat="46.34835" lon="-0.4721">
        <ele>52.6</ele>
        <time>2020-05-31T12:14:18Z</time>
      </trkpt>
      <trkpt lat="46.34835" lon="-0.47215">
        <ele>52.6</ele>
        <time>2020-05-31T12:14:19Z</time>
      </trkpt>
      <trkpt lat="46.34834" lon="-0.4722">
        <ele>52.6</ele>
        <time>2020-05-31T12:14:20Z</time>
      </trkpt>
      <trkpt lat="46.34834" lon="-0.47225">
        <ele>52.6</ele>
        <time>2020-05-31T12:14:21Z</time>
      </trkpt>
      <trkpt lat="46.34833" lon="-0.4723">
        <ele>52.6</ele>
        <time>2020-05-31T12:14:22Z</time>
      </trkpt>
      <trkpt lat="46.34833" lon="-0.47236">
        <ele>52.6</ele>
        <time>2020-05-31T12:14:23Z</time>
      </trkpt>
      <trkpt lat="46.34834" lon="-0.47242">
        <ele>52.6</ele>
        <time>2020-05-31T12:14:24Z</time>
      </trkpt>
      <trkpt lat="46.34834" lon="-0.47247">
        <ele>52.6</ele>
        <time>2020-05-31T12:14:25Z</time>
      </trkpt>
      <trkpt lat="46.34833" lon="-0.47253">
        <ele>52.6</ele>
        <time>2020-05-31T12:14:26Z</time>
      </trkpt>
      <trkpt lat="46.34833" lon="-0.47258">
        <ele>52.6</ele>
        <time>2020-05-31T12:14:27Z</time>
      </trkpt>
      <trkpt lat="46.34833" lon="-0.47264">
        <ele>52.6</ele>
        <time>2020-05-31T12:14:28Z</time>
      </trkpt>
      <trkpt lat="46.34833" lon="-0.4727">
        <ele>52.6</ele>
        <time>2020-05-31T12:14:29Z</time>
      </trkpt>
      <trkpt lat="46.34833" lon="-0.47275">
        <ele>52.6</ele>
        <time>2020-05-31T12:14:30Z</time>
      </trkpt>
      <trkpt lat="46.34833" lon="-0.47282">
        <ele>52.6</ele>
        <time>2020-05-31T12:14:31Z</time>
      </trkpt>
      <trkpt lat="46.34833" lon="-0.47288">
        <ele>52.6</ele>
        <time>2020-05-31T12:14:32Z</time>
      </trkpt>
      <trkpt lat="46.34833" lon="-0.47294">
        <ele>52.6</ele>
        <time>2020-05-31T12:14:33Z</time>
      </trkpt>
      <trkpt lat="46.34832" lon="-0.47299">
        <ele>52.6</ele>
        <time>2020-05-31T12:14:34Z</time>
      </trkpt>
      <trkpt lat="46.34832" lon="-0.47305">
        <ele>52.6</ele>
        <time>2020-05-31T12:14:35Z</time>
      </trkpt>
      <trkpt lat="46.34831" lon="-0.4731">
        <ele>52.6</ele>
        <time>2020-05-31T12:14:36Z</time>
      </trkpt>
      <trkpt lat="46.34831" lon="-0.47315">
        <ele>52.6</ele>
        <time>2020-05-31T12:14:37Z</time>
      </trkpt>
      <trkpt lat="46.34831" lon="-0.47319">
        <ele>52.6</ele>
        <time>2020-05-31T12:14:38Z</time>
      </trkpt>
      <trkpt lat="46.34831" lon="-0.47325">
        <ele>52.6</ele>
        <time>2020-05-31T12:14:39Z</time>
      </trkpt>
      <trkpt lat="46.34832" lon="-0.4733">
        <ele>52.6</ele>
        <time>2020-05-31T12:14:40Z</time>
      </trkpt>
      <trkpt lat="46.34833" lon="-0.47337">
        <ele>52.6</ele>
        <time>2020-05-31T12:14:41Z</time>
      </trkpt>
      <trkpt lat="46.34833" lon="-0.47344">
        <ele>52.5</ele>
        <time>2020-05-31T12:14:42Z</time>
      </trkpt>
      <trkpt lat="46.34833" lon="-0.4735">
        <ele>52.5</ele>
        <time>2020-05-31T12:14:43Z</time>
      </trkpt>
      <trkpt lat="46.34833" lon="-0.47356">
        <ele>52.5</ele>
        <time>2020-05-31T12:14:44Z</time>
      </trkpt>
      <trkpt lat="46.34834" lon="-0.47363">
        <ele>52.4</ele>
        <time>2020-05-31T12:14:45Z</time>
      </trkpt>
      <trkpt lat="46.34835" lon="-0.4737">
        <ele>52.4</ele>
        <time>2020-05-31T12:14:46Z</time>
      </trkpt>
      <trkpt lat="46.34835" lon="-0.47378">
        <ele>52.3</ele>
        <time>2020-05-31T12:14:47Z</time>
      </trkpt>
      <trkpt lat="46.34836" lon="-0.47385">
        <ele>52.3</ele>
        <time>2020-05-31T12:14:48Z</time>
      </trkpt>
      <trkpt lat="46.34836" lon="-0.47392">
        <ele>52.2</ele>
        <time>2020-05-31T12:14:49Z</time>
      </trkpt>
      <trkpt lat="46.34836" lon="-0.474">
        <ele>52.2</ele>
        <time>2020-05-31T12:14:50Z</time>
      </trkpt>
      <trkpt lat="46.34837" lon="-0.47407">
        <ele>52.2</ele>
        <time>2020-05-31T12:14:51Z</time>
      </trkpt>
      <trkpt lat="46.34836" lon="-0.47415">
        <ele>52.1</ele>
        <time>2020-05-31T12:14:52Z</time>
      </trkpt>
      <trkpt lat="46.34835" lon="-0.47422">
        <ele>52</ele>
        <time>2020-05-31T12:14:53Z</time>
      </trkpt>
      <trkpt lat="46.34834" lon="-0.47429">
        <ele>51.9</ele>
        <time>2020-05-31T12:14:54Z</time>
      </trkpt>
      <trkpt lat="46.34834" lon="-0.47436">
        <ele>51.8</ele>
        <time>2020-05-31T12:14:55Z</time>
      </trkpt>
      <trkpt lat="46.34833" lon="-0.47444">
        <ele>51.7</ele>
        <time>2020-05-31T12:14:56Z</time>
      </trkpt>
      <trkpt lat="46.34832" lon="-0.47452">
        <ele>51.6</ele>
        <time>2020-05-31T12:14:57Z</time>
      </trkpt>
      <trkpt lat="46.34832" lon="-0.47461">
        <ele>51.4</ele>
        <time>2020-05-31T12:14:58Z</time>
      </trkpt>
      <trkpt lat="46.34831" lon="-0.47471">
        <ele>51.2</ele>
        <time>2020-05-31T12:14:59Z</time>
      </trkpt>
      <trkpt lat="46.3483" lon="-0.4748">
        <ele>51.1</ele>
        <time>2020-05-31T12:15:00Z</time>
      </trkpt>
      <trkpt lat="46.34829" lon="-0.47489">
        <ele>50.9</ele>
        <time>2020-05-31T12:15:01Z</time>
      </trkpt>
      <trkpt lat="46.34829" lon="-0.47499">
        <ele>50.7</ele>
        <time>2020-05-31T12:15:02Z</time>
      </trkpt>
      <trkpt lat="46.34828" lon="-0.47508">
        <ele>50.6</ele>
        <time>2020-05-31T12:15:03Z</time>
      </trkpt>
      <trkpt lat="46.34827" lon="-0.47518">
        <ele>50.4</ele>
        <time>2020-05-31T12:15:04Z</time>
      </trkpt>
      <trkpt lat="46.34825" lon="-0.47529">
        <ele>50.1</ele>
        <time>2020-05-31T12:15:05Z</time>
      </trkpt>
      <trkpt lat="46.34825" lon="-0.47539">
        <ele>49.7</ele>
        <time>2020-05-31T12:15:06Z</time>
      </trkpt>
      <trkpt lat="46.34823" lon="-0.47549">
        <ele>49.5</ele>
        <time>2020-05-31T12:15:07Z</time>
      </trkpt>
      <trkpt lat="46.34822" lon="-0.47559">
        <ele>49.3</ele>
        <time>2020-05-31T12:15:08Z</time>
      </trkpt>
      <trkpt lat="46.34821" lon="-0.47568">
        <ele>49</ele>
        <time>2020-05-31T12:15:09Z</time>
      </trkpt>
      <trkpt lat="46.34821" lon="-0.47578">
        <ele>48.8</ele>
        <time>2020-05-31T12:15:10Z</time>
      </trkpt>
      <trkpt lat="46.3482" lon="-0.47589">
        <ele>48.5</ele>
        <time>2020-05-31T12:15:11Z</time>
      </trkpt>
      <trkpt lat="46.3482" lon="-0.476">
        <ele>48.3</ele>
        <time>2020-05-31T12:15:12Z</time>
      </trkpt>
      <trkpt lat="46.34819" lon="-0.47611">
        <ele>48.1</ele>
        <time>2020-05-31T12:15:13Z</time>
      </trkpt>
      <trkpt lat="46.34818" lon="-0.47622">
        <ele>47.7</ele>
        <time>2020-05-31T12:15:14Z</time>
      </trkpt>
      <trkpt lat="46.34817" lon="-0.47632">
        <ele>47.3</ele>
        <time>2020-05-31T12:15:15Z</time>
      </trkpt>
      <trkpt lat="46.34816" lon="-0.47644">
        <ele>46.8</ele>
        <time>2020-05-31T12:15:16Z</time>
      </trkpt>
      <trkpt lat="46.34816" lon="-0.47656">
        <ele>46.2</ele>
        <time>2020-05-31T12:15:17Z</time>
      </trkpt>
      <trkpt lat="46.34816" lon="-0.47667">
        <ele>45.6</ele>
        <time>2020-05-31T12:15:18Z</time>
      </trkpt>
      <trkpt lat="46.34816" lon="-0.47678">
        <ele>45.1</ele>
        <time>2020-05-31T12:15:19Z</time>
      </trkpt>
      <trkpt lat="46.34817" lon="-0.47687">
        <ele>44.6</ele>
        <time>2020-05-31T12:15:20Z</time>
      </trkpt>
      <trkpt lat="46.34818" lon="-0.47696">
        <ele>44.1</ele>
        <time>2020-05-31T12:15:21Z</time>
      </trkpt>
      <trkpt lat="46.34818" lon="-0.47702">
        <ele>43.7</ele>
        <time>2020-05-31T12:15:22Z</time>
      </trkpt>
      <trkpt lat="46.34819" lon="-0.47709">
        <ele>43.3</ele>
        <time>2020-05-31T12:15:23Z</time>
      </trkpt>
      <trkpt lat="46.34819" lon="-0.47715">
        <ele>42.9</ele>
        <time>2020-05-31T12:15:24Z</time>
      </trkpt>
      <trkpt lat="46.34819" lon="-0.47721">
        <ele>42.6</ele>
        <time>2020-05-31T12:15:25Z</time>
      </trkpt>
      <trkpt lat="46.34819" lon="-0.47727">
        <ele>42.4</ele>
        <time>2020-05-31T12:15:26Z</time>
      </trkpt>
      <trkpt lat="46.34819" lon="-0.47731">
        <ele>42.2</ele>
        <time>2020-05-31T12:15:27Z</time>
      </trkpt>
      <trkpt lat="46.3482" lon="-0.47733">
        <ele>42.1</ele>
        <time>2020-05-31T12:15:28Z</time>
      </trkpt>
      <trkpt lat="46.34821" lon="-0.47734">
        <ele>42.1</ele>
        <time>2020-05-31T12:15:29Z</time>
      </trkpt>
      <trkpt lat="46.3482" lon="-0.47735">
        <ele>42</ele>
        <time>2020-05-31T12:15:30Z</time>
      </trkpt>
      <trkpt lat="46.3482" lon="-0.47736">
        <ele>42</ele>
        <time>2020-05-31T12:15:31Z</time>
      </trkpt>
      <trkpt lat="46.3482" lon="-0.47738">
        <ele>42</ele>
        <time>2020-05-31T12:15:32Z</time>
      </trkpt>
      <trkpt lat="46.3482" lon="-0.47739">
        <ele>41.9</ele>
        <time>2020-05-31T12:15:33Z</time>
      </trkpt>
      <trkpt lat="46.3482" lon="-0.4774">
        <ele>41.9</ele>
        <time>2020-05-31T12:15:34Z</time>
      </trkpt>
      <trkpt lat="46.3482" lon="-0.47741">
        <ele>41.8</ele>
        <time>2020-05-31T12:15:35Z</time>
      </trkpt>
      <trkpt lat="46.34821" lon="-0.47745">
        <ele>41.7</ele>
        <time>2020-05-31T12:15:36Z</time>
      </trkpt>
      <trkpt lat="46.34821" lon="-0.47749">
        <ele>41.6</ele>
        <time>2020-05-31T12:15:37Z</time>
      </trkpt>
      <trkpt lat="46.34821" lon="-0.47754">
        <ele>41.5</ele>
        <time>2020-05-31T12:15:38Z</time>
      </trkpt>
      <trkpt lat="46.34819" lon="-0.47758">
        <ele>41.3</ele>
        <time>2020-05-31T12:15:39Z</time>
      </trkpt>
      <trkpt lat="46.34818" lon="-0.47764">
        <ele>41.2</ele>
        <time>2020-05-31T12:15:40Z</time>
      </trkpt>
      <trkpt lat="46.34817" lon="-0.47771">
        <ele>40.9</ele>
        <time>2020-05-31T12:15:41Z</time>
      </trkpt>
      <trkpt lat="46.34816" lon="-0.47778">
        <ele>40.6</ele>
        <time>2020-05-31T12:15:42Z</time>
      </trkpt>
      <trkpt lat="46.34815" lon="-0.47786">
        <ele>40.2</ele>
        <time>2020-05-31T12:15:43Z</time>
      </trkpt>
      <trkpt lat="46.34814" lon="-0.47795">
        <ele>39.8</ele>
        <time>2020-05-31T12:15:44Z</time>
      </trkpt>
      <trkpt lat="46.34812" lon="-0.47804">
        <ele>39.4</ele>
        <time>2020-05-31T12:15:45Z</time>
      </trkpt>
      <trkpt lat="46.34811" lon="-0.47813">
        <ele>39.1</ele>
        <time>2020-05-31T12:15:46Z</time>
      </trkpt>
      <trkpt lat="46.34809" lon="-0.47821">
        <ele>38.7</ele>
        <time>2020-05-31T12:15:47Z</time>
      </trkpt>
      <trkpt lat="46.34807" lon="-0.4783">
        <ele>38.3</ele>
        <time>2020-05-31T12:15:48Z</time>
      </trkpt>
      <trkpt lat="46.34805" lon="-0.4784">
        <ele>37.8</ele>
        <time>2020-05-31T12:15:49Z</time>
      </trkpt>
      <trkpt lat="46.34803" lon="-0.47851">
        <ele>37.2</ele>
        <time>2020-05-31T12:15:50Z</time>
      </trkpt>
      <trkpt lat="46.34801" lon="-0.47863">
        <ele>36.7</ele>
        <time>2020-05-31T12:15:51Z</time>
      </trkpt>
      <trkpt lat="46.34799" lon="-0.47875">
        <ele>36.1</ele>
        <time>2020-05-31T12:15:52Z</time>
      </trkpt>
      <trkpt lat="46.34797" lon="-0.47887">
        <ele>35.5</ele>
        <time>2020-05-31T12:15:53Z</time>
      </trkpt>
      <trkpt lat="46.34795" lon="-0.47899">
        <ele>34.9</ele>
        <time>2020-05-31T12:15:54Z</time>
      </trkpt>
      <trkpt lat="46.34792" lon="-0.47911">
        <ele>34.4</ele>
        <time>2020-05-31T12:15:55Z</time>
      </trkpt>
      <trkpt lat="46.34789" lon="-0.47923">
        <ele>33.9</ele>
        <time>2020-05-31T12:15:56Z</time>
      </trkpt>
      <trkpt lat="46.34786" lon="-0.47935">
        <ele>33.5</ele>
        <time>2020-05-31T12:15:57Z</time>
      </trkpt>
      <trkpt lat="46.34782" lon="-0.47947">
        <ele>33.2</ele>
        <time>2020-05-31T12:15:58Z</time>
      </trkpt>
      <trkpt lat="46.34779" lon="-0.47961">
        <ele>33.1</ele>
        <time>2020-05-31T12:15:59Z</time>
      </trkpt>
      <trkpt lat="46.34776" lon="-0.47974">
        <ele>33</ele>
        <time>2020-05-31T12:16:00Z</time>
      </trkpt>
      <trkpt lat="46.34774" lon="-0.47987">
        <ele>32.8</ele>
        <time>2020-05-31T12:16:01Z</time>
      </trkpt>
      <trkpt lat="46.34771" lon="-0.48">
        <ele>32.6</ele>
        <time>2020-05-31T12:16:02Z</time>
      </trkpt>
      <trkpt lat="46.34767" lon="-0.48012">
        <ele>32.4</ele>
        <time>2020-05-31T12:16:03Z</time>
      </trkpt>
      <trkpt lat="46.34763" lon="-0.48024">
        <ele>32.1</ele>
        <time>2020-05-31T12:16:04Z</time>
      </trkpt>
      <trkpt lat="46.3476" lon="-0.48037">
        <ele>31.8</ele>
        <time>2020-05-31T12:16:05Z</time>
      </trkpt>
      <trkpt lat="46.34758" lon="-0.48049">
        <ele>31.4</ele>
        <time>2020-05-31T12:16:06Z</time>
      </trkpt>
      <trkpt lat="46.34756" lon="-0.48062">
        <ele>31.1</ele>
        <time>2020-05-31T12:16:07Z</time>
      </trkpt>
      <trkpt lat="46.34753" lon="-0.48075">
        <ele>30.8</ele>
        <time>2020-05-31T12:16:08Z</time>
      </trkpt>
      <trkpt lat="46.34751" lon="-0.48087">
        <ele>30.5</ele>
        <time>2020-05-31T12:16:09Z</time>
      </trkpt>
      <trkpt lat="46.3475" lon="-0.481">
        <ele>30.3</ele>
        <time>2020-05-31T12:16:10Z</time>
      </trkpt>
      <trkpt lat="46.34748" lon="-0.48113">
        <ele>30.1</ele>
        <time>2020-05-31T12:16:11Z</time>
      </trkpt>
      <trkpt lat="46.34746" lon="-0.48125">
        <ele>30.1</ele>
        <time>2020-05-31T12:16:12Z</time>
      </trkpt>
      <trkpt lat="46.34745" lon="-0.48137">
        <ele>30.1</ele>
        <time>2020-05-31T12:16:13Z</time>
      </trkpt>
      <trkpt lat="46.34745" lon="-0.48149">
        <ele>30</ele>
        <time>2020-05-31T12:16:14Z</time>
      </trkpt>
      <trkpt lat="46.34744" lon="-0.48159">
        <ele>29.9</ele>
        <time>2020-05-31T12:16:15Z</time>
      </trkpt>
      <trkpt lat="46.34744" lon="-0.4817">
        <ele>29.8</ele>
        <time>2020-05-31T12:16:16Z</time>
      </trkpt>
      <trkpt lat="46.34744" lon="-0.48179">
        <ele>29.7</ele>
        <time>2020-05-31T12:16:17Z</time>
      </trkpt>
      <trkpt lat="46.34745" lon="-0.48188">
        <ele>29.7</ele>
        <time>2020-05-31T12:16:18Z</time>
      </trkpt>
      <trkpt lat="46.34749" lon="-0.48196">
        <ele>29.6</ele>
        <time>2020-05-31T12:16:19Z</time>
      </trkpt>
      <trkpt lat="46.34754" lon="-0.48201">
        <ele>29.5</ele>
        <time>2020-05-31T12:16:20Z</time>
      </trkpt>
      <trkpt lat="46.3476" lon="-0.48205">
        <ele>29.4</ele>
        <time>2020-05-31T12:16:21Z</time>
      </trkpt>
      <trkpt lat="46.34765" lon="-0.48212">
        <ele>29.4</ele>
        <time>2020-05-31T12:16:22Z</time>
      </trkpt>
      <trkpt lat="46.34768" lon="-0.4822">
        <ele>29.5</ele>
        <time>2020-05-31T12:16:23Z</time>
      </trkpt>
      <trkpt lat="46.34771" lon="-0.48229">
        <ele>29.5</ele>
        <time>2020-05-31T12:16:24Z</time>
      </trkpt>
      <trkpt lat="46.34772" lon="-0.48239">
        <ele>29.6</ele>
        <time>2020-05-31T12:16:25Z</time>
      </trkpt>
      <trkpt lat="46.3477" lon="-0.48247">
        <ele>29.6</ele>
        <time>2020-05-31T12:16:26Z</time>
      </trkpt>
      <trkpt lat="46.34767" lon="-0.48254">
        <ele>29.5</ele>
        <time>2020-05-31T12:16:27Z</time>
      </trkpt>
      <trkpt lat="46.34762" lon="-0.48259">
        <ele>29.5</ele>
        <time>2020-05-31T12:16:28Z</time>
      </trkpt>
      <trkpt lat="46.34756" lon="-0.48262">
        <ele>29.4</ele>
        <time>2020-05-31T12:16:29Z</time>
      </trkpt>
      <trkpt lat="46.3475" lon="-0.48263">
        <ele>29.3</ele>
        <time>2020-05-31T12:16:30Z</time>
      </trkpt>
      <trkpt lat="46.34744" lon="-0.48265">
        <ele>29.3</ele>
        <time>2020-05-31T12:16:31Z</time>
      </trkpt>
      <trkpt lat="46.34738" lon="-0.48268">
        <ele>29.1</ele>
        <time>2020-05-31T12:16:32Z</time>
      </trkpt>
      <trkpt lat="46.34733" lon="-0.48273">
        <ele>29</ele>
        <time>2020-05-31T12:16:33Z</time>
      </trkpt>
      <trkpt lat="46.34728" lon="-0.4828">
        <ele>29</ele>
        <time>2020-05-31T12:16:34Z</time>
      </trkpt>
      <trkpt lat="46.34723" lon="-0.48287">
        <ele>28.9</ele>
        <time>2020-05-31T12:16:35Z</time>
      </trkpt>
      <trkpt lat="46.34717" lon="-0.48293">
        <ele>28.9</ele>
        <time>2020-05-31T12:16:36Z</time>
      </trkpt>
      <trkpt lat="46.34711" lon="-0.48299">
        <ele>28.9</ele>
        <time>2020-05-31T12:16:37Z</time>
      </trkpt>
      <trkpt lat="46.34705" lon="-0.48304">
        <ele>28.9</ele>
        <time>2020-05-31T12:16:38Z</time>
      </trkpt>
      <trkpt lat="46.34699" lon="-0.48309">
        <ele>28.8</ele>
        <time>2020-05-31T12:16:39Z</time>
      </trkpt>
      <trkpt lat="46.34692" lon="-0.48313">
        <ele>28.8</ele>
        <time>2020-05-31T12:16:40Z</time>
      </trkpt>
      <trkpt lat="46.34685" lon="-0.48317">
        <ele>28.7</ele>
        <time>2020-05-31T12:16:41Z</time>
      </trkpt>
      <trkpt lat="46.34678" lon="-0.4832">
        <ele>28.7</ele>
        <time>2020-05-31T12:16:42Z</time>
      </trkpt>
      <trkpt lat="46.34671" lon="-0.48324">
        <ele>28.6</ele>
        <time>2020-05-31T12:16:43Z</time>
      </trkpt>
      <trkpt lat="46.34664" lon="-0.48328">
        <ele>28.6</ele>
        <time>2020-05-31T12:16:44Z</time>
      </trkpt>
      <trkpt lat="46.34658" lon="-0.48332">
        <ele>28.5</ele>
        <time>2020-05-31T12:16:45Z</time>
      </trkpt>
      <trkpt lat="46.34651" lon="-0.48336">
        <ele>28.5</ele>
        <time>2020-05-31T12:16:46Z</time>
      </trkpt>
      <trkpt lat="46.34644" lon="-0.48341">
        <ele>28.5</ele>
        <time>2020-05-31T12:16:47Z</time>
      </trkpt>
      <trkpt lat="46.34638" lon="-0.48345">
        <ele>28.5</ele>
        <time>2020-05-31T12:16:48Z</time>
      </trkpt>
      <trkpt lat="46.34631" lon="-0.48349">
        <ele>28.5</ele>
        <time>2020-05-31T12:16:49Z</time>
      </trkpt>
      <trkpt lat="46.34625" lon="-0.48353">
        <ele>28.5</ele>
        <time>2020-05-31T12:16:50Z</time>
      </trkpt>
      <trkpt lat="46.34619" lon="-0.48358">
        <ele>28.5</ele>
        <time>2020-05-31T12:16:51Z</time>
      </trkpt>
      <trkpt lat="46.34612" lon="-0.48362">
        <ele>28.5</ele>
        <time>2020-05-31T12:16:52Z</time>
      </trkpt>
      <trkpt lat="46.34606" lon="-0.48366">
        <ele>28.5</ele>
        <time>2020-05-31T12:16:53Z</time>
      </trkpt>
      <trkpt lat="46.346" lon="-0.48371">
        <ele>28.5</ele>
        <time>2020-05-31T12:16:54Z</time>
      </trkpt>
      <trkpt lat="46.34594" lon="-0.48376">
        <ele>28.6</ele>
        <time>2020-05-31T12:16:55Z</time>
      </trkpt>
      <trkpt lat="46.34588" lon="-0.48382">
        <ele>28.6</ele>
        <time>2020-05-31T12:16:56Z</time>
      </trkpt>
      <trkpt lat="46.34582" lon="-0.48388">
        <ele>28.7</ele>
        <time>2020-05-31T12:16:57Z</time>
      </trkpt>
      <trkpt lat="46.34576" lon="-0.48393">
        <ele>28.7</ele>
        <time>2020-05-31T12:16:58Z</time>
      </trkpt>
      <trkpt lat="46.34569" lon="-0.48399">
        <ele>28.8</ele>
        <time>2020-05-31T12:16:59Z</time>
      </trkpt>
      <trkpt lat="46.34562" lon="-0.48404">
        <ele>28.9</ele>
        <time>2020-05-31T12:17:00Z</time>
      </trkpt>
      <trkpt lat="46.34556" lon="-0.48409">
        <ele>28.9</ele>
        <time>2020-05-31T12:17:01Z</time>
      </trkpt>
      <trkpt lat="46.34551" lon="-0.48413">
        <ele>28.9</ele>
        <time>2020-05-31T12:17:02Z</time>
      </trkpt>
      <trkpt lat="46.34546" lon="-0.48417">
        <ele>28.9</ele>
        <time>2020-05-31T12:17:03Z</time>
      </trkpt>
      <trkpt lat="46.34541" lon="-0.48422">
        <ele>29</ele>
        <time>2020-05-31T12:17:04Z</time>
      </trkpt>
      <trkpt lat="46.34536" lon="-0.48426">
        <ele>29</ele>
        <time>2020-05-31T12:17:05Z</time>
      </trkpt>
      <trkpt lat="46.34531" lon="-0.48429">
        <ele>29</ele>
        <time>2020-05-31T12:17:06Z</time>
      </trkpt>
      <trkpt lat="46.34526" lon="-0.48432">
        <ele>29</ele>
        <time>2020-05-31T12:17:07Z</time>
      </trkpt>
      <trkpt lat="46.34522" lon="-0.48436">
        <ele>29</ele>
        <time>2020-05-31T12:17:08Z</time>
      </trkpt>
      <trkpt lat="46.34517" lon="-0.4844">
        <ele>29</ele>
        <time>2020-05-31T12:17:09Z</time>
      </trkpt>
      <trkpt lat="46.34513" lon="-0.48444">
        <ele>29.1</ele>
        <time>2020-05-31T12:17:10Z</time>
      </trkpt>
      <trkpt lat="46.34509" lon="-0.48448">
        <ele>29.3</ele>
        <time>2020-05-31T12:17:11Z</time>
      </trkpt>
      <trkpt lat="46.34504" lon="-0.48452">
        <ele>29.4</ele>
        <time>2020-05-31T12:17:12Z</time>
      </trkpt>
      <trkpt lat="46.34501" lon="-0.48457">
        <ele>29.5</ele>
        <time>2020-05-31T12:17:13Z</time>
      </trkpt>
      <trkpt lat="46.34496" lon="-0.48461">
        <ele>29.6</ele>
        <time>2020-05-31T12:17:14Z</time>
      </trkpt>
      <trkpt lat="46.34492" lon="-0.48466">
        <ele>29.8</ele>
        <time>2020-05-31T12:17:15Z</time>
      </trkpt>
      <trkpt lat="46.34487" lon="-0.4847">
        <ele>30</ele>
        <time>2020-05-31T12:17:16Z</time>
      </trkpt>
      <trkpt lat="46.34482" lon="-0.48474">
        <ele>30.1</ele>
        <time>2020-05-31T12:17:17Z</time>
      </trkpt>
      <trkpt lat="46.34478" lon="-0.48478">
        <ele>30.2</ele>
        <time>2020-05-31T12:17:18Z</time>
      </trkpt>
      <trkpt lat="46.34474" lon="-0.48482">
        <ele>30.4</ele>
        <time>2020-05-31T12:17:19Z</time>
      </trkpt>
      <trkpt lat="46.3447" lon="-0.48486">
        <ele>30.5</ele>
        <time>2020-05-31T12:17:20Z</time>
      </trkpt>
      <trkpt lat="46.34466" lon="-0.4849">
        <ele>30.7</ele>
        <time>2020-05-31T12:17:21Z</time>
      </trkpt>
      <trkpt lat="46.34461" lon="-0.48494">
        <ele>30.8</ele>
        <time>2020-05-31T12:17:22Z</time>
      </trkpt>
      <trkpt lat="46.34457" lon="-0.48499">
        <ele>31</ele>
        <time>2020-05-31T12:17:23Z</time>
      </trkpt>
      <trkpt lat="46.34453" lon="-0.48502">
        <ele>31.2</ele>
        <time>2020-05-31T12:17:24Z</time>
      </trkpt>
      <trkpt lat="46.34448" lon="-0.48506">
        <ele>31.4</ele>
        <time>2020-05-31T12:17:25Z</time>
      </trkpt>
      <trkpt lat="46.34444" lon="-0.4851">
        <ele>31.6</ele>
        <time>2020-05-31T12:17:26Z</time>
      </trkpt>
      <trkpt lat="46.3444" lon="-0.48513">
        <ele>31.8</ele>
        <time>2020-05-31T12:17:27Z</time>
      </trkpt>
      <trkpt lat="46.34436" lon="-0.48517">
        <ele>32</ele>
        <time>2020-05-31T12:17:28Z</time>
      </trkpt>
      <trkpt lat="46.34432" lon="-0.48521">
        <ele>32.1</ele>
        <time>2020-05-31T12:17:29Z</time>
      </trkpt>
      <trkpt lat="46.34429" lon="-0.48526">
        <ele>32.3</ele>
        <time>2020-05-31T12:17:30Z</time>
      </trkpt>
      <trkpt lat="46.34425" lon="-0.48531">
        <ele>32.5</ele>
        <time>2020-05-31T12:17:31Z</time>
      </trkpt>
      <trkpt lat="46.34421" lon="-0.48534">
        <ele>32.6</ele>
        <time>2020-05-31T12:17:32Z</time>
      </trkpt>
      <trkpt lat="46.34417" lon="-0.48537">
        <ele>32.7</ele>
        <time>2020-05-31T12:17:33Z</time>
      </trkpt>
      <trkpt lat="46.34412" lon="-0.48541">
        <ele>32.8</ele>
        <time>2020-05-31T12:17:34Z</time>
      </trkpt>
      <trkpt lat="46.34408" lon="-0.48545">
        <ele>32.9</ele>
        <time>2020-05-31T12:17:35Z</time>
      </trkpt>
      <trkpt lat="46.34404" lon="-0.48549">
        <ele>33</ele>
        <time>2020-05-31T12:17:36Z</time>
      </trkpt>
      <trkpt lat="46.34401" lon="-0.48555">
        <ele>33</ele>
        <time>2020-05-31T12:17:37Z</time>
      </trkpt>
      <trkpt lat="46.34396" lon="-0.4856">
        <ele>33.3</ele>
        <time>2020-05-31T12:17:38Z</time>
      </trkpt>
      <trkpt lat="46.34392" lon="-0.48563">
        <ele>33.4</ele>
        <time>2020-05-31T12:17:39Z</time>
      </trkpt>
      <trkpt lat="46.34388" lon="-0.48566">
        <ele>33.6</ele>
        <time>2020-05-31T12:17:40Z</time>
      </trkpt>
      <trkpt lat="46.34384" lon="-0.4857">
        <ele>33.7</ele>
        <time>2020-05-31T12:17:41Z</time>
      </trkpt>
      <trkpt lat="46.34381" lon="-0.48574">
        <ele>33.8</ele>
        <time>2020-05-31T12:17:42Z</time>
      </trkpt>
      <trkpt lat="46.34377" lon="-0.48576">
        <ele>34</ele>
        <time>2020-05-31T12:17:43Z</time>
      </trkpt>
      <trkpt lat="46.34373" lon="-0.4858">
        <ele>34.1</ele>
        <time>2020-05-31T12:17:44Z</time>
      </trkpt>
      <trkpt lat="46.34369" lon="-0.48583">
        <ele>34.2</ele>
        <time>2020-05-31T12:17:45Z</time>
      </trkpt>
      <trkpt lat="46.34366" lon="-0.48587">
        <ele>34.4</ele>
        <time>2020-05-31T12:17:46Z</time>
      </trkpt>
      <trkpt lat="46.34362" lon="-0.48592">
        <ele>34.6</ele>
        <time>2020-05-31T12:17:47Z</time>
      </trkpt>
      <trkpt lat="46.34358" lon="-0.48596">
        <ele>34.7</ele>
        <time>2020-05-31T12:17:48Z</time>
      </trkpt>
      <trkpt lat="46.34354" lon="-0.486">
        <ele>34.9</ele>
        <time>2020-05-31T12:17:49Z</time>
      </trkpt>
      <trkpt lat="46.3435" lon="-0.48604">
        <ele>35</ele>
        <time>2020-05-31T12:17:50Z</time>
      </trkpt>
      <trkpt lat="46.34346" lon="-0.48607">
        <ele>35.2</ele>
        <time>2020-05-31T12:17:51Z</time>
      </trkpt>
      <trkpt lat="46.34342" lon="-0.48611">
        <ele>35.3</ele>
        <time>2020-05-31T12:17:52Z</time>
      </trkpt>
      <trkpt lat="46.34338" lon="-0.48614">
        <ele>35.4</ele>
        <time>2020-05-31T12:17:53Z</time>
      </trkpt>
      <trkpt lat="46.34335" lon="-0.48617">
        <ele>35.6</ele>
        <time>2020-05-31T12:17:54Z</time>
      </trkpt>
      <trkpt lat="46.34331" lon="-0.4862">
        <ele>35.7</ele>
        <time>2020-05-31T12:17:55Z</time>
      </trkpt>
      <trkpt lat="46.34327" lon="-0.48624">
        <ele>35.9</ele>
        <time>2020-05-31T12:17:56Z</time>
      </trkpt>
      <trkpt lat="46.34323" lon="-0.48628">
        <ele>36</ele>
        <time>2020-05-31T12:17:57Z</time>
      </trkpt>
      <trkpt lat="46.3432" lon="-0.48632">
        <ele>36.2</ele>
        <time>2020-05-31T12:17:58Z</time>
      </trkpt>
      <trkpt lat="46.34315" lon="-0.48635">
        <ele>36.3</ele>
        <time>2020-05-31T12:17:59Z</time>
      </trkpt>
      <trkpt lat="46.3431" lon="-0.48638">
        <ele>36.5</ele>
        <time>2020-05-31T12:18:00Z</time>
      </trkpt>
      <trkpt lat="46.34306" lon="-0.48641">
        <ele>36.6</ele>
        <time>2020-05-31T12:18:01Z</time>
      </trkpt>
      <trkpt lat="46.34302" lon="-0.48645">
        <ele>36.8</ele>
        <time>2020-05-31T12:18:02Z</time>
      </trkpt>
      <trkpt lat="46.34298" lon="-0.4865">
        <ele>36.9</ele>
        <time>2020-05-31T12:18:03Z</time>
      </trkpt>
      <trkpt lat="46.34295" lon="-0.48656">
        <ele>37</ele>
        <time>2020-05-31T12:18:04Z</time>
      </trkpt>
      <trkpt lat="46.34291" lon="-0.48662">
        <ele>37.1</ele>
        <time>2020-05-31T12:18:05Z</time>
      </trkpt>
      <trkpt lat="46.34288" lon="-0.48667">
        <ele>37.2</ele>
        <time>2020-05-31T12:18:06Z</time>
      </trkpt>
      <trkpt lat="46.34284" lon="-0.48672">
        <ele>37.2</ele>
        <time>2020-05-31T12:18:07Z</time>
      </trkpt>
      <trkpt lat="46.34281" lon="-0.48678">
        <ele>37.2</ele>
        <time>2020-05-31T12:18:08Z</time>
      </trkpt>
      <trkpt lat="46.34277" lon="-0.48682">
        <ele>37.2</ele>
        <time>2020-05-31T12:18:09Z</time>
      </trkpt>
      <trkpt lat="46.34273" lon="-0.48687">
        <ele>37.1</ele>
        <time>2020-05-31T12:18:10Z</time>
      </trkpt>
      <trkpt lat="46.34269" lon="-0.48692">
        <ele>37.1</ele>
        <time>2020-05-31T12:18:11Z</time>
      </trkpt>
      <trkpt lat="46.34266" lon="-0.48697">
        <ele>37.1</ele>
        <time>2020-05-31T12:18:12Z</time>
      </trkpt>
      <trkpt lat="46.34262" lon="-0.48701">
        <ele>37</ele>
        <time>2020-05-31T12:18:13Z</time>
      </trkpt>
      <trkpt lat="46.34258" lon="-0.48705">
        <ele>37.2</ele>
        <time>2020-05-31T12:18:14Z</time>
      </trkpt>
      <trkpt lat="46.34254" lon="-0.48709">
        <ele>37.3</ele>
        <time>2020-05-31T12:18:15Z</time>
      </trkpt>
      <trkpt lat="46.3425" lon="-0.48712">
        <ele>37.4</ele>
        <time>2020-05-31T12:18:16Z</time>
      </trkpt>
      <trkpt lat="46.34247" lon="-0.48717">
        <ele>37.5</ele>
        <time>2020-05-31T12:18:17Z</time>
      </trkpt>
      <trkpt lat="46.34244" lon="-0.48721">
        <ele>37.6</ele>
        <time>2020-05-31T12:18:18Z</time>
      </trkpt>
      <trkpt lat="46.34241" lon="-0.48726">
        <ele>37.7</ele>
        <time>2020-05-31T12:18:19Z</time>
      </trkpt>
      <trkpt lat="46.34237" lon="-0.48731">
        <ele>37.8</ele>
        <time>2020-05-31T12:18:20Z</time>
      </trkpt>
      <trkpt lat="46.34234" lon="-0.48736">
        <ele>37.9</ele>
        <time>2020-05-31T12:18:21Z</time>
      </trkpt>
      <trkpt lat="46.3423" lon="-0.48741">
        <ele>38</ele>
        <time>2020-05-31T12:18:22Z</time>
      </trkpt>
      <trkpt lat="46.34227" lon="-0.48746">
        <ele>38</ele>
        <time>2020-05-31T12:18:23Z</time>
      </trkpt>
      <trkpt lat="46.34223" lon="-0.4875">
        <ele>38.1</ele>
        <time>2020-05-31T12:18:24Z</time>
      </trkpt>
      <trkpt lat="46.34221" lon="-0.48756">
        <ele>38.1</ele>
        <time>2020-05-31T12:18:25Z</time>
      </trkpt>
      <trkpt lat="46.34217" lon="-0.48761">
        <ele>38.1</ele>
        <time>2020-05-31T12:18:26Z</time>
      </trkpt>
      <trkpt lat="46.34214" lon="-0.48767">
        <ele>38.1</ele>
        <time>2020-05-31T12:18:27Z</time>
      </trkpt>
      <trkpt lat="46.3421" lon="-0.48772">
        <ele>38.1</ele>
        <time>2020-05-31T12:18:28Z</time>
      </trkpt>
      <trkpt lat="46.34207" lon="-0.48778">
        <ele>38.1</ele>
        <time>2020-05-31T12:18:29Z</time>
      </trkpt>
      <trkpt lat="46.34203" lon="-0.48783">
        <ele>38.1</ele>
        <time>2020-05-31T12:18:30Z</time>
      </trkpt>
      <trkpt lat="46.34199" lon="-0.48789">
        <ele>38.1</ele>
        <time>2020-05-31T12:18:31Z</time>
      </trkpt>
      <trkpt lat="46.34195" lon="-0.48794">
        <ele>38.1</ele>
        <time>2020-05-31T12:18:32Z</time>
      </trkpt>
      <trkpt lat="46.34191" lon="-0.48799">
        <ele>38</ele>
        <time>2020-05-31T12:18:33Z</time>
      </trkpt>
      <trkpt lat="46.34187" lon="-0.48805">
        <ele>38</ele>
        <time>2020-05-31T12:18:34Z</time>
      </trkpt>
      <trkpt lat="46.34184" lon="-0.48812">
        <ele>38</ele>
        <time>2020-05-31T12:18:35Z</time>
      </trkpt>
      <trkpt lat="46.3418" lon="-0.48818">
        <ele>38</ele>
        <time>2020-05-31T12:18:36Z</time>
      </trkpt>
      <trkpt lat="46.34176" lon="-0.48823">
        <ele>38</ele>
        <time>2020-05-31T12:18:37Z</time>
      </trkpt>
      <trkpt lat="46.34171" lon="-0.48828">
        <ele>38</ele>
        <time>2020-05-31T12:18:38Z</time>
      </trkpt>
      <trkpt lat="46.34167" lon="-0.48834">
        <ele>38</ele>
        <time>2020-05-31T12:18:39Z</time>
      </trkpt>
      <trkpt lat="46.34162" lon="-0.48839">
        <ele>37.9</ele>
        <time>2020-05-31T12:18:40Z</time>
      </trkpt>
      <trkpt lat="46.3416" lon="-0.48847">
        <ele>37.9</ele>
        <time>2020-05-31T12:18:41Z</time>
      </trkpt>
      <trkpt lat="46.34156" lon="-0.48853">
        <ele>37.8</ele>
        <time>2020-05-31T12:18:42Z</time>
      </trkpt>
      <trkpt lat="46.34151" lon="-0.48858">
        <ele>37.7</ele>
        <time>2020-05-31T12:18:43Z</time>
      </trkpt>
      <trkpt lat="46.34147" lon="-0.48863">
        <ele>37.7</ele>
        <time>2020-05-31T12:18:44Z</time>
      </trkpt>
      <trkpt lat="46.34142" lon="-0.48868">
        <ele>37.6</ele>
        <time>2020-05-31T12:18:45Z</time>
      </trkpt>
      <trkpt lat="46.34137" lon="-0.48872">
        <ele>37.5</ele>
        <time>2020-05-31T12:18:46Z</time>
      </trkpt>
      <trkpt lat="46.34133" lon="-0.48879">
        <ele>37.4</ele>
        <time>2020-05-31T12:18:47Z</time>
      </trkpt>
      <trkpt lat="46.34128" lon="-0.48883">
        <ele>37.4</ele>
        <time>2020-05-31T12:18:48Z</time>
      </trkpt>
      <trkpt lat="46.34124" lon="-0.48888">
        <ele>37.4</ele>
        <time>2020-05-31T12:18:49Z</time>
      </trkpt>
      <trkpt lat="46.3412" lon="-0.48891">
        <ele>37.4</ele>
        <time>2020-05-31T12:18:50Z</time>
      </trkpt>
      <trkpt lat="46.34116" lon="-0.48894">
        <ele>37.4</ele>
        <time>2020-05-31T12:18:51Z</time>
      </trkpt>
      <trkpt lat="46.34113" lon="-0.48898">
        <ele>37.4</ele>
        <time>2020-05-31T12:18:52Z</time>
      </trkpt>
      <trkpt lat="46.34109" lon="-0.48901">
        <ele>37.4</ele>
        <time>2020-05-31T12:18:53Z</time>
      </trkpt>
      <trkpt lat="46.34107" lon="-0.48905">
        <ele>37.4</ele>
        <time>2020-05-31T12:18:54Z</time>
      </trkpt>
      <trkpt lat="46.34104" lon="-0.48907">
        <ele>37.4</ele>
        <time>2020-05-31T12:18:55Z</time>
      </trkpt>
      <trkpt lat="46.34101" lon="-0.48909">
        <ele>37.4</ele>
        <time>2020-05-31T12:18:56Z</time>
      </trkpt>
      <trkpt lat="46.34099" lon="-0.48912">
        <ele>37.4</ele>
        <time>2020-05-31T12:18:57Z</time>
      </trkpt>
      <trkpt lat="46.34096" lon="-0.48915">
        <ele>37.4</ele>
        <time>2020-05-31T12:18:58Z</time>
      </trkpt>
      <trkpt lat="46.34093" lon="-0.48916">
        <ele>37.4</ele>
        <time>2020-05-31T12:18:59Z</time>
      </trkpt>
      <trkpt lat="46.34091" lon="-0.48918">
        <ele>37.3</ele>
        <time>2020-05-31T12:19:00Z</time>
      </trkpt>
      <trkpt lat="46.34087" lon="-0.4892">
        <ele>37.3</ele>
        <time>2020-05-31T12:19:01Z</time>
      </trkpt>
      <trkpt lat="46.34084" lon="-0.48922">
        <ele>37.2</ele>
        <time>2020-05-31T12:19:02Z</time>
      </trkpt>
      <trkpt lat="46.34079" lon="-0.48924">
        <ele>37.1</ele>
        <time>2020-05-31T12:19:03Z</time>
      </trkpt>
      <trkpt lat="46.34074" lon="-0.48926">
        <ele>37.1</ele>
        <time>2020-05-31T12:19:04Z</time>
      </trkpt>
      <trkpt lat="46.34069" lon="-0.48928">
        <ele>37</ele>
        <time>2020-05-31T12:19:05Z</time>
      </trkpt>
      <trkpt lat="46.34064" lon="-0.48932">
        <ele>36.8</ele>
        <time>2020-05-31T12:19:06Z</time>
      </trkpt>
      <trkpt lat="46.34058" lon="-0.48937">
        <ele>36.7</ele>
        <time>2020-05-31T12:19:07Z</time>
      </trkpt>
      <trkpt lat="46.34053" lon="-0.48941">
        <ele>36.5</ele>
        <time>2020-05-31T12:19:08Z</time>
      </trkpt>
      <trkpt lat="46.34048" lon="-0.48947">
        <ele>36.3</ele>
        <time>2020-05-31T12:19:09Z</time>
      </trkpt>
      <trkpt lat="46.34042" lon="-0.48951">
        <ele>36.2</ele>
        <time>2020-05-31T12:19:10Z</time>
      </trkpt>
      <trkpt lat="46.34036" lon="-0.48957">
        <ele>36</ele>
        <time>2020-05-31T12:19:11Z</time>
      </trkpt>
      <trkpt lat="46.3403" lon="-0.48962">
        <ele>35.9</ele>
        <time>2020-05-31T12:19:12Z</time>
      </trkpt>
      <trkpt lat="46.34024" lon="-0.48967">
        <ele>35.7</ele>
        <time>2020-05-31T12:19:13Z</time>
      </trkpt>
      <trkpt lat="46.34017" lon="-0.48973">
        <ele>35.6</ele>
        <time>2020-05-31T12:19:14Z</time>
      </trkpt>
      <trkpt lat="46.34011" lon="-0.48977">
        <ele>35.5</ele>
        <time>2020-05-31T12:19:15Z</time>
      </trkpt>
      <trkpt lat="46.34004" lon="-0.48982">
        <ele>35.4</ele>
        <time>2020-05-31T12:19:16Z</time>
      </trkpt>
      <trkpt lat="46.33997" lon="-0.48987">
        <ele>35.3</ele>
        <time>2020-05-31T12:19:17Z</time>
      </trkpt>
      <trkpt lat="46.3399" lon="-0.48991">
        <ele>35.1</ele>
        <time>2020-05-31T12:19:18Z</time>
      </trkpt>
      <trkpt lat="46.33984" lon="-0.48997">
        <ele>34.8</ele>
        <time>2020-05-31T12:19:19Z</time>
      </trkpt>
      <trkpt lat="46.33977" lon="-0.49003">
        <ele>34.4</ele>
        <time>2020-05-31T12:19:20Z</time>
      </trkpt>
      <trkpt lat="46.33969" lon="-0.49008">
        <ele>33.9</ele>
        <time>2020-05-31T12:19:21Z</time>
      </trkpt>
      <trkpt lat="46.33962" lon="-0.49014">
        <ele>33.4</ele>
        <time>2020-05-31T12:19:22Z</time>
      </trkpt>
      <trkpt lat="46.33955" lon="-0.49018">
        <ele>33</ele>
        <time>2020-05-31T12:19:23Z</time>
      </trkpt>
      <trkpt lat="46.33948" lon="-0.49024">
        <ele>32.5</ele>
        <time>2020-05-31T12:19:24Z</time>
      </trkpt>
      <trkpt lat="46.3394" lon="-0.49028">
        <ele>32.1</ele>
        <time>2020-05-31T12:19:25Z</time>
      </trkpt>
      <trkpt lat="46.33933" lon="-0.49034">
        <ele>31.6</ele>
        <time>2020-05-31T12:19:26Z</time>
      </trkpt>
      <trkpt lat="46.33925" lon="-0.4904">
        <ele>31.2</ele>
        <time>2020-05-31T12:19:27Z</time>
      </trkpt>
      <trkpt lat="46.33917" lon="-0.49045">
        <ele>31</ele>
        <time>2020-05-31T12:19:28Z</time>
      </trkpt>
      <trkpt lat="46.3391" lon="-0.49051">
        <ele>30.7</ele>
        <time>2020-05-31T12:19:29Z</time>
      </trkpt>
      <trkpt lat="46.33902" lon="-0.49057">
        <ele>30.5</ele>
        <time>2020-05-31T12:19:30Z</time>
      </trkpt>
      <trkpt lat="46.33894" lon="-0.49064">
        <ele>30.2</ele>
        <time>2020-05-31T12:19:31Z</time>
      </trkpt>
      <trkpt lat="46.33887" lon="-0.4907">
        <ele>29.9</ele>
        <time>2020-05-31T12:19:32Z</time>
      </trkpt>
      <trkpt lat="46.33879" lon="-0.49078">
        <ele>29.6</ele>
        <time>2020-05-31T12:19:33Z</time>
      </trkpt>
      <trkpt lat="46.33872" lon="-0.49085">
        <ele>29.3</ele>
        <time>2020-05-31T12:19:34Z</time>
      </trkpt>
      <trkpt lat="46.33863" lon="-0.49091">
        <ele>29</ele>
        <time>2020-05-31T12:19:35Z</time>
      </trkpt>
      <trkpt lat="46.33855" lon="-0.49096">
        <ele>28.8</ele>
        <time>2020-05-31T12:19:36Z</time>
      </trkpt>
      <trkpt lat="46.33847" lon="-0.491">
        <ele>28.6</ele>
        <time>2020-05-31T12:19:37Z</time>
      </trkpt>
      <trkpt lat="46.33838" lon="-0.49104">
        <ele>28.4</ele>
        <time>2020-05-31T12:19:38Z</time>
      </trkpt>
      <trkpt lat="46.3383" lon="-0.49103">
        <ele>28.2</ele>
        <time>2020-05-31T12:19:39Z</time>
      </trkpt>
      <trkpt lat="46.33821" lon="-0.491">
        <ele>28.1</ele>
        <time>2020-05-31T12:19:40Z</time>
      </trkpt>
      <trkpt lat="46.33814" lon="-0.49093">
        <ele>28</ele>
        <time>2020-05-31T12:19:41Z</time>
      </trkpt>
      <trkpt lat="46.33807" lon="-0.49088">
        <ele>28</ele>
        <time>2020-05-31T12:19:42Z</time>
      </trkpt>
      <trkpt lat="46.33801" lon="-0.49081">
        <ele>28</ele>
        <time>2020-05-31T12:19:43Z</time>
      </trkpt>
      <trkpt lat="46.33794" lon="-0.49077">
        <ele>28</ele>
        <time>2020-05-31T12:19:44Z</time>
      </trkpt>
      <trkpt lat="46.33789" lon="-0.49073">
        <ele>28</ele>
        <time>2020-05-31T12:19:45Z</time>
      </trkpt>
      <trkpt lat="46.33784" lon="-0.4907">
        <ele>28</ele>
        <time>2020-05-31T12:19:46Z</time>
      </trkpt>
      <trkpt lat="46.3378" lon="-0.49069">
        <ele>28</ele>
        <time>2020-05-31T12:19:47Z</time>
      </trkpt>
      <trkpt lat="46.33776" lon="-0.49069">
        <ele>28</ele>
        <time>2020-05-31T12:19:48Z</time>
      </trkpt>
      <trkpt lat="46.33775" lon="-0.49071">
        <ele>28</ele>
        <time>2020-05-31T12:19:49Z</time>
      </trkpt>
      <trkpt lat="46.33773" lon="-0.49072">
        <ele>27.9</ele>
        <time>2020-05-31T12:19:50Z</time>
      </trkpt>
      <trkpt lat="46.33772" lon="-0.49074">
        <ele>27.9</ele>
        <time>2020-05-31T12:19:51Z</time>
      </trkpt>
      <trkpt lat="46.33771" lon="-0.49076">
        <ele>27.8</ele>
        <time>2020-05-31T12:19:52Z</time>
      </trkpt>
      <trkpt lat="46.3377" lon="-0.4908">
        <ele>27.7</ele>
        <time>2020-05-31T12:19:53Z</time>
      </trkpt>
      <trkpt lat="46.3377" lon="-0.49081">
        <ele>27.7</ele>
        <time>2020-05-31T12:19:54Z</time>
      </trkpt>
      <trkpt lat="46.33769" lon="-0.49085">
        <ele>27.6</ele>
        <time>2020-05-31T12:19:55Z</time>
      </trkpt>
      <trkpt lat="46.33767" lon="-0.49089">
        <ele>27.4</ele>
        <time>2020-05-31T12:19:56Z</time>
      </trkpt>
      <trkpt lat="46.33765" lon="-0.49094">
        <ele>27.2</ele>
        <time>2020-05-31T12:19:57Z</time>
      </trkpt>
      <trkpt lat="46.33764" lon="-0.491">
        <ele>26.9</ele>
        <time>2020-05-31T12:19:58Z</time>
      </trkpt>
      <trkpt lat="46.33762" lon="-0.49106">
        <ele>26.5</ele>
        <time>2020-05-31T12:19:59Z</time>
      </trkpt>
      <trkpt lat="46.33759" lon="-0.49113">
        <ele>26.1</ele>
        <time>2020-05-31T12:20:00Z</time>
      </trkpt>
      <trkpt lat="46.33757" lon="-0.49121">
        <ele>25.6</ele>
        <time>2020-05-31T12:20:01Z</time>
      </trkpt>
      <trkpt lat="46.33754" lon="-0.49129">
        <ele>25</ele>
        <time>2020-05-31T12:20:02Z</time>
      </trkpt>
      <trkpt lat="46.33751" lon="-0.49138">
        <ele>24.5</ele>
        <time>2020-05-31T12:20:03Z</time>
      </trkpt>
      <trkpt lat="46.33748" lon="-0.49147">
        <ele>23.9</ele>
        <time>2020-05-31T12:20:04Z</time>
      </trkpt>
      <trkpt lat="46.33745" lon="-0.49157">
        <ele>23.4</ele>
        <time>2020-05-31T12:20:05Z</time>
      </trkpt>
      <trkpt lat="46.33741" lon="-0.49168">
        <ele>22.8</ele>
        <time>2020-05-31T12:20:06Z</time>
      </trkpt>
      <trkpt lat="46.33737" lon="-0.49179">
        <ele>22.3</ele>
        <time>2020-05-31T12:20:07Z</time>
      </trkpt>
      <trkpt lat="46.33732" lon="-0.4919">
        <ele>21.8</ele>
        <time>2020-05-31T12:20:08Z</time>
      </trkpt>
      <trkpt lat="46.33728" lon="-0.49202">
        <ele>21.3</ele>
        <time>2020-05-31T12:20:09Z</time>
      </trkpt>
      <trkpt lat="46.33724" lon="-0.49213">
        <ele>20.8</ele>
        <time>2020-05-31T12:20:10Z</time>
      </trkpt>
      <trkpt lat="46.3372" lon="-0.49226">
        <ele>20.2</ele>
        <time>2020-05-31T12:20:11Z</time>
      </trkpt>
      <trkpt lat="46.33715" lon="-0.49239">
        <ele>19.6</ele>
        <time>2020-05-31T12:20:12Z</time>
      </trkpt>
      <trkpt lat="46.33711" lon="-0.49252">
        <ele>19.1</ele>
        <time>2020-05-31T12:20:13Z</time>
      </trkpt>
      <trkpt lat="46.33706" lon="-0.49266">
        <ele>18.6</ele>
        <time>2020-05-31T12:20:14Z</time>
      </trkpt>
      <trkpt lat="46.337" lon="-0.49279">
        <ele>18.2</ele>
        <time>2020-05-31T12:20:15Z</time>
      </trkpt>
      <trkpt lat="46.33694" lon="-0.49292">
        <ele>17.9</ele>
        <time>2020-05-31T12:20:16Z</time>
      </trkpt>
      <trkpt lat="46.33689" lon="-0.49306">
        <ele>17.7</ele>
        <time>2020-05-31T12:20:17Z</time>
      </trkpt>
      <trkpt lat="46.33686" lon="-0.4932">
        <ele>17.6</ele>
        <time>2020-05-31T12:20:18Z</time>
      </trkpt>
      <trkpt lat="46.33681" lon="-0.49334">
        <ele>17.5</ele>
        <time>2020-05-31T12:20:19Z</time>
      </trkpt>
      <trkpt lat="46.33677" lon="-0.49347">
        <ele>17.5</ele>
        <time>2020-05-31T12:20:20Z</time>
      </trkpt>
      <trkpt lat="46.33673" lon="-0.49359">
        <ele>17.5</ele>
        <time>2020-05-31T12:20:21Z</time>
      </trkpt>
      <trkpt lat="46.33668" lon="-0.49372">
        <ele>17.6</ele>
        <time>2020-05-31T12:20:22Z</time>
      </trkpt>
      <trkpt lat="46.33665" lon="-0.49385">
        <ele>17.7</ele>
        <time>2020-05-31T12:20:23Z</time>
      </trkpt>
      <trkpt lat="46.33663" lon="-0.49398">
        <ele>17.8</ele>
        <time>2020-05-31T12:20:24Z</time>
      </trkpt>
      <trkpt lat="46.33662" lon="-0.49411">
        <ele>18.1</ele>
        <time>2020-05-31T12:20:25Z</time>
      </trkpt>
      <trkpt lat="46.33662" lon="-0.49424">
        <ele>18.4</ele>
        <time>2020-05-31T12:20:26Z</time>
      </trkpt>
      <trkpt lat="46.33662" lon="-0.49437">
        <ele>18.7</ele>
        <time>2020-05-31T12:20:27Z</time>
      </trkpt>
      <trkpt lat="46.33662" lon="-0.4945">
        <ele>18.9</ele>
        <time>2020-05-31T12:20:28Z</time>
      </trkpt>
      <trkpt lat="46.33662" lon="-0.49462">
        <ele>19.2</ele>
        <time>2020-05-31T12:20:29Z</time>
      </trkpt>
      <trkpt lat="46.33663" lon="-0.49474">
        <ele>19.4</ele>
        <time>2020-05-31T12:20:30Z</time>
      </trkpt>
      <trkpt lat="46.33664" lon="-0.49487">
        <ele>19.7</ele>
        <time>2020-05-31T12:20:31Z</time>
      </trkpt>
      <trkpt lat="46.33665" lon="-0.49499">
        <ele>19.9</ele>
        <time>2020-05-31T12:20:32Z</time>
      </trkpt>
      <trkpt lat="46.33666" lon="-0.4951">
        <ele>20.1</ele>
        <time>2020-05-31T12:20:33Z</time>
      </trkpt>
      <trkpt lat="46.33667" lon="-0.49522">
        <ele>20.4</ele>
        <time>2020-05-31T12:20:34Z</time>
      </trkpt>
      <trkpt lat="46.33668" lon="-0.49533">
        <ele>20.6</ele>
        <time>2020-05-31T12:20:35Z</time>
      </trkpt>
      <trkpt lat="46.33669" lon="-0.49544">
        <ele>20.8</ele>
        <time>2020-05-31T12:20:36Z</time>
      </trkpt>
      <trkpt lat="46.3367" lon="-0.49556">
        <ele>21.1</ele>
        <time>2020-05-31T12:20:37Z</time>
      </trkpt>
      <trkpt lat="46.33672" lon="-0.49566">
        <ele>21.4</ele>
        <time>2020-05-31T12:20:38Z</time>
      </trkpt>
      <trkpt lat="46.33673" lon="-0.49576">
        <ele>21.6</ele>
        <time>2020-05-31T12:20:39Z</time>
      </trkpt>
      <trkpt lat="46.33674" lon="-0.49586">
        <ele>21.9</ele>
        <time>2020-05-31T12:20:40Z</time>
      </trkpt>
      <trkpt lat="46.33675" lon="-0.49596">
        <ele>22.3</ele>
        <time>2020-05-31T12:20:41Z</time>
      </trkpt>
      <trkpt lat="46.33676" lon="-0.49605">
        <ele>22.6</ele>
        <time>2020-05-31T12:20:42Z</time>
      </trkpt>
      <trkpt lat="46.33678" lon="-0.49613">
        <ele>23</ele>
        <time>2020-05-31T12:20:43Z</time>
      </trkpt>
      <trkpt lat="46.33679" lon="-0.49621">
        <ele>23.3</ele>
        <time>2020-05-31T12:20:44Z</time>
      </trkpt>
      <trkpt lat="46.33679" lon="-0.49629">
        <ele>23.6</ele>
        <time>2020-05-31T12:20:45Z</time>
      </trkpt>
      <trkpt lat="46.33679" lon="-0.49636">
        <ele>23.9</ele>
        <time>2020-05-31T12:20:46Z</time>
      </trkpt>
      <trkpt lat="46.33679" lon="-0.49643">
        <ele>24.2</ele>
        <time>2020-05-31T12:20:47Z</time>
      </trkpt>
      <trkpt lat="46.33679" lon="-0.49649">
        <ele>24.5</ele>
        <time>2020-05-31T12:20:48Z</time>
      </trkpt>
      <trkpt lat="46.33679" lon="-0.49656">
        <ele>24.8</ele>
        <time>2020-05-31T12:20:49Z</time>
      </trkpt>
      <trkpt lat="46.33679" lon="-0.49663">
        <ele>25.1</ele>
        <time>2020-05-31T12:20:50Z</time>
      </trkpt>
      <trkpt lat="46.33678" lon="-0.4967">
        <ele>25.4</ele>
        <time>2020-05-31T12:20:51Z</time>
      </trkpt>
      <trkpt lat="46.33677" lon="-0.49677">
        <ele>25.7</ele>
        <time>2020-05-31T12:20:52Z</time>
      </trkpt>
      <trkpt lat="46.33677" lon="-0.49684">
        <ele>26.1</ele>
        <time>2020-05-31T12:20:53Z</time>
      </trkpt>
      <trkpt lat="46.33675" lon="-0.4969">
        <ele>26.4</ele>
        <time>2020-05-31T12:20:54Z</time>
      </trkpt>
      <trkpt lat="46.33674" lon="-0.49696">
        <ele>26.7</ele>
        <time>2020-05-31T12:20:55Z</time>
      </trkpt>
      <trkpt lat="46.33673" lon="-0.49701">
        <ele>27</ele>
        <time>2020-05-31T12:20:56Z</time>
      </trkpt>
      <trkpt lat="46.33672" lon="-0.49706">
        <ele>27.3</ele>
        <time>2020-05-31T12:20:57Z</time>
      </trkpt>
      <trkpt lat="46.3367" lon="-0.49711">
        <ele>27.6</ele>
        <time>2020-05-31T12:20:58Z</time>
      </trkpt>
      <trkpt lat="46.33669" lon="-0.49715">
        <ele>27.9</ele>
        <time>2020-05-31T12:20:59Z</time>
      </trkpt>
      <trkpt lat="46.33669" lon="-0.49719">
        <ele>28.2</ele>
        <time>2020-05-31T12:21:00Z</time>
      </trkpt>
      <trkpt lat="46.33668" lon="-0.49724">
        <ele>28.4</ele>
        <time>2020-05-31T12:21:01Z</time>
      </trkpt>
      <trkpt lat="46.33668" lon="-0.49729">
        <ele>28.8</ele>
        <time>2020-05-31T12:21:02Z</time>
      </trkpt>
      <trkpt lat="46.33668" lon="-0.49731">
        <ele>28.9</ele>
        <time>2020-05-31T12:21:03Z</time>
      </trkpt>
      <trkpt lat="46.33668" lon="-0.49736">
        <ele>29.3</ele>
        <time>2020-05-31T12:21:04Z</time>
      </trkpt>
      <trkpt lat="46.33668" lon="-0.49738">
        <ele>29.4</ele>
        <time>2020-05-31T12:21:05Z</time>
      </trkpt>
      <trkpt lat="46.33667" lon="-0.49742">
        <ele>29.7</ele>
        <time>2020-05-31T12:21:06Z</time>
      </trkpt>
      <trkpt lat="46.33666" lon="-0.49746">
        <ele>29.9</ele>
        <time>2020-05-31T12:21:07Z</time>
      </trkpt>
      <trkpt lat="46.33666" lon="-0.49751">
        <ele>30.2</ele>
        <time>2020-05-31T12:21:08Z</time>
      </trkpt>
      <trkpt lat="46.33666" lon="-0.49755">
        <ele>30.5</ele>
        <time>2020-05-31T12:21:09Z</time>
      </trkpt>
      <trkpt lat="46.33666" lon="-0.49761">
        <ele>30.8</ele>
        <time>2020-05-31T12:21:10Z</time>
      </trkpt>
      <trkpt lat="46.33666" lon="-0.49763">
        <ele>30.9</ele>
        <time>2020-05-31T12:21:11Z</time>
      </trkpt>
      <trkpt lat="46.33666" lon="-0.49768">
        <ele>31.2</ele>
        <time>2020-05-31T12:21:12Z</time>
      </trkpt>
      <trkpt lat="46.33665" lon="-0.4977">
        <ele>31.3</ele>
        <time>2020-05-31T12:21:13Z</time>
      </trkpt>
      <trkpt lat="46.33665" lon="-0.49776">
        <ele>31.6</ele>
        <time>2020-05-31T12:21:14Z</time>
      </trkpt>
      <trkpt lat="46.33666" lon="-0.49778">
        <ele>31.7</ele>
        <time>2020-05-31T12:21:15Z</time>
      </trkpt>
      <trkpt lat="46.33666" lon="-0.49782">
        <ele>31.9</ele>
        <time>2020-05-31T12:21:16Z</time>
      </trkpt>
      <trkpt lat="46.33666" lon="-0.49788">
        <ele>32.2</ele>
        <time>2020-05-31T12:21:17Z</time>
      </trkpt>
      <trkpt lat="46.33666" lon="-0.49791">
        <ele>32.3</ele>
        <time>2020-05-31T12:21:18Z</time>
      </trkpt>
      <trkpt lat="46.33665" lon="-0.49797">
        <ele>32.6</ele>
        <time>2020-05-31T12:21:19Z</time>
      </trkpt>
      <trkpt lat="46.33664" lon="-0.49799">
        <ele>32.7</ele>
        <time>2020-05-31T12:21:20Z</time>
      </trkpt>
      <trkpt lat="46.33664" lon="-0.49805">
        <ele>33</ele>
        <time>2020-05-31T12:21:21Z</time>
      </trkpt>
      <trkpt lat="46.33664" lon="-0.49809">
        <ele>33.2</ele>
        <time>2020-05-31T12:21:22Z</time>
      </trkpt>
      <trkpt lat="46.33663" lon="-0.49814">
        <ele>33.3</ele>
        <time>2020-05-31T12:21:23Z</time>
      </trkpt>
      <trkpt lat="46.33661" lon="-0.49819">
        <ele>33.6</ele>
        <time>2020-05-31T12:21:24Z</time>
      </trkpt>
      <trkpt lat="46.33661" lon="-0.49822">
        <ele>33.7</ele>
        <time>2020-05-31T12:21:25Z</time>
      </trkpt>
      <trkpt lat="46.3366" lon="-0.49824">
        <ele>33.7</ele>
        <time>2020-05-31T12:21:26Z</time>
      </trkpt>
      <trkpt lat="46.33659" lon="-0.49829">
        <ele>33.9</ele>
        <time>2020-05-31T12:21:27Z</time>
      </trkpt>
      <trkpt lat="46.33658" lon="-0.49834">
        <ele>34</ele>
        <time>2020-05-31T12:21:28Z</time>
      </trkpt>
      <trkpt lat="46.33657" lon="-0.49839">
        <ele>34.1</ele>
        <time>2020-05-31T12:21:29Z</time>
      </trkpt>
      <trkpt lat="46.33656" lon="-0.49844">
        <ele>34.2</ele>
        <time>2020-05-31T12:21:30Z</time>
      </trkpt>
      <trkpt lat="46.33656" lon="-0.49848">
        <ele>34.3</ele>
        <time>2020-05-31T12:21:31Z</time>
      </trkpt>
      <trkpt lat="46.33654" lon="-0.49851">
        <ele>34.4</ele>
        <time>2020-05-31T12:21:32Z</time>
      </trkpt>
      <trkpt lat="46.33652" lon="-0.49855">
        <ele>34.5</ele>
        <time>2020-05-31T12:21:33Z</time>
      </trkpt>
      <trkpt lat="46.3365" lon="-0.49861">
        <ele>34.6</ele>
        <time>2020-05-31T12:21:34Z</time>
      </trkpt>
      <trkpt lat="46.33648" lon="-0.49868">
        <ele>34.6</ele>
        <time>2020-05-31T12:21:35Z</time>
      </trkpt>
      <trkpt lat="46.33646" lon="-0.49873">
        <ele>34.7</ele>
        <time>2020-05-31T12:21:36Z</time>
      </trkpt>
      <trkpt lat="46.33645" lon="-0.49879">
        <ele>34.7</ele>
        <time>2020-05-31T12:21:37Z</time>
      </trkpt>
      <trkpt lat="46.33642" lon="-0.49884">
        <ele>34.8</ele>
        <time>2020-05-31T12:21:38Z</time>
      </trkpt>
      <trkpt lat="46.3364" lon="-0.49887">
        <ele>34.8</ele>
        <time>2020-05-31T12:21:39Z</time>
      </trkpt>
      <trkpt lat="46.33638" lon="-0.49893">
        <ele>34.9</ele>
        <time>2020-05-31T12:21:40Z</time>
      </trkpt>
      <trkpt lat="46.33637" lon="-0.49896">
        <ele>34.9</ele>
        <time>2020-05-31T12:21:41Z</time>
      </trkpt>
      <trkpt lat="46.33636" lon="-0.49901">
        <ele>34.9</ele>
        <time>2020-05-31T12:21:42Z</time>
      </trkpt>
      <trkpt lat="46.33635" lon="-0.49903">
        <ele>35</ele>
        <time>2020-05-31T12:21:43Z</time>
      </trkpt>
      <trkpt lat="46.33635" lon="-0.49907">
        <ele>35</ele>
        <time>2020-05-31T12:21:44Z</time>
      </trkpt>
      <trkpt lat="46.33633" lon="-0.49914">
        <ele>35</ele>
        <time>2020-05-31T12:21:45Z</time>
      </trkpt>
      <trkpt lat="46.33632" lon="-0.49919">
        <ele>35.1</ele>
        <time>2020-05-31T12:21:46Z</time>
      </trkpt>
      <trkpt lat="46.3363" lon="-0.49923">
        <ele>35.1</ele>
        <time>2020-05-31T12:21:47Z</time>
      </trkpt>
      <trkpt lat="46.33628" lon="-0.49929">
        <ele>35.1</ele>
        <time>2020-05-31T12:21:48Z</time>
      </trkpt>
      <trkpt lat="46.33628" lon="-0.49934">
        <ele>35.1</ele>
        <time>2020-05-31T12:21:49Z</time>
      </trkpt>
      <trkpt lat="46.33627" lon="-0.49941">
        <ele>35.1</ele>
        <time>2020-05-31T12:21:50Z</time>
      </trkpt>
      <trkpt lat="46.33625" lon="-0.49948">
        <ele>35.1</ele>
        <time>2020-05-31T12:21:51Z</time>
      </trkpt>
      <trkpt lat="46.33624" lon="-0.49953">
        <ele>35.1</ele>
        <time>2020-05-31T12:21:52Z</time>
      </trkpt>
      <trkpt lat="46.33622" lon="-0.49958">
        <ele>35</ele>
        <time>2020-05-31T12:21:53Z</time>
      </trkpt>
      <trkpt lat="46.33621" lon="-0.49965">
        <ele>35</ele>
        <time>2020-05-31T12:21:54Z</time>
      </trkpt>
      <trkpt lat="46.3362" lon="-0.49969">
        <ele>35</ele>
        <time>2020-05-31T12:21:55Z</time>
      </trkpt>
      <trkpt lat="46.33618" lon="-0.49974">
        <ele>35</ele>
        <time>2020-05-31T12:21:56Z</time>
      </trkpt>
      <trkpt lat="46.33616" lon="-0.4998">
        <ele>34.9</ele>
        <time>2020-05-31T12:21:57Z</time>
      </trkpt>
      <trkpt lat="46.33614" lon="-0.49986">
        <ele>34.9</ele>
        <time>2020-05-31T12:21:58Z</time>
      </trkpt>
      <trkpt lat="46.33612" lon="-0.49993">
        <ele>34.9</ele>
        <time>2020-05-31T12:21:59Z</time>
      </trkpt>
      <trkpt lat="46.3361" lon="-0.50001">
        <ele>34.9</ele>
        <time>2020-05-31T12:22:00Z</time>
      </trkpt>
      <trkpt lat="46.33607" lon="-0.50009">
        <ele>34.8</ele>
        <time>2020-05-31T12:22:01Z</time>
      </trkpt>
      <trkpt lat="46.33604" lon="-0.50017">
        <ele>34.8</ele>
        <time>2020-05-31T12:22:02Z</time>
      </trkpt>
      <trkpt lat="46.33602" lon="-0.50025">
        <ele>34.8</ele>
        <time>2020-05-31T12:22:03Z</time>
      </trkpt>
      <trkpt lat="46.33599" lon="-0.50032">
        <ele>34.8</ele>
        <time>2020-05-31T12:22:04Z</time>
      </trkpt>
      <trkpt lat="46.33596" lon="-0.50039">
        <ele>34.8</ele>
        <time>2020-05-31T12:22:05Z</time>
      </trkpt>
      <trkpt lat="46.33594" lon="-0.50047">
        <ele>34.7</ele>
        <time>2020-05-31T12:22:06Z</time>
      </trkpt>
      <trkpt lat="46.33591" lon="-0.50054">
        <ele>34.7</ele>
        <time>2020-05-31T12:22:07Z</time>
      </trkpt>
      <trkpt lat="46.33588" lon="-0.50061">
        <ele>34.7</ele>
        <time>2020-05-31T12:22:08Z</time>
      </trkpt>
      <trkpt lat="46.33585" lon="-0.50068">
        <ele>34.7</ele>
        <time>2020-05-31T12:22:09Z</time>
      </trkpt>
      <trkpt lat="46.33582" lon="-0.50074">
        <ele>34.7</ele>
        <time>2020-05-31T12:22:10Z</time>
      </trkpt>
      <trkpt lat="46.33579" lon="-0.5008">
        <ele>34.7</ele>
        <time>2020-05-31T12:22:11Z</time>
      </trkpt>
      <trkpt lat="46.33578" lon="-0.50086">
        <ele>34.7</ele>
        <time>2020-05-31T12:22:12Z</time>
      </trkpt>
      <trkpt lat="46.33575" lon="-0.50093">
        <ele>34.8</ele>
        <time>2020-05-31T12:22:13Z</time>
      </trkpt>
      <trkpt lat="46.33572" lon="-0.501">
        <ele>34.8</ele>
        <time>2020-05-31T12:22:14Z</time>
      </trkpt>
      <trkpt lat="46.3357" lon="-0.50108">
        <ele>34.8</ele>
        <time>2020-05-31T12:22:15Z</time>
      </trkpt>
      <trkpt lat="46.33567" lon="-0.50116">
        <ele>34.8</ele>
        <time>2020-05-31T12:22:16Z</time>
      </trkpt>
      <trkpt lat="46.33565" lon="-0.50122">
        <ele>34.8</ele>
        <time>2020-05-31T12:22:17Z</time>
      </trkpt>
      <trkpt lat="46.33562" lon="-0.50128">
        <ele>34.8</ele>
        <time>2020-05-31T12:22:18Z</time>
      </trkpt>
      <trkpt lat="46.33561" lon="-0.50132">
        <ele>34.8</ele>
        <time>2020-05-31T12:22:19Z</time>
      </trkpt>
      <trkpt lat="46.33559" lon="-0.50137">
        <ele>34.8</ele>
        <time>2020-05-31T12:22:20Z</time>
      </trkpt>
      <trkpt lat="46.33557" lon="-0.50144">
        <ele>34.8</ele>
        <time>2020-05-31T12:22:21Z</time>
      </trkpt>
      <trkpt lat="46.33555" lon="-0.5015">
        <ele>34.8</ele>
        <time>2020-05-31T12:22:22Z</time>
      </trkpt>
      <trkpt lat="46.33553" lon="-0.50156">
        <ele>34.8</ele>
        <time>2020-05-31T12:22:23Z</time>
      </trkpt>
      <trkpt lat="46.3355" lon="-0.50161">
        <ele>34.8</ele>
        <time>2020-05-31T12:22:24Z</time>
      </trkpt>
      <trkpt lat="46.33548" lon="-0.50167">
        <ele>34.9</ele>
        <time>2020-05-31T12:22:25Z</time>
      </trkpt>
      <trkpt lat="46.33547" lon="-0.50172">
        <ele>34.9</ele>
        <time>2020-05-31T12:22:26Z</time>
      </trkpt>
      <trkpt lat="46.33545" lon="-0.50179">
        <ele>34.9</ele>
        <time>2020-05-31T12:22:27Z</time>
      </trkpt>
      <trkpt lat="46.33543" lon="-0.50184">
        <ele>34.9</ele>
        <time>2020-05-31T12:22:28Z</time>
      </trkpt>
      <trkpt lat="46.33541" lon="-0.50188">
        <ele>34.9</ele>
        <time>2020-05-31T12:22:29Z</time>
      </trkpt>
      <trkpt lat="46.3354" lon="-0.50193">
        <ele>34.9</ele>
        <time>2020-05-31T12:22:30Z</time>
      </trkpt>
      <trkpt lat="46.33539" lon="-0.50196">
        <ele>34.9</ele>
        <time>2020-05-31T12:22:31Z</time>
      </trkpt>
      <trkpt lat="46.33537" lon="-0.50202">
        <ele>34.9</ele>
        <time>2020-05-31T12:22:32Z</time>
      </trkpt>
      <trkpt lat="46.33535" lon="-0.50207">
        <ele>34.9</ele>
        <time>2020-05-31T12:22:33Z</time>
      </trkpt>
      <trkpt lat="46.33533" lon="-0.50212">
        <ele>34.9</ele>
        <time>2020-05-31T12:22:34Z</time>
      </trkpt>
      <trkpt lat="46.33531" lon="-0.50217">
        <ele>34.9</ele>
        <time>2020-05-31T12:22:35Z</time>
      </trkpt>
      <trkpt lat="46.3353" lon="-0.50222">
        <ele>34.9</ele>
        <time>2020-05-31T12:22:36Z</time>
      </trkpt>
      <trkpt lat="46.33528" lon="-0.50226">
        <ele>34.9</ele>
        <time>2020-05-31T12:22:37Z</time>
      </trkpt>
      <trkpt lat="46.33526" lon="-0.50231">
        <ele>34.9</ele>
        <time>2020-05-31T12:22:38Z</time>
      </trkpt>
      <trkpt lat="46.33524" lon="-0.50236">
        <ele>34.9</ele>
        <time>2020-05-31T12:22:39Z</time>
      </trkpt>
      <trkpt lat="46.33522" lon="-0.50241">
        <ele>34.9</ele>
        <time>2020-05-31T12:22:40Z</time>
      </trkpt>
      <trkpt lat="46.3352" lon="-0.50246">
        <ele>34.9</ele>
        <time>2020-05-31T12:22:41Z</time>
      </trkpt>
      <trkpt lat="46.33518" lon="-0.5025">
        <ele>34.9</ele>
        <time>2020-05-31T12:22:42Z</time>
      </trkpt>
      <trkpt lat="46.33516" lon="-0.50256">
        <ele>34.9</ele>
        <time>2020-05-31T12:22:43Z</time>
      </trkpt>
      <trkpt lat="46.33514" lon="-0.50259">
        <ele>34.9</ele>
        <time>2020-05-31T12:22:44Z</time>
      </trkpt>
      <trkpt lat="46.33511" lon="-0.50266">
        <ele>34.9</ele>
        <time>2020-05-31T12:22:45Z</time>
      </trkpt>
      <trkpt lat="46.3351" lon="-0.5027">
        <ele>34.9</ele>
        <time>2020-05-31T12:22:46Z</time>
      </trkpt>
      <trkpt lat="46.33508" lon="-0.50275">
        <ele>34.9</ele>
        <time>2020-05-31T12:22:47Z</time>
      </trkpt>
      <trkpt lat="46.33507" lon="-0.50279">
        <ele>34.9</ele>
        <time>2020-05-31T12:22:48Z</time>
      </trkpt>
      <trkpt lat="46.33506" lon="-0.50283">
        <ele>34.9</ele>
        <time>2020-05-31T12:22:49Z</time>
      </trkpt>
      <trkpt lat="46.33504" lon="-0.50288">
        <ele>34.8</ele>
        <time>2020-05-31T12:22:50Z</time>
      </trkpt>
      <trkpt lat="46.33501" lon="-0.50295">
        <ele>34.8</ele>
        <time>2020-05-31T12:22:51Z</time>
      </trkpt>
      <trkpt lat="46.335" lon="-0.503">
        <ele>34.8</ele>
        <time>2020-05-31T12:22:52Z</time>
      </trkpt>
      <trkpt lat="46.33498" lon="-0.50305">
        <ele>34.7</ele>
        <time>2020-05-31T12:22:53Z</time>
      </trkpt>
      <trkpt lat="46.33497" lon="-0.5031">
        <ele>34.6</ele>
        <time>2020-05-31T12:22:54Z</time>
      </trkpt>
      <trkpt lat="46.33495" lon="-0.50315">
        <ele>34.6</ele>
        <time>2020-05-31T12:22:55Z</time>
      </trkpt>
      <trkpt lat="46.33495" lon="-0.50317">
        <ele>34.6</ele>
        <time>2020-05-31T12:22:56Z</time>
      </trkpt>
      <trkpt lat="46.33494" lon="-0.50323">
        <ele>34.6</ele>
        <time>2020-05-31T12:22:57Z</time>
      </trkpt>
      <trkpt lat="46.33494" lon="-0.50325">
        <ele>34.6</ele>
        <time>2020-05-31T12:22:58Z</time>
      </trkpt>
      <trkpt lat="46.33494" lon="-0.5033">
        <ele>34.5</ele>
        <time>2020-05-31T12:22:59Z</time>
      </trkpt>
      <trkpt lat="46.33495" lon="-0.50335">
        <ele>34.5</ele>
        <time>2020-05-31T12:23:00Z</time>
      </trkpt>
      <trkpt lat="46.33496" lon="-0.50338">
        <ele>34.5</ele>
        <time>2020-05-31T12:23:01Z</time>
      </trkpt>
      <trkpt lat="46.33498" lon="-0.50341">
        <ele>34.5</ele>
        <time>2020-05-31T12:23:02Z</time>
      </trkpt>
      <trkpt lat="46.33499" lon="-0.50343">
        <ele>34.5</ele>
        <time>2020-05-31T12:23:03Z</time>
      </trkpt>
      <trkpt lat="46.33499" lon="-0.50343">
        <ele>34.5</ele>
        <time>2020-05-31T12:23:04Z</time>
      </trkpt>
      <trkpt lat="46.33499" lon="-0.50343">
        <ele>34.5</ele>
        <time>2020-05-31T12:23:05Z</time>
      </trkpt>
      <trkpt lat="46.33499" lon="-0.50343">
        <ele>34.5</ele>
        <time>2020-05-31T12:23:06Z</time>
      </trkpt>
      <trkpt lat="46.33499" lon="-0.50343">
        <ele>34.5</ele>
        <time>2020-05-31T12:23:07Z</time>
      </trkpt>
      <trkpt lat="46.33499" lon="-0.50344">
        <ele>34.5</ele>
        <time>2020-05-31T12:23:08Z</time>
      </trkpt>
      <trkpt lat="46.33499" lon="-0.50344">
        <ele>34.5</ele>
        <time>2020-05-31T12:23:09Z</time>
      </trkpt>
      <trkpt lat="46.33499" lon="-0.50344">
        <ele>34.5</ele>
        <time>2020-05-31T12:23:10Z</time>
      </trkpt>
      <trkpt lat="46.33499" lon="-0.50344">
        <ele>34.5</ele>
        <time>2020-05-31T12:23:11Z</time>
      </trkpt>
      <trkpt lat="46.33499" lon="-0.50344">
        <ele>34.5</ele>
        <time>2020-05-31T12:23:12Z</time>
      </trkpt>
      <trkpt lat="46.33499" lon="-0.50344">
        <ele>34.5</ele>
        <time>2020-05-31T12:23:13Z</time>
      </trkpt>
      <trkpt lat="46.33499" lon="-0.50344">
        <ele>34.4</ele>
        <time>2020-05-31T12:23:14Z</time>
      </trkpt>
      <trkpt lat="46.33499" lon="-0.50344">
        <ele>34.4</ele>
        <time>2020-05-31T12:23:15Z</time>
      </trkpt>
      <trkpt lat="46.335" lon="-0.50345">
        <ele>34.4</ele>
        <time>2020-05-31T12:23:16Z</time>
      </trkpt>
      <trkpt lat="46.335" lon="-0.50345">
        <ele>34.4</ele>
        <time>2020-05-31T12:23:17Z</time>
      </trkpt>
      <trkpt lat="46.335" lon="-0.50345">
        <ele>34.4</ele>
        <time>2020-05-31T12:23:18Z</time>
      </trkpt>
      <trkpt lat="46.335" lon="-0.50345">
        <ele>34.4</ele>
        <time>2020-05-31T12:23:19Z</time>
      </trkpt>
      <trkpt lat="46.335" lon="-0.50345">
        <ele>34.4</ele>
        <time>2020-05-31T12:23:20Z</time>
      </trkpt>
      <trkpt lat="46.335" lon="-0.50345">
        <ele>34.4</ele>
        <time>2020-05-31T12:23:21Z</time>
      </trkpt>
      <trkpt lat="46.335" lon="-0.50345">
        <ele>34.4</ele>
        <time>2020-05-31T12:23:22Z</time>
      </trkpt>
      <trkpt lat="46.335" lon="-0.50345">
        <ele>34.4</ele>
        <time>2020-05-31T12:23:23Z</time>
      </trkpt>
      <trkpt lat="46.33504" lon="-0.50348">
        <ele>34.4</ele>
        <time>2020-05-31T12:23:24Z</time>
      </trkpt>
      <trkpt lat="46.33507" lon="-0.5035">
        <ele>34.3</ele>
        <time>2020-05-31T12:23:25Z</time>
      </trkpt>
      <trkpt lat="46.33511" lon="-0.50352">
        <ele>34.2</ele>
        <time>2020-05-31T12:23:26Z</time>
      </trkpt>
      <trkpt lat="46.33516" lon="-0.50354">
        <ele>34.1</ele>
        <time>2020-05-31T12:23:27Z</time>
      </trkpt>
      <trkpt lat="46.3352" lon="-0.50355">
        <ele>34</ele>
        <time>2020-05-31T12:23:28Z</time>
      </trkpt>
      <trkpt lat="46.33523" lon="-0.50357">
        <ele>34</ele>
        <time>2020-05-31T12:23:29Z</time>
      </trkpt>
      <trkpt lat="46.33526" lon="-0.50359">
        <ele>33.9</ele>
        <time>2020-05-31T12:23:30Z</time>
      </trkpt>
      <trkpt lat="46.33531" lon="-0.5036">
        <ele>33.8</ele>
        <time>2020-05-31T12:23:31Z</time>
      </trkpt>
      <trkpt lat="46.33535" lon="-0.50361">
        <ele>33.7</ele>
        <time>2020-05-31T12:23:32Z</time>
      </trkpt>
      <trkpt lat="46.33539" lon="-0.50361">
        <ele>33.7</ele>
        <time>2020-05-31T12:23:33Z</time>
      </trkpt>
      <trkpt lat="46.33543" lon="-0.50361">
        <ele>33.6</ele>
        <time>2020-05-31T12:23:34Z</time>
      </trkpt>
      <trkpt lat="46.33548" lon="-0.50361">
        <ele>33.5</ele>
        <time>2020-05-31T12:23:35Z</time>
      </trkpt>
      <trkpt lat="46.33552" lon="-0.50361">
        <ele>33.5</ele>
        <time>2020-05-31T12:23:36Z</time>
      </trkpt>
      <trkpt lat="46.33557" lon="-0.50363">
        <ele>33.4</ele>
        <time>2020-05-31T12:23:37Z</time>
      </trkpt>
      <trkpt lat="46.33562" lon="-0.50363">
        <ele>33.4</ele>
        <time>2020-05-31T12:23:38Z</time>
      </trkpt>
      <trkpt lat="46.33567" lon="-0.50363">
        <ele>33.3</ele>
        <time>2020-05-31T12:23:39Z</time>
      </trkpt>
      <trkpt lat="46.33571" lon="-0.50364">
        <ele>33.3</ele>
        <time>2020-05-31T12:23:40Z</time>
      </trkpt>
      <trkpt lat="46.33575" lon="-0.50364">
        <ele>33.2</ele>
        <time>2020-05-31T12:23:41Z</time>
      </trkpt>
      <trkpt lat="46.3358" lon="-0.50365">
        <ele>33.1</ele>
        <time>2020-05-31T12:23:42Z</time>
      </trkpt>
      <trkpt lat="46.33584" lon="-0.50367">
        <ele>33.1</ele>
        <time>2020-05-31T12:23:43Z</time>
      </trkpt>
      <trkpt lat="46.33589" lon="-0.50369">
        <ele>33</ele>
        <time>2020-05-31T12:23:44Z</time>
      </trkpt>
      <trkpt lat="46.33593" lon="-0.50371">
        <ele>33</ele>
        <time>2020-05-31T12:23:45Z</time>
      </trkpt>
      <trkpt lat="46.33597" lon="-0.50374">
        <ele>32.9</ele>
        <time>2020-05-31T12:23:46Z</time>
      </trkpt>
      <trkpt lat="46.33602" lon="-0.50378">
        <ele>32.8</ele>
        <time>2020-05-31T12:23:47Z</time>
      </trkpt>
      <trkpt lat="46.33609" lon="-0.50382">
        <ele>32.7</ele>
        <time>2020-05-31T12:23:48Z</time>
      </trkpt>
      <trkpt lat="46.33613" lon="-0.50386">
        <ele>32.7</ele>
        <time>2020-05-31T12:23:49Z</time>
      </trkpt>
      <trkpt lat="46.33617" lon="-0.5039">
        <ele>32.6</ele>
        <time>2020-05-31T12:23:50Z</time>
      </trkpt>
      <trkpt lat="46.33622" lon="-0.50394">
        <ele>32.5</ele>
        <time>2020-05-31T12:23:51Z</time>
      </trkpt>
      <trkpt lat="46.33627" lon="-0.50398">
        <ele>32.4</ele>
        <time>2020-05-31T12:23:52Z</time>
      </trkpt>
      <trkpt lat="46.33631" lon="-0.50403">
        <ele>32.3</ele>
        <time>2020-05-31T12:23:53Z</time>
      </trkpt>
      <trkpt lat="46.33636" lon="-0.50406">
        <ele>32.3</ele>
        <time>2020-05-31T12:23:54Z</time>
      </trkpt>
      <trkpt lat="46.33643" lon="-0.50411">
        <ele>32.1</ele>
        <time>2020-05-31T12:23:55Z</time>
      </trkpt>
      <trkpt lat="46.33647" lon="-0.50413">
        <ele>32</ele>
        <time>2020-05-31T12:23:56Z</time>
      </trkpt>
      <trkpt lat="46.33652" lon="-0.50417">
        <ele>31.9</ele>
        <time>2020-05-31T12:23:57Z</time>
      </trkpt>
      <trkpt lat="46.33658" lon="-0.5042">
        <ele>31.7</ele>
        <time>2020-05-31T12:23:58Z</time>
      </trkpt>
      <trkpt lat="46.33663" lon="-0.50423">
        <ele>31.6</ele>
        <time>2020-05-31T12:23:59Z</time>
      </trkpt>
      <trkpt lat="46.33668" lon="-0.50427">
        <ele>31.4</ele>
        <time>2020-05-31T12:24:00Z</time>
      </trkpt>
      <trkpt lat="46.33673" lon="-0.50432">
        <ele>31.2</ele>
        <time>2020-05-31T12:24:01Z</time>
      </trkpt>
      <trkpt lat="46.33677" lon="-0.50436">
        <ele>31</ele>
        <time>2020-05-31T12:24:02Z</time>
      </trkpt>
      <trkpt lat="46.33682" lon="-0.5044">
        <ele>30.7</ele>
        <time>2020-05-31T12:24:03Z</time>
      </trkpt>
      <trkpt lat="46.33686" lon="-0.50445">
        <ele>30.3</ele>
        <time>2020-05-31T12:24:04Z</time>
      </trkpt>
      <trkpt lat="46.33691" lon="-0.50449">
        <ele>30</ele>
        <time>2020-05-31T12:24:05Z</time>
      </trkpt>
      <trkpt lat="46.33695" lon="-0.50456">
        <ele>29.6</ele>
        <time>2020-05-31T12:24:06Z</time>
      </trkpt>
      <trkpt lat="46.33698" lon="-0.50466">
        <ele>29.1</ele>
        <time>2020-05-31T12:24:07Z</time>
      </trkpt>
      <trkpt lat="46.337" lon="-0.50479">
        <ele>28.4</ele>
        <time>2020-05-31T12:24:08Z</time>
      </trkpt>
      <trkpt lat="46.33699" lon="-0.50491">
        <ele>27.7</ele>
        <time>2020-05-31T12:24:09Z</time>
      </trkpt>
      <trkpt lat="46.33693" lon="-0.50504">
        <ele>26.7</ele>
        <time>2020-05-31T12:24:10Z</time>
      </trkpt>
      <trkpt lat="46.33685" lon="-0.50512">
        <ele>25.6</ele>
        <time>2020-05-31T12:24:11Z</time>
      </trkpt>
      <trkpt lat="46.33677" lon="-0.50521">
        <ele>24.5</ele>
        <time>2020-05-31T12:24:12Z</time>
      </trkpt>
      <trkpt lat="46.33667" lon="-0.5053">
        <ele>23.1</ele>
        <time>2020-05-31T12:24:13Z</time>
      </trkpt>
      <trkpt lat="46.33658" lon="-0.5054">
        <ele>21.7</ele>
        <time>2020-05-31T12:24:14Z</time>
      </trkpt>
      <trkpt lat="46.33649" lon="-0.5055">
        <ele>20.3</ele>
        <time>2020-05-31T12:24:15Z</time>
      </trkpt>
      <trkpt lat="46.33642" lon="-0.50562">
        <ele>19</ele>
        <time>2020-05-31T12:24:16Z</time>
      </trkpt>
      <trkpt lat="46.33635" lon="-0.50575">
        <ele>17.7</ele>
        <time>2020-05-31T12:24:17Z</time>
      </trkpt>
      <trkpt lat="46.33629" lon="-0.5059">
        <ele>16.6</ele>
        <time>2020-05-31T12:24:18Z</time>
      </trkpt>
      <trkpt lat="46.33624" lon="-0.50605">
        <ele>15.6</ele>
        <time>2020-05-31T12:24:19Z</time>
      </trkpt>
      <trkpt lat="46.33619" lon="-0.50621">
        <ele>14.7</ele>
        <time>2020-05-31T12:24:20Z</time>
      </trkpt>
      <trkpt lat="46.33617" lon="-0.50636">
        <ele>14</ele>
        <time>2020-05-31T12:24:21Z</time>
      </trkpt>
      <trkpt lat="46.33616" lon="-0.50649">
        <ele>13.5</ele>
        <time>2020-05-31T12:24:22Z</time>
      </trkpt>
      <trkpt lat="46.33615" lon="-0.50659">
        <ele>13.2</ele>
        <time>2020-05-31T12:24:23Z</time>
      </trkpt>
      <trkpt lat="46.33615" lon="-0.50666">
        <ele>12.9</ele>
        <time>2020-05-31T12:24:24Z</time>
      </trkpt>
      <trkpt lat="46.33614" lon="-0.50672">
        <ele>12.8</ele>
        <time>2020-05-31T12:24:25Z</time>
      </trkpt>
      <trkpt lat="46.33614" lon="-0.50676">
        <ele>12.7</ele>
        <time>2020-05-31T12:24:26Z</time>
      </trkpt>
      <trkpt lat="46.33614" lon="-0.50679">
        <ele>12.6</ele>
        <time>2020-05-31T12:24:27Z</time>
      </trkpt>
      <trkpt lat="46.33613" lon="-0.50681">
        <ele>12.6</ele>
        <time>2020-05-31T12:24:28Z</time>
      </trkpt>
      <trkpt lat="46.33612" lon="-0.50683">
        <ele>12.6</ele>
        <time>2020-05-31T12:24:29Z</time>
      </trkpt>
      <trkpt lat="46.33612" lon="-0.50686">
        <ele>12.6</ele>
        <time>2020-05-31T12:24:30Z</time>
      </trkpt>
      <trkpt lat="46.33613" lon="-0.50687">
        <ele>12.7</ele>
        <time>2020-05-31T12:24:31Z</time>
      </trkpt>
      <trkpt lat="46.33614" lon="-0.50688">
        <ele>12.7</ele>
        <time>2020-05-31T12:24:32Z</time>
      </trkpt>
      <trkpt lat="46.33617" lon="-0.50687">
        <ele>12.7</ele>
        <time>2020-05-31T12:24:33Z</time>
      </trkpt>
      <trkpt lat="46.33617" lon="-0.50688">
        <ele>12.7</ele>
        <time>2020-05-31T12:24:34Z</time>
      </trkpt>
      <trkpt lat="46.33618" lon="-0.50689">
        <ele>12.7</ele>
        <time>2020-05-31T12:24:35Z</time>
      </trkpt>
      <trkpt lat="46.33621" lon="-0.50689">
        <ele>12.8</ele>
        <time>2020-05-31T12:24:36Z</time>
      </trkpt>
      <trkpt lat="46.33623" lon="-0.50689">
        <ele>12.8</ele>
        <time>2020-05-31T12:24:37Z</time>
      </trkpt>
      <trkpt lat="46.33626" lon="-0.50691">
        <ele>12.8</ele>
        <time>2020-05-31T12:24:38Z</time>
      </trkpt>
      <trkpt lat="46.33627" lon="-0.50692">
        <ele>12.8</ele>
        <time>2020-05-31T12:24:39Z</time>
      </trkpt>
      <trkpt lat="46.3363" lon="-0.50693">
        <ele>12.9</ele>
        <time>2020-05-31T12:24:40Z</time>
      </trkpt>
      <trkpt lat="46.33631" lon="-0.50694">
        <ele>12.9</ele>
        <time>2020-05-31T12:24:41Z</time>
      </trkpt>
      <trkpt lat="46.33634" lon="-0.50695">
        <ele>12.9</ele>
        <time>2020-05-31T12:24:42Z</time>
      </trkpt>
      <trkpt lat="46.33638" lon="-0.50697">
        <ele>12.9</ele>
        <time>2020-05-31T12:24:43Z</time>
      </trkpt>
      <trkpt lat="46.3364" lon="-0.50698">
        <ele>12.9</ele>
        <time>2020-05-31T12:24:44Z</time>
      </trkpt>
      <trkpt lat="46.33643" lon="-0.50699">
        <ele>13</ele>
        <time>2020-05-31T12:24:45Z</time>
      </trkpt>
      <trkpt lat="46.33646" lon="-0.50701">
        <ele>13</ele>
        <time>2020-05-31T12:24:46Z</time>
      </trkpt>
      <trkpt lat="46.3365" lon="-0.50703">
        <ele>13.1</ele>
        <time>2020-05-31T12:24:47Z</time>
      </trkpt>
      <trkpt lat="46.33653" lon="-0.50706">
        <ele>13.1</ele>
        <time>2020-05-31T12:24:48Z</time>
      </trkpt>
      <trkpt lat="46.33656" lon="-0.50706">
        <ele>13.2</ele>
        <time>2020-05-31T12:24:49Z</time>
      </trkpt>
      <trkpt lat="46.3366" lon="-0.50707">
        <ele>13.2</ele>
        <time>2020-05-31T12:24:50Z</time>
      </trkpt>
      <trkpt lat="46.33663" lon="-0.50708">
        <ele>13.2</ele>
        <time>2020-05-31T12:24:51Z</time>
      </trkpt>
      <trkpt lat="46.33666" lon="-0.50708">
        <ele>13.3</ele>
        <time>2020-05-31T12:24:52Z</time>
      </trkpt>
      <trkpt lat="46.3367" lon="-0.50709">
        <ele>13.3</ele>
        <time>2020-05-31T12:24:53Z</time>
      </trkpt>
      <trkpt lat="46.33673" lon="-0.5071">
        <ele>13.3</ele>
        <time>2020-05-31T12:24:54Z</time>
      </trkpt>
      <trkpt lat="46.33676" lon="-0.50711">
        <ele>13.4</ele>
        <time>2020-05-31T12:24:55Z</time>
      </trkpt>
      <trkpt lat="46.3368" lon="-0.50712">
        <ele>13.4</ele>
        <time>2020-05-31T12:24:56Z</time>
      </trkpt>
      <trkpt lat="46.33683" lon="-0.50713">
        <ele>13.4</ele>
        <time>2020-05-31T12:24:57Z</time>
      </trkpt>
      <trkpt lat="46.33687" lon="-0.50714">
        <ele>13.5</ele>
        <time>2020-05-31T12:24:58Z</time>
      </trkpt>
      <trkpt lat="46.33691" lon="-0.50715">
        <ele>13.5</ele>
        <time>2020-05-31T12:24:59Z</time>
      </trkpt>
      <trkpt lat="46.33695" lon="-0.50715">
        <ele>13.6</ele>
        <time>2020-05-31T12:25:00Z</time>
      </trkpt>
      <trkpt lat="46.33699" lon="-0.50718">
        <ele>13.6</ele>
        <time>2020-05-31T12:25:01Z</time>
      </trkpt>
      <trkpt lat="46.33703" lon="-0.50718">
        <ele>13.7</ele>
        <time>2020-05-31T12:25:02Z</time>
      </trkpt>
      <trkpt lat="46.33706" lon="-0.50718">
        <ele>13.8</ele>
        <time>2020-05-31T12:25:03Z</time>
      </trkpt>
      <trkpt lat="46.3371" lon="-0.50717">
        <ele>13.8</ele>
        <time>2020-05-31T12:25:04Z</time>
      </trkpt>
      <trkpt lat="46.33714" lon="-0.50718">
        <ele>13.9</ele>
        <time>2020-05-31T12:25:05Z</time>
      </trkpt>
      <trkpt lat="46.33718" lon="-0.50719">
        <ele>14</ele>
        <time>2020-05-31T12:25:06Z</time>
      </trkpt>
      <trkpt lat="46.33721" lon="-0.5072">
        <ele>14.1</ele>
        <time>2020-05-31T12:25:07Z</time>
      </trkpt>
      <trkpt lat="46.33725" lon="-0.50722">
        <ele>14.2</ele>
        <time>2020-05-31T12:25:08Z</time>
      </trkpt>
      <trkpt lat="46.33729" lon="-0.50725">
        <ele>14.4</ele>
        <time>2020-05-31T12:25:09Z</time>
      </trkpt>
      <trkpt lat="46.33733" lon="-0.50727">
        <ele>14.5</ele>
        <time>2020-05-31T12:25:10Z</time>
      </trkpt>
      <trkpt lat="46.33737" lon="-0.50728">
        <ele>14.7</ele>
        <time>2020-05-31T12:25:11Z</time>
      </trkpt>
      <trkpt lat="46.33741" lon="-0.50727">
        <ele>14.8</ele>
        <time>2020-05-31T12:25:12Z</time>
      </trkpt>
      <trkpt lat="46.33744" lon="-0.50728">
        <ele>14.9</ele>
        <time>2020-05-31T12:25:13Z</time>
      </trkpt>
      <trkpt lat="46.33748" lon="-0.5073">
        <ele>15</ele>
        <time>2020-05-31T12:25:14Z</time>
      </trkpt>
      <trkpt lat="46.33752" lon="-0.50732">
        <ele>15.2</ele>
        <time>2020-05-31T12:25:15Z</time>
      </trkpt>
      <trkpt lat="46.33756" lon="-0.50735">
        <ele>15.3</ele>
        <time>2020-05-31T12:25:16Z</time>
      </trkpt>
      <trkpt lat="46.3376" lon="-0.50737">
        <ele>15.5</ele>
        <time>2020-05-31T12:25:17Z</time>
      </trkpt>
      <trkpt lat="46.33765" lon="-0.50739">
        <ele>15.7</ele>
        <time>2020-05-31T12:25:18Z</time>
      </trkpt>
      <trkpt lat="46.33768" lon="-0.50742">
        <ele>15.9</ele>
        <time>2020-05-31T12:25:19Z</time>
      </trkpt>
      <trkpt lat="46.33772" lon="-0.50746">
        <ele>16.1</ele>
        <time>2020-05-31T12:25:20Z</time>
      </trkpt>
      <trkpt lat="46.33775" lon="-0.5075">
        <ele>16.3</ele>
        <time>2020-05-31T12:25:21Z</time>
      </trkpt>
      <trkpt lat="46.33777" lon="-0.50755">
        <ele>16.5</ele>
        <time>2020-05-31T12:25:22Z</time>
      </trkpt>
      <trkpt lat="46.33779" lon="-0.50761">
        <ele>16.8</ele>
        <time>2020-05-31T12:25:23Z</time>
      </trkpt>
      <trkpt lat="46.33782" lon="-0.50767">
        <ele>17</ele>
        <time>2020-05-31T12:25:24Z</time>
      </trkpt>
      <trkpt lat="46.33784" lon="-0.50771">
        <ele>17.3</ele>
        <time>2020-05-31T12:25:25Z</time>
      </trkpt>
      <trkpt lat="46.33786" lon="-0.50776">
        <ele>17.5</ele>
        <time>2020-05-31T12:25:26Z</time>
      </trkpt>
      <trkpt lat="46.33788" lon="-0.50781">
        <ele>17.7</ele>
        <time>2020-05-31T12:25:27Z</time>
      </trkpt>
      <trkpt lat="46.33788" lon="-0.50786">
        <ele>18</ele>
        <time>2020-05-31T12:25:28Z</time>
      </trkpt>
      <trkpt lat="46.33789" lon="-0.50791">
        <ele>18.3</ele>
        <time>2020-05-31T12:25:29Z</time>
      </trkpt>
      <trkpt lat="46.3379" lon="-0.50796">
        <ele>18.5</ele>
        <time>2020-05-31T12:25:30Z</time>
      </trkpt>
      <trkpt lat="46.33792" lon="-0.50801">
        <ele>18.9</ele>
        <time>2020-05-31T12:25:31Z</time>
      </trkpt>
      <trkpt lat="46.33794" lon="-0.50806">
        <ele>19.3</ele>
        <time>2020-05-31T12:25:32Z</time>
      </trkpt>
      <trkpt lat="46.33795" lon="-0.50811">
        <ele>19.6</ele>
        <time>2020-05-31T12:25:33Z</time>
      </trkpt>
      <trkpt lat="46.33796" lon="-0.50816">
        <ele>19.9</ele>
        <time>2020-05-31T12:25:34Z</time>
      </trkpt>
      <trkpt lat="46.33796" lon="-0.50821">
        <ele>20.2</ele>
        <time>2020-05-31T12:25:35Z</time>
      </trkpt>
      <trkpt lat="46.33797" lon="-0.50826">
        <ele>20.5</ele>
        <time>2020-05-31T12:25:36Z</time>
      </trkpt>
      <trkpt lat="46.33797" lon="-0.5083">
        <ele>20.8</ele>
        <time>2020-05-31T12:25:37Z</time>
      </trkpt>
      <trkpt lat="46.33798" lon="-0.50834">
        <ele>21.1</ele>
        <time>2020-05-31T12:25:38Z</time>
      </trkpt>
      <trkpt lat="46.33798" lon="-0.50838">
        <ele>21.3</ele>
        <time>2020-05-31T12:25:39Z</time>
      </trkpt>
      <trkpt lat="46.338" lon="-0.50843">
        <ele>21.7</ele>
        <time>2020-05-31T12:25:40Z</time>
      </trkpt>
      <trkpt lat="46.33801" lon="-0.50844">
        <ele>21.8</ele>
        <time>2020-05-31T12:25:41Z</time>
      </trkpt>
      <trkpt lat="46.33802" lon="-0.50849">
        <ele>22.2</ele>
        <time>2020-05-31T12:25:42Z</time>
      </trkpt>
      <trkpt lat="46.33803" lon="-0.50851">
        <ele>22.4</ele>
        <time>2020-05-31T12:25:43Z</time>
      </trkpt>
      <trkpt lat="46.33805" lon="-0.50856">
        <ele>22.8</ele>
        <time>2020-05-31T12:25:44Z</time>
      </trkpt>
      <trkpt lat="46.33806" lon="-0.50858">
        <ele>22.9</ele>
        <time>2020-05-31T12:25:45Z</time>
      </trkpt>
      <trkpt lat="46.33807" lon="-0.50862">
        <ele>23.2</ele>
        <time>2020-05-31T12:25:46Z</time>
      </trkpt>
      <trkpt lat="46.33808" lon="-0.50866">
        <ele>23.5</ele>
        <time>2020-05-31T12:25:47Z</time>
      </trkpt>
      <trkpt lat="46.33809" lon="-0.5087">
        <ele>23.8</ele>
        <time>2020-05-31T12:25:48Z</time>
      </trkpt>
      <trkpt lat="46.3381" lon="-0.50875">
        <ele>24.1</ele>
        <time>2020-05-31T12:25:49Z</time>
      </trkpt>
      <trkpt lat="46.33811" lon="-0.50879">
        <ele>24.4</ele>
        <time>2020-05-31T12:25:50Z</time>
      </trkpt>
      <trkpt lat="46.33812" lon="-0.50883">
        <ele>24.7</ele>
        <time>2020-05-31T12:25:51Z</time>
      </trkpt>
      <trkpt lat="46.33812" lon="-0.50887">
        <ele>25</ele>
        <time>2020-05-31T12:25:52Z</time>
      </trkpt>
      <trkpt lat="46.33815" lon="-0.5089">
        <ele>25.2</ele>
        <time>2020-05-31T12:25:53Z</time>
      </trkpt>
      <trkpt lat="46.33816" lon="-0.50894">
        <ele>25.5</ele>
        <time>2020-05-31T12:25:54Z</time>
      </trkpt>
      <trkpt lat="46.33817" lon="-0.50898">
        <ele>25.7</ele>
        <time>2020-05-31T12:25:55Z</time>
      </trkpt>
      <trkpt lat="46.33818" lon="-0.50901">
        <ele>25.8</ele>
        <time>2020-05-31T12:25:56Z</time>
      </trkpt>
      <trkpt lat="46.3382" lon="-0.50906">
        <ele>26</ele>
        <time>2020-05-31T12:25:57Z</time>
      </trkpt>
      <trkpt lat="46.33821" lon="-0.50908">
        <ele>26</ele>
        <time>2020-05-31T12:25:58Z</time>
      </trkpt>
      <trkpt lat="46.33821" lon="-0.50914">
        <ele>26.1</ele>
        <time>2020-05-31T12:25:59Z</time>
      </trkpt>
      <trkpt lat="46.33821" lon="-0.50916">
        <ele>26.2</ele>
        <time>2020-05-31T12:26:00Z</time>
      </trkpt>
      <trkpt lat="46.33822" lon="-0.50921">
        <ele>26.4</ele>
        <time>2020-05-31T12:26:01Z</time>
      </trkpt>
      <trkpt lat="46.33821" lon="-0.50923">
        <ele>26.5</ele>
        <time>2020-05-31T12:26:02Z</time>
      </trkpt>
      <trkpt lat="46.3382" lon="-0.50928">
        <ele>26.6</ele>
        <time>2020-05-31T12:26:03Z</time>
      </trkpt>
      <trkpt lat="46.3382" lon="-0.5093">
        <ele>26.7</ele>
        <time>2020-05-31T12:26:04Z</time>
      </trkpt>
      <trkpt lat="46.33819" lon="-0.50935">
        <ele>26.9</ele>
        <time>2020-05-31T12:26:05Z</time>
      </trkpt>
      <trkpt lat="46.33818" lon="-0.50936">
        <ele>27</ele>
        <time>2020-05-31T12:26:06Z</time>
      </trkpt>
      <trkpt lat="46.33817" lon="-0.5094">
        <ele>27.2</ele>
        <time>2020-05-31T12:26:07Z</time>
      </trkpt>
      <trkpt lat="46.33816" lon="-0.50945">
        <ele>27.5</ele>
        <time>2020-05-31T12:26:08Z</time>
      </trkpt>
      <trkpt lat="46.33816" lon="-0.50947">
        <ele>27.6</ele>
        <time>2020-05-31T12:26:09Z</time>
      </trkpt>
      <trkpt lat="46.33815" lon="-0.50951">
        <ele>27.8</ele>
        <time>2020-05-31T12:26:10Z</time>
      </trkpt>
      <trkpt lat="46.33814" lon="-0.50957">
        <ele>28</ele>
        <time>2020-05-31T12:26:11Z</time>
      </trkpt>
      <trkpt lat="46.33813" lon="-0.50959">
        <ele>28.2</ele>
        <time>2020-05-31T12:26:12Z</time>
      </trkpt>
      <trkpt lat="46.33811" lon="-0.50964">
        <ele>28.5</ele>
        <time>2020-05-31T12:26:13Z</time>
      </trkpt>
      <trkpt lat="46.3381" lon="-0.50966">
        <ele>28.6</ele>
        <time>2020-05-31T12:26:14Z</time>
      </trkpt>
      <trkpt lat="46.33808" lon="-0.50969">
        <ele>28.8</ele>
        <time>2020-05-31T12:26:15Z</time>
      </trkpt>
      <trkpt lat="46.33806" lon="-0.50974">
        <ele>29.1</ele>
        <time>2020-05-31T12:26:16Z</time>
      </trkpt>
      <trkpt lat="46.33804" lon="-0.50977">
        <ele>29.3</ele>
        <time>2020-05-31T12:26:17Z</time>
      </trkpt>
      <trkpt lat="46.33802" lon="-0.5098">
        <ele>29.5</ele>
        <time>2020-05-31T12:26:18Z</time>
      </trkpt>
      <trkpt lat="46.33801" lon="-0.50985">
        <ele>29.8</ele>
        <time>2020-05-31T12:26:19Z</time>
      </trkpt>
      <trkpt lat="46.338" lon="-0.50986">
        <ele>29.9</ele>
        <time>2020-05-31T12:26:20Z</time>
      </trkpt>
      <trkpt lat="46.33798" lon="-0.5099">
        <ele>30.1</ele>
        <time>2020-05-31T12:26:21Z</time>
      </trkpt>
      <trkpt lat="46.33796" lon="-0.50994">
        <ele>30.3</ele>
        <time>2020-05-31T12:26:22Z</time>
      </trkpt>
      <trkpt lat="46.33794" lon="-0.50998">
        <ele>30.5</ele>
        <time>2020-05-31T12:26:23Z</time>
      </trkpt>
      <trkpt lat="46.33793" lon="-0.50999">
        <ele>30.6</ele>
        <time>2020-05-31T12:26:24Z</time>
      </trkpt>
      <trkpt lat="46.33791" lon="-0.51002">
        <ele>30.8</ele>
        <time>2020-05-31T12:26:25Z</time>
      </trkpt>
      <trkpt lat="46.33791" lon="-0.51003">
        <ele>30.9</ele>
        <time>2020-05-31T12:26:26Z</time>
      </trkpt>
      <trkpt lat="46.33789" lon="-0.51007">
        <ele>31.1</ele>
        <time>2020-05-31T12:26:27Z</time>
      </trkpt>
      <trkpt lat="46.33788" lon="-0.51008">
        <ele>31.2</ele>
        <time>2020-05-31T12:26:28Z</time>
      </trkpt>
      <trkpt lat="46.33786" lon="-0.51012">
        <ele>31.4</ele>
        <time>2020-05-31T12:26:29Z</time>
      </trkpt>
      <trkpt lat="46.33786" lon="-0.51013">
        <ele>31.5</ele>
        <time>2020-05-31T12:26:30Z</time>
      </trkpt>
      <trkpt lat="46.33785" lon="-0.51018">
        <ele>31.7</ele>
        <time>2020-05-31T12:26:31Z</time>
      </trkpt>
      <trkpt lat="46.33784" lon="-0.5102">
        <ele>31.8</ele>
        <time>2020-05-31T12:26:32Z</time>
      </trkpt>
      <trkpt lat="46.33782" lon="-0.51024">
        <ele>32</ele>
        <time>2020-05-31T12:26:33Z</time>
      </trkpt>
      <trkpt lat="46.33782" lon="-0.51026">
        <ele>32.1</ele>
        <time>2020-05-31T12:26:34Z</time>
      </trkpt>
      <trkpt lat="46.3378" lon="-0.5103">
        <ele>32.3</ele>
        <time>2020-05-31T12:26:35Z</time>
      </trkpt>
      <trkpt lat="46.33779" lon="-0.51035">
        <ele>32.5</ele>
        <time>2020-05-31T12:26:36Z</time>
      </trkpt>
      <trkpt lat="46.33778" lon="-0.51036">
        <ele>32.6</ele>
        <time>2020-05-31T12:26:37Z</time>
      </trkpt>
      <trkpt lat="46.33777" lon="-0.51041">
        <ele>32.8</ele>
        <time>2020-05-31T12:26:38Z</time>
      </trkpt>
      <trkpt lat="46.33775" lon="-0.51044">
        <ele>33</ele>
        <time>2020-05-31T12:26:39Z</time>
      </trkpt>
      <trkpt lat="46.33774" lon="-0.51049">
        <ele>33.1</ele>
        <time>2020-05-31T12:26:40Z</time>
      </trkpt>
      <trkpt lat="46.33772" lon="-0.51053">
        <ele>33.3</ele>
        <time>2020-05-31T12:26:41Z</time>
      </trkpt>
      <trkpt lat="46.33771" lon="-0.51057">
        <ele>33.5</ele>
        <time>2020-05-31T12:26:42Z</time>
      </trkpt>
      <trkpt lat="46.3377" lon="-0.51062">
        <ele>33.6</ele>
        <time>2020-05-31T12:26:43Z</time>
      </trkpt>
      <trkpt lat="46.33768" lon="-0.51066">
        <ele>33.8</ele>
        <time>2020-05-31T12:26:44Z</time>
      </trkpt>
      <trkpt lat="46.33767" lon="-0.5107">
        <ele>33.9</ele>
        <time>2020-05-31T12:26:45Z</time>
      </trkpt>
      <trkpt lat="46.33765" lon="-0.51074">
        <ele>34.1</ele>
        <time>2020-05-31T12:26:46Z</time>
      </trkpt>
      <trkpt lat="46.33764" lon="-0.51078">
        <ele>34.2</ele>
        <time>2020-05-31T12:26:47Z</time>
      </trkpt>
      <trkpt lat="46.33762" lon="-0.51082">
        <ele>34.4</ele>
        <time>2020-05-31T12:26:48Z</time>
      </trkpt>
      <trkpt lat="46.3376" lon="-0.51086">
        <ele>34.5</ele>
        <time>2020-05-31T12:26:49Z</time>
      </trkpt>
      <trkpt lat="46.33759" lon="-0.5109">
        <ele>34.7</ele>
        <time>2020-05-31T12:26:50Z</time>
      </trkpt>
      <trkpt lat="46.33758" lon="-0.51095">
        <ele>34.8</ele>
        <time>2020-05-31T12:26:51Z</time>
      </trkpt>
      <trkpt lat="46.33756" lon="-0.51098">
        <ele>35</ele>
        <time>2020-05-31T12:26:52Z</time>
      </trkpt>
      <trkpt lat="46.33754" lon="-0.51102">
        <ele>35.1</ele>
        <time>2020-05-31T12:26:53Z</time>
      </trkpt>
      <trkpt lat="46.33753" lon="-0.51107">
        <ele>35.2</ele>
        <time>2020-05-31T12:26:54Z</time>
      </trkpt>
      <trkpt lat="46.33752" lon="-0.51111">
        <ele>35.4</ele>
        <time>2020-05-31T12:26:55Z</time>
      </trkpt>
      <trkpt lat="46.3375" lon="-0.51115">
        <ele>35.5</ele>
        <time>2020-05-31T12:26:56Z</time>
      </trkpt>
      <trkpt lat="46.33748" lon="-0.51118">
        <ele>35.6</ele>
        <time>2020-05-31T12:26:57Z</time>
      </trkpt>
      <trkpt lat="46.33746" lon="-0.51122">
        <ele>35.7</ele>
        <time>2020-05-31T12:26:58Z</time>
      </trkpt>
      <trkpt lat="46.33744" lon="-0.51126">
        <ele>35.9</ele>
        <time>2020-05-31T12:26:59Z</time>
      </trkpt>
      <trkpt lat="46.33743" lon="-0.51127">
        <ele>35.9</ele>
        <time>2020-05-31T12:27:00Z</time>
      </trkpt>
      <trkpt lat="46.33742" lon="-0.51131">
        <ele>36</ele>
        <time>2020-05-31T12:27:01Z</time>
      </trkpt>
      <trkpt lat="46.33741" lon="-0.51137">
        <ele>36.1</ele>
        <time>2020-05-31T12:27:02Z</time>
      </trkpt>
      <trkpt lat="46.33741" lon="-0.51138">
        <ele>36.1</ele>
        <time>2020-05-31T12:27:03Z</time>
      </trkpt>
      <trkpt lat="46.33739" lon="-0.51143">
        <ele>36.3</ele>
        <time>2020-05-31T12:27:04Z</time>
      </trkpt>
      <trkpt lat="46.33738" lon="-0.51145">
        <ele>36.3</ele>
        <time>2020-05-31T12:27:05Z</time>
      </trkpt>
      <trkpt lat="46.33736" lon="-0.5115">
        <ele>36.4</ele>
        <time>2020-05-31T12:27:06Z</time>
      </trkpt>
      <trkpt lat="46.33735" lon="-0.51152">
        <ele>36.5</ele>
        <time>2020-05-31T12:27:07Z</time>
      </trkpt>
      <trkpt lat="46.33733" lon="-0.51156">
        <ele>36.5</ele>
        <time>2020-05-31T12:27:08Z</time>
      </trkpt>
      <trkpt lat="46.33731" lon="-0.5116">
        <ele>36.5</ele>
        <time>2020-05-31T12:27:09Z</time>
      </trkpt>
      <trkpt lat="46.33729" lon="-0.51163">
        <ele>36.6</ele>
        <time>2020-05-31T12:27:10Z</time>
      </trkpt>
      <trkpt lat="46.33727" lon="-0.51167">
        <ele>36.6</ele>
        <time>2020-05-31T12:27:11Z</time>
      </trkpt>
      <trkpt lat="46.33725" lon="-0.51172">
        <ele>36.6</ele>
        <time>2020-05-31T12:27:12Z</time>
      </trkpt>
      <trkpt lat="46.33723" lon="-0.51177">
        <ele>36.6</ele>
        <time>2020-05-31T12:27:13Z</time>
      </trkpt>
      <trkpt lat="46.33722" lon="-0.51181">
        <ele>36.6</ele>
        <time>2020-05-31T12:27:14Z</time>
      </trkpt>
      <trkpt lat="46.33721" lon="-0.51185">
        <ele>36.6</ele>
        <time>2020-05-31T12:27:15Z</time>
      </trkpt>
      <trkpt lat="46.33719" lon="-0.51189">
        <ele>36.6</ele>
        <time>2020-05-31T12:27:16Z</time>
      </trkpt>
      <trkpt lat="46.33718" lon="-0.51193">
        <ele>36.6</ele>
        <time>2020-05-31T12:27:17Z</time>
      </trkpt>
      <trkpt lat="46.33716" lon="-0.51197">
        <ele>36.6</ele>
        <time>2020-05-31T12:27:18Z</time>
      </trkpt>
      <trkpt lat="46.33714" lon="-0.51202">
        <ele>36.6</ele>
        <time>2020-05-31T12:27:19Z</time>
      </trkpt>
      <trkpt lat="46.33713" lon="-0.51203">
        <ele>36.6</ele>
        <time>2020-05-31T12:27:20Z</time>
      </trkpt>
      <trkpt lat="46.33712" lon="-0.51206">
        <ele>36.6</ele>
        <time>2020-05-31T12:27:21Z</time>
      </trkpt>
      <trkpt lat="46.33712" lon="-0.51208">
        <ele>36.6</ele>
        <time>2020-05-31T12:27:22Z</time>
      </trkpt>
      <trkpt lat="46.33712" lon="-0.51209">
        <ele>36.6</ele>
        <time>2020-05-31T12:27:23Z</time>
      </trkpt>
      <trkpt lat="46.33713" lon="-0.51209">
        <ele>36.6</ele>
        <time>2020-05-31T12:27:24Z</time>
      </trkpt>
      <trkpt lat="46.33713" lon="-0.51208">
        <ele>36.6</ele>
        <time>2020-05-31T12:27:25Z</time>
      </trkpt>
      <trkpt lat="46.33713" lon="-0.51208">
        <ele>36.6</ele>
        <time>2020-05-31T12:27:26Z</time>
      </trkpt>
      <trkpt lat="46.33713" lon="-0.51209">
        <ele>36.6</ele>
        <time>2020-05-31T12:27:27Z</time>
      </trkpt>
      <trkpt lat="46.33713" lon="-0.51209">
        <ele>36.6</ele>
        <time>2020-05-31T12:27:28Z</time>
      </trkpt>
      <trkpt lat="46.33713" lon="-0.51209">
        <ele>36.6</ele>
        <time>2020-05-31T12:27:29Z</time>
      </trkpt>
      <trkpt lat="46.33713" lon="-0.51208">
        <ele>36.6</ele>
        <time>2020-05-31T12:27:30Z</time>
      </trkpt>
      <trkpt lat="46.33713" lon="-0.51208">
        <ele>36.6</ele>
        <time>2020-05-31T12:27:31Z</time>
      </trkpt>
      <trkpt lat="46.33713" lon="-0.51207">
        <ele>36.6</ele>
        <time>2020-05-31T12:27:32Z</time>
      </trkpt>
      <trkpt lat="46.33713" lon="-0.51207">
        <ele>36.6</ele>
        <time>2020-05-31T12:27:33Z</time>
      </trkpt>
      <trkpt lat="46.33713" lon="-0.51208">
        <ele>36.6</ele>
        <time>2020-05-31T12:27:34Z</time>
      </trkpt>
      <trkpt lat="46.33713" lon="-0.51208">
        <ele>36.6</ele>
        <time>2020-05-31T12:27:35Z</time>
      </trkpt>
      <trkpt lat="46.33712" lon="-0.51209">
        <ele>36.6</ele>
        <time>2020-05-31T12:27:36Z</time>
      </trkpt>
      <trkpt lat="46.33712" lon="-0.51209">
        <ele>36.6</ele>
        <time>2020-05-31T12:27:37Z</time>
      </trkpt>
      <trkpt lat="46.33712" lon="-0.51209">
        <ele>36.6</ele>
        <time>2020-05-31T12:27:38Z</time>
      </trkpt>
      <trkpt lat="46.33713" lon="-0.51209">
        <ele>36.6</ele>
        <time>2020-05-31T12:27:39Z</time>
      </trkpt>
      <trkpt lat="46.33713" lon="-0.51209">
        <ele>36.6</ele>
        <time>2020-05-31T12:27:40Z</time>
      </trkpt>
      <trkpt lat="46.33712" lon="-0.5121">
        <ele>36.6</ele>
        <time>2020-05-31T12:27:41Z</time>
      </trkpt>
      <trkpt lat="46.33713" lon="-0.5121">
        <ele>36.6</ele>
        <time>2020-05-31T12:27:42Z</time>
      </trkpt>
      <trkpt lat="46.33713" lon="-0.5121">
        <ele>36.6</ele>
        <time>2020-05-31T12:27:43Z</time>
      </trkpt>
      <trkpt lat="46.33713" lon="-0.5121">
        <ele>36.6</ele>
        <time>2020-05-31T12:27:44Z</time>
      </trkpt>
      <trkpt lat="46.33713" lon="-0.5121">
        <ele>36.6</ele>
        <time>2020-05-31T12:27:45Z</time>
      </trkpt>
      <trkpt lat="46.33714" lon="-0.5121">
        <ele>36.6</ele>
        <time>2020-05-31T12:27:46Z</time>
      </trkpt>
      <trkpt lat="46.33716" lon="-0.51209">
        <ele>36.6</ele>
        <time>2020-05-31T12:27:47Z</time>
      </trkpt>
      <trkpt lat="46.33716" lon="-0.51208">
        <ele>36.6</ele>
        <time>2020-05-31T12:27:48Z</time>
      </trkpt>
      <trkpt lat="46.33717" lon="-0.51208">
        <ele>36.6</ele>
        <time>2020-05-31T12:27:49Z</time>
      </trkpt>
      <trkpt lat="46.33718" lon="-0.51208">
        <ele>36.6</ele>
        <time>2020-05-31T12:27:50Z</time>
      </trkpt>
      <trkpt lat="46.33719" lon="-0.51209">
        <ele>36.6</ele>
        <time>2020-05-31T12:27:51Z</time>
      </trkpt>
      <trkpt lat="46.3372" lon="-0.51208">
        <ele>36.6</ele>
        <time>2020-05-31T12:27:52Z</time>
      </trkpt>
      <trkpt lat="46.3372" lon="-0.51209">
        <ele>36.6</ele>
        <time>2020-05-31T12:27:53Z</time>
      </trkpt>
      <trkpt lat="46.3372" lon="-0.51208">
        <ele>36.6</ele>
        <time>2020-05-31T12:27:54Z</time>
      </trkpt>
      <trkpt lat="46.3372" lon="-0.51208">
        <ele>36.6</ele>
        <time>2020-05-31T12:27:55Z</time>
      </trkpt>
      <trkpt lat="46.3372" lon="-0.51208">
        <ele>36.6</ele>
        <time>2020-05-31T12:27:56Z</time>
      </trkpt>
      <trkpt lat="46.33721" lon="-0.51208">
        <ele>36.6</ele>
        <time>2020-05-31T12:27:57Z</time>
      </trkpt>
      <trkpt lat="46.33721" lon="-0.51208">
        <ele>36.6</ele>
        <time>2020-05-31T12:27:58Z</time>
      </trkpt>
      <trkpt lat="46.33722" lon="-0.51207">
        <ele>36.6</ele>
        <time>2020-05-31T12:27:59Z</time>
      </trkpt>
      <trkpt lat="46.33722" lon="-0.51207">
        <ele>36.6</ele>
        <time>2020-05-31T12:28:00Z</time>
      </trkpt>
      <trkpt lat="46.33722" lon="-0.51207">
        <ele>36.6</ele>
        <time>2020-05-31T12:28:01Z</time>
      </trkpt>
      <trkpt lat="46.33722" lon="-0.51207">
        <ele>36.6</ele>
        <time>2020-05-31T12:28:02Z</time>
      </trkpt>
      <trkpt lat="46.33722" lon="-0.51207">
        <ele>36.6</ele>
        <time>2020-05-31T12:28:03Z</time>
      </trkpt>
      <trkpt lat="46.33722" lon="-0.51207">
        <ele>36.6</ele>
        <time>2020-05-31T12:28:04Z</time>
      </trkpt>
      <trkpt lat="46.33722" lon="-0.51207">
        <ele>36.6</ele>
        <time>2020-05-31T12:28:05Z</time>
      </trkpt>
      <trkpt lat="46.33722" lon="-0.51207">
        <ele>36.6</ele>
        <time>2020-05-31T12:28:06Z</time>
      </trkpt>
      <trkpt lat="46.33722" lon="-0.51207">
        <ele>36.6</ele>
        <time>2020-05-31T12:28:07Z</time>
      </trkpt>
      <trkpt lat="46.33722" lon="-0.51207">
        <ele>36.6</ele>
        <time>2020-05-31T12:28:08Z</time>
      </trkpt>
      <trkpt lat="46.33722" lon="-0.51207">
        <ele>36.6</ele>
        <time>2020-05-31T12:28:09Z</time>
      </trkpt>
      <trkpt lat="46.33722" lon="-0.51207">
        <ele>36.6</ele>
        <time>2020-05-31T12:28:10Z</time>
      </trkpt>
      <trkpt lat="46.33722" lon="-0.51207">
        <ele>36.6</ele>
        <time>2020-05-31T12:28:11Z</time>
      </trkpt>
      <trkpt lat="46.33722" lon="-0.51207">
        <ele>36.6</ele>
        <time>2020-05-31T12:28:12Z</time>
      </trkpt>
      <trkpt lat="46.33722" lon="-0.51207">
        <ele>36.6</ele>
        <time>2020-05-31T12:28:13Z</time>
      </trkpt>
      <trkpt lat="46.33722" lon="-0.51207">
        <ele>36.6</ele>
        <time>2020-05-31T12:28:14Z</time>
      </trkpt>
      <trkpt lat="46.33722" lon="-0.51207">
        <ele>36.6</ele>
        <time>2020-05-31T12:28:15Z</time>
      </trkpt>
      <trkpt lat="46.33722" lon="-0.51207">
        <ele>36.6</ele>
        <time>2020-05-31T12:28:16Z</time>
      </trkpt>
      <trkpt lat="46.33721" lon="-0.51206">
        <ele>36.6</ele>
        <time>2020-05-31T12:28:17Z</time>
      </trkpt>
      <trkpt lat="46.33721" lon="-0.51206">
        <ele>36.6</ele>
        <time>2020-05-31T12:28:18Z</time>
      </trkpt>
      <trkpt lat="46.3372" lon="-0.51207">
        <ele>36.6</ele>
        <time>2020-05-31T12:28:19Z</time>
      </trkpt>
      <trkpt lat="46.3372" lon="-0.51209">
        <ele>36.6</ele>
        <time>2020-05-31T12:28:20Z</time>
      </trkpt>
      <trkpt lat="46.3372" lon="-0.5121">
        <ele>36.6</ele>
        <time>2020-05-31T12:28:21Z</time>
      </trkpt>
      <trkpt lat="46.3372" lon="-0.51211">
        <ele>36.6</ele>
        <time>2020-05-31T12:28:22Z</time>
      </trkpt>
      <trkpt lat="46.33718" lon="-0.51215">
        <ele>36.6</ele>
        <time>2020-05-31T12:28:23Z</time>
      </trkpt>
      <trkpt lat="46.33718" lon="-0.51216">
        <ele>36.6</ele>
        <time>2020-05-31T12:28:24Z</time>
      </trkpt>
      <trkpt lat="46.33715" lon="-0.5122">
        <ele>36.6</ele>
        <time>2020-05-31T12:28:25Z</time>
      </trkpt>
      <trkpt lat="46.33714" lon="-0.51225">
        <ele>36.5</ele>
        <time>2020-05-31T12:28:26Z</time>
      </trkpt>
      <trkpt lat="46.33713" lon="-0.51226">
        <ele>36.5</ele>
        <time>2020-05-31T12:28:27Z</time>
      </trkpt>
      <trkpt lat="46.33711" lon="-0.51232">
        <ele>36.5</ele>
        <time>2020-05-31T12:28:28Z</time>
      </trkpt>
      <trkpt lat="46.33709" lon="-0.51236">
        <ele>36.5</ele>
        <time>2020-05-31T12:28:29Z</time>
      </trkpt>
      <trkpt lat="46.33706" lon="-0.51239">
        <ele>36.4</ele>
        <time>2020-05-31T12:28:30Z</time>
      </trkpt>
      <trkpt lat="46.33704" lon="-0.51244">
        <ele>36.4</ele>
        <time>2020-05-31T12:28:31Z</time>
      </trkpt>
      <trkpt lat="46.33702" lon="-0.51247">
        <ele>36.4</ele>
        <time>2020-05-31T12:28:32Z</time>
      </trkpt>
      <trkpt lat="46.33701" lon="-0.51252">
        <ele>36.3</ele>
        <time>2020-05-31T12:28:33Z</time>
      </trkpt>
      <trkpt lat="46.33701" lon="-0.51256">
        <ele>36.3</ele>
        <time>2020-05-31T12:28:34Z</time>
      </trkpt>
      <trkpt lat="46.337" lon="-0.51261">
        <ele>36.2</ele>
        <time>2020-05-31T12:28:35Z</time>
      </trkpt>
      <trkpt lat="46.337" lon="-0.51265">
        <ele>36.1</ele>
        <time>2020-05-31T12:28:36Z</time>
      </trkpt>
      <trkpt lat="46.33698" lon="-0.5127">
        <ele>36.1</ele>
        <time>2020-05-31T12:28:37Z</time>
      </trkpt>
      <trkpt lat="46.33695" lon="-0.51274">
        <ele>36</ele>
        <time>2020-05-31T12:28:38Z</time>
      </trkpt>
      <trkpt lat="46.33693" lon="-0.51276">
        <ele>35.9</ele>
        <time>2020-05-31T12:28:39Z</time>
      </trkpt>
      <trkpt lat="46.33691" lon="-0.5128">
        <ele>35.9</ele>
        <time>2020-05-31T12:28:40Z</time>
      </trkpt>
      <trkpt lat="46.3369" lon="-0.51284">
        <ele>35.8</ele>
        <time>2020-05-31T12:28:41Z</time>
      </trkpt>
      <trkpt lat="46.33688" lon="-0.51288">
        <ele>35.7</ele>
        <time>2020-05-31T12:28:42Z</time>
      </trkpt>
      <trkpt lat="46.33688" lon="-0.51289">
        <ele>35.7</ele>
        <time>2020-05-31T12:28:43Z</time>
      </trkpt>
      <trkpt lat="46.33688" lon="-0.51289">
        <ele>35.7</ele>
        <time>2020-05-31T12:28:44Z</time>
      </trkpt>
      <trkpt lat="46.33688" lon="-0.5129">
        <ele>35.7</ele>
        <time>2020-05-31T12:28:45Z</time>
      </trkpt>
      <trkpt lat="46.33689" lon="-0.5129">
        <ele>35.7</ele>
        <time>2020-05-31T12:28:46Z</time>
      </trkpt>
      <trkpt lat="46.33688" lon="-0.5129">
        <ele>35.7</ele>
        <time>2020-05-31T12:28:47Z</time>
      </trkpt>
      <trkpt lat="46.33689" lon="-0.5129">
        <ele>35.7</ele>
        <time>2020-05-31T12:28:48Z</time>
      </trkpt>
      <trkpt lat="46.33688" lon="-0.5129">
        <ele>35.7</ele>
        <time>2020-05-31T12:28:49Z</time>
      </trkpt>
      <trkpt lat="46.33688" lon="-0.51289">
        <ele>35.7</ele>
        <time>2020-05-31T12:28:50Z</time>
      </trkpt>
      <trkpt lat="46.33688" lon="-0.5129">
        <ele>35.6</ele>
        <time>2020-05-31T12:28:51Z</time>
      </trkpt>
      <trkpt lat="46.33688" lon="-0.51291">
        <ele>35.6</ele>
        <time>2020-05-31T12:28:52Z</time>
      </trkpt>
      <trkpt lat="46.33689" lon="-0.51293">
        <ele>35.6</ele>
        <time>2020-05-31T12:28:53Z</time>
      </trkpt>
      <trkpt lat="46.33688" lon="-0.51298">
        <ele>35.5</ele>
        <time>2020-05-31T12:28:54Z</time>
      </trkpt>
      <trkpt lat="46.33687" lon="-0.51299">
        <ele>35.5</ele>
        <time>2020-05-31T12:28:55Z</time>
      </trkpt>
      <trkpt lat="46.33685" lon="-0.51302">
        <ele>35.5</ele>
        <time>2020-05-31T12:28:56Z</time>
      </trkpt>
      <trkpt lat="46.33683" lon="-0.51306">
        <ele>35.4</ele>
        <time>2020-05-31T12:28:57Z</time>
      </trkpt>
      <trkpt lat="46.33681" lon="-0.51309">
        <ele>35.3</ele>
        <time>2020-05-31T12:28:58Z</time>
      </trkpt>
      <trkpt lat="46.3368" lon="-0.51313">
        <ele>35.3</ele>
        <time>2020-05-31T12:28:59Z</time>
      </trkpt>
      <trkpt lat="46.33678" lon="-0.51318">
        <ele>35.2</ele>
        <time>2020-05-31T12:29:00Z</time>
      </trkpt>
      <trkpt lat="46.33675" lon="-0.51323">
        <ele>35.2</ele>
        <time>2020-05-31T12:29:01Z</time>
      </trkpt>
      <trkpt lat="46.33673" lon="-0.51327">
        <ele>35.1</ele>
        <time>2020-05-31T12:29:02Z</time>
      </trkpt>
      <trkpt lat="46.33672" lon="-0.51332">
        <ele>35</ele>
        <time>2020-05-31T12:29:03Z</time>
      </trkpt>
      <trkpt lat="46.3367" lon="-0.51337">
        <ele>35</ele>
        <time>2020-05-31T12:29:04Z</time>
      </trkpt>
      <trkpt lat="46.33668" lon="-0.51342">
        <ele>34.9</ele>
        <time>2020-05-31T12:29:05Z</time>
      </trkpt>
      <trkpt lat="46.33666" lon="-0.51346">
        <ele>34.9</ele>
        <time>2020-05-31T12:29:06Z</time>
      </trkpt>
      <trkpt lat="46.33665" lon="-0.5135">
        <ele>34.8</ele>
        <time>2020-05-31T12:29:07Z</time>
      </trkpt>
      <trkpt lat="46.33664" lon="-0.51355">
        <ele>34.8</ele>
        <time>2020-05-31T12:29:08Z</time>
      </trkpt>
      <trkpt lat="46.33662" lon="-0.5136">
        <ele>34.7</ele>
        <time>2020-05-31T12:29:09Z</time>
      </trkpt>
      <trkpt lat="46.33659" lon="-0.51365">
        <ele>34.6</ele>
        <time>2020-05-31T12:29:10Z</time>
      </trkpt>
      <trkpt lat="46.33657" lon="-0.51371">
        <ele>34.6</ele>
        <time>2020-05-31T12:29:11Z</time>
      </trkpt>
      <trkpt lat="46.33655" lon="-0.51376">
        <ele>34.5</ele>
        <time>2020-05-31T12:29:12Z</time>
      </trkpt>
      <trkpt lat="46.33654" lon="-0.5138">
        <ele>34.4</ele>
        <time>2020-05-31T12:29:13Z</time>
      </trkpt>
      <trkpt lat="46.33652" lon="-0.51385">
        <ele>34.4</ele>
        <time>2020-05-31T12:29:14Z</time>
      </trkpt>
      <trkpt lat="46.3365" lon="-0.5139">
        <ele>34.3</ele>
        <time>2020-05-31T12:29:15Z</time>
      </trkpt>
      <trkpt lat="46.33648" lon="-0.51395">
        <ele>34.2</ele>
        <time>2020-05-31T12:29:16Z</time>
      </trkpt>
      <trkpt lat="46.33646" lon="-0.514">
        <ele>34.1</ele>
        <time>2020-05-31T12:29:17Z</time>
      </trkpt>
      <trkpt lat="46.33645" lon="-0.51405">
        <ele>34.1</ele>
        <time>2020-05-31T12:29:18Z</time>
      </trkpt>
      <trkpt lat="46.33644" lon="-0.51409">
        <ele>34</ele>
        <time>2020-05-31T12:29:19Z</time>
      </trkpt>
      <trkpt lat="46.33644" lon="-0.51412">
        <ele>34</ele>
        <time>2020-05-31T12:29:20Z</time>
      </trkpt>
      <trkpt lat="46.33643" lon="-0.51413">
        <ele>33.9</ele>
        <time>2020-05-31T12:29:21Z</time>
      </trkpt>
      <trkpt lat="46.33643" lon="-0.51413">
        <ele>33.9</ele>
        <time>2020-05-31T12:29:22Z</time>
      </trkpt>
      <trkpt lat="46.33644" lon="-0.51413">
        <ele>33.9</ele>
        <time>2020-05-31T12:29:23Z</time>
      </trkpt>
      <trkpt lat="46.33643" lon="-0.51413">
        <ele>33.9</ele>
        <time>2020-05-31T12:29:24Z</time>
      </trkpt>
      <trkpt lat="46.33643" lon="-0.51413">
        <ele>33.9</ele>
        <time>2020-05-31T12:29:25Z</time>
      </trkpt>
      <trkpt lat="46.33644" lon="-0.51413">
        <ele>33.9</ele>
        <time>2020-05-31T12:29:26Z</time>
      </trkpt>
      <trkpt lat="46.33644" lon="-0.51413">
        <ele>33.9</ele>
        <time>2020-05-31T12:29:27Z</time>
      </trkpt>
      <trkpt lat="46.33643" lon="-0.51413">
        <ele>33.9</ele>
        <time>2020-05-31T12:29:28Z</time>
      </trkpt>
      <trkpt lat="46.33643" lon="-0.51412">
        <ele>33.9</ele>
        <time>2020-05-31T12:29:29Z</time>
      </trkpt>
      <trkpt lat="46.33644" lon="-0.51412">
        <ele>33.9</ele>
        <time>2020-05-31T12:29:30Z</time>
      </trkpt>
      <trkpt lat="46.33644" lon="-0.51412">
        <ele>33.9</ele>
        <time>2020-05-31T12:29:31Z</time>
      </trkpt>
      <trkpt lat="46.33644" lon="-0.51412">
        <ele>33.9</ele>
        <time>2020-05-31T12:29:32Z</time>
      </trkpt>
      <trkpt lat="46.33644" lon="-0.51412">
        <ele>33.8</ele>
        <time>2020-05-31T12:29:33Z</time>
      </trkpt>
      <trkpt lat="46.33644" lon="-0.51412">
        <ele>33.8</ele>
        <time>2020-05-31T12:29:34Z</time>
      </trkpt>
      <trkpt lat="46.33645" lon="-0.51412">
        <ele>33.8</ele>
        <time>2020-05-31T12:29:35Z</time>
      </trkpt>
      <trkpt lat="46.33645" lon="-0.51412">
        <ele>33.8</ele>
        <time>2020-05-31T12:29:36Z</time>
      </trkpt>
      <trkpt lat="46.33645" lon="-0.51412">
        <ele>33.8</ele>
        <time>2020-05-31T12:29:37Z</time>
      </trkpt>
      <trkpt lat="46.33645" lon="-0.51412">
        <ele>33.8</ele>
        <time>2020-05-31T12:29:38Z</time>
      </trkpt>
      <trkpt lat="46.33646" lon="-0.51412">
        <ele>33.8</ele>
        <time>2020-05-31T12:29:39Z</time>
      </trkpt>
      <trkpt lat="46.33646" lon="-0.51412">
        <ele>33.8</ele>
        <time>2020-05-31T12:29:40Z</time>
      </trkpt>
      <trkpt lat="46.33645" lon="-0.51412">
        <ele>33.8</ele>
        <time>2020-05-31T12:29:41Z</time>
      </trkpt>
      <trkpt lat="46.33645" lon="-0.51412">
        <ele>33.8</ele>
        <time>2020-05-31T12:29:42Z</time>
      </trkpt>
      <trkpt lat="46.33644" lon="-0.51412">
        <ele>33.7</ele>
        <time>2020-05-31T12:29:43Z</time>
      </trkpt>
      <trkpt lat="46.33644" lon="-0.51412">
        <ele>33.7</ele>
        <time>2020-05-31T12:29:44Z</time>
      </trkpt>
      <trkpt lat="46.33643" lon="-0.51412">
        <ele>33.7</ele>
        <time>2020-05-31T12:29:45Z</time>
      </trkpt>
      <trkpt lat="46.33643" lon="-0.51412">
        <ele>33.7</ele>
        <time>2020-05-31T12:29:46Z</time>
      </trkpt>
      <trkpt lat="46.33642" lon="-0.51412">
        <ele>33.7</ele>
        <time>2020-05-31T12:29:47Z</time>
      </trkpt>
      <trkpt lat="46.33643" lon="-0.51412">
        <ele>33.7</ele>
        <time>2020-05-31T12:29:48Z</time>
      </trkpt>
      <trkpt lat="46.33643" lon="-0.51411">
        <ele>33.7</ele>
        <time>2020-05-31T12:29:49Z</time>
      </trkpt>
      <trkpt lat="46.33644" lon="-0.51412">
        <ele>33.6</ele>
        <time>2020-05-31T12:29:50Z</time>
      </trkpt>
      <trkpt lat="46.33644" lon="-0.51412">
        <ele>33.6</ele>
        <time>2020-05-31T12:29:51Z</time>
      </trkpt>
      <trkpt lat="46.33645" lon="-0.51412">
        <ele>33.6</ele>
        <time>2020-05-31T12:29:52Z</time>
      </trkpt>
      <trkpt lat="46.33645" lon="-0.51412">
        <ele>33.6</ele>
        <time>2020-05-31T12:29:53Z</time>
      </trkpt>
      <trkpt lat="46.33645" lon="-0.51412">
        <ele>33.6</ele>
        <time>2020-05-31T12:29:54Z</time>
      </trkpt>
      <trkpt lat="46.33646" lon="-0.51413">
        <ele>33.6</ele>
        <time>2020-05-31T12:29:55Z</time>
      </trkpt>
      <trkpt lat="46.33646" lon="-0.51413">
        <ele>33.6</ele>
        <time>2020-05-31T12:29:56Z</time>
      </trkpt>
      <trkpt lat="46.33647" lon="-0.51413">
        <ele>33.6</ele>
        <time>2020-05-31T12:29:57Z</time>
      </trkpt>
      <trkpt lat="46.33646" lon="-0.51414">
        <ele>33.6</ele>
        <time>2020-05-31T12:29:58Z</time>
      </trkpt>
      <trkpt lat="46.33647" lon="-0.51416">
        <ele>33.5</ele>
        <time>2020-05-31T12:29:59Z</time>
      </trkpt>
      <trkpt lat="46.33645" lon="-0.51417">
        <ele>33.5</ele>
        <time>2020-05-31T12:30:00Z</time>
      </trkpt>
      <trkpt lat="46.33642" lon="-0.5142">
        <ele>33.4</ele>
        <time>2020-05-31T12:30:01Z</time>
      </trkpt>
      <trkpt lat="46.33639" lon="-0.51423">
        <ele>33.2</ele>
        <time>2020-05-31T12:30:02Z</time>
      </trkpt>
      <trkpt lat="46.33636" lon="-0.51424">
        <ele>33.1</ele>
        <time>2020-05-31T12:30:03Z</time>
      </trkpt>
      <trkpt lat="46.33633" lon="-0.51426">
        <ele>33.1</ele>
        <time>2020-05-31T12:30:04Z</time>
      </trkpt>
      <trkpt lat="46.3363" lon="-0.51428">
        <ele>33</ele>
        <time>2020-05-31T12:30:05Z</time>
      </trkpt>
      <trkpt lat="46.33627" lon="-0.5143">
        <ele>32.9</ele>
        <time>2020-05-31T12:30:06Z</time>
      </trkpt>
      <trkpt lat="46.33624" lon="-0.51433">
        <ele>32.8</ele>
        <time>2020-05-31T12:30:07Z</time>
      </trkpt>
      <trkpt lat="46.33621" lon="-0.51437">
        <ele>32.7</ele>
        <time>2020-05-31T12:30:08Z</time>
      </trkpt>
      <trkpt lat="46.33618" lon="-0.51441">
        <ele>32.6</ele>
        <time>2020-05-31T12:30:09Z</time>
      </trkpt>
      <trkpt lat="46.33615" lon="-0.51446">
        <ele>32.5</ele>
        <time>2020-05-31T12:30:10Z</time>
      </trkpt>
      <trkpt lat="46.33612" lon="-0.51451">
        <ele>32.3</ele>
        <time>2020-05-31T12:30:11Z</time>
      </trkpt>
      <trkpt lat="46.33608" lon="-0.51455">
        <ele>32.2</ele>
        <time>2020-05-31T12:30:12Z</time>
      </trkpt>
      <trkpt lat="46.33605" lon="-0.5146">
        <ele>32.1</ele>
        <time>2020-05-31T12:30:13Z</time>
      </trkpt>
      <trkpt lat="46.33601" lon="-0.51464">
        <ele>32</ele>
        <time>2020-05-31T12:30:14Z</time>
      </trkpt>
      <trkpt lat="46.33597" lon="-0.51469">
        <ele>31.9</ele>
        <time>2020-05-31T12:30:15Z</time>
      </trkpt>
      <trkpt lat="46.33593" lon="-0.51475">
        <ele>31.8</ele>
        <time>2020-05-31T12:30:16Z</time>
      </trkpt>
      <trkpt lat="46.33589" lon="-0.5148">
        <ele>31.6</ele>
        <time>2020-05-31T12:30:17Z</time>
      </trkpt>
      <trkpt lat="46.33584" lon="-0.51485">
        <ele>31.5</ele>
        <time>2020-05-31T12:30:18Z</time>
      </trkpt>
      <trkpt lat="46.3358" lon="-0.5149">
        <ele>31.3</ele>
        <time>2020-05-31T12:30:19Z</time>
      </trkpt>
      <trkpt lat="46.33575" lon="-0.51496">
        <ele>31.2</ele>
        <time>2020-05-31T12:30:20Z</time>
      </trkpt>
      <trkpt lat="46.33571" lon="-0.51502">
        <ele>31</ele>
        <time>2020-05-31T12:30:21Z</time>
      </trkpt>
      <trkpt lat="46.33567" lon="-0.51508">
        <ele>30.9</ele>
        <time>2020-05-31T12:30:22Z</time>
      </trkpt>
      <trkpt lat="46.33562" lon="-0.51513">
        <ele>30.8</ele>
        <time>2020-05-31T12:30:23Z</time>
      </trkpt>
      <trkpt lat="46.33558" lon="-0.51519">
        <ele>30.7</ele>
        <time>2020-05-31T12:30:24Z</time>
      </trkpt>
      <trkpt lat="46.33553" lon="-0.51524">
        <ele>30.7</ele>
        <time>2020-05-31T12:30:25Z</time>
      </trkpt>
      <trkpt lat="46.33549" lon="-0.5153">
        <ele>30.7</ele>
        <time>2020-05-31T12:30:26Z</time>
      </trkpt>
      <trkpt lat="46.33544" lon="-0.51535">
        <ele>30.6</ele>
        <time>2020-05-31T12:30:27Z</time>
      </trkpt>
      <trkpt lat="46.3354" lon="-0.51541">
        <ele>30.5</ele>
        <time>2020-05-31T12:30:28Z</time>
      </trkpt>
      <trkpt lat="46.33535" lon="-0.51546">
        <ele>30.4</ele>
        <time>2020-05-31T12:30:29Z</time>
      </trkpt>
      <trkpt lat="46.3353" lon="-0.51551">
        <ele>30.2</ele>
        <time>2020-05-31T12:30:30Z</time>
      </trkpt>
      <trkpt lat="46.33525" lon="-0.51556">
        <ele>30.1</ele>
        <time>2020-05-31T12:30:31Z</time>
      </trkpt>
      <trkpt lat="46.3352" lon="-0.51561">
        <ele>29.9</ele>
        <time>2020-05-31T12:30:32Z</time>
      </trkpt>
      <trkpt lat="46.33514" lon="-0.51567">
        <ele>29.8</ele>
        <time>2020-05-31T12:30:33Z</time>
      </trkpt>
      <trkpt lat="46.33509" lon="-0.51573">
        <ele>29.6</ele>
        <time>2020-05-31T12:30:34Z</time>
      </trkpt>
      <trkpt lat="46.33504" lon="-0.51579">
        <ele>29.5</ele>
        <time>2020-05-31T12:30:35Z</time>
      </trkpt>
      <trkpt lat="46.33499" lon="-0.51585">
        <ele>29.3</ele>
        <time>2020-05-31T12:30:36Z</time>
      </trkpt>
      <trkpt lat="46.33494" lon="-0.51592">
        <ele>29.2</ele>
        <time>2020-05-31T12:30:37Z</time>
      </trkpt>
      <trkpt lat="46.33488" lon="-0.51598">
        <ele>29</ele>
        <time>2020-05-31T12:30:38Z</time>
      </trkpt>
      <trkpt lat="46.33482" lon="-0.51605">
        <ele>28.8</ele>
        <time>2020-05-31T12:30:39Z</time>
      </trkpt>
      <trkpt lat="46.33476" lon="-0.51611">
        <ele>28.5</ele>
        <time>2020-05-31T12:30:40Z</time>
      </trkpt>
      <trkpt lat="46.3347" lon="-0.51617">
        <ele>28.3</ele>
        <time>2020-05-31T12:30:41Z</time>
      </trkpt>
      <trkpt lat="46.33464" lon="-0.51624">
        <ele>28.1</ele>
        <time>2020-05-31T12:30:42Z</time>
      </trkpt>
      <trkpt lat="46.33458" lon="-0.51631">
        <ele>27.9</ele>
        <time>2020-05-31T12:30:43Z</time>
      </trkpt>
      <trkpt lat="46.33453" lon="-0.51638">
        <ele>27.7</ele>
        <time>2020-05-31T12:30:44Z</time>
      </trkpt>
      <trkpt lat="46.33447" lon="-0.51645">
        <ele>27.5</ele>
        <time>2020-05-31T12:30:45Z</time>
      </trkpt>
      <trkpt lat="46.33441" lon="-0.51653">
        <ele>27.4</ele>
        <time>2020-05-31T12:30:46Z</time>
      </trkpt>
      <trkpt lat="46.33435" lon="-0.5166">
        <ele>27.2</ele>
        <time>2020-05-31T12:30:47Z</time>
      </trkpt>
      <trkpt lat="46.33429" lon="-0.51667">
        <ele>27.1</ele>
        <time>2020-05-31T12:30:48Z</time>
      </trkpt>
      <trkpt lat="46.33422" lon="-0.51674">
        <ele>27</ele>
        <time>2020-05-31T12:30:49Z</time>
      </trkpt>
      <trkpt lat="46.33417" lon="-0.51681">
        <ele>26.9</ele>
        <time>2020-05-31T12:30:50Z</time>
      </trkpt>
      <trkpt lat="46.33411" lon="-0.51687">
        <ele>26.8</ele>
        <time>2020-05-31T12:30:51Z</time>
      </trkpt>
      <trkpt lat="46.33406" lon="-0.51693">
        <ele>26.7</ele>
        <time>2020-05-31T12:30:52Z</time>
      </trkpt>
      <trkpt lat="46.33401" lon="-0.51699">
        <ele>26.6</ele>
        <time>2020-05-31T12:30:53Z</time>
      </trkpt>
      <trkpt lat="46.33397" lon="-0.51704">
        <ele>26.5</ele>
        <time>2020-05-31T12:30:54Z</time>
      </trkpt>
      <trkpt lat="46.33393" lon="-0.51709">
        <ele>26.4</ele>
        <time>2020-05-31T12:30:55Z</time>
      </trkpt>
      <trkpt lat="46.33389" lon="-0.51713">
        <ele>26.3</ele>
        <time>2020-05-31T12:30:56Z</time>
      </trkpt>
      <trkpt lat="46.33386" lon="-0.51716">
        <ele>26.2</ele>
        <time>2020-05-31T12:30:57Z</time>
      </trkpt>
      <trkpt lat="46.33386" lon="-0.51718">
        <ele>26.2</ele>
        <time>2020-05-31T12:30:58Z</time>
      </trkpt>
      <trkpt lat="46.33387" lon="-0.51718">
        <ele>26.2</ele>
        <time>2020-05-31T12:30:59Z</time>
      </trkpt>
      <trkpt lat="46.33386" lon="-0.51719">
        <ele>26.2</ele>
        <time>2020-05-31T12:31:00Z</time>
      </trkpt>
      <trkpt lat="46.33385" lon="-0.51719">
        <ele>26.2</ele>
        <time>2020-05-31T12:31:01Z</time>
      </trkpt>
      <trkpt lat="46.33385" lon="-0.51718">
        <ele>26.2</ele>
        <time>2020-05-31T12:31:02Z</time>
      </trkpt>
      <trkpt lat="46.33385" lon="-0.51719">
        <ele>26.2</ele>
        <time>2020-05-31T12:31:03Z</time>
      </trkpt>
      <trkpt lat="46.33385" lon="-0.51719">
        <ele>26.2</ele>
        <time>2020-05-31T12:31:04Z</time>
      </trkpt>
      <trkpt lat="46.33385" lon="-0.51719">
        <ele>26.2</ele>
        <time>2020-05-31T12:31:05Z</time>
      </trkpt>
      <trkpt lat="46.33385" lon="-0.51719">
        <ele>26.2</ele>
        <time>2020-05-31T12:31:06Z</time>
      </trkpt>
      <trkpt lat="46.33384" lon="-0.51719">
        <ele>26.2</ele>
        <time>2020-05-31T12:31:07Z</time>
      </trkpt>
      <trkpt lat="46.33385" lon="-0.5172">
        <ele>26.1</ele>
        <time>2020-05-31T12:31:08Z</time>
      </trkpt>
      <trkpt lat="46.33384" lon="-0.51721">
        <ele>26.1</ele>
        <time>2020-05-31T12:31:09Z</time>
      </trkpt>
      <trkpt lat="46.33384" lon="-0.5172">
        <ele>26.1</ele>
        <time>2020-05-31T12:31:10Z</time>
      </trkpt>
      <trkpt lat="46.33384" lon="-0.51721">
        <ele>26.1</ele>
        <time>2020-05-31T12:31:11Z</time>
      </trkpt>
      <trkpt lat="46.33383" lon="-0.51723">
        <ele>26.1</ele>
        <time>2020-05-31T12:31:12Z</time>
      </trkpt>
      <trkpt lat="46.33382" lon="-0.51724">
        <ele>26.1</ele>
        <time>2020-05-31T12:31:13Z</time>
      </trkpt>
      <trkpt lat="46.33381" lon="-0.51726">
        <ele>26</ele>
        <time>2020-05-31T12:31:14Z</time>
      </trkpt>
      <trkpt lat="46.33379" lon="-0.51729">
        <ele>26</ele>
        <time>2020-05-31T12:31:15Z</time>
      </trkpt>
      <trkpt lat="46.33378" lon="-0.51731">
        <ele>26</ele>
        <time>2020-05-31T12:31:16Z</time>
      </trkpt>
      <trkpt lat="46.33375" lon="-0.51733">
        <ele>25.9</ele>
        <time>2020-05-31T12:31:17Z</time>
      </trkpt>
      <trkpt lat="46.33373" lon="-0.51736">
        <ele>25.9</ele>
        <time>2020-05-31T12:31:18Z</time>
      </trkpt>
      <trkpt lat="46.33371" lon="-0.51738">
        <ele>25.8</ele>
        <time>2020-05-31T12:31:19Z</time>
      </trkpt>
      <trkpt lat="46.33368" lon="-0.51742">
        <ele>25.8</ele>
        <time>2020-05-31T12:31:20Z</time>
      </trkpt>
      <trkpt lat="46.33365" lon="-0.51746">
        <ele>25.7</ele>
        <time>2020-05-31T12:31:21Z</time>
      </trkpt>
      <trkpt lat="46.33362" lon="-0.51751">
        <ele>25.6</ele>
        <time>2020-05-31T12:31:22Z</time>
      </trkpt>
      <trkpt lat="46.33359" lon="-0.51754">
        <ele>25.6</ele>
        <time>2020-05-31T12:31:23Z</time>
      </trkpt>
      <trkpt lat="46.33355" lon="-0.51758">
        <ele>25.5</ele>
        <time>2020-05-31T12:31:24Z</time>
      </trkpt>
      <trkpt lat="46.33352" lon="-0.51762">
        <ele>25.5</ele>
        <time>2020-05-31T12:31:25Z</time>
      </trkpt>
      <trkpt lat="46.33348" lon="-0.51767">
        <ele>25.5</ele>
        <time>2020-05-31T12:31:26Z</time>
      </trkpt>
      <trkpt lat="46.33344" lon="-0.51772">
        <ele>25.4</ele>
        <time>2020-05-31T12:31:27Z</time>
      </trkpt>
      <trkpt lat="46.33339" lon="-0.51777">
        <ele>25.4</ele>
        <time>2020-05-31T12:31:28Z</time>
      </trkpt>
      <trkpt lat="46.33334" lon="-0.51782">
        <ele>25.4</ele>
        <time>2020-05-31T12:31:29Z</time>
      </trkpt>
      <trkpt lat="46.3333" lon="-0.51789">
        <ele>25.3</ele>
        <time>2020-05-31T12:31:30Z</time>
      </trkpt>
      <trkpt lat="46.33325" lon="-0.51797">
        <ele>25.3</ele>
        <time>2020-05-31T12:31:31Z</time>
      </trkpt>
      <trkpt lat="46.3332" lon="-0.51803">
        <ele>25.3</ele>
        <time>2020-05-31T12:31:32Z</time>
      </trkpt>
      <trkpt lat="46.33314" lon="-0.51809">
        <ele>25.2</ele>
        <time>2020-05-31T12:31:33Z</time>
      </trkpt>
      <trkpt lat="46.33308" lon="-0.51816">
        <ele>25.1</ele>
        <time>2020-05-31T12:31:34Z</time>
      </trkpt>
      <trkpt lat="46.33303" lon="-0.51823">
        <ele>25</ele>
        <time>2020-05-31T12:31:35Z</time>
      </trkpt>
      <trkpt lat="46.33297" lon="-0.5183">
        <ele>24.9</ele>
        <time>2020-05-31T12:31:36Z</time>
      </trkpt>
      <trkpt lat="46.33291" lon="-0.51837">
        <ele>24.7</ele>
        <time>2020-05-31T12:31:37Z</time>
      </trkpt>
      <trkpt lat="46.33285" lon="-0.51843">
        <ele>24.5</ele>
        <time>2020-05-31T12:31:38Z</time>
      </trkpt>
      <trkpt lat="46.33279" lon="-0.5185">
        <ele>24.4</ele>
        <time>2020-05-31T12:31:39Z</time>
      </trkpt>
      <trkpt lat="46.33273" lon="-0.51856">
        <ele>24.3</ele>
        <time>2020-05-31T12:31:40Z</time>
      </trkpt>
      <trkpt lat="46.33267" lon="-0.51863">
        <ele>24.2</ele>
        <time>2020-05-31T12:31:41Z</time>
      </trkpt>
      <trkpt lat="46.33262" lon="-0.5187">
        <ele>24.2</ele>
        <time>2020-05-31T12:31:42Z</time>
      </trkpt>
      <trkpt lat="46.33256" lon="-0.51877">
        <ele>24.2</ele>
        <time>2020-05-31T12:31:43Z</time>
      </trkpt>
      <trkpt lat="46.33251" lon="-0.51884">
        <ele>24.1</ele>
        <time>2020-05-31T12:31:44Z</time>
      </trkpt>
      <trkpt lat="46.33245" lon="-0.51891">
        <ele>24.1</ele>
        <time>2020-05-31T12:31:45Z</time>
      </trkpt>
      <trkpt lat="46.3324" lon="-0.51897">
        <ele>24.1</ele>
        <time>2020-05-31T12:31:46Z</time>
      </trkpt>
      <trkpt lat="46.33235" lon="-0.51903">
        <ele>24.1</ele>
        <time>2020-05-31T12:31:47Z</time>
      </trkpt>
      <trkpt lat="46.3323" lon="-0.51909">
        <ele>24.1</ele>
        <time>2020-05-31T12:31:48Z</time>
      </trkpt>
      <trkpt lat="46.33225" lon="-0.51915">
        <ele>24</ele>
        <time>2020-05-31T12:31:49Z</time>
      </trkpt>
      <trkpt lat="46.3322" lon="-0.51921">
        <ele>24</ele>
        <time>2020-05-31T12:31:50Z</time>
      </trkpt>
      <trkpt lat="46.33216" lon="-0.51927">
        <ele>24</ele>
        <time>2020-05-31T12:31:51Z</time>
      </trkpt>
      <trkpt lat="46.33211" lon="-0.51933">
        <ele>24</ele>
        <time>2020-05-31T12:31:52Z</time>
      </trkpt>
      <trkpt lat="46.33207" lon="-0.51938">
        <ele>24</ele>
        <time>2020-05-31T12:31:53Z</time>
      </trkpt>
      <trkpt lat="46.33203" lon="-0.51944">
        <ele>24</ele>
        <time>2020-05-31T12:31:54Z</time>
      </trkpt>
      <trkpt lat="46.33198" lon="-0.51949">
        <ele>24</ele>
        <time>2020-05-31T12:31:55Z</time>
      </trkpt>
      <trkpt lat="46.33194" lon="-0.51954">
        <ele>24</ele>
        <time>2020-05-31T12:31:56Z</time>
      </trkpt>
      <trkpt lat="46.3319" lon="-0.5196">
        <ele>23.9</ele>
        <time>2020-05-31T12:31:57Z</time>
      </trkpt>
      <trkpt lat="46.33185" lon="-0.51965">
        <ele>23.9</ele>
        <time>2020-05-31T12:31:58Z</time>
      </trkpt>
      <trkpt lat="46.33181" lon="-0.5197">
        <ele>23.8</ele>
        <time>2020-05-31T12:31:59Z</time>
      </trkpt>
      <trkpt lat="46.33176" lon="-0.51976">
        <ele>23.8</ele>
        <time>2020-05-31T12:32:00Z</time>
      </trkpt>
      <trkpt lat="46.33172" lon="-0.51982">
        <ele>23.8</ele>
        <time>2020-05-31T12:32:01Z</time>
      </trkpt>
      <trkpt lat="46.33167" lon="-0.51988">
        <ele>23.7</ele>
        <time>2020-05-31T12:32:02Z</time>
      </trkpt>
      <trkpt lat="46.33162" lon="-0.51993">
        <ele>23.7</ele>
        <time>2020-05-31T12:32:03Z</time>
      </trkpt>
      <trkpt lat="46.33157" lon="-0.51999">
        <ele>23.6</ele>
        <time>2020-05-31T12:32:04Z</time>
      </trkpt>
      <trkpt lat="46.33153" lon="-0.52004">
        <ele>23.6</ele>
        <time>2020-05-31T12:32:05Z</time>
      </trkpt>
      <trkpt lat="46.33148" lon="-0.5201">
        <ele>23.6</ele>
        <time>2020-05-31T12:32:06Z</time>
      </trkpt>
      <trkpt lat="46.33144" lon="-0.52015">
        <ele>23.5</ele>
        <time>2020-05-31T12:32:07Z</time>
      </trkpt>
      <trkpt lat="46.33139" lon="-0.52019">
        <ele>23.5</ele>
        <time>2020-05-31T12:32:08Z</time>
      </trkpt>
      <trkpt lat="46.33134" lon="-0.52023">
        <ele>23.5</ele>
        <time>2020-05-31T12:32:09Z</time>
      </trkpt>
      <trkpt lat="46.3313" lon="-0.52026">
        <ele>23.5</ele>
        <time>2020-05-31T12:32:10Z</time>
      </trkpt>
      <trkpt lat="46.33126" lon="-0.5203">
        <ele>23.5</ele>
        <time>2020-05-31T12:32:11Z</time>
      </trkpt>
      <trkpt lat="46.33123" lon="-0.52034">
        <ele>23.4</ele>
        <time>2020-05-31T12:32:12Z</time>
      </trkpt>
      <trkpt lat="46.33119" lon="-0.52039">
        <ele>23.4</ele>
        <time>2020-05-31T12:32:13Z</time>
      </trkpt>
      <trkpt lat="46.33116" lon="-0.52043">
        <ele>23.4</ele>
        <time>2020-05-31T12:32:14Z</time>
      </trkpt>
      <trkpt lat="46.33112" lon="-0.52047">
        <ele>23.4</ele>
        <time>2020-05-31T12:32:15Z</time>
      </trkpt>
      <trkpt lat="46.33109" lon="-0.5205">
        <ele>23.4</ele>
        <time>2020-05-31T12:32:16Z</time>
      </trkpt>
      <trkpt lat="46.33105" lon="-0.52053">
        <ele>23.3</ele>
        <time>2020-05-31T12:32:17Z</time>
      </trkpt>
      <trkpt lat="46.33102" lon="-0.52055">
        <ele>23.2</ele>
        <time>2020-05-31T12:32:18Z</time>
      </trkpt>
      <trkpt lat="46.33099" lon="-0.52057">
        <ele>23.1</ele>
        <time>2020-05-31T12:32:19Z</time>
      </trkpt>
      <trkpt lat="46.33095" lon="-0.52059">
        <ele>23</ele>
        <time>2020-05-31T12:32:20Z</time>
      </trkpt>
      <trkpt lat="46.33092" lon="-0.5206">
        <ele>23</ele>
        <time>2020-05-31T12:32:21Z</time>
      </trkpt>
      <trkpt lat="46.33089" lon="-0.52061">
        <ele>22.9</ele>
        <time>2020-05-31T12:32:22Z</time>
      </trkpt>
      <trkpt lat="46.33086" lon="-0.52062">
        <ele>22.8</ele>
        <time>2020-05-31T12:32:23Z</time>
      </trkpt>
      <trkpt lat="46.33084" lon="-0.52063">
        <ele>22.8</ele>
        <time>2020-05-31T12:32:24Z</time>
      </trkpt>
      <trkpt lat="46.33083" lon="-0.52064">
        <ele>22.7</ele>
        <time>2020-05-31T12:32:25Z</time>
      </trkpt>
      <trkpt lat="46.33082" lon="-0.52064">
        <ele>22.7</ele>
        <time>2020-05-31T12:32:26Z</time>
      </trkpt>
      <trkpt lat="46.33082" lon="-0.52064">
        <ele>22.7</ele>
        <time>2020-05-31T12:32:27Z</time>
      </trkpt>
      <trkpt lat="46.33081" lon="-0.52064">
        <ele>22.7</ele>
        <time>2020-05-31T12:32:28Z</time>
      </trkpt>
      <trkpt lat="46.33081" lon="-0.52064">
        <ele>22.7</ele>
        <time>2020-05-31T12:32:29Z</time>
      </trkpt>
      <trkpt lat="46.33081" lon="-0.52064">
        <ele>22.7</ele>
        <time>2020-05-31T12:32:30Z</time>
      </trkpt>
      <trkpt lat="46.33081" lon="-0.52064">
        <ele>22.7</ele>
        <time>2020-05-31T12:32:31Z</time>
      </trkpt>
      <trkpt lat="46.3308" lon="-0.52064">
        <ele>22.6</ele>
        <time>2020-05-31T12:32:32Z</time>
      </trkpt>
      <trkpt lat="46.3308" lon="-0.52064">
        <ele>22.6</ele>
        <time>2020-05-31T12:32:33Z</time>
      </trkpt>
      <trkpt lat="46.3308" lon="-0.52064">
        <ele>22.6</ele>
        <time>2020-05-31T12:32:34Z</time>
      </trkpt>
      <trkpt lat="46.33079" lon="-0.52064">
        <ele>22.6</ele>
        <time>2020-05-31T12:32:35Z</time>
      </trkpt>
      <trkpt lat="46.33079" lon="-0.52064">
        <ele>22.6</ele>
        <time>2020-05-31T12:32:36Z</time>
      </trkpt>
      <trkpt lat="46.33079" lon="-0.52064">
        <ele>22.6</ele>
        <time>2020-05-31T12:32:37Z</time>
      </trkpt>
      <trkpt lat="46.33078" lon="-0.52065">
        <ele>22.6</ele>
        <time>2020-05-31T12:32:38Z</time>
      </trkpt>
      <trkpt lat="46.33076" lon="-0.52066">
        <ele>22.5</ele>
        <time>2020-05-31T12:32:39Z</time>
      </trkpt>
      <trkpt lat="46.33073" lon="-0.52069">
        <ele>22.4</ele>
        <time>2020-05-31T12:32:40Z</time>
      </trkpt>
      <trkpt lat="46.33072" lon="-0.52069">
        <ele>22.4</ele>
        <time>2020-05-31T12:32:41Z</time>
      </trkpt>
      <trkpt lat="46.33069" lon="-0.52073">
        <ele>22.3</ele>
        <time>2020-05-31T12:32:42Z</time>
      </trkpt>
      <trkpt lat="46.33068" lon="-0.52074">
        <ele>22.2</ele>
        <time>2020-05-31T12:32:43Z</time>
      </trkpt>
      <trkpt lat="46.33066" lon="-0.52076">
        <ele>22.1</ele>
        <time>2020-05-31T12:32:44Z</time>
      </trkpt>
      <trkpt lat="46.33063" lon="-0.52078">
        <ele>22</ele>
        <time>2020-05-31T12:32:45Z</time>
      </trkpt>
      <trkpt lat="46.3306" lon="-0.5208">
        <ele>21.9</ele>
        <time>2020-05-31T12:32:46Z</time>
      </trkpt>
      <trkpt lat="46.33057" lon="-0.52082">
        <ele>21.7</ele>
        <time>2020-05-31T12:32:47Z</time>
      </trkpt>
      <trkpt lat="46.33054" lon="-0.52086">
        <ele>21.4</ele>
        <time>2020-05-31T12:32:48Z</time>
      </trkpt>
      <trkpt lat="46.3305" lon="-0.52089">
        <ele>21.2</ele>
        <time>2020-05-31T12:32:49Z</time>
      </trkpt>
      <trkpt lat="46.33046" lon="-0.52092">
        <ele>20.9</ele>
        <time>2020-05-31T12:32:50Z</time>
      </trkpt>
      <trkpt lat="46.33041" lon="-0.52096">
        <ele>20.4</ele>
        <time>2020-05-31T12:32:51Z</time>
      </trkpt>
      <trkpt lat="46.33035" lon="-0.52099">
        <ele>20</ele>
        <time>2020-05-31T12:32:52Z</time>
      </trkpt>
      <trkpt lat="46.33028" lon="-0.52103">
        <ele>19.5</ele>
        <time>2020-05-31T12:32:53Z</time>
      </trkpt>
      <trkpt lat="46.33022" lon="-0.52107">
        <ele>19.1</ele>
        <time>2020-05-31T12:32:54Z</time>
      </trkpt>
      <trkpt lat="46.33015" lon="-0.5211">
        <ele>18.9</ele>
        <time>2020-05-31T12:32:55Z</time>
      </trkpt>
      <trkpt lat="46.33008" lon="-0.52115">
        <ele>18.9</ele>
        <time>2020-05-31T12:32:56Z</time>
      </trkpt>
      <trkpt lat="46.33" lon="-0.5212">
        <ele>18.9</ele>
        <time>2020-05-31T12:32:57Z</time>
      </trkpt>
      <trkpt lat="46.32994" lon="-0.52124">
        <ele>19</ele>
        <time>2020-05-31T12:32:58Z</time>
      </trkpt>
      <trkpt lat="46.32988" lon="-0.52128">
        <ele>19</ele>
        <time>2020-05-31T12:32:59Z</time>
      </trkpt>
      <trkpt lat="46.32984" lon="-0.52133">
        <ele>19</ele>
        <time>2020-05-31T12:33:00Z</time>
      </trkpt>
      <trkpt lat="46.32979" lon="-0.52137">
        <ele>19.1</ele>
        <time>2020-05-31T12:33:01Z</time>
      </trkpt>
      <trkpt lat="46.32974" lon="-0.52141">
        <ele>19.1</ele>
        <time>2020-05-31T12:33:02Z</time>
      </trkpt>
      <trkpt lat="46.3297" lon="-0.52144">
        <ele>19.1</ele>
        <time>2020-05-31T12:33:03Z</time>
      </trkpt>
      <trkpt lat="46.32966" lon="-0.52147">
        <ele>19.1</ele>
        <time>2020-05-31T12:33:04Z</time>
      </trkpt>
      <trkpt lat="46.32963" lon="-0.52149">
        <ele>19.1</ele>
        <time>2020-05-31T12:33:05Z</time>
      </trkpt>
      <trkpt lat="46.3296" lon="-0.52151">
        <ele>19.1</ele>
        <time>2020-05-31T12:33:06Z</time>
      </trkpt>
      <trkpt lat="46.32958" lon="-0.52153">
        <ele>19.1</ele>
        <time>2020-05-31T12:33:07Z</time>
      </trkpt>
      <trkpt lat="46.32955" lon="-0.52156">
        <ele>19.1</ele>
        <time>2020-05-31T12:33:08Z</time>
      </trkpt>
      <trkpt lat="46.32954" lon="-0.52157">
        <ele>19.1</ele>
        <time>2020-05-31T12:33:09Z</time>
      </trkpt>
      <trkpt lat="46.32953" lon="-0.52157">
        <ele>19.1</ele>
        <time>2020-05-31T12:33:10Z</time>
      </trkpt>
      <trkpt lat="46.32953" lon="-0.52156">
        <ele>19.1</ele>
        <time>2020-05-31T12:33:11Z</time>
      </trkpt>
      <trkpt lat="46.32953" lon="-0.52156">
        <ele>19.1</ele>
        <time>2020-05-31T12:33:12Z</time>
      </trkpt>
      <trkpt lat="46.32953" lon="-0.52155">
        <ele>19.1</ele>
        <time>2020-05-31T12:33:13Z</time>
      </trkpt>
      <trkpt lat="46.32952" lon="-0.52154">
        <ele>19.1</ele>
        <time>2020-05-31T12:33:14Z</time>
      </trkpt>
      <trkpt lat="46.32951" lon="-0.52153">
        <ele>19.1</ele>
        <time>2020-05-31T12:33:15Z</time>
      </trkpt>
      <trkpt lat="46.32951" lon="-0.52152">
        <ele>19.1</ele>
        <time>2020-05-31T12:33:16Z</time>
      </trkpt>
      <trkpt lat="46.32951" lon="-0.52152">
        <ele>19.1</ele>
        <time>2020-05-31T12:33:17Z</time>
      </trkpt>
      <trkpt lat="46.32951" lon="-0.52153">
        <ele>19.1</ele>
        <time>2020-05-31T12:33:18Z</time>
      </trkpt>
      <trkpt lat="46.32951" lon="-0.52152">
        <ele>19.1</ele>
        <time>2020-05-31T12:33:19Z</time>
      </trkpt>
      <trkpt lat="46.32951" lon="-0.52151">
        <ele>19.1</ele>
        <time>2020-05-31T12:33:20Z</time>
      </trkpt>
      <trkpt lat="46.32951" lon="-0.5215">
        <ele>19.1</ele>
        <time>2020-05-31T12:33:21Z</time>
      </trkpt>
      <trkpt lat="46.32951" lon="-0.5215">
        <ele>19.1</ele>
        <time>2020-05-31T12:33:22Z</time>
      </trkpt>
      <trkpt lat="46.32951" lon="-0.5215">
        <ele>19.1</ele>
        <time>2020-05-31T12:33:23Z</time>
      </trkpt>
      <trkpt lat="46.32951" lon="-0.52151">
        <ele>19.1</ele>
        <time>2020-05-31T12:33:24Z</time>
      </trkpt>
      <trkpt lat="46.32951" lon="-0.52152">
        <ele>19.1</ele>
        <time>2020-05-31T12:33:25Z</time>
      </trkpt>
      <trkpt lat="46.32951" lon="-0.52153">
        <ele>19.1</ele>
        <time>2020-05-31T12:33:26Z</time>
      </trkpt>
      <trkpt lat="46.32951" lon="-0.52153">
        <ele>19.1</ele>
        <time>2020-05-31T12:33:27Z</time>
      </trkpt>
      <trkpt lat="46.32951" lon="-0.52154">
        <ele>19.1</ele>
        <time>2020-05-31T12:33:28Z</time>
      </trkpt>
      <trkpt lat="46.32951" lon="-0.52154">
        <ele>19.1</ele>
        <time>2020-05-31T12:33:29Z</time>
      </trkpt>
      <trkpt lat="46.32952" lon="-0.52154">
        <ele>19.1</ele>
        <time>2020-05-31T12:33:30Z</time>
      </trkpt>
      <trkpt lat="46.32951" lon="-0.52154">
        <ele>19.1</ele>
        <time>2020-05-31T12:33:31Z</time>
      </trkpt>
      <trkpt lat="46.32951" lon="-0.52154">
        <ele>19.1</ele>
        <time>2020-05-31T12:33:32Z</time>
      </trkpt>
      <trkpt lat="46.32951" lon="-0.52153">
        <ele>19.1</ele>
        <time>2020-05-31T12:33:33Z</time>
      </trkpt>
      <trkpt lat="46.32952" lon="-0.52154">
        <ele>19.1</ele>
        <time>2020-05-31T12:33:34Z</time>
      </trkpt>
      <trkpt lat="46.32951" lon="-0.52153">
        <ele>19.1</ele>
        <time>2020-05-31T12:33:35Z</time>
      </trkpt>
      <trkpt lat="46.32952" lon="-0.52154">
        <ele>19.1</ele>
        <time>2020-05-31T12:33:36Z</time>
      </trkpt>
      <trkpt lat="46.32952" lon="-0.52154">
        <ele>19.1</ele>
        <time>2020-05-31T12:33:37Z</time>
      </trkpt>
      <trkpt lat="46.32952" lon="-0.52154">
        <ele>19.1</ele>
        <time>2020-05-31T12:33:38Z</time>
      </trkpt>
      <trkpt lat="46.32952" lon="-0.52157">
        <ele>19.1</ele>
        <time>2020-05-31T12:33:39Z</time>
      </trkpt>
      <trkpt lat="46.32952" lon="-0.52156">
        <ele>19.1</ele>
        <time>2020-05-31T12:33:40Z</time>
      </trkpt>
      <trkpt lat="46.32952" lon="-0.52157">
        <ele>19.1</ele>
        <time>2020-05-31T12:33:41Z</time>
      </trkpt>
      <trkpt lat="46.32952" lon="-0.52158">
        <ele>19.1</ele>
        <time>2020-05-31T12:33:42Z</time>
      </trkpt>
      <trkpt lat="46.32951" lon="-0.52157">
        <ele>19.1</ele>
        <time>2020-05-31T12:33:43Z</time>
      </trkpt>
      <trkpt lat="46.32951" lon="-0.52157">
        <ele>19.1</ele>
        <time>2020-05-31T12:33:44Z</time>
      </trkpt>
      <trkpt lat="46.32951" lon="-0.52157">
        <ele>19.1</ele>
        <time>2020-05-31T12:33:45Z</time>
      </trkpt>
      <trkpt lat="46.32951" lon="-0.52158">
        <ele>19.1</ele>
        <time>2020-05-31T12:33:46Z</time>
      </trkpt>
      <trkpt lat="46.32951" lon="-0.52157">
        <ele>19.1</ele>
        <time>2020-05-31T12:33:47Z</time>
      </trkpt>
      <trkpt lat="46.3295" lon="-0.52157">
        <ele>19.1</ele>
        <time>2020-05-31T12:33:48Z</time>
      </trkpt>
      <trkpt lat="46.3295" lon="-0.52157">
        <ele>19.1</ele>
        <time>2020-05-31T12:33:49Z</time>
      </trkpt>
      <trkpt lat="46.3295" lon="-0.52157">
        <ele>19.1</ele>
        <time>2020-05-31T12:33:50Z</time>
      </trkpt>
      <trkpt lat="46.3295" lon="-0.52156">
        <ele>19.1</ele>
        <time>2020-05-31T12:33:51Z</time>
      </trkpt>
      <trkpt lat="46.3295" lon="-0.52156">
        <ele>19.1</ele>
        <time>2020-05-31T12:33:52Z</time>
      </trkpt>
      <trkpt lat="46.3295" lon="-0.52156">
        <ele>19.1</ele>
        <time>2020-05-31T12:33:53Z</time>
      </trkpt>
      <trkpt lat="46.3295" lon="-0.52156">
        <ele>19.1</ele>
        <time>2020-05-31T12:33:54Z</time>
      </trkpt>
      <trkpt lat="46.3295" lon="-0.52157">
        <ele>19.1</ele>
        <time>2020-05-31T12:33:55Z</time>
      </trkpt>
      <trkpt lat="46.3295" lon="-0.52158">
        <ele>19.1</ele>
        <time>2020-05-31T12:33:56Z</time>
      </trkpt>
      <trkpt lat="46.32951" lon="-0.52159">
        <ele>19.1</ele>
        <time>2020-05-31T12:33:57Z</time>
      </trkpt>
      <trkpt lat="46.32952" lon="-0.52161">
        <ele>19.1</ele>
        <time>2020-05-31T12:33:58Z</time>
      </trkpt>
      <trkpt lat="46.32955" lon="-0.52161">
        <ele>19</ele>
        <time>2020-05-31T12:33:59Z</time>
      </trkpt>
      <trkpt lat="46.32956" lon="-0.52161">
        <ele>19</ele>
        <time>2020-05-31T12:34:00Z</time>
      </trkpt>
      <trkpt lat="46.32959" lon="-0.52164">
        <ele>18.9</ele>
        <time>2020-05-31T12:34:01Z</time>
      </trkpt>
      <trkpt lat="46.32959" lon="-0.52165">
        <ele>18.9</ele>
        <time>2020-05-31T12:34:02Z</time>
      </trkpt>
      <trkpt lat="46.32962" lon="-0.52169">
        <ele>18.9</ele>
        <time>2020-05-31T12:34:03Z</time>
      </trkpt>
      <trkpt lat="46.32963" lon="-0.5217">
        <ele>18.8</ele>
        <time>2020-05-31T12:34:04Z</time>
      </trkpt>
      <trkpt lat="46.32965" lon="-0.52174">
        <ele>18.7</ele>
        <time>2020-05-31T12:34:05Z</time>
      </trkpt>
      <trkpt lat="46.32966" lon="-0.52176">
        <ele>18.7</ele>
        <time>2020-05-31T12:34:06Z</time>
      </trkpt>
      <trkpt lat="46.32967" lon="-0.5218">
        <ele>18.6</ele>
        <time>2020-05-31T12:34:07Z</time>
      </trkpt>
      <trkpt lat="46.32968" lon="-0.52185">
        <ele>18.4</ele>
        <time>2020-05-31T12:34:08Z</time>
      </trkpt>
      <trkpt lat="46.32969" lon="-0.52191">
        <ele>18.2</ele>
        <time>2020-05-31T12:34:09Z</time>
      </trkpt>
      <trkpt lat="46.32971" lon="-0.52197">
        <ele>17.9</ele>
        <time>2020-05-31T12:34:10Z</time>
      </trkpt>
      <trkpt lat="46.32973" lon="-0.52203">
        <ele>17.5</ele>
        <time>2020-05-31T12:34:11Z</time>
      </trkpt>
      <trkpt lat="46.32976" lon="-0.52211">
        <ele>17</ele>
        <time>2020-05-31T12:34:12Z</time>
      </trkpt>
      <trkpt lat="46.32978" lon="-0.52219">
        <ele>16.5</ele>
        <time>2020-05-31T12:34:13Z</time>
      </trkpt>
      <trkpt lat="46.32981" lon="-0.52229">
        <ele>15.9</ele>
        <time>2020-05-31T12:34:14Z</time>
      </trkpt>
      <trkpt lat="46.32982" lon="-0.5224">
        <ele>15.2</ele>
        <time>2020-05-31T12:34:15Z</time>
      </trkpt>
      <trkpt lat="46.32984" lon="-0.52251">
        <ele>14.6</ele>
        <time>2020-05-31T12:34:16Z</time>
      </trkpt>
      <trkpt lat="46.32986" lon="-0.52262">
        <ele>14.1</ele>
        <time>2020-05-31T12:34:17Z</time>
      </trkpt>
      <trkpt lat="46.32989" lon="-0.52274">
        <ele>13.5</ele>
        <time>2020-05-31T12:34:18Z</time>
      </trkpt>
      <trkpt lat="46.32992" lon="-0.52285">
        <ele>13.1</ele>
        <time>2020-05-31T12:34:19Z</time>
      </trkpt>
      <trkpt lat="46.32994" lon="-0.52297">
        <ele>12.8</ele>
        <time>2020-05-31T12:34:20Z</time>
      </trkpt>
      <trkpt lat="46.32996" lon="-0.52309">
        <ele>12.6</ele>
        <time>2020-05-31T12:34:21Z</time>
      </trkpt>
      <trkpt lat="46.32998" lon="-0.52322">
        <ele>12.4</ele>
        <time>2020-05-31T12:34:22Z</time>
      </trkpt>
      <trkpt lat="46.33" lon="-0.52334">
        <ele>12.2</ele>
        <time>2020-05-31T12:34:23Z</time>
      </trkpt>
      <trkpt lat="46.33003" lon="-0.52346">
        <ele>12</ele>
        <time>2020-05-31T12:34:24Z</time>
      </trkpt>
      <trkpt lat="46.33005" lon="-0.52358">
        <ele>11.8</ele>
        <time>2020-05-31T12:34:25Z</time>
      </trkpt>
      <trkpt lat="46.33009" lon="-0.52368">
        <ele>11.7</ele>
        <time>2020-05-31T12:34:26Z</time>
      </trkpt>
      <trkpt lat="46.33013" lon="-0.52379">
        <ele>11.5</ele>
        <time>2020-05-31T12:34:27Z</time>
      </trkpt>
      <trkpt lat="46.33016" lon="-0.52389">
        <ele>11.3</ele>
        <time>2020-05-31T12:34:28Z</time>
      </trkpt>
      <trkpt lat="46.3302" lon="-0.52399">
        <ele>11.2</ele>
        <time>2020-05-31T12:34:29Z</time>
      </trkpt>
      <trkpt lat="46.33023" lon="-0.52409">
        <ele>11.1</ele>
        <time>2020-05-31T12:34:30Z</time>
      </trkpt>
      <trkpt lat="46.33027" lon="-0.52419">
        <ele>10.9</ele>
        <time>2020-05-31T12:34:31Z</time>
      </trkpt>
      <trkpt lat="46.3303" lon="-0.52428">
        <ele>10.8</ele>
        <time>2020-05-31T12:34:32Z</time>
      </trkpt>
      <trkpt lat="46.33033" lon="-0.52438">
        <ele>10.7</ele>
        <time>2020-05-31T12:34:33Z</time>
      </trkpt>
      <trkpt lat="46.33037" lon="-0.52447">
        <ele>10.7</ele>
        <time>2020-05-31T12:34:34Z</time>
      </trkpt>
      <trkpt lat="46.33039" lon="-0.52457">
        <ele>10.6</ele>
        <time>2020-05-31T12:34:35Z</time>
      </trkpt>
      <trkpt lat="46.33042" lon="-0.52466">
        <ele>10.6</ele>
        <time>2020-05-31T12:34:36Z</time>
      </trkpt>
      <trkpt lat="46.33045" lon="-0.52475">
        <ele>10.5</ele>
        <time>2020-05-31T12:34:37Z</time>
      </trkpt>
      <trkpt lat="46.33048" lon="-0.52484">
        <ele>10.4</ele>
        <time>2020-05-31T12:34:38Z</time>
      </trkpt>
      <trkpt lat="46.33051" lon="-0.52493">
        <ele>10.3</ele>
        <time>2020-05-31T12:34:39Z</time>
      </trkpt>
      <trkpt lat="46.33054" lon="-0.52501">
        <ele>10.2</ele>
        <time>2020-05-31T12:34:40Z</time>
      </trkpt>
      <trkpt lat="46.33058" lon="-0.52509">
        <ele>10.2</ele>
        <time>2020-05-31T12:34:41Z</time>
      </trkpt>
      <trkpt lat="46.33061" lon="-0.52518">
        <ele>10.1</ele>
        <time>2020-05-31T12:34:42Z</time>
      </trkpt>
      <trkpt lat="46.33064" lon="-0.52526">
        <ele>10.1</ele>
        <time>2020-05-31T12:34:43Z</time>
      </trkpt>
      <trkpt lat="46.33067" lon="-0.52534">
        <ele>10.1</ele>
        <time>2020-05-31T12:34:44Z</time>
      </trkpt>
      <trkpt lat="46.33069" lon="-0.52542">
        <ele>10.1</ele>
        <time>2020-05-31T12:34:45Z</time>
      </trkpt>
      <trkpt lat="46.3307" lon="-0.5255">
        <ele>10.1</ele>
        <time>2020-05-31T12:34:46Z</time>
      </trkpt>
      <trkpt lat="46.33072" lon="-0.52558">
        <ele>10.1</ele>
        <time>2020-05-31T12:34:47Z</time>
      </trkpt>
      <trkpt lat="46.33074" lon="-0.52566">
        <ele>10.1</ele>
        <time>2020-05-31T12:34:48Z</time>
      </trkpt>
      <trkpt lat="46.33076" lon="-0.52573">
        <ele>10.1</ele>
        <time>2020-05-31T12:34:49Z</time>
      </trkpt>
      <trkpt lat="46.33078" lon="-0.5258">
        <ele>10.1</ele>
        <time>2020-05-31T12:34:50Z</time>
      </trkpt>
      <trkpt lat="46.3308" lon="-0.52587">
        <ele>10.1</ele>
        <time>2020-05-31T12:34:51Z</time>
      </trkpt>
      <trkpt lat="46.33082" lon="-0.52595">
        <ele>10.1</ele>
        <time>2020-05-31T12:34:52Z</time>
      </trkpt>
      <trkpt lat="46.33084" lon="-0.52602">
        <ele>10.1</ele>
        <time>2020-05-31T12:34:53Z</time>
      </trkpt>
      <trkpt lat="46.33086" lon="-0.5261">
        <ele>10.1</ele>
        <time>2020-05-31T12:34:54Z</time>
      </trkpt>
      <trkpt lat="46.33088" lon="-0.52618">
        <ele>10</ele>
        <time>2020-05-31T12:34:55Z</time>
      </trkpt>
      <trkpt lat="46.3309" lon="-0.52626">
        <ele>10</ele>
        <time>2020-05-31T12:34:56Z</time>
      </trkpt>
      <trkpt lat="46.33092" lon="-0.52634">
        <ele>9.9</ele>
        <time>2020-05-31T12:34:57Z</time>
      </trkpt>
      <trkpt lat="46.33094" lon="-0.52642">
        <ele>9.9</ele>
        <time>2020-05-31T12:34:58Z</time>
      </trkpt>
      <trkpt lat="46.33097" lon="-0.5265">
        <ele>9.8</ele>
        <time>2020-05-31T12:34:59Z</time>
      </trkpt>
      <trkpt lat="46.33099" lon="-0.52658">
        <ele>9.8</ele>
        <time>2020-05-31T12:35:00Z</time>
      </trkpt>
      <trkpt lat="46.33102" lon="-0.52666">
        <ele>9.7</ele>
        <time>2020-05-31T12:35:01Z</time>
      </trkpt>
      <trkpt lat="46.33104" lon="-0.52674">
        <ele>9.6</ele>
        <time>2020-05-31T12:35:02Z</time>
      </trkpt>
      <trkpt lat="46.33107" lon="-0.52682">
        <ele>9.6</ele>
        <time>2020-05-31T12:35:03Z</time>
      </trkpt>
      <trkpt lat="46.3311" lon="-0.5269">
        <ele>9.5</ele>
        <time>2020-05-31T12:35:04Z</time>
      </trkpt>
      <trkpt lat="46.33113" lon="-0.52698">
        <ele>9.5</ele>
        <time>2020-05-31T12:35:05Z</time>
      </trkpt>
      <trkpt lat="46.33115" lon="-0.52707">
        <ele>9.4</ele>
        <time>2020-05-31T12:35:06Z</time>
      </trkpt>
      <trkpt lat="46.33117" lon="-0.52716">
        <ele>9.4</ele>
        <time>2020-05-31T12:35:07Z</time>
      </trkpt>
      <trkpt lat="46.3312" lon="-0.52726">
        <ele>9.3</ele>
        <time>2020-05-31T12:35:08Z</time>
      </trkpt>
      <trkpt lat="46.33123" lon="-0.52735">
        <ele>9.3</ele>
        <time>2020-05-31T12:35:09Z</time>
      </trkpt>
      <trkpt lat="46.33125" lon="-0.52744">
        <ele>9.3</ele>
        <time>2020-05-31T12:35:10Z</time>
      </trkpt>
      <trkpt lat="46.33128" lon="-0.52753">
        <ele>9.2</ele>
        <time>2020-05-31T12:35:11Z</time>
      </trkpt>
      <trkpt lat="46.33131" lon="-0.52762">
        <ele>9.2</ele>
        <time>2020-05-31T12:35:12Z</time>
      </trkpt>
      <trkpt lat="46.33135" lon="-0.52771">
        <ele>9.2</ele>
        <time>2020-05-31T12:35:13Z</time>
      </trkpt>
      <trkpt lat="46.33139" lon="-0.52779">
        <ele>9.2</ele>
        <time>2020-05-31T12:35:14Z</time>
      </trkpt>
      <trkpt lat="46.33143" lon="-0.52788">
        <ele>9.1</ele>
        <time>2020-05-31T12:35:15Z</time>
      </trkpt>
      <trkpt lat="46.33146" lon="-0.52796">
        <ele>9.1</ele>
        <time>2020-05-31T12:35:16Z</time>
      </trkpt>
      <trkpt lat="46.3315" lon="-0.52805">
        <ele>9.1</ele>
        <time>2020-05-31T12:35:17Z</time>
      </trkpt>
      <trkpt lat="46.33153" lon="-0.52813">
        <ele>9</ele>
        <time>2020-05-31T12:35:18Z</time>
      </trkpt>
      <trkpt lat="46.33156" lon="-0.52821">
        <ele>9</ele>
        <time>2020-05-31T12:35:19Z</time>
      </trkpt>
      <trkpt lat="46.33159" lon="-0.52829">
        <ele>8.9</ele>
        <time>2020-05-31T12:35:20Z</time>
      </trkpt>
      <trkpt lat="46.33162" lon="-0.52838">
        <ele>8.8</ele>
        <time>2020-05-31T12:35:21Z</time>
      </trkpt>
      <trkpt lat="46.33164" lon="-0.52846">
        <ele>8.7</ele>
        <time>2020-05-31T12:35:22Z</time>
      </trkpt>
      <trkpt lat="46.33165" lon="-0.52856">
        <ele>8.5</ele>
        <time>2020-05-31T12:35:23Z</time>
      </trkpt>
      <trkpt lat="46.33164" lon="-0.52865">
        <ele>8.3</ele>
        <time>2020-05-31T12:35:24Z</time>
      </trkpt>
      <trkpt lat="46.33161" lon="-0.52873">
        <ele>8.1</ele>
        <time>2020-05-31T12:35:25Z</time>
      </trkpt>
      <trkpt lat="46.33156" lon="-0.52881">
        <ele>7.9</ele>
        <time>2020-05-31T12:35:26Z</time>
      </trkpt>
      <trkpt lat="46.33151" lon="-0.52887">
        <ele>7.7</ele>
        <time>2020-05-31T12:35:27Z</time>
      </trkpt>
      <trkpt lat="46.33145" lon="-0.52894">
        <ele>7.6</ele>
        <time>2020-05-31T12:35:28Z</time>
      </trkpt>
      <trkpt lat="46.33139" lon="-0.529">
        <ele>7.4</ele>
        <time>2020-05-31T12:35:29Z</time>
      </trkpt>
      <trkpt lat="46.33134" lon="-0.52906">
        <ele>7.3</ele>
        <time>2020-05-31T12:35:30Z</time>
      </trkpt>
      <trkpt lat="46.33128" lon="-0.52913">
        <ele>7.2</ele>
        <time>2020-05-31T12:35:31Z</time>
      </trkpt>
      <trkpt lat="46.33123" lon="-0.52918">
        <ele>7.1</ele>
        <time>2020-05-31T12:35:32Z</time>
      </trkpt>
      <trkpt lat="46.33118" lon="-0.52925">
        <ele>7</ele>
        <time>2020-05-31T12:35:33Z</time>
      </trkpt>
      <trkpt lat="46.33113" lon="-0.52931">
        <ele>7</ele>
        <time>2020-05-31T12:35:34Z</time>
      </trkpt>
      <trkpt lat="46.33109" lon="-0.52936">
        <ele>7</ele>
        <time>2020-05-31T12:35:35Z</time>
      </trkpt>
      <trkpt lat="46.33105" lon="-0.52941">
        <ele>7</ele>
        <time>2020-05-31T12:35:36Z</time>
      </trkpt>
      <trkpt lat="46.33102" lon="-0.52948">
        <ele>7</ele>
        <time>2020-05-31T12:35:37Z</time>
      </trkpt>
      <trkpt lat="46.33103" lon="-0.52955">
        <ele>7</ele>
        <time>2020-05-31T12:35:38Z</time>
      </trkpt>
      <trkpt lat="46.33106" lon="-0.5296">
        <ele>7.1</ele>
        <time>2020-05-31T12:35:39Z</time>
      </trkpt>
      <trkpt lat="46.3311" lon="-0.52966">
        <ele>7.1</ele>
        <time>2020-05-31T12:35:40Z</time>
      </trkpt>
      <trkpt lat="46.33113" lon="-0.52969">
        <ele>7.2</ele>
        <time>2020-05-31T12:35:41Z</time>
      </trkpt>
      <trkpt lat="46.33117" lon="-0.52972">
        <ele>7.3</ele>
        <time>2020-05-31T12:35:42Z</time>
      </trkpt>
      <trkpt lat="46.3312" lon="-0.52976">
        <ele>7.4</ele>
        <time>2020-05-31T12:35:43Z</time>
      </trkpt>
      <trkpt lat="46.33122" lon="-0.5298">
        <ele>7.5</ele>
        <time>2020-05-31T12:35:44Z</time>
      </trkpt>
      <trkpt lat="46.33124" lon="-0.52983">
        <ele>7.5</ele>
        <time>2020-05-31T12:35:45Z</time>
      </trkpt>
      <trkpt lat="46.33127" lon="-0.52988">
        <ele>7.6</ele>
        <time>2020-05-31T12:35:46Z</time>
      </trkpt>
      <trkpt lat="46.33129" lon="-0.52992">
        <ele>7.7</ele>
        <time>2020-05-31T12:35:47Z</time>
      </trkpt>
      <trkpt lat="46.33131" lon="-0.52995">
        <ele>7.7</ele>
        <time>2020-05-31T12:35:48Z</time>
      </trkpt>
      <trkpt lat="46.33134" lon="-0.52999">
        <ele>7.8</ele>
        <time>2020-05-31T12:35:49Z</time>
      </trkpt>
      <trkpt lat="46.33136" lon="-0.53003">
        <ele>7.8</ele>
        <time>2020-05-31T12:35:50Z</time>
      </trkpt>
      <trkpt lat="46.33139" lon="-0.53006">
        <ele>7.8</ele>
        <time>2020-05-31T12:35:51Z</time>
      </trkpt>
      <trkpt lat="46.33141" lon="-0.5301">
        <ele>7.8</ele>
        <time>2020-05-31T12:35:52Z</time>
      </trkpt>
      <trkpt lat="46.33143" lon="-0.53013">
        <ele>7.9</ele>
        <time>2020-05-31T12:35:53Z</time>
      </trkpt>
      <trkpt lat="46.33145" lon="-0.53018">
        <ele>7.9</ele>
        <time>2020-05-31T12:35:54Z</time>
      </trkpt>
      <trkpt lat="46.33148" lon="-0.53023">
        <ele>7.9</ele>
        <time>2020-05-31T12:35:55Z</time>
      </trkpt>
      <trkpt lat="46.3315" lon="-0.53028">
        <ele>7.9</ele>
        <time>2020-05-31T12:35:56Z</time>
      </trkpt>
      <trkpt lat="46.33153" lon="-0.53032">
        <ele>7.9</ele>
        <time>2020-05-31T12:35:57Z</time>
      </trkpt>
      <trkpt lat="46.33157" lon="-0.53037">
        <ele>7.9</ele>
        <time>2020-05-31T12:35:58Z</time>
      </trkpt>
      <trkpt lat="46.33159" lon="-0.53042">
        <ele>8</ele>
        <time>2020-05-31T12:35:59Z</time>
      </trkpt>
      <trkpt lat="46.33161" lon="-0.53046">
        <ele>8</ele>
        <time>2020-05-31T12:36:00Z</time>
      </trkpt>
      <trkpt lat="46.33163" lon="-0.53051">
        <ele>8</ele>
        <time>2020-05-31T12:36:01Z</time>
      </trkpt>
      <trkpt lat="46.33165" lon="-0.53055">
        <ele>8</ele>
        <time>2020-05-31T12:36:02Z</time>
      </trkpt>
      <trkpt lat="46.33167" lon="-0.5306">
        <ele>8</ele>
        <time>2020-05-31T12:36:03Z</time>
      </trkpt>
      <trkpt lat="46.33169" lon="-0.53064">
        <ele>8</ele>
        <time>2020-05-31T12:36:04Z</time>
      </trkpt>
      <trkpt lat="46.33171" lon="-0.53069">
        <ele>8</ele>
        <time>2020-05-31T12:36:05Z</time>
      </trkpt>
      <trkpt lat="46.33174" lon="-0.53073">
        <ele>8</ele>
        <time>2020-05-31T12:36:06Z</time>
      </trkpt>
      <trkpt lat="46.33178" lon="-0.53077">
        <ele>8</ele>
        <time>2020-05-31T12:36:07Z</time>
      </trkpt>
      <trkpt lat="46.33181" lon="-0.5308">
        <ele>8</ele>
        <time>2020-05-31T12:36:08Z</time>
      </trkpt>
      <trkpt lat="46.33184" lon="-0.53083">
        <ele>8</ele>
        <time>2020-05-31T12:36:09Z</time>
      </trkpt>
      <trkpt lat="46.33186" lon="-0.53087">
        <ele>8</ele>
        <time>2020-05-31T12:36:10Z</time>
      </trkpt>
      <trkpt lat="46.33189" lon="-0.53091">
        <ele>8</ele>
        <time>2020-05-31T12:36:11Z</time>
      </trkpt>
      <trkpt lat="46.33192" lon="-0.53095">
        <ele>8</ele>
        <time>2020-05-31T12:36:12Z</time>
      </trkpt>
      <trkpt lat="46.33195" lon="-0.53099">
        <ele>8</ele>
        <time>2020-05-31T12:36:13Z</time>
      </trkpt>
      <trkpt lat="46.33198" lon="-0.53103">
        <ele>7.9</ele>
        <time>2020-05-31T12:36:14Z</time>
      </trkpt>
      <trkpt lat="46.332" lon="-0.53106">
        <ele>7.9</ele>
        <time>2020-05-31T12:36:15Z</time>
      </trkpt>
      <trkpt lat="46.33203" lon="-0.5311">
        <ele>7.9</ele>
        <time>2020-05-31T12:36:16Z</time>
      </trkpt>
      <trkpt lat="46.33204" lon="-0.53114">
        <ele>7.9</ele>
        <time>2020-05-31T12:36:17Z</time>
      </trkpt>
      <trkpt lat="46.33206" lon="-0.53118">
        <ele>7.9</ele>
        <time>2020-05-31T12:36:18Z</time>
      </trkpt>
      <trkpt lat="46.33207" lon="-0.53123">
        <ele>7.8</ele>
        <time>2020-05-31T12:36:19Z</time>
      </trkpt>
      <trkpt lat="46.33209" lon="-0.53129">
        <ele>7.8</ele>
        <time>2020-05-31T12:36:20Z</time>
      </trkpt>
      <trkpt lat="46.33211" lon="-0.53134">
        <ele>7.8</ele>
        <time>2020-05-31T12:36:21Z</time>
      </trkpt>
      <trkpt lat="46.33213" lon="-0.5314">
        <ele>7.7</ele>
        <time>2020-05-31T12:36:22Z</time>
      </trkpt>
      <trkpt lat="46.33214" lon="-0.53145">
        <ele>7.7</ele>
        <time>2020-05-31T12:36:23Z</time>
      </trkpt>
      <trkpt lat="46.33216" lon="-0.5315">
        <ele>7.6</ele>
        <time>2020-05-31T12:36:24Z</time>
      </trkpt>
      <trkpt lat="46.33217" lon="-0.53154">
        <ele>7.6</ele>
        <time>2020-05-31T12:36:25Z</time>
      </trkpt>
      <trkpt lat="46.33218" lon="-0.53159">
        <ele>7.5</ele>
        <time>2020-05-31T12:36:26Z</time>
      </trkpt>
      <trkpt lat="46.33219" lon="-0.53164">
        <ele>7.5</ele>
        <time>2020-05-31T12:36:27Z</time>
      </trkpt>
      <trkpt lat="46.3322" lon="-0.53168">
        <ele>7.4</ele>
        <time>2020-05-31T12:36:28Z</time>
      </trkpt>
      <trkpt lat="46.33222" lon="-0.53172">
        <ele>7.4</ele>
        <time>2020-05-31T12:36:29Z</time>
      </trkpt>
      <trkpt lat="46.33223" lon="-0.53177">
        <ele>7.4</ele>
        <time>2020-05-31T12:36:30Z</time>
      </trkpt>
      <trkpt lat="46.33224" lon="-0.53183">
        <ele>7.3</ele>
        <time>2020-05-31T12:36:31Z</time>
      </trkpt>
      <trkpt lat="46.33225" lon="-0.53189">
        <ele>7.2</ele>
        <time>2020-05-31T12:36:32Z</time>
      </trkpt>
      <trkpt lat="46.33228" lon="-0.53193">
        <ele>7.2</ele>
        <time>2020-05-31T12:36:33Z</time>
      </trkpt>
      <trkpt lat="46.3323" lon="-0.53198">
        <ele>7.2</ele>
        <time>2020-05-31T12:36:34Z</time>
      </trkpt>
      <trkpt lat="46.33232" lon="-0.53203">
        <ele>7.2</ele>
        <time>2020-05-31T12:36:35Z</time>
      </trkpt>
      <trkpt lat="46.33234" lon="-0.53208">
        <ele>7.1</ele>
        <time>2020-05-31T12:36:36Z</time>
      </trkpt>
      <trkpt lat="46.33237" lon="-0.53211">
        <ele>7.1</ele>
        <time>2020-05-31T12:36:37Z</time>
      </trkpt>
      <trkpt lat="46.3324" lon="-0.53216">
        <ele>7.1</ele>
        <time>2020-05-31T12:36:38Z</time>
      </trkpt>
      <trkpt lat="46.33241" lon="-0.53222">
        <ele>7.1</ele>
        <time>2020-05-31T12:36:39Z</time>
      </trkpt>
      <trkpt lat="46.33244" lon="-0.53228">
        <ele>7.1</ele>
        <time>2020-05-31T12:36:40Z</time>
      </trkpt>
      <trkpt lat="46.33246" lon="-0.53233">
        <ele>7.1</ele>
        <time>2020-05-31T12:36:41Z</time>
      </trkpt>
      <trkpt lat="46.33249" lon="-0.5324">
        <ele>7.1</ele>
        <time>2020-05-31T12:36:42Z</time>
      </trkpt>
      <trkpt lat="46.33251" lon="-0.53246">
        <ele>7.1</ele>
        <time>2020-05-31T12:36:43Z</time>
      </trkpt>
      <trkpt lat="46.33253" lon="-0.53252">
        <ele>7.1</ele>
        <time>2020-05-31T12:36:44Z</time>
      </trkpt>
      <trkpt lat="46.33255" lon="-0.53258">
        <ele>7.1</ele>
        <time>2020-05-31T12:36:45Z</time>
      </trkpt>
      <trkpt lat="46.33257" lon="-0.53265">
        <ele>7.1</ele>
        <time>2020-05-31T12:36:46Z</time>
      </trkpt>
      <trkpt lat="46.33259" lon="-0.53271">
        <ele>7.1</ele>
        <time>2020-05-31T12:36:47Z</time>
      </trkpt>
      <trkpt lat="46.33262" lon="-0.53275">
        <ele>7.1</ele>
        <time>2020-05-31T12:36:48Z</time>
      </trkpt>
      <trkpt lat="46.33264" lon="-0.53281">
        <ele>7.1</ele>
        <time>2020-05-31T12:36:49Z</time>
      </trkpt>
      <trkpt lat="46.33267" lon="-0.53286">
        <ele>7.1</ele>
        <time>2020-05-31T12:36:50Z</time>
      </trkpt>
      <trkpt lat="46.3327" lon="-0.53291">
        <ele>7.2</ele>
        <time>2020-05-31T12:36:51Z</time>
      </trkpt>
      <trkpt lat="46.33272" lon="-0.53298">
        <ele>7.2</ele>
        <time>2020-05-31T12:36:52Z</time>
      </trkpt>
      <trkpt lat="46.33274" lon="-0.53303">
        <ele>7.2</ele>
        <time>2020-05-31T12:36:53Z</time>
      </trkpt>
      <trkpt lat="46.33276" lon="-0.5331">
        <ele>7.2</ele>
        <time>2020-05-31T12:36:54Z</time>
      </trkpt>
      <trkpt lat="46.33277" lon="-0.53316">
        <ele>7.2</ele>
        <time>2020-05-31T12:36:55Z</time>
      </trkpt>
      <trkpt lat="46.3328" lon="-0.53321">
        <ele>7.3</ele>
        <time>2020-05-31T12:36:56Z</time>
      </trkpt>
      <trkpt lat="46.33282" lon="-0.53327">
        <ele>7.3</ele>
        <time>2020-05-31T12:36:57Z</time>
      </trkpt>
      <trkpt lat="46.33283" lon="-0.53333">
        <ele>7.3</ele>
        <time>2020-05-31T12:36:58Z</time>
      </trkpt>
      <trkpt lat="46.33285" lon="-0.53339">
        <ele>7.3</ele>
        <time>2020-05-31T12:36:59Z</time>
      </trkpt>
      <trkpt lat="46.33287" lon="-0.53345">
        <ele>7.4</ele>
        <time>2020-05-31T12:37:00Z</time>
      </trkpt>
      <trkpt lat="46.33289" lon="-0.5335">
        <ele>7.4</ele>
        <time>2020-05-31T12:37:01Z</time>
      </trkpt>
      <trkpt lat="46.33292" lon="-0.53355">
        <ele>7.4</ele>
        <time>2020-05-31T12:37:02Z</time>
      </trkpt>
      <trkpt lat="46.33294" lon="-0.53361">
        <ele>7.5</ele>
        <time>2020-05-31T12:37:03Z</time>
      </trkpt>
      <trkpt lat="46.33296" lon="-0.53368">
        <ele>7.5</ele>
        <time>2020-05-31T12:37:04Z</time>
      </trkpt>
      <trkpt lat="46.33298" lon="-0.53375">
        <ele>7.5</ele>
        <time>2020-05-31T12:37:05Z</time>
      </trkpt>
      <trkpt lat="46.333" lon="-0.53381">
        <ele>7.6</ele>
        <time>2020-05-31T12:37:06Z</time>
      </trkpt>
      <trkpt lat="46.33303" lon="-0.53387">
        <ele>7.6</ele>
        <time>2020-05-31T12:37:07Z</time>
      </trkpt>
      <trkpt lat="46.33305" lon="-0.53392">
        <ele>7.7</ele>
        <time>2020-05-31T12:37:08Z</time>
      </trkpt>
      <trkpt lat="46.33307" lon="-0.53398">
        <ele>7.7</ele>
        <time>2020-05-31T12:37:09Z</time>
      </trkpt>
      <trkpt lat="46.33309" lon="-0.53404">
        <ele>7.8</ele>
        <time>2020-05-31T12:37:10Z</time>
      </trkpt>
      <trkpt lat="46.33311" lon="-0.5341">
        <ele>7.8</ele>
        <time>2020-05-31T12:37:11Z</time>
      </trkpt>
      <trkpt lat="46.33312" lon="-0.53417">
        <ele>7.9</ele>
        <time>2020-05-31T12:37:12Z</time>
      </trkpt>
      <trkpt lat="46.33314" lon="-0.53423">
        <ele>7.9</ele>
        <time>2020-05-31T12:37:13Z</time>
      </trkpt>
      <trkpt lat="46.33315" lon="-0.53429">
        <ele>7.9</ele>
        <time>2020-05-31T12:37:14Z</time>
      </trkpt>
      <trkpt lat="46.33318" lon="-0.53434">
        <ele>7.9</ele>
        <time>2020-05-31T12:37:15Z</time>
      </trkpt>
      <trkpt lat="46.3332" lon="-0.53441">
        <ele>7.9</ele>
        <time>2020-05-31T12:37:16Z</time>
      </trkpt>
      <trkpt lat="46.33322" lon="-0.53447">
        <ele>7.9</ele>
        <time>2020-05-31T12:37:17Z</time>
      </trkpt>
      <trkpt lat="46.33324" lon="-0.53454">
        <ele>7.9</ele>
        <time>2020-05-31T12:37:18Z</time>
      </trkpt>
      <trkpt lat="46.33326" lon="-0.53461">
        <ele>7.9</ele>
        <time>2020-05-31T12:37:19Z</time>
      </trkpt>
      <trkpt lat="46.33329" lon="-0.53467">
        <ele>7.9</ele>
        <time>2020-05-31T12:37:20Z</time>
      </trkpt>
      <trkpt lat="46.33331" lon="-0.53473">
        <ele>7.9</ele>
        <time>2020-05-31T12:37:21Z</time>
      </trkpt>
      <trkpt lat="46.33332" lon="-0.53479">
        <ele>7.9</ele>
        <time>2020-05-31T12:37:22Z</time>
      </trkpt>
      <trkpt lat="46.33334" lon="-0.53486">
        <ele>7.9</ele>
        <time>2020-05-31T12:37:23Z</time>
      </trkpt>
      <trkpt lat="46.33336" lon="-0.53492">
        <ele>7.9</ele>
        <time>2020-05-31T12:37:24Z</time>
      </trkpt>
      <trkpt lat="46.33337" lon="-0.53498">
        <ele>7.9</ele>
        <time>2020-05-31T12:37:25Z</time>
      </trkpt>
      <trkpt lat="46.33338" lon="-0.53505">
        <ele>7.9</ele>
        <time>2020-05-31T12:37:26Z</time>
      </trkpt>
      <trkpt lat="46.33339" lon="-0.53511">
        <ele>7.9</ele>
        <time>2020-05-31T12:37:27Z</time>
      </trkpt>
      <trkpt lat="46.3334" lon="-0.53518">
        <ele>7.9</ele>
        <time>2020-05-31T12:37:28Z</time>
      </trkpt>
      <trkpt lat="46.33341" lon="-0.53525">
        <ele>7.9</ele>
        <time>2020-05-31T12:37:29Z</time>
      </trkpt>
      <trkpt lat="46.33342" lon="-0.53531">
        <ele>7.9</ele>
        <time>2020-05-31T12:37:30Z</time>
      </trkpt>
      <trkpt lat="46.33343" lon="-0.53536">
        <ele>7.9</ele>
        <time>2020-05-31T12:37:31Z</time>
      </trkpt>
      <trkpt lat="46.33343" lon="-0.53541">
        <ele>8</ele>
        <time>2020-05-31T12:37:32Z</time>
      </trkpt>
      <trkpt lat="46.33344" lon="-0.53543">
        <ele>8</ele>
        <time>2020-05-31T12:37:33Z</time>
      </trkpt>
      <trkpt lat="46.33344" lon="-0.53543">
        <ele>8</ele>
        <time>2020-05-31T12:37:34Z</time>
      </trkpt>
      <trkpt lat="46.33344" lon="-0.53543">
        <ele>8</ele>
        <time>2020-05-31T12:37:35Z</time>
      </trkpt>
      <trkpt lat="46.33345" lon="-0.53543">
        <ele>8</ele>
        <time>2020-05-31T12:37:36Z</time>
      </trkpt>
      <trkpt lat="46.33345" lon="-0.53543">
        <ele>8</ele>
        <time>2020-05-31T12:37:37Z</time>
      </trkpt>
      <trkpt lat="46.33345" lon="-0.53543">
        <ele>8</ele>
        <time>2020-05-31T12:37:38Z</time>
      </trkpt>
      <trkpt lat="46.33346" lon="-0.53543">
        <ele>8</ele>
        <time>2020-05-31T12:37:39Z</time>
      </trkpt>
      <trkpt lat="46.33345" lon="-0.53544">
        <ele>8</ele>
        <time>2020-05-31T12:37:40Z</time>
      </trkpt>
      <trkpt lat="46.33345" lon="-0.53544">
        <ele>8</ele>
        <time>2020-05-31T12:37:41Z</time>
      </trkpt>
      <trkpt lat="46.33345" lon="-0.53544">
        <ele>8</ele>
        <time>2020-05-31T12:37:42Z</time>
      </trkpt>
      <trkpt lat="46.33345" lon="-0.53544">
        <ele>8</ele>
        <time>2020-05-31T12:37:43Z</time>
      </trkpt>
      <trkpt lat="46.33346" lon="-0.53544">
        <ele>8</ele>
        <time>2020-05-31T12:37:44Z</time>
      </trkpt>
      <trkpt lat="46.33346" lon="-0.53545">
        <ele>8</ele>
        <time>2020-05-31T12:37:45Z</time>
      </trkpt>
      <trkpt lat="46.33346" lon="-0.53545">
        <ele>8</ele>
        <time>2020-05-31T12:37:46Z</time>
      </trkpt>
      <trkpt lat="46.33346" lon="-0.53545">
        <ele>8</ele>
        <time>2020-05-31T12:37:47Z</time>
      </trkpt>
      <trkpt lat="46.33347" lon="-0.53544">
        <ele>8</ele>
        <time>2020-05-31T12:37:48Z</time>
      </trkpt>
      <trkpt lat="46.33347" lon="-0.53544">
        <ele>8</ele>
        <time>2020-05-31T12:37:49Z</time>
      </trkpt>
      <trkpt lat="46.33347" lon="-0.53545">
        <ele>8</ele>
        <time>2020-05-31T12:37:50Z</time>
      </trkpt>
      <trkpt lat="46.33347" lon="-0.53545">
        <ele>8</ele>
        <time>2020-05-31T12:37:51Z</time>
      </trkpt>
      <trkpt lat="46.33348" lon="-0.53546">
        <ele>8</ele>
        <time>2020-05-31T12:37:52Z</time>
      </trkpt>
      <trkpt lat="46.33347" lon="-0.53546">
        <ele>8</ele>
        <time>2020-05-31T12:37:53Z</time>
      </trkpt>
      <trkpt lat="46.33347" lon="-0.53546">
        <ele>8</ele>
        <time>2020-05-31T12:37:54Z</time>
      </trkpt>
      <trkpt lat="46.33347" lon="-0.53546">
        <ele>8</ele>
        <time>2020-05-31T12:37:55Z</time>
      </trkpt>
      <trkpt lat="46.33346" lon="-0.53547">
        <ele>8</ele>
        <time>2020-05-31T12:37:56Z</time>
      </trkpt>
      <trkpt lat="46.33345" lon="-0.53547">
        <ele>8</ele>
        <time>2020-05-31T12:37:57Z</time>
      </trkpt>
      <trkpt lat="46.33345" lon="-0.53548">
        <ele>8</ele>
        <time>2020-05-31T12:37:58Z</time>
      </trkpt>
      <trkpt lat="46.33344" lon="-0.53548">
        <ele>8</ele>
        <time>2020-05-31T12:37:59Z</time>
      </trkpt>
      <trkpt lat="46.33343" lon="-0.53549">
        <ele>8</ele>
        <time>2020-05-31T12:38:00Z</time>
      </trkpt>
      <trkpt lat="46.33343" lon="-0.53549">
        <ele>8</ele>
        <time>2020-05-31T12:38:01Z</time>
      </trkpt>
      <trkpt lat="46.33343" lon="-0.5355">
        <ele>8</ele>
        <time>2020-05-31T12:38:02Z</time>
      </trkpt>
      <trkpt lat="46.33344" lon="-0.53549">
        <ele>8</ele>
        <time>2020-05-31T12:38:03Z</time>
      </trkpt>
      <trkpt lat="46.33345" lon="-0.53549">
        <ele>8.1</ele>
        <time>2020-05-31T12:38:04Z</time>
      </trkpt>
      <trkpt lat="46.33345" lon="-0.53549">
        <ele>8.1</ele>
        <time>2020-05-31T12:38:05Z</time>
      </trkpt>
      <trkpt lat="46.33345" lon="-0.53549">
        <ele>8.1</ele>
        <time>2020-05-31T12:38:06Z</time>
      </trkpt>
      <trkpt lat="46.33345" lon="-0.53549">
        <ele>8.1</ele>
        <time>2020-05-31T12:38:07Z</time>
      </trkpt>
      <trkpt lat="46.33345" lon="-0.53549">
        <ele>8.1</ele>
        <time>2020-05-31T12:38:08Z</time>
      </trkpt>
      <trkpt lat="46.33345" lon="-0.53549">
        <ele>8.1</ele>
        <time>2020-05-31T12:38:09Z</time>
      </trkpt>
      <trkpt lat="46.33345" lon="-0.5355">
        <ele>8.1</ele>
        <time>2020-05-31T12:38:10Z</time>
      </trkpt>
      <trkpt lat="46.33346" lon="-0.53551">
        <ele>8.1</ele>
        <time>2020-05-31T12:38:11Z</time>
      </trkpt>
      <trkpt lat="46.33347" lon="-0.53553">
        <ele>8.1</ele>
        <time>2020-05-31T12:38:12Z</time>
      </trkpt>
      <trkpt lat="46.33347" lon="-0.53556">
        <ele>8.2</ele>
        <time>2020-05-31T12:38:13Z</time>
      </trkpt>
      <trkpt lat="46.33347" lon="-0.53561">
        <ele>8.2</ele>
        <time>2020-05-31T12:38:14Z</time>
      </trkpt>
      <trkpt lat="46.33347" lon="-0.53563">
        <ele>8.3</ele>
        <time>2020-05-31T12:38:15Z</time>
      </trkpt>
      <trkpt lat="46.33347" lon="-0.53568">
        <ele>8.3</ele>
        <time>2020-05-31T12:38:16Z</time>
      </trkpt>
      <trkpt lat="46.33349" lon="-0.53573">
        <ele>8.4</ele>
        <time>2020-05-31T12:38:17Z</time>
      </trkpt>
      <trkpt lat="46.3335" lon="-0.53578">
        <ele>8.5</ele>
        <time>2020-05-31T12:38:18Z</time>
      </trkpt>
      <trkpt lat="46.33351" lon="-0.53583">
        <ele>8.6</ele>
        <time>2020-05-31T12:38:19Z</time>
      </trkpt>
      <trkpt lat="46.33352" lon="-0.53587">
        <ele>8.6</ele>
        <time>2020-05-31T12:38:20Z</time>
      </trkpt>
      <trkpt lat="46.33354" lon="-0.53593">
        <ele>8.7</ele>
        <time>2020-05-31T12:38:21Z</time>
      </trkpt>
      <trkpt lat="46.33357" lon="-0.536">
        <ele>8.8</ele>
        <time>2020-05-31T12:38:22Z</time>
      </trkpt>
      <trkpt lat="46.33359" lon="-0.53607">
        <ele>8.9</ele>
        <time>2020-05-31T12:38:23Z</time>
      </trkpt>
      <trkpt lat="46.33361" lon="-0.53614">
        <ele>8.9</ele>
        <time>2020-05-31T12:38:24Z</time>
      </trkpt>
      <trkpt lat="46.33363" lon="-0.53621">
        <ele>9</ele>
        <time>2020-05-31T12:38:25Z</time>
      </trkpt>
      <trkpt lat="46.33365" lon="-0.53627">
        <ele>9.1</ele>
        <time>2020-05-31T12:38:26Z</time>
      </trkpt>
      <trkpt lat="46.33368" lon="-0.53634">
        <ele>9.2</ele>
        <time>2020-05-31T12:38:27Z</time>
      </trkpt>
      <trkpt lat="46.3337" lon="-0.53641">
        <ele>9.3</ele>
        <time>2020-05-31T12:38:28Z</time>
      </trkpt>
      <trkpt lat="46.33373" lon="-0.53648">
        <ele>9.4</ele>
        <time>2020-05-31T12:38:29Z</time>
      </trkpt>
      <trkpt lat="46.33375" lon="-0.53654">
        <ele>9.5</ele>
        <time>2020-05-31T12:38:30Z</time>
      </trkpt>
      <trkpt lat="46.33378" lon="-0.53661">
        <ele>9.6</ele>
        <time>2020-05-31T12:38:31Z</time>
      </trkpt>
      <trkpt lat="46.3338" lon="-0.53667">
        <ele>9.7</ele>
        <time>2020-05-31T12:38:32Z</time>
      </trkpt>
      <trkpt lat="46.33383" lon="-0.53673">
        <ele>9.8</ele>
        <time>2020-05-31T12:38:33Z</time>
      </trkpt>
      <trkpt lat="46.33385" lon="-0.53679">
        <ele>9.9</ele>
        <time>2020-05-31T12:38:34Z</time>
      </trkpt>
      <trkpt lat="46.33387" lon="-0.53684">
        <ele>9.9</ele>
        <time>2020-05-31T12:38:35Z</time>
      </trkpt>
      <trkpt lat="46.33389" lon="-0.53688">
        <ele>10</ele>
        <time>2020-05-31T12:38:36Z</time>
      </trkpt>
      <trkpt lat="46.33391" lon="-0.53693">
        <ele>10.1</ele>
        <time>2020-05-31T12:38:37Z</time>
      </trkpt>
      <trkpt lat="46.33393" lon="-0.53698">
        <ele>10.1</ele>
        <time>2020-05-31T12:38:38Z</time>
      </trkpt>
      <trkpt lat="46.33395" lon="-0.53704">
        <ele>10.2</ele>
        <time>2020-05-31T12:38:39Z</time>
      </trkpt>
      <trkpt lat="46.33396" lon="-0.53708">
        <ele>10.3</ele>
        <time>2020-05-31T12:38:40Z</time>
      </trkpt>
      <trkpt lat="46.33398" lon="-0.53712">
        <ele>10.3</ele>
        <time>2020-05-31T12:38:41Z</time>
      </trkpt>
      <trkpt lat="46.334" lon="-0.53717">
        <ele>10.4</ele>
        <time>2020-05-31T12:38:42Z</time>
      </trkpt>
      <trkpt lat="46.33402" lon="-0.53723">
        <ele>10.5</ele>
        <time>2020-05-31T12:38:43Z</time>
      </trkpt>
      <trkpt lat="46.33405" lon="-0.53728">
        <ele>10.5</ele>
        <time>2020-05-31T12:38:44Z</time>
      </trkpt>
      <trkpt lat="46.33407" lon="-0.53733">
        <ele>10.6</ele>
        <time>2020-05-31T12:38:45Z</time>
      </trkpt>
      <trkpt lat="46.33409" lon="-0.53739">
        <ele>10.6</ele>
        <time>2020-05-31T12:38:46Z</time>
      </trkpt>
      <trkpt lat="46.33412" lon="-0.53744">
        <ele>10.7</ele>
        <time>2020-05-31T12:38:47Z</time>
      </trkpt>
      <trkpt lat="46.33415" lon="-0.53751">
        <ele>10.8</ele>
        <time>2020-05-31T12:38:48Z</time>
      </trkpt>
      <trkpt lat="46.33417" lon="-0.53755">
        <ele>10.8</ele>
        <time>2020-05-31T12:38:49Z</time>
      </trkpt>
      <trkpt lat="46.3342" lon="-0.53761">
        <ele>10.9</ele>
        <time>2020-05-31T12:38:50Z</time>
      </trkpt>
      <trkpt lat="46.33422" lon="-0.53766">
        <ele>10.9</ele>
        <time>2020-05-31T12:38:51Z</time>
      </trkpt>
      <trkpt lat="46.33424" lon="-0.53772">
        <ele>11</ele>
        <time>2020-05-31T12:38:52Z</time>
      </trkpt>
      <trkpt lat="46.33426" lon="-0.53777">
        <ele>11.1</ele>
        <time>2020-05-31T12:38:53Z</time>
      </trkpt>
      <trkpt lat="46.33428" lon="-0.53782">
        <ele>11.1</ele>
        <time>2020-05-31T12:38:54Z</time>
      </trkpt>
      <trkpt lat="46.3343" lon="-0.53787">
        <ele>11.2</ele>
        <time>2020-05-31T12:38:55Z</time>
      </trkpt>
      <trkpt lat="46.33433" lon="-0.53793">
        <ele>11.3</ele>
        <time>2020-05-31T12:38:56Z</time>
      </trkpt>
      <trkpt lat="46.33435" lon="-0.53799">
        <ele>11.3</ele>
        <time>2020-05-31T12:38:57Z</time>
      </trkpt>
      <trkpt lat="46.33437" lon="-0.53805">
        <ele>11.4</ele>
        <time>2020-05-31T12:38:58Z</time>
      </trkpt>
      <trkpt lat="46.33439" lon="-0.53811">
        <ele>11.5</ele>
        <time>2020-05-31T12:38:59Z</time>
      </trkpt>
      <trkpt lat="46.33441" lon="-0.53817">
        <ele>11.5</ele>
        <time>2020-05-31T12:39:00Z</time>
      </trkpt>
      <trkpt lat="46.33443" lon="-0.53823">
        <ele>11.6</ele>
        <time>2020-05-31T12:39:01Z</time>
      </trkpt>
      <trkpt lat="46.33445" lon="-0.53829">
        <ele>11.6</ele>
        <time>2020-05-31T12:39:02Z</time>
      </trkpt>
      <trkpt lat="46.33447" lon="-0.53835">
        <ele>11.7</ele>
        <time>2020-05-31T12:39:03Z</time>
      </trkpt>
      <trkpt lat="46.3345" lon="-0.53841">
        <ele>11.7</ele>
        <time>2020-05-31T12:39:04Z</time>
      </trkpt>
      <trkpt lat="46.33451" lon="-0.53845">
        <ele>11.8</ele>
        <time>2020-05-31T12:39:05Z</time>
      </trkpt>
      <trkpt lat="46.33453" lon="-0.53849">
        <ele>11.8</ele>
        <time>2020-05-31T12:39:06Z</time>
      </trkpt>
      <trkpt lat="46.33454" lon="-0.53854">
        <ele>11.9</ele>
        <time>2020-05-31T12:39:07Z</time>
      </trkpt>
      <trkpt lat="46.33455" lon="-0.53859">
        <ele>11.9</ele>
        <time>2020-05-31T12:39:08Z</time>
      </trkpt>
      <trkpt lat="46.33457" lon="-0.53866">
        <ele>12</ele>
        <time>2020-05-31T12:39:09Z</time>
      </trkpt>
      <trkpt lat="46.33459" lon="-0.53871">
        <ele>12.1</ele>
        <time>2020-05-31T12:39:10Z</time>
      </trkpt>
      <trkpt lat="46.33461" lon="-0.53879">
        <ele>12.1</ele>
        <time>2020-05-31T12:39:11Z</time>
      </trkpt>
      <trkpt lat="46.33463" lon="-0.53885">
        <ele>12.2</ele>
        <time>2020-05-31T12:39:12Z</time>
      </trkpt>
      <trkpt lat="46.33465" lon="-0.53891">
        <ele>12.2</ele>
        <time>2020-05-31T12:39:13Z</time>
      </trkpt>
      <trkpt lat="46.33467" lon="-0.53897">
        <ele>12.2</ele>
        <time>2020-05-31T12:39:14Z</time>
      </trkpt>
      <trkpt lat="46.33468" lon="-0.53904">
        <ele>12.2</ele>
        <time>2020-05-31T12:39:15Z</time>
      </trkpt>
      <trkpt lat="46.3347" lon="-0.5391">
        <ele>12.3</ele>
        <time>2020-05-31T12:39:16Z</time>
      </trkpt>
      <trkpt lat="46.33472" lon="-0.53917">
        <ele>12.3</ele>
        <time>2020-05-31T12:39:17Z</time>
      </trkpt>
      <trkpt lat="46.33474" lon="-0.53924">
        <ele>12.3</ele>
        <time>2020-05-31T12:39:18Z</time>
      </trkpt>
      <trkpt lat="46.33476" lon="-0.5393">
        <ele>12.3</ele>
        <time>2020-05-31T12:39:19Z</time>
      </trkpt>
      <trkpt lat="46.33478" lon="-0.53937">
        <ele>12.4</ele>
        <time>2020-05-31T12:39:20Z</time>
      </trkpt>
      <trkpt lat="46.3348" lon="-0.53943">
        <ele>12.3</ele>
        <time>2020-05-31T12:39:21Z</time>
      </trkpt>
      <trkpt lat="46.33482" lon="-0.53951">
        <ele>12.3</ele>
        <time>2020-05-31T12:39:22Z</time>
      </trkpt>
      <trkpt lat="46.33484" lon="-0.53958">
        <ele>12.3</ele>
        <time>2020-05-31T12:39:23Z</time>
      </trkpt>
      <trkpt lat="46.33486" lon="-0.53965">
        <ele>12.2</ele>
        <time>2020-05-31T12:39:24Z</time>
      </trkpt>
      <trkpt lat="46.33488" lon="-0.53972">
        <ele>12.2</ele>
        <time>2020-05-31T12:39:25Z</time>
      </trkpt>
      <trkpt lat="46.3349" lon="-0.53978">
        <ele>12.2</ele>
        <time>2020-05-31T12:39:26Z</time>
      </trkpt>
      <trkpt lat="46.33491" lon="-0.53985">
        <ele>12.1</ele>
        <time>2020-05-31T12:39:27Z</time>
      </trkpt>
      <trkpt lat="46.33493" lon="-0.53992">
        <ele>12.1</ele>
        <time>2020-05-31T12:39:28Z</time>
      </trkpt>
      <trkpt lat="46.33494" lon="-0.53999">
        <ele>12.1</ele>
        <time>2020-05-31T12:39:29Z</time>
      </trkpt>
      <trkpt lat="46.33496" lon="-0.54007">
        <ele>12</ele>
        <time>2020-05-31T12:39:30Z</time>
      </trkpt>
      <trkpt lat="46.33498" lon="-0.54014">
        <ele>12</ele>
        <time>2020-05-31T12:39:31Z</time>
      </trkpt>
      <trkpt lat="46.335" lon="-0.54023">
        <ele>12</ele>
        <time>2020-05-31T12:39:32Z</time>
      </trkpt>
      <trkpt lat="46.33501" lon="-0.5403">
        <ele>11.9</ele>
        <time>2020-05-31T12:39:33Z</time>
      </trkpt>
      <trkpt lat="46.33503" lon="-0.54038">
        <ele>11.9</ele>
        <time>2020-05-31T12:39:34Z</time>
      </trkpt>
      <trkpt lat="46.33505" lon="-0.54047">
        <ele>11.9</ele>
        <time>2020-05-31T12:39:35Z</time>
      </trkpt>
      <trkpt lat="46.33506" lon="-0.54055">
        <ele>11.8</ele>
        <time>2020-05-31T12:39:36Z</time>
      </trkpt>
      <trkpt lat="46.33507" lon="-0.54064">
        <ele>11.8</ele>
        <time>2020-05-31T12:39:37Z</time>
      </trkpt>
      <trkpt lat="46.33509" lon="-0.54072">
        <ele>11.8</ele>
        <time>2020-05-31T12:39:38Z</time>
      </trkpt>
      <trkpt lat="46.33511" lon="-0.54081">
        <ele>11.7</ele>
        <time>2020-05-31T12:39:39Z</time>
      </trkpt>
      <trkpt lat="46.33513" lon="-0.54089">
        <ele>11.7</ele>
        <time>2020-05-31T12:39:40Z</time>
      </trkpt>
      <trkpt lat="46.33514" lon="-0.54098">
        <ele>11.6</ele>
        <time>2020-05-31T12:39:41Z</time>
      </trkpt>
      <trkpt lat="46.33516" lon="-0.54108">
        <ele>11.6</ele>
        <time>2020-05-31T12:39:42Z</time>
      </trkpt>
      <trkpt lat="46.33518" lon="-0.54117">
        <ele>11.5</ele>
        <time>2020-05-31T12:39:43Z</time>
      </trkpt>
      <trkpt lat="46.3352" lon="-0.54126">
        <ele>11.5</ele>
        <time>2020-05-31T12:39:44Z</time>
      </trkpt>
      <trkpt lat="46.33521" lon="-0.54135">
        <ele>11.5</ele>
        <time>2020-05-31T12:39:45Z</time>
      </trkpt>
      <trkpt lat="46.33523" lon="-0.54143">
        <ele>11.4</ele>
        <time>2020-05-31T12:39:46Z</time>
      </trkpt>
      <trkpt lat="46.33526" lon="-0.5415">
        <ele>11.4</ele>
        <time>2020-05-31T12:39:47Z</time>
      </trkpt>
      <trkpt lat="46.33528" lon="-0.54158">
        <ele>11.3</ele>
        <time>2020-05-31T12:39:48Z</time>
      </trkpt>
      <trkpt lat="46.33529" lon="-0.54167">
        <ele>11.3</ele>
        <time>2020-05-31T12:39:49Z</time>
      </trkpt>
      <trkpt lat="46.33531" lon="-0.54175">
        <ele>11.3</ele>
        <time>2020-05-31T12:39:50Z</time>
      </trkpt>
      <trkpt lat="46.33534" lon="-0.54183">
        <ele>11.3</ele>
        <time>2020-05-31T12:39:51Z</time>
      </trkpt>
      <trkpt lat="46.33536" lon="-0.54191">
        <ele>11.3</ele>
        <time>2020-05-31T12:39:52Z</time>
      </trkpt>
      <trkpt lat="46.33537" lon="-0.542">
        <ele>11.3</ele>
        <time>2020-05-31T12:39:53Z</time>
      </trkpt>
      <trkpt lat="46.33539" lon="-0.54207">
        <ele>11.3</ele>
        <time>2020-05-31T12:39:54Z</time>
      </trkpt>
      <trkpt lat="46.3354" lon="-0.54216">
        <ele>11.3</ele>
        <time>2020-05-31T12:39:55Z</time>
      </trkpt>
      <trkpt lat="46.33542" lon="-0.54223">
        <ele>11.3</ele>
        <time>2020-05-31T12:39:56Z</time>
      </trkpt>
      <trkpt lat="46.33544" lon="-0.5423">
        <ele>11.3</ele>
        <time>2020-05-31T12:39:57Z</time>
      </trkpt>
      <trkpt lat="46.33546" lon="-0.54239">
        <ele>11.3</ele>
        <time>2020-05-31T12:39:58Z</time>
      </trkpt>
      <trkpt lat="46.33548" lon="-0.54248">
        <ele>11.3</ele>
        <time>2020-05-31T12:39:59Z</time>
      </trkpt>
      <trkpt lat="46.33549" lon="-0.54255">
        <ele>11.3</ele>
        <time>2020-05-31T12:40:00Z</time>
      </trkpt>
      <trkpt lat="46.33551" lon="-0.54263">
        <ele>11.3</ele>
        <time>2020-05-31T12:40:01Z</time>
      </trkpt>
      <trkpt lat="46.33553" lon="-0.54269">
        <ele>11.3</ele>
        <time>2020-05-31T12:40:02Z</time>
      </trkpt>
      <trkpt lat="46.33554" lon="-0.54276">
        <ele>11.3</ele>
        <time>2020-05-31T12:40:03Z</time>
      </trkpt>
      <trkpt lat="46.33556" lon="-0.54284">
        <ele>11.3</ele>
        <time>2020-05-31T12:40:04Z</time>
      </trkpt>
      <trkpt lat="46.33558" lon="-0.54293">
        <ele>11.3</ele>
        <time>2020-05-31T12:40:05Z</time>
      </trkpt>
      <trkpt lat="46.3356" lon="-0.54301">
        <ele>11.3</ele>
        <time>2020-05-31T12:40:06Z</time>
      </trkpt>
      <trkpt lat="46.33561" lon="-0.54309">
        <ele>11.3</ele>
        <time>2020-05-31T12:40:07Z</time>
      </trkpt>
      <trkpt lat="46.33563" lon="-0.54316">
        <ele>11.3</ele>
        <time>2020-05-31T12:40:08Z</time>
      </trkpt>
      <trkpt lat="46.33564" lon="-0.54324">
        <ele>11.3</ele>
        <time>2020-05-31T12:40:09Z</time>
      </trkpt>
      <trkpt lat="46.33566" lon="-0.54332">
        <ele>11.2</ele>
        <time>2020-05-31T12:40:10Z</time>
      </trkpt>
      <trkpt lat="46.33567" lon="-0.54339">
        <ele>11.2</ele>
        <time>2020-05-31T12:40:11Z</time>
      </trkpt>
      <trkpt lat="46.33569" lon="-0.54347">
        <ele>11.1</ele>
        <time>2020-05-31T12:40:12Z</time>
      </trkpt>
      <trkpt lat="46.33571" lon="-0.54355">
        <ele>11</ele>
        <time>2020-05-31T12:40:13Z</time>
      </trkpt>
      <trkpt lat="46.33573" lon="-0.54363">
        <ele>11</ele>
        <time>2020-05-31T12:40:14Z</time>
      </trkpt>
      <trkpt lat="46.33575" lon="-0.54371">
        <ele>10.9</ele>
        <time>2020-05-31T12:40:15Z</time>
      </trkpt>
      <trkpt lat="46.33577" lon="-0.5438">
        <ele>10.8</ele>
        <time>2020-05-31T12:40:16Z</time>
      </trkpt>
      <trkpt lat="46.33579" lon="-0.54389">
        <ele>10.8</ele>
        <time>2020-05-31T12:40:17Z</time>
      </trkpt>
      <trkpt lat="46.33581" lon="-0.54397">
        <ele>10.8</ele>
        <time>2020-05-31T12:40:18Z</time>
      </trkpt>
      <trkpt lat="46.33583" lon="-0.54405">
        <ele>10.7</ele>
        <time>2020-05-31T12:40:19Z</time>
      </trkpt>
      <trkpt lat="46.33586" lon="-0.54413">
        <ele>10.7</ele>
        <time>2020-05-31T12:40:20Z</time>
      </trkpt>
      <trkpt lat="46.33588" lon="-0.54422">
        <ele>10.7</ele>
        <time>2020-05-31T12:40:21Z</time>
      </trkpt>
      <trkpt lat="46.3359" lon="-0.5443">
        <ele>10.7</ele>
        <time>2020-05-31T12:40:22Z</time>
      </trkpt>
      <trkpt lat="46.33592" lon="-0.54438">
        <ele>10.8</ele>
        <time>2020-05-31T12:40:23Z</time>
      </trkpt>
      <trkpt lat="46.33594" lon="-0.54447">
        <ele>10.8</ele>
        <time>2020-05-31T12:40:24Z</time>
      </trkpt>
      <trkpt lat="46.33596" lon="-0.54456">
        <ele>10.8</ele>
        <time>2020-05-31T12:40:25Z</time>
      </trkpt>
      <trkpt lat="46.33597" lon="-0.54465">
        <ele>10.8</ele>
        <time>2020-05-31T12:40:26Z</time>
      </trkpt>
      <trkpt lat="46.33599" lon="-0.54473">
        <ele>10.8</ele>
        <time>2020-05-31T12:40:27Z</time>
      </trkpt>
      <trkpt lat="46.33601" lon="-0.54481">
        <ele>10.9</ele>
        <time>2020-05-31T12:40:28Z</time>
      </trkpt>
      <trkpt lat="46.33603" lon="-0.54489">
        <ele>10.9</ele>
        <time>2020-05-31T12:40:29Z</time>
      </trkpt>
      <trkpt lat="46.33605" lon="-0.54498">
        <ele>11</ele>
        <time>2020-05-31T12:40:30Z</time>
      </trkpt>
      <trkpt lat="46.33607" lon="-0.54506">
        <ele>11</ele>
        <time>2020-05-31T12:40:31Z</time>
      </trkpt>
      <trkpt lat="46.33609" lon="-0.54514">
        <ele>11</ele>
        <time>2020-05-31T12:40:32Z</time>
      </trkpt>
      <trkpt lat="46.33611" lon="-0.54522">
        <ele>11.1</ele>
        <time>2020-05-31T12:40:33Z</time>
      </trkpt>
      <trkpt lat="46.33613" lon="-0.5453">
        <ele>11.1</ele>
        <time>2020-05-31T12:40:34Z</time>
      </trkpt>
      <trkpt lat="46.33614" lon="-0.54538">
        <ele>11.1</ele>
        <time>2020-05-31T12:40:35Z</time>
      </trkpt>
      <trkpt lat="46.33616" lon="-0.54546">
        <ele>11.2</ele>
        <time>2020-05-31T12:40:36Z</time>
      </trkpt>
      <trkpt lat="46.33618" lon="-0.54555">
        <ele>11.2</ele>
        <time>2020-05-31T12:40:37Z</time>
      </trkpt>
      <trkpt lat="46.33619" lon="-0.54563">
        <ele>11.3</ele>
        <time>2020-05-31T12:40:38Z</time>
      </trkpt>
      <trkpt lat="46.3362" lon="-0.54571">
        <ele>11.4</ele>
        <time>2020-05-31T12:40:39Z</time>
      </trkpt>
      <trkpt lat="46.33622" lon="-0.54578">
        <ele>11.4</ele>
        <time>2020-05-31T12:40:40Z</time>
      </trkpt>
      <trkpt lat="46.33623" lon="-0.54584">
        <ele>11.4</ele>
        <time>2020-05-31T12:40:41Z</time>
      </trkpt>
      <trkpt lat="46.33625" lon="-0.54592">
        <ele>11.5</ele>
        <time>2020-05-31T12:40:42Z</time>
      </trkpt>
      <trkpt lat="46.33627" lon="-0.546">
        <ele>11.5</ele>
        <time>2020-05-31T12:40:43Z</time>
      </trkpt>
      <trkpt lat="46.33628" lon="-0.54606">
        <ele>11.5</ele>
        <time>2020-05-31T12:40:45Z</time>
      </trkpt>
      <trkpt lat="46.3363" lon="-0.54612">
        <ele>11.6</ele>
        <time>2020-05-31T12:40:46Z</time>
      </trkpt>
      <trkpt lat="46.33632" lon="-0.54619">
        <ele>11.6</ele>
        <time>2020-05-31T12:40:47Z</time>
      </trkpt>
      <trkpt lat="46.33634" lon="-0.54624">
        <ele>11.6</ele>
        <time>2020-05-31T12:40:48Z</time>
      </trkpt>
      <trkpt lat="46.33635" lon="-0.5463">
        <ele>11.6</ele>
        <time>2020-05-31T12:40:49Z</time>
      </trkpt>
      <trkpt lat="46.33637" lon="-0.54636">
        <ele>11.7</ele>
        <time>2020-05-31T12:40:50Z</time>
      </trkpt>
      <trkpt lat="46.33638" lon="-0.54643">
        <ele>11.7</ele>
        <time>2020-05-31T12:40:51Z</time>
      </trkpt>
      <trkpt lat="46.3364" lon="-0.54649">
        <ele>11.7</ele>
        <time>2020-05-31T12:40:52Z</time>
      </trkpt>
      <trkpt lat="46.33641" lon="-0.54655">
        <ele>11.7</ele>
        <time>2020-05-31T12:40:53Z</time>
      </trkpt>
      <trkpt lat="46.33643" lon="-0.54662">
        <ele>11.8</ele>
        <time>2020-05-31T12:40:54Z</time>
      </trkpt>
      <trkpt lat="46.33644" lon="-0.54669">
        <ele>11.8</ele>
        <time>2020-05-31T12:40:55Z</time>
      </trkpt>
      <trkpt lat="46.33646" lon="-0.54678">
        <ele>11.8</ele>
        <time>2020-05-31T12:40:56Z</time>
      </trkpt>
      <trkpt lat="46.33648" lon="-0.54685">
        <ele>11.9</ele>
        <time>2020-05-31T12:40:57Z</time>
      </trkpt>
      <trkpt lat="46.3365" lon="-0.54693">
        <ele>11.9</ele>
        <time>2020-05-31T12:40:58Z</time>
      </trkpt>
      <trkpt lat="46.33652" lon="-0.54701">
        <ele>11.9</ele>
        <time>2020-05-31T12:40:59Z</time>
      </trkpt>
      <trkpt lat="46.33654" lon="-0.54708">
        <ele>12</ele>
        <time>2020-05-31T12:41:00Z</time>
      </trkpt>
      <trkpt lat="46.33657" lon="-0.54717">
        <ele>12</ele>
        <time>2020-05-31T12:41:01Z</time>
      </trkpt>
      <trkpt lat="46.33659" lon="-0.54725">
        <ele>12</ele>
        <time>2020-05-31T12:41:02Z</time>
      </trkpt>
      <trkpt lat="46.33662" lon="-0.54733">
        <ele>12.1</ele>
        <time>2020-05-31T12:41:03Z</time>
      </trkpt>
      <trkpt lat="46.33664" lon="-0.54741">
        <ele>12.1</ele>
        <time>2020-05-31T12:41:04Z</time>
      </trkpt>
      <trkpt lat="46.33667" lon="-0.54749">
        <ele>12.1</ele>
        <time>2020-05-31T12:41:05Z</time>
      </trkpt>
      <trkpt lat="46.3367" lon="-0.54756">
        <ele>12.1</ele>
        <time>2020-05-31T12:41:06Z</time>
      </trkpt>
      <trkpt lat="46.33673" lon="-0.54764">
        <ele>12.1</ele>
        <time>2020-05-31T12:41:07Z</time>
      </trkpt>
      <trkpt lat="46.33676" lon="-0.54771">
        <ele>12.1</ele>
        <time>2020-05-31T12:41:08Z</time>
      </trkpt>
      <trkpt lat="46.3368" lon="-0.54779">
        <ele>12.1</ele>
        <time>2020-05-31T12:41:09Z</time>
      </trkpt>
      <trkpt lat="46.33683" lon="-0.54787">
        <ele>12.2</ele>
        <time>2020-05-31T12:41:10Z</time>
      </trkpt>
      <trkpt lat="46.33686" lon="-0.54793">
        <ele>12.2</ele>
        <time>2020-05-31T12:41:11Z</time>
      </trkpt>
      <trkpt lat="46.33689" lon="-0.548">
        <ele>12.2</ele>
        <time>2020-05-31T12:41:12Z</time>
      </trkpt>
      <trkpt lat="46.33693" lon="-0.54807">
        <ele>12.3</ele>
        <time>2020-05-31T12:41:13Z</time>
      </trkpt>
      <trkpt lat="46.33697" lon="-0.54814">
        <ele>12.3</ele>
        <time>2020-05-31T12:41:14Z</time>
      </trkpt>
      <trkpt lat="46.337" lon="-0.54821">
        <ele>12.4</ele>
        <time>2020-05-31T12:41:15Z</time>
      </trkpt>
      <trkpt lat="46.33704" lon="-0.54827">
        <ele>12.4</ele>
        <time>2020-05-31T12:41:16Z</time>
      </trkpt>
      <trkpt lat="46.33708" lon="-0.54834">
        <ele>12.5</ele>
        <time>2020-05-31T12:41:17Z</time>
      </trkpt>
      <trkpt lat="46.33712" lon="-0.54841">
        <ele>12.5</ele>
        <time>2020-05-31T12:41:18Z</time>
      </trkpt>
      <trkpt lat="46.33716" lon="-0.54846">
        <ele>12.5</ele>
        <time>2020-05-31T12:41:19Z</time>
      </trkpt>
      <trkpt lat="46.3372" lon="-0.54852">
        <ele>12.6</ele>
        <time>2020-05-31T12:41:20Z</time>
      </trkpt>
      <trkpt lat="46.33724" lon="-0.54859">
        <ele>12.6</ele>
        <time>2020-05-31T12:41:21Z</time>
      </trkpt>
      <trkpt lat="46.33728" lon="-0.54865">
        <ele>12.6</ele>
        <time>2020-05-31T12:41:22Z</time>
      </trkpt>
      <trkpt lat="46.33733" lon="-0.54871">
        <ele>12.5</ele>
        <time>2020-05-31T12:41:23Z</time>
      </trkpt>
      <trkpt lat="46.33738" lon="-0.54877">
        <ele>12.5</ele>
        <time>2020-05-31T12:41:24Z</time>
      </trkpt>
      <trkpt lat="46.33743" lon="-0.54883">
        <ele>12.5</ele>
        <time>2020-05-31T12:41:25Z</time>
      </trkpt>
      <trkpt lat="46.33749" lon="-0.54889">
        <ele>12.4</ele>
        <time>2020-05-31T12:41:26Z</time>
      </trkpt>
      <trkpt lat="46.33754" lon="-0.54895">
        <ele>12.4</ele>
        <time>2020-05-31T12:41:27Z</time>
      </trkpt>
      <trkpt lat="46.33759" lon="-0.549">
        <ele>12.5</ele>
        <time>2020-05-31T12:41:28Z</time>
      </trkpt>
      <trkpt lat="46.33765" lon="-0.54905">
        <ele>12.7</ele>
        <time>2020-05-31T12:41:29Z</time>
      </trkpt>
      <trkpt lat="46.3377" lon="-0.5491">
        <ele>12.8</ele>
        <time>2020-05-31T12:41:30Z</time>
      </trkpt>
      <trkpt lat="46.33775" lon="-0.54915">
        <ele>13</ele>
        <time>2020-05-31T12:41:31Z</time>
      </trkpt>
      <trkpt lat="46.3378" lon="-0.54918">
        <ele>13.1</ele>
        <time>2020-05-31T12:41:32Z</time>
      </trkpt>
      <trkpt lat="46.33785" lon="-0.54922">
        <ele>13.3</ele>
        <time>2020-05-31T12:41:33Z</time>
      </trkpt>
      <trkpt lat="46.3379" lon="-0.54925">
        <ele>13.5</ele>
        <time>2020-05-31T12:41:34Z</time>
      </trkpt>
      <trkpt lat="46.33793" lon="-0.5493">
        <ele>13.6</ele>
        <time>2020-05-31T12:41:35Z</time>
      </trkpt>
      <trkpt lat="46.33796" lon="-0.54935">
        <ele>13.8</ele>
        <time>2020-05-31T12:41:36Z</time>
      </trkpt>
      <trkpt lat="46.33797" lon="-0.54941">
        <ele>13.8</ele>
        <time>2020-05-31T12:41:37Z</time>
      </trkpt>
      <trkpt lat="46.33797" lon="-0.54947">
        <ele>13.8</ele>
        <time>2020-05-31T12:41:38Z</time>
      </trkpt>
      <trkpt lat="46.33797" lon="-0.54952">
        <ele>13.8</ele>
        <time>2020-05-31T12:41:39Z</time>
      </trkpt>
      <trkpt lat="46.33797" lon="-0.54958">
        <ele>13.9</ele>
        <time>2020-05-31T12:41:40Z</time>
      </trkpt>
      <trkpt lat="46.33797" lon="-0.54964">
        <ele>13.9</ele>
        <time>2020-05-31T12:41:41Z</time>
      </trkpt>
      <trkpt lat="46.33796" lon="-0.54969">
        <ele>13.9</ele>
        <time>2020-05-31T12:41:42Z</time>
      </trkpt>
      <trkpt lat="46.33796" lon="-0.54975">
        <ele>14</ele>
        <time>2020-05-31T12:41:43Z</time>
      </trkpt>
      <trkpt lat="46.33796" lon="-0.54982">
        <ele>14</ele>
        <time>2020-05-31T12:41:44Z</time>
      </trkpt>
      <trkpt lat="46.33796" lon="-0.54988">
        <ele>14.1</ele>
        <time>2020-05-31T12:41:45Z</time>
      </trkpt>
      <trkpt lat="46.33796" lon="-0.54995">
        <ele>14.2</ele>
        <time>2020-05-31T12:41:46Z</time>
      </trkpt>
      <trkpt lat="46.33796" lon="-0.55">
        <ele>14.2</ele>
        <time>2020-05-31T12:41:47Z</time>
      </trkpt>
      <trkpt lat="46.33796" lon="-0.55006">
        <ele>14.3</ele>
        <time>2020-05-31T12:41:48Z</time>
      </trkpt>
      <trkpt lat="46.33796" lon="-0.55012">
        <ele>14.4</ele>
        <time>2020-05-31T12:41:49Z</time>
      </trkpt>
      <trkpt lat="46.33796" lon="-0.55017">
        <ele>14.5</ele>
        <time>2020-05-31T12:41:50Z</time>
      </trkpt>
      <trkpt lat="46.33797" lon="-0.55022">
        <ele>14.6</ele>
        <time>2020-05-31T12:41:51Z</time>
      </trkpt>
      <trkpt lat="46.33797" lon="-0.55029">
        <ele>14.6</ele>
        <time>2020-05-31T12:41:52Z</time>
      </trkpt>
      <trkpt lat="46.33797" lon="-0.55034">
        <ele>14.7</ele>
        <time>2020-05-31T12:41:53Z</time>
      </trkpt>
      <trkpt lat="46.33797" lon="-0.5504">
        <ele>14.8</ele>
        <time>2020-05-31T12:41:54Z</time>
      </trkpt>
      <trkpt lat="46.33798" lon="-0.55045">
        <ele>14.8</ele>
        <time>2020-05-31T12:41:55Z</time>
      </trkpt>
      <trkpt lat="46.33798" lon="-0.5505">
        <ele>14.9</ele>
        <time>2020-05-31T12:41:56Z</time>
      </trkpt>
      <trkpt lat="46.33798" lon="-0.55056">
        <ele>15</ele>
        <time>2020-05-31T12:41:57Z</time>
      </trkpt>
      <trkpt lat="46.33798" lon="-0.55062">
        <ele>15</ele>
        <time>2020-05-31T12:41:58Z</time>
      </trkpt>
      <trkpt lat="46.33798" lon="-0.55066">
        <ele>15.1</ele>
        <time>2020-05-31T12:41:59Z</time>
      </trkpt>
      <trkpt lat="46.33799" lon="-0.55072">
        <ele>15.2</ele>
        <time>2020-05-31T12:42:00Z</time>
      </trkpt>
      <trkpt lat="46.33799" lon="-0.55074">
        <ele>15.2</ele>
        <time>2020-05-31T12:42:01Z</time>
      </trkpt>
      <trkpt lat="46.33799" lon="-0.5508">
        <ele>15.3</ele>
        <time>2020-05-31T12:42:02Z</time>
      </trkpt>
      <trkpt lat="46.338" lon="-0.55084">
        <ele>15.3</ele>
        <time>2020-05-31T12:42:03Z</time>
      </trkpt>
      <trkpt lat="46.338" lon="-0.5509">
        <ele>15.4</ele>
        <time>2020-05-31T12:42:04Z</time>
      </trkpt>
      <trkpt lat="46.33801" lon="-0.55095">
        <ele>15.4</ele>
        <time>2020-05-31T12:42:05Z</time>
      </trkpt>
      <trkpt lat="46.33802" lon="-0.551">
        <ele>15.5</ele>
        <time>2020-05-31T12:42:06Z</time>
      </trkpt>
      <trkpt lat="46.33802" lon="-0.55106">
        <ele>15.5</ele>
        <time>2020-05-31T12:42:07Z</time>
      </trkpt>
      <trkpt lat="46.33803" lon="-0.55112">
        <ele>15.6</ele>
        <time>2020-05-31T12:42:08Z</time>
      </trkpt>
      <trkpt lat="46.33803" lon="-0.55117">
        <ele>15.6</ele>
        <time>2020-05-31T12:42:09Z</time>
      </trkpt>
      <trkpt lat="46.33803" lon="-0.55123">
        <ele>15.7</ele>
        <time>2020-05-31T12:42:10Z</time>
      </trkpt>
      <trkpt lat="46.33804" lon="-0.55129">
        <ele>15.7</ele>
        <time>2020-05-31T12:42:11Z</time>
      </trkpt>
      <trkpt lat="46.33804" lon="-0.55136">
        <ele>15.7</ele>
        <time>2020-05-31T12:42:12Z</time>
      </trkpt>
      <trkpt lat="46.33805" lon="-0.55142">
        <ele>15.7</ele>
        <time>2020-05-31T12:42:13Z</time>
      </trkpt>
      <trkpt lat="46.33806" lon="-0.55148">
        <ele>15.7</ele>
        <time>2020-05-31T12:42:14Z</time>
      </trkpt>
      <trkpt lat="46.33806" lon="-0.55154">
        <ele>15.7</ele>
        <time>2020-05-31T12:42:15Z</time>
      </trkpt>
      <trkpt lat="46.33807" lon="-0.5516">
        <ele>15.7</ele>
        <time>2020-05-31T12:42:16Z</time>
      </trkpt>
      <trkpt lat="46.33808" lon="-0.55166">
        <ele>15.7</ele>
        <time>2020-05-31T12:42:17Z</time>
      </trkpt>
      <trkpt lat="46.33808" lon="-0.55172">
        <ele>15.7</ele>
        <time>2020-05-31T12:42:18Z</time>
      </trkpt>
      <trkpt lat="46.33809" lon="-0.55178">
        <ele>15.7</ele>
        <time>2020-05-31T12:42:19Z</time>
      </trkpt>
      <trkpt lat="46.33809" lon="-0.55184">
        <ele>15.7</ele>
        <time>2020-05-31T12:42:20Z</time>
      </trkpt>
      <trkpt lat="46.33809" lon="-0.5519">
        <ele>15.7</ele>
        <time>2020-05-31T12:42:21Z</time>
      </trkpt>
      <trkpt lat="46.3381" lon="-0.55196">
        <ele>15.7</ele>
        <time>2020-05-31T12:42:22Z</time>
      </trkpt>
      <trkpt lat="46.3381" lon="-0.55201">
        <ele>15.7</ele>
        <time>2020-05-31T12:42:23Z</time>
      </trkpt>
      <trkpt lat="46.33811" lon="-0.55207">
        <ele>15.7</ele>
        <time>2020-05-31T12:42:24Z</time>
      </trkpt>
      <trkpt lat="46.33811" lon="-0.55212">
        <ele>15.7</ele>
        <time>2020-05-31T12:42:25Z</time>
      </trkpt>
      <trkpt lat="46.33811" lon="-0.55218">
        <ele>15.7</ele>
        <time>2020-05-31T12:42:26Z</time>
      </trkpt>
      <trkpt lat="46.33811" lon="-0.55223">
        <ele>15.7</ele>
        <time>2020-05-31T12:42:27Z</time>
      </trkpt>
      <trkpt lat="46.33812" lon="-0.5523">
        <ele>15.7</ele>
        <time>2020-05-31T12:42:28Z</time>
      </trkpt>
      <trkpt lat="46.33812" lon="-0.55235">
        <ele>15.7</ele>
        <time>2020-05-31T12:42:29Z</time>
      </trkpt>
      <trkpt lat="46.33812" lon="-0.55241">
        <ele>15.7</ele>
        <time>2020-05-31T12:42:30Z</time>
      </trkpt>
      <trkpt lat="46.33813" lon="-0.55248">
        <ele>15.7</ele>
        <time>2020-05-31T12:42:31Z</time>
      </trkpt>
      <trkpt lat="46.33813" lon="-0.55255">
        <ele>15.7</ele>
        <time>2020-05-31T12:42:32Z</time>
      </trkpt>
      <trkpt lat="46.33813" lon="-0.55262">
        <ele>15.8</ele>
        <time>2020-05-31T12:42:33Z</time>
      </trkpt>
      <trkpt lat="46.33813" lon="-0.55269">
        <ele>15.8</ele>
        <time>2020-05-31T12:42:34Z</time>
      </trkpt>
      <trkpt lat="46.33814" lon="-0.55276">
        <ele>15.8</ele>
        <time>2020-05-31T12:42:35Z</time>
      </trkpt>
      <trkpt lat="46.33814" lon="-0.55283">
        <ele>15.8</ele>
        <time>2020-05-31T12:42:36Z</time>
      </trkpt>
      <trkpt lat="46.33815" lon="-0.5529">
        <ele>15.8</ele>
        <time>2020-05-31T12:42:37Z</time>
      </trkpt>
      <trkpt lat="46.33815" lon="-0.55297">
        <ele>15.8</ele>
        <time>2020-05-31T12:42:38Z</time>
      </trkpt>
      <trkpt lat="46.33816" lon="-0.55305">
        <ele>15.8</ele>
        <time>2020-05-31T12:42:39Z</time>
      </trkpt>
      <trkpt lat="46.33816" lon="-0.55311">
        <ele>15.7</ele>
        <time>2020-05-31T12:42:40Z</time>
      </trkpt>
      <trkpt lat="46.33816" lon="-0.55318">
        <ele>15.7</ele>
        <time>2020-05-31T12:42:41Z</time>
      </trkpt>
      <trkpt lat="46.33816" lon="-0.55325">
        <ele>15.7</ele>
        <time>2020-05-31T12:42:42Z</time>
      </trkpt>
      <trkpt lat="46.33816" lon="-0.55331">
        <ele>15.7</ele>
        <time>2020-05-31T12:42:43Z</time>
      </trkpt>
      <trkpt lat="46.33816" lon="-0.55338">
        <ele>15.7</ele>
        <time>2020-05-31T12:42:44Z</time>
      </trkpt>
      <trkpt lat="46.33816" lon="-0.55345">
        <ele>15.7</ele>
        <time>2020-05-31T12:42:45Z</time>
      </trkpt>
      <trkpt lat="46.33816" lon="-0.55351">
        <ele>15.7</ele>
        <time>2020-05-31T12:42:46Z</time>
      </trkpt>
      <trkpt lat="46.33816" lon="-0.55357">
        <ele>15.7</ele>
        <time>2020-05-31T12:42:47Z</time>
      </trkpt>
      <trkpt lat="46.33816" lon="-0.55363">
        <ele>15.7</ele>
        <time>2020-05-31T12:42:48Z</time>
      </trkpt>
      <trkpt lat="46.33817" lon="-0.5537">
        <ele>15.7</ele>
        <time>2020-05-31T12:42:49Z</time>
      </trkpt>
      <trkpt lat="46.33816" lon="-0.55377">
        <ele>15.7</ele>
        <time>2020-05-31T12:42:50Z</time>
      </trkpt>
      <trkpt lat="46.33816" lon="-0.55384">
        <ele>15.7</ele>
        <time>2020-05-31T12:42:51Z</time>
      </trkpt>
      <trkpt lat="46.33816" lon="-0.5539">
        <ele>15.6</ele>
        <time>2020-05-31T12:42:52Z</time>
      </trkpt>
      <trkpt lat="46.33815" lon="-0.55397">
        <ele>15.6</ele>
        <time>2020-05-31T12:42:53Z</time>
      </trkpt>
      <trkpt lat="46.33814" lon="-0.55404">
        <ele>15.6</ele>
        <time>2020-05-31T12:42:54Z</time>
      </trkpt>
      <trkpt lat="46.33812" lon="-0.5541">
        <ele>15.6</ele>
        <time>2020-05-31T12:42:55Z</time>
      </trkpt>
      <trkpt lat="46.33811" lon="-0.55417">
        <ele>15.5</ele>
        <time>2020-05-31T12:42:56Z</time>
      </trkpt>
      <trkpt lat="46.3381" lon="-0.55423">
        <ele>15.5</ele>
        <time>2020-05-31T12:42:57Z</time>
      </trkpt>
      <trkpt lat="46.33809" lon="-0.55429">
        <ele>15.5</ele>
        <time>2020-05-31T12:42:58Z</time>
      </trkpt>
      <trkpt lat="46.33808" lon="-0.55436">
        <ele>15.5</ele>
        <time>2020-05-31T12:42:59Z</time>
      </trkpt>
      <trkpt lat="46.33807" lon="-0.55442">
        <ele>15.5</ele>
        <time>2020-05-31T12:43:00Z</time>
      </trkpt>
      <trkpt lat="46.33806" lon="-0.55449">
        <ele>15.4</ele>
        <time>2020-05-31T12:43:01Z</time>
      </trkpt>
      <trkpt lat="46.33804" lon="-0.55456">
        <ele>15.4</ele>
        <time>2020-05-31T12:43:02Z</time>
      </trkpt>
      <trkpt lat="46.33803" lon="-0.55463">
        <ele>15.4</ele>
        <time>2020-05-31T12:43:03Z</time>
      </trkpt>
      <trkpt lat="46.33803" lon="-0.55469">
        <ele>15.4</ele>
        <time>2020-05-31T12:43:04Z</time>
      </trkpt>
      <trkpt lat="46.33803" lon="-0.55475">
        <ele>15.3</ele>
        <time>2020-05-31T12:43:05Z</time>
      </trkpt>
      <trkpt lat="46.33802" lon="-0.55482">
        <ele>15.3</ele>
        <time>2020-05-31T12:43:06Z</time>
      </trkpt>
      <trkpt lat="46.33801" lon="-0.55489">
        <ele>15.3</ele>
        <time>2020-05-31T12:43:07Z</time>
      </trkpt>
      <trkpt lat="46.338" lon="-0.55497">
        <ele>15.3</ele>
        <time>2020-05-31T12:43:08Z</time>
      </trkpt>
      <trkpt lat="46.338" lon="-0.55505">
        <ele>15.2</ele>
        <time>2020-05-31T12:43:09Z</time>
      </trkpt>
      <trkpt lat="46.33799" lon="-0.55513">
        <ele>15.2</ele>
        <time>2020-05-31T12:43:10Z</time>
      </trkpt>
      <trkpt lat="46.33799" lon="-0.55521">
        <ele>15.2</ele>
        <time>2020-05-31T12:43:11Z</time>
      </trkpt>
      <trkpt lat="46.33798" lon="-0.55528">
        <ele>15.2</ele>
        <time>2020-05-31T12:43:12Z</time>
      </trkpt>
      <trkpt lat="46.33797" lon="-0.55535">
        <ele>15.2</ele>
        <time>2020-05-31T12:43:13Z</time>
      </trkpt>
      <trkpt lat="46.33796" lon="-0.55543">
        <ele>15.2</ele>
        <time>2020-05-31T12:43:14Z</time>
      </trkpt>
      <trkpt lat="46.33795" lon="-0.5555">
        <ele>15.2</ele>
        <time>2020-05-31T12:43:15Z</time>
      </trkpt>
      <trkpt lat="46.33795" lon="-0.55558">
        <ele>15.2</ele>
        <time>2020-05-31T12:43:16Z</time>
      </trkpt>
      <trkpt lat="46.33795" lon="-0.55566">
        <ele>15.2</ele>
        <time>2020-05-31T12:43:17Z</time>
      </trkpt>
      <trkpt lat="46.33795" lon="-0.55574">
        <ele>15.2</ele>
        <time>2020-05-31T12:43:18Z</time>
      </trkpt>
      <trkpt lat="46.33795" lon="-0.55581">
        <ele>15.2</ele>
        <time>2020-05-31T12:43:19Z</time>
      </trkpt>
      <trkpt lat="46.33795" lon="-0.5559">
        <ele>15.2</ele>
        <time>2020-05-31T12:43:20Z</time>
      </trkpt>
      <trkpt lat="46.33796" lon="-0.55598">
        <ele>15.2</ele>
        <time>2020-05-31T12:43:21Z</time>
      </trkpt>
      <trkpt lat="46.33796" lon="-0.55607">
        <ele>15.2</ele>
        <time>2020-05-31T12:43:22Z</time>
      </trkpt>
      <trkpt lat="46.33795" lon="-0.55614">
        <ele>15.2</ele>
        <time>2020-05-31T12:43:23Z</time>
      </trkpt>
      <trkpt lat="46.33795" lon="-0.55621">
        <ele>15.2</ele>
        <time>2020-05-31T12:43:24Z</time>
      </trkpt>
      <trkpt lat="46.33795" lon="-0.55628">
        <ele>15.2</ele>
        <time>2020-05-31T12:43:25Z</time>
      </trkpt>
      <trkpt lat="46.33795" lon="-0.55635">
        <ele>15.1</ele>
        <time>2020-05-31T12:43:26Z</time>
      </trkpt>
      <trkpt lat="46.33796" lon="-0.55643">
        <ele>15.1</ele>
        <time>2020-05-31T12:43:27Z</time>
      </trkpt>
      <trkpt lat="46.33796" lon="-0.5565">
        <ele>15.1</ele>
        <time>2020-05-31T12:43:28Z</time>
      </trkpt>
      <trkpt lat="46.33796" lon="-0.55657">
        <ele>15.1</ele>
        <time>2020-05-31T12:43:29Z</time>
      </trkpt>
      <trkpt lat="46.33796" lon="-0.55665">
        <ele>15.1</ele>
        <time>2020-05-31T12:43:30Z</time>
      </trkpt>
      <trkpt lat="46.33795" lon="-0.55672">
        <ele>15.1</ele>
        <time>2020-05-31T12:43:31Z</time>
      </trkpt>
      <trkpt lat="46.33795" lon="-0.55679">
        <ele>15.1</ele>
        <time>2020-05-31T12:43:32Z</time>
      </trkpt>
      <trkpt lat="46.33795" lon="-0.55686">
        <ele>15.1</ele>
        <time>2020-05-31T12:43:33Z</time>
      </trkpt>
      <trkpt lat="46.33795" lon="-0.55693">
        <ele>15</ele>
        <time>2020-05-31T12:43:34Z</time>
      </trkpt>
      <trkpt lat="46.33795" lon="-0.55699">
        <ele>15</ele>
        <time>2020-05-31T12:43:35Z</time>
      </trkpt>
      <trkpt lat="46.33794" lon="-0.55707">
        <ele>14.9</ele>
        <time>2020-05-31T12:43:36Z</time>
      </trkpt>
      <trkpt lat="46.33794" lon="-0.55714">
        <ele>14.8</ele>
        <time>2020-05-31T12:43:37Z</time>
      </trkpt>
      <trkpt lat="46.33793" lon="-0.5572">
        <ele>14.8</ele>
        <time>2020-05-31T12:43:38Z</time>
      </trkpt>
      <trkpt lat="46.33792" lon="-0.55726">
        <ele>14.7</ele>
        <time>2020-05-31T12:43:39Z</time>
      </trkpt>
      <trkpt lat="46.33792" lon="-0.55733">
        <ele>14.6</ele>
        <time>2020-05-31T12:43:40Z</time>
      </trkpt>
      <trkpt lat="46.33791" lon="-0.55741">
        <ele>14.5</ele>
        <time>2020-05-31T12:43:41Z</time>
      </trkpt>
      <trkpt lat="46.3379" lon="-0.55749">
        <ele>14.4</ele>
        <time>2020-05-31T12:43:42Z</time>
      </trkpt>
      <trkpt lat="46.33789" lon="-0.55756">
        <ele>14.4</ele>
        <time>2020-05-31T12:43:43Z</time>
      </trkpt>
      <trkpt lat="46.33789" lon="-0.55764">
        <ele>14.3</ele>
        <time>2020-05-31T12:43:44Z</time>
      </trkpt>
      <trkpt lat="46.33788" lon="-0.55772">
        <ele>14.3</ele>
        <time>2020-05-31T12:43:45Z</time>
      </trkpt>
      <trkpt lat="46.33788" lon="-0.5578">
        <ele>14.3</ele>
        <time>2020-05-31T12:43:46Z</time>
      </trkpt>
      <trkpt lat="46.33788" lon="-0.55787">
        <ele>14.3</ele>
        <time>2020-05-31T12:43:47Z</time>
      </trkpt>
      <trkpt lat="46.33787" lon="-0.55795">
        <ele>14.2</ele>
        <time>2020-05-31T12:43:48Z</time>
      </trkpt>
      <trkpt lat="46.33786" lon="-0.55803">
        <ele>14.2</ele>
        <time>2020-05-31T12:43:49Z</time>
      </trkpt>
      <trkpt lat="46.33785" lon="-0.55811">
        <ele>14.2</ele>
        <time>2020-05-31T12:43:50Z</time>
      </trkpt>
      <trkpt lat="46.33784" lon="-0.55819">
        <ele>14.2</ele>
        <time>2020-05-31T12:43:51Z</time>
      </trkpt>
      <trkpt lat="46.33783" lon="-0.55827">
        <ele>14.2</ele>
        <time>2020-05-31T12:43:52Z</time>
      </trkpt>
      <trkpt lat="46.33782" lon="-0.55836">
        <ele>14.1</ele>
        <time>2020-05-31T12:43:53Z</time>
      </trkpt>
      <trkpt lat="46.33781" lon="-0.55845">
        <ele>14.1</ele>
        <time>2020-05-31T12:43:54Z</time>
      </trkpt>
      <trkpt lat="46.33781" lon="-0.55853">
        <ele>14.1</ele>
        <time>2020-05-31T12:43:55Z</time>
      </trkpt>
      <trkpt lat="46.3378" lon="-0.55862">
        <ele>14.1</ele>
        <time>2020-05-31T12:43:56Z</time>
      </trkpt>
      <trkpt lat="46.33779" lon="-0.55869">
        <ele>14.1</ele>
        <time>2020-05-31T12:43:57Z</time>
      </trkpt>
      <trkpt lat="46.33779" lon="-0.55876">
        <ele>14.1</ele>
        <time>2020-05-31T12:43:58Z</time>
      </trkpt>
      <trkpt lat="46.33778" lon="-0.55883">
        <ele>14.1</ele>
        <time>2020-05-31T12:43:59Z</time>
      </trkpt>
      <trkpt lat="46.33778" lon="-0.55891">
        <ele>14.1</ele>
        <time>2020-05-31T12:44:00Z</time>
      </trkpt>
      <trkpt lat="46.33777" lon="-0.55898">
        <ele>14</ele>
        <time>2020-05-31T12:44:01Z</time>
      </trkpt>
      <trkpt lat="46.33777" lon="-0.55905">
        <ele>14</ele>
        <time>2020-05-31T12:44:02Z</time>
      </trkpt>
      <trkpt lat="46.33777" lon="-0.55912">
        <ele>14</ele>
        <time>2020-05-31T12:44:03Z</time>
      </trkpt>
      <trkpt lat="46.33776" lon="-0.5592">
        <ele>14</ele>
        <time>2020-05-31T12:44:04Z</time>
      </trkpt>
      <trkpt lat="46.33776" lon="-0.55928">
        <ele>14</ele>
        <time>2020-05-31T12:44:05Z</time>
      </trkpt>
      <trkpt lat="46.33775" lon="-0.55936">
        <ele>13.9</ele>
        <time>2020-05-31T12:44:06Z</time>
      </trkpt>
      <trkpt lat="46.33774" lon="-0.55943">
        <ele>13.9</ele>
        <time>2020-05-31T12:44:07Z</time>
      </trkpt>
      <trkpt lat="46.33772" lon="-0.5595">
        <ele>13.9</ele>
        <time>2020-05-31T12:44:08Z</time>
      </trkpt>
      <trkpt lat="46.3377" lon="-0.55957">
        <ele>13.9</ele>
        <time>2020-05-31T12:44:09Z</time>
      </trkpt>
      <trkpt lat="46.33769" lon="-0.55964">
        <ele>13.9</ele>
        <time>2020-05-31T12:44:10Z</time>
      </trkpt>
      <trkpt lat="46.33768" lon="-0.55972">
        <ele>13.9</ele>
        <time>2020-05-31T12:44:11Z</time>
      </trkpt>
      <trkpt lat="46.33765" lon="-0.5598">
        <ele>13.8</ele>
        <time>2020-05-31T12:44:12Z</time>
      </trkpt>
      <trkpt lat="46.33761" lon="-0.55987">
        <ele>13.8</ele>
        <time>2020-05-31T12:44:13Z</time>
      </trkpt>
      <trkpt lat="46.33758" lon="-0.55993">
        <ele>13.8</ele>
        <time>2020-05-31T12:44:14Z</time>
      </trkpt>
      <trkpt lat="46.33755" lon="-0.56001">
        <ele>13.8</ele>
        <time>2020-05-31T12:44:15Z</time>
      </trkpt>
      <trkpt lat="46.33752" lon="-0.56007">
        <ele>13.8</ele>
        <time>2020-05-31T12:44:16Z</time>
      </trkpt>
      <trkpt lat="46.33749" lon="-0.56012">
        <ele>13.8</ele>
        <time>2020-05-31T12:44:17Z</time>
      </trkpt>
      <trkpt lat="46.33745" lon="-0.56017">
        <ele>13.8</ele>
        <time>2020-05-31T12:44:18Z</time>
      </trkpt>
      <trkpt lat="46.33741" lon="-0.56023">
        <ele>13.8</ele>
        <time>2020-05-31T12:44:19Z</time>
      </trkpt>
      <trkpt lat="46.33737" lon="-0.56029">
        <ele>13.8</ele>
        <time>2020-05-31T12:44:20Z</time>
      </trkpt>
      <trkpt lat="46.33733" lon="-0.56035">
        <ele>13.8</ele>
        <time>2020-05-31T12:44:21Z</time>
      </trkpt>
      <trkpt lat="46.33729" lon="-0.5604">
        <ele>13.8</ele>
        <time>2020-05-31T12:44:22Z</time>
      </trkpt>
      <trkpt lat="46.33724" lon="-0.56046">
        <ele>13.7</ele>
        <time>2020-05-31T12:44:23Z</time>
      </trkpt>
      <trkpt lat="46.3372" lon="-0.56051">
        <ele>13.7</ele>
        <time>2020-05-31T12:44:24Z</time>
      </trkpt>
      <trkpt lat="46.33716" lon="-0.56056">
        <ele>13.7</ele>
        <time>2020-05-31T12:44:25Z</time>
      </trkpt>
      <trkpt lat="46.33711" lon="-0.56061">
        <ele>13.7</ele>
        <time>2020-05-31T12:44:26Z</time>
      </trkpt>
      <trkpt lat="46.33707" lon="-0.56066">
        <ele>13.6</ele>
        <time>2020-05-31T12:44:27Z</time>
      </trkpt>
      <trkpt lat="46.33703" lon="-0.56072">
        <ele>13.6</ele>
        <time>2020-05-31T12:44:28Z</time>
      </trkpt>
      <trkpt lat="46.33699" lon="-0.56078">
        <ele>13.5</ele>
        <time>2020-05-31T12:44:29Z</time>
      </trkpt>
      <trkpt lat="46.33695" lon="-0.56083">
        <ele>13.5</ele>
        <time>2020-05-31T12:44:30Z</time>
      </trkpt>
      <trkpt lat="46.3369" lon="-0.56089">
        <ele>13.4</ele>
        <time>2020-05-31T12:44:31Z</time>
      </trkpt>
      <trkpt lat="46.33685" lon="-0.56096">
        <ele>13.3</ele>
        <time>2020-05-31T12:44:32Z</time>
      </trkpt>
      <trkpt lat="46.3368" lon="-0.56101">
        <ele>13.2</ele>
        <time>2020-05-31T12:44:33Z</time>
      </trkpt>
      <trkpt lat="46.33674" lon="-0.56106">
        <ele>13.1</ele>
        <time>2020-05-31T12:44:34Z</time>
      </trkpt>
      <trkpt lat="46.33669" lon="-0.56112">
        <ele>13</ele>
        <time>2020-05-31T12:44:35Z</time>
      </trkpt>
      <trkpt lat="46.33664" lon="-0.56115">
        <ele>13</ele>
        <time>2020-05-31T12:44:36Z</time>
      </trkpt>
      <trkpt lat="46.33659" lon="-0.56118">
        <ele>12.9</ele>
        <time>2020-05-31T12:44:37Z</time>
      </trkpt>
      <trkpt lat="46.33654" lon="-0.56123">
        <ele>12.9</ele>
        <time>2020-05-31T12:44:38Z</time>
      </trkpt>
      <trkpt lat="46.33648" lon="-0.56128">
        <ele>12.8</ele>
        <time>2020-05-31T12:44:39Z</time>
      </trkpt>
      <trkpt lat="46.33642" lon="-0.56134">
        <ele>12.8</ele>
        <time>2020-05-31T12:44:40Z</time>
      </trkpt>
      <trkpt lat="46.33636" lon="-0.56139">
        <ele>12.8</ele>
        <time>2020-05-31T12:44:41Z</time>
      </trkpt>
      <trkpt lat="46.33631" lon="-0.56144">
        <ele>12.8</ele>
        <time>2020-05-31T12:44:42Z</time>
      </trkpt>
      <trkpt lat="46.33627" lon="-0.56148">
        <ele>12.8</ele>
        <time>2020-05-31T12:44:43Z</time>
      </trkpt>
      <trkpt lat="46.33622" lon="-0.56155">
        <ele>12.8</ele>
        <time>2020-05-31T12:44:44Z</time>
      </trkpt>
      <trkpt lat="46.33619" lon="-0.56163">
        <ele>12.9</ele>
        <time>2020-05-31T12:44:45Z</time>
      </trkpt>
      <trkpt lat="46.33616" lon="-0.56169">
        <ele>12.9</ele>
        <time>2020-05-31T12:44:46Z</time>
      </trkpt>
      <trkpt lat="46.33613" lon="-0.56176">
        <ele>12.9</ele>
        <time>2020-05-31T12:44:47Z</time>
      </trkpt>
      <trkpt lat="46.33609" lon="-0.56184">
        <ele>12.9</ele>
        <time>2020-05-31T12:44:48Z</time>
      </trkpt>
      <trkpt lat="46.33606" lon="-0.56192">
        <ele>12.9</ele>
        <time>2020-05-31T12:44:49Z</time>
      </trkpt>
      <trkpt lat="46.33603" lon="-0.56198">
        <ele>12.9</ele>
        <time>2020-05-31T12:44:50Z</time>
      </trkpt>
      <trkpt lat="46.336" lon="-0.56205">
        <ele>12.9</ele>
        <time>2020-05-31T12:44:51Z</time>
      </trkpt>
      <trkpt lat="46.33597" lon="-0.56213">
        <ele>12.9</ele>
        <time>2020-05-31T12:44:52Z</time>
      </trkpt>
      <trkpt lat="46.33594" lon="-0.5622">
        <ele>12.9</ele>
        <time>2020-05-31T12:44:53Z</time>
      </trkpt>
      <trkpt lat="46.33592" lon="-0.56225">
        <ele>12.9</ele>
        <time>2020-05-31T12:44:54Z</time>
      </trkpt>
      <trkpt lat="46.33589" lon="-0.56231">
        <ele>12.9</ele>
        <time>2020-05-31T12:44:55Z</time>
      </trkpt>
      <trkpt lat="46.33585" lon="-0.56237">
        <ele>12.9</ele>
        <time>2020-05-31T12:44:56Z</time>
      </trkpt>
      <trkpt lat="46.33582" lon="-0.56243">
        <ele>12.9</ele>
        <time>2020-05-31T12:44:57Z</time>
      </trkpt>
      <trkpt lat="46.33579" lon="-0.56249">
        <ele>12.9</ele>
        <time>2020-05-31T12:44:58Z</time>
      </trkpt>
      <trkpt lat="46.33576" lon="-0.56253">
        <ele>13</ele>
        <time>2020-05-31T12:44:59Z</time>
      </trkpt>
      <trkpt lat="46.33573" lon="-0.56256">
        <ele>13</ele>
        <time>2020-05-31T12:45:00Z</time>
      </trkpt>
      <trkpt lat="46.33571" lon="-0.5626">
        <ele>13</ele>
        <time>2020-05-31T12:45:01Z</time>
      </trkpt>
      <trkpt lat="46.33569" lon="-0.56265">
        <ele>13</ele>
        <time>2020-05-31T12:45:02Z</time>
      </trkpt>
      <trkpt lat="46.33566" lon="-0.5627">
        <ele>13.1</ele>
        <time>2020-05-31T12:45:03Z</time>
      </trkpt>
      <trkpt lat="46.33563" lon="-0.56276">
        <ele>13.1</ele>
        <time>2020-05-31T12:45:04Z</time>
      </trkpt>
      <trkpt lat="46.3356" lon="-0.56282">
        <ele>13.2</ele>
        <time>2020-05-31T12:45:05Z</time>
      </trkpt>
      <trkpt lat="46.33558" lon="-0.56287">
        <ele>13.3</ele>
        <time>2020-05-31T12:45:06Z</time>
      </trkpt>
      <trkpt lat="46.33556" lon="-0.56293">
        <ele>13.4</ele>
        <time>2020-05-31T12:45:07Z</time>
      </trkpt>
      <trkpt lat="46.33553" lon="-0.56298">
        <ele>13.4</ele>
        <time>2020-05-31T12:45:08Z</time>
      </trkpt>
      <trkpt lat="46.3355" lon="-0.56304">
        <ele>13.5</ele>
        <time>2020-05-31T12:45:09Z</time>
      </trkpt>
      <trkpt lat="46.33547" lon="-0.5631">
        <ele>13.6</ele>
        <time>2020-05-31T12:45:10Z</time>
      </trkpt>
      <trkpt lat="46.33544" lon="-0.56315">
        <ele>13.6</ele>
        <time>2020-05-31T12:45:11Z</time>
      </trkpt>
      <trkpt lat="46.33541" lon="-0.56321">
        <ele>13.7</ele>
        <time>2020-05-31T12:45:12Z</time>
      </trkpt>
      <trkpt lat="46.33538" lon="-0.56327">
        <ele>13.8</ele>
        <time>2020-05-31T12:45:13Z</time>
      </trkpt>
      <trkpt lat="46.33534" lon="-0.56333">
        <ele>13.8</ele>
        <time>2020-05-31T12:45:14Z</time>
      </trkpt>
      <trkpt lat="46.33531" lon="-0.5634">
        <ele>13.9</ele>
        <time>2020-05-31T12:45:15Z</time>
      </trkpt>
      <trkpt lat="46.33528" lon="-0.56345">
        <ele>13.9</ele>
        <time>2020-05-31T12:45:16Z</time>
      </trkpt>
      <trkpt lat="46.33525" lon="-0.56353">
        <ele>14</ele>
        <time>2020-05-31T12:45:17Z</time>
      </trkpt>
      <trkpt lat="46.33522" lon="-0.56359">
        <ele>14.1</ele>
        <time>2020-05-31T12:45:18Z</time>
      </trkpt>
      <trkpt lat="46.33519" lon="-0.56366">
        <ele>14.2</ele>
        <time>2020-05-31T12:45:19Z</time>
      </trkpt>
      <trkpt lat="46.33516" lon="-0.56372">
        <ele>14.3</ele>
        <time>2020-05-31T12:45:20Z</time>
      </trkpt>
      <trkpt lat="46.33513" lon="-0.56378">
        <ele>14.3</ele>
        <time>2020-05-31T12:45:21Z</time>
      </trkpt>
      <trkpt lat="46.3351" lon="-0.56384">
        <ele>14.4</ele>
        <time>2020-05-31T12:45:22Z</time>
      </trkpt>
      <trkpt lat="46.33507" lon="-0.5639">
        <ele>14.5</ele>
        <time>2020-05-31T12:45:23Z</time>
      </trkpt>
      <trkpt lat="46.33504" lon="-0.56395">
        <ele>14.5</ele>
        <time>2020-05-31T12:45:24Z</time>
      </trkpt>
      <trkpt lat="46.33501" lon="-0.564">
        <ele>14.6</ele>
        <time>2020-05-31T12:45:25Z</time>
      </trkpt>
      <trkpt lat="46.33498" lon="-0.56405">
        <ele>14.7</ele>
        <time>2020-05-31T12:45:26Z</time>
      </trkpt>
      <trkpt lat="46.33494" lon="-0.56412">
        <ele>14.7</ele>
        <time>2020-05-31T12:45:27Z</time>
      </trkpt>
      <trkpt lat="46.3349" lon="-0.56417">
        <ele>14.8</ele>
        <time>2020-05-31T12:45:28Z</time>
      </trkpt>
      <trkpt lat="46.33486" lon="-0.56424">
        <ele>14.9</ele>
        <time>2020-05-31T12:45:29Z</time>
      </trkpt>
      <trkpt lat="46.33482" lon="-0.56428">
        <ele>15</ele>
        <time>2020-05-31T12:45:30Z</time>
      </trkpt>
      <trkpt lat="46.33479" lon="-0.56431">
        <ele>15.1</ele>
        <time>2020-05-31T12:45:31Z</time>
      </trkpt>
      <trkpt lat="46.33476" lon="-0.56437">
        <ele>15.1</ele>
        <time>2020-05-31T12:45:32Z</time>
      </trkpt>
      <trkpt lat="46.33473" lon="-0.56442">
        <ele>15.2</ele>
        <time>2020-05-31T12:45:33Z</time>
      </trkpt>
      <trkpt lat="46.33471" lon="-0.56445">
        <ele>15.2</ele>
        <time>2020-05-31T12:45:34Z</time>
      </trkpt>
      <trkpt lat="46.33469" lon="-0.5645">
        <ele>15.3</ele>
        <time>2020-05-31T12:45:35Z</time>
      </trkpt>
      <trkpt lat="46.33467" lon="-0.56454">
        <ele>15.3</ele>
        <time>2020-05-31T12:45:36Z</time>
      </trkpt>
      <trkpt lat="46.33465" lon="-0.5646">
        <ele>15.3</ele>
        <time>2020-05-31T12:45:37Z</time>
      </trkpt>
      <trkpt lat="46.33462" lon="-0.56465">
        <ele>15.4</ele>
        <time>2020-05-31T12:45:38Z</time>
      </trkpt>
      <trkpt lat="46.33461" lon="-0.56467">
        <ele>15.4</ele>
        <time>2020-05-31T12:45:39Z</time>
      </trkpt>
      <trkpt lat="46.33458" lon="-0.56473">
        <ele>15.4</ele>
        <time>2020-05-31T12:45:40Z</time>
      </trkpt>
      <trkpt lat="46.33457" lon="-0.56476">
        <ele>15.5</ele>
        <time>2020-05-31T12:45:41Z</time>
      </trkpt>
      <trkpt lat="46.33456" lon="-0.5648">
        <ele>15.5</ele>
        <time>2020-05-31T12:45:42Z</time>
      </trkpt>
      <trkpt lat="46.33453" lon="-0.56484">
        <ele>15.5</ele>
        <time>2020-05-31T12:45:43Z</time>
      </trkpt>
      <trkpt lat="46.33452" lon="-0.56487">
        <ele>15.5</ele>
        <time>2020-05-31T12:45:44Z</time>
      </trkpt>
      <trkpt lat="46.3345" lon="-0.56491">
        <ele>15.6</ele>
        <time>2020-05-31T12:45:45Z</time>
      </trkpt>
      <trkpt lat="46.33448" lon="-0.56495">
        <ele>15.6</ele>
        <time>2020-05-31T12:45:46Z</time>
      </trkpt>
      <trkpt lat="46.33446" lon="-0.56501">
        <ele>15.6</ele>
        <time>2020-05-31T12:45:47Z</time>
      </trkpt>
      <trkpt lat="46.33444" lon="-0.56507">
        <ele>15.6</ele>
        <time>2020-05-31T12:45:48Z</time>
      </trkpt>
      <trkpt lat="46.33442" lon="-0.56513">
        <ele>15.6</ele>
        <time>2020-05-31T12:45:49Z</time>
      </trkpt>
      <trkpt lat="46.33439" lon="-0.5652">
        <ele>15.6</ele>
        <time>2020-05-31T12:45:50Z</time>
      </trkpt>
      <trkpt lat="46.33437" lon="-0.56523">
        <ele>15.6</ele>
        <time>2020-05-31T12:45:51Z</time>
      </trkpt>
      <trkpt lat="46.33434" lon="-0.56528">
        <ele>15.6</ele>
        <time>2020-05-31T12:45:52Z</time>
      </trkpt>
      <trkpt lat="46.33432" lon="-0.56533">
        <ele>15.6</ele>
        <time>2020-05-31T12:45:53Z</time>
      </trkpt>
      <trkpt lat="46.33429" lon="-0.56539">
        <ele>15.6</ele>
        <time>2020-05-31T12:45:54Z</time>
      </trkpt>
      <trkpt lat="46.33426" lon="-0.56544">
        <ele>15.6</ele>
        <time>2020-05-31T12:45:55Z</time>
      </trkpt>
      <trkpt lat="46.33424" lon="-0.5655">
        <ele>15.6</ele>
        <time>2020-05-31T12:45:56Z</time>
      </trkpt>
      <trkpt lat="46.33421" lon="-0.56555">
        <ele>15.6</ele>
        <time>2020-05-31T12:45:57Z</time>
      </trkpt>
      <trkpt lat="46.33419" lon="-0.56561">
        <ele>15.6</ele>
        <time>2020-05-31T12:45:58Z</time>
      </trkpt>
      <trkpt lat="46.33417" lon="-0.56567">
        <ele>15.6</ele>
        <time>2020-05-31T12:45:59Z</time>
      </trkpt>
      <trkpt lat="46.33415" lon="-0.56573">
        <ele>15.6</ele>
        <time>2020-05-31T12:46:00Z</time>
      </trkpt>
      <trkpt lat="46.33412" lon="-0.56579">
        <ele>15.6</ele>
        <time>2020-05-31T12:46:01Z</time>
      </trkpt>
      <trkpt lat="46.33409" lon="-0.56586">
        <ele>15.6</ele>
        <time>2020-05-31T12:46:02Z</time>
      </trkpt>
      <trkpt lat="46.33407" lon="-0.56592">
        <ele>15.6</ele>
        <time>2020-05-31T12:46:03Z</time>
      </trkpt>
      <trkpt lat="46.33404" lon="-0.56598">
        <ele>15.6</ele>
        <time>2020-05-31T12:46:04Z</time>
      </trkpt>
      <trkpt lat="46.33401" lon="-0.56605">
        <ele>15.6</ele>
        <time>2020-05-31T12:46:05Z</time>
      </trkpt>
      <trkpt lat="46.33398" lon="-0.56611">
        <ele>15.6</ele>
        <time>2020-05-31T12:46:06Z</time>
      </trkpt>
      <trkpt lat="46.33395" lon="-0.56617">
        <ele>15.6</ele>
        <time>2020-05-31T12:46:07Z</time>
      </trkpt>
      <trkpt lat="46.33392" lon="-0.56622">
        <ele>15.6</ele>
        <time>2020-05-31T12:46:08Z</time>
      </trkpt>
      <trkpt lat="46.3339" lon="-0.56627">
        <ele>15.6</ele>
        <time>2020-05-31T12:46:09Z</time>
      </trkpt>
      <trkpt lat="46.33388" lon="-0.56633">
        <ele>15.6</ele>
        <time>2020-05-31T12:46:10Z</time>
      </trkpt>
      <trkpt lat="46.33385" lon="-0.56641">
        <ele>15.6</ele>
        <time>2020-05-31T12:46:11Z</time>
      </trkpt>
      <trkpt lat="46.33382" lon="-0.56647">
        <ele>15.6</ele>
        <time>2020-05-31T12:46:12Z</time>
      </trkpt>
      <trkpt lat="46.33379" lon="-0.56653">
        <ele>15.6</ele>
        <time>2020-05-31T12:46:13Z</time>
      </trkpt>
      <trkpt lat="46.33376" lon="-0.5666">
        <ele>15.6</ele>
        <time>2020-05-31T12:46:14Z</time>
      </trkpt>
      <trkpt lat="46.33373" lon="-0.56666">
        <ele>15.6</ele>
        <time>2020-05-31T12:46:15Z</time>
      </trkpt>
      <trkpt lat="46.3337" lon="-0.56674">
        <ele>15.6</ele>
        <time>2020-05-31T12:46:16Z</time>
      </trkpt>
      <trkpt lat="46.33367" lon="-0.5668">
        <ele>15.6</ele>
        <time>2020-05-31T12:46:17Z</time>
      </trkpt>
      <trkpt lat="46.33363" lon="-0.56686">
        <ele>15.6</ele>
        <time>2020-05-31T12:46:18Z</time>
      </trkpt>
      <trkpt lat="46.33361" lon="-0.56691">
        <ele>15.6</ele>
        <time>2020-05-31T12:46:19Z</time>
      </trkpt>
      <trkpt lat="46.33358" lon="-0.56696">
        <ele>15.6</ele>
        <time>2020-05-31T12:46:20Z</time>
      </trkpt>
      <trkpt lat="46.33355" lon="-0.567">
        <ele>15.6</ele>
        <time>2020-05-31T12:46:21Z</time>
      </trkpt>
      <trkpt lat="46.33352" lon="-0.56706">
        <ele>15.6</ele>
        <time>2020-05-31T12:46:22Z</time>
      </trkpt>
      <trkpt lat="46.33348" lon="-0.5671">
        <ele>15.6</ele>
        <time>2020-05-31T12:46:23Z</time>
      </trkpt>
      <trkpt lat="46.33345" lon="-0.56715">
        <ele>15.6</ele>
        <time>2020-05-31T12:46:24Z</time>
      </trkpt>
      <trkpt lat="46.3334" lon="-0.5672">
        <ele>15.6</ele>
        <time>2020-05-31T12:46:25Z</time>
      </trkpt>
      <trkpt lat="46.33337" lon="-0.56725">
        <ele>15.6</ele>
        <time>2020-05-31T12:46:26Z</time>
      </trkpt>
      <trkpt lat="46.33334" lon="-0.5673">
        <ele>15.6</ele>
        <time>2020-05-31T12:46:27Z</time>
      </trkpt>
      <trkpt lat="46.33331" lon="-0.56735">
        <ele>15.7</ele>
        <time>2020-05-31T12:46:28Z</time>
      </trkpt>
      <trkpt lat="46.33328" lon="-0.5674">
        <ele>15.7</ele>
        <time>2020-05-31T12:46:29Z</time>
      </trkpt>
      <trkpt lat="46.33325" lon="-0.56745">
        <ele>15.7</ele>
        <time>2020-05-31T12:46:30Z</time>
      </trkpt>
      <trkpt lat="46.33322" lon="-0.5675">
        <ele>15.7</ele>
        <time>2020-05-31T12:46:31Z</time>
      </trkpt>
      <trkpt lat="46.33319" lon="-0.56754">
        <ele>15.7</ele>
        <time>2020-05-31T12:46:32Z</time>
      </trkpt>
      <trkpt lat="46.33316" lon="-0.5676">
        <ele>15.8</ele>
        <time>2020-05-31T12:46:33Z</time>
      </trkpt>
      <trkpt lat="46.33312" lon="-0.56766">
        <ele>15.8</ele>
        <time>2020-05-31T12:46:34Z</time>
      </trkpt>
      <trkpt lat="46.33309" lon="-0.56771">
        <ele>15.8</ele>
        <time>2020-05-31T12:46:35Z</time>
      </trkpt>
      <trkpt lat="46.33306" lon="-0.56775">
        <ele>15.9</ele>
        <time>2020-05-31T12:46:36Z</time>
      </trkpt>
      <trkpt lat="46.33303" lon="-0.56781">
        <ele>15.9</ele>
        <time>2020-05-31T12:46:37Z</time>
      </trkpt>
      <trkpt lat="46.33299" lon="-0.56786">
        <ele>15.9</ele>
        <time>2020-05-31T12:46:38Z</time>
      </trkpt>
      <trkpt lat="46.33296" lon="-0.56791">
        <ele>16</ele>
        <time>2020-05-31T12:46:39Z</time>
      </trkpt>
      <trkpt lat="46.33293" lon="-0.56796">
        <ele>16</ele>
        <time>2020-05-31T12:46:40Z</time>
      </trkpt>
      <trkpt lat="46.3329" lon="-0.56801">
        <ele>16</ele>
        <time>2020-05-31T12:46:41Z</time>
      </trkpt>
      <trkpt lat="46.33288" lon="-0.56805">
        <ele>16</ele>
        <time>2020-05-31T12:46:42Z</time>
      </trkpt>
      <trkpt lat="46.33285" lon="-0.5681">
        <ele>16.1</ele>
        <time>2020-05-31T12:46:43Z</time>
      </trkpt>
      <trkpt lat="46.33283" lon="-0.56815">
        <ele>16.1</ele>
        <time>2020-05-31T12:46:44Z</time>
      </trkpt>
      <trkpt lat="46.33279" lon="-0.56821">
        <ele>16.1</ele>
        <time>2020-05-31T12:46:45Z</time>
      </trkpt>
      <trkpt lat="46.33275" lon="-0.56826">
        <ele>16.2</ele>
        <time>2020-05-31T12:46:46Z</time>
      </trkpt>
      <trkpt lat="46.33269" lon="-0.56832">
        <ele>16.3</ele>
        <time>2020-05-31T12:46:47Z</time>
      </trkpt>
      <trkpt lat="46.33266" lon="-0.56839">
        <ele>16.3</ele>
        <time>2020-05-31T12:46:48Z</time>
      </trkpt>
      <trkpt lat="46.33261" lon="-0.56844">
        <ele>16.4</ele>
        <time>2020-05-31T12:46:49Z</time>
      </trkpt>
      <trkpt lat="46.33258" lon="-0.5685">
        <ele>16.4</ele>
        <time>2020-05-31T12:46:50Z</time>
      </trkpt>
      <trkpt lat="46.33255" lon="-0.56855">
        <ele>16.5</ele>
        <time>2020-05-31T12:46:51Z</time>
      </trkpt>
      <trkpt lat="46.33249" lon="-0.56863">
        <ele>16.5</ele>
        <time>2020-05-31T12:46:52Z</time>
      </trkpt>
      <trkpt lat="46.33244" lon="-0.56869">
        <ele>16.6</ele>
        <time>2020-05-31T12:46:53Z</time>
      </trkpt>
      <trkpt lat="46.33241" lon="-0.56875">
        <ele>16.7</ele>
        <time>2020-05-31T12:46:54Z</time>
      </trkpt>
      <trkpt lat="46.33236" lon="-0.5688">
        <ele>16.7</ele>
        <time>2020-05-31T12:46:55Z</time>
      </trkpt>
      <trkpt lat="46.33232" lon="-0.56885">
        <ele>16.8</ele>
        <time>2020-05-31T12:46:56Z</time>
      </trkpt>
      <trkpt lat="46.33228" lon="-0.56893">
        <ele>16.9</ele>
        <time>2020-05-31T12:46:57Z</time>
      </trkpt>
      <trkpt lat="46.33224" lon="-0.56898">
        <ele>17</ele>
        <time>2020-05-31T12:46:58Z</time>
      </trkpt>
      <trkpt lat="46.3322" lon="-0.56905">
        <ele>17</ele>
        <time>2020-05-31T12:46:59Z</time>
      </trkpt>
      <trkpt lat="46.33217" lon="-0.56911">
        <ele>17</ele>
        <time>2020-05-31T12:47:00Z</time>
      </trkpt>
      <trkpt lat="46.33213" lon="-0.56917">
        <ele>17.1</ele>
        <time>2020-05-31T12:47:01Z</time>
      </trkpt>
      <trkpt lat="46.3321" lon="-0.56921">
        <ele>17</ele>
        <time>2020-05-31T12:47:02Z</time>
      </trkpt>
      <trkpt lat="46.33207" lon="-0.56927">
        <ele>17</ele>
        <time>2020-05-31T12:47:03Z</time>
      </trkpt>
      <trkpt lat="46.33204" lon="-0.56934">
        <ele>17</ele>
        <time>2020-05-31T12:47:04Z</time>
      </trkpt>
      <trkpt lat="46.33202" lon="-0.56939">
        <ele>17</ele>
        <time>2020-05-31T12:47:05Z</time>
      </trkpt>
      <trkpt lat="46.33199" lon="-0.56945">
        <ele>17</ele>
        <time>2020-05-31T12:47:06Z</time>
      </trkpt>
      <trkpt lat="46.33195" lon="-0.56952">
        <ele>17</ele>
        <time>2020-05-31T12:47:07Z</time>
      </trkpt>
      <trkpt lat="46.33191" lon="-0.56958">
        <ele>17</ele>
        <time>2020-05-31T12:47:08Z</time>
      </trkpt>
      <trkpt lat="46.33188" lon="-0.56962">
        <ele>17</ele>
        <time>2020-05-31T12:47:09Z</time>
      </trkpt>
      <trkpt lat="46.33186" lon="-0.56966">
        <ele>17.1</ele>
        <time>2020-05-31T12:47:10Z</time>
      </trkpt>
      <trkpt lat="46.33183" lon="-0.56972">
        <ele>17.1</ele>
        <time>2020-05-31T12:47:11Z</time>
      </trkpt>
      <trkpt lat="46.3318" lon="-0.56977">
        <ele>17.1</ele>
        <time>2020-05-31T12:47:12Z</time>
      </trkpt>
      <trkpt lat="46.33177" lon="-0.56982">
        <ele>17.1</ele>
        <time>2020-05-31T12:47:13Z</time>
      </trkpt>
      <trkpt lat="46.3317" lon="-0.56987">
        <ele>17.1</ele>
        <time>2020-05-31T12:47:14Z</time>
      </trkpt>
      <trkpt lat="46.33165" lon="-0.56991">
        <ele>17</ele>
        <time>2020-05-31T12:47:15Z</time>
      </trkpt>
      <trkpt lat="46.33161" lon="-0.56994">
        <ele>17</ele>
        <time>2020-05-31T12:47:16Z</time>
      </trkpt>
      <trkpt lat="46.33157" lon="-0.56998">
        <ele>17</ele>
        <time>2020-05-31T12:47:17Z</time>
      </trkpt>
      <trkpt lat="46.33151" lon="-0.57004">
        <ele>17</ele>
        <time>2020-05-31T12:47:18Z</time>
      </trkpt>
      <trkpt lat="46.33146" lon="-0.57009">
        <ele>17</ele>
        <time>2020-05-31T12:47:19Z</time>
      </trkpt>
      <trkpt lat="46.3314" lon="-0.57013">
        <ele>17</ele>
        <time>2020-05-31T12:47:20Z</time>
      </trkpt>
      <trkpt lat="46.33133" lon="-0.57019">
        <ele>17</ele>
        <time>2020-05-31T12:47:21Z</time>
      </trkpt>
      <trkpt lat="46.3312" lon="-0.57031">
        <ele>17</ele>
        <time>2020-05-31T12:47:22Z</time>
      </trkpt>
      <trkpt lat="46.33113" lon="-0.57038">
        <ele>16.9</ele>
        <time>2020-05-31T12:47:23Z</time>
      </trkpt>
      <trkpt lat="46.33105" lon="-0.57046">
        <ele>16.9</ele>
        <time>2020-05-31T12:47:24Z</time>
      </trkpt>
      <trkpt lat="46.33097" lon="-0.57053">
        <ele>16.8</ele>
        <time>2020-05-31T12:47:25Z</time>
      </trkpt>
      <trkpt lat="46.3309" lon="-0.57061">
        <ele>16.7</ele>
        <time>2020-05-31T12:47:26Z</time>
      </trkpt>
      <trkpt lat="46.33082" lon="-0.57068">
        <ele>16.5</ele>
        <time>2020-05-31T12:47:27Z</time>
      </trkpt>
      <trkpt lat="46.33075" lon="-0.57076">
        <ele>16.4</ele>
        <time>2020-05-31T12:47:28Z</time>
      </trkpt>
      <trkpt lat="46.33068" lon="-0.57083">
        <ele>16.2</ele>
        <time>2020-05-31T12:47:29Z</time>
      </trkpt>
      <trkpt lat="46.33062" lon="-0.5709">
        <ele>16.1</ele>
        <time>2020-05-31T12:47:30Z</time>
      </trkpt>
      <trkpt lat="46.33055" lon="-0.57097">
        <ele>16</ele>
        <time>2020-05-31T12:47:31Z</time>
      </trkpt>
      <trkpt lat="46.33048" lon="-0.57102">
        <ele>15.9</ele>
        <time>2020-05-31T12:47:32Z</time>
      </trkpt>
      <trkpt lat="46.33042" lon="-0.57107">
        <ele>15.8</ele>
        <time>2020-05-31T12:47:33Z</time>
      </trkpt>
      <trkpt lat="46.33036" lon="-0.57114">
        <ele>15.7</ele>
        <time>2020-05-31T12:47:34Z</time>
      </trkpt>
      <trkpt lat="46.3303" lon="-0.57119">
        <ele>15.5</ele>
        <time>2020-05-31T12:47:35Z</time>
      </trkpt>
      <trkpt lat="46.33023" lon="-0.57125">
        <ele>15.4</ele>
        <time>2020-05-31T12:47:36Z</time>
      </trkpt>
      <trkpt lat="46.33018" lon="-0.57131">
        <ele>15.3</ele>
        <time>2020-05-31T12:47:37Z</time>
      </trkpt>
      <trkpt lat="46.33013" lon="-0.57136">
        <ele>15.3</ele>
        <time>2020-05-31T12:47:38Z</time>
      </trkpt>
      <trkpt lat="46.33007" lon="-0.57142">
        <ele>15.2</ele>
        <time>2020-05-31T12:47:39Z</time>
      </trkpt>
      <trkpt lat="46.33002" lon="-0.57148">
        <ele>15.1</ele>
        <time>2020-05-31T12:47:40Z</time>
      </trkpt>
      <trkpt lat="46.32997" lon="-0.57153">
        <ele>15.1</ele>
        <time>2020-05-31T12:47:41Z</time>
      </trkpt>
      <trkpt lat="46.32992" lon="-0.57157">
        <ele>15</ele>
        <time>2020-05-31T12:47:42Z</time>
      </trkpt>
      <trkpt lat="46.32988" lon="-0.57161">
        <ele>15</ele>
        <time>2020-05-31T12:47:43Z</time>
      </trkpt>
      <trkpt lat="46.32984" lon="-0.57165">
        <ele>14.9</ele>
        <time>2020-05-31T12:47:44Z</time>
      </trkpt>
      <trkpt lat="46.3298" lon="-0.57169">
        <ele>14.9</ele>
        <time>2020-05-31T12:47:45Z</time>
      </trkpt>
      <trkpt lat="46.32975" lon="-0.57172">
        <ele>14.9</ele>
        <time>2020-05-31T12:47:46Z</time>
      </trkpt>
      <trkpt lat="46.3297" lon="-0.57176">
        <ele>14.8</ele>
        <time>2020-05-31T12:47:47Z</time>
      </trkpt>
      <trkpt lat="46.32964" lon="-0.5718">
        <ele>14.8</ele>
        <time>2020-05-31T12:47:48Z</time>
      </trkpt>
      <trkpt lat="46.3296" lon="-0.57183">
        <ele>14.7</ele>
        <time>2020-05-31T12:47:49Z</time>
      </trkpt>
      <trkpt lat="46.32957" lon="-0.57186">
        <ele>14.7</ele>
        <time>2020-05-31T12:47:50Z</time>
      </trkpt>
      <trkpt lat="46.32953" lon="-0.57191">
        <ele>14.7</ele>
        <time>2020-05-31T12:47:51Z</time>
      </trkpt>
      <trkpt lat="46.3295" lon="-0.57195">
        <ele>14.7</ele>
        <time>2020-05-31T12:47:52Z</time>
      </trkpt>
      <trkpt lat="46.32946" lon="-0.572">
        <ele>14.6</ele>
        <time>2020-05-31T12:47:53Z</time>
      </trkpt>
      <trkpt lat="46.32942" lon="-0.57205">
        <ele>14.6</ele>
        <time>2020-05-31T12:47:54Z</time>
      </trkpt>
      <trkpt lat="46.32939" lon="-0.57208">
        <ele>14.6</ele>
        <time>2020-05-31T12:47:55Z</time>
      </trkpt>
      <trkpt lat="46.32937" lon="-0.57211">
        <ele>14.6</ele>
        <time>2020-05-31T12:47:56Z</time>
      </trkpt>
      <trkpt lat="46.32934" lon="-0.57213">
        <ele>14.6</ele>
        <time>2020-05-31T12:47:57Z</time>
      </trkpt>
      <trkpt lat="46.32931" lon="-0.57216">
        <ele>14.6</ele>
        <time>2020-05-31T12:47:58Z</time>
      </trkpt>
      <trkpt lat="46.32928" lon="-0.5722">
        <ele>14.5</ele>
        <time>2020-05-31T12:47:59Z</time>
      </trkpt>
      <trkpt lat="46.32926" lon="-0.57223">
        <ele>14.5</ele>
        <time>2020-05-31T12:48:00Z</time>
      </trkpt>
      <trkpt lat="46.32923" lon="-0.57225">
        <ele>14.5</ele>
        <time>2020-05-31T12:48:01Z</time>
      </trkpt>
      <trkpt lat="46.3292" lon="-0.57228">
        <ele>14.5</ele>
        <time>2020-05-31T12:48:02Z</time>
      </trkpt>
      <trkpt lat="46.32917" lon="-0.5723">
        <ele>14.4</ele>
        <time>2020-05-31T12:48:03Z</time>
      </trkpt>
      <trkpt lat="46.32914" lon="-0.57233">
        <ele>14.4</ele>
        <time>2020-05-31T12:48:04Z</time>
      </trkpt>
      <trkpt lat="46.32911" lon="-0.57236">
        <ele>14.4</ele>
        <time>2020-05-31T12:48:05Z</time>
      </trkpt>
      <trkpt lat="46.32907" lon="-0.5724">
        <ele>14.3</ele>
        <time>2020-05-31T12:48:06Z</time>
      </trkpt>
      <trkpt lat="46.32904" lon="-0.57244">
        <ele>14.3</ele>
        <time>2020-05-31T12:48:07Z</time>
      </trkpt>
      <trkpt lat="46.329" lon="-0.57247">
        <ele>14.2</ele>
        <time>2020-05-31T12:48:08Z</time>
      </trkpt>
      <trkpt lat="46.32897" lon="-0.57251">
        <ele>14.2</ele>
        <time>2020-05-31T12:48:09Z</time>
      </trkpt>
      <trkpt lat="46.32893" lon="-0.57254">
        <ele>14.1</ele>
        <time>2020-05-31T12:48:10Z</time>
      </trkpt>
      <trkpt lat="46.3289" lon="-0.57258">
        <ele>14.1</ele>
        <time>2020-05-31T12:48:11Z</time>
      </trkpt>
      <trkpt lat="46.32887" lon="-0.57262">
        <ele>14</ele>
        <time>2020-05-31T12:48:12Z</time>
      </trkpt>
      <trkpt lat="46.32884" lon="-0.57265">
        <ele>14</ele>
        <time>2020-05-31T12:48:13Z</time>
      </trkpt>
      <trkpt lat="46.32881" lon="-0.57268">
        <ele>14</ele>
        <time>2020-05-31T12:48:14Z</time>
      </trkpt>
      <trkpt lat="46.32877" lon="-0.5727">
        <ele>13.9</ele>
        <time>2020-05-31T12:48:15Z</time>
      </trkpt>
      <trkpt lat="46.32873" lon="-0.57273">
        <ele>13.9</ele>
        <time>2020-05-31T12:48:16Z</time>
      </trkpt>
      <trkpt lat="46.32869" lon="-0.57275">
        <ele>13.8</ele>
        <time>2020-05-31T12:48:17Z</time>
      </trkpt>
      <trkpt lat="46.32864" lon="-0.57278">
        <ele>13.7</ele>
        <time>2020-05-31T12:48:18Z</time>
      </trkpt>
      <trkpt lat="46.3286" lon="-0.57281">
        <ele>13.6</ele>
        <time>2020-05-31T12:48:19Z</time>
      </trkpt>
      <trkpt lat="46.32854" lon="-0.57284">
        <ele>13.6</ele>
        <time>2020-05-31T12:48:20Z</time>
      </trkpt>
      <trkpt lat="46.32849" lon="-0.57287">
        <ele>13.5</ele>
        <time>2020-05-31T12:48:21Z</time>
      </trkpt>
      <trkpt lat="46.32844" lon="-0.5729">
        <ele>13.4</ele>
        <time>2020-05-31T12:48:22Z</time>
      </trkpt>
      <trkpt lat="46.3284" lon="-0.57294">
        <ele>13.3</ele>
        <time>2020-05-31T12:48:23Z</time>
      </trkpt>
      <trkpt lat="46.32835" lon="-0.57298">
        <ele>13.2</ele>
        <time>2020-05-31T12:48:24Z</time>
      </trkpt>
      <trkpt lat="46.3283" lon="-0.57302">
        <ele>13.1</ele>
        <time>2020-05-31T12:48:25Z</time>
      </trkpt>
      <trkpt lat="46.32825" lon="-0.57305">
        <ele>13</ele>
        <time>2020-05-31T12:48:26Z</time>
      </trkpt>
      <trkpt lat="46.32819" lon="-0.57308">
        <ele>12.9</ele>
        <time>2020-05-31T12:48:27Z</time>
      </trkpt>
      <trkpt lat="46.32814" lon="-0.57312">
        <ele>12.8</ele>
        <time>2020-05-31T12:48:28Z</time>
      </trkpt>
      <trkpt lat="46.32809" lon="-0.57316">
        <ele>12.7</ele>
        <time>2020-05-31T12:48:29Z</time>
      </trkpt>
      <trkpt lat="46.32805" lon="-0.57321">
        <ele>12.6</ele>
        <time>2020-05-31T12:48:30Z</time>
      </trkpt>
      <trkpt lat="46.328" lon="-0.57326">
        <ele>12.5</ele>
        <time>2020-05-31T12:48:31Z</time>
      </trkpt>
      <trkpt lat="46.32795" lon="-0.57331">
        <ele>12.4</ele>
        <time>2020-05-31T12:48:32Z</time>
      </trkpt>
      <trkpt lat="46.32791" lon="-0.57336">
        <ele>12.3</ele>
        <time>2020-05-31T12:48:33Z</time>
      </trkpt>
      <trkpt lat="46.32787" lon="-0.5734">
        <ele>12.2</ele>
        <time>2020-05-31T12:48:34Z</time>
      </trkpt>
      <trkpt lat="46.32783" lon="-0.57345">
        <ele>12.2</ele>
        <time>2020-05-31T12:48:35Z</time>
      </trkpt>
      <trkpt lat="46.32779" lon="-0.57351">
        <ele>12.1</ele>
        <time>2020-05-31T12:48:36Z</time>
      </trkpt>
      <trkpt lat="46.32775" lon="-0.57357">
        <ele>12.1</ele>
        <time>2020-05-31T12:48:37Z</time>
      </trkpt>
      <trkpt lat="46.32772" lon="-0.57364">
        <ele>12.1</ele>
        <time>2020-05-31T12:48:38Z</time>
      </trkpt>
      <trkpt lat="46.3277" lon="-0.57371">
        <ele>12.1</ele>
        <time>2020-05-31T12:48:39Z</time>
      </trkpt>
      <trkpt lat="46.32768" lon="-0.57378">
        <ele>12.2</ele>
        <time>2020-05-31T12:48:40Z</time>
      </trkpt>
      <trkpt lat="46.32766" lon="-0.57385">
        <ele>12.2</ele>
        <time>2020-05-31T12:48:41Z</time>
      </trkpt>
      <trkpt lat="46.32764" lon="-0.57392">
        <ele>12.2</ele>
        <time>2020-05-31T12:48:42Z</time>
      </trkpt>
      <trkpt lat="46.32762" lon="-0.57399">
        <ele>12.1</ele>
        <time>2020-05-31T12:48:43Z</time>
      </trkpt>
      <trkpt lat="46.3276" lon="-0.57407">
        <ele>12.1</ele>
        <time>2020-05-31T12:48:44Z</time>
      </trkpt>
      <trkpt lat="46.32757" lon="-0.57416">
        <ele>12.1</ele>
        <time>2020-05-31T12:48:45Z</time>
      </trkpt>
      <trkpt lat="46.32755" lon="-0.57423">
        <ele>12</ele>
        <time>2020-05-31T12:48:46Z</time>
      </trkpt>
      <trkpt lat="46.32752" lon="-0.57431">
        <ele>12</ele>
        <time>2020-05-31T12:48:47Z</time>
      </trkpt>
      <trkpt lat="46.3275" lon="-0.57439">
        <ele>12</ele>
        <time>2020-05-31T12:48:48Z</time>
      </trkpt>
      <trkpt lat="46.32748" lon="-0.57447">
        <ele>11.9</ele>
        <time>2020-05-31T12:48:49Z</time>
      </trkpt>
      <trkpt lat="46.32745" lon="-0.57455">
        <ele>11.8</ele>
        <time>2020-05-31T12:48:50Z</time>
      </trkpt>
      <trkpt lat="46.32743" lon="-0.57463">
        <ele>11.7</ele>
        <time>2020-05-31T12:48:51Z</time>
      </trkpt>
      <trkpt lat="46.3274" lon="-0.5747">
        <ele>11.6</ele>
        <time>2020-05-31T12:48:52Z</time>
      </trkpt>
      <trkpt lat="46.32738" lon="-0.57478">
        <ele>11.5</ele>
        <time>2020-05-31T12:48:53Z</time>
      </trkpt>
      <trkpt lat="46.32735" lon="-0.57486">
        <ele>11.4</ele>
        <time>2020-05-31T12:48:54Z</time>
      </trkpt>
      <trkpt lat="46.32733" lon="-0.57493">
        <ele>11.3</ele>
        <time>2020-05-31T12:48:55Z</time>
      </trkpt>
      <trkpt lat="46.3273" lon="-0.575">
        <ele>11.2</ele>
        <time>2020-05-31T12:48:56Z</time>
      </trkpt>
      <trkpt lat="46.32727" lon="-0.57507">
        <ele>11.2</ele>
        <time>2020-05-31T12:48:57Z</time>
      </trkpt>
      <trkpt lat="46.32723" lon="-0.57514">
        <ele>11.1</ele>
        <time>2020-05-31T12:48:58Z</time>
      </trkpt>
      <trkpt lat="46.3272" lon="-0.57521">
        <ele>11</ele>
        <time>2020-05-31T12:48:59Z</time>
      </trkpt>
      <trkpt lat="46.32717" lon="-0.57528">
        <ele>10.9</ele>
        <time>2020-05-31T12:49:00Z</time>
      </trkpt>
      <trkpt lat="46.32715" lon="-0.57536">
        <ele>10.8</ele>
        <time>2020-05-31T12:49:01Z</time>
      </trkpt>
      <trkpt lat="46.32712" lon="-0.57544">
        <ele>10.7</ele>
        <time>2020-05-31T12:49:02Z</time>
      </trkpt>
      <trkpt lat="46.32709" lon="-0.57552">
        <ele>10.7</ele>
        <time>2020-05-31T12:49:03Z</time>
      </trkpt>
      <trkpt lat="46.32706" lon="-0.57559">
        <ele>10.7</ele>
        <time>2020-05-31T12:49:04Z</time>
      </trkpt>
      <trkpt lat="46.32703" lon="-0.57566">
        <ele>10.6</ele>
        <time>2020-05-31T12:49:05Z</time>
      </trkpt>
      <trkpt lat="46.32701" lon="-0.57574">
        <ele>10.6</ele>
        <time>2020-05-31T12:49:06Z</time>
      </trkpt>
      <trkpt lat="46.32698" lon="-0.57581">
        <ele>10.5</ele>
        <time>2020-05-31T12:49:07Z</time>
      </trkpt>
      <trkpt lat="46.32695" lon="-0.57588">
        <ele>10.4</ele>
        <time>2020-05-31T12:49:08Z</time>
      </trkpt>
      <trkpt lat="46.32693" lon="-0.57596">
        <ele>10.3</ele>
        <time>2020-05-31T12:49:09Z</time>
      </trkpt>
      <trkpt lat="46.32691" lon="-0.57603">
        <ele>10.2</ele>
        <time>2020-05-31T12:49:10Z</time>
      </trkpt>
      <trkpt lat="46.32689" lon="-0.5761">
        <ele>10.1</ele>
        <time>2020-05-31T12:49:11Z</time>
      </trkpt>
      <trkpt lat="46.32687" lon="-0.57617">
        <ele>10</ele>
        <time>2020-05-31T12:49:12Z</time>
      </trkpt>
      <trkpt lat="46.32685" lon="-0.57626">
        <ele>9.9</ele>
        <time>2020-05-31T12:49:13Z</time>
      </trkpt>
      <trkpt lat="46.32683" lon="-0.57635">
        <ele>9.8</ele>
        <time>2020-05-31T12:49:14Z</time>
      </trkpt>
      <trkpt lat="46.32681" lon="-0.57643">
        <ele>9.7</ele>
        <time>2020-05-31T12:49:15Z</time>
      </trkpt>
      <trkpt lat="46.3268" lon="-0.57649">
        <ele>9.6</ele>
        <time>2020-05-31T12:49:16Z</time>
      </trkpt>
      <trkpt lat="46.32677" lon="-0.57657">
        <ele>9.6</ele>
        <time>2020-05-31T12:49:17Z</time>
      </trkpt>
      <trkpt lat="46.32674" lon="-0.57664">
        <ele>9.5</ele>
        <time>2020-05-31T12:49:18Z</time>
      </trkpt>
      <trkpt lat="46.32672" lon="-0.5767">
        <ele>9.5</ele>
        <time>2020-05-31T12:49:19Z</time>
      </trkpt>
      <trkpt lat="46.32669" lon="-0.57679">
        <ele>9.4</ele>
        <time>2020-05-31T12:49:20Z</time>
      </trkpt>
      <trkpt lat="46.32666" lon="-0.57688">
        <ele>9.3</ele>
        <time>2020-05-31T12:49:21Z</time>
      </trkpt>
      <trkpt lat="46.32664" lon="-0.57697">
        <ele>9.2</ele>
        <time>2020-05-31T12:49:22Z</time>
      </trkpt>
      <trkpt lat="46.32661" lon="-0.57705">
        <ele>9.2</ele>
        <time>2020-05-31T12:49:23Z</time>
      </trkpt>
      <trkpt lat="46.32659" lon="-0.57712">
        <ele>9.1</ele>
        <time>2020-05-31T12:49:24Z</time>
      </trkpt>
      <trkpt lat="46.32657" lon="-0.57718">
        <ele>9.1</ele>
        <time>2020-05-31T12:49:25Z</time>
      </trkpt>
      <trkpt lat="46.32655" lon="-0.57724">
        <ele>9.1</ele>
        <time>2020-05-31T12:49:26Z</time>
      </trkpt>
      <trkpt lat="46.32652" lon="-0.57731">
        <ele>9</ele>
        <time>2020-05-31T12:49:27Z</time>
      </trkpt>
      <trkpt lat="46.3265" lon="-0.57737">
        <ele>9</ele>
        <time>2020-05-31T12:49:28Z</time>
      </trkpt>
      <trkpt lat="46.32648" lon="-0.57743">
        <ele>9</ele>
        <time>2020-05-31T12:49:29Z</time>
      </trkpt>
      <trkpt lat="46.32645" lon="-0.57749">
        <ele>9</ele>
        <time>2020-05-31T12:49:30Z</time>
      </trkpt>
      <trkpt lat="46.32643" lon="-0.57755">
        <ele>9</ele>
        <time>2020-05-31T12:49:31Z</time>
      </trkpt>
      <trkpt lat="46.32641" lon="-0.5776">
        <ele>9</ele>
        <time>2020-05-31T12:49:32Z</time>
      </trkpt>
      <trkpt lat="46.32639" lon="-0.57767">
        <ele>9</ele>
        <time>2020-05-31T12:49:33Z</time>
      </trkpt>
      <trkpt lat="46.32636" lon="-0.57775">
        <ele>9</ele>
        <time>2020-05-31T12:49:34Z</time>
      </trkpt>
      <trkpt lat="46.32633" lon="-0.57781">
        <ele>9</ele>
        <time>2020-05-31T12:49:35Z</time>
      </trkpt>
      <trkpt lat="46.32631" lon="-0.57787">
        <ele>9</ele>
        <time>2020-05-31T12:49:36Z</time>
      </trkpt>
      <trkpt lat="46.32629" lon="-0.57794">
        <ele>9</ele>
        <time>2020-05-31T12:49:37Z</time>
      </trkpt>
      <trkpt lat="46.32624" lon="-0.57802">
        <ele>9.1</ele>
        <time>2020-05-31T12:49:38Z</time>
      </trkpt>
      <trkpt lat="46.3262" lon="-0.57809">
        <ele>9.1</ele>
        <time>2020-05-31T12:49:39Z</time>
      </trkpt>
      <trkpt lat="46.32616" lon="-0.57816">
        <ele>9.1</ele>
        <time>2020-05-31T12:49:40Z</time>
      </trkpt>
      <trkpt lat="46.32613" lon="-0.57822">
        <ele>9.2</ele>
        <time>2020-05-31T12:49:41Z</time>
      </trkpt>
      <trkpt lat="46.32611" lon="-0.57828">
        <ele>9.2</ele>
        <time>2020-05-31T12:49:42Z</time>
      </trkpt>
      <trkpt lat="46.32608" lon="-0.57835">
        <ele>9.2</ele>
        <time>2020-05-31T12:49:43Z</time>
      </trkpt>
      <trkpt lat="46.32605" lon="-0.57843">
        <ele>9.2</ele>
        <time>2020-05-31T12:49:44Z</time>
      </trkpt>
      <trkpt lat="46.32602" lon="-0.5785">
        <ele>9.2</ele>
        <time>2020-05-31T12:49:45Z</time>
      </trkpt>
      <trkpt lat="46.32599" lon="-0.57855">
        <ele>9.3</ele>
        <time>2020-05-31T12:49:46Z</time>
      </trkpt>
      <trkpt lat="46.32596" lon="-0.5786">
        <ele>9.3</ele>
        <time>2020-05-31T12:49:47Z</time>
      </trkpt>
      <trkpt lat="46.32594" lon="-0.57865">
        <ele>9.3</ele>
        <time>2020-05-31T12:49:48Z</time>
      </trkpt>
      <trkpt lat="46.32591" lon="-0.5787">
        <ele>9.3</ele>
        <time>2020-05-31T12:49:49Z</time>
      </trkpt>
      <trkpt lat="46.32589" lon="-0.57875">
        <ele>9.3</ele>
        <time>2020-05-31T12:49:50Z</time>
      </trkpt>
      <trkpt lat="46.32586" lon="-0.57879">
        <ele>9.3</ele>
        <time>2020-05-31T12:49:51Z</time>
      </trkpt>
      <trkpt lat="46.32583" lon="-0.57886">
        <ele>9.3</ele>
        <time>2020-05-31T12:49:52Z</time>
      </trkpt>
      <trkpt lat="46.3258" lon="-0.57894">
        <ele>9.3</ele>
        <time>2020-05-31T12:49:53Z</time>
      </trkpt>
      <trkpt lat="46.32575" lon="-0.57901">
        <ele>9.4</ele>
        <time>2020-05-31T12:49:54Z</time>
      </trkpt>
      <trkpt lat="46.32572" lon="-0.57908">
        <ele>9.4</ele>
        <time>2020-05-31T12:49:55Z</time>
      </trkpt>
      <trkpt lat="46.3257" lon="-0.57916">
        <ele>9.4</ele>
        <time>2020-05-31T12:49:56Z</time>
      </trkpt>
      <trkpt lat="46.32567" lon="-0.57924">
        <ele>9.3</ele>
        <time>2020-05-31T12:49:57Z</time>
      </trkpt>
      <trkpt lat="46.32564" lon="-0.57931">
        <ele>9.3</ele>
        <time>2020-05-31T12:49:58Z</time>
      </trkpt>
      <trkpt lat="46.32562" lon="-0.57939">
        <ele>9.2</ele>
        <time>2020-05-31T12:49:59Z</time>
      </trkpt>
      <trkpt lat="46.32559" lon="-0.57947">
        <ele>9</ele>
        <time>2020-05-31T12:50:00Z</time>
      </trkpt>
      <trkpt lat="46.32556" lon="-0.57955">
        <ele>8.9</ele>
        <time>2020-05-31T12:50:01Z</time>
      </trkpt>
      <trkpt lat="46.32549" lon="-0.57963">
        <ele>8.8</ele>
        <time>2020-05-31T12:50:02Z</time>
      </trkpt>
      <trkpt lat="46.32546" lon="-0.57973">
        <ele>8.7</ele>
        <time>2020-05-31T12:50:03Z</time>
      </trkpt>
      <trkpt lat="46.32543" lon="-0.57983">
        <ele>8.7</ele>
        <time>2020-05-31T12:50:04Z</time>
      </trkpt>
      <trkpt lat="46.32539" lon="-0.57992">
        <ele>8.6</ele>
        <time>2020-05-31T12:50:05Z</time>
      </trkpt>
      <trkpt lat="46.32534" lon="-0.58001">
        <ele>8.6</ele>
        <time>2020-05-31T12:50:06Z</time>
      </trkpt>
      <trkpt lat="46.3253" lon="-0.58012">
        <ele>8.6</ele>
        <time>2020-05-31T12:50:07Z</time>
      </trkpt>
      <trkpt lat="46.32525" lon="-0.58023">
        <ele>8.6</ele>
        <time>2020-05-31T12:50:08Z</time>
      </trkpt>
      <trkpt lat="46.3252" lon="-0.58033">
        <ele>8.6</ele>
        <time>2020-05-31T12:50:09Z</time>
      </trkpt>
      <trkpt lat="46.32516" lon="-0.58044">
        <ele>8.6</ele>
        <time>2020-05-31T12:50:10Z</time>
      </trkpt>
      <trkpt lat="46.32513" lon="-0.58058">
        <ele>8.6</ele>
        <time>2020-05-31T12:50:11Z</time>
      </trkpt>
      <trkpt lat="46.3251" lon="-0.5807">
        <ele>8.5</ele>
        <time>2020-05-31T12:50:12Z</time>
      </trkpt>
      <trkpt lat="46.32507" lon="-0.58081">
        <ele>8.5</ele>
        <time>2020-05-31T12:50:13Z</time>
      </trkpt>
      <trkpt lat="46.32505" lon="-0.58092">
        <ele>8.5</ele>
        <time>2020-05-31T12:50:14Z</time>
      </trkpt>
      <trkpt lat="46.32503" lon="-0.58103">
        <ele>8.5</ele>
        <time>2020-05-31T12:50:15Z</time>
      </trkpt>
      <trkpt lat="46.325" lon="-0.58113">
        <ele>8.5</ele>
        <time>2020-05-31T12:50:16Z</time>
      </trkpt>
      <trkpt lat="46.32498" lon="-0.58122">
        <ele>8.4</ele>
        <time>2020-05-31T12:50:17Z</time>
      </trkpt>
      <trkpt lat="46.32495" lon="-0.5813">
        <ele>8.4</ele>
        <time>2020-05-31T12:50:18Z</time>
      </trkpt>
      <trkpt lat="46.32492" lon="-0.58136">
        <ele>8.4</ele>
        <time>2020-05-31T12:50:19Z</time>
      </trkpt>
      <trkpt lat="46.3249" lon="-0.58144">
        <ele>8.4</ele>
        <time>2020-05-31T12:50:20Z</time>
      </trkpt>
      <trkpt lat="46.32487" lon="-0.58151">
        <ele>8.3</ele>
        <time>2020-05-31T12:50:21Z</time>
      </trkpt>
      <trkpt lat="46.32485" lon="-0.58158">
        <ele>8.3</ele>
        <time>2020-05-31T12:50:22Z</time>
      </trkpt>
      <trkpt lat="46.32482" lon="-0.58165">
        <ele>8.3</ele>
        <time>2020-05-31T12:50:23Z</time>
      </trkpt>
      <trkpt lat="46.32481" lon="-0.58171">
        <ele>8.2</ele>
        <time>2020-05-31T12:50:24Z</time>
      </trkpt>
      <trkpt lat="46.32479" lon="-0.5818">
        <ele>8.2</ele>
        <time>2020-05-31T12:50:25Z</time>
      </trkpt>
      <trkpt lat="46.32477" lon="-0.58188">
        <ele>8.2</ele>
        <time>2020-05-31T12:50:26Z</time>
      </trkpt>
      <trkpt lat="46.32475" lon="-0.58196">
        <ele>8.2</ele>
        <time>2020-05-31T12:50:27Z</time>
      </trkpt>
      <trkpt lat="46.32474" lon="-0.58204">
        <ele>8.1</ele>
        <time>2020-05-31T12:50:28Z</time>
      </trkpt>
      <trkpt lat="46.32472" lon="-0.5821">
        <ele>8.1</ele>
        <time>2020-05-31T12:50:29Z</time>
      </trkpt>
      <trkpt lat="46.3247" lon="-0.58217">
        <ele>8.1</ele>
        <time>2020-05-31T12:50:30Z</time>
      </trkpt>
      <trkpt lat="46.32468" lon="-0.58222">
        <ele>8.1</ele>
        <time>2020-05-31T12:50:31Z</time>
      </trkpt>
      <trkpt lat="46.32467" lon="-0.58227">
        <ele>8.1</ele>
        <time>2020-05-31T12:50:32Z</time>
      </trkpt>
      <trkpt lat="46.32465" lon="-0.58235">
        <ele>8.1</ele>
        <time>2020-05-31T12:50:33Z</time>
      </trkpt>
      <trkpt lat="46.32464" lon="-0.58243">
        <ele>8.1</ele>
        <time>2020-05-31T12:50:34Z</time>
      </trkpt>
      <trkpt lat="46.32463" lon="-0.5825">
        <ele>8.1</ele>
        <time>2020-05-31T12:50:35Z</time>
      </trkpt>
      <trkpt lat="46.32462" lon="-0.58257">
        <ele>8.1</ele>
        <time>2020-05-31T12:50:36Z</time>
      </trkpt>
      <trkpt lat="46.3246" lon="-0.58263">
        <ele>8.1</ele>
        <time>2020-05-31T12:50:37Z</time>
      </trkpt>
      <trkpt lat="46.32459" lon="-0.58269">
        <ele>8.1</ele>
        <time>2020-05-31T12:50:38Z</time>
      </trkpt>
      <trkpt lat="46.32457" lon="-0.58276">
        <ele>8.1</ele>
        <time>2020-05-31T12:50:39Z</time>
      </trkpt>
      <trkpt lat="46.32455" lon="-0.58282">
        <ele>8.1</ele>
        <time>2020-05-31T12:50:40Z</time>
      </trkpt>
      <trkpt lat="46.32454" lon="-0.58289">
        <ele>8.1</ele>
        <time>2020-05-31T12:50:41Z</time>
      </trkpt>
      <trkpt lat="46.32452" lon="-0.58295">
        <ele>8.1</ele>
        <time>2020-05-31T12:50:42Z</time>
      </trkpt>
      <trkpt lat="46.3245" lon="-0.58302">
        <ele>8.1</ele>
        <time>2020-05-31T12:50:43Z</time>
      </trkpt>
      <trkpt lat="46.32449" lon="-0.58308">
        <ele>8.1</ele>
        <time>2020-05-31T12:50:44Z</time>
      </trkpt>
      <trkpt lat="46.32447" lon="-0.58314">
        <ele>8.1</ele>
        <time>2020-05-31T12:50:45Z</time>
      </trkpt>
      <trkpt lat="46.32446" lon="-0.58318">
        <ele>8.1</ele>
        <time>2020-05-31T12:50:46Z</time>
      </trkpt>
      <trkpt lat="46.32445" lon="-0.58324">
        <ele>8.1</ele>
        <time>2020-05-31T12:50:47Z</time>
      </trkpt>
      <trkpt lat="46.32444" lon="-0.58329">
        <ele>8.1</ele>
        <time>2020-05-31T12:50:48Z</time>
      </trkpt>
      <trkpt lat="46.32443" lon="-0.58335">
        <ele>8.1</ele>
        <time>2020-05-31T12:50:49Z</time>
      </trkpt>
      <trkpt lat="46.32442" lon="-0.5834">
        <ele>8.1</ele>
        <time>2020-05-31T12:50:50Z</time>
      </trkpt>
      <trkpt lat="46.32441" lon="-0.58345">
        <ele>8.1</ele>
        <time>2020-05-31T12:50:51Z</time>
      </trkpt>
      <trkpt lat="46.3244" lon="-0.58351">
        <ele>8.1</ele>
        <time>2020-05-31T12:50:52Z</time>
      </trkpt>
      <trkpt lat="46.32438" lon="-0.58357">
        <ele>8.1</ele>
        <time>2020-05-31T12:50:53Z</time>
      </trkpt>
      <trkpt lat="46.32436" lon="-0.58362">
        <ele>8.1</ele>
        <time>2020-05-31T12:50:54Z</time>
      </trkpt>
      <trkpt lat="46.32435" lon="-0.58368">
        <ele>8.1</ele>
        <time>2020-05-31T12:50:55Z</time>
      </trkpt>
      <trkpt lat="46.32434" lon="-0.58375">
        <ele>8.1</ele>
        <time>2020-05-31T12:50:56Z</time>
      </trkpt>
      <trkpt lat="46.32433" lon="-0.58381">
        <ele>8.1</ele>
        <time>2020-05-31T12:50:57Z</time>
      </trkpt>
      <trkpt lat="46.32432" lon="-0.58387">
        <ele>8.1</ele>
        <time>2020-05-31T12:50:58Z</time>
      </trkpt>
      <trkpt lat="46.3243" lon="-0.58395">
        <ele>8</ele>
        <time>2020-05-31T12:50:59Z</time>
      </trkpt>
      <trkpt lat="46.32427" lon="-0.58401">
        <ele>8</ele>
        <time>2020-05-31T12:51:00Z</time>
      </trkpt>
      <trkpt lat="46.32425" lon="-0.58408">
        <ele>8</ele>
        <time>2020-05-31T12:51:01Z</time>
      </trkpt>
      <trkpt lat="46.32423" lon="-0.58415">
        <ele>8</ele>
        <time>2020-05-31T12:51:02Z</time>
      </trkpt>
      <trkpt lat="46.32421" lon="-0.58422">
        <ele>7.9</ele>
        <time>2020-05-31T12:51:03Z</time>
      </trkpt>
      <trkpt lat="46.32419" lon="-0.58428">
        <ele>7.9</ele>
        <time>2020-05-31T12:51:04Z</time>
      </trkpt>
      <trkpt lat="46.32417" lon="-0.58433">
        <ele>7.9</ele>
        <time>2020-05-31T12:51:05Z</time>
      </trkpt>
      <trkpt lat="46.32416" lon="-0.58438">
        <ele>7.8</ele>
        <time>2020-05-31T12:51:06Z</time>
      </trkpt>
      <trkpt lat="46.32415" lon="-0.58444">
        <ele>7.8</ele>
        <time>2020-05-31T12:51:07Z</time>
      </trkpt>
      <trkpt lat="46.32413" lon="-0.5845">
        <ele>7.8</ele>
        <time>2020-05-31T12:51:08Z</time>
      </trkpt>
      <trkpt lat="46.32411" lon="-0.58456">
        <ele>7.8</ele>
        <time>2020-05-31T12:51:09Z</time>
      </trkpt>
      <trkpt lat="46.3241" lon="-0.58461">
        <ele>7.7</ele>
        <time>2020-05-31T12:51:10Z</time>
      </trkpt>
      <trkpt lat="46.32408" lon="-0.58466">
        <ele>7.7</ele>
        <time>2020-05-31T12:51:11Z</time>
      </trkpt>
      <trkpt lat="46.32405" lon="-0.58473">
        <ele>7.7</ele>
        <time>2020-05-31T12:51:12Z</time>
      </trkpt>
      <trkpt lat="46.32402" lon="-0.58479">
        <ele>7.7</ele>
        <time>2020-05-31T12:51:13Z</time>
      </trkpt>
      <trkpt lat="46.324" lon="-0.58483">
        <ele>7.6</ele>
        <time>2020-05-31T12:51:14Z</time>
      </trkpt>
      <trkpt lat="46.32398" lon="-0.58488">
        <ele>7.6</ele>
        <time>2020-05-31T12:51:15Z</time>
      </trkpt>
      <trkpt lat="46.32395" lon="-0.58493">
        <ele>7.6</ele>
        <time>2020-05-31T12:51:16Z</time>
      </trkpt>
      <trkpt lat="46.32391" lon="-0.58499">
        <ele>7.6</ele>
        <time>2020-05-31T12:51:17Z</time>
      </trkpt>
      <trkpt lat="46.32387" lon="-0.58504">
        <ele>7.6</ele>
        <time>2020-05-31T12:51:18Z</time>
      </trkpt>
      <trkpt lat="46.32386" lon="-0.58513">
        <ele>7.5</ele>
        <time>2020-05-31T12:51:19Z</time>
      </trkpt>
      <trkpt lat="46.32384" lon="-0.58519">
        <ele>7.5</ele>
        <time>2020-05-31T12:51:20Z</time>
      </trkpt>
      <trkpt lat="46.32382" lon="-0.58525">
        <ele>7.5</ele>
        <time>2020-05-31T12:51:21Z</time>
      </trkpt>
      <trkpt lat="46.3238" lon="-0.58532">
        <ele>7.5</ele>
        <time>2020-05-31T12:51:22Z</time>
      </trkpt>
      <trkpt lat="46.32378" lon="-0.58538">
        <ele>7.5</ele>
        <time>2020-05-31T12:51:23Z</time>
      </trkpt>
      <trkpt lat="46.32377" lon="-0.58544">
        <ele>7.4</ele>
        <time>2020-05-31T12:51:24Z</time>
      </trkpt>
      <trkpt lat="46.32375" lon="-0.5855">
        <ele>7.4</ele>
        <time>2020-05-31T12:51:25Z</time>
      </trkpt>
      <trkpt lat="46.32373" lon="-0.58557">
        <ele>7.4</ele>
        <time>2020-05-31T12:51:26Z</time>
      </trkpt>
      <trkpt lat="46.32371" lon="-0.58565">
        <ele>7.4</ele>
        <time>2020-05-31T12:51:27Z</time>
      </trkpt>
      <trkpt lat="46.32369" lon="-0.58573">
        <ele>7.4</ele>
        <time>2020-05-31T12:51:28Z</time>
      </trkpt>
      <trkpt lat="46.32368" lon="-0.58581">
        <ele>7.4</ele>
        <time>2020-05-31T12:51:29Z</time>
      </trkpt>
      <trkpt lat="46.32367" lon="-0.5859">
        <ele>7.4</ele>
        <time>2020-05-31T12:51:30Z</time>
      </trkpt>
      <trkpt lat="46.32366" lon="-0.58598">
        <ele>7.4</ele>
        <time>2020-05-31T12:51:31Z</time>
      </trkpt>
      <trkpt lat="46.32365" lon="-0.58607">
        <ele>7.4</ele>
        <time>2020-05-31T12:51:32Z</time>
      </trkpt>
      <trkpt lat="46.32363" lon="-0.58615">
        <ele>7.4</ele>
        <time>2020-05-31T12:51:33Z</time>
      </trkpt>
      <trkpt lat="46.32362" lon="-0.58624">
        <ele>7.5</ele>
        <time>2020-05-31T12:51:34Z</time>
      </trkpt>
      <trkpt lat="46.3236" lon="-0.58631">
        <ele>7.5</ele>
        <time>2020-05-31T12:51:35Z</time>
      </trkpt>
      <trkpt lat="46.32357" lon="-0.58637">
        <ele>7.5</ele>
        <time>2020-05-31T12:51:36Z</time>
      </trkpt>
      <trkpt lat="46.32354" lon="-0.58644">
        <ele>7.5</ele>
        <time>2020-05-31T12:51:37Z</time>
      </trkpt>
      <trkpt lat="46.32351" lon="-0.58651">
        <ele>7.5</ele>
        <time>2020-05-31T12:51:38Z</time>
      </trkpt>
      <trkpt lat="46.32348" lon="-0.58658">
        <ele>7.5</ele>
        <time>2020-05-31T12:51:39Z</time>
      </trkpt>
      <trkpt lat="46.32344" lon="-0.58665">
        <ele>7.5</ele>
        <time>2020-05-31T12:51:40Z</time>
      </trkpt>
      <trkpt lat="46.32341" lon="-0.58671">
        <ele>7.5</ele>
        <time>2020-05-31T12:51:41Z</time>
      </trkpt>
      <trkpt lat="46.32339" lon="-0.58677">
        <ele>7.5</ele>
        <time>2020-05-31T12:51:42Z</time>
      </trkpt>
      <trkpt lat="46.32336" lon="-0.58684">
        <ele>7.4</ele>
        <time>2020-05-31T12:51:43Z</time>
      </trkpt>
      <trkpt lat="46.32333" lon="-0.58689">
        <ele>7.4</ele>
        <time>2020-05-31T12:51:44Z</time>
      </trkpt>
      <trkpt lat="46.32329" lon="-0.58695">
        <ele>7.4</ele>
        <time>2020-05-31T12:51:45Z</time>
      </trkpt>
      <trkpt lat="46.32326" lon="-0.58701">
        <ele>7.4</ele>
        <time>2020-05-31T12:51:46Z</time>
      </trkpt>
      <trkpt lat="46.32322" lon="-0.58707">
        <ele>7.4</ele>
        <time>2020-05-31T12:51:47Z</time>
      </trkpt>
      <trkpt lat="46.32318" lon="-0.58712">
        <ele>7.4</ele>
        <time>2020-05-31T12:51:48Z</time>
      </trkpt>
      <trkpt lat="46.32315" lon="-0.58717">
        <ele>7.3</ele>
        <time>2020-05-31T12:51:49Z</time>
      </trkpt>
      <trkpt lat="46.32312" lon="-0.58723">
        <ele>7.3</ele>
        <time>2020-05-31T12:51:50Z</time>
      </trkpt>
      <trkpt lat="46.32308" lon="-0.58729">
        <ele>7.2</ele>
        <time>2020-05-31T12:51:51Z</time>
      </trkpt>
      <trkpt lat="46.32304" lon="-0.58735">
        <ele>7.2</ele>
        <time>2020-05-31T12:51:52Z</time>
      </trkpt>
      <trkpt lat="46.323" lon="-0.58741">
        <ele>7.2</ele>
        <time>2020-05-31T12:51:53Z</time>
      </trkpt>
      <trkpt lat="46.32297" lon="-0.58747">
        <ele>7.1</ele>
        <time>2020-05-31T12:51:54Z</time>
      </trkpt>
      <trkpt lat="46.32294" lon="-0.58754">
        <ele>7.1</ele>
        <time>2020-05-31T12:51:55Z</time>
      </trkpt>
      <trkpt lat="46.3229" lon="-0.5876">
        <ele>7.1</ele>
        <time>2020-05-31T12:51:56Z</time>
      </trkpt>
      <trkpt lat="46.32287" lon="-0.58766">
        <ele>7</ele>
        <time>2020-05-31T12:51:57Z</time>
      </trkpt>
      <trkpt lat="46.32284" lon="-0.58773">
        <ele>7</ele>
        <time>2020-05-31T12:51:58Z</time>
      </trkpt>
      <trkpt lat="46.32281" lon="-0.5878">
        <ele>7</ele>
        <time>2020-05-31T12:51:59Z</time>
      </trkpt>
      <trkpt lat="46.32277" lon="-0.58786">
        <ele>6.9</ele>
        <time>2020-05-31T12:52:00Z</time>
      </trkpt>
      <trkpt lat="46.32273" lon="-0.58791">
        <ele>6.8</ele>
        <time>2020-05-31T12:52:01Z</time>
      </trkpt>
      <trkpt lat="46.32269" lon="-0.58796">
        <ele>6.7</ele>
        <time>2020-05-31T12:52:02Z</time>
      </trkpt>
      <trkpt lat="46.32266" lon="-0.58803">
        <ele>6.7</ele>
        <time>2020-05-31T12:52:03Z</time>
      </trkpt>
      <trkpt lat="46.32262" lon="-0.58808">
        <ele>6.6</ele>
        <time>2020-05-31T12:52:04Z</time>
      </trkpt>
      <trkpt lat="46.32259" lon="-0.58815">
        <ele>6.6</ele>
        <time>2020-05-31T12:52:05Z</time>
      </trkpt>
      <trkpt lat="46.32255" lon="-0.58819">
        <ele>6.5</ele>
        <time>2020-05-31T12:52:06Z</time>
      </trkpt>
      <trkpt lat="46.3225" lon="-0.58824">
        <ele>6.5</ele>
        <time>2020-05-31T12:52:07Z</time>
      </trkpt>
      <trkpt lat="46.32246" lon="-0.5883">
        <ele>6.4</ele>
        <time>2020-05-31T12:52:08Z</time>
      </trkpt>
      <trkpt lat="46.32242" lon="-0.58835">
        <ele>6.3</ele>
        <time>2020-05-31T12:52:09Z</time>
      </trkpt>
      <trkpt lat="46.32238" lon="-0.58841">
        <ele>6.3</ele>
        <time>2020-05-31T12:52:10Z</time>
      </trkpt>
      <trkpt lat="46.32235" lon="-0.58847">
        <ele>6.2</ele>
        <time>2020-05-31T12:52:11Z</time>
      </trkpt>
      <trkpt lat="46.32231" lon="-0.58852">
        <ele>6</ele>
        <time>2020-05-31T12:52:12Z</time>
      </trkpt>
      <trkpt lat="46.32227" lon="-0.58857">
        <ele>5.9</ele>
        <time>2020-05-31T12:52:13Z</time>
      </trkpt>
      <trkpt lat="46.32223" lon="-0.58862">
        <ele>5.8</ele>
        <time>2020-05-31T12:52:14Z</time>
      </trkpt>
      <trkpt lat="46.32219" lon="-0.58867">
        <ele>5.7</ele>
        <time>2020-05-31T12:52:15Z</time>
      </trkpt>
      <trkpt lat="46.32215" lon="-0.58871">
        <ele>5.7</ele>
        <time>2020-05-31T12:52:16Z</time>
      </trkpt>
      <trkpt lat="46.32211" lon="-0.58876">
        <ele>5.6</ele>
        <time>2020-05-31T12:52:17Z</time>
      </trkpt>
      <trkpt lat="46.32207" lon="-0.58881">
        <ele>5.5</ele>
        <time>2020-05-31T12:52:18Z</time>
      </trkpt>
      <trkpt lat="46.32203" lon="-0.58887">
        <ele>5.4</ele>
        <time>2020-05-31T12:52:19Z</time>
      </trkpt>
      <trkpt lat="46.32199" lon="-0.58894">
        <ele>5.4</ele>
        <time>2020-05-31T12:52:20Z</time>
      </trkpt>
      <trkpt lat="46.32195" lon="-0.58899">
        <ele>5.4</ele>
        <time>2020-05-31T12:52:21Z</time>
      </trkpt>
      <trkpt lat="46.32191" lon="-0.58904">
        <ele>5.4</ele>
        <time>2020-05-31T12:52:22Z</time>
      </trkpt>
      <trkpt lat="46.32188" lon="-0.58909">
        <ele>5.3</ele>
        <time>2020-05-31T12:52:23Z</time>
      </trkpt>
      <trkpt lat="46.32185" lon="-0.58913">
        <ele>5.3</ele>
        <time>2020-05-31T12:52:24Z</time>
      </trkpt>
      <trkpt lat="46.32182" lon="-0.5892">
        <ele>5.3</ele>
        <time>2020-05-31T12:52:25Z</time>
      </trkpt>
      <trkpt lat="46.32179" lon="-0.58928">
        <ele>5.3</ele>
        <time>2020-05-31T12:52:26Z</time>
      </trkpt>
      <trkpt lat="46.32176" lon="-0.58935">
        <ele>5.2</ele>
        <time>2020-05-31T12:52:27Z</time>
      </trkpt>
      <trkpt lat="46.32174" lon="-0.58943">
        <ele>5.2</ele>
        <time>2020-05-31T12:52:28Z</time>
      </trkpt>
      <trkpt lat="46.32171" lon="-0.58951">
        <ele>5.2</ele>
        <time>2020-05-31T12:52:29Z</time>
      </trkpt>
      <trkpt lat="46.32169" lon="-0.58959">
        <ele>5.2</ele>
        <time>2020-05-31T12:52:30Z</time>
      </trkpt>
      <trkpt lat="46.32166" lon="-0.58967">
        <ele>5.2</ele>
        <time>2020-05-31T12:52:31Z</time>
      </trkpt>
      <trkpt lat="46.32164" lon="-0.58974">
        <ele>5.2</ele>
        <time>2020-05-31T12:52:32Z</time>
      </trkpt>
      <trkpt lat="46.32161" lon="-0.58981">
        <ele>5.2</ele>
        <time>2020-05-31T12:52:33Z</time>
      </trkpt>
      <trkpt lat="46.32158" lon="-0.58987">
        <ele>5.2</ele>
        <time>2020-05-31T12:52:34Z</time>
      </trkpt>
      <trkpt lat="46.32155" lon="-0.58995">
        <ele>5.2</ele>
        <time>2020-05-31T12:52:35Z</time>
      </trkpt>
      <trkpt lat="46.32151" lon="-0.59003">
        <ele>5.2</ele>
        <time>2020-05-31T12:52:36Z</time>
      </trkpt>
      <trkpt lat="46.32149" lon="-0.59011">
        <ele>5.2</ele>
        <time>2020-05-31T12:52:37Z</time>
      </trkpt>
      <trkpt lat="46.32145" lon="-0.59018">
        <ele>5.1</ele>
        <time>2020-05-31T12:52:38Z</time>
      </trkpt>
      <trkpt lat="46.32142" lon="-0.59025">
        <ele>5.1</ele>
        <time>2020-05-31T12:52:39Z</time>
      </trkpt>
      <trkpt lat="46.32139" lon="-0.59033">
        <ele>5.1</ele>
        <time>2020-05-31T12:52:40Z</time>
      </trkpt>
      <trkpt lat="46.32137" lon="-0.59041">
        <ele>5.1</ele>
        <time>2020-05-31T12:52:41Z</time>
      </trkpt>
      <trkpt lat="46.32134" lon="-0.59048">
        <ele>5.1</ele>
        <time>2020-05-31T12:52:42Z</time>
      </trkpt>
      <trkpt lat="46.3213" lon="-0.59054">
        <ele>5.1</ele>
        <time>2020-05-31T12:52:43Z</time>
      </trkpt>
      <trkpt lat="46.32127" lon="-0.5906">
        <ele>5.1</ele>
        <time>2020-05-31T12:52:44Z</time>
      </trkpt>
      <trkpt lat="46.32124" lon="-0.59066">
        <ele>5.1</ele>
        <time>2020-05-31T12:52:45Z</time>
      </trkpt>
      <trkpt lat="46.32121" lon="-0.59072">
        <ele>5.1</ele>
        <time>2020-05-31T12:52:46Z</time>
      </trkpt>
      <trkpt lat="46.32118" lon="-0.59077">
        <ele>5.1</ele>
        <time>2020-05-31T12:52:47Z</time>
      </trkpt>
      <trkpt lat="46.32115" lon="-0.59082">
        <ele>5.1</ele>
        <time>2020-05-31T12:52:48Z</time>
      </trkpt>
      <trkpt lat="46.3211" lon="-0.59087">
        <ele>5.1</ele>
        <time>2020-05-31T12:52:49Z</time>
      </trkpt>
      <trkpt lat="46.32105" lon="-0.59092">
        <ele>5.2</ele>
        <time>2020-05-31T12:52:50Z</time>
      </trkpt>
      <trkpt lat="46.32101" lon="-0.59098">
        <ele>5.2</ele>
        <time>2020-05-31T12:52:51Z</time>
      </trkpt>
      <trkpt lat="46.32096" lon="-0.59103">
        <ele>5.2</ele>
        <time>2020-05-31T12:52:52Z</time>
      </trkpt>
      <trkpt lat="46.3209" lon="-0.59106">
        <ele>5.3</ele>
        <time>2020-05-31T12:52:53Z</time>
      </trkpt>
      <trkpt lat="46.32086" lon="-0.59109">
        <ele>5.3</ele>
        <time>2020-05-31T12:52:54Z</time>
      </trkpt>
      <trkpt lat="46.32082" lon="-0.59112">
        <ele>5.3</ele>
        <time>2020-05-31T12:52:55Z</time>
      </trkpt>
      <trkpt lat="46.32078" lon="-0.59116">
        <ele>5.4</ele>
        <time>2020-05-31T12:52:56Z</time>
      </trkpt>
      <trkpt lat="46.32074" lon="-0.5912">
        <ele>5.4</ele>
        <time>2020-05-31T12:52:57Z</time>
      </trkpt>
      <trkpt lat="46.32069" lon="-0.59122">
        <ele>5.3</ele>
        <time>2020-05-31T12:52:58Z</time>
      </trkpt>
      <trkpt lat="46.32065" lon="-0.59126">
        <ele>5.3</ele>
        <time>2020-05-31T12:52:59Z</time>
      </trkpt>
      <trkpt lat="46.3206" lon="-0.5913">
        <ele>5.3</ele>
        <time>2020-05-31T12:53:00Z</time>
      </trkpt>
      <trkpt lat="46.32056" lon="-0.59134">
        <ele>5.2</ele>
        <time>2020-05-31T12:53:01Z</time>
      </trkpt>
      <trkpt lat="46.32053" lon="-0.59137">
        <ele>5.2</ele>
        <time>2020-05-31T12:53:02Z</time>
      </trkpt>
      <trkpt lat="46.32049" lon="-0.5914">
        <ele>5.2</ele>
        <time>2020-05-31T12:53:03Z</time>
      </trkpt>
      <trkpt lat="46.32046" lon="-0.59144">
        <ele>5.2</ele>
        <time>2020-05-31T12:53:04Z</time>
      </trkpt>
      <trkpt lat="46.32042" lon="-0.59147">
        <ele>5.1</ele>
        <time>2020-05-31T12:53:05Z</time>
      </trkpt>
      <trkpt lat="46.32038" lon="-0.59153">
        <ele>5.1</ele>
        <time>2020-05-31T12:53:06Z</time>
      </trkpt>
      <trkpt lat="46.32033" lon="-0.59157">
        <ele>5.1</ele>
        <time>2020-05-31T12:53:07Z</time>
      </trkpt>
      <trkpt lat="46.32029" lon="-0.5916">
        <ele>5</ele>
        <time>2020-05-31T12:53:08Z</time>
      </trkpt>
      <trkpt lat="46.32025" lon="-0.59163">
        <ele>5</ele>
        <time>2020-05-31T12:53:09Z</time>
      </trkpt>
      <trkpt lat="46.32021" lon="-0.59167">
        <ele>5</ele>
        <time>2020-05-31T12:53:10Z</time>
      </trkpt>
      <trkpt lat="46.32016" lon="-0.59171">
        <ele>5</ele>
        <time>2020-05-31T12:53:11Z</time>
      </trkpt>
      <trkpt lat="46.32012" lon="-0.59177">
        <ele>4.9</ele>
        <time>2020-05-31T12:53:12Z</time>
      </trkpt>
      <trkpt lat="46.32007" lon="-0.59183">
        <ele>4.9</ele>
        <time>2020-05-31T12:53:13Z</time>
      </trkpt>
      <trkpt lat="46.32001" lon="-0.59188">
        <ele>4.9</ele>
        <time>2020-05-31T12:53:14Z</time>
      </trkpt>
      <trkpt lat="46.31997" lon="-0.59192">
        <ele>4.9</ele>
        <time>2020-05-31T12:53:15Z</time>
      </trkpt>
      <trkpt lat="46.31993" lon="-0.59196">
        <ele>4.9</ele>
        <time>2020-05-31T12:53:16Z</time>
      </trkpt>
      <trkpt lat="46.3199" lon="-0.59202">
        <ele>4.9</ele>
        <time>2020-05-31T12:53:17Z</time>
      </trkpt>
      <trkpt lat="46.31986" lon="-0.59207">
        <ele>4.8</ele>
        <time>2020-05-31T12:53:18Z</time>
      </trkpt>
      <trkpt lat="46.31981" lon="-0.59211">
        <ele>4.8</ele>
        <time>2020-05-31T12:53:19Z</time>
      </trkpt>
      <trkpt lat="46.31976" lon="-0.59217">
        <ele>4.8</ele>
        <time>2020-05-31T12:53:20Z</time>
      </trkpt>
      <trkpt lat="46.31972" lon="-0.59223">
        <ele>4.8</ele>
        <time>2020-05-31T12:53:21Z</time>
      </trkpt>
      <trkpt lat="46.31969" lon="-0.59229">
        <ele>4.8</ele>
        <time>2020-05-31T12:53:22Z</time>
      </trkpt>
      <trkpt lat="46.31965" lon="-0.59236">
        <ele>4.8</ele>
        <time>2020-05-31T12:53:23Z</time>
      </trkpt>
      <trkpt lat="46.31962" lon="-0.59242">
        <ele>4.8</ele>
        <time>2020-05-31T12:53:24Z</time>
      </trkpt>
      <trkpt lat="46.31959" lon="-0.59249">
        <ele>4.8</ele>
        <time>2020-05-31T12:53:25Z</time>
      </trkpt>
      <trkpt lat="46.31956" lon="-0.59257">
        <ele>4.8</ele>
        <time>2020-05-31T12:53:26Z</time>
      </trkpt>
      <trkpt lat="46.31954" lon="-0.59264">
        <ele>4.8</ele>
        <time>2020-05-31T12:53:27Z</time>
      </trkpt>
      <trkpt lat="46.31952" lon="-0.59273">
        <ele>4.9</ele>
        <time>2020-05-31T12:53:28Z</time>
      </trkpt>
      <trkpt lat="46.3195" lon="-0.59282">
        <ele>4.9</ele>
        <time>2020-05-31T12:53:29Z</time>
      </trkpt>
      <trkpt lat="46.31947" lon="-0.59289">
        <ele>4.9</ele>
        <time>2020-05-31T12:53:30Z</time>
      </trkpt>
      <trkpt lat="46.31945" lon="-0.59296">
        <ele>4.9</ele>
        <time>2020-05-31T12:53:31Z</time>
      </trkpt>
      <trkpt lat="46.31943" lon="-0.59304">
        <ele>4.9</ele>
        <time>2020-05-31T12:53:32Z</time>
      </trkpt>
      <trkpt lat="46.3194" lon="-0.59311">
        <ele>4.9</ele>
        <time>2020-05-31T12:53:33Z</time>
      </trkpt>
      <trkpt lat="46.31938" lon="-0.59318">
        <ele>4.9</ele>
        <time>2020-05-31T12:53:34Z</time>
      </trkpt>
      <trkpt lat="46.31936" lon="-0.59327">
        <ele>5</ele>
        <time>2020-05-31T12:53:35Z</time>
      </trkpt>
      <trkpt lat="46.31934" lon="-0.59335">
        <ele>5</ele>
        <time>2020-05-31T12:53:36Z</time>
      </trkpt>
      <trkpt lat="46.31928" lon="-0.59343">
        <ele>5</ele>
        <time>2020-05-31T12:53:37Z</time>
      </trkpt>
      <trkpt lat="46.31927" lon="-0.59352">
        <ele>5</ele>
        <time>2020-05-31T12:53:38Z</time>
      </trkpt>
      <trkpt lat="46.31926" lon="-0.59361">
        <ele>5</ele>
        <time>2020-05-31T12:53:39Z</time>
      </trkpt>
      <trkpt lat="46.31926" lon="-0.59369">
        <ele>5.1</ele>
        <time>2020-05-31T12:53:40Z</time>
      </trkpt>
      <trkpt lat="46.31925" lon="-0.59378">
        <ele>5.1</ele>
        <time>2020-05-31T12:53:41Z</time>
      </trkpt>
      <trkpt lat="46.31924" lon="-0.59386">
        <ele>5.1</ele>
        <time>2020-05-31T12:53:42Z</time>
      </trkpt>
      <trkpt lat="46.31924" lon="-0.59395">
        <ele>5.1</ele>
        <time>2020-05-31T12:53:43Z</time>
      </trkpt>
      <trkpt lat="46.31923" lon="-0.59403">
        <ele>5.1</ele>
        <time>2020-05-31T12:53:44Z</time>
      </trkpt>
      <trkpt lat="46.31922" lon="-0.59411">
        <ele>5.1</ele>
        <time>2020-05-31T12:53:45Z</time>
      </trkpt>
      <trkpt lat="46.31922" lon="-0.5942">
        <ele>5.1</ele>
        <time>2020-05-31T12:53:46Z</time>
      </trkpt>
      <trkpt lat="46.31921" lon="-0.59428">
        <ele>5.1</ele>
        <time>2020-05-31T12:53:47Z</time>
      </trkpt>
      <trkpt lat="46.31921" lon="-0.59437">
        <ele>5.1</ele>
        <time>2020-05-31T12:53:48Z</time>
      </trkpt>
      <trkpt lat="46.3192" lon="-0.59445">
        <ele>5.1</ele>
        <time>2020-05-31T12:53:49Z</time>
      </trkpt>
      <trkpt lat="46.31919" lon="-0.59453">
        <ele>5</ele>
        <time>2020-05-31T12:53:50Z</time>
      </trkpt>
      <trkpt lat="46.31919" lon="-0.59461">
        <ele>5</ele>
        <time>2020-05-31T12:53:51Z</time>
      </trkpt>
      <trkpt lat="46.31917" lon="-0.59469">
        <ele>5</ele>
        <time>2020-05-31T12:53:52Z</time>
      </trkpt>
      <trkpt lat="46.31917" lon="-0.59476">
        <ele>5</ele>
        <time>2020-05-31T12:53:53Z</time>
      </trkpt>
      <trkpt lat="46.31915" lon="-0.59483">
        <ele>5</ele>
        <time>2020-05-31T12:53:54Z</time>
      </trkpt>
      <trkpt lat="46.31913" lon="-0.5949">
        <ele>5.1</ele>
        <time>2020-05-31T12:53:55Z</time>
      </trkpt>
      <trkpt lat="46.31911" lon="-0.59497">
        <ele>5.1</ele>
        <time>2020-05-31T12:53:56Z</time>
      </trkpt>
      <trkpt lat="46.31908" lon="-0.59504">
        <ele>5.1</ele>
        <time>2020-05-31T12:53:57Z</time>
      </trkpt>
      <trkpt lat="46.31906" lon="-0.59511">
        <ele>5.1</ele>
        <time>2020-05-31T12:53:58Z</time>
      </trkpt>
      <trkpt lat="46.31904" lon="-0.59519">
        <ele>5.1</ele>
        <time>2020-05-31T12:53:59Z</time>
      </trkpt>
      <trkpt lat="46.31901" lon="-0.59525">
        <ele>5.1</ele>
        <time>2020-05-31T12:54:00Z</time>
      </trkpt>
      <trkpt lat="46.31899" lon="-0.59532">
        <ele>5.1</ele>
        <time>2020-05-31T12:54:01Z</time>
      </trkpt>
      <trkpt lat="46.31896" lon="-0.59539">
        <ele>5.1</ele>
        <time>2020-05-31T12:54:02Z</time>
      </trkpt>
      <trkpt lat="46.31892" lon="-0.59545">
        <ele>5.1</ele>
        <time>2020-05-31T12:54:03Z</time>
      </trkpt>
      <trkpt lat="46.31888" lon="-0.59551">
        <ele>5.1</ele>
        <time>2020-05-31T12:54:04Z</time>
      </trkpt>
      <trkpt lat="46.31885" lon="-0.59558">
        <ele>5.2</ele>
        <time>2020-05-31T12:54:05Z</time>
      </trkpt>
      <trkpt lat="46.31882" lon="-0.59565">
        <ele>5.2</ele>
        <time>2020-05-31T12:54:06Z</time>
      </trkpt>
      <trkpt lat="46.31879" lon="-0.59572">
        <ele>5.2</ele>
        <time>2020-05-31T12:54:07Z</time>
      </trkpt>
      <trkpt lat="46.31875" lon="-0.59579">
        <ele>5.2</ele>
        <time>2020-05-31T12:54:08Z</time>
      </trkpt>
      <trkpt lat="46.31872" lon="-0.59584">
        <ele>5.2</ele>
        <time>2020-05-31T12:54:09Z</time>
      </trkpt>
      <trkpt lat="46.3187" lon="-0.59589">
        <ele>5.2</ele>
        <time>2020-05-31T12:54:10Z</time>
      </trkpt>
      <trkpt lat="46.31867" lon="-0.59595">
        <ele>5.2</ele>
        <time>2020-05-31T12:54:11Z</time>
      </trkpt>
      <trkpt lat="46.31863" lon="-0.59601">
        <ele>5.2</ele>
        <time>2020-05-31T12:54:12Z</time>
      </trkpt>
      <trkpt lat="46.3186" lon="-0.59607">
        <ele>5.2</ele>
        <time>2020-05-31T12:54:13Z</time>
      </trkpt>
      <trkpt lat="46.31857" lon="-0.59614">
        <ele>5.2</ele>
        <time>2020-05-31T12:54:14Z</time>
      </trkpt>
      <trkpt lat="46.31853" lon="-0.59619">
        <ele>5.2</ele>
        <time>2020-05-31T12:54:15Z</time>
      </trkpt>
      <trkpt lat="46.31849" lon="-0.59625">
        <ele>5.3</ele>
        <time>2020-05-31T12:54:16Z</time>
      </trkpt>
      <trkpt lat="46.31846" lon="-0.5963">
        <ele>5.3</ele>
        <time>2020-05-31T12:54:17Z</time>
      </trkpt>
      <trkpt lat="46.31843" lon="-0.59636">
        <ele>5.3</ele>
        <time>2020-05-31T12:54:18Z</time>
      </trkpt>
      <trkpt lat="46.3184" lon="-0.59642">
        <ele>5.3</ele>
        <time>2020-05-31T12:54:19Z</time>
      </trkpt>
      <trkpt lat="46.31837" lon="-0.59649">
        <ele>5.3</ele>
        <time>2020-05-31T12:54:20Z</time>
      </trkpt>
      <trkpt lat="46.31834" lon="-0.59654">
        <ele>5.3</ele>
        <time>2020-05-31T12:54:21Z</time>
      </trkpt>
      <trkpt lat="46.31831" lon="-0.59659">
        <ele>5.3</ele>
        <time>2020-05-31T12:54:22Z</time>
      </trkpt>
      <trkpt lat="46.31828" lon="-0.59664">
        <ele>5.4</ele>
        <time>2020-05-31T12:54:23Z</time>
      </trkpt>
      <trkpt lat="46.31825" lon="-0.59667">
        <ele>5.3</ele>
        <time>2020-05-31T12:54:24Z</time>
      </trkpt>
      <trkpt lat="46.31822" lon="-0.59672">
        <ele>5.3</ele>
        <time>2020-05-31T12:54:25Z</time>
      </trkpt>
      <trkpt lat="46.3182" lon="-0.59678">
        <ele>5.3</ele>
        <time>2020-05-31T12:54:26Z</time>
      </trkpt>
      <trkpt lat="46.31817" lon="-0.59684">
        <ele>5.2</ele>
        <time>2020-05-31T12:54:27Z</time>
      </trkpt>
      <trkpt lat="46.31813" lon="-0.5969">
        <ele>5.2</ele>
        <time>2020-05-31T12:54:28Z</time>
      </trkpt>
      <trkpt lat="46.31808" lon="-0.59695">
        <ele>5.2</ele>
        <time>2020-05-31T12:54:29Z</time>
      </trkpt>
      <trkpt lat="46.31803" lon="-0.59701">
        <ele>5.1</ele>
        <time>2020-05-31T12:54:30Z</time>
      </trkpt>
      <trkpt lat="46.31799" lon="-0.59707">
        <ele>5.1</ele>
        <time>2020-05-31T12:54:31Z</time>
      </trkpt>
      <trkpt lat="46.31796" lon="-0.59713">
        <ele>5.1</ele>
        <time>2020-05-31T12:54:32Z</time>
      </trkpt>
      <trkpt lat="46.31793" lon="-0.59718">
        <ele>5.1</ele>
        <time>2020-05-31T12:54:33Z</time>
      </trkpt>
      <trkpt lat="46.31788" lon="-0.59722">
        <ele>5.1</ele>
        <time>2020-05-31T12:54:34Z</time>
      </trkpt>
      <trkpt lat="46.31784" lon="-0.59727">
        <ele>5.1</ele>
        <time>2020-05-31T12:54:35Z</time>
      </trkpt>
      <trkpt lat="46.31778" lon="-0.59732">
        <ele>5</ele>
        <time>2020-05-31T12:54:36Z</time>
      </trkpt>
      <trkpt lat="46.31773" lon="-0.59736">
        <ele>5</ele>
        <time>2020-05-31T12:54:37Z</time>
      </trkpt>
      <trkpt lat="46.31768" lon="-0.5974">
        <ele>5</ele>
        <time>2020-05-31T12:54:38Z</time>
      </trkpt>
      <trkpt lat="46.31765" lon="-0.59746">
        <ele>5</ele>
        <time>2020-05-31T12:54:39Z</time>
      </trkpt>
      <trkpt lat="46.31761" lon="-0.59753">
        <ele>5</ele>
        <time>2020-05-31T12:54:40Z</time>
      </trkpt>
      <trkpt lat="46.31758" lon="-0.5976">
        <ele>5</ele>
        <time>2020-05-31T12:54:41Z</time>
      </trkpt>
      <trkpt lat="46.31755" lon="-0.59768">
        <ele>4.9</ele>
        <time>2020-05-31T12:54:42Z</time>
      </trkpt>
      <trkpt lat="46.31751" lon="-0.59774">
        <ele>4.9</ele>
        <time>2020-05-31T12:54:43Z</time>
      </trkpt>
      <trkpt lat="46.31747" lon="-0.59778">
        <ele>4.9</ele>
        <time>2020-05-31T12:54:44Z</time>
      </trkpt>
      <trkpt lat="46.31742" lon="-0.59784">
        <ele>4.9</ele>
        <time>2020-05-31T12:54:45Z</time>
      </trkpt>
      <trkpt lat="46.31737" lon="-0.59791">
        <ele>4.9</ele>
        <time>2020-05-31T12:54:46Z</time>
      </trkpt>
      <trkpt lat="46.31732" lon="-0.59798">
        <ele>4.9</ele>
        <time>2020-05-31T12:54:47Z</time>
      </trkpt>
      <trkpt lat="46.31726" lon="-0.59805">
        <ele>4.8</ele>
        <time>2020-05-31T12:54:48Z</time>
      </trkpt>
      <trkpt lat="46.3172" lon="-0.59812">
        <ele>4.8</ele>
        <time>2020-05-31T12:54:49Z</time>
      </trkpt>
      <trkpt lat="46.31713" lon="-0.59818">
        <ele>4.8</ele>
        <time>2020-05-31T12:54:50Z</time>
      </trkpt>
      <trkpt lat="46.31707" lon="-0.59824">
        <ele>4.8</ele>
        <time>2020-05-31T12:54:51Z</time>
      </trkpt>
      <trkpt lat="46.31701" lon="-0.59831">
        <ele>4.8</ele>
        <time>2020-05-31T12:54:52Z</time>
      </trkpt>
      <trkpt lat="46.31696" lon="-0.5984">
        <ele>4.8</ele>
        <time>2020-05-31T12:54:53Z</time>
      </trkpt>
      <trkpt lat="46.31691" lon="-0.59847">
        <ele>4.8</ele>
        <time>2020-05-31T12:54:54Z</time>
      </trkpt>
      <trkpt lat="46.31686" lon="-0.59854">
        <ele>4.7</ele>
        <time>2020-05-31T12:54:55Z</time>
      </trkpt>
      <trkpt lat="46.31681" lon="-0.59859">
        <ele>4.7</ele>
        <time>2020-05-31T12:54:56Z</time>
      </trkpt>
      <trkpt lat="46.31676" lon="-0.59864">
        <ele>4.7</ele>
        <time>2020-05-31T12:54:57Z</time>
      </trkpt>
      <trkpt lat="46.31672" lon="-0.59869">
        <ele>4.7</ele>
        <time>2020-05-31T12:54:58Z</time>
      </trkpt>
      <trkpt lat="46.31667" lon="-0.59872">
        <ele>4.7</ele>
        <time>2020-05-31T12:54:59Z</time>
      </trkpt>
      <trkpt lat="46.31662" lon="-0.59878">
        <ele>4.7</ele>
        <time>2020-05-31T12:55:00Z</time>
      </trkpt>
      <trkpt lat="46.31657" lon="-0.59885">
        <ele>4.7</ele>
        <time>2020-05-31T12:55:01Z</time>
      </trkpt>
      <trkpt lat="46.31652" lon="-0.59891">
        <ele>4.7</ele>
        <time>2020-05-31T12:55:02Z</time>
      </trkpt>
      <trkpt lat="46.31647" lon="-0.59897">
        <ele>4.7</ele>
        <time>2020-05-31T12:55:03Z</time>
      </trkpt>
      <trkpt lat="46.31643" lon="-0.59902">
        <ele>4.7</ele>
        <time>2020-05-31T12:55:04Z</time>
      </trkpt>
      <trkpt lat="46.31638" lon="-0.59908">
        <ele>4.7</ele>
        <time>2020-05-31T12:55:05Z</time>
      </trkpt>
      <trkpt lat="46.31634" lon="-0.59914">
        <ele>4.7</ele>
        <time>2020-05-31T12:55:06Z</time>
      </trkpt>
      <trkpt lat="46.3163" lon="-0.59919">
        <ele>4.7</ele>
        <time>2020-05-31T12:55:07Z</time>
      </trkpt>
      <trkpt lat="46.31626" lon="-0.59925">
        <ele>4.7</ele>
        <time>2020-05-31T12:55:08Z</time>
      </trkpt>
      <trkpt lat="46.31622" lon="-0.59931">
        <ele>4.7</ele>
        <time>2020-05-31T12:55:09Z</time>
      </trkpt>
      <trkpt lat="46.31617" lon="-0.59937">
        <ele>4.7</ele>
        <time>2020-05-31T12:55:10Z</time>
      </trkpt>
      <trkpt lat="46.31613" lon="-0.59943">
        <ele>4.7</ele>
        <time>2020-05-31T12:55:11Z</time>
      </trkpt>
      <trkpt lat="46.31609" lon="-0.59949">
        <ele>4.7</ele>
        <time>2020-05-31T12:55:12Z</time>
      </trkpt>
      <trkpt lat="46.31605" lon="-0.59954">
        <ele>4.7</ele>
        <time>2020-05-31T12:55:13Z</time>
      </trkpt>
      <trkpt lat="46.31602" lon="-0.59961">
        <ele>4.7</ele>
        <time>2020-05-31T12:55:14Z</time>
      </trkpt>
      <trkpt lat="46.316" lon="-0.59965">
        <ele>4.7</ele>
        <time>2020-05-31T12:55:15Z</time>
      </trkpt>
      <trkpt lat="46.31597" lon="-0.5997">
        <ele>4.6</ele>
        <time>2020-05-31T12:55:16Z</time>
      </trkpt>
      <trkpt lat="46.31593" lon="-0.59976">
        <ele>4.6</ele>
        <time>2020-05-31T12:55:17Z</time>
      </trkpt>
      <trkpt lat="46.3159" lon="-0.59983">
        <ele>4.6</ele>
        <time>2020-05-31T12:55:18Z</time>
      </trkpt>
      <trkpt lat="46.31587" lon="-0.59989">
        <ele>4.6</ele>
        <time>2020-05-31T12:55:19Z</time>
      </trkpt>
      <trkpt lat="46.31585" lon="-0.59996">
        <ele>4.6</ele>
        <time>2020-05-31T12:55:20Z</time>
      </trkpt>
      <trkpt lat="46.31583" lon="-0.60003">
        <ele>4.6</ele>
        <time>2020-05-31T12:55:21Z</time>
      </trkpt>
      <trkpt lat="46.3158" lon="-0.60012">
        <ele>4.6</ele>
        <time>2020-05-31T12:55:22Z</time>
      </trkpt>
      <trkpt lat="46.31578" lon="-0.6002">
        <ele>4.6</ele>
        <time>2020-05-31T12:55:23Z</time>
      </trkpt>
      <trkpt lat="46.31575" lon="-0.60026">
        <ele>4.6</ele>
        <time>2020-05-31T12:55:24Z</time>
      </trkpt>
      <trkpt lat="46.31572" lon="-0.60033">
        <ele>4.6</ele>
        <time>2020-05-31T12:55:25Z</time>
      </trkpt>
      <trkpt lat="46.3157" lon="-0.6004">
        <ele>4.6</ele>
        <time>2020-05-31T12:55:26Z</time>
      </trkpt>
      <trkpt lat="46.31569" lon="-0.60048">
        <ele>4.5</ele>
        <time>2020-05-31T12:55:27Z</time>
      </trkpt>
      <trkpt lat="46.31567" lon="-0.60056">
        <ele>4.5</ele>
        <time>2020-05-31T12:55:28Z</time>
      </trkpt>
      <trkpt lat="46.31565" lon="-0.60063">
        <ele>4.5</ele>
        <time>2020-05-31T12:55:29Z</time>
      </trkpt>
      <trkpt lat="46.31563" lon="-0.60071">
        <ele>4.5</ele>
        <time>2020-05-31T12:55:30Z</time>
      </trkpt>
      <trkpt lat="46.31562" lon="-0.60077">
        <ele>4.4</ele>
        <time>2020-05-31T12:55:31Z</time>
      </trkpt>
      <trkpt lat="46.3156" lon="-0.60084">
        <ele>4.4</ele>
        <time>2020-05-31T12:55:32Z</time>
      </trkpt>
      <trkpt lat="46.31558" lon="-0.6009">
        <ele>4.4</ele>
        <time>2020-05-31T12:55:33Z</time>
      </trkpt>
      <trkpt lat="46.31556" lon="-0.60098">
        <ele>4.4</ele>
        <time>2020-05-31T12:55:34Z</time>
      </trkpt>
      <trkpt lat="46.31555" lon="-0.60106">
        <ele>4.4</ele>
        <time>2020-05-31T12:55:35Z</time>
      </trkpt>
      <trkpt lat="46.31555" lon="-0.60113">
        <ele>4.4</ele>
        <time>2020-05-31T12:55:36Z</time>
      </trkpt>
      <trkpt lat="46.31551" lon="-0.60119">
        <ele>4.4</ele>
        <time>2020-05-31T12:55:37Z</time>
      </trkpt>
      <trkpt lat="46.31549" lon="-0.60126">
        <ele>4.5</ele>
        <time>2020-05-31T12:55:38Z</time>
      </trkpt>
      <trkpt lat="46.31548" lon="-0.60133">
        <ele>4.5</ele>
        <time>2020-05-31T12:55:39Z</time>
      </trkpt>
      <trkpt lat="46.31547" lon="-0.60139">
        <ele>4.5</ele>
        <time>2020-05-31T12:55:40Z</time>
      </trkpt>
      <trkpt lat="46.31545" lon="-0.60145">
        <ele>4.5</ele>
        <time>2020-05-31T12:55:41Z</time>
      </trkpt>
      <trkpt lat="46.31544" lon="-0.60152">
        <ele>4.6</ele>
        <time>2020-05-31T12:55:42Z</time>
      </trkpt>
      <trkpt lat="46.31543" lon="-0.60158">
        <ele>4.6</ele>
        <time>2020-05-31T12:55:43Z</time>
      </trkpt>
      <trkpt lat="46.31541" lon="-0.60164">
        <ele>4.6</ele>
        <time>2020-05-31T12:55:44Z</time>
      </trkpt>
      <trkpt lat="46.31539" lon="-0.6017">
        <ele>4.6</ele>
        <time>2020-05-31T12:55:45Z</time>
      </trkpt>
      <trkpt lat="46.31537" lon="-0.60174">
        <ele>4.6</ele>
        <time>2020-05-31T12:55:46Z</time>
      </trkpt>
      <trkpt lat="46.31536" lon="-0.6018">
        <ele>4.6</ele>
        <time>2020-05-31T12:55:47Z</time>
      </trkpt>
      <trkpt lat="46.31535" lon="-0.60185">
        <ele>4.6</ele>
        <time>2020-05-31T12:55:48Z</time>
      </trkpt>
      <trkpt lat="46.31534" lon="-0.6019">
        <ele>4.6</ele>
        <time>2020-05-31T12:55:49Z</time>
      </trkpt>
      <trkpt lat="46.31533" lon="-0.60195">
        <ele>4.6</ele>
        <time>2020-05-31T12:55:50Z</time>
      </trkpt>
      <trkpt lat="46.31532" lon="-0.602">
        <ele>4.6</ele>
        <time>2020-05-31T12:55:51Z</time>
      </trkpt>
      <trkpt lat="46.3153" lon="-0.60205">
        <ele>4.6</ele>
        <time>2020-05-31T12:55:52Z</time>
      </trkpt>
      <trkpt lat="46.31529" lon="-0.60212">
        <ele>4.6</ele>
        <time>2020-05-31T12:55:53Z</time>
      </trkpt>
      <trkpt lat="46.31527" lon="-0.60219">
        <ele>4.7</ele>
        <time>2020-05-31T12:55:54Z</time>
      </trkpt>
      <trkpt lat="46.31525" lon="-0.60226">
        <ele>4.7</ele>
        <time>2020-05-31T12:55:55Z</time>
      </trkpt>
      <trkpt lat="46.31524" lon="-0.60232">
        <ele>4.7</ele>
        <time>2020-05-31T12:55:56Z</time>
      </trkpt>
      <trkpt lat="46.31522" lon="-0.60238">
        <ele>4.7</ele>
        <time>2020-05-31T12:55:57Z</time>
      </trkpt>
      <trkpt lat="46.3152" lon="-0.60245">
        <ele>4.7</ele>
        <time>2020-05-31T12:55:58Z</time>
      </trkpt>
      <trkpt lat="46.31518" lon="-0.60252">
        <ele>4.8</ele>
        <time>2020-05-31T12:55:59Z</time>
      </trkpt>
      <trkpt lat="46.31517" lon="-0.6026">
        <ele>4.8</ele>
        <time>2020-05-31T12:56:00Z</time>
      </trkpt>
      <trkpt lat="46.31515" lon="-0.60267">
        <ele>4.8</ele>
        <time>2020-05-31T12:56:01Z</time>
      </trkpt>
      <trkpt lat="46.31514" lon="-0.60273">
        <ele>4.8</ele>
        <time>2020-05-31T12:56:02Z</time>
      </trkpt>
      <trkpt lat="46.31512" lon="-0.60279">
        <ele>4.8</ele>
        <time>2020-05-31T12:56:03Z</time>
      </trkpt>
      <trkpt lat="46.31511" lon="-0.60286">
        <ele>4.8</ele>
        <time>2020-05-31T12:56:04Z</time>
      </trkpt>
      <trkpt lat="46.3151" lon="-0.60293">
        <ele>4.8</ele>
        <time>2020-05-31T12:56:05Z</time>
      </trkpt>
      <trkpt lat="46.31508" lon="-0.60301">
        <ele>4.8</ele>
        <time>2020-05-31T12:56:06Z</time>
      </trkpt>
      <trkpt lat="46.31507" lon="-0.60308">
        <ele>4.8</ele>
        <time>2020-05-31T12:56:07Z</time>
      </trkpt>
      <trkpt lat="46.31506" lon="-0.60316">
        <ele>4.8</ele>
        <time>2020-05-31T12:56:08Z</time>
      </trkpt>
      <trkpt lat="46.31505" lon="-0.60325">
        <ele>4.8</ele>
        <time>2020-05-31T12:56:09Z</time>
      </trkpt>
      <trkpt lat="46.31504" lon="-0.60333">
        <ele>4.8</ele>
        <time>2020-05-31T12:56:10Z</time>
      </trkpt>
      <trkpt lat="46.31503" lon="-0.60341">
        <ele>4.8</ele>
        <time>2020-05-31T12:56:11Z</time>
      </trkpt>
      <trkpt lat="46.31502" lon="-0.60349">
        <ele>4.8</ele>
        <time>2020-05-31T12:56:12Z</time>
      </trkpt>
      <trkpt lat="46.31501" lon="-0.60357">
        <ele>4.8</ele>
        <time>2020-05-31T12:56:13Z</time>
      </trkpt>
      <trkpt lat="46.31501" lon="-0.60365">
        <ele>4.8</ele>
        <time>2020-05-31T12:56:14Z</time>
      </trkpt>
      <trkpt lat="46.315" lon="-0.60373">
        <ele>4.8</ele>
        <time>2020-05-31T12:56:15Z</time>
      </trkpt>
      <trkpt lat="46.315" lon="-0.60381">
        <ele>4.8</ele>
        <time>2020-05-31T12:56:16Z</time>
      </trkpt>
      <trkpt lat="46.31495" lon="-0.60388">
        <ele>4.8</ele>
        <time>2020-05-31T12:56:17Z</time>
      </trkpt>
      <trkpt lat="46.31493" lon="-0.60395">
        <ele>4.8</ele>
        <time>2020-05-31T12:56:18Z</time>
      </trkpt>
      <trkpt lat="46.31493" lon="-0.60402">
        <ele>4.8</ele>
        <time>2020-05-31T12:56:19Z</time>
      </trkpt>
      <trkpt lat="46.31492" lon="-0.60409">
        <ele>4.8</ele>
        <time>2020-05-31T12:56:20Z</time>
      </trkpt>
      <trkpt lat="46.31491" lon="-0.60416">
        <ele>4.8</ele>
        <time>2020-05-31T12:56:21Z</time>
      </trkpt>
      <trkpt lat="46.3149" lon="-0.60423">
        <ele>4.8</ele>
        <time>2020-05-31T12:56:22Z</time>
      </trkpt>
      <trkpt lat="46.3149" lon="-0.6043">
        <ele>4.8</ele>
        <time>2020-05-31T12:56:23Z</time>
      </trkpt>
      <trkpt lat="46.3149" lon="-0.60436">
        <ele>4.8</ele>
        <time>2020-05-31T12:56:24Z</time>
      </trkpt>
      <trkpt lat="46.31489" lon="-0.60441">
        <ele>4.8</ele>
        <time>2020-05-31T12:56:25Z</time>
      </trkpt>
      <trkpt lat="46.31489" lon="-0.60445">
        <ele>4.8</ele>
        <time>2020-05-31T12:56:26Z</time>
      </trkpt>
      <trkpt lat="46.31489" lon="-0.60448">
        <ele>4.8</ele>
        <time>2020-05-31T12:56:27Z</time>
      </trkpt>
      <trkpt lat="46.31488" lon="-0.6045">
        <ele>4.8</ele>
        <time>2020-05-31T12:56:28Z</time>
      </trkpt>
      <trkpt lat="46.31488" lon="-0.6045">
        <ele>4.8</ele>
        <time>2020-05-31T12:56:29Z</time>
      </trkpt>
      <trkpt lat="46.31488" lon="-0.6045">
        <ele>4.8</ele>
        <time>2020-05-31T12:56:30Z</time>
      </trkpt>
      <trkpt lat="46.31488" lon="-0.6045">
        <ele>4.8</ele>
        <time>2020-05-31T12:56:31Z</time>
      </trkpt>
      <trkpt lat="46.31488" lon="-0.60451">
        <ele>4.8</ele>
        <time>2020-05-31T12:56:32Z</time>
      </trkpt>
      <trkpt lat="46.31488" lon="-0.60452">
        <ele>4.8</ele>
        <time>2020-05-31T12:56:33Z</time>
      </trkpt>
      <trkpt lat="46.31488" lon="-0.60453">
        <ele>4.8</ele>
        <time>2020-05-31T12:56:34Z</time>
      </trkpt>
      <trkpt lat="46.31488" lon="-0.60454">
        <ele>4.8</ele>
        <time>2020-05-31T12:56:35Z</time>
      </trkpt>
      <trkpt lat="46.31488" lon="-0.60454">
        <ele>4.8</ele>
        <time>2020-05-31T12:56:36Z</time>
      </trkpt>
      <trkpt lat="46.31488" lon="-0.60455">
        <ele>4.8</ele>
        <time>2020-05-31T12:56:37Z</time>
      </trkpt>
      <trkpt lat="46.31488" lon="-0.60455">
        <ele>4.8</ele>
        <time>2020-05-31T12:56:38Z</time>
      </trkpt>
      <trkpt lat="46.31488" lon="-0.60456">
        <ele>4.8</ele>
        <time>2020-05-31T12:56:39Z</time>
      </trkpt>
      <trkpt lat="46.31487" lon="-0.60457">
        <ele>4.8</ele>
        <time>2020-05-31T12:56:40Z</time>
      </trkpt>
      <trkpt lat="46.31487" lon="-0.60458">
        <ele>4.8</ele>
        <time>2020-05-31T12:56:41Z</time>
      </trkpt>
      <trkpt lat="46.31487" lon="-0.60459">
        <ele>4.8</ele>
        <time>2020-05-31T12:56:42Z</time>
      </trkpt>
      <trkpt lat="46.31487" lon="-0.60459">
        <ele>4.8</ele>
        <time>2020-05-31T12:56:43Z</time>
      </trkpt>
      <trkpt lat="46.31487" lon="-0.60459">
        <ele>4.8</ele>
        <time>2020-05-31T12:56:44Z</time>
      </trkpt>
      <trkpt lat="46.31487" lon="-0.60459">
        <ele>4.8</ele>
        <time>2020-05-31T12:56:45Z</time>
      </trkpt>
      <trkpt lat="46.31487" lon="-0.60459">
        <ele>4.8</ele>
        <time>2020-05-31T12:56:46Z</time>
      </trkpt>
      <trkpt lat="46.31487" lon="-0.60459">
        <ele>4.8</ele>
        <time>2020-05-31T12:56:47Z</time>
      </trkpt>
      <trkpt lat="46.31487" lon="-0.6046">
        <ele>4.8</ele>
        <time>2020-05-31T12:56:48Z</time>
      </trkpt>
      <trkpt lat="46.31487" lon="-0.6046">
        <ele>4.8</ele>
        <time>2020-05-31T12:56:49Z</time>
      </trkpt>
      <trkpt lat="46.31487" lon="-0.6046">
        <ele>4.8</ele>
        <time>2020-05-31T12:56:50Z</time>
      </trkpt>
      <trkpt lat="46.31487" lon="-0.6046">
        <ele>4.8</ele>
        <time>2020-05-31T12:56:51Z</time>
      </trkpt>
      <trkpt lat="46.31487" lon="-0.6046">
        <ele>4.8</ele>
        <time>2020-05-31T12:56:52Z</time>
      </trkpt>
      <trkpt lat="46.31487" lon="-0.6046">
        <ele>4.8</ele>
        <time>2020-05-31T12:56:53Z</time>
      </trkpt>
      <trkpt lat="46.31487" lon="-0.6046">
        <ele>4.8</ele>
        <time>2020-05-31T12:56:54Z</time>
      </trkpt>
      <trkpt lat="46.31487" lon="-0.60459">
        <ele>4.8</ele>
        <time>2020-05-31T12:56:55Z</time>
      </trkpt>
      <trkpt lat="46.31486" lon="-0.60459">
        <ele>4.8</ele>
        <time>2020-05-31T12:56:56Z</time>
      </trkpt>
      <trkpt lat="46.31485" lon="-0.60459">
        <ele>4.8</ele>
        <time>2020-05-31T12:56:57Z</time>
      </trkpt>
      <trkpt lat="46.31485" lon="-0.60459">
        <ele>4.8</ele>
        <time>2020-05-31T12:56:58Z</time>
      </trkpt>
      <trkpt lat="46.31485" lon="-0.60459">
        <ele>4.8</ele>
        <time>2020-05-31T12:56:59Z</time>
      </trkpt>
      <trkpt lat="46.31485" lon="-0.60459">
        <ele>4.8</ele>
        <time>2020-05-31T12:57:00Z</time>
      </trkpt>
      <trkpt lat="46.31485" lon="-0.6046">
        <ele>4.8</ele>
        <time>2020-05-31T12:57:01Z</time>
      </trkpt>
      <trkpt lat="46.31485" lon="-0.6046">
        <ele>4.8</ele>
        <time>2020-05-31T12:57:02Z</time>
      </trkpt>
      <trkpt lat="46.31485" lon="-0.60461">
        <ele>4.8</ele>
        <time>2020-05-31T12:57:03Z</time>
      </trkpt>
      <trkpt lat="46.31485" lon="-0.60461">
        <ele>4.8</ele>
        <time>2020-05-31T12:57:04Z</time>
      </trkpt>
      <trkpt lat="46.31485" lon="-0.60461">
        <ele>4.8</ele>
        <time>2020-05-31T12:57:05Z</time>
      </trkpt>
      <trkpt lat="46.31486" lon="-0.60462">
        <ele>4.8</ele>
        <time>2020-05-31T12:57:06Z</time>
      </trkpt>
      <trkpt lat="46.31486" lon="-0.60462">
        <ele>4.8</ele>
        <time>2020-05-31T12:57:07Z</time>
      </trkpt>
      <trkpt lat="46.31486" lon="-0.60462">
        <ele>4.8</ele>
        <time>2020-05-31T12:57:08Z</time>
      </trkpt>
      <trkpt lat="46.31486" lon="-0.60463">
        <ele>4.8</ele>
        <time>2020-05-31T12:57:09Z</time>
      </trkpt>
      <trkpt lat="46.31486" lon="-0.60463">
        <ele>4.8</ele>
        <time>2020-05-31T12:57:10Z</time>
      </trkpt>
      <trkpt lat="46.31486" lon="-0.60463">
        <ele>4.8</ele>
        <time>2020-05-31T12:57:11Z</time>
      </trkpt>
      <trkpt lat="46.31486" lon="-0.60464">
        <ele>4.8</ele>
        <time>2020-05-31T12:57:12Z</time>
      </trkpt>
      <trkpt lat="46.31487" lon="-0.60464">
        <ele>4.8</ele>
        <time>2020-05-31T12:57:13Z</time>
      </trkpt>
      <trkpt lat="46.31487" lon="-0.60464">
        <ele>4.8</ele>
        <time>2020-05-31T12:57:14Z</time>
      </trkpt>
      <trkpt lat="46.31487" lon="-0.60465">
        <ele>4.8</ele>
        <time>2020-05-31T12:57:15Z</time>
      </trkpt>
      <trkpt lat="46.31487" lon="-0.60465">
        <ele>4.8</ele>
        <time>2020-05-31T12:57:16Z</time>
      </trkpt>
      <trkpt lat="46.31486" lon="-0.60466">
        <ele>4.8</ele>
        <time>2020-05-31T12:57:17Z</time>
      </trkpt>
      <trkpt lat="46.31487" lon="-0.60466">
        <ele>4.8</ele>
        <time>2020-05-31T12:57:18Z</time>
      </trkpt>
      <trkpt lat="46.31487" lon="-0.60467">
        <ele>4.8</ele>
        <time>2020-05-31T12:57:19Z</time>
      </trkpt>
      <trkpt lat="46.31487" lon="-0.60466">
        <ele>4.8</ele>
        <time>2020-05-31T12:57:20Z</time>
      </trkpt>
      <trkpt lat="46.31487" lon="-0.60467">
        <ele>4.8</ele>
        <time>2020-05-31T12:57:21Z</time>
      </trkpt>
      <trkpt lat="46.31487" lon="-0.60467">
        <ele>4.8</ele>
        <time>2020-05-31T12:57:22Z</time>
      </trkpt>
      <trkpt lat="46.31487" lon="-0.60467">
        <ele>4.8</ele>
        <time>2020-05-31T12:57:23Z</time>
      </trkpt>
      <trkpt lat="46.31487" lon="-0.60467">
        <ele>4.8</ele>
        <time>2020-05-31T12:57:24Z</time>
      </trkpt>
      <trkpt lat="46.31487" lon="-0.60467">
        <ele>4.8</ele>
        <time>2020-05-31T12:57:25Z</time>
      </trkpt>
      <trkpt lat="46.31487" lon="-0.60466">
        <ele>4.8</ele>
        <time>2020-05-31T12:57:26Z</time>
      </trkpt>
      <trkpt lat="46.31487" lon="-0.60466">
        <ele>4.8</ele>
        <time>2020-05-31T12:57:27Z</time>
      </trkpt>
      <trkpt lat="46.31487" lon="-0.60466">
        <ele>4.8</ele>
        <time>2020-05-31T12:57:28Z</time>
      </trkpt>
      <trkpt lat="46.31487" lon="-0.60467">
        <ele>4.8</ele>
        <time>2020-05-31T12:57:29Z</time>
      </trkpt>
      <trkpt lat="46.31487" lon="-0.60467">
        <ele>4.8</ele>
        <time>2020-05-31T12:57:30Z</time>
      </trkpt>
      <trkpt lat="46.31487" lon="-0.60467">
        <ele>4.8</ele>
        <time>2020-05-31T12:57:31Z</time>
      </trkpt>
      <trkpt lat="46.31487" lon="-0.60467">
        <ele>4.8</ele>
        <time>2020-05-31T12:57:32Z</time>
      </trkpt>
      <trkpt lat="46.31487" lon="-0.60467">
        <ele>4.8</ele>
        <time>2020-05-31T12:57:33Z</time>
      </trkpt>
      <trkpt lat="46.31487" lon="-0.60467">
        <ele>4.8</ele>
        <time>2020-05-31T12:57:34Z</time>
      </trkpt>
      <trkpt lat="46.31487" lon="-0.60467">
        <ele>4.8</ele>
        <time>2020-05-31T12:57:35Z</time>
      </trkpt>
      <trkpt lat="46.31487" lon="-0.60467">
        <ele>4.8</ele>
        <time>2020-05-31T12:57:36Z</time>
      </trkpt>
      <trkpt lat="46.31487" lon="-0.60467">
        <ele>4.8</ele>
        <time>2020-05-31T12:57:37Z</time>
      </trkpt>
      <trkpt lat="46.31487" lon="-0.60466">
        <ele>4.8</ele>
        <time>2020-05-31T12:57:38Z</time>
      </trkpt>
      <trkpt lat="46.31487" lon="-0.60466">
        <ele>4.8</ele>
        <time>2020-05-31T12:57:39Z</time>
      </trkpt>
      <trkpt lat="46.31487" lon="-0.60466">
        <ele>4.8</ele>
        <time>2020-05-31T12:57:40Z</time>
      </trkpt>
      <trkpt lat="46.31487" lon="-0.60466">
        <ele>4.8</ele>
        <time>2020-05-31T12:57:41Z</time>
      </trkpt>
      <trkpt lat="46.31487" lon="-0.60466">
        <ele>4.8</ele>
        <time>2020-05-31T12:57:42Z</time>
      </trkpt>
      <trkpt lat="46.31487" lon="-0.60466">
        <ele>4.8</ele>
        <time>2020-05-31T12:57:43Z</time>
      </trkpt>
      <trkpt lat="46.31487" lon="-0.60467">
        <ele>4.8</ele>
        <time>2020-05-31T12:57:44Z</time>
      </trkpt>
      <trkpt lat="46.31487" lon="-0.60467">
        <ele>4.8</ele>
        <time>2020-05-31T12:57:45Z</time>
      </trkpt>
      <trkpt lat="46.31487" lon="-0.60467">
        <ele>4.8</ele>
        <time>2020-05-31T12:57:46Z</time>
      </trkpt>
      <trkpt lat="46.31487" lon="-0.60467">
        <ele>4.8</ele>
        <time>2020-05-31T12:57:47Z</time>
      </trkpt>
      <trkpt lat="46.31487" lon="-0.60467">
        <ele>4.8</ele>
        <time>2020-05-31T12:57:48Z</time>
      </trkpt>
      <trkpt lat="46.31487" lon="-0.60467">
        <ele>4.8</ele>
        <time>2020-05-31T12:57:49Z</time>
      </trkpt>
      <trkpt lat="46.31487" lon="-0.60468">
        <ele>4.8</ele>
        <time>2020-05-31T12:57:50Z</time>
      </trkpt>
      <trkpt lat="46.31487" lon="-0.60468">
        <ele>4.8</ele>
        <time>2020-05-31T12:57:51Z</time>
      </trkpt>
      <trkpt lat="46.31487" lon="-0.60468">
        <ele>4.8</ele>
        <time>2020-05-31T12:57:52Z</time>
      </trkpt>
      <trkpt lat="46.31487" lon="-0.60467">
        <ele>4.8</ele>
        <time>2020-05-31T12:57:53Z</time>
      </trkpt>
      <trkpt lat="46.31487" lon="-0.60468">
        <ele>4.8</ele>
        <time>2020-05-31T12:57:54Z</time>
      </trkpt>
      <trkpt lat="46.31487" lon="-0.60468">
        <ele>4.8</ele>
        <time>2020-05-31T12:57:55Z</time>
      </trkpt>
      <trkpt lat="46.31487" lon="-0.60468">
        <ele>4.8</ele>
        <time>2020-05-31T12:57:56Z</time>
      </trkpt>
      <trkpt lat="46.31487" lon="-0.60467">
        <ele>4.8</ele>
        <time>2020-05-31T12:57:57Z</time>
      </trkpt>
      <trkpt lat="46.31487" lon="-0.60468">
        <ele>4.8</ele>
        <time>2020-05-31T12:57:58Z</time>
      </trkpt>
      <trkpt lat="46.31487" lon="-0.60468">
        <ele>4.8</ele>
        <time>2020-05-31T12:57:59Z</time>
      </trkpt>
      <trkpt lat="46.31487" lon="-0.60468">
        <ele>4.8</ele>
        <time>2020-05-31T12:58:00Z</time>
      </trkpt>
      <trkpt lat="46.31487" lon="-0.60469">
        <ele>4.8</ele>
        <time>2020-05-31T12:58:01Z</time>
      </trkpt>
      <trkpt lat="46.31486" lon="-0.60469">
        <ele>4.8</ele>
        <time>2020-05-31T12:58:02Z</time>
      </trkpt>
      <trkpt lat="46.31486" lon="-0.60469">
        <ele>4.8</ele>
        <time>2020-05-31T12:58:03Z</time>
      </trkpt>
      <trkpt lat="46.31486" lon="-0.60469">
        <ele>4.8</ele>
        <time>2020-05-31T12:58:04Z</time>
      </trkpt>
      <trkpt lat="46.31486" lon="-0.6047">
        <ele>4.8</ele>
        <time>2020-05-31T12:58:05Z</time>
      </trkpt>
      <trkpt lat="46.31486" lon="-0.6047">
        <ele>4.8</ele>
        <time>2020-05-31T12:58:06Z</time>
      </trkpt>
      <trkpt lat="46.31486" lon="-0.60471">
        <ele>4.8</ele>
        <time>2020-05-31T12:58:07Z</time>
      </trkpt>
      <trkpt lat="46.31486" lon="-0.60471">
        <ele>4.8</ele>
        <time>2020-05-31T12:58:08Z</time>
      </trkpt>
      <trkpt lat="46.31486" lon="-0.60471">
        <ele>4.8</ele>
        <time>2020-05-31T12:58:09Z</time>
      </trkpt>
      <trkpt lat="46.31486" lon="-0.60472">
        <ele>4.8</ele>
        <time>2020-05-31T12:58:10Z</time>
      </trkpt>
      <trkpt lat="46.31486" lon="-0.60471">
        <ele>4.8</ele>
        <time>2020-05-31T12:58:11Z</time>
      </trkpt>
      <trkpt lat="46.31486" lon="-0.60471">
        <ele>4.8</ele>
        <time>2020-05-31T12:58:12Z</time>
      </trkpt>
      <trkpt lat="46.31486" lon="-0.60471">
        <ele>4.8</ele>
        <time>2020-05-31T12:58:13Z</time>
      </trkpt>
      <trkpt lat="46.31486" lon="-0.60472">
        <ele>4.8</ele>
        <time>2020-05-31T12:58:14Z</time>
      </trkpt>
      <trkpt lat="46.31486" lon="-0.60472">
        <ele>4.8</ele>
        <time>2020-05-31T12:58:15Z</time>
      </trkpt>
      <trkpt lat="46.31486" lon="-0.60471">
        <ele>4.8</ele>
        <time>2020-05-31T12:58:16Z</time>
      </trkpt>
      <trkpt lat="46.31486" lon="-0.60471">
        <ele>4.8</ele>
        <time>2020-05-31T12:58:17Z</time>
      </trkpt>
      <trkpt lat="46.31486" lon="-0.60471">
        <ele>4.8</ele>
        <time>2020-05-31T12:58:18Z</time>
      </trkpt>
      <trkpt lat="46.31486" lon="-0.60471">
        <ele>4.8</ele>
        <time>2020-05-31T12:58:19Z</time>
      </trkpt>
      <trkpt lat="46.31486" lon="-0.60472">
        <ele>4.8</ele>
        <time>2020-05-31T12:58:20Z</time>
      </trkpt>
      <trkpt lat="46.31486" lon="-0.60472">
        <ele>4.8</ele>
        <time>2020-05-31T12:58:21Z</time>
      </trkpt>
      <trkpt lat="46.31486" lon="-0.60472">
        <ele>4.8</ele>
        <time>2020-05-31T12:58:22Z</time>
      </trkpt>
      <trkpt lat="46.31486" lon="-0.60472">
        <ele>4.8</ele>
        <time>2020-05-31T12:58:23Z</time>
      </trkpt>
      <trkpt lat="46.31486" lon="-0.60472">
        <ele>4.8</ele>
        <time>2020-05-31T12:58:24Z</time>
      </trkpt>
      <trkpt lat="46.31486" lon="-0.60472">
        <ele>4.8</ele>
        <time>2020-05-31T12:58:25Z</time>
      </trkpt>
      <trkpt lat="46.31486" lon="-0.60472">
        <ele>4.8</ele>
        <time>2020-05-31T12:58:26Z</time>
      </trkpt>
      <trkpt lat="46.31486" lon="-0.60472">
        <ele>4.8</ele>
        <time>2020-05-31T12:58:27Z</time>
      </trkpt>
      <trkpt lat="46.31486" lon="-0.60473">
        <ele>4.8</ele>
        <time>2020-05-31T12:58:28Z</time>
      </trkpt>
      <trkpt lat="46.31486" lon="-0.60473">
        <ele>4.8</ele>
        <time>2020-05-31T12:58:29Z</time>
      </trkpt>
      <trkpt lat="46.31486" lon="-0.60473">
        <ele>4.8</ele>
        <time>2020-05-31T12:58:30Z</time>
      </trkpt>
      <trkpt lat="46.31486" lon="-0.60473">
        <ele>4.8</ele>
        <time>2020-05-31T12:58:31Z</time>
      </trkpt>
      <trkpt lat="46.31486" lon="-0.60473">
        <ele>4.8</ele>
        <time>2020-05-31T12:58:32Z</time>
      </trkpt>
      <trkpt lat="46.31486" lon="-0.60473">
        <ele>4.8</ele>
        <time>2020-05-31T12:58:33Z</time>
      </trkpt>
      <trkpt lat="46.31486" lon="-0.60473">
        <ele>4.8</ele>
        <time>2020-05-31T12:58:34Z</time>
      </trkpt>
      <trkpt lat="46.31486" lon="-0.60473">
        <ele>4.8</ele>
        <time>2020-05-31T12:58:35Z</time>
      </trkpt>
      <trkpt lat="46.31486" lon="-0.60474">
        <ele>4.8</ele>
        <time>2020-05-31T12:58:36Z</time>
      </trkpt>
      <trkpt lat="46.31486" lon="-0.60474">
        <ele>4.8</ele>
        <time>2020-05-31T12:58:37Z</time>
      </trkpt>
      <trkpt lat="46.31486" lon="-0.60474">
        <ele>4.8</ele>
        <time>2020-05-31T12:58:38Z</time>
      </trkpt>
      <trkpt lat="46.31485" lon="-0.60473">
        <ele>4.8</ele>
        <time>2020-05-31T12:58:39Z</time>
      </trkpt>
      <trkpt lat="46.31485" lon="-0.60474">
        <ele>4.8</ele>
        <time>2020-05-31T12:58:40Z</time>
      </trkpt>
      <trkpt lat="46.31485" lon="-0.60473">
        <ele>4.8</ele>
        <time>2020-05-31T12:58:41Z</time>
      </trkpt>
      <trkpt lat="46.31484" lon="-0.60473">
        <ele>4.8</ele>
        <time>2020-05-31T12:58:42Z</time>
      </trkpt>
      <trkpt lat="46.31484" lon="-0.60473">
        <ele>4.8</ele>
        <time>2020-05-31T12:58:43Z</time>
      </trkpt>
      <trkpt lat="46.31483" lon="-0.60472">
        <ele>4.8</ele>
        <time>2020-05-31T12:58:44Z</time>
      </trkpt>
      <trkpt lat="46.31483" lon="-0.60472">
        <ele>4.8</ele>
        <time>2020-05-31T12:58:45Z</time>
      </trkpt>
      <trkpt lat="46.31483" lon="-0.60472">
        <ele>4.8</ele>
        <time>2020-05-31T12:58:46Z</time>
      </trkpt>
      <trkpt lat="46.31483" lon="-0.60471">
        <ele>4.8</ele>
        <time>2020-05-31T12:58:47Z</time>
      </trkpt>
      <trkpt lat="46.31483" lon="-0.60471">
        <ele>4.8</ele>
        <time>2020-05-31T12:58:48Z</time>
      </trkpt>
      <trkpt lat="46.31484" lon="-0.60471">
        <ele>4.8</ele>
        <time>2020-05-31T12:58:49Z</time>
      </trkpt>
      <trkpt lat="46.31483" lon="-0.60471">
        <ele>4.8</ele>
        <time>2020-05-31T12:58:50Z</time>
      </trkpt>
      <trkpt lat="46.31483" lon="-0.60471">
        <ele>4.8</ele>
        <time>2020-05-31T12:58:51Z</time>
      </trkpt>
      <trkpt lat="46.31483" lon="-0.6047">
        <ele>4.8</ele>
        <time>2020-05-31T12:58:52Z</time>
      </trkpt>
      <trkpt lat="46.31482" lon="-0.6047">
        <ele>4.8</ele>
        <time>2020-05-31T12:58:53Z</time>
      </trkpt>
      <trkpt lat="46.31482" lon="-0.60471">
        <ele>4.8</ele>
        <time>2020-05-31T12:58:54Z</time>
      </trkpt>
      <trkpt lat="46.31482" lon="-0.6047">
        <ele>4.8</ele>
        <time>2020-05-31T12:58:55Z</time>
      </trkpt>
      <trkpt lat="46.31481" lon="-0.6047">
        <ele>4.8</ele>
        <time>2020-05-31T12:58:56Z</time>
      </trkpt>
      <trkpt lat="46.31481" lon="-0.6047">
        <ele>4.8</ele>
        <time>2020-05-31T12:58:57Z</time>
      </trkpt>
      <trkpt lat="46.31481" lon="-0.6047">
        <ele>4.8</ele>
        <time>2020-05-31T12:58:58Z</time>
      </trkpt>
      <trkpt lat="46.31481" lon="-0.6047">
        <ele>4.8</ele>
        <time>2020-05-31T12:58:59Z</time>
      </trkpt>
      <trkpt lat="46.31481" lon="-0.6047">
        <ele>4.8</ele>
        <time>2020-05-31T12:59:00Z</time>
      </trkpt>
      <trkpt lat="46.31482" lon="-0.6047">
        <ele>4.8</ele>
        <time>2020-05-31T12:59:01Z</time>
      </trkpt>
      <trkpt lat="46.31482" lon="-0.6047">
        <ele>4.8</ele>
        <time>2020-05-31T12:59:02Z</time>
      </trkpt>
      <trkpt lat="46.31482" lon="-0.60471">
        <ele>4.8</ele>
        <time>2020-05-31T12:59:03Z</time>
      </trkpt>
      <trkpt lat="46.31482" lon="-0.60471">
        <ele>4.8</ele>
        <time>2020-05-31T12:59:04Z</time>
      </trkpt>
      <trkpt lat="46.31483" lon="-0.60471">
        <ele>4.8</ele>
        <time>2020-05-31T12:59:05Z</time>
      </trkpt>
      <trkpt lat="46.31483" lon="-0.6047">
        <ele>4.8</ele>
        <time>2020-05-31T12:59:06Z</time>
      </trkpt>
      <trkpt lat="46.31483" lon="-0.6047">
        <ele>4.8</ele>
        <time>2020-05-31T12:59:07Z</time>
      </trkpt>
      <trkpt lat="46.31483" lon="-0.6047">
        <ele>4.8</ele>
        <time>2020-05-31T12:59:08Z</time>
      </trkpt>
      <trkpt lat="46.31483" lon="-0.6047">
        <ele>4.8</ele>
        <time>2020-05-31T12:59:09Z</time>
      </trkpt>
      <trkpt lat="46.31483" lon="-0.6047">
        <ele>4.8</ele>
        <time>2020-05-31T12:59:10Z</time>
      </trkpt>
      <trkpt lat="46.31483" lon="-0.6047">
        <ele>4.8</ele>
        <time>2020-05-31T12:59:11Z</time>
      </trkpt>
      <trkpt lat="46.31483" lon="-0.6047">
        <ele>4.8</ele>
        <time>2020-05-31T12:59:12Z</time>
      </trkpt>
      <trkpt lat="46.31483" lon="-0.6047">
        <ele>4.8</ele>
        <time>2020-05-31T12:59:13Z</time>
      </trkpt>
      <trkpt lat="46.31483" lon="-0.6047">
        <ele>4.8</ele>
        <time>2020-05-31T12:59:14Z</time>
      </trkpt>
      <trkpt lat="46.31483" lon="-0.6047">
        <ele>4.8</ele>
        <time>2020-05-31T12:59:15Z</time>
      </trkpt>
      <trkpt lat="46.31483" lon="-0.6047">
        <ele>4.8</ele>
        <time>2020-05-31T12:59:16Z</time>
      </trkpt>
      <trkpt lat="46.31483" lon="-0.6047">
        <ele>4.8</ele>
        <time>2020-05-31T12:59:17Z</time>
      </trkpt>
      <trkpt lat="46.31483" lon="-0.6047">
        <ele>4.8</ele>
        <time>2020-05-31T12:59:18Z</time>
      </trkpt>
      <trkpt lat="46.31483" lon="-0.6047">
        <ele>4.8</ele>
        <time>2020-05-31T12:59:19Z</time>
      </trkpt>
      <trkpt lat="46.31483" lon="-0.6047">
        <ele>4.8</ele>
        <time>2020-05-31T12:59:20Z</time>
      </trkpt>
      <trkpt lat="46.31483" lon="-0.6047">
        <ele>4.8</ele>
        <time>2020-05-31T12:59:21Z</time>
      </trkpt>
      <trkpt lat="46.31483" lon="-0.6047">
        <ele>4.8</ele>
        <time>2020-05-31T12:59:22Z</time>
      </trkpt>
      <trkpt lat="46.31483" lon="-0.6047">
        <ele>4.8</ele>
        <time>2020-05-31T12:59:23Z</time>
      </trkpt>
      <trkpt lat="46.31484" lon="-0.6047">
        <ele>4.8</ele>
        <time>2020-05-31T12:59:24Z</time>
      </trkpt>
      <trkpt lat="46.31484" lon="-0.6047">
        <ele>4.8</ele>
        <time>2020-05-31T12:59:25Z</time>
      </trkpt>
      <trkpt lat="46.31484" lon="-0.6047">
        <ele>4.8</ele>
        <time>2020-05-31T12:59:26Z</time>
      </trkpt>
      <trkpt lat="46.31483" lon="-0.6047">
        <ele>4.8</ele>
        <time>2020-05-31T12:59:27Z</time>
      </trkpt>
      <trkpt lat="46.31483" lon="-0.6047">
        <ele>4.8</ele>
        <time>2020-05-31T12:59:28Z</time>
      </trkpt>
      <trkpt lat="46.31483" lon="-0.6047">
        <ele>4.8</ele>
        <time>2020-05-31T12:59:29Z</time>
      </trkpt>
      <trkpt lat="46.31483" lon="-0.6047">
        <ele>4.8</ele>
        <time>2020-05-31T12:59:30Z</time>
      </trkpt>
      <trkpt lat="46.31483" lon="-0.60471">
        <ele>4.8</ele>
        <time>2020-05-31T12:59:31Z</time>
      </trkpt>
      <trkpt lat="46.31484" lon="-0.60471">
        <ele>4.8</ele>
        <time>2020-05-31T12:59:32Z</time>
      </trkpt>
      <trkpt lat="46.31484" lon="-0.60471">
        <ele>4.8</ele>
        <time>2020-05-31T12:59:33Z</time>
      </trkpt>
      <trkpt lat="46.31484" lon="-0.60471">
        <ele>4.8</ele>
        <time>2020-05-31T12:59:34Z</time>
      </trkpt>
      <trkpt lat="46.31485" lon="-0.60471">
        <ele>4.8</ele>
        <time>2020-05-31T12:59:35Z</time>
      </trkpt>
      <trkpt lat="46.31485" lon="-0.60471">
        <ele>4.8</ele>
        <time>2020-05-31T12:59:36Z</time>
      </trkpt>
      <trkpt lat="46.31485" lon="-0.60471">
        <ele>4.8</ele>
        <time>2020-05-31T12:59:37Z</time>
      </trkpt>
      <trkpt lat="46.31485" lon="-0.60471">
        <ele>4.8</ele>
        <time>2020-05-31T12:59:38Z</time>
      </trkpt>
      <trkpt lat="46.31485" lon="-0.60471">
        <ele>4.8</ele>
        <time>2020-05-31T12:59:39Z</time>
      </trkpt>
      <trkpt lat="46.31485" lon="-0.60471">
        <ele>4.8</ele>
        <time>2020-05-31T12:59:40Z</time>
      </trkpt>
      <trkpt lat="46.31485" lon="-0.60471">
        <ele>4.8</ele>
        <time>2020-05-31T12:59:41Z</time>
      </trkpt>
      <trkpt lat="46.31485" lon="-0.60471">
        <ele>4.8</ele>
        <time>2020-05-31T12:59:42Z</time>
      </trkpt>
      <trkpt lat="46.31485" lon="-0.60472">
        <ele>4.8</ele>
        <time>2020-05-31T12:59:43Z</time>
      </trkpt>
      <trkpt lat="46.31485" lon="-0.60473">
        <ele>4.8</ele>
        <time>2020-05-31T12:59:44Z</time>
      </trkpt>
      <trkpt lat="46.31485" lon="-0.60473">
        <ele>4.8</ele>
        <time>2020-05-31T12:59:45Z</time>
      </trkpt>
      <trkpt lat="46.31484" lon="-0.60473">
        <ele>4.8</ele>
        <time>2020-05-31T12:59:46Z</time>
      </trkpt>
      <trkpt lat="46.31483" lon="-0.60474">
        <ele>4.8</ele>
        <time>2020-05-31T12:59:47Z</time>
      </trkpt>
      <trkpt lat="46.31483" lon="-0.60474">
        <ele>4.8</ele>
        <time>2020-05-31T12:59:48Z</time>
      </trkpt>
      <trkpt lat="46.31483" lon="-0.60475">
        <ele>4.8</ele>
        <time>2020-05-31T12:59:49Z</time>
      </trkpt>
      <trkpt lat="46.31483" lon="-0.60474">
        <ele>4.8</ele>
        <time>2020-05-31T12:59:50Z</time>
      </trkpt>
      <trkpt lat="46.31482" lon="-0.60473">
        <ele>4.8</ele>
        <time>2020-05-31T12:59:51Z</time>
      </trkpt>
      <trkpt lat="46.31481" lon="-0.60471">
        <ele>4.8</ele>
        <time>2020-05-31T12:59:52Z</time>
      </trkpt>
      <trkpt lat="46.31481" lon="-0.6047">
        <ele>4.8</ele>
        <time>2020-05-31T12:59:53Z</time>
      </trkpt>
      <trkpt lat="46.31481" lon="-0.60469">
        <ele>4.8</ele>
        <time>2020-05-31T12:59:54Z</time>
      </trkpt>
      <trkpt lat="46.3148" lon="-0.60469">
        <ele>4.8</ele>
        <time>2020-05-31T12:59:55Z</time>
      </trkpt>
      <trkpt lat="46.31481" lon="-0.60468">
        <ele>4.8</ele>
        <time>2020-05-31T12:59:56Z</time>
      </trkpt>
      <trkpt lat="46.31481" lon="-0.60468">
        <ele>4.8</ele>
        <time>2020-05-31T12:59:57Z</time>
      </trkpt>
      <trkpt lat="46.31481" lon="-0.60467">
        <ele>4.8</ele>
        <time>2020-05-31T12:59:58Z</time>
      </trkpt>
      <trkpt lat="46.31481" lon="-0.60467">
        <ele>4.8</ele>
        <time>2020-05-31T12:59:59Z</time>
      </trkpt>
      <trkpt lat="46.31481" lon="-0.60467">
        <ele>4.8</ele>
        <time>2020-05-31T13:00:00Z</time>
      </trkpt>
      <trkpt lat="46.31481" lon="-0.60467">
        <ele>4.8</ele>
        <time>2020-05-31T13:00:01Z</time>
      </trkpt>
      <trkpt lat="46.31481" lon="-0.60467">
        <ele>4.8</ele>
        <time>2020-05-31T13:00:02Z</time>
      </trkpt>
      <trkpt lat="46.31482" lon="-0.60466">
        <ele>4.8</ele>
        <time>2020-05-31T13:00:03Z</time>
      </trkpt>
      <trkpt lat="46.31482" lon="-0.60466">
        <ele>4.8</ele>
        <time>2020-05-31T13:00:04Z</time>
      </trkpt>
      <trkpt lat="46.31482" lon="-0.60466">
        <ele>4.8</ele>
        <time>2020-05-31T13:00:05Z</time>
      </trkpt>
      <trkpt lat="46.31482" lon="-0.60466">
        <ele>4.8</ele>
        <time>2020-05-31T13:00:06Z</time>
      </trkpt>
      <trkpt lat="46.31482" lon="-0.60466">
        <ele>4.8</ele>
        <time>2020-05-31T13:00:07Z</time>
      </trkpt>
      <trkpt lat="46.31482" lon="-0.60466">
        <ele>4.8</ele>
        <time>2020-05-31T13:00:08Z</time>
      </trkpt>
      <trkpt lat="46.31482" lon="-0.60466">
        <ele>4.8</ele>
        <time>2020-05-31T13:00:09Z</time>
      </trkpt>
      <trkpt lat="46.31482" lon="-0.60466">
        <ele>4.8</ele>
        <time>2020-05-31T13:00:10Z</time>
      </trkpt>
      <trkpt lat="46.31482" lon="-0.60466">
        <ele>4.8</ele>
        <time>2020-05-31T13:00:11Z</time>
      </trkpt>
      <trkpt lat="46.31482" lon="-0.60466">
        <ele>4.8</ele>
        <time>2020-05-31T13:00:12Z</time>
      </trkpt>
      <trkpt lat="46.31482" lon="-0.60466">
        <ele>4.8</ele>
        <time>2020-05-31T13:00:13Z</time>
      </trkpt>
      <trkpt lat="46.31482" lon="-0.60466">
        <ele>4.8</ele>
        <time>2020-05-31T13:00:14Z</time>
      </trkpt>
      <trkpt lat="46.31483" lon="-0.60465">
        <ele>4.8</ele>
        <time>2020-05-31T13:00:15Z</time>
      </trkpt>
      <trkpt lat="46.31483" lon="-0.60464">
        <ele>4.8</ele>
        <time>2020-05-31T13:00:16Z</time>
      </trkpt>
      <trkpt lat="46.31483" lon="-0.60464">
        <ele>4.8</ele>
        <time>2020-05-31T13:00:17Z</time>
      </trkpt>
      <trkpt lat="46.31484" lon="-0.60463">
        <ele>4.8</ele>
        <time>2020-05-31T13:00:18Z</time>
      </trkpt>
      <trkpt lat="46.31484" lon="-0.60463">
        <ele>4.8</ele>
        <time>2020-05-31T13:00:19Z</time>
      </trkpt>
      <trkpt lat="46.31484" lon="-0.60463">
        <ele>4.8</ele>
        <time>2020-05-31T13:00:20Z</time>
      </trkpt>
      <trkpt lat="46.31484" lon="-0.60462">
        <ele>4.8</ele>
        <time>2020-05-31T13:00:21Z</time>
      </trkpt>
      <trkpt lat="46.31485" lon="-0.60462">
        <ele>4.8</ele>
        <time>2020-05-31T13:00:22Z</time>
      </trkpt>
      <trkpt lat="46.31485" lon="-0.60461">
        <ele>4.8</ele>
        <time>2020-05-31T13:00:23Z</time>
      </trkpt>
      <trkpt lat="46.31485" lon="-0.6046">
        <ele>4.8</ele>
        <time>2020-05-31T13:00:24Z</time>
      </trkpt>
      <trkpt lat="46.31484" lon="-0.6046">
        <ele>4.8</ele>
        <time>2020-05-31T13:00:25Z</time>
      </trkpt>
      <trkpt lat="46.31484" lon="-0.60459">
        <ele>4.8</ele>
        <time>2020-05-31T13:00:26Z</time>
      </trkpt>
      <trkpt lat="46.31484" lon="-0.6046">
        <ele>4.8</ele>
        <time>2020-05-31T13:00:27Z</time>
      </trkpt>
      <trkpt lat="46.31483" lon="-0.6046">
        <ele>4.8</ele>
        <time>2020-05-31T13:00:28Z</time>
      </trkpt>
      <trkpt lat="46.31483" lon="-0.60459">
        <ele>4.8</ele>
        <time>2020-05-31T13:00:29Z</time>
      </trkpt>
      <trkpt lat="46.31482" lon="-0.60459">
        <ele>4.8</ele>
        <time>2020-05-31T13:00:30Z</time>
      </trkpt>
      <trkpt lat="46.31482" lon="-0.60459">
        <ele>4.8</ele>
        <time>2020-05-31T13:00:31Z</time>
      </trkpt>
      <trkpt lat="46.31482" lon="-0.60459">
        <ele>4.8</ele>
        <time>2020-05-31T13:00:32Z</time>
      </trkpt>
      <trkpt lat="46.31482" lon="-0.60458">
        <ele>4.8</ele>
        <time>2020-05-31T13:00:33Z</time>
      </trkpt>
      <trkpt lat="46.31481" lon="-0.60457">
        <ele>4.8</ele>
        <time>2020-05-31T13:00:34Z</time>
      </trkpt>
      <trkpt lat="46.31482" lon="-0.60457">
        <ele>4.8</ele>
        <time>2020-05-31T13:00:35Z</time>
      </trkpt>
      <trkpt lat="46.31482" lon="-0.60458">
        <ele>4.8</ele>
        <time>2020-05-31T13:00:36Z</time>
      </trkpt>
      <trkpt lat="46.31483" lon="-0.60458">
        <ele>4.8</ele>
        <time>2020-05-31T13:00:37Z</time>
      </trkpt>
      <trkpt lat="46.31483" lon="-0.60458">
        <ele>4.8</ele>
        <time>2020-05-31T13:00:38Z</time>
      </trkpt>
      <trkpt lat="46.31484" lon="-0.60459">
        <ele>4.8</ele>
        <time>2020-05-31T13:00:39Z</time>
      </trkpt>
      <trkpt lat="46.31485" lon="-0.60459">
        <ele>4.8</ele>
        <time>2020-05-31T13:00:40Z</time>
      </trkpt>
      <trkpt lat="46.31485" lon="-0.60459">
        <ele>4.8</ele>
        <time>2020-05-31T13:00:41Z</time>
      </trkpt>
      <trkpt lat="46.31485" lon="-0.60458">
        <ele>4.8</ele>
        <time>2020-05-31T13:00:42Z</time>
      </trkpt>
      <trkpt lat="46.31485" lon="-0.60458">
        <ele>4.8</ele>
        <time>2020-05-31T13:00:43Z</time>
      </trkpt>
      <trkpt lat="46.31485" lon="-0.60458">
        <ele>4.8</ele>
        <time>2020-05-31T13:00:44Z</time>
      </trkpt>
      <trkpt lat="46.31485" lon="-0.60458">
        <ele>4.8</ele>
        <time>2020-05-31T13:00:45Z</time>
      </trkpt>
      <trkpt lat="46.31485" lon="-0.60458">
        <ele>4.8</ele>
        <time>2020-05-31T13:00:46Z</time>
      </trkpt>
      <trkpt lat="46.31485" lon="-0.60458">
        <ele>4.8</ele>
        <time>2020-05-31T13:00:47Z</time>
      </trkpt>
      <trkpt lat="46.31485" lon="-0.60458">
        <ele>4.8</ele>
        <time>2020-05-31T13:00:48Z</time>
      </trkpt>
      <trkpt lat="46.31485" lon="-0.60458">
        <ele>4.8</ele>
        <time>2020-05-31T13:00:49Z</time>
      </trkpt>
      <trkpt lat="46.31484" lon="-0.60458">
        <ele>4.8</ele>
        <time>2020-05-31T13:00:50Z</time>
      </trkpt>
      <trkpt lat="46.31484" lon="-0.60458">
        <ele>4.8</ele>
        <time>2020-05-31T13:00:51Z</time>
      </trkpt>
      <trkpt lat="46.31485" lon="-0.60458">
        <ele>4.8</ele>
        <time>2020-05-31T13:00:52Z</time>
      </trkpt>
      <trkpt lat="46.31485" lon="-0.60457">
        <ele>4.8</ele>
        <time>2020-05-31T13:00:53Z</time>
      </trkpt>
      <trkpt lat="46.31485" lon="-0.60458">
        <ele>4.8</ele>
        <time>2020-05-31T13:00:54Z</time>
      </trkpt>
      <trkpt lat="46.31485" lon="-0.60457">
        <ele>4.8</ele>
        <time>2020-05-31T13:00:55Z</time>
      </trkpt>
      <trkpt lat="46.31484" lon="-0.60457">
        <ele>4.8</ele>
        <time>2020-05-31T13:00:56Z</time>
      </trkpt>
      <trkpt lat="46.31484" lon="-0.60457">
        <ele>4.8</ele>
        <time>2020-05-31T13:00:57Z</time>
      </trkpt>
      <trkpt lat="46.31484" lon="-0.60457">
        <ele>4.8</ele>
        <time>2020-05-31T13:00:58Z</time>
      </trkpt>
      <trkpt lat="46.31485" lon="-0.60457">
        <ele>4.8</ele>
        <time>2020-05-31T13:00:59Z</time>
      </trkpt>
      <trkpt lat="46.31485" lon="-0.60457">
        <ele>4.8</ele>
        <time>2020-05-31T13:01:00Z</time>
      </trkpt>
      <trkpt lat="46.31484" lon="-0.60458">
        <ele>4.8</ele>
        <time>2020-05-31T13:01:01Z</time>
      </trkpt>
      <trkpt lat="46.31484" lon="-0.60459">
        <ele>4.8</ele>
        <time>2020-05-31T13:01:02Z</time>
      </trkpt>
      <trkpt lat="46.31483" lon="-0.60461">
        <ele>4.8</ele>
        <time>2020-05-31T13:01:03Z</time>
      </trkpt>
      <trkpt lat="46.31483" lon="-0.60462">
        <ele>4.8</ele>
        <time>2020-05-31T13:01:04Z</time>
      </trkpt>
      <trkpt lat="46.31483" lon="-0.60462">
        <ele>4.8</ele>
        <time>2020-05-31T13:01:05Z</time>
      </trkpt>
      <trkpt lat="46.31483" lon="-0.60463">
        <ele>4.8</ele>
        <time>2020-05-31T13:01:06Z</time>
      </trkpt>
      <trkpt lat="46.31483" lon="-0.60462">
        <ele>4.8</ele>
        <time>2020-05-31T13:01:07Z</time>
      </trkpt>
      <trkpt lat="46.31483" lon="-0.60464">
        <ele>4.8</ele>
        <time>2020-05-31T13:01:08Z</time>
      </trkpt>
      <trkpt lat="46.31483" lon="-0.60465">
        <ele>4.8</ele>
        <time>2020-05-31T13:01:09Z</time>
      </trkpt>
      <trkpt lat="46.31483" lon="-0.60466">
        <ele>4.8</ele>
        <time>2020-05-31T13:01:10Z</time>
      </trkpt>
      <trkpt lat="46.31484" lon="-0.60467">
        <ele>4.8</ele>
        <time>2020-05-31T13:01:11Z</time>
      </trkpt>
      <trkpt lat="46.31484" lon="-0.60467">
        <ele>4.8</ele>
        <time>2020-05-31T13:01:12Z</time>
      </trkpt>
      <trkpt lat="46.31484" lon="-0.60467">
        <ele>4.8</ele>
        <time>2020-05-31T13:01:13Z</time>
      </trkpt>
      <trkpt lat="46.31484" lon="-0.60468">
        <ele>4.8</ele>
        <time>2020-05-31T13:01:14Z</time>
      </trkpt>
      <trkpt lat="46.31484" lon="-0.60468">
        <ele>4.8</ele>
        <time>2020-05-31T13:01:15Z</time>
      </trkpt>
      <trkpt lat="46.31484" lon="-0.60468">
        <ele>4.8</ele>
        <time>2020-05-31T13:01:16Z</time>
      </trkpt>
      <trkpt lat="46.31484" lon="-0.60468">
        <ele>4.8</ele>
        <time>2020-05-31T13:01:17Z</time>
      </trkpt>
      <trkpt lat="46.31484" lon="-0.60468">
        <ele>4.8</ele>
        <time>2020-05-31T13:01:18Z</time>
      </trkpt>
      <trkpt lat="46.31484" lon="-0.60468">
        <ele>4.8</ele>
        <time>2020-05-31T13:01:19Z</time>
      </trkpt>
      <trkpt lat="46.31484" lon="-0.60468">
        <ele>4.8</ele>
        <time>2020-05-31T13:01:20Z</time>
      </trkpt>
      <trkpt lat="46.31484" lon="-0.60468">
        <ele>4.8</ele>
        <time>2020-05-31T13:01:21Z</time>
      </trkpt>
      <trkpt lat="46.31484" lon="-0.60468">
        <ele>4.8</ele>
        <time>2020-05-31T13:01:22Z</time>
      </trkpt>
      <trkpt lat="46.31484" lon="-0.60468">
        <ele>4.8</ele>
        <time>2020-05-31T13:01:24Z</time>
      </trkpt>
      <trkpt lat="46.31484" lon="-0.60468">
        <ele>4.8</ele>
        <time>2020-05-31T13:01:25Z</time>
      </trkpt>
      <trkpt lat="46.31484" lon="-0.60468">
        <ele>4.8</ele>
        <time>2020-05-31T13:01:26Z</time>
      </trkpt>
      <trkpt lat="46.31484" lon="-0.60468">
        <ele>4.8</ele>
        <time>2020-05-31T13:01:27Z</time>
      </trkpt>
      <trkpt lat="46.31484" lon="-0.60468">
        <ele>4.8</ele>
        <time>2020-05-31T13:01:28Z</time>
      </trkpt>
      <trkpt lat="46.31484" lon="-0.60468">
        <ele>4.8</ele>
        <time>2020-05-31T13:01:29Z</time>
      </trkpt>
      <trkpt lat="46.31484" lon="-0.60468">
        <ele>4.8</ele>
        <time>2020-05-31T13:01:30Z</time>
      </trkpt>
      <trkpt lat="46.31484" lon="-0.60468">
        <ele>4.8</ele>
        <time>2020-05-31T13:01:31Z</time>
      </trkpt>
      <trkpt lat="46.31484" lon="-0.60468">
        <ele>4.8</ele>
        <time>2020-05-31T13:01:32Z</time>
      </trkpt>
      <trkpt lat="46.31484" lon="-0.60468">
        <ele>4.8</ele>
        <time>2020-05-31T13:01:33Z</time>
      </trkpt>
      <trkpt lat="46.31484" lon="-0.60468">
        <ele>4.8</ele>
        <time>2020-05-31T13:01:34Z</time>
      </trkpt>
      <trkpt lat="46.31485" lon="-0.60469">
        <ele>4.8</ele>
        <time>2020-05-31T13:01:35Z</time>
      </trkpt>
      <trkpt lat="46.31485" lon="-0.60469">
        <ele>4.8</ele>
        <time>2020-05-31T13:01:36Z</time>
      </trkpt>
      <trkpt lat="46.31485" lon="-0.60469">
        <ele>4.8</ele>
        <time>2020-05-31T13:01:37Z</time>
      </trkpt>
      <trkpt lat="46.31485" lon="-0.6047">
        <ele>4.8</ele>
        <time>2020-05-31T13:01:38Z</time>
      </trkpt>
      <trkpt lat="46.31485" lon="-0.6047">
        <ele>4.8</ele>
        <time>2020-05-31T13:01:39Z</time>
      </trkpt>
      <trkpt lat="46.31485" lon="-0.6047">
        <ele>4.8</ele>
        <time>2020-05-31T13:01:40Z</time>
      </trkpt>
      <trkpt lat="46.31485" lon="-0.60471">
        <ele>4.8</ele>
        <time>2020-05-31T13:01:41Z</time>
      </trkpt>
      <trkpt lat="46.31486" lon="-0.60472">
        <ele>4.8</ele>
        <time>2020-05-31T13:01:42Z</time>
      </trkpt>
      <trkpt lat="46.31485" lon="-0.60473">
        <ele>4.8</ele>
        <time>2020-05-31T13:01:43Z</time>
      </trkpt>
      <trkpt lat="46.31484" lon="-0.60475">
        <ele>4.8</ele>
        <time>2020-05-31T13:01:44Z</time>
      </trkpt>
      <trkpt lat="46.31484" lon="-0.60476">
        <ele>4.8</ele>
        <time>2020-05-31T13:01:45Z</time>
      </trkpt>
      <trkpt lat="46.31484" lon="-0.60477">
        <ele>4.8</ele>
        <time>2020-05-31T13:01:46Z</time>
      </trkpt>
      <trkpt lat="46.31484" lon="-0.60477">
        <ele>4.8</ele>
        <time>2020-05-31T13:01:47Z</time>
      </trkpt>
      <trkpt lat="46.31484" lon="-0.60478">
        <ele>4.8</ele>
        <time>2020-05-31T13:01:48Z</time>
      </trkpt>
      <trkpt lat="46.31484" lon="-0.60479">
        <ele>4.8</ele>
        <time>2020-05-31T13:01:49Z</time>
      </trkpt>
      <trkpt lat="46.31484" lon="-0.6048">
        <ele>4.8</ele>
        <time>2020-05-31T13:01:50Z</time>
      </trkpt>
      <trkpt lat="46.31484" lon="-0.60481">
        <ele>4.8</ele>
        <time>2020-05-31T13:01:51Z</time>
      </trkpt>
      <trkpt lat="46.31483" lon="-0.60481">
        <ele>4.8</ele>
        <time>2020-05-31T13:01:52Z</time>
      </trkpt>
      <trkpt lat="46.31483" lon="-0.60482">
        <ele>4.8</ele>
        <time>2020-05-31T13:01:53Z</time>
      </trkpt>
      <trkpt lat="46.31483" lon="-0.60482">
        <ele>4.8</ele>
        <time>2020-05-31T13:01:54Z</time>
      </trkpt>
      <trkpt lat="46.31482" lon="-0.60482">
        <ele>4.8</ele>
        <time>2020-05-31T13:01:55Z</time>
      </trkpt>
      <trkpt lat="46.31482" lon="-0.60483">
        <ele>4.8</ele>
        <time>2020-05-31T13:01:56Z</time>
      </trkpt>
      <trkpt lat="46.31482" lon="-0.60482">
        <ele>4.8</ele>
        <time>2020-05-31T13:01:57Z</time>
      </trkpt>
      <trkpt lat="46.31482" lon="-0.60482">
        <ele>4.8</ele>
        <time>2020-05-31T13:01:58Z</time>
      </trkpt>
      <trkpt lat="46.31482" lon="-0.60481">
        <ele>4.8</ele>
        <time>2020-05-31T13:01:59Z</time>
      </trkpt>
      <trkpt lat="46.31481" lon="-0.6048">
        <ele>4.8</ele>
        <time>2020-05-31T13:02:00Z</time>
      </trkpt>
      <trkpt lat="46.31481" lon="-0.6048">
        <ele>4.8</ele>
        <time>2020-05-31T13:02:01Z</time>
      </trkpt>
      <trkpt lat="46.31481" lon="-0.6048">
        <ele>4.8</ele>
        <time>2020-05-31T13:02:02Z</time>
      </trkpt>
      <trkpt lat="46.31482" lon="-0.60481">
        <ele>4.8</ele>
        <time>2020-05-31T13:02:03Z</time>
      </trkpt>
      <trkpt lat="46.31482" lon="-0.6048">
        <ele>4.8</ele>
        <time>2020-05-31T13:02:04Z</time>
      </trkpt>
      <trkpt lat="46.31482" lon="-0.6048">
        <ele>4.8</ele>
        <time>2020-05-31T13:02:05Z</time>
      </trkpt>
      <trkpt lat="46.31483" lon="-0.6048">
        <ele>4.8</ele>
        <time>2020-05-31T13:02:06Z</time>
      </trkpt>
      <trkpt lat="46.31483" lon="-0.60479">
        <ele>4.8</ele>
        <time>2020-05-31T13:02:07Z</time>
      </trkpt>
      <trkpt lat="46.31483" lon="-0.60479">
        <ele>4.8</ele>
        <time>2020-05-31T13:02:08Z</time>
      </trkpt>
      <trkpt lat="46.31483" lon="-0.60479">
        <ele>4.8</ele>
        <time>2020-05-31T13:02:09Z</time>
      </trkpt>
      <trkpt lat="46.31483" lon="-0.60479">
        <ele>4.8</ele>
        <time>2020-05-31T13:02:10Z</time>
      </trkpt>
      <trkpt lat="46.31484" lon="-0.60478">
        <ele>4.8</ele>
        <time>2020-05-31T13:02:11Z</time>
      </trkpt>
      <trkpt lat="46.31484" lon="-0.60478">
        <ele>4.8</ele>
        <time>2020-05-31T13:02:12Z</time>
      </trkpt>
      <trkpt lat="46.31484" lon="-0.60478">
        <ele>4.8</ele>
        <time>2020-05-31T13:02:13Z</time>
      </trkpt>
      <trkpt lat="46.31484" lon="-0.60478">
        <ele>4.8</ele>
        <time>2020-05-31T13:02:14Z</time>
      </trkpt>
      <trkpt lat="46.31485" lon="-0.60478">
        <ele>4.8</ele>
        <time>2020-05-31T13:02:15Z</time>
      </trkpt>
      <trkpt lat="46.31484" lon="-0.60477">
        <ele>4.8</ele>
        <time>2020-05-31T13:02:16Z</time>
      </trkpt>
      <trkpt lat="46.31484" lon="-0.60477">
        <ele>4.8</ele>
        <time>2020-05-31T13:02:17Z</time>
      </trkpt>
      <trkpt lat="46.31484" lon="-0.60475">
        <ele>4.8</ele>
        <time>2020-05-31T13:02:18Z</time>
      </trkpt>
      <trkpt lat="46.31484" lon="-0.60475">
        <ele>4.8</ele>
        <time>2020-05-31T13:02:19Z</time>
      </trkpt>
      <trkpt lat="46.31484" lon="-0.60475">
        <ele>4.8</ele>
        <time>2020-05-31T13:02:20Z</time>
      </trkpt>
      <trkpt lat="46.31484" lon="-0.60475">
        <ele>4.8</ele>
        <time>2020-05-31T13:02:21Z</time>
      </trkpt>
      <trkpt lat="46.31484" lon="-0.60475">
        <ele>4.8</ele>
        <time>2020-05-31T13:02:22Z</time>
      </trkpt>
      <trkpt lat="46.31484" lon="-0.60475">
        <ele>4.8</ele>
        <time>2020-05-31T13:02:23Z</time>
      </trkpt>
      <trkpt lat="46.31484" lon="-0.60476">
        <ele>4.8</ele>
        <time>2020-05-31T13:02:24Z</time>
      </trkpt>
      <trkpt lat="46.31485" lon="-0.60476">
        <ele>4.8</ele>
        <time>2020-05-31T13:02:25Z</time>
      </trkpt>
      <trkpt lat="46.31485" lon="-0.60476">
        <ele>4.8</ele>
        <time>2020-05-31T13:02:26Z</time>
      </trkpt>
      <trkpt lat="46.31486" lon="-0.60476">
        <ele>4.8</ele>
        <time>2020-05-31T13:02:27Z</time>
      </trkpt>
      <trkpt lat="46.31486" lon="-0.60476">
        <ele>4.8</ele>
        <time>2020-05-31T13:02:28Z</time>
      </trkpt>
      <trkpt lat="46.31486" lon="-0.60476">
        <ele>4.8</ele>
        <time>2020-05-31T13:02:29Z</time>
      </trkpt>
      <trkpt lat="46.31486" lon="-0.60476">
        <ele>4.8</ele>
        <time>2020-05-31T13:02:30Z</time>
      </trkpt>
      <trkpt lat="46.31486" lon="-0.60477">
        <ele>4.8</ele>
        <time>2020-05-31T13:02:31Z</time>
      </trkpt>
      <trkpt lat="46.31486" lon="-0.60476">
        <ele>4.8</ele>
        <time>2020-05-31T13:02:32Z</time>
      </trkpt>
      <trkpt lat="46.31486" lon="-0.60476">
        <ele>4.8</ele>
        <time>2020-05-31T13:02:33Z</time>
      </trkpt>
      <trkpt lat="46.31486" lon="-0.60476">
        <ele>4.8</ele>
        <time>2020-05-31T13:02:34Z</time>
      </trkpt>
      <trkpt lat="46.31486" lon="-0.60476">
        <ele>4.8</ele>
        <time>2020-05-31T13:02:35Z</time>
      </trkpt>
      <trkpt lat="46.31486" lon="-0.60474">
        <ele>4.8</ele>
        <time>2020-05-31T13:02:36Z</time>
      </trkpt>
      <trkpt lat="46.31487" lon="-0.60473">
        <ele>4.8</ele>
        <time>2020-05-31T13:02:37Z</time>
      </trkpt>
      <trkpt lat="46.31487" lon="-0.60471">
        <ele>4.8</ele>
        <time>2020-05-31T13:02:38Z</time>
      </trkpt>
      <trkpt lat="46.31487" lon="-0.60471">
        <ele>4.8</ele>
        <time>2020-05-31T13:02:39Z</time>
      </trkpt>
      <trkpt lat="46.31488" lon="-0.60469">
        <ele>4.8</ele>
        <time>2020-05-31T13:02:40Z</time>
      </trkpt>
      <trkpt lat="46.31488" lon="-0.60468">
        <ele>4.8</ele>
        <time>2020-05-31T13:02:41Z</time>
      </trkpt>
      <trkpt lat="46.31488" lon="-0.60467">
        <ele>4.8</ele>
        <time>2020-05-31T13:02:42Z</time>
      </trkpt>
      <trkpt lat="46.31488" lon="-0.60466">
        <ele>4.8</ele>
        <time>2020-05-31T13:02:43Z</time>
      </trkpt>
      <trkpt lat="46.31489" lon="-0.60465">
        <ele>4.8</ele>
        <time>2020-05-31T13:02:44Z</time>
      </trkpt>
      <trkpt lat="46.3149" lon="-0.60465">
        <ele>4.8</ele>
        <time>2020-05-31T13:02:45Z</time>
      </trkpt>
      <trkpt lat="46.3149" lon="-0.60464">
        <ele>4.8</ele>
        <time>2020-05-31T13:02:46Z</time>
      </trkpt>
      <trkpt lat="46.31491" lon="-0.60464">
        <ele>4.8</ele>
        <time>2020-05-31T13:02:47Z</time>
      </trkpt>
      <trkpt lat="46.31491" lon="-0.60464">
        <ele>4.8</ele>
        <time>2020-05-31T13:02:48Z</time>
      </trkpt>
      <trkpt lat="46.31491" lon="-0.60463">
        <ele>4.8</ele>
        <time>2020-05-31T13:02:49Z</time>
      </trkpt>
      <trkpt lat="46.31491" lon="-0.60463">
        <ele>4.8</ele>
        <time>2020-05-31T13:02:50Z</time>
      </trkpt>
      <trkpt lat="46.31491" lon="-0.60463">
        <ele>4.8</ele>
        <time>2020-05-31T13:02:51Z</time>
      </trkpt>
      <trkpt lat="46.31491" lon="-0.60462">
        <ele>4.8</ele>
        <time>2020-05-31T13:02:52Z</time>
      </trkpt>
      <trkpt lat="46.31491" lon="-0.60462">
        <ele>4.8</ele>
        <time>2020-05-31T13:02:53Z</time>
      </trkpt>
      <trkpt lat="46.31491" lon="-0.60462">
        <ele>4.8</ele>
        <time>2020-05-31T13:02:54Z</time>
      </trkpt>
      <trkpt lat="46.31491" lon="-0.60461">
        <ele>4.8</ele>
        <time>2020-05-31T13:02:55Z</time>
      </trkpt>
      <trkpt lat="46.31492" lon="-0.60461">
        <ele>4.8</ele>
        <time>2020-05-31T13:02:56Z</time>
      </trkpt>
      <trkpt lat="46.31492" lon="-0.60461">
        <ele>4.8</ele>
        <time>2020-05-31T13:02:57Z</time>
      </trkpt>
      <trkpt lat="46.31492" lon="-0.6046">
        <ele>4.8</ele>
        <time>2020-05-31T13:02:58Z</time>
      </trkpt>
      <trkpt lat="46.31492" lon="-0.6046">
        <ele>4.8</ele>
        <time>2020-05-31T13:02:59Z</time>
      </trkpt>
      <trkpt lat="46.31492" lon="-0.6046">
        <ele>4.8</ele>
        <time>2020-05-31T13:03:00Z</time>
      </trkpt>
      <trkpt lat="46.31492" lon="-0.6046">
        <ele>4.8</ele>
        <time>2020-05-31T13:03:01Z</time>
      </trkpt>
      <trkpt lat="46.31492" lon="-0.60459">
        <ele>4.8</ele>
        <time>2020-05-31T13:03:02Z</time>
      </trkpt>
      <trkpt lat="46.31492" lon="-0.60459">
        <ele>4.8</ele>
        <time>2020-05-31T13:03:03Z</time>
      </trkpt>
      <trkpt lat="46.31493" lon="-0.60456">
        <ele>4.8</ele>
        <time>2020-05-31T13:03:04Z</time>
      </trkpt>
      <trkpt lat="46.31492" lon="-0.60454">
        <ele>4.8</ele>
        <time>2020-05-31T13:03:05Z</time>
      </trkpt>
      <trkpt lat="46.31492" lon="-0.60453">
        <ele>4.8</ele>
        <time>2020-05-31T13:03:06Z</time>
      </trkpt>
      <trkpt lat="46.31492" lon="-0.60453">
        <ele>4.8</ele>
        <time>2020-05-31T13:03:07Z</time>
      </trkpt>
      <trkpt lat="46.31492" lon="-0.60452">
        <ele>4.8</ele>
        <time>2020-05-31T13:03:08Z</time>
      </trkpt>
      <trkpt lat="46.31493" lon="-0.60451">
        <ele>4.8</ele>
        <time>2020-05-31T13:03:09Z</time>
      </trkpt>
      <trkpt lat="46.31492" lon="-0.60449">
        <ele>4.8</ele>
        <time>2020-05-31T13:03:10Z</time>
      </trkpt>
      <trkpt lat="46.31492" lon="-0.60448">
        <ele>4.8</ele>
        <time>2020-05-31T13:03:11Z</time>
      </trkpt>
      <trkpt lat="46.31492" lon="-0.60447">
        <ele>4.8</ele>
        <time>2020-05-31T13:03:12Z</time>
      </trkpt>
      <trkpt lat="46.31491" lon="-0.60447">
        <ele>4.8</ele>
        <time>2020-05-31T13:03:13Z</time>
      </trkpt>
      <trkpt lat="46.31491" lon="-0.60446">
        <ele>4.8</ele>
        <time>2020-05-31T13:03:14Z</time>
      </trkpt>
      <trkpt lat="46.31491" lon="-0.60447">
        <ele>4.8</ele>
        <time>2020-05-31T13:03:15Z</time>
      </trkpt>
      <trkpt lat="46.31491" lon="-0.60446">
        <ele>4.8</ele>
        <time>2020-05-31T13:03:16Z</time>
      </trkpt>
      <trkpt lat="46.31491" lon="-0.60446">
        <ele>4.8</ele>
        <time>2020-05-31T13:03:17Z</time>
      </trkpt>
      <trkpt lat="46.31491" lon="-0.60446">
        <ele>4.8</ele>
        <time>2020-05-31T13:03:18Z</time>
      </trkpt>
      <trkpt lat="46.31491" lon="-0.60447">
        <ele>4.8</ele>
        <time>2020-05-31T13:03:19Z</time>
      </trkpt>
      <trkpt lat="46.31491" lon="-0.60447">
        <ele>4.8</ele>
        <time>2020-05-31T13:03:20Z</time>
      </trkpt>
      <trkpt lat="46.3149" lon="-0.60447">
        <ele>4.8</ele>
        <time>2020-05-31T13:03:21Z</time>
      </trkpt>
      <trkpt lat="46.3149" lon="-0.60448">
        <ele>4.8</ele>
        <time>2020-05-31T13:03:22Z</time>
      </trkpt>
      <trkpt lat="46.3149" lon="-0.60448">
        <ele>4.8</ele>
        <time>2020-05-31T13:03:23Z</time>
      </trkpt>
      <trkpt lat="46.31489" lon="-0.60449">
        <ele>4.8</ele>
        <time>2020-05-31T13:03:24Z</time>
      </trkpt>
      <trkpt lat="46.31489" lon="-0.6045">
        <ele>4.8</ele>
        <time>2020-05-31T13:03:25Z</time>
      </trkpt>
      <trkpt lat="46.3149" lon="-0.60448">
        <ele>4.8</ele>
        <time>2020-05-31T13:03:26Z</time>
      </trkpt>
      <trkpt lat="46.3149" lon="-0.60448">
        <ele>4.8</ele>
        <time>2020-05-31T13:03:27Z</time>
      </trkpt>
      <trkpt lat="46.3149" lon="-0.60447">
        <ele>4.8</ele>
        <time>2020-05-31T13:03:28Z</time>
      </trkpt>
      <trkpt lat="46.3149" lon="-0.60447">
        <ele>4.8</ele>
        <time>2020-05-31T13:03:29Z</time>
      </trkpt>
      <trkpt lat="46.31491" lon="-0.60446">
        <ele>4.8</ele>
        <time>2020-05-31T13:03:30Z</time>
      </trkpt>
      <trkpt lat="46.31491" lon="-0.60446">
        <ele>4.8</ele>
        <time>2020-05-31T13:03:31Z</time>
      </trkpt>
      <trkpt lat="46.31492" lon="-0.60447">
        <ele>4.8</ele>
        <time>2020-05-31T13:03:32Z</time>
      </trkpt>
      <trkpt lat="46.31492" lon="-0.60446">
        <ele>4.8</ele>
        <time>2020-05-31T13:03:33Z</time>
      </trkpt>
      <trkpt lat="46.31492" lon="-0.60446">
        <ele>4.8</ele>
        <time>2020-05-31T13:03:34Z</time>
      </trkpt>
      <trkpt lat="46.31492" lon="-0.60446">
        <ele>4.8</ele>
        <time>2020-05-31T13:03:35Z</time>
      </trkpt>
      <trkpt lat="46.31492" lon="-0.60446">
        <ele>4.8</ele>
        <time>2020-05-31T13:03:36Z</time>
      </trkpt>
      <trkpt lat="46.31492" lon="-0.60445">
        <ele>4.8</ele>
        <time>2020-05-31T13:03:37Z</time>
      </trkpt>
      <trkpt lat="46.31492" lon="-0.60445">
        <ele>4.8</ele>
        <time>2020-05-31T13:03:38Z</time>
      </trkpt>
      <trkpt lat="46.31492" lon="-0.60446">
        <ele>4.8</ele>
        <time>2020-05-31T13:03:39Z</time>
      </trkpt>
      <trkpt lat="46.31492" lon="-0.60446">
        <ele>4.8</ele>
        <time>2020-05-31T13:03:40Z</time>
      </trkpt>
      <trkpt lat="46.31492" lon="-0.60446">
        <ele>4.8</ele>
        <time>2020-05-31T13:03:41Z</time>
      </trkpt>
      <trkpt lat="46.31492" lon="-0.60446">
        <ele>4.8</ele>
        <time>2020-05-31T13:03:42Z</time>
      </trkpt>
      <trkpt lat="46.31492" lon="-0.60446">
        <ele>4.8</ele>
        <time>2020-05-31T13:03:43Z</time>
      </trkpt>
      <trkpt lat="46.31492" lon="-0.60446">
        <ele>4.8</ele>
        <time>2020-05-31T13:03:44Z</time>
      </trkpt>
      <trkpt lat="46.31492" lon="-0.60447">
        <ele>4.8</ele>
        <time>2020-05-31T13:03:45Z</time>
      </trkpt>
      <trkpt lat="46.31492" lon="-0.60447">
        <ele>4.8</ele>
        <time>2020-05-31T13:03:46Z</time>
      </trkpt>
      <trkpt lat="46.31492" lon="-0.60446">
        <ele>4.8</ele>
        <time>2020-05-31T13:03:47Z</time>
      </trkpt>
      <trkpt lat="46.31492" lon="-0.60446">
        <ele>4.8</ele>
        <time>2020-05-31T13:03:48Z</time>
      </trkpt>
      <trkpt lat="46.31491" lon="-0.60446">
        <ele>4.8</ele>
        <time>2020-05-31T13:03:49Z</time>
      </trkpt>
      <trkpt lat="46.31491" lon="-0.60447">
        <ele>4.8</ele>
        <time>2020-05-31T13:03:50Z</time>
      </trkpt>
      <trkpt lat="46.3149" lon="-0.60447">
        <ele>4.8</ele>
        <time>2020-05-31T13:03:51Z</time>
      </trkpt>
      <trkpt lat="46.3149" lon="-0.60447">
        <ele>4.8</ele>
        <time>2020-05-31T13:03:52Z</time>
      </trkpt>
      <trkpt lat="46.31491" lon="-0.60448">
        <ele>4.8</ele>
        <time>2020-05-31T13:03:53Z</time>
      </trkpt>
      <trkpt lat="46.31491" lon="-0.60449">
        <ele>4.8</ele>
        <time>2020-05-31T13:03:54Z</time>
      </trkpt>
      <trkpt lat="46.31491" lon="-0.60449">
        <ele>4.8</ele>
        <time>2020-05-31T13:03:55Z</time>
      </trkpt>
      <trkpt lat="46.31492" lon="-0.60451">
        <ele>4.8</ele>
        <time>2020-05-31T13:03:56Z</time>
      </trkpt>
      <trkpt lat="46.31492" lon="-0.60452">
        <ele>4.8</ele>
        <time>2020-05-31T13:03:57Z</time>
      </trkpt>
      <trkpt lat="46.31491" lon="-0.60454">
        <ele>4.8</ele>
        <time>2020-05-31T13:03:58Z</time>
      </trkpt>
      <trkpt lat="46.31491" lon="-0.60454">
        <ele>4.8</ele>
        <time>2020-05-31T13:03:59Z</time>
      </trkpt>
      <trkpt lat="46.3149" lon="-0.60455">
        <ele>4.8</ele>
        <time>2020-05-31T13:04:00Z</time>
      </trkpt>
      <trkpt lat="46.3149" lon="-0.60455">
        <ele>4.8</ele>
        <time>2020-05-31T13:04:01Z</time>
      </trkpt>
      <trkpt lat="46.31489" lon="-0.60456">
        <ele>4.8</ele>
        <time>2020-05-31T13:04:02Z</time>
      </trkpt>
      <trkpt lat="46.31489" lon="-0.60457">
        <ele>4.8</ele>
        <time>2020-05-31T13:04:03Z</time>
      </trkpt>
      <trkpt lat="46.31489" lon="-0.60457">
        <ele>4.8</ele>
        <time>2020-05-31T13:04:04Z</time>
      </trkpt>
      <trkpt lat="46.31489" lon="-0.60457">
        <ele>4.8</ele>
        <time>2020-05-31T13:04:05Z</time>
      </trkpt>
      <trkpt lat="46.31489" lon="-0.60457">
        <ele>4.8</ele>
        <time>2020-05-31T13:04:06Z</time>
      </trkpt>
      <trkpt lat="46.31489" lon="-0.60457">
        <ele>4.8</ele>
        <time>2020-05-31T13:04:07Z</time>
      </trkpt>
      <trkpt lat="46.31489" lon="-0.60458">
        <ele>4.8</ele>
        <time>2020-05-31T13:04:08Z</time>
      </trkpt>
      <trkpt lat="46.31489" lon="-0.60458">
        <ele>4.8</ele>
        <time>2020-05-31T13:04:09Z</time>
      </trkpt>
      <trkpt lat="46.31489" lon="-0.60458">
        <ele>4.8</ele>
        <time>2020-05-31T13:04:10Z</time>
      </trkpt>
      <trkpt lat="46.31488" lon="-0.60458">
        <ele>4.8</ele>
        <time>2020-05-31T13:04:11Z</time>
      </trkpt>
      <trkpt lat="46.31488" lon="-0.60459">
        <ele>4.8</ele>
        <time>2020-05-31T13:04:12Z</time>
      </trkpt>
      <trkpt lat="46.31488" lon="-0.6046">
        <ele>4.8</ele>
        <time>2020-05-31T13:04:13Z</time>
      </trkpt>
      <trkpt lat="46.31488" lon="-0.60461">
        <ele>4.8</ele>
        <time>2020-05-31T13:04:14Z</time>
      </trkpt>
      <trkpt lat="46.31488" lon="-0.60461">
        <ele>4.8</ele>
        <time>2020-05-31T13:04:15Z</time>
      </trkpt>
      <trkpt lat="46.31488" lon="-0.60461">
        <ele>4.8</ele>
        <time>2020-05-31T13:04:16Z</time>
      </trkpt>
      <trkpt lat="46.31488" lon="-0.60462">
        <ele>4.8</ele>
        <time>2020-05-31T13:04:17Z</time>
      </trkpt>
      <trkpt lat="46.31489" lon="-0.60462">
        <ele>4.8</ele>
        <time>2020-05-31T13:04:18Z</time>
      </trkpt>
      <trkpt lat="46.31489" lon="-0.60463">
        <ele>4.8</ele>
        <time>2020-05-31T13:04:19Z</time>
      </trkpt>
      <trkpt lat="46.31488" lon="-0.60463">
        <ele>4.8</ele>
        <time>2020-05-31T13:04:20Z</time>
      </trkpt>
      <trkpt lat="46.31488" lon="-0.60463">
        <ele>4.8</ele>
        <time>2020-05-31T13:04:21Z</time>
      </trkpt>
      <trkpt lat="46.31488" lon="-0.60463">
        <ele>4.8</ele>
        <time>2020-05-31T13:04:22Z</time>
      </trkpt>
      <trkpt lat="46.31488" lon="-0.60463">
        <ele>4.8</ele>
        <time>2020-05-31T13:04:23Z</time>
      </trkpt>
      <trkpt lat="46.31488" lon="-0.60463">
        <ele>4.8</ele>
        <time>2020-05-31T13:04:24Z</time>
      </trkpt>
      <trkpt lat="46.31488" lon="-0.60463">
        <ele>4.8</ele>
        <time>2020-05-31T13:04:25Z</time>
      </trkpt>
      <trkpt lat="46.31488" lon="-0.60463">
        <ele>4.8</ele>
        <time>2020-05-31T13:04:26Z</time>
      </trkpt>
      <trkpt lat="46.31488" lon="-0.60463">
        <ele>4.8</ele>
        <time>2020-05-31T13:04:27Z</time>
      </trkpt>
      <trkpt lat="46.31488" lon="-0.60463">
        <ele>4.8</ele>
        <time>2020-05-31T13:04:28Z</time>
      </trkpt>
      <trkpt lat="46.31488" lon="-0.60463">
        <ele>4.8</ele>
        <time>2020-05-31T13:04:29Z</time>
      </trkpt>
      <trkpt lat="46.31488" lon="-0.60463">
        <ele>4.8</ele>
        <time>2020-05-31T13:04:30Z</time>
      </trkpt>
      <trkpt lat="46.31488" lon="-0.60463">
        <ele>4.8</ele>
        <time>2020-05-31T13:04:31Z</time>
      </trkpt>
      <trkpt lat="46.31488" lon="-0.60463">
        <ele>4.8</ele>
        <time>2020-05-31T13:04:32Z</time>
      </trkpt>
      <trkpt lat="46.31489" lon="-0.60463">
        <ele>4.8</ele>
        <time>2020-05-31T13:04:33Z</time>
      </trkpt>
      <trkpt lat="46.31489" lon="-0.60463">
        <ele>4.8</ele>
        <time>2020-05-31T13:04:34Z</time>
      </trkpt>
      <trkpt lat="46.31489" lon="-0.60464">
        <ele>4.8</ele>
        <time>2020-05-31T13:04:35Z</time>
      </trkpt>
      <trkpt lat="46.31489" lon="-0.60464">
        <ele>4.8</ele>
        <time>2020-05-31T13:04:36Z</time>
      </trkpt>
      <trkpt lat="46.31489" lon="-0.60464">
        <ele>4.8</ele>
        <time>2020-05-31T13:04:37Z</time>
      </trkpt>
      <trkpt lat="46.31489" lon="-0.60464">
        <ele>4.8</ele>
        <time>2020-05-31T13:04:38Z</time>
      </trkpt>
      <trkpt lat="46.31489" lon="-0.60464">
        <ele>4.8</ele>
        <time>2020-05-31T13:04:39Z</time>
      </trkpt>
      <trkpt lat="46.3149" lon="-0.60464">
        <ele>4.8</ele>
        <time>2020-05-31T13:04:40Z</time>
      </trkpt>
      <trkpt lat="46.3149" lon="-0.60463">
        <ele>4.8</ele>
        <time>2020-05-31T13:04:41Z</time>
      </trkpt>
      <trkpt lat="46.31491" lon="-0.60463">
        <ele>4.8</ele>
        <time>2020-05-31T13:04:42Z</time>
      </trkpt>
      <trkpt lat="46.31491" lon="-0.60462">
        <ele>4.8</ele>
        <time>2020-05-31T13:04:43Z</time>
      </trkpt>
      <trkpt lat="46.31491" lon="-0.60462">
        <ele>4.8</ele>
        <time>2020-05-31T13:04:44Z</time>
      </trkpt>
      <trkpt lat="46.31492" lon="-0.60461">
        <ele>4.8</ele>
        <time>2020-05-31T13:04:45Z</time>
      </trkpt>
      <trkpt lat="46.31492" lon="-0.6046">
        <ele>4.8</ele>
        <time>2020-05-31T13:04:46Z</time>
      </trkpt>
      <trkpt lat="46.31493" lon="-0.6046">
        <ele>4.8</ele>
        <time>2020-05-31T13:04:47Z</time>
      </trkpt>
      <trkpt lat="46.31493" lon="-0.60459">
        <ele>4.8</ele>
        <time>2020-05-31T13:04:48Z</time>
      </trkpt>
      <trkpt lat="46.31493" lon="-0.60458">
        <ele>4.8</ele>
        <time>2020-05-31T13:04:49Z</time>
      </trkpt>
      <trkpt lat="46.31493" lon="-0.60457">
        <ele>4.8</ele>
        <time>2020-05-31T13:04:50Z</time>
      </trkpt>
      <trkpt lat="46.31494" lon="-0.60457">
        <ele>4.8</ele>
        <time>2020-05-31T13:04:51Z</time>
      </trkpt>
      <trkpt lat="46.31494" lon="-0.60457">
        <ele>4.8</ele>
        <time>2020-05-31T13:04:52Z</time>
      </trkpt>
      <trkpt lat="46.31494" lon="-0.60456">
        <ele>4.8</ele>
        <time>2020-05-31T13:04:53Z</time>
      </trkpt>
      <trkpt lat="46.31495" lon="-0.60456">
        <ele>4.8</ele>
        <time>2020-05-31T13:04:54Z</time>
      </trkpt>
      <trkpt lat="46.31495" lon="-0.60456">
        <ele>4.8</ele>
        <time>2020-05-31T13:04:55Z</time>
      </trkpt>
      <trkpt lat="46.31495" lon="-0.60456">
        <ele>4.8</ele>
        <time>2020-05-31T13:04:56Z</time>
      </trkpt>
      <trkpt lat="46.31495" lon="-0.60456">
        <ele>4.8</ele>
        <time>2020-05-31T13:04:57Z</time>
      </trkpt>
      <trkpt lat="46.31495" lon="-0.60456">
        <ele>4.8</ele>
        <time>2020-05-31T13:04:58Z</time>
      </trkpt>
      <trkpt lat="46.31495" lon="-0.60456">
        <ele>4.8</ele>
        <time>2020-05-31T13:04:59Z</time>
      </trkpt>
      <trkpt lat="46.31495" lon="-0.60456">
        <ele>4.8</ele>
        <time>2020-05-31T13:05:00Z</time>
      </trkpt>
      <trkpt lat="46.31495" lon="-0.60456">
        <ele>4.8</ele>
        <time>2020-05-31T13:05:01Z</time>
      </trkpt>
      <trkpt lat="46.31495" lon="-0.60455">
        <ele>4.8</ele>
        <time>2020-05-31T13:05:02Z</time>
      </trkpt>
      <trkpt lat="46.31495" lon="-0.60456">
        <ele>4.8</ele>
        <time>2020-05-31T13:05:03Z</time>
      </trkpt>
      <trkpt lat="46.31495" lon="-0.60456">
        <ele>4.8</ele>
        <time>2020-05-31T13:05:04Z</time>
      </trkpt>
      <trkpt lat="46.31495" lon="-0.60456">
        <ele>4.8</ele>
        <time>2020-05-31T13:05:05Z</time>
      </trkpt>
      <trkpt lat="46.31495" lon="-0.60456">
        <ele>4.8</ele>
        <time>2020-05-31T13:05:06Z</time>
      </trkpt>
      <trkpt lat="46.31496" lon="-0.60458">
        <ele>4.8</ele>
        <time>2020-05-31T13:05:07Z</time>
      </trkpt>
      <trkpt lat="46.31496" lon="-0.60459">
        <ele>4.8</ele>
        <time>2020-05-31T13:05:08Z</time>
      </trkpt>
      <trkpt lat="46.31497" lon="-0.60459">
        <ele>4.8</ele>
        <time>2020-05-31T13:05:09Z</time>
      </trkpt>
      <trkpt lat="46.31497" lon="-0.6046">
        <ele>4.8</ele>
        <time>2020-05-31T13:05:10Z</time>
      </trkpt>
      <trkpt lat="46.31497" lon="-0.6046">
        <ele>4.8</ele>
        <time>2020-05-31T13:05:11Z</time>
      </trkpt>
      <trkpt lat="46.31498" lon="-0.6046">
        <ele>4.8</ele>
        <time>2020-05-31T13:05:12Z</time>
      </trkpt>
      <trkpt lat="46.31498" lon="-0.6046">
        <ele>4.8</ele>
        <time>2020-05-31T13:05:13Z</time>
      </trkpt>
      <trkpt lat="46.31498" lon="-0.60461">
        <ele>4.8</ele>
        <time>2020-05-31T13:05:14Z</time>
      </trkpt>
      <trkpt lat="46.31498" lon="-0.60461">
        <ele>4.8</ele>
        <time>2020-05-31T13:05:15Z</time>
      </trkpt>
      <trkpt lat="46.31498" lon="-0.60461">
        <ele>4.8</ele>
        <time>2020-05-31T13:05:16Z</time>
      </trkpt>
      <trkpt lat="46.31498" lon="-0.60461">
        <ele>4.8</ele>
        <time>2020-05-31T13:05:17Z</time>
      </trkpt>
      <trkpt lat="46.31498" lon="-0.60462">
        <ele>4.8</ele>
        <time>2020-05-31T13:05:18Z</time>
      </trkpt>
      <trkpt lat="46.31498" lon="-0.60462">
        <ele>4.8</ele>
        <time>2020-05-31T13:05:19Z</time>
      </trkpt>
      <trkpt lat="46.31498" lon="-0.60462">
        <ele>4.8</ele>
        <time>2020-05-31T13:05:20Z</time>
      </trkpt>
      <trkpt lat="46.31498" lon="-0.60462">
        <ele>4.8</ele>
        <time>2020-05-31T13:05:21Z</time>
      </trkpt>
      <trkpt lat="46.31498" lon="-0.60463">
        <ele>4.8</ele>
        <time>2020-05-31T13:05:22Z</time>
      </trkpt>
      <trkpt lat="46.31499" lon="-0.60463">
        <ele>4.8</ele>
        <time>2020-05-31T13:05:23Z</time>
      </trkpt>
      <trkpt lat="46.31499" lon="-0.60463">
        <ele>4.8</ele>
        <time>2020-05-31T13:05:24Z</time>
      </trkpt>
      <trkpt lat="46.31499" lon="-0.60463">
        <ele>4.8</ele>
        <time>2020-05-31T13:05:25Z</time>
      </trkpt>
      <trkpt lat="46.31499" lon="-0.60463">
        <ele>4.8</ele>
        <time>2020-05-31T13:05:26Z</time>
      </trkpt>
      <trkpt lat="46.31499" lon="-0.60464">
        <ele>4.8</ele>
        <time>2020-05-31T13:05:27Z</time>
      </trkpt>
      <trkpt lat="46.31499" lon="-0.60464">
        <ele>4.8</ele>
        <time>2020-05-31T13:05:28Z</time>
      </trkpt>
      <trkpt lat="46.31499" lon="-0.60464">
        <ele>4.8</ele>
        <time>2020-05-31T13:05:29Z</time>
      </trkpt>
      <trkpt lat="46.31499" lon="-0.60464">
        <ele>4.8</ele>
        <time>2020-05-31T13:05:30Z</time>
      </trkpt>
      <trkpt lat="46.31499" lon="-0.60465">
        <ele>4.8</ele>
        <time>2020-05-31T13:05:31Z</time>
      </trkpt>
      <trkpt lat="46.31499" lon="-0.60465">
        <ele>4.8</ele>
        <time>2020-05-31T13:05:32Z</time>
      </trkpt>
      <trkpt lat="46.315" lon="-0.60465">
        <ele>4.8</ele>
        <time>2020-05-31T13:05:33Z</time>
      </trkpt>
      <trkpt lat="46.315" lon="-0.60465">
        <ele>4.8</ele>
        <time>2020-05-31T13:05:34Z</time>
      </trkpt>
      <trkpt lat="46.315" lon="-0.60466">
        <ele>4.8</ele>
        <time>2020-05-31T13:05:35Z</time>
      </trkpt>
      <trkpt lat="46.315" lon="-0.60466">
        <ele>4.8</ele>
        <time>2020-05-31T13:05:36Z</time>
      </trkpt>
      <trkpt lat="46.315" lon="-0.60466">
        <ele>4.8</ele>
        <time>2020-05-31T13:05:37Z</time>
      </trkpt>
      <trkpt lat="46.315" lon="-0.60466">
        <ele>4.8</ele>
        <time>2020-05-31T13:05:38Z</time>
      </trkpt>
      <trkpt lat="46.315" lon="-0.60467">
        <ele>4.8</ele>
        <time>2020-05-31T13:05:39Z</time>
      </trkpt>
      <trkpt lat="46.315" lon="-0.60467">
        <ele>4.8</ele>
        <time>2020-05-31T13:05:40Z</time>
      </trkpt>
      <trkpt lat="46.315" lon="-0.60467">
        <ele>4.8</ele>
        <time>2020-05-31T13:05:41Z</time>
      </trkpt>
      <trkpt lat="46.315" lon="-0.60467">
        <ele>4.8</ele>
        <time>2020-05-31T13:05:42Z</time>
      </trkpt>
      <trkpt lat="46.315" lon="-0.60467">
        <ele>4.8</ele>
        <time>2020-05-31T13:05:43Z</time>
      </trkpt>
      <trkpt lat="46.31499" lon="-0.60466">
        <ele>4.8</ele>
        <time>2020-05-31T13:05:44Z</time>
      </trkpt>
      <trkpt lat="46.31498" lon="-0.60465">
        <ele>4.8</ele>
        <time>2020-05-31T13:05:45Z</time>
      </trkpt>
      <trkpt lat="46.31498" lon="-0.60466">
        <ele>4.8</ele>
        <time>2020-05-31T13:05:46Z</time>
      </trkpt>
      <trkpt lat="46.31499" lon="-0.60468">
        <ele>4.8</ele>
        <time>2020-05-31T13:05:47Z</time>
      </trkpt>
      <trkpt lat="46.31499" lon="-0.60468">
        <ele>4.8</ele>
        <time>2020-05-31T13:05:48Z</time>
      </trkpt>
      <trkpt lat="46.31498" lon="-0.60468">
        <ele>4.8</ele>
        <time>2020-05-31T13:05:49Z</time>
      </trkpt>
      <trkpt lat="46.31497" lon="-0.60468">
        <ele>4.8</ele>
        <time>2020-05-31T13:05:50Z</time>
      </trkpt>
      <trkpt lat="46.31496" lon="-0.60467">
        <ele>4.8</ele>
        <time>2020-05-31T13:05:51Z</time>
      </trkpt>
      <trkpt lat="46.31496" lon="-0.60466">
        <ele>4.8</ele>
        <time>2020-05-31T13:05:52Z</time>
      </trkpt>
      <trkpt lat="46.31496" lon="-0.60466">
        <ele>4.8</ele>
        <time>2020-05-31T13:05:53Z</time>
      </trkpt>
      <trkpt lat="46.31496" lon="-0.60466">
        <ele>4.8</ele>
        <time>2020-05-31T13:05:54Z</time>
      </trkpt>
      <trkpt lat="46.31496" lon="-0.60466">
        <ele>4.8</ele>
        <time>2020-05-31T13:05:55Z</time>
      </trkpt>
      <trkpt lat="46.31495" lon="-0.60466">
        <ele>4.8</ele>
        <time>2020-05-31T13:05:56Z</time>
      </trkpt>
      <trkpt lat="46.31496" lon="-0.60466">
        <ele>4.8</ele>
        <time>2020-05-31T13:05:57Z</time>
      </trkpt>
      <trkpt lat="46.31496" lon="-0.60466">
        <ele>4.8</ele>
        <time>2020-05-31T13:05:58Z</time>
      </trkpt>
      <trkpt lat="46.31496" lon="-0.60466">
        <ele>4.8</ele>
        <time>2020-05-31T13:05:59Z</time>
      </trkpt>
      <trkpt lat="46.31496" lon="-0.60467">
        <ele>4.8</ele>
        <time>2020-05-31T13:06:00Z</time>
      </trkpt>
      <trkpt lat="46.31496" lon="-0.60467">
        <ele>4.8</ele>
        <time>2020-05-31T13:06:01Z</time>
      </trkpt>
      <trkpt lat="46.31496" lon="-0.60467">
        <ele>4.8</ele>
        <time>2020-05-31T13:06:02Z</time>
      </trkpt>
      <trkpt lat="46.31496" lon="-0.60466">
        <ele>4.8</ele>
        <time>2020-05-31T13:06:03Z</time>
      </trkpt>
      <trkpt lat="46.31495" lon="-0.60465">
        <ele>4.8</ele>
        <time>2020-05-31T13:06:04Z</time>
      </trkpt>
      <trkpt lat="46.31495" lon="-0.60464">
        <ele>4.8</ele>
        <time>2020-05-31T13:06:05Z</time>
      </trkpt>
      <trkpt lat="46.31494" lon="-0.60464">
        <ele>4.8</ele>
        <time>2020-05-31T13:06:06Z</time>
      </trkpt>
      <trkpt lat="46.31493" lon="-0.60463">
        <ele>4.8</ele>
        <time>2020-05-31T13:06:07Z</time>
      </trkpt>
      <trkpt lat="46.31493" lon="-0.60464">
        <ele>4.8</ele>
        <time>2020-05-31T13:06:08Z</time>
      </trkpt>
      <trkpt lat="46.31492" lon="-0.60463">
        <ele>4.8</ele>
        <time>2020-05-31T13:06:09Z</time>
      </trkpt>
      <trkpt lat="46.31492" lon="-0.60462">
        <ele>4.8</ele>
        <time>2020-05-31T13:06:10Z</time>
      </trkpt>
      <trkpt lat="46.31491" lon="-0.60461">
        <ele>4.8</ele>
        <time>2020-05-31T13:06:11Z</time>
      </trkpt>
      <trkpt lat="46.31491" lon="-0.6046">
        <ele>4.8</ele>
        <time>2020-05-31T13:06:12Z</time>
      </trkpt>
      <trkpt lat="46.3149" lon="-0.60459">
        <ele>4.8</ele>
        <time>2020-05-31T13:06:13Z</time>
      </trkpt>
      <trkpt lat="46.3149" lon="-0.6046">
        <ele>4.8</ele>
        <time>2020-05-31T13:06:14Z</time>
      </trkpt>
      <trkpt lat="46.3149" lon="-0.6046">
        <ele>4.8</ele>
        <time>2020-05-31T13:06:15Z</time>
      </trkpt>
      <trkpt lat="46.31491" lon="-0.6046">
        <ele>4.8</ele>
        <time>2020-05-31T13:06:16Z</time>
      </trkpt>
      <trkpt lat="46.31491" lon="-0.60459">
        <ele>4.8</ele>
        <time>2020-05-31T13:06:17Z</time>
      </trkpt>
      <trkpt lat="46.31492" lon="-0.60459">
        <ele>4.8</ele>
        <time>2020-05-31T13:06:18Z</time>
      </trkpt>
      <trkpt lat="46.31492" lon="-0.60459">
        <ele>4.8</ele>
        <time>2020-05-31T13:06:19Z</time>
      </trkpt>
      <trkpt lat="46.31492" lon="-0.60459">
        <ele>4.8</ele>
        <time>2020-05-31T13:06:20Z</time>
      </trkpt>
      <trkpt lat="46.31492" lon="-0.60459">
        <ele>4.8</ele>
        <time>2020-05-31T13:06:21Z</time>
      </trkpt>
      <trkpt lat="46.31492" lon="-0.60459">
        <ele>4.8</ele>
        <time>2020-05-31T13:06:22Z</time>
      </trkpt>
      <trkpt lat="46.31492" lon="-0.60458">
        <ele>4.8</ele>
        <time>2020-05-31T13:06:23Z</time>
      </trkpt>
      <trkpt lat="46.31492" lon="-0.60458">
        <ele>4.8</ele>
        <time>2020-05-31T13:06:24Z</time>
      </trkpt>
      <trkpt lat="46.31492" lon="-0.60458">
        <ele>4.8</ele>
        <time>2020-05-31T13:06:25Z</time>
      </trkpt>
      <trkpt lat="46.31492" lon="-0.60458">
        <ele>4.8</ele>
        <time>2020-05-31T13:06:26Z</time>
      </trkpt>
      <trkpt lat="46.31492" lon="-0.60458">
        <ele>4.8</ele>
        <time>2020-05-31T13:06:27Z</time>
      </trkpt>
      <trkpt lat="46.31492" lon="-0.60458">
        <ele>4.8</ele>
        <time>2020-05-31T13:06:28Z</time>
      </trkpt>
      <trkpt lat="46.31492" lon="-0.60459">
        <ele>4.8</ele>
        <time>2020-05-31T13:06:29Z</time>
      </trkpt>
      <trkpt lat="46.31492" lon="-0.60459">
        <ele>4.8</ele>
        <time>2020-05-31T13:06:30Z</time>
      </trkpt>
      <trkpt lat="46.31492" lon="-0.60459">
        <ele>4.8</ele>
        <time>2020-05-31T13:06:31Z</time>
      </trkpt>
      <trkpt lat="46.31492" lon="-0.60459">
        <ele>4.8</ele>
        <time>2020-05-31T13:06:32Z</time>
      </trkpt>
      <trkpt lat="46.31493" lon="-0.60459">
        <ele>4.8</ele>
        <time>2020-05-31T13:06:33Z</time>
      </trkpt>
      <trkpt lat="46.31493" lon="-0.60459">
        <ele>4.8</ele>
        <time>2020-05-31T13:06:34Z</time>
      </trkpt>
      <trkpt lat="46.31493" lon="-0.60459">
        <ele>4.8</ele>
        <time>2020-05-31T13:06:35Z</time>
      </trkpt>
      <trkpt lat="46.31493" lon="-0.60458">
        <ele>4.8</ele>
        <time>2020-05-31T13:06:36Z</time>
      </trkpt>
      <trkpt lat="46.31493" lon="-0.60458">
        <ele>4.8</ele>
        <time>2020-05-31T13:06:37Z</time>
      </trkpt>
      <trkpt lat="46.31493" lon="-0.60458">
        <ele>4.8</ele>
        <time>2020-05-31T13:06:38Z</time>
      </trkpt>
      <trkpt lat="46.31493" lon="-0.60458">
        <ele>4.8</ele>
        <time>2020-05-31T13:06:39Z</time>
      </trkpt>
      <trkpt lat="46.31493" lon="-0.60458">
        <ele>4.8</ele>
        <time>2020-05-31T13:06:40Z</time>
      </trkpt>
      <trkpt lat="46.31493" lon="-0.60458">
        <ele>4.8</ele>
        <time>2020-05-31T13:06:41Z</time>
      </trkpt>
      <trkpt lat="46.31493" lon="-0.60457">
        <ele>4.8</ele>
        <time>2020-05-31T13:06:42Z</time>
      </trkpt>
      <trkpt lat="46.31493" lon="-0.60457">
        <ele>4.8</ele>
        <time>2020-05-31T13:06:43Z</time>
      </trkpt>
      <trkpt lat="46.31493" lon="-0.60457">
        <ele>4.8</ele>
        <time>2020-05-31T13:06:44Z</time>
      </trkpt>
      <trkpt lat="46.31493" lon="-0.60457">
        <ele>4.8</ele>
        <time>2020-05-31T13:06:45Z</time>
      </trkpt>
      <trkpt lat="46.31493" lon="-0.60456">
        <ele>4.8</ele>
        <time>2020-05-31T13:06:46Z</time>
      </trkpt>
      <trkpt lat="46.31493" lon="-0.60455">
        <ele>4.8</ele>
        <time>2020-05-31T13:06:47Z</time>
      </trkpt>
      <trkpt lat="46.31493" lon="-0.60454">
        <ele>4.8</ele>
        <time>2020-05-31T13:06:48Z</time>
      </trkpt>
      <trkpt lat="46.31494" lon="-0.60453">
        <ele>4.8</ele>
        <time>2020-05-31T13:06:49Z</time>
      </trkpt>
      <trkpt lat="46.31494" lon="-0.60453">
        <ele>4.8</ele>
        <time>2020-05-31T13:06:50Z</time>
      </trkpt>
      <trkpt lat="46.31494" lon="-0.60452">
        <ele>4.8</ele>
        <time>2020-05-31T13:06:51Z</time>
      </trkpt>
      <trkpt lat="46.31494" lon="-0.60452">
        <ele>4.8</ele>
        <time>2020-05-31T13:06:52Z</time>
      </trkpt>
      <trkpt lat="46.31494" lon="-0.60452">
        <ele>4.8</ele>
        <time>2020-05-31T13:06:53Z</time>
      </trkpt>
      <trkpt lat="46.31494" lon="-0.60452">
        <ele>4.8</ele>
        <time>2020-05-31T13:06:54Z</time>
      </trkpt>
      <trkpt lat="46.31493" lon="-0.60452">
        <ele>4.8</ele>
        <time>2020-05-31T13:06:55Z</time>
      </trkpt>
      <trkpt lat="46.31493" lon="-0.60451">
        <ele>4.8</ele>
        <time>2020-05-31T13:06:56Z</time>
      </trkpt>
      <trkpt lat="46.31493" lon="-0.60451">
        <ele>4.8</ele>
        <time>2020-05-31T13:06:57Z</time>
      </trkpt>
      <trkpt lat="46.31492" lon="-0.6045">
        <ele>4.8</ele>
        <time>2020-05-31T13:06:58Z</time>
      </trkpt>
      <trkpt lat="46.31492" lon="-0.60449">
        <ele>4.8</ele>
        <time>2020-05-31T13:06:59Z</time>
      </trkpt>
      <trkpt lat="46.31492" lon="-0.60449">
        <ele>4.8</ele>
        <time>2020-05-31T13:07:00Z</time>
      </trkpt>
      <trkpt lat="46.31492" lon="-0.6045">
        <ele>4.8</ele>
        <time>2020-05-31T13:07:01Z</time>
      </trkpt>
      <trkpt lat="46.31492" lon="-0.60451">
        <ele>4.8</ele>
        <time>2020-05-31T13:07:02Z</time>
      </trkpt>
      <trkpt lat="46.31492" lon="-0.60451">
        <ele>4.8</ele>
        <time>2020-05-31T13:07:03Z</time>
      </trkpt>
      <trkpt lat="46.31492" lon="-0.60451">
        <ele>4.8</ele>
        <time>2020-05-31T13:07:04Z</time>
      </trkpt>
      <trkpt lat="46.31492" lon="-0.60451">
        <ele>4.8</ele>
        <time>2020-05-31T13:07:05Z</time>
      </trkpt>
      <trkpt lat="46.31492" lon="-0.60451">
        <ele>4.8</ele>
        <time>2020-05-31T13:07:06Z</time>
      </trkpt>
      <trkpt lat="46.31492" lon="-0.60451">
        <ele>4.8</ele>
        <time>2020-05-31T13:07:07Z</time>
      </trkpt>
      <trkpt lat="46.31492" lon="-0.60451">
        <ele>4.8</ele>
        <time>2020-05-31T13:07:08Z</time>
      </trkpt>
      <trkpt lat="46.31492" lon="-0.60451">
        <ele>4.8</ele>
        <time>2020-05-31T13:07:09Z</time>
      </trkpt>
      <trkpt lat="46.31492" lon="-0.60451">
        <ele>4.8</ele>
        <time>2020-05-31T13:07:10Z</time>
      </trkpt>
      <trkpt lat="46.31492" lon="-0.60451">
        <ele>4.8</ele>
        <time>2020-05-31T13:07:11Z</time>
      </trkpt>
      <trkpt lat="46.31492" lon="-0.60451">
        <ele>4.8</ele>
        <time>2020-05-31T13:07:12Z</time>
      </trkpt>
      <trkpt lat="46.31492" lon="-0.60451">
        <ele>4.8</ele>
        <time>2020-05-31T13:07:13Z</time>
      </trkpt>
      <trkpt lat="46.31492" lon="-0.60451">
        <ele>4.8</ele>
        <time>2020-05-31T13:07:14Z</time>
      </trkpt>
      <trkpt lat="46.31492" lon="-0.60451">
        <ele>4.8</ele>
        <time>2020-05-31T13:07:15Z</time>
      </trkpt>
      <trkpt lat="46.31492" lon="-0.60451">
        <ele>4.8</ele>
        <time>2020-05-31T13:07:16Z</time>
      </trkpt>
      <trkpt lat="46.31492" lon="-0.60451">
        <ele>4.8</ele>
        <time>2020-05-31T13:07:17Z</time>
      </trkpt>
      <trkpt lat="46.31492" lon="-0.60451">
        <ele>4.8</ele>
        <time>2020-05-31T13:07:18Z</time>
      </trkpt>
      <trkpt lat="46.31492" lon="-0.60451">
        <ele>4.8</ele>
        <time>2020-05-31T13:07:19Z</time>
      </trkpt>
      <trkpt lat="46.31492" lon="-0.60451">
        <ele>4.8</ele>
        <time>2020-05-31T13:07:20Z</time>
      </trkpt>
      <trkpt lat="46.31494" lon="-0.60451">
        <ele>4.8</ele>
        <time>2020-05-31T13:07:21Z</time>
      </trkpt>
      <trkpt lat="46.31493" lon="-0.60451">
        <ele>4.8</ele>
        <time>2020-05-31T13:07:22Z</time>
      </trkpt>
      <trkpt lat="46.31493" lon="-0.60451">
        <ele>4.8</ele>
        <time>2020-05-31T13:07:23Z</time>
      </trkpt>
      <trkpt lat="46.31493" lon="-0.6045">
        <ele>4.8</ele>
        <time>2020-05-31T13:07:24Z</time>
      </trkpt>
      <trkpt lat="46.31493" lon="-0.6045">
        <ele>4.8</ele>
        <time>2020-05-31T13:07:25Z</time>
      </trkpt>
      <trkpt lat="46.31493" lon="-0.6045">
        <ele>4.8</ele>
        <time>2020-05-31T13:07:26Z</time>
      </trkpt>
      <trkpt lat="46.31493" lon="-0.6045">
        <ele>4.8</ele>
        <time>2020-05-31T13:07:27Z</time>
      </trkpt>
      <trkpt lat="46.31493" lon="-0.6045">
        <ele>4.8</ele>
        <time>2020-05-31T13:07:28Z</time>
      </trkpt>
      <trkpt lat="46.31493" lon="-0.6045">
        <ele>4.8</ele>
        <time>2020-05-31T13:07:29Z</time>
      </trkpt>
      <trkpt lat="46.31492" lon="-0.6045">
        <ele>4.8</ele>
        <time>2020-05-31T13:07:30Z</time>
      </trkpt>
      <trkpt lat="46.31492" lon="-0.6045">
        <ele>4.8</ele>
        <time>2020-05-31T13:07:31Z</time>
      </trkpt>
      <trkpt lat="46.31491" lon="-0.6045">
        <ele>4.8</ele>
        <time>2020-05-31T13:07:32Z</time>
      </trkpt>
      <trkpt lat="46.31491" lon="-0.6045">
        <ele>4.8</ele>
        <time>2020-05-31T13:07:33Z</time>
      </trkpt>
      <trkpt lat="46.31491" lon="-0.6045">
        <ele>4.8</ele>
        <time>2020-05-31T13:07:34Z</time>
      </trkpt>
      <trkpt lat="46.31491" lon="-0.6045">
        <ele>4.8</ele>
        <time>2020-05-31T13:07:35Z</time>
      </trkpt>
      <trkpt lat="46.31491" lon="-0.6045">
        <ele>4.8</ele>
        <time>2020-05-31T13:07:36Z</time>
      </trkpt>
      <trkpt lat="46.31491" lon="-0.6045">
        <ele>4.8</ele>
        <time>2020-05-31T13:07:37Z</time>
      </trkpt>
      <trkpt lat="46.31491" lon="-0.6045">
        <ele>4.8</ele>
        <time>2020-05-31T13:07:38Z</time>
      </trkpt>
      <trkpt lat="46.31491" lon="-0.6045">
        <ele>4.8</ele>
        <time>2020-05-31T13:07:39Z</time>
      </trkpt>
      <trkpt lat="46.31491" lon="-0.6045">
        <ele>4.8</ele>
        <time>2020-05-31T13:07:40Z</time>
      </trkpt>
      <trkpt lat="46.31491" lon="-0.6045">
        <ele>4.8</ele>
        <time>2020-05-31T13:07:41Z</time>
      </trkpt>
      <trkpt lat="46.31499" lon="-0.60455">
        <ele>4.8</ele>
        <time>2020-05-31T13:07:54Z</time>
      </trkpt>
      <trkpt lat="46.31496" lon="-0.60453">
        <ele>4.8</ele>
        <time>2020-05-31T13:07:55Z</time>
      </trkpt>
      <trkpt lat="46.31496" lon="-0.60453">
        <ele>4.8</ele>
        <time>2020-05-31T13:07:56Z</time>
      </trkpt>
      <trkpt lat="46.31496" lon="-0.60453">
        <ele>4.8</ele>
        <time>2020-05-31T13:07:57Z</time>
      </trkpt>
      <trkpt lat="46.31495" lon="-0.60452">
        <ele>4.8</ele>
        <time>2020-05-31T13:07:58Z</time>
      </trkpt>
      <trkpt lat="46.31494" lon="-0.60452">
        <ele>4.8</ele>
        <time>2020-05-31T13:07:59Z</time>
      </trkpt>
      <trkpt lat="46.31494" lon="-0.60452">
        <ele>4.8</ele>
        <time>2020-05-31T13:08:00Z</time>
      </trkpt>
      <trkpt lat="46.31493" lon="-0.60451">
        <ele>4.8</ele>
        <time>2020-05-31T13:08:01Z</time>
      </trkpt>
      <trkpt lat="46.31493" lon="-0.60451">
        <ele>4.8</ele>
        <time>2020-05-31T13:08:02Z</time>
      </trkpt>
      <trkpt lat="46.31492" lon="-0.60451">
        <ele>4.8</ele>
        <time>2020-05-31T13:08:03Z</time>
      </trkpt>
      <trkpt lat="46.31492" lon="-0.60451">
        <ele>4.8</ele>
        <time>2020-05-31T13:08:04Z</time>
      </trkpt>
      <trkpt lat="46.31491" lon="-0.60451">
        <ele>4.8</ele>
        <time>2020-05-31T13:08:05Z</time>
      </trkpt>
      <trkpt lat="46.31491" lon="-0.60451">
        <ele>4.8</ele>
        <time>2020-05-31T13:08:06Z</time>
      </trkpt>
      <trkpt lat="46.3149" lon="-0.6045">
        <ele>4.8</ele>
        <time>2020-05-31T13:08:07Z</time>
      </trkpt>
      <trkpt lat="46.31491" lon="-0.60451">
        <ele>4.8</ele>
        <time>2020-05-31T13:08:08Z</time>
      </trkpt>
      <trkpt lat="46.3149" lon="-0.60451">
        <ele>4.8</ele>
        <time>2020-05-31T13:08:09Z</time>
      </trkpt>
      <trkpt lat="46.31489" lon="-0.6045">
        <ele>4.8</ele>
        <time>2020-05-31T13:08:10Z</time>
      </trkpt>
      <trkpt lat="46.31488" lon="-0.60449">
        <ele>4.8</ele>
        <time>2020-05-31T13:08:11Z</time>
      </trkpt>
      <trkpt lat="46.31489" lon="-0.60448">
        <ele>4.8</ele>
        <time>2020-05-31T13:08:12Z</time>
      </trkpt>
      <trkpt lat="46.31488" lon="-0.60447">
        <ele>4.8</ele>
        <time>2020-05-31T13:08:13Z</time>
      </trkpt>
      <trkpt lat="46.31488" lon="-0.60447">
        <ele>4.8</ele>
        <time>2020-05-31T13:08:14Z</time>
      </trkpt>
      <trkpt lat="46.31489" lon="-0.60447">
        <ele>4.8</ele>
        <time>2020-05-31T13:08:15Z</time>
      </trkpt>
      <trkpt lat="46.31488" lon="-0.60449">
        <ele>4.8</ele>
        <time>2020-05-31T13:08:16Z</time>
      </trkpt>
      <trkpt lat="46.31488" lon="-0.60449">
        <ele>4.8</ele>
        <time>2020-05-31T13:08:17Z</time>
      </trkpt>
      <trkpt lat="46.31488" lon="-0.60449">
        <ele>4.8</ele>
        <time>2020-05-31T13:08:18Z</time>
      </trkpt>
      <trkpt lat="46.31489" lon="-0.60447">
        <ele>4.8</ele>
        <time>2020-05-31T13:08:19Z</time>
      </trkpt>
      <trkpt lat="46.31489" lon="-0.60448">
        <ele>4.8</ele>
        <time>2020-05-31T13:08:20Z</time>
      </trkpt>
      <trkpt lat="46.31489" lon="-0.60449">
        <ele>4.8</ele>
        <time>2020-05-31T13:08:21Z</time>
      </trkpt>
      <trkpt lat="46.31488" lon="-0.60449">
        <ele>4.8</ele>
        <time>2020-05-31T13:08:22Z</time>
      </trkpt>
      <trkpt lat="46.31488" lon="-0.6045">
        <ele>4.8</ele>
        <time>2020-05-31T13:08:23Z</time>
      </trkpt>
      <trkpt lat="46.31489" lon="-0.6045">
        <ele>4.8</ele>
        <time>2020-05-31T13:08:24Z</time>
      </trkpt>
      <trkpt lat="46.31489" lon="-0.60451">
        <ele>4.8</ele>
        <time>2020-05-31T13:08:25Z</time>
      </trkpt>
      <trkpt lat="46.3149" lon="-0.60452">
        <ele>4.8</ele>
        <time>2020-05-31T13:08:26Z</time>
      </trkpt>
      <trkpt lat="46.31491" lon="-0.60452">
        <ele>4.8</ele>
        <time>2020-05-31T13:08:27Z</time>
      </trkpt>
      <trkpt lat="46.31491" lon="-0.60453">
        <ele>4.8</ele>
        <time>2020-05-31T13:08:28Z</time>
      </trkpt>
      <trkpt lat="46.31491" lon="-0.60453">
        <ele>4.8</ele>
        <time>2020-05-31T13:08:29Z</time>
      </trkpt>
      <trkpt lat="46.31491" lon="-0.60453">
        <ele>4.8</ele>
        <time>2020-05-31T13:08:30Z</time>
      </trkpt>
      <trkpt lat="46.31492" lon="-0.60453">
        <ele>4.8</ele>
        <time>2020-05-31T13:08:31Z</time>
      </trkpt>
      <trkpt lat="46.31492" lon="-0.60452">
        <ele>4.8</ele>
        <time>2020-05-31T13:08:32Z</time>
      </trkpt>
      <trkpt lat="46.31492" lon="-0.60451">
        <ele>4.8</ele>
        <time>2020-05-31T13:08:33Z</time>
      </trkpt>
      <trkpt lat="46.3149" lon="-0.60449">
        <ele>4.8</ele>
        <time>2020-05-31T13:08:34Z</time>
      </trkpt>
      <trkpt lat="46.3149" lon="-0.6045">
        <ele>4.8</ele>
        <time>2020-05-31T13:08:35Z</time>
      </trkpt>
      <trkpt lat="46.31491" lon="-0.60451">
        <ele>4.8</ele>
        <time>2020-05-31T13:08:36Z</time>
      </trkpt>
      <trkpt lat="46.31491" lon="-0.60452">
        <ele>4.8</ele>
        <time>2020-05-31T13:08:37Z</time>
      </trkpt>
      <trkpt lat="46.31492" lon="-0.60453">
        <ele>4.8</ele>
        <time>2020-05-31T13:08:38Z</time>
      </trkpt>
      <trkpt lat="46.31492" lon="-0.60454">
        <ele>4.8</ele>
        <time>2020-05-31T13:08:39Z</time>
      </trkpt>
      <trkpt lat="46.31494" lon="-0.60458">
        <ele>4.8</ele>
        <time>2020-05-31T13:08:40Z</time>
      </trkpt>
      <trkpt lat="46.31494" lon="-0.60459">
        <ele>4.8</ele>
        <time>2020-05-31T13:08:41Z</time>
      </trkpt>
      <trkpt lat="46.31494" lon="-0.6046">
        <ele>4.8</ele>
        <time>2020-05-31T13:08:42Z</time>
      </trkpt>
      <trkpt lat="46.31494" lon="-0.6046">
        <ele>4.8</ele>
        <time>2020-05-31T13:08:43Z</time>
      </trkpt>
      <trkpt lat="46.31495" lon="-0.60461">
        <ele>4.8</ele>
        <time>2020-05-31T13:08:44Z</time>
      </trkpt>
      <trkpt lat="46.31495" lon="-0.60461">
        <ele>4.8</ele>
        <time>2020-05-31T13:08:45Z</time>
      </trkpt>
      <trkpt lat="46.31495" lon="-0.60461">
        <ele>4.8</ele>
        <time>2020-05-31T13:08:46Z</time>
      </trkpt>
      <trkpt lat="46.31495" lon="-0.60462">
        <ele>4.8</ele>
        <time>2020-05-31T13:08:47Z</time>
      </trkpt>
      <trkpt lat="46.31496" lon="-0.60462">
        <ele>4.8</ele>
        <time>2020-05-31T13:08:48Z</time>
      </trkpt>
      <trkpt lat="46.31496" lon="-0.60463">
        <ele>4.8</ele>
        <time>2020-05-31T13:08:49Z</time>
      </trkpt>
      <trkpt lat="46.31498" lon="-0.60464">
        <ele>4.8</ele>
        <time>2020-05-31T13:08:50Z</time>
      </trkpt>
      <trkpt lat="46.31498" lon="-0.60464">
        <ele>4.8</ele>
        <time>2020-05-31T13:08:51Z</time>
      </trkpt>
      <trkpt lat="46.31499" lon="-0.60464">
        <ele>4.8</ele>
        <time>2020-05-31T13:08:52Z</time>
      </trkpt>
      <trkpt lat="46.315" lon="-0.60465">
        <ele>4.8</ele>
        <time>2020-05-31T13:08:53Z</time>
      </trkpt>
      <trkpt lat="46.315" lon="-0.60465">
        <ele>4.8</ele>
        <time>2020-05-31T13:08:54Z</time>
      </trkpt>
      <trkpt lat="46.31501" lon="-0.60466">
        <ele>4.8</ele>
        <time>2020-05-31T13:08:55Z</time>
      </trkpt>
      <trkpt lat="46.31502" lon="-0.60466">
        <ele>4.8</ele>
        <time>2020-05-31T13:08:56Z</time>
      </trkpt>
      <trkpt lat="46.31502" lon="-0.60467">
        <ele>4.8</ele>
        <time>2020-05-31T13:08:57Z</time>
      </trkpt>
      <trkpt lat="46.31504" lon="-0.60468">
        <ele>4.8</ele>
        <time>2020-05-31T13:08:58Z</time>
      </trkpt>
      <trkpt lat="46.31504" lon="-0.60468">
        <ele>4.8</ele>
        <time>2020-05-31T13:08:59Z</time>
      </trkpt>
      <trkpt lat="46.31504" lon="-0.60468">
        <ele>4.8</ele>
        <time>2020-05-31T13:09:00Z</time>
      </trkpt>
      <trkpt lat="46.31504" lon="-0.60468">
        <ele>4.8</ele>
        <time>2020-05-31T13:09:01Z</time>
      </trkpt>
      <trkpt lat="46.31504" lon="-0.60468">
        <ele>4.8</ele>
        <time>2020-05-31T13:09:02Z</time>
      </trkpt>
      <trkpt lat="46.31504" lon="-0.60468">
        <ele>4.8</ele>
        <time>2020-05-31T13:09:03Z</time>
      </trkpt>
      <trkpt lat="46.31504" lon="-0.60469">
        <ele>4.8</ele>
        <time>2020-05-31T13:09:04Z</time>
      </trkpt>
      <trkpt lat="46.31505" lon="-0.60469">
        <ele>4.8</ele>
        <time>2020-05-31T13:09:05Z</time>
      </trkpt>
      <trkpt lat="46.31505" lon="-0.60469">
        <ele>4.8</ele>
        <time>2020-05-31T13:09:06Z</time>
      </trkpt>
      <trkpt lat="46.31505" lon="-0.60469">
        <ele>4.8</ele>
        <time>2020-05-31T13:09:07Z</time>
      </trkpt>
      <trkpt lat="46.31504" lon="-0.60469">
        <ele>4.8</ele>
        <time>2020-05-31T13:09:08Z</time>
      </trkpt>
      <trkpt lat="46.31503" lon="-0.60468">
        <ele>4.8</ele>
        <time>2020-05-31T13:09:09Z</time>
      </trkpt>
      <trkpt lat="46.31503" lon="-0.60467">
        <ele>4.8</ele>
        <time>2020-05-31T13:09:10Z</time>
      </trkpt>
      <trkpt lat="46.31502" lon="-0.60467">
        <ele>4.8</ele>
        <time>2020-05-31T13:09:11Z</time>
      </trkpt>
      <trkpt lat="46.31502" lon="-0.60466">
        <ele>4.8</ele>
        <time>2020-05-31T13:09:12Z</time>
      </trkpt>
      <trkpt lat="46.31501" lon="-0.60466">
        <ele>4.8</ele>
        <time>2020-05-31T13:09:13Z</time>
      </trkpt>
      <trkpt lat="46.315" lon="-0.60466">
        <ele>4.8</ele>
        <time>2020-05-31T13:09:14Z</time>
      </trkpt>
      <trkpt lat="46.315" lon="-0.60465">
        <ele>4.8</ele>
        <time>2020-05-31T13:09:15Z</time>
      </trkpt>
      <trkpt lat="46.31499" lon="-0.60465">
        <ele>4.8</ele>
        <time>2020-05-31T13:09:16Z</time>
      </trkpt>
      <trkpt lat="46.31498" lon="-0.60465">
        <ele>4.8</ele>
        <time>2020-05-31T13:09:17Z</time>
      </trkpt>
      <trkpt lat="46.31498" lon="-0.60464">
        <ele>4.8</ele>
        <time>2020-05-31T13:09:18Z</time>
      </trkpt>
      <trkpt lat="46.31497" lon="-0.60464">
        <ele>4.8</ele>
        <time>2020-05-31T13:09:19Z</time>
      </trkpt>
      <trkpt lat="46.31496" lon="-0.60463">
        <ele>4.8</ele>
        <time>2020-05-31T13:09:20Z</time>
      </trkpt>
      <trkpt lat="46.31494" lon="-0.60462">
        <ele>4.8</ele>
        <time>2020-05-31T13:09:21Z</time>
      </trkpt>
      <trkpt lat="46.31493" lon="-0.60461">
        <ele>4.8</ele>
        <time>2020-05-31T13:09:22Z</time>
      </trkpt>
      <trkpt lat="46.31492" lon="-0.6046">
        <ele>4.8</ele>
        <time>2020-05-31T13:09:23Z</time>
      </trkpt>
      <trkpt lat="46.31492" lon="-0.60459">
        <ele>4.8</ele>
        <time>2020-05-31T13:09:24Z</time>
      </trkpt>
      <trkpt lat="46.31492" lon="-0.60459">
        <ele>4.8</ele>
        <time>2020-05-31T13:09:25Z</time>
      </trkpt>
      <trkpt lat="46.31492" lon="-0.60459">
        <ele>4.8</ele>
        <time>2020-05-31T13:09:26Z</time>
      </trkpt>
      <trkpt lat="46.31492" lon="-0.60459">
        <ele>4.8</ele>
        <time>2020-05-31T13:09:27Z</time>
      </trkpt>
      <trkpt lat="46.31491" lon="-0.60459">
        <ele>4.8</ele>
        <time>2020-05-31T13:09:28Z</time>
      </trkpt>
      <trkpt lat="46.31491" lon="-0.60459">
        <ele>4.8</ele>
        <time>2020-05-31T13:09:29Z</time>
      </trkpt>
      <trkpt lat="46.31491" lon="-0.60459">
        <ele>4.8</ele>
        <time>2020-05-31T13:09:30Z</time>
      </trkpt>
      <trkpt lat="46.31491" lon="-0.60458">
        <ele>4.8</ele>
        <time>2020-05-31T13:09:31Z</time>
      </trkpt>
      <trkpt lat="46.31491" lon="-0.60458">
        <ele>4.8</ele>
        <time>2020-05-31T13:09:32Z</time>
      </trkpt>
      <trkpt lat="46.31491" lon="-0.60458">
        <ele>4.8</ele>
        <time>2020-05-31T13:09:33Z</time>
      </trkpt>
      <trkpt lat="46.31491" lon="-0.60458">
        <ele>4.8</ele>
        <time>2020-05-31T13:09:34Z</time>
      </trkpt>
      <trkpt lat="46.3149" lon="-0.60458">
        <ele>4.8</ele>
        <time>2020-05-31T13:09:35Z</time>
      </trkpt>
      <trkpt lat="46.3149" lon="-0.60458">
        <ele>4.8</ele>
        <time>2020-05-31T13:09:36Z</time>
      </trkpt>
      <trkpt lat="46.3149" lon="-0.60458">
        <ele>4.8</ele>
        <time>2020-05-31T13:09:37Z</time>
      </trkpt>
      <trkpt lat="46.3149" lon="-0.60458">
        <ele>4.8</ele>
        <time>2020-05-31T13:09:38Z</time>
      </trkpt>
      <trkpt lat="46.3149" lon="-0.60458">
        <ele>4.8</ele>
        <time>2020-05-31T13:09:39Z</time>
      </trkpt>
      <trkpt lat="46.3149" lon="-0.60458">
        <ele>4.8</ele>
        <time>2020-05-31T13:09:40Z</time>
      </trkpt>
      <trkpt lat="46.3149" lon="-0.60458">
        <ele>4.8</ele>
        <time>2020-05-31T13:09:41Z</time>
      </trkpt>
      <trkpt lat="46.31489" lon="-0.60458">
        <ele>4.8</ele>
        <time>2020-05-31T13:09:42Z</time>
      </trkpt>
      <trkpt lat="46.3149" lon="-0.60458">
        <ele>4.8</ele>
        <time>2020-05-31T13:09:43Z</time>
      </trkpt>
      <trkpt lat="46.3149" lon="-0.60458">
        <ele>4.8</ele>
        <time>2020-05-31T13:09:44Z</time>
      </trkpt>
      <trkpt lat="46.3149" lon="-0.60458">
        <ele>4.8</ele>
        <time>2020-05-31T13:09:45Z</time>
      </trkpt>
      <trkpt lat="46.31491" lon="-0.60459">
        <ele>4.8</ele>
        <time>2020-05-31T13:09:46Z</time>
      </trkpt>
      <trkpt lat="46.31491" lon="-0.60459">
        <ele>4.8</ele>
        <time>2020-05-31T13:09:47Z</time>
      </trkpt>
      <trkpt lat="46.31491" lon="-0.60459">
        <ele>4.8</ele>
        <time>2020-05-31T13:09:48Z</time>
      </trkpt>
      <trkpt lat="46.31491" lon="-0.60459">
        <ele>4.8</ele>
        <time>2020-05-31T13:09:49Z</time>
      </trkpt>
      <trkpt lat="46.3149" lon="-0.60458">
        <ele>4.8</ele>
        <time>2020-05-31T13:09:50Z</time>
      </trkpt>
      <trkpt lat="46.3149" lon="-0.60458">
        <ele>4.8</ele>
        <time>2020-05-31T13:09:51Z</time>
      </trkpt>
      <trkpt lat="46.31489" lon="-0.60458">
        <ele>4.8</ele>
        <time>2020-05-31T13:09:52Z</time>
      </trkpt>
      <trkpt lat="46.31489" lon="-0.60458">
        <ele>4.8</ele>
        <time>2020-05-31T13:09:53Z</time>
      </trkpt>
      <trkpt lat="46.31489" lon="-0.60458">
        <ele>4.8</ele>
        <time>2020-05-31T13:09:54Z</time>
      </trkpt>
      <trkpt lat="46.31489" lon="-0.60459">
        <ele>4.8</ele>
        <time>2020-05-31T13:09:55Z</time>
      </trkpt>
      <trkpt lat="46.31489" lon="-0.60459">
        <ele>4.8</ele>
        <time>2020-05-31T13:09:56Z</time>
      </trkpt>
      <trkpt lat="46.31489" lon="-0.60459">
        <ele>4.8</ele>
        <time>2020-05-31T13:09:57Z</time>
      </trkpt>
      <trkpt lat="46.31488" lon="-0.60458">
        <ele>4.8</ele>
        <time>2020-05-31T13:09:58Z</time>
      </trkpt>
      <trkpt lat="46.31488" lon="-0.60457">
        <ele>4.8</ele>
        <time>2020-05-31T13:09:59Z</time>
      </trkpt>
      <trkpt lat="46.31488" lon="-0.60457">
        <ele>4.8</ele>
        <time>2020-05-31T13:10:00Z</time>
      </trkpt>
      <trkpt lat="46.31488" lon="-0.60457">
        <ele>4.8</ele>
        <time>2020-05-31T13:10:01Z</time>
      </trkpt>
      <trkpt lat="46.31488" lon="-0.60456">
        <ele>4.8</ele>
        <time>2020-05-31T13:10:02Z</time>
      </trkpt>
      <trkpt lat="46.31488" lon="-0.60456">
        <ele>4.8</ele>
        <time>2020-05-31T13:10:03Z</time>
      </trkpt>
      <trkpt lat="46.31488" lon="-0.60455">
        <ele>4.8</ele>
        <time>2020-05-31T13:10:04Z</time>
      </trkpt>
      <trkpt lat="46.31488" lon="-0.60456">
        <ele>4.8</ele>
        <time>2020-05-31T13:10:05Z</time>
      </trkpt>
      <trkpt lat="46.31488" lon="-0.60455">
        <ele>4.8</ele>
        <time>2020-05-31T13:10:06Z</time>
      </trkpt>
      <trkpt lat="46.31488" lon="-0.60455">
        <ele>4.8</ele>
        <time>2020-05-31T13:10:07Z</time>
      </trkpt>
      <trkpt lat="46.31488" lon="-0.60455">
        <ele>4.8</ele>
        <time>2020-05-31T13:10:08Z</time>
      </trkpt>
      <trkpt lat="46.31489" lon="-0.60456">
        <ele>4.8</ele>
        <time>2020-05-31T13:10:09Z</time>
      </trkpt>
      <trkpt lat="46.31489" lon="-0.60456">
        <ele>4.8</ele>
        <time>2020-05-31T13:10:10Z</time>
      </trkpt>
      <trkpt lat="46.31489" lon="-0.60456">
        <ele>4.8</ele>
        <time>2020-05-31T13:10:11Z</time>
      </trkpt>
      <trkpt lat="46.31489" lon="-0.60456">
        <ele>4.8</ele>
        <time>2020-05-31T13:10:12Z</time>
      </trkpt>
      <trkpt lat="46.31489" lon="-0.60455">
        <ele>4.8</ele>
        <time>2020-05-31T13:10:13Z</time>
      </trkpt>
      <trkpt lat="46.31489" lon="-0.60455">
        <ele>4.8</ele>
        <time>2020-05-31T13:10:14Z</time>
      </trkpt>
      <trkpt lat="46.31489" lon="-0.60455">
        <ele>4.8</ele>
        <time>2020-05-31T13:10:15Z</time>
      </trkpt>
      <trkpt lat="46.31489" lon="-0.60455">
        <ele>4.8</ele>
        <time>2020-05-31T13:10:16Z</time>
      </trkpt>
      <trkpt lat="46.31489" lon="-0.60455">
        <ele>4.8</ele>
        <time>2020-05-31T13:10:17Z</time>
      </trkpt>
      <trkpt lat="46.31489" lon="-0.60455">
        <ele>4.8</ele>
        <time>2020-05-31T13:10:18Z</time>
      </trkpt>
      <trkpt lat="46.31489" lon="-0.60455">
        <ele>4.8</ele>
        <time>2020-05-31T13:10:19Z</time>
      </trkpt>
      <trkpt lat="46.31489" lon="-0.60455">
        <ele>4.8</ele>
        <time>2020-05-31T13:10:20Z</time>
      </trkpt>
      <trkpt lat="46.31489" lon="-0.60455">
        <ele>4.8</ele>
        <time>2020-05-31T13:10:21Z</time>
      </trkpt>
      <trkpt lat="46.31489" lon="-0.60455">
        <ele>4.8</ele>
        <time>2020-05-31T13:10:22Z</time>
      </trkpt>
      <trkpt lat="46.31489" lon="-0.60455">
        <ele>4.8</ele>
        <time>2020-05-31T13:10:23Z</time>
      </trkpt>
      <trkpt lat="46.31488" lon="-0.60455">
        <ele>4.8</ele>
        <time>2020-05-31T13:10:24Z</time>
      </trkpt>
      <trkpt lat="46.31488" lon="-0.60455">
        <ele>4.8</ele>
        <time>2020-05-31T13:10:25Z</time>
      </trkpt>
      <trkpt lat="46.31487" lon="-0.60455">
        <ele>4.8</ele>
        <time>2020-05-31T13:10:26Z</time>
      </trkpt>
      <trkpt lat="46.31487" lon="-0.60455">
        <ele>4.8</ele>
        <time>2020-05-31T13:10:27Z</time>
      </trkpt>
      <trkpt lat="46.31486" lon="-0.60455">
        <ele>4.8</ele>
        <time>2020-05-31T13:10:28Z</time>
      </trkpt>
      <trkpt lat="46.31486" lon="-0.60455">
        <ele>4.8</ele>
        <time>2020-05-31T13:10:29Z</time>
      </trkpt>
      <trkpt lat="46.31486" lon="-0.60454">
        <ele>4.8</ele>
        <time>2020-05-31T13:10:30Z</time>
      </trkpt>
      <trkpt lat="46.31486" lon="-0.60454">
        <ele>4.8</ele>
        <time>2020-05-31T13:10:31Z</time>
      </trkpt>
      <trkpt lat="46.31486" lon="-0.60454">
        <ele>4.8</ele>
        <time>2020-05-31T13:10:32Z</time>
      </trkpt>
      <trkpt lat="46.31486" lon="-0.60454">
        <ele>4.8</ele>
        <time>2020-05-31T13:10:33Z</time>
      </trkpt>
      <trkpt lat="46.31486" lon="-0.60454">
        <ele>4.8</ele>
        <time>2020-05-31T13:10:34Z</time>
      </trkpt>
      <trkpt lat="46.31486" lon="-0.60453">
        <ele>4.8</ele>
        <time>2020-05-31T13:10:35Z</time>
      </trkpt>
      <trkpt lat="46.31487" lon="-0.60454">
        <ele>4.8</ele>
        <time>2020-05-31T13:10:36Z</time>
      </trkpt>
      <trkpt lat="46.31487" lon="-0.60456">
        <ele>4.8</ele>
        <time>2020-05-31T13:10:37Z</time>
      </trkpt>
      <trkpt lat="46.31487" lon="-0.60456">
        <ele>4.8</ele>
        <time>2020-05-31T13:10:38Z</time>
      </trkpt>
      <trkpt lat="46.31486" lon="-0.60455">
        <ele>4.8</ele>
        <time>2020-05-31T13:10:39Z</time>
      </trkpt>
      <trkpt lat="46.31487" lon="-0.60455">
        <ele>4.8</ele>
        <time>2020-05-31T13:10:40Z</time>
      </trkpt>
      <trkpt lat="46.31487" lon="-0.60455">
        <ele>4.8</ele>
        <time>2020-05-31T13:10:41Z</time>
      </trkpt>
      <trkpt lat="46.31488" lon="-0.60456">
        <ele>4.8</ele>
        <time>2020-05-31T13:10:42Z</time>
      </trkpt>
      <trkpt lat="46.31488" lon="-0.60457">
        <ele>4.8</ele>
        <time>2020-05-31T13:10:43Z</time>
      </trkpt>
      <trkpt lat="46.31488" lon="-0.60457">
        <ele>4.8</ele>
        <time>2020-05-31T13:10:44Z</time>
      </trkpt>
      <trkpt lat="46.31489" lon="-0.60458">
        <ele>4.8</ele>
        <time>2020-05-31T13:10:45Z</time>
      </trkpt>
      <trkpt lat="46.31489" lon="-0.6046">
        <ele>4.8</ele>
        <time>2020-05-31T13:10:46Z</time>
      </trkpt>
      <trkpt lat="46.31489" lon="-0.60461">
        <ele>4.8</ele>
        <time>2020-05-31T13:10:47Z</time>
      </trkpt>
      <trkpt lat="46.31489" lon="-0.60462">
        <ele>4.8</ele>
        <time>2020-05-31T13:10:48Z</time>
      </trkpt>
      <trkpt lat="46.31489" lon="-0.60463">
        <ele>4.8</ele>
        <time>2020-05-31T13:10:49Z</time>
      </trkpt>
      <trkpt lat="46.31489" lon="-0.60463">
        <ele>4.8</ele>
        <time>2020-05-31T13:10:50Z</time>
      </trkpt>
      <trkpt lat="46.31489" lon="-0.60463">
        <ele>4.8</ele>
        <time>2020-05-31T13:10:51Z</time>
      </trkpt>
      <trkpt lat="46.31489" lon="-0.60463">
        <ele>4.8</ele>
        <time>2020-05-31T13:10:52Z</time>
      </trkpt>
      <trkpt lat="46.3149" lon="-0.60463">
        <ele>4.8</ele>
        <time>2020-05-31T13:10:53Z</time>
      </trkpt>
      <trkpt lat="46.31489" lon="-0.60462">
        <ele>4.8</ele>
        <time>2020-05-31T13:10:54Z</time>
      </trkpt>
      <trkpt lat="46.31488" lon="-0.60461">
        <ele>4.8</ele>
        <time>2020-05-31T13:10:55Z</time>
      </trkpt>
      <trkpt lat="46.31488" lon="-0.60462">
        <ele>4.8</ele>
        <time>2020-05-31T13:10:56Z</time>
      </trkpt>
      <trkpt lat="46.31488" lon="-0.60461">
        <ele>4.8</ele>
        <time>2020-05-31T13:10:57Z</time>
      </trkpt>
      <trkpt lat="46.31489" lon="-0.60461">
        <ele>4.8</ele>
        <time>2020-05-31T13:10:58Z</time>
      </trkpt>
      <trkpt lat="46.31489" lon="-0.60461">
        <ele>4.8</ele>
        <time>2020-05-31T13:10:59Z</time>
      </trkpt>
      <trkpt lat="46.31489" lon="-0.6046">
        <ele>4.8</ele>
        <time>2020-05-31T13:11:00Z</time>
      </trkpt>
      <trkpt lat="46.3149" lon="-0.60459">
        <ele>4.8</ele>
        <time>2020-05-31T13:11:01Z</time>
      </trkpt>
      <trkpt lat="46.3149" lon="-0.6046">
        <ele>4.8</ele>
        <time>2020-05-31T13:11:02Z</time>
      </trkpt>
      <trkpt lat="46.31491" lon="-0.6046">
        <ele>4.8</ele>
        <time>2020-05-31T13:11:03Z</time>
      </trkpt>
      <trkpt lat="46.31492" lon="-0.6046">
        <ele>4.8</ele>
        <time>2020-05-31T13:11:04Z</time>
      </trkpt>
      <trkpt lat="46.31493" lon="-0.60459">
        <ele>4.8</ele>
        <time>2020-05-31T13:11:05Z</time>
      </trkpt>
      <trkpt lat="46.31493" lon="-0.60459">
        <ele>4.8</ele>
        <time>2020-05-31T13:11:06Z</time>
      </trkpt>
      <trkpt lat="46.31493" lon="-0.60459">
        <ele>4.8</ele>
        <time>2020-05-31T13:11:07Z</time>
      </trkpt>
      <trkpt lat="46.31492" lon="-0.6046">
        <ele>4.8</ele>
        <time>2020-05-31T13:11:08Z</time>
      </trkpt>
      <trkpt lat="46.31492" lon="-0.6046">
        <ele>4.8</ele>
        <time>2020-05-31T13:11:09Z</time>
      </trkpt>
      <trkpt lat="46.31492" lon="-0.6046">
        <ele>4.8</ele>
        <time>2020-05-31T13:11:10Z</time>
      </trkpt>
      <trkpt lat="46.31491" lon="-0.60461">
        <ele>4.8</ele>
        <time>2020-05-31T13:11:11Z</time>
      </trkpt>
      <trkpt lat="46.31492" lon="-0.60461">
        <ele>4.8</ele>
        <time>2020-05-31T13:11:12Z</time>
      </trkpt>
      <trkpt lat="46.31492" lon="-0.60461">
        <ele>4.8</ele>
        <time>2020-05-31T13:11:13Z</time>
      </trkpt>
      <trkpt lat="46.31492" lon="-0.60461">
        <ele>4.8</ele>
        <time>2020-05-31T13:11:14Z</time>
      </trkpt>
      <trkpt lat="46.31492" lon="-0.60461">
        <ele>4.8</ele>
        <time>2020-05-31T13:11:15Z</time>
      </trkpt>
      <trkpt lat="46.31492" lon="-0.60461">
        <ele>4.8</ele>
        <time>2020-05-31T13:11:16Z</time>
      </trkpt>
      <trkpt lat="46.31492" lon="-0.60461">
        <ele>4.8</ele>
        <time>2020-05-31T13:11:17Z</time>
      </trkpt>
      <trkpt lat="46.31492" lon="-0.60461">
        <ele>4.8</ele>
        <time>2020-05-31T13:11:18Z</time>
      </trkpt>
      <trkpt lat="46.31492" lon="-0.60461">
        <ele>4.8</ele>
        <time>2020-05-31T13:11:19Z</time>
      </trkpt>
      <trkpt lat="46.31492" lon="-0.60461">
        <ele>4.8</ele>
        <time>2020-05-31T13:11:20Z</time>
      </trkpt>
      <trkpt lat="46.31492" lon="-0.60461">
        <ele>4.8</ele>
        <time>2020-05-31T13:11:21Z</time>
      </trkpt>
      <trkpt lat="46.31492" lon="-0.60461">
        <ele>4.8</ele>
        <time>2020-05-31T13:11:22Z</time>
      </trkpt>
      <trkpt lat="46.31492" lon="-0.60461">
        <ele>4.8</ele>
        <time>2020-05-31T13:11:23Z</time>
      </trkpt>
      <trkpt lat="46.31492" lon="-0.60461">
        <ele>4.8</ele>
        <time>2020-05-31T13:11:24Z</time>
      </trkpt>
      <trkpt lat="46.31492" lon="-0.60461">
        <ele>4.8</ele>
        <time>2020-05-31T13:11:25Z</time>
      </trkpt>
      <trkpt lat="46.31492" lon="-0.60461">
        <ele>4.8</ele>
        <time>2020-05-31T13:11:26Z</time>
      </trkpt>
      <trkpt lat="46.31491" lon="-0.60461">
        <ele>4.8</ele>
        <time>2020-05-31T13:11:27Z</time>
      </trkpt>
      <trkpt lat="46.31491" lon="-0.60461">
        <ele>4.8</ele>
        <time>2020-05-31T13:11:28Z</time>
      </trkpt>
      <trkpt lat="46.31491" lon="-0.60461">
        <ele>4.8</ele>
        <time>2020-05-31T13:11:29Z</time>
      </trkpt>
      <trkpt lat="46.31491" lon="-0.6046">
        <ele>4.8</ele>
        <time>2020-05-31T13:11:30Z</time>
      </trkpt>
      <trkpt lat="46.31491" lon="-0.60458">
        <ele>4.8</ele>
        <time>2020-05-31T13:11:31Z</time>
      </trkpt>
      <trkpt lat="46.31491" lon="-0.60457">
        <ele>4.8</ele>
        <time>2020-05-31T13:11:32Z</time>
      </trkpt>
      <trkpt lat="46.31492" lon="-0.60455">
        <ele>4.8</ele>
        <time>2020-05-31T13:11:33Z</time>
      </trkpt>
      <trkpt lat="46.31492" lon="-0.60454">
        <ele>4.8</ele>
        <time>2020-05-31T13:11:34Z</time>
      </trkpt>
      <trkpt lat="46.31492" lon="-0.60454">
        <ele>4.8</ele>
        <time>2020-05-31T13:11:35Z</time>
      </trkpt>
      <trkpt lat="46.31492" lon="-0.60454">
        <ele>4.8</ele>
        <time>2020-05-31T13:11:36Z</time>
      </trkpt>
      <trkpt lat="46.31492" lon="-0.60454">
        <ele>4.8</ele>
        <time>2020-05-31T13:11:37Z</time>
      </trkpt>
      <trkpt lat="46.31492" lon="-0.60454">
        <ele>4.8</ele>
        <time>2020-05-31T13:11:38Z</time>
      </trkpt>
      <trkpt lat="46.31492" lon="-0.60454">
        <ele>4.8</ele>
        <time>2020-05-31T13:11:39Z</time>
      </trkpt>
      <trkpt lat="46.31492" lon="-0.60454">
        <ele>4.8</ele>
        <time>2020-05-31T13:11:40Z</time>
      </trkpt>
      <trkpt lat="46.31493" lon="-0.60454">
        <ele>4.8</ele>
        <time>2020-05-31T13:11:41Z</time>
      </trkpt>
      <trkpt lat="46.31493" lon="-0.60453">
        <ele>4.8</ele>
        <time>2020-05-31T13:11:42Z</time>
      </trkpt>
      <trkpt lat="46.31494" lon="-0.60454">
        <ele>4.8</ele>
        <time>2020-05-31T13:11:43Z</time>
      </trkpt>
      <trkpt lat="46.31494" lon="-0.60454">
        <ele>4.8</ele>
        <time>2020-05-31T13:11:44Z</time>
      </trkpt>
      <trkpt lat="46.31495" lon="-0.60454">
        <ele>4.8</ele>
        <time>2020-05-31T13:11:45Z</time>
      </trkpt>
      <trkpt lat="46.31496" lon="-0.60455">
        <ele>4.8</ele>
        <time>2020-05-31T13:11:46Z</time>
      </trkpt>
      <trkpt lat="46.31496" lon="-0.60455">
        <ele>4.8</ele>
        <time>2020-05-31T13:11:47Z</time>
      </trkpt>
      <trkpt lat="46.31496" lon="-0.60455">
        <ele>4.8</ele>
        <time>2020-05-31T13:11:48Z</time>
      </trkpt>
      <trkpt lat="46.31496" lon="-0.60455">
        <ele>4.8</ele>
        <time>2020-05-31T13:11:49Z</time>
      </trkpt>
      <trkpt lat="46.31496" lon="-0.60455">
        <ele>4.8</ele>
        <time>2020-05-31T13:11:50Z</time>
      </trkpt>
      <trkpt lat="46.31496" lon="-0.60455">
        <ele>4.8</ele>
        <time>2020-05-31T13:11:51Z</time>
      </trkpt>
      <trkpt lat="46.31496" lon="-0.60456">
        <ele>4.8</ele>
        <time>2020-05-31T13:11:52Z</time>
      </trkpt>
      <trkpt lat="46.31495" lon="-0.60456">
        <ele>4.8</ele>
        <time>2020-05-31T13:11:53Z</time>
      </trkpt>
      <trkpt lat="46.31496" lon="-0.60456">
        <ele>4.8</ele>
        <time>2020-05-31T13:11:54Z</time>
      </trkpt>
      <trkpt lat="46.31495" lon="-0.60456">
        <ele>4.8</ele>
        <time>2020-05-31T13:11:55Z</time>
      </trkpt>
      <trkpt lat="46.31495" lon="-0.60457">
        <ele>4.8</ele>
        <time>2020-05-31T13:11:56Z</time>
      </trkpt>
      <trkpt lat="46.31495" lon="-0.60458">
        <ele>4.8</ele>
        <time>2020-05-31T13:11:57Z</time>
      </trkpt>
      <trkpt lat="46.31495" lon="-0.60459">
        <ele>4.8</ele>
        <time>2020-05-31T13:11:58Z</time>
      </trkpt>
      <trkpt lat="46.31494" lon="-0.6046">
        <ele>4.8</ele>
        <time>2020-05-31T13:11:59Z</time>
      </trkpt>
      <trkpt lat="46.31494" lon="-0.60461">
        <ele>4.8</ele>
        <time>2020-05-31T13:12:00Z</time>
      </trkpt>
      <trkpt lat="46.31494" lon="-0.60461">
        <ele>4.8</ele>
        <time>2020-05-31T13:12:01Z</time>
      </trkpt>
      <trkpt lat="46.31493" lon="-0.60459">
        <ele>4.8</ele>
        <time>2020-05-31T13:12:02Z</time>
      </trkpt>
      <trkpt lat="46.31493" lon="-0.6046">
        <ele>4.8</ele>
        <time>2020-05-31T13:12:03Z</time>
      </trkpt>
      <trkpt lat="46.31493" lon="-0.6046">
        <ele>4.8</ele>
        <time>2020-05-31T13:12:04Z</time>
      </trkpt>
      <trkpt lat="46.31492" lon="-0.60458">
        <ele>4.8</ele>
        <time>2020-05-31T13:12:05Z</time>
      </trkpt>
      <trkpt lat="46.31491" lon="-0.60458">
        <ele>4.8</ele>
        <time>2020-05-31T13:12:06Z</time>
      </trkpt>
      <trkpt lat="46.3149" lon="-0.60456">
        <ele>4.8</ele>
        <time>2020-05-31T13:12:07Z</time>
      </trkpt>
      <trkpt lat="46.3149" lon="-0.60455">
        <ele>4.8</ele>
        <time>2020-05-31T13:12:08Z</time>
      </trkpt>
      <trkpt lat="46.31489" lon="-0.60455">
        <ele>4.8</ele>
        <time>2020-05-31T13:12:09Z</time>
      </trkpt>
      <trkpt lat="46.31488" lon="-0.60454">
        <ele>4.8</ele>
        <time>2020-05-31T13:12:10Z</time>
      </trkpt>
      <trkpt lat="46.31487" lon="-0.60454">
        <ele>4.8</ele>
        <time>2020-05-31T13:12:11Z</time>
      </trkpt>
      <trkpt lat="46.31486" lon="-0.60454">
        <ele>4.8</ele>
        <time>2020-05-31T13:12:12Z</time>
      </trkpt>
      <trkpt lat="46.31485" lon="-0.60454">
        <ele>4.8</ele>
        <time>2020-05-31T13:12:13Z</time>
      </trkpt>
      <trkpt lat="46.31485" lon="-0.60455">
        <ele>4.8</ele>
        <time>2020-05-31T13:12:14Z</time>
      </trkpt>
      <trkpt lat="46.31485" lon="-0.60455">
        <ele>4.8</ele>
        <time>2020-05-31T13:12:15Z</time>
      </trkpt>
      <trkpt lat="46.31484" lon="-0.60454">
        <ele>4.8</ele>
        <time>2020-05-31T13:12:16Z</time>
      </trkpt>
      <trkpt lat="46.31484" lon="-0.60454">
        <ele>4.8</ele>
        <time>2020-05-31T13:12:17Z</time>
      </trkpt>
      <trkpt lat="46.31483" lon="-0.60453">
        <ele>4.8</ele>
        <time>2020-05-31T13:12:18Z</time>
      </trkpt>
      <trkpt lat="46.31483" lon="-0.60454">
        <ele>4.8</ele>
        <time>2020-05-31T13:12:19Z</time>
      </trkpt>
      <trkpt lat="46.31484" lon="-0.60454">
        <ele>4.8</ele>
        <time>2020-05-31T13:12:20Z</time>
      </trkpt>
      <trkpt lat="46.31484" lon="-0.60454">
        <ele>4.8</ele>
        <time>2020-05-31T13:12:21Z</time>
      </trkpt>
      <trkpt lat="46.31484" lon="-0.60454">
        <ele>4.8</ele>
        <time>2020-05-31T13:12:22Z</time>
      </trkpt>
      <trkpt lat="46.31484" lon="-0.60454">
        <ele>4.8</ele>
        <time>2020-05-31T13:12:23Z</time>
      </trkpt>
      <trkpt lat="46.31485" lon="-0.60454">
        <ele>4.8</ele>
        <time>2020-05-31T13:12:24Z</time>
      </trkpt>
      <trkpt lat="46.31485" lon="-0.60454">
        <ele>4.8</ele>
        <time>2020-05-31T13:12:25Z</time>
      </trkpt>
      <trkpt lat="46.31485" lon="-0.60454">
        <ele>4.8</ele>
        <time>2020-05-31T13:12:26Z</time>
      </trkpt>
      <trkpt lat="46.31485" lon="-0.60454">
        <ele>4.8</ele>
        <time>2020-05-31T13:12:27Z</time>
      </trkpt>
      <trkpt lat="46.31485" lon="-0.60454">
        <ele>4.8</ele>
        <time>2020-05-31T13:12:28Z</time>
      </trkpt>
      <trkpt lat="46.31486" lon="-0.60454">
        <ele>4.8</ele>
        <time>2020-05-31T13:12:29Z</time>
      </trkpt>
      <trkpt lat="46.31486" lon="-0.60454">
        <ele>4.8</ele>
        <time>2020-05-31T13:12:30Z</time>
      </trkpt>
      <trkpt lat="46.31486" lon="-0.60454">
        <ele>4.8</ele>
        <time>2020-05-31T13:12:31Z</time>
      </trkpt>
      <trkpt lat="46.31486" lon="-0.60454">
        <ele>4.8</ele>
        <time>2020-05-31T13:12:32Z</time>
      </trkpt>
      <trkpt lat="46.31487" lon="-0.60454">
        <ele>4.8</ele>
        <time>2020-05-31T13:12:33Z</time>
      </trkpt>
      <trkpt lat="46.31487" lon="-0.60454">
        <ele>4.8</ele>
        <time>2020-05-31T13:12:34Z</time>
      </trkpt>
      <trkpt lat="46.31487" lon="-0.60454">
        <ele>4.8</ele>
        <time>2020-05-31T13:12:35Z</time>
      </trkpt>
      <trkpt lat="46.31487" lon="-0.60454">
        <ele>4.8</ele>
        <time>2020-05-31T13:12:36Z</time>
      </trkpt>
      <trkpt lat="46.31488" lon="-0.60454">
        <ele>4.8</ele>
        <time>2020-05-31T13:12:37Z</time>
      </trkpt>
      <trkpt lat="46.31488" lon="-0.60454">
        <ele>4.8</ele>
        <time>2020-05-31T13:12:38Z</time>
      </trkpt>
      <trkpt lat="46.31488" lon="-0.60454">
        <ele>4.8</ele>
        <time>2020-05-31T13:12:39Z</time>
      </trkpt>
      <trkpt lat="46.31488" lon="-0.60454">
        <ele>4.8</ele>
        <time>2020-05-31T13:12:40Z</time>
      </trkpt>
      <trkpt lat="46.31488" lon="-0.60454">
        <ele>4.8</ele>
        <time>2020-05-31T13:12:41Z</time>
      </trkpt>
      <trkpt lat="46.31489" lon="-0.60454">
        <ele>4.8</ele>
        <time>2020-05-31T13:12:42Z</time>
      </trkpt>
      <trkpt lat="46.31489" lon="-0.60454">
        <ele>4.8</ele>
        <time>2020-05-31T13:12:43Z</time>
      </trkpt>
      <trkpt lat="46.31489" lon="-0.60454">
        <ele>4.8</ele>
        <time>2020-05-31T13:12:44Z</time>
      </trkpt>
      <trkpt lat="46.31489" lon="-0.60454">
        <ele>4.8</ele>
        <time>2020-05-31T13:12:45Z</time>
      </trkpt>
      <trkpt lat="46.3149" lon="-0.60454">
        <ele>4.8</ele>
        <time>2020-05-31T13:12:46Z</time>
      </trkpt>
      <trkpt lat="46.3149" lon="-0.60454">
        <ele>4.8</ele>
        <time>2020-05-31T13:12:47Z</time>
      </trkpt>
      <trkpt lat="46.31493" lon="-0.60455">
        <ele>4.8</ele>
        <time>2020-05-31T13:12:48Z</time>
      </trkpt>
      <trkpt lat="46.31494" lon="-0.60456">
        <ele>4.8</ele>
        <time>2020-05-31T13:12:49Z</time>
      </trkpt>
      <trkpt lat="46.31496" lon="-0.60457">
        <ele>4.8</ele>
        <time>2020-05-31T13:12:50Z</time>
      </trkpt>
      <trkpt lat="46.31498" lon="-0.60459">
        <ele>4.9</ele>
        <time>2020-05-31T13:12:51Z</time>
      </trkpt>
      <trkpt lat="46.31498" lon="-0.60458">
        <ele>4.9</ele>
        <time>2020-05-31T13:12:52Z</time>
      </trkpt>
      <trkpt lat="46.31498" lon="-0.60458">
        <ele>4.9</ele>
        <time>2020-05-31T13:12:53Z</time>
      </trkpt>
      <trkpt lat="46.31498" lon="-0.60458">
        <ele>4.9</ele>
        <time>2020-05-31T13:12:54Z</time>
      </trkpt>
      <trkpt lat="46.31498" lon="-0.60458">
        <ele>4.9</ele>
        <time>2020-05-31T13:12:55Z</time>
      </trkpt>
      <trkpt lat="46.31498" lon="-0.60458">
        <ele>4.9</ele>
        <time>2020-05-31T13:12:56Z</time>
      </trkpt>
      <trkpt lat="46.31498" lon="-0.60458">
        <ele>4.9</ele>
        <time>2020-05-31T13:12:57Z</time>
      </trkpt>
      <trkpt lat="46.31498" lon="-0.60458">
        <ele>4.9</ele>
        <time>2020-05-31T13:12:58Z</time>
      </trkpt>
      <trkpt lat="46.31499" lon="-0.60459">
        <ele>4.9</ele>
        <time>2020-05-31T13:12:59Z</time>
      </trkpt>
      <trkpt lat="46.31499" lon="-0.60459">
        <ele>4.9</ele>
        <time>2020-05-31T13:13:00Z</time>
      </trkpt>
      <trkpt lat="46.31499" lon="-0.60459">
        <ele>4.9</ele>
        <time>2020-05-31T13:13:01Z</time>
      </trkpt>
      <trkpt lat="46.31499" lon="-0.60459">
        <ele>4.9</ele>
        <time>2020-05-31T13:13:02Z</time>
      </trkpt>
      <trkpt lat="46.31499" lon="-0.60459">
        <ele>4.9</ele>
        <time>2020-05-31T13:13:03Z</time>
      </trkpt>
      <trkpt lat="46.31497" lon="-0.60461">
        <ele>4.9</ele>
        <time>2020-05-31T13:13:04Z</time>
      </trkpt>
      <trkpt lat="46.31497" lon="-0.60461">
        <ele>4.9</ele>
        <time>2020-05-31T13:13:05Z</time>
      </trkpt>
      <trkpt lat="46.31497" lon="-0.60461">
        <ele>4.9</ele>
        <time>2020-05-31T13:13:06Z</time>
      </trkpt>
      <trkpt lat="46.31496" lon="-0.6046">
        <ele>4.9</ele>
        <time>2020-05-31T13:13:07Z</time>
      </trkpt>
      <trkpt lat="46.31496" lon="-0.6046">
        <ele>4.9</ele>
        <time>2020-05-31T13:13:08Z</time>
      </trkpt>
      <trkpt lat="46.31496" lon="-0.6046">
        <ele>4.9</ele>
        <time>2020-05-31T13:13:09Z</time>
      </trkpt>
      <trkpt lat="46.31496" lon="-0.6046">
        <ele>4.9</ele>
        <time>2020-05-31T13:13:10Z</time>
      </trkpt>
      <trkpt lat="46.31496" lon="-0.6046">
        <ele>4.9</ele>
        <time>2020-05-31T13:13:11Z</time>
      </trkpt>
      <trkpt lat="46.31497" lon="-0.6046">
        <ele>4.9</ele>
        <time>2020-05-31T13:13:12Z</time>
      </trkpt>
      <trkpt lat="46.31497" lon="-0.6046">
        <ele>4.9</ele>
        <time>2020-05-31T13:13:13Z</time>
      </trkpt>
      <trkpt lat="46.31497" lon="-0.6046">
        <ele>4.9</ele>
        <time>2020-05-31T13:13:14Z</time>
      </trkpt>
      <trkpt lat="46.31497" lon="-0.6046">
        <ele>4.9</ele>
        <time>2020-05-31T13:13:15Z</time>
      </trkpt>
      <trkpt lat="46.31496" lon="-0.6046">
        <ele>4.9</ele>
        <time>2020-05-31T13:13:16Z</time>
      </trkpt>
      <trkpt lat="46.31495" lon="-0.60459">
        <ele>4.9</ele>
        <time>2020-05-31T13:13:17Z</time>
      </trkpt>
      <trkpt lat="46.31495" lon="-0.60459">
        <ele>4.9</ele>
        <time>2020-05-31T13:13:18Z</time>
      </trkpt>
      <trkpt lat="46.31494" lon="-0.60459">
        <ele>4.9</ele>
        <time>2020-05-31T13:13:19Z</time>
      </trkpt>
      <trkpt lat="46.31494" lon="-0.60459">
        <ele>4.9</ele>
        <time>2020-05-31T13:13:20Z</time>
      </trkpt>
      <trkpt lat="46.31493" lon="-0.60458">
        <ele>4.9</ele>
        <time>2020-05-31T13:13:21Z</time>
      </trkpt>
      <trkpt lat="46.31493" lon="-0.60458">
        <ele>4.9</ele>
        <time>2020-05-31T13:13:22Z</time>
      </trkpt>
      <trkpt lat="46.31492" lon="-0.60458">
        <ele>4.9</ele>
        <time>2020-05-31T13:13:23Z</time>
      </trkpt>
      <trkpt lat="46.31491" lon="-0.60458">
        <ele>4.9</ele>
        <time>2020-05-31T13:13:24Z</time>
      </trkpt>
      <trkpt lat="46.31492" lon="-0.60458">
        <ele>4.9</ele>
        <time>2020-05-31T13:13:25Z</time>
      </trkpt>
      <trkpt lat="46.31493" lon="-0.60458">
        <ele>4.9</ele>
        <time>2020-05-31T13:13:26Z</time>
      </trkpt>
      <trkpt lat="46.31493" lon="-0.60459">
        <ele>4.9</ele>
        <time>2020-05-31T13:13:27Z</time>
      </trkpt>
      <trkpt lat="46.31493" lon="-0.60458">
        <ele>4.9</ele>
        <time>2020-05-31T13:13:28Z</time>
      </trkpt>
      <trkpt lat="46.31493" lon="-0.60458">
        <ele>4.9</ele>
        <time>2020-05-31T13:13:29Z</time>
      </trkpt>
      <trkpt lat="46.31493" lon="-0.60459">
        <ele>4.9</ele>
        <time>2020-05-31T13:13:30Z</time>
      </trkpt>
      <trkpt lat="46.31494" lon="-0.60459">
        <ele>4.9</ele>
        <time>2020-05-31T13:13:31Z</time>
      </trkpt>
      <trkpt lat="46.31494" lon="-0.60458">
        <ele>4.9</ele>
        <time>2020-05-31T13:13:32Z</time>
      </trkpt>
      <trkpt lat="46.31494" lon="-0.60458">
        <ele>4.9</ele>
        <time>2020-05-31T13:13:33Z</time>
      </trkpt>
      <trkpt lat="46.31494" lon="-0.60457">
        <ele>4.9</ele>
        <time>2020-05-31T13:13:34Z</time>
      </trkpt>
      <trkpt lat="46.31494" lon="-0.60457">
        <ele>4.9</ele>
        <time>2020-05-31T13:13:35Z</time>
      </trkpt>
      <trkpt lat="46.31494" lon="-0.60458">
        <ele>4.9</ele>
        <time>2020-05-31T13:13:36Z</time>
      </trkpt>
      <trkpt lat="46.31493" lon="-0.60457">
        <ele>4.9</ele>
        <time>2020-05-31T13:13:37Z</time>
      </trkpt>
      <trkpt lat="46.31493" lon="-0.60457">
        <ele>4.9</ele>
        <time>2020-05-31T13:13:38Z</time>
      </trkpt>
      <trkpt lat="46.31493" lon="-0.60456">
        <ele>4.9</ele>
        <time>2020-05-31T13:13:39Z</time>
      </trkpt>
      <trkpt lat="46.31492" lon="-0.60456">
        <ele>4.9</ele>
        <time>2020-05-31T13:13:40Z</time>
      </trkpt>
      <trkpt lat="46.31492" lon="-0.60456">
        <ele>4.9</ele>
        <time>2020-05-31T13:13:41Z</time>
      </trkpt>
      <trkpt lat="46.31491" lon="-0.60455">
        <ele>4.9</ele>
        <time>2020-05-31T13:13:42Z</time>
      </trkpt>
      <trkpt lat="46.3149" lon="-0.60456">
        <ele>4.9</ele>
        <time>2020-05-31T13:13:43Z</time>
      </trkpt>
      <trkpt lat="46.3149" lon="-0.60455">
        <ele>4.9</ele>
        <time>2020-05-31T13:13:44Z</time>
      </trkpt>
      <trkpt lat="46.3149" lon="-0.60455">
        <ele>4.9</ele>
        <time>2020-05-31T13:13:45Z</time>
      </trkpt>
      <trkpt lat="46.31489" lon="-0.60454">
        <ele>4.9</ele>
        <time>2020-05-31T13:13:46Z</time>
      </trkpt>
      <trkpt lat="46.31489" lon="-0.60455">
        <ele>4.9</ele>
        <time>2020-05-31T13:13:47Z</time>
      </trkpt>
      <trkpt lat="46.31488" lon="-0.60455">
        <ele>4.9</ele>
        <time>2020-05-31T13:13:48Z</time>
      </trkpt>
      <trkpt lat="46.31488" lon="-0.60456">
        <ele>4.9</ele>
        <time>2020-05-31T13:13:49Z</time>
      </trkpt>
      <trkpt lat="46.31487" lon="-0.60456">
        <ele>4.9</ele>
        <time>2020-05-31T13:13:50Z</time>
      </trkpt>
      <trkpt lat="46.31487" lon="-0.60456">
        <ele>4.9</ele>
        <time>2020-05-31T13:13:51Z</time>
      </trkpt>
      <trkpt lat="46.31486" lon="-0.60457">
        <ele>4.9</ele>
        <time>2020-05-31T13:13:52Z</time>
      </trkpt>
      <trkpt lat="46.31486" lon="-0.60457">
        <ele>4.9</ele>
        <time>2020-05-31T13:13:53Z</time>
      </trkpt>
      <trkpt lat="46.31485" lon="-0.60458">
        <ele>4.9</ele>
        <time>2020-05-31T13:13:54Z</time>
      </trkpt>
      <trkpt lat="46.31485" lon="-0.60458">
        <ele>4.9</ele>
        <time>2020-05-31T13:13:55Z</time>
      </trkpt>
      <trkpt lat="46.31485" lon="-0.60458">
        <ele>4.9</ele>
        <time>2020-05-31T13:13:56Z</time>
      </trkpt>
      <trkpt lat="46.31484" lon="-0.60458">
        <ele>4.9</ele>
        <time>2020-05-31T13:13:57Z</time>
      </trkpt>
      <trkpt lat="46.31484" lon="-0.60458">
        <ele>4.9</ele>
        <time>2020-05-31T13:13:58Z</time>
      </trkpt>
      <trkpt lat="46.31483" lon="-0.60459">
        <ele>4.9</ele>
        <time>2020-05-31T13:13:59Z</time>
      </trkpt>
      <trkpt lat="46.31483" lon="-0.60459">
        <ele>4.9</ele>
        <time>2020-05-31T13:14:00Z</time>
      </trkpt>
      <trkpt lat="46.31482" lon="-0.60459">
        <ele>4.9</ele>
        <time>2020-05-31T13:14:01Z</time>
      </trkpt>
      <trkpt lat="46.31479" lon="-0.60461">
        <ele>4.9</ele>
        <time>2020-05-31T13:14:02Z</time>
      </trkpt>
      <trkpt lat="46.31478" lon="-0.60461">
        <ele>4.9</ele>
        <time>2020-05-31T13:14:03Z</time>
      </trkpt>
      <trkpt lat="46.31477" lon="-0.60462">
        <ele>4.9</ele>
        <time>2020-05-31T13:14:04Z</time>
      </trkpt>
      <trkpt lat="46.31475" lon="-0.60463">
        <ele>4.9</ele>
        <time>2020-05-31T13:14:05Z</time>
      </trkpt>
      <trkpt lat="46.31475" lon="-0.60464">
        <ele>4.9</ele>
        <time>2020-05-31T13:14:06Z</time>
      </trkpt>
      <trkpt lat="46.31474" lon="-0.60466">
        <ele>4.9</ele>
        <time>2020-05-31T13:14:07Z</time>
      </trkpt>
      <trkpt lat="46.31473" lon="-0.60467">
        <ele>4.9</ele>
        <time>2020-05-31T13:14:08Z</time>
      </trkpt>
      <trkpt lat="46.31472" lon="-0.60468">
        <ele>4.9</ele>
        <time>2020-05-31T13:14:09Z</time>
      </trkpt>
      <trkpt lat="46.31473" lon="-0.60468">
        <ele>4.9</ele>
        <time>2020-05-31T13:14:10Z</time>
      </trkpt>
      <trkpt lat="46.31473" lon="-0.60469">
        <ele>4.9</ele>
        <time>2020-05-31T13:14:11Z</time>
      </trkpt>
      <trkpt lat="46.31474" lon="-0.6047">
        <ele>4.9</ele>
        <time>2020-05-31T13:14:12Z</time>
      </trkpt>
      <trkpt lat="46.31474" lon="-0.60471">
        <ele>4.9</ele>
        <time>2020-05-31T13:14:13Z</time>
      </trkpt>
      <trkpt lat="46.31475" lon="-0.60471">
        <ele>4.9</ele>
        <time>2020-05-31T13:14:14Z</time>
      </trkpt>
      <trkpt lat="46.31475" lon="-0.60471">
        <ele>4.9</ele>
        <time>2020-05-31T13:14:15Z</time>
      </trkpt>
      <trkpt lat="46.31476" lon="-0.60471">
        <ele>4.9</ele>
        <time>2020-05-31T13:14:16Z</time>
      </trkpt>
      <trkpt lat="46.31476" lon="-0.60471">
        <ele>4.9</ele>
        <time>2020-05-31T13:14:17Z</time>
      </trkpt>
      <trkpt lat="46.31476" lon="-0.60472">
        <ele>4.9</ele>
        <time>2020-05-31T13:14:18Z</time>
      </trkpt>
      <trkpt lat="46.31477" lon="-0.60472">
        <ele>4.9</ele>
        <time>2020-05-31T13:14:19Z</time>
      </trkpt>
      <trkpt lat="46.31477" lon="-0.60472">
        <ele>4.9</ele>
        <time>2020-05-31T13:14:20Z</time>
      </trkpt>
      <trkpt lat="46.31477" lon="-0.60472">
        <ele>4.9</ele>
        <time>2020-05-31T13:14:21Z</time>
      </trkpt>
      <trkpt lat="46.31478" lon="-0.60471">
        <ele>4.9</ele>
        <time>2020-05-31T13:14:22Z</time>
      </trkpt>
      <trkpt lat="46.31478" lon="-0.60471">
        <ele>4.9</ele>
        <time>2020-05-31T13:14:23Z</time>
      </trkpt>
      <trkpt lat="46.31478" lon="-0.6047">
        <ele>4.9</ele>
        <time>2020-05-31T13:14:24Z</time>
      </trkpt>
      <trkpt lat="46.31479" lon="-0.6047">
        <ele>4.9</ele>
        <time>2020-05-31T13:14:25Z</time>
      </trkpt>
      <trkpt lat="46.31479" lon="-0.6047">
        <ele>4.9</ele>
        <time>2020-05-31T13:14:26Z</time>
      </trkpt>
      <trkpt lat="46.31479" lon="-0.60469">
        <ele>4.9</ele>
        <time>2020-05-31T13:14:27Z</time>
      </trkpt>
      <trkpt lat="46.3148" lon="-0.60469">
        <ele>4.9</ele>
        <time>2020-05-31T13:14:28Z</time>
      </trkpt>
      <trkpt lat="46.3148" lon="-0.60467">
        <ele>4.9</ele>
        <time>2020-05-31T13:14:29Z</time>
      </trkpt>
      <trkpt lat="46.31481" lon="-0.60466">
        <ele>4.9</ele>
        <time>2020-05-31T13:14:30Z</time>
      </trkpt>
      <trkpt lat="46.31482" lon="-0.60465">
        <ele>4.9</ele>
        <time>2020-05-31T13:14:31Z</time>
      </trkpt>
      <trkpt lat="46.31482" lon="-0.60464">
        <ele>4.9</ele>
        <time>2020-05-31T13:14:32Z</time>
      </trkpt>
      <trkpt lat="46.31483" lon="-0.60463">
        <ele>4.9</ele>
        <time>2020-05-31T13:14:33Z</time>
      </trkpt>
      <trkpt lat="46.31483" lon="-0.60464">
        <ele>4.9</ele>
        <time>2020-05-31T13:14:34Z</time>
      </trkpt>
      <trkpt lat="46.31483" lon="-0.60464">
        <ele>4.9</ele>
        <time>2020-05-31T13:14:35Z</time>
      </trkpt>
      <trkpt lat="46.31483" lon="-0.60463">
        <ele>4.9</ele>
        <time>2020-05-31T13:14:36Z</time>
      </trkpt>
      <trkpt lat="46.31483" lon="-0.60462">
        <ele>4.9</ele>
        <time>2020-05-31T13:14:37Z</time>
      </trkpt>
      <trkpt lat="46.31483" lon="-0.60462">
        <ele>4.9</ele>
        <time>2020-05-31T13:14:38Z</time>
      </trkpt>
      <trkpt lat="46.31483" lon="-0.60462">
        <ele>4.9</ele>
        <time>2020-05-31T13:14:39Z</time>
      </trkpt>
      <trkpt lat="46.31483" lon="-0.60463">
        <ele>4.9</ele>
        <time>2020-05-31T13:14:40Z</time>
      </trkpt>
      <trkpt lat="46.31483" lon="-0.60463">
        <ele>4.9</ele>
        <time>2020-05-31T13:14:41Z</time>
      </trkpt>
      <trkpt lat="46.31483" lon="-0.60463">
        <ele>4.9</ele>
        <time>2020-05-31T13:14:42Z</time>
      </trkpt>
      <trkpt lat="46.31482" lon="-0.60462">
        <ele>4.9</ele>
        <time>2020-05-31T13:14:43Z</time>
      </trkpt>
      <trkpt lat="46.31482" lon="-0.60462">
        <ele>4.9</ele>
        <time>2020-05-31T13:14:44Z</time>
      </trkpt>
      <trkpt lat="46.31482" lon="-0.60462">
        <ele>4.9</ele>
        <time>2020-05-31T13:14:45Z</time>
      </trkpt>
      <trkpt lat="46.31482" lon="-0.60462">
        <ele>4.9</ele>
        <time>2020-05-31T13:14:46Z</time>
      </trkpt>
      <trkpt lat="46.31482" lon="-0.60462">
        <ele>4.9</ele>
        <time>2020-05-31T13:14:47Z</time>
      </trkpt>
      <trkpt lat="46.31482" lon="-0.60461">
        <ele>4.9</ele>
        <time>2020-05-31T13:14:48Z</time>
      </trkpt>
      <trkpt lat="46.31482" lon="-0.60461">
        <ele>4.9</ele>
        <time>2020-05-31T13:14:49Z</time>
      </trkpt>
      <trkpt lat="46.31482" lon="-0.6046">
        <ele>4.9</ele>
        <time>2020-05-31T13:14:50Z</time>
      </trkpt>
      <trkpt lat="46.31482" lon="-0.60459">
        <ele>4.9</ele>
        <time>2020-05-31T13:14:51Z</time>
      </trkpt>
      <trkpt lat="46.31482" lon="-0.60459">
        <ele>4.9</ele>
        <time>2020-05-31T13:14:52Z</time>
      </trkpt>
      <trkpt lat="46.31482" lon="-0.60458">
        <ele>4.9</ele>
        <time>2020-05-31T13:14:53Z</time>
      </trkpt>
      <trkpt lat="46.31483" lon="-0.6046">
        <ele>5</ele>
        <time>2020-05-31T13:14:54Z</time>
      </trkpt>
      <trkpt lat="46.31483" lon="-0.60458">
        <ele>5</ele>
        <time>2020-05-31T13:14:55Z</time>
      </trkpt>
      <trkpt lat="46.31483" lon="-0.60457">
        <ele>5</ele>
        <time>2020-05-31T13:14:56Z</time>
      </trkpt>
      <trkpt lat="46.31483" lon="-0.60456">
        <ele>5</ele>
        <time>2020-05-31T13:14:57Z</time>
      </trkpt>
      <trkpt lat="46.31484" lon="-0.60456">
        <ele>5</ele>
        <time>2020-05-31T13:14:58Z</time>
      </trkpt>
      <trkpt lat="46.31484" lon="-0.60456">
        <ele>5</ele>
        <time>2020-05-31T13:14:59Z</time>
      </trkpt>
      <trkpt lat="46.31484" lon="-0.60456">
        <ele>5</ele>
        <time>2020-05-31T13:15:00Z</time>
      </trkpt>
      <trkpt lat="46.31485" lon="-0.60456">
        <ele>5</ele>
        <time>2020-05-31T13:15:01Z</time>
      </trkpt>
      <trkpt lat="46.31485" lon="-0.60457">
        <ele>5</ele>
        <time>2020-05-31T13:15:02Z</time>
      </trkpt>
      <trkpt lat="46.31485" lon="-0.60457">
        <ele>5</ele>
        <time>2020-05-31T13:15:03Z</time>
      </trkpt>
      <trkpt lat="46.31485" lon="-0.60457">
        <ele>5</ele>
        <time>2020-05-31T13:15:04Z</time>
      </trkpt>
      <trkpt lat="46.31485" lon="-0.60457">
        <ele>5</ele>
        <time>2020-05-31T13:15:05Z</time>
      </trkpt>
      <trkpt lat="46.31486" lon="-0.60457">
        <ele>5</ele>
        <time>2020-05-31T13:15:06Z</time>
      </trkpt>
      <trkpt lat="46.31486" lon="-0.60458">
        <ele>5</ele>
        <time>2020-05-31T13:15:07Z</time>
      </trkpt>
      <trkpt lat="46.31486" lon="-0.60458">
        <ele>5</ele>
        <time>2020-05-31T13:15:08Z</time>
      </trkpt>
      <trkpt lat="46.31486" lon="-0.60458">
        <ele>5</ele>
        <time>2020-05-31T13:15:09Z</time>
      </trkpt>
      <trkpt lat="46.31486" lon="-0.60458">
        <ele>5</ele>
        <time>2020-05-31T13:15:10Z</time>
      </trkpt>
      <trkpt lat="46.31487" lon="-0.60458">
        <ele>5</ele>
        <time>2020-05-31T13:15:11Z</time>
      </trkpt>
      <trkpt lat="46.31487" lon="-0.60459">
        <ele>5</ele>
        <time>2020-05-31T13:15:12Z</time>
      </trkpt>
      <trkpt lat="46.31487" lon="-0.60459">
        <ele>5</ele>
        <time>2020-05-31T13:15:13Z</time>
      </trkpt>
      <trkpt lat="46.31487" lon="-0.60459">
        <ele>5</ele>
        <time>2020-05-31T13:15:14Z</time>
      </trkpt>
      <trkpt lat="46.31487" lon="-0.60459">
        <ele>5</ele>
        <time>2020-05-31T13:15:15Z</time>
      </trkpt>
      <trkpt lat="46.31488" lon="-0.6046">
        <ele>5</ele>
        <time>2020-05-31T13:15:16Z</time>
      </trkpt>
      <trkpt lat="46.31488" lon="-0.6046">
        <ele>5</ele>
        <time>2020-05-31T13:15:17Z</time>
      </trkpt>
      <trkpt lat="46.31488" lon="-0.6046">
        <ele>5</ele>
        <time>2020-05-31T13:15:18Z</time>
      </trkpt>
      <trkpt lat="46.31488" lon="-0.6046">
        <ele>5</ele>
        <time>2020-05-31T13:15:19Z</time>
      </trkpt>
      <trkpt lat="46.31488" lon="-0.6046">
        <ele>5</ele>
        <time>2020-05-31T13:15:20Z</time>
      </trkpt>
      <trkpt lat="46.31488" lon="-0.6046">
        <ele>5</ele>
        <time>2020-05-31T13:15:21Z</time>
      </trkpt>
      <trkpt lat="46.31488" lon="-0.6046">
        <ele>5</ele>
        <time>2020-05-31T13:15:22Z</time>
      </trkpt>
      <trkpt lat="46.31488" lon="-0.6046">
        <ele>5</ele>
        <time>2020-05-31T13:15:23Z</time>
      </trkpt>
      <trkpt lat="46.31487" lon="-0.60461">
        <ele>5</ele>
        <time>2020-05-31T13:15:24Z</time>
      </trkpt>
      <trkpt lat="46.31487" lon="-0.60461">
        <ele>5</ele>
        <time>2020-05-31T13:15:25Z</time>
      </trkpt>
      <trkpt lat="46.31487" lon="-0.60461">
        <ele>5</ele>
        <time>2020-05-31T13:15:26Z</time>
      </trkpt>
      <trkpt lat="46.31487" lon="-0.60461">
        <ele>5</ele>
        <time>2020-05-31T13:15:27Z</time>
      </trkpt>
      <trkpt lat="46.31487" lon="-0.60462">
        <ele>5</ele>
        <time>2020-05-31T13:15:28Z</time>
      </trkpt>
      <trkpt lat="46.31487" lon="-0.60462">
        <ele>5</ele>
        <time>2020-05-31T13:15:29Z</time>
      </trkpt>
      <trkpt lat="46.31487" lon="-0.60463">
        <ele>5</ele>
        <time>2020-05-31T13:15:30Z</time>
      </trkpt>
      <trkpt lat="46.31486" lon="-0.60464">
        <ele>5</ele>
        <time>2020-05-31T13:15:31Z</time>
      </trkpt>
      <trkpt lat="46.31486" lon="-0.60464">
        <ele>5</ele>
        <time>2020-05-31T13:15:32Z</time>
      </trkpt>
      <trkpt lat="46.31486" lon="-0.60464">
        <ele>5</ele>
        <time>2020-05-31T13:15:33Z</time>
      </trkpt>
      <trkpt lat="46.31486" lon="-0.60464">
        <ele>5</ele>
        <time>2020-05-31T13:15:34Z</time>
      </trkpt>
      <trkpt lat="46.31486" lon="-0.60464">
        <ele>5</ele>
        <time>2020-05-31T13:15:35Z</time>
      </trkpt>
      <trkpt lat="46.31486" lon="-0.60464">
        <ele>5</ele>
        <time>2020-05-31T13:15:36Z</time>
      </trkpt>
      <trkpt lat="46.31486" lon="-0.60464">
        <ele>5</ele>
        <time>2020-05-31T13:15:37Z</time>
      </trkpt>
      <trkpt lat="46.31486" lon="-0.60464">
        <ele>5</ele>
        <time>2020-05-31T13:15:38Z</time>
      </trkpt>
      <trkpt lat="46.31486" lon="-0.60464">
        <ele>5</ele>
        <time>2020-05-31T13:15:39Z</time>
      </trkpt>
      <trkpt lat="46.31486" lon="-0.60464">
        <ele>5</ele>
        <time>2020-05-31T13:15:40Z</time>
      </trkpt>
      <trkpt lat="46.31486" lon="-0.60464">
        <ele>5</ele>
        <time>2020-05-31T13:15:41Z</time>
      </trkpt>
      <trkpt lat="46.31486" lon="-0.60464">
        <ele>5</ele>
        <time>2020-05-31T13:15:42Z</time>
      </trkpt>
      <trkpt lat="46.31486" lon="-0.60464">
        <ele>5</ele>
        <time>2020-05-31T13:15:43Z</time>
      </trkpt>
      <trkpt lat="46.31486" lon="-0.60464">
        <ele>5</ele>
        <time>2020-05-31T13:15:44Z</time>
      </trkpt>
      <trkpt lat="46.31486" lon="-0.60464">
        <ele>5</ele>
        <time>2020-05-31T13:15:45Z</time>
      </trkpt>
      <trkpt lat="46.31486" lon="-0.60464">
        <ele>5</ele>
        <time>2020-05-31T13:15:46Z</time>
      </trkpt>
      <trkpt lat="46.31486" lon="-0.60464">
        <ele>5</ele>
        <time>2020-05-31T13:15:47Z</time>
      </trkpt>
      <trkpt lat="46.31486" lon="-0.60464">
        <ele>5</ele>
        <time>2020-05-31T13:15:48Z</time>
      </trkpt>
      <trkpt lat="46.31486" lon="-0.60464">
        <ele>5</ele>
        <time>2020-05-31T13:15:49Z</time>
      </trkpt>
      <trkpt lat="46.31486" lon="-0.60464">
        <ele>5</ele>
        <time>2020-05-31T13:15:50Z</time>
      </trkpt>
      <trkpt lat="46.31485" lon="-0.60465">
        <ele>5</ele>
        <time>2020-05-31T13:15:51Z</time>
      </trkpt>
      <trkpt lat="46.31485" lon="-0.60465">
        <ele>5</ele>
        <time>2020-05-31T13:15:52Z</time>
      </trkpt>
      <trkpt lat="46.31485" lon="-0.60464">
        <ele>5</ele>
        <time>2020-05-31T13:15:53Z</time>
      </trkpt>
      <trkpt lat="46.31485" lon="-0.60464">
        <ele>5</ele>
        <time>2020-05-31T13:15:54Z</time>
      </trkpt>
      <trkpt lat="46.31485" lon="-0.60464">
        <ele>5</ele>
        <time>2020-05-31T13:15:55Z</time>
      </trkpt>
      <trkpt lat="46.31486" lon="-0.60464">
        <ele>5</ele>
        <time>2020-05-31T13:15:56Z</time>
      </trkpt>
      <trkpt lat="46.31486" lon="-0.60464">
        <ele>5</ele>
        <time>2020-05-31T13:15:57Z</time>
      </trkpt>
      <trkpt lat="46.31486" lon="-0.60463">
        <ele>5</ele>
        <time>2020-05-31T13:15:58Z</time>
      </trkpt>
      <trkpt lat="46.31486" lon="-0.60463">
        <ele>5</ele>
        <time>2020-05-31T13:15:59Z</time>
      </trkpt>
      <trkpt lat="46.31486" lon="-0.60462">
        <ele>5</ele>
        <time>2020-05-31T13:16:00Z</time>
      </trkpt>
      <trkpt lat="46.31486" lon="-0.60463">
        <ele>5</ele>
        <time>2020-05-31T13:16:01Z</time>
      </trkpt>
      <trkpt lat="46.31486" lon="-0.60462">
        <ele>5</ele>
        <time>2020-05-31T13:16:02Z</time>
      </trkpt>
      <trkpt lat="46.31486" lon="-0.60462">
        <ele>5</ele>
        <time>2020-05-31T13:16:03Z</time>
      </trkpt>
      <trkpt lat="46.31487" lon="-0.60462">
        <ele>5</ele>
        <time>2020-05-31T13:16:04Z</time>
      </trkpt>
      <trkpt lat="46.31487" lon="-0.60462">
        <ele>5</ele>
        <time>2020-05-31T13:16:05Z</time>
      </trkpt>
      <trkpt lat="46.31486" lon="-0.60462">
        <ele>5</ele>
        <time>2020-05-31T13:16:06Z</time>
      </trkpt>
      <trkpt lat="46.31487" lon="-0.60462">
        <ele>5</ele>
        <time>2020-05-31T13:16:07Z</time>
      </trkpt>
      <trkpt lat="46.31486" lon="-0.60462">
        <ele>5</ele>
        <time>2020-05-31T13:16:08Z</time>
      </trkpt>
      <trkpt lat="46.31486" lon="-0.60461">
        <ele>5</ele>
        <time>2020-05-31T13:16:09Z</time>
      </trkpt>
      <trkpt lat="46.31486" lon="-0.60461">
        <ele>5</ele>
        <time>2020-05-31T13:16:10Z</time>
      </trkpt>
      <trkpt lat="46.31487" lon="-0.6046">
        <ele>5</ele>
        <time>2020-05-31T13:16:11Z</time>
      </trkpt>
      <trkpt lat="46.31487" lon="-0.6046">
        <ele>5</ele>
        <time>2020-05-31T13:16:12Z</time>
      </trkpt>
      <trkpt lat="46.31487" lon="-0.60459">
        <ele>5</ele>
        <time>2020-05-31T13:16:13Z</time>
      </trkpt>
      <trkpt lat="46.31489" lon="-0.60458">
        <ele>5</ele>
        <time>2020-05-31T13:16:14Z</time>
      </trkpt>
      <trkpt lat="46.3149" lon="-0.60457">
        <ele>5</ele>
        <time>2020-05-31T13:16:15Z</time>
      </trkpt>
      <trkpt lat="46.31491" lon="-0.60457">
        <ele>5</ele>
        <time>2020-05-31T13:16:16Z</time>
      </trkpt>
      <trkpt lat="46.31494" lon="-0.60456">
        <ele>5</ele>
        <time>2020-05-31T13:16:17Z</time>
      </trkpt>
      <trkpt lat="46.31496" lon="-0.60455">
        <ele>5</ele>
        <time>2020-05-31T13:16:18Z</time>
      </trkpt>
      <trkpt lat="46.31496" lon="-0.60456">
        <ele>5</ele>
        <time>2020-05-31T13:16:19Z</time>
      </trkpt>
      <trkpt lat="46.31496" lon="-0.60456">
        <ele>5</ele>
        <time>2020-05-31T13:16:20Z</time>
      </trkpt>
      <trkpt lat="46.31497" lon="-0.60456">
        <ele>5</ele>
        <time>2020-05-31T13:16:21Z</time>
      </trkpt>
      <trkpt lat="46.31497" lon="-0.60457">
        <ele>5</ele>
        <time>2020-05-31T13:16:22Z</time>
      </trkpt>
      <trkpt lat="46.31498" lon="-0.60457">
        <ele>5</ele>
        <time>2020-05-31T13:16:23Z</time>
      </trkpt>
      <trkpt lat="46.31498" lon="-0.60457">
        <ele>5</ele>
        <time>2020-05-31T13:16:24Z</time>
      </trkpt>
      <trkpt lat="46.31499" lon="-0.60458">
        <ele>5</ele>
        <time>2020-05-31T13:16:25Z</time>
      </trkpt>
      <trkpt lat="46.31499" lon="-0.60458">
        <ele>5</ele>
        <time>2020-05-31T13:16:26Z</time>
      </trkpt>
      <trkpt lat="46.315" lon="-0.60458">
        <ele>5</ele>
        <time>2020-05-31T13:16:27Z</time>
      </trkpt>
      <trkpt lat="46.315" lon="-0.60459">
        <ele>5</ele>
        <time>2020-05-31T13:16:28Z</time>
      </trkpt>
      <trkpt lat="46.31501" lon="-0.60459">
        <ele>5</ele>
        <time>2020-05-31T13:16:29Z</time>
      </trkpt>
      <trkpt lat="46.31501" lon="-0.60459">
        <ele>5</ele>
        <time>2020-05-31T13:16:30Z</time>
      </trkpt>
      <trkpt lat="46.31501" lon="-0.6046">
        <ele>5</ele>
        <time>2020-05-31T13:16:31Z</time>
      </trkpt>
      <trkpt lat="46.31502" lon="-0.6046">
        <ele>5</ele>
        <time>2020-05-31T13:16:32Z</time>
      </trkpt>
      <trkpt lat="46.31502" lon="-0.6046">
        <ele>5</ele>
        <time>2020-05-31T13:16:33Z</time>
      </trkpt>
      <trkpt lat="46.31503" lon="-0.60461">
        <ele>5</ele>
        <time>2020-05-31T13:16:34Z</time>
      </trkpt>
      <trkpt lat="46.31503" lon="-0.60461">
        <ele>5</ele>
        <time>2020-05-31T13:16:35Z</time>
      </trkpt>
      <trkpt lat="46.31504" lon="-0.60461">
        <ele>5</ele>
        <time>2020-05-31T13:16:36Z</time>
      </trkpt>
      <trkpt lat="46.31504" lon="-0.60462">
        <ele>5</ele>
        <time>2020-05-31T13:16:37Z</time>
      </trkpt>
      <trkpt lat="46.31505" lon="-0.60462">
        <ele>5</ele>
        <time>2020-05-31T13:16:38Z</time>
      </trkpt>
      <trkpt lat="46.31505" lon="-0.60462">
        <ele>5</ele>
        <time>2020-05-31T13:16:39Z</time>
      </trkpt>
      <trkpt lat="46.31506" lon="-0.60463">
        <ele>5</ele>
        <time>2020-05-31T13:16:40Z</time>
      </trkpt>
      <trkpt lat="46.31506" lon="-0.60463">
        <ele>5</ele>
        <time>2020-05-31T13:16:41Z</time>
      </trkpt>
      <trkpt lat="46.31506" lon="-0.60463">
        <ele>5</ele>
        <time>2020-05-31T13:16:42Z</time>
      </trkpt>
      <trkpt lat="46.31507" lon="-0.60464">
        <ele>5</ele>
        <time>2020-05-31T13:16:43Z</time>
      </trkpt>
      <trkpt lat="46.31507" lon="-0.60464">
        <ele>5</ele>
        <time>2020-05-31T13:16:44Z</time>
      </trkpt>
      <trkpt lat="46.31508" lon="-0.60464">
        <ele>5</ele>
        <time>2020-05-31T13:16:45Z</time>
      </trkpt>
      <trkpt lat="46.31508" lon="-0.60465">
        <ele>5</ele>
        <time>2020-05-31T13:16:46Z</time>
      </trkpt>
      <trkpt lat="46.31509" lon="-0.60465">
        <ele>5</ele>
        <time>2020-05-31T13:16:47Z</time>
      </trkpt>
      <trkpt lat="46.31509" lon="-0.60465">
        <ele>5</ele>
        <time>2020-05-31T13:16:48Z</time>
      </trkpt>
      <trkpt lat="46.3151" lon="-0.60466">
        <ele>5</ele>
        <time>2020-05-31T13:16:49Z</time>
      </trkpt>
      <trkpt lat="46.3151" lon="-0.60466">
        <ele>5</ele>
        <time>2020-05-31T13:16:50Z</time>
      </trkpt>
      <trkpt lat="46.31511" lon="-0.60466">
        <ele>5</ele>
        <time>2020-05-31T13:16:51Z</time>
      </trkpt>
      <trkpt lat="46.31511" lon="-0.60467">
        <ele>5</ele>
        <time>2020-05-31T13:16:52Z</time>
      </trkpt>
      <trkpt lat="46.31511" lon="-0.60467">
        <ele>5.1</ele>
        <time>2020-05-31T13:16:53Z</time>
      </trkpt>
      <trkpt lat="46.31512" lon="-0.60467">
        <ele>5.1</ele>
        <time>2020-05-31T13:16:54Z</time>
      </trkpt>
      <trkpt lat="46.31512" lon="-0.60467">
        <ele>5.1</ele>
        <time>2020-05-31T13:16:55Z</time>
      </trkpt>
      <trkpt lat="46.31513" lon="-0.60468">
        <ele>5.1</ele>
        <time>2020-05-31T13:16:56Z</time>
      </trkpt>
      <trkpt lat="46.31513" lon="-0.60468">
        <ele>5.1</ele>
        <time>2020-05-31T13:16:57Z</time>
      </trkpt>
      <trkpt lat="46.31514" lon="-0.60468">
        <ele>5.1</ele>
        <time>2020-05-31T13:16:58Z</time>
      </trkpt>
      <trkpt lat="46.31514" lon="-0.60469">
        <ele>5.1</ele>
        <time>2020-05-31T13:16:59Z</time>
      </trkpt>
      <trkpt lat="46.31515" lon="-0.60469">
        <ele>5.1</ele>
        <time>2020-05-31T13:17:00Z</time>
      </trkpt>
      <trkpt lat="46.31515" lon="-0.60469">
        <ele>5.1</ele>
        <time>2020-05-31T13:17:01Z</time>
      </trkpt>
      <trkpt lat="46.31516" lon="-0.6047">
        <ele>5.1</ele>
        <time>2020-05-31T13:17:02Z</time>
      </trkpt>
      <trkpt lat="46.31516" lon="-0.6047">
        <ele>5.1</ele>
        <time>2020-05-31T13:17:03Z</time>
      </trkpt>
      <trkpt lat="46.31516" lon="-0.6047">
        <ele>5.1</ele>
        <time>2020-05-31T13:17:04Z</time>
      </trkpt>
      <trkpt lat="46.31517" lon="-0.60471">
        <ele>5.1</ele>
        <time>2020-05-31T13:17:05Z</time>
      </trkpt>
      <trkpt lat="46.31517" lon="-0.60471">
        <ele>5.1</ele>
        <time>2020-05-31T13:17:06Z</time>
      </trkpt>
      <trkpt lat="46.31518" lon="-0.60471">
        <ele>5.1</ele>
        <time>2020-05-31T13:17:07Z</time>
      </trkpt>
      <trkpt lat="46.31518" lon="-0.60472">
        <ele>5.1</ele>
        <time>2020-05-31T13:17:08Z</time>
      </trkpt>
      <trkpt lat="46.31519" lon="-0.60472">
        <ele>5.1</ele>
        <time>2020-05-31T13:17:09Z</time>
      </trkpt>
      <trkpt lat="46.31519" lon="-0.60472">
        <ele>5.1</ele>
        <time>2020-05-31T13:17:10Z</time>
      </trkpt>
      <trkpt lat="46.3152" lon="-0.60473">
        <ele>5.1</ele>
        <time>2020-05-31T13:17:11Z</time>
      </trkpt>
      <trkpt lat="46.3152" lon="-0.60473">
        <ele>5.1</ele>
        <time>2020-05-31T13:17:12Z</time>
      </trkpt>
      <trkpt lat="46.31521" lon="-0.60473">
        <ele>5.1</ele>
        <time>2020-05-31T13:17:13Z</time>
      </trkpt>
      <trkpt lat="46.31516" lon="-0.6047">
        <ele>5.1</ele>
        <time>2020-05-31T13:17:14Z</time>
      </trkpt>
      <trkpt lat="46.31513" lon="-0.60467">
        <ele>5.1</ele>
        <time>2020-05-31T13:17:15Z</time>
      </trkpt>
      <trkpt lat="46.31512" lon="-0.60466">
        <ele>5.1</ele>
        <time>2020-05-31T13:17:16Z</time>
      </trkpt>
      <trkpt lat="46.3151" lon="-0.60465">
        <ele>5.1</ele>
        <time>2020-05-31T13:17:17Z</time>
      </trkpt>
      <trkpt lat="46.31509" lon="-0.60464">
        <ele>5.1</ele>
        <time>2020-05-31T13:17:18Z</time>
      </trkpt>
      <trkpt lat="46.31509" lon="-0.60465">
        <ele>5.1</ele>
        <time>2020-05-31T13:17:19Z</time>
      </trkpt>
      <trkpt lat="46.31508" lon="-0.60465">
        <ele>5.1</ele>
        <time>2020-05-31T13:17:20Z</time>
      </trkpt>
      <trkpt lat="46.31509" lon="-0.60466">
        <ele>5.1</ele>
        <time>2020-05-31T13:17:21Z</time>
      </trkpt>
      <trkpt lat="46.31508" lon="-0.60465">
        <ele>5.1</ele>
        <time>2020-05-31T13:17:22Z</time>
      </trkpt>
      <trkpt lat="46.31509" lon="-0.60465">
        <ele>5.1</ele>
        <time>2020-05-31T13:17:23Z</time>
      </trkpt>
      <trkpt lat="46.31509" lon="-0.60465">
        <ele>5.1</ele>
        <time>2020-05-31T13:17:24Z</time>
      </trkpt>
      <trkpt lat="46.31509" lon="-0.60465">
        <ele>5.1</ele>
        <time>2020-05-31T13:17:25Z</time>
      </trkpt>
      <trkpt lat="46.3151" lon="-0.60465">
        <ele>5.1</ele>
        <time>2020-05-31T13:17:26Z</time>
      </trkpt>
      <trkpt lat="46.31512" lon="-0.60465">
        <ele>5.1</ele>
        <time>2020-05-31T13:17:27Z</time>
      </trkpt>
      <trkpt lat="46.31513" lon="-0.60466">
        <ele>5.1</ele>
        <time>2020-05-31T13:17:28Z</time>
      </trkpt>
      <trkpt lat="46.31513" lon="-0.60467">
        <ele>5.1</ele>
        <time>2020-05-31T13:17:29Z</time>
      </trkpt>
      <trkpt lat="46.31515" lon="-0.60469">
        <ele>5.1</ele>
        <time>2020-05-31T13:17:30Z</time>
      </trkpt>
      <trkpt lat="46.31514" lon="-0.60469">
        <ele>5.1</ele>
        <time>2020-05-31T13:17:31Z</time>
      </trkpt>
      <trkpt lat="46.31514" lon="-0.60468">
        <ele>5.1</ele>
        <time>2020-05-31T13:17:32Z</time>
      </trkpt>
      <trkpt lat="46.31513" lon="-0.60466">
        <ele>5.1</ele>
        <time>2020-05-31T13:17:33Z</time>
      </trkpt>
      <trkpt lat="46.31511" lon="-0.60464">
        <ele>5.1</ele>
        <time>2020-05-31T13:17:34Z</time>
      </trkpt>
      <trkpt lat="46.31511" lon="-0.60464">
        <ele>5.1</ele>
        <time>2020-05-31T13:17:35Z</time>
      </trkpt>
      <trkpt lat="46.3151" lon="-0.60463">
        <ele>5.1</ele>
        <time>2020-05-31T13:17:36Z</time>
      </trkpt>
      <trkpt lat="46.31509" lon="-0.60463">
        <ele>5.1</ele>
        <time>2020-05-31T13:17:37Z</time>
      </trkpt>
      <trkpt lat="46.31507" lon="-0.60463">
        <ele>5.1</ele>
        <time>2020-05-31T13:17:38Z</time>
      </trkpt>
      <trkpt lat="46.31505" lon="-0.60463">
        <ele>5.1</ele>
        <time>2020-05-31T13:17:39Z</time>
      </trkpt>
      <trkpt lat="46.31504" lon="-0.60463">
        <ele>5.1</ele>
        <time>2020-05-31T13:17:40Z</time>
      </trkpt>
      <trkpt lat="46.31504" lon="-0.60463">
        <ele>5.1</ele>
        <time>2020-05-31T13:17:41Z</time>
      </trkpt>
      <trkpt lat="46.31504" lon="-0.60463">
        <ele>5.1</ele>
        <time>2020-05-31T13:17:42Z</time>
      </trkpt>
      <trkpt lat="46.31504" lon="-0.60462">
        <ele>5.1</ele>
        <time>2020-05-31T13:17:43Z</time>
      </trkpt>
      <trkpt lat="46.31504" lon="-0.60462">
        <ele>5.1</ele>
        <time>2020-05-31T13:17:44Z</time>
      </trkpt>
      <trkpt lat="46.31504" lon="-0.60462">
        <ele>5.1</ele>
        <time>2020-05-31T13:17:45Z</time>
      </trkpt>
      <trkpt lat="46.31503" lon="-0.60462">
        <ele>5.1</ele>
        <time>2020-05-31T13:17:46Z</time>
      </trkpt>
      <trkpt lat="46.31503" lon="-0.60462">
        <ele>5.1</ele>
        <time>2020-05-31T13:17:47Z</time>
      </trkpt>
      <trkpt lat="46.31503" lon="-0.60461">
        <ele>5</ele>
        <time>2020-05-31T13:17:48Z</time>
      </trkpt>
      <trkpt lat="46.31503" lon="-0.60461">
        <ele>5</ele>
        <time>2020-05-31T13:17:49Z</time>
      </trkpt>
      <trkpt lat="46.31503" lon="-0.60461">
        <ele>5</ele>
        <time>2020-05-31T13:17:50Z</time>
      </trkpt>
      <trkpt lat="46.31502" lon="-0.60461">
        <ele>5</ele>
        <time>2020-05-31T13:17:51Z</time>
      </trkpt>
      <trkpt lat="46.31502" lon="-0.60462">
        <ele>5</ele>
        <time>2020-05-31T13:17:52Z</time>
      </trkpt>
      <trkpt lat="46.31502" lon="-0.60463">
        <ele>5</ele>
        <time>2020-05-31T13:17:53Z</time>
      </trkpt>
      <trkpt lat="46.31501" lon="-0.60463">
        <ele>5</ele>
        <time>2020-05-31T13:17:54Z</time>
      </trkpt>
      <trkpt lat="46.31501" lon="-0.60464">
        <ele>5</ele>
        <time>2020-05-31T13:17:55Z</time>
      </trkpt>
      <trkpt lat="46.31501" lon="-0.60464">
        <ele>5</ele>
        <time>2020-05-31T13:17:56Z</time>
      </trkpt>
      <trkpt lat="46.31501" lon="-0.60464">
        <ele>5</ele>
        <time>2020-05-31T13:17:57Z</time>
      </trkpt>
      <trkpt lat="46.31501" lon="-0.60464">
        <ele>5</ele>
        <time>2020-05-31T13:17:58Z</time>
      </trkpt>
      <trkpt lat="46.31501" lon="-0.60464">
        <ele>5</ele>
        <time>2020-05-31T13:17:59Z</time>
      </trkpt>
      <trkpt lat="46.31501" lon="-0.60464">
        <ele>5</ele>
        <time>2020-05-31T13:18:00Z</time>
      </trkpt>
      <trkpt lat="46.31501" lon="-0.60464">
        <ele>5</ele>
        <time>2020-05-31T13:18:01Z</time>
      </trkpt>
      <trkpt lat="46.31501" lon="-0.60464">
        <ele>5</ele>
        <time>2020-05-31T13:18:02Z</time>
      </trkpt>
      <trkpt lat="46.31501" lon="-0.60464">
        <ele>5</ele>
        <time>2020-05-31T13:18:03Z</time>
      </trkpt>
      <trkpt lat="46.31501" lon="-0.60464">
        <ele>5</ele>
        <time>2020-05-31T13:18:04Z</time>
      </trkpt>
      <trkpt lat="46.31501" lon="-0.60464">
        <ele>5</ele>
        <time>2020-05-31T13:18:05Z</time>
      </trkpt>
      <trkpt lat="46.315" lon="-0.60463">
        <ele>5</ele>
        <time>2020-05-31T13:18:06Z</time>
      </trkpt>
      <trkpt lat="46.315" lon="-0.60464">
        <ele>5</ele>
        <time>2020-05-31T13:18:07Z</time>
      </trkpt>
      <trkpt lat="46.315" lon="-0.60464">
        <ele>5</ele>
        <time>2020-05-31T13:18:08Z</time>
      </trkpt>
      <trkpt lat="46.31501" lon="-0.60464">
        <ele>5</ele>
        <time>2020-05-31T13:18:09Z</time>
      </trkpt>
      <trkpt lat="46.315" lon="-0.60464">
        <ele>5</ele>
        <time>2020-05-31T13:18:10Z</time>
      </trkpt>
      <trkpt lat="46.31501" lon="-0.60465">
        <ele>5</ele>
        <time>2020-05-31T13:18:11Z</time>
      </trkpt>
      <trkpt lat="46.315" lon="-0.60465">
        <ele>5</ele>
        <time>2020-05-31T13:18:12Z</time>
      </trkpt>
      <trkpt lat="46.315" lon="-0.60465">
        <ele>5</ele>
        <time>2020-05-31T13:18:13Z</time>
      </trkpt>
      <trkpt lat="46.315" lon="-0.60465">
        <ele>5</ele>
        <time>2020-05-31T13:18:14Z</time>
      </trkpt>
      <trkpt lat="46.315" lon="-0.60465">
        <ele>5</ele>
        <time>2020-05-31T13:18:15Z</time>
      </trkpt>
      <trkpt lat="46.31499" lon="-0.60464">
        <ele>5</ele>
        <time>2020-05-31T13:18:16Z</time>
      </trkpt>
      <trkpt lat="46.31498" lon="-0.60464">
        <ele>5</ele>
        <time>2020-05-31T13:18:17Z</time>
      </trkpt>
      <trkpt lat="46.31498" lon="-0.60463">
        <ele>5</ele>
        <time>2020-05-31T13:18:18Z</time>
      </trkpt>
      <trkpt lat="46.31497" lon="-0.60463">
        <ele>5</ele>
        <time>2020-05-31T13:18:19Z</time>
      </trkpt>
      <trkpt lat="46.31497" lon="-0.60463">
        <ele>5</ele>
        <time>2020-05-31T13:18:20Z</time>
      </trkpt>
      <trkpt lat="46.31496" lon="-0.60462">
        <ele>4.9</ele>
        <time>2020-05-31T13:18:21Z</time>
      </trkpt>
      <trkpt lat="46.31496" lon="-0.60462">
        <ele>4.9</ele>
        <time>2020-05-31T13:18:22Z</time>
      </trkpt>
      <trkpt lat="46.31496" lon="-0.60462">
        <ele>4.9</ele>
        <time>2020-05-31T13:18:23Z</time>
      </trkpt>
      <trkpt lat="46.31496" lon="-0.60462">
        <ele>4.9</ele>
        <time>2020-05-31T13:18:24Z</time>
      </trkpt>
      <trkpt lat="46.31496" lon="-0.60463">
        <ele>4.9</ele>
        <time>2020-05-31T13:18:25Z</time>
      </trkpt>
      <trkpt lat="46.31496" lon="-0.60463">
        <ele>4.9</ele>
        <time>2020-05-31T13:18:26Z</time>
      </trkpt>
      <trkpt lat="46.31496" lon="-0.60464">
        <ele>4.9</ele>
        <time>2020-05-31T13:18:27Z</time>
      </trkpt>
      <trkpt lat="46.31496" lon="-0.60463">
        <ele>4.9</ele>
        <time>2020-05-31T13:18:28Z</time>
      </trkpt>
      <trkpt lat="46.31495" lon="-0.60463">
        <ele>4.9</ele>
        <time>2020-05-31T13:18:29Z</time>
      </trkpt>
      <trkpt lat="46.31495" lon="-0.60463">
        <ele>4.9</ele>
        <time>2020-05-31T13:18:30Z</time>
      </trkpt>
      <trkpt lat="46.31495" lon="-0.60463">
        <ele>4.9</ele>
        <time>2020-05-31T13:18:31Z</time>
      </trkpt>
      <trkpt lat="46.31494" lon="-0.60463">
        <ele>4.9</ele>
        <time>2020-05-31T13:18:32Z</time>
      </trkpt>
      <trkpt lat="46.31494" lon="-0.60463">
        <ele>4.9</ele>
        <time>2020-05-31T13:18:33Z</time>
      </trkpt>
      <trkpt lat="46.31492" lon="-0.60462">
        <ele>4.9</ele>
        <time>2020-05-31T13:18:34Z</time>
      </trkpt>
      <trkpt lat="46.31491" lon="-0.60461">
        <ele>4.9</ele>
        <time>2020-05-31T13:18:35Z</time>
      </trkpt>
      <trkpt lat="46.31491" lon="-0.60461">
        <ele>4.9</ele>
        <time>2020-05-31T13:18:36Z</time>
      </trkpt>
      <trkpt lat="46.31491" lon="-0.60461">
        <ele>4.9</ele>
        <time>2020-05-31T13:18:37Z</time>
      </trkpt>
      <trkpt lat="46.31491" lon="-0.60461">
        <ele>4.9</ele>
        <time>2020-05-31T13:18:38Z</time>
      </trkpt>
      <trkpt lat="46.31491" lon="-0.60461">
        <ele>4.9</ele>
        <time>2020-05-31T13:18:39Z</time>
      </trkpt>
      <trkpt lat="46.31491" lon="-0.60461">
        <ele>4.9</ele>
        <time>2020-05-31T13:18:40Z</time>
      </trkpt>
      <trkpt lat="46.31491" lon="-0.60461">
        <ele>4.9</ele>
        <time>2020-05-31T13:18:41Z</time>
      </trkpt>
      <trkpt lat="46.31491" lon="-0.60461">
        <ele>4.9</ele>
        <time>2020-05-31T13:18:42Z</time>
      </trkpt>
      <trkpt lat="46.31491" lon="-0.60461">
        <ele>4.9</ele>
        <time>2020-05-31T13:18:43Z</time>
      </trkpt>
      <trkpt lat="46.31491" lon="-0.60462">
        <ele>4.9</ele>
        <time>2020-05-31T13:18:44Z</time>
      </trkpt>
      <trkpt lat="46.31491" lon="-0.60462">
        <ele>4.9</ele>
        <time>2020-05-31T13:18:45Z</time>
      </trkpt>
      <trkpt lat="46.31491" lon="-0.60462">
        <ele>4.9</ele>
        <time>2020-05-31T13:18:46Z</time>
      </trkpt>
      <trkpt lat="46.3149" lon="-0.60463">
        <ele>4.9</ele>
        <time>2020-05-31T13:18:47Z</time>
      </trkpt>
      <trkpt lat="46.3149" lon="-0.60464">
        <ele>4.9</ele>
        <time>2020-05-31T13:18:48Z</time>
      </trkpt>
      <trkpt lat="46.3149" lon="-0.60463">
        <ele>4.9</ele>
        <time>2020-05-31T13:18:49Z</time>
      </trkpt>
      <trkpt lat="46.3149" lon="-0.60464">
        <ele>4.9</ele>
        <time>2020-05-31T13:18:51Z</time>
      </trkpt>
      <trkpt lat="46.3149" lon="-0.60464">
        <ele>4.9</ele>
        <time>2020-05-31T13:18:52Z</time>
      </trkpt>
      <trkpt lat="46.31491" lon="-0.60465">
        <ele>4.9</ele>
        <time>2020-05-31T13:18:53Z</time>
      </trkpt>
      <trkpt lat="46.31491" lon="-0.60465">
        <ele>4.9</ele>
        <time>2020-05-31T13:18:54Z</time>
      </trkpt>
      <trkpt lat="46.31491" lon="-0.60464">
        <ele>4.9</ele>
        <time>2020-05-31T13:18:55Z</time>
      </trkpt>
      <trkpt lat="46.31491" lon="-0.60464">
        <ele>4.8</ele>
        <time>2020-05-31T13:18:56Z</time>
      </trkpt>
      <trkpt lat="46.31491" lon="-0.60464">
        <ele>4.8</ele>
        <time>2020-05-31T13:18:57Z</time>
      </trkpt>
      <trkpt lat="46.31492" lon="-0.60464">
        <ele>4.8</ele>
        <time>2020-05-31T13:18:58Z</time>
      </trkpt>
      <trkpt lat="46.31492" lon="-0.60464">
        <ele>4.8</ele>
        <time>2020-05-31T13:18:59Z</time>
      </trkpt>
      <trkpt lat="46.31492" lon="-0.60464">
        <ele>4.8</ele>
        <time>2020-05-31T13:19:00Z</time>
      </trkpt>
      <trkpt lat="46.31492" lon="-0.60464">
        <ele>4.8</ele>
        <time>2020-05-31T13:19:01Z</time>
      </trkpt>
      <trkpt lat="46.31492" lon="-0.60464">
        <ele>4.8</ele>
        <time>2020-05-31T13:19:02Z</time>
      </trkpt>
      <trkpt lat="46.31492" lon="-0.60464">
        <ele>4.8</ele>
        <time>2020-05-31T13:19:03Z</time>
      </trkpt>
      <trkpt lat="46.31492" lon="-0.60464">
        <ele>4.8</ele>
        <time>2020-05-31T13:19:04Z</time>
      </trkpt>
      <trkpt lat="46.31492" lon="-0.60464">
        <ele>4.8</ele>
        <time>2020-05-31T13:19:05Z</time>
      </trkpt>
      <trkpt lat="46.31492" lon="-0.60464">
        <ele>4.8</ele>
        <time>2020-05-31T13:19:06Z</time>
      </trkpt>
      <trkpt lat="46.31492" lon="-0.60464">
        <ele>4.8</ele>
        <time>2020-05-31T13:19:07Z</time>
      </trkpt>
      <trkpt lat="46.31492" lon="-0.60464">
        <ele>4.8</ele>
        <time>2020-05-31T13:19:08Z</time>
      </trkpt>
      <trkpt lat="46.31492" lon="-0.60464">
        <ele>4.8</ele>
        <time>2020-05-31T13:19:09Z</time>
      </trkpt>
      <trkpt lat="46.31492" lon="-0.60464">
        <ele>4.8</ele>
        <time>2020-05-31T13:19:10Z</time>
      </trkpt>
      <trkpt lat="46.31492" lon="-0.60464">
        <ele>4.8</ele>
        <time>2020-05-31T13:19:11Z</time>
      </trkpt>
      <trkpt lat="46.31492" lon="-0.60464">
        <ele>4.8</ele>
        <time>2020-05-31T13:19:12Z</time>
      </trkpt>
      <trkpt lat="46.31492" lon="-0.60464">
        <ele>4.8</ele>
        <time>2020-05-31T13:19:13Z</time>
      </trkpt>
      <trkpt lat="46.31492" lon="-0.60464">
        <ele>4.8</ele>
        <time>2020-05-31T13:19:14Z</time>
      </trkpt>
      <trkpt lat="46.31493" lon="-0.60464">
        <ele>4.8</ele>
        <time>2020-05-31T13:19:15Z</time>
      </trkpt>
      <trkpt lat="46.31493" lon="-0.60464">
        <ele>4.8</ele>
        <time>2020-05-31T13:19:16Z</time>
      </trkpt>
      <trkpt lat="46.31493" lon="-0.60465">
        <ele>4.8</ele>
        <time>2020-05-31T13:19:17Z</time>
      </trkpt>
      <trkpt lat="46.31494" lon="-0.60465">
        <ele>4.8</ele>
        <time>2020-05-31T13:19:18Z</time>
      </trkpt>
      <trkpt lat="46.31494" lon="-0.60466">
        <ele>4.8</ele>
        <time>2020-05-31T13:19:19Z</time>
      </trkpt>
      <trkpt lat="46.31493" lon="-0.60466">
        <ele>4.8</ele>
        <time>2020-05-31T13:19:20Z</time>
      </trkpt>
      <trkpt lat="46.31493" lon="-0.60465">
        <ele>4.8</ele>
        <time>2020-05-31T13:19:21Z</time>
      </trkpt>
      <trkpt lat="46.31493" lon="-0.60465">
        <ele>4.8</ele>
        <time>2020-05-31T13:19:22Z</time>
      </trkpt>
      <trkpt lat="46.31492" lon="-0.60465">
        <ele>4.8</ele>
        <time>2020-05-31T13:19:23Z</time>
      </trkpt>
      <trkpt lat="46.31492" lon="-0.60465">
        <ele>4.8</ele>
        <time>2020-05-31T13:19:24Z</time>
      </trkpt>
      <trkpt lat="46.31492" lon="-0.60464">
        <ele>4.8</ele>
        <time>2020-05-31T13:19:25Z</time>
      </trkpt>
      <trkpt lat="46.31492" lon="-0.60464">
        <ele>4.8</ele>
        <time>2020-05-31T13:19:26Z</time>
      </trkpt>
      <trkpt lat="46.31491" lon="-0.60465">
        <ele>4.8</ele>
        <time>2020-05-31T13:19:27Z</time>
      </trkpt>
      <trkpt lat="46.31491" lon="-0.60466">
        <ele>4.8</ele>
        <time>2020-05-31T13:19:28Z</time>
      </trkpt>
      <trkpt lat="46.31491" lon="-0.60466">
        <ele>4.8</ele>
        <time>2020-05-31T13:19:29Z</time>
      </trkpt>
      <trkpt lat="46.31491" lon="-0.60467">
        <ele>4.8</ele>
        <time>2020-05-31T13:19:30Z</time>
      </trkpt>
      <trkpt lat="46.31492" lon="-0.60469">
        <ele>4.8</ele>
        <time>2020-05-31T13:19:31Z</time>
      </trkpt>
      <trkpt lat="46.31492" lon="-0.60469">
        <ele>4.8</ele>
        <time>2020-05-31T13:19:32Z</time>
      </trkpt>
      <trkpt lat="46.31491" lon="-0.60469">
        <ele>4.8</ele>
        <time>2020-05-31T13:19:33Z</time>
      </trkpt>
      <trkpt lat="46.31491" lon="-0.60471">
        <ele>4.8</ele>
        <time>2020-05-31T13:19:34Z</time>
      </trkpt>
      <trkpt lat="46.31491" lon="-0.60472">
        <ele>4.8</ele>
        <time>2020-05-31T13:19:35Z</time>
      </trkpt>
      <trkpt lat="46.31491" lon="-0.60472">
        <ele>4.8</ele>
        <time>2020-05-31T13:19:36Z</time>
      </trkpt>
      <trkpt lat="46.31491" lon="-0.60473">
        <ele>4.8</ele>
        <time>2020-05-31T13:19:37Z</time>
      </trkpt>
      <trkpt lat="46.31491" lon="-0.60474">
        <ele>4.8</ele>
        <time>2020-05-31T13:19:38Z</time>
      </trkpt>
      <trkpt lat="46.31491" lon="-0.60476">
        <ele>4.8</ele>
        <time>2020-05-31T13:19:39Z</time>
      </trkpt>
      <trkpt lat="46.31491" lon="-0.60479">
        <ele>4.8</ele>
        <time>2020-05-31T13:19:40Z</time>
      </trkpt>
      <trkpt lat="46.31491" lon="-0.60484">
        <ele>4.8</ele>
        <time>2020-05-31T13:19:41Z</time>
      </trkpt>
      <trkpt lat="46.3149" lon="-0.60487">
        <ele>4.9</ele>
        <time>2020-05-31T13:19:42Z</time>
      </trkpt>
      <trkpt lat="46.3149" lon="-0.60492">
        <ele>4.9</ele>
        <time>2020-05-31T13:19:43Z</time>
      </trkpt>
      <trkpt lat="46.31489" lon="-0.60497">
        <ele>4.9</ele>
        <time>2020-05-31T13:19:44Z</time>
      </trkpt>
      <trkpt lat="46.31488" lon="-0.60502">
        <ele>4.9</ele>
        <time>2020-05-31T13:19:45Z</time>
      </trkpt>
      <trkpt lat="46.31487" lon="-0.60507">
        <ele>4.9</ele>
        <time>2020-05-31T13:19:46Z</time>
      </trkpt>
      <trkpt lat="46.31486" lon="-0.60513">
        <ele>4.9</ele>
        <time>2020-05-31T13:19:47Z</time>
      </trkpt>
      <trkpt lat="46.31485" lon="-0.60519">
        <ele>4.9</ele>
        <time>2020-05-31T13:19:48Z</time>
      </trkpt>
      <trkpt lat="46.31484" lon="-0.60525">
        <ele>4.9</ele>
        <time>2020-05-31T13:19:49Z</time>
      </trkpt>
      <trkpt lat="46.31484" lon="-0.60532">
        <ele>4.9</ele>
        <time>2020-05-31T13:19:50Z</time>
      </trkpt>
      <trkpt lat="46.31483" lon="-0.60538">
        <ele>4.9</ele>
        <time>2020-05-31T13:19:51Z</time>
      </trkpt>
      <trkpt lat="46.31483" lon="-0.60545">
        <ele>5</ele>
        <time>2020-05-31T13:19:52Z</time>
      </trkpt>
      <trkpt lat="46.31482" lon="-0.60551">
        <ele>5</ele>
        <time>2020-05-31T13:19:53Z</time>
      </trkpt>
      <trkpt lat="46.31482" lon="-0.60557">
        <ele>5</ele>
        <time>2020-05-31T13:19:54Z</time>
      </trkpt>
      <trkpt lat="46.31482" lon="-0.60564">
        <ele>5</ele>
        <time>2020-05-31T13:19:55Z</time>
      </trkpt>
      <trkpt lat="46.31481" lon="-0.60571">
        <ele>5</ele>
        <time>2020-05-31T13:19:56Z</time>
      </trkpt>
      <trkpt lat="46.31481" lon="-0.60579">
        <ele>5</ele>
        <time>2020-05-31T13:19:57Z</time>
      </trkpt>
      <trkpt lat="46.3148" lon="-0.60585">
        <ele>5.1</ele>
        <time>2020-05-31T13:19:58Z</time>
      </trkpt>
      <trkpt lat="46.3148" lon="-0.6059">
        <ele>5.1</ele>
        <time>2020-05-31T13:19:59Z</time>
      </trkpt>
      <trkpt lat="46.3148" lon="-0.60597">
        <ele>5.1</ele>
        <time>2020-05-31T13:20:00Z</time>
      </trkpt>
      <trkpt lat="46.3148" lon="-0.60603">
        <ele>5.1</ele>
        <time>2020-05-31T13:20:01Z</time>
      </trkpt>
      <trkpt lat="46.31479" lon="-0.60608">
        <ele>5.1</ele>
        <time>2020-05-31T13:20:02Z</time>
      </trkpt>
      <trkpt lat="46.31479" lon="-0.60613">
        <ele>5.1</ele>
        <time>2020-05-31T13:20:03Z</time>
      </trkpt>
      <trkpt lat="46.31478" lon="-0.60619">
        <ele>5.1</ele>
        <time>2020-05-31T13:20:04Z</time>
      </trkpt>
      <trkpt lat="46.31478" lon="-0.60625">
        <ele>5.1</ele>
        <time>2020-05-31T13:20:05Z</time>
      </trkpt>
      <trkpt lat="46.31478" lon="-0.6063">
        <ele>5.1</ele>
        <time>2020-05-31T13:20:06Z</time>
      </trkpt>
      <trkpt lat="46.31478" lon="-0.60637">
        <ele>5.1</ele>
        <time>2020-05-31T13:20:07Z</time>
      </trkpt>
      <trkpt lat="46.31478" lon="-0.60643">
        <ele>5.1</ele>
        <time>2020-05-31T13:20:08Z</time>
      </trkpt>
      <trkpt lat="46.31477" lon="-0.6065">
        <ele>5.1</ele>
        <time>2020-05-31T13:20:09Z</time>
      </trkpt>
      <trkpt lat="46.31477" lon="-0.60657">
        <ele>5.2</ele>
        <time>2020-05-31T13:20:10Z</time>
      </trkpt>
      <trkpt lat="46.31476" lon="-0.60664">
        <ele>5.2</ele>
        <time>2020-05-31T13:20:11Z</time>
      </trkpt>
      <trkpt lat="46.31476" lon="-0.60671">
        <ele>5.2</ele>
        <time>2020-05-31T13:20:12Z</time>
      </trkpt>
      <trkpt lat="46.31476" lon="-0.6068">
        <ele>5.2</ele>
        <time>2020-05-31T13:20:13Z</time>
      </trkpt>
      <trkpt lat="46.31477" lon="-0.60688">
        <ele>5.2</ele>
        <time>2020-05-31T13:20:14Z</time>
      </trkpt>
      <trkpt lat="46.31477" lon="-0.60697">
        <ele>5.3</ele>
        <time>2020-05-31T13:20:15Z</time>
      </trkpt>
      <trkpt lat="46.31478" lon="-0.60704">
        <ele>5.3</ele>
        <time>2020-05-31T13:20:16Z</time>
      </trkpt>
      <trkpt lat="46.31479" lon="-0.6071">
        <ele>5.3</ele>
        <time>2020-05-31T13:20:17Z</time>
      </trkpt>
      <trkpt lat="46.31479" lon="-0.60718">
        <ele>5.3</ele>
        <time>2020-05-31T13:20:18Z</time>
      </trkpt>
      <trkpt lat="46.3148" lon="-0.60725">
        <ele>5.4</ele>
        <time>2020-05-31T13:20:19Z</time>
      </trkpt>
      <trkpt lat="46.31481" lon="-0.60732">
        <ele>5.4</ele>
        <time>2020-05-31T13:20:20Z</time>
      </trkpt>
      <trkpt lat="46.31483" lon="-0.60738">
        <ele>5.4</ele>
        <time>2020-05-31T13:20:21Z</time>
      </trkpt>
      <trkpt lat="46.31486" lon="-0.60746">
        <ele>5.4</ele>
        <time>2020-05-31T13:20:22Z</time>
      </trkpt>
      <trkpt lat="46.31488" lon="-0.60753">
        <ele>5.4</ele>
        <time>2020-05-31T13:20:23Z</time>
      </trkpt>
      <trkpt lat="46.31489" lon="-0.6076">
        <ele>5.5</ele>
        <time>2020-05-31T13:20:24Z</time>
      </trkpt>
      <trkpt lat="46.31491" lon="-0.60767">
        <ele>5.5</ele>
        <time>2020-05-31T13:20:25Z</time>
      </trkpt>
      <trkpt lat="46.31492" lon="-0.60774">
        <ele>5.5</ele>
        <time>2020-05-31T13:20:26Z</time>
      </trkpt>
      <trkpt lat="46.31494" lon="-0.6078">
        <ele>5.5</ele>
        <time>2020-05-31T13:20:27Z</time>
      </trkpt>
      <trkpt lat="46.31496" lon="-0.60787">
        <ele>5.5</ele>
        <time>2020-05-31T13:20:28Z</time>
      </trkpt>
      <trkpt lat="46.31496" lon="-0.60794">
        <ele>5.5</ele>
        <time>2020-05-31T13:20:29Z</time>
      </trkpt>
      <trkpt lat="46.31497" lon="-0.60801">
        <ele>5.5</ele>
        <time>2020-05-31T13:20:30Z</time>
      </trkpt>
      <trkpt lat="46.31497" lon="-0.60806">
        <ele>5.5</ele>
        <time>2020-05-31T13:20:31Z</time>
      </trkpt>
      <trkpt lat="46.31496" lon="-0.60813">
        <ele>5.5</ele>
        <time>2020-05-31T13:20:32Z</time>
      </trkpt>
      <trkpt lat="46.31496" lon="-0.60819">
        <ele>5.5</ele>
        <time>2020-05-31T13:20:33Z</time>
      </trkpt>
      <trkpt lat="46.31495" lon="-0.60826">
        <ele>5.5</ele>
        <time>2020-05-31T13:20:34Z</time>
      </trkpt>
      <trkpt lat="46.31494" lon="-0.60833">
        <ele>5.5</ele>
        <time>2020-05-31T13:20:35Z</time>
      </trkpt>
      <trkpt lat="46.31492" lon="-0.6084">
        <ele>5.5</ele>
        <time>2020-05-31T13:20:36Z</time>
      </trkpt>
      <trkpt lat="46.3149" lon="-0.60845">
        <ele>5.5</ele>
        <time>2020-05-31T13:20:37Z</time>
      </trkpt>
      <trkpt lat="46.31487" lon="-0.60852">
        <ele>5.5</ele>
        <time>2020-05-31T13:20:38Z</time>
      </trkpt>
      <trkpt lat="46.31486" lon="-0.60857">
        <ele>5.5</ele>
        <time>2020-05-31T13:20:39Z</time>
      </trkpt>
      <trkpt lat="46.31484" lon="-0.60862">
        <ele>5.5</ele>
        <time>2020-05-31T13:20:40Z</time>
      </trkpt>
      <trkpt lat="46.3148" lon="-0.60866">
        <ele>5.5</ele>
        <time>2020-05-31T13:20:41Z</time>
      </trkpt>
      <trkpt lat="46.31477" lon="-0.60871">
        <ele>5.5</ele>
        <time>2020-05-31T13:20:42Z</time>
      </trkpt>
      <trkpt lat="46.31473" lon="-0.60874">
        <ele>5.5</ele>
        <time>2020-05-31T13:20:43Z</time>
      </trkpt>
      <trkpt lat="46.3147" lon="-0.60878">
        <ele>5.5</ele>
        <time>2020-05-31T13:20:44Z</time>
      </trkpt>
      <trkpt lat="46.31466" lon="-0.60882">
        <ele>5.5</ele>
        <time>2020-05-31T13:20:45Z</time>
      </trkpt>
      <trkpt lat="46.31461" lon="-0.60886">
        <ele>5.4</ele>
        <time>2020-05-31T13:20:46Z</time>
      </trkpt>
      <trkpt lat="46.31456" lon="-0.6089">
        <ele>5.4</ele>
        <time>2020-05-31T13:20:47Z</time>
      </trkpt>
      <trkpt lat="46.31452" lon="-0.60893">
        <ele>5.4</ele>
        <time>2020-05-31T13:20:48Z</time>
      </trkpt>
      <trkpt lat="46.31448" lon="-0.60897">
        <ele>5.4</ele>
        <time>2020-05-31T13:20:49Z</time>
      </trkpt>
      <trkpt lat="46.31444" lon="-0.60901">
        <ele>5.3</ele>
        <time>2020-05-31T13:20:50Z</time>
      </trkpt>
      <trkpt lat="46.3144" lon="-0.60905">
        <ele>5.3</ele>
        <time>2020-05-31T13:20:51Z</time>
      </trkpt>
      <trkpt lat="46.31436" lon="-0.60909">
        <ele>5.3</ele>
        <time>2020-05-31T13:20:52Z</time>
      </trkpt>
      <trkpt lat="46.31432" lon="-0.60914">
        <ele>5.2</ele>
        <time>2020-05-31T13:20:53Z</time>
      </trkpt>
      <trkpt lat="46.31428" lon="-0.60918">
        <ele>5.2</ele>
        <time>2020-05-31T13:20:54Z</time>
      </trkpt>
      <trkpt lat="46.31424" lon="-0.60921">
        <ele>5.1</ele>
        <time>2020-05-31T13:20:55Z</time>
      </trkpt>
      <trkpt lat="46.31419" lon="-0.60925">
        <ele>5</ele>
        <time>2020-05-31T13:20:56Z</time>
      </trkpt>
      <trkpt lat="46.31416" lon="-0.60928">
        <ele>5</ele>
        <time>2020-05-31T13:20:57Z</time>
      </trkpt>
      <trkpt lat="46.31412" lon="-0.60932">
        <ele>4.9</ele>
        <time>2020-05-31T13:20:58Z</time>
      </trkpt>
      <trkpt lat="46.31408" lon="-0.60936">
        <ele>4.8</ele>
        <time>2020-05-31T13:20:59Z</time>
      </trkpt>
      <trkpt lat="46.31404" lon="-0.6094">
        <ele>4.7</ele>
        <time>2020-05-31T13:21:00Z</time>
      </trkpt>
      <trkpt lat="46.314" lon="-0.60944">
        <ele>4.7</ele>
        <time>2020-05-31T13:21:01Z</time>
      </trkpt>
      <trkpt lat="46.31395" lon="-0.60948">
        <ele>4.6</ele>
        <time>2020-05-31T13:21:02Z</time>
      </trkpt>
      <trkpt lat="46.31388" lon="-0.60956">
        <ele>4.6</ele>
        <time>2020-05-31T13:21:03Z</time>
      </trkpt>
      <trkpt lat="46.31383" lon="-0.60963">
        <ele>4.5</ele>
        <time>2020-05-31T13:21:04Z</time>
      </trkpt>
      <trkpt lat="46.31377" lon="-0.60969">
        <ele>4.5</ele>
        <time>2020-05-31T13:21:05Z</time>
      </trkpt>
      <trkpt lat="46.31372" lon="-0.60974">
        <ele>4.5</ele>
        <time>2020-05-31T13:21:06Z</time>
      </trkpt>
      <trkpt lat="46.31366" lon="-0.60979">
        <ele>4.5</ele>
        <time>2020-05-31T13:21:07Z</time>
      </trkpt>
      <trkpt lat="46.3136" lon="-0.60983">
        <ele>4.5</ele>
        <time>2020-05-31T13:21:08Z</time>
      </trkpt>
      <trkpt lat="46.31354" lon="-0.60988">
        <ele>4.5</ele>
        <time>2020-05-31T13:21:09Z</time>
      </trkpt>
      <trkpt lat="46.3135" lon="-0.60992">
        <ele>4.4</ele>
        <time>2020-05-31T13:21:10Z</time>
      </trkpt>
      <trkpt lat="46.31345" lon="-0.60997">
        <ele>4.4</ele>
        <time>2020-05-31T13:21:11Z</time>
      </trkpt>
      <trkpt lat="46.31341" lon="-0.61001">
        <ele>4.4</ele>
        <time>2020-05-31T13:21:12Z</time>
      </trkpt>
      <trkpt lat="46.31337" lon="-0.61007">
        <ele>4.4</ele>
        <time>2020-05-31T13:21:13Z</time>
      </trkpt>
      <trkpt lat="46.31333" lon="-0.61011">
        <ele>4.4</ele>
        <time>2020-05-31T13:21:14Z</time>
      </trkpt>
      <trkpt lat="46.31329" lon="-0.61016">
        <ele>4.4</ele>
        <time>2020-05-31T13:21:15Z</time>
      </trkpt>
      <trkpt lat="46.31325" lon="-0.61022">
        <ele>4.4</ele>
        <time>2020-05-31T13:21:16Z</time>
      </trkpt>
      <trkpt lat="46.31321" lon="-0.61028">
        <ele>4.4</ele>
        <time>2020-05-31T13:21:17Z</time>
      </trkpt>
      <trkpt lat="46.31317" lon="-0.61033">
        <ele>4.3</ele>
        <time>2020-05-31T13:21:18Z</time>
      </trkpt>
      <trkpt lat="46.31315" lon="-0.6104">
        <ele>4.3</ele>
        <time>2020-05-31T13:21:19Z</time>
      </trkpt>
      <trkpt lat="46.31313" lon="-0.61046">
        <ele>4.3</ele>
        <time>2020-05-31T13:21:20Z</time>
      </trkpt>
      <trkpt lat="46.31311" lon="-0.61053">
        <ele>4.2</ele>
        <time>2020-05-31T13:21:21Z</time>
      </trkpt>
      <trkpt lat="46.31309" lon="-0.61061">
        <ele>4.2</ele>
        <time>2020-05-31T13:21:22Z</time>
      </trkpt>
      <trkpt lat="46.31308" lon="-0.61069">
        <ele>4.2</ele>
        <time>2020-05-31T13:21:23Z</time>
      </trkpt>
      <trkpt lat="46.31306" lon="-0.61078">
        <ele>4.2</ele>
        <time>2020-05-31T13:21:24Z</time>
      </trkpt>
      <trkpt lat="46.31305" lon="-0.61087">
        <ele>4.2</ele>
        <time>2020-05-31T13:21:25Z</time>
      </trkpt>
      <trkpt lat="46.31304" lon="-0.61096">
        <ele>4.2</ele>
        <time>2020-05-31T13:21:26Z</time>
      </trkpt>
      <trkpt lat="46.31305" lon="-0.61104">
        <ele>4.2</ele>
        <time>2020-05-31T13:21:27Z</time>
      </trkpt>
      <trkpt lat="46.31305" lon="-0.61114">
        <ele>4.2</ele>
        <time>2020-05-31T13:21:28Z</time>
      </trkpt>
      <trkpt lat="46.31304" lon="-0.61125">
        <ele>4.2</ele>
        <time>2020-05-31T13:21:29Z</time>
      </trkpt>
      <trkpt lat="46.31304" lon="-0.61137">
        <ele>4.2</ele>
        <time>2020-05-31T13:21:30Z</time>
      </trkpt>
      <trkpt lat="46.31305" lon="-0.61147">
        <ele>4.2</ele>
        <time>2020-05-31T13:21:31Z</time>
      </trkpt>
      <trkpt lat="46.31305" lon="-0.61158">
        <ele>4.2</ele>
        <time>2020-05-31T13:21:32Z</time>
      </trkpt>
      <trkpt lat="46.31307" lon="-0.61168">
        <ele>4.2</ele>
        <time>2020-05-31T13:21:33Z</time>
      </trkpt>
      <trkpt lat="46.31309" lon="-0.61176">
        <ele>4.1</ele>
        <time>2020-05-31T13:21:34Z</time>
      </trkpt>
      <trkpt lat="46.3131" lon="-0.61184">
        <ele>4.1</ele>
        <time>2020-05-31T13:21:35Z</time>
      </trkpt>
      <trkpt lat="46.31312" lon="-0.61193">
        <ele>4.1</ele>
        <time>2020-05-31T13:21:36Z</time>
      </trkpt>
      <trkpt lat="46.31314" lon="-0.612">
        <ele>4.2</ele>
        <time>2020-05-31T13:21:37Z</time>
      </trkpt>
      <trkpt lat="46.31315" lon="-0.61209">
        <ele>4.2</ele>
        <time>2020-05-31T13:21:38Z</time>
      </trkpt>
      <trkpt lat="46.31317" lon="-0.61218">
        <ele>4.2</ele>
        <time>2020-05-31T13:21:39Z</time>
      </trkpt>
      <trkpt lat="46.31318" lon="-0.61226">
        <ele>4.3</ele>
        <time>2020-05-31T13:21:40Z</time>
      </trkpt>
      <trkpt lat="46.31319" lon="-0.61235">
        <ele>4.3</ele>
        <time>2020-05-31T13:21:41Z</time>
      </trkpt>
      <trkpt lat="46.31321" lon="-0.61241">
        <ele>4.3</ele>
        <time>2020-05-31T13:21:42Z</time>
      </trkpt>
      <trkpt lat="46.31323" lon="-0.61249">
        <ele>4.3</ele>
        <time>2020-05-31T13:21:43Z</time>
      </trkpt>
      <trkpt lat="46.31325" lon="-0.61256">
        <ele>4.3</ele>
        <time>2020-05-31T13:21:44Z</time>
      </trkpt>
      <trkpt lat="46.31326" lon="-0.61262">
        <ele>4.3</ele>
        <time>2020-05-31T13:21:45Z</time>
      </trkpt>
      <trkpt lat="46.31328" lon="-0.61269">
        <ele>4.3</ele>
        <time>2020-05-31T13:21:46Z</time>
      </trkpt>
      <trkpt lat="46.31329" lon="-0.61276">
        <ele>4.4</ele>
        <time>2020-05-31T13:21:47Z</time>
      </trkpt>
      <trkpt lat="46.3133" lon="-0.61285">
        <ele>4.4</ele>
        <time>2020-05-31T13:21:48Z</time>
      </trkpt>
      <trkpt lat="46.31331" lon="-0.61294">
        <ele>4.4</ele>
        <time>2020-05-31T13:21:49Z</time>
      </trkpt>
      <trkpt lat="46.31331" lon="-0.61301">
        <ele>4.3</ele>
        <time>2020-05-31T13:21:50Z</time>
      </trkpt>
      <trkpt lat="46.31331" lon="-0.6131">
        <ele>4.3</ele>
        <time>2020-05-31T13:21:51Z</time>
      </trkpt>
      <trkpt lat="46.31331" lon="-0.61317">
        <ele>4.3</ele>
        <time>2020-05-31T13:21:52Z</time>
      </trkpt>
      <trkpt lat="46.3133" lon="-0.61325">
        <ele>4.3</ele>
        <time>2020-05-31T13:21:53Z</time>
      </trkpt>
      <trkpt lat="46.3133" lon="-0.61334">
        <ele>4.3</ele>
        <time>2020-05-31T13:21:54Z</time>
      </trkpt>
      <trkpt lat="46.31329" lon="-0.61344">
        <ele>4.3</ele>
        <time>2020-05-31T13:21:55Z</time>
      </trkpt>
      <trkpt lat="46.31327" lon="-0.61353">
        <ele>4.3</ele>
        <time>2020-05-31T13:21:56Z</time>
      </trkpt>
      <trkpt lat="46.31325" lon="-0.61364">
        <ele>4.3</ele>
        <time>2020-05-31T13:21:57Z</time>
      </trkpt>
      <trkpt lat="46.31323" lon="-0.61376">
        <ele>4.3</ele>
        <time>2020-05-31T13:21:58Z</time>
      </trkpt>
      <trkpt lat="46.31321" lon="-0.61385">
        <ele>4.3</ele>
        <time>2020-05-31T13:21:59Z</time>
      </trkpt>
      <trkpt lat="46.31318" lon="-0.61394">
        <ele>4.3</ele>
        <time>2020-05-31T13:22:00Z</time>
      </trkpt>
      <trkpt lat="46.31314" lon="-0.61402">
        <ele>4.4</ele>
        <time>2020-05-31T13:22:01Z</time>
      </trkpt>
      <trkpt lat="46.3131" lon="-0.61411">
        <ele>4.4</ele>
        <time>2020-05-31T13:22:02Z</time>
      </trkpt>
      <trkpt lat="46.31309" lon="-0.61419">
        <ele>4.4</ele>
        <time>2020-05-31T13:22:03Z</time>
      </trkpt>
      <trkpt lat="46.31306" lon="-0.61426">
        <ele>4.4</ele>
        <time>2020-05-31T13:22:04Z</time>
      </trkpt>
      <trkpt lat="46.31302" lon="-0.61433">
        <ele>4.4</ele>
        <time>2020-05-31T13:22:05Z</time>
      </trkpt>
      <trkpt lat="46.31299" lon="-0.61441">
        <ele>4.5</ele>
        <time>2020-05-31T13:22:06Z</time>
      </trkpt>
      <trkpt lat="46.31295" lon="-0.61449">
        <ele>4.6</ele>
        <time>2020-05-31T13:22:07Z</time>
      </trkpt>
      <trkpt lat="46.31291" lon="-0.61456">
        <ele>4.6</ele>
        <time>2020-05-31T13:22:08Z</time>
      </trkpt>
      <trkpt lat="46.31288" lon="-0.61463">
        <ele>4.7</ele>
        <time>2020-05-31T13:22:09Z</time>
      </trkpt>
      <trkpt lat="46.31285" lon="-0.61471">
        <ele>4.7</ele>
        <time>2020-05-31T13:22:10Z</time>
      </trkpt>
      <trkpt lat="46.31282" lon="-0.61478">
        <ele>4.8</ele>
        <time>2020-05-31T13:22:11Z</time>
      </trkpt>
      <trkpt lat="46.31279" lon="-0.61482">
        <ele>4.8</ele>
        <time>2020-05-31T13:22:12Z</time>
      </trkpt>
      <trkpt lat="46.31276" lon="-0.61489">
        <ele>4.9</ele>
        <time>2020-05-31T13:22:13Z</time>
      </trkpt>
      <trkpt lat="46.31273" lon="-0.61496">
        <ele>4.9</ele>
        <time>2020-05-31T13:22:14Z</time>
      </trkpt>
      <trkpt lat="46.31269" lon="-0.61503">
        <ele>4.9</ele>
        <time>2020-05-31T13:22:15Z</time>
      </trkpt>
      <trkpt lat="46.31266" lon="-0.6151">
        <ele>5</ele>
        <time>2020-05-31T13:22:16Z</time>
      </trkpt>
      <trkpt lat="46.31263" lon="-0.61516">
        <ele>5</ele>
        <time>2020-05-31T13:22:17Z</time>
      </trkpt>
      <trkpt lat="46.3126" lon="-0.61522">
        <ele>5</ele>
        <time>2020-05-31T13:22:18Z</time>
      </trkpt>
      <trkpt lat="46.31256" lon="-0.61528">
        <ele>5.1</ele>
        <time>2020-05-31T13:22:19Z</time>
      </trkpt>
      <trkpt lat="46.31253" lon="-0.61535">
        <ele>5.1</ele>
        <time>2020-05-31T13:22:20Z</time>
      </trkpt>
      <trkpt lat="46.3125" lon="-0.61542">
        <ele>5.1</ele>
        <time>2020-05-31T13:22:21Z</time>
      </trkpt>
      <trkpt lat="46.31247" lon="-0.61548">
        <ele>5.1</ele>
        <time>2020-05-31T13:22:22Z</time>
      </trkpt>
      <trkpt lat="46.31243" lon="-0.61555">
        <ele>5.2</ele>
        <time>2020-05-31T13:22:23Z</time>
      </trkpt>
      <trkpt lat="46.3124" lon="-0.6156">
        <ele>5.2</ele>
        <time>2020-05-31T13:22:24Z</time>
      </trkpt>
      <trkpt lat="46.31237" lon="-0.61565">
        <ele>5.2</ele>
        <time>2020-05-31T13:22:25Z</time>
      </trkpt>
      <trkpt lat="46.31235" lon="-0.61571">
        <ele>5.2</ele>
        <time>2020-05-31T13:22:26Z</time>
      </trkpt>
      <trkpt lat="46.31232" lon="-0.61577">
        <ele>5.2</ele>
        <time>2020-05-31T13:22:27Z</time>
      </trkpt>
      <trkpt lat="46.31229" lon="-0.61584">
        <ele>5.3</ele>
        <time>2020-05-31T13:22:28Z</time>
      </trkpt>
      <trkpt lat="46.31226" lon="-0.6159">
        <ele>5.3</ele>
        <time>2020-05-31T13:22:29Z</time>
      </trkpt>
      <trkpt lat="46.31222" lon="-0.61595">
        <ele>5.3</ele>
        <time>2020-05-31T13:22:30Z</time>
      </trkpt>
      <trkpt lat="46.31217" lon="-0.61598">
        <ele>5.3</ele>
        <time>2020-05-31T13:22:31Z</time>
      </trkpt>
      <trkpt lat="46.31211" lon="-0.616">
        <ele>5.3</ele>
        <time>2020-05-31T13:22:32Z</time>
      </trkpt>
      <trkpt lat="46.31206" lon="-0.61602">
        <ele>5.3</ele>
        <time>2020-05-31T13:22:33Z</time>
      </trkpt>
      <trkpt lat="46.31202" lon="-0.61605">
        <ele>5.3</ele>
        <time>2020-05-31T13:22:34Z</time>
      </trkpt>
      <trkpt lat="46.31197" lon="-0.61609">
        <ele>5.3</ele>
        <time>2020-05-31T13:22:35Z</time>
      </trkpt>
      <trkpt lat="46.31192" lon="-0.61613">
        <ele>5.2</ele>
        <time>2020-05-31T13:22:36Z</time>
      </trkpt>
      <trkpt lat="46.31187" lon="-0.61616">
        <ele>5.2</ele>
        <time>2020-05-31T13:22:37Z</time>
      </trkpt>
      <trkpt lat="46.31182" lon="-0.61621">
        <ele>5.2</ele>
        <time>2020-05-31T13:22:38Z</time>
      </trkpt>
      <trkpt lat="46.31176" lon="-0.61625">
        <ele>5.2</ele>
        <time>2020-05-31T13:22:39Z</time>
      </trkpt>
      <trkpt lat="46.31171" lon="-0.61629">
        <ele>5.2</ele>
        <time>2020-05-31T13:22:40Z</time>
      </trkpt>
      <trkpt lat="46.31166" lon="-0.61638">
        <ele>5.2</ele>
        <time>2020-05-31T13:22:41Z</time>
      </trkpt>
      <trkpt lat="46.31162" lon="-0.61642">
        <ele>5.2</ele>
        <time>2020-05-31T13:22:42Z</time>
      </trkpt>
      <trkpt lat="46.31158" lon="-0.61646">
        <ele>5.1</ele>
        <time>2020-05-31T13:22:43Z</time>
      </trkpt>
      <trkpt lat="46.31154" lon="-0.6165">
        <ele>5.1</ele>
        <time>2020-05-31T13:22:44Z</time>
      </trkpt>
      <trkpt lat="46.31149" lon="-0.61654">
        <ele>5.1</ele>
        <time>2020-05-31T13:22:45Z</time>
      </trkpt>
      <trkpt lat="46.31144" lon="-0.61657">
        <ele>5.1</ele>
        <time>2020-05-31T13:22:46Z</time>
      </trkpt>
      <trkpt lat="46.31141" lon="-0.61659">
        <ele>5.1</ele>
        <time>2020-05-31T13:22:47Z</time>
      </trkpt>
      <trkpt lat="46.31137" lon="-0.61661">
        <ele>5.1</ele>
        <time>2020-05-31T13:22:48Z</time>
      </trkpt>
      <trkpt lat="46.31133" lon="-0.61664">
        <ele>5.1</ele>
        <time>2020-05-31T13:22:49Z</time>
      </trkpt>
      <trkpt lat="46.31128" lon="-0.61667">
        <ele>5.1</ele>
        <time>2020-05-31T13:22:50Z</time>
      </trkpt>
      <trkpt lat="46.31124" lon="-0.61671">
        <ele>5.1</ele>
        <time>2020-05-31T13:22:51Z</time>
      </trkpt>
      <trkpt lat="46.3112" lon="-0.61675">
        <ele>5</ele>
        <time>2020-05-31T13:22:52Z</time>
      </trkpt>
      <trkpt lat="46.31115" lon="-0.61679">
        <ele>5</ele>
        <time>2020-05-31T13:22:53Z</time>
      </trkpt>
      <trkpt lat="46.31111" lon="-0.61683">
        <ele>5</ele>
        <time>2020-05-31T13:22:54Z</time>
      </trkpt>
      <trkpt lat="46.31106" lon="-0.61687">
        <ele>5</ele>
        <time>2020-05-31T13:22:55Z</time>
      </trkpt>
      <trkpt lat="46.31102" lon="-0.61692">
        <ele>5</ele>
        <time>2020-05-31T13:22:56Z</time>
      </trkpt>
      <trkpt lat="46.31098" lon="-0.61697">
        <ele>5</ele>
        <time>2020-05-31T13:22:57Z</time>
      </trkpt>
      <trkpt lat="46.31094" lon="-0.61702">
        <ele>5</ele>
        <time>2020-05-31T13:22:58Z</time>
      </trkpt>
      <trkpt lat="46.3109" lon="-0.61709">
        <ele>4.9</ele>
        <time>2020-05-31T13:22:59Z</time>
      </trkpt>
      <trkpt lat="46.31087" lon="-0.61717">
        <ele>4.9</ele>
        <time>2020-05-31T13:23:00Z</time>
      </trkpt>
      <trkpt lat="46.31084" lon="-0.61725">
        <ele>4.9</ele>
        <time>2020-05-31T13:23:01Z</time>
      </trkpt>
      <trkpt lat="46.3108" lon="-0.61733">
        <ele>4.9</ele>
        <time>2020-05-31T13:23:02Z</time>
      </trkpt>
      <trkpt lat="46.31077" lon="-0.61742">
        <ele>4.9</ele>
        <time>2020-05-31T13:23:03Z</time>
      </trkpt>
      <trkpt lat="46.31073" lon="-0.61751">
        <ele>4.9</ele>
        <time>2020-05-31T13:23:04Z</time>
      </trkpt>
      <trkpt lat="46.31069" lon="-0.61759">
        <ele>4.8</ele>
        <time>2020-05-31T13:23:05Z</time>
      </trkpt>
      <trkpt lat="46.31066" lon="-0.61766">
        <ele>4.8</ele>
        <time>2020-05-31T13:23:06Z</time>
      </trkpt>
      <trkpt lat="46.31063" lon="-0.61774">
        <ele>4.8</ele>
        <time>2020-05-31T13:23:07Z</time>
      </trkpt>
      <trkpt lat="46.3106" lon="-0.61784">
        <ele>4.7</ele>
        <time>2020-05-31T13:23:08Z</time>
      </trkpt>
      <trkpt lat="46.31058" lon="-0.61794">
        <ele>4.6</ele>
        <time>2020-05-31T13:23:09Z</time>
      </trkpt>
      <trkpt lat="46.31055" lon="-0.61804">
        <ele>4.6</ele>
        <time>2020-05-31T13:23:10Z</time>
      </trkpt>
      <trkpt lat="46.31053" lon="-0.61813">
        <ele>4.6</ele>
        <time>2020-05-31T13:23:11Z</time>
      </trkpt>
      <trkpt lat="46.3105" lon="-0.61822">
        <ele>4.5</ele>
        <time>2020-05-31T13:23:12Z</time>
      </trkpt>
      <trkpt lat="46.31047" lon="-0.61832">
        <ele>4.5</ele>
        <time>2020-05-31T13:23:13Z</time>
      </trkpt>
      <trkpt lat="46.31046" lon="-0.61842">
        <ele>4.5</ele>
        <time>2020-05-31T13:23:14Z</time>
      </trkpt>
      <trkpt lat="46.31044" lon="-0.6185">
        <ele>4.4</ele>
        <time>2020-05-31T13:23:15Z</time>
      </trkpt>
      <trkpt lat="46.31043" lon="-0.6186">
        <ele>4.4</ele>
        <time>2020-05-31T13:23:16Z</time>
      </trkpt>
      <trkpt lat="46.31041" lon="-0.61869">
        <ele>4.4</ele>
        <time>2020-05-31T13:23:17Z</time>
      </trkpt>
      <trkpt lat="46.31039" lon="-0.61878">
        <ele>4.4</ele>
        <time>2020-05-31T13:23:18Z</time>
      </trkpt>
      <trkpt lat="46.31038" lon="-0.61886">
        <ele>4.4</ele>
        <time>2020-05-31T13:23:19Z</time>
      </trkpt>
      <trkpt lat="46.31037" lon="-0.61895">
        <ele>4.3</ele>
        <time>2020-05-31T13:23:20Z</time>
      </trkpt>
      <trkpt lat="46.31034" lon="-0.61902">
        <ele>4.3</ele>
        <time>2020-05-31T13:23:21Z</time>
      </trkpt>
      <trkpt lat="46.31033" lon="-0.61911">
        <ele>4.3</ele>
        <time>2020-05-31T13:23:22Z</time>
      </trkpt>
      <trkpt lat="46.31032" lon="-0.6192">
        <ele>4.3</ele>
        <time>2020-05-31T13:23:23Z</time>
      </trkpt>
      <trkpt lat="46.31031" lon="-0.61928">
        <ele>4.3</ele>
        <time>2020-05-31T13:23:24Z</time>
      </trkpt>
      <trkpt lat="46.31029" lon="-0.61937">
        <ele>4.3</ele>
        <time>2020-05-31T13:23:25Z</time>
      </trkpt>
      <trkpt lat="46.31028" lon="-0.61947">
        <ele>4.3</ele>
        <time>2020-05-31T13:23:26Z</time>
      </trkpt>
      <trkpt lat="46.31027" lon="-0.61955">
        <ele>4.3</ele>
        <time>2020-05-31T13:23:27Z</time>
      </trkpt>
      <trkpt lat="46.31026" lon="-0.61965">
        <ele>4.3</ele>
        <time>2020-05-31T13:23:28Z</time>
      </trkpt>
      <trkpt lat="46.31025" lon="-0.61973">
        <ele>4.3</ele>
        <time>2020-05-31T13:23:29Z</time>
      </trkpt>
      <trkpt lat="46.31025" lon="-0.61982">
        <ele>4.3</ele>
        <time>2020-05-31T13:23:30Z</time>
      </trkpt>
      <trkpt lat="46.31024" lon="-0.6199">
        <ele>4.3</ele>
        <time>2020-05-31T13:23:31Z</time>
      </trkpt>
      <trkpt lat="46.31025" lon="-0.61995">
        <ele>4.3</ele>
        <time>2020-05-31T13:23:32Z</time>
      </trkpt>
      <trkpt lat="46.31025" lon="-0.62003">
        <ele>4.3</ele>
        <time>2020-05-31T13:23:33Z</time>
      </trkpt>
      <trkpt lat="46.31023" lon="-0.62012">
        <ele>4.3</ele>
        <time>2020-05-31T13:23:34Z</time>
      </trkpt>
      <trkpt lat="46.31022" lon="-0.62021">
        <ele>4.3</ele>
        <time>2020-05-31T13:23:35Z</time>
      </trkpt>
      <trkpt lat="46.3102" lon="-0.62031">
        <ele>4.3</ele>
        <time>2020-05-31T13:23:36Z</time>
      </trkpt>
      <trkpt lat="46.31019" lon="-0.6204">
        <ele>4.3</ele>
        <time>2020-05-31T13:23:37Z</time>
      </trkpt>
      <trkpt lat="46.31017" lon="-0.62049">
        <ele>4.4</ele>
        <time>2020-05-31T13:23:38Z</time>
      </trkpt>
      <trkpt lat="46.31016" lon="-0.62058">
        <ele>4.4</ele>
        <time>2020-05-31T13:23:39Z</time>
      </trkpt>
      <trkpt lat="46.31016" lon="-0.62065">
        <ele>4.4</ele>
        <time>2020-05-31T13:23:40Z</time>
      </trkpt>
      <trkpt lat="46.31015" lon="-0.62074">
        <ele>4.4</ele>
        <time>2020-05-31T13:23:41Z</time>
      </trkpt>
      <trkpt lat="46.31013" lon="-0.62083">
        <ele>4.4</ele>
        <time>2020-05-31T13:23:42Z</time>
      </trkpt>
      <trkpt lat="46.31011" lon="-0.62092">
        <ele>4.4</ele>
        <time>2020-05-31T13:23:43Z</time>
      </trkpt>
      <trkpt lat="46.31011" lon="-0.62102">
        <ele>4.4</ele>
        <time>2020-05-31T13:23:44Z</time>
      </trkpt>
      <trkpt lat="46.3101" lon="-0.62113">
        <ele>4.4</ele>
        <time>2020-05-31T13:23:45Z</time>
      </trkpt>
      <trkpt lat="46.31009" lon="-0.62124">
        <ele>4.4</ele>
        <time>2020-05-31T13:23:46Z</time>
      </trkpt>
      <trkpt lat="46.31009" lon="-0.62134">
        <ele>4.4</ele>
        <time>2020-05-31T13:23:47Z</time>
      </trkpt>
      <trkpt lat="46.31008" lon="-0.62145">
        <ele>4.5</ele>
        <time>2020-05-31T13:23:48Z</time>
      </trkpt>
      <trkpt lat="46.31007" lon="-0.62154">
        <ele>4.5</ele>
        <time>2020-05-31T13:23:49Z</time>
      </trkpt>
      <trkpt lat="46.31006" lon="-0.62163">
        <ele>4.5</ele>
        <time>2020-05-31T13:23:50Z</time>
      </trkpt>
      <trkpt lat="46.31006" lon="-0.62173">
        <ele>4.5</ele>
        <time>2020-05-31T13:23:51Z</time>
      </trkpt>
      <trkpt lat="46.31007" lon="-0.62182">
        <ele>4.4</ele>
        <time>2020-05-31T13:23:52Z</time>
      </trkpt>
      <trkpt lat="46.31009" lon="-0.62188">
        <ele>4.4</ele>
        <time>2020-05-31T13:23:53Z</time>
      </trkpt>
      <trkpt lat="46.3101" lon="-0.62196">
        <ele>4.4</ele>
        <time>2020-05-31T13:23:54Z</time>
      </trkpt>
      <trkpt lat="46.31011" lon="-0.62206">
        <ele>4.4</ele>
        <time>2020-05-31T13:23:55Z</time>
      </trkpt>
      <trkpt lat="46.31012" lon="-0.62213">
        <ele>4.4</ele>
        <time>2020-05-31T13:23:56Z</time>
      </trkpt>
      <trkpt lat="46.31013" lon="-0.62221">
        <ele>4.4</ele>
        <time>2020-05-31T13:23:57Z</time>
      </trkpt>
      <trkpt lat="46.31014" lon="-0.62229">
        <ele>4.4</ele>
        <time>2020-05-31T13:23:58Z</time>
      </trkpt>
      <trkpt lat="46.31015" lon="-0.62237">
        <ele>4.4</ele>
        <time>2020-05-31T13:23:59Z</time>
      </trkpt>
      <trkpt lat="46.31016" lon="-0.62245">
        <ele>4.4</ele>
        <time>2020-05-31T13:24:00Z</time>
      </trkpt>
      <trkpt lat="46.31018" lon="-0.62254">
        <ele>4.5</ele>
        <time>2020-05-31T13:24:01Z</time>
      </trkpt>
      <trkpt lat="46.31019" lon="-0.62263">
        <ele>4.5</ele>
        <time>2020-05-31T13:24:02Z</time>
      </trkpt>
      <trkpt lat="46.31021" lon="-0.62271">
        <ele>4.5</ele>
        <time>2020-05-31T13:24:03Z</time>
      </trkpt>
      <trkpt lat="46.31024" lon="-0.62279">
        <ele>4.5</ele>
        <time>2020-05-31T13:24:04Z</time>
      </trkpt>
      <trkpt lat="46.31027" lon="-0.62286">
        <ele>4.5</ele>
        <time>2020-05-31T13:24:05Z</time>
      </trkpt>
      <trkpt lat="46.3103" lon="-0.62295">
        <ele>4.5</ele>
        <time>2020-05-31T13:24:06Z</time>
      </trkpt>
      <trkpt lat="46.31032" lon="-0.62304">
        <ele>4.5</ele>
        <time>2020-05-31T13:24:07Z</time>
      </trkpt>
      <trkpt lat="46.31035" lon="-0.62312">
        <ele>4.5</ele>
        <time>2020-05-31T13:24:08Z</time>
      </trkpt>
      <trkpt lat="46.31038" lon="-0.62321">
        <ele>4.6</ele>
        <time>2020-05-31T13:24:09Z</time>
      </trkpt>
      <trkpt lat="46.31041" lon="-0.62328">
        <ele>4.6</ele>
        <time>2020-05-31T13:24:10Z</time>
      </trkpt>
      <trkpt lat="46.31044" lon="-0.62337">
        <ele>4.6</ele>
        <time>2020-05-31T13:24:11Z</time>
      </trkpt>
      <trkpt lat="46.31047" lon="-0.62348">
        <ele>4.6</ele>
        <time>2020-05-31T13:24:12Z</time>
      </trkpt>
      <trkpt lat="46.31049" lon="-0.62355">
        <ele>4.6</ele>
        <time>2020-05-31T13:24:13Z</time>
      </trkpt>
      <trkpt lat="46.31052" lon="-0.62363">
        <ele>4.6</ele>
        <time>2020-05-31T13:24:14Z</time>
      </trkpt>
      <trkpt lat="46.31054" lon="-0.62367">
        <ele>4.6</ele>
        <time>2020-05-31T13:24:15Z</time>
      </trkpt>
      <trkpt lat="46.31057" lon="-0.62373">
        <ele>4.6</ele>
        <time>2020-05-31T13:24:16Z</time>
      </trkpt>
      <trkpt lat="46.31059" lon="-0.62378">
        <ele>4.6</ele>
        <time>2020-05-31T13:24:17Z</time>
      </trkpt>
      <trkpt lat="46.31062" lon="-0.62384">
        <ele>4.6</ele>
        <time>2020-05-31T13:24:18Z</time>
      </trkpt>
      <trkpt lat="46.31064" lon="-0.62391">
        <ele>4.7</ele>
        <time>2020-05-31T13:24:19Z</time>
      </trkpt>
      <trkpt lat="46.31067" lon="-0.62399">
        <ele>4.7</ele>
        <time>2020-05-31T13:24:20Z</time>
      </trkpt>
      <trkpt lat="46.3107" lon="-0.62406">
        <ele>4.7</ele>
        <time>2020-05-31T13:24:21Z</time>
      </trkpt>
      <trkpt lat="46.31072" lon="-0.62413">
        <ele>4.7</ele>
        <time>2020-05-31T13:24:22Z</time>
      </trkpt>
      <trkpt lat="46.31074" lon="-0.62419">
        <ele>4.7</ele>
        <time>2020-05-31T13:24:23Z</time>
      </trkpt>
      <trkpt lat="46.31076" lon="-0.62425">
        <ele>4.7</ele>
        <time>2020-05-31T13:24:24Z</time>
      </trkpt>
      <trkpt lat="46.31077" lon="-0.62432">
        <ele>4.8</ele>
        <time>2020-05-31T13:24:25Z</time>
      </trkpt>
      <trkpt lat="46.31079" lon="-0.62439">
        <ele>4.8</ele>
        <time>2020-05-31T13:24:26Z</time>
      </trkpt>
      <trkpt lat="46.3108" lon="-0.62445">
        <ele>4.8</ele>
        <time>2020-05-31T13:24:27Z</time>
      </trkpt>
      <trkpt lat="46.31082" lon="-0.6245">
        <ele>4.8</ele>
        <time>2020-05-31T13:24:28Z</time>
      </trkpt>
      <trkpt lat="46.31084" lon="-0.62456">
        <ele>4.8</ele>
        <time>2020-05-31T13:24:29Z</time>
      </trkpt>
      <trkpt lat="46.31086" lon="-0.62462">
        <ele>4.8</ele>
        <time>2020-05-31T13:24:30Z</time>
      </trkpt>
      <trkpt lat="46.31088" lon="-0.62468">
        <ele>4.8</ele>
        <time>2020-05-31T13:24:31Z</time>
      </trkpt>
      <trkpt lat="46.3109" lon="-0.62474">
        <ele>4.8</ele>
        <time>2020-05-31T13:24:32Z</time>
      </trkpt>
      <trkpt lat="46.31092" lon="-0.6248">
        <ele>4.8</ele>
        <time>2020-05-31T13:24:33Z</time>
      </trkpt>
      <trkpt lat="46.31094" lon="-0.62487">
        <ele>4.8</ele>
        <time>2020-05-31T13:24:34Z</time>
      </trkpt>
      <trkpt lat="46.31097" lon="-0.62493">
        <ele>4.8</ele>
        <time>2020-05-31T13:24:35Z</time>
      </trkpt>
      <trkpt lat="46.311" lon="-0.62499">
        <ele>4.8</ele>
        <time>2020-05-31T13:24:36Z</time>
      </trkpt>
      <trkpt lat="46.31103" lon="-0.62506">
        <ele>4.8</ele>
        <time>2020-05-31T13:24:37Z</time>
      </trkpt>
      <trkpt lat="46.31105" lon="-0.62512">
        <ele>4.8</ele>
        <time>2020-05-31T13:24:38Z</time>
      </trkpt>
      <trkpt lat="46.31108" lon="-0.62519">
        <ele>4.8</ele>
        <time>2020-05-31T13:24:39Z</time>
      </trkpt>
      <trkpt lat="46.31111" lon="-0.62526">
        <ele>4.9</ele>
        <time>2020-05-31T13:24:40Z</time>
      </trkpt>
      <trkpt lat="46.31113" lon="-0.62532">
        <ele>4.9</ele>
        <time>2020-05-31T13:24:41Z</time>
      </trkpt>
      <trkpt lat="46.31116" lon="-0.62539">
        <ele>4.9</ele>
        <time>2020-05-31T13:24:42Z</time>
      </trkpt>
      <trkpt lat="46.31119" lon="-0.62546">
        <ele>4.9</ele>
        <time>2020-05-31T13:24:43Z</time>
      </trkpt>
      <trkpt lat="46.31122" lon="-0.62552">
        <ele>4.9</ele>
        <time>2020-05-31T13:24:44Z</time>
      </trkpt>
      <trkpt lat="46.31124" lon="-0.62559">
        <ele>4.9</ele>
        <time>2020-05-31T13:24:45Z</time>
      </trkpt>
      <trkpt lat="46.31128" lon="-0.62566">
        <ele>4.9</ele>
        <time>2020-05-31T13:24:46Z</time>
      </trkpt>
      <trkpt lat="46.31131" lon="-0.62573">
        <ele>4.9</ele>
        <time>2020-05-31T13:24:47Z</time>
      </trkpt>
      <trkpt lat="46.31134" lon="-0.62579">
        <ele>5</ele>
        <time>2020-05-31T13:24:48Z</time>
      </trkpt>
      <trkpt lat="46.31137" lon="-0.62585">
        <ele>5</ele>
        <time>2020-05-31T13:24:49Z</time>
      </trkpt>
      <trkpt lat="46.31139" lon="-0.62591">
        <ele>5</ele>
        <time>2020-05-31T13:24:50Z</time>
      </trkpt>
      <trkpt lat="46.31142" lon="-0.62597">
        <ele>5</ele>
        <time>2020-05-31T13:24:51Z</time>
      </trkpt>
      <trkpt lat="46.31144" lon="-0.62602">
        <ele>5</ele>
        <time>2020-05-31T13:24:52Z</time>
      </trkpt>
      <trkpt lat="46.31147" lon="-0.62607">
        <ele>5</ele>
        <time>2020-05-31T13:24:53Z</time>
      </trkpt>
      <trkpt lat="46.3115" lon="-0.62612">
        <ele>5</ele>
        <time>2020-05-31T13:24:54Z</time>
      </trkpt>
      <trkpt lat="46.31154" lon="-0.62618">
        <ele>5</ele>
        <time>2020-05-31T13:24:55Z</time>
      </trkpt>
      <trkpt lat="46.31157" lon="-0.62626">
        <ele>5</ele>
        <time>2020-05-31T13:24:56Z</time>
      </trkpt>
      <trkpt lat="46.3116" lon="-0.62632">
        <ele>5</ele>
        <time>2020-05-31T13:24:57Z</time>
      </trkpt>
      <trkpt lat="46.31162" lon="-0.62637">
        <ele>5</ele>
        <time>2020-05-31T13:24:58Z</time>
      </trkpt>
      <trkpt lat="46.31165" lon="-0.62642">
        <ele>5</ele>
        <time>2020-05-31T13:24:59Z</time>
      </trkpt>
      <trkpt lat="46.31167" lon="-0.62646">
        <ele>5</ele>
        <time>2020-05-31T13:25:00Z</time>
      </trkpt>
      <trkpt lat="46.31169" lon="-0.62652">
        <ele>5.1</ele>
        <time>2020-05-31T13:25:01Z</time>
      </trkpt>
      <trkpt lat="46.31171" lon="-0.62658">
        <ele>5.1</ele>
        <time>2020-05-31T13:25:02Z</time>
      </trkpt>
      <trkpt lat="46.31173" lon="-0.62665">
        <ele>5.1</ele>
        <time>2020-05-31T13:25:03Z</time>
      </trkpt>
      <trkpt lat="46.31176" lon="-0.62671">
        <ele>5.1</ele>
        <time>2020-05-31T13:25:04Z</time>
      </trkpt>
      <trkpt lat="46.31178" lon="-0.62678">
        <ele>5.1</ele>
        <time>2020-05-31T13:25:05Z</time>
      </trkpt>
      <trkpt lat="46.31182" lon="-0.62684">
        <ele>5.1</ele>
        <time>2020-05-31T13:25:06Z</time>
      </trkpt>
      <trkpt lat="46.31185" lon="-0.6269">
        <ele>5.1</ele>
        <time>2020-05-31T13:25:07Z</time>
      </trkpt>
      <trkpt lat="46.31189" lon="-0.62698">
        <ele>5.1</ele>
        <time>2020-05-31T13:25:08Z</time>
      </trkpt>
      <trkpt lat="46.31192" lon="-0.62706">
        <ele>5.1</ele>
        <time>2020-05-31T13:25:09Z</time>
      </trkpt>
      <trkpt lat="46.31196" lon="-0.62714">
        <ele>5.1</ele>
        <time>2020-05-31T13:25:10Z</time>
      </trkpt>
      <trkpt lat="46.312" lon="-0.62723">
        <ele>5.1</ele>
        <time>2020-05-31T13:25:11Z</time>
      </trkpt>
      <trkpt lat="46.31205" lon="-0.62731">
        <ele>5.1</ele>
        <time>2020-05-31T13:25:12Z</time>
      </trkpt>
      <trkpt lat="46.31209" lon="-0.62738">
        <ele>5.2</ele>
        <time>2020-05-31T13:25:13Z</time>
      </trkpt>
      <trkpt lat="46.31212" lon="-0.62746">
        <ele>5.2</ele>
        <time>2020-05-31T13:25:14Z</time>
      </trkpt>
      <trkpt lat="46.31216" lon="-0.62753">
        <ele>5.2</ele>
        <time>2020-05-31T13:25:15Z</time>
      </trkpt>
      <trkpt lat="46.31219" lon="-0.62758">
        <ele>5.2</ele>
        <time>2020-05-31T13:25:16Z</time>
      </trkpt>
      <trkpt lat="46.31223" lon="-0.62765">
        <ele>5.2</ele>
        <time>2020-05-31T13:25:17Z</time>
      </trkpt>
      <trkpt lat="46.31226" lon="-0.62772">
        <ele>5.2</ele>
        <time>2020-05-31T13:25:18Z</time>
      </trkpt>
      <trkpt lat="46.31231" lon="-0.62779">
        <ele>5.2</ele>
        <time>2020-05-31T13:25:19Z</time>
      </trkpt>
      <trkpt lat="46.31234" lon="-0.62786">
        <ele>5.2</ele>
        <time>2020-05-31T13:25:20Z</time>
      </trkpt>
      <trkpt lat="46.31238" lon="-0.62793">
        <ele>5.2</ele>
        <time>2020-05-31T13:25:21Z</time>
      </trkpt>
      <trkpt lat="46.31242" lon="-0.628">
        <ele>5.2</ele>
        <time>2020-05-31T13:25:22Z</time>
      </trkpt>
      <trkpt lat="46.31245" lon="-0.62806">
        <ele>5.2</ele>
        <time>2020-05-31T13:25:23Z</time>
      </trkpt>
      <trkpt lat="46.31248" lon="-0.62813">
        <ele>5.2</ele>
        <time>2020-05-31T13:25:24Z</time>
      </trkpt>
      <trkpt lat="46.31253" lon="-0.6282">
        <ele>5.3</ele>
        <time>2020-05-31T13:25:25Z</time>
      </trkpt>
      <trkpt lat="46.31256" lon="-0.62826">
        <ele>5.3</ele>
        <time>2020-05-31T13:25:26Z</time>
      </trkpt>
      <trkpt lat="46.31259" lon="-0.62833">
        <ele>5.3</ele>
        <time>2020-05-31T13:25:27Z</time>
      </trkpt>
      <trkpt lat="46.31261" lon="-0.62839">
        <ele>5.3</ele>
        <time>2020-05-31T13:25:28Z</time>
      </trkpt>
      <trkpt lat="46.31262" lon="-0.62845">
        <ele>5.3</ele>
        <time>2020-05-31T13:25:29Z</time>
      </trkpt>
      <trkpt lat="46.31264" lon="-0.62851">
        <ele>5.3</ele>
        <time>2020-05-31T13:25:30Z</time>
      </trkpt>
      <trkpt lat="46.31266" lon="-0.62858">
        <ele>5.3</ele>
        <time>2020-05-31T13:25:31Z</time>
      </trkpt>
      <trkpt lat="46.31267" lon="-0.62865">
        <ele>5.3</ele>
        <time>2020-05-31T13:25:32Z</time>
      </trkpt>
      <trkpt lat="46.31269" lon="-0.62872">
        <ele>5.3</ele>
        <time>2020-05-31T13:25:33Z</time>
      </trkpt>
      <trkpt lat="46.3127" lon="-0.62881">
        <ele>5.3</ele>
        <time>2020-05-31T13:25:34Z</time>
      </trkpt>
      <trkpt lat="46.31272" lon="-0.62891">
        <ele>5.3</ele>
        <time>2020-05-31T13:25:35Z</time>
      </trkpt>
      <trkpt lat="46.31273" lon="-0.629">
        <ele>5.3</ele>
        <time>2020-05-31T13:25:36Z</time>
      </trkpt>
      <trkpt lat="46.31273" lon="-0.62908">
        <ele>5.3</ele>
        <time>2020-05-31T13:25:37Z</time>
      </trkpt>
      <trkpt lat="46.31272" lon="-0.62917">
        <ele>5.3</ele>
        <time>2020-05-31T13:25:38Z</time>
      </trkpt>
      <trkpt lat="46.31271" lon="-0.62926">
        <ele>5.3</ele>
        <time>2020-05-31T13:25:39Z</time>
      </trkpt>
      <trkpt lat="46.3127" lon="-0.62936">
        <ele>5.3</ele>
        <time>2020-05-31T13:25:40Z</time>
      </trkpt>
      <trkpt lat="46.31268" lon="-0.62944">
        <ele>5.3</ele>
        <time>2020-05-31T13:25:41Z</time>
      </trkpt>
      <trkpt lat="46.31266" lon="-0.62951">
        <ele>5.3</ele>
        <time>2020-05-31T13:25:42Z</time>
      </trkpt>
      <trkpt lat="46.31264" lon="-0.6296">
        <ele>5.3</ele>
        <time>2020-05-31T13:25:43Z</time>
      </trkpt>
      <trkpt lat="46.31262" lon="-0.62967">
        <ele>5.2</ele>
        <time>2020-05-31T13:25:44Z</time>
      </trkpt>
      <trkpt lat="46.3126" lon="-0.62974">
        <ele>5.2</ele>
        <time>2020-05-31T13:25:45Z</time>
      </trkpt>
      <trkpt lat="46.31255" lon="-0.62981">
        <ele>5.2</ele>
        <time>2020-05-31T13:25:46Z</time>
      </trkpt>
      <trkpt lat="46.31252" lon="-0.62988">
        <ele>5.2</ele>
        <time>2020-05-31T13:25:47Z</time>
      </trkpt>
      <trkpt lat="46.31248" lon="-0.62996">
        <ele>5.2</ele>
        <time>2020-05-31T13:25:48Z</time>
      </trkpt>
      <trkpt lat="46.31244" lon="-0.63004">
        <ele>5.2</ele>
        <time>2020-05-31T13:25:49Z</time>
      </trkpt>
      <trkpt lat="46.31241" lon="-0.6301">
        <ele>5.2</ele>
        <time>2020-05-31T13:25:50Z</time>
      </trkpt>
      <trkpt lat="46.31238" lon="-0.63017">
        <ele>5.2</ele>
        <time>2020-05-31T13:25:51Z</time>
      </trkpt>
      <trkpt lat="46.31234" lon="-0.63024">
        <ele>5.2</ele>
        <time>2020-05-31T13:25:52Z</time>
      </trkpt>
      <trkpt lat="46.31229" lon="-0.63031">
        <ele>5.1</ele>
        <time>2020-05-31T13:25:53Z</time>
      </trkpt>
      <trkpt lat="46.31225" lon="-0.63038">
        <ele>5.1</ele>
        <time>2020-05-31T13:25:54Z</time>
      </trkpt>
      <trkpt lat="46.31221" lon="-0.63045">
        <ele>5.1</ele>
        <time>2020-05-31T13:25:55Z</time>
      </trkpt>
      <trkpt lat="46.31216" lon="-0.63054">
        <ele>5.1</ele>
        <time>2020-05-31T13:25:56Z</time>
      </trkpt>
      <trkpt lat="46.31212" lon="-0.63062">
        <ele>5.1</ele>
        <time>2020-05-31T13:25:57Z</time>
      </trkpt>
      <trkpt lat="46.31207" lon="-0.63069">
        <ele>5.1</ele>
        <time>2020-05-31T13:25:58Z</time>
      </trkpt>
      <trkpt lat="46.31202" lon="-0.63077">
        <ele>5.1</ele>
        <time>2020-05-31T13:25:59Z</time>
      </trkpt>
      <trkpt lat="46.31197" lon="-0.63083">
        <ele>5</ele>
        <time>2020-05-31T13:26:00Z</time>
      </trkpt>
      <trkpt lat="46.31192" lon="-0.6309">
        <ele>5</ele>
        <time>2020-05-31T13:26:01Z</time>
      </trkpt>
      <trkpt lat="46.31188" lon="-0.63097">
        <ele>5</ele>
        <time>2020-05-31T13:26:02Z</time>
      </trkpt>
      <trkpt lat="46.31185" lon="-0.63104">
        <ele>5</ele>
        <time>2020-05-31T13:26:03Z</time>
      </trkpt>
      <trkpt lat="46.31181" lon="-0.63111">
        <ele>5</ele>
        <time>2020-05-31T13:26:04Z</time>
      </trkpt>
      <trkpt lat="46.31178" lon="-0.63119">
        <ele>5</ele>
        <time>2020-05-31T13:26:05Z</time>
      </trkpt>
      <trkpt lat="46.31176" lon="-0.63128">
        <ele>5</ele>
        <time>2020-05-31T13:26:06Z</time>
      </trkpt>
      <trkpt lat="46.31173" lon="-0.63137">
        <ele>4.9</ele>
        <time>2020-05-31T13:26:07Z</time>
      </trkpt>
      <trkpt lat="46.31171" lon="-0.63146">
        <ele>4.9</ele>
        <time>2020-05-31T13:26:08Z</time>
      </trkpt>
      <trkpt lat="46.31168" lon="-0.63155">
        <ele>4.9</ele>
        <time>2020-05-31T13:26:09Z</time>
      </trkpt>
      <trkpt lat="46.31166" lon="-0.63164">
        <ele>4.8</ele>
        <time>2020-05-31T13:26:10Z</time>
      </trkpt>
      <trkpt lat="46.31164" lon="-0.63173">
        <ele>4.8</ele>
        <time>2020-05-31T13:26:11Z</time>
      </trkpt>
      <trkpt lat="46.31161" lon="-0.63183">
        <ele>4.8</ele>
        <time>2020-05-31T13:26:12Z</time>
      </trkpt>
      <trkpt lat="46.31159" lon="-0.63192">
        <ele>4.7</ele>
        <time>2020-05-31T13:26:13Z</time>
      </trkpt>
      <trkpt lat="46.31156" lon="-0.63205">
        <ele>4.7</ele>
        <time>2020-05-31T13:26:14Z</time>
      </trkpt>
      <trkpt lat="46.31154" lon="-0.63215">
        <ele>4.7</ele>
        <time>2020-05-31T13:26:15Z</time>
      </trkpt>
      <trkpt lat="46.31153" lon="-0.63223">
        <ele>4.6</ele>
        <time>2020-05-31T13:26:16Z</time>
      </trkpt>
      <trkpt lat="46.31153" lon="-0.63231">
        <ele>4.6</ele>
        <time>2020-05-31T13:26:17Z</time>
      </trkpt>
      <trkpt lat="46.31153" lon="-0.6324">
        <ele>4.6</ele>
        <time>2020-05-31T13:26:18Z</time>
      </trkpt>
      <trkpt lat="46.31153" lon="-0.63248">
        <ele>4.5</ele>
        <time>2020-05-31T13:26:19Z</time>
      </trkpt>
      <trkpt lat="46.31154" lon="-0.63257">
        <ele>4.5</ele>
        <time>2020-05-31T13:26:20Z</time>
      </trkpt>
      <trkpt lat="46.31154" lon="-0.63264">
        <ele>4.5</ele>
        <time>2020-05-31T13:26:21Z</time>
      </trkpt>
      <trkpt lat="46.31155" lon="-0.63272">
        <ele>4.4</ele>
        <time>2020-05-31T13:26:22Z</time>
      </trkpt>
      <trkpt lat="46.31156" lon="-0.6328">
        <ele>4.4</ele>
        <time>2020-05-31T13:26:23Z</time>
      </trkpt>
      <trkpt lat="46.31158" lon="-0.63288">
        <ele>4.4</ele>
        <time>2020-05-31T13:26:24Z</time>
      </trkpt>
      <trkpt lat="46.3116" lon="-0.63297">
        <ele>4.4</ele>
        <time>2020-05-31T13:26:25Z</time>
      </trkpt>
      <trkpt lat="46.31161" lon="-0.63305">
        <ele>4.4</ele>
        <time>2020-05-31T13:26:26Z</time>
      </trkpt>
      <trkpt lat="46.31163" lon="-0.63312">
        <ele>4.3</ele>
        <time>2020-05-31T13:26:27Z</time>
      </trkpt>
      <trkpt lat="46.31165" lon="-0.6332">
        <ele>4.3</ele>
        <time>2020-05-31T13:26:28Z</time>
      </trkpt>
      <trkpt lat="46.31167" lon="-0.63329">
        <ele>4.3</ele>
        <time>2020-05-31T13:26:29Z</time>
      </trkpt>
      <trkpt lat="46.3117" lon="-0.63338">
        <ele>4.3</ele>
        <time>2020-05-31T13:26:30Z</time>
      </trkpt>
      <trkpt lat="46.31173" lon="-0.63346">
        <ele>4.3</ele>
        <time>2020-05-31T13:26:31Z</time>
      </trkpt>
      <trkpt lat="46.31175" lon="-0.63353">
        <ele>4.3</ele>
        <time>2020-05-31T13:26:32Z</time>
      </trkpt>
      <trkpt lat="46.31177" lon="-0.63359">
        <ele>4.3</ele>
        <time>2020-05-31T13:26:33Z</time>
      </trkpt>
      <trkpt lat="46.3118" lon="-0.63367">
        <ele>4.3</ele>
        <time>2020-05-31T13:26:34Z</time>
      </trkpt>
      <trkpt lat="46.31183" lon="-0.63373">
        <ele>4.3</ele>
        <time>2020-05-31T13:26:35Z</time>
      </trkpt>
      <trkpt lat="46.31186" lon="-0.6338">
        <ele>4.3</ele>
        <time>2020-05-31T13:26:36Z</time>
      </trkpt>
      <trkpt lat="46.31189" lon="-0.63386">
        <ele>4.3</ele>
        <time>2020-05-31T13:26:37Z</time>
      </trkpt>
      <trkpt lat="46.31192" lon="-0.63392">
        <ele>4.3</ele>
        <time>2020-05-31T13:26:38Z</time>
      </trkpt>
      <trkpt lat="46.31195" lon="-0.63398">
        <ele>4.2</ele>
        <time>2020-05-31T13:26:39Z</time>
      </trkpt>
      <trkpt lat="46.31198" lon="-0.63405">
        <ele>4.2</ele>
        <time>2020-05-31T13:26:40Z</time>
      </trkpt>
      <trkpt lat="46.31201" lon="-0.63411">
        <ele>4.2</ele>
        <time>2020-05-31T13:26:41Z</time>
      </trkpt>
      <trkpt lat="46.31203" lon="-0.63417">
        <ele>4.2</ele>
        <time>2020-05-31T13:26:42Z</time>
      </trkpt>
      <trkpt lat="46.31206" lon="-0.63423">
        <ele>4.2</ele>
        <time>2020-05-31T13:26:43Z</time>
      </trkpt>
      <trkpt lat="46.31209" lon="-0.63429">
        <ele>4.3</ele>
        <time>2020-05-31T13:26:44Z</time>
      </trkpt>
      <trkpt lat="46.31211" lon="-0.63436">
        <ele>4.3</ele>
        <time>2020-05-31T13:26:45Z</time>
      </trkpt>
      <trkpt lat="46.31214" lon="-0.63443">
        <ele>4.3</ele>
        <time>2020-05-31T13:26:46Z</time>
      </trkpt>
      <trkpt lat="46.31216" lon="-0.63449">
        <ele>4.3</ele>
        <time>2020-05-31T13:26:47Z</time>
      </trkpt>
      <trkpt lat="46.31219" lon="-0.63455">
        <ele>4.3</ele>
        <time>2020-05-31T13:26:48Z</time>
      </trkpt>
      <trkpt lat="46.31221" lon="-0.63462">
        <ele>4.3</ele>
        <time>2020-05-31T13:26:49Z</time>
      </trkpt>
      <trkpt lat="46.31224" lon="-0.63469">
        <ele>4.3</ele>
        <time>2020-05-31T13:26:50Z</time>
      </trkpt>
      <trkpt lat="46.31226" lon="-0.63477">
        <ele>4.2</ele>
        <time>2020-05-31T13:26:51Z</time>
      </trkpt>
      <trkpt lat="46.3123" lon="-0.63485">
        <ele>4.2</ele>
        <time>2020-05-31T13:26:52Z</time>
      </trkpt>
      <trkpt lat="46.31233" lon="-0.63492">
        <ele>4.2</ele>
        <time>2020-05-31T13:26:53Z</time>
      </trkpt>
      <trkpt lat="46.31236" lon="-0.63499">
        <ele>4.2</ele>
        <time>2020-05-31T13:26:54Z</time>
      </trkpt>
      <trkpt lat="46.31239" lon="-0.63506">
        <ele>4.2</ele>
        <time>2020-05-31T13:26:55Z</time>
      </trkpt>
      <trkpt lat="46.31242" lon="-0.63512">
        <ele>4.2</ele>
        <time>2020-05-31T13:26:56Z</time>
      </trkpt>
      <trkpt lat="46.31245" lon="-0.63518">
        <ele>4.2</ele>
        <time>2020-05-31T13:26:57Z</time>
      </trkpt>
      <trkpt lat="46.31248" lon="-0.63525">
        <ele>4.2</ele>
        <time>2020-05-31T13:26:58Z</time>
      </trkpt>
      <trkpt lat="46.3125" lon="-0.63532">
        <ele>4.2</ele>
        <time>2020-05-31T13:26:59Z</time>
      </trkpt>
      <trkpt lat="46.31253" lon="-0.63539">
        <ele>4.2</ele>
        <time>2020-05-31T13:27:00Z</time>
      </trkpt>
      <trkpt lat="46.31256" lon="-0.63547">
        <ele>4.2</ele>
        <time>2020-05-31T13:27:01Z</time>
      </trkpt>
      <trkpt lat="46.3126" lon="-0.63555">
        <ele>4.2</ele>
        <time>2020-05-31T13:27:02Z</time>
      </trkpt>
      <trkpt lat="46.31263" lon="-0.63562">
        <ele>4.2</ele>
        <time>2020-05-31T13:27:03Z</time>
      </trkpt>
      <trkpt lat="46.31267" lon="-0.63569">
        <ele>4.2</ele>
        <time>2020-05-31T13:27:04Z</time>
      </trkpt>
      <trkpt lat="46.3127" lon="-0.63575">
        <ele>4.2</ele>
        <time>2020-05-31T13:27:05Z</time>
      </trkpt>
      <trkpt lat="46.31273" lon="-0.63582">
        <ele>4.1</ele>
        <time>2020-05-31T13:27:06Z</time>
      </trkpt>
      <trkpt lat="46.31276" lon="-0.63588">
        <ele>4.1</ele>
        <time>2020-05-31T13:27:07Z</time>
      </trkpt>
      <trkpt lat="46.31279" lon="-0.63595">
        <ele>4.1</ele>
        <time>2020-05-31T13:27:08Z</time>
      </trkpt>
      <trkpt lat="46.31282" lon="-0.63602">
        <ele>4.1</ele>
        <time>2020-05-31T13:27:09Z</time>
      </trkpt>
      <trkpt lat="46.31285" lon="-0.63608">
        <ele>4.1</ele>
        <time>2020-05-31T13:27:10Z</time>
      </trkpt>
      <trkpt lat="46.31288" lon="-0.63615">
        <ele>4.1</ele>
        <time>2020-05-31T13:27:11Z</time>
      </trkpt>
      <trkpt lat="46.31292" lon="-0.63621">
        <ele>4</ele>
        <time>2020-05-31T13:27:12Z</time>
      </trkpt>
      <trkpt lat="46.31295" lon="-0.63628">
        <ele>4</ele>
        <time>2020-05-31T13:27:13Z</time>
      </trkpt>
      <trkpt lat="46.31298" lon="-0.63635">
        <ele>4</ele>
        <time>2020-05-31T13:27:14Z</time>
      </trkpt>
      <trkpt lat="46.31301" lon="-0.63642">
        <ele>4</ele>
        <time>2020-05-31T13:27:15Z</time>
      </trkpt>
      <trkpt lat="46.31304" lon="-0.63651">
        <ele>4</ele>
        <time>2020-05-31T13:27:16Z</time>
      </trkpt>
      <trkpt lat="46.31306" lon="-0.63658">
        <ele>4</ele>
        <time>2020-05-31T13:27:17Z</time>
      </trkpt>
      <trkpt lat="46.3131" lon="-0.63664">
        <ele>4.1</ele>
        <time>2020-05-31T13:27:18Z</time>
      </trkpt>
      <trkpt lat="46.31312" lon="-0.63672">
        <ele>4.1</ele>
        <time>2020-05-31T13:27:19Z</time>
      </trkpt>
      <trkpt lat="46.31315" lon="-0.6368">
        <ele>4.1</ele>
        <time>2020-05-31T13:27:20Z</time>
      </trkpt>
      <trkpt lat="46.31318" lon="-0.63687">
        <ele>4.1</ele>
        <time>2020-05-31T13:27:21Z</time>
      </trkpt>
      <trkpt lat="46.3132" lon="-0.63695">
        <ele>4.1</ele>
        <time>2020-05-31T13:27:22Z</time>
      </trkpt>
      <trkpt lat="46.31323" lon="-0.63702">
        <ele>4.2</ele>
        <time>2020-05-31T13:27:23Z</time>
      </trkpt>
      <trkpt lat="46.31327" lon="-0.6371">
        <ele>4.2</ele>
        <time>2020-05-31T13:27:24Z</time>
      </trkpt>
      <trkpt lat="46.31329" lon="-0.63717">
        <ele>4.2</ele>
        <time>2020-05-31T13:27:25Z</time>
      </trkpt>
      <trkpt lat="46.31332" lon="-0.63725">
        <ele>4.2</ele>
        <time>2020-05-31T13:27:26Z</time>
      </trkpt>
      <trkpt lat="46.31334" lon="-0.63731">
        <ele>4.3</ele>
        <time>2020-05-31T13:27:27Z</time>
      </trkpt>
      <trkpt lat="46.31337" lon="-0.63738">
        <ele>4.3</ele>
        <time>2020-05-31T13:27:28Z</time>
      </trkpt>
      <trkpt lat="46.3134" lon="-0.63745">
        <ele>4.3</ele>
        <time>2020-05-31T13:27:29Z</time>
      </trkpt>
      <trkpt lat="46.31343" lon="-0.63751">
        <ele>4.3</ele>
        <time>2020-05-31T13:27:30Z</time>
      </trkpt>
      <trkpt lat="46.31347" lon="-0.63758">
        <ele>4.4</ele>
        <time>2020-05-31T13:27:31Z</time>
      </trkpt>
      <trkpt lat="46.3135" lon="-0.63766">
        <ele>4.4</ele>
        <time>2020-05-31T13:27:32Z</time>
      </trkpt>
      <trkpt lat="46.31353" lon="-0.63773">
        <ele>4.4</ele>
        <time>2020-05-31T13:27:33Z</time>
      </trkpt>
      <trkpt lat="46.31356" lon="-0.6378">
        <ele>4.4</ele>
        <time>2020-05-31T13:27:34Z</time>
      </trkpt>
      <trkpt lat="46.31359" lon="-0.63786">
        <ele>4.4</ele>
        <time>2020-05-31T13:27:35Z</time>
      </trkpt>
      <trkpt lat="46.31361" lon="-0.63793">
        <ele>4.3</ele>
        <time>2020-05-31T13:27:36Z</time>
      </trkpt>
      <trkpt lat="46.31364" lon="-0.638">
        <ele>4.3</ele>
        <time>2020-05-31T13:27:37Z</time>
      </trkpt>
      <trkpt lat="46.31367" lon="-0.63807">
        <ele>4.3</ele>
        <time>2020-05-31T13:27:38Z</time>
      </trkpt>
      <trkpt lat="46.31369" lon="-0.63813">
        <ele>4.3</ele>
        <time>2020-05-31T13:27:39Z</time>
      </trkpt>
      <trkpt lat="46.31373" lon="-0.6382">
        <ele>4.3</ele>
        <time>2020-05-31T13:27:40Z</time>
      </trkpt>
      <trkpt lat="46.31376" lon="-0.63826">
        <ele>4.3</ele>
        <time>2020-05-31T13:27:41Z</time>
      </trkpt>
      <trkpt lat="46.3138" lon="-0.6383">
        <ele>4.3</ele>
        <time>2020-05-31T13:27:42Z</time>
      </trkpt>
      <trkpt lat="46.31382" lon="-0.63834">
        <ele>4.3</ele>
        <time>2020-05-31T13:27:43Z</time>
      </trkpt>
      <trkpt lat="46.31386" lon="-0.63839">
        <ele>4.3</ele>
        <time>2020-05-31T13:27:44Z</time>
      </trkpt>
      <trkpt lat="46.3139" lon="-0.63845">
        <ele>4.3</ele>
        <time>2020-05-31T13:27:45Z</time>
      </trkpt>
      <trkpt lat="46.31396" lon="-0.6385">
        <ele>4.4</ele>
        <time>2020-05-31T13:27:46Z</time>
      </trkpt>
      <trkpt lat="46.31402" lon="-0.63854">
        <ele>4.5</ele>
        <time>2020-05-31T13:27:47Z</time>
      </trkpt>
      <trkpt lat="46.31407" lon="-0.63859">
        <ele>4.6</ele>
        <time>2020-05-31T13:27:48Z</time>
      </trkpt>
      <trkpt lat="46.31413" lon="-0.63863">
        <ele>4.6</ele>
        <time>2020-05-31T13:27:49Z</time>
      </trkpt>
      <trkpt lat="46.31418" lon="-0.63867">
        <ele>4.7</ele>
        <time>2020-05-31T13:27:50Z</time>
      </trkpt>
      <trkpt lat="46.31422" lon="-0.6387">
        <ele>4.8</ele>
        <time>2020-05-31T13:27:51Z</time>
      </trkpt>
      <trkpt lat="46.31427" lon="-0.63874">
        <ele>4.9</ele>
        <time>2020-05-31T13:27:52Z</time>
      </trkpt>
      <trkpt lat="46.31432" lon="-0.63879">
        <ele>4.9</ele>
        <time>2020-05-31T13:27:53Z</time>
      </trkpt>
      <trkpt lat="46.31436" lon="-0.63883">
        <ele>5</ele>
        <time>2020-05-31T13:27:54Z</time>
      </trkpt>
      <trkpt lat="46.31439" lon="-0.63886">
        <ele>5.1</ele>
        <time>2020-05-31T13:27:55Z</time>
      </trkpt>
      <trkpt lat="46.31442" lon="-0.63889">
        <ele>5.2</ele>
        <time>2020-05-31T13:27:56Z</time>
      </trkpt>
      <trkpt lat="46.31445" lon="-0.63893">
        <ele>5.2</ele>
        <time>2020-05-31T13:27:57Z</time>
      </trkpt>
      <trkpt lat="46.31448" lon="-0.63896">
        <ele>5.3</ele>
        <time>2020-05-31T13:27:58Z</time>
      </trkpt>
      <trkpt lat="46.31451" lon="-0.63899">
        <ele>5.4</ele>
        <time>2020-05-31T13:27:59Z</time>
      </trkpt>
      <trkpt lat="46.31455" lon="-0.63903">
        <ele>5.5</ele>
        <time>2020-05-31T13:28:00Z</time>
      </trkpt>
      <trkpt lat="46.31458" lon="-0.63908">
        <ele>5.6</ele>
        <time>2020-05-31T13:28:01Z</time>
      </trkpt>
      <trkpt lat="46.31461" lon="-0.63913">
        <ele>5.6</ele>
        <time>2020-05-31T13:28:02Z</time>
      </trkpt>
      <trkpt lat="46.31464" lon="-0.63918">
        <ele>5.7</ele>
        <time>2020-05-31T13:28:03Z</time>
      </trkpt>
      <trkpt lat="46.31464" lon="-0.63924">
        <ele>5.8</ele>
        <time>2020-05-31T13:28:04Z</time>
      </trkpt>
      <trkpt lat="46.31464" lon="-0.63931">
        <ele>5.9</ele>
        <time>2020-05-31T13:28:05Z</time>
      </trkpt>
      <trkpt lat="46.31464" lon="-0.63939">
        <ele>6</ele>
        <time>2020-05-31T13:28:06Z</time>
      </trkpt>
      <trkpt lat="46.31464" lon="-0.63946">
        <ele>6.1</ele>
        <time>2020-05-31T13:28:07Z</time>
      </trkpt>
      <trkpt lat="46.31465" lon="-0.63955">
        <ele>6.3</ele>
        <time>2020-05-31T13:28:08Z</time>
      </trkpt>
      <trkpt lat="46.31464" lon="-0.63962">
        <ele>6.4</ele>
        <time>2020-05-31T13:28:09Z</time>
      </trkpt>
      <trkpt lat="46.31463" lon="-0.63966">
        <ele>6.4</ele>
        <time>2020-05-31T13:28:10Z</time>
      </trkpt>
      <trkpt lat="46.31461" lon="-0.6397">
        <ele>6.5</ele>
        <time>2020-05-31T13:28:11Z</time>
      </trkpt>
      <trkpt lat="46.31458" lon="-0.63973">
        <ele>6.5</ele>
        <time>2020-05-31T13:28:12Z</time>
      </trkpt>
      <trkpt lat="46.31455" lon="-0.63975">
        <ele>6.6</ele>
        <time>2020-05-31T13:28:13Z</time>
      </trkpt>
      <trkpt lat="46.31452" lon="-0.63977">
        <ele>6.6</ele>
        <time>2020-05-31T13:28:14Z</time>
      </trkpt>
      <trkpt lat="46.31448" lon="-0.6398">
        <ele>6.6</ele>
        <time>2020-05-31T13:28:15Z</time>
      </trkpt>
      <trkpt lat="46.31443" lon="-0.63981">
        <ele>6.7</ele>
        <time>2020-05-31T13:28:16Z</time>
      </trkpt>
      <trkpt lat="46.31439" lon="-0.63986">
        <ele>6.7</ele>
        <time>2020-05-31T13:28:17Z</time>
      </trkpt>
      <trkpt lat="46.31436" lon="-0.63989">
        <ele>6.6</ele>
        <time>2020-05-31T13:28:18Z</time>
      </trkpt>
      <trkpt lat="46.31432" lon="-0.63992">
        <ele>6.6</ele>
        <time>2020-05-31T13:28:19Z</time>
      </trkpt>
      <trkpt lat="46.31429" lon="-0.63994">
        <ele>6.6</ele>
        <time>2020-05-31T13:28:20Z</time>
      </trkpt>
      <trkpt lat="46.31425" lon="-0.63996">
        <ele>6.6</ele>
        <time>2020-05-31T13:28:21Z</time>
      </trkpt>
      <trkpt lat="46.31422" lon="-0.64">
        <ele>6.5</ele>
        <time>2020-05-31T13:28:22Z</time>
      </trkpt>
      <trkpt lat="46.31417" lon="-0.64004">
        <ele>6.5</ele>
        <time>2020-05-31T13:28:23Z</time>
      </trkpt>
      <trkpt lat="46.31414" lon="-0.64007">
        <ele>6.4</ele>
        <time>2020-05-31T13:28:24Z</time>
      </trkpt>
      <trkpt lat="46.31408" lon="-0.64011">
        <ele>6.4</ele>
        <time>2020-05-31T13:28:25Z</time>
      </trkpt>
      <trkpt lat="46.31404" lon="-0.64013">
        <ele>6.3</ele>
        <time>2020-05-31T13:28:26Z</time>
      </trkpt>
      <trkpt lat="46.314" lon="-0.64015">
        <ele>6.2</ele>
        <time>2020-05-31T13:28:27Z</time>
      </trkpt>
      <trkpt lat="46.31395" lon="-0.64019">
        <ele>6.1</ele>
        <time>2020-05-31T13:28:28Z</time>
      </trkpt>
      <trkpt lat="46.3139" lon="-0.64022">
        <ele>6</ele>
        <time>2020-05-31T13:28:29Z</time>
      </trkpt>
      <trkpt lat="46.31385" lon="-0.64025">
        <ele>5.9</ele>
        <time>2020-05-31T13:28:30Z</time>
      </trkpt>
      <trkpt lat="46.3138" lon="-0.64028">
        <ele>5.9</ele>
        <time>2020-05-31T13:28:31Z</time>
      </trkpt>
      <trkpt lat="46.31375" lon="-0.64033">
        <ele>5.8</ele>
        <time>2020-05-31T13:28:32Z</time>
      </trkpt>
      <trkpt lat="46.31371" lon="-0.64036">
        <ele>5.8</ele>
        <time>2020-05-31T13:28:33Z</time>
      </trkpt>
      <trkpt lat="46.31366" lon="-0.64039">
        <ele>5.7</ele>
        <time>2020-05-31T13:28:34Z</time>
      </trkpt>
      <trkpt lat="46.31361" lon="-0.64042">
        <ele>5.7</ele>
        <time>2020-05-31T13:28:35Z</time>
      </trkpt>
      <trkpt lat="46.31355" lon="-0.64045">
        <ele>5.7</ele>
        <time>2020-05-31T13:28:36Z</time>
      </trkpt>
      <trkpt lat="46.31349" lon="-0.64048">
        <ele>5.7</ele>
        <time>2020-05-31T13:28:37Z</time>
      </trkpt>
      <trkpt lat="46.31344" lon="-0.64052">
        <ele>5.7</ele>
        <time>2020-05-31T13:28:38Z</time>
      </trkpt>
      <trkpt lat="46.31339" lon="-0.64057">
        <ele>5.7</ele>
        <time>2020-05-31T13:28:39Z</time>
      </trkpt>
      <trkpt lat="46.31335" lon="-0.64062">
        <ele>5.7</ele>
        <time>2020-05-31T13:28:40Z</time>
      </trkpt>
      <trkpt lat="46.3133" lon="-0.64066">
        <ele>5.7</ele>
        <time>2020-05-31T13:28:41Z</time>
      </trkpt>
      <trkpt lat="46.31325" lon="-0.64071">
        <ele>5.7</ele>
        <time>2020-05-31T13:28:42Z</time>
      </trkpt>
      <trkpt lat="46.31321" lon="-0.64074">
        <ele>5.7</ele>
        <time>2020-05-31T13:28:43Z</time>
      </trkpt>
      <trkpt lat="46.31315" lon="-0.64078">
        <ele>5.6</ele>
        <time>2020-05-31T13:28:44Z</time>
      </trkpt>
      <trkpt lat="46.31309" lon="-0.64082">
        <ele>5.6</ele>
        <time>2020-05-31T13:28:45Z</time>
      </trkpt>
      <trkpt lat="46.31305" lon="-0.64083">
        <ele>5.6</ele>
        <time>2020-05-31T13:28:46Z</time>
      </trkpt>
      <trkpt lat="46.313" lon="-0.64085">
        <ele>5.6</ele>
        <time>2020-05-31T13:28:47Z</time>
      </trkpt>
      <trkpt lat="46.31294" lon="-0.64089">
        <ele>5.5</ele>
        <time>2020-05-31T13:28:48Z</time>
      </trkpt>
      <trkpt lat="46.31288" lon="-0.64093">
        <ele>5.5</ele>
        <time>2020-05-31T13:28:49Z</time>
      </trkpt>
      <trkpt lat="46.31282" lon="-0.64097">
        <ele>5.4</ele>
        <time>2020-05-31T13:28:50Z</time>
      </trkpt>
      <trkpt lat="46.31277" lon="-0.641">
        <ele>5.4</ele>
        <time>2020-05-31T13:28:51Z</time>
      </trkpt>
      <trkpt lat="46.31271" lon="-0.64104">
        <ele>5.3</ele>
        <time>2020-05-31T13:28:52Z</time>
      </trkpt>
      <trkpt lat="46.31265" lon="-0.64108">
        <ele>5.2</ele>
        <time>2020-05-31T13:28:53Z</time>
      </trkpt>
      <trkpt lat="46.31258" lon="-0.64111">
        <ele>5.2</ele>
        <time>2020-05-31T13:28:54Z</time>
      </trkpt>
      <trkpt lat="46.31252" lon="-0.64115">
        <ele>5.1</ele>
        <time>2020-05-31T13:28:55Z</time>
      </trkpt>
      <trkpt lat="46.31247" lon="-0.64119">
        <ele>5.1</ele>
        <time>2020-05-31T13:28:56Z</time>
      </trkpt>
      <trkpt lat="46.31241" lon="-0.64123">
        <ele>5.1</ele>
        <time>2020-05-31T13:28:57Z</time>
      </trkpt>
      <trkpt lat="46.31235" lon="-0.64129">
        <ele>5.1</ele>
        <time>2020-05-31T13:28:58Z</time>
      </trkpt>
      <trkpt lat="46.31229" lon="-0.64132">
        <ele>5.1</ele>
        <time>2020-05-31T13:28:59Z</time>
      </trkpt>
      <trkpt lat="46.31223" lon="-0.64136">
        <ele>5.1</ele>
        <time>2020-05-31T13:29:00Z</time>
      </trkpt>
      <trkpt lat="46.31218" lon="-0.64139">
        <ele>5.1</ele>
        <time>2020-05-31T13:29:01Z</time>
      </trkpt>
      <trkpt lat="46.31212" lon="-0.64143">
        <ele>5</ele>
        <time>2020-05-31T13:29:02Z</time>
      </trkpt>
      <trkpt lat="46.31207" lon="-0.64146">
        <ele>5</ele>
        <time>2020-05-31T13:29:03Z</time>
      </trkpt>
      <trkpt lat="46.31201" lon="-0.64148">
        <ele>5</ele>
        <time>2020-05-31T13:29:04Z</time>
      </trkpt>
      <trkpt lat="46.31195" lon="-0.64153">
        <ele>4.9</ele>
        <time>2020-05-31T13:29:05Z</time>
      </trkpt>
      <trkpt lat="46.31189" lon="-0.64158">
        <ele>4.9</ele>
        <time>2020-05-31T13:29:06Z</time>
      </trkpt>
      <trkpt lat="46.31183" lon="-0.64164">
        <ele>4.8</ele>
        <time>2020-05-31T13:29:07Z</time>
      </trkpt>
      <trkpt lat="46.31176" lon="-0.6417">
        <ele>4.8</ele>
        <time>2020-05-31T13:29:08Z</time>
      </trkpt>
      <trkpt lat="46.31169" lon="-0.64175">
        <ele>4.8</ele>
        <time>2020-05-31T13:29:09Z</time>
      </trkpt>
      <trkpt lat="46.31163" lon="-0.6418">
        <ele>4.7</ele>
        <time>2020-05-31T13:29:10Z</time>
      </trkpt>
      <trkpt lat="46.31157" lon="-0.64185">
        <ele>4.7</ele>
        <time>2020-05-31T13:29:11Z</time>
      </trkpt>
      <trkpt lat="46.31151" lon="-0.64191">
        <ele>4.7</ele>
        <time>2020-05-31T13:29:12Z</time>
      </trkpt>
      <trkpt lat="46.31145" lon="-0.64197">
        <ele>4.7</ele>
        <time>2020-05-31T13:29:13Z</time>
      </trkpt>
      <trkpt lat="46.31139" lon="-0.64202">
        <ele>4.8</ele>
        <time>2020-05-31T13:29:14Z</time>
      </trkpt>
      <trkpt lat="46.31134" lon="-0.64207">
        <ele>4.9</ele>
        <time>2020-05-31T13:29:15Z</time>
      </trkpt>
      <trkpt lat="46.31129" lon="-0.64212">
        <ele>4.9</ele>
        <time>2020-05-31T13:29:16Z</time>
      </trkpt>
      <trkpt lat="46.31125" lon="-0.64216">
        <ele>5</ele>
        <time>2020-05-31T13:29:17Z</time>
      </trkpt>
      <trkpt lat="46.3112" lon="-0.64221">
        <ele>5</ele>
        <time>2020-05-31T13:29:18Z</time>
      </trkpt>
      <trkpt lat="46.31116" lon="-0.64224">
        <ele>5.1</ele>
        <time>2020-05-31T13:29:19Z</time>
      </trkpt>
      <trkpt lat="46.31112" lon="-0.64228">
        <ele>5.2</ele>
        <time>2020-05-31T13:29:20Z</time>
      </trkpt>
      <trkpt lat="46.31107" lon="-0.64232">
        <ele>5.2</ele>
        <time>2020-05-31T13:29:21Z</time>
      </trkpt>
      <trkpt lat="46.31104" lon="-0.64235">
        <ele>5.3</ele>
        <time>2020-05-31T13:29:22Z</time>
      </trkpt>
      <trkpt lat="46.311" lon="-0.64239">
        <ele>5.3</ele>
        <time>2020-05-31T13:29:23Z</time>
      </trkpt>
      <trkpt lat="46.31096" lon="-0.64242">
        <ele>5.4</ele>
        <time>2020-05-31T13:29:24Z</time>
      </trkpt>
      <trkpt lat="46.31093" lon="-0.64246">
        <ele>5.5</ele>
        <time>2020-05-31T13:29:25Z</time>
      </trkpt>
      <trkpt lat="46.31089" lon="-0.6425">
        <ele>5.5</ele>
        <time>2020-05-31T13:29:26Z</time>
      </trkpt>
      <trkpt lat="46.31087" lon="-0.64253">
        <ele>5.5</ele>
        <time>2020-05-31T13:29:27Z</time>
      </trkpt>
      <trkpt lat="46.31084" lon="-0.64257">
        <ele>5.6</ele>
        <time>2020-05-31T13:29:28Z</time>
      </trkpt>
      <trkpt lat="46.31082" lon="-0.64259">
        <ele>5.6</ele>
        <time>2020-05-31T13:29:29Z</time>
      </trkpt>
      <trkpt lat="46.31078" lon="-0.64263">
        <ele>5.6</ele>
        <time>2020-05-31T13:29:30Z</time>
      </trkpt>
      <trkpt lat="46.31074" lon="-0.64268">
        <ele>5.7</ele>
        <time>2020-05-31T13:29:31Z</time>
      </trkpt>
      <trkpt lat="46.3107" lon="-0.64273">
        <ele>5.7</ele>
        <time>2020-05-31T13:29:32Z</time>
      </trkpt>
      <trkpt lat="46.31066" lon="-0.64276">
        <ele>5.8</ele>
        <time>2020-05-31T13:29:33Z</time>
      </trkpt>
      <trkpt lat="46.31062" lon="-0.64279">
        <ele>5.8</ele>
        <time>2020-05-31T13:29:34Z</time>
      </trkpt>
      <trkpt lat="46.31058" lon="-0.64284">
        <ele>5.8</ele>
        <time>2020-05-31T13:29:35Z</time>
      </trkpt>
      <trkpt lat="46.31055" lon="-0.64287">
        <ele>5.9</ele>
        <time>2020-05-31T13:29:36Z</time>
      </trkpt>
      <trkpt lat="46.31052" lon="-0.64291">
        <ele>5.9</ele>
        <time>2020-05-31T13:29:37Z</time>
      </trkpt>
      <trkpt lat="46.31047" lon="-0.64294">
        <ele>5.9</ele>
        <time>2020-05-31T13:29:38Z</time>
      </trkpt>
      <trkpt lat="46.31043" lon="-0.64299">
        <ele>6</ele>
        <time>2020-05-31T13:29:39Z</time>
      </trkpt>
      <trkpt lat="46.31039" lon="-0.64302">
        <ele>6</ele>
        <time>2020-05-31T13:29:40Z</time>
      </trkpt>
      <trkpt lat="46.31035" lon="-0.64306">
        <ele>6</ele>
        <time>2020-05-31T13:29:41Z</time>
      </trkpt>
      <trkpt lat="46.3103" lon="-0.6431">
        <ele>6</ele>
        <time>2020-05-31T13:29:42Z</time>
      </trkpt>
      <trkpt lat="46.31026" lon="-0.64315">
        <ele>6</ele>
        <time>2020-05-31T13:29:43Z</time>
      </trkpt>
      <trkpt lat="46.31021" lon="-0.64319">
        <ele>6</ele>
        <time>2020-05-31T13:29:44Z</time>
      </trkpt>
      <trkpt lat="46.31015" lon="-0.64325">
        <ele>6</ele>
        <time>2020-05-31T13:29:45Z</time>
      </trkpt>
      <trkpt lat="46.3101" lon="-0.64331">
        <ele>6</ele>
        <time>2020-05-31T13:29:46Z</time>
      </trkpt>
      <trkpt lat="46.31004" lon="-0.64334">
        <ele>6</ele>
        <time>2020-05-31T13:29:47Z</time>
      </trkpt>
      <trkpt lat="46.30998" lon="-0.64341">
        <ele>6</ele>
        <time>2020-05-31T13:29:48Z</time>
      </trkpt>
      <trkpt lat="46.30992" lon="-0.64345">
        <ele>6</ele>
        <time>2020-05-31T13:29:49Z</time>
      </trkpt>
      <trkpt lat="46.30987" lon="-0.64348">
        <ele>6</ele>
        <time>2020-05-31T13:29:50Z</time>
      </trkpt>
      <trkpt lat="46.30981" lon="-0.64353">
        <ele>6</ele>
        <time>2020-05-31T13:29:51Z</time>
      </trkpt>
      <trkpt lat="46.30976" lon="-0.64358">
        <ele>6</ele>
        <time>2020-05-31T13:29:52Z</time>
      </trkpt>
      <trkpt lat="46.30971" lon="-0.64365">
        <ele>6</ele>
        <time>2020-05-31T13:29:53Z</time>
      </trkpt>
      <trkpt lat="46.30966" lon="-0.6437">
        <ele>6</ele>
        <time>2020-05-31T13:29:54Z</time>
      </trkpt>
      <trkpt lat="46.30961" lon="-0.64374">
        <ele>6</ele>
        <time>2020-05-31T13:29:55Z</time>
      </trkpt>
      <trkpt lat="46.30955" lon="-0.64378">
        <ele>6.1</ele>
        <time>2020-05-31T13:29:56Z</time>
      </trkpt>
      <trkpt lat="46.30949" lon="-0.64382">
        <ele>6.2</ele>
        <time>2020-05-31T13:29:57Z</time>
      </trkpt>
      <trkpt lat="46.30943" lon="-0.64387">
        <ele>6.4</ele>
        <time>2020-05-31T13:29:58Z</time>
      </trkpt>
      <trkpt lat="46.30937" lon="-0.64391">
        <ele>6.4</ele>
        <time>2020-05-31T13:29:59Z</time>
      </trkpt>
      <trkpt lat="46.30931" lon="-0.64397">
        <ele>6.5</ele>
        <time>2020-05-31T13:30:00Z</time>
      </trkpt>
      <trkpt lat="46.30926" lon="-0.64401">
        <ele>6.6</ele>
        <time>2020-05-31T13:30:01Z</time>
      </trkpt>
      <trkpt lat="46.30921" lon="-0.64404">
        <ele>6.6</ele>
        <time>2020-05-31T13:30:02Z</time>
      </trkpt>
      <trkpt lat="46.30917" lon="-0.64406">
        <ele>6.6</ele>
        <time>2020-05-31T13:30:03Z</time>
      </trkpt>
      <trkpt lat="46.30912" lon="-0.64408">
        <ele>6.7</ele>
        <time>2020-05-31T13:30:04Z</time>
      </trkpt>
      <trkpt lat="46.3091" lon="-0.6441">
        <ele>6.7</ele>
        <time>2020-05-31T13:30:05Z</time>
      </trkpt>
      <trkpt lat="46.30906" lon="-0.64413">
        <ele>6.8</ele>
        <time>2020-05-31T13:30:06Z</time>
      </trkpt>
      <trkpt lat="46.30903" lon="-0.64415">
        <ele>6.8</ele>
        <time>2020-05-31T13:30:07Z</time>
      </trkpt>
      <trkpt lat="46.30899" lon="-0.64418">
        <ele>6.8</ele>
        <time>2020-05-31T13:30:08Z</time>
      </trkpt>
      <trkpt lat="46.30894" lon="-0.64421">
        <ele>6.9</ele>
        <time>2020-05-31T13:30:09Z</time>
      </trkpt>
      <trkpt lat="46.3089" lon="-0.64426">
        <ele>6.9</ele>
        <time>2020-05-31T13:30:10Z</time>
      </trkpt>
      <trkpt lat="46.30886" lon="-0.64429">
        <ele>6.9</ele>
        <time>2020-05-31T13:30:11Z</time>
      </trkpt>
      <trkpt lat="46.30881" lon="-0.64432">
        <ele>7</ele>
        <time>2020-05-31T13:30:12Z</time>
      </trkpt>
      <trkpt lat="46.30877" lon="-0.64436">
        <ele>7</ele>
        <time>2020-05-31T13:30:13Z</time>
      </trkpt>
      <trkpt lat="46.30872" lon="-0.6444">
        <ele>7</ele>
        <time>2020-05-31T13:30:14Z</time>
      </trkpt>
      <trkpt lat="46.30866" lon="-0.64441">
        <ele>7</ele>
        <time>2020-05-31T13:30:15Z</time>
      </trkpt>
      <trkpt lat="46.30861" lon="-0.64445">
        <ele>7</ele>
        <time>2020-05-31T13:30:16Z</time>
      </trkpt>
      <trkpt lat="46.30856" lon="-0.64448">
        <ele>7</ele>
        <time>2020-05-31T13:30:17Z</time>
      </trkpt>
      <trkpt lat="46.30851" lon="-0.64452">
        <ele>7</ele>
        <time>2020-05-31T13:30:18Z</time>
      </trkpt>
      <trkpt lat="46.30846" lon="-0.64457">
        <ele>7</ele>
        <time>2020-05-31T13:30:19Z</time>
      </trkpt>
      <trkpt lat="46.30842" lon="-0.64463">
        <ele>7</ele>
        <time>2020-05-31T13:30:20Z</time>
      </trkpt>
      <trkpt lat="46.3084" lon="-0.64471">
        <ele>7</ele>
        <time>2020-05-31T13:30:21Z</time>
      </trkpt>
      <trkpt lat="46.30838" lon="-0.64478">
        <ele>7.1</ele>
        <time>2020-05-31T13:30:22Z</time>
      </trkpt>
      <trkpt lat="46.30838" lon="-0.64485">
        <ele>7.3</ele>
        <time>2020-05-31T13:30:23Z</time>
      </trkpt>
      <trkpt lat="46.30838" lon="-0.64492">
        <ele>7.4</ele>
        <time>2020-05-31T13:30:24Z</time>
      </trkpt>
      <trkpt lat="46.30839" lon="-0.64499">
        <ele>7.6</ele>
        <time>2020-05-31T13:30:25Z</time>
      </trkpt>
      <trkpt lat="46.30839" lon="-0.64505">
        <ele>7.7</ele>
        <time>2020-05-31T13:30:26Z</time>
      </trkpt>
      <trkpt lat="46.3084" lon="-0.64511">
        <ele>7.8</ele>
        <time>2020-05-31T13:30:27Z</time>
      </trkpt>
      <trkpt lat="46.30841" lon="-0.64517">
        <ele>7.9</ele>
        <time>2020-05-31T13:30:28Z</time>
      </trkpt>
      <trkpt lat="46.30843" lon="-0.64522">
        <ele>8</ele>
        <time>2020-05-31T13:30:29Z</time>
      </trkpt>
      <trkpt lat="46.30844" lon="-0.64526">
        <ele>8</ele>
        <time>2020-05-31T13:30:30Z</time>
      </trkpt>
      <trkpt lat="46.30845" lon="-0.64531">
        <ele>8.1</ele>
        <time>2020-05-31T13:30:31Z</time>
      </trkpt>
      <trkpt lat="46.30846" lon="-0.64538">
        <ele>8.2</ele>
        <time>2020-05-31T13:30:32Z</time>
      </trkpt>
      <trkpt lat="46.30846" lon="-0.64544">
        <ele>8.2</ele>
        <time>2020-05-31T13:30:33Z</time>
      </trkpt>
      <trkpt lat="46.30848" lon="-0.64551">
        <ele>8.3</ele>
        <time>2020-05-31T13:30:34Z</time>
      </trkpt>
      <trkpt lat="46.30849" lon="-0.64557">
        <ele>8.3</ele>
        <time>2020-05-31T13:30:35Z</time>
      </trkpt>
      <trkpt lat="46.30849" lon="-0.64563">
        <ele>8.3</ele>
        <time>2020-05-31T13:30:36Z</time>
      </trkpt>
      <trkpt lat="46.30851" lon="-0.6457">
        <ele>8.3</ele>
        <time>2020-05-31T13:30:37Z</time>
      </trkpt>
      <trkpt lat="46.30852" lon="-0.64576">
        <ele>8.3</ele>
        <time>2020-05-31T13:30:38Z</time>
      </trkpt>
      <trkpt lat="46.30853" lon="-0.64583">
        <ele>8.3</ele>
        <time>2020-05-31T13:30:39Z</time>
      </trkpt>
      <trkpt lat="46.30854" lon="-0.6459">
        <ele>8.2</ele>
        <time>2020-05-31T13:30:40Z</time>
      </trkpt>
      <trkpt lat="46.30855" lon="-0.64597">
        <ele>8.1</ele>
        <time>2020-05-31T13:30:41Z</time>
      </trkpt>
      <trkpt lat="46.30856" lon="-0.64605">
        <ele>8</ele>
        <time>2020-05-31T13:30:42Z</time>
      </trkpt>
      <trkpt lat="46.30856" lon="-0.64614">
        <ele>7.9</ele>
        <time>2020-05-31T13:30:43Z</time>
      </trkpt>
      <trkpt lat="46.30858" lon="-0.64623">
        <ele>7.7</ele>
        <time>2020-05-31T13:30:44Z</time>
      </trkpt>
      <trkpt lat="46.30859" lon="-0.64632">
        <ele>7.5</ele>
        <time>2020-05-31T13:30:45Z</time>
      </trkpt>
      <trkpt lat="46.30861" lon="-0.6464">
        <ele>7.3</ele>
        <time>2020-05-31T13:30:46Z</time>
      </trkpt>
      <trkpt lat="46.30861" lon="-0.64647">
        <ele>7.1</ele>
        <time>2020-05-31T13:30:47Z</time>
      </trkpt>
      <trkpt lat="46.30862" lon="-0.64656">
        <ele>6.8</ele>
        <time>2020-05-31T13:30:48Z</time>
      </trkpt>
      <trkpt lat="46.30863" lon="-0.64664">
        <ele>6.5</ele>
        <time>2020-05-31T13:30:49Z</time>
      </trkpt>
      <trkpt lat="46.30865" lon="-0.64672">
        <ele>6.3</ele>
        <time>2020-05-31T13:30:50Z</time>
      </trkpt>
      <trkpt lat="46.30866" lon="-0.64678">
        <ele>6.1</ele>
        <time>2020-05-31T13:30:51Z</time>
      </trkpt>
      <trkpt lat="46.30867" lon="-0.64684">
        <ele>6</ele>
        <time>2020-05-31T13:30:52Z</time>
      </trkpt>
      <trkpt lat="46.30868" lon="-0.6469">
        <ele>5.8</ele>
        <time>2020-05-31T13:30:53Z</time>
      </trkpt>
      <trkpt lat="46.30868" lon="-0.64695">
        <ele>5.8</ele>
        <time>2020-05-31T13:30:54Z</time>
      </trkpt>
      <trkpt lat="46.30868" lon="-0.64701">
        <ele>5.7</ele>
        <time>2020-05-31T13:30:55Z</time>
      </trkpt>
      <trkpt lat="46.30866" lon="-0.64705">
        <ele>5.7</ele>
        <time>2020-05-31T13:30:56Z</time>
      </trkpt>
      <trkpt lat="46.30863" lon="-0.6471">
        <ele>5.7</ele>
        <time>2020-05-31T13:30:57Z</time>
      </trkpt>
      <trkpt lat="46.3086" lon="-0.64713">
        <ele>5.6</ele>
        <time>2020-05-31T13:30:58Z</time>
      </trkpt>
      <trkpt lat="46.30858" lon="-0.64717">
        <ele>5.6</ele>
        <time>2020-05-31T13:30:59Z</time>
      </trkpt>
      <trkpt lat="46.30855" lon="-0.64722">
        <ele>5.6</ele>
        <time>2020-05-31T13:31:00Z</time>
      </trkpt>
      <trkpt lat="46.30852" lon="-0.64727">
        <ele>5.5</ele>
        <time>2020-05-31T13:31:01Z</time>
      </trkpt>
      <trkpt lat="46.30848" lon="-0.64731">
        <ele>5.5</ele>
        <time>2020-05-31T13:31:02Z</time>
      </trkpt>
      <trkpt lat="46.30844" lon="-0.64737">
        <ele>5.5</ele>
        <time>2020-05-31T13:31:03Z</time>
      </trkpt>
      <trkpt lat="46.3084" lon="-0.64742">
        <ele>5.6</ele>
        <time>2020-05-31T13:31:04Z</time>
      </trkpt>
      <trkpt lat="46.30836" lon="-0.64747">
        <ele>5.6</ele>
        <time>2020-05-31T13:31:05Z</time>
      </trkpt>
      <trkpt lat="46.30832" lon="-0.64751">
        <ele>5.7</ele>
        <time>2020-05-31T13:31:06Z</time>
      </trkpt>
      <trkpt lat="46.30826" lon="-0.6476">
        <ele>5.8</ele>
        <time>2020-05-31T13:31:07Z</time>
      </trkpt>
      <trkpt lat="46.30822" lon="-0.64763">
        <ele>5.8</ele>
        <time>2020-05-31T13:31:08Z</time>
      </trkpt>
      <trkpt lat="46.30817" lon="-0.64767">
        <ele>5.9</ele>
        <time>2020-05-31T13:31:09Z</time>
      </trkpt>
      <trkpt lat="46.30814" lon="-0.64772">
        <ele>6</ele>
        <time>2020-05-31T13:31:10Z</time>
      </trkpt>
      <trkpt lat="46.30809" lon="-0.64777">
        <ele>6.1</ele>
        <time>2020-05-31T13:31:11Z</time>
      </trkpt>
      <trkpt lat="46.30806" lon="-0.64782">
        <ele>6.1</ele>
        <time>2020-05-31T13:31:12Z</time>
      </trkpt>
      <trkpt lat="46.30801" lon="-0.64788">
        <ele>6.3</ele>
        <time>2020-05-31T13:31:13Z</time>
      </trkpt>
      <trkpt lat="46.30796" lon="-0.64793">
        <ele>6.4</ele>
        <time>2020-05-31T13:31:14Z</time>
      </trkpt>
      <trkpt lat="46.30793" lon="-0.64799">
        <ele>6.5</ele>
        <time>2020-05-31T13:31:15Z</time>
      </trkpt>
      <trkpt lat="46.3079" lon="-0.64805">
        <ele>6.6</ele>
        <time>2020-05-31T13:31:16Z</time>
      </trkpt>
      <trkpt lat="46.30788" lon="-0.64813">
        <ele>6.7</ele>
        <time>2020-05-31T13:31:17Z</time>
      </trkpt>
      <trkpt lat="46.30788" lon="-0.64821">
        <ele>6.8</ele>
        <time>2020-05-31T13:31:18Z</time>
      </trkpt>
      <trkpt lat="46.30787" lon="-0.64828">
        <ele>6.8</ele>
        <time>2020-05-31T13:31:19Z</time>
      </trkpt>
      <trkpt lat="46.30786" lon="-0.64834">
        <ele>6.9</ele>
        <time>2020-05-31T13:31:20Z</time>
      </trkpt>
      <trkpt lat="46.30786" lon="-0.64841">
        <ele>6.9</ele>
        <time>2020-05-31T13:31:21Z</time>
      </trkpt>
      <trkpt lat="46.30785" lon="-0.64848">
        <ele>7</ele>
        <time>2020-05-31T13:31:22Z</time>
      </trkpt>
      <trkpt lat="46.30785" lon="-0.64854">
        <ele>7</ele>
        <time>2020-05-31T13:31:23Z</time>
      </trkpt>
      <trkpt lat="46.30784" lon="-0.6486">
        <ele>7.1</ele>
        <time>2020-05-31T13:31:24Z</time>
      </trkpt>
      <trkpt lat="46.30784" lon="-0.64866">
        <ele>7.1</ele>
        <time>2020-05-31T13:31:25Z</time>
      </trkpt>
      <trkpt lat="46.30781" lon="-0.64869">
        <ele>7.2</ele>
        <time>2020-05-31T13:31:26Z</time>
      </trkpt>
      <trkpt lat="46.30778" lon="-0.64872">
        <ele>7.4</ele>
        <time>2020-05-31T13:31:27Z</time>
      </trkpt>
      <trkpt lat="46.30775" lon="-0.64872">
        <ele>7.6</ele>
        <time>2020-05-31T13:31:28Z</time>
      </trkpt>
      <trkpt lat="46.30771" lon="-0.64871">
        <ele>7.9</ele>
        <time>2020-05-31T13:31:29Z</time>
      </trkpt>
      <trkpt lat="46.30767" lon="-0.64871">
        <ele>8.3</ele>
        <time>2020-05-31T13:31:30Z</time>
      </trkpt>
      <trkpt lat="46.30763" lon="-0.64871">
        <ele>8.6</ele>
        <time>2020-05-31T13:31:31Z</time>
      </trkpt>
      <trkpt lat="46.3076" lon="-0.64872">
        <ele>8.9</ele>
        <time>2020-05-31T13:31:32Z</time>
      </trkpt>
      <trkpt lat="46.30756" lon="-0.64873">
        <ele>9.3</ele>
        <time>2020-05-31T13:31:33Z</time>
      </trkpt>
      <trkpt lat="46.30752" lon="-0.64872">
        <ele>9.6</ele>
        <time>2020-05-31T13:31:34Z</time>
      </trkpt>
      <trkpt lat="46.30748" lon="-0.64872">
        <ele>10</ele>
        <time>2020-05-31T13:31:35Z</time>
      </trkpt>
      <trkpt lat="46.30745" lon="-0.64876">
        <ele>10.3</ele>
        <time>2020-05-31T13:31:36Z</time>
      </trkpt>
      <trkpt lat="46.30743" lon="-0.6488">
        <ele>10.6</ele>
        <time>2020-05-31T13:31:37Z</time>
      </trkpt>
      <trkpt lat="46.30741" lon="-0.64883">
        <ele>10.7</ele>
        <time>2020-05-31T13:31:38Z</time>
      </trkpt>
      <trkpt lat="46.30741" lon="-0.64884">
        <ele>10.7</ele>
        <time>2020-05-31T13:31:39Z</time>
      </trkpt>
      <trkpt lat="46.30741" lon="-0.64886">
        <ele>10.7</ele>
        <time>2020-05-31T13:31:40Z</time>
      </trkpt>
      <trkpt lat="46.30741" lon="-0.64889">
        <ele>10.7</ele>
        <time>2020-05-31T13:31:41Z</time>
      </trkpt>
      <trkpt lat="46.30742" lon="-0.64893">
        <ele>10.8</ele>
        <time>2020-05-31T13:31:42Z</time>
      </trkpt>
      <trkpt lat="46.30742" lon="-0.64895">
        <ele>10.9</ele>
        <time>2020-05-31T13:31:43Z</time>
      </trkpt>
      <trkpt lat="46.30742" lon="-0.64899">
        <ele>10.9</ele>
        <time>2020-05-31T13:31:44Z</time>
      </trkpt>
      <trkpt lat="46.30743" lon="-0.64904">
        <ele>11</ele>
        <time>2020-05-31T13:31:45Z</time>
      </trkpt>
      <trkpt lat="46.30743" lon="-0.64908">
        <ele>11.1</ele>
        <time>2020-05-31T13:31:46Z</time>
      </trkpt>
      <trkpt lat="46.30743" lon="-0.64912">
        <ele>11.2</ele>
        <time>2020-05-31T13:31:47Z</time>
      </trkpt>
      <trkpt lat="46.30743" lon="-0.64914">
        <ele>11.3</ele>
        <time>2020-05-31T13:31:48Z</time>
      </trkpt>
      <trkpt lat="46.30741" lon="-0.64919">
        <ele>11.4</ele>
        <time>2020-05-31T13:31:49Z</time>
      </trkpt>
      <trkpt lat="46.30741" lon="-0.64924">
        <ele>11.6</ele>
        <time>2020-05-31T13:31:50Z</time>
      </trkpt>
      <trkpt lat="46.3074" lon="-0.64928">
        <ele>11.7</ele>
        <time>2020-05-31T13:31:51Z</time>
      </trkpt>
      <trkpt lat="46.30738" lon="-0.64935">
        <ele>11.9</ele>
        <time>2020-05-31T13:31:52Z</time>
      </trkpt>
      <trkpt lat="46.30736" lon="-0.6494">
        <ele>12.1</ele>
        <time>2020-05-31T13:31:53Z</time>
      </trkpt>
      <trkpt lat="46.30734" lon="-0.64944">
        <ele>12.2</ele>
        <time>2020-05-31T13:31:54Z</time>
      </trkpt>
      <trkpt lat="46.30733" lon="-0.64948">
        <ele>12.3</ele>
        <time>2020-05-31T13:31:55Z</time>
      </trkpt>
      <trkpt lat="46.30731" lon="-0.64951">
        <ele>12.4</ele>
        <time>2020-05-31T13:31:56Z</time>
      </trkpt>
      <trkpt lat="46.30731" lon="-0.64955">
        <ele>12.5</ele>
        <time>2020-05-31T13:31:57Z</time>
      </trkpt>
      <trkpt lat="46.3073" lon="-0.64959">
        <ele>12.5</ele>
        <time>2020-05-31T13:31:58Z</time>
      </trkpt>
      <trkpt lat="46.3073" lon="-0.64966">
        <ele>12.6</ele>
        <time>2020-05-31T13:31:59Z</time>
      </trkpt>
      <trkpt lat="46.30731" lon="-0.64973">
        <ele>12.6</ele>
        <time>2020-05-31T13:32:00Z</time>
      </trkpt>
      <trkpt lat="46.30732" lon="-0.64982">
        <ele>12.5</ele>
        <time>2020-05-31T13:32:01Z</time>
      </trkpt>
      <trkpt lat="46.30733" lon="-0.64991">
        <ele>12.4</ele>
        <time>2020-05-31T13:32:02Z</time>
      </trkpt>
      <trkpt lat="46.30734" lon="-0.64998">
        <ele>12.3</ele>
        <time>2020-05-31T13:32:03Z</time>
      </trkpt>
      <trkpt lat="46.30735" lon="-0.65005">
        <ele>12.2</ele>
        <time>2020-05-31T13:32:04Z</time>
      </trkpt>
      <trkpt lat="46.30735" lon="-0.65013">
        <ele>12.1</ele>
        <time>2020-05-31T13:32:05Z</time>
      </trkpt>
      <trkpt lat="46.30738" lon="-0.65021">
        <ele>12</ele>
        <time>2020-05-31T13:32:06Z</time>
      </trkpt>
      <trkpt lat="46.30739" lon="-0.65031">
        <ele>11.9</ele>
        <time>2020-05-31T13:32:07Z</time>
      </trkpt>
      <trkpt lat="46.3074" lon="-0.6504">
        <ele>11.7</ele>
        <time>2020-05-31T13:32:08Z</time>
      </trkpt>
      <trkpt lat="46.30742" lon="-0.65047">
        <ele>11.6</ele>
        <time>2020-05-31T13:32:09Z</time>
      </trkpt>
      <trkpt lat="46.30744" lon="-0.65053">
        <ele>11.5</ele>
        <time>2020-05-31T13:32:10Z</time>
      </trkpt>
      <trkpt lat="46.30746" lon="-0.6506">
        <ele>11.4</ele>
        <time>2020-05-31T13:32:11Z</time>
      </trkpt>
      <trkpt lat="46.30746" lon="-0.65069">
        <ele>11.3</ele>
        <time>2020-05-31T13:32:12Z</time>
      </trkpt>
      <trkpt lat="46.30746" lon="-0.65077">
        <ele>11.2</ele>
        <time>2020-05-31T13:32:13Z</time>
      </trkpt>
      <trkpt lat="46.30747" lon="-0.65085">
        <ele>11.1</ele>
        <time>2020-05-31T13:32:14Z</time>
      </trkpt>
      <trkpt lat="46.30748" lon="-0.65094">
        <ele>11.1</ele>
        <time>2020-05-31T13:32:15Z</time>
      </trkpt>
      <trkpt lat="46.30749" lon="-0.65102">
        <ele>11</ele>
        <time>2020-05-31T13:32:16Z</time>
      </trkpt>
      <trkpt lat="46.30749" lon="-0.65109">
        <ele>11</ele>
        <time>2020-05-31T13:32:17Z</time>
      </trkpt>
      <trkpt lat="46.3075" lon="-0.65116">
        <ele>11</ele>
        <time>2020-05-31T13:32:18Z</time>
      </trkpt>
      <trkpt lat="46.3075" lon="-0.65123">
        <ele>10.9</ele>
        <time>2020-05-31T13:32:19Z</time>
      </trkpt>
      <trkpt lat="46.30751" lon="-0.65131">
        <ele>10.9</ele>
        <time>2020-05-31T13:32:20Z</time>
      </trkpt>
      <trkpt lat="46.30752" lon="-0.6514">
        <ele>10.9</ele>
        <time>2020-05-31T13:32:21Z</time>
      </trkpt>
      <trkpt lat="46.30753" lon="-0.65148">
        <ele>10.8</ele>
        <time>2020-05-31T13:32:22Z</time>
      </trkpt>
      <trkpt lat="46.30754" lon="-0.65154">
        <ele>10.7</ele>
        <time>2020-05-31T13:32:23Z</time>
      </trkpt>
      <trkpt lat="46.30754" lon="-0.6516">
        <ele>10.7</ele>
        <time>2020-05-31T13:32:24Z</time>
      </trkpt>
      <trkpt lat="46.30753" lon="-0.65166">
        <ele>10.6</ele>
        <time>2020-05-31T13:32:25Z</time>
      </trkpt>
      <trkpt lat="46.30751" lon="-0.65169">
        <ele>10.6</ele>
        <time>2020-05-31T13:32:26Z</time>
      </trkpt>
      <trkpt lat="46.3075" lon="-0.6517">
        <ele>10.6</ele>
        <time>2020-05-31T13:32:27Z</time>
      </trkpt>
      <trkpt lat="46.30747" lon="-0.65172">
        <ele>10.7</ele>
        <time>2020-05-31T13:32:28Z</time>
      </trkpt>
      <trkpt lat="46.30746" lon="-0.65172">
        <ele>10.7</ele>
        <time>2020-05-31T13:32:29Z</time>
      </trkpt>
      <trkpt lat="46.30743" lon="-0.65172">
        <ele>10.8</ele>
        <time>2020-05-31T13:32:30Z</time>
      </trkpt>
      <trkpt lat="46.30739" lon="-0.65173">
        <ele>10.9</ele>
        <time>2020-05-31T13:32:31Z</time>
      </trkpt>
      <trkpt lat="46.30736" lon="-0.65173">
        <ele>11</ele>
        <time>2020-05-31T13:32:32Z</time>
      </trkpt>
      <trkpt lat="46.30732" lon="-0.65174">
        <ele>11.2</ele>
        <time>2020-05-31T13:32:33Z</time>
      </trkpt>
      <trkpt lat="46.30727" lon="-0.65176">
        <ele>11.4</ele>
        <time>2020-05-31T13:32:34Z</time>
      </trkpt>
      <trkpt lat="46.30722" lon="-0.65177">
        <ele>11.7</ele>
        <time>2020-05-31T13:32:35Z</time>
      </trkpt>
      <trkpt lat="46.30716" lon="-0.65177">
        <ele>11.9</ele>
        <time>2020-05-31T13:32:36Z</time>
      </trkpt>
      <trkpt lat="46.30711" lon="-0.65178">
        <ele>12.1</ele>
        <time>2020-05-31T13:32:37Z</time>
      </trkpt>
      <trkpt lat="46.30707" lon="-0.65179">
        <ele>12.3</ele>
        <time>2020-05-31T13:32:38Z</time>
      </trkpt>
      <trkpt lat="46.30701" lon="-0.6518">
        <ele>12.5</ele>
        <time>2020-05-31T13:32:39Z</time>
      </trkpt>
      <trkpt lat="46.30696" lon="-0.65182">
        <ele>12.7</ele>
        <time>2020-05-31T13:32:40Z</time>
      </trkpt>
      <trkpt lat="46.30692" lon="-0.65185">
        <ele>12.9</ele>
        <time>2020-05-31T13:32:41Z</time>
      </trkpt>
      <trkpt lat="46.30688" lon="-0.65185">
        <ele>13</ele>
        <time>2020-05-31T13:32:42Z</time>
      </trkpt>
      <trkpt lat="46.30684" lon="-0.65189">
        <ele>13.2</ele>
        <time>2020-05-31T13:32:43Z</time>
      </trkpt>
      <trkpt lat="46.30682" lon="-0.6519">
        <ele>13.3</ele>
        <time>2020-05-31T13:32:44Z</time>
      </trkpt>
      <trkpt lat="46.30679" lon="-0.65193">
        <ele>13.4</ele>
        <time>2020-05-31T13:32:45Z</time>
      </trkpt>
      <trkpt lat="46.30676" lon="-0.65196">
        <ele>13.6</ele>
        <time>2020-05-31T13:32:46Z</time>
      </trkpt>
      <trkpt lat="46.30674" lon="-0.65199">
        <ele>13.7</ele>
        <time>2020-05-31T13:32:47Z</time>
      </trkpt>
      <trkpt lat="46.30671" lon="-0.652">
        <ele>13.8</ele>
        <time>2020-05-31T13:32:48Z</time>
      </trkpt>
      <trkpt lat="46.30668" lon="-0.65202">
        <ele>13.8</ele>
        <time>2020-05-31T13:32:49Z</time>
      </trkpt>
      <trkpt lat="46.30666" lon="-0.65204">
        <ele>13.9</ele>
        <time>2020-05-31T13:32:50Z</time>
      </trkpt>
      <trkpt lat="46.30662" lon="-0.65206">
        <ele>14</ele>
        <time>2020-05-31T13:32:51Z</time>
      </trkpt>
      <trkpt lat="46.30659" lon="-0.65208">
        <ele>14.1</ele>
        <time>2020-05-31T13:32:52Z</time>
      </trkpt>
      <trkpt lat="46.30656" lon="-0.65209">
        <ele>14.1</ele>
        <time>2020-05-31T13:32:53Z</time>
      </trkpt>
      <trkpt lat="46.30652" lon="-0.65211">
        <ele>14.2</ele>
        <time>2020-05-31T13:32:54Z</time>
      </trkpt>
      <trkpt lat="46.30648" lon="-0.65213">
        <ele>14.3</ele>
        <time>2020-05-31T13:32:55Z</time>
      </trkpt>
      <trkpt lat="46.30643" lon="-0.65215">
        <ele>14.3</ele>
        <time>2020-05-31T13:32:56Z</time>
      </trkpt>
      <trkpt lat="46.30639" lon="-0.65218">
        <ele>14.4</ele>
        <time>2020-05-31T13:32:57Z</time>
      </trkpt>
      <trkpt lat="46.30636" lon="-0.6522">
        <ele>14.4</ele>
        <time>2020-05-31T13:32:58Z</time>
      </trkpt>
      <trkpt lat="46.30632" lon="-0.65222">
        <ele>14.5</ele>
        <time>2020-05-31T13:32:59Z</time>
      </trkpt>
      <trkpt lat="46.30629" lon="-0.65223">
        <ele>14.5</ele>
        <time>2020-05-31T13:33:00Z</time>
      </trkpt>
      <trkpt lat="46.30626" lon="-0.65224">
        <ele>14.5</ele>
        <time>2020-05-31T13:33:01Z</time>
      </trkpt>
      <trkpt lat="46.30623" lon="-0.65226">
        <ele>14.6</ele>
        <time>2020-05-31T13:33:02Z</time>
      </trkpt>
      <trkpt lat="46.30619" lon="-0.65228">
        <ele>14.6</ele>
        <time>2020-05-31T13:33:03Z</time>
      </trkpt>
      <trkpt lat="46.30615" lon="-0.65231">
        <ele>14.6</ele>
        <time>2020-05-31T13:33:04Z</time>
      </trkpt>
      <trkpt lat="46.30611" lon="-0.65233">
        <ele>14.6</ele>
        <time>2020-05-31T13:33:05Z</time>
      </trkpt>
      <trkpt lat="46.30606" lon="-0.65235">
        <ele>14.7</ele>
        <time>2020-05-31T13:33:06Z</time>
      </trkpt>
      <trkpt lat="46.30602" lon="-0.65237">
        <ele>14.7</ele>
        <time>2020-05-31T13:33:07Z</time>
      </trkpt>
      <trkpt lat="46.30598" lon="-0.6524">
        <ele>14.7</ele>
        <time>2020-05-31T13:33:08Z</time>
      </trkpt>
      <trkpt lat="46.30595" lon="-0.65244">
        <ele>14.8</ele>
        <time>2020-05-31T13:33:09Z</time>
      </trkpt>
      <trkpt lat="46.30591" lon="-0.65246">
        <ele>14.8</ele>
        <time>2020-05-31T13:33:10Z</time>
      </trkpt>
      <trkpt lat="46.30586" lon="-0.65247">
        <ele>14.8</ele>
        <time>2020-05-31T13:33:11Z</time>
      </trkpt>
      <trkpt lat="46.30582" lon="-0.65249">
        <ele>14.8</ele>
        <time>2020-05-31T13:33:12Z</time>
      </trkpt>
      <trkpt lat="46.30579" lon="-0.65253">
        <ele>14.8</ele>
        <time>2020-05-31T13:33:13Z</time>
      </trkpt>
      <trkpt lat="46.30574" lon="-0.65256">
        <ele>14.7</ele>
        <time>2020-05-31T13:33:14Z</time>
      </trkpt>
      <trkpt lat="46.3057" lon="-0.65259">
        <ele>14.7</ele>
        <time>2020-05-31T13:33:15Z</time>
      </trkpt>
      <trkpt lat="46.30565" lon="-0.65262">
        <ele>14.6</ele>
        <time>2020-05-31T13:33:16Z</time>
      </trkpt>
      <trkpt lat="46.3056" lon="-0.65264">
        <ele>14.6</ele>
        <time>2020-05-31T13:33:17Z</time>
      </trkpt>
      <trkpt lat="46.30556" lon="-0.65265">
        <ele>14.5</ele>
        <time>2020-05-31T13:33:18Z</time>
      </trkpt>
      <trkpt lat="46.30551" lon="-0.65268">
        <ele>14.5</ele>
        <time>2020-05-31T13:33:19Z</time>
      </trkpt>
      <trkpt lat="46.30546" lon="-0.65271">
        <ele>14.4</ele>
        <time>2020-05-31T13:33:20Z</time>
      </trkpt>
      <trkpt lat="46.30541" lon="-0.65275">
        <ele>14.3</ele>
        <time>2020-05-31T13:33:21Z</time>
      </trkpt>
      <trkpt lat="46.30536" lon="-0.65279">
        <ele>14.2</ele>
        <time>2020-05-31T13:33:22Z</time>
      </trkpt>
      <trkpt lat="46.30531" lon="-0.65283">
        <ele>14.1</ele>
        <time>2020-05-31T13:33:23Z</time>
      </trkpt>
      <trkpt lat="46.30525" lon="-0.65286">
        <ele>14</ele>
        <time>2020-05-31T13:33:24Z</time>
      </trkpt>
      <trkpt lat="46.30519" lon="-0.65288">
        <ele>13.9</ele>
        <time>2020-05-31T13:33:25Z</time>
      </trkpt>
      <trkpt lat="46.30513" lon="-0.6529">
        <ele>13.8</ele>
        <time>2020-05-31T13:33:26Z</time>
      </trkpt>
      <trkpt lat="46.30508" lon="-0.65293">
        <ele>13.7</ele>
        <time>2020-05-31T13:33:27Z</time>
      </trkpt>
      <trkpt lat="46.30503" lon="-0.65295">
        <ele>13.6</ele>
        <time>2020-05-31T13:33:28Z</time>
      </trkpt>
      <trkpt lat="46.30499" lon="-0.65299">
        <ele>13.5</ele>
        <time>2020-05-31T13:33:29Z</time>
      </trkpt>
      <trkpt lat="46.30494" lon="-0.65303">
        <ele>13.5</ele>
        <time>2020-05-31T13:33:30Z</time>
      </trkpt>
      <trkpt lat="46.30489" lon="-0.65305">
        <ele>13.4</ele>
        <time>2020-05-31T13:33:31Z</time>
      </trkpt>
      <trkpt lat="46.30484" lon="-0.65308">
        <ele>13.3</ele>
        <time>2020-05-31T13:33:32Z</time>
      </trkpt>
      <trkpt lat="46.30479" lon="-0.6531">
        <ele>13.2</ele>
        <time>2020-05-31T13:33:33Z</time>
      </trkpt>
      <trkpt lat="46.30474" lon="-0.65313">
        <ele>13.1</ele>
        <time>2020-05-31T13:33:34Z</time>
      </trkpt>
      <trkpt lat="46.3047" lon="-0.65315">
        <ele>13.1</ele>
        <time>2020-05-31T13:33:35Z</time>
      </trkpt>
      <trkpt lat="46.30465" lon="-0.65317">
        <ele>13</ele>
        <time>2020-05-31T13:33:36Z</time>
      </trkpt>
      <trkpt lat="46.3046" lon="-0.6532">
        <ele>12.9</ele>
        <time>2020-05-31T13:33:37Z</time>
      </trkpt>
      <trkpt lat="46.30455" lon="-0.65322">
        <ele>12.8</ele>
        <time>2020-05-31T13:33:38Z</time>
      </trkpt>
      <trkpt lat="46.30449" lon="-0.65326">
        <ele>12.8</ele>
        <time>2020-05-31T13:33:39Z</time>
      </trkpt>
      <trkpt lat="46.30443" lon="-0.6533">
        <ele>12.7</ele>
        <time>2020-05-31T13:33:40Z</time>
      </trkpt>
      <trkpt lat="46.30436" lon="-0.65333">
        <ele>12.6</ele>
        <time>2020-05-31T13:33:41Z</time>
      </trkpt>
      <trkpt lat="46.3043" lon="-0.65334">
        <ele>12.5</ele>
        <time>2020-05-31T13:33:42Z</time>
      </trkpt>
      <trkpt lat="46.30425" lon="-0.65339">
        <ele>12.3</ele>
        <time>2020-05-31T13:33:43Z</time>
      </trkpt>
      <trkpt lat="46.30421" lon="-0.65343">
        <ele>12.3</ele>
        <time>2020-05-31T13:33:44Z</time>
      </trkpt>
      <trkpt lat="46.30417" lon="-0.65348">
        <ele>12.3</ele>
        <time>2020-05-31T13:33:45Z</time>
      </trkpt>
      <trkpt lat="46.30413" lon="-0.65354">
        <ele>12.2</ele>
        <time>2020-05-31T13:33:46Z</time>
      </trkpt>
      <trkpt lat="46.30409" lon="-0.65361">
        <ele>12.1</ele>
        <time>2020-05-31T13:33:47Z</time>
      </trkpt>
      <trkpt lat="46.30405" lon="-0.65367">
        <ele>12</ele>
        <time>2020-05-31T13:33:48Z</time>
      </trkpt>
      <trkpt lat="46.30401" lon="-0.65373">
        <ele>11.9</ele>
        <time>2020-05-31T13:33:49Z</time>
      </trkpt>
      <trkpt lat="46.30398" lon="-0.65381">
        <ele>11.8</ele>
        <time>2020-05-31T13:33:50Z</time>
      </trkpt>
      <trkpt lat="46.30395" lon="-0.65388">
        <ele>11.7</ele>
        <time>2020-05-31T13:33:51Z</time>
      </trkpt>
      <trkpt lat="46.30391" lon="-0.65394">
        <ele>11.6</ele>
        <time>2020-05-31T13:33:52Z</time>
      </trkpt>
      <trkpt lat="46.30387" lon="-0.65402">
        <ele>11.4</ele>
        <time>2020-05-31T13:33:53Z</time>
      </trkpt>
      <trkpt lat="46.30384" lon="-0.65407">
        <ele>11.3</ele>
        <time>2020-05-31T13:33:54Z</time>
      </trkpt>
      <trkpt lat="46.3038" lon="-0.65414">
        <ele>11.2</ele>
        <time>2020-05-31T13:33:55Z</time>
      </trkpt>
      <trkpt lat="46.30377" lon="-0.65422">
        <ele>11.1</ele>
        <time>2020-05-31T13:33:56Z</time>
      </trkpt>
      <trkpt lat="46.30373" lon="-0.6543">
        <ele>11</ele>
        <time>2020-05-31T13:33:57Z</time>
      </trkpt>
      <trkpt lat="46.3037" lon="-0.65437">
        <ele>10.9</ele>
        <time>2020-05-31T13:33:58Z</time>
      </trkpt>
      <trkpt lat="46.30368" lon="-0.65444">
        <ele>10.8</ele>
        <time>2020-05-31T13:33:59Z</time>
      </trkpt>
      <trkpt lat="46.30365" lon="-0.6545">
        <ele>10.7</ele>
        <time>2020-05-31T13:34:00Z</time>
      </trkpt>
      <trkpt lat="46.30363" lon="-0.65457">
        <ele>10.6</ele>
        <time>2020-05-31T13:34:01Z</time>
      </trkpt>
      <trkpt lat="46.3036" lon="-0.65463">
        <ele>10.5</ele>
        <time>2020-05-31T13:34:02Z</time>
      </trkpt>
      <trkpt lat="46.3036" lon="-0.65469">
        <ele>10.4</ele>
        <time>2020-05-31T13:34:03Z</time>
      </trkpt>
      <trkpt lat="46.30358" lon="-0.65476">
        <ele>10.4</ele>
        <time>2020-05-31T13:34:04Z</time>
      </trkpt>
      <trkpt lat="46.30356" lon="-0.65483">
        <ele>10.2</ele>
        <time>2020-05-31T13:34:05Z</time>
      </trkpt>
      <trkpt lat="46.30354" lon="-0.65491">
        <ele>10.1</ele>
        <time>2020-05-31T13:34:06Z</time>
      </trkpt>
      <trkpt lat="46.30352" lon="-0.65499">
        <ele>10</ele>
        <time>2020-05-31T13:34:07Z</time>
      </trkpt>
      <trkpt lat="46.3035" lon="-0.65507">
        <ele>9.9</ele>
        <time>2020-05-31T13:34:08Z</time>
      </trkpt>
      <trkpt lat="46.30348" lon="-0.65516">
        <ele>9.8</ele>
        <time>2020-05-31T13:34:09Z</time>
      </trkpt>
      <trkpt lat="46.30346" lon="-0.65524">
        <ele>9.8</ele>
        <time>2020-05-31T13:34:10Z</time>
      </trkpt>
      <trkpt lat="46.30343" lon="-0.65533">
        <ele>9.7</ele>
        <time>2020-05-31T13:34:11Z</time>
      </trkpt>
      <trkpt lat="46.30341" lon="-0.65542">
        <ele>9.6</ele>
        <time>2020-05-31T13:34:12Z</time>
      </trkpt>
      <trkpt lat="46.30338" lon="-0.65552">
        <ele>9.5</ele>
        <time>2020-05-31T13:34:13Z</time>
      </trkpt>
      <trkpt lat="46.30334" lon="-0.65561">
        <ele>9.4</ele>
        <time>2020-05-31T13:34:14Z</time>
      </trkpt>
      <trkpt lat="46.30331" lon="-0.65571">
        <ele>9.3</ele>
        <time>2020-05-31T13:34:15Z</time>
      </trkpt>
      <trkpt lat="46.30328" lon="-0.65579">
        <ele>9.2</ele>
        <time>2020-05-31T13:34:16Z</time>
      </trkpt>
      <trkpt lat="46.30325" lon="-0.65587">
        <ele>9.2</ele>
        <time>2020-05-31T13:34:17Z</time>
      </trkpt>
      <trkpt lat="46.30322" lon="-0.65595">
        <ele>9.1</ele>
        <time>2020-05-31T13:34:18Z</time>
      </trkpt>
      <trkpt lat="46.30319" lon="-0.65603">
        <ele>9</ele>
        <time>2020-05-31T13:34:19Z</time>
      </trkpt>
      <trkpt lat="46.30316" lon="-0.65609">
        <ele>9</ele>
        <time>2020-05-31T13:34:20Z</time>
      </trkpt>
      <trkpt lat="46.30314" lon="-0.65616">
        <ele>8.9</ele>
        <time>2020-05-31T13:34:21Z</time>
      </trkpt>
      <trkpt lat="46.30312" lon="-0.65623">
        <ele>8.8</ele>
        <time>2020-05-31T13:34:22Z</time>
      </trkpt>
      <trkpt lat="46.30309" lon="-0.65631">
        <ele>8.8</ele>
        <time>2020-05-31T13:34:23Z</time>
      </trkpt>
      <trkpt lat="46.30307" lon="-0.65638">
        <ele>8.7</ele>
        <time>2020-05-31T13:34:24Z</time>
      </trkpt>
      <trkpt lat="46.30304" lon="-0.65646">
        <ele>8.6</ele>
        <time>2020-05-31T13:34:25Z</time>
      </trkpt>
      <trkpt lat="46.30301" lon="-0.65653">
        <ele>8.5</ele>
        <time>2020-05-31T13:34:26Z</time>
      </trkpt>
      <trkpt lat="46.30297" lon="-0.65662">
        <ele>8.4</ele>
        <time>2020-05-31T13:34:27Z</time>
      </trkpt>
      <trkpt lat="46.30294" lon="-0.6567">
        <ele>8.3</ele>
        <time>2020-05-31T13:34:28Z</time>
      </trkpt>
      <trkpt lat="46.3029" lon="-0.65677">
        <ele>8.3</ele>
        <time>2020-05-31T13:34:29Z</time>
      </trkpt>
      <trkpt lat="46.30285" lon="-0.65685">
        <ele>8.2</ele>
        <time>2020-05-31T13:34:30Z</time>
      </trkpt>
      <trkpt lat="46.30282" lon="-0.65693">
        <ele>8.1</ele>
        <time>2020-05-31T13:34:31Z</time>
      </trkpt>
      <trkpt lat="46.30278" lon="-0.657">
        <ele>8</ele>
        <time>2020-05-31T13:34:32Z</time>
      </trkpt>
      <trkpt lat="46.30275" lon="-0.65707">
        <ele>8</ele>
        <time>2020-05-31T13:34:33Z</time>
      </trkpt>
      <trkpt lat="46.30272" lon="-0.65714">
        <ele>7.9</ele>
        <time>2020-05-31T13:34:34Z</time>
      </trkpt>
      <trkpt lat="46.30268" lon="-0.65721">
        <ele>7.9</ele>
        <time>2020-05-31T13:34:35Z</time>
      </trkpt>
      <trkpt lat="46.30264" lon="-0.65727">
        <ele>7.8</ele>
        <time>2020-05-31T13:34:36Z</time>
      </trkpt>
      <trkpt lat="46.3026" lon="-0.65733">
        <ele>7.8</ele>
        <time>2020-05-31T13:34:37Z</time>
      </trkpt>
      <trkpt lat="46.30256" lon="-0.6574">
        <ele>7.7</ele>
        <time>2020-05-31T13:34:38Z</time>
      </trkpt>
      <trkpt lat="46.30252" lon="-0.65747">
        <ele>7.6</ele>
        <time>2020-05-31T13:34:39Z</time>
      </trkpt>
      <trkpt lat="46.30247" lon="-0.65754">
        <ele>7.5</ele>
        <time>2020-05-31T13:34:40Z</time>
      </trkpt>
      <trkpt lat="46.30243" lon="-0.6576">
        <ele>7.4</ele>
        <time>2020-05-31T13:34:41Z</time>
      </trkpt>
      <trkpt lat="46.30239" lon="-0.65765">
        <ele>7.3</ele>
        <time>2020-05-31T13:34:42Z</time>
      </trkpt>
      <trkpt lat="46.30235" lon="-0.6577">
        <ele>7.3</ele>
        <time>2020-05-31T13:34:43Z</time>
      </trkpt>
      <trkpt lat="46.30232" lon="-0.65776">
        <ele>7.2</ele>
        <time>2020-05-31T13:34:44Z</time>
      </trkpt>
      <trkpt lat="46.30227" lon="-0.65781">
        <ele>7.2</ele>
        <time>2020-05-31T13:34:45Z</time>
      </trkpt>
      <trkpt lat="46.30223" lon="-0.65786">
        <ele>7.1</ele>
        <time>2020-05-31T13:34:46Z</time>
      </trkpt>
      <trkpt lat="46.30219" lon="-0.65791">
        <ele>7.1</ele>
        <time>2020-05-31T13:34:47Z</time>
      </trkpt>
      <trkpt lat="46.30214" lon="-0.65796">
        <ele>7</ele>
        <time>2020-05-31T13:34:48Z</time>
      </trkpt>
      <trkpt lat="46.3021" lon="-0.65801">
        <ele>7</ele>
        <time>2020-05-31T13:34:49Z</time>
      </trkpt>
      <trkpt lat="46.30205" lon="-0.65805">
        <ele>7</ele>
        <time>2020-05-31T13:34:50Z</time>
      </trkpt>
      <trkpt lat="46.302" lon="-0.65807">
        <ele>6.9</ele>
        <time>2020-05-31T13:34:51Z</time>
      </trkpt>
      <trkpt lat="46.30195" lon="-0.6581">
        <ele>6.9</ele>
        <time>2020-05-31T13:34:52Z</time>
      </trkpt>
      <trkpt lat="46.3019" lon="-0.65813">
        <ele>6.9</ele>
        <time>2020-05-31T13:34:53Z</time>
      </trkpt>
      <trkpt lat="46.30182" lon="-0.65816">
        <ele>6.8</ele>
        <time>2020-05-31T13:34:54Z</time>
      </trkpt>
      <trkpt lat="46.30177" lon="-0.65817">
        <ele>6.9</ele>
        <time>2020-05-31T13:34:55Z</time>
      </trkpt>
      <trkpt lat="46.30172" lon="-0.65818">
        <ele>6.9</ele>
        <time>2020-05-31T13:34:56Z</time>
      </trkpt>
      <trkpt lat="46.30167" lon="-0.65819">
        <ele>6.9</ele>
        <time>2020-05-31T13:34:57Z</time>
      </trkpt>
      <trkpt lat="46.30162" lon="-0.6582">
        <ele>6.9</ele>
        <time>2020-05-31T13:34:58Z</time>
      </trkpt>
      <trkpt lat="46.30158" lon="-0.65821">
        <ele>6.9</ele>
        <time>2020-05-31T13:34:59Z</time>
      </trkpt>
      <trkpt lat="46.30154" lon="-0.65823">
        <ele>6.9</ele>
        <time>2020-05-31T13:35:00Z</time>
      </trkpt>
      <trkpt lat="46.3015" lon="-0.65825">
        <ele>6.9</ele>
        <time>2020-05-31T13:35:01Z</time>
      </trkpt>
      <trkpt lat="46.30146" lon="-0.65827">
        <ele>6.9</ele>
        <time>2020-05-31T13:35:02Z</time>
      </trkpt>
      <trkpt lat="46.30141" lon="-0.6583">
        <ele>6.9</ele>
        <time>2020-05-31T13:35:03Z</time>
      </trkpt>
      <trkpt lat="46.30137" lon="-0.65835">
        <ele>6.9</ele>
        <time>2020-05-31T13:35:04Z</time>
      </trkpt>
      <trkpt lat="46.30133" lon="-0.65839">
        <ele>6.9</ele>
        <time>2020-05-31T13:35:05Z</time>
      </trkpt>
      <trkpt lat="46.30129" lon="-0.65844">
        <ele>6.9</ele>
        <time>2020-05-31T13:35:06Z</time>
      </trkpt>
      <trkpt lat="46.30125" lon="-0.65848">
        <ele>6.9</ele>
        <time>2020-05-31T13:35:07Z</time>
      </trkpt>
      <trkpt lat="46.30122" lon="-0.65853">
        <ele>7</ele>
        <time>2020-05-31T13:35:08Z</time>
      </trkpt>
      <trkpt lat="46.30119" lon="-0.65857">
        <ele>7</ele>
        <time>2020-05-31T13:35:09Z</time>
      </trkpt>
      <trkpt lat="46.30116" lon="-0.65862">
        <ele>7.1</ele>
        <time>2020-05-31T13:35:10Z</time>
      </trkpt>
      <trkpt lat="46.30113" lon="-0.65867">
        <ele>7.2</ele>
        <time>2020-05-31T13:35:11Z</time>
      </trkpt>
      <trkpt lat="46.3011" lon="-0.65873">
        <ele>7.2</ele>
        <time>2020-05-31T13:35:12Z</time>
      </trkpt>
      <trkpt lat="46.30107" lon="-0.6588">
        <ele>7.3</ele>
        <time>2020-05-31T13:35:13Z</time>
      </trkpt>
      <trkpt lat="46.30105" lon="-0.65885">
        <ele>7.4</ele>
        <time>2020-05-31T13:35:14Z</time>
      </trkpt>
      <trkpt lat="46.30102" lon="-0.65894">
        <ele>7.5</ele>
        <time>2020-05-31T13:35:15Z</time>
      </trkpt>
      <trkpt lat="46.301" lon="-0.659">
        <ele>7.5</ele>
        <time>2020-05-31T13:35:16Z</time>
      </trkpt>
      <trkpt lat="46.30097" lon="-0.65908">
        <ele>7.6</ele>
        <time>2020-05-31T13:35:17Z</time>
      </trkpt>
      <trkpt lat="46.30095" lon="-0.65915">
        <ele>7.7</ele>
        <time>2020-05-31T13:35:18Z</time>
      </trkpt>
      <trkpt lat="46.30093" lon="-0.65922">
        <ele>7.8</ele>
        <time>2020-05-31T13:35:19Z</time>
      </trkpt>
      <trkpt lat="46.30091" lon="-0.65928">
        <ele>7.8</ele>
        <time>2020-05-31T13:35:20Z</time>
      </trkpt>
      <trkpt lat="46.30089" lon="-0.65934">
        <ele>7.9</ele>
        <time>2020-05-31T13:35:21Z</time>
      </trkpt>
      <trkpt lat="46.30088" lon="-0.65939">
        <ele>7.9</ele>
        <time>2020-05-31T13:35:22Z</time>
      </trkpt>
      <trkpt lat="46.30086" lon="-0.65946">
        <ele>7.9</ele>
        <time>2020-05-31T13:35:23Z</time>
      </trkpt>
      <trkpt lat="46.30084" lon="-0.65952">
        <ele>8</ele>
        <time>2020-05-31T13:35:24Z</time>
      </trkpt>
      <trkpt lat="46.30082" lon="-0.65959">
        <ele>8.1</ele>
        <time>2020-05-31T13:35:25Z</time>
      </trkpt>
      <trkpt lat="46.3008" lon="-0.65964">
        <ele>8.2</ele>
        <time>2020-05-31T13:35:26Z</time>
      </trkpt>
      <trkpt lat="46.30078" lon="-0.6597">
        <ele>8.3</ele>
        <time>2020-05-31T13:35:27Z</time>
      </trkpt>
      <trkpt lat="46.30076" lon="-0.65976">
        <ele>8.5</ele>
        <time>2020-05-31T13:35:28Z</time>
      </trkpt>
      <trkpt lat="46.30074" lon="-0.65982">
        <ele>8.6</ele>
        <time>2020-05-31T13:35:29Z</time>
      </trkpt>
      <trkpt lat="46.30072" lon="-0.65989">
        <ele>8.8</ele>
        <time>2020-05-31T13:35:30Z</time>
      </trkpt>
      <trkpt lat="46.30069" lon="-0.65995">
        <ele>8.9</ele>
        <time>2020-05-31T13:35:31Z</time>
      </trkpt>
      <trkpt lat="46.30066" lon="-0.66001">
        <ele>9.1</ele>
        <time>2020-05-31T13:35:32Z</time>
      </trkpt>
      <trkpt lat="46.30064" lon="-0.66007">
        <ele>9.3</ele>
        <time>2020-05-31T13:35:33Z</time>
      </trkpt>
      <trkpt lat="46.30061" lon="-0.66012">
        <ele>9.4</ele>
        <time>2020-05-31T13:35:34Z</time>
      </trkpt>
      <trkpt lat="46.3006" lon="-0.66017">
        <ele>9.6</ele>
        <time>2020-05-31T13:35:35Z</time>
      </trkpt>
      <trkpt lat="46.30057" lon="-0.66023">
        <ele>9.8</ele>
        <time>2020-05-31T13:35:36Z</time>
      </trkpt>
      <trkpt lat="46.30055" lon="-0.66029">
        <ele>10</ele>
        <time>2020-05-31T13:35:37Z</time>
      </trkpt>
      <trkpt lat="46.30053" lon="-0.66035">
        <ele>10.2</ele>
        <time>2020-05-31T13:35:38Z</time>
      </trkpt>
      <trkpt lat="46.30051" lon="-0.6604">
        <ele>10.4</ele>
        <time>2020-05-31T13:35:39Z</time>
      </trkpt>
      <trkpt lat="46.30049" lon="-0.66045">
        <ele>10.6</ele>
        <time>2020-05-31T13:35:40Z</time>
      </trkpt>
      <trkpt lat="46.30047" lon="-0.66051">
        <ele>10.8</ele>
        <time>2020-05-31T13:35:41Z</time>
      </trkpt>
      <trkpt lat="46.30045" lon="-0.66057">
        <ele>11</ele>
        <time>2020-05-31T13:35:42Z</time>
      </trkpt>
      <trkpt lat="46.30043" lon="-0.66062">
        <ele>11.2</ele>
        <time>2020-05-31T13:35:43Z</time>
      </trkpt>
      <trkpt lat="46.3004" lon="-0.66068">
        <ele>11.5</ele>
        <time>2020-05-31T13:35:44Z</time>
      </trkpt>
      <trkpt lat="46.30038" lon="-0.66073">
        <ele>11.7</ele>
        <time>2020-05-31T13:35:45Z</time>
      </trkpt>
      <trkpt lat="46.30035" lon="-0.66077">
        <ele>11.9</ele>
        <time>2020-05-31T13:35:46Z</time>
      </trkpt>
      <trkpt lat="46.30033" lon="-0.66081">
        <ele>12.1</ele>
        <time>2020-05-31T13:35:47Z</time>
      </trkpt>
      <trkpt lat="46.30031" lon="-0.66086">
        <ele>12.3</ele>
        <time>2020-05-31T13:35:48Z</time>
      </trkpt>
      <trkpt lat="46.30028" lon="-0.6609">
        <ele>12.6</ele>
        <time>2020-05-31T13:35:49Z</time>
      </trkpt>
      <trkpt lat="46.30026" lon="-0.66094">
        <ele>12.8</ele>
        <time>2020-05-31T13:35:50Z</time>
      </trkpt>
      <trkpt lat="46.30023" lon="-0.66099">
        <ele>13</ele>
        <time>2020-05-31T13:35:51Z</time>
      </trkpt>
      <trkpt lat="46.3002" lon="-0.66103">
        <ele>13.2</ele>
        <time>2020-05-31T13:35:52Z</time>
      </trkpt>
      <trkpt lat="46.30017" lon="-0.66106">
        <ele>13.4</ele>
        <time>2020-05-31T13:35:53Z</time>
      </trkpt>
      <trkpt lat="46.30014" lon="-0.6611">
        <ele>13.5</ele>
        <time>2020-05-31T13:35:54Z</time>
      </trkpt>
      <trkpt lat="46.30012" lon="-0.66114">
        <ele>13.7</ele>
        <time>2020-05-31T13:35:55Z</time>
      </trkpt>
      <trkpt lat="46.30009" lon="-0.66117">
        <ele>13.8</ele>
        <time>2020-05-31T13:35:56Z</time>
      </trkpt>
      <trkpt lat="46.30007" lon="-0.66122">
        <ele>14</ele>
        <time>2020-05-31T13:35:57Z</time>
      </trkpt>
      <trkpt lat="46.30005" lon="-0.66125">
        <ele>14.1</ele>
        <time>2020-05-31T13:35:58Z</time>
      </trkpt>
      <trkpt lat="46.30003" lon="-0.66129">
        <ele>14.3</ele>
        <time>2020-05-31T13:35:59Z</time>
      </trkpt>
      <trkpt lat="46.29999" lon="-0.66132">
        <ele>14.5</ele>
        <time>2020-05-31T13:36:00Z</time>
      </trkpt>
      <trkpt lat="46.29996" lon="-0.66135">
        <ele>14.6</ele>
        <time>2020-05-31T13:36:01Z</time>
      </trkpt>
      <trkpt lat="46.29993" lon="-0.66138">
        <ele>14.7</ele>
        <time>2020-05-31T13:36:02Z</time>
      </trkpt>
      <trkpt lat="46.29991" lon="-0.66143">
        <ele>14.9</ele>
        <time>2020-05-31T13:36:03Z</time>
      </trkpt>
      <trkpt lat="46.29987" lon="-0.66148">
        <ele>15.1</ele>
        <time>2020-05-31T13:36:04Z</time>
      </trkpt>
      <trkpt lat="46.29984" lon="-0.6615">
        <ele>15.2</ele>
        <time>2020-05-31T13:36:05Z</time>
      </trkpt>
      <trkpt lat="46.29981" lon="-0.66153">
        <ele>15.3</ele>
        <time>2020-05-31T13:36:06Z</time>
      </trkpt>
      <trkpt lat="46.29978" lon="-0.66158">
        <ele>15.4</ele>
        <time>2020-05-31T13:36:07Z</time>
      </trkpt>
      <trkpt lat="46.29976" lon="-0.66162">
        <ele>15.5</ele>
        <time>2020-05-31T13:36:08Z</time>
      </trkpt>
      <trkpt lat="46.29973" lon="-0.66166">
        <ele>15.6</ele>
        <time>2020-05-31T13:36:09Z</time>
      </trkpt>
      <trkpt lat="46.2997" lon="-0.66168">
        <ele>15.8</ele>
        <time>2020-05-31T13:36:10Z</time>
      </trkpt>
      <trkpt lat="46.29967" lon="-0.66171">
        <ele>15.9</ele>
        <time>2020-05-31T13:36:11Z</time>
      </trkpt>
      <trkpt lat="46.29965" lon="-0.66175">
        <ele>16</ele>
        <time>2020-05-31T13:36:12Z</time>
      </trkpt>
      <trkpt lat="46.29962" lon="-0.66178">
        <ele>16.1</ele>
        <time>2020-05-31T13:36:13Z</time>
      </trkpt>
      <trkpt lat="46.29959" lon="-0.66182">
        <ele>16.2</ele>
        <time>2020-05-31T13:36:14Z</time>
      </trkpt>
      <trkpt lat="46.29957" lon="-0.66185">
        <ele>16.4</ele>
        <time>2020-05-31T13:36:15Z</time>
      </trkpt>
      <trkpt lat="46.29955" lon="-0.66189">
        <ele>16.5</ele>
        <time>2020-05-31T13:36:16Z</time>
      </trkpt>
      <trkpt lat="46.29951" lon="-0.66193">
        <ele>16.6</ele>
        <time>2020-05-31T13:36:17Z</time>
      </trkpt>
      <trkpt lat="46.29948" lon="-0.66197">
        <ele>16.8</ele>
        <time>2020-05-31T13:36:18Z</time>
      </trkpt>
      <trkpt lat="46.29945" lon="-0.66202">
        <ele>17</ele>
        <time>2020-05-31T13:36:19Z</time>
      </trkpt>
      <trkpt lat="46.29943" lon="-0.66206">
        <ele>17.1</ele>
        <time>2020-05-31T13:36:20Z</time>
      </trkpt>
      <trkpt lat="46.29941" lon="-0.6621">
        <ele>17.3</ele>
        <time>2020-05-31T13:36:21Z</time>
      </trkpt>
      <trkpt lat="46.29938" lon="-0.66215">
        <ele>17.4</ele>
        <time>2020-05-31T13:36:22Z</time>
      </trkpt>
      <trkpt lat="46.29936" lon="-0.66219">
        <ele>17.5</ele>
        <time>2020-05-31T13:36:23Z</time>
      </trkpt>
      <trkpt lat="46.29934" lon="-0.66224">
        <ele>17.6</ele>
        <time>2020-05-31T13:36:24Z</time>
      </trkpt>
      <trkpt lat="46.29932" lon="-0.66228">
        <ele>17.7</ele>
        <time>2020-05-31T13:36:25Z</time>
      </trkpt>
      <trkpt lat="46.29929" lon="-0.66234">
        <ele>17.8</ele>
        <time>2020-05-31T13:36:26Z</time>
      </trkpt>
      <trkpt lat="46.29927" lon="-0.66237">
        <ele>18</ele>
        <time>2020-05-31T13:36:27Z</time>
      </trkpt>
      <trkpt lat="46.29925" lon="-0.66244">
        <ele>18.2</ele>
        <time>2020-05-31T13:36:28Z</time>
      </trkpt>
      <trkpt lat="46.29923" lon="-0.6625">
        <ele>18.5</ele>
        <time>2020-05-31T13:36:29Z</time>
      </trkpt>
      <trkpt lat="46.29921" lon="-0.66254">
        <ele>18.6</ele>
        <time>2020-05-31T13:36:30Z</time>
      </trkpt>
      <trkpt lat="46.2992" lon="-0.66259">
        <ele>18.9</ele>
        <time>2020-05-31T13:36:31Z</time>
      </trkpt>
      <trkpt lat="46.29919" lon="-0.66263">
        <ele>19.1</ele>
        <time>2020-05-31T13:36:32Z</time>
      </trkpt>
      <trkpt lat="46.29918" lon="-0.66268">
        <ele>19.3</ele>
        <time>2020-05-31T13:36:33Z</time>
      </trkpt>
      <trkpt lat="46.29918" lon="-0.66272">
        <ele>19.5</ele>
        <time>2020-05-31T13:36:34Z</time>
      </trkpt>
      <trkpt lat="46.29918" lon="-0.66277">
        <ele>19.7</ele>
        <time>2020-05-31T13:36:35Z</time>
      </trkpt>
      <trkpt lat="46.29919" lon="-0.66283">
        <ele>20.1</ele>
        <time>2020-05-31T13:36:36Z</time>
      </trkpt>
      <trkpt lat="46.29919" lon="-0.66285">
        <ele>20.2</ele>
        <time>2020-05-31T13:36:37Z</time>
      </trkpt>
      <trkpt lat="46.29919" lon="-0.66289">
        <ele>20.4</ele>
        <time>2020-05-31T13:36:38Z</time>
      </trkpt>
      <trkpt lat="46.29918" lon="-0.66295">
        <ele>20.7</ele>
        <time>2020-05-31T13:36:39Z</time>
      </trkpt>
      <trkpt lat="46.29918" lon="-0.663">
        <ele>21</ele>
        <time>2020-05-31T13:36:40Z</time>
      </trkpt>
      <trkpt lat="46.29918" lon="-0.66305">
        <ele>21.2</ele>
        <time>2020-05-31T13:36:41Z</time>
      </trkpt>
      <trkpt lat="46.29918" lon="-0.66311">
        <ele>21.4</ele>
        <time>2020-05-31T13:36:42Z</time>
      </trkpt>
      <trkpt lat="46.2992" lon="-0.66312">
        <ele>21.5</ele>
        <time>2020-05-31T13:36:43Z</time>
      </trkpt>
      <trkpt lat="46.2992" lon="-0.66315">
        <ele>21.6</ele>
        <time>2020-05-31T13:36:44Z</time>
      </trkpt>
      <trkpt lat="46.29921" lon="-0.66319">
        <ele>21.8</ele>
        <time>2020-05-31T13:36:45Z</time>
      </trkpt>
      <trkpt lat="46.29921" lon="-0.6632">
        <ele>21.8</ele>
        <time>2020-05-31T13:36:46Z</time>
      </trkpt>
      <trkpt lat="46.29921" lon="-0.66324">
        <ele>21.9</ele>
        <time>2020-05-31T13:36:47Z</time>
      </trkpt>
      <trkpt lat="46.29923" lon="-0.66328">
        <ele>22</ele>
        <time>2020-05-31T13:36:48Z</time>
      </trkpt>
      <trkpt lat="46.29923" lon="-0.66329">
        <ele>22</ele>
        <time>2020-05-31T13:36:49Z</time>
      </trkpt>
      <trkpt lat="46.29924" lon="-0.66334">
        <ele>22</ele>
        <time>2020-05-31T13:36:50Z</time>
      </trkpt>
      <trkpt lat="46.29924" lon="-0.66339">
        <ele>22.3</ele>
        <time>2020-05-31T13:36:51Z</time>
      </trkpt>
      <trkpt lat="46.29925" lon="-0.66343">
        <ele>22.4</ele>
        <time>2020-05-31T13:36:52Z</time>
      </trkpt>
      <trkpt lat="46.29926" lon="-0.66347">
        <ele>22.6</ele>
        <time>2020-05-31T13:36:53Z</time>
      </trkpt>
      <trkpt lat="46.29927" lon="-0.66352">
        <ele>22.8</ele>
        <time>2020-05-31T13:36:54Z</time>
      </trkpt>
      <trkpt lat="46.29927" lon="-0.66353">
        <ele>22.9</ele>
        <time>2020-05-31T13:36:55Z</time>
      </trkpt>
      <trkpt lat="46.29928" lon="-0.66358">
        <ele>23.1</ele>
        <time>2020-05-31T13:36:56Z</time>
      </trkpt>
      <trkpt lat="46.29929" lon="-0.66363">
        <ele>23.4</ele>
        <time>2020-05-31T13:36:57Z</time>
      </trkpt>
      <trkpt lat="46.29929" lon="-0.66368">
        <ele>23.7</ele>
        <time>2020-05-31T13:36:58Z</time>
      </trkpt>
      <trkpt lat="46.2993" lon="-0.66374">
        <ele>24</ele>
        <time>2020-05-31T13:36:59Z</time>
      </trkpt>
      <trkpt lat="46.2993" lon="-0.66379">
        <ele>24.2</ele>
        <time>2020-05-31T13:37:00Z</time>
      </trkpt>
      <trkpt lat="46.29929" lon="-0.66384">
        <ele>24.5</ele>
        <time>2020-05-31T13:37:01Z</time>
      </trkpt>
      <trkpt lat="46.29929" lon="-0.66386">
        <ele>24.6</ele>
        <time>2020-05-31T13:37:02Z</time>
      </trkpt>
      <trkpt lat="46.2993" lon="-0.6639">
        <ele>24.8</ele>
        <time>2020-05-31T13:37:03Z</time>
      </trkpt>
      <trkpt lat="46.2993" lon="-0.66391">
        <ele>24.9</ele>
        <time>2020-05-31T13:37:04Z</time>
      </trkpt>
      <trkpt lat="46.29931" lon="-0.66396">
        <ele>25.1</ele>
        <time>2020-05-31T13:37:05Z</time>
      </trkpt>
      <trkpt lat="46.29931" lon="-0.66397">
        <ele>25.2</ele>
        <time>2020-05-31T13:37:06Z</time>
      </trkpt>
      <trkpt lat="46.2993" lon="-0.66402">
        <ele>25.4</ele>
        <time>2020-05-31T13:37:07Z</time>
      </trkpt>
      <trkpt lat="46.2993" lon="-0.66406">
        <ele>25.5</ele>
        <time>2020-05-31T13:37:08Z</time>
      </trkpt>
      <trkpt lat="46.29932" lon="-0.66412">
        <ele>25.7</ele>
        <time>2020-05-31T13:37:09Z</time>
      </trkpt>
      <trkpt lat="46.29932" lon="-0.66418">
        <ele>25.9</ele>
        <time>2020-05-31T13:37:10Z</time>
      </trkpt>
      <trkpt lat="46.29933" lon="-0.66423">
        <ele>26</ele>
        <time>2020-05-31T13:37:11Z</time>
      </trkpt>
      <trkpt lat="46.29933" lon="-0.66428">
        <ele>26.2</ele>
        <time>2020-05-31T13:37:12Z</time>
      </trkpt>
      <trkpt lat="46.29933" lon="-0.66432">
        <ele>26.2</ele>
        <time>2020-05-31T13:37:13Z</time>
      </trkpt>
      <trkpt lat="46.29932" lon="-0.66437">
        <ele>26.2</ele>
        <time>2020-05-31T13:37:14Z</time>
      </trkpt>
      <trkpt lat="46.29932" lon="-0.66441">
        <ele>26.3</ele>
        <time>2020-05-31T13:37:15Z</time>
      </trkpt>
      <trkpt lat="46.29931" lon="-0.66448">
        <ele>26.3</ele>
        <time>2020-05-31T13:37:16Z</time>
      </trkpt>
      <trkpt lat="46.29931" lon="-0.66455">
        <ele>26.3</ele>
        <time>2020-05-31T13:37:17Z</time>
      </trkpt>
      <trkpt lat="46.29931" lon="-0.6646">
        <ele>26.4</ele>
        <time>2020-05-31T13:37:18Z</time>
      </trkpt>
      <trkpt lat="46.29931" lon="-0.66465">
        <ele>26.4</ele>
        <time>2020-05-31T13:37:19Z</time>
      </trkpt>
      <trkpt lat="46.2993" lon="-0.66472">
        <ele>26.4</ele>
        <time>2020-05-31T13:37:20Z</time>
      </trkpt>
      <trkpt lat="46.2993" lon="-0.66479">
        <ele>26.5</ele>
        <time>2020-05-31T13:37:21Z</time>
      </trkpt>
      <trkpt lat="46.2993" lon="-0.66486">
        <ele>26.5</ele>
        <time>2020-05-31T13:37:22Z</time>
      </trkpt>
      <trkpt lat="46.2993" lon="-0.66493">
        <ele>26.5</ele>
        <time>2020-05-31T13:37:23Z</time>
      </trkpt>
      <trkpt lat="46.2993" lon="-0.665">
        <ele>26.5</ele>
        <time>2020-05-31T13:37:24Z</time>
      </trkpt>
      <trkpt lat="46.2993" lon="-0.66505">
        <ele>26.5</ele>
        <time>2020-05-31T13:37:25Z</time>
      </trkpt>
      <trkpt lat="46.29931" lon="-0.66511">
        <ele>26.5</ele>
        <time>2020-05-31T13:37:26Z</time>
      </trkpt>
      <trkpt lat="46.2993" lon="-0.66516">
        <ele>26.5</ele>
        <time>2020-05-31T13:37:27Z</time>
      </trkpt>
      <trkpt lat="46.2993" lon="-0.66522">
        <ele>26.5</ele>
        <time>2020-05-31T13:37:28Z</time>
      </trkpt>
      <trkpt lat="46.2993" lon="-0.66528">
        <ele>26.5</ele>
        <time>2020-05-31T13:37:29Z</time>
      </trkpt>
      <trkpt lat="46.2993" lon="-0.66532">
        <ele>26.6</ele>
        <time>2020-05-31T13:37:30Z</time>
      </trkpt>
      <trkpt lat="46.29927" lon="-0.66536">
        <ele>26.6</ele>
        <time>2020-05-31T13:37:31Z</time>
      </trkpt>
      <trkpt lat="46.29925" lon="-0.66536">
        <ele>26.6</ele>
        <time>2020-05-31T13:37:32Z</time>
      </trkpt>
      <trkpt lat="46.29922" lon="-0.66536">
        <ele>26.7</ele>
        <time>2020-05-31T13:37:33Z</time>
      </trkpt>
      <trkpt lat="46.29919" lon="-0.66538">
        <ele>26.7</ele>
        <time>2020-05-31T13:37:34Z</time>
      </trkpt>
      <trkpt lat="46.29916" lon="-0.66538">
        <ele>26.8</ele>
        <time>2020-05-31T13:37:35Z</time>
      </trkpt>
      <trkpt lat="46.29912" lon="-0.66539">
        <ele>26.8</ele>
        <time>2020-05-31T13:37:36Z</time>
      </trkpt>
      <trkpt lat="46.29909" lon="-0.66539">
        <ele>26.9</ele>
        <time>2020-05-31T13:37:37Z</time>
      </trkpt>
      <trkpt lat="46.29906" lon="-0.66541">
        <ele>26.9</ele>
        <time>2020-05-31T13:37:38Z</time>
      </trkpt>
      <trkpt lat="46.29902" lon="-0.66541">
        <ele>27</ele>
        <time>2020-05-31T13:37:39Z</time>
      </trkpt>
      <trkpt lat="46.299" lon="-0.66542">
        <ele>27</ele>
        <time>2020-05-31T13:37:40Z</time>
      </trkpt>
      <trkpt lat="46.29898" lon="-0.66542">
        <ele>27.1</ele>
        <time>2020-05-31T13:37:41Z</time>
      </trkpt>
      <trkpt lat="46.29895" lon="-0.66543">
        <ele>27.1</ele>
        <time>2020-05-31T13:37:42Z</time>
      </trkpt>
      <trkpt lat="46.29891" lon="-0.66544">
        <ele>27.2</ele>
        <time>2020-05-31T13:37:43Z</time>
      </trkpt>
      <trkpt lat="46.2989" lon="-0.66544">
        <ele>27.2</ele>
        <time>2020-05-31T13:37:44Z</time>
      </trkpt>
      <trkpt lat="46.29887" lon="-0.66546">
        <ele>27.2</ele>
        <time>2020-05-31T13:37:45Z</time>
      </trkpt>
      <trkpt lat="46.29884" lon="-0.66546">
        <ele>27.3</ele>
        <time>2020-05-31T13:37:46Z</time>
      </trkpt>
      <trkpt lat="46.29883" lon="-0.66546">
        <ele>27.3</ele>
        <time>2020-05-31T13:37:47Z</time>
      </trkpt>
      <trkpt lat="46.29879" lon="-0.66545">
        <ele>27.3</ele>
        <time>2020-05-31T13:37:48Z</time>
      </trkpt>
      <trkpt lat="46.29878" lon="-0.66545">
        <ele>27.4</ele>
        <time>2020-05-31T13:37:49Z</time>
      </trkpt>
      <trkpt lat="46.29875" lon="-0.66546">
        <ele>27.4</ele>
        <time>2020-05-31T13:37:50Z</time>
      </trkpt>
      <trkpt lat="46.29873" lon="-0.66546">
        <ele>27.4</ele>
        <time>2020-05-31T13:37:51Z</time>
      </trkpt>
      <trkpt lat="46.2987" lon="-0.66547">
        <ele>27.5</ele>
        <time>2020-05-31T13:37:52Z</time>
      </trkpt>
      <trkpt lat="46.29869" lon="-0.66547">
        <ele>27.5</ele>
        <time>2020-05-31T13:37:53Z</time>
      </trkpt>
      <trkpt lat="46.29866" lon="-0.66548">
        <ele>27.5</ele>
        <time>2020-05-31T13:37:54Z</time>
      </trkpt>
      <trkpt lat="46.29865" lon="-0.66549">
        <ele>27.5</ele>
        <time>2020-05-31T13:37:55Z</time>
      </trkpt>
      <trkpt lat="46.29862" lon="-0.66551">
        <ele>27.5</ele>
        <time>2020-05-31T13:37:56Z</time>
      </trkpt>
      <trkpt lat="46.29861" lon="-0.66552">
        <ele>27.6</ele>
        <time>2020-05-31T13:37:57Z</time>
      </trkpt>
      <trkpt lat="46.29858" lon="-0.66553">
        <ele>27.6</ele>
        <time>2020-05-31T13:37:58Z</time>
      </trkpt>
      <trkpt lat="46.29857" lon="-0.66554">
        <ele>27.6</ele>
        <time>2020-05-31T13:37:59Z</time>
      </trkpt>
      <trkpt lat="46.29853" lon="-0.66555">
        <ele>27.7</ele>
        <time>2020-05-31T13:38:00Z</time>
      </trkpt>
      <trkpt lat="46.29852" lon="-0.66556">
        <ele>27.7</ele>
        <time>2020-05-31T13:38:01Z</time>
      </trkpt>
      <trkpt lat="46.29849" lon="-0.66557">
        <ele>27.7</ele>
        <time>2020-05-31T13:38:02Z</time>
      </trkpt>
      <trkpt lat="46.29846" lon="-0.66558">
        <ele>27.8</ele>
        <time>2020-05-31T13:38:03Z</time>
      </trkpt>
      <trkpt lat="46.29842" lon="-0.6656">
        <ele>27.8</ele>
        <time>2020-05-31T13:38:04Z</time>
      </trkpt>
      <trkpt lat="46.2984" lon="-0.66561">
        <ele>27.9</ele>
        <time>2020-05-31T13:38:05Z</time>
      </trkpt>
      <trkpt lat="46.29836" lon="-0.66563">
        <ele>27.9</ele>
        <time>2020-05-31T13:38:06Z</time>
      </trkpt>
      <trkpt lat="46.29834" lon="-0.66563">
        <ele>27.9</ele>
        <time>2020-05-31T13:38:07Z</time>
      </trkpt>
      <trkpt lat="46.29831" lon="-0.66564">
        <ele>28</ele>
        <time>2020-05-31T13:38:08Z</time>
      </trkpt>
      <trkpt lat="46.29827" lon="-0.66565">
        <ele>28</ele>
        <time>2020-05-31T13:38:09Z</time>
      </trkpt>
      <trkpt lat="46.29824" lon="-0.66565">
        <ele>28.1</ele>
        <time>2020-05-31T13:38:10Z</time>
      </trkpt>
      <trkpt lat="46.29821" lon="-0.66565">
        <ele>28.1</ele>
        <time>2020-05-31T13:38:11Z</time>
      </trkpt>
      <trkpt lat="46.29818" lon="-0.66564">
        <ele>28.1</ele>
        <time>2020-05-31T13:38:12Z</time>
      </trkpt>
      <trkpt lat="46.29814" lon="-0.66565">
        <ele>28.2</ele>
        <time>2020-05-31T13:38:13Z</time>
      </trkpt>
      <trkpt lat="46.29813" lon="-0.66565">
        <ele>28.2</ele>
        <time>2020-05-31T13:38:14Z</time>
      </trkpt>
      <trkpt lat="46.2981" lon="-0.66566">
        <ele>28.2</ele>
        <time>2020-05-31T13:38:15Z</time>
      </trkpt>
      <trkpt lat="46.29807" lon="-0.66567">
        <ele>28.2</ele>
        <time>2020-05-31T13:38:16Z</time>
      </trkpt>
      <trkpt lat="46.29804" lon="-0.66568">
        <ele>28.2</ele>
        <time>2020-05-31T13:38:17Z</time>
      </trkpt>
      <trkpt lat="46.29801" lon="-0.66569">
        <ele>28.3</ele>
        <time>2020-05-31T13:38:18Z</time>
      </trkpt>
      <trkpt lat="46.29798" lon="-0.66569">
        <ele>28.3</ele>
        <time>2020-05-31T13:38:19Z</time>
      </trkpt>
      <trkpt lat="46.29795" lon="-0.6657">
        <ele>28.3</ele>
        <time>2020-05-31T13:38:20Z</time>
      </trkpt>
      <trkpt lat="46.29791" lon="-0.66572">
        <ele>28.4</ele>
        <time>2020-05-31T13:38:21Z</time>
      </trkpt>
      <trkpt lat="46.2979" lon="-0.66572">
        <ele>28.4</ele>
        <time>2020-05-31T13:38:22Z</time>
      </trkpt>
      <trkpt lat="46.29787" lon="-0.66573">
        <ele>28.4</ele>
        <time>2020-05-31T13:38:23Z</time>
      </trkpt>
      <trkpt lat="46.29784" lon="-0.66574">
        <ele>28.4</ele>
        <time>2020-05-31T13:38:24Z</time>
      </trkpt>
      <trkpt lat="46.29781" lon="-0.66575">
        <ele>28.5</ele>
        <time>2020-05-31T13:38:25Z</time>
      </trkpt>
      <trkpt lat="46.29778" lon="-0.66575">
        <ele>28.5</ele>
        <time>2020-05-31T13:38:26Z</time>
      </trkpt>
      <trkpt lat="46.29775" lon="-0.66576">
        <ele>28.5</ele>
        <time>2020-05-31T13:38:27Z</time>
      </trkpt>
      <trkpt lat="46.29771" lon="-0.66577">
        <ele>28.5</ele>
        <time>2020-05-31T13:38:28Z</time>
      </trkpt>
      <trkpt lat="46.2977" lon="-0.66578">
        <ele>28.6</ele>
        <time>2020-05-31T13:38:29Z</time>
      </trkpt>
      <trkpt lat="46.29767" lon="-0.66581">
        <ele>28.6</ele>
        <time>2020-05-31T13:38:30Z</time>
      </trkpt>
      <trkpt lat="46.29767" lon="-0.66582">
        <ele>28.6</ele>
        <time>2020-05-31T13:38:31Z</time>
      </trkpt>
      <trkpt lat="46.29766" lon="-0.66587">
        <ele>28.5</ele>
        <time>2020-05-31T13:38:32Z</time>
      </trkpt>
      <trkpt lat="46.29766" lon="-0.66589">
        <ele>28.5</ele>
        <time>2020-05-31T13:38:33Z</time>
      </trkpt>
      <trkpt lat="46.29765" lon="-0.66593">
        <ele>28.5</ele>
        <time>2020-05-31T13:38:34Z</time>
      </trkpt>
      <trkpt lat="46.29765" lon="-0.66598">
        <ele>28.5</ele>
        <time>2020-05-31T13:38:35Z</time>
      </trkpt>
      <trkpt lat="46.29765" lon="-0.66604">
        <ele>28.4</ele>
        <time>2020-05-31T13:38:36Z</time>
      </trkpt>
      <trkpt lat="46.29765" lon="-0.66609">
        <ele>28.4</ele>
        <time>2020-05-31T13:38:37Z</time>
      </trkpt>
      <trkpt lat="46.29765" lon="-0.66615">
        <ele>28.3</ele>
        <time>2020-05-31T13:38:38Z</time>
      </trkpt>
      <trkpt lat="46.29765" lon="-0.66621">
        <ele>28.3</ele>
        <time>2020-05-31T13:38:39Z</time>
      </trkpt>
      <trkpt lat="46.29765" lon="-0.66628">
        <ele>28.2</ele>
        <time>2020-05-31T13:38:40Z</time>
      </trkpt>
      <trkpt lat="46.29766" lon="-0.66634">
        <ele>28.1</ele>
        <time>2020-05-31T13:38:41Z</time>
      </trkpt>
      <trkpt lat="46.29766" lon="-0.66642">
        <ele>28.1</ele>
        <time>2020-05-31T13:38:42Z</time>
      </trkpt>
      <trkpt lat="46.29768" lon="-0.66649">
        <ele>28</ele>
        <time>2020-05-31T13:38:43Z</time>
      </trkpt>
      <trkpt lat="46.29769" lon="-0.66656">
        <ele>27.9</ele>
        <time>2020-05-31T13:38:44Z</time>
      </trkpt>
      <trkpt lat="46.2977" lon="-0.66663">
        <ele>27.9</ele>
        <time>2020-05-31T13:38:45Z</time>
      </trkpt>
      <trkpt lat="46.2977" lon="-0.6667">
        <ele>27.8</ele>
        <time>2020-05-31T13:38:46Z</time>
      </trkpt>
      <trkpt lat="46.29771" lon="-0.66678">
        <ele>27.7</ele>
        <time>2020-05-31T13:38:47Z</time>
      </trkpt>
      <trkpt lat="46.29773" lon="-0.66685">
        <ele>27.7</ele>
        <time>2020-05-31T13:38:48Z</time>
      </trkpt>
      <trkpt lat="46.29774" lon="-0.66693">
        <ele>27.6</ele>
        <time>2020-05-31T13:38:49Z</time>
      </trkpt>
      <trkpt lat="46.29775" lon="-0.667">
        <ele>27.5</ele>
        <time>2020-05-31T13:38:50Z</time>
      </trkpt>
      <trkpt lat="46.29776" lon="-0.66708">
        <ele>27.4</ele>
        <time>2020-05-31T13:38:51Z</time>
      </trkpt>
      <trkpt lat="46.29776" lon="-0.66716">
        <ele>27.3</ele>
        <time>2020-05-31T13:38:52Z</time>
      </trkpt>
      <trkpt lat="46.29776" lon="-0.66724">
        <ele>27.2</ele>
        <time>2020-05-31T13:38:53Z</time>
      </trkpt>
      <trkpt lat="46.29777" lon="-0.66732">
        <ele>27.1</ele>
        <time>2020-05-31T13:38:54Z</time>
      </trkpt>
      <trkpt lat="46.29777" lon="-0.66741">
        <ele>26.9</ele>
        <time>2020-05-31T13:38:55Z</time>
      </trkpt>
      <trkpt lat="46.29776" lon="-0.6675">
        <ele>26.8</ele>
        <time>2020-05-31T13:38:56Z</time>
      </trkpt>
      <trkpt lat="46.29776" lon="-0.66759">
        <ele>26.6</ele>
        <time>2020-05-31T13:38:57Z</time>
      </trkpt>
      <trkpt lat="46.29776" lon="-0.66767">
        <ele>26.5</ele>
        <time>2020-05-31T13:38:58Z</time>
      </trkpt>
      <trkpt lat="46.29776" lon="-0.66776">
        <ele>26.3</ele>
        <time>2020-05-31T13:38:59Z</time>
      </trkpt>
      <trkpt lat="46.29775" lon="-0.66785">
        <ele>26.1</ele>
        <time>2020-05-31T13:39:00Z</time>
      </trkpt>
      <trkpt lat="46.29775" lon="-0.66795">
        <ele>25.9</ele>
        <time>2020-05-31T13:39:01Z</time>
      </trkpt>
      <trkpt lat="46.29774" lon="-0.66803">
        <ele>25.8</ele>
        <time>2020-05-31T13:39:02Z</time>
      </trkpt>
      <trkpt lat="46.29774" lon="-0.66812">
        <ele>25.7</ele>
        <time>2020-05-31T13:39:03Z</time>
      </trkpt>
      <trkpt lat="46.29773" lon="-0.66821">
        <ele>25.6</ele>
        <time>2020-05-31T13:39:04Z</time>
      </trkpt>
      <trkpt lat="46.29772" lon="-0.66828">
        <ele>25.6</ele>
        <time>2020-05-31T13:39:05Z</time>
      </trkpt>
      <trkpt lat="46.29771" lon="-0.66838">
        <ele>25.5</ele>
        <time>2020-05-31T13:39:06Z</time>
      </trkpt>
      <trkpt lat="46.2977" lon="-0.66846">
        <ele>25.4</ele>
        <time>2020-05-31T13:39:07Z</time>
      </trkpt>
      <trkpt lat="46.29768" lon="-0.66854">
        <ele>25.3</ele>
        <time>2020-05-31T13:39:08Z</time>
      </trkpt>
      <trkpt lat="46.29767" lon="-0.66863">
        <ele>25.3</ele>
        <time>2020-05-31T13:39:09Z</time>
      </trkpt>
      <trkpt lat="46.29765" lon="-0.66872">
        <ele>25.2</ele>
        <time>2020-05-31T13:39:10Z</time>
      </trkpt>
      <trkpt lat="46.29763" lon="-0.66881">
        <ele>25.1</ele>
        <time>2020-05-31T13:39:11Z</time>
      </trkpt>
      <trkpt lat="46.29761" lon="-0.6689">
        <ele>25</ele>
        <time>2020-05-31T13:39:12Z</time>
      </trkpt>
      <trkpt lat="46.29759" lon="-0.66899">
        <ele>24.9</ele>
        <time>2020-05-31T13:39:13Z</time>
      </trkpt>
      <trkpt lat="46.29757" lon="-0.66907">
        <ele>24.8</ele>
        <time>2020-05-31T13:39:14Z</time>
      </trkpt>
      <trkpt lat="46.29755" lon="-0.66916">
        <ele>24.7</ele>
        <time>2020-05-31T13:39:15Z</time>
      </trkpt>
      <trkpt lat="46.29753" lon="-0.66925">
        <ele>24.6</ele>
        <time>2020-05-31T13:39:16Z</time>
      </trkpt>
      <trkpt lat="46.29751" lon="-0.66934">
        <ele>24.5</ele>
        <time>2020-05-31T13:39:17Z</time>
      </trkpt>
      <trkpt lat="46.29749" lon="-0.66943">
        <ele>24.4</ele>
        <time>2020-05-31T13:39:18Z</time>
      </trkpt>
      <trkpt lat="46.29747" lon="-0.66953">
        <ele>24.4</ele>
        <time>2020-05-31T13:39:19Z</time>
      </trkpt>
      <trkpt lat="46.29745" lon="-0.66962">
        <ele>24.3</ele>
        <time>2020-05-31T13:39:20Z</time>
      </trkpt>
      <trkpt lat="46.29743" lon="-0.66971">
        <ele>24.2</ele>
        <time>2020-05-31T13:39:21Z</time>
      </trkpt>
      <trkpt lat="46.29741" lon="-0.6698">
        <ele>24.1</ele>
        <time>2020-05-31T13:39:22Z</time>
      </trkpt>
      <trkpt lat="46.29739" lon="-0.66988">
        <ele>24</ele>
        <time>2020-05-31T13:39:23Z</time>
      </trkpt>
      <trkpt lat="46.29737" lon="-0.66998">
        <ele>24</ele>
        <time>2020-05-31T13:39:24Z</time>
      </trkpt>
      <trkpt lat="46.29735" lon="-0.67007">
        <ele>23.9</ele>
        <time>2020-05-31T13:39:25Z</time>
      </trkpt>
      <trkpt lat="46.29732" lon="-0.67016">
        <ele>23.9</ele>
        <time>2020-05-31T13:39:26Z</time>
      </trkpt>
      <trkpt lat="46.29729" lon="-0.67026">
        <ele>23.9</ele>
        <time>2020-05-31T13:39:27Z</time>
      </trkpt>
      <trkpt lat="46.29727" lon="-0.67036">
        <ele>23.8</ele>
        <time>2020-05-31T13:39:28Z</time>
      </trkpt>
      <trkpt lat="46.29724" lon="-0.67045">
        <ele>23.8</ele>
        <time>2020-05-31T13:39:29Z</time>
      </trkpt>
      <trkpt lat="46.29722" lon="-0.67053">
        <ele>23.8</ele>
        <time>2020-05-31T13:39:30Z</time>
      </trkpt>
      <trkpt lat="46.2972" lon="-0.67061">
        <ele>23.7</ele>
        <time>2020-05-31T13:39:31Z</time>
      </trkpt>
      <trkpt lat="46.29718" lon="-0.67069">
        <ele>23.7</ele>
        <time>2020-05-31T13:39:32Z</time>
      </trkpt>
      <trkpt lat="46.29716" lon="-0.67076">
        <ele>23.7</ele>
        <time>2020-05-31T13:39:33Z</time>
      </trkpt>
      <trkpt lat="46.29714" lon="-0.67083">
        <ele>23.7</ele>
        <time>2020-05-31T13:39:34Z</time>
      </trkpt>
      <trkpt lat="46.29712" lon="-0.6709">
        <ele>23.7</ele>
        <time>2020-05-31T13:39:35Z</time>
      </trkpt>
      <trkpt lat="46.2971" lon="-0.67099">
        <ele>23.7</ele>
        <time>2020-05-31T13:39:36Z</time>
      </trkpt>
      <trkpt lat="46.29709" lon="-0.67107">
        <ele>23.6</ele>
        <time>2020-05-31T13:39:37Z</time>
      </trkpt>
      <trkpt lat="46.29707" lon="-0.67115">
        <ele>23.6</ele>
        <time>2020-05-31T13:39:38Z</time>
      </trkpt>
      <trkpt lat="46.29705" lon="-0.67122">
        <ele>23.6</ele>
        <time>2020-05-31T13:39:39Z</time>
      </trkpt>
      <trkpt lat="46.29703" lon="-0.6713">
        <ele>23.6</ele>
        <time>2020-05-31T13:39:40Z</time>
      </trkpt>
      <trkpt lat="46.29702" lon="-0.67137">
        <ele>23.6</ele>
        <time>2020-05-31T13:39:41Z</time>
      </trkpt>
      <trkpt lat="46.297" lon="-0.67145">
        <ele>23.5</ele>
        <time>2020-05-31T13:39:42Z</time>
      </trkpt>
      <trkpt lat="46.29699" lon="-0.67152">
        <ele>23.5</ele>
        <time>2020-05-31T13:39:43Z</time>
      </trkpt>
      <trkpt lat="46.29697" lon="-0.6716">
        <ele>23.5</ele>
        <time>2020-05-31T13:39:44Z</time>
      </trkpt>
      <trkpt lat="46.29695" lon="-0.67167">
        <ele>23.5</ele>
        <time>2020-05-31T13:39:45Z</time>
      </trkpt>
      <trkpt lat="46.29693" lon="-0.67176">
        <ele>23.5</ele>
        <time>2020-05-31T13:39:46Z</time>
      </trkpt>
      <trkpt lat="46.29691" lon="-0.67185">
        <ele>23.5</ele>
        <time>2020-05-31T13:39:47Z</time>
      </trkpt>
      <trkpt lat="46.2969" lon="-0.67189">
        <ele>23.5</ele>
        <time>2020-05-31T13:39:48Z</time>
      </trkpt>
      <trkpt lat="46.29688" lon="-0.67196">
        <ele>23.5</ele>
        <time>2020-05-31T13:39:49Z</time>
      </trkpt>
      <trkpt lat="46.29688" lon="-0.67203">
        <ele>23.4</ele>
        <time>2020-05-31T13:39:50Z</time>
      </trkpt>
      <trkpt lat="46.29686" lon="-0.67214">
        <ele>23.4</ele>
        <time>2020-05-31T13:39:51Z</time>
      </trkpt>
      <trkpt lat="46.29683" lon="-0.67223">
        <ele>23.4</ele>
        <time>2020-05-31T13:39:52Z</time>
      </trkpt>
      <trkpt lat="46.29682" lon="-0.67229">
        <ele>23.4</ele>
        <time>2020-05-31T13:39:53Z</time>
      </trkpt>
      <trkpt lat="46.2968" lon="-0.67238">
        <ele>23.4</ele>
        <time>2020-05-31T13:39:54Z</time>
      </trkpt>
      <trkpt lat="46.29678" lon="-0.67245">
        <ele>23.4</ele>
        <time>2020-05-31T13:39:55Z</time>
      </trkpt>
      <trkpt lat="46.29676" lon="-0.67254">
        <ele>23.4</ele>
        <time>2020-05-31T13:39:56Z</time>
      </trkpt>
      <trkpt lat="46.29674" lon="-0.67263">
        <ele>23.4</ele>
        <time>2020-05-31T13:39:57Z</time>
      </trkpt>
      <trkpt lat="46.29672" lon="-0.67271">
        <ele>23.3</ele>
        <time>2020-05-31T13:39:58Z</time>
      </trkpt>
      <trkpt lat="46.29671" lon="-0.67279">
        <ele>23.3</ele>
        <time>2020-05-31T13:39:59Z</time>
      </trkpt>
      <trkpt lat="46.2967" lon="-0.67288">
        <ele>23.3</ele>
        <time>2020-05-31T13:40:00Z</time>
      </trkpt>
      <trkpt lat="46.29668" lon="-0.67297">
        <ele>23.2</ele>
        <time>2020-05-31T13:40:01Z</time>
      </trkpt>
      <trkpt lat="46.29667" lon="-0.67306">
        <ele>23.1</ele>
        <time>2020-05-31T13:40:02Z</time>
      </trkpt>
      <trkpt lat="46.29667" lon="-0.67314">
        <ele>23.1</ele>
        <time>2020-05-31T13:40:03Z</time>
      </trkpt>
      <trkpt lat="46.29666" lon="-0.6732">
        <ele>23.1</ele>
        <time>2020-05-31T13:40:04Z</time>
      </trkpt>
      <trkpt lat="46.29667" lon="-0.6733">
        <ele>23</ele>
        <time>2020-05-31T13:40:05Z</time>
      </trkpt>
      <trkpt lat="46.29667" lon="-0.6734">
        <ele>22.9</ele>
        <time>2020-05-31T13:40:06Z</time>
      </trkpt>
      <trkpt lat="46.29668" lon="-0.67351">
        <ele>22.8</ele>
        <time>2020-05-31T13:40:07Z</time>
      </trkpt>
      <trkpt lat="46.29668" lon="-0.67361">
        <ele>22.7</ele>
        <time>2020-05-31T13:40:08Z</time>
      </trkpt>
      <trkpt lat="46.29669" lon="-0.67371">
        <ele>22.5</ele>
        <time>2020-05-31T13:40:09Z</time>
      </trkpt>
      <trkpt lat="46.29669" lon="-0.67381">
        <ele>22.4</ele>
        <time>2020-05-31T13:40:10Z</time>
      </trkpt>
      <trkpt lat="46.29669" lon="-0.67392">
        <ele>22.3</ele>
        <time>2020-05-31T13:40:11Z</time>
      </trkpt>
      <trkpt lat="46.2967" lon="-0.67402">
        <ele>22.2</ele>
        <time>2020-05-31T13:40:12Z</time>
      </trkpt>
      <trkpt lat="46.2967" lon="-0.67412">
        <ele>22.1</ele>
        <time>2020-05-31T13:40:13Z</time>
      </trkpt>
      <trkpt lat="46.2967" lon="-0.67422">
        <ele>22.1</ele>
        <time>2020-05-31T13:40:14Z</time>
      </trkpt>
      <trkpt lat="46.2967" lon="-0.67432">
        <ele>22</ele>
        <time>2020-05-31T13:40:15Z</time>
      </trkpt>
      <trkpt lat="46.2967" lon="-0.67442">
        <ele>22</ele>
        <time>2020-05-31T13:40:16Z</time>
      </trkpt>
      <trkpt lat="46.2967" lon="-0.67452">
        <ele>21.9</ele>
        <time>2020-05-31T13:40:17Z</time>
      </trkpt>
      <trkpt lat="46.2967" lon="-0.67462">
        <ele>21.9</ele>
        <time>2020-05-31T13:40:18Z</time>
      </trkpt>
      <trkpt lat="46.29671" lon="-0.67471">
        <ele>21.8</ele>
        <time>2020-05-31T13:40:19Z</time>
      </trkpt>
      <trkpt lat="46.29671" lon="-0.67481">
        <ele>21.7</ele>
        <time>2020-05-31T13:40:20Z</time>
      </trkpt>
      <trkpt lat="46.29671" lon="-0.6749">
        <ele>21.6</ele>
        <time>2020-05-31T13:40:21Z</time>
      </trkpt>
      <trkpt lat="46.29672" lon="-0.67499">
        <ele>21.5</ele>
        <time>2020-05-31T13:40:22Z</time>
      </trkpt>
      <trkpt lat="46.29673" lon="-0.67509">
        <ele>21.4</ele>
        <time>2020-05-31T13:40:23Z</time>
      </trkpt>
      <trkpt lat="46.29673" lon="-0.67519">
        <ele>21.4</ele>
        <time>2020-05-31T13:40:24Z</time>
      </trkpt>
      <trkpt lat="46.29674" lon="-0.67528">
        <ele>21.3</ele>
        <time>2020-05-31T13:40:25Z</time>
      </trkpt>
      <trkpt lat="46.29674" lon="-0.67538">
        <ele>21.2</ele>
        <time>2020-05-31T13:40:26Z</time>
      </trkpt>
      <trkpt lat="46.29675" lon="-0.67547">
        <ele>21.1</ele>
        <time>2020-05-31T13:40:27Z</time>
      </trkpt>
      <trkpt lat="46.29676" lon="-0.67557">
        <ele>21</ele>
        <time>2020-05-31T13:40:28Z</time>
      </trkpt>
      <trkpt lat="46.29677" lon="-0.67566">
        <ele>20.9</ele>
        <time>2020-05-31T13:40:29Z</time>
      </trkpt>
      <trkpt lat="46.29677" lon="-0.67576">
        <ele>20.8</ele>
        <time>2020-05-31T13:40:30Z</time>
      </trkpt>
      <trkpt lat="46.29678" lon="-0.67586">
        <ele>20.6</ele>
        <time>2020-05-31T13:40:31Z</time>
      </trkpt>
      <trkpt lat="46.29679" lon="-0.67596">
        <ele>20.5</ele>
        <time>2020-05-31T13:40:32Z</time>
      </trkpt>
      <trkpt lat="46.2968" lon="-0.67605">
        <ele>20.3</ele>
        <time>2020-05-31T13:40:33Z</time>
      </trkpt>
      <trkpt lat="46.29681" lon="-0.67615">
        <ele>20.2</ele>
        <time>2020-05-31T13:40:34Z</time>
      </trkpt>
      <trkpt lat="46.29681" lon="-0.67626">
        <ele>20</ele>
        <time>2020-05-31T13:40:35Z</time>
      </trkpt>
      <trkpt lat="46.29682" lon="-0.67636">
        <ele>19.9</ele>
        <time>2020-05-31T13:40:36Z</time>
      </trkpt>
      <trkpt lat="46.29682" lon="-0.67645">
        <ele>19.9</ele>
        <time>2020-05-31T13:40:37Z</time>
      </trkpt>
      <trkpt lat="46.29683" lon="-0.67655">
        <ele>19.9</ele>
        <time>2020-05-31T13:40:38Z</time>
      </trkpt>
      <trkpt lat="46.29684" lon="-0.67664">
        <ele>19.8</ele>
        <time>2020-05-31T13:40:39Z</time>
      </trkpt>
      <trkpt lat="46.29684" lon="-0.67671">
        <ele>19.8</ele>
        <time>2020-05-31T13:40:40Z</time>
      </trkpt>
      <trkpt lat="46.29686" lon="-0.67678">
        <ele>19.8</ele>
        <time>2020-05-31T13:40:41Z</time>
      </trkpt>
      <trkpt lat="46.29686" lon="-0.67685">
        <ele>19.8</ele>
        <time>2020-05-31T13:40:42Z</time>
      </trkpt>
      <trkpt lat="46.29687" lon="-0.67691">
        <ele>19.8</ele>
        <time>2020-05-31T13:40:43Z</time>
      </trkpt>
      <trkpt lat="46.29686" lon="-0.67696">
        <ele>19.8</ele>
        <time>2020-05-31T13:40:44Z</time>
      </trkpt>
      <trkpt lat="46.29684" lon="-0.67702">
        <ele>19.7</ele>
        <time>2020-05-31T13:40:45Z</time>
      </trkpt>
      <trkpt lat="46.29684" lon="-0.67708">
        <ele>19.7</ele>
        <time>2020-05-31T13:40:46Z</time>
      </trkpt>
      <trkpt lat="46.29685" lon="-0.67715">
        <ele>19.7</ele>
        <time>2020-05-31T13:40:47Z</time>
      </trkpt>
      <trkpt lat="46.29685" lon="-0.67722">
        <ele>19.7</ele>
        <time>2020-05-31T13:40:48Z</time>
      </trkpt>
      <trkpt lat="46.29686" lon="-0.6773">
        <ele>19.7</ele>
        <time>2020-05-31T13:40:49Z</time>
      </trkpt>
      <trkpt lat="46.29687" lon="-0.67737">
        <ele>19.7</ele>
        <time>2020-05-31T13:40:50Z</time>
      </trkpt>
      <trkpt lat="46.29686" lon="-0.67745">
        <ele>19.7</ele>
        <time>2020-05-31T13:40:51Z</time>
      </trkpt>
      <trkpt lat="46.29685" lon="-0.67752">
        <ele>19.6</ele>
        <time>2020-05-31T13:40:52Z</time>
      </trkpt>
      <trkpt lat="46.29685" lon="-0.6776">
        <ele>19.6</ele>
        <time>2020-05-31T13:40:53Z</time>
      </trkpt>
      <trkpt lat="46.29685" lon="-0.67768">
        <ele>19.6</ele>
        <time>2020-05-31T13:40:54Z</time>
      </trkpt>
      <trkpt lat="46.29685" lon="-0.67776">
        <ele>19.6</ele>
        <time>2020-05-31T13:40:55Z</time>
      </trkpt>
      <trkpt lat="46.29684" lon="-0.67784">
        <ele>19.6</ele>
        <time>2020-05-31T13:40:56Z</time>
      </trkpt>
      <trkpt lat="46.29684" lon="-0.67793">
        <ele>19.6</ele>
        <time>2020-05-31T13:40:57Z</time>
      </trkpt>
      <trkpt lat="46.29683" lon="-0.67801">
        <ele>19.6</ele>
        <time>2020-05-31T13:40:58Z</time>
      </trkpt>
      <trkpt lat="46.29682" lon="-0.6781">
        <ele>19.6</ele>
        <time>2020-05-31T13:40:59Z</time>
      </trkpt>
      <trkpt lat="46.29682" lon="-0.67818">
        <ele>19.6</ele>
        <time>2020-05-31T13:41:00Z</time>
      </trkpt>
      <trkpt lat="46.29681" lon="-0.67827">
        <ele>19.6</ele>
        <time>2020-05-31T13:41:01Z</time>
      </trkpt>
      <trkpt lat="46.2968" lon="-0.67835">
        <ele>19.7</ele>
        <time>2020-05-31T13:41:02Z</time>
      </trkpt>
      <trkpt lat="46.29679" lon="-0.67844">
        <ele>19.7</ele>
        <time>2020-05-31T13:41:03Z</time>
      </trkpt>
      <trkpt lat="46.29679" lon="-0.67852">
        <ele>19.7</ele>
        <time>2020-05-31T13:41:04Z</time>
      </trkpt>
      <trkpt lat="46.29679" lon="-0.67861">
        <ele>19.7</ele>
        <time>2020-05-31T13:41:05Z</time>
      </trkpt>
      <trkpt lat="46.29679" lon="-0.6787">
        <ele>19.7</ele>
        <time>2020-05-31T13:41:06Z</time>
      </trkpt>
      <trkpt lat="46.29679" lon="-0.6788">
        <ele>19.7</ele>
        <time>2020-05-31T13:41:07Z</time>
      </trkpt>
      <trkpt lat="46.2968" lon="-0.6789">
        <ele>19.7</ele>
        <time>2020-05-31T13:41:08Z</time>
      </trkpt>
      <trkpt lat="46.29681" lon="-0.679">
        <ele>19.7</ele>
        <time>2020-05-31T13:41:09Z</time>
      </trkpt>
      <trkpt lat="46.29682" lon="-0.6791">
        <ele>19.6</ele>
        <time>2020-05-31T13:41:10Z</time>
      </trkpt>
      <trkpt lat="46.29688" lon="-0.67919">
        <ele>19.5</ele>
        <time>2020-05-31T13:41:11Z</time>
      </trkpt>
      <trkpt lat="46.29689" lon="-0.67929">
        <ele>19.4</ele>
        <time>2020-05-31T13:41:12Z</time>
      </trkpt>
      <trkpt lat="46.2969" lon="-0.67939">
        <ele>19.2</ele>
        <time>2020-05-31T13:41:13Z</time>
      </trkpt>
      <trkpt lat="46.29692" lon="-0.67949">
        <ele>19.1</ele>
        <time>2020-05-31T13:41:14Z</time>
      </trkpt>
      <trkpt lat="46.29693" lon="-0.67959">
        <ele>19</ele>
        <time>2020-05-31T13:41:15Z</time>
      </trkpt>
      <trkpt lat="46.29696" lon="-0.67969">
        <ele>19</ele>
        <time>2020-05-31T13:41:16Z</time>
      </trkpt>
      <trkpt lat="46.29697" lon="-0.67979">
        <ele>19</ele>
        <time>2020-05-31T13:41:17Z</time>
      </trkpt>
      <trkpt lat="46.29699" lon="-0.6799">
        <ele>19</ele>
        <time>2020-05-31T13:41:18Z</time>
      </trkpt>
      <trkpt lat="46.297" lon="-0.67999">
        <ele>19</ele>
        <time>2020-05-31T13:41:19Z</time>
      </trkpt>
      <trkpt lat="46.29702" lon="-0.68009">
        <ele>19</ele>
        <time>2020-05-31T13:41:20Z</time>
      </trkpt>
      <trkpt lat="46.29702" lon="-0.6802">
        <ele>18.9</ele>
        <time>2020-05-31T13:41:21Z</time>
      </trkpt>
      <trkpt lat="46.29703" lon="-0.68031">
        <ele>18.8</ele>
        <time>2020-05-31T13:41:22Z</time>
      </trkpt>
      <trkpt lat="46.29707" lon="-0.68041">
        <ele>18.7</ele>
        <time>2020-05-31T13:41:23Z</time>
      </trkpt>
      <trkpt lat="46.29709" lon="-0.68051">
        <ele>18.6</ele>
        <time>2020-05-31T13:41:24Z</time>
      </trkpt>
      <trkpt lat="46.2971" lon="-0.68062">
        <ele>18.5</ele>
        <time>2020-05-31T13:41:25Z</time>
      </trkpt>
      <trkpt lat="46.29712" lon="-0.68072">
        <ele>18.4</ele>
        <time>2020-05-31T13:41:26Z</time>
      </trkpt>
      <trkpt lat="46.29714" lon="-0.68082">
        <ele>18.3</ele>
        <time>2020-05-31T13:41:27Z</time>
      </trkpt>
      <trkpt lat="46.29715" lon="-0.68093">
        <ele>18.2</ele>
        <time>2020-05-31T13:41:28Z</time>
      </trkpt>
      <trkpt lat="46.29716" lon="-0.68104">
        <ele>18.1</ele>
        <time>2020-05-31T13:41:29Z</time>
      </trkpt>
      <trkpt lat="46.29717" lon="-0.68116">
        <ele>17.9</ele>
        <time>2020-05-31T13:41:30Z</time>
      </trkpt>
      <trkpt lat="46.29718" lon="-0.68127">
        <ele>17.8</ele>
        <time>2020-05-31T13:41:31Z</time>
      </trkpt>
      <trkpt lat="46.29719" lon="-0.68138">
        <ele>17.7</ele>
        <time>2020-05-31T13:41:32Z</time>
      </trkpt>
      <trkpt lat="46.2972" lon="-0.68148">
        <ele>17.6</ele>
        <time>2020-05-31T13:41:33Z</time>
      </trkpt>
      <trkpt lat="46.29722" lon="-0.68159">
        <ele>17.5</ele>
        <time>2020-05-31T13:41:34Z</time>
      </trkpt>
      <trkpt lat="46.29723" lon="-0.6817">
        <ele>17.4</ele>
        <time>2020-05-31T13:41:35Z</time>
      </trkpt>
      <trkpt lat="46.29725" lon="-0.68181">
        <ele>17.3</ele>
        <time>2020-05-31T13:41:36Z</time>
      </trkpt>
      <trkpt lat="46.29725" lon="-0.68192">
        <ele>17.2</ele>
        <time>2020-05-31T13:41:37Z</time>
      </trkpt>
      <trkpt lat="46.29727" lon="-0.68203">
        <ele>17</ele>
        <time>2020-05-31T13:41:38Z</time>
      </trkpt>
      <trkpt lat="46.29728" lon="-0.68214">
        <ele>16.9</ele>
        <time>2020-05-31T13:41:39Z</time>
      </trkpt>
      <trkpt lat="46.29728" lon="-0.68225">
        <ele>16.7</ele>
        <time>2020-05-31T13:41:40Z</time>
      </trkpt>
      <trkpt lat="46.29728" lon="-0.68236">
        <ele>16.4</ele>
        <time>2020-05-31T13:41:41Z</time>
      </trkpt>
      <trkpt lat="46.29729" lon="-0.68247">
        <ele>16.3</ele>
        <time>2020-05-31T13:41:42Z</time>
      </trkpt>
      <trkpt lat="46.29729" lon="-0.68258">
        <ele>16.2</ele>
        <time>2020-05-31T13:41:43Z</time>
      </trkpt>
      <trkpt lat="46.29729" lon="-0.68269">
        <ele>16.2</ele>
        <time>2020-05-31T13:41:44Z</time>
      </trkpt>
      <trkpt lat="46.29729" lon="-0.6828">
        <ele>15.9</ele>
        <time>2020-05-31T13:41:45Z</time>
      </trkpt>
      <trkpt lat="46.29729" lon="-0.68291">
        <ele>15.8</ele>
        <time>2020-05-31T13:41:46Z</time>
      </trkpt>
      <trkpt lat="46.29729" lon="-0.68302">
        <ele>15.7</ele>
        <time>2020-05-31T13:41:47Z</time>
      </trkpt>
      <trkpt lat="46.29728" lon="-0.68312">
        <ele>15.7</ele>
        <time>2020-05-31T13:41:48Z</time>
      </trkpt>
      <trkpt lat="46.29727" lon="-0.68323">
        <ele>15.6</ele>
        <time>2020-05-31T13:41:49Z</time>
      </trkpt>
      <trkpt lat="46.29726" lon="-0.68334">
        <ele>15.6</ele>
        <time>2020-05-31T13:41:50Z</time>
      </trkpt>
      <trkpt lat="46.29726" lon="-0.68344">
        <ele>15.5</ele>
        <time>2020-05-31T13:41:51Z</time>
      </trkpt>
      <trkpt lat="46.29725" lon="-0.68355">
        <ele>15.4</ele>
        <time>2020-05-31T13:41:52Z</time>
      </trkpt>
      <trkpt lat="46.29725" lon="-0.68366">
        <ele>15.3</ele>
        <time>2020-05-31T13:41:53Z</time>
      </trkpt>
      <trkpt lat="46.29724" lon="-0.68376">
        <ele>15.2</ele>
        <time>2020-05-31T13:41:54Z</time>
      </trkpt>
      <trkpt lat="46.29723" lon="-0.68387">
        <ele>15.1</ele>
        <time>2020-05-31T13:41:55Z</time>
      </trkpt>
      <trkpt lat="46.29723" lon="-0.68397">
        <ele>15</ele>
        <time>2020-05-31T13:41:56Z</time>
      </trkpt>
      <trkpt lat="46.29721" lon="-0.68407">
        <ele>14.9</ele>
        <time>2020-05-31T13:41:57Z</time>
      </trkpt>
      <trkpt lat="46.2972" lon="-0.68418">
        <ele>14.8</ele>
        <time>2020-05-31T13:41:58Z</time>
      </trkpt>
      <trkpt lat="46.29719" lon="-0.68427">
        <ele>14.8</ele>
        <time>2020-05-31T13:41:59Z</time>
      </trkpt>
      <trkpt lat="46.29718" lon="-0.68437">
        <ele>14.7</ele>
        <time>2020-05-31T13:42:00Z</time>
      </trkpt>
      <trkpt lat="46.29716" lon="-0.68446">
        <ele>14.6</ele>
        <time>2020-05-31T13:42:01Z</time>
      </trkpt>
      <trkpt lat="46.29716" lon="-0.68456">
        <ele>14.4</ele>
        <time>2020-05-31T13:42:02Z</time>
      </trkpt>
      <trkpt lat="46.29715" lon="-0.68466">
        <ele>14.3</ele>
        <time>2020-05-31T13:42:03Z</time>
      </trkpt>
      <trkpt lat="46.29714" lon="-0.68475">
        <ele>14.1</ele>
        <time>2020-05-31T13:42:04Z</time>
      </trkpt>
      <trkpt lat="46.29713" lon="-0.68485">
        <ele>14</ele>
        <time>2020-05-31T13:42:05Z</time>
      </trkpt>
      <trkpt lat="46.29713" lon="-0.68495">
        <ele>13.9</ele>
        <time>2020-05-31T13:42:06Z</time>
      </trkpt>
      <trkpt lat="46.29712" lon="-0.68504">
        <ele>13.8</ele>
        <time>2020-05-31T13:42:07Z</time>
      </trkpt>
      <trkpt lat="46.29711" lon="-0.68514">
        <ele>13.8</ele>
        <time>2020-05-31T13:42:08Z</time>
      </trkpt>
      <trkpt lat="46.29711" lon="-0.68524">
        <ele>13.7</ele>
        <time>2020-05-31T13:42:09Z</time>
      </trkpt>
      <trkpt lat="46.29711" lon="-0.68535">
        <ele>13.6</ele>
        <time>2020-05-31T13:42:10Z</time>
      </trkpt>
      <trkpt lat="46.2971" lon="-0.68545">
        <ele>13.5</ele>
        <time>2020-05-31T13:42:11Z</time>
      </trkpt>
      <trkpt lat="46.29711" lon="-0.68556">
        <ele>13.5</ele>
        <time>2020-05-31T13:42:12Z</time>
      </trkpt>
      <trkpt lat="46.29711" lon="-0.68566">
        <ele>13.4</ele>
        <time>2020-05-31T13:42:13Z</time>
      </trkpt>
      <trkpt lat="46.29712" lon="-0.68577">
        <ele>13.4</ele>
        <time>2020-05-31T13:42:14Z</time>
      </trkpt>
      <trkpt lat="46.29713" lon="-0.68587">
        <ele>13.3</ele>
        <time>2020-05-31T13:42:15Z</time>
      </trkpt>
      <trkpt lat="46.29714" lon="-0.68598">
        <ele>13.2</ele>
        <time>2020-05-31T13:42:16Z</time>
      </trkpt>
      <trkpt lat="46.29714" lon="-0.68608">
        <ele>13.2</ele>
        <time>2020-05-31T13:42:17Z</time>
      </trkpt>
      <trkpt lat="46.29716" lon="-0.68619">
        <ele>13.1</ele>
        <time>2020-05-31T13:42:18Z</time>
      </trkpt>
      <trkpt lat="46.29718" lon="-0.68629">
        <ele>13.1</ele>
        <time>2020-05-31T13:42:19Z</time>
      </trkpt>
      <trkpt lat="46.29718" lon="-0.68639">
        <ele>13</ele>
        <time>2020-05-31T13:42:20Z</time>
      </trkpt>
      <trkpt lat="46.29718" lon="-0.68648">
        <ele>13</ele>
        <time>2020-05-31T13:42:21Z</time>
      </trkpt>
      <trkpt lat="46.29716" lon="-0.68657">
        <ele>13</ele>
        <time>2020-05-31T13:42:22Z</time>
      </trkpt>
      <trkpt lat="46.29715" lon="-0.68666">
        <ele>12.9</ele>
        <time>2020-05-31T13:42:23Z</time>
      </trkpt>
      <trkpt lat="46.29714" lon="-0.68675">
        <ele>12.8</ele>
        <time>2020-05-31T13:42:24Z</time>
      </trkpt>
      <trkpt lat="46.29713" lon="-0.68684">
        <ele>12.7</ele>
        <time>2020-05-31T13:42:25Z</time>
      </trkpt>
      <trkpt lat="46.29712" lon="-0.68692">
        <ele>12.5</ele>
        <time>2020-05-31T13:42:26Z</time>
      </trkpt>
      <trkpt lat="46.29711" lon="-0.68701">
        <ele>12.4</ele>
        <time>2020-05-31T13:42:27Z</time>
      </trkpt>
      <trkpt lat="46.29709" lon="-0.68709">
        <ele>12.3</ele>
        <time>2020-05-31T13:42:28Z</time>
      </trkpt>
      <trkpt lat="46.29707" lon="-0.68716">
        <ele>12.2</ele>
        <time>2020-05-31T13:42:29Z</time>
      </trkpt>
      <trkpt lat="46.29705" lon="-0.68723">
        <ele>12</ele>
        <time>2020-05-31T13:42:30Z</time>
      </trkpt>
      <trkpt lat="46.29703" lon="-0.6873">
        <ele>12</ele>
        <time>2020-05-31T13:42:31Z</time>
      </trkpt>
      <trkpt lat="46.29701" lon="-0.68736">
        <ele>11.8</ele>
        <time>2020-05-31T13:42:32Z</time>
      </trkpt>
      <trkpt lat="46.29698" lon="-0.68743">
        <ele>11.8</ele>
        <time>2020-05-31T13:42:33Z</time>
      </trkpt>
      <trkpt lat="46.29695" lon="-0.68749">
        <ele>11.7</ele>
        <time>2020-05-31T13:42:34Z</time>
      </trkpt>
      <trkpt lat="46.29693" lon="-0.68756">
        <ele>11.6</ele>
        <time>2020-05-31T13:42:35Z</time>
      </trkpt>
      <trkpt lat="46.29691" lon="-0.68764">
        <ele>11.4</ele>
        <time>2020-05-31T13:42:36Z</time>
      </trkpt>
      <trkpt lat="46.29687" lon="-0.6877">
        <ele>11.3</ele>
        <time>2020-05-31T13:42:37Z</time>
      </trkpt>
      <trkpt lat="46.29684" lon="-0.68777">
        <ele>11.2</ele>
        <time>2020-05-31T13:42:38Z</time>
      </trkpt>
      <trkpt lat="46.29681" lon="-0.68786">
        <ele>11</ele>
        <time>2020-05-31T13:42:39Z</time>
      </trkpt>
      <trkpt lat="46.29678" lon="-0.68794">
        <ele>10.9</ele>
        <time>2020-05-31T13:42:40Z</time>
      </trkpt>
      <trkpt lat="46.29675" lon="-0.68803">
        <ele>10.7</ele>
        <time>2020-05-31T13:42:41Z</time>
      </trkpt>
      <trkpt lat="46.29673" lon="-0.68811">
        <ele>10.6</ele>
        <time>2020-05-31T13:42:42Z</time>
      </trkpt>
      <trkpt lat="46.29671" lon="-0.6882">
        <ele>10.5</ele>
        <time>2020-05-31T13:42:43Z</time>
      </trkpt>
      <trkpt lat="46.2967" lon="-0.68829">
        <ele>10.3</ele>
        <time>2020-05-31T13:42:44Z</time>
      </trkpt>
      <trkpt lat="46.29669" lon="-0.68839">
        <ele>10.1</ele>
        <time>2020-05-31T13:42:45Z</time>
      </trkpt>
      <trkpt lat="46.29668" lon="-0.6885">
        <ele>9.9</ele>
        <time>2020-05-31T13:42:46Z</time>
      </trkpt>
      <trkpt lat="46.29668" lon="-0.6886">
        <ele>9.7</ele>
        <time>2020-05-31T13:42:47Z</time>
      </trkpt>
      <trkpt lat="46.29667" lon="-0.68871">
        <ele>9.5</ele>
        <time>2020-05-31T13:42:48Z</time>
      </trkpt>
      <trkpt lat="46.29668" lon="-0.68881">
        <ele>9.3</ele>
        <time>2020-05-31T13:42:49Z</time>
      </trkpt>
      <trkpt lat="46.29668" lon="-0.68891">
        <ele>9.2</ele>
        <time>2020-05-31T13:42:50Z</time>
      </trkpt>
      <trkpt lat="46.29668" lon="-0.689">
        <ele>9</ele>
        <time>2020-05-31T13:42:51Z</time>
      </trkpt>
      <trkpt lat="46.29668" lon="-0.68909">
        <ele>8.9</ele>
        <time>2020-05-31T13:42:52Z</time>
      </trkpt>
      <trkpt lat="46.29667" lon="-0.68917">
        <ele>8.8</ele>
        <time>2020-05-31T13:42:53Z</time>
      </trkpt>
      <trkpt lat="46.29666" lon="-0.68924">
        <ele>8.7</ele>
        <time>2020-05-31T13:42:54Z</time>
      </trkpt>
      <trkpt lat="46.29665" lon="-0.68931">
        <ele>8.6</ele>
        <time>2020-05-31T13:42:55Z</time>
      </trkpt>
      <trkpt lat="46.29665" lon="-0.68937">
        <ele>8.6</ele>
        <time>2020-05-31T13:42:56Z</time>
      </trkpt>
      <trkpt lat="46.29664" lon="-0.68943">
        <ele>8.5</ele>
        <time>2020-05-31T13:42:57Z</time>
      </trkpt>
      <trkpt lat="46.29662" lon="-0.68949">
        <ele>8.4</ele>
        <time>2020-05-31T13:42:58Z</time>
      </trkpt>
      <trkpt lat="46.29661" lon="-0.68954">
        <ele>8.4</ele>
        <time>2020-05-31T13:42:59Z</time>
      </trkpt>
      <trkpt lat="46.29661" lon="-0.68959">
        <ele>8.2</ele>
        <time>2020-05-31T13:43:00Z</time>
      </trkpt>
      <trkpt lat="46.29661" lon="-0.68961">
        <ele>8.2</ele>
        <time>2020-05-31T13:43:01Z</time>
      </trkpt>
      <trkpt lat="46.29661" lon="-0.68966">
        <ele>8.1</ele>
        <time>2020-05-31T13:43:02Z</time>
      </trkpt>
      <trkpt lat="46.29661" lon="-0.68968">
        <ele>8.1</ele>
        <time>2020-05-31T13:43:03Z</time>
      </trkpt>
      <trkpt lat="46.29662" lon="-0.6897">
        <ele>8.1</ele>
        <time>2020-05-31T13:43:04Z</time>
      </trkpt>
      <trkpt lat="46.29662" lon="-0.68971">
        <ele>8</ele>
        <time>2020-05-31T13:43:05Z</time>
      </trkpt>
      <trkpt lat="46.29661" lon="-0.68971">
        <ele>8</ele>
        <time>2020-05-31T13:43:06Z</time>
      </trkpt>
      <trkpt lat="46.2966" lon="-0.6897">
        <ele>8</ele>
        <time>2020-05-31T13:43:07Z</time>
      </trkpt>
      <trkpt lat="46.29658" lon="-0.6897">
        <ele>8</ele>
        <time>2020-05-31T13:43:08Z</time>
      </trkpt>
      <trkpt lat="46.29657" lon="-0.68971">
        <ele>7.9</ele>
        <time>2020-05-31T13:43:09Z</time>
      </trkpt>
      <trkpt lat="46.29656" lon="-0.68972">
        <ele>7.9</ele>
        <time>2020-05-31T13:43:10Z</time>
      </trkpt>
      <trkpt lat="46.29656" lon="-0.68973">
        <ele>7.9</ele>
        <time>2020-05-31T13:43:11Z</time>
      </trkpt>
      <trkpt lat="46.29656" lon="-0.68974">
        <ele>7.9</ele>
        <time>2020-05-31T13:43:12Z</time>
      </trkpt>
      <trkpt lat="46.29656" lon="-0.68974">
        <ele>7.9</ele>
        <time>2020-05-31T13:43:13Z</time>
      </trkpt>
      <trkpt lat="46.29655" lon="-0.68974">
        <ele>7.9</ele>
        <time>2020-05-31T13:43:14Z</time>
      </trkpt>
      <trkpt lat="46.29654" lon="-0.68974">
        <ele>7.8</ele>
        <time>2020-05-31T13:43:15Z</time>
      </trkpt>
      <trkpt lat="46.29654" lon="-0.68974">
        <ele>7.8</ele>
        <time>2020-05-31T13:43:16Z</time>
      </trkpt>
      <trkpt lat="46.29654" lon="-0.68975">
        <ele>7.8</ele>
        <time>2020-05-31T13:43:17Z</time>
      </trkpt>
      <trkpt lat="46.29655" lon="-0.68976">
        <ele>7.8</ele>
        <time>2020-05-31T13:43:18Z</time>
      </trkpt>
      <trkpt lat="46.29654" lon="-0.68976">
        <ele>7.8</ele>
        <time>2020-05-31T13:43:19Z</time>
      </trkpt>
      <trkpt lat="46.29654" lon="-0.68976">
        <ele>7.8</ele>
        <time>2020-05-31T13:43:20Z</time>
      </trkpt>
      <trkpt lat="46.29654" lon="-0.68977">
        <ele>7.8</ele>
        <time>2020-05-31T13:43:21Z</time>
      </trkpt>
      <trkpt lat="46.29652" lon="-0.68977">
        <ele>7.8</ele>
        <time>2020-05-31T13:43:22Z</time>
      </trkpt>
      <trkpt lat="46.29652" lon="-0.68977">
        <ele>7.8</ele>
        <time>2020-05-31T13:43:23Z</time>
      </trkpt>
      <trkpt lat="46.29652" lon="-0.68977">
        <ele>7.8</ele>
        <time>2020-05-31T13:43:24Z</time>
      </trkpt>
      <trkpt lat="46.29651" lon="-0.68977">
        <ele>7.8</ele>
        <time>2020-05-31T13:43:25Z</time>
      </trkpt>
      <trkpt lat="46.2965" lon="-0.68977">
        <ele>7.7</ele>
        <time>2020-05-31T13:43:26Z</time>
      </trkpt>
      <trkpt lat="46.2965" lon="-0.68977">
        <ele>7.7</ele>
        <time>2020-05-31T13:43:27Z</time>
      </trkpt>
      <trkpt lat="46.2965" lon="-0.68977">
        <ele>7.7</ele>
        <time>2020-05-31T13:43:28Z</time>
      </trkpt>
      <trkpt lat="46.2965" lon="-0.68978">
        <ele>7.7</ele>
        <time>2020-05-31T13:43:29Z</time>
      </trkpt>
      <trkpt lat="46.29649" lon="-0.68979">
        <ele>7.7</ele>
        <time>2020-05-31T13:43:30Z</time>
      </trkpt>
      <trkpt lat="46.29649" lon="-0.6898">
        <ele>7.7</ele>
        <time>2020-05-31T13:43:31Z</time>
      </trkpt>
      <trkpt lat="46.29649" lon="-0.68981">
        <ele>7.7</ele>
        <time>2020-05-31T13:43:32Z</time>
      </trkpt>
      <trkpt lat="46.29648" lon="-0.68982">
        <ele>7.6</ele>
        <time>2020-05-31T13:43:33Z</time>
      </trkpt>
      <trkpt lat="46.29646" lon="-0.68984">
        <ele>7.6</ele>
        <time>2020-05-31T13:43:34Z</time>
      </trkpt>
      <trkpt lat="46.29643" lon="-0.68987">
        <ele>7.5</ele>
        <time>2020-05-31T13:43:35Z</time>
      </trkpt>
      <trkpt lat="46.29642" lon="-0.68988">
        <ele>7.5</ele>
        <time>2020-05-31T13:43:36Z</time>
      </trkpt>
      <trkpt lat="46.29638" lon="-0.68992">
        <ele>7.4</ele>
        <time>2020-05-31T13:43:37Z</time>
      </trkpt>
      <trkpt lat="46.29637" lon="-0.68993">
        <ele>7.4</ele>
        <time>2020-05-31T13:43:38Z</time>
      </trkpt>
      <trkpt lat="46.29635" lon="-0.68996">
        <ele>7.3</ele>
        <time>2020-05-31T13:43:39Z</time>
      </trkpt>
      <trkpt lat="46.29631" lon="-0.69">
        <ele>7.2</ele>
        <time>2020-05-31T13:43:40Z</time>
      </trkpt>
      <trkpt lat="46.29628" lon="-0.69005">
        <ele>7.1</ele>
        <time>2020-05-31T13:43:41Z</time>
      </trkpt>
      <trkpt lat="46.29624" lon="-0.69009">
        <ele>7</ele>
        <time>2020-05-31T13:43:42Z</time>
      </trkpt>
      <trkpt lat="46.29619" lon="-0.69012">
        <ele>6.9</ele>
        <time>2020-05-31T13:43:43Z</time>
      </trkpt>
      <trkpt lat="46.29615" lon="-0.69014">
        <ele>6.9</ele>
        <time>2020-05-31T13:43:44Z</time>
      </trkpt>
      <trkpt lat="46.29612" lon="-0.69017">
        <ele>6.8</ele>
        <time>2020-05-31T13:43:45Z</time>
      </trkpt>
      <trkpt lat="46.29608" lon="-0.69019">
        <ele>6.7</ele>
        <time>2020-05-31T13:43:46Z</time>
      </trkpt>
      <trkpt lat="46.29605" lon="-0.69022">
        <ele>6.7</ele>
        <time>2020-05-31T13:43:47Z</time>
      </trkpt>
      <trkpt lat="46.29601" lon="-0.69025">
        <ele>6.6</ele>
        <time>2020-05-31T13:43:48Z</time>
      </trkpt>
      <trkpt lat="46.29597" lon="-0.69028">
        <ele>6.6</ele>
        <time>2020-05-31T13:43:49Z</time>
      </trkpt>
      <trkpt lat="46.29593" lon="-0.69032">
        <ele>6.5</ele>
        <time>2020-05-31T13:43:50Z</time>
      </trkpt>
      <trkpt lat="46.29589" lon="-0.69036">
        <ele>6.5</ele>
        <time>2020-05-31T13:43:51Z</time>
      </trkpt>
      <trkpt lat="46.29586" lon="-0.6904">
        <ele>6.5</ele>
        <time>2020-05-31T13:43:52Z</time>
      </trkpt>
      <trkpt lat="46.29582" lon="-0.69044">
        <ele>6.5</ele>
        <time>2020-05-31T13:43:53Z</time>
      </trkpt>
      <trkpt lat="46.29577" lon="-0.69046">
        <ele>6.6</ele>
        <time>2020-05-31T13:43:54Z</time>
      </trkpt>
      <trkpt lat="46.29573" lon="-0.69049">
        <ele>6.7</ele>
        <time>2020-05-31T13:43:55Z</time>
      </trkpt>
      <trkpt lat="46.29569" lon="-0.69051">
        <ele>6.7</ele>
        <time>2020-05-31T13:43:56Z</time>
      </trkpt>
      <trkpt lat="46.29565" lon="-0.69055">
        <ele>6.8</ele>
        <time>2020-05-31T13:43:57Z</time>
      </trkpt>
      <trkpt lat="46.2956" lon="-0.69057">
        <ele>6.8</ele>
        <time>2020-05-31T13:43:58Z</time>
      </trkpt>
      <trkpt lat="46.29555" lon="-0.69059">
        <ele>6.9</ele>
        <time>2020-05-31T13:43:59Z</time>
      </trkpt>
      <trkpt lat="46.29551" lon="-0.6906">
        <ele>6.9</ele>
        <time>2020-05-31T13:44:00Z</time>
      </trkpt>
      <trkpt lat="46.29546" lon="-0.69062">
        <ele>7</ele>
        <time>2020-05-31T13:44:01Z</time>
      </trkpt>
      <trkpt lat="46.29541" lon="-0.69064">
        <ele>7.1</ele>
        <time>2020-05-31T13:44:02Z</time>
      </trkpt>
      <trkpt lat="46.29536" lon="-0.69065">
        <ele>7.2</ele>
        <time>2020-05-31T13:44:03Z</time>
      </trkpt>
      <trkpt lat="46.29532" lon="-0.69067">
        <ele>7.3</ele>
        <time>2020-05-31T13:44:04Z</time>
      </trkpt>
      <trkpt lat="46.29528" lon="-0.69069">
        <ele>7.4</ele>
        <time>2020-05-31T13:44:05Z</time>
      </trkpt>
      <trkpt lat="46.29523" lon="-0.69071">
        <ele>7.5</ele>
        <time>2020-05-31T13:44:06Z</time>
      </trkpt>
      <trkpt lat="46.29517" lon="-0.69073">
        <ele>7.6</ele>
        <time>2020-05-31T13:44:07Z</time>
      </trkpt>
      <trkpt lat="46.29512" lon="-0.69075">
        <ele>7.7</ele>
        <time>2020-05-31T13:44:08Z</time>
      </trkpt>
      <trkpt lat="46.29507" lon="-0.69076">
        <ele>7.8</ele>
        <time>2020-05-31T13:44:09Z</time>
      </trkpt>
      <trkpt lat="46.29502" lon="-0.69077">
        <ele>7.9</ele>
        <time>2020-05-31T13:44:10Z</time>
      </trkpt>
      <trkpt lat="46.29498" lon="-0.69078">
        <ele>8</ele>
        <time>2020-05-31T13:44:11Z</time>
      </trkpt>
      <trkpt lat="46.29493" lon="-0.69078">
        <ele>8.2</ele>
        <time>2020-05-31T13:44:12Z</time>
      </trkpt>
      <trkpt lat="46.29488" lon="-0.69079">
        <ele>8.3</ele>
        <time>2020-05-31T13:44:13Z</time>
      </trkpt>
      <trkpt lat="46.29483" lon="-0.69081">
        <ele>8.4</ele>
        <time>2020-05-31T13:44:14Z</time>
      </trkpt>
      <trkpt lat="46.29478" lon="-0.69082">
        <ele>8.5</ele>
        <time>2020-05-31T13:44:15Z</time>
      </trkpt>
      <trkpt lat="46.29473" lon="-0.69083">
        <ele>8.6</ele>
        <time>2020-05-31T13:44:16Z</time>
      </trkpt>
      <trkpt lat="46.29468" lon="-0.69083">
        <ele>8.6</ele>
        <time>2020-05-31T13:44:17Z</time>
      </trkpt>
      <trkpt lat="46.29464" lon="-0.69081">
        <ele>8.8</ele>
        <time>2020-05-31T13:44:18Z</time>
      </trkpt>
      <trkpt lat="46.2946" lon="-0.69081">
        <ele>8.9</ele>
        <time>2020-05-31T13:44:19Z</time>
      </trkpt>
      <trkpt lat="46.29456" lon="-0.69082">
        <ele>8.9</ele>
        <time>2020-05-31T13:44:20Z</time>
      </trkpt>
      <trkpt lat="46.2945" lon="-0.69084">
        <ele>9</ele>
        <time>2020-05-31T13:44:21Z</time>
      </trkpt>
      <trkpt lat="46.29446" lon="-0.69084">
        <ele>9.1</ele>
        <time>2020-05-31T13:44:22Z</time>
      </trkpt>
      <trkpt lat="46.29441" lon="-0.69085">
        <ele>9.2</ele>
        <time>2020-05-31T13:44:23Z</time>
      </trkpt>
      <trkpt lat="46.29436" lon="-0.69085">
        <ele>9.2</ele>
        <time>2020-05-31T13:44:24Z</time>
      </trkpt>
      <trkpt lat="46.29432" lon="-0.69085">
        <ele>9.3</ele>
        <time>2020-05-31T13:44:25Z</time>
      </trkpt>
      <trkpt lat="46.29428" lon="-0.69084">
        <ele>9.3</ele>
        <time>2020-05-31T13:44:26Z</time>
      </trkpt>
      <trkpt lat="46.29424" lon="-0.69085">
        <ele>9.3</ele>
        <time>2020-05-31T13:44:27Z</time>
      </trkpt>
      <trkpt lat="46.29419" lon="-0.69085">
        <ele>9.4</ele>
        <time>2020-05-31T13:44:28Z</time>
      </trkpt>
      <trkpt lat="46.29415" lon="-0.69085">
        <ele>9.5</ele>
        <time>2020-05-31T13:44:29Z</time>
      </trkpt>
      <trkpt lat="46.2941" lon="-0.69085">
        <ele>9.5</ele>
        <time>2020-05-31T13:44:30Z</time>
      </trkpt>
      <trkpt lat="46.29405" lon="-0.69084">
        <ele>9.5</ele>
        <time>2020-05-31T13:44:31Z</time>
      </trkpt>
      <trkpt lat="46.29399" lon="-0.69083">
        <ele>9.5</ele>
        <time>2020-05-31T13:44:32Z</time>
      </trkpt>
      <trkpt lat="46.29394" lon="-0.69082">
        <ele>9.5</ele>
        <time>2020-05-31T13:44:33Z</time>
      </trkpt>
      <trkpt lat="46.29389" lon="-0.69081">
        <ele>9.5</ele>
        <time>2020-05-31T13:44:34Z</time>
      </trkpt>
      <trkpt lat="46.29383" lon="-0.6908">
        <ele>9.5</ele>
        <time>2020-05-31T13:44:35Z</time>
      </trkpt>
      <trkpt lat="46.29377" lon="-0.69081">
        <ele>9.5</ele>
        <time>2020-05-31T13:44:36Z</time>
      </trkpt>
      <trkpt lat="46.29371" lon="-0.69079">
        <ele>9.5</ele>
        <time>2020-05-31T13:44:37Z</time>
      </trkpt>
      <trkpt lat="46.29366" lon="-0.69079">
        <ele>9.5</ele>
        <time>2020-05-31T13:44:38Z</time>
      </trkpt>
      <trkpt lat="46.2936" lon="-0.69079">
        <ele>9.5</ele>
        <time>2020-05-31T13:44:39Z</time>
      </trkpt>
      <trkpt lat="46.29354" lon="-0.69077">
        <ele>9.5</ele>
        <time>2020-05-31T13:44:40Z</time>
      </trkpt>
      <trkpt lat="46.29348" lon="-0.69076">
        <ele>9.6</ele>
        <time>2020-05-31T13:44:41Z</time>
      </trkpt>
      <trkpt lat="46.29342" lon="-0.69073">
        <ele>9.6</ele>
        <time>2020-05-31T13:44:42Z</time>
      </trkpt>
      <trkpt lat="46.29336" lon="-0.69072">
        <ele>9.6</ele>
        <time>2020-05-31T13:44:43Z</time>
      </trkpt>
      <trkpt lat="46.29329" lon="-0.69071">
        <ele>9.7</ele>
        <time>2020-05-31T13:44:44Z</time>
      </trkpt>
      <trkpt lat="46.29324" lon="-0.69069">
        <ele>9.7</ele>
        <time>2020-05-31T13:44:45Z</time>
      </trkpt>
      <trkpt lat="46.29319" lon="-0.69066">
        <ele>9.7</ele>
        <time>2020-05-31T13:44:46Z</time>
      </trkpt>
      <trkpt lat="46.29313" lon="-0.69064">
        <ele>9.7</ele>
        <time>2020-05-31T13:44:47Z</time>
      </trkpt>
      <trkpt lat="46.29307" lon="-0.69063">
        <ele>9.8</ele>
        <time>2020-05-31T13:44:48Z</time>
      </trkpt>
      <trkpt lat="46.29302" lon="-0.69062">
        <ele>9.8</ele>
        <time>2020-05-31T13:44:49Z</time>
      </trkpt>
      <trkpt lat="46.29295" lon="-0.69061">
        <ele>9.8</ele>
        <time>2020-05-31T13:44:50Z</time>
      </trkpt>
      <trkpt lat="46.2929" lon="-0.69061">
        <ele>9.7</ele>
        <time>2020-05-31T13:44:51Z</time>
      </trkpt>
      <trkpt lat="46.29284" lon="-0.6906">
        <ele>9.7</ele>
        <time>2020-05-31T13:44:52Z</time>
      </trkpt>
      <trkpt lat="46.29278" lon="-0.6906">
        <ele>9.6</ele>
        <time>2020-05-31T13:44:53Z</time>
      </trkpt>
      <trkpt lat="46.29272" lon="-0.69059">
        <ele>9.5</ele>
        <time>2020-05-31T13:44:54Z</time>
      </trkpt>
      <trkpt lat="46.29266" lon="-0.69057">
        <ele>9.5</ele>
        <time>2020-05-31T13:44:55Z</time>
      </trkpt>
      <trkpt lat="46.2926" lon="-0.69056">
        <ele>9.4</ele>
        <time>2020-05-31T13:44:56Z</time>
      </trkpt>
      <trkpt lat="46.29254" lon="-0.69055">
        <ele>9.3</ele>
        <time>2020-05-31T13:44:57Z</time>
      </trkpt>
      <trkpt lat="46.29248" lon="-0.69055">
        <ele>9.2</ele>
        <time>2020-05-31T13:44:58Z</time>
      </trkpt>
      <trkpt lat="46.29242" lon="-0.69055">
        <ele>9.2</ele>
        <time>2020-05-31T13:44:59Z</time>
      </trkpt>
      <trkpt lat="46.29236" lon="-0.69054">
        <ele>9.1</ele>
        <time>2020-05-31T13:45:00Z</time>
      </trkpt>
      <trkpt lat="46.2923" lon="-0.69053">
        <ele>9.1</ele>
        <time>2020-05-31T13:45:01Z</time>
      </trkpt>
      <trkpt lat="46.29224" lon="-0.69052">
        <ele>9</ele>
        <time>2020-05-31T13:45:02Z</time>
      </trkpt>
      <trkpt lat="46.29218" lon="-0.69052">
        <ele>9</ele>
        <time>2020-05-31T13:45:03Z</time>
      </trkpt>
      <trkpt lat="46.29212" lon="-0.69051">
        <ele>9</ele>
        <time>2020-05-31T13:45:04Z</time>
      </trkpt>
      <trkpt lat="46.29206" lon="-0.69051">
        <ele>9</ele>
        <time>2020-05-31T13:45:05Z</time>
      </trkpt>
      <trkpt lat="46.292" lon="-0.6905">
        <ele>9</ele>
        <time>2020-05-31T13:45:06Z</time>
      </trkpt>
      <trkpt lat="46.29195" lon="-0.6905">
        <ele>9</ele>
        <time>2020-05-31T13:45:07Z</time>
      </trkpt>
      <trkpt lat="46.29189" lon="-0.69049">
        <ele>9</ele>
        <time>2020-05-31T13:45:08Z</time>
      </trkpt>
      <trkpt lat="46.29184" lon="-0.69048">
        <ele>9</ele>
        <time>2020-05-31T13:45:09Z</time>
      </trkpt>
      <trkpt lat="46.29178" lon="-0.69047">
        <ele>9.1</ele>
        <time>2020-05-31T13:45:10Z</time>
      </trkpt>
      <trkpt lat="46.29173" lon="-0.69047">
        <ele>9.1</ele>
        <time>2020-05-31T13:45:11Z</time>
      </trkpt>
      <trkpt lat="46.29168" lon="-0.69046">
        <ele>9.1</ele>
        <time>2020-05-31T13:45:12Z</time>
      </trkpt>
      <trkpt lat="46.29163" lon="-0.69046">
        <ele>9.1</ele>
        <time>2020-05-31T13:45:13Z</time>
      </trkpt>
      <trkpt lat="46.29158" lon="-0.69045">
        <ele>9.1</ele>
        <time>2020-05-31T13:45:14Z</time>
      </trkpt>
      <trkpt lat="46.29153" lon="-0.69044">
        <ele>9.2</ele>
        <time>2020-05-31T13:45:15Z</time>
      </trkpt>
      <trkpt lat="46.29148" lon="-0.69044">
        <ele>9.2</ele>
        <time>2020-05-31T13:45:16Z</time>
      </trkpt>
      <trkpt lat="46.29143" lon="-0.69042">
        <ele>9.2</ele>
        <time>2020-05-31T13:45:17Z</time>
      </trkpt>
      <trkpt lat="46.29137" lon="-0.69042">
        <ele>9.2</ele>
        <time>2020-05-31T13:45:18Z</time>
      </trkpt>
      <trkpt lat="46.29132" lon="-0.69043">
        <ele>9.2</ele>
        <time>2020-05-31T13:45:19Z</time>
      </trkpt>
      <trkpt lat="46.29126" lon="-0.69043">
        <ele>9.3</ele>
        <time>2020-05-31T13:45:20Z</time>
      </trkpt>
      <trkpt lat="46.29121" lon="-0.69044">
        <ele>9.3</ele>
        <time>2020-05-31T13:45:21Z</time>
      </trkpt>
      <trkpt lat="46.29115" lon="-0.69044">
        <ele>9.3</ele>
        <time>2020-05-31T13:45:22Z</time>
      </trkpt>
      <trkpt lat="46.2911" lon="-0.69044">
        <ele>9.3</ele>
        <time>2020-05-31T13:45:23Z</time>
      </trkpt>
      <trkpt lat="46.29104" lon="-0.69044">
        <ele>9.3</ele>
        <time>2020-05-31T13:45:24Z</time>
      </trkpt>
      <trkpt lat="46.29098" lon="-0.69044">
        <ele>9.3</ele>
        <time>2020-05-31T13:45:25Z</time>
      </trkpt>
      <trkpt lat="46.29092" lon="-0.69045">
        <ele>9.3</ele>
        <time>2020-05-31T13:45:26Z</time>
      </trkpt>
      <trkpt lat="46.29087" lon="-0.69046">
        <ele>9.4</ele>
        <time>2020-05-31T13:45:27Z</time>
      </trkpt>
      <trkpt lat="46.29081" lon="-0.69044">
        <ele>9.4</ele>
        <time>2020-05-31T13:45:28Z</time>
      </trkpt>
      <trkpt lat="46.29076" lon="-0.69045">
        <ele>9.4</ele>
        <time>2020-05-31T13:45:29Z</time>
      </trkpt>
      <trkpt lat="46.2907" lon="-0.69047">
        <ele>9.4</ele>
        <time>2020-05-31T13:45:30Z</time>
      </trkpt>
      <trkpt lat="46.29064" lon="-0.69048">
        <ele>9.3</ele>
        <time>2020-05-31T13:45:31Z</time>
      </trkpt>
      <trkpt lat="46.29058" lon="-0.6905">
        <ele>9.2</ele>
        <time>2020-05-31T13:45:32Z</time>
      </trkpt>
      <trkpt lat="46.29052" lon="-0.6905">
        <ele>9.2</ele>
        <time>2020-05-31T13:45:33Z</time>
      </trkpt>
      <trkpt lat="46.29045" lon="-0.69051">
        <ele>9.1</ele>
        <time>2020-05-31T13:45:34Z</time>
      </trkpt>
      <trkpt lat="46.29039" lon="-0.69051">
        <ele>8.9</ele>
        <time>2020-05-31T13:45:35Z</time>
      </trkpt>
      <trkpt lat="46.29033" lon="-0.69051">
        <ele>8.8</ele>
        <time>2020-05-31T13:45:36Z</time>
      </trkpt>
      <trkpt lat="46.29027" lon="-0.69051">
        <ele>8.7</ele>
        <time>2020-05-31T13:45:37Z</time>
      </trkpt>
      <trkpt lat="46.2902" lon="-0.69051">
        <ele>8.6</ele>
        <time>2020-05-31T13:45:38Z</time>
      </trkpt>
      <trkpt lat="46.29014" lon="-0.69051">
        <ele>8.4</ele>
        <time>2020-05-31T13:45:39Z</time>
      </trkpt>
      <trkpt lat="46.29007" lon="-0.6905">
        <ele>8.3</ele>
        <time>2020-05-31T13:45:40Z</time>
      </trkpt>
      <trkpt lat="46.29" lon="-0.69051">
        <ele>8.2</ele>
        <time>2020-05-31T13:45:41Z</time>
      </trkpt>
      <trkpt lat="46.28993" lon="-0.69051">
        <ele>8.1</ele>
        <time>2020-05-31T13:45:42Z</time>
      </trkpt>
      <trkpt lat="46.28987" lon="-0.69051">
        <ele>8.1</ele>
        <time>2020-05-31T13:45:43Z</time>
      </trkpt>
      <trkpt lat="46.2898" lon="-0.69052">
        <ele>8.1</ele>
        <time>2020-05-31T13:45:44Z</time>
      </trkpt>
      <trkpt lat="46.28974" lon="-0.69055">
        <ele>8</ele>
        <time>2020-05-31T13:45:45Z</time>
      </trkpt>
      <trkpt lat="46.28968" lon="-0.69055">
        <ele>8</ele>
        <time>2020-05-31T13:45:46Z</time>
      </trkpt>
      <trkpt lat="46.28961" lon="-0.69055">
        <ele>7.9</ele>
        <time>2020-05-31T13:45:47Z</time>
      </trkpt>
      <trkpt lat="46.28955" lon="-0.69056">
        <ele>7.9</ele>
        <time>2020-05-31T13:45:48Z</time>
      </trkpt>
      <trkpt lat="46.28949" lon="-0.69058">
        <ele>7.8</ele>
        <time>2020-05-31T13:45:49Z</time>
      </trkpt>
      <trkpt lat="46.28943" lon="-0.69061">
        <ele>7.8</ele>
        <time>2020-05-31T13:45:50Z</time>
      </trkpt>
      <trkpt lat="46.28937" lon="-0.69063">
        <ele>7.7</ele>
        <time>2020-05-31T13:45:51Z</time>
      </trkpt>
      <trkpt lat="46.2893" lon="-0.69069">
        <ele>7.7</ele>
        <time>2020-05-31T13:45:52Z</time>
      </trkpt>
      <trkpt lat="46.28923" lon="-0.6907">
        <ele>7.7</ele>
        <time>2020-05-31T13:45:53Z</time>
      </trkpt>
      <trkpt lat="46.28916" lon="-0.69071">
        <ele>7.6</ele>
        <time>2020-05-31T13:45:54Z</time>
      </trkpt>
      <trkpt lat="46.2891" lon="-0.69072">
        <ele>7.6</ele>
        <time>2020-05-31T13:45:55Z</time>
      </trkpt>
      <trkpt lat="46.28903" lon="-0.69073">
        <ele>7.6</ele>
        <time>2020-05-31T13:45:56Z</time>
      </trkpt>
      <trkpt lat="46.28897" lon="-0.69074">
        <ele>7.6</ele>
        <time>2020-05-31T13:45:57Z</time>
      </trkpt>
      <trkpt lat="46.28891" lon="-0.69076">
        <ele>7.6</ele>
        <time>2020-05-31T13:45:58Z</time>
      </trkpt>
      <trkpt lat="46.28884" lon="-0.69077">
        <ele>7.6</ele>
        <time>2020-05-31T13:45:59Z</time>
      </trkpt>
      <trkpt lat="46.28878" lon="-0.69078">
        <ele>7.6</ele>
        <time>2020-05-31T13:46:00Z</time>
      </trkpt>
      <trkpt lat="46.28872" lon="-0.69079">
        <ele>7.6</ele>
        <time>2020-05-31T13:46:01Z</time>
      </trkpt>
      <trkpt lat="46.28866" lon="-0.69079">
        <ele>7.6</ele>
        <time>2020-05-31T13:46:02Z</time>
      </trkpt>
      <trkpt lat="46.2886" lon="-0.69081">
        <ele>7.6</ele>
        <time>2020-05-31T13:46:03Z</time>
      </trkpt>
      <trkpt lat="46.28854" lon="-0.69083">
        <ele>7.6</ele>
        <time>2020-05-31T13:46:04Z</time>
      </trkpt>
      <trkpt lat="46.28848" lon="-0.69084">
        <ele>7.6</ele>
        <time>2020-05-31T13:46:05Z</time>
      </trkpt>
      <trkpt lat="46.28843" lon="-0.69086">
        <ele>7.6</ele>
        <time>2020-05-31T13:46:06Z</time>
      </trkpt>
      <trkpt lat="46.28837" lon="-0.69086">
        <ele>7.6</ele>
        <time>2020-05-31T13:46:07Z</time>
      </trkpt>
      <trkpt lat="46.28831" lon="-0.69086">
        <ele>7.7</ele>
        <time>2020-05-31T13:46:08Z</time>
      </trkpt>
      <trkpt lat="46.28825" lon="-0.69087">
        <ele>7.7</ele>
        <time>2020-05-31T13:46:09Z</time>
      </trkpt>
      <trkpt lat="46.2882" lon="-0.69088">
        <ele>7.7</ele>
        <time>2020-05-31T13:46:10Z</time>
      </trkpt>
      <trkpt lat="46.28814" lon="-0.69094">
        <ele>7.8</ele>
        <time>2020-05-31T13:46:11Z</time>
      </trkpt>
      <trkpt lat="46.28809" lon="-0.69096">
        <ele>7.9</ele>
        <time>2020-05-31T13:46:12Z</time>
      </trkpt>
      <trkpt lat="46.28803" lon="-0.69099">
        <ele>8</ele>
        <time>2020-05-31T13:46:13Z</time>
      </trkpt>
      <trkpt lat="46.28798" lon="-0.69101">
        <ele>8</ele>
        <time>2020-05-31T13:46:14Z</time>
      </trkpt>
      <trkpt lat="46.28792" lon="-0.69104">
        <ele>8.1</ele>
        <time>2020-05-31T13:46:15Z</time>
      </trkpt>
      <trkpt lat="46.28787" lon="-0.69107">
        <ele>8.3</ele>
        <time>2020-05-31T13:46:16Z</time>
      </trkpt>
      <trkpt lat="46.28782" lon="-0.69111">
        <ele>8.4</ele>
        <time>2020-05-31T13:46:17Z</time>
      </trkpt>
      <trkpt lat="46.28777" lon="-0.69115">
        <ele>8.5</ele>
        <time>2020-05-31T13:46:18Z</time>
      </trkpt>
      <trkpt lat="46.28772" lon="-0.6912">
        <ele>8.6</ele>
        <time>2020-05-31T13:46:19Z</time>
      </trkpt>
      <trkpt lat="46.28767" lon="-0.69123">
        <ele>8.7</ele>
        <time>2020-05-31T13:46:20Z</time>
      </trkpt>
      <trkpt lat="46.28763" lon="-0.69126">
        <ele>8.9</ele>
        <time>2020-05-31T13:46:21Z</time>
      </trkpt>
      <trkpt lat="46.28758" lon="-0.6913">
        <ele>9</ele>
        <time>2020-05-31T13:46:22Z</time>
      </trkpt>
      <trkpt lat="46.28755" lon="-0.69135">
        <ele>9.2</ele>
        <time>2020-05-31T13:46:23Z</time>
      </trkpt>
      <trkpt lat="46.2875" lon="-0.69139">
        <ele>9.3</ele>
        <time>2020-05-31T13:46:24Z</time>
      </trkpt>
      <trkpt lat="46.28746" lon="-0.69144">
        <ele>9.5</ele>
        <time>2020-05-31T13:46:25Z</time>
      </trkpt>
      <trkpt lat="46.28742" lon="-0.69149">
        <ele>9.6</ele>
        <time>2020-05-31T13:46:26Z</time>
      </trkpt>
      <trkpt lat="46.28738" lon="-0.69154">
        <ele>9.8</ele>
        <time>2020-05-31T13:46:27Z</time>
      </trkpt>
      <trkpt lat="46.28734" lon="-0.69158">
        <ele>9.9</ele>
        <time>2020-05-31T13:46:28Z</time>
      </trkpt>
      <trkpt lat="46.28731" lon="-0.69164">
        <ele>10.1</ele>
        <time>2020-05-31T13:46:29Z</time>
      </trkpt>
      <trkpt lat="46.28728" lon="-0.69168">
        <ele>10.2</ele>
        <time>2020-05-31T13:46:30Z</time>
      </trkpt>
      <trkpt lat="46.28725" lon="-0.69173">
        <ele>10.4</ele>
        <time>2020-05-31T13:46:31Z</time>
      </trkpt>
      <trkpt lat="46.28723" lon="-0.69177">
        <ele>10.5</ele>
        <time>2020-05-31T13:46:32Z</time>
      </trkpt>
      <trkpt lat="46.2872" lon="-0.69181">
        <ele>10.6</ele>
        <time>2020-05-31T13:46:33Z</time>
      </trkpt>
      <trkpt lat="46.28716" lon="-0.69186">
        <ele>10.7</ele>
        <time>2020-05-31T13:46:34Z</time>
      </trkpt>
      <trkpt lat="46.28713" lon="-0.69191">
        <ele>10.9</ele>
        <time>2020-05-31T13:46:35Z</time>
      </trkpt>
      <trkpt lat="46.2871" lon="-0.69196">
        <ele>10.9</ele>
        <time>2020-05-31T13:46:36Z</time>
      </trkpt>
      <trkpt lat="46.28707" lon="-0.692">
        <ele>11</ele>
        <time>2020-05-31T13:46:37Z</time>
      </trkpt>
      <trkpt lat="46.28703" lon="-0.69204">
        <ele>11.1</ele>
        <time>2020-05-31T13:46:38Z</time>
      </trkpt>
      <trkpt lat="46.28701" lon="-0.69208">
        <ele>11.1</ele>
        <time>2020-05-31T13:46:39Z</time>
      </trkpt>
      <trkpt lat="46.28696" lon="-0.69209">
        <ele>11.1</ele>
        <time>2020-05-31T13:46:40Z</time>
      </trkpt>
      <trkpt lat="46.28693" lon="-0.6921">
        <ele>11.1</ele>
        <time>2020-05-31T13:46:41Z</time>
      </trkpt>
      <trkpt lat="46.28691" lon="-0.6921">
        <ele>11.1</ele>
        <time>2020-05-31T13:46:42Z</time>
      </trkpt>
      <trkpt lat="46.2869" lon="-0.69211">
        <ele>11.1</ele>
        <time>2020-05-31T13:46:43Z</time>
      </trkpt>
      <trkpt lat="46.2869" lon="-0.69211">
        <ele>11.1</ele>
        <time>2020-05-31T13:46:44Z</time>
      </trkpt>
      <trkpt lat="46.28689" lon="-0.69211">
        <ele>11.1</ele>
        <time>2020-05-31T13:46:45Z</time>
      </trkpt>
      <trkpt lat="46.28689" lon="-0.69211">
        <ele>11.1</ele>
        <time>2020-05-31T13:46:46Z</time>
      </trkpt>
      <trkpt lat="46.28688" lon="-0.69211">
        <ele>11.1</ele>
        <time>2020-05-31T13:46:47Z</time>
      </trkpt>
      <trkpt lat="46.28688" lon="-0.69211">
        <ele>11.1</ele>
        <time>2020-05-31T13:46:48Z</time>
      </trkpt>
      <trkpt lat="46.28688" lon="-0.69212">
        <ele>11.1</ele>
        <time>2020-05-31T13:46:49Z</time>
      </trkpt>
      <trkpt lat="46.28687" lon="-0.69211">
        <ele>11.1</ele>
        <time>2020-05-31T13:46:50Z</time>
      </trkpt>
      <trkpt lat="46.28687" lon="-0.69212">
        <ele>11.1</ele>
        <time>2020-05-31T13:46:51Z</time>
      </trkpt>
      <trkpt lat="46.28687" lon="-0.69212">
        <ele>11.1</ele>
        <time>2020-05-31T13:46:52Z</time>
      </trkpt>
      <trkpt lat="46.28687" lon="-0.69213">
        <ele>11.1</ele>
        <time>2020-05-31T13:46:53Z</time>
      </trkpt>
      <trkpt lat="46.28686" lon="-0.69212">
        <ele>11.1</ele>
        <time>2020-05-31T13:46:54Z</time>
      </trkpt>
      <trkpt lat="46.28686" lon="-0.69213">
        <ele>11.1</ele>
        <time>2020-05-31T13:46:55Z</time>
      </trkpt>
      <trkpt lat="46.28686" lon="-0.69213">
        <ele>11.1</ele>
        <time>2020-05-31T13:46:56Z</time>
      </trkpt>
      <trkpt lat="46.28686" lon="-0.69214">
        <ele>11.1</ele>
        <time>2020-05-31T13:46:57Z</time>
      </trkpt>
      <trkpt lat="46.28686" lon="-0.69214">
        <ele>11.1</ele>
        <time>2020-05-31T13:46:58Z</time>
      </trkpt>
      <trkpt lat="46.28686" lon="-0.69215">
        <ele>11.1</ele>
        <time>2020-05-31T13:46:59Z</time>
      </trkpt>
      <trkpt lat="46.28686" lon="-0.69215">
        <ele>11.1</ele>
        <time>2020-05-31T13:47:00Z</time>
      </trkpt>
      <trkpt lat="46.28685" lon="-0.69215">
        <ele>11.1</ele>
        <time>2020-05-31T13:47:01Z</time>
      </trkpt>
      <trkpt lat="46.28685" lon="-0.69216">
        <ele>11.1</ele>
        <time>2020-05-31T13:47:02Z</time>
      </trkpt>
      <trkpt lat="46.28685" lon="-0.69216">
        <ele>11.1</ele>
        <time>2020-05-31T13:47:03Z</time>
      </trkpt>
      <trkpt lat="46.28685" lon="-0.69216">
        <ele>11.1</ele>
        <time>2020-05-31T13:47:04Z</time>
      </trkpt>
      <trkpt lat="46.28684" lon="-0.69217">
        <ele>11.1</ele>
        <time>2020-05-31T13:47:05Z</time>
      </trkpt>
      <trkpt lat="46.28684" lon="-0.69217">
        <ele>11.1</ele>
        <time>2020-05-31T13:47:06Z</time>
      </trkpt>
      <trkpt lat="46.28684" lon="-0.69218">
        <ele>11.1</ele>
        <time>2020-05-31T13:47:07Z</time>
      </trkpt>
      <trkpt lat="46.28683" lon="-0.69218">
        <ele>11.1</ele>
        <time>2020-05-31T13:47:08Z</time>
      </trkpt>
      <trkpt lat="46.28683" lon="-0.69219">
        <ele>11.1</ele>
        <time>2020-05-31T13:47:09Z</time>
      </trkpt>
      <trkpt lat="46.28683" lon="-0.69219">
        <ele>11.1</ele>
        <time>2020-05-31T13:47:10Z</time>
      </trkpt>
      <trkpt lat="46.28682" lon="-0.69219">
        <ele>11.1</ele>
        <time>2020-05-31T13:47:11Z</time>
      </trkpt>
      <trkpt lat="46.28682" lon="-0.69219">
        <ele>11.1</ele>
        <time>2020-05-31T13:47:12Z</time>
      </trkpt>
      <trkpt lat="46.28682" lon="-0.69219">
        <ele>11.1</ele>
        <time>2020-05-31T13:47:13Z</time>
      </trkpt>
      <trkpt lat="46.28682" lon="-0.69219">
        <ele>11.1</ele>
        <time>2020-05-31T13:47:14Z</time>
      </trkpt>
      <trkpt lat="46.28682" lon="-0.69219">
        <ele>11</ele>
        <time>2020-05-31T13:47:15Z</time>
      </trkpt>
      <trkpt lat="46.28682" lon="-0.6922">
        <ele>11</ele>
        <time>2020-05-31T13:47:16Z</time>
      </trkpt>
      <trkpt lat="46.28682" lon="-0.69221">
        <ele>11</ele>
        <time>2020-05-31T13:47:17Z</time>
      </trkpt>
      <trkpt lat="46.28683" lon="-0.69222">
        <ele>11</ele>
        <time>2020-05-31T13:47:18Z</time>
      </trkpt>
      <trkpt lat="46.28684" lon="-0.69223">
        <ele>11</ele>
        <time>2020-05-31T13:47:19Z</time>
      </trkpt>
      <trkpt lat="46.28684" lon="-0.69224">
        <ele>11</ele>
        <time>2020-05-31T13:47:20Z</time>
      </trkpt>
      <trkpt lat="46.28684" lon="-0.69224">
        <ele>11</ele>
        <time>2020-05-31T13:47:21Z</time>
      </trkpt>
      <trkpt lat="46.28684" lon="-0.69225">
        <ele>11</ele>
        <time>2020-05-31T13:47:22Z</time>
      </trkpt>
      <trkpt lat="46.28685" lon="-0.69226">
        <ele>11</ele>
        <time>2020-05-31T13:47:23Z</time>
      </trkpt>
      <trkpt lat="46.28685" lon="-0.69226">
        <ele>11</ele>
        <time>2020-05-31T13:47:24Z</time>
      </trkpt>
      <trkpt lat="46.28685" lon="-0.69227">
        <ele>11</ele>
        <time>2020-05-31T13:47:25Z</time>
      </trkpt>
      <trkpt lat="46.28685" lon="-0.69228">
        <ele>11</ele>
        <time>2020-05-31T13:47:26Z</time>
      </trkpt>
      <trkpt lat="46.28685" lon="-0.69228">
        <ele>11</ele>
        <time>2020-05-31T13:47:27Z</time>
      </trkpt>
      <trkpt lat="46.28685" lon="-0.69228">
        <ele>11</ele>
        <time>2020-05-31T13:47:28Z</time>
      </trkpt>
      <trkpt lat="46.28685" lon="-0.69228">
        <ele>11</ele>
        <time>2020-05-31T13:47:29Z</time>
      </trkpt>
      <trkpt lat="46.28684" lon="-0.69228">
        <ele>11</ele>
        <time>2020-05-31T13:47:30Z</time>
      </trkpt>
      <trkpt lat="46.28684" lon="-0.69229">
        <ele>11</ele>
        <time>2020-05-31T13:47:31Z</time>
      </trkpt>
      <trkpt lat="46.28684" lon="-0.69229">
        <ele>11</ele>
        <time>2020-05-31T13:47:32Z</time>
      </trkpt>
      <trkpt lat="46.28683" lon="-0.69229">
        <ele>11</ele>
        <time>2020-05-31T13:47:33Z</time>
      </trkpt>
      <trkpt lat="46.28683" lon="-0.69229">
        <ele>11</ele>
        <time>2020-05-31T13:47:34Z</time>
      </trkpt>
      <trkpt lat="46.28683" lon="-0.69229">
        <ele>11</ele>
        <time>2020-05-31T13:47:35Z</time>
      </trkpt>
      <trkpt lat="46.28683" lon="-0.6923">
        <ele>11</ele>
        <time>2020-05-31T13:47:36Z</time>
      </trkpt>
      <trkpt lat="46.28682" lon="-0.6923">
        <ele>11</ele>
        <time>2020-05-31T13:47:37Z</time>
      </trkpt>
      <trkpt lat="46.28682" lon="-0.6923">
        <ele>11</ele>
        <time>2020-05-31T13:47:38Z</time>
      </trkpt>
      <trkpt lat="46.28679" lon="-0.69231">
        <ele>11</ele>
        <time>2020-05-31T13:47:39Z</time>
      </trkpt>
      <trkpt lat="46.28678" lon="-0.69232">
        <ele>11</ele>
        <time>2020-05-31T13:47:40Z</time>
      </trkpt>
      <trkpt lat="46.28675" lon="-0.69235">
        <ele>11</ele>
        <time>2020-05-31T13:47:41Z</time>
      </trkpt>
      <trkpt lat="46.28674" lon="-0.69235">
        <ele>11</ele>
        <time>2020-05-31T13:47:42Z</time>
      </trkpt>
      <trkpt lat="46.28671" lon="-0.69238">
        <ele>11</ele>
        <time>2020-05-31T13:47:43Z</time>
      </trkpt>
      <trkpt lat="46.28669" lon="-0.6924">
        <ele>11</ele>
        <time>2020-05-31T13:47:44Z</time>
      </trkpt>
      <trkpt lat="46.28667" lon="-0.69245">
        <ele>11</ele>
        <time>2020-05-31T13:47:45Z</time>
      </trkpt>
      <trkpt lat="46.28664" lon="-0.69248">
        <ele>11</ele>
        <time>2020-05-31T13:47:46Z</time>
      </trkpt>
      <trkpt lat="46.28661" lon="-0.69252">
        <ele>11</ele>
        <time>2020-05-31T13:47:47Z</time>
      </trkpt>
      <trkpt lat="46.28658" lon="-0.69256">
        <ele>11</ele>
        <time>2020-05-31T13:47:48Z</time>
      </trkpt>
      <trkpt lat="46.28655" lon="-0.6926">
        <ele>11</ele>
        <time>2020-05-31T13:47:49Z</time>
      </trkpt>
      <trkpt lat="46.28652" lon="-0.69265">
        <ele>10.9</ele>
        <time>2020-05-31T13:47:50Z</time>
      </trkpt>
      <trkpt lat="46.28649" lon="-0.6927">
        <ele>10.9</ele>
        <time>2020-05-31T13:47:51Z</time>
      </trkpt>
      <trkpt lat="46.28645" lon="-0.69275">
        <ele>10.9</ele>
        <time>2020-05-31T13:47:52Z</time>
      </trkpt>
      <trkpt lat="46.28639" lon="-0.69277">
        <ele>10.9</ele>
        <time>2020-05-31T13:47:53Z</time>
      </trkpt>
      <trkpt lat="46.28634" lon="-0.69282">
        <ele>10.9</ele>
        <time>2020-05-31T13:47:54Z</time>
      </trkpt>
      <trkpt lat="46.2863" lon="-0.69286">
        <ele>10.9</ele>
        <time>2020-05-31T13:47:55Z</time>
      </trkpt>
      <trkpt lat="46.28626" lon="-0.6929">
        <ele>10.9</ele>
        <time>2020-05-31T13:47:56Z</time>
      </trkpt>
      <trkpt lat="46.28623" lon="-0.69297">
        <ele>10.9</ele>
        <time>2020-05-31T13:47:57Z</time>
      </trkpt>
      <trkpt lat="46.28619" lon="-0.69301">
        <ele>10.8</ele>
        <time>2020-05-31T13:47:58Z</time>
      </trkpt>
      <trkpt lat="46.28615" lon="-0.69307">
        <ele>10.8</ele>
        <time>2020-05-31T13:47:59Z</time>
      </trkpt>
      <trkpt lat="46.28611" lon="-0.69312">
        <ele>10.7</ele>
        <time>2020-05-31T13:48:00Z</time>
      </trkpt>
      <trkpt lat="46.28609" lon="-0.69317">
        <ele>10.6</ele>
        <time>2020-05-31T13:48:01Z</time>
      </trkpt>
      <trkpt lat="46.28608" lon="-0.6932">
        <ele>10.6</ele>
        <time>2020-05-31T13:48:02Z</time>
      </trkpt>
      <trkpt lat="46.28607" lon="-0.69322">
        <ele>10.6</ele>
        <time>2020-05-31T13:48:03Z</time>
      </trkpt>
      <trkpt lat="46.28609" lon="-0.69324">
        <ele>10.5</ele>
        <time>2020-05-31T13:48:04Z</time>
      </trkpt>
      <trkpt lat="46.28609" lon="-0.69324">
        <ele>10.5</ele>
        <time>2020-05-31T13:48:05Z</time>
      </trkpt>
      <trkpt lat="46.28609" lon="-0.69324">
        <ele>10.5</ele>
        <time>2020-05-31T13:48:06Z</time>
      </trkpt>
      <trkpt lat="46.28609" lon="-0.69324">
        <ele>10.5</ele>
        <time>2020-05-31T13:48:07Z</time>
      </trkpt>
      <trkpt lat="46.28609" lon="-0.69324">
        <ele>10.5</ele>
        <time>2020-05-31T13:48:08Z</time>
      </trkpt>
      <trkpt lat="46.28609" lon="-0.69325">
        <ele>10.5</ele>
        <time>2020-05-31T13:48:09Z</time>
      </trkpt>
      <trkpt lat="46.28609" lon="-0.69326">
        <ele>10.5</ele>
        <time>2020-05-31T13:48:10Z</time>
      </trkpt>
      <trkpt lat="46.28609" lon="-0.69326">
        <ele>10.5</ele>
        <time>2020-05-31T13:48:11Z</time>
      </trkpt>
      <trkpt lat="46.28609" lon="-0.69326">
        <ele>10.5</ele>
        <time>2020-05-31T13:48:12Z</time>
      </trkpt>
      <trkpt lat="46.28609" lon="-0.69326">
        <ele>10.5</ele>
        <time>2020-05-31T13:48:13Z</time>
      </trkpt>
      <trkpt lat="46.2861" lon="-0.69327">
        <ele>10.5</ele>
        <time>2020-05-31T13:48:14Z</time>
      </trkpt>
      <trkpt lat="46.28611" lon="-0.69328">
        <ele>10.4</ele>
        <time>2020-05-31T13:48:15Z</time>
      </trkpt>
      <trkpt lat="46.2861" lon="-0.69327">
        <ele>10.4</ele>
        <time>2020-05-31T13:48:16Z</time>
      </trkpt>
      <trkpt lat="46.2861" lon="-0.69327">
        <ele>10.4</ele>
        <time>2020-05-31T13:48:17Z</time>
      </trkpt>
      <trkpt lat="46.2861" lon="-0.69328">
        <ele>10.4</ele>
        <time>2020-05-31T13:48:18Z</time>
      </trkpt>
      <trkpt lat="46.28611" lon="-0.69329">
        <ele>10.4</ele>
        <time>2020-05-31T13:48:19Z</time>
      </trkpt>
      <trkpt lat="46.2861" lon="-0.6933">
        <ele>10.4</ele>
        <time>2020-05-31T13:48:20Z</time>
      </trkpt>
      <trkpt lat="46.28609" lon="-0.69331">
        <ele>10.4</ele>
        <time>2020-05-31T13:48:21Z</time>
      </trkpt>
      <trkpt lat="46.28607" lon="-0.69334">
        <ele>10.3</ele>
        <time>2020-05-31T13:48:22Z</time>
      </trkpt>
      <trkpt lat="46.28606" lon="-0.69335">
        <ele>10.3</ele>
        <time>2020-05-31T13:48:23Z</time>
      </trkpt>
      <trkpt lat="46.28604" lon="-0.69338">
        <ele>10.3</ele>
        <time>2020-05-31T13:48:24Z</time>
      </trkpt>
      <trkpt lat="46.28601" lon="-0.69341">
        <ele>10.2</ele>
        <time>2020-05-31T13:48:25Z</time>
      </trkpt>
      <trkpt lat="46.28599" lon="-0.69344">
        <ele>10.2</ele>
        <time>2020-05-31T13:48:26Z</time>
      </trkpt>
      <trkpt lat="46.28596" lon="-0.69348">
        <ele>10.1</ele>
        <time>2020-05-31T13:48:27Z</time>
      </trkpt>
      <trkpt lat="46.28594" lon="-0.69352">
        <ele>10.1</ele>
        <time>2020-05-31T13:48:28Z</time>
      </trkpt>
      <trkpt lat="46.28591" lon="-0.69355">
        <ele>10</ele>
        <time>2020-05-31T13:48:29Z</time>
      </trkpt>
      <trkpt lat="46.28587" lon="-0.69358">
        <ele>10</ele>
        <time>2020-05-31T13:48:30Z</time>
      </trkpt>
      <trkpt lat="46.28585" lon="-0.69363">
        <ele>9.9</ele>
        <time>2020-05-31T13:48:31Z</time>
      </trkpt>
      <trkpt lat="46.28582" lon="-0.69368">
        <ele>9.9</ele>
        <time>2020-05-31T13:48:32Z</time>
      </trkpt>
      <trkpt lat="46.28579" lon="-0.69374">
        <ele>9.8</ele>
        <time>2020-05-31T13:48:33Z</time>
      </trkpt>
      <trkpt lat="46.28575" lon="-0.69379">
        <ele>9.7</ele>
        <time>2020-05-31T13:48:34Z</time>
      </trkpt>
      <trkpt lat="46.28571" lon="-0.69385">
        <ele>9.7</ele>
        <time>2020-05-31T13:48:35Z</time>
      </trkpt>
      <trkpt lat="46.28567" lon="-0.69392">
        <ele>9.6</ele>
        <time>2020-05-31T13:48:36Z</time>
      </trkpt>
      <trkpt lat="46.28564" lon="-0.694">
        <ele>9.6</ele>
        <time>2020-05-31T13:48:37Z</time>
      </trkpt>
      <trkpt lat="46.28559" lon="-0.69407">
        <ele>9.5</ele>
        <time>2020-05-31T13:48:38Z</time>
      </trkpt>
      <trkpt lat="46.28555" lon="-0.69416">
        <ele>9.5</ele>
        <time>2020-05-31T13:48:39Z</time>
      </trkpt>
      <trkpt lat="46.2855" lon="-0.69426">
        <ele>9.4</ele>
        <time>2020-05-31T13:48:40Z</time>
      </trkpt>
      <trkpt lat="46.28544" lon="-0.69436">
        <ele>9.3</ele>
        <time>2020-05-31T13:48:41Z</time>
      </trkpt>
      <trkpt lat="46.2854" lon="-0.69448">
        <ele>9.2</ele>
        <time>2020-05-31T13:48:42Z</time>
      </trkpt>
      <trkpt lat="46.28529" lon="-0.69456">
        <ele>9.1</ele>
        <time>2020-05-31T13:48:43Z</time>
      </trkpt>
      <trkpt lat="46.28522" lon="-0.69468">
        <ele>9</ele>
        <time>2020-05-31T13:48:44Z</time>
      </trkpt>
      <trkpt lat="46.28518" lon="-0.69481">
        <ele>9</ele>
        <time>2020-05-31T13:48:45Z</time>
      </trkpt>
      <trkpt lat="46.28513" lon="-0.69494">
        <ele>9</ele>
        <time>2020-05-31T13:48:46Z</time>
      </trkpt>
      <trkpt lat="46.28509" lon="-0.69508">
        <ele>8.9</ele>
        <time>2020-05-31T13:48:47Z</time>
      </trkpt>
      <trkpt lat="46.28506" lon="-0.69522">
        <ele>8.9</ele>
        <time>2020-05-31T13:48:48Z</time>
      </trkpt>
      <trkpt lat="46.28503" lon="-0.69536">
        <ele>8.9</ele>
        <time>2020-05-31T13:48:49Z</time>
      </trkpt>
      <trkpt lat="46.28501" lon="-0.69551">
        <ele>8.9</ele>
        <time>2020-05-31T13:48:50Z</time>
      </trkpt>
      <trkpt lat="46.28498" lon="-0.69565">
        <ele>8.9</ele>
        <time>2020-05-31T13:48:51Z</time>
      </trkpt>
      <trkpt lat="46.28495" lon="-0.69579">
        <ele>8.9</ele>
        <time>2020-05-31T13:48:52Z</time>
      </trkpt>
      <trkpt lat="46.28492" lon="-0.69594">
        <ele>8.9</ele>
        <time>2020-05-31T13:48:53Z</time>
      </trkpt>
      <trkpt lat="46.28489" lon="-0.69608">
        <ele>8.8</ele>
        <time>2020-05-31T13:48:54Z</time>
      </trkpt>
      <trkpt lat="46.28487" lon="-0.69623">
        <ele>8.8</ele>
        <time>2020-05-31T13:48:55Z</time>
      </trkpt>
      <trkpt lat="46.28485" lon="-0.69637">
        <ele>8.8</ele>
        <time>2020-05-31T13:48:56Z</time>
      </trkpt>
      <trkpt lat="46.28482" lon="-0.6965">
        <ele>8.8</ele>
        <time>2020-05-31T13:48:57Z</time>
      </trkpt>
      <trkpt lat="46.2848" lon="-0.69664">
        <ele>8.8</ele>
        <time>2020-05-31T13:48:58Z</time>
      </trkpt>
      <trkpt lat="46.28478" lon="-0.69677">
        <ele>8.8</ele>
        <time>2020-05-31T13:48:59Z</time>
      </trkpt>
      <trkpt lat="46.28476" lon="-0.6969">
        <ele>8.9</ele>
        <time>2020-05-31T13:49:00Z</time>
      </trkpt>
      <trkpt lat="46.28474" lon="-0.69703">
        <ele>8.9</ele>
        <time>2020-05-31T13:49:01Z</time>
      </trkpt>
      <trkpt lat="46.28472" lon="-0.69716">
        <ele>9</ele>
        <time>2020-05-31T13:49:02Z</time>
      </trkpt>
      <trkpt lat="46.2847" lon="-0.69729">
        <ele>9</ele>
        <time>2020-05-31T13:49:03Z</time>
      </trkpt>
      <trkpt lat="46.28469" lon="-0.69741">
        <ele>9.1</ele>
        <time>2020-05-31T13:49:04Z</time>
      </trkpt>
      <trkpt lat="46.28467" lon="-0.69754">
        <ele>9.2</ele>
        <time>2020-05-31T13:49:05Z</time>
      </trkpt>
      <trkpt lat="46.28465" lon="-0.69765">
        <ele>9.3</ele>
        <time>2020-05-31T13:49:06Z</time>
      </trkpt>
      <trkpt lat="46.28463" lon="-0.69777">
        <ele>9.4</ele>
        <time>2020-05-31T13:49:07Z</time>
      </trkpt>
      <trkpt lat="46.28461" lon="-0.69788">
        <ele>9.5</ele>
        <time>2020-05-31T13:49:08Z</time>
      </trkpt>
      <trkpt lat="46.28459" lon="-0.69799">
        <ele>9.6</ele>
        <time>2020-05-31T13:49:09Z</time>
      </trkpt>
      <trkpt lat="46.28456" lon="-0.6981">
        <ele>9.7</ele>
        <time>2020-05-31T13:49:10Z</time>
      </trkpt>
      <trkpt lat="46.28454" lon="-0.6982">
        <ele>9.7</ele>
        <time>2020-05-31T13:49:11Z</time>
      </trkpt>
      <trkpt lat="46.28451" lon="-0.6983">
        <ele>9.8</ele>
        <time>2020-05-31T13:49:12Z</time>
      </trkpt>
      <trkpt lat="46.28448" lon="-0.69839">
        <ele>9.8</ele>
        <time>2020-05-31T13:49:13Z</time>
      </trkpt>
      <trkpt lat="46.28446" lon="-0.69848">
        <ele>9.9</ele>
        <time>2020-05-31T13:49:14Z</time>
      </trkpt>
      <trkpt lat="46.28443" lon="-0.69857">
        <ele>9.9</ele>
        <time>2020-05-31T13:49:15Z</time>
      </trkpt>
      <trkpt lat="46.2844" lon="-0.69865">
        <ele>10</ele>
        <time>2020-05-31T13:49:16Z</time>
      </trkpt>
      <trkpt lat="46.28438" lon="-0.69873">
        <ele>10</ele>
        <time>2020-05-31T13:49:17Z</time>
      </trkpt>
      <trkpt lat="46.28436" lon="-0.69881">
        <ele>10.1</ele>
        <time>2020-05-31T13:49:18Z</time>
      </trkpt>
      <trkpt lat="46.28433" lon="-0.69889">
        <ele>10.2</ele>
        <time>2020-05-31T13:49:19Z</time>
      </trkpt>
      <trkpt lat="46.2843" lon="-0.69897">
        <ele>10.4</ele>
        <time>2020-05-31T13:49:20Z</time>
      </trkpt>
      <trkpt lat="46.28427" lon="-0.69903">
        <ele>10.5</ele>
        <time>2020-05-31T13:49:21Z</time>
      </trkpt>
      <trkpt lat="46.28425" lon="-0.69911">
        <ele>10.6</ele>
        <time>2020-05-31T13:49:22Z</time>
      </trkpt>
      <trkpt lat="46.28421" lon="-0.69915">
        <ele>10.7</ele>
        <time>2020-05-31T13:49:23Z</time>
      </trkpt>
      <trkpt lat="46.28417" lon="-0.6992">
        <ele>10.9</ele>
        <time>2020-05-31T13:49:24Z</time>
      </trkpt>
      <trkpt lat="46.28415" lon="-0.69926">
        <ele>11</ele>
        <time>2020-05-31T13:49:25Z</time>
      </trkpt>
      <trkpt lat="46.28412" lon="-0.69931">
        <ele>11.1</ele>
        <time>2020-05-31T13:49:26Z</time>
      </trkpt>
      <trkpt lat="46.28408" lon="-0.69934">
        <ele>11.2</ele>
        <time>2020-05-31T13:49:27Z</time>
      </trkpt>
      <trkpt lat="46.28406" lon="-0.69941">
        <ele>11.3</ele>
        <time>2020-05-31T13:49:28Z</time>
      </trkpt>
      <trkpt lat="46.28402" lon="-0.69945">
        <ele>11.4</ele>
        <time>2020-05-31T13:49:29Z</time>
      </trkpt>
      <trkpt lat="46.28398" lon="-0.69948">
        <ele>11.5</ele>
        <time>2020-05-31T13:49:30Z</time>
      </trkpt>
      <trkpt lat="46.28395" lon="-0.69953">
        <ele>11.7</ele>
        <time>2020-05-31T13:49:31Z</time>
      </trkpt>
      <trkpt lat="46.28392" lon="-0.69957">
        <ele>11.8</ele>
        <time>2020-05-31T13:49:32Z</time>
      </trkpt>
      <trkpt lat="46.28388" lon="-0.69962">
        <ele>11.9</ele>
        <time>2020-05-31T13:49:33Z</time>
      </trkpt>
      <trkpt lat="46.28384" lon="-0.69965">
        <ele>12.1</ele>
        <time>2020-05-31T13:49:34Z</time>
      </trkpt>
      <trkpt lat="46.28381" lon="-0.6997">
        <ele>12.2</ele>
        <time>2020-05-31T13:49:35Z</time>
      </trkpt>
      <trkpt lat="46.28377" lon="-0.69973">
        <ele>12.4</ele>
        <time>2020-05-31T13:49:36Z</time>
      </trkpt>
      <trkpt lat="46.28374" lon="-0.69976">
        <ele>12.5</ele>
        <time>2020-05-31T13:49:37Z</time>
      </trkpt>
      <trkpt lat="46.2837" lon="-0.69979">
        <ele>12.7</ele>
        <time>2020-05-31T13:49:38Z</time>
      </trkpt>
      <trkpt lat="46.28367" lon="-0.69983">
        <ele>12.8</ele>
        <time>2020-05-31T13:49:39Z</time>
      </trkpt>
      <trkpt lat="46.28362" lon="-0.69985">
        <ele>12.9</ele>
        <time>2020-05-31T13:49:40Z</time>
      </trkpt>
      <trkpt lat="46.28358" lon="-0.69988">
        <ele>13</ele>
        <time>2020-05-31T13:49:41Z</time>
      </trkpt>
      <trkpt lat="46.28354" lon="-0.69991">
        <ele>13.1</ele>
        <time>2020-05-31T13:49:42Z</time>
      </trkpt>
      <trkpt lat="46.2835" lon="-0.69992">
        <ele>13.2</ele>
        <time>2020-05-31T13:49:43Z</time>
      </trkpt>
      <trkpt lat="46.28345" lon="-0.69994">
        <ele>13.2</ele>
        <time>2020-05-31T13:49:44Z</time>
      </trkpt>
      <trkpt lat="46.28341" lon="-0.69998">
        <ele>13.3</ele>
        <time>2020-05-31T13:49:45Z</time>
      </trkpt>
      <trkpt lat="46.28337" lon="-0.70001">
        <ele>13.3</ele>
        <time>2020-05-31T13:49:46Z</time>
      </trkpt>
      <trkpt lat="46.28333" lon="-0.70004">
        <ele>13.3</ele>
        <time>2020-05-31T13:49:47Z</time>
      </trkpt>
      <trkpt lat="46.28328" lon="-0.70006">
        <ele>13.4</ele>
        <time>2020-05-31T13:49:48Z</time>
      </trkpt>
      <trkpt lat="46.28323" lon="-0.70008">
        <ele>13.4</ele>
        <time>2020-05-31T13:49:49Z</time>
      </trkpt>
      <trkpt lat="46.28318" lon="-0.7001">
        <ele>13.4</ele>
        <time>2020-05-31T13:49:50Z</time>
      </trkpt>
      <trkpt lat="46.28314" lon="-0.70013">
        <ele>13.4</ele>
        <time>2020-05-31T13:49:51Z</time>
      </trkpt>
      <trkpt lat="46.2831" lon="-0.70015">
        <ele>13.3</ele>
        <time>2020-05-31T13:49:52Z</time>
      </trkpt>
      <trkpt lat="46.28306" lon="-0.70018">
        <ele>13.3</ele>
        <time>2020-05-31T13:49:53Z</time>
      </trkpt>
      <trkpt lat="46.28301" lon="-0.7002">
        <ele>13.2</ele>
        <time>2020-05-31T13:49:54Z</time>
      </trkpt>
      <trkpt lat="46.28297" lon="-0.70023">
        <ele>13.2</ele>
        <time>2020-05-31T13:49:55Z</time>
      </trkpt>
      <trkpt lat="46.28292" lon="-0.70025">
        <ele>13.1</ele>
        <time>2020-05-31T13:49:56Z</time>
      </trkpt>
      <trkpt lat="46.28288" lon="-0.70027">
        <ele>13</ele>
        <time>2020-05-31T13:49:57Z</time>
      </trkpt>
      <trkpt lat="46.28283" lon="-0.70028">
        <ele>12.9</ele>
        <time>2020-05-31T13:49:58Z</time>
      </trkpt>
      <trkpt lat="46.28278" lon="-0.70031">
        <ele>12.8</ele>
        <time>2020-05-31T13:49:59Z</time>
      </trkpt>
      <trkpt lat="46.28274" lon="-0.70032">
        <ele>12.7</ele>
        <time>2020-05-31T13:50:00Z</time>
      </trkpt>
      <trkpt lat="46.28269" lon="-0.70035">
        <ele>12.6</ele>
        <time>2020-05-31T13:50:01Z</time>
      </trkpt>
      <trkpt lat="46.28265" lon="-0.70038">
        <ele>12.5</ele>
        <time>2020-05-31T13:50:02Z</time>
      </trkpt>
      <trkpt lat="46.2826" lon="-0.7004">
        <ele>12.4</ele>
        <time>2020-05-31T13:50:03Z</time>
      </trkpt>
      <trkpt lat="46.28255" lon="-0.70041">
        <ele>12.3</ele>
        <time>2020-05-31T13:50:04Z</time>
      </trkpt>
      <trkpt lat="46.2825" lon="-0.70044">
        <ele>12.1</ele>
        <time>2020-05-31T13:50:05Z</time>
      </trkpt>
      <trkpt lat="46.28245" lon="-0.70045">
        <ele>12</ele>
        <time>2020-05-31T13:50:06Z</time>
      </trkpt>
      <trkpt lat="46.28239" lon="-0.70048">
        <ele>11.8</ele>
        <time>2020-05-31T13:50:07Z</time>
      </trkpt>
      <trkpt lat="46.28234" lon="-0.70052">
        <ele>11.7</ele>
        <time>2020-05-31T13:50:08Z</time>
      </trkpt>
      <trkpt lat="46.28228" lon="-0.70056">
        <ele>11.5</ele>
        <time>2020-05-31T13:50:09Z</time>
      </trkpt>
      <trkpt lat="46.28223" lon="-0.7006">
        <ele>11.4</ele>
        <time>2020-05-31T13:50:10Z</time>
      </trkpt>
      <trkpt lat="46.28217" lon="-0.70063">
        <ele>11.3</ele>
        <time>2020-05-31T13:50:11Z</time>
      </trkpt>
      <trkpt lat="46.28211" lon="-0.70066">
        <ele>11.2</ele>
        <time>2020-05-31T13:50:12Z</time>
      </trkpt>
      <trkpt lat="46.28205" lon="-0.70068">
        <ele>11.1</ele>
        <time>2020-05-31T13:50:13Z</time>
      </trkpt>
      <trkpt lat="46.28199" lon="-0.70071">
        <ele>11</ele>
        <time>2020-05-31T13:50:14Z</time>
      </trkpt>
      <trkpt lat="46.28193" lon="-0.70073">
        <ele>11</ele>
        <time>2020-05-31T13:50:15Z</time>
      </trkpt>
      <trkpt lat="46.28186" lon="-0.70075">
        <ele>11</ele>
        <time>2020-05-31T13:50:16Z</time>
      </trkpt>
      <trkpt lat="46.28179" lon="-0.70078">
        <ele>10.9</ele>
        <time>2020-05-31T13:50:17Z</time>
      </trkpt>
      <trkpt lat="46.28173" lon="-0.7008">
        <ele>10.9</ele>
        <time>2020-05-31T13:50:18Z</time>
      </trkpt>
      <trkpt lat="46.28166" lon="-0.70084">
        <ele>10.9</ele>
        <time>2020-05-31T13:50:19Z</time>
      </trkpt>
      <trkpt lat="46.2816" lon="-0.70087">
        <ele>10.9</ele>
        <time>2020-05-31T13:50:20Z</time>
      </trkpt>
      <trkpt lat="46.28154" lon="-0.70089">
        <ele>10.9</ele>
        <time>2020-05-31T13:50:21Z</time>
      </trkpt>
      <trkpt lat="46.28148" lon="-0.70091">
        <ele>10.9</ele>
        <time>2020-05-31T13:50:22Z</time>
      </trkpt>
      <trkpt lat="46.28142" lon="-0.70093">
        <ele>10.9</ele>
        <time>2020-05-31T13:50:23Z</time>
      </trkpt>
      <trkpt lat="46.28136" lon="-0.70095">
        <ele>10.9</ele>
        <time>2020-05-31T13:50:24Z</time>
      </trkpt>
      <trkpt lat="46.2813" lon="-0.70097">
        <ele>10.9</ele>
        <time>2020-05-31T13:50:25Z</time>
      </trkpt>
      <trkpt lat="46.28124" lon="-0.70098">
        <ele>10.9</ele>
        <time>2020-05-31T13:50:26Z</time>
      </trkpt>
      <trkpt lat="46.28118" lon="-0.701">
        <ele>10.9</ele>
        <time>2020-05-31T13:50:27Z</time>
      </trkpt>
      <trkpt lat="46.28113" lon="-0.70101">
        <ele>10.9</ele>
        <time>2020-05-31T13:50:28Z</time>
      </trkpt>
      <trkpt lat="46.28108" lon="-0.70102">
        <ele>10.9</ele>
        <time>2020-05-31T13:50:29Z</time>
      </trkpt>
      <trkpt lat="46.28103" lon="-0.70104">
        <ele>10.9</ele>
        <time>2020-05-31T13:50:30Z</time>
      </trkpt>
      <trkpt lat="46.28098" lon="-0.70107">
        <ele>10.9</ele>
        <time>2020-05-31T13:50:31Z</time>
      </trkpt>
      <trkpt lat="46.28093" lon="-0.7011">
        <ele>10.9</ele>
        <time>2020-05-31T13:50:32Z</time>
      </trkpt>
      <trkpt lat="46.28088" lon="-0.70112">
        <ele>10.9</ele>
        <time>2020-05-31T13:50:33Z</time>
      </trkpt>
      <trkpt lat="46.28084" lon="-0.70114">
        <ele>10.9</ele>
        <time>2020-05-31T13:50:34Z</time>
      </trkpt>
      <trkpt lat="46.28079" lon="-0.70117">
        <ele>10.9</ele>
        <time>2020-05-31T13:50:35Z</time>
      </trkpt>
      <trkpt lat="46.28074" lon="-0.70119">
        <ele>10.9</ele>
        <time>2020-05-31T13:50:36Z</time>
      </trkpt>
      <trkpt lat="46.28069" lon="-0.70121">
        <ele>10.9</ele>
        <time>2020-05-31T13:50:37Z</time>
      </trkpt>
      <trkpt lat="46.28064" lon="-0.70124">
        <ele>10.9</ele>
        <time>2020-05-31T13:50:38Z</time>
      </trkpt>
      <trkpt lat="46.28059" lon="-0.70127">
        <ele>10.9</ele>
        <time>2020-05-31T13:50:39Z</time>
      </trkpt>
      <trkpt lat="46.28054" lon="-0.70129">
        <ele>10.9</ele>
        <time>2020-05-31T13:50:40Z</time>
      </trkpt>
      <trkpt lat="46.2805" lon="-0.70136">
        <ele>10.9</ele>
        <time>2020-05-31T13:50:41Z</time>
      </trkpt>
      <trkpt lat="46.28046" lon="-0.7014">
        <ele>10.9</ele>
        <time>2020-05-31T13:50:42Z</time>
      </trkpt>
      <trkpt lat="46.28041" lon="-0.70142">
        <ele>10.9</ele>
        <time>2020-05-31T13:50:43Z</time>
      </trkpt>
      <trkpt lat="46.28036" lon="-0.70144">
        <ele>10.9</ele>
        <time>2020-05-31T13:50:44Z</time>
      </trkpt>
      <trkpt lat="46.28032" lon="-0.70146">
        <ele>10.9</ele>
        <time>2020-05-31T13:50:45Z</time>
      </trkpt>
      <trkpt lat="46.28027" lon="-0.70148">
        <ele>11</ele>
        <time>2020-05-31T13:50:46Z</time>
      </trkpt>
      <trkpt lat="46.28022" lon="-0.70152">
        <ele>11</ele>
        <time>2020-05-31T13:50:47Z</time>
      </trkpt>
      <trkpt lat="46.28017" lon="-0.70154">
        <ele>11</ele>
        <time>2020-05-31T13:50:48Z</time>
      </trkpt>
      <trkpt lat="46.28012" lon="-0.70157">
        <ele>11</ele>
        <time>2020-05-31T13:50:49Z</time>
      </trkpt>
      <trkpt lat="46.28006" lon="-0.7016">
        <ele>11.1</ele>
        <time>2020-05-31T13:50:50Z</time>
      </trkpt>
      <trkpt lat="46.28" lon="-0.70163">
        <ele>11.1</ele>
        <time>2020-05-31T13:50:51Z</time>
      </trkpt>
      <trkpt lat="46.27995" lon="-0.70166">
        <ele>11.1</ele>
        <time>2020-05-31T13:50:52Z</time>
      </trkpt>
      <trkpt lat="46.27989" lon="-0.70169">
        <ele>11.2</ele>
        <time>2020-05-31T13:50:53Z</time>
      </trkpt>
      <trkpt lat="46.27983" lon="-0.70172">
        <ele>11.2</ele>
        <time>2020-05-31T13:50:54Z</time>
      </trkpt>
      <trkpt lat="46.27978" lon="-0.70175">
        <ele>11.3</ele>
        <time>2020-05-31T13:50:55Z</time>
      </trkpt>
      <trkpt lat="46.27972" lon="-0.70178">
        <ele>11.3</ele>
        <time>2020-05-31T13:50:56Z</time>
      </trkpt>
      <trkpt lat="46.27966" lon="-0.70182">
        <ele>11.4</ele>
        <time>2020-05-31T13:50:57Z</time>
      </trkpt>
      <trkpt lat="46.2796" lon="-0.70185">
        <ele>11.4</ele>
        <time>2020-05-31T13:50:58Z</time>
      </trkpt>
      <trkpt lat="46.27954" lon="-0.70188">
        <ele>11.4</ele>
        <time>2020-05-31T13:50:59Z</time>
      </trkpt>
      <trkpt lat="46.27948" lon="-0.70191">
        <ele>11.5</ele>
        <time>2020-05-31T13:51:00Z</time>
      </trkpt>
      <trkpt lat="46.27942" lon="-0.70193">
        <ele>11.5</ele>
        <time>2020-05-31T13:51:01Z</time>
      </trkpt>
      <trkpt lat="46.27936" lon="-0.70196">
        <ele>11.6</ele>
        <time>2020-05-31T13:51:02Z</time>
      </trkpt>
      <trkpt lat="46.27929" lon="-0.70199">
        <ele>11.6</ele>
        <time>2020-05-31T13:51:03Z</time>
      </trkpt>
      <trkpt lat="46.27922" lon="-0.70202">
        <ele>11.6</ele>
        <time>2020-05-31T13:51:04Z</time>
      </trkpt>
      <trkpt lat="46.27915" lon="-0.70206">
        <ele>11.7</ele>
        <time>2020-05-31T13:51:05Z</time>
      </trkpt>
      <trkpt lat="46.27907" lon="-0.7021">
        <ele>11.7</ele>
        <time>2020-05-31T13:51:06Z</time>
      </trkpt>
      <trkpt lat="46.279" lon="-0.70214">
        <ele>11.7</ele>
        <time>2020-05-31T13:51:07Z</time>
      </trkpt>
      <trkpt lat="46.27892" lon="-0.70217">
        <ele>11.7</ele>
        <time>2020-05-31T13:51:08Z</time>
      </trkpt>
      <trkpt lat="46.27885" lon="-0.7022">
        <ele>11.7</ele>
        <time>2020-05-31T13:51:09Z</time>
      </trkpt>
      <trkpt lat="46.27877" lon="-0.70223">
        <ele>11.8</ele>
        <time>2020-05-31T13:51:10Z</time>
      </trkpt>
      <trkpt lat="46.27871" lon="-0.70226">
        <ele>11.8</ele>
        <time>2020-05-31T13:51:11Z</time>
      </trkpt>
      <trkpt lat="46.27864" lon="-0.70229">
        <ele>11.8</ele>
        <time>2020-05-31T13:51:12Z</time>
      </trkpt>
      <trkpt lat="46.27857" lon="-0.70232">
        <ele>11.8</ele>
        <time>2020-05-31T13:51:13Z</time>
      </trkpt>
      <trkpt lat="46.27851" lon="-0.70236">
        <ele>11.8</ele>
        <time>2020-05-31T13:51:14Z</time>
      </trkpt>
      <trkpt lat="46.27844" lon="-0.7024">
        <ele>11.8</ele>
        <time>2020-05-31T13:51:15Z</time>
      </trkpt>
      <trkpt lat="46.27838" lon="-0.70243">
        <ele>11.9</ele>
        <time>2020-05-31T13:51:16Z</time>
      </trkpt>
      <trkpt lat="46.27831" lon="-0.70246">
        <ele>11.9</ele>
        <time>2020-05-31T13:51:17Z</time>
      </trkpt>
      <trkpt lat="46.27825" lon="-0.70249">
        <ele>11.9</ele>
        <time>2020-05-31T13:51:18Z</time>
      </trkpt>
      <trkpt lat="46.27819" lon="-0.70252">
        <ele>11.9</ele>
        <time>2020-05-31T13:51:19Z</time>
      </trkpt>
      <trkpt lat="46.27813" lon="-0.70255">
        <ele>11.9</ele>
        <time>2020-05-31T13:51:20Z</time>
      </trkpt>
      <trkpt lat="46.27807" lon="-0.70258">
        <ele>11.9</ele>
        <time>2020-05-31T13:51:21Z</time>
      </trkpt>
      <trkpt lat="46.27801" lon="-0.70262">
        <ele>11.9</ele>
        <time>2020-05-31T13:51:22Z</time>
      </trkpt>
      <trkpt lat="46.27796" lon="-0.70265">
        <ele>11.9</ele>
        <time>2020-05-31T13:51:23Z</time>
      </trkpt>
      <trkpt lat="46.2779" lon="-0.70268">
        <ele>11.8</ele>
        <time>2020-05-31T13:51:24Z</time>
      </trkpt>
      <trkpt lat="46.27784" lon="-0.70271">
        <ele>11.7</ele>
        <time>2020-05-31T13:51:25Z</time>
      </trkpt>
      <trkpt lat="46.27778" lon="-0.70274">
        <ele>11.6</ele>
        <time>2020-05-31T13:51:26Z</time>
      </trkpt>
      <trkpt lat="46.27772" lon="-0.70277">
        <ele>11.6</ele>
        <time>2020-05-31T13:51:27Z</time>
      </trkpt>
      <trkpt lat="46.27766" lon="-0.7028">
        <ele>11.5</ele>
        <time>2020-05-31T13:51:28Z</time>
      </trkpt>
      <trkpt lat="46.27759" lon="-0.70281">
        <ele>11.4</ele>
        <time>2020-05-31T13:51:29Z</time>
      </trkpt>
      <trkpt lat="46.27753" lon="-0.70283">
        <ele>11.3</ele>
        <time>2020-05-31T13:51:30Z</time>
      </trkpt>
      <trkpt lat="46.27747" lon="-0.70286">
        <ele>11.2</ele>
        <time>2020-05-31T13:51:31Z</time>
      </trkpt>
      <trkpt lat="46.2774" lon="-0.70289">
        <ele>11.1</ele>
        <time>2020-05-31T13:51:32Z</time>
      </trkpt>
      <trkpt lat="46.27734" lon="-0.70292">
        <ele>11.1</ele>
        <time>2020-05-31T13:51:33Z</time>
      </trkpt>
      <trkpt lat="46.27727" lon="-0.70294">
        <ele>11.1</ele>
        <time>2020-05-31T13:51:34Z</time>
      </trkpt>
      <trkpt lat="46.27721" lon="-0.70297">
        <ele>11</ele>
        <time>2020-05-31T13:51:35Z</time>
      </trkpt>
      <trkpt lat="46.27714" lon="-0.703">
        <ele>11</ele>
        <time>2020-05-31T13:51:36Z</time>
      </trkpt>
      <trkpt lat="46.27707" lon="-0.70303">
        <ele>11</ele>
        <time>2020-05-31T13:51:37Z</time>
      </trkpt>
      <trkpt lat="46.27701" lon="-0.70307">
        <ele>10.9</ele>
        <time>2020-05-31T13:51:38Z</time>
      </trkpt>
      <trkpt lat="46.27694" lon="-0.70309">
        <ele>10.9</ele>
        <time>2020-05-31T13:51:39Z</time>
      </trkpt>
      <trkpt lat="46.27687" lon="-0.70312">
        <ele>10.9</ele>
        <time>2020-05-31T13:51:40Z</time>
      </trkpt>
      <trkpt lat="46.27681" lon="-0.70315">
        <ele>10.8</ele>
        <time>2020-05-31T13:51:41Z</time>
      </trkpt>
      <trkpt lat="46.27674" lon="-0.70318">
        <ele>10.8</ele>
        <time>2020-05-31T13:51:42Z</time>
      </trkpt>
      <trkpt lat="46.27668" lon="-0.70321">
        <ele>10.8</ele>
        <time>2020-05-31T13:51:43Z</time>
      </trkpt>
      <trkpt lat="46.27661" lon="-0.70325">
        <ele>10.8</ele>
        <time>2020-05-31T13:51:44Z</time>
      </trkpt>
      <trkpt lat="46.27654" lon="-0.70328">
        <ele>10.8</ele>
        <time>2020-05-31T13:51:45Z</time>
      </trkpt>
      <trkpt lat="46.27648" lon="-0.70331">
        <ele>10.8</ele>
        <time>2020-05-31T13:51:46Z</time>
      </trkpt>
      <trkpt lat="46.27642" lon="-0.70335">
        <ele>10.8</ele>
        <time>2020-05-31T13:51:47Z</time>
      </trkpt>
      <trkpt lat="46.27635" lon="-0.70337">
        <ele>10.8</ele>
        <time>2020-05-31T13:51:48Z</time>
      </trkpt>
      <trkpt lat="46.27629" lon="-0.7034">
        <ele>10.8</ele>
        <time>2020-05-31T13:51:49Z</time>
      </trkpt>
      <trkpt lat="46.27622" lon="-0.70343">
        <ele>10.8</ele>
        <time>2020-05-31T13:51:50Z</time>
      </trkpt>
      <trkpt lat="46.27616" lon="-0.70346">
        <ele>10.8</ele>
        <time>2020-05-31T13:51:51Z</time>
      </trkpt>
      <trkpt lat="46.2761" lon="-0.70348">
        <ele>10.9</ele>
        <time>2020-05-31T13:51:52Z</time>
      </trkpt>
      <trkpt lat="46.27604" lon="-0.70351">
        <ele>10.9</ele>
        <time>2020-05-31T13:51:53Z</time>
      </trkpt>
      <trkpt lat="46.27598" lon="-0.70354">
        <ele>10.9</ele>
        <time>2020-05-31T13:51:54Z</time>
      </trkpt>
      <trkpt lat="46.27591" lon="-0.70357">
        <ele>10.9</ele>
        <time>2020-05-31T13:51:55Z</time>
      </trkpt>
      <trkpt lat="46.27585" lon="-0.7036">
        <ele>10.9</ele>
        <time>2020-05-31T13:51:56Z</time>
      </trkpt>
      <trkpt lat="46.27579" lon="-0.70363">
        <ele>10.9</ele>
        <time>2020-05-31T13:51:57Z</time>
      </trkpt>
      <trkpt lat="46.27573" lon="-0.70366">
        <ele>10.9</ele>
        <time>2020-05-31T13:51:58Z</time>
      </trkpt>
      <trkpt lat="46.27567" lon="-0.70369">
        <ele>10.9</ele>
        <time>2020-05-31T13:51:59Z</time>
      </trkpt>
      <trkpt lat="46.2756" lon="-0.70371">
        <ele>10.9</ele>
        <time>2020-05-31T13:52:00Z</time>
      </trkpt>
      <trkpt lat="46.27554" lon="-0.70375">
        <ele>10.9</ele>
        <time>2020-05-31T13:52:01Z</time>
      </trkpt>
      <trkpt lat="46.27548" lon="-0.70379">
        <ele>10.9</ele>
        <time>2020-05-31T13:52:02Z</time>
      </trkpt>
      <trkpt lat="46.27542" lon="-0.70383">
        <ele>10.9</ele>
        <time>2020-05-31T13:52:03Z</time>
      </trkpt>
      <trkpt lat="46.27536" lon="-0.70387">
        <ele>10.9</ele>
        <time>2020-05-31T13:52:04Z</time>
      </trkpt>
      <trkpt lat="46.2753" lon="-0.70391">
        <ele>10.9</ele>
        <time>2020-05-31T13:52:05Z</time>
      </trkpt>
      <trkpt lat="46.27524" lon="-0.70395">
        <ele>10.9</ele>
        <time>2020-05-31T13:52:06Z</time>
      </trkpt>
      <trkpt lat="46.27519" lon="-0.704">
        <ele>10.9</ele>
        <time>2020-05-31T13:52:07Z</time>
      </trkpt>
      <trkpt lat="46.27513" lon="-0.70405">
        <ele>10.9</ele>
        <time>2020-05-31T13:52:08Z</time>
      </trkpt>
      <trkpt lat="46.27508" lon="-0.7041">
        <ele>10.9</ele>
        <time>2020-05-31T13:52:09Z</time>
      </trkpt>
      <trkpt lat="46.27502" lon="-0.70415">
        <ele>10.9</ele>
        <time>2020-05-31T13:52:10Z</time>
      </trkpt>
      <trkpt lat="46.27496" lon="-0.7042">
        <ele>10.9</ele>
        <time>2020-05-31T13:52:11Z</time>
      </trkpt>
      <trkpt lat="46.27491" lon="-0.70425">
        <ele>10.9</ele>
        <time>2020-05-31T13:52:12Z</time>
      </trkpt>
      <trkpt lat="46.27486" lon="-0.7043">
        <ele>10.9</ele>
        <time>2020-05-31T13:52:13Z</time>
      </trkpt>
      <trkpt lat="46.2748" lon="-0.70435">
        <ele>10.9</ele>
        <time>2020-05-31T13:52:14Z</time>
      </trkpt>
      <trkpt lat="46.27475" lon="-0.7044">
        <ele>10.9</ele>
        <time>2020-05-31T13:52:15Z</time>
      </trkpt>
      <trkpt lat="46.27469" lon="-0.70445">
        <ele>10.9</ele>
        <time>2020-05-31T13:52:16Z</time>
      </trkpt>
      <trkpt lat="46.27464" lon="-0.7045">
        <ele>10.9</ele>
        <time>2020-05-31T13:52:17Z</time>
      </trkpt>
      <trkpt lat="46.27459" lon="-0.70456">
        <ele>10.9</ele>
        <time>2020-05-31T13:52:18Z</time>
      </trkpt>
      <trkpt lat="46.27453" lon="-0.70461">
        <ele>10.9</ele>
        <time>2020-05-31T13:52:19Z</time>
      </trkpt>
      <trkpt lat="46.27448" lon="-0.70468">
        <ele>10.9</ele>
        <time>2020-05-31T13:52:20Z</time>
      </trkpt>
      <trkpt lat="46.27443" lon="-0.70473">
        <ele>10.8</ele>
        <time>2020-05-31T13:52:21Z</time>
      </trkpt>
      <trkpt lat="46.27437" lon="-0.70479">
        <ele>10.8</ele>
        <time>2020-05-31T13:52:22Z</time>
      </trkpt>
      <trkpt lat="46.27432" lon="-0.70485">
        <ele>10.7</ele>
        <time>2020-05-31T13:52:23Z</time>
      </trkpt>
      <trkpt lat="46.27426" lon="-0.70491">
        <ele>10.7</ele>
        <time>2020-05-31T13:52:24Z</time>
      </trkpt>
      <trkpt lat="46.27421" lon="-0.70498">
        <ele>10.7</ele>
        <time>2020-05-31T13:52:25Z</time>
      </trkpt>
      <trkpt lat="46.27415" lon="-0.70504">
        <ele>10.7</ele>
        <time>2020-05-31T13:52:26Z</time>
      </trkpt>
      <trkpt lat="46.2741" lon="-0.7051">
        <ele>10.7</ele>
        <time>2020-05-31T13:52:27Z</time>
      </trkpt>
      <trkpt lat="46.27405" lon="-0.70516">
        <ele>10.7</ele>
        <time>2020-05-31T13:52:28Z</time>
      </trkpt>
      <trkpt lat="46.27399" lon="-0.70522">
        <ele>10.7</ele>
        <time>2020-05-31T13:52:29Z</time>
      </trkpt>
      <trkpt lat="46.27394" lon="-0.70528">
        <ele>10.7</ele>
        <time>2020-05-31T13:52:30Z</time>
      </trkpt>
      <trkpt lat="46.2739" lon="-0.70535">
        <ele>10.6</ele>
        <time>2020-05-31T13:52:31Z</time>
      </trkpt>
      <trkpt lat="46.27384" lon="-0.7054">
        <ele>10.6</ele>
        <time>2020-05-31T13:52:32Z</time>
      </trkpt>
      <trkpt lat="46.27379" lon="-0.70545">
        <ele>10.6</ele>
        <time>2020-05-31T13:52:33Z</time>
      </trkpt>
      <trkpt lat="46.27375" lon="-0.70552">
        <ele>10.6</ele>
        <time>2020-05-31T13:52:34Z</time>
      </trkpt>
      <trkpt lat="46.2737" lon="-0.70559">
        <ele>10.5</ele>
        <time>2020-05-31T13:52:35Z</time>
      </trkpt>
      <trkpt lat="46.27365" lon="-0.70564">
        <ele>10.5</ele>
        <time>2020-05-31T13:52:36Z</time>
      </trkpt>
      <trkpt lat="46.2736" lon="-0.70568">
        <ele>10.5</ele>
        <time>2020-05-31T13:52:37Z</time>
      </trkpt>
      <trkpt lat="46.27355" lon="-0.70573">
        <ele>10.5</ele>
        <time>2020-05-31T13:52:38Z</time>
      </trkpt>
      <trkpt lat="46.2735" lon="-0.70578">
        <ele>10.5</ele>
        <time>2020-05-31T13:52:39Z</time>
      </trkpt>
      <trkpt lat="46.27345" lon="-0.70584">
        <ele>10.4</ele>
        <time>2020-05-31T13:52:40Z</time>
      </trkpt>
      <trkpt lat="46.27341" lon="-0.7059">
        <ele>10.4</ele>
        <time>2020-05-31T13:52:41Z</time>
      </trkpt>
      <trkpt lat="46.27336" lon="-0.70596">
        <ele>10.4</ele>
        <time>2020-05-31T13:52:42Z</time>
      </trkpt>
      <trkpt lat="46.27332" lon="-0.70602">
        <ele>10.3</ele>
        <time>2020-05-31T13:52:43Z</time>
      </trkpt>
      <trkpt lat="46.27327" lon="-0.70607">
        <ele>10.3</ele>
        <time>2020-05-31T13:52:44Z</time>
      </trkpt>
      <trkpt lat="46.27322" lon="-0.70611">
        <ele>10.3</ele>
        <time>2020-05-31T13:52:45Z</time>
      </trkpt>
      <trkpt lat="46.27317" lon="-0.70616">
        <ele>10.3</ele>
        <time>2020-05-31T13:52:46Z</time>
      </trkpt>
      <trkpt lat="46.27312" lon="-0.70621">
        <ele>10.2</ele>
        <time>2020-05-31T13:52:47Z</time>
      </trkpt>
      <trkpt lat="46.27307" lon="-0.70626">
        <ele>10.2</ele>
        <time>2020-05-31T13:52:48Z</time>
      </trkpt>
      <trkpt lat="46.27303" lon="-0.70631">
        <ele>10.2</ele>
        <time>2020-05-31T13:52:49Z</time>
      </trkpt>
      <trkpt lat="46.27298" lon="-0.70636">
        <ele>10.1</ele>
        <time>2020-05-31T13:52:50Z</time>
      </trkpt>
      <trkpt lat="46.27293" lon="-0.70642">
        <ele>10.1</ele>
        <time>2020-05-31T13:52:51Z</time>
      </trkpt>
      <trkpt lat="46.27288" lon="-0.70648">
        <ele>10</ele>
        <time>2020-05-31T13:52:52Z</time>
      </trkpt>
      <trkpt lat="46.27283" lon="-0.70655">
        <ele>9.9</ele>
        <time>2020-05-31T13:52:53Z</time>
      </trkpt>
      <trkpt lat="46.27278" lon="-0.70661">
        <ele>9.9</ele>
        <time>2020-05-31T13:52:54Z</time>
      </trkpt>
      <trkpt lat="46.27272" lon="-0.70665">
        <ele>9.8</ele>
        <time>2020-05-31T13:52:55Z</time>
      </trkpt>
      <trkpt lat="46.27267" lon="-0.70671">
        <ele>9.7</ele>
        <time>2020-05-31T13:52:56Z</time>
      </trkpt>
      <trkpt lat="46.27261" lon="-0.70677">
        <ele>9.6</ele>
        <time>2020-05-31T13:52:57Z</time>
      </trkpt>
      <trkpt lat="46.27256" lon="-0.70683">
        <ele>9.5</ele>
        <time>2020-05-31T13:52:58Z</time>
      </trkpt>
      <trkpt lat="46.2725" lon="-0.70689">
        <ele>9.5</ele>
        <time>2020-05-31T13:52:59Z</time>
      </trkpt>
      <trkpt lat="46.27245" lon="-0.70694">
        <ele>9.4</ele>
        <time>2020-05-31T13:53:00Z</time>
      </trkpt>
      <trkpt lat="46.27239" lon="-0.707">
        <ele>9.3</ele>
        <time>2020-05-31T13:53:01Z</time>
      </trkpt>
      <trkpt lat="46.27234" lon="-0.70707">
        <ele>9.2</ele>
        <time>2020-05-31T13:53:02Z</time>
      </trkpt>
      <trkpt lat="46.27228" lon="-0.70711">
        <ele>9.1</ele>
        <time>2020-05-31T13:53:03Z</time>
      </trkpt>
      <trkpt lat="46.27222" lon="-0.70716">
        <ele>8.9</ele>
        <time>2020-05-31T13:53:04Z</time>
      </trkpt>
      <trkpt lat="46.27217" lon="-0.70722">
        <ele>8.8</ele>
        <time>2020-05-31T13:53:05Z</time>
      </trkpt>
      <trkpt lat="46.27212" lon="-0.70728">
        <ele>8.7</ele>
        <time>2020-05-31T13:53:06Z</time>
      </trkpt>
      <trkpt lat="46.27207" lon="-0.70733">
        <ele>8.6</ele>
        <time>2020-05-31T13:53:07Z</time>
      </trkpt>
      <trkpt lat="46.27201" lon="-0.70739">
        <ele>8.5</ele>
        <time>2020-05-31T13:53:08Z</time>
      </trkpt>
      <trkpt lat="46.27196" lon="-0.70743">
        <ele>8.4</ele>
        <time>2020-05-31T13:53:09Z</time>
      </trkpt>
      <trkpt lat="46.27191" lon="-0.70749">
        <ele>8.3</ele>
        <time>2020-05-31T13:53:10Z</time>
      </trkpt>
      <trkpt lat="46.27186" lon="-0.70754">
        <ele>8.2</ele>
        <time>2020-05-31T13:53:11Z</time>
      </trkpt>
      <trkpt lat="46.27181" lon="-0.70759">
        <ele>8</ele>
        <time>2020-05-31T13:53:12Z</time>
      </trkpt>
      <trkpt lat="46.27175" lon="-0.70763">
        <ele>7.8</ele>
        <time>2020-05-31T13:53:13Z</time>
      </trkpt>
      <trkpt lat="46.2717" lon="-0.70768">
        <ele>7.7</ele>
        <time>2020-05-31T13:53:14Z</time>
      </trkpt>
      <trkpt lat="46.27165" lon="-0.70772">
        <ele>7.6</ele>
        <time>2020-05-31T13:53:15Z</time>
      </trkpt>
      <trkpt lat="46.27159" lon="-0.70777">
        <ele>7.4</ele>
        <time>2020-05-31T13:53:16Z</time>
      </trkpt>
      <trkpt lat="46.27154" lon="-0.70781">
        <ele>7.4</ele>
        <time>2020-05-31T13:53:17Z</time>
      </trkpt>
      <trkpt lat="46.27148" lon="-0.70785">
        <ele>7.3</ele>
        <time>2020-05-31T13:53:18Z</time>
      </trkpt>
      <trkpt lat="46.27143" lon="-0.70789">
        <ele>7.3</ele>
        <time>2020-05-31T13:53:19Z</time>
      </trkpt>
      <trkpt lat="46.27137" lon="-0.70792">
        <ele>7.3</ele>
        <time>2020-05-31T13:53:20Z</time>
      </trkpt>
      <trkpt lat="46.2713" lon="-0.70795">
        <ele>7.2</ele>
        <time>2020-05-31T13:53:21Z</time>
      </trkpt>
      <trkpt lat="46.27124" lon="-0.70799">
        <ele>7.1</ele>
        <time>2020-05-31T13:53:22Z</time>
      </trkpt>
      <trkpt lat="46.27118" lon="-0.70803">
        <ele>7</ele>
        <time>2020-05-31T13:53:23Z</time>
      </trkpt>
      <trkpt lat="46.27112" lon="-0.70807">
        <ele>7</ele>
        <time>2020-05-31T13:53:24Z</time>
      </trkpt>
      <trkpt lat="46.27107" lon="-0.70811">
        <ele>7</ele>
        <time>2020-05-31T13:53:25Z</time>
      </trkpt>
      <trkpt lat="46.27101" lon="-0.70814">
        <ele>6.9</ele>
        <time>2020-05-31T13:53:26Z</time>
      </trkpt>
      <trkpt lat="46.27096" lon="-0.70816">
        <ele>6.9</ele>
        <time>2020-05-31T13:53:27Z</time>
      </trkpt>
      <trkpt lat="46.2709" lon="-0.7082">
        <ele>6.9</ele>
        <time>2020-05-31T13:53:28Z</time>
      </trkpt>
      <trkpt lat="46.27085" lon="-0.70824">
        <ele>6.9</ele>
        <time>2020-05-31T13:53:29Z</time>
      </trkpt>
      <trkpt lat="46.2708" lon="-0.70828">
        <ele>6.9</ele>
        <time>2020-05-31T13:53:30Z</time>
      </trkpt>
      <trkpt lat="46.27074" lon="-0.7083">
        <ele>6.9</ele>
        <time>2020-05-31T13:53:31Z</time>
      </trkpt>
      <trkpt lat="46.27069" lon="-0.70833">
        <ele>6.9</ele>
        <time>2020-05-31T13:53:32Z</time>
      </trkpt>
      <trkpt lat="46.27064" lon="-0.70836">
        <ele>6.8</ele>
        <time>2020-05-31T13:53:33Z</time>
      </trkpt>
      <trkpt lat="46.2706" lon="-0.70838">
        <ele>6.8</ele>
        <time>2020-05-31T13:53:34Z</time>
      </trkpt>
      <trkpt lat="46.27055" lon="-0.70842">
        <ele>6.8</ele>
        <time>2020-05-31T13:53:35Z</time>
      </trkpt>
      <trkpt lat="46.2705" lon="-0.70846">
        <ele>6.8</ele>
        <time>2020-05-31T13:53:36Z</time>
      </trkpt>
      <trkpt lat="46.27046" lon="-0.7085">
        <ele>6.8</ele>
        <time>2020-05-31T13:53:37Z</time>
      </trkpt>
      <trkpt lat="46.27041" lon="-0.70853">
        <ele>6.9</ele>
        <time>2020-05-31T13:53:38Z</time>
      </trkpt>
      <trkpt lat="46.27036" lon="-0.70856">
        <ele>6.9</ele>
        <time>2020-05-31T13:53:39Z</time>
      </trkpt>
      <trkpt lat="46.27031" lon="-0.70858">
        <ele>6.9</ele>
        <time>2020-05-31T13:53:40Z</time>
      </trkpt>
      <trkpt lat="46.27025" lon="-0.70859">
        <ele>6.9</ele>
        <time>2020-05-31T13:53:41Z</time>
      </trkpt>
      <trkpt lat="46.27021" lon="-0.70862">
        <ele>6.9</ele>
        <time>2020-05-31T13:53:42Z</time>
      </trkpt>
      <trkpt lat="46.27016" lon="-0.70867">
        <ele>6.9</ele>
        <time>2020-05-31T13:53:43Z</time>
      </trkpt>
      <trkpt lat="46.27011" lon="-0.70871">
        <ele>6.9</ele>
        <time>2020-05-31T13:53:44Z</time>
      </trkpt>
      <trkpt lat="46.27006" lon="-0.70873">
        <ele>6.9</ele>
        <time>2020-05-31T13:53:45Z</time>
      </trkpt>
      <trkpt lat="46.27002" lon="-0.70877">
        <ele>6.9</ele>
        <time>2020-05-31T13:53:46Z</time>
      </trkpt>
      <trkpt lat="46.26997" lon="-0.70881">
        <ele>6.9</ele>
        <time>2020-05-31T13:53:47Z</time>
      </trkpt>
      <trkpt lat="46.26993" lon="-0.70885">
        <ele>6.9</ele>
        <time>2020-05-31T13:53:48Z</time>
      </trkpt>
      <trkpt lat="46.26988" lon="-0.70891">
        <ele>6.8</ele>
        <time>2020-05-31T13:53:49Z</time>
      </trkpt>
      <trkpt lat="46.26984" lon="-0.70896">
        <ele>6.8</ele>
        <time>2020-05-31T13:53:50Z</time>
      </trkpt>
      <trkpt lat="46.2698" lon="-0.70902">
        <ele>6.8</ele>
        <time>2020-05-31T13:53:51Z</time>
      </trkpt>
      <trkpt lat="46.26976" lon="-0.70908">
        <ele>6.8</ele>
        <time>2020-05-31T13:53:52Z</time>
      </trkpt>
      <trkpt lat="46.26973" lon="-0.70914">
        <ele>6.8</ele>
        <time>2020-05-31T13:53:53Z</time>
      </trkpt>
      <trkpt lat="46.26969" lon="-0.70919">
        <ele>6.9</ele>
        <time>2020-05-31T13:53:54Z</time>
      </trkpt>
      <trkpt lat="46.26965" lon="-0.70925">
        <ele>6.9</ele>
        <time>2020-05-31T13:53:55Z</time>
      </trkpt>
      <trkpt lat="46.26962" lon="-0.70931">
        <ele>7</ele>
        <time>2020-05-31T13:53:56Z</time>
      </trkpt>
      <trkpt lat="46.26958" lon="-0.70936">
        <ele>7</ele>
        <time>2020-05-31T13:53:57Z</time>
      </trkpt>
      <trkpt lat="46.26956" lon="-0.70944">
        <ele>7</ele>
        <time>2020-05-31T13:53:58Z</time>
      </trkpt>
      <trkpt lat="46.26952" lon="-0.70949">
        <ele>7.1</ele>
        <time>2020-05-31T13:53:59Z</time>
      </trkpt>
      <trkpt lat="46.26949" lon="-0.70954">
        <ele>7.1</ele>
        <time>2020-05-31T13:54:00Z</time>
      </trkpt>
      <trkpt lat="46.26946" lon="-0.70961">
        <ele>7.1</ele>
        <time>2020-05-31T13:54:01Z</time>
      </trkpt>
      <trkpt lat="46.26943" lon="-0.70966">
        <ele>7.1</ele>
        <time>2020-05-31T13:54:02Z</time>
      </trkpt>
      <trkpt lat="46.26939" lon="-0.70971">
        <ele>7.1</ele>
        <time>2020-05-31T13:54:03Z</time>
      </trkpt>
      <trkpt lat="46.26936" lon="-0.70976">
        <ele>7.1</ele>
        <time>2020-05-31T13:54:04Z</time>
      </trkpt>
      <trkpt lat="46.26932" lon="-0.70982">
        <ele>7.1</ele>
        <time>2020-05-31T13:54:05Z</time>
      </trkpt>
      <trkpt lat="46.26929" lon="-0.70987">
        <ele>7.1</ele>
        <time>2020-05-31T13:54:06Z</time>
      </trkpt>
      <trkpt lat="46.26926" lon="-0.70993">
        <ele>7.1</ele>
        <time>2020-05-31T13:54:07Z</time>
      </trkpt>
      <trkpt lat="46.26922" lon="-0.70997">
        <ele>7</ele>
        <time>2020-05-31T13:54:08Z</time>
      </trkpt>
      <trkpt lat="46.26919" lon="-0.71003">
        <ele>7</ele>
        <time>2020-05-31T13:54:09Z</time>
      </trkpt>
      <trkpt lat="46.26915" lon="-0.71009">
        <ele>7</ele>
        <time>2020-05-31T13:54:10Z</time>
      </trkpt>
      <trkpt lat="46.26911" lon="-0.71014">
        <ele>7</ele>
        <time>2020-05-31T13:54:11Z</time>
      </trkpt>
      <trkpt lat="46.26908" lon="-0.71019">
        <ele>7</ele>
        <time>2020-05-31T13:54:12Z</time>
      </trkpt>
      <trkpt lat="46.26904" lon="-0.71024">
        <ele>7</ele>
        <time>2020-05-31T13:54:13Z</time>
      </trkpt>
      <trkpt lat="46.26901" lon="-0.7103">
        <ele>7</ele>
        <time>2020-05-31T13:54:14Z</time>
      </trkpt>
      <trkpt lat="46.26898" lon="-0.71035">
        <ele>6.9</ele>
        <time>2020-05-31T13:54:15Z</time>
      </trkpt>
      <trkpt lat="46.26895" lon="-0.7104">
        <ele>6.9</ele>
        <time>2020-05-31T13:54:16Z</time>
      </trkpt>
      <trkpt lat="46.26891" lon="-0.71045">
        <ele>6.9</ele>
        <time>2020-05-31T13:54:17Z</time>
      </trkpt>
      <trkpt lat="46.26888" lon="-0.71051">
        <ele>6.9</ele>
        <time>2020-05-31T13:54:18Z</time>
      </trkpt>
      <trkpt lat="46.26884" lon="-0.71055">
        <ele>6.9</ele>
        <time>2020-05-31T13:54:19Z</time>
      </trkpt>
      <trkpt lat="46.26881" lon="-0.7106">
        <ele>6.9</ele>
        <time>2020-05-31T13:54:20Z</time>
      </trkpt>
      <trkpt lat="46.26877" lon="-0.71065">
        <ele>6.8</ele>
        <time>2020-05-31T13:54:21Z</time>
      </trkpt>
      <trkpt lat="46.26874" lon="-0.71071">
        <ele>6.8</ele>
        <time>2020-05-31T13:54:22Z</time>
      </trkpt>
      <trkpt lat="46.2687" lon="-0.71076">
        <ele>6.8</ele>
        <time>2020-05-31T13:54:23Z</time>
      </trkpt>
      <trkpt lat="46.26867" lon="-0.71081">
        <ele>6.7</ele>
        <time>2020-05-31T13:54:24Z</time>
      </trkpt>
      <trkpt lat="46.26864" lon="-0.71086">
        <ele>6.7</ele>
        <time>2020-05-31T13:54:25Z</time>
      </trkpt>
      <trkpt lat="46.2686" lon="-0.71091">
        <ele>6.6</ele>
        <time>2020-05-31T13:54:26Z</time>
      </trkpt>
      <trkpt lat="46.26857" lon="-0.71097">
        <ele>6.6</ele>
        <time>2020-05-31T13:54:27Z</time>
      </trkpt>
      <trkpt lat="46.26853" lon="-0.71102">
        <ele>6.5</ele>
        <time>2020-05-31T13:54:28Z</time>
      </trkpt>
      <trkpt lat="46.26849" lon="-0.71107">
        <ele>6.4</ele>
        <time>2020-05-31T13:54:29Z</time>
      </trkpt>
      <trkpt lat="46.26845" lon="-0.71113">
        <ele>6.4</ele>
        <time>2020-05-31T13:54:30Z</time>
      </trkpt>
      <trkpt lat="46.26841" lon="-0.71118">
        <ele>6.3</ele>
        <time>2020-05-31T13:54:31Z</time>
      </trkpt>
      <trkpt lat="46.26837" lon="-0.71123">
        <ele>6.2</ele>
        <time>2020-05-31T13:54:32Z</time>
      </trkpt>
      <trkpt lat="46.26831" lon="-0.71129">
        <ele>6.2</ele>
        <time>2020-05-31T13:54:33Z</time>
      </trkpt>
      <trkpt lat="46.26826" lon="-0.71135">
        <ele>6.2</ele>
        <time>2020-05-31T13:54:34Z</time>
      </trkpt>
      <trkpt lat="46.2682" lon="-0.71138">
        <ele>6.1</ele>
        <time>2020-05-31T13:54:35Z</time>
      </trkpt>
      <trkpt lat="46.26814" lon="-0.71142">
        <ele>6</ele>
        <time>2020-05-31T13:54:36Z</time>
      </trkpt>
      <trkpt lat="46.26809" lon="-0.71146">
        <ele>6.1</ele>
        <time>2020-05-31T13:54:37Z</time>
      </trkpt>
      <trkpt lat="46.26803" lon="-0.7115">
        <ele>6.1</ele>
        <time>2020-05-31T13:54:38Z</time>
      </trkpt>
      <trkpt lat="46.26797" lon="-0.71154">
        <ele>6.1</ele>
        <time>2020-05-31T13:54:39Z</time>
      </trkpt>
      <trkpt lat="46.26791" lon="-0.71157">
        <ele>6.1</ele>
        <time>2020-05-31T13:54:40Z</time>
      </trkpt>
      <trkpt lat="46.26785" lon="-0.71159">
        <ele>6.1</ele>
        <time>2020-05-31T13:54:41Z</time>
      </trkpt>
      <trkpt lat="46.2678" lon="-0.71162">
        <ele>6.1</ele>
        <time>2020-05-31T13:54:42Z</time>
      </trkpt>
      <trkpt lat="46.26775" lon="-0.71166">
        <ele>6.1</ele>
        <time>2020-05-31T13:54:43Z</time>
      </trkpt>
      <trkpt lat="46.26771" lon="-0.71169">
        <ele>6.1</ele>
        <time>2020-05-31T13:54:44Z</time>
      </trkpt>
      <trkpt lat="46.26766" lon="-0.71171">
        <ele>6.1</ele>
        <time>2020-05-31T13:54:45Z</time>
      </trkpt>
      <trkpt lat="46.26762" lon="-0.71175">
        <ele>6.1</ele>
        <time>2020-05-31T13:54:46Z</time>
      </trkpt>
      <trkpt lat="46.26758" lon="-0.71177">
        <ele>6.1</ele>
        <time>2020-05-31T13:54:47Z</time>
      </trkpt>
      <trkpt lat="46.26754" lon="-0.71181">
        <ele>6.1</ele>
        <time>2020-05-31T13:54:48Z</time>
      </trkpt>
      <trkpt lat="46.26751" lon="-0.71185">
        <ele>6.1</ele>
        <time>2020-05-31T13:54:49Z</time>
      </trkpt>
      <trkpt lat="46.26746" lon="-0.7119">
        <ele>6.1</ele>
        <time>2020-05-31T13:54:50Z</time>
      </trkpt>
      <trkpt lat="46.26742" lon="-0.71195">
        <ele>6.1</ele>
        <time>2020-05-31T13:54:51Z</time>
      </trkpt>
      <trkpt lat="46.26737" lon="-0.71201">
        <ele>6.1</ele>
        <time>2020-05-31T13:54:52Z</time>
      </trkpt>
      <trkpt lat="46.26731" lon="-0.71206">
        <ele>6.1</ele>
        <time>2020-05-31T13:54:53Z</time>
      </trkpt>
      <trkpt lat="46.26726" lon="-0.71211">
        <ele>6</ele>
        <time>2020-05-31T13:54:54Z</time>
      </trkpt>
      <trkpt lat="46.2672" lon="-0.71216">
        <ele>6</ele>
        <time>2020-05-31T13:54:55Z</time>
      </trkpt>
      <trkpt lat="46.26715" lon="-0.71223">
        <ele>6</ele>
        <time>2020-05-31T13:54:56Z</time>
      </trkpt>
      <trkpt lat="46.2671" lon="-0.7123">
        <ele>5.9</ele>
        <time>2020-05-31T13:54:57Z</time>
      </trkpt>
      <trkpt lat="46.26705" lon="-0.71237">
        <ele>5.9</ele>
        <time>2020-05-31T13:54:58Z</time>
      </trkpt>
      <trkpt lat="46.267" lon="-0.71243">
        <ele>5.9</ele>
        <time>2020-05-31T13:54:59Z</time>
      </trkpt>
      <trkpt lat="46.26695" lon="-0.71249">
        <ele>5.9</ele>
        <time>2020-05-31T13:55:00Z</time>
      </trkpt>
      <trkpt lat="46.26691" lon="-0.71256">
        <ele>5.8</ele>
        <time>2020-05-31T13:55:01Z</time>
      </trkpt>
      <trkpt lat="46.26687" lon="-0.71264">
        <ele>5.8</ele>
        <time>2020-05-31T13:55:02Z</time>
      </trkpt>
      <trkpt lat="46.26685" lon="-0.71274">
        <ele>5.8</ele>
        <time>2020-05-31T13:55:03Z</time>
      </trkpt>
      <trkpt lat="46.26682" lon="-0.71283">
        <ele>5.7</ele>
        <time>2020-05-31T13:55:04Z</time>
      </trkpt>
      <trkpt lat="46.26679" lon="-0.71292">
        <ele>5.7</ele>
        <time>2020-05-31T13:55:05Z</time>
      </trkpt>
      <trkpt lat="46.26676" lon="-0.713">
        <ele>5.7</ele>
        <time>2020-05-31T13:55:06Z</time>
      </trkpt>
      <trkpt lat="46.26673" lon="-0.71309">
        <ele>5.8</ele>
        <time>2020-05-31T13:55:07Z</time>
      </trkpt>
      <trkpt lat="46.2667" lon="-0.71318">
        <ele>5.9</ele>
        <time>2020-05-31T13:55:08Z</time>
      </trkpt>
      <trkpt lat="46.26667" lon="-0.71327">
        <ele>6</ele>
        <time>2020-05-31T13:55:09Z</time>
      </trkpt>
      <trkpt lat="46.26665" lon="-0.71336">
        <ele>6</ele>
        <time>2020-05-31T13:55:10Z</time>
      </trkpt>
      <trkpt lat="46.26662" lon="-0.71344">
        <ele>6.1</ele>
        <time>2020-05-31T13:55:11Z</time>
      </trkpt>
      <trkpt lat="46.26658" lon="-0.71352">
        <ele>6.2</ele>
        <time>2020-05-31T13:55:12Z</time>
      </trkpt>
      <trkpt lat="46.26654" lon="-0.71359">
        <ele>6.2</ele>
        <time>2020-05-31T13:55:13Z</time>
      </trkpt>
      <trkpt lat="46.2665" lon="-0.71366">
        <ele>6.2</ele>
        <time>2020-05-31T13:55:14Z</time>
      </trkpt>
      <trkpt lat="46.26645" lon="-0.71372">
        <ele>6.2</ele>
        <time>2020-05-31T13:55:15Z</time>
      </trkpt>
      <trkpt lat="46.26641" lon="-0.71379">
        <ele>6.1</ele>
        <time>2020-05-31T13:55:16Z</time>
      </trkpt>
      <trkpt lat="46.26636" lon="-0.71386">
        <ele>6.1</ele>
        <time>2020-05-31T13:55:17Z</time>
      </trkpt>
      <trkpt lat="46.26631" lon="-0.71391">
        <ele>6.1</ele>
        <time>2020-05-31T13:55:18Z</time>
      </trkpt>
      <trkpt lat="46.26626" lon="-0.71395">
        <ele>6.1</ele>
        <time>2020-05-31T13:55:19Z</time>
      </trkpt>
      <trkpt lat="46.2662" lon="-0.71399">
        <ele>6.1</ele>
        <time>2020-05-31T13:55:20Z</time>
      </trkpt>
      <trkpt lat="46.26613" lon="-0.71401">
        <ele>6.1</ele>
        <time>2020-05-31T13:55:21Z</time>
      </trkpt>
      <trkpt lat="46.26607" lon="-0.71403">
        <ele>6.1</ele>
        <time>2020-05-31T13:55:22Z</time>
      </trkpt>
      <trkpt lat="46.266" lon="-0.71405">
        <ele>6.1</ele>
        <time>2020-05-31T13:55:23Z</time>
      </trkpt>
      <trkpt lat="46.26594" lon="-0.71407">
        <ele>6.1</ele>
        <time>2020-05-31T13:55:24Z</time>
      </trkpt>
      <trkpt lat="46.26588" lon="-0.71408">
        <ele>6.1</ele>
        <time>2020-05-31T13:55:25Z</time>
      </trkpt>
      <trkpt lat="46.26582" lon="-0.71408">
        <ele>6.1</ele>
        <time>2020-05-31T13:55:26Z</time>
      </trkpt>
      <trkpt lat="46.26577" lon="-0.71409">
        <ele>6</ele>
        <time>2020-05-31T13:55:27Z</time>
      </trkpt>
      <trkpt lat="46.26571" lon="-0.7141">
        <ele>6</ele>
        <time>2020-05-31T13:55:28Z</time>
      </trkpt>
      <trkpt lat="46.26567" lon="-0.71412">
        <ele>6</ele>
        <time>2020-05-31T13:55:29Z</time>
      </trkpt>
      <trkpt lat="46.26563" lon="-0.71411">
        <ele>6</ele>
        <time>2020-05-31T13:55:30Z</time>
      </trkpt>
      <trkpt lat="46.2656" lon="-0.71413">
        <ele>6</ele>
        <time>2020-05-31T13:55:31Z</time>
      </trkpt>
      <trkpt lat="46.26557" lon="-0.71413">
        <ele>6</ele>
        <time>2020-05-31T13:55:32Z</time>
      </trkpt>
      <trkpt lat="46.26556" lon="-0.71413">
        <ele>6</ele>
        <time>2020-05-31T13:55:33Z</time>
      </trkpt>
      <trkpt lat="46.26553" lon="-0.71413">
        <ele>6</ele>
        <time>2020-05-31T13:55:34Z</time>
      </trkpt>
      <trkpt lat="46.26552" lon="-0.71413">
        <ele>6</ele>
        <time>2020-05-31T13:55:35Z</time>
      </trkpt>
      <trkpt lat="46.26549" lon="-0.71411">
        <ele>6</ele>
        <time>2020-05-31T13:55:36Z</time>
      </trkpt>
      <trkpt lat="46.26547" lon="-0.7141">
        <ele>6</ele>
        <time>2020-05-31T13:55:37Z</time>
      </trkpt>
      <trkpt lat="46.26544" lon="-0.71409">
        <ele>6</ele>
        <time>2020-05-31T13:55:38Z</time>
      </trkpt>
      <trkpt lat="46.26543" lon="-0.71409">
        <ele>6</ele>
        <time>2020-05-31T13:55:39Z</time>
      </trkpt>
      <trkpt lat="46.2654" lon="-0.7141">
        <ele>6</ele>
        <time>2020-05-31T13:55:40Z</time>
      </trkpt>
      <trkpt lat="46.26538" lon="-0.7141">
        <ele>6</ele>
        <time>2020-05-31T13:55:41Z</time>
      </trkpt>
      <trkpt lat="46.26536" lon="-0.71412">
        <ele>6</ele>
        <time>2020-05-31T13:55:42Z</time>
      </trkpt>
      <trkpt lat="46.26535" lon="-0.71414">
        <ele>6</ele>
        <time>2020-05-31T13:55:43Z</time>
      </trkpt>
      <trkpt lat="46.26534" lon="-0.71418">
        <ele>6</ele>
        <time>2020-05-31T13:55:44Z</time>
      </trkpt>
      <trkpt lat="46.26533" lon="-0.71423">
        <ele>6</ele>
        <time>2020-05-31T13:55:45Z</time>
      </trkpt>
      <trkpt lat="46.26531" lon="-0.71427">
        <ele>6</ele>
        <time>2020-05-31T13:55:46Z</time>
      </trkpt>
      <trkpt lat="46.2653" lon="-0.71431">
        <ele>6.1</ele>
        <time>2020-05-31T13:55:47Z</time>
      </trkpt>
      <trkpt lat="46.26528" lon="-0.71435">
        <ele>6.1</ele>
        <time>2020-05-31T13:55:48Z</time>
      </trkpt>
      <trkpt lat="46.26526" lon="-0.7144">
        <ele>6.1</ele>
        <time>2020-05-31T13:55:49Z</time>
      </trkpt>
      <trkpt lat="46.26524" lon="-0.71445">
        <ele>6.1</ele>
        <time>2020-05-31T13:55:50Z</time>
      </trkpt>
      <trkpt lat="46.26522" lon="-0.7145">
        <ele>6.2</ele>
        <time>2020-05-31T13:55:51Z</time>
      </trkpt>
      <trkpt lat="46.26517" lon="-0.71454">
        <ele>6.2</ele>
        <time>2020-05-31T13:55:52Z</time>
      </trkpt>
      <trkpt lat="46.26514" lon="-0.71459">
        <ele>6.3</ele>
        <time>2020-05-31T13:55:53Z</time>
      </trkpt>
      <trkpt lat="46.26512" lon="-0.71465">
        <ele>6.3</ele>
        <time>2020-05-31T13:55:54Z</time>
      </trkpt>
      <trkpt lat="46.2651" lon="-0.71471">
        <ele>6.4</ele>
        <time>2020-05-31T13:55:55Z</time>
      </trkpt>
      <trkpt lat="46.26508" lon="-0.71477">
        <ele>6.5</ele>
        <time>2020-05-31T13:55:56Z</time>
      </trkpt>
      <trkpt lat="46.26506" lon="-0.71483">
        <ele>6.6</ele>
        <time>2020-05-31T13:55:57Z</time>
      </trkpt>
      <trkpt lat="46.26503" lon="-0.71488">
        <ele>6.7</ele>
        <time>2020-05-31T13:55:58Z</time>
      </trkpt>
      <trkpt lat="46.26501" lon="-0.71493">
        <ele>6.8</ele>
        <time>2020-05-31T13:55:59Z</time>
      </trkpt>
      <trkpt lat="46.26498" lon="-0.71499">
        <ele>6.9</ele>
        <time>2020-05-31T13:56:00Z</time>
      </trkpt>
      <trkpt lat="46.26496" lon="-0.71504">
        <ele>6.9</ele>
        <time>2020-05-31T13:56:01Z</time>
      </trkpt>
      <trkpt lat="46.26493" lon="-0.71509">
        <ele>7</ele>
        <time>2020-05-31T13:56:02Z</time>
      </trkpt>
      <trkpt lat="46.26491" lon="-0.71515">
        <ele>7.1</ele>
        <time>2020-05-31T13:56:03Z</time>
      </trkpt>
      <trkpt lat="46.26489" lon="-0.7152">
        <ele>7.2</ele>
        <time>2020-05-31T13:56:04Z</time>
      </trkpt>
      <trkpt lat="46.26488" lon="-0.71525">
        <ele>7.2</ele>
        <time>2020-05-31T13:56:05Z</time>
      </trkpt>
      <trkpt lat="46.26486" lon="-0.7153">
        <ele>7.3</ele>
        <time>2020-05-31T13:56:06Z</time>
      </trkpt>
      <trkpt lat="46.26484" lon="-0.71534">
        <ele>7.4</ele>
        <time>2020-05-31T13:56:07Z</time>
      </trkpt>
      <trkpt lat="46.26483" lon="-0.71539">
        <ele>7.4</ele>
        <time>2020-05-31T13:56:08Z</time>
      </trkpt>
      <trkpt lat="46.26481" lon="-0.71543">
        <ele>7.5</ele>
        <time>2020-05-31T13:56:09Z</time>
      </trkpt>
      <trkpt lat="46.26479" lon="-0.71549">
        <ele>7.6</ele>
        <time>2020-05-31T13:56:10Z</time>
      </trkpt>
      <trkpt lat="46.26477" lon="-0.71555">
        <ele>7.7</ele>
        <time>2020-05-31T13:56:11Z</time>
      </trkpt>
      <trkpt lat="46.26475" lon="-0.71561">
        <ele>7.8</ele>
        <time>2020-05-31T13:56:12Z</time>
      </trkpt>
      <trkpt lat="46.26473" lon="-0.71566">
        <ele>7.8</ele>
        <time>2020-05-31T13:56:13Z</time>
      </trkpt>
      <trkpt lat="46.26471" lon="-0.71572">
        <ele>7.9</ele>
        <time>2020-05-31T13:56:14Z</time>
      </trkpt>
      <trkpt lat="46.26469" lon="-0.71577">
        <ele>8</ele>
        <time>2020-05-31T13:56:15Z</time>
      </trkpt>
      <trkpt lat="46.26468" lon="-0.71583">
        <ele>8.1</ele>
        <time>2020-05-31T13:56:16Z</time>
      </trkpt>
      <trkpt lat="46.26466" lon="-0.71589">
        <ele>8.2</ele>
        <time>2020-05-31T13:56:17Z</time>
      </trkpt>
      <trkpt lat="46.26464" lon="-0.71596">
        <ele>8.3</ele>
        <time>2020-05-31T13:56:18Z</time>
      </trkpt>
      <trkpt lat="46.26462" lon="-0.71602">
        <ele>8.4</ele>
        <time>2020-05-31T13:56:19Z</time>
      </trkpt>
      <trkpt lat="46.26461" lon="-0.71608">
        <ele>8.5</ele>
        <time>2020-05-31T13:56:20Z</time>
      </trkpt>
      <trkpt lat="46.2646" lon="-0.71614">
        <ele>8.6</ele>
        <time>2020-05-31T13:56:21Z</time>
      </trkpt>
      <trkpt lat="46.26458" lon="-0.71619">
        <ele>8.7</ele>
        <time>2020-05-31T13:56:22Z</time>
      </trkpt>
      <trkpt lat="46.26457" lon="-0.71625">
        <ele>8.8</ele>
        <time>2020-05-31T13:56:23Z</time>
      </trkpt>
      <trkpt lat="46.26456" lon="-0.71631">
        <ele>8.8</ele>
        <time>2020-05-31T13:56:24Z</time>
      </trkpt>
      <trkpt lat="46.26455" lon="-0.71637">
        <ele>8.9</ele>
        <time>2020-05-31T13:56:25Z</time>
      </trkpt>
      <trkpt lat="46.26454" lon="-0.71642">
        <ele>9</ele>
        <time>2020-05-31T13:56:26Z</time>
      </trkpt>
      <trkpt lat="46.26453" lon="-0.71647">
        <ele>9</ele>
        <time>2020-05-31T13:56:27Z</time>
      </trkpt>
      <trkpt lat="46.26452" lon="-0.71652">
        <ele>9.1</ele>
        <time>2020-05-31T13:56:28Z</time>
      </trkpt>
      <trkpt lat="46.26451" lon="-0.71657">
        <ele>9.2</ele>
        <time>2020-05-31T13:56:29Z</time>
      </trkpt>
      <trkpt lat="46.26451" lon="-0.71662">
        <ele>9.2</ele>
        <time>2020-05-31T13:56:30Z</time>
      </trkpt>
      <trkpt lat="46.2645" lon="-0.71668">
        <ele>9.3</ele>
        <time>2020-05-31T13:56:31Z</time>
      </trkpt>
      <trkpt lat="46.2645" lon="-0.71673">
        <ele>9.3</ele>
        <time>2020-05-31T13:56:32Z</time>
      </trkpt>
      <trkpt lat="46.2645" lon="-0.71677">
        <ele>9.3</ele>
        <time>2020-05-31T13:56:33Z</time>
      </trkpt>
      <trkpt lat="46.26448" lon="-0.71682">
        <ele>9.3</ele>
        <time>2020-05-31T13:56:34Z</time>
      </trkpt>
      <trkpt lat="46.26449" lon="-0.71687">
        <ele>9.4</ele>
        <time>2020-05-31T13:56:35Z</time>
      </trkpt>
      <trkpt lat="46.2645" lon="-0.71691">
        <ele>9.4</ele>
        <time>2020-05-31T13:56:36Z</time>
      </trkpt>
      <trkpt lat="46.2645" lon="-0.71697">
        <ele>9.4</ele>
        <time>2020-05-31T13:56:37Z</time>
      </trkpt>
      <trkpt lat="46.2645" lon="-0.71699">
        <ele>9.4</ele>
        <time>2020-05-31T13:56:38Z</time>
      </trkpt>
      <trkpt lat="46.26451" lon="-0.71704">
        <ele>9.4</ele>
        <time>2020-05-31T13:56:39Z</time>
      </trkpt>
      <trkpt lat="46.26451" lon="-0.71705">
        <ele>9.4</ele>
        <time>2020-05-31T13:56:40Z</time>
      </trkpt>
      <trkpt lat="46.26452" lon="-0.71711">
        <ele>9.5</ele>
        <time>2020-05-31T13:56:41Z</time>
      </trkpt>
      <trkpt lat="46.26452" lon="-0.71713">
        <ele>9.5</ele>
        <time>2020-05-31T13:56:42Z</time>
      </trkpt>
      <trkpt lat="46.26453" lon="-0.71717">
        <ele>9.5</ele>
        <time>2020-05-31T13:56:43Z</time>
      </trkpt>
      <trkpt lat="46.26454" lon="-0.71721">
        <ele>9.5</ele>
        <time>2020-05-31T13:56:44Z</time>
      </trkpt>
      <trkpt lat="46.26454" lon="-0.71726">
        <ele>9.6</ele>
        <time>2020-05-31T13:56:45Z</time>
      </trkpt>
      <trkpt lat="46.26455" lon="-0.71731">
        <ele>9.6</ele>
        <time>2020-05-31T13:56:46Z</time>
      </trkpt>
      <trkpt lat="46.26456" lon="-0.71736">
        <ele>9.6</ele>
        <time>2020-05-31T13:56:47Z</time>
      </trkpt>
      <trkpt lat="46.26456" lon="-0.71742">
        <ele>9.7</ele>
        <time>2020-05-31T13:56:48Z</time>
      </trkpt>
      <trkpt lat="46.26458" lon="-0.71748">
        <ele>9.7</ele>
        <time>2020-05-31T13:56:49Z</time>
      </trkpt>
      <trkpt lat="46.26459" lon="-0.71754">
        <ele>9.8</ele>
        <time>2020-05-31T13:56:50Z</time>
      </trkpt>
      <trkpt lat="46.2646" lon="-0.71759">
        <ele>9.8</ele>
        <time>2020-05-31T13:56:51Z</time>
      </trkpt>
      <trkpt lat="46.26461" lon="-0.71765">
        <ele>9.9</ele>
        <time>2020-05-31T13:56:52Z</time>
      </trkpt>
      <trkpt lat="46.26461" lon="-0.71772">
        <ele>9.9</ele>
        <time>2020-05-31T13:56:53Z</time>
      </trkpt>
      <trkpt lat="46.26461" lon="-0.71778">
        <ele>10</ele>
        <time>2020-05-31T13:56:54Z</time>
      </trkpt>
      <trkpt lat="46.26461" lon="-0.71785">
        <ele>10</ele>
        <time>2020-05-31T13:56:55Z</time>
      </trkpt>
      <trkpt lat="46.26462" lon="-0.71791">
        <ele>10.1</ele>
        <time>2020-05-31T13:56:56Z</time>
      </trkpt>
      <trkpt lat="46.26463" lon="-0.71798">
        <ele>10.1</ele>
        <time>2020-05-31T13:56:57Z</time>
      </trkpt>
      <trkpt lat="46.26463" lon="-0.71805">
        <ele>10.1</ele>
        <time>2020-05-31T13:56:58Z</time>
      </trkpt>
      <trkpt lat="46.26464" lon="-0.71811">
        <ele>10.2</ele>
        <time>2020-05-31T13:56:59Z</time>
      </trkpt>
      <trkpt lat="46.26465" lon="-0.71818">
        <ele>10.2</ele>
        <time>2020-05-31T13:57:00Z</time>
      </trkpt>
      <trkpt lat="46.26466" lon="-0.71824">
        <ele>10.3</ele>
        <time>2020-05-31T13:57:01Z</time>
      </trkpt>
      <trkpt lat="46.26466" lon="-0.71831">
        <ele>10.3</ele>
        <time>2020-05-31T13:57:02Z</time>
      </trkpt>
      <trkpt lat="46.26468" lon="-0.71838">
        <ele>10.3</ele>
        <time>2020-05-31T13:57:03Z</time>
      </trkpt>
      <trkpt lat="46.26471" lon="-0.71845">
        <ele>10.4</ele>
        <time>2020-05-31T13:57:04Z</time>
      </trkpt>
      <trkpt lat="46.26472" lon="-0.71852">
        <ele>10.4</ele>
        <time>2020-05-31T13:57:05Z</time>
      </trkpt>
      <trkpt lat="46.26473" lon="-0.71859">
        <ele>10.4</ele>
        <time>2020-05-31T13:57:06Z</time>
      </trkpt>
      <trkpt lat="46.26474" lon="-0.71866">
        <ele>10.4</ele>
        <time>2020-05-31T13:57:07Z</time>
      </trkpt>
      <trkpt lat="46.26474" lon="-0.71874">
        <ele>10.4</ele>
        <time>2020-05-31T13:57:08Z</time>
      </trkpt>
      <trkpt lat="46.26474" lon="-0.71882">
        <ele>10.4</ele>
        <time>2020-05-31T13:57:09Z</time>
      </trkpt>
      <trkpt lat="46.26475" lon="-0.71889">
        <ele>10.4</ele>
        <time>2020-05-31T13:57:10Z</time>
      </trkpt>
      <trkpt lat="46.26477" lon="-0.71897">
        <ele>10.4</ele>
        <time>2020-05-31T13:57:11Z</time>
      </trkpt>
      <trkpt lat="46.26479" lon="-0.71904">
        <ele>10.4</ele>
        <time>2020-05-31T13:57:12Z</time>
      </trkpt>
      <trkpt lat="46.26481" lon="-0.71912">
        <ele>10.4</ele>
        <time>2020-05-31T13:57:13Z</time>
      </trkpt>
      <trkpt lat="46.26482" lon="-0.7192">
        <ele>10.4</ele>
        <time>2020-05-31T13:57:14Z</time>
      </trkpt>
      <trkpt lat="46.26483" lon="-0.71928">
        <ele>10.4</ele>
        <time>2020-05-31T13:57:15Z</time>
      </trkpt>
      <trkpt lat="46.26487" lon="-0.71935">
        <ele>10.3</ele>
        <time>2020-05-31T13:57:16Z</time>
      </trkpt>
      <trkpt lat="46.26489" lon="-0.71943">
        <ele>10.3</ele>
        <time>2020-05-31T13:57:17Z</time>
      </trkpt>
      <trkpt lat="46.2649" lon="-0.71951">
        <ele>10.3</ele>
        <time>2020-05-31T13:57:18Z</time>
      </trkpt>
      <trkpt lat="46.26491" lon="-0.7196">
        <ele>10.3</ele>
        <time>2020-05-31T13:57:19Z</time>
      </trkpt>
      <trkpt lat="46.26492" lon="-0.71969">
        <ele>10.3</ele>
        <time>2020-05-31T13:57:20Z</time>
      </trkpt>
      <trkpt lat="46.26493" lon="-0.71977">
        <ele>10.3</ele>
        <time>2020-05-31T13:57:21Z</time>
      </trkpt>
      <trkpt lat="46.26493" lon="-0.71986">
        <ele>10.3</ele>
        <time>2020-05-31T13:57:22Z</time>
      </trkpt>
      <trkpt lat="46.26493" lon="-0.71995">
        <ele>10.3</ele>
        <time>2020-05-31T13:57:23Z</time>
      </trkpt>
      <trkpt lat="46.26493" lon="-0.72003">
        <ele>10.3</ele>
        <time>2020-05-31T13:57:24Z</time>
      </trkpt>
      <trkpt lat="46.26494" lon="-0.72012">
        <ele>10.3</ele>
        <time>2020-05-31T13:57:25Z</time>
      </trkpt>
      <trkpt lat="46.26494" lon="-0.72021">
        <ele>10.3</ele>
        <time>2020-05-31T13:57:26Z</time>
      </trkpt>
      <trkpt lat="46.26494" lon="-0.7203">
        <ele>10.3</ele>
        <time>2020-05-31T13:57:27Z</time>
      </trkpt>
      <trkpt lat="46.26494" lon="-0.72038">
        <ele>10.3</ele>
        <time>2020-05-31T13:57:28Z</time>
      </trkpt>
      <trkpt lat="46.26494" lon="-0.72047">
        <ele>10.3</ele>
        <time>2020-05-31T13:57:29Z</time>
      </trkpt>
      <trkpt lat="46.26494" lon="-0.72055">
        <ele>10.3</ele>
        <time>2020-05-31T13:57:30Z</time>
      </trkpt>
      <trkpt lat="46.26494" lon="-0.72063">
        <ele>10.3</ele>
        <time>2020-05-31T13:57:31Z</time>
      </trkpt>
      <trkpt lat="46.26495" lon="-0.72072">
        <ele>10.2</ele>
        <time>2020-05-31T13:57:32Z</time>
      </trkpt>
      <trkpt lat="46.26495" lon="-0.72081">
        <ele>10.2</ele>
        <time>2020-05-31T13:57:33Z</time>
      </trkpt>
      <trkpt lat="46.26496" lon="-0.7209">
        <ele>10.1</ele>
        <time>2020-05-31T13:57:34Z</time>
      </trkpt>
      <trkpt lat="46.26496" lon="-0.72099">
        <ele>10.1</ele>
        <time>2020-05-31T13:57:35Z</time>
      </trkpt>
      <trkpt lat="46.26496" lon="-0.72109">
        <ele>10</ele>
        <time>2020-05-31T13:57:36Z</time>
      </trkpt>
      <trkpt lat="46.26496" lon="-0.72119">
        <ele>9.8</ele>
        <time>2020-05-31T13:57:37Z</time>
      </trkpt>
      <trkpt lat="46.26496" lon="-0.72128">
        <ele>9.7</ele>
        <time>2020-05-31T13:57:38Z</time>
      </trkpt>
      <trkpt lat="46.26495" lon="-0.72137">
        <ele>9.6</ele>
        <time>2020-05-31T13:57:39Z</time>
      </trkpt>
      <trkpt lat="46.26496" lon="-0.72147">
        <ele>9.4</ele>
        <time>2020-05-31T13:57:40Z</time>
      </trkpt>
      <trkpt lat="46.26496" lon="-0.72156">
        <ele>9.3</ele>
        <time>2020-05-31T13:57:41Z</time>
      </trkpt>
      <trkpt lat="46.26497" lon="-0.72166">
        <ele>9.3</ele>
        <time>2020-05-31T13:57:42Z</time>
      </trkpt>
      <trkpt lat="46.26499" lon="-0.72175">
        <ele>9.2</ele>
        <time>2020-05-31T13:57:43Z</time>
      </trkpt>
      <trkpt lat="46.265" lon="-0.72185">
        <ele>9.2</ele>
        <time>2020-05-31T13:57:44Z</time>
      </trkpt>
      <trkpt lat="46.26501" lon="-0.72194">
        <ele>9.1</ele>
        <time>2020-05-31T13:57:45Z</time>
      </trkpt>
      <trkpt lat="46.26502" lon="-0.72203">
        <ele>9.1</ele>
        <time>2020-05-31T13:57:46Z</time>
      </trkpt>
      <trkpt lat="46.26502" lon="-0.72212">
        <ele>9</ele>
        <time>2020-05-31T13:57:47Z</time>
      </trkpt>
      <trkpt lat="46.26502" lon="-0.72222">
        <ele>9</ele>
        <time>2020-05-31T13:57:48Z</time>
      </trkpt>
      <trkpt lat="46.26502" lon="-0.72231">
        <ele>8.9</ele>
        <time>2020-05-31T13:57:49Z</time>
      </trkpt>
      <trkpt lat="46.26503" lon="-0.7224">
        <ele>8.8</ele>
        <time>2020-05-31T13:57:50Z</time>
      </trkpt>
      <trkpt lat="46.26503" lon="-0.72249">
        <ele>8.8</ele>
        <time>2020-05-31T13:57:51Z</time>
      </trkpt>
      <trkpt lat="46.26503" lon="-0.72257">
        <ele>8.7</ele>
        <time>2020-05-31T13:57:52Z</time>
      </trkpt>
      <trkpt lat="46.26503" lon="-0.72266">
        <ele>8.6</ele>
        <time>2020-05-31T13:57:53Z</time>
      </trkpt>
      <trkpt lat="46.26502" lon="-0.72275">
        <ele>8.6</ele>
        <time>2020-05-31T13:57:54Z</time>
      </trkpt>
      <trkpt lat="46.26502" lon="-0.72283">
        <ele>8.5</ele>
        <time>2020-05-31T13:57:55Z</time>
      </trkpt>
      <trkpt lat="46.26502" lon="-0.72292">
        <ele>8.5</ele>
        <time>2020-05-31T13:57:56Z</time>
      </trkpt>
      <trkpt lat="46.26502" lon="-0.723">
        <ele>8.4</ele>
        <time>2020-05-31T13:57:57Z</time>
      </trkpt>
      <trkpt lat="46.26502" lon="-0.72308">
        <ele>8.3</ele>
        <time>2020-05-31T13:57:58Z</time>
      </trkpt>
      <trkpt lat="46.26502" lon="-0.72316">
        <ele>8.3</ele>
        <time>2020-05-31T13:57:59Z</time>
      </trkpt>
      <trkpt lat="46.26501" lon="-0.72324">
        <ele>8.2</ele>
        <time>2020-05-31T13:58:00Z</time>
      </trkpt>
      <trkpt lat="46.265" lon="-0.72332">
        <ele>8.1</ele>
        <time>2020-05-31T13:58:01Z</time>
      </trkpt>
      <trkpt lat="46.26498" lon="-0.7234">
        <ele>8.1</ele>
        <time>2020-05-31T13:58:02Z</time>
      </trkpt>
      <trkpt lat="46.26496" lon="-0.72347">
        <ele>8</ele>
        <time>2020-05-31T13:58:03Z</time>
      </trkpt>
      <trkpt lat="46.26494" lon="-0.72355">
        <ele>7.9</ele>
        <time>2020-05-31T13:58:04Z</time>
      </trkpt>
      <trkpt lat="46.26491" lon="-0.72363">
        <ele>7.9</ele>
        <time>2020-05-31T13:58:05Z</time>
      </trkpt>
      <trkpt lat="46.26489" lon="-0.7237">
        <ele>7.8</ele>
        <time>2020-05-31T13:58:06Z</time>
      </trkpt>
      <trkpt lat="46.26487" lon="-0.72378">
        <ele>7.8</ele>
        <time>2020-05-31T13:58:07Z</time>
      </trkpt>
      <trkpt lat="46.26485" lon="-0.72385">
        <ele>7.7</ele>
        <time>2020-05-31T13:58:08Z</time>
      </trkpt>
      <trkpt lat="46.26482" lon="-0.72393">
        <ele>7.7</ele>
        <time>2020-05-31T13:58:09Z</time>
      </trkpt>
      <trkpt lat="46.26479" lon="-0.724">
        <ele>7.6</ele>
        <time>2020-05-31T13:58:10Z</time>
      </trkpt>
      <trkpt lat="46.26476" lon="-0.72408">
        <ele>7.5</ele>
        <time>2020-05-31T13:58:11Z</time>
      </trkpt>
      <trkpt lat="46.26474" lon="-0.72415">
        <ele>7.5</ele>
        <time>2020-05-31T13:58:12Z</time>
      </trkpt>
      <trkpt lat="46.26471" lon="-0.72423">
        <ele>7.4</ele>
        <time>2020-05-31T13:58:13Z</time>
      </trkpt>
      <trkpt lat="46.26469" lon="-0.7243">
        <ele>7.3</ele>
        <time>2020-05-31T13:58:14Z</time>
      </trkpt>
      <trkpt lat="46.26466" lon="-0.72437">
        <ele>7.3</ele>
        <time>2020-05-31T13:58:15Z</time>
      </trkpt>
      <trkpt lat="46.26463" lon="-0.72443">
        <ele>7.2</ele>
        <time>2020-05-31T13:58:16Z</time>
      </trkpt>
      <trkpt lat="46.26461" lon="-0.7245">
        <ele>7.2</ele>
        <time>2020-05-31T13:58:17Z</time>
      </trkpt>
      <trkpt lat="46.26458" lon="-0.72457">
        <ele>7.2</ele>
        <time>2020-05-31T13:58:18Z</time>
      </trkpt>
      <trkpt lat="46.26455" lon="-0.72463">
        <ele>7.1</ele>
        <time>2020-05-31T13:58:19Z</time>
      </trkpt>
      <trkpt lat="46.26452" lon="-0.7247">
        <ele>7.1</ele>
        <time>2020-05-31T13:58:20Z</time>
      </trkpt>
      <trkpt lat="46.26448" lon="-0.72475">
        <ele>7.1</ele>
        <time>2020-05-31T13:58:21Z</time>
      </trkpt>
      <trkpt lat="46.26444" lon="-0.72482">
        <ele>7</ele>
        <time>2020-05-31T13:58:22Z</time>
      </trkpt>
      <trkpt lat="46.2644" lon="-0.72489">
        <ele>7</ele>
        <time>2020-05-31T13:58:23Z</time>
      </trkpt>
      <trkpt lat="46.26437" lon="-0.72496">
        <ele>6.9</ele>
        <time>2020-05-31T13:58:24Z</time>
      </trkpt>
      <trkpt lat="46.26433" lon="-0.72502">
        <ele>6.8</ele>
        <time>2020-05-31T13:58:25Z</time>
      </trkpt>
      <trkpt lat="46.26429" lon="-0.72508">
        <ele>6.7</ele>
        <time>2020-05-31T13:58:26Z</time>
      </trkpt>
      <trkpt lat="46.26425" lon="-0.72514">
        <ele>6.6</ele>
        <time>2020-05-31T13:58:27Z</time>
      </trkpt>
      <trkpt lat="46.26422" lon="-0.7252">
        <ele>6.5</ele>
        <time>2020-05-31T13:58:28Z</time>
      </trkpt>
      <trkpt lat="46.26418" lon="-0.72527">
        <ele>6.4</ele>
        <time>2020-05-31T13:58:29Z</time>
      </trkpt>
      <trkpt lat="46.26414" lon="-0.72533">
        <ele>6.3</ele>
        <time>2020-05-31T13:58:30Z</time>
      </trkpt>
      <trkpt lat="46.2641" lon="-0.72539">
        <ele>6.3</ele>
        <time>2020-05-31T13:58:31Z</time>
      </trkpt>
      <trkpt lat="46.26405" lon="-0.72545">
        <ele>6.3</ele>
        <time>2020-05-31T13:58:32Z</time>
      </trkpt>
      <trkpt lat="46.26401" lon="-0.72551">
        <ele>6.3</ele>
        <time>2020-05-31T13:58:33Z</time>
      </trkpt>
      <trkpt lat="46.26396" lon="-0.72557">
        <ele>6.3</ele>
        <time>2020-05-31T13:58:34Z</time>
      </trkpt>
      <trkpt lat="46.26391" lon="-0.72564">
        <ele>6.3</ele>
        <time>2020-05-31T13:58:35Z</time>
      </trkpt>
      <trkpt lat="46.26386" lon="-0.7257">
        <ele>6.3</ele>
        <time>2020-05-31T13:58:36Z</time>
      </trkpt>
      <trkpt lat="46.26381" lon="-0.72576">
        <ele>6.3</ele>
        <time>2020-05-31T13:58:37Z</time>
      </trkpt>
      <trkpt lat="46.26375" lon="-0.72581">
        <ele>6.2</ele>
        <time>2020-05-31T13:58:38Z</time>
      </trkpt>
      <trkpt lat="46.2637" lon="-0.72587">
        <ele>6.2</ele>
        <time>2020-05-31T13:58:39Z</time>
      </trkpt>
      <trkpt lat="46.26365" lon="-0.72592">
        <ele>6.2</ele>
        <time>2020-05-31T13:58:40Z</time>
      </trkpt>
      <trkpt lat="46.2636" lon="-0.72597">
        <ele>6.2</ele>
        <time>2020-05-31T13:58:41Z</time>
      </trkpt>
      <trkpt lat="46.26355" lon="-0.72601">
        <ele>6.2</ele>
        <time>2020-05-31T13:58:42Z</time>
      </trkpt>
      <trkpt lat="46.2635" lon="-0.72606">
        <ele>6.2</ele>
        <time>2020-05-31T13:58:43Z</time>
      </trkpt>
      <trkpt lat="46.26345" lon="-0.72611">
        <ele>6.2</ele>
        <time>2020-05-31T13:58:44Z</time>
      </trkpt>
      <trkpt lat="46.2634" lon="-0.72616">
        <ele>6.3</ele>
        <time>2020-05-31T13:58:45Z</time>
      </trkpt>
      <trkpt lat="46.26335" lon="-0.72621">
        <ele>6.3</ele>
        <time>2020-05-31T13:58:46Z</time>
      </trkpt>
      <trkpt lat="46.2633" lon="-0.72625">
        <ele>6.3</ele>
        <time>2020-05-31T13:58:47Z</time>
      </trkpt>
      <trkpt lat="46.26325" lon="-0.72628">
        <ele>6.4</ele>
        <time>2020-05-31T13:58:48Z</time>
      </trkpt>
      <trkpt lat="46.2632" lon="-0.72632">
        <ele>6.4</ele>
        <time>2020-05-31T13:58:49Z</time>
      </trkpt>
      <trkpt lat="46.26315" lon="-0.72635">
        <ele>6.4</ele>
        <time>2020-05-31T13:58:50Z</time>
      </trkpt>
      <trkpt lat="46.2631" lon="-0.72639">
        <ele>6.5</ele>
        <time>2020-05-31T13:58:51Z</time>
      </trkpt>
      <trkpt lat="46.26305" lon="-0.72643">
        <ele>6.5</ele>
        <time>2020-05-31T13:58:52Z</time>
      </trkpt>
      <trkpt lat="46.263" lon="-0.72646">
        <ele>6.5</ele>
        <time>2020-05-31T13:58:53Z</time>
      </trkpt>
      <trkpt lat="46.26294" lon="-0.72651">
        <ele>6.5</ele>
        <time>2020-05-31T13:58:54Z</time>
      </trkpt>
      <trkpt lat="46.26289" lon="-0.72656">
        <ele>6.5</ele>
        <time>2020-05-31T13:58:55Z</time>
      </trkpt>
      <trkpt lat="46.26284" lon="-0.7266">
        <ele>6.5</ele>
        <time>2020-05-31T13:58:56Z</time>
      </trkpt>
      <trkpt lat="46.26278" lon="-0.72664">
        <ele>6.5</ele>
        <time>2020-05-31T13:58:57Z</time>
      </trkpt>
      <trkpt lat="46.26272" lon="-0.72668">
        <ele>6.5</ele>
        <time>2020-05-31T13:58:58Z</time>
      </trkpt>
      <trkpt lat="46.26267" lon="-0.72672">
        <ele>6.5</ele>
        <time>2020-05-31T13:58:59Z</time>
      </trkpt>
      <trkpt lat="46.26261" lon="-0.72677">
        <ele>6.5</ele>
        <time>2020-05-31T13:59:00Z</time>
      </trkpt>
      <trkpt lat="46.26255" lon="-0.72681">
        <ele>6.5</ele>
        <time>2020-05-31T13:59:01Z</time>
      </trkpt>
      <trkpt lat="46.26248" lon="-0.72685">
        <ele>6.6</ele>
        <time>2020-05-31T13:59:02Z</time>
      </trkpt>
      <trkpt lat="46.26242" lon="-0.72688">
        <ele>6.6</ele>
        <time>2020-05-31T13:59:03Z</time>
      </trkpt>
      <trkpt lat="46.26236" lon="-0.72692">
        <ele>6.6</ele>
        <time>2020-05-31T13:59:04Z</time>
      </trkpt>
      <trkpt lat="46.26229" lon="-0.72696">
        <ele>6.7</ele>
        <time>2020-05-31T13:59:05Z</time>
      </trkpt>
      <trkpt lat="46.26223" lon="-0.727">
        <ele>6.7</ele>
        <time>2020-05-31T13:59:06Z</time>
      </trkpt>
      <trkpt lat="46.26217" lon="-0.72705">
        <ele>6.7</ele>
        <time>2020-05-31T13:59:07Z</time>
      </trkpt>
      <trkpt lat="46.26211" lon="-0.7271">
        <ele>6.7</ele>
        <time>2020-05-31T13:59:08Z</time>
      </trkpt>
      <trkpt lat="46.26205" lon="-0.72715">
        <ele>6.7</ele>
        <time>2020-05-31T13:59:09Z</time>
      </trkpt>
      <trkpt lat="46.262" lon="-0.72721">
        <ele>6.7</ele>
        <time>2020-05-31T13:59:10Z</time>
      </trkpt>
      <trkpt lat="46.26194" lon="-0.72726">
        <ele>6.7</ele>
        <time>2020-05-31T13:59:11Z</time>
      </trkpt>
      <trkpt lat="46.26187" lon="-0.72731">
        <ele>6.7</ele>
        <time>2020-05-31T13:59:12Z</time>
      </trkpt>
      <trkpt lat="46.26181" lon="-0.72736">
        <ele>6.7</ele>
        <time>2020-05-31T13:59:13Z</time>
      </trkpt>
      <trkpt lat="46.26175" lon="-0.72741">
        <ele>6.7</ele>
        <time>2020-05-31T13:59:14Z</time>
      </trkpt>
      <trkpt lat="46.26169" lon="-0.72746">
        <ele>6.7</ele>
        <time>2020-05-31T13:59:15Z</time>
      </trkpt>
      <trkpt lat="46.26163" lon="-0.7275">
        <ele>6.8</ele>
        <time>2020-05-31T13:59:16Z</time>
      </trkpt>
      <trkpt lat="46.26158" lon="-0.72756">
        <ele>6.8</ele>
        <time>2020-05-31T13:59:17Z</time>
      </trkpt>
      <trkpt lat="46.26152" lon="-0.72761">
        <ele>6.8</ele>
        <time>2020-05-31T13:59:18Z</time>
      </trkpt>
      <trkpt lat="46.26146" lon="-0.72765">
        <ele>6.8</ele>
        <time>2020-05-31T13:59:19Z</time>
      </trkpt>
      <trkpt lat="46.2614" lon="-0.72769">
        <ele>6.9</ele>
        <time>2020-05-31T13:59:20Z</time>
      </trkpt>
      <trkpt lat="46.26134" lon="-0.72774">
        <ele>6.9</ele>
        <time>2020-05-31T13:59:21Z</time>
      </trkpt>
      <trkpt lat="46.26128" lon="-0.72779">
        <ele>6.9</ele>
        <time>2020-05-31T13:59:22Z</time>
      </trkpt>
      <trkpt lat="46.26122" lon="-0.72784">
        <ele>6.9</ele>
        <time>2020-05-31T13:59:23Z</time>
      </trkpt>
      <trkpt lat="46.26116" lon="-0.72789">
        <ele>6.9</ele>
        <time>2020-05-31T13:59:24Z</time>
      </trkpt>
      <trkpt lat="46.2611" lon="-0.72793">
        <ele>6.9</ele>
        <time>2020-05-31T13:59:25Z</time>
      </trkpt>
      <trkpt lat="46.26104" lon="-0.72797">
        <ele>6.8</ele>
        <time>2020-05-31T13:59:26Z</time>
      </trkpt>
      <trkpt lat="46.26097" lon="-0.72802">
        <ele>6.8</ele>
        <time>2020-05-31T13:59:27Z</time>
      </trkpt>
      <trkpt lat="46.26091" lon="-0.72807">
        <ele>6.8</ele>
        <time>2020-05-31T13:59:28Z</time>
      </trkpt>
      <trkpt lat="46.26085" lon="-0.72812">
        <ele>6.8</ele>
        <time>2020-05-31T13:59:29Z</time>
      </trkpt>
      <trkpt lat="46.26079" lon="-0.72816">
        <ele>6.7</ele>
        <time>2020-05-31T13:59:30Z</time>
      </trkpt>
      <trkpt lat="46.26074" lon="-0.72821">
        <ele>6.6</ele>
        <time>2020-05-31T13:59:31Z</time>
      </trkpt>
      <trkpt lat="46.26068" lon="-0.72826">
        <ele>6.5</ele>
        <time>2020-05-31T13:59:32Z</time>
      </trkpt>
      <trkpt lat="46.26062" lon="-0.7283">
        <ele>6.4</ele>
        <time>2020-05-31T13:59:33Z</time>
      </trkpt>
      <trkpt lat="46.26056" lon="-0.72835">
        <ele>6.3</ele>
        <time>2020-05-31T13:59:34Z</time>
      </trkpt>
      <trkpt lat="46.26051" lon="-0.72841">
        <ele>6.1</ele>
        <time>2020-05-31T13:59:35Z</time>
      </trkpt>
      <trkpt lat="46.26045" lon="-0.72846">
        <ele>6</ele>
        <time>2020-05-31T13:59:36Z</time>
      </trkpt>
      <trkpt lat="46.2604" lon="-0.72852">
        <ele>5.9</ele>
        <time>2020-05-31T13:59:37Z</time>
      </trkpt>
      <trkpt lat="46.26035" lon="-0.72858">
        <ele>5.8</ele>
        <time>2020-05-31T13:59:38Z</time>
      </trkpt>
      <trkpt lat="46.2603" lon="-0.72865">
        <ele>5.8</ele>
        <time>2020-05-31T13:59:39Z</time>
      </trkpt>
      <trkpt lat="46.26025" lon="-0.72872">
        <ele>5.8</ele>
        <time>2020-05-31T13:59:40Z</time>
      </trkpt>
      <trkpt lat="46.26021" lon="-0.72878">
        <ele>5.7</ele>
        <time>2020-05-31T13:59:41Z</time>
      </trkpt>
      <trkpt lat="46.26016" lon="-0.72885">
        <ele>5.7</ele>
        <time>2020-05-31T13:59:42Z</time>
      </trkpt>
      <trkpt lat="46.26012" lon="-0.72892">
        <ele>5.6</ele>
        <time>2020-05-31T13:59:43Z</time>
      </trkpt>
      <trkpt lat="46.26008" lon="-0.72899">
        <ele>5.5</ele>
        <time>2020-05-31T13:59:44Z</time>
      </trkpt>
      <trkpt lat="46.26005" lon="-0.72907">
        <ele>5.5</ele>
        <time>2020-05-31T13:59:45Z</time>
      </trkpt>
      <trkpt lat="46.26001" lon="-0.72915">
        <ele>5.5</ele>
        <time>2020-05-31T13:59:46Z</time>
      </trkpt>
      <trkpt lat="46.25997" lon="-0.72922">
        <ele>5.5</ele>
        <time>2020-05-31T13:59:47Z</time>
      </trkpt>
      <trkpt lat="46.25994" lon="-0.7293">
        <ele>5.4</ele>
        <time>2020-05-31T13:59:48Z</time>
      </trkpt>
      <trkpt lat="46.25991" lon="-0.72938">
        <ele>5.4</ele>
        <time>2020-05-31T13:59:49Z</time>
      </trkpt>
      <trkpt lat="46.25988" lon="-0.72946">
        <ele>5.4</ele>
        <time>2020-05-31T13:59:50Z</time>
      </trkpt>
      <trkpt lat="46.25984" lon="-0.72953">
        <ele>5.4</ele>
        <time>2020-05-31T13:59:51Z</time>
      </trkpt>
      <trkpt lat="46.25981" lon="-0.72961">
        <ele>5.4</ele>
        <time>2020-05-31T13:59:52Z</time>
      </trkpt>
      <trkpt lat="46.25978" lon="-0.72968">
        <ele>5.5</ele>
        <time>2020-05-31T13:59:53Z</time>
      </trkpt>
      <trkpt lat="46.25974" lon="-0.72975">
        <ele>5.5</ele>
        <time>2020-05-31T13:59:54Z</time>
      </trkpt>
      <trkpt lat="46.2597" lon="-0.72981">
        <ele>5.5</ele>
        <time>2020-05-31T13:59:55Z</time>
      </trkpt>
      <trkpt lat="46.25966" lon="-0.72988">
        <ele>5.5</ele>
        <time>2020-05-31T13:59:56Z</time>
      </trkpt>
      <trkpt lat="46.25964" lon="-0.72995">
        <ele>5.6</ele>
        <time>2020-05-31T13:59:57Z</time>
      </trkpt>
      <trkpt lat="46.2596" lon="-0.73001">
        <ele>5.6</ele>
        <time>2020-05-31T13:59:58Z</time>
      </trkpt>
      <trkpt lat="46.25957" lon="-0.73007">
        <ele>5.6</ele>
        <time>2020-05-31T13:59:59Z</time>
      </trkpt>
      <trkpt lat="46.25953" lon="-0.73012">
        <ele>5.6</ele>
        <time>2020-05-31T14:00:00Z</time>
      </trkpt>
      <trkpt lat="46.2595" lon="-0.73018">
        <ele>5.7</ele>
        <time>2020-05-31T14:00:01Z</time>
      </trkpt>
      <trkpt lat="46.25947" lon="-0.73023">
        <ele>5.7</ele>
        <time>2020-05-31T14:00:02Z</time>
      </trkpt>
      <trkpt lat="46.25944" lon="-0.73028">
        <ele>5.8</ele>
        <time>2020-05-31T14:00:03Z</time>
      </trkpt>
      <trkpt lat="46.25941" lon="-0.73034">
        <ele>5.8</ele>
        <time>2020-05-31T14:00:04Z</time>
      </trkpt>
      <trkpt lat="46.25938" lon="-0.7304">
        <ele>5.9</ele>
        <time>2020-05-31T14:00:05Z</time>
      </trkpt>
      <trkpt lat="46.25934" lon="-0.73046">
        <ele>5.9</ele>
        <time>2020-05-31T14:00:06Z</time>
      </trkpt>
      <trkpt lat="46.25932" lon="-0.73052">
        <ele>6</ele>
        <time>2020-05-31T14:00:07Z</time>
      </trkpt>
      <trkpt lat="46.25929" lon="-0.73058">
        <ele>6.1</ele>
        <time>2020-05-31T14:00:08Z</time>
      </trkpt>
      <trkpt lat="46.25926" lon="-0.73064">
        <ele>6.2</ele>
        <time>2020-05-31T14:00:09Z</time>
      </trkpt>
      <trkpt lat="46.25924" lon="-0.7307">
        <ele>6.3</ele>
        <time>2020-05-31T14:00:10Z</time>
      </trkpt>
      <trkpt lat="46.25921" lon="-0.73077">
        <ele>6.4</ele>
        <time>2020-05-31T14:00:11Z</time>
      </trkpt>
      <trkpt lat="46.25918" lon="-0.73083">
        <ele>6.5</ele>
        <time>2020-05-31T14:00:12Z</time>
      </trkpt>
      <trkpt lat="46.25916" lon="-0.7309">
        <ele>6.6</ele>
        <time>2020-05-31T14:00:13Z</time>
      </trkpt>
      <trkpt lat="46.25915" lon="-0.73097">
        <ele>6.7</ele>
        <time>2020-05-31T14:00:14Z</time>
      </trkpt>
      <trkpt lat="46.25913" lon="-0.73103">
        <ele>6.7</ele>
        <time>2020-05-31T14:00:15Z</time>
      </trkpt>
      <trkpt lat="46.2591" lon="-0.7311">
        <ele>6.8</ele>
        <time>2020-05-31T14:00:16Z</time>
      </trkpt>
      <trkpt lat="46.25908" lon="-0.73116">
        <ele>6.8</ele>
        <time>2020-05-31T14:00:17Z</time>
      </trkpt>
      <trkpt lat="46.25907" lon="-0.73123">
        <ele>6.8</ele>
        <time>2020-05-31T14:00:18Z</time>
      </trkpt>
      <trkpt lat="46.25904" lon="-0.73129">
        <ele>6.8</ele>
        <time>2020-05-31T14:00:19Z</time>
      </trkpt>
      <trkpt lat="46.25901" lon="-0.73136">
        <ele>6.8</ele>
        <time>2020-05-31T14:00:20Z</time>
      </trkpt>
      <trkpt lat="46.25899" lon="-0.73143">
        <ele>6.9</ele>
        <time>2020-05-31T14:00:21Z</time>
      </trkpt>
      <trkpt lat="46.25897" lon="-0.73149">
        <ele>7</ele>
        <time>2020-05-31T14:00:22Z</time>
      </trkpt>
      <trkpt lat="46.25896" lon="-0.73156">
        <ele>7.1</ele>
        <time>2020-05-31T14:00:23Z</time>
      </trkpt>
      <trkpt lat="46.25887" lon="-0.73159">
        <ele>7.2</ele>
        <time>2020-05-31T14:00:24Z</time>
      </trkpt>
      <trkpt lat="46.25884" lon="-0.73165">
        <ele>7.3</ele>
        <time>2020-05-31T14:00:25Z</time>
      </trkpt>
      <trkpt lat="46.25882" lon="-0.73172">
        <ele>7.4</ele>
        <time>2020-05-31T14:00:26Z</time>
      </trkpt>
      <trkpt lat="46.2588" lon="-0.73179">
        <ele>7.5</ele>
        <time>2020-05-31T14:00:27Z</time>
      </trkpt>
      <trkpt lat="46.25878" lon="-0.73186">
        <ele>7.6</ele>
        <time>2020-05-31T14:00:28Z</time>
      </trkpt>
      <trkpt lat="46.25876" lon="-0.73194">
        <ele>7.6</ele>
        <time>2020-05-31T14:00:29Z</time>
      </trkpt>
      <trkpt lat="46.25874" lon="-0.73201">
        <ele>7.7</ele>
        <time>2020-05-31T14:00:30Z</time>
      </trkpt>
      <trkpt lat="46.25873" lon="-0.73209">
        <ele>7.7</ele>
        <time>2020-05-31T14:00:31Z</time>
      </trkpt>
      <trkpt lat="46.25871" lon="-0.73216">
        <ele>7.8</ele>
        <time>2020-05-31T14:00:32Z</time>
      </trkpt>
      <trkpt lat="46.2587" lon="-0.73223">
        <ele>7.9</ele>
        <time>2020-05-31T14:00:33Z</time>
      </trkpt>
      <trkpt lat="46.25868" lon="-0.7323">
        <ele>8</ele>
        <time>2020-05-31T14:00:34Z</time>
      </trkpt>
      <trkpt lat="46.25866" lon="-0.73237">
        <ele>8.2</ele>
        <time>2020-05-31T14:00:35Z</time>
      </trkpt>
      <trkpt lat="46.25864" lon="-0.73244">
        <ele>8.3</ele>
        <time>2020-05-31T14:00:36Z</time>
      </trkpt>
      <trkpt lat="46.25863" lon="-0.73251">
        <ele>8.4</ele>
        <time>2020-05-31T14:00:37Z</time>
      </trkpt>
      <trkpt lat="46.25861" lon="-0.73257">
        <ele>8.5</ele>
        <time>2020-05-31T14:00:38Z</time>
      </trkpt>
      <trkpt lat="46.25859" lon="-0.73264">
        <ele>8.6</ele>
        <time>2020-05-31T14:00:39Z</time>
      </trkpt>
      <trkpt lat="46.25858" lon="-0.7327">
        <ele>8.6</ele>
        <time>2020-05-31T14:00:40Z</time>
      </trkpt>
      <trkpt lat="46.25856" lon="-0.73277">
        <ele>8.7</ele>
        <time>2020-05-31T14:00:41Z</time>
      </trkpt>
      <trkpt lat="46.25853" lon="-0.73282">
        <ele>8.8</ele>
        <time>2020-05-31T14:00:42Z</time>
      </trkpt>
      <trkpt lat="46.2585" lon="-0.73288">
        <ele>8.8</ele>
        <time>2020-05-31T14:00:43Z</time>
      </trkpt>
      <trkpt lat="46.25847" lon="-0.73294">
        <ele>8.9</ele>
        <time>2020-05-31T14:00:44Z</time>
      </trkpt>
      <trkpt lat="46.25844" lon="-0.73301">
        <ele>9</ele>
        <time>2020-05-31T14:00:45Z</time>
      </trkpt>
      <trkpt lat="46.25842" lon="-0.73306">
        <ele>9.1</ele>
        <time>2020-05-31T14:00:46Z</time>
      </trkpt>
      <trkpt lat="46.2584" lon="-0.73313">
        <ele>9.2</ele>
        <time>2020-05-31T14:00:47Z</time>
      </trkpt>
      <trkpt lat="46.25838" lon="-0.73319">
        <ele>9.2</ele>
        <time>2020-05-31T14:00:48Z</time>
      </trkpt>
      <trkpt lat="46.25835" lon="-0.73323">
        <ele>9.3</ele>
        <time>2020-05-31T14:00:49Z</time>
      </trkpt>
      <trkpt lat="46.25833" lon="-0.73328">
        <ele>9.3</ele>
        <time>2020-05-31T14:00:50Z</time>
      </trkpt>
      <trkpt lat="46.2583" lon="-0.73331">
        <ele>9.4</ele>
        <time>2020-05-31T14:00:51Z</time>
      </trkpt>
      <trkpt lat="46.25828" lon="-0.73335">
        <ele>9.4</ele>
        <time>2020-05-31T14:00:52Z</time>
      </trkpt>
      <trkpt lat="46.25825" lon="-0.73339">
        <ele>9.4</ele>
        <time>2020-05-31T14:00:53Z</time>
      </trkpt>
      <trkpt lat="46.25823" lon="-0.73343">
        <ele>9.4</ele>
        <time>2020-05-31T14:00:54Z</time>
      </trkpt>
      <trkpt lat="46.2582" lon="-0.73346">
        <ele>9.4</ele>
        <time>2020-05-31T14:00:55Z</time>
      </trkpt>
      <trkpt lat="46.25818" lon="-0.73349">
        <ele>9.4</ele>
        <time>2020-05-31T14:00:56Z</time>
      </trkpt>
      <trkpt lat="46.25815" lon="-0.73352">
        <ele>9.5</ele>
        <time>2020-05-31T14:00:57Z</time>
      </trkpt>
      <trkpt lat="46.25812" lon="-0.73355">
        <ele>9.5</ele>
        <time>2020-05-31T14:00:58Z</time>
      </trkpt>
      <trkpt lat="46.25809" lon="-0.73358">
        <ele>9.5</ele>
        <time>2020-05-31T14:00:59Z</time>
      </trkpt>
      <trkpt lat="46.25807" lon="-0.73361">
        <ele>9.5</ele>
        <time>2020-05-31T14:01:00Z</time>
      </trkpt>
      <trkpt lat="46.25805" lon="-0.73365">
        <ele>9.5</ele>
        <time>2020-05-31T14:01:01Z</time>
      </trkpt>
      <trkpt lat="46.25802" lon="-0.73368">
        <ele>9.5</ele>
        <time>2020-05-31T14:01:02Z</time>
      </trkpt>
      <trkpt lat="46.25799" lon="-0.73371">
        <ele>9.5</ele>
        <time>2020-05-31T14:01:03Z</time>
      </trkpt>
      <trkpt lat="46.25797" lon="-0.73375">
        <ele>9.5</ele>
        <time>2020-05-31T14:01:04Z</time>
      </trkpt>
      <trkpt lat="46.25794" lon="-0.73379">
        <ele>9.4</ele>
        <time>2020-05-31T14:01:05Z</time>
      </trkpt>
      <trkpt lat="46.25791" lon="-0.73382">
        <ele>9.4</ele>
        <time>2020-05-31T14:01:06Z</time>
      </trkpt>
      <trkpt lat="46.25788" lon="-0.73386">
        <ele>9.4</ele>
        <time>2020-05-31T14:01:07Z</time>
      </trkpt>
      <trkpt lat="46.25785" lon="-0.7339">
        <ele>9.4</ele>
        <time>2020-05-31T14:01:08Z</time>
      </trkpt>
      <trkpt lat="46.25782" lon="-0.73394">
        <ele>9.4</ele>
        <time>2020-05-31T14:01:09Z</time>
      </trkpt>
      <trkpt lat="46.25778" lon="-0.73398">
        <ele>9.4</ele>
        <time>2020-05-31T14:01:10Z</time>
      </trkpt>
      <trkpt lat="46.25775" lon="-0.73403">
        <ele>9.4</ele>
        <time>2020-05-31T14:01:11Z</time>
      </trkpt>
      <trkpt lat="46.25771" lon="-0.73407">
        <ele>9.4</ele>
        <time>2020-05-31T14:01:12Z</time>
      </trkpt>
      <trkpt lat="46.25768" lon="-0.73412">
        <ele>9.3</ele>
        <time>2020-05-31T14:01:13Z</time>
      </trkpt>
      <trkpt lat="46.25764" lon="-0.73416">
        <ele>9.3</ele>
        <time>2020-05-31T14:01:14Z</time>
      </trkpt>
      <trkpt lat="46.25761" lon="-0.73421">
        <ele>9.3</ele>
        <time>2020-05-31T14:01:15Z</time>
      </trkpt>
      <trkpt lat="46.25756" lon="-0.73425">
        <ele>9.3</ele>
        <time>2020-05-31T14:01:16Z</time>
      </trkpt>
      <trkpt lat="46.25753" lon="-0.7343">
        <ele>9.3</ele>
        <time>2020-05-31T14:01:17Z</time>
      </trkpt>
      <trkpt lat="46.25749" lon="-0.73435">
        <ele>9.3</ele>
        <time>2020-05-31T14:01:18Z</time>
      </trkpt>
      <trkpt lat="46.25745" lon="-0.73441">
        <ele>9.3</ele>
        <time>2020-05-31T14:01:19Z</time>
      </trkpt>
      <trkpt lat="46.25741" lon="-0.73446">
        <ele>9.3</ele>
        <time>2020-05-31T14:01:20Z</time>
      </trkpt>
      <trkpt lat="46.25737" lon="-0.73451">
        <ele>9.3</ele>
        <time>2020-05-31T14:01:21Z</time>
      </trkpt>
      <trkpt lat="46.25734" lon="-0.73457">
        <ele>9.2</ele>
        <time>2020-05-31T14:01:22Z</time>
      </trkpt>
      <trkpt lat="46.25731" lon="-0.73461">
        <ele>9.2</ele>
        <time>2020-05-31T14:01:23Z</time>
      </trkpt>
      <trkpt lat="46.25727" lon="-0.73467">
        <ele>9.2</ele>
        <time>2020-05-31T14:01:24Z</time>
      </trkpt>
      <trkpt lat="46.25723" lon="-0.73471">
        <ele>9.2</ele>
        <time>2020-05-31T14:01:25Z</time>
      </trkpt>
      <trkpt lat="46.25719" lon="-0.73476">
        <ele>9.2</ele>
        <time>2020-05-31T14:01:26Z</time>
      </trkpt>
      <trkpt lat="46.25716" lon="-0.7348">
        <ele>9.2</ele>
        <time>2020-05-31T14:01:27Z</time>
      </trkpt>
      <trkpt lat="46.25712" lon="-0.73485">
        <ele>9.2</ele>
        <time>2020-05-31T14:01:28Z</time>
      </trkpt>
      <trkpt lat="46.25708" lon="-0.7349">
        <ele>9.2</ele>
        <time>2020-05-31T14:01:29Z</time>
      </trkpt>
      <trkpt lat="46.25705" lon="-0.73495">
        <ele>9.2</ele>
        <time>2020-05-31T14:01:30Z</time>
      </trkpt>
      <trkpt lat="46.25701" lon="-0.73499">
        <ele>9.2</ele>
        <time>2020-05-31T14:01:31Z</time>
      </trkpt>
      <trkpt lat="46.25698" lon="-0.73504">
        <ele>9.2</ele>
        <time>2020-05-31T14:01:32Z</time>
      </trkpt>
      <trkpt lat="46.25695" lon="-0.73509">
        <ele>9.2</ele>
        <time>2020-05-31T14:01:33Z</time>
      </trkpt>
      <trkpt lat="46.25692" lon="-0.73514">
        <ele>9.1</ele>
        <time>2020-05-31T14:01:34Z</time>
      </trkpt>
      <trkpt lat="46.2569" lon="-0.7352">
        <ele>9.1</ele>
        <time>2020-05-31T14:01:35Z</time>
      </trkpt>
      <trkpt lat="46.25687" lon="-0.73526">
        <ele>9.1</ele>
        <time>2020-05-31T14:01:36Z</time>
      </trkpt>
      <trkpt lat="46.25685" lon="-0.73532">
        <ele>9</ele>
        <time>2020-05-31T14:01:37Z</time>
      </trkpt>
      <trkpt lat="46.25682" lon="-0.73537">
        <ele>9</ele>
        <time>2020-05-31T14:01:38Z</time>
      </trkpt>
      <trkpt lat="46.25679" lon="-0.73542">
        <ele>9</ele>
        <time>2020-05-31T14:01:39Z</time>
      </trkpt>
      <trkpt lat="46.25675" lon="-0.73547">
        <ele>8.9</ele>
        <time>2020-05-31T14:01:40Z</time>
      </trkpt>
      <trkpt lat="46.25672" lon="-0.73552">
        <ele>8.9</ele>
        <time>2020-05-31T14:01:41Z</time>
      </trkpt>
      <trkpt lat="46.25669" lon="-0.73558">
        <ele>8.9</ele>
        <time>2020-05-31T14:01:42Z</time>
      </trkpt>
      <trkpt lat="46.25665" lon="-0.73563">
        <ele>8.8</ele>
        <time>2020-05-31T14:01:43Z</time>
      </trkpt>
      <trkpt lat="46.25662" lon="-0.73568">
        <ele>8.8</ele>
        <time>2020-05-31T14:01:44Z</time>
      </trkpt>
      <trkpt lat="46.25659" lon="-0.73573">
        <ele>8.8</ele>
        <time>2020-05-31T14:01:45Z</time>
      </trkpt>
      <trkpt lat="46.25657" lon="-0.73579">
        <ele>8.8</ele>
        <time>2020-05-31T14:01:46Z</time>
      </trkpt>
      <trkpt lat="46.25655" lon="-0.73585">
        <ele>8.7</ele>
        <time>2020-05-31T14:01:47Z</time>
      </trkpt>
      <trkpt lat="46.25653" lon="-0.7359">
        <ele>8.7</ele>
        <time>2020-05-31T14:01:48Z</time>
      </trkpt>
      <trkpt lat="46.25651" lon="-0.73597">
        <ele>8.7</ele>
        <time>2020-05-31T14:01:49Z</time>
      </trkpt>
      <trkpt lat="46.25649" lon="-0.73603">
        <ele>8.7</ele>
        <time>2020-05-31T14:01:50Z</time>
      </trkpt>
      <trkpt lat="46.25647" lon="-0.7361">
        <ele>8.7</ele>
        <time>2020-05-31T14:01:51Z</time>
      </trkpt>
      <trkpt lat="46.25644" lon="-0.73615">
        <ele>8.6</ele>
        <time>2020-05-31T14:01:52Z</time>
      </trkpt>
      <trkpt lat="46.25642" lon="-0.73621">
        <ele>8.6</ele>
        <time>2020-05-31T14:01:53Z</time>
      </trkpt>
      <trkpt lat="46.25641" lon="-0.73628">
        <ele>8.6</ele>
        <time>2020-05-31T14:01:54Z</time>
      </trkpt>
      <trkpt lat="46.25638" lon="-0.73634">
        <ele>8.5</ele>
        <time>2020-05-31T14:01:55Z</time>
      </trkpt>
      <trkpt lat="46.25636" lon="-0.7364">
        <ele>8.5</ele>
        <time>2020-05-31T14:01:56Z</time>
      </trkpt>
      <trkpt lat="46.25634" lon="-0.73646">
        <ele>8.5</ele>
        <time>2020-05-31T14:01:57Z</time>
      </trkpt>
      <trkpt lat="46.25633" lon="-0.73653">
        <ele>8.5</ele>
        <time>2020-05-31T14:01:58Z</time>
      </trkpt>
      <trkpt lat="46.25631" lon="-0.73658">
        <ele>8.4</ele>
        <time>2020-05-31T14:01:59Z</time>
      </trkpt>
      <trkpt lat="46.2563" lon="-0.73665">
        <ele>8.4</ele>
        <time>2020-05-31T14:02:00Z</time>
      </trkpt>
      <trkpt lat="46.25628" lon="-0.73672">
        <ele>8.4</ele>
        <time>2020-05-31T14:02:01Z</time>
      </trkpt>
      <trkpt lat="46.25626" lon="-0.73678">
        <ele>8.3</ele>
        <time>2020-05-31T14:02:02Z</time>
      </trkpt>
      <trkpt lat="46.25623" lon="-0.73684">
        <ele>8.3</ele>
        <time>2020-05-31T14:02:03Z</time>
      </trkpt>
      <trkpt lat="46.25621" lon="-0.73691">
        <ele>8.3</ele>
        <time>2020-05-31T14:02:04Z</time>
      </trkpt>
      <trkpt lat="46.25619" lon="-0.73697">
        <ele>8.3</ele>
        <time>2020-05-31T14:02:05Z</time>
      </trkpt>
      <trkpt lat="46.25617" lon="-0.73704">
        <ele>8.3</ele>
        <time>2020-05-31T14:02:06Z</time>
      </trkpt>
      <trkpt lat="46.25616" lon="-0.7371">
        <ele>8.3</ele>
        <time>2020-05-31T14:02:07Z</time>
      </trkpt>
      <trkpt lat="46.25614" lon="-0.73717">
        <ele>8.3</ele>
        <time>2020-05-31T14:02:08Z</time>
      </trkpt>
      <trkpt lat="46.25613" lon="-0.73724">
        <ele>8.3</ele>
        <time>2020-05-31T14:02:09Z</time>
      </trkpt>
      <trkpt lat="46.25612" lon="-0.73731">
        <ele>8.3</ele>
        <time>2020-05-31T14:02:10Z</time>
      </trkpt>
      <trkpt lat="46.2561" lon="-0.73737">
        <ele>8.3</ele>
        <time>2020-05-31T14:02:11Z</time>
      </trkpt>
      <trkpt lat="46.25609" lon="-0.73744">
        <ele>8.2</ele>
        <time>2020-05-31T14:02:12Z</time>
      </trkpt>
      <trkpt lat="46.25607" lon="-0.73752">
        <ele>8.2</ele>
        <time>2020-05-31T14:02:13Z</time>
      </trkpt>
      <trkpt lat="46.25606" lon="-0.73759">
        <ele>8.2</ele>
        <time>2020-05-31T14:02:14Z</time>
      </trkpt>
      <trkpt lat="46.25605" lon="-0.73767">
        <ele>8.1</ele>
        <time>2020-05-31T14:02:15Z</time>
      </trkpt>
      <trkpt lat="46.25603" lon="-0.73774">
        <ele>8.1</ele>
        <time>2020-05-31T14:02:16Z</time>
      </trkpt>
      <trkpt lat="46.25601" lon="-0.73781">
        <ele>8</ele>
        <time>2020-05-31T14:02:17Z</time>
      </trkpt>
      <trkpt lat="46.256" lon="-0.73787">
        <ele>8</ele>
        <time>2020-05-31T14:02:18Z</time>
      </trkpt>
      <trkpt lat="46.25598" lon="-0.73794">
        <ele>8</ele>
        <time>2020-05-31T14:02:19Z</time>
      </trkpt>
      <trkpt lat="46.25596" lon="-0.738">
        <ele>7.9</ele>
        <time>2020-05-31T14:02:20Z</time>
      </trkpt>
      <trkpt lat="46.25594" lon="-0.73807">
        <ele>7.9</ele>
        <time>2020-05-31T14:02:21Z</time>
      </trkpt>
      <trkpt lat="46.25593" lon="-0.73814">
        <ele>7.8</ele>
        <time>2020-05-31T14:02:22Z</time>
      </trkpt>
      <trkpt lat="46.25591" lon="-0.7382">
        <ele>7.8</ele>
        <time>2020-05-31T14:02:23Z</time>
      </trkpt>
      <trkpt lat="46.25589" lon="-0.73826">
        <ele>7.8</ele>
        <time>2020-05-31T14:02:24Z</time>
      </trkpt>
      <trkpt lat="46.25588" lon="-0.73834">
        <ele>7.7</ele>
        <time>2020-05-31T14:02:25Z</time>
      </trkpt>
      <trkpt lat="46.25586" lon="-0.7384">
        <ele>7.7</ele>
        <time>2020-05-31T14:02:26Z</time>
      </trkpt>
      <trkpt lat="46.25584" lon="-0.73847">
        <ele>7.6</ele>
        <time>2020-05-31T14:02:27Z</time>
      </trkpt>
      <trkpt lat="46.25582" lon="-0.73853">
        <ele>7.6</ele>
        <time>2020-05-31T14:02:28Z</time>
      </trkpt>
      <trkpt lat="46.2558" lon="-0.7386">
        <ele>7.5</ele>
        <time>2020-05-31T14:02:29Z</time>
      </trkpt>
      <trkpt lat="46.25579" lon="-0.73867">
        <ele>7.5</ele>
        <time>2020-05-31T14:02:30Z</time>
      </trkpt>
      <trkpt lat="46.25578" lon="-0.73874">
        <ele>7.4</ele>
        <time>2020-05-31T14:02:31Z</time>
      </trkpt>
      <trkpt lat="46.25576" lon="-0.73881">
        <ele>7.4</ele>
        <time>2020-05-31T14:02:32Z</time>
      </trkpt>
      <trkpt lat="46.25574" lon="-0.73888">
        <ele>7.3</ele>
        <time>2020-05-31T14:02:33Z</time>
      </trkpt>
      <trkpt lat="46.25571" lon="-0.73894">
        <ele>7.3</ele>
        <time>2020-05-31T14:02:34Z</time>
      </trkpt>
      <trkpt lat="46.25564" lon="-0.73899">
        <ele>7.2</ele>
        <time>2020-05-31T14:02:35Z</time>
      </trkpt>
      <trkpt lat="46.25561" lon="-0.73906">
        <ele>7.2</ele>
        <time>2020-05-31T14:02:36Z</time>
      </trkpt>
      <trkpt lat="46.25559" lon="-0.73913">
        <ele>7.1</ele>
        <time>2020-05-31T14:02:37Z</time>
      </trkpt>
      <trkpt lat="46.25557" lon="-0.7392">
        <ele>7.1</ele>
        <time>2020-05-31T14:02:38Z</time>
      </trkpt>
      <trkpt lat="46.25554" lon="-0.73927">
        <ele>7.1</ele>
        <time>2020-05-31T14:02:39Z</time>
      </trkpt>
      <trkpt lat="46.25552" lon="-0.73934">
        <ele>7</ele>
        <time>2020-05-31T14:02:40Z</time>
      </trkpt>
      <trkpt lat="46.25551" lon="-0.73942">
        <ele>7</ele>
        <time>2020-05-31T14:02:41Z</time>
      </trkpt>
      <trkpt lat="46.25548" lon="-0.73949">
        <ele>7</ele>
        <time>2020-05-31T14:02:42Z</time>
      </trkpt>
      <trkpt lat="46.25546" lon="-0.73956">
        <ele>6.9</ele>
        <time>2020-05-31T14:02:43Z</time>
      </trkpt>
      <trkpt lat="46.25544" lon="-0.73964">
        <ele>6.9</ele>
        <time>2020-05-31T14:02:44Z</time>
      </trkpt>
      <trkpt lat="46.25542" lon="-0.73972">
        <ele>6.9</ele>
        <time>2020-05-31T14:02:45Z</time>
      </trkpt>
      <trkpt lat="46.2554" lon="-0.73979">
        <ele>6.9</ele>
        <time>2020-05-31T14:02:46Z</time>
      </trkpt>
      <trkpt lat="46.25538" lon="-0.73987">
        <ele>6.8</ele>
        <time>2020-05-31T14:02:47Z</time>
      </trkpt>
      <trkpt lat="46.25536" lon="-0.73995">
        <ele>6.8</ele>
        <time>2020-05-31T14:02:48Z</time>
      </trkpt>
      <trkpt lat="46.25533" lon="-0.74003">
        <ele>6.7</ele>
        <time>2020-05-31T14:02:49Z</time>
      </trkpt>
      <trkpt lat="46.25531" lon="-0.7401">
        <ele>6.7</ele>
        <time>2020-05-31T14:02:50Z</time>
      </trkpt>
      <trkpt lat="46.25529" lon="-0.74018">
        <ele>6.6</ele>
        <time>2020-05-31T14:02:51Z</time>
      </trkpt>
      <trkpt lat="46.25527" lon="-0.74025">
        <ele>6.6</ele>
        <time>2020-05-31T14:02:52Z</time>
      </trkpt>
      <trkpt lat="46.25525" lon="-0.74032">
        <ele>6.5</ele>
        <time>2020-05-31T14:02:53Z</time>
      </trkpt>
      <trkpt lat="46.25522" lon="-0.7404">
        <ele>6.5</ele>
        <time>2020-05-31T14:02:54Z</time>
      </trkpt>
      <trkpt lat="46.2552" lon="-0.74047">
        <ele>6.4</ele>
        <time>2020-05-31T14:02:55Z</time>
      </trkpt>
      <trkpt lat="46.25518" lon="-0.74054">
        <ele>6.4</ele>
        <time>2020-05-31T14:02:56Z</time>
      </trkpt>
      <trkpt lat="46.25516" lon="-0.74061">
        <ele>6.4</ele>
        <time>2020-05-31T14:02:57Z</time>
      </trkpt>
      <trkpt lat="46.25514" lon="-0.74069">
        <ele>6.4</ele>
        <time>2020-05-31T14:02:58Z</time>
      </trkpt>
      <trkpt lat="46.25512" lon="-0.74077">
        <ele>6.3</ele>
        <time>2020-05-31T14:02:59Z</time>
      </trkpt>
      <trkpt lat="46.25511" lon="-0.74084">
        <ele>6.3</ele>
        <time>2020-05-31T14:03:00Z</time>
      </trkpt>
      <trkpt lat="46.25509" lon="-0.74092">
        <ele>6.3</ele>
        <time>2020-05-31T14:03:01Z</time>
      </trkpt>
      <trkpt lat="46.25508" lon="-0.741">
        <ele>6.2</ele>
        <time>2020-05-31T14:03:02Z</time>
      </trkpt>
      <trkpt lat="46.25507" lon="-0.74108">
        <ele>6.2</ele>
        <time>2020-05-31T14:03:03Z</time>
      </trkpt>
      <trkpt lat="46.25505" lon="-0.74115">
        <ele>6.2</ele>
        <time>2020-05-31T14:03:04Z</time>
      </trkpt>
      <trkpt lat="46.25503" lon="-0.74122">
        <ele>6.2</ele>
        <time>2020-05-31T14:03:05Z</time>
      </trkpt>
      <trkpt lat="46.25502" lon="-0.7413">
        <ele>6.2</ele>
        <time>2020-05-31T14:03:06Z</time>
      </trkpt>
      <trkpt lat="46.255" lon="-0.74137">
        <ele>6.2</ele>
        <time>2020-05-31T14:03:07Z</time>
      </trkpt>
      <trkpt lat="46.25498" lon="-0.74144">
        <ele>6.2</ele>
        <time>2020-05-31T14:03:08Z</time>
      </trkpt>
      <trkpt lat="46.25496" lon="-0.74151">
        <ele>6.2</ele>
        <time>2020-05-31T14:03:09Z</time>
      </trkpt>
      <trkpt lat="46.25495" lon="-0.74159">
        <ele>6.2</ele>
        <time>2020-05-31T14:03:10Z</time>
      </trkpt>
      <trkpt lat="46.25494" lon="-0.74166">
        <ele>6.1</ele>
        <time>2020-05-31T14:03:11Z</time>
      </trkpt>
      <trkpt lat="46.25493" lon="-0.74173">
        <ele>6.1</ele>
        <time>2020-05-31T14:03:12Z</time>
      </trkpt>
      <trkpt lat="46.25491" lon="-0.7418">
        <ele>6.1</ele>
        <time>2020-05-31T14:03:13Z</time>
      </trkpt>
      <trkpt lat="46.2549" lon="-0.74187">
        <ele>6.1</ele>
        <time>2020-05-31T14:03:14Z</time>
      </trkpt>
      <trkpt lat="46.25484" lon="-0.74194">
        <ele>6.1</ele>
        <time>2020-05-31T14:03:15Z</time>
      </trkpt>
      <trkpt lat="46.25483" lon="-0.74202">
        <ele>6.1</ele>
        <time>2020-05-31T14:03:16Z</time>
      </trkpt>
      <trkpt lat="46.25481" lon="-0.7421">
        <ele>6.1</ele>
        <time>2020-05-31T14:03:17Z</time>
      </trkpt>
      <trkpt lat="46.25479" lon="-0.74218">
        <ele>6</ele>
        <time>2020-05-31T14:03:18Z</time>
      </trkpt>
      <trkpt lat="46.25478" lon="-0.74226">
        <ele>6</ele>
        <time>2020-05-31T14:03:19Z</time>
      </trkpt>
      <trkpt lat="46.25476" lon="-0.74234">
        <ele>5.9</ele>
        <time>2020-05-31T14:03:20Z</time>
      </trkpt>
      <trkpt lat="46.25475" lon="-0.74243">
        <ele>5.9</ele>
        <time>2020-05-31T14:03:21Z</time>
      </trkpt>
      <trkpt lat="46.25472" lon="-0.74251">
        <ele>5.8</ele>
        <time>2020-05-31T14:03:22Z</time>
      </trkpt>
      <trkpt lat="46.25471" lon="-0.74259">
        <ele>5.8</ele>
        <time>2020-05-31T14:03:23Z</time>
      </trkpt>
      <trkpt lat="46.2547" lon="-0.74268">
        <ele>5.7</ele>
        <time>2020-05-31T14:03:24Z</time>
      </trkpt>
      <trkpt lat="46.25468" lon="-0.74277">
        <ele>5.6</ele>
        <time>2020-05-31T14:03:25Z</time>
      </trkpt>
      <trkpt lat="46.25467" lon="-0.74286">
        <ele>5.5</ele>
        <time>2020-05-31T14:03:26Z</time>
      </trkpt>
      <trkpt lat="46.25465" lon="-0.74295">
        <ele>5.4</ele>
        <time>2020-05-31T14:03:27Z</time>
      </trkpt>
      <trkpt lat="46.25464" lon="-0.74303">
        <ele>5.4</ele>
        <time>2020-05-31T14:03:28Z</time>
      </trkpt>
      <trkpt lat="46.25462" lon="-0.74312">
        <ele>5.3</ele>
        <time>2020-05-31T14:03:29Z</time>
      </trkpt>
      <trkpt lat="46.25461" lon="-0.7432">
        <ele>5.2</ele>
        <time>2020-05-31T14:03:30Z</time>
      </trkpt>
      <trkpt lat="46.2546" lon="-0.74327">
        <ele>5.2</ele>
        <time>2020-05-31T14:03:31Z</time>
      </trkpt>
      <trkpt lat="46.25459" lon="-0.74335">
        <ele>5.1</ele>
        <time>2020-05-31T14:03:32Z</time>
      </trkpt>
      <trkpt lat="46.25458" lon="-0.74342">
        <ele>5</ele>
        <time>2020-05-31T14:03:33Z</time>
      </trkpt>
      <trkpt lat="46.25458" lon="-0.74348">
        <ele>5</ele>
        <time>2020-05-31T14:03:34Z</time>
      </trkpt>
      <trkpt lat="46.25455" lon="-0.74354">
        <ele>5</ele>
        <time>2020-05-31T14:03:35Z</time>
      </trkpt>
      <trkpt lat="46.25454" lon="-0.74361">
        <ele>4.9</ele>
        <time>2020-05-31T14:03:36Z</time>
      </trkpt>
      <trkpt lat="46.25453" lon="-0.74368">
        <ele>4.9</ele>
        <time>2020-05-31T14:03:37Z</time>
      </trkpt>
      <trkpt lat="46.25452" lon="-0.74376">
        <ele>4.9</ele>
        <time>2020-05-31T14:03:38Z</time>
      </trkpt>
      <trkpt lat="46.2545" lon="-0.74385">
        <ele>4.9</ele>
        <time>2020-05-31T14:03:39Z</time>
      </trkpt>
      <trkpt lat="46.25448" lon="-0.74393">
        <ele>4.9</ele>
        <time>2020-05-31T14:03:40Z</time>
      </trkpt>
      <trkpt lat="46.25447" lon="-0.74402">
        <ele>4.9</ele>
        <time>2020-05-31T14:03:41Z</time>
      </trkpt>
      <trkpt lat="46.25446" lon="-0.7441">
        <ele>4.8</ele>
        <time>2020-05-31T14:03:42Z</time>
      </trkpt>
      <trkpt lat="46.25444" lon="-0.74419">
        <ele>4.8</ele>
        <time>2020-05-31T14:03:43Z</time>
      </trkpt>
      <trkpt lat="46.25442" lon="-0.74427">
        <ele>4.7</ele>
        <time>2020-05-31T14:03:44Z</time>
      </trkpt>
      <trkpt lat="46.25441" lon="-0.74436">
        <ele>4.6</ele>
        <time>2020-05-31T14:03:45Z</time>
      </trkpt>
      <trkpt lat="46.25439" lon="-0.74445">
        <ele>4.6</ele>
        <time>2020-05-31T14:03:46Z</time>
      </trkpt>
      <trkpt lat="46.25438" lon="-0.74454">
        <ele>4.5</ele>
        <time>2020-05-31T14:03:47Z</time>
      </trkpt>
      <trkpt lat="46.25436" lon="-0.74462">
        <ele>4.5</ele>
        <time>2020-05-31T14:03:48Z</time>
      </trkpt>
      <trkpt lat="46.25436" lon="-0.74471">
        <ele>4.5</ele>
        <time>2020-05-31T14:03:49Z</time>
      </trkpt>
      <trkpt lat="46.25434" lon="-0.74481">
        <ele>4.4</ele>
        <time>2020-05-31T14:03:50Z</time>
      </trkpt>
      <trkpt lat="46.25433" lon="-0.7449">
        <ele>4.4</ele>
        <time>2020-05-31T14:03:51Z</time>
      </trkpt>
      <trkpt lat="46.25432" lon="-0.74498">
        <ele>4.5</ele>
        <time>2020-05-31T14:03:52Z</time>
      </trkpt>
      <trkpt lat="46.25431" lon="-0.74506">
        <ele>4.5</ele>
        <time>2020-05-31T14:03:53Z</time>
      </trkpt>
      <trkpt lat="46.2543" lon="-0.74513">
        <ele>4.5</ele>
        <time>2020-05-31T14:03:54Z</time>
      </trkpt>
      <trkpt lat="46.25429" lon="-0.74522">
        <ele>4.6</ele>
        <time>2020-05-31T14:03:55Z</time>
      </trkpt>
      <trkpt lat="46.25428" lon="-0.7453">
        <ele>4.6</ele>
        <time>2020-05-31T14:03:56Z</time>
      </trkpt>
      <trkpt lat="46.25427" lon="-0.74539">
        <ele>4.7</ele>
        <time>2020-05-31T14:03:57Z</time>
      </trkpt>
      <trkpt lat="46.25425" lon="-0.74547">
        <ele>4.7</ele>
        <time>2020-05-31T14:03:58Z</time>
      </trkpt>
      <trkpt lat="46.25424" lon="-0.74556">
        <ele>4.7</ele>
        <time>2020-05-31T14:03:59Z</time>
      </trkpt>
      <trkpt lat="46.25423" lon="-0.74564">
        <ele>4.7</ele>
        <time>2020-05-31T14:04:00Z</time>
      </trkpt>
      <trkpt lat="46.25422" lon="-0.74572">
        <ele>4.7</ele>
        <time>2020-05-31T14:04:01Z</time>
      </trkpt>
      <trkpt lat="46.25421" lon="-0.74581">
        <ele>4.7</ele>
        <time>2020-05-31T14:04:02Z</time>
      </trkpt>
      <trkpt lat="46.2542" lon="-0.7459">
        <ele>4.7</ele>
        <time>2020-05-31T14:04:03Z</time>
      </trkpt>
      <trkpt lat="46.25419" lon="-0.74598">
        <ele>4.7</ele>
        <time>2020-05-31T14:04:04Z</time>
      </trkpt>
      <trkpt lat="46.25417" lon="-0.74607">
        <ele>4.6</ele>
        <time>2020-05-31T14:04:05Z</time>
      </trkpt>
      <trkpt lat="46.25416" lon="-0.74615">
        <ele>4.6</ele>
        <time>2020-05-31T14:04:06Z</time>
      </trkpt>
      <trkpt lat="46.25415" lon="-0.74624">
        <ele>4.6</ele>
        <time>2020-05-31T14:04:07Z</time>
      </trkpt>
      <trkpt lat="46.25414" lon="-0.74633">
        <ele>4.6</ele>
        <time>2020-05-31T14:04:08Z</time>
      </trkpt>
      <trkpt lat="46.25413" lon="-0.74642">
        <ele>4.6</ele>
        <time>2020-05-31T14:04:09Z</time>
      </trkpt>
      <trkpt lat="46.25411" lon="-0.7465">
        <ele>4.6</ele>
        <time>2020-05-31T14:04:10Z</time>
      </trkpt>
      <trkpt lat="46.25411" lon="-0.74659">
        <ele>4.6</ele>
        <time>2020-05-31T14:04:11Z</time>
      </trkpt>
      <trkpt lat="46.2541" lon="-0.74667">
        <ele>4.5</ele>
        <time>2020-05-31T14:04:12Z</time>
      </trkpt>
      <trkpt lat="46.25408" lon="-0.74675">
        <ele>4.5</ele>
        <time>2020-05-31T14:04:13Z</time>
      </trkpt>
      <trkpt lat="46.25407" lon="-0.74683">
        <ele>4.5</ele>
        <time>2020-05-31T14:04:14Z</time>
      </trkpt>
      <trkpt lat="46.25406" lon="-0.74691">
        <ele>4.5</ele>
        <time>2020-05-31T14:04:15Z</time>
      </trkpt>
      <trkpt lat="46.25404" lon="-0.747">
        <ele>4.5</ele>
        <time>2020-05-31T14:04:16Z</time>
      </trkpt>
      <trkpt lat="46.25403" lon="-0.74708">
        <ele>4.5</ele>
        <time>2020-05-31T14:04:17Z</time>
      </trkpt>
      <trkpt lat="46.25402" lon="-0.74717">
        <ele>4.5</ele>
        <time>2020-05-31T14:04:18Z</time>
      </trkpt>
      <trkpt lat="46.254" lon="-0.74725">
        <ele>4.5</ele>
        <time>2020-05-31T14:04:19Z</time>
      </trkpt>
      <trkpt lat="46.25399" lon="-0.74734">
        <ele>4.5</ele>
        <time>2020-05-31T14:04:20Z</time>
      </trkpt>
      <trkpt lat="46.25398" lon="-0.74742">
        <ele>4.5</ele>
        <time>2020-05-31T14:04:21Z</time>
      </trkpt>
      <trkpt lat="46.25397" lon="-0.74751">
        <ele>4.5</ele>
        <time>2020-05-31T14:04:22Z</time>
      </trkpt>
      <trkpt lat="46.25395" lon="-0.74758">
        <ele>4.5</ele>
        <time>2020-05-31T14:04:23Z</time>
      </trkpt>
      <trkpt lat="46.25394" lon="-0.74766">
        <ele>4.5</ele>
        <time>2020-05-31T14:04:24Z</time>
      </trkpt>
      <trkpt lat="46.25393" lon="-0.74775">
        <ele>4.6</ele>
        <time>2020-05-31T14:04:25Z</time>
      </trkpt>
      <trkpt lat="46.25392" lon="-0.74783">
        <ele>4.6</ele>
        <time>2020-05-31T14:04:26Z</time>
      </trkpt>
      <trkpt lat="46.25391" lon="-0.74792">
        <ele>4.6</ele>
        <time>2020-05-31T14:04:27Z</time>
      </trkpt>
      <trkpt lat="46.25389" lon="-0.74802">
        <ele>4.6</ele>
        <time>2020-05-31T14:04:28Z</time>
      </trkpt>
      <trkpt lat="46.25388" lon="-0.7481">
        <ele>4.6</ele>
        <time>2020-05-31T14:04:29Z</time>
      </trkpt>
      <trkpt lat="46.25387" lon="-0.74818">
        <ele>4.6</ele>
        <time>2020-05-31T14:04:30Z</time>
      </trkpt>
      <trkpt lat="46.25386" lon="-0.74826">
        <ele>4.7</ele>
        <time>2020-05-31T14:04:31Z</time>
      </trkpt>
      <trkpt lat="46.25385" lon="-0.74834">
        <ele>4.7</ele>
        <time>2020-05-31T14:04:32Z</time>
      </trkpt>
      <trkpt lat="46.25384" lon="-0.74841">
        <ele>4.7</ele>
        <time>2020-05-31T14:04:33Z</time>
      </trkpt>
      <trkpt lat="46.25383" lon="-0.74848">
        <ele>4.7</ele>
        <time>2020-05-31T14:04:34Z</time>
      </trkpt>
      <trkpt lat="46.25383" lon="-0.74855">
        <ele>4.7</ele>
        <time>2020-05-31T14:04:35Z</time>
      </trkpt>
      <trkpt lat="46.25381" lon="-0.74863">
        <ele>4.7</ele>
        <time>2020-05-31T14:04:36Z</time>
      </trkpt>
      <trkpt lat="46.25379" lon="-0.7487">
        <ele>4.7</ele>
        <time>2020-05-31T14:04:37Z</time>
      </trkpt>
      <trkpt lat="46.25377" lon="-0.74877">
        <ele>4.7</ele>
        <time>2020-05-31T14:04:38Z</time>
      </trkpt>
      <trkpt lat="46.25377" lon="-0.74885">
        <ele>4.7</ele>
        <time>2020-05-31T14:04:39Z</time>
      </trkpt>
      <trkpt lat="46.2537" lon="-0.74891">
        <ele>4.8</ele>
        <time>2020-05-31T14:04:40Z</time>
      </trkpt>
      <trkpt lat="46.25369" lon="-0.74898">
        <ele>4.8</ele>
        <time>2020-05-31T14:04:41Z</time>
      </trkpt>
      <trkpt lat="46.25368" lon="-0.74905">
        <ele>4.8</ele>
        <time>2020-05-31T14:04:42Z</time>
      </trkpt>
      <trkpt lat="46.25368" lon="-0.74912">
        <ele>4.8</ele>
        <time>2020-05-31T14:04:43Z</time>
      </trkpt>
      <trkpt lat="46.25366" lon="-0.7492">
        <ele>4.8</ele>
        <time>2020-05-31T14:04:44Z</time>
      </trkpt>
      <trkpt lat="46.25365" lon="-0.74928">
        <ele>4.8</ele>
        <time>2020-05-31T14:04:45Z</time>
      </trkpt>
      <trkpt lat="46.25364" lon="-0.74935">
        <ele>4.8</ele>
        <time>2020-05-31T14:04:46Z</time>
      </trkpt>
      <trkpt lat="46.25363" lon="-0.74943">
        <ele>4.8</ele>
        <time>2020-05-31T14:04:47Z</time>
      </trkpt>
      <trkpt lat="46.25362" lon="-0.74951">
        <ele>4.9</ele>
        <time>2020-05-31T14:04:48Z</time>
      </trkpt>
      <trkpt lat="46.25361" lon="-0.74959">
        <ele>4.9</ele>
        <time>2020-05-31T14:04:49Z</time>
      </trkpt>
      <trkpt lat="46.2536" lon="-0.74967">
        <ele>4.9</ele>
        <time>2020-05-31T14:04:50Z</time>
      </trkpt>
      <trkpt lat="46.25358" lon="-0.74975">
        <ele>4.9</ele>
        <time>2020-05-31T14:04:51Z</time>
      </trkpt>
      <trkpt lat="46.25357" lon="-0.74982">
        <ele>4.9</ele>
        <time>2020-05-31T14:04:52Z</time>
      </trkpt>
      <trkpt lat="46.25355" lon="-0.74991">
        <ele>4.9</ele>
        <time>2020-05-31T14:04:53Z</time>
      </trkpt>
      <trkpt lat="46.25354" lon="-0.75">
        <ele>4.9</ele>
        <time>2020-05-31T14:04:54Z</time>
      </trkpt>
      <trkpt lat="46.25353" lon="-0.75009">
        <ele>5</ele>
        <time>2020-05-31T14:04:55Z</time>
      </trkpt>
      <trkpt lat="46.25352" lon="-0.75017">
        <ele>5</ele>
        <time>2020-05-31T14:04:56Z</time>
      </trkpt>
      <trkpt lat="46.25351" lon="-0.75025">
        <ele>5</ele>
        <time>2020-05-31T14:04:57Z</time>
      </trkpt>
      <trkpt lat="46.25349" lon="-0.75033">
        <ele>5</ele>
        <time>2020-05-31T14:04:58Z</time>
      </trkpt>
      <trkpt lat="46.25348" lon="-0.75042">
        <ele>5</ele>
        <time>2020-05-31T14:04:59Z</time>
      </trkpt>
      <trkpt lat="46.25346" lon="-0.75051">
        <ele>5</ele>
        <time>2020-05-31T14:05:00Z</time>
      </trkpt>
      <trkpt lat="46.25345" lon="-0.7506">
        <ele>5.1</ele>
        <time>2020-05-31T14:05:01Z</time>
      </trkpt>
      <trkpt lat="46.25344" lon="-0.75069">
        <ele>5.1</ele>
        <time>2020-05-31T14:05:02Z</time>
      </trkpt>
      <trkpt lat="46.25342" lon="-0.75077">
        <ele>5.1</ele>
        <time>2020-05-31T14:05:03Z</time>
      </trkpt>
      <trkpt lat="46.25341" lon="-0.75085">
        <ele>5.1</ele>
        <time>2020-05-31T14:05:04Z</time>
      </trkpt>
      <trkpt lat="46.2534" lon="-0.75093">
        <ele>5.1</ele>
        <time>2020-05-31T14:05:05Z</time>
      </trkpt>
      <trkpt lat="46.25339" lon="-0.75101">
        <ele>5.1</ele>
        <time>2020-05-31T14:05:06Z</time>
      </trkpt>
      <trkpt lat="46.25337" lon="-0.75108">
        <ele>5.2</ele>
        <time>2020-05-31T14:05:07Z</time>
      </trkpt>
      <trkpt lat="46.25337" lon="-0.75116">
        <ele>5.2</ele>
        <time>2020-05-31T14:05:08Z</time>
      </trkpt>
      <trkpt lat="46.25335" lon="-0.75123">
        <ele>5.2</ele>
        <time>2020-05-31T14:05:09Z</time>
      </trkpt>
      <trkpt lat="46.25334" lon="-0.7513">
        <ele>5.2</ele>
        <time>2020-05-31T14:05:10Z</time>
      </trkpt>
      <trkpt lat="46.25333" lon="-0.75137">
        <ele>5.2</ele>
        <time>2020-05-31T14:05:11Z</time>
      </trkpt>
      <trkpt lat="46.25332" lon="-0.75143">
        <ele>5.2</ele>
        <time>2020-05-31T14:05:12Z</time>
      </trkpt>
      <trkpt lat="46.25331" lon="-0.7515">
        <ele>5.2</ele>
        <time>2020-05-31T14:05:13Z</time>
      </trkpt>
      <trkpt lat="46.25331" lon="-0.75156">
        <ele>5.2</ele>
        <time>2020-05-31T14:05:14Z</time>
      </trkpt>
      <trkpt lat="46.25329" lon="-0.75163">
        <ele>5.2</ele>
        <time>2020-05-31T14:05:15Z</time>
      </trkpt>
      <trkpt lat="46.25327" lon="-0.75171">
        <ele>5.3</ele>
        <time>2020-05-31T14:05:16Z</time>
      </trkpt>
      <trkpt lat="46.25327" lon="-0.75179">
        <ele>5.3</ele>
        <time>2020-05-31T14:05:17Z</time>
      </trkpt>
      <trkpt lat="46.25326" lon="-0.75186">
        <ele>5.2</ele>
        <time>2020-05-31T14:05:18Z</time>
      </trkpt>
      <trkpt lat="46.25326" lon="-0.75193">
        <ele>5.2</ele>
        <time>2020-05-31T14:05:19Z</time>
      </trkpt>
      <trkpt lat="46.25325" lon="-0.752">
        <ele>5.2</ele>
        <time>2020-05-31T14:05:20Z</time>
      </trkpt>
      <trkpt lat="46.25325" lon="-0.75207">
        <ele>5.2</ele>
        <time>2020-05-31T14:05:21Z</time>
      </trkpt>
      <trkpt lat="46.25324" lon="-0.75213">
        <ele>5.2</ele>
        <time>2020-05-31T14:05:22Z</time>
      </trkpt>
      <trkpt lat="46.25324" lon="-0.7522">
        <ele>5.2</ele>
        <time>2020-05-31T14:05:23Z</time>
      </trkpt>
      <trkpt lat="46.25323" lon="-0.75226">
        <ele>5.2</ele>
        <time>2020-05-31T14:05:24Z</time>
      </trkpt>
      <trkpt lat="46.25322" lon="-0.75232">
        <ele>5.1</ele>
        <time>2020-05-31T14:05:25Z</time>
      </trkpt>
      <trkpt lat="46.2532" lon="-0.75238">
        <ele>5.1</ele>
        <time>2020-05-31T14:05:26Z</time>
      </trkpt>
      <trkpt lat="46.25316" lon="-0.75244">
        <ele>5.1</ele>
        <time>2020-05-31T14:05:27Z</time>
      </trkpt>
      <trkpt lat="46.25315" lon="-0.7525">
        <ele>5.1</ele>
        <time>2020-05-31T14:05:28Z</time>
      </trkpt>
      <trkpt lat="46.25314" lon="-0.75257">
        <ele>5.1</ele>
        <time>2020-05-31T14:05:29Z</time>
      </trkpt>
      <trkpt lat="46.25314" lon="-0.75265">
        <ele>5.1</ele>
        <time>2020-05-31T14:05:30Z</time>
      </trkpt>
      <trkpt lat="46.25314" lon="-0.75273">
        <ele>5.1</ele>
        <time>2020-05-31T14:05:31Z</time>
      </trkpt>
      <trkpt lat="46.25313" lon="-0.7528">
        <ele>5.1</ele>
        <time>2020-05-31T14:05:32Z</time>
      </trkpt>
      <trkpt lat="46.25311" lon="-0.75286">
        <ele>5.1</ele>
        <time>2020-05-31T14:05:33Z</time>
      </trkpt>
      <trkpt lat="46.2531" lon="-0.75293">
        <ele>5.2</ele>
        <time>2020-05-31T14:05:34Z</time>
      </trkpt>
      <trkpt lat="46.25308" lon="-0.75299">
        <ele>5.2</ele>
        <time>2020-05-31T14:05:35Z</time>
      </trkpt>
      <trkpt lat="46.25307" lon="-0.75305">
        <ele>5.3</ele>
        <time>2020-05-31T14:05:36Z</time>
      </trkpt>
      <trkpt lat="46.25306" lon="-0.75313">
        <ele>5.3</ele>
        <time>2020-05-31T14:05:37Z</time>
      </trkpt>
      <trkpt lat="46.25305" lon="-0.7532">
        <ele>5.4</ele>
        <time>2020-05-31T14:05:38Z</time>
      </trkpt>
      <trkpt lat="46.25304" lon="-0.75327">
        <ele>5.5</ele>
        <time>2020-05-31T14:05:39Z</time>
      </trkpt>
      <trkpt lat="46.25303" lon="-0.75334">
        <ele>5.5</ele>
        <time>2020-05-31T14:05:40Z</time>
      </trkpt>
      <trkpt lat="46.25301" lon="-0.75342">
        <ele>5.6</ele>
        <time>2020-05-31T14:05:41Z</time>
      </trkpt>
      <trkpt lat="46.253" lon="-0.75349">
        <ele>5.7</ele>
        <time>2020-05-31T14:05:42Z</time>
      </trkpt>
      <trkpt lat="46.25299" lon="-0.75355">
        <ele>5.7</ele>
        <time>2020-05-31T14:05:43Z</time>
      </trkpt>
      <trkpt lat="46.25298" lon="-0.75362">
        <ele>5.8</ele>
        <time>2020-05-31T14:05:44Z</time>
      </trkpt>
      <trkpt lat="46.25296" lon="-0.7537">
        <ele>5.9</ele>
        <time>2020-05-31T14:05:45Z</time>
      </trkpt>
      <trkpt lat="46.25295" lon="-0.75379">
        <ele>6.1</ele>
        <time>2020-05-31T14:05:46Z</time>
      </trkpt>
      <trkpt lat="46.25293" lon="-0.7539">
        <ele>6.2</ele>
        <time>2020-05-31T14:05:47Z</time>
      </trkpt>
      <trkpt lat="46.25291" lon="-0.75399">
        <ele>6.4</ele>
        <time>2020-05-31T14:05:48Z</time>
      </trkpt>
      <trkpt lat="46.25289" lon="-0.7541">
        <ele>6.5</ele>
        <time>2020-05-31T14:05:49Z</time>
      </trkpt>
      <trkpt lat="46.25287" lon="-0.75422">
        <ele>6.6</ele>
        <time>2020-05-31T14:05:50Z</time>
      </trkpt>
      <trkpt lat="46.25285" lon="-0.75431">
        <ele>6.7</ele>
        <time>2020-05-31T14:05:51Z</time>
      </trkpt>
      <trkpt lat="46.25284" lon="-0.75437">
        <ele>6.7</ele>
        <time>2020-05-31T14:05:52Z</time>
      </trkpt>
      <trkpt lat="46.25282" lon="-0.75445">
        <ele>6.8</ele>
        <time>2020-05-31T14:05:53Z</time>
      </trkpt>
      <trkpt lat="46.25281" lon="-0.75452">
        <ele>6.8</ele>
        <time>2020-05-31T14:05:54Z</time>
      </trkpt>
      <trkpt lat="46.2528" lon="-0.7546">
        <ele>6.8</ele>
        <time>2020-05-31T14:05:55Z</time>
      </trkpt>
      <trkpt lat="46.25278" lon="-0.75467">
        <ele>6.9</ele>
        <time>2020-05-31T14:05:56Z</time>
      </trkpt>
      <trkpt lat="46.25278" lon="-0.75475">
        <ele>6.9</ele>
        <time>2020-05-31T14:05:57Z</time>
      </trkpt>
      <trkpt lat="46.25277" lon="-0.75481">
        <ele>6.9</ele>
        <time>2020-05-31T14:05:58Z</time>
      </trkpt>
      <trkpt lat="46.25276" lon="-0.75487">
        <ele>6.9</ele>
        <time>2020-05-31T14:05:59Z</time>
      </trkpt>
      <trkpt lat="46.25275" lon="-0.75493">
        <ele>6.8</ele>
        <time>2020-05-31T14:06:00Z</time>
      </trkpt>
      <trkpt lat="46.25274" lon="-0.75497">
        <ele>6.8</ele>
        <time>2020-05-31T14:06:01Z</time>
      </trkpt>
      <trkpt lat="46.25272" lon="-0.75503">
        <ele>6.7</ele>
        <time>2020-05-31T14:06:02Z</time>
      </trkpt>
      <trkpt lat="46.25271" lon="-0.75508">
        <ele>6.7</ele>
        <time>2020-05-31T14:06:03Z</time>
      </trkpt>
      <trkpt lat="46.25269" lon="-0.75515">
        <ele>6.7</ele>
        <time>2020-05-31T14:06:04Z</time>
      </trkpt>
      <trkpt lat="46.25269" lon="-0.75521">
        <ele>6.7</ele>
        <time>2020-05-31T14:06:05Z</time>
      </trkpt>
      <trkpt lat="46.25268" lon="-0.75527">
        <ele>6.6</ele>
        <time>2020-05-31T14:06:06Z</time>
      </trkpt>
      <trkpt lat="46.25268" lon="-0.75535">
        <ele>6.6</ele>
        <time>2020-05-31T14:06:07Z</time>
      </trkpt>
      <trkpt lat="46.25267" lon="-0.75543">
        <ele>6.5</ele>
        <time>2020-05-31T14:06:08Z</time>
      </trkpt>
      <trkpt lat="46.25267" lon="-0.75551">
        <ele>6.4</ele>
        <time>2020-05-31T14:06:09Z</time>
      </trkpt>
      <trkpt lat="46.25265" lon="-0.75559">
        <ele>6.3</ele>
        <time>2020-05-31T14:06:10Z</time>
      </trkpt>
      <trkpt lat="46.25265" lon="-0.75564">
        <ele>6.2</ele>
        <time>2020-05-31T14:06:11Z</time>
      </trkpt>
      <trkpt lat="46.25263" lon="-0.75567">
        <ele>6.2</ele>
        <time>2020-05-31T14:06:12Z</time>
      </trkpt>
      <trkpt lat="46.25261" lon="-0.75568">
        <ele>6.2</ele>
        <time>2020-05-31T14:06:13Z</time>
      </trkpt>
      <trkpt lat="46.25258" lon="-0.75568">
        <ele>6.2</ele>
        <time>2020-05-31T14:06:14Z</time>
      </trkpt>
      <trkpt lat="46.25253" lon="-0.75566">
        <ele>6.2</ele>
        <time>2020-05-31T14:06:15Z</time>
      </trkpt>
      <trkpt lat="46.2525" lon="-0.75565">
        <ele>6.2</ele>
        <time>2020-05-31T14:06:16Z</time>
      </trkpt>
      <trkpt lat="46.25247" lon="-0.75562">
        <ele>6.2</ele>
        <time>2020-05-31T14:06:17Z</time>
      </trkpt>
      <trkpt lat="46.25245" lon="-0.75557">
        <ele>6.3</ele>
        <time>2020-05-31T14:06:18Z</time>
      </trkpt>
      <trkpt lat="46.25243" lon="-0.75554">
        <ele>6.3</ele>
        <time>2020-05-31T14:06:19Z</time>
      </trkpt>
      <trkpt lat="46.25241" lon="-0.75551">
        <ele>6.3</ele>
        <time>2020-05-31T14:06:20Z</time>
      </trkpt>
      <trkpt lat="46.25239" lon="-0.75549">
        <ele>6.3</ele>
        <time>2020-05-31T14:06:21Z</time>
      </trkpt>
      <trkpt lat="46.25236" lon="-0.75544">
        <ele>6.3</ele>
        <time>2020-05-31T14:06:22Z</time>
      </trkpt>
      <trkpt lat="46.25233" lon="-0.7554">
        <ele>6.3</ele>
        <time>2020-05-31T14:06:23Z</time>
      </trkpt>
      <trkpt lat="46.2523" lon="-0.75537">
        <ele>6.3</ele>
        <time>2020-05-31T14:06:24Z</time>
      </trkpt>
      <trkpt lat="46.25227" lon="-0.75534">
        <ele>6.3</ele>
        <time>2020-05-31T14:06:25Z</time>
      </trkpt>
      <trkpt lat="46.25225" lon="-0.7553">
        <ele>6.3</ele>
        <time>2020-05-31T14:06:26Z</time>
      </trkpt>
      <trkpt lat="46.25225" lon="-0.75528">
        <ele>6.3</ele>
        <time>2020-05-31T14:06:27Z</time>
      </trkpt>
      <trkpt lat="46.25224" lon="-0.75523">
        <ele>6.3</ele>
        <time>2020-05-31T14:06:28Z</time>
      </trkpt>
      <trkpt lat="46.25223" lon="-0.75522">
        <ele>6.3</ele>
        <time>2020-05-31T14:06:29Z</time>
      </trkpt>
      <trkpt lat="46.25222" lon="-0.75517">
        <ele>6.3</ele>
        <time>2020-05-31T14:06:30Z</time>
      </trkpt>
      <trkpt lat="46.25222" lon="-0.75516">
        <ele>6.3</ele>
        <time>2020-05-31T14:06:31Z</time>
      </trkpt>
      <trkpt lat="46.25221" lon="-0.7551">
        <ele>6.2</ele>
        <time>2020-05-31T14:06:32Z</time>
      </trkpt>
      <trkpt lat="46.25221" lon="-0.75508">
        <ele>6.2</ele>
        <time>2020-05-31T14:06:33Z</time>
      </trkpt>
      <trkpt lat="46.2522" lon="-0.75504">
        <ele>6.2</ele>
        <time>2020-05-31T14:06:34Z</time>
      </trkpt>
      <trkpt lat="46.2522" lon="-0.75502">
        <ele>6.2</ele>
        <time>2020-05-31T14:06:35Z</time>
      </trkpt>
      <trkpt lat="46.2522" lon="-0.75498">
        <ele>6.2</ele>
        <time>2020-05-31T14:06:36Z</time>
      </trkpt>
      <trkpt lat="46.2522" lon="-0.75496">
        <ele>6.1</ele>
        <time>2020-05-31T14:06:37Z</time>
      </trkpt>
      <trkpt lat="46.25219" lon="-0.75492">
        <ele>6.1</ele>
        <time>2020-05-31T14:06:38Z</time>
      </trkpt>
      <trkpt lat="46.25218" lon="-0.75487">
        <ele>6.1</ele>
        <time>2020-05-31T14:06:39Z</time>
      </trkpt>
      <trkpt lat="46.25218" lon="-0.75485">
        <ele>6.1</ele>
        <time>2020-05-31T14:06:40Z</time>
      </trkpt>
      <trkpt lat="46.25217" lon="-0.75482">
        <ele>6</ele>
        <time>2020-05-31T14:06:41Z</time>
      </trkpt>
      <trkpt lat="46.25217" lon="-0.7548">
        <ele>6</ele>
        <time>2020-05-31T14:06:42Z</time>
      </trkpt>
      <trkpt lat="46.25215" lon="-0.75475">
        <ele>6</ele>
        <time>2020-05-31T14:06:43Z</time>
      </trkpt>
      <trkpt lat="46.25214" lon="-0.75474">
        <ele>6</ele>
        <time>2020-05-31T14:06:44Z</time>
      </trkpt>
      <trkpt lat="46.25213" lon="-0.7547">
        <ele>5.9</ele>
        <time>2020-05-31T14:06:45Z</time>
      </trkpt>
      <trkpt lat="46.25213" lon="-0.75469">
        <ele>5.9</ele>
        <time>2020-05-31T14:06:46Z</time>
      </trkpt>
      <trkpt lat="46.25212" lon="-0.75466">
        <ele>5.9</ele>
        <time>2020-05-31T14:06:47Z</time>
      </trkpt>
      <trkpt lat="46.25212" lon="-0.75465">
        <ele>5.9</ele>
        <time>2020-05-31T14:06:48Z</time>
      </trkpt>
      <trkpt lat="46.25212" lon="-0.75464">
        <ele>5.9</ele>
        <time>2020-05-31T14:06:49Z</time>
      </trkpt>
      <trkpt lat="46.25211" lon="-0.75463">
        <ele>5.9</ele>
        <time>2020-05-31T14:06:50Z</time>
      </trkpt>
      <trkpt lat="46.25211" lon="-0.75462">
        <ele>5.9</ele>
        <time>2020-05-31T14:06:51Z</time>
      </trkpt>
      <trkpt lat="46.2521" lon="-0.75462">
        <ele>5.9</ele>
        <time>2020-05-31T14:06:52Z</time>
      </trkpt>
      <trkpt lat="46.2521" lon="-0.75462">
        <ele>5.9</ele>
        <time>2020-05-31T14:06:53Z</time>
      </trkpt>
      <trkpt lat="46.2521" lon="-0.75462">
        <ele>5.9</ele>
        <time>2020-05-31T14:06:54Z</time>
      </trkpt>
      <trkpt lat="46.2521" lon="-0.75462">
        <ele>5.9</ele>
        <time>2020-05-31T14:06:55Z</time>
      </trkpt>
      <trkpt lat="46.2521" lon="-0.75462">
        <ele>5.9</ele>
        <time>2020-05-31T14:06:56Z</time>
      </trkpt>
      <trkpt lat="46.2521" lon="-0.75462">
        <ele>5.9</ele>
        <time>2020-05-31T14:06:57Z</time>
      </trkpt>
      <trkpt lat="46.2521" lon="-0.75462">
        <ele>5.9</ele>
        <time>2020-05-31T14:06:58Z</time>
      </trkpt>
      <trkpt lat="46.2521" lon="-0.75463">
        <ele>5.9</ele>
        <time>2020-05-31T14:06:59Z</time>
      </trkpt>
      <trkpt lat="46.25209" lon="-0.75465">
        <ele>5.9</ele>
        <time>2020-05-31T14:07:00Z</time>
      </trkpt>
      <trkpt lat="46.25209" lon="-0.75466">
        <ele>5.9</ele>
        <time>2020-05-31T14:07:01Z</time>
      </trkpt>
      <trkpt lat="46.25209" lon="-0.75467">
        <ele>5.9</ele>
        <time>2020-05-31T14:07:02Z</time>
      </trkpt>
      <trkpt lat="46.25209" lon="-0.75466">
        <ele>5.9</ele>
        <time>2020-05-31T14:07:03Z</time>
      </trkpt>
      <trkpt lat="46.25209" lon="-0.75467">
        <ele>5.9</ele>
        <time>2020-05-31T14:07:04Z</time>
      </trkpt>
      <trkpt lat="46.25209" lon="-0.75467">
        <ele>5.9</ele>
        <time>2020-05-31T14:07:05Z</time>
      </trkpt>
      <trkpt lat="46.25208" lon="-0.75467">
        <ele>5.9</ele>
        <time>2020-05-31T14:07:06Z</time>
      </trkpt>
      <trkpt lat="46.25208" lon="-0.75467">
        <ele>5.9</ele>
        <time>2020-05-31T14:07:07Z</time>
      </trkpt>
      <trkpt lat="46.25208" lon="-0.75467">
        <ele>5.9</ele>
        <time>2020-05-31T14:07:08Z</time>
      </trkpt>
      <trkpt lat="46.25208" lon="-0.75466">
        <ele>5.9</ele>
        <time>2020-05-31T14:07:09Z</time>
      </trkpt>
      <trkpt lat="46.25208" lon="-0.75466">
        <ele>5.9</ele>
        <time>2020-05-31T14:07:10Z</time>
      </trkpt>
      <trkpt lat="46.25208" lon="-0.75466">
        <ele>5.9</ele>
        <time>2020-05-31T14:07:11Z</time>
      </trkpt>
      <trkpt lat="46.25208" lon="-0.75466">
        <ele>5.9</ele>
        <time>2020-05-31T14:07:12Z</time>
      </trkpt>
      <trkpt lat="46.25208" lon="-0.75466">
        <ele>5.9</ele>
        <time>2020-05-31T14:07:13Z</time>
      </trkpt>
      <trkpt lat="46.25208" lon="-0.75465">
        <ele>5.9</ele>
        <time>2020-05-31T14:07:14Z</time>
      </trkpt>
      <trkpt lat="46.25208" lon="-0.75465">
        <ele>5.9</ele>
        <time>2020-05-31T14:07:15Z</time>
      </trkpt>
      <trkpt lat="46.25208" lon="-0.75465">
        <ele>5.9</ele>
        <time>2020-05-31T14:07:16Z</time>
      </trkpt>
      <trkpt lat="46.25209" lon="-0.75465">
        <ele>5.9</ele>
        <time>2020-05-31T14:07:17Z</time>
      </trkpt>
      <trkpt lat="46.25209" lon="-0.75465">
        <ele>5.9</ele>
        <time>2020-05-31T14:07:18Z</time>
      </trkpt>
      <trkpt lat="46.25209" lon="-0.75467">
        <ele>5.9</ele>
        <time>2020-05-31T14:07:19Z</time>
      </trkpt>
      <trkpt lat="46.25209" lon="-0.75467">
        <ele>5.9</ele>
        <time>2020-05-31T14:07:20Z</time>
      </trkpt>
      <trkpt lat="46.2521" lon="-0.75467">
        <ele>5.9</ele>
        <time>2020-05-31T14:07:21Z</time>
      </trkpt>
      <trkpt lat="46.25209" lon="-0.75467">
        <ele>5.9</ele>
        <time>2020-05-31T14:07:22Z</time>
      </trkpt>
      <trkpt lat="46.25209" lon="-0.75465">
        <ele>5.9</ele>
        <time>2020-05-31T14:07:23Z</time>
      </trkpt>
      <trkpt lat="46.25209" lon="-0.75465">
        <ele>5.9</ele>
        <time>2020-05-31T14:07:24Z</time>
      </trkpt>
      <trkpt lat="46.2521" lon="-0.75464">
        <ele>5.9</ele>
        <time>2020-05-31T14:07:25Z</time>
      </trkpt>
      <trkpt lat="46.2521" lon="-0.75463">
        <ele>5.9</ele>
        <time>2020-05-31T14:07:26Z</time>
      </trkpt>
      <trkpt lat="46.2521" lon="-0.75463">
        <ele>5.9</ele>
        <time>2020-05-31T14:07:27Z</time>
      </trkpt>
      <trkpt lat="46.25211" lon="-0.75463">
        <ele>5.9</ele>
        <time>2020-05-31T14:07:28Z</time>
      </trkpt>
      <trkpt lat="46.25212" lon="-0.75464">
        <ele>5.9</ele>
        <time>2020-05-31T14:07:29Z</time>
      </trkpt>
      <trkpt lat="46.25212" lon="-0.75464">
        <ele>5.9</ele>
        <time>2020-05-31T14:07:30Z</time>
      </trkpt>
      <trkpt lat="46.25213" lon="-0.75464">
        <ele>5.9</ele>
        <time>2020-05-31T14:07:31Z</time>
      </trkpt>
      <trkpt lat="46.25213" lon="-0.75465">
        <ele>5.9</ele>
        <time>2020-05-31T14:07:32Z</time>
      </trkpt>
      <trkpt lat="46.25213" lon="-0.75465">
        <ele>5.9</ele>
        <time>2020-05-31T14:07:33Z</time>
      </trkpt>
      <trkpt lat="46.25213" lon="-0.75465">
        <ele>5.9</ele>
        <time>2020-05-31T14:07:34Z</time>
      </trkpt>
      <trkpt lat="46.25213" lon="-0.75465">
        <ele>5.9</ele>
        <time>2020-05-31T14:07:35Z</time>
      </trkpt>
      <trkpt lat="46.25213" lon="-0.75465">
        <ele>5.9</ele>
        <time>2020-05-31T14:07:36Z</time>
      </trkpt>
      <trkpt lat="46.25212" lon="-0.75465">
        <ele>5.9</ele>
        <time>2020-05-31T14:07:37Z</time>
      </trkpt>
      <trkpt lat="46.25212" lon="-0.75465">
        <ele>5.9</ele>
        <time>2020-05-31T14:07:38Z</time>
      </trkpt>
      <trkpt lat="46.25212" lon="-0.75465">
        <ele>5.9</ele>
        <time>2020-05-31T14:07:39Z</time>
      </trkpt>
      <trkpt lat="46.25212" lon="-0.75465">
        <ele>5.9</ele>
        <time>2020-05-31T14:07:40Z</time>
      </trkpt>
      <trkpt lat="46.25212" lon="-0.75464">
        <ele>5.9</ele>
        <time>2020-05-31T14:07:41Z</time>
      </trkpt>
      <trkpt lat="46.25212" lon="-0.75465">
        <ele>5.9</ele>
        <time>2020-05-31T14:07:42Z</time>
      </trkpt>
      <trkpt lat="46.25212" lon="-0.75464">
        <ele>5.9</ele>
        <time>2020-05-31T14:07:43Z</time>
      </trkpt>
      <trkpt lat="46.25212" lon="-0.75464">
        <ele>5.9</ele>
        <time>2020-05-31T14:07:44Z</time>
      </trkpt>
      <trkpt lat="46.25212" lon="-0.75464">
        <ele>5.9</ele>
        <time>2020-05-31T14:07:45Z</time>
      </trkpt>
      <trkpt lat="46.25212" lon="-0.75464">
        <ele>5.9</ele>
        <time>2020-05-31T14:07:46Z</time>
      </trkpt>
      <trkpt lat="46.25212" lon="-0.75464">
        <ele>5.9</ele>
        <time>2020-05-31T14:07:47Z</time>
      </trkpt>
      <trkpt lat="46.25212" lon="-0.75464">
        <ele>5.9</ele>
        <time>2020-05-31T14:07:48Z</time>
      </trkpt>
      <trkpt lat="46.25212" lon="-0.75464">
        <ele>5.9</ele>
        <time>2020-05-31T14:07:49Z</time>
      </trkpt>
      <trkpt lat="46.25212" lon="-0.75464">
        <ele>5.9</ele>
        <time>2020-05-31T14:07:50Z</time>
      </trkpt>
      <trkpt lat="46.25212" lon="-0.75464">
        <ele>5.9</ele>
        <time>2020-05-31T14:07:51Z</time>
      </trkpt>
      <trkpt lat="46.25212" lon="-0.75464">
        <ele>5.9</ele>
        <time>2020-05-31T14:07:52Z</time>
      </trkpt>
      <trkpt lat="46.25212" lon="-0.75464">
        <ele>5.9</ele>
        <time>2020-05-31T14:07:53Z</time>
      </trkpt>
      <trkpt lat="46.25212" lon="-0.75464">
        <ele>5.9</ele>
        <time>2020-05-31T14:07:54Z</time>
      </trkpt>
      <trkpt lat="46.25212" lon="-0.75464">
        <ele>5.9</ele>
        <time>2020-05-31T14:07:55Z</time>
      </trkpt>
      <trkpt lat="46.25212" lon="-0.75464">
        <ele>5.9</ele>
        <time>2020-05-31T14:07:56Z</time>
      </trkpt>
      <trkpt lat="46.25212" lon="-0.75464">
        <ele>5.9</ele>
        <time>2020-05-31T14:07:57Z</time>
      </trkpt>
      <trkpt lat="46.25212" lon="-0.75464">
        <ele>5.9</ele>
        <time>2020-05-31T14:07:58Z</time>
      </trkpt>
      <trkpt lat="46.25212" lon="-0.75464">
        <ele>5.9</ele>
        <time>2020-05-31T14:07:59Z</time>
      </trkpt>
      <trkpt lat="46.25212" lon="-0.75464">
        <ele>5.9</ele>
        <time>2020-05-31T14:08:00Z</time>
      </trkpt>
      <trkpt lat="46.25212" lon="-0.75464">
        <ele>5.9</ele>
        <time>2020-05-31T14:08:01Z</time>
      </trkpt>
      <trkpt lat="46.25212" lon="-0.75464">
        <ele>5.9</ele>
        <time>2020-05-31T14:08:02Z</time>
      </trkpt>
      <trkpt lat="46.25212" lon="-0.75464">
        <ele>5.9</ele>
        <time>2020-05-31T14:08:03Z</time>
      </trkpt>
      <trkpt lat="46.25212" lon="-0.75464">
        <ele>5.9</ele>
        <time>2020-05-31T14:08:04Z</time>
      </trkpt>
      <trkpt lat="46.25212" lon="-0.75464">
        <ele>5.9</ele>
        <time>2020-05-31T14:08:05Z</time>
      </trkpt>
      <trkpt lat="46.25212" lon="-0.75464">
        <ele>5.9</ele>
        <time>2020-05-31T14:08:06Z</time>
      </trkpt>
      <trkpt lat="46.25212" lon="-0.75464">
        <ele>5.9</ele>
        <time>2020-05-31T14:08:07Z</time>
      </trkpt>
      <trkpt lat="46.25212" lon="-0.75464">
        <ele>5.9</ele>
        <time>2020-05-31T14:08:08Z</time>
      </trkpt>
      <trkpt lat="46.25212" lon="-0.75464">
        <ele>5.9</ele>
        <time>2020-05-31T14:08:09Z</time>
      </trkpt>
      <trkpt lat="46.25212" lon="-0.75464">
        <ele>5.9</ele>
        <time>2020-05-31T14:08:10Z</time>
      </trkpt>
      <trkpt lat="46.25212" lon="-0.75464">
        <ele>5.9</ele>
        <time>2020-05-31T14:08:11Z</time>
      </trkpt>
      <trkpt lat="46.25212" lon="-0.75464">
        <ele>5.9</ele>
        <time>2020-05-31T14:08:12Z</time>
      </trkpt>
      <trkpt lat="46.25212" lon="-0.75464">
        <ele>5.9</ele>
        <time>2020-05-31T14:08:13Z</time>
      </trkpt>
      <trkpt lat="46.25212" lon="-0.75464">
        <ele>5.9</ele>
        <time>2020-05-31T14:08:14Z</time>
      </trkpt>
      <trkpt lat="46.25212" lon="-0.75464">
        <ele>5.9</ele>
        <time>2020-05-31T14:08:15Z</time>
      </trkpt>
      <trkpt lat="46.25212" lon="-0.75464">
        <ele>5.9</ele>
        <time>2020-05-31T14:08:16Z</time>
      </trkpt>
      <trkpt lat="46.25212" lon="-0.75464">
        <ele>5.9</ele>
        <time>2020-05-31T14:08:17Z</time>
      </trkpt>
      <trkpt lat="46.25212" lon="-0.75464">
        <ele>5.9</ele>
        <time>2020-05-31T14:08:18Z</time>
      </trkpt>
      <trkpt lat="46.25212" lon="-0.75464">
        <ele>5.9</ele>
        <time>2020-05-31T14:08:19Z</time>
      </trkpt>
      <trkpt lat="46.25212" lon="-0.75464">
        <ele>5.9</ele>
        <time>2020-05-31T14:08:20Z</time>
      </trkpt>
      <trkpt lat="46.25212" lon="-0.75464">
        <ele>5.9</ele>
        <time>2020-05-31T14:08:21Z</time>
      </trkpt>
      <trkpt lat="46.25212" lon="-0.75464">
        <ele>5.9</ele>
        <time>2020-05-31T14:08:22Z</time>
      </trkpt>
      <trkpt lat="46.25212" lon="-0.75464">
        <ele>5.9</ele>
        <time>2020-05-31T14:08:23Z</time>
      </trkpt>
      <trkpt lat="46.25212" lon="-0.75464">
        <ele>5.9</ele>
        <time>2020-05-31T14:08:24Z</time>
      </trkpt>
      <trkpt lat="46.25212" lon="-0.75464">
        <ele>5.9</ele>
        <time>2020-05-31T14:08:25Z</time>
      </trkpt>
      <trkpt lat="46.25212" lon="-0.75464">
        <ele>5.9</ele>
        <time>2020-05-31T14:08:26Z</time>
      </trkpt>
      <trkpt lat="46.25212" lon="-0.75464">
        <ele>5.9</ele>
        <time>2020-05-31T14:08:27Z</time>
      </trkpt>
      <trkpt lat="46.25212" lon="-0.75464">
        <ele>5.9</ele>
        <time>2020-05-31T14:08:28Z</time>
      </trkpt>
      <trkpt lat="46.25212" lon="-0.75464">
        <ele>5.9</ele>
        <time>2020-05-31T14:08:29Z</time>
      </trkpt>
      <trkpt lat="46.25212" lon="-0.75464">
        <ele>5.9</ele>
        <time>2020-05-31T14:08:30Z</time>
      </trkpt>
      <trkpt lat="46.25212" lon="-0.75464">
        <ele>5.9</ele>
        <time>2020-05-31T14:08:31Z</time>
      </trkpt>
      <trkpt lat="46.25212" lon="-0.75464">
        <ele>5.9</ele>
        <time>2020-05-31T14:08:32Z</time>
      </trkpt>
      <trkpt lat="46.25212" lon="-0.75464">
        <ele>5.9</ele>
        <time>2020-05-31T14:08:33Z</time>
      </trkpt>
      <trkpt lat="46.25212" lon="-0.75464">
        <ele>5.9</ele>
        <time>2020-05-31T14:08:34Z</time>
      </trkpt>
      <trkpt lat="46.25212" lon="-0.75464">
        <ele>5.9</ele>
        <time>2020-05-31T14:08:35Z</time>
      </trkpt>
      <trkpt lat="46.25212" lon="-0.75464">
        <ele>5.9</ele>
        <time>2020-05-31T14:08:36Z</time>
      </trkpt>
      <trkpt lat="46.25212" lon="-0.75464">
        <ele>5.9</ele>
        <time>2020-05-31T14:08:37Z</time>
      </trkpt>
      <trkpt lat="46.25212" lon="-0.75464">
        <ele>5.9</ele>
        <time>2020-05-31T14:08:38Z</time>
      </trkpt>
      <trkpt lat="46.25212" lon="-0.75463">
        <ele>5.9</ele>
        <time>2020-05-31T14:08:39Z</time>
      </trkpt>
      <trkpt lat="46.25212" lon="-0.75463">
        <ele>5.9</ele>
        <time>2020-05-31T14:08:40Z</time>
      </trkpt>
      <trkpt lat="46.25212" lon="-0.75463">
        <ele>5.9</ele>
        <time>2020-05-31T14:08:41Z</time>
      </trkpt>
      <trkpt lat="46.25212" lon="-0.75463">
        <ele>5.9</ele>
        <time>2020-05-31T14:08:42Z</time>
      </trkpt>
      <trkpt lat="46.25213" lon="-0.75462">
        <ele>5.9</ele>
        <time>2020-05-31T14:08:43Z</time>
      </trkpt>
      <trkpt lat="46.25213" lon="-0.75462">
        <ele>5.9</ele>
        <time>2020-05-31T14:08:44Z</time>
      </trkpt>
      <trkpt lat="46.25213" lon="-0.75462">
        <ele>5.9</ele>
        <time>2020-05-31T14:08:45Z</time>
      </trkpt>
      <trkpt lat="46.25213" lon="-0.75462">
        <ele>5.9</ele>
        <time>2020-05-31T14:08:46Z</time>
      </trkpt>
      <trkpt lat="46.25213" lon="-0.75462">
        <ele>5.9</ele>
        <time>2020-05-31T14:08:47Z</time>
      </trkpt>
      <trkpt lat="46.25213" lon="-0.75462">
        <ele>5.9</ele>
        <time>2020-05-31T14:08:48Z</time>
      </trkpt>
      <trkpt lat="46.25213" lon="-0.75462">
        <ele>5.9</ele>
        <time>2020-05-31T14:08:49Z</time>
      </trkpt>
      <trkpt lat="46.25213" lon="-0.75462">
        <ele>5.9</ele>
        <time>2020-05-31T14:08:50Z</time>
      </trkpt>
      <trkpt lat="46.25213" lon="-0.75462">
        <ele>5.9</ele>
        <time>2020-05-31T14:08:51Z</time>
      </trkpt>
      <trkpt lat="46.25213" lon="-0.75462">
        <ele>5.9</ele>
        <time>2020-05-31T14:08:52Z</time>
      </trkpt>
      <trkpt lat="46.25213" lon="-0.75462">
        <ele>5.9</ele>
        <time>2020-05-31T14:08:53Z</time>
      </trkpt>
      <trkpt lat="46.25213" lon="-0.75462">
        <ele>5.9</ele>
        <time>2020-05-31T14:08:54Z</time>
      </trkpt>
      <trkpt lat="46.25213" lon="-0.75462">
        <ele>5.9</ele>
        <time>2020-05-31T14:08:55Z</time>
      </trkpt>
      <trkpt lat="46.25213" lon="-0.75462">
        <ele>5.9</ele>
        <time>2020-05-31T14:08:56Z</time>
      </trkpt>
      <trkpt lat="46.25213" lon="-0.75462">
        <ele>5.9</ele>
        <time>2020-05-31T14:08:57Z</time>
      </trkpt>
      <trkpt lat="46.25213" lon="-0.75462">
        <ele>5.9</ele>
        <time>2020-05-31T14:08:58Z</time>
      </trkpt>
      <trkpt lat="46.25213" lon="-0.75462">
        <ele>5.9</ele>
        <time>2020-05-31T14:08:59Z</time>
      </trkpt>
      <trkpt lat="46.25213" lon="-0.75462">
        <ele>5.9</ele>
        <time>2020-05-31T14:09:00Z</time>
      </trkpt>
      <trkpt lat="46.25213" lon="-0.75462">
        <ele>5.9</ele>
        <time>2020-05-31T14:09:01Z</time>
      </trkpt>
      <trkpt lat="46.25213" lon="-0.75462">
        <ele>5.9</ele>
        <time>2020-05-31T14:09:02Z</time>
      </trkpt>
      <trkpt lat="46.25213" lon="-0.75462">
        <ele>5.9</ele>
        <time>2020-05-31T14:09:03Z</time>
      </trkpt>
      <trkpt lat="46.25213" lon="-0.75462">
        <ele>5.9</ele>
        <time>2020-05-31T14:09:04Z</time>
      </trkpt>
      <trkpt lat="46.25213" lon="-0.75462">
        <ele>5.9</ele>
        <time>2020-05-31T14:09:05Z</time>
      </trkpt>
      <trkpt lat="46.25213" lon="-0.75462">
        <ele>5.9</ele>
        <time>2020-05-31T14:09:06Z</time>
      </trkpt>
      <trkpt lat="46.25213" lon="-0.75462">
        <ele>5.9</ele>
        <time>2020-05-31T14:09:07Z</time>
      </trkpt>
      <trkpt lat="46.25213" lon="-0.75462">
        <ele>5.9</ele>
        <time>2020-05-31T14:09:08Z</time>
      </trkpt>
      <trkpt lat="46.25213" lon="-0.75462">
        <ele>5.9</ele>
        <time>2020-05-31T14:09:09Z</time>
      </trkpt>
      <trkpt lat="46.25213" lon="-0.75462">
        <ele>5.9</ele>
        <time>2020-05-31T14:09:10Z</time>
      </trkpt>
      <trkpt lat="46.25213" lon="-0.75462">
        <ele>5.9</ele>
        <time>2020-05-31T14:09:11Z</time>
      </trkpt>
      <trkpt lat="46.25213" lon="-0.75462">
        <ele>5.9</ele>
        <time>2020-05-31T14:09:12Z</time>
      </trkpt>
      <trkpt lat="46.25213" lon="-0.75462">
        <ele>5.9</ele>
        <time>2020-05-31T14:09:13Z</time>
      </trkpt>
      <trkpt lat="46.25213" lon="-0.75462">
        <ele>5.9</ele>
        <time>2020-05-31T14:09:14Z</time>
      </trkpt>
      <trkpt lat="46.25213" lon="-0.75462">
        <ele>5.9</ele>
        <time>2020-05-31T14:09:15Z</time>
      </trkpt>
      <trkpt lat="46.25213" lon="-0.75462">
        <ele>5.9</ele>
        <time>2020-05-31T14:09:16Z</time>
      </trkpt>
      <trkpt lat="46.25213" lon="-0.75462">
        <ele>5.9</ele>
        <time>2020-05-31T14:09:17Z</time>
      </trkpt>
      <trkpt lat="46.25213" lon="-0.75462">
        <ele>5.9</ele>
        <time>2020-05-31T14:09:18Z</time>
      </trkpt>
      <trkpt lat="46.25213" lon="-0.75462">
        <ele>5.9</ele>
        <time>2020-05-31T14:09:19Z</time>
      </trkpt>
      <trkpt lat="46.25213" lon="-0.75462">
        <ele>5.9</ele>
        <time>2020-05-31T14:09:20Z</time>
      </trkpt>
      <trkpt lat="46.25213" lon="-0.75462">
        <ele>5.9</ele>
        <time>2020-05-31T14:09:21Z</time>
      </trkpt>
      <trkpt lat="46.25213" lon="-0.75462">
        <ele>5.9</ele>
        <time>2020-05-31T14:09:22Z</time>
      </trkpt>
      <trkpt lat="46.25213" lon="-0.75462">
        <ele>5.9</ele>
        <time>2020-05-31T14:09:23Z</time>
      </trkpt>
      <trkpt lat="46.25213" lon="-0.75462">
        <ele>5.9</ele>
        <time>2020-05-31T14:09:24Z</time>
      </trkpt>
      <trkpt lat="46.25213" lon="-0.75462">
        <ele>5.9</ele>
        <time>2020-05-31T14:09:25Z</time>
      </trkpt>
      <trkpt lat="46.25213" lon="-0.75462">
        <ele>5.9</ele>
        <time>2020-05-31T14:09:26Z</time>
      </trkpt>
      <trkpt lat="46.25213" lon="-0.75462">
        <ele>5.9</ele>
        <time>2020-05-31T14:09:27Z</time>
      </trkpt>
      <trkpt lat="46.25213" lon="-0.75462">
        <ele>5.9</ele>
        <time>2020-05-31T14:09:28Z</time>
      </trkpt>
      <trkpt lat="46.25213" lon="-0.75461">
        <ele>5.9</ele>
        <time>2020-05-31T14:09:29Z</time>
      </trkpt>
      <trkpt lat="46.25213" lon="-0.75461">
        <ele>5.9</ele>
        <time>2020-05-31T14:09:30Z</time>
      </trkpt>
      <trkpt lat="46.25213" lon="-0.75461">
        <ele>5.9</ele>
        <time>2020-05-31T14:09:31Z</time>
      </trkpt>
      <trkpt lat="46.25213" lon="-0.75461">
        <ele>5.9</ele>
        <time>2020-05-31T14:09:32Z</time>
      </trkpt>
      <trkpt lat="46.25213" lon="-0.75461">
        <ele>5.9</ele>
        <time>2020-05-31T14:09:33Z</time>
      </trkpt>
      <trkpt lat="46.25213" lon="-0.7546">
        <ele>5.9</ele>
        <time>2020-05-31T14:09:34Z</time>
      </trkpt>
      <trkpt lat="46.25214" lon="-0.7546">
        <ele>5.9</ele>
        <time>2020-05-31T14:09:35Z</time>
      </trkpt>
      <trkpt lat="46.25214" lon="-0.75461">
        <ele>5.9</ele>
        <time>2020-05-31T14:09:36Z</time>
      </trkpt>
      <trkpt lat="46.25214" lon="-0.75462">
        <ele>5.9</ele>
        <time>2020-05-31T14:09:37Z</time>
      </trkpt>
      <trkpt lat="46.25214" lon="-0.75462">
        <ele>5.9</ele>
        <time>2020-05-31T14:09:38Z</time>
      </trkpt>
      <trkpt lat="46.25214" lon="-0.75462">
        <ele>5.9</ele>
        <time>2020-05-31T14:09:39Z</time>
      </trkpt>
      <trkpt lat="46.25214" lon="-0.75462">
        <ele>5.9</ele>
        <time>2020-05-31T14:09:40Z</time>
      </trkpt>
      <trkpt lat="46.25214" lon="-0.75462">
        <ele>5.9</ele>
        <time>2020-05-31T14:09:41Z</time>
      </trkpt>
      <trkpt lat="46.25214" lon="-0.75462">
        <ele>5.9</ele>
        <time>2020-05-31T14:09:42Z</time>
      </trkpt>
      <trkpt lat="46.25214" lon="-0.75462">
        <ele>5.9</ele>
        <time>2020-05-31T14:09:43Z</time>
      </trkpt>
      <trkpt lat="46.25214" lon="-0.75462">
        <ele>5.9</ele>
        <time>2020-05-31T14:09:44Z</time>
      </trkpt>
      <trkpt lat="46.25214" lon="-0.75462">
        <ele>5.9</ele>
        <time>2020-05-31T14:09:45Z</time>
      </trkpt>
      <trkpt lat="46.25214" lon="-0.75462">
        <ele>5.9</ele>
        <time>2020-05-31T14:09:46Z</time>
      </trkpt>
      <trkpt lat="46.25214" lon="-0.75462">
        <ele>5.9</ele>
        <time>2020-05-31T14:09:47Z</time>
      </trkpt>
      <trkpt lat="46.25214" lon="-0.75462">
        <ele>5.9</ele>
        <time>2020-05-31T14:09:48Z</time>
      </trkpt>
      <trkpt lat="46.25214" lon="-0.75462">
        <ele>5.9</ele>
        <time>2020-05-31T14:09:49Z</time>
      </trkpt>
      <trkpt lat="46.25214" lon="-0.75462">
        <ele>5.9</ele>
        <time>2020-05-31T14:09:50Z</time>
      </trkpt>
      <trkpt lat="46.25214" lon="-0.75462">
        <ele>5.9</ele>
        <time>2020-05-31T14:09:51Z</time>
      </trkpt>
      <trkpt lat="46.25214" lon="-0.75462">
        <ele>5.9</ele>
        <time>2020-05-31T14:09:52Z</time>
      </trkpt>
      <trkpt lat="46.25214" lon="-0.75462">
        <ele>5.9</ele>
        <time>2020-05-31T14:09:53Z</time>
      </trkpt>
      <trkpt lat="46.25214" lon="-0.75462">
        <ele>5.9</ele>
        <time>2020-05-31T14:09:54Z</time>
      </trkpt>
      <trkpt lat="46.25214" lon="-0.75462">
        <ele>5.9</ele>
        <time>2020-05-31T14:09:55Z</time>
      </trkpt>
      <trkpt lat="46.25214" lon="-0.75462">
        <ele>5.9</ele>
        <time>2020-05-31T14:09:56Z</time>
      </trkpt>
      <trkpt lat="46.25214" lon="-0.75462">
        <ele>5.9</ele>
        <time>2020-05-31T14:09:57Z</time>
      </trkpt>
      <trkpt lat="46.25214" lon="-0.75462">
        <ele>5.9</ele>
        <time>2020-05-31T14:09:58Z</time>
      </trkpt>
      <trkpt lat="46.25214" lon="-0.75462">
        <ele>5.9</ele>
        <time>2020-05-31T14:09:59Z</time>
      </trkpt>
      <trkpt lat="46.25214" lon="-0.75462">
        <ele>5.9</ele>
        <time>2020-05-31T14:10:00Z</time>
      </trkpt>
      <trkpt lat="46.25214" lon="-0.75462">
        <ele>5.9</ele>
        <time>2020-05-31T14:10:01Z</time>
      </trkpt>
      <trkpt lat="46.25214" lon="-0.75462">
        <ele>5.9</ele>
        <time>2020-05-31T14:10:02Z</time>
      </trkpt>
      <trkpt lat="46.25214" lon="-0.75462">
        <ele>5.9</ele>
        <time>2020-05-31T14:10:03Z</time>
      </trkpt>
      <trkpt lat="46.25214" lon="-0.75462">
        <ele>5.9</ele>
        <time>2020-05-31T14:10:04Z</time>
      </trkpt>
      <trkpt lat="46.25214" lon="-0.75462">
        <ele>5.9</ele>
        <time>2020-05-31T14:10:05Z</time>
      </trkpt>
      <trkpt lat="46.25214" lon="-0.75462">
        <ele>5.9</ele>
        <time>2020-05-31T14:10:06Z</time>
      </trkpt>
      <trkpt lat="46.25214" lon="-0.75462">
        <ele>5.9</ele>
        <time>2020-05-31T14:10:07Z</time>
      </trkpt>
      <trkpt lat="46.25214" lon="-0.75462">
        <ele>5.9</ele>
        <time>2020-05-31T14:10:08Z</time>
      </trkpt>
      <trkpt lat="46.25214" lon="-0.75462">
        <ele>5.9</ele>
        <time>2020-05-31T14:10:09Z</time>
      </trkpt>
      <trkpt lat="46.25214" lon="-0.75462">
        <ele>5.9</ele>
        <time>2020-05-31T14:10:10Z</time>
      </trkpt>
      <trkpt lat="46.25214" lon="-0.75462">
        <ele>5.9</ele>
        <time>2020-05-31T14:10:11Z</time>
      </trkpt>
      <trkpt lat="46.25214" lon="-0.75462">
        <ele>5.9</ele>
        <time>2020-05-31T14:10:12Z</time>
      </trkpt>
      <trkpt lat="46.25214" lon="-0.75462">
        <ele>5.9</ele>
        <time>2020-05-31T14:10:13Z</time>
      </trkpt>
      <trkpt lat="46.25214" lon="-0.75462">
        <ele>5.9</ele>
        <time>2020-05-31T14:10:14Z</time>
      </trkpt>
      <trkpt lat="46.25214" lon="-0.75462">
        <ele>5.9</ele>
        <time>2020-05-31T14:10:15Z</time>
      </trkpt>
      <trkpt lat="46.25214" lon="-0.75462">
        <ele>5.9</ele>
        <time>2020-05-31T14:10:16Z</time>
      </trkpt>
      <trkpt lat="46.25214" lon="-0.75462">
        <ele>5.9</ele>
        <time>2020-05-31T14:10:17Z</time>
      </trkpt>
      <trkpt lat="46.25214" lon="-0.75462">
        <ele>5.9</ele>
        <time>2020-05-31T14:10:18Z</time>
      </trkpt>
      <trkpt lat="46.25214" lon="-0.75462">
        <ele>5.9</ele>
        <time>2020-05-31T14:10:19Z</time>
      </trkpt>
      <trkpt lat="46.25214" lon="-0.75462">
        <ele>5.9</ele>
        <time>2020-05-31T14:10:20Z</time>
      </trkpt>
      <trkpt lat="46.25214" lon="-0.75462">
        <ele>5.9</ele>
        <time>2020-05-31T14:10:21Z</time>
      </trkpt>
      <trkpt lat="46.25214" lon="-0.75462">
        <ele>5.9</ele>
        <time>2020-05-31T14:10:22Z</time>
      </trkpt>
      <trkpt lat="46.25214" lon="-0.75462">
        <ele>5.9</ele>
        <time>2020-05-31T14:10:23Z</time>
      </trkpt>
      <trkpt lat="46.25214" lon="-0.75462">
        <ele>5.9</ele>
        <time>2020-05-31T14:10:24Z</time>
      </trkpt>
      <trkpt lat="46.25214" lon="-0.75462">
        <ele>5.9</ele>
        <time>2020-05-31T14:10:25Z</time>
      </trkpt>
      <trkpt lat="46.25214" lon="-0.75462">
        <ele>5.9</ele>
        <time>2020-05-31T14:10:26Z</time>
      </trkpt>
      <trkpt lat="46.25214" lon="-0.75462">
        <ele>5.9</ele>
        <time>2020-05-31T14:10:27Z</time>
      </trkpt>
      <trkpt lat="46.25214" lon="-0.75462">
        <ele>5.9</ele>
        <time>2020-05-31T14:10:28Z</time>
      </trkpt>
      <trkpt lat="46.25214" lon="-0.75462">
        <ele>5.9</ele>
        <time>2020-05-31T14:10:29Z</time>
      </trkpt>
      <trkpt lat="46.25214" lon="-0.75462">
        <ele>5.9</ele>
        <time>2020-05-31T14:10:30Z</time>
      </trkpt>
      <trkpt lat="46.25214" lon="-0.75462">
        <ele>5.9</ele>
        <time>2020-05-31T14:10:31Z</time>
      </trkpt>
      <trkpt lat="46.25214" lon="-0.75462">
        <ele>5.9</ele>
        <time>2020-05-31T14:10:32Z</time>
      </trkpt>
      <trkpt lat="46.25214" lon="-0.75462">
        <ele>5.9</ele>
        <time>2020-05-31T14:10:33Z</time>
      </trkpt>
      <trkpt lat="46.25214" lon="-0.75462">
        <ele>5.9</ele>
        <time>2020-05-31T14:10:34Z</time>
      </trkpt>
      <trkpt lat="46.25214" lon="-0.75462">
        <ele>5.9</ele>
        <time>2020-05-31T14:10:35Z</time>
      </trkpt>
      <trkpt lat="46.25214" lon="-0.75462">
        <ele>5.9</ele>
        <time>2020-05-31T14:10:36Z</time>
      </trkpt>
      <trkpt lat="46.25214" lon="-0.75462">
        <ele>5.9</ele>
        <time>2020-05-31T14:10:37Z</time>
      </trkpt>
      <trkpt lat="46.25214" lon="-0.75462">
        <ele>5.9</ele>
        <time>2020-05-31T14:10:38Z</time>
      </trkpt>
      <trkpt lat="46.25214" lon="-0.75462">
        <ele>5.9</ele>
        <time>2020-05-31T14:10:39Z</time>
      </trkpt>
      <trkpt lat="46.25214" lon="-0.75462">
        <ele>5.9</ele>
        <time>2020-05-31T14:10:40Z</time>
      </trkpt>
      <trkpt lat="46.25214" lon="-0.75462">
        <ele>5.9</ele>
        <time>2020-05-31T14:10:41Z</time>
      </trkpt>
      <trkpt lat="46.25214" lon="-0.75462">
        <ele>5.9</ele>
        <time>2020-05-31T14:10:42Z</time>
      </trkpt>
      <trkpt lat="46.25214" lon="-0.75462">
        <ele>5.9</ele>
        <time>2020-05-31T14:10:43Z</time>
      </trkpt>
      <trkpt lat="46.25214" lon="-0.75462">
        <ele>5.9</ele>
        <time>2020-05-31T14:10:44Z</time>
      </trkpt>
      <trkpt lat="46.25214" lon="-0.75461">
        <ele>5.9</ele>
        <time>2020-05-31T14:10:45Z</time>
      </trkpt>
      <trkpt lat="46.25214" lon="-0.75461">
        <ele>5.9</ele>
        <time>2020-05-31T14:10:46Z</time>
      </trkpt>
      <trkpt lat="46.25215" lon="-0.75461">
        <ele>5.9</ele>
        <time>2020-05-31T14:10:47Z</time>
      </trkpt>
      <trkpt lat="46.25215" lon="-0.7546">
        <ele>5.9</ele>
        <time>2020-05-31T14:10:48Z</time>
      </trkpt>
      <trkpt lat="46.25214" lon="-0.7546">
        <ele>5.9</ele>
        <time>2020-05-31T14:10:49Z</time>
      </trkpt>
      <trkpt lat="46.25214" lon="-0.7546">
        <ele>5.9</ele>
        <time>2020-05-31T14:10:50Z</time>
      </trkpt>
      <trkpt lat="46.25214" lon="-0.7546">
        <ele>5.9</ele>
        <time>2020-05-31T14:10:51Z</time>
      </trkpt>
      <trkpt lat="46.25214" lon="-0.7546">
        <ele>5.9</ele>
        <time>2020-05-31T14:10:52Z</time>
      </trkpt>
      <trkpt lat="46.25265" lon="-0.75572">
        <ele>6.2</ele>
        <time>2020-05-31T15:10:12Z</time>
      </trkpt>
      <trkpt lat="46.25265" lon="-0.75572">
        <ele>6.2</ele>
        <time>2020-05-31T15:10:13Z</time>
      </trkpt>
      <trkpt lat="46.25265" lon="-0.75572">
        <ele>6.2</ele>
        <time>2020-05-31T15:10:14Z</time>
      </trkpt>
      <trkpt lat="46.25265" lon="-0.75572">
        <ele>6.2</ele>
        <time>2020-05-31T15:10:15Z</time>
      </trkpt>
      <trkpt lat="46.25265" lon="-0.75572">
        <ele>6.2</ele>
        <time>2020-05-31T15:10:16Z</time>
      </trkpt>
      <trkpt lat="46.25265" lon="-0.75572">
        <ele>6.2</ele>
        <time>2020-05-31T15:10:17Z</time>
      </trkpt>
      <trkpt lat="46.25265" lon="-0.75572">
        <ele>6.2</ele>
        <time>2020-05-31T15:10:18Z</time>
      </trkpt>
      <trkpt lat="46.25265" lon="-0.75572">
        <ele>6.2</ele>
        <time>2020-05-31T15:10:19Z</time>
      </trkpt>
      <trkpt lat="46.25265" lon="-0.75572">
        <ele>6.2</ele>
        <time>2020-05-31T15:10:20Z</time>
      </trkpt>
      <trkpt lat="46.25266" lon="-0.75572">
        <ele>6.2</ele>
        <time>2020-05-31T15:10:21Z</time>
      </trkpt>
      <trkpt lat="46.25266" lon="-0.75572">
        <ele>6.2</ele>
        <time>2020-05-31T15:10:22Z</time>
      </trkpt>
      <trkpt lat="46.25266" lon="-0.75572">
        <ele>6.2</ele>
        <time>2020-05-31T15:10:23Z</time>
      </trkpt>
      <trkpt lat="46.25266" lon="-0.75572">
        <ele>6.2</ele>
        <time>2020-05-31T15:10:24Z</time>
      </trkpt>
      <trkpt lat="46.25266" lon="-0.75571">
        <ele>6.2</ele>
        <time>2020-05-31T15:10:25Z</time>
      </trkpt>
      <trkpt lat="46.25267" lon="-0.75572">
        <ele>6.2</ele>
        <time>2020-05-31T15:10:26Z</time>
      </trkpt>
      <trkpt lat="46.25267" lon="-0.75572">
        <ele>6.2</ele>
        <time>2020-05-31T15:10:27Z</time>
      </trkpt>
      <trkpt lat="46.25267" lon="-0.75573">
        <ele>6.2</ele>
        <time>2020-05-31T15:10:28Z</time>
      </trkpt>
      <trkpt lat="46.25267" lon="-0.75573">
        <ele>6.2</ele>
        <time>2020-05-31T15:10:29Z</time>
      </trkpt>
      <trkpt lat="46.25267" lon="-0.75573">
        <ele>6.2</ele>
        <time>2020-05-31T15:10:30Z</time>
      </trkpt>
      <trkpt lat="46.25267" lon="-0.75573">
        <ele>6.2</ele>
        <time>2020-05-31T15:10:31Z</time>
      </trkpt>
      <trkpt lat="46.25267" lon="-0.75572">
        <ele>6.2</ele>
        <time>2020-05-31T15:10:32Z</time>
      </trkpt>
      <trkpt lat="46.25266" lon="-0.75571">
        <ele>6.2</ele>
        <time>2020-05-31T15:10:33Z</time>
      </trkpt>
      <trkpt lat="46.25266" lon="-0.7557">
        <ele>6.2</ele>
        <time>2020-05-31T15:10:34Z</time>
      </trkpt>
      <trkpt lat="46.25266" lon="-0.75568">
        <ele>6.2</ele>
        <time>2020-05-31T15:10:35Z</time>
      </trkpt>
      <trkpt lat="46.25267" lon="-0.75568">
        <ele>6.2</ele>
        <time>2020-05-31T15:10:36Z</time>
      </trkpt>
      <trkpt lat="46.25267" lon="-0.75569">
        <ele>6.2</ele>
        <time>2020-05-31T15:10:37Z</time>
      </trkpt>
      <trkpt lat="46.25267" lon="-0.7557">
        <ele>6.2</ele>
        <time>2020-05-31T15:10:38Z</time>
      </trkpt>
      <trkpt lat="46.25267" lon="-0.75571">
        <ele>6.2</ele>
        <time>2020-05-31T15:10:39Z</time>
      </trkpt>
      <trkpt lat="46.25267" lon="-0.75572">
        <ele>6.2</ele>
        <time>2020-05-31T15:10:40Z</time>
      </trkpt>
      <trkpt lat="46.25268" lon="-0.75573">
        <ele>6.2</ele>
        <time>2020-05-31T15:10:41Z</time>
      </trkpt>
      <trkpt lat="46.25268" lon="-0.75574">
        <ele>6.2</ele>
        <time>2020-05-31T15:10:42Z</time>
      </trkpt>
      <trkpt lat="46.25268" lon="-0.75576">
        <ele>6.2</ele>
        <time>2020-05-31T15:10:43Z</time>
      </trkpt>
      <trkpt lat="46.25268" lon="-0.75576">
        <ele>6.2</ele>
        <time>2020-05-31T15:10:44Z</time>
      </trkpt>
      <trkpt lat="46.25269" lon="-0.75578">
        <ele>6.2</ele>
        <time>2020-05-31T15:10:45Z</time>
      </trkpt>
      <trkpt lat="46.25268" lon="-0.75582">
        <ele>6.1</ele>
        <time>2020-05-31T15:10:46Z</time>
      </trkpt>
      <trkpt lat="46.25268" lon="-0.75583">
        <ele>6.1</ele>
        <time>2020-05-31T15:10:47Z</time>
      </trkpt>
      <trkpt lat="46.25267" lon="-0.75588">
        <ele>6.1</ele>
        <time>2020-05-31T15:10:48Z</time>
      </trkpt>
      <trkpt lat="46.25267" lon="-0.7559">
        <ele>6.1</ele>
        <time>2020-05-31T15:10:49Z</time>
      </trkpt>
      <trkpt lat="46.25266" lon="-0.75596">
        <ele>6.1</ele>
        <time>2020-05-31T15:10:50Z</time>
      </trkpt>
      <trkpt lat="46.25265" lon="-0.75604">
        <ele>6</ele>
        <time>2020-05-31T15:10:51Z</time>
      </trkpt>
      <trkpt lat="46.25263" lon="-0.75612">
        <ele>5.9</ele>
        <time>2020-05-31T15:10:52Z</time>
      </trkpt>
      <trkpt lat="46.25262" lon="-0.75621">
        <ele>5.8</ele>
        <time>2020-05-31T15:10:53Z</time>
      </trkpt>
      <trkpt lat="46.25261" lon="-0.7563">
        <ele>5.7</ele>
        <time>2020-05-31T15:10:54Z</time>
      </trkpt>
      <trkpt lat="46.2526" lon="-0.75639">
        <ele>5.6</ele>
        <time>2020-05-31T15:10:55Z</time>
      </trkpt>
      <trkpt lat="46.25258" lon="-0.7565">
        <ele>5.5</ele>
        <time>2020-05-31T15:10:56Z</time>
      </trkpt>
      <trkpt lat="46.25257" lon="-0.75661">
        <ele>5.4</ele>
        <time>2020-05-31T15:10:57Z</time>
      </trkpt>
      <trkpt lat="46.25255" lon="-0.75669">
        <ele>5.3</ele>
        <time>2020-05-31T15:10:58Z</time>
      </trkpt>
      <trkpt lat="46.25255" lon="-0.75677">
        <ele>5.2</ele>
        <time>2020-05-31T15:10:59Z</time>
      </trkpt>
      <trkpt lat="46.25252" lon="-0.75685">
        <ele>5.1</ele>
        <time>2020-05-31T15:11:00Z</time>
      </trkpt>
      <trkpt lat="46.2525" lon="-0.75694">
        <ele>5</ele>
        <time>2020-05-31T15:11:01Z</time>
      </trkpt>
      <trkpt lat="46.25248" lon="-0.75702">
        <ele>4.9</ele>
        <time>2020-05-31T15:11:02Z</time>
      </trkpt>
      <trkpt lat="46.25247" lon="-0.75713">
        <ele>4.8</ele>
        <time>2020-05-31T15:11:03Z</time>
      </trkpt>
      <trkpt lat="46.25245" lon="-0.75723">
        <ele>4.7</ele>
        <time>2020-05-31T15:11:04Z</time>
      </trkpt>
      <trkpt lat="46.25244" lon="-0.75734">
        <ele>4.7</ele>
        <time>2020-05-31T15:11:05Z</time>
      </trkpt>
      <trkpt lat="46.25242" lon="-0.75744">
        <ele>4.6</ele>
        <time>2020-05-31T15:11:06Z</time>
      </trkpt>
      <trkpt lat="46.2524" lon="-0.75752">
        <ele>4.6</ele>
        <time>2020-05-31T15:11:07Z</time>
      </trkpt>
      <trkpt lat="46.25239" lon="-0.7576">
        <ele>4.6</ele>
        <time>2020-05-31T15:11:08Z</time>
      </trkpt>
      <trkpt lat="46.25237" lon="-0.75768">
        <ele>4.5</ele>
        <time>2020-05-31T15:11:09Z</time>
      </trkpt>
      <trkpt lat="46.25235" lon="-0.75776">
        <ele>4.5</ele>
        <time>2020-05-31T15:11:10Z</time>
      </trkpt>
      <trkpt lat="46.25233" lon="-0.75785">
        <ele>4.5</ele>
        <time>2020-05-31T15:11:11Z</time>
      </trkpt>
      <trkpt lat="46.25232" lon="-0.75794">
        <ele>4.5</ele>
        <time>2020-05-31T15:11:12Z</time>
      </trkpt>
      <trkpt lat="46.2523" lon="-0.75801">
        <ele>4.5</ele>
        <time>2020-05-31T15:11:13Z</time>
      </trkpt>
      <trkpt lat="46.25229" lon="-0.7581">
        <ele>4.5</ele>
        <time>2020-05-31T15:11:14Z</time>
      </trkpt>
      <trkpt lat="46.25228" lon="-0.75818">
        <ele>4.5</ele>
        <time>2020-05-31T15:11:15Z</time>
      </trkpt>
      <trkpt lat="46.25226" lon="-0.75825">
        <ele>4.5</ele>
        <time>2020-05-31T15:11:16Z</time>
      </trkpt>
      <trkpt lat="46.25225" lon="-0.75832">
        <ele>4.5</ele>
        <time>2020-05-31T15:11:17Z</time>
      </trkpt>
      <trkpt lat="46.25224" lon="-0.7584">
        <ele>4.5</ele>
        <time>2020-05-31T15:11:18Z</time>
      </trkpt>
      <trkpt lat="46.25222" lon="-0.75848">
        <ele>4.5</ele>
        <time>2020-05-31T15:11:19Z</time>
      </trkpt>
      <trkpt lat="46.25221" lon="-0.75856">
        <ele>4.5</ele>
        <time>2020-05-31T15:11:20Z</time>
      </trkpt>
      <trkpt lat="46.2522" lon="-0.75863">
        <ele>4.5</ele>
        <time>2020-05-31T15:11:21Z</time>
      </trkpt>
      <trkpt lat="46.25219" lon="-0.75872">
        <ele>4.5</ele>
        <time>2020-05-31T15:11:22Z</time>
      </trkpt>
      <trkpt lat="46.25217" lon="-0.75881">
        <ele>4.5</ele>
        <time>2020-05-31T15:11:23Z</time>
      </trkpt>
      <trkpt lat="46.25216" lon="-0.75892">
        <ele>4.5</ele>
        <time>2020-05-31T15:11:24Z</time>
      </trkpt>
      <trkpt lat="46.25214" lon="-0.75903">
        <ele>4.5</ele>
        <time>2020-05-31T15:11:25Z</time>
      </trkpt>
      <trkpt lat="46.25212" lon="-0.75915">
        <ele>4.5</ele>
        <time>2020-05-31T15:11:26Z</time>
      </trkpt>
      <trkpt lat="46.25208" lon="-0.75926">
        <ele>4.5</ele>
        <time>2020-05-31T15:11:27Z</time>
      </trkpt>
      <trkpt lat="46.25206" lon="-0.75937">
        <ele>4.5</ele>
        <time>2020-05-31T15:11:28Z</time>
      </trkpt>
      <trkpt lat="46.25205" lon="-0.75947">
        <ele>4.5</ele>
        <time>2020-05-31T15:11:29Z</time>
      </trkpt>
      <trkpt lat="46.25202" lon="-0.75957">
        <ele>4.5</ele>
        <time>2020-05-31T15:11:30Z</time>
      </trkpt>
      <trkpt lat="46.25201" lon="-0.75968">
        <ele>4.5</ele>
        <time>2020-05-31T15:11:31Z</time>
      </trkpt>
      <trkpt lat="46.252" lon="-0.75977">
        <ele>4.6</ele>
        <time>2020-05-31T15:11:32Z</time>
      </trkpt>
      <trkpt lat="46.25199" lon="-0.75985">
        <ele>4.6</ele>
        <time>2020-05-31T15:11:33Z</time>
      </trkpt>
      <trkpt lat="46.25198" lon="-0.75992">
        <ele>4.6</ele>
        <time>2020-05-31T15:11:34Z</time>
      </trkpt>
      <trkpt lat="46.25196" lon="-0.76002">
        <ele>4.6</ele>
        <time>2020-05-31T15:11:35Z</time>
      </trkpt>
      <trkpt lat="46.25195" lon="-0.76011">
        <ele>4.7</ele>
        <time>2020-05-31T15:11:36Z</time>
      </trkpt>
      <trkpt lat="46.25194" lon="-0.76021">
        <ele>4.7</ele>
        <time>2020-05-31T15:11:37Z</time>
      </trkpt>
      <trkpt lat="46.25192" lon="-0.7603">
        <ele>4.8</ele>
        <time>2020-05-31T15:11:38Z</time>
      </trkpt>
      <trkpt lat="46.25191" lon="-0.76039">
        <ele>4.8</ele>
        <time>2020-05-31T15:11:39Z</time>
      </trkpt>
      <trkpt lat="46.2519" lon="-0.76047">
        <ele>4.9</ele>
        <time>2020-05-31T15:11:40Z</time>
      </trkpt>
      <trkpt lat="46.25187" lon="-0.76057">
        <ele>5</ele>
        <time>2020-05-31T15:11:41Z</time>
      </trkpt>
      <trkpt lat="46.25186" lon="-0.76065">
        <ele>5.1</ele>
        <time>2020-05-31T15:11:42Z</time>
      </trkpt>
      <trkpt lat="46.25185" lon="-0.76072">
        <ele>5.2</ele>
        <time>2020-05-31T15:11:43Z</time>
      </trkpt>
      <trkpt lat="46.25184" lon="-0.7608">
        <ele>5.3</ele>
        <time>2020-05-31T15:11:44Z</time>
      </trkpt>
      <trkpt lat="46.25182" lon="-0.76089">
        <ele>5.5</ele>
        <time>2020-05-31T15:11:45Z</time>
      </trkpt>
      <trkpt lat="46.25181" lon="-0.76098">
        <ele>5.6</ele>
        <time>2020-05-31T15:11:46Z</time>
      </trkpt>
      <trkpt lat="46.2518" lon="-0.76105">
        <ele>5.6</ele>
        <time>2020-05-31T15:11:47Z</time>
      </trkpt>
      <trkpt lat="46.25179" lon="-0.76114">
        <ele>5.7</ele>
        <time>2020-05-31T15:11:48Z</time>
      </trkpt>
      <trkpt lat="46.25179" lon="-0.76121">
        <ele>5.7</ele>
        <time>2020-05-31T15:11:49Z</time>
      </trkpt>
      <trkpt lat="46.25179" lon="-0.76127">
        <ele>5.8</ele>
        <time>2020-05-31T15:11:50Z</time>
      </trkpt>
      <trkpt lat="46.25179" lon="-0.76133">
        <ele>5.8</ele>
        <time>2020-05-31T15:11:51Z</time>
      </trkpt>
      <trkpt lat="46.25178" lon="-0.76139">
        <ele>5.8</ele>
        <time>2020-05-31T15:11:52Z</time>
      </trkpt>
      <trkpt lat="46.25177" lon="-0.76144">
        <ele>5.8</ele>
        <time>2020-05-31T15:11:53Z</time>
      </trkpt>
      <trkpt lat="46.25175" lon="-0.76148">
        <ele>5.8</ele>
        <time>2020-05-31T15:11:54Z</time>
      </trkpt>
      <trkpt lat="46.25175" lon="-0.76148">
        <ele>5.8</ele>
        <time>2020-05-31T15:11:55Z</time>
      </trkpt>
      <trkpt lat="46.25174" lon="-0.76152">
        <ele>5.8</ele>
        <time>2020-05-31T15:11:56Z</time>
      </trkpt>
      <trkpt lat="46.25173" lon="-0.76157">
        <ele>5.8</ele>
        <time>2020-05-31T15:11:57Z</time>
      </trkpt>
      <trkpt lat="46.25172" lon="-0.76159">
        <ele>5.8</ele>
        <time>2020-05-31T15:11:58Z</time>
      </trkpt>
      <trkpt lat="46.25171" lon="-0.76163">
        <ele>5.9</ele>
        <time>2020-05-31T15:11:59Z</time>
      </trkpt>
      <trkpt lat="46.2517" lon="-0.76168">
        <ele>5.9</ele>
        <time>2020-05-31T15:12:00Z</time>
      </trkpt>
      <trkpt lat="46.25169" lon="-0.76172">
        <ele>5.9</ele>
        <time>2020-05-31T15:12:01Z</time>
      </trkpt>
      <trkpt lat="46.25168" lon="-0.76176">
        <ele>5.9</ele>
        <time>2020-05-31T15:12:02Z</time>
      </trkpt>
      <trkpt lat="46.25167" lon="-0.76181">
        <ele>6</ele>
        <time>2020-05-31T15:12:03Z</time>
      </trkpt>
      <trkpt lat="46.25166" lon="-0.76188">
        <ele>6</ele>
        <time>2020-05-31T15:12:04Z</time>
      </trkpt>
      <trkpt lat="46.25165" lon="-0.76192">
        <ele>6</ele>
        <time>2020-05-31T15:12:05Z</time>
      </trkpt>
      <trkpt lat="46.25164" lon="-0.76198">
        <ele>6</ele>
        <time>2020-05-31T15:12:06Z</time>
      </trkpt>
      <trkpt lat="46.25162" lon="-0.76206">
        <ele>6</ele>
        <time>2020-05-31T15:12:07Z</time>
      </trkpt>
      <trkpt lat="46.25161" lon="-0.76212">
        <ele>6</ele>
        <time>2020-05-31T15:12:08Z</time>
      </trkpt>
      <trkpt lat="46.25159" lon="-0.76218">
        <ele>6</ele>
        <time>2020-05-31T15:12:09Z</time>
      </trkpt>
      <trkpt lat="46.25157" lon="-0.76222">
        <ele>6</ele>
        <time>2020-05-31T15:12:10Z</time>
      </trkpt>
      <trkpt lat="46.25155" lon="-0.76231">
        <ele>6.1</ele>
        <time>2020-05-31T15:12:11Z</time>
      </trkpt>
      <trkpt lat="46.25154" lon="-0.76237">
        <ele>6.1</ele>
        <time>2020-05-31T15:12:12Z</time>
      </trkpt>
      <trkpt lat="46.2515" lon="-0.76241">
        <ele>6.1</ele>
        <time>2020-05-31T15:12:13Z</time>
      </trkpt>
      <trkpt lat="46.25148" lon="-0.76245">
        <ele>6.1</ele>
        <time>2020-05-31T15:12:14Z</time>
      </trkpt>
      <trkpt lat="46.25146" lon="-0.76251">
        <ele>6.1</ele>
        <time>2020-05-31T15:12:15Z</time>
      </trkpt>
      <trkpt lat="46.25144" lon="-0.76257">
        <ele>6.1</ele>
        <time>2020-05-31T15:12:16Z</time>
      </trkpt>
      <trkpt lat="46.25141" lon="-0.76264">
        <ele>6.1</ele>
        <time>2020-05-31T15:12:17Z</time>
      </trkpt>
      <trkpt lat="46.25138" lon="-0.76269">
        <ele>6.1</ele>
        <time>2020-05-31T15:12:18Z</time>
      </trkpt>
      <trkpt lat="46.25136" lon="-0.76274">
        <ele>6.1</ele>
        <time>2020-05-31T15:12:19Z</time>
      </trkpt>
      <trkpt lat="46.25133" lon="-0.76279">
        <ele>6.1</ele>
        <time>2020-05-31T15:12:20Z</time>
      </trkpt>
      <trkpt lat="46.2513" lon="-0.76286">
        <ele>6.1</ele>
        <time>2020-05-31T15:12:21Z</time>
      </trkpt>
      <trkpt lat="46.25128" lon="-0.76291">
        <ele>6.1</ele>
        <time>2020-05-31T15:12:22Z</time>
      </trkpt>
      <trkpt lat="46.25125" lon="-0.76296">
        <ele>6.1</ele>
        <time>2020-05-31T15:12:23Z</time>
      </trkpt>
      <trkpt lat="46.25122" lon="-0.76302">
        <ele>6.1</ele>
        <time>2020-05-31T15:12:24Z</time>
      </trkpt>
      <trkpt lat="46.25118" lon="-0.76306">
        <ele>6.1</ele>
        <time>2020-05-31T15:12:25Z</time>
      </trkpt>
      <trkpt lat="46.25114" lon="-0.76311">
        <ele>6.2</ele>
        <time>2020-05-31T15:12:26Z</time>
      </trkpt>
      <trkpt lat="46.25111" lon="-0.76314">
        <ele>6.2</ele>
        <time>2020-05-31T15:12:27Z</time>
      </trkpt>
      <trkpt lat="46.25108" lon="-0.76318">
        <ele>6.2</ele>
        <time>2020-05-31T15:12:28Z</time>
      </trkpt>
      <trkpt lat="46.25104" lon="-0.7632">
        <ele>6.2</ele>
        <time>2020-05-31T15:12:29Z</time>
      </trkpt>
      <trkpt lat="46.25101" lon="-0.76323">
        <ele>6.2</ele>
        <time>2020-05-31T15:12:30Z</time>
      </trkpt>
      <trkpt lat="46.25098" lon="-0.76326">
        <ele>6.2</ele>
        <time>2020-05-31T15:12:31Z</time>
      </trkpt>
      <trkpt lat="46.25096" lon="-0.76329">
        <ele>6.2</ele>
        <time>2020-05-31T15:12:32Z</time>
      </trkpt>
      <trkpt lat="46.25093" lon="-0.76333">
        <ele>6.2</ele>
        <time>2020-05-31T15:12:33Z</time>
      </trkpt>
      <trkpt lat="46.2509" lon="-0.76337">
        <ele>6.2</ele>
        <time>2020-05-31T15:12:34Z</time>
      </trkpt>
      <trkpt lat="46.25088" lon="-0.7634">
        <ele>6.2</ele>
        <time>2020-05-31T15:12:35Z</time>
      </trkpt>
      <trkpt lat="46.25085" lon="-0.76343">
        <ele>6.2</ele>
        <time>2020-05-31T15:12:36Z</time>
      </trkpt>
      <trkpt lat="46.25082" lon="-0.76345">
        <ele>6.2</ele>
        <time>2020-05-31T15:12:37Z</time>
      </trkpt>
      <trkpt lat="46.2508" lon="-0.76348">
        <ele>6.3</ele>
        <time>2020-05-31T15:12:38Z</time>
      </trkpt>
      <trkpt lat="46.25077" lon="-0.76353">
        <ele>6.3</ele>
        <time>2020-05-31T15:12:39Z</time>
      </trkpt>
      <trkpt lat="46.25075" lon="-0.76357">
        <ele>6.3</ele>
        <time>2020-05-31T15:12:40Z</time>
      </trkpt>
      <trkpt lat="46.25071" lon="-0.76361">
        <ele>6.3</ele>
        <time>2020-05-31T15:12:41Z</time>
      </trkpt>
      <trkpt lat="46.25068" lon="-0.76366">
        <ele>6.3</ele>
        <time>2020-05-31T15:12:42Z</time>
      </trkpt>
      <trkpt lat="46.25065" lon="-0.76371">
        <ele>6.4</ele>
        <time>2020-05-31T15:12:43Z</time>
      </trkpt>
      <trkpt lat="46.25062" lon="-0.76375">
        <ele>6.5</ele>
        <time>2020-05-31T15:12:44Z</time>
      </trkpt>
      <trkpt lat="46.25059" lon="-0.7638">
        <ele>6.5</ele>
        <time>2020-05-31T15:12:45Z</time>
      </trkpt>
      <trkpt lat="46.25057" lon="-0.76387">
        <ele>6.6</ele>
        <time>2020-05-31T15:12:46Z</time>
      </trkpt>
      <trkpt lat="46.25054" lon="-0.76393">
        <ele>6.6</ele>
        <time>2020-05-31T15:12:47Z</time>
      </trkpt>
      <trkpt lat="46.25052" lon="-0.76399">
        <ele>6.7</ele>
        <time>2020-05-31T15:12:48Z</time>
      </trkpt>
      <trkpt lat="46.2505" lon="-0.76405">
        <ele>6.7</ele>
        <time>2020-05-31T15:12:49Z</time>
      </trkpt>
      <trkpt lat="46.25047" lon="-0.76411">
        <ele>6.9</ele>
        <time>2020-05-31T15:12:50Z</time>
      </trkpt>
      <trkpt lat="46.25045" lon="-0.76416">
        <ele>6.9</ele>
        <time>2020-05-31T15:12:51Z</time>
      </trkpt>
      <trkpt lat="46.25043" lon="-0.76422">
        <ele>7</ele>
        <time>2020-05-31T15:12:52Z</time>
      </trkpt>
      <trkpt lat="46.2504" lon="-0.76428">
        <ele>7</ele>
        <time>2020-05-31T15:12:53Z</time>
      </trkpt>
      <trkpt lat="46.25038" lon="-0.76434">
        <ele>7.1</ele>
        <time>2020-05-31T15:12:54Z</time>
      </trkpt>
      <trkpt lat="46.25036" lon="-0.7644">
        <ele>7.2</ele>
        <time>2020-05-31T15:12:55Z</time>
      </trkpt>
      <trkpt lat="46.25034" lon="-0.76446">
        <ele>7.3</ele>
        <time>2020-05-31T15:12:56Z</time>
      </trkpt>
      <trkpt lat="46.25033" lon="-0.76453">
        <ele>7.4</ele>
        <time>2020-05-31T15:12:57Z</time>
      </trkpt>
      <trkpt lat="46.25032" lon="-0.7646">
        <ele>7.5</ele>
        <time>2020-05-31T15:12:58Z</time>
      </trkpt>
      <trkpt lat="46.2503" lon="-0.76468">
        <ele>7.6</ele>
        <time>2020-05-31T15:12:59Z</time>
      </trkpt>
      <trkpt lat="46.25029" lon="-0.76474">
        <ele>7.7</ele>
        <time>2020-05-31T15:13:00Z</time>
      </trkpt>
      <trkpt lat="46.25028" lon="-0.76481">
        <ele>7.8</ele>
        <time>2020-05-31T15:13:01Z</time>
      </trkpt>
      <trkpt lat="46.25026" lon="-0.76487">
        <ele>7.9</ele>
        <time>2020-05-31T15:13:02Z</time>
      </trkpt>
      <trkpt lat="46.25024" lon="-0.76492">
        <ele>7.9</ele>
        <time>2020-05-31T15:13:03Z</time>
      </trkpt>
      <trkpt lat="46.25022" lon="-0.76497">
        <ele>8</ele>
        <time>2020-05-31T15:13:04Z</time>
      </trkpt>
      <trkpt lat="46.25021" lon="-0.76505">
        <ele>8.1</ele>
        <time>2020-05-31T15:13:05Z</time>
      </trkpt>
      <trkpt lat="46.25019" lon="-0.7651">
        <ele>8.1</ele>
        <time>2020-05-31T15:13:06Z</time>
      </trkpt>
      <trkpt lat="46.25017" lon="-0.76517">
        <ele>8.3</ele>
        <time>2020-05-31T15:13:07Z</time>
      </trkpt>
      <trkpt lat="46.25015" lon="-0.76523">
        <ele>8.4</ele>
        <time>2020-05-31T15:13:08Z</time>
      </trkpt>
      <trkpt lat="46.25014" lon="-0.76528">
        <ele>8.4</ele>
        <time>2020-05-31T15:13:09Z</time>
      </trkpt>
      <trkpt lat="46.25011" lon="-0.76534">
        <ele>8.5</ele>
        <time>2020-05-31T15:13:10Z</time>
      </trkpt>
      <trkpt lat="46.25009" lon="-0.76537">
        <ele>8.6</ele>
        <time>2020-05-31T15:13:11Z</time>
      </trkpt>
      <trkpt lat="46.25007" lon="-0.76542">
        <ele>8.7</ele>
        <time>2020-05-31T15:13:12Z</time>
      </trkpt>
      <trkpt lat="46.25005" lon="-0.76547">
        <ele>8.7</ele>
        <time>2020-05-31T15:13:13Z</time>
      </trkpt>
      <trkpt lat="46.25003" lon="-0.76551">
        <ele>8.7</ele>
        <time>2020-05-31T15:13:14Z</time>
      </trkpt>
      <trkpt lat="46.25001" lon="-0.76557">
        <ele>8.8</ele>
        <time>2020-05-31T15:13:15Z</time>
      </trkpt>
      <trkpt lat="46.24999" lon="-0.76561">
        <ele>8.8</ele>
        <time>2020-05-31T15:13:16Z</time>
      </trkpt>
      <trkpt lat="46.24997" lon="-0.76566">
        <ele>8.8</ele>
        <time>2020-05-31T15:13:17Z</time>
      </trkpt>
      <trkpt lat="46.24995" lon="-0.76572">
        <ele>8.8</ele>
        <time>2020-05-31T15:13:18Z</time>
      </trkpt>
      <trkpt lat="46.24994" lon="-0.76578">
        <ele>8.8</ele>
        <time>2020-05-31T15:13:19Z</time>
      </trkpt>
      <trkpt lat="46.24992" lon="-0.76584">
        <ele>8.8</ele>
        <time>2020-05-31T15:13:20Z</time>
      </trkpt>
      <trkpt lat="46.24991" lon="-0.76589">
        <ele>8.8</ele>
        <time>2020-05-31T15:13:21Z</time>
      </trkpt>
      <trkpt lat="46.24989" lon="-0.76595">
        <ele>8.8</ele>
        <time>2020-05-31T15:13:22Z</time>
      </trkpt>
      <trkpt lat="46.24987" lon="-0.76601">
        <ele>8.8</ele>
        <time>2020-05-31T15:13:23Z</time>
      </trkpt>
      <trkpt lat="46.24985" lon="-0.76606">
        <ele>8.7</ele>
        <time>2020-05-31T15:13:24Z</time>
      </trkpt>
      <trkpt lat="46.24983" lon="-0.76613">
        <ele>8.7</ele>
        <time>2020-05-31T15:13:25Z</time>
      </trkpt>
      <trkpt lat="46.2498" lon="-0.76618">
        <ele>8.7</ele>
        <time>2020-05-31T15:13:26Z</time>
      </trkpt>
      <trkpt lat="46.24978" lon="-0.76623">
        <ele>8.6</ele>
        <time>2020-05-31T15:13:27Z</time>
      </trkpt>
      <trkpt lat="46.24976" lon="-0.7663">
        <ele>8.6</ele>
        <time>2020-05-31T15:13:28Z</time>
      </trkpt>
      <trkpt lat="46.24973" lon="-0.76636">
        <ele>8.6</ele>
        <time>2020-05-31T15:13:29Z</time>
      </trkpt>
      <trkpt lat="46.24971" lon="-0.76642">
        <ele>8.5</ele>
        <time>2020-05-31T15:13:30Z</time>
      </trkpt>
      <trkpt lat="46.2497" lon="-0.76648">
        <ele>8.5</ele>
        <time>2020-05-31T15:13:31Z</time>
      </trkpt>
      <trkpt lat="46.24967" lon="-0.76653">
        <ele>8.5</ele>
        <time>2020-05-31T15:13:32Z</time>
      </trkpt>
      <trkpt lat="46.24965" lon="-0.76659">
        <ele>8.5</ele>
        <time>2020-05-31T15:13:33Z</time>
      </trkpt>
      <trkpt lat="46.24963" lon="-0.76664">
        <ele>8.5</ele>
        <time>2020-05-31T15:13:34Z</time>
      </trkpt>
      <trkpt lat="46.24961" lon="-0.76669">
        <ele>8.5</ele>
        <time>2020-05-31T15:13:35Z</time>
      </trkpt>
      <trkpt lat="46.24959" lon="-0.76672">
        <ele>8.5</ele>
        <time>2020-05-31T15:13:36Z</time>
      </trkpt>
      <trkpt lat="46.24956" lon="-0.76679">
        <ele>8.5</ele>
        <time>2020-05-31T15:13:37Z</time>
      </trkpt>
      <trkpt lat="46.24955" lon="-0.76683">
        <ele>8.5</ele>
        <time>2020-05-31T15:13:38Z</time>
      </trkpt>
      <trkpt lat="46.24952" lon="-0.76687">
        <ele>8.5</ele>
        <time>2020-05-31T15:13:39Z</time>
      </trkpt>
      <trkpt lat="46.24951" lon="-0.76694">
        <ele>8.5</ele>
        <time>2020-05-31T15:13:40Z</time>
      </trkpt>
      <trkpt lat="46.2495" lon="-0.76699">
        <ele>8.5</ele>
        <time>2020-05-31T15:13:41Z</time>
      </trkpt>
      <trkpt lat="46.24948" lon="-0.76704">
        <ele>8.5</ele>
        <time>2020-05-31T15:13:42Z</time>
      </trkpt>
      <trkpt lat="46.24946" lon="-0.7671">
        <ele>8.5</ele>
        <time>2020-05-31T15:13:43Z</time>
      </trkpt>
      <trkpt lat="46.24945" lon="-0.76716">
        <ele>8.5</ele>
        <time>2020-05-31T15:13:44Z</time>
      </trkpt>
      <trkpt lat="46.24943" lon="-0.76722">
        <ele>8.5</ele>
        <time>2020-05-31T15:13:45Z</time>
      </trkpt>
      <trkpt lat="46.24941" lon="-0.76728">
        <ele>8.5</ele>
        <time>2020-05-31T15:13:46Z</time>
      </trkpt>
      <trkpt lat="46.2494" lon="-0.76736">
        <ele>8.4</ele>
        <time>2020-05-31T15:13:47Z</time>
      </trkpt>
      <trkpt lat="46.24938" lon="-0.76743">
        <ele>8.4</ele>
        <time>2020-05-31T15:13:48Z</time>
      </trkpt>
      <trkpt lat="46.24936" lon="-0.76749">
        <ele>8.4</ele>
        <time>2020-05-31T15:13:49Z</time>
      </trkpt>
      <trkpt lat="46.24934" lon="-0.76756">
        <ele>8.4</ele>
        <time>2020-05-31T15:13:50Z</time>
      </trkpt>
      <trkpt lat="46.24933" lon="-0.76764">
        <ele>8.4</ele>
        <time>2020-05-31T15:13:51Z</time>
      </trkpt>
      <trkpt lat="46.24932" lon="-0.76771">
        <ele>8.4</ele>
        <time>2020-05-31T15:13:52Z</time>
      </trkpt>
      <trkpt lat="46.24932" lon="-0.76778">
        <ele>8.4</ele>
        <time>2020-05-31T15:13:53Z</time>
      </trkpt>
      <trkpt lat="46.24931" lon="-0.76784">
        <ele>8.4</ele>
        <time>2020-05-31T15:13:54Z</time>
      </trkpt>
      <trkpt lat="46.2493" lon="-0.76792">
        <ele>8.4</ele>
        <time>2020-05-31T15:13:55Z</time>
      </trkpt>
      <trkpt lat="46.24929" lon="-0.76798">
        <ele>8.4</ele>
        <time>2020-05-31T15:13:56Z</time>
      </trkpt>
      <trkpt lat="46.24929" lon="-0.76806">
        <ele>8.4</ele>
        <time>2020-05-31T15:13:57Z</time>
      </trkpt>
      <trkpt lat="46.24928" lon="-0.76813">
        <ele>8.3</ele>
        <time>2020-05-31T15:13:58Z</time>
      </trkpt>
      <trkpt lat="46.24927" lon="-0.76821">
        <ele>8.3</ele>
        <time>2020-05-31T15:13:59Z</time>
      </trkpt>
      <trkpt lat="46.24926" lon="-0.76829">
        <ele>8.2</ele>
        <time>2020-05-31T15:14:00Z</time>
      </trkpt>
      <trkpt lat="46.24926" lon="-0.76837">
        <ele>8.2</ele>
        <time>2020-05-31T15:14:01Z</time>
      </trkpt>
      <trkpt lat="46.24925" lon="-0.76846">
        <ele>8.1</ele>
        <time>2020-05-31T15:14:02Z</time>
      </trkpt>
      <trkpt lat="46.24925" lon="-0.76854">
        <ele>8</ele>
        <time>2020-05-31T15:14:03Z</time>
      </trkpt>
      <trkpt lat="46.24924" lon="-0.76861">
        <ele>8</ele>
        <time>2020-05-31T15:14:04Z</time>
      </trkpt>
      <trkpt lat="46.24923" lon="-0.76868">
        <ele>7.9</ele>
        <time>2020-05-31T15:14:05Z</time>
      </trkpt>
      <trkpt lat="46.24922" lon="-0.76875">
        <ele>7.8</ele>
        <time>2020-05-31T15:14:06Z</time>
      </trkpt>
      <trkpt lat="46.24921" lon="-0.76882">
        <ele>7.8</ele>
        <time>2020-05-31T15:14:07Z</time>
      </trkpt>
      <trkpt lat="46.2492" lon="-0.76889">
        <ele>7.7</ele>
        <time>2020-05-31T15:14:08Z</time>
      </trkpt>
      <trkpt lat="46.24919" lon="-0.76894">
        <ele>7.7</ele>
        <time>2020-05-31T15:14:09Z</time>
      </trkpt>
      <trkpt lat="46.24919" lon="-0.76901">
        <ele>7.6</ele>
        <time>2020-05-31T15:14:10Z</time>
      </trkpt>
      <trkpt lat="46.24918" lon="-0.76907">
        <ele>7.6</ele>
        <time>2020-05-31T15:14:11Z</time>
      </trkpt>
      <trkpt lat="46.24917" lon="-0.76914">
        <ele>7.6</ele>
        <time>2020-05-31T15:14:12Z</time>
      </trkpt>
      <trkpt lat="46.24917" lon="-0.7692">
        <ele>7.6</ele>
        <time>2020-05-31T15:14:13Z</time>
      </trkpt>
      <trkpt lat="46.24916" lon="-0.76927">
        <ele>7.6</ele>
        <time>2020-05-31T15:14:14Z</time>
      </trkpt>
      <trkpt lat="46.24916" lon="-0.76934">
        <ele>7.6</ele>
        <time>2020-05-31T15:14:15Z</time>
      </trkpt>
      <trkpt lat="46.24915" lon="-0.76941">
        <ele>7.6</ele>
        <time>2020-05-31T15:14:16Z</time>
      </trkpt>
      <trkpt lat="46.24915" lon="-0.76949">
        <ele>7.6</ele>
        <time>2020-05-31T15:14:17Z</time>
      </trkpt>
      <trkpt lat="46.24914" lon="-0.76955">
        <ele>7.5</ele>
        <time>2020-05-31T15:14:18Z</time>
      </trkpt>
      <trkpt lat="46.24914" lon="-0.76962">
        <ele>7.5</ele>
        <time>2020-05-31T15:14:19Z</time>
      </trkpt>
      <trkpt lat="46.24913" lon="-0.76968">
        <ele>7.5</ele>
        <time>2020-05-31T15:14:20Z</time>
      </trkpt>
      <trkpt lat="46.24912" lon="-0.76975">
        <ele>7.5</ele>
        <time>2020-05-31T15:14:21Z</time>
      </trkpt>
      <trkpt lat="46.24912" lon="-0.76983">
        <ele>7.5</ele>
        <time>2020-05-31T15:14:22Z</time>
      </trkpt>
      <trkpt lat="46.24911" lon="-0.7699">
        <ele>7.4</ele>
        <time>2020-05-31T15:14:23Z</time>
      </trkpt>
      <trkpt lat="46.24911" lon="-0.76998">
        <ele>7.4</ele>
        <time>2020-05-31T15:14:24Z</time>
      </trkpt>
      <trkpt lat="46.24909" lon="-0.77004">
        <ele>7.4</ele>
        <time>2020-05-31T15:14:25Z</time>
      </trkpt>
      <trkpt lat="46.24909" lon="-0.7701">
        <ele>7.4</ele>
        <time>2020-05-31T15:14:26Z</time>
      </trkpt>
      <trkpt lat="46.24908" lon="-0.77017">
        <ele>7.4</ele>
        <time>2020-05-31T15:14:27Z</time>
      </trkpt>
      <trkpt lat="46.24908" lon="-0.77023">
        <ele>7.3</ele>
        <time>2020-05-31T15:14:28Z</time>
      </trkpt>
      <trkpt lat="46.24908" lon="-0.7703">
        <ele>7.3</ele>
        <time>2020-05-31T15:14:29Z</time>
      </trkpt>
      <trkpt lat="46.24908" lon="-0.77038">
        <ele>7.3</ele>
        <time>2020-05-31T15:14:30Z</time>
      </trkpt>
      <trkpt lat="46.24908" lon="-0.77043">
        <ele>7.3</ele>
        <time>2020-05-31T15:14:31Z</time>
      </trkpt>
      <trkpt lat="46.24908" lon="-0.77051">
        <ele>7.2</ele>
        <time>2020-05-31T15:14:32Z</time>
      </trkpt>
      <trkpt lat="46.24907" lon="-0.77058">
        <ele>7.2</ele>
        <time>2020-05-31T15:14:33Z</time>
      </trkpt>
      <trkpt lat="46.24907" lon="-0.77066">
        <ele>7.2</ele>
        <time>2020-05-31T15:14:34Z</time>
      </trkpt>
      <trkpt lat="46.24905" lon="-0.77074">
        <ele>7.2</ele>
        <time>2020-05-31T15:14:35Z</time>
      </trkpt>
      <trkpt lat="46.24904" lon="-0.77081">
        <ele>7.1</ele>
        <time>2020-05-31T15:14:36Z</time>
      </trkpt>
      <trkpt lat="46.24903" lon="-0.77089">
        <ele>7.1</ele>
        <time>2020-05-31T15:14:37Z</time>
      </trkpt>
      <trkpt lat="46.24902" lon="-0.77097">
        <ele>7.1</ele>
        <time>2020-05-31T15:14:38Z</time>
      </trkpt>
      <trkpt lat="46.249" lon="-0.77103">
        <ele>7.1</ele>
        <time>2020-05-31T15:14:39Z</time>
      </trkpt>
      <trkpt lat="46.24899" lon="-0.77109">
        <ele>7</ele>
        <time>2020-05-31T15:14:40Z</time>
      </trkpt>
      <trkpt lat="46.24898" lon="-0.77115">
        <ele>7</ele>
        <time>2020-05-31T15:14:41Z</time>
      </trkpt>
      <trkpt lat="46.24897" lon="-0.77121">
        <ele>7</ele>
        <time>2020-05-31T15:14:42Z</time>
      </trkpt>
      <trkpt lat="46.24897" lon="-0.77126">
        <ele>7</ele>
        <time>2020-05-31T15:14:43Z</time>
      </trkpt>
      <trkpt lat="46.24897" lon="-0.77132">
        <ele>7</ele>
        <time>2020-05-31T15:14:44Z</time>
      </trkpt>
      <trkpt lat="46.24896" lon="-0.7714">
        <ele>7</ele>
        <time>2020-05-31T15:14:45Z</time>
      </trkpt>
      <trkpt lat="46.24895" lon="-0.77146">
        <ele>7</ele>
        <time>2020-05-31T15:14:46Z</time>
      </trkpt>
      <trkpt lat="46.24894" lon="-0.77152">
        <ele>7</ele>
        <time>2020-05-31T15:14:47Z</time>
      </trkpt>
      <trkpt lat="46.24894" lon="-0.77158">
        <ele>6.9</ele>
        <time>2020-05-31T15:14:48Z</time>
      </trkpt>
      <trkpt lat="46.24894" lon="-0.77164">
        <ele>6.9</ele>
        <time>2020-05-31T15:14:49Z</time>
      </trkpt>
      <trkpt lat="46.24893" lon="-0.77169">
        <ele>6.9</ele>
        <time>2020-05-31T15:14:50Z</time>
      </trkpt>
      <trkpt lat="46.24892" lon="-0.77175">
        <ele>6.9</ele>
        <time>2020-05-31T15:14:51Z</time>
      </trkpt>
      <trkpt lat="46.24892" lon="-0.77181">
        <ele>6.9</ele>
        <time>2020-05-31T15:14:52Z</time>
      </trkpt>
      <trkpt lat="46.24891" lon="-0.77187">
        <ele>6.9</ele>
        <time>2020-05-31T15:14:53Z</time>
      </trkpt>
      <trkpt lat="46.24891" lon="-0.77195">
        <ele>7</ele>
        <time>2020-05-31T15:14:54Z</time>
      </trkpt>
      <trkpt lat="46.2489" lon="-0.77201">
        <ele>7</ele>
        <time>2020-05-31T15:14:55Z</time>
      </trkpt>
      <trkpt lat="46.24889" lon="-0.77208">
        <ele>7</ele>
        <time>2020-05-31T15:14:56Z</time>
      </trkpt>
      <trkpt lat="46.24888" lon="-0.77214">
        <ele>7</ele>
        <time>2020-05-31T15:14:57Z</time>
      </trkpt>
      <trkpt lat="46.24887" lon="-0.77219">
        <ele>7.1</ele>
        <time>2020-05-31T15:14:58Z</time>
      </trkpt>
      <trkpt lat="46.24886" lon="-0.77226">
        <ele>7.1</ele>
        <time>2020-05-31T15:14:59Z</time>
      </trkpt>
      <trkpt lat="46.24885" lon="-0.77232">
        <ele>7.2</ele>
        <time>2020-05-31T15:15:00Z</time>
      </trkpt>
      <trkpt lat="46.24885" lon="-0.77239">
        <ele>7.2</ele>
        <time>2020-05-31T15:15:01Z</time>
      </trkpt>
      <trkpt lat="46.24883" lon="-0.77245">
        <ele>7.3</ele>
        <time>2020-05-31T15:15:02Z</time>
      </trkpt>
      <trkpt lat="46.24883" lon="-0.77251">
        <ele>7.4</ele>
        <time>2020-05-31T15:15:03Z</time>
      </trkpt>
      <trkpt lat="46.24882" lon="-0.77258">
        <ele>7.5</ele>
        <time>2020-05-31T15:15:04Z</time>
      </trkpt>
      <trkpt lat="46.2488" lon="-0.77264">
        <ele>7.6</ele>
        <time>2020-05-31T15:15:05Z</time>
      </trkpt>
      <trkpt lat="46.24879" lon="-0.77269">
        <ele>7.7</ele>
        <time>2020-05-31T15:15:06Z</time>
      </trkpt>
      <trkpt lat="46.24878" lon="-0.77276">
        <ele>7.7</ele>
        <time>2020-05-31T15:15:07Z</time>
      </trkpt>
      <trkpt lat="46.24877" lon="-0.77283">
        <ele>7.8</ele>
        <time>2020-05-31T15:15:08Z</time>
      </trkpt>
      <trkpt lat="46.24876" lon="-0.77289">
        <ele>7.9</ele>
        <time>2020-05-31T15:15:09Z</time>
      </trkpt>
      <trkpt lat="46.24875" lon="-0.77297">
        <ele>7.9</ele>
        <time>2020-05-31T15:15:10Z</time>
      </trkpt>
      <trkpt lat="46.24874" lon="-0.77304">
        <ele>7.9</ele>
        <time>2020-05-31T15:15:11Z</time>
      </trkpt>
      <trkpt lat="46.24874" lon="-0.77312">
        <ele>8</ele>
        <time>2020-05-31T15:15:12Z</time>
      </trkpt>
      <trkpt lat="46.24872" lon="-0.77318">
        <ele>8</ele>
        <time>2020-05-31T15:15:13Z</time>
      </trkpt>
      <trkpt lat="46.24872" lon="-0.77326">
        <ele>8</ele>
        <time>2020-05-31T15:15:14Z</time>
      </trkpt>
      <trkpt lat="46.2487" lon="-0.77333">
        <ele>8</ele>
        <time>2020-05-31T15:15:15Z</time>
      </trkpt>
      <trkpt lat="46.24869" lon="-0.7734">
        <ele>8</ele>
        <time>2020-05-31T15:15:16Z</time>
      </trkpt>
      <trkpt lat="46.24868" lon="-0.77347">
        <ele>8.1</ele>
        <time>2020-05-31T15:15:17Z</time>
      </trkpt>
      <trkpt lat="46.24868" lon="-0.77354">
        <ele>8.1</ele>
        <time>2020-05-31T15:15:18Z</time>
      </trkpt>
      <trkpt lat="46.24866" lon="-0.77361">
        <ele>8.1</ele>
        <time>2020-05-31T15:15:19Z</time>
      </trkpt>
      <trkpt lat="46.24866" lon="-0.77369">
        <ele>8.2</ele>
        <time>2020-05-31T15:15:20Z</time>
      </trkpt>
      <trkpt lat="46.24865" lon="-0.77377">
        <ele>8.2</ele>
        <time>2020-05-31T15:15:21Z</time>
      </trkpt>
      <trkpt lat="46.24864" lon="-0.77384">
        <ele>8.3</ele>
        <time>2020-05-31T15:15:22Z</time>
      </trkpt>
      <trkpt lat="46.24862" lon="-0.77391">
        <ele>8.3</ele>
        <time>2020-05-31T15:15:23Z</time>
      </trkpt>
      <trkpt lat="46.2486" lon="-0.77396">
        <ele>8.3</ele>
        <time>2020-05-31T15:15:24Z</time>
      </trkpt>
      <trkpt lat="46.24858" lon="-0.77402">
        <ele>8.4</ele>
        <time>2020-05-31T15:15:25Z</time>
      </trkpt>
      <trkpt lat="46.24856" lon="-0.77408">
        <ele>8.4</ele>
        <time>2020-05-31T15:15:26Z</time>
      </trkpt>
      <trkpt lat="46.24853" lon="-0.77415">
        <ele>8.4</ele>
        <time>2020-05-31T15:15:27Z</time>
      </trkpt>
      <trkpt lat="46.2485" lon="-0.77421">
        <ele>8.5</ele>
        <time>2020-05-31T15:15:28Z</time>
      </trkpt>
      <trkpt lat="46.24848" lon="-0.77427">
        <ele>8.5</ele>
        <time>2020-05-31T15:15:29Z</time>
      </trkpt>
      <trkpt lat="46.24845" lon="-0.77433">
        <ele>8.6</ele>
        <time>2020-05-31T15:15:30Z</time>
      </trkpt>
      <trkpt lat="46.24842" lon="-0.77439">
        <ele>8.6</ele>
        <time>2020-05-31T15:15:31Z</time>
      </trkpt>
      <trkpt lat="46.2484" lon="-0.77445">
        <ele>8.7</ele>
        <time>2020-05-31T15:15:32Z</time>
      </trkpt>
      <trkpt lat="46.24836" lon="-0.77449">
        <ele>8.7</ele>
        <time>2020-05-31T15:15:33Z</time>
      </trkpt>
      <trkpt lat="46.24834" lon="-0.77455">
        <ele>8.8</ele>
        <time>2020-05-31T15:15:34Z</time>
      </trkpt>
      <trkpt lat="46.24831" lon="-0.77461">
        <ele>8.8</ele>
        <time>2020-05-31T15:15:35Z</time>
      </trkpt>
      <trkpt lat="46.24829" lon="-0.77468">
        <ele>8.8</ele>
        <time>2020-05-31T15:15:36Z</time>
      </trkpt>
      <trkpt lat="46.24826" lon="-0.77473">
        <ele>8.9</ele>
        <time>2020-05-31T15:15:37Z</time>
      </trkpt>
      <trkpt lat="46.24823" lon="-0.77479">
        <ele>8.9</ele>
        <time>2020-05-31T15:15:38Z</time>
      </trkpt>
      <trkpt lat="46.2482" lon="-0.77484">
        <ele>8.9</ele>
        <time>2020-05-31T15:15:39Z</time>
      </trkpt>
      <trkpt lat="46.24817" lon="-0.77489">
        <ele>9</ele>
        <time>2020-05-31T15:15:40Z</time>
      </trkpt>
      <trkpt lat="46.24813" lon="-0.77495">
        <ele>9</ele>
        <time>2020-05-31T15:15:41Z</time>
      </trkpt>
      <trkpt lat="46.24811" lon="-0.77502">
        <ele>9</ele>
        <time>2020-05-31T15:15:42Z</time>
      </trkpt>
      <trkpt lat="46.24807" lon="-0.77507">
        <ele>9</ele>
        <time>2020-05-31T15:15:43Z</time>
      </trkpt>
      <trkpt lat="46.24805" lon="-0.77513">
        <ele>9</ele>
        <time>2020-05-31T15:15:44Z</time>
      </trkpt>
      <trkpt lat="46.24801" lon="-0.77518">
        <ele>9</ele>
        <time>2020-05-31T15:15:45Z</time>
      </trkpt>
      <trkpt lat="46.24798" lon="-0.77524">
        <ele>9</ele>
        <time>2020-05-31T15:15:46Z</time>
      </trkpt>
      <trkpt lat="46.24795" lon="-0.7753">
        <ele>9</ele>
        <time>2020-05-31T15:15:47Z</time>
      </trkpt>
      <trkpt lat="46.24792" lon="-0.77536">
        <ele>9</ele>
        <time>2020-05-31T15:15:48Z</time>
      </trkpt>
      <trkpt lat="46.24789" lon="-0.77542">
        <ele>9</ele>
        <time>2020-05-31T15:15:49Z</time>
      </trkpt>
      <trkpt lat="46.24787" lon="-0.77548">
        <ele>8.9</ele>
        <time>2020-05-31T15:15:50Z</time>
      </trkpt>
      <trkpt lat="46.24784" lon="-0.77554">
        <ele>8.9</ele>
        <time>2020-05-31T15:15:51Z</time>
      </trkpt>
      <trkpt lat="46.24783" lon="-0.7756">
        <ele>8.9</ele>
        <time>2020-05-31T15:15:52Z</time>
      </trkpt>
      <trkpt lat="46.24781" lon="-0.77566">
        <ele>8.9</ele>
        <time>2020-05-31T15:15:53Z</time>
      </trkpt>
      <trkpt lat="46.2478" lon="-0.77574">
        <ele>8.8</ele>
        <time>2020-05-31T15:15:54Z</time>
      </trkpt>
      <trkpt lat="46.24778" lon="-0.7758">
        <ele>8.8</ele>
        <time>2020-05-31T15:15:55Z</time>
      </trkpt>
      <trkpt lat="46.24777" lon="-0.77587">
        <ele>8.8</ele>
        <time>2020-05-31T15:15:56Z</time>
      </trkpt>
      <trkpt lat="46.24775" lon="-0.77593">
        <ele>8.8</ele>
        <time>2020-05-31T15:15:57Z</time>
      </trkpt>
      <trkpt lat="46.24773" lon="-0.77601">
        <ele>8.7</ele>
        <time>2020-05-31T15:15:58Z</time>
      </trkpt>
      <trkpt lat="46.24773" lon="-0.77608">
        <ele>8.7</ele>
        <time>2020-05-31T15:15:59Z</time>
      </trkpt>
      <trkpt lat="46.24773" lon="-0.77615">
        <ele>8.7</ele>
        <time>2020-05-31T15:16:00Z</time>
      </trkpt>
      <trkpt lat="46.24772" lon="-0.77622">
        <ele>8.6</ele>
        <time>2020-05-31T15:16:01Z</time>
      </trkpt>
      <trkpt lat="46.24773" lon="-0.7763">
        <ele>8.6</ele>
        <time>2020-05-31T15:16:02Z</time>
      </trkpt>
      <trkpt lat="46.24772" lon="-0.77637">
        <ele>8.5</ele>
        <time>2020-05-31T15:16:03Z</time>
      </trkpt>
      <trkpt lat="46.24771" lon="-0.77645">
        <ele>8.5</ele>
        <time>2020-05-31T15:16:04Z</time>
      </trkpt>
      <trkpt lat="46.24771" lon="-0.77652">
        <ele>8.5</ele>
        <time>2020-05-31T15:16:05Z</time>
      </trkpt>
      <trkpt lat="46.24772" lon="-0.77659">
        <ele>8.4</ele>
        <time>2020-05-31T15:16:06Z</time>
      </trkpt>
      <trkpt lat="46.24772" lon="-0.77667">
        <ele>8.4</ele>
        <time>2020-05-31T15:16:07Z</time>
      </trkpt>
      <trkpt lat="46.24773" lon="-0.77673">
        <ele>8.4</ele>
        <time>2020-05-31T15:16:08Z</time>
      </trkpt>
      <trkpt lat="46.24774" lon="-0.77681">
        <ele>8.4</ele>
        <time>2020-05-31T15:16:09Z</time>
      </trkpt>
      <trkpt lat="46.24775" lon="-0.77689">
        <ele>8.3</ele>
        <time>2020-05-31T15:16:10Z</time>
      </trkpt>
      <trkpt lat="46.24775" lon="-0.77697">
        <ele>8.3</ele>
        <time>2020-05-31T15:16:11Z</time>
      </trkpt>
      <trkpt lat="46.24776" lon="-0.77705">
        <ele>8.2</ele>
        <time>2020-05-31T15:16:12Z</time>
      </trkpt>
      <trkpt lat="46.24776" lon="-0.77713">
        <ele>8.2</ele>
        <time>2020-05-31T15:16:13Z</time>
      </trkpt>
      <trkpt lat="46.24777" lon="-0.77722">
        <ele>8.1</ele>
        <time>2020-05-31T15:16:14Z</time>
      </trkpt>
      <trkpt lat="46.24777" lon="-0.7773">
        <ele>8.1</ele>
        <time>2020-05-31T15:16:15Z</time>
      </trkpt>
      <trkpt lat="46.24777" lon="-0.77737">
        <ele>8.1</ele>
        <time>2020-05-31T15:16:16Z</time>
      </trkpt>
      <trkpt lat="46.24777" lon="-0.77746">
        <ele>8</ele>
        <time>2020-05-31T15:16:17Z</time>
      </trkpt>
      <trkpt lat="46.24777" lon="-0.77756">
        <ele>8</ele>
        <time>2020-05-31T15:16:18Z</time>
      </trkpt>
      <trkpt lat="46.24777" lon="-0.77766">
        <ele>8</ele>
        <time>2020-05-31T15:16:19Z</time>
      </trkpt>
      <trkpt lat="46.24777" lon="-0.77775">
        <ele>7.9</ele>
        <time>2020-05-31T15:16:20Z</time>
      </trkpt>
      <trkpt lat="46.24776" lon="-0.77783">
        <ele>7.9</ele>
        <time>2020-05-31T15:16:21Z</time>
      </trkpt>
      <trkpt lat="46.24776" lon="-0.77793">
        <ele>7.9</ele>
        <time>2020-05-31T15:16:22Z</time>
      </trkpt>
      <trkpt lat="46.24777" lon="-0.77803">
        <ele>7.9</ele>
        <time>2020-05-31T15:16:23Z</time>
      </trkpt>
      <trkpt lat="46.24777" lon="-0.77812">
        <ele>7.9</ele>
        <time>2020-05-31T15:16:24Z</time>
      </trkpt>
      <trkpt lat="46.24777" lon="-0.77821">
        <ele>7.9</ele>
        <time>2020-05-31T15:16:25Z</time>
      </trkpt>
      <trkpt lat="46.24777" lon="-0.77831">
        <ele>7.9</ele>
        <time>2020-05-31T15:16:26Z</time>
      </trkpt>
      <trkpt lat="46.24777" lon="-0.7784">
        <ele>7.9</ele>
        <time>2020-05-31T15:16:27Z</time>
      </trkpt>
      <trkpt lat="46.24778" lon="-0.77848">
        <ele>7.9</ele>
        <time>2020-05-31T15:16:28Z</time>
      </trkpt>
      <trkpt lat="46.24778" lon="-0.77855">
        <ele>8</ele>
        <time>2020-05-31T15:16:29Z</time>
      </trkpt>
      <trkpt lat="46.24778" lon="-0.77862">
        <ele>8</ele>
        <time>2020-05-31T15:16:30Z</time>
      </trkpt>
      <trkpt lat="46.24777" lon="-0.7787">
        <ele>8</ele>
        <time>2020-05-31T15:16:31Z</time>
      </trkpt>
      <trkpt lat="46.24777" lon="-0.77878">
        <ele>8.1</ele>
        <time>2020-05-31T15:16:32Z</time>
      </trkpt>
      <trkpt lat="46.24777" lon="-0.77886">
        <ele>8.1</ele>
        <time>2020-05-31T15:16:33Z</time>
      </trkpt>
      <trkpt lat="46.24777" lon="-0.77895">
        <ele>8.2</ele>
        <time>2020-05-31T15:16:34Z</time>
      </trkpt>
      <trkpt lat="46.24777" lon="-0.77903">
        <ele>8.3</ele>
        <time>2020-05-31T15:16:35Z</time>
      </trkpt>
      <trkpt lat="46.24778" lon="-0.77911">
        <ele>8.3</ele>
        <time>2020-05-31T15:16:36Z</time>
      </trkpt>
      <trkpt lat="46.24777" lon="-0.77917">
        <ele>8.4</ele>
        <time>2020-05-31T15:16:37Z</time>
      </trkpt>
      <trkpt lat="46.24777" lon="-0.77922">
        <ele>8.4</ele>
        <time>2020-05-31T15:16:38Z</time>
      </trkpt>
      <trkpt lat="46.24777" lon="-0.77929">
        <ele>8.5</ele>
        <time>2020-05-31T15:16:39Z</time>
      </trkpt>
      <trkpt lat="46.24776" lon="-0.77934">
        <ele>8.5</ele>
        <time>2020-05-31T15:16:40Z</time>
      </trkpt>
      <trkpt lat="46.24776" lon="-0.7794">
        <ele>8.6</ele>
        <time>2020-05-31T15:16:41Z</time>
      </trkpt>
      <trkpt lat="46.24776" lon="-0.77946">
        <ele>8.6</ele>
        <time>2020-05-31T15:16:42Z</time>
      </trkpt>
      <trkpt lat="46.24777" lon="-0.77952">
        <ele>8.7</ele>
        <time>2020-05-31T15:16:43Z</time>
      </trkpt>
      <trkpt lat="46.24777" lon="-0.77957">
        <ele>8.7</ele>
        <time>2020-05-31T15:16:44Z</time>
      </trkpt>
      <trkpt lat="46.24777" lon="-0.77961">
        <ele>8.8</ele>
        <time>2020-05-31T15:16:45Z</time>
      </trkpt>
      <trkpt lat="46.24777" lon="-0.77966">
        <ele>8.8</ele>
        <time>2020-05-31T15:16:46Z</time>
      </trkpt>
      <trkpt lat="46.24777" lon="-0.7797">
        <ele>8.9</ele>
        <time>2020-05-31T15:16:47Z</time>
      </trkpt>
      <trkpt lat="46.24777" lon="-0.77976">
        <ele>8.9</ele>
        <time>2020-05-31T15:16:48Z</time>
      </trkpt>
      <trkpt lat="46.24777" lon="-0.7798">
        <ele>8.9</ele>
        <time>2020-05-31T15:16:49Z</time>
      </trkpt>
      <trkpt lat="46.24778" lon="-0.77986">
        <ele>9</ele>
        <time>2020-05-31T15:16:50Z</time>
      </trkpt>
      <trkpt lat="46.24779" lon="-0.77988">
        <ele>9</ele>
        <time>2020-05-31T15:16:51Z</time>
      </trkpt>
      <trkpt lat="46.24779" lon="-0.77993">
        <ele>9.1</ele>
        <time>2020-05-31T15:16:52Z</time>
      </trkpt>
      <trkpt lat="46.24779" lon="-0.77997">
        <ele>9.1</ele>
        <time>2020-05-31T15:16:53Z</time>
      </trkpt>
      <trkpt lat="46.24779" lon="-0.78004">
        <ele>9.2</ele>
        <time>2020-05-31T15:16:54Z</time>
      </trkpt>
      <trkpt lat="46.24779" lon="-0.78007">
        <ele>9.2</ele>
        <time>2020-05-31T15:16:55Z</time>
      </trkpt>
      <trkpt lat="46.24779" lon="-0.78012">
        <ele>9.2</ele>
        <time>2020-05-31T15:16:56Z</time>
      </trkpt>
      <trkpt lat="46.24779" lon="-0.78014">
        <ele>9.2</ele>
        <time>2020-05-31T15:16:57Z</time>
      </trkpt>
      <trkpt lat="46.24779" lon="-0.78016">
        <ele>9.2</ele>
        <time>2020-05-31T15:16:58Z</time>
      </trkpt>
      <trkpt lat="46.24779" lon="-0.78017">
        <ele>9.2</ele>
        <time>2020-05-31T15:16:59Z</time>
      </trkpt>
      <trkpt lat="46.24779" lon="-0.78018">
        <ele>9.2</ele>
        <time>2020-05-31T15:17:00Z</time>
      </trkpt>
      <trkpt lat="46.2478" lon="-0.7802">
        <ele>9.3</ele>
        <time>2020-05-31T15:17:01Z</time>
      </trkpt>
      <trkpt lat="46.2478" lon="-0.78021">
        <ele>9.3</ele>
        <time>2020-05-31T15:17:02Z</time>
      </trkpt>
      <trkpt lat="46.2478" lon="-0.78021">
        <ele>9.3</ele>
        <time>2020-05-31T15:17:03Z</time>
      </trkpt>
      <trkpt lat="46.2478" lon="-0.78021">
        <ele>9.3</ele>
        <time>2020-05-31T15:17:04Z</time>
      </trkpt>
      <trkpt lat="46.2478" lon="-0.78022">
        <ele>9.3</ele>
        <time>2020-05-31T15:17:05Z</time>
      </trkpt>
      <trkpt lat="46.2478" lon="-0.78022">
        <ele>9.3</ele>
        <time>2020-05-31T15:17:06Z</time>
      </trkpt>
      <trkpt lat="46.2478" lon="-0.78023">
        <ele>9.3</ele>
        <time>2020-05-31T15:17:07Z</time>
      </trkpt>
      <trkpt lat="46.2478" lon="-0.78023">
        <ele>9.3</ele>
        <time>2020-05-31T15:17:08Z</time>
      </trkpt>
      <trkpt lat="46.2478" lon="-0.78024">
        <ele>9.3</ele>
        <time>2020-05-31T15:17:09Z</time>
      </trkpt>
      <trkpt lat="46.2478" lon="-0.78026">
        <ele>9.3</ele>
        <time>2020-05-31T15:17:10Z</time>
      </trkpt>
      <trkpt lat="46.2478" lon="-0.78028">
        <ele>9.3</ele>
        <time>2020-05-31T15:17:11Z</time>
      </trkpt>
      <trkpt lat="46.24779" lon="-0.78032">
        <ele>9.3</ele>
        <time>2020-05-31T15:17:12Z</time>
      </trkpt>
      <trkpt lat="46.24779" lon="-0.78037">
        <ele>9.4</ele>
        <time>2020-05-31T15:17:13Z</time>
      </trkpt>
      <trkpt lat="46.24779" lon="-0.78042">
        <ele>9.4</ele>
        <time>2020-05-31T15:17:14Z</time>
      </trkpt>
      <trkpt lat="46.24779" lon="-0.7805">
        <ele>9.4</ele>
        <time>2020-05-31T15:17:15Z</time>
      </trkpt>
      <trkpt lat="46.24779" lon="-0.78058">
        <ele>9.5</ele>
        <time>2020-05-31T15:17:16Z</time>
      </trkpt>
      <trkpt lat="46.24779" lon="-0.78065">
        <ele>9.5</ele>
        <time>2020-05-31T15:17:17Z</time>
      </trkpt>
      <trkpt lat="46.24779" lon="-0.78073">
        <ele>9.6</ele>
        <time>2020-05-31T15:17:18Z</time>
      </trkpt>
      <trkpt lat="46.24777" lon="-0.78081">
        <ele>9.6</ele>
        <time>2020-05-31T15:17:19Z</time>
      </trkpt>
      <trkpt lat="46.24777" lon="-0.78091">
        <ele>9.7</ele>
        <time>2020-05-31T15:17:20Z</time>
      </trkpt>
      <trkpt lat="46.24776" lon="-0.781">
        <ele>9.7</ele>
        <time>2020-05-31T15:17:21Z</time>
      </trkpt>
      <trkpt lat="46.24774" lon="-0.78108">
        <ele>9.7</ele>
        <time>2020-05-31T15:17:22Z</time>
      </trkpt>
      <trkpt lat="46.24774" lon="-0.78118">
        <ele>9.7</ele>
        <time>2020-05-31T15:17:23Z</time>
      </trkpt>
      <trkpt lat="46.24772" lon="-0.78126">
        <ele>9.7</ele>
        <time>2020-05-31T15:17:24Z</time>
      </trkpt>
      <trkpt lat="46.24771" lon="-0.78132">
        <ele>9.7</ele>
        <time>2020-05-31T15:17:25Z</time>
      </trkpt>
      <trkpt lat="46.2477" lon="-0.78139">
        <ele>9.7</ele>
        <time>2020-05-31T15:17:26Z</time>
      </trkpt>
      <trkpt lat="46.24769" lon="-0.78148">
        <ele>9.7</ele>
        <time>2020-05-31T15:17:27Z</time>
      </trkpt>
      <trkpt lat="46.24767" lon="-0.78156">
        <ele>9.8</ele>
        <time>2020-05-31T15:17:28Z</time>
      </trkpt>
      <trkpt lat="46.24766" lon="-0.78166">
        <ele>9.8</ele>
        <time>2020-05-31T15:17:29Z</time>
      </trkpt>
      <trkpt lat="46.24764" lon="-0.78175">
        <ele>9.8</ele>
        <time>2020-05-31T15:17:30Z</time>
      </trkpt>
      <trkpt lat="46.24763" lon="-0.78184">
        <ele>9.8</ele>
        <time>2020-05-31T15:17:31Z</time>
      </trkpt>
      <trkpt lat="46.24761" lon="-0.78192">
        <ele>9.8</ele>
        <time>2020-05-31T15:17:32Z</time>
      </trkpt>
      <trkpt lat="46.24759" lon="-0.78199">
        <ele>9.8</ele>
        <time>2020-05-31T15:17:33Z</time>
      </trkpt>
      <trkpt lat="46.24758" lon="-0.78205">
        <ele>9.8</ele>
        <time>2020-05-31T15:17:34Z</time>
      </trkpt>
      <trkpt lat="46.24756" lon="-0.78213">
        <ele>9.9</ele>
        <time>2020-05-31T15:17:35Z</time>
      </trkpt>
      <trkpt lat="46.24755" lon="-0.7822">
        <ele>9.9</ele>
        <time>2020-05-31T15:17:36Z</time>
      </trkpt>
      <trkpt lat="46.24753" lon="-0.78227">
        <ele>9.8</ele>
        <time>2020-05-31T15:17:37Z</time>
      </trkpt>
      <trkpt lat="46.24752" lon="-0.78235">
        <ele>9.8</ele>
        <time>2020-05-31T15:17:38Z</time>
      </trkpt>
      <trkpt lat="46.2475" lon="-0.78243">
        <ele>9.9</ele>
        <time>2020-05-31T15:17:39Z</time>
      </trkpt>
      <trkpt lat="46.24749" lon="-0.78253">
        <ele>9.9</ele>
        <time>2020-05-31T15:17:40Z</time>
      </trkpt>
      <trkpt lat="46.24747" lon="-0.78261">
        <ele>9.9</ele>
        <time>2020-05-31T15:17:41Z</time>
      </trkpt>
      <trkpt lat="46.24746" lon="-0.7827">
        <ele>10</ele>
        <time>2020-05-31T15:17:42Z</time>
      </trkpt>
      <trkpt lat="46.24744" lon="-0.78278">
        <ele>10</ele>
        <time>2020-05-31T15:17:43Z</time>
      </trkpt>
      <trkpt lat="46.24743" lon="-0.78288">
        <ele>10.1</ele>
        <time>2020-05-31T15:17:44Z</time>
      </trkpt>
      <trkpt lat="46.24741" lon="-0.78298">
        <ele>10.2</ele>
        <time>2020-05-31T15:17:45Z</time>
      </trkpt>
      <trkpt lat="46.24739" lon="-0.78307">
        <ele>10.2</ele>
        <time>2020-05-31T15:17:46Z</time>
      </trkpt>
      <trkpt lat="46.24737" lon="-0.78317">
        <ele>10.3</ele>
        <time>2020-05-31T15:17:47Z</time>
      </trkpt>
      <trkpt lat="46.24736" lon="-0.78326">
        <ele>10.4</ele>
        <time>2020-05-31T15:17:48Z</time>
      </trkpt>
      <trkpt lat="46.24734" lon="-0.78335">
        <ele>10.5</ele>
        <time>2020-05-31T15:17:49Z</time>
      </trkpt>
      <trkpt lat="46.24732" lon="-0.78344">
        <ele>10.5</ele>
        <time>2020-05-31T15:17:50Z</time>
      </trkpt>
      <trkpt lat="46.2473" lon="-0.78354">
        <ele>10.6</ele>
        <time>2020-05-31T15:17:51Z</time>
      </trkpt>
      <trkpt lat="46.24728" lon="-0.78365">
        <ele>10.6</ele>
        <time>2020-05-31T15:17:52Z</time>
      </trkpt>
      <trkpt lat="46.24726" lon="-0.78375">
        <ele>10.7</ele>
        <time>2020-05-31T15:17:53Z</time>
      </trkpt>
      <trkpt lat="46.24725" lon="-0.78385">
        <ele>10.7</ele>
        <time>2020-05-31T15:17:54Z</time>
      </trkpt>
      <trkpt lat="46.24723" lon="-0.78395">
        <ele>10.8</ele>
        <time>2020-05-31T15:17:55Z</time>
      </trkpt>
      <trkpt lat="46.24721" lon="-0.78406">
        <ele>10.8</ele>
        <time>2020-05-31T15:17:56Z</time>
      </trkpt>
      <trkpt lat="46.2472" lon="-0.78417">
        <ele>10.9</ele>
        <time>2020-05-31T15:17:57Z</time>
      </trkpt>
      <trkpt lat="46.24718" lon="-0.78429">
        <ele>11</ele>
        <time>2020-05-31T15:17:58Z</time>
      </trkpt>
      <trkpt lat="46.24717" lon="-0.7844">
        <ele>11.1</ele>
        <time>2020-05-31T15:17:59Z</time>
      </trkpt>
      <trkpt lat="46.24716" lon="-0.78451">
        <ele>11.3</ele>
        <time>2020-05-31T15:18:00Z</time>
      </trkpt>
      <trkpt lat="46.24714" lon="-0.78462">
        <ele>11.4</ele>
        <time>2020-05-31T15:18:01Z</time>
      </trkpt>
      <trkpt lat="46.24713" lon="-0.78473">
        <ele>11.6</ele>
        <time>2020-05-31T15:18:02Z</time>
      </trkpt>
      <trkpt lat="46.2471" lon="-0.78483">
        <ele>11.7</ele>
        <time>2020-05-31T15:18:03Z</time>
      </trkpt>
      <trkpt lat="46.24708" lon="-0.78493">
        <ele>11.8</ele>
        <time>2020-05-31T15:18:04Z</time>
      </trkpt>
      <trkpt lat="46.24708" lon="-0.78503">
        <ele>11.9</ele>
        <time>2020-05-31T15:18:05Z</time>
      </trkpt>
      <trkpt lat="46.24707" lon="-0.78513">
        <ele>12</ele>
        <time>2020-05-31T15:18:06Z</time>
      </trkpt>
      <trkpt lat="46.24706" lon="-0.78523">
        <ele>12.1</ele>
        <time>2020-05-31T15:18:07Z</time>
      </trkpt>
      <trkpt lat="46.24705" lon="-0.78532">
        <ele>12.1</ele>
        <time>2020-05-31T15:18:08Z</time>
      </trkpt>
      <trkpt lat="46.24705" lon="-0.78541">
        <ele>12.1</ele>
        <time>2020-05-31T15:18:09Z</time>
      </trkpt>
      <trkpt lat="46.24704" lon="-0.78549">
        <ele>12.1</ele>
        <time>2020-05-31T15:18:10Z</time>
      </trkpt>
      <trkpt lat="46.24703" lon="-0.78558">
        <ele>12.2</ele>
        <time>2020-05-31T15:18:11Z</time>
      </trkpt>
      <trkpt lat="46.24702" lon="-0.78567">
        <ele>12.2</ele>
        <time>2020-05-31T15:18:12Z</time>
      </trkpt>
      <trkpt lat="46.24701" lon="-0.78576">
        <ele>12.2</ele>
        <time>2020-05-31T15:18:13Z</time>
      </trkpt>
      <trkpt lat="46.24701" lon="-0.78585">
        <ele>12.2</ele>
        <time>2020-05-31T15:18:14Z</time>
      </trkpt>
      <trkpt lat="46.247" lon="-0.78593">
        <ele>12.3</ele>
        <time>2020-05-31T15:18:15Z</time>
      </trkpt>
      <trkpt lat="46.247" lon="-0.78602">
        <ele>12.3</ele>
        <time>2020-05-31T15:18:16Z</time>
      </trkpt>
      <trkpt lat="46.247" lon="-0.7861">
        <ele>12.4</ele>
        <time>2020-05-31T15:18:17Z</time>
      </trkpt>
      <trkpt lat="46.24701" lon="-0.78617">
        <ele>12.4</ele>
        <time>2020-05-31T15:18:18Z</time>
      </trkpt>
      <trkpt lat="46.24701" lon="-0.78624">
        <ele>12.5</ele>
        <time>2020-05-31T15:18:19Z</time>
      </trkpt>
      <trkpt lat="46.24702" lon="-0.7863">
        <ele>12.6</ele>
        <time>2020-05-31T15:18:20Z</time>
      </trkpt>
      <trkpt lat="46.24702" lon="-0.78638">
        <ele>12.6</ele>
        <time>2020-05-31T15:18:21Z</time>
      </trkpt>
      <trkpt lat="46.24704" lon="-0.78646">
        <ele>12.6</ele>
        <time>2020-05-31T15:18:22Z</time>
      </trkpt>
      <trkpt lat="46.24705" lon="-0.78653">
        <ele>12.7</ele>
        <time>2020-05-31T15:18:23Z</time>
      </trkpt>
      <trkpt lat="46.24707" lon="-0.78661">
        <ele>12.7</ele>
        <time>2020-05-31T15:18:24Z</time>
      </trkpt>
      <trkpt lat="46.24708" lon="-0.78668">
        <ele>12.7</ele>
        <time>2020-05-31T15:18:25Z</time>
      </trkpt>
      <trkpt lat="46.24709" lon="-0.78676">
        <ele>12.7</ele>
        <time>2020-05-31T15:18:26Z</time>
      </trkpt>
      <trkpt lat="46.2471" lon="-0.78684">
        <ele>12.7</ele>
        <time>2020-05-31T15:18:27Z</time>
      </trkpt>
      <trkpt lat="46.24711" lon="-0.78692">
        <ele>12.7</ele>
        <time>2020-05-31T15:18:28Z</time>
      </trkpt>
      <trkpt lat="46.24714" lon="-0.78699">
        <ele>12.8</ele>
        <time>2020-05-31T15:18:29Z</time>
      </trkpt>
      <trkpt lat="46.24716" lon="-0.78707">
        <ele>12.8</ele>
        <time>2020-05-31T15:18:30Z</time>
      </trkpt>
      <trkpt lat="46.24718" lon="-0.78714">
        <ele>12.8</ele>
        <time>2020-05-31T15:18:31Z</time>
      </trkpt>
      <trkpt lat="46.24721" lon="-0.78722">
        <ele>12.8</ele>
        <time>2020-05-31T15:18:32Z</time>
      </trkpt>
      <trkpt lat="46.24723" lon="-0.78729">
        <ele>12.8</ele>
        <time>2020-05-31T15:18:33Z</time>
      </trkpt>
      <trkpt lat="46.24726" lon="-0.78736">
        <ele>12.8</ele>
        <time>2020-05-31T15:18:34Z</time>
      </trkpt>
      <trkpt lat="46.24729" lon="-0.78743">
        <ele>12.8</ele>
        <time>2020-05-31T15:18:35Z</time>
      </trkpt>
      <trkpt lat="46.24733" lon="-0.7875">
        <ele>12.8</ele>
        <time>2020-05-31T15:18:36Z</time>
      </trkpt>
      <trkpt lat="46.24736" lon="-0.78756">
        <ele>12.7</ele>
        <time>2020-05-31T15:18:37Z</time>
      </trkpt>
      <trkpt lat="46.24738" lon="-0.78763">
        <ele>12.7</ele>
        <time>2020-05-31T15:18:38Z</time>
      </trkpt>
      <trkpt lat="46.24742" lon="-0.7877">
        <ele>12.6</ele>
        <time>2020-05-31T15:18:39Z</time>
      </trkpt>
      <trkpt lat="46.24745" lon="-0.78776">
        <ele>12.5</ele>
        <time>2020-05-31T15:18:40Z</time>
      </trkpt>
      <trkpt lat="46.24749" lon="-0.78783">
        <ele>12.5</ele>
        <time>2020-05-31T15:18:41Z</time>
      </trkpt>
      <trkpt lat="46.24752" lon="-0.7879">
        <ele>12.4</ele>
        <time>2020-05-31T15:18:42Z</time>
      </trkpt>
      <trkpt lat="46.24754" lon="-0.78797">
        <ele>12.3</ele>
        <time>2020-05-31T15:18:43Z</time>
      </trkpt>
      <trkpt lat="46.24757" lon="-0.78804">
        <ele>12.3</ele>
        <time>2020-05-31T15:18:44Z</time>
      </trkpt>
      <trkpt lat="46.2476" lon="-0.78811">
        <ele>12.2</ele>
        <time>2020-05-31T15:18:45Z</time>
      </trkpt>
      <trkpt lat="46.24762" lon="-0.78819">
        <ele>12.1</ele>
        <time>2020-05-31T15:18:46Z</time>
      </trkpt>
      <trkpt lat="46.24764" lon="-0.78827">
        <ele>12.1</ele>
        <time>2020-05-31T15:18:47Z</time>
      </trkpt>
      <trkpt lat="46.24766" lon="-0.78834">
        <ele>12.1</ele>
        <time>2020-05-31T15:18:48Z</time>
      </trkpt>
      <trkpt lat="46.24768" lon="-0.78842">
        <ele>12.1</ele>
        <time>2020-05-31T15:18:49Z</time>
      </trkpt>
      <trkpt lat="46.24771" lon="-0.7885">
        <ele>12.1</ele>
        <time>2020-05-31T15:18:50Z</time>
      </trkpt>
      <trkpt lat="46.24772" lon="-0.78859">
        <ele>12.1</ele>
        <time>2020-05-31T15:18:51Z</time>
      </trkpt>
      <trkpt lat="46.24774" lon="-0.78867">
        <ele>12.1</ele>
        <time>2020-05-31T15:18:52Z</time>
      </trkpt>
      <trkpt lat="46.24776" lon="-0.78876">
        <ele>12.1</ele>
        <time>2020-05-31T15:18:53Z</time>
      </trkpt>
      <trkpt lat="46.24778" lon="-0.78885">
        <ele>12</ele>
        <time>2020-05-31T15:18:54Z</time>
      </trkpt>
      <trkpt lat="46.2478" lon="-0.78894">
        <ele>12</ele>
        <time>2020-05-31T15:18:55Z</time>
      </trkpt>
      <trkpt lat="46.24781" lon="-0.78904">
        <ele>11.9</ele>
        <time>2020-05-31T15:18:56Z</time>
      </trkpt>
      <trkpt lat="46.24782" lon="-0.78913">
        <ele>11.8</ele>
        <time>2020-05-31T15:18:57Z</time>
      </trkpt>
      <trkpt lat="46.24783" lon="-0.78923">
        <ele>11.7</ele>
        <time>2020-05-31T15:18:58Z</time>
      </trkpt>
      <trkpt lat="46.24784" lon="-0.78933">
        <ele>11.6</ele>
        <time>2020-05-31T15:18:59Z</time>
      </trkpt>
      <trkpt lat="46.24785" lon="-0.78942">
        <ele>11.5</ele>
        <time>2020-05-31T15:19:00Z</time>
      </trkpt>
      <trkpt lat="46.24785" lon="-0.78952">
        <ele>11.3</ele>
        <time>2020-05-31T15:19:01Z</time>
      </trkpt>
      <trkpt lat="46.24785" lon="-0.78961">
        <ele>11.2</ele>
        <time>2020-05-31T15:19:02Z</time>
      </trkpt>
      <trkpt lat="46.24785" lon="-0.78971">
        <ele>11.1</ele>
        <time>2020-05-31T15:19:03Z</time>
      </trkpt>
      <trkpt lat="46.24784" lon="-0.78981">
        <ele>11</ele>
        <time>2020-05-31T15:19:04Z</time>
      </trkpt>
      <trkpt lat="46.24784" lon="-0.78991">
        <ele>10.9</ele>
        <time>2020-05-31T15:19:05Z</time>
      </trkpt>
      <trkpt lat="46.24783" lon="-0.79">
        <ele>10.9</ele>
        <time>2020-05-31T15:19:06Z</time>
      </trkpt>
      <trkpt lat="46.24782" lon="-0.7901">
        <ele>10.8</ele>
        <time>2020-05-31T15:19:07Z</time>
      </trkpt>
      <trkpt lat="46.24782" lon="-0.7902">
        <ele>10.8</ele>
        <time>2020-05-31T15:19:08Z</time>
      </trkpt>
      <trkpt lat="46.24781" lon="-0.7903">
        <ele>10.8</ele>
        <time>2020-05-31T15:19:09Z</time>
      </trkpt>
      <trkpt lat="46.2478" lon="-0.7904">
        <ele>10.7</ele>
        <time>2020-05-31T15:19:10Z</time>
      </trkpt>
      <trkpt lat="46.2478" lon="-0.7905">
        <ele>10.7</ele>
        <time>2020-05-31T15:19:11Z</time>
      </trkpt>
      <trkpt lat="46.24779" lon="-0.79059">
        <ele>10.6</ele>
        <time>2020-05-31T15:19:12Z</time>
      </trkpt>
      <trkpt lat="46.24778" lon="-0.79069">
        <ele>10.4</ele>
        <time>2020-05-31T15:19:13Z</time>
      </trkpt>
      <trkpt lat="46.24777" lon="-0.79079">
        <ele>10.3</ele>
        <time>2020-05-31T15:19:14Z</time>
      </trkpt>
      <trkpt lat="46.24777" lon="-0.79089">
        <ele>10.1</ele>
        <time>2020-05-31T15:19:15Z</time>
      </trkpt>
      <trkpt lat="46.24776" lon="-0.79098">
        <ele>10</ele>
        <time>2020-05-31T15:19:16Z</time>
      </trkpt>
      <trkpt lat="46.24775" lon="-0.79107">
        <ele>10</ele>
        <time>2020-05-31T15:19:17Z</time>
      </trkpt>
      <trkpt lat="46.24775" lon="-0.79116">
        <ele>9.9</ele>
        <time>2020-05-31T15:19:18Z</time>
      </trkpt>
      <trkpt lat="46.24775" lon="-0.79126">
        <ele>9.9</ele>
        <time>2020-05-31T15:19:19Z</time>
      </trkpt>
      <trkpt lat="46.24774" lon="-0.79135">
        <ele>9.9</ele>
        <time>2020-05-31T15:19:20Z</time>
      </trkpt>
      <trkpt lat="46.24774" lon="-0.79144">
        <ele>10</ele>
        <time>2020-05-31T15:19:21Z</time>
      </trkpt>
      <trkpt lat="46.24773" lon="-0.79152">
        <ele>10</ele>
        <time>2020-05-31T15:19:22Z</time>
      </trkpt>
      <trkpt lat="46.24773" lon="-0.79161">
        <ele>9.9</ele>
        <time>2020-05-31T15:19:23Z</time>
      </trkpt>
      <trkpt lat="46.24773" lon="-0.79169">
        <ele>9.9</ele>
        <time>2020-05-31T15:19:24Z</time>
      </trkpt>
      <trkpt lat="46.24772" lon="-0.79178">
        <ele>9.9</ele>
        <time>2020-05-31T15:19:25Z</time>
      </trkpt>
      <trkpt lat="46.24772" lon="-0.79186">
        <ele>9.9</ele>
        <time>2020-05-31T15:19:26Z</time>
      </trkpt>
      <trkpt lat="46.24772" lon="-0.79194">
        <ele>9.9</ele>
        <time>2020-05-31T15:19:27Z</time>
      </trkpt>
      <trkpt lat="46.24773" lon="-0.79202">
        <ele>9.9</ele>
        <time>2020-05-31T15:19:28Z</time>
      </trkpt>
      <trkpt lat="46.24773" lon="-0.7921">
        <ele>9.9</ele>
        <time>2020-05-31T15:19:29Z</time>
      </trkpt>
      <trkpt lat="46.24773" lon="-0.79218">
        <ele>9.9</ele>
        <time>2020-05-31T15:19:30Z</time>
      </trkpt>
      <trkpt lat="46.24773" lon="-0.79226">
        <ele>9.9</ele>
        <time>2020-05-31T15:19:31Z</time>
      </trkpt>
      <trkpt lat="46.24773" lon="-0.79234">
        <ele>9.9</ele>
        <time>2020-05-31T15:19:32Z</time>
      </trkpt>
      <trkpt lat="46.24774" lon="-0.79242">
        <ele>9.9</ele>
        <time>2020-05-31T15:19:33Z</time>
      </trkpt>
      <trkpt lat="46.24774" lon="-0.79251">
        <ele>10</ele>
        <time>2020-05-31T15:19:34Z</time>
      </trkpt>
      <trkpt lat="46.24775" lon="-0.79259">
        <ele>10.1</ele>
        <time>2020-05-31T15:19:35Z</time>
      </trkpt>
      <trkpt lat="46.24775" lon="-0.79267">
        <ele>10.1</ele>
        <time>2020-05-31T15:19:36Z</time>
      </trkpt>
      <trkpt lat="46.24776" lon="-0.79275">
        <ele>10.2</ele>
        <time>2020-05-31T15:19:37Z</time>
      </trkpt>
      <trkpt lat="46.24776" lon="-0.79283">
        <ele>10.2</ele>
        <time>2020-05-31T15:19:38Z</time>
      </trkpt>
      <trkpt lat="46.24776" lon="-0.7929">
        <ele>10.3</ele>
        <time>2020-05-31T15:19:39Z</time>
      </trkpt>
      <trkpt lat="46.24776" lon="-0.79297">
        <ele>10.3</ele>
        <time>2020-05-31T15:19:40Z</time>
      </trkpt>
      <trkpt lat="46.24775" lon="-0.79305">
        <ele>10.3</ele>
        <time>2020-05-31T15:19:41Z</time>
      </trkpt>
      <trkpt lat="46.24775" lon="-0.79312">
        <ele>10.3</ele>
        <time>2020-05-31T15:19:42Z</time>
      </trkpt>
      <trkpt lat="46.24774" lon="-0.7932">
        <ele>10.3</ele>
        <time>2020-05-31T15:19:43Z</time>
      </trkpt>
      <trkpt lat="46.24773" lon="-0.79327">
        <ele>10.3</ele>
        <time>2020-05-31T15:19:44Z</time>
      </trkpt>
      <trkpt lat="46.24772" lon="-0.79335">
        <ele>10.4</ele>
        <time>2020-05-31T15:19:45Z</time>
      </trkpt>
      <trkpt lat="46.24771" lon="-0.79343">
        <ele>10.4</ele>
        <time>2020-05-31T15:19:46Z</time>
      </trkpt>
      <trkpt lat="46.2477" lon="-0.7935">
        <ele>10.4</ele>
        <time>2020-05-31T15:19:47Z</time>
      </trkpt>
      <trkpt lat="46.24769" lon="-0.79358">
        <ele>10.4</ele>
        <time>2020-05-31T15:19:48Z</time>
      </trkpt>
      <trkpt lat="46.24768" lon="-0.79366">
        <ele>10.4</ele>
        <time>2020-05-31T15:19:49Z</time>
      </trkpt>
      <trkpt lat="46.24766" lon="-0.79374">
        <ele>10.5</ele>
        <time>2020-05-31T15:19:50Z</time>
      </trkpt>
      <trkpt lat="46.24765" lon="-0.79382">
        <ele>10.5</ele>
        <time>2020-05-31T15:19:51Z</time>
      </trkpt>
      <trkpt lat="46.24763" lon="-0.79389">
        <ele>10.5</ele>
        <time>2020-05-31T15:19:52Z</time>
      </trkpt>
      <trkpt lat="46.24761" lon="-0.79397">
        <ele>10.5</ele>
        <time>2020-05-31T15:19:53Z</time>
      </trkpt>
      <trkpt lat="46.24759" lon="-0.79405">
        <ele>10.5</ele>
        <time>2020-05-31T15:19:54Z</time>
      </trkpt>
      <trkpt lat="46.24757" lon="-0.79412">
        <ele>10.5</ele>
        <time>2020-05-31T15:19:55Z</time>
      </trkpt>
      <trkpt lat="46.24755" lon="-0.7942">
        <ele>10.6</ele>
        <time>2020-05-31T15:19:56Z</time>
      </trkpt>
      <trkpt lat="46.24753" lon="-0.79427">
        <ele>10.6</ele>
        <time>2020-05-31T15:19:57Z</time>
      </trkpt>
      <trkpt lat="46.24751" lon="-0.79434">
        <ele>10.6</ele>
        <time>2020-05-31T15:19:58Z</time>
      </trkpt>
      <trkpt lat="46.24748" lon="-0.79442">
        <ele>10.7</ele>
        <time>2020-05-31T15:19:59Z</time>
      </trkpt>
      <trkpt lat="46.24746" lon="-0.7945">
        <ele>10.7</ele>
        <time>2020-05-31T15:20:00Z</time>
      </trkpt>
      <trkpt lat="46.24744" lon="-0.79458">
        <ele>10.7</ele>
        <time>2020-05-31T15:20:01Z</time>
      </trkpt>
      <trkpt lat="46.24742" lon="-0.79466">
        <ele>10.7</ele>
        <time>2020-05-31T15:20:02Z</time>
      </trkpt>
      <trkpt lat="46.2474" lon="-0.79474">
        <ele>10.7</ele>
        <time>2020-05-31T15:20:03Z</time>
      </trkpt>
      <trkpt lat="46.24738" lon="-0.79482">
        <ele>10.7</ele>
        <time>2020-05-31T15:20:04Z</time>
      </trkpt>
      <trkpt lat="46.24736" lon="-0.7949">
        <ele>10.7</ele>
        <time>2020-05-31T15:20:05Z</time>
      </trkpt>
      <trkpt lat="46.24734" lon="-0.79498">
        <ele>10.7</ele>
        <time>2020-05-31T15:20:06Z</time>
      </trkpt>
      <trkpt lat="46.24732" lon="-0.79505">
        <ele>10.7</ele>
        <time>2020-05-31T15:20:07Z</time>
      </trkpt>
      <trkpt lat="46.2473" lon="-0.79513">
        <ele>10.7</ele>
        <time>2020-05-31T15:20:08Z</time>
      </trkpt>
      <trkpt lat="46.24727" lon="-0.79521">
        <ele>10.7</ele>
        <time>2020-05-31T15:20:09Z</time>
      </trkpt>
      <trkpt lat="46.24725" lon="-0.79529">
        <ele>10.8</ele>
        <time>2020-05-31T15:20:10Z</time>
      </trkpt>
      <trkpt lat="46.24722" lon="-0.79536">
        <ele>10.8</ele>
        <time>2020-05-31T15:20:11Z</time>
      </trkpt>
      <trkpt lat="46.2472" lon="-0.79543">
        <ele>10.9</ele>
        <time>2020-05-31T15:20:12Z</time>
      </trkpt>
      <trkpt lat="46.24717" lon="-0.7955">
        <ele>10.9</ele>
        <time>2020-05-31T15:20:13Z</time>
      </trkpt>
      <trkpt lat="46.24715" lon="-0.79557">
        <ele>11</ele>
        <time>2020-05-31T15:20:14Z</time>
      </trkpt>
      <trkpt lat="46.24713" lon="-0.79564">
        <ele>11</ele>
        <time>2020-05-31T15:20:15Z</time>
      </trkpt>
      <trkpt lat="46.24711" lon="-0.79571">
        <ele>11.1</ele>
        <time>2020-05-31T15:20:16Z</time>
      </trkpt>
      <trkpt lat="46.24709" lon="-0.79578">
        <ele>11.2</ele>
        <time>2020-05-31T15:20:17Z</time>
      </trkpt>
      <trkpt lat="46.24708" lon="-0.79584">
        <ele>11.2</ele>
        <time>2020-05-31T15:20:18Z</time>
      </trkpt>
      <trkpt lat="46.24706" lon="-0.7959">
        <ele>11.3</ele>
        <time>2020-05-31T15:20:19Z</time>
      </trkpt>
      <trkpt lat="46.24704" lon="-0.79595">
        <ele>11.3</ele>
        <time>2020-05-31T15:20:20Z</time>
      </trkpt>
      <trkpt lat="46.24702" lon="-0.79601">
        <ele>11.3</ele>
        <time>2020-05-31T15:20:21Z</time>
      </trkpt>
      <trkpt lat="46.247" lon="-0.79607">
        <ele>11.3</ele>
        <time>2020-05-31T15:20:22Z</time>
      </trkpt>
      <trkpt lat="46.24698" lon="-0.79612">
        <ele>11.4</ele>
        <time>2020-05-31T15:20:23Z</time>
      </trkpt>
      <trkpt lat="46.24696" lon="-0.79617">
        <ele>11.4</ele>
        <time>2020-05-31T15:20:24Z</time>
      </trkpt>
      <trkpt lat="46.24694" lon="-0.79621">
        <ele>11.4</ele>
        <time>2020-05-31T15:20:25Z</time>
      </trkpt>
      <trkpt lat="46.24692" lon="-0.79625">
        <ele>11.5</ele>
        <time>2020-05-31T15:20:26Z</time>
      </trkpt>
      <trkpt lat="46.24689" lon="-0.7963">
        <ele>11.5</ele>
        <time>2020-05-31T15:20:27Z</time>
      </trkpt>
      <trkpt lat="46.24687" lon="-0.79635">
        <ele>11.5</ele>
        <time>2020-05-31T15:20:28Z</time>
      </trkpt>
      <trkpt lat="46.24685" lon="-0.79641">
        <ele>11.6</ele>
        <time>2020-05-31T15:20:29Z</time>
      </trkpt>
      <trkpt lat="46.24683" lon="-0.79647">
        <ele>11.7</ele>
        <time>2020-05-31T15:20:30Z</time>
      </trkpt>
      <trkpt lat="46.24681" lon="-0.79654">
        <ele>11.7</ele>
        <time>2020-05-31T15:20:31Z</time>
      </trkpt>
      <trkpt lat="46.24679" lon="-0.7966">
        <ele>11.8</ele>
        <time>2020-05-31T15:20:32Z</time>
      </trkpt>
      <trkpt lat="46.24677" lon="-0.79666">
        <ele>11.8</ele>
        <time>2020-05-31T15:20:33Z</time>
      </trkpt>
      <trkpt lat="46.24675" lon="-0.79673">
        <ele>11.9</ele>
        <time>2020-05-31T15:20:34Z</time>
      </trkpt>
      <trkpt lat="46.24673" lon="-0.79679">
        <ele>11.9</ele>
        <time>2020-05-31T15:20:35Z</time>
      </trkpt>
      <trkpt lat="46.2467" lon="-0.79685">
        <ele>12</ele>
        <time>2020-05-31T15:20:36Z</time>
      </trkpt>
      <trkpt lat="46.24668" lon="-0.79692">
        <ele>12.1</ele>
        <time>2020-05-31T15:20:37Z</time>
      </trkpt>
      <trkpt lat="46.24666" lon="-0.79699">
        <ele>12.1</ele>
        <time>2020-05-31T15:20:38Z</time>
      </trkpt>
      <trkpt lat="46.24664" lon="-0.79705">
        <ele>12.2</ele>
        <time>2020-05-31T15:20:39Z</time>
      </trkpt>
      <trkpt lat="46.24662" lon="-0.79711">
        <ele>12.2</ele>
        <time>2020-05-31T15:20:40Z</time>
      </trkpt>
      <trkpt lat="46.24659" lon="-0.79717">
        <ele>12.2</ele>
        <time>2020-05-31T15:20:41Z</time>
      </trkpt>
      <trkpt lat="46.24657" lon="-0.79723">
        <ele>12.3</ele>
        <time>2020-05-31T15:20:42Z</time>
      </trkpt>
      <trkpt lat="46.24655" lon="-0.79729">
        <ele>12.4</ele>
        <time>2020-05-31T15:20:43Z</time>
      </trkpt>
      <trkpt lat="46.24653" lon="-0.79735">
        <ele>12.5</ele>
        <time>2020-05-31T15:20:44Z</time>
      </trkpt>
      <trkpt lat="46.2465" lon="-0.79741">
        <ele>12.6</ele>
        <time>2020-05-31T15:20:45Z</time>
      </trkpt>
      <trkpt lat="46.24648" lon="-0.79748">
        <ele>12.7</ele>
        <time>2020-05-31T15:20:46Z</time>
      </trkpt>
      <trkpt lat="46.24646" lon="-0.79755">
        <ele>12.8</ele>
        <time>2020-05-31T15:20:47Z</time>
      </trkpt>
      <trkpt lat="46.24643" lon="-0.79761">
        <ele>13</ele>
        <time>2020-05-31T15:20:48Z</time>
      </trkpt>
      <trkpt lat="46.24641" lon="-0.79767">
        <ele>13.1</ele>
        <time>2020-05-31T15:20:49Z</time>
      </trkpt>
      <trkpt lat="46.24638" lon="-0.79773">
        <ele>13.2</ele>
        <time>2020-05-31T15:20:50Z</time>
      </trkpt>
      <trkpt lat="46.24636" lon="-0.79778">
        <ele>13.2</ele>
        <time>2020-05-31T15:20:51Z</time>
      </trkpt>
      <trkpt lat="46.24634" lon="-0.79784">
        <ele>13.3</ele>
        <time>2020-05-31T15:20:52Z</time>
      </trkpt>
      <trkpt lat="46.24632" lon="-0.79789">
        <ele>13.4</ele>
        <time>2020-05-31T15:20:53Z</time>
      </trkpt>
      <trkpt lat="46.2463" lon="-0.79794">
        <ele>13.4</ele>
        <time>2020-05-31T15:20:54Z</time>
      </trkpt>
      <trkpt lat="46.24628" lon="-0.79799">
        <ele>13.5</ele>
        <time>2020-05-31T15:20:55Z</time>
      </trkpt>
      <trkpt lat="46.24626" lon="-0.79804">
        <ele>13.5</ele>
        <time>2020-05-31T15:20:56Z</time>
      </trkpt>
      <trkpt lat="46.24624" lon="-0.79809">
        <ele>13.6</ele>
        <time>2020-05-31T15:20:57Z</time>
      </trkpt>
      <trkpt lat="46.24622" lon="-0.79814">
        <ele>13.7</ele>
        <time>2020-05-31T15:20:58Z</time>
      </trkpt>
      <trkpt lat="46.24621" lon="-0.79819">
        <ele>13.7</ele>
        <time>2020-05-31T15:20:59Z</time>
      </trkpt>
      <trkpt lat="46.24619" lon="-0.79824">
        <ele>13.8</ele>
        <time>2020-05-31T15:21:00Z</time>
      </trkpt>
      <trkpt lat="46.24617" lon="-0.79829">
        <ele>13.8</ele>
        <time>2020-05-31T15:21:01Z</time>
      </trkpt>
      <trkpt lat="46.24615" lon="-0.79834">
        <ele>13.9</ele>
        <time>2020-05-31T15:21:02Z</time>
      </trkpt>
      <trkpt lat="46.24613" lon="-0.7984">
        <ele>13.9</ele>
        <time>2020-05-31T15:21:03Z</time>
      </trkpt>
      <trkpt lat="46.24611" lon="-0.79845">
        <ele>14</ele>
        <time>2020-05-31T15:21:04Z</time>
      </trkpt>
      <trkpt lat="46.2461" lon="-0.79851">
        <ele>14.1</ele>
        <time>2020-05-31T15:21:05Z</time>
      </trkpt>
      <trkpt lat="46.24608" lon="-0.79857">
        <ele>14.2</ele>
        <time>2020-05-31T15:21:06Z</time>
      </trkpt>
      <trkpt lat="46.24607" lon="-0.79863">
        <ele>14.2</ele>
        <time>2020-05-31T15:21:07Z</time>
      </trkpt>
      <trkpt lat="46.24606" lon="-0.79869">
        <ele>14.3</ele>
        <time>2020-05-31T15:21:08Z</time>
      </trkpt>
      <trkpt lat="46.24604" lon="-0.79875">
        <ele>14.4</ele>
        <time>2020-05-31T15:21:09Z</time>
      </trkpt>
      <trkpt lat="46.24603" lon="-0.79881">
        <ele>14.5</ele>
        <time>2020-05-31T15:21:10Z</time>
      </trkpt>
      <trkpt lat="46.24601" lon="-0.79887">
        <ele>14.6</ele>
        <time>2020-05-31T15:21:11Z</time>
      </trkpt>
      <trkpt lat="46.246" lon="-0.79893">
        <ele>14.6</ele>
        <time>2020-05-31T15:21:12Z</time>
      </trkpt>
      <trkpt lat="46.24598" lon="-0.799">
        <ele>14.7</ele>
        <time>2020-05-31T15:21:13Z</time>
      </trkpt>
      <trkpt lat="46.24597" lon="-0.79906">
        <ele>14.7</ele>
        <time>2020-05-31T15:21:14Z</time>
      </trkpt>
      <trkpt lat="46.24595" lon="-0.79912">
        <ele>14.8</ele>
        <time>2020-05-31T15:21:15Z</time>
      </trkpt>
      <trkpt lat="46.24594" lon="-0.79918">
        <ele>14.9</ele>
        <time>2020-05-31T15:21:16Z</time>
      </trkpt>
      <trkpt lat="46.24593" lon="-0.79925">
        <ele>14.9</ele>
        <time>2020-05-31T15:21:17Z</time>
      </trkpt>
      <trkpt lat="46.24591" lon="-0.79931">
        <ele>15</ele>
        <time>2020-05-31T15:21:18Z</time>
      </trkpt>
      <trkpt lat="46.2459" lon="-0.79937">
        <ele>15</ele>
        <time>2020-05-31T15:21:19Z</time>
      </trkpt>
      <trkpt lat="46.24589" lon="-0.79944">
        <ele>15.1</ele>
        <time>2020-05-31T15:21:20Z</time>
      </trkpt>
      <trkpt lat="46.24587" lon="-0.7995">
        <ele>15.1</ele>
        <time>2020-05-31T15:21:21Z</time>
      </trkpt>
      <trkpt lat="46.24586" lon="-0.79957">
        <ele>15.1</ele>
        <time>2020-05-31T15:21:22Z</time>
      </trkpt>
      <trkpt lat="46.24585" lon="-0.79964">
        <ele>15.2</ele>
        <time>2020-05-31T15:21:23Z</time>
      </trkpt>
      <trkpt lat="46.24583" lon="-0.79971">
        <ele>15.2</ele>
        <time>2020-05-31T15:21:24Z</time>
      </trkpt>
      <trkpt lat="46.24582" lon="-0.79978">
        <ele>15.2</ele>
        <time>2020-05-31T15:21:25Z</time>
      </trkpt>
      <trkpt lat="46.2458" lon="-0.79985">
        <ele>15.2</ele>
        <time>2020-05-31T15:21:26Z</time>
      </trkpt>
      <trkpt lat="46.24579" lon="-0.79992">
        <ele>15.3</ele>
        <time>2020-05-31T15:21:27Z</time>
      </trkpt>
      <trkpt lat="46.24578" lon="-0.79999">
        <ele>15.3</ele>
        <time>2020-05-31T15:21:28Z</time>
      </trkpt>
      <trkpt lat="46.24577" lon="-0.80007">
        <ele>15.3</ele>
        <time>2020-05-31T15:21:29Z</time>
      </trkpt>
      <trkpt lat="46.24575" lon="-0.80014">
        <ele>15.4</ele>
        <time>2020-05-31T15:21:30Z</time>
      </trkpt>
      <trkpt lat="46.24574" lon="-0.8002">
        <ele>15.4</ele>
        <time>2020-05-31T15:21:31Z</time>
      </trkpt>
      <trkpt lat="46.24572" lon="-0.80027">
        <ele>15.5</ele>
        <time>2020-05-31T15:21:32Z</time>
      </trkpt>
      <trkpt lat="46.24572" lon="-0.80034">
        <ele>15.5</ele>
        <time>2020-05-31T15:21:33Z</time>
      </trkpt>
      <trkpt lat="46.24571" lon="-0.80041">
        <ele>15.6</ele>
        <time>2020-05-31T15:21:34Z</time>
      </trkpt>
      <trkpt lat="46.24569" lon="-0.80047">
        <ele>15.6</ele>
        <time>2020-05-31T15:21:35Z</time>
      </trkpt>
      <trkpt lat="46.24567" lon="-0.80053">
        <ele>15.7</ele>
        <time>2020-05-31T15:21:36Z</time>
      </trkpt>
      <trkpt lat="46.24566" lon="-0.80058">
        <ele>15.7</ele>
        <time>2020-05-31T15:21:37Z</time>
      </trkpt>
      <trkpt lat="46.24565" lon="-0.80064">
        <ele>15.7</ele>
        <time>2020-05-31T15:21:38Z</time>
      </trkpt>
      <trkpt lat="46.24564" lon="-0.8007">
        <ele>15.8</ele>
        <time>2020-05-31T15:21:39Z</time>
      </trkpt>
      <trkpt lat="46.24563" lon="-0.80077">
        <ele>15.9</ele>
        <time>2020-05-31T15:21:40Z</time>
      </trkpt>
      <trkpt lat="46.24562" lon="-0.80083">
        <ele>15.9</ele>
        <time>2020-05-31T15:21:41Z</time>
      </trkpt>
      <trkpt lat="46.24561" lon="-0.80089">
        <ele>16</ele>
        <time>2020-05-31T15:21:42Z</time>
      </trkpt>
      <trkpt lat="46.24559" lon="-0.80095">
        <ele>16</ele>
        <time>2020-05-31T15:21:43Z</time>
      </trkpt>
      <trkpt lat="46.24558" lon="-0.80102">
        <ele>16.1</ele>
        <time>2020-05-31T15:21:44Z</time>
      </trkpt>
      <trkpt lat="46.24557" lon="-0.80108">
        <ele>16.1</ele>
        <time>2020-05-31T15:21:45Z</time>
      </trkpt>
      <trkpt lat="46.24556" lon="-0.80115">
        <ele>16.2</ele>
        <time>2020-05-31T15:21:46Z</time>
      </trkpt>
      <trkpt lat="46.24555" lon="-0.80122">
        <ele>16.2</ele>
        <time>2020-05-31T15:21:47Z</time>
      </trkpt>
      <trkpt lat="46.24553" lon="-0.80129">
        <ele>16.2</ele>
        <time>2020-05-31T15:21:48Z</time>
      </trkpt>
      <trkpt lat="46.24552" lon="-0.80136">
        <ele>16.3</ele>
        <time>2020-05-31T15:21:49Z</time>
      </trkpt>
      <trkpt lat="46.24551" lon="-0.80143">
        <ele>16.3</ele>
        <time>2020-05-31T15:21:50Z</time>
      </trkpt>
      <trkpt lat="46.24549" lon="-0.80149">
        <ele>16.3</ele>
        <time>2020-05-31T15:21:51Z</time>
      </trkpt>
      <trkpt lat="46.24547" lon="-0.80156">
        <ele>16.3</ele>
        <time>2020-05-31T15:21:52Z</time>
      </trkpt>
      <trkpt lat="46.24546" lon="-0.80163">
        <ele>16.4</ele>
        <time>2020-05-31T15:21:53Z</time>
      </trkpt>
      <trkpt lat="46.24545" lon="-0.8017">
        <ele>16.4</ele>
        <time>2020-05-31T15:21:54Z</time>
      </trkpt>
      <trkpt lat="46.24544" lon="-0.80177">
        <ele>16.4</ele>
        <time>2020-05-31T15:21:55Z</time>
      </trkpt>
      <trkpt lat="46.24543" lon="-0.80184">
        <ele>16.4</ele>
        <time>2020-05-31T15:21:56Z</time>
      </trkpt>
      <trkpt lat="46.24541" lon="-0.80192">
        <ele>16.3</ele>
        <time>2020-05-31T15:21:57Z</time>
      </trkpt>
      <trkpt lat="46.2454" lon="-0.80199">
        <ele>16.3</ele>
        <time>2020-05-31T15:21:58Z</time>
      </trkpt>
      <trkpt lat="46.2454" lon="-0.80206">
        <ele>16.3</ele>
        <time>2020-05-31T15:21:59Z</time>
      </trkpt>
      <trkpt lat="46.24539" lon="-0.80213">
        <ele>16.3</ele>
        <time>2020-05-31T15:22:00Z</time>
      </trkpt>
      <trkpt lat="46.24537" lon="-0.8022">
        <ele>16.3</ele>
        <time>2020-05-31T15:22:01Z</time>
      </trkpt>
      <trkpt lat="46.24536" lon="-0.80226">
        <ele>16.3</ele>
        <time>2020-05-31T15:22:02Z</time>
      </trkpt>
      <trkpt lat="46.24535" lon="-0.80233">
        <ele>16.3</ele>
        <time>2020-05-31T15:22:03Z</time>
      </trkpt>
      <trkpt lat="46.24534" lon="-0.8024">
        <ele>16.3</ele>
        <time>2020-05-31T15:22:04Z</time>
      </trkpt>
      <trkpt lat="46.24533" lon="-0.80247">
        <ele>16.3</ele>
        <time>2020-05-31T15:22:05Z</time>
      </trkpt>
      <trkpt lat="46.2453" lon="-0.80253">
        <ele>16.3</ele>
        <time>2020-05-31T15:22:06Z</time>
      </trkpt>
      <trkpt lat="46.24528" lon="-0.8026">
        <ele>16.3</ele>
        <time>2020-05-31T15:22:07Z</time>
      </trkpt>
      <trkpt lat="46.24527" lon="-0.80267">
        <ele>16.3</ele>
        <time>2020-05-31T15:22:08Z</time>
      </trkpt>
      <trkpt lat="46.24526" lon="-0.80274">
        <ele>16.3</ele>
        <time>2020-05-31T15:22:09Z</time>
      </trkpt>
      <trkpt lat="46.24524" lon="-0.80281">
        <ele>16.3</ele>
        <time>2020-05-31T15:22:10Z</time>
      </trkpt>
      <trkpt lat="46.24522" lon="-0.80288">
        <ele>16.3</ele>
        <time>2020-05-31T15:22:11Z</time>
      </trkpt>
      <trkpt lat="46.24521" lon="-0.80295">
        <ele>16.3</ele>
        <time>2020-05-31T15:22:12Z</time>
      </trkpt>
      <trkpt lat="46.2452" lon="-0.80303">
        <ele>16.3</ele>
        <time>2020-05-31T15:22:13Z</time>
      </trkpt>
      <trkpt lat="46.24519" lon="-0.80311">
        <ele>16.3</ele>
        <time>2020-05-31T15:22:14Z</time>
      </trkpt>
      <trkpt lat="46.24517" lon="-0.8032">
        <ele>16.3</ele>
        <time>2020-05-31T15:22:15Z</time>
      </trkpt>
      <trkpt lat="46.24516" lon="-0.80328">
        <ele>16.4</ele>
        <time>2020-05-31T15:22:16Z</time>
      </trkpt>
      <trkpt lat="46.24515" lon="-0.80336">
        <ele>16.4</ele>
        <time>2020-05-31T15:22:17Z</time>
      </trkpt>
      <trkpt lat="46.24513" lon="-0.80345">
        <ele>16.4</ele>
        <time>2020-05-31T15:22:18Z</time>
      </trkpt>
      <trkpt lat="46.24512" lon="-0.80352">
        <ele>16.5</ele>
        <time>2020-05-31T15:22:19Z</time>
      </trkpt>
      <trkpt lat="46.24511" lon="-0.8036">
        <ele>16.5</ele>
        <time>2020-05-31T15:22:20Z</time>
      </trkpt>
      <trkpt lat="46.24508" lon="-0.80367">
        <ele>16.6</ele>
        <time>2020-05-31T15:22:21Z</time>
      </trkpt>
      <trkpt lat="46.24507" lon="-0.80375">
        <ele>16.7</ele>
        <time>2020-05-31T15:22:22Z</time>
      </trkpt>
      <trkpt lat="46.24506" lon="-0.80384">
        <ele>16.7</ele>
        <time>2020-05-31T15:22:23Z</time>
      </trkpt>
      <trkpt lat="46.24504" lon="-0.80392">
        <ele>16.8</ele>
        <time>2020-05-31T15:22:24Z</time>
      </trkpt>
      <trkpt lat="46.24502" lon="-0.80401">
        <ele>16.8</ele>
        <time>2020-05-31T15:22:25Z</time>
      </trkpt>
      <trkpt lat="46.245" lon="-0.8041">
        <ele>16.9</ele>
        <time>2020-05-31T15:22:26Z</time>
      </trkpt>
      <trkpt lat="46.24499" lon="-0.80419">
        <ele>16.9</ele>
        <time>2020-05-31T15:22:27Z</time>
      </trkpt>
      <trkpt lat="46.24497" lon="-0.80428">
        <ele>17</ele>
        <time>2020-05-31T15:22:28Z</time>
      </trkpt>
      <trkpt lat="46.24496" lon="-0.80437">
        <ele>17</ele>
        <time>2020-05-31T15:22:29Z</time>
      </trkpt>
      <trkpt lat="46.24495" lon="-0.80446">
        <ele>17.1</ele>
        <time>2020-05-31T15:22:30Z</time>
      </trkpt>
      <trkpt lat="46.24494" lon="-0.80455">
        <ele>17.1</ele>
        <time>2020-05-31T15:22:31Z</time>
      </trkpt>
      <trkpt lat="46.24493" lon="-0.80463">
        <ele>17.2</ele>
        <time>2020-05-31T15:22:32Z</time>
      </trkpt>
      <trkpt lat="46.24492" lon="-0.80472">
        <ele>17.3</ele>
        <time>2020-05-31T15:22:33Z</time>
      </trkpt>
      <trkpt lat="46.24491" lon="-0.8048">
        <ele>17.4</ele>
        <time>2020-05-31T15:22:34Z</time>
      </trkpt>
      <trkpt lat="46.24489" lon="-0.80488">
        <ele>17.5</ele>
        <time>2020-05-31T15:22:35Z</time>
      </trkpt>
      <trkpt lat="46.24488" lon="-0.80496">
        <ele>17.6</ele>
        <time>2020-05-31T15:22:36Z</time>
      </trkpt>
      <trkpt lat="46.24487" lon="-0.80504">
        <ele>17.7</ele>
        <time>2020-05-31T15:22:37Z</time>
      </trkpt>
      <trkpt lat="46.24485" lon="-0.80512">
        <ele>17.9</ele>
        <time>2020-05-31T15:22:38Z</time>
      </trkpt>
      <trkpt lat="46.24483" lon="-0.80519">
        <ele>18</ele>
        <time>2020-05-31T15:22:39Z</time>
      </trkpt>
      <trkpt lat="46.24482" lon="-0.80526">
        <ele>18.1</ele>
        <time>2020-05-31T15:22:40Z</time>
      </trkpt>
      <trkpt lat="46.24481" lon="-0.80533">
        <ele>18.2</ele>
        <time>2020-05-31T15:22:41Z</time>
      </trkpt>
      <trkpt lat="46.24481" lon="-0.80539">
        <ele>18.3</ele>
        <time>2020-05-31T15:22:42Z</time>
      </trkpt>
      <trkpt lat="46.24479" lon="-0.80545">
        <ele>18.4</ele>
        <time>2020-05-31T15:22:43Z</time>
      </trkpt>
      <trkpt lat="46.24478" lon="-0.8055">
        <ele>18.5</ele>
        <time>2020-05-31T15:22:44Z</time>
      </trkpt>
      <trkpt lat="46.24477" lon="-0.80556">
        <ele>18.6</ele>
        <time>2020-05-31T15:22:45Z</time>
      </trkpt>
      <trkpt lat="46.24477" lon="-0.80561">
        <ele>18.7</ele>
        <time>2020-05-31T15:22:46Z</time>
      </trkpt>
      <trkpt lat="46.24476" lon="-0.80567">
        <ele>18.8</ele>
        <time>2020-05-31T15:22:47Z</time>
      </trkpt>
      <trkpt lat="46.24474" lon="-0.80572">
        <ele>18.9</ele>
        <time>2020-05-31T15:22:48Z</time>
      </trkpt>
      <trkpt lat="46.24473" lon="-0.80578">
        <ele>19</ele>
        <time>2020-05-31T15:22:49Z</time>
      </trkpt>
      <trkpt lat="46.24473" lon="-0.80583">
        <ele>19.1</ele>
        <time>2020-05-31T15:22:50Z</time>
      </trkpt>
      <trkpt lat="46.24472" lon="-0.80589">
        <ele>19.2</ele>
        <time>2020-05-31T15:22:51Z</time>
      </trkpt>
      <trkpt lat="46.24471" lon="-0.80595">
        <ele>19.3</ele>
        <time>2020-05-31T15:22:52Z</time>
      </trkpt>
      <trkpt lat="46.2447" lon="-0.806">
        <ele>19.3</ele>
        <time>2020-05-31T15:22:53Z</time>
      </trkpt>
      <trkpt lat="46.24469" lon="-0.80606">
        <ele>19.4</ele>
        <time>2020-05-31T15:22:54Z</time>
      </trkpt>
      <trkpt lat="46.24469" lon="-0.80612">
        <ele>19.4</ele>
        <time>2020-05-31T15:22:55Z</time>
      </trkpt>
      <trkpt lat="46.24468" lon="-0.80619">
        <ele>19.4</ele>
        <time>2020-05-31T15:22:56Z</time>
      </trkpt>
      <trkpt lat="46.24468" lon="-0.80625">
        <ele>19.5</ele>
        <time>2020-05-31T15:22:57Z</time>
      </trkpt>
      <trkpt lat="46.24467" lon="-0.80631">
        <ele>19.5</ele>
        <time>2020-05-31T15:22:58Z</time>
      </trkpt>
      <trkpt lat="46.24466" lon="-0.80637">
        <ele>19.6</ele>
        <time>2020-05-31T15:22:59Z</time>
      </trkpt>
      <trkpt lat="46.24466" lon="-0.80644">
        <ele>19.6</ele>
        <time>2020-05-31T15:23:00Z</time>
      </trkpt>
      <trkpt lat="46.24464" lon="-0.8065">
        <ele>19.7</ele>
        <time>2020-05-31T15:23:01Z</time>
      </trkpt>
      <trkpt lat="46.24463" lon="-0.80657">
        <ele>19.7</ele>
        <time>2020-05-31T15:23:02Z</time>
      </trkpt>
      <trkpt lat="46.24461" lon="-0.80663">
        <ele>19.8</ele>
        <time>2020-05-31T15:23:03Z</time>
      </trkpt>
      <trkpt lat="46.24459" lon="-0.80668">
        <ele>19.9</ele>
        <time>2020-05-31T15:23:04Z</time>
      </trkpt>
      <trkpt lat="46.24457" lon="-0.80674">
        <ele>20</ele>
        <time>2020-05-31T15:23:05Z</time>
      </trkpt>
      <trkpt lat="46.24454" lon="-0.80679">
        <ele>20.2</ele>
        <time>2020-05-31T15:23:06Z</time>
      </trkpt>
      <trkpt lat="46.24452" lon="-0.80684">
        <ele>20.4</ele>
        <time>2020-05-31T15:23:07Z</time>
      </trkpt>
      <trkpt lat="46.2445" lon="-0.8069">
        <ele>20.5</ele>
        <time>2020-05-31T15:23:08Z</time>
      </trkpt>
      <trkpt lat="46.24448" lon="-0.80695">
        <ele>20.5</ele>
        <time>2020-05-31T15:23:09Z</time>
      </trkpt>
      <trkpt lat="46.24446" lon="-0.80699">
        <ele>20.6</ele>
        <time>2020-05-31T15:23:10Z</time>
      </trkpt>
      <trkpt lat="46.24444" lon="-0.80704">
        <ele>20.6</ele>
        <time>2020-05-31T15:23:11Z</time>
      </trkpt>
      <trkpt lat="46.24441" lon="-0.80709">
        <ele>20.6</ele>
        <time>2020-05-31T15:23:12Z</time>
      </trkpt>
      <trkpt lat="46.24439" lon="-0.80713">
        <ele>20.7</ele>
        <time>2020-05-31T15:23:13Z</time>
      </trkpt>
      <trkpt lat="46.24436" lon="-0.80718">
        <ele>20.7</ele>
        <time>2020-05-31T15:23:14Z</time>
      </trkpt>
      <trkpt lat="46.24433" lon="-0.80722">
        <ele>20.7</ele>
        <time>2020-05-31T15:23:15Z</time>
      </trkpt>
      <trkpt lat="46.2443" lon="-0.80727">
        <ele>20.7</ele>
        <time>2020-05-31T15:23:16Z</time>
      </trkpt>
      <trkpt lat="46.24427" lon="-0.8073">
        <ele>20.7</ele>
        <time>2020-05-31T15:23:17Z</time>
      </trkpt>
      <trkpt lat="46.24424" lon="-0.80734">
        <ele>20.8</ele>
        <time>2020-05-31T15:23:18Z</time>
      </trkpt>
      <trkpt lat="46.2442" lon="-0.80737">
        <ele>20.8</ele>
        <time>2020-05-31T15:23:19Z</time>
      </trkpt>
      <trkpt lat="46.24417" lon="-0.80741">
        <ele>20.8</ele>
        <time>2020-05-31T15:23:20Z</time>
      </trkpt>
      <trkpt lat="46.24414" lon="-0.80744">
        <ele>20.9</ele>
        <time>2020-05-31T15:23:21Z</time>
      </trkpt>
      <trkpt lat="46.24411" lon="-0.80747">
        <ele>20.9</ele>
        <time>2020-05-31T15:23:22Z</time>
      </trkpt>
      <trkpt lat="46.24408" lon="-0.80751">
        <ele>21</ele>
        <time>2020-05-31T15:23:23Z</time>
      </trkpt>
      <trkpt lat="46.24405" lon="-0.80755">
        <ele>21</ele>
        <time>2020-05-31T15:23:24Z</time>
      </trkpt>
      <trkpt lat="46.24402" lon="-0.80758">
        <ele>21.1</ele>
        <time>2020-05-31T15:23:25Z</time>
      </trkpt>
      <trkpt lat="46.24399" lon="-0.80762">
        <ele>21.1</ele>
        <time>2020-05-31T15:23:26Z</time>
      </trkpt>
      <trkpt lat="46.24396" lon="-0.80766">
        <ele>21.2</ele>
        <time>2020-05-31T15:23:27Z</time>
      </trkpt>
      <trkpt lat="46.24394" lon="-0.8077">
        <ele>21.2</ele>
        <time>2020-05-31T15:23:28Z</time>
      </trkpt>
      <trkpt lat="46.24391" lon="-0.80773">
        <ele>21.2</ele>
        <time>2020-05-31T15:23:29Z</time>
      </trkpt>
      <trkpt lat="46.24389" lon="-0.80777">
        <ele>21.2</ele>
        <time>2020-05-31T15:23:30Z</time>
      </trkpt>
      <trkpt lat="46.24387" lon="-0.8078">
        <ele>21.2</ele>
        <time>2020-05-31T15:23:31Z</time>
      </trkpt>
      <trkpt lat="46.24384" lon="-0.80784">
        <ele>21.2</ele>
        <time>2020-05-31T15:23:32Z</time>
      </trkpt>
      <trkpt lat="46.24382" lon="-0.80788">
        <ele>21.3</ele>
        <time>2020-05-31T15:23:33Z</time>
      </trkpt>
      <trkpt lat="46.24379" lon="-0.80793">
        <ele>21.3</ele>
        <time>2020-05-31T15:23:34Z</time>
      </trkpt>
      <trkpt lat="46.24376" lon="-0.80798">
        <ele>21.4</ele>
        <time>2020-05-31T15:23:35Z</time>
      </trkpt>
      <trkpt lat="46.24373" lon="-0.80803">
        <ele>21.4</ele>
        <time>2020-05-31T15:23:36Z</time>
      </trkpt>
      <trkpt lat="46.2437" lon="-0.80809">
        <ele>21.5</ele>
        <time>2020-05-31T15:23:37Z</time>
      </trkpt>
      <trkpt lat="46.24367" lon="-0.80814">
        <ele>21.6</ele>
        <time>2020-05-31T15:23:38Z</time>
      </trkpt>
      <trkpt lat="46.24363" lon="-0.80819">
        <ele>21.6</ele>
        <time>2020-05-31T15:23:39Z</time>
      </trkpt>
      <trkpt lat="46.2436" lon="-0.80824">
        <ele>21.6</ele>
        <time>2020-05-31T15:23:40Z</time>
      </trkpt>
      <trkpt lat="46.24356" lon="-0.80829">
        <ele>21.6</ele>
        <time>2020-05-31T15:23:41Z</time>
      </trkpt>
      <trkpt lat="46.24353" lon="-0.80835">
        <ele>21.7</ele>
        <time>2020-05-31T15:23:42Z</time>
      </trkpt>
      <trkpt lat="46.24349" lon="-0.8084">
        <ele>21.8</ele>
        <time>2020-05-31T15:23:43Z</time>
      </trkpt>
      <trkpt lat="46.24346" lon="-0.80846">
        <ele>21.9</ele>
        <time>2020-05-31T15:23:44Z</time>
      </trkpt>
      <trkpt lat="46.24343" lon="-0.80851">
        <ele>22</ele>
        <time>2020-05-31T15:23:45Z</time>
      </trkpt>
      <trkpt lat="46.2434" lon="-0.80855">
        <ele>22.1</ele>
        <time>2020-05-31T15:23:46Z</time>
      </trkpt>
      <trkpt lat="46.24337" lon="-0.80859">
        <ele>22.2</ele>
        <time>2020-05-31T15:23:47Z</time>
      </trkpt>
      <trkpt lat="46.24334" lon="-0.80862">
        <ele>22.3</ele>
        <time>2020-05-31T15:23:48Z</time>
      </trkpt>
      <trkpt lat="46.24332" lon="-0.80866">
        <ele>22.3</ele>
        <time>2020-05-31T15:23:49Z</time>
      </trkpt>
      <trkpt lat="46.24329" lon="-0.80871">
        <ele>22.4</ele>
        <time>2020-05-31T15:23:50Z</time>
      </trkpt>
      <trkpt lat="46.24326" lon="-0.80876">
        <ele>22.5</ele>
        <time>2020-05-31T15:23:51Z</time>
      </trkpt>
      <trkpt lat="46.24322" lon="-0.80881">
        <ele>22.6</ele>
        <time>2020-05-31T15:23:52Z</time>
      </trkpt>
      <trkpt lat="46.24318" lon="-0.80887">
        <ele>22.6</ele>
        <time>2020-05-31T15:23:53Z</time>
      </trkpt>
      <trkpt lat="46.24314" lon="-0.80891">
        <ele>22.7</ele>
        <time>2020-05-31T15:23:54Z</time>
      </trkpt>
      <trkpt lat="46.24311" lon="-0.80895">
        <ele>22.8</ele>
        <time>2020-05-31T15:23:55Z</time>
      </trkpt>
      <trkpt lat="46.24308" lon="-0.80899">
        <ele>22.9</ele>
        <time>2020-05-31T15:23:56Z</time>
      </trkpt>
      <trkpt lat="46.24305" lon="-0.80903">
        <ele>23.1</ele>
        <time>2020-05-31T15:23:57Z</time>
      </trkpt>
      <trkpt lat="46.24303" lon="-0.80908">
        <ele>23.2</ele>
        <time>2020-05-31T15:23:58Z</time>
      </trkpt>
      <trkpt lat="46.24301" lon="-0.80913">
        <ele>23.3</ele>
        <time>2020-05-31T15:23:59Z</time>
      </trkpt>
      <trkpt lat="46.24301" lon="-0.80919">
        <ele>23.4</ele>
        <time>2020-05-31T15:24:00Z</time>
      </trkpt>
      <trkpt lat="46.24301" lon="-0.80926">
        <ele>23.8</ele>
        <time>2020-05-31T15:24:01Z</time>
      </trkpt>
      <trkpt lat="46.24302" lon="-0.80933">
        <ele>23.9</ele>
        <time>2020-05-31T15:24:02Z</time>
      </trkpt>
      <trkpt lat="46.24303" lon="-0.8094">
        <ele>23.9</ele>
        <time>2020-05-31T15:24:03Z</time>
      </trkpt>
      <trkpt lat="46.24303" lon="-0.80947">
        <ele>24</ele>
        <time>2020-05-31T15:24:04Z</time>
      </trkpt>
      <trkpt lat="46.24304" lon="-0.80953">
        <ele>24</ele>
        <time>2020-05-31T15:24:05Z</time>
      </trkpt>
      <trkpt lat="46.24304" lon="-0.8096">
        <ele>24</ele>
        <time>2020-05-31T15:24:06Z</time>
      </trkpt>
      <trkpt lat="46.24304" lon="-0.80966">
        <ele>24</ele>
        <time>2020-05-31T15:24:07Z</time>
      </trkpt>
      <trkpt lat="46.24305" lon="-0.80973">
        <ele>24</ele>
        <time>2020-05-31T15:24:08Z</time>
      </trkpt>
      <trkpt lat="46.24305" lon="-0.8098">
        <ele>24</ele>
        <time>2020-05-31T15:24:09Z</time>
      </trkpt>
      <trkpt lat="46.24306" lon="-0.80987">
        <ele>24</ele>
        <time>2020-05-31T15:24:10Z</time>
      </trkpt>
      <trkpt lat="46.24307" lon="-0.80994">
        <ele>24</ele>
        <time>2020-05-31T15:24:11Z</time>
      </trkpt>
      <trkpt lat="46.24308" lon="-0.81001">
        <ele>24</ele>
        <time>2020-05-31T15:24:12Z</time>
      </trkpt>
      <trkpt lat="46.24309" lon="-0.81009">
        <ele>23.9</ele>
        <time>2020-05-31T15:24:13Z</time>
      </trkpt>
      <trkpt lat="46.2431" lon="-0.81015">
        <ele>23.9</ele>
        <time>2020-05-31T15:24:14Z</time>
      </trkpt>
      <trkpt lat="46.24311" lon="-0.81022">
        <ele>23.9</ele>
        <time>2020-05-31T15:24:15Z</time>
      </trkpt>
      <trkpt lat="46.24311" lon="-0.8103">
        <ele>23.9</ele>
        <time>2020-05-31T15:24:16Z</time>
      </trkpt>
      <trkpt lat="46.24312" lon="-0.81037">
        <ele>23.9</ele>
        <time>2020-05-31T15:24:17Z</time>
      </trkpt>
      <trkpt lat="46.24313" lon="-0.81045">
        <ele>23.9</ele>
        <time>2020-05-31T15:24:18Z</time>
      </trkpt>
      <trkpt lat="46.24314" lon="-0.81054">
        <ele>23.9</ele>
        <time>2020-05-31T15:24:19Z</time>
      </trkpt>
      <trkpt lat="46.24315" lon="-0.81063">
        <ele>23.9</ele>
        <time>2020-05-31T15:24:20Z</time>
      </trkpt>
      <trkpt lat="46.24315" lon="-0.8107">
        <ele>23.8</ele>
        <time>2020-05-31T15:24:21Z</time>
      </trkpt>
      <trkpt lat="46.24313" lon="-0.81077">
        <ele>23.7</ele>
        <time>2020-05-31T15:24:22Z</time>
      </trkpt>
      <trkpt lat="46.24313" lon="-0.81085">
        <ele>23.7</ele>
        <time>2020-05-31T15:24:23Z</time>
      </trkpt>
      <trkpt lat="46.24314" lon="-0.81093">
        <ele>23.6</ele>
        <time>2020-05-31T15:24:24Z</time>
      </trkpt>
      <trkpt lat="46.24315" lon="-0.81102">
        <ele>23.6</ele>
        <time>2020-05-31T15:24:25Z</time>
      </trkpt>
      <trkpt lat="46.24317" lon="-0.8111">
        <ele>23.6</ele>
        <time>2020-05-31T15:24:26Z</time>
      </trkpt>
      <trkpt lat="46.24318" lon="-0.81118">
        <ele>23.4</ele>
        <time>2020-05-31T15:24:27Z</time>
      </trkpt>
      <trkpt lat="46.24319" lon="-0.81127">
        <ele>23.1</ele>
        <time>2020-05-31T15:24:28Z</time>
      </trkpt>
      <trkpt lat="46.24321" lon="-0.81135">
        <ele>22.9</ele>
        <time>2020-05-31T15:24:29Z</time>
      </trkpt>
      <trkpt lat="46.24322" lon="-0.81142">
        <ele>22.7</ele>
        <time>2020-05-31T15:24:30Z</time>
      </trkpt>
      <trkpt lat="46.24324" lon="-0.8115">
        <ele>22.3</ele>
        <time>2020-05-31T15:24:31Z</time>
      </trkpt>
      <trkpt lat="46.24325" lon="-0.81157">
        <ele>22.2</ele>
        <time>2020-05-31T15:24:32Z</time>
      </trkpt>
      <trkpt lat="46.24327" lon="-0.81164">
        <ele>22</ele>
        <time>2020-05-31T15:24:33Z</time>
      </trkpt>
      <trkpt lat="46.24329" lon="-0.8117">
        <ele>21.8</ele>
        <time>2020-05-31T15:24:34Z</time>
      </trkpt>
      <trkpt lat="46.2433" lon="-0.81176">
        <ele>21.7</ele>
        <time>2020-05-31T15:24:35Z</time>
      </trkpt>
      <trkpt lat="46.24332" lon="-0.81183">
        <ele>21.5</ele>
        <time>2020-05-31T15:24:36Z</time>
      </trkpt>
      <trkpt lat="46.24333" lon="-0.81191">
        <ele>21.4</ele>
        <time>2020-05-31T15:24:37Z</time>
      </trkpt>
      <trkpt lat="46.24335" lon="-0.81198">
        <ele>21.3</ele>
        <time>2020-05-31T15:24:38Z</time>
      </trkpt>
      <trkpt lat="46.24337" lon="-0.81206">
        <ele>21.2</ele>
        <time>2020-05-31T15:24:39Z</time>
      </trkpt>
      <trkpt lat="46.24339" lon="-0.81213">
        <ele>21.1</ele>
        <time>2020-05-31T15:24:40Z</time>
      </trkpt>
      <trkpt lat="46.24341" lon="-0.8122">
        <ele>21</ele>
        <time>2020-05-31T15:24:41Z</time>
      </trkpt>
      <trkpt lat="46.24343" lon="-0.81227">
        <ele>20.9</ele>
        <time>2020-05-31T15:24:42Z</time>
      </trkpt>
      <trkpt lat="46.24345" lon="-0.81234">
        <ele>20.8</ele>
        <time>2020-05-31T15:24:43Z</time>
      </trkpt>
      <trkpt lat="46.24347" lon="-0.8124">
        <ele>20.7</ele>
        <time>2020-05-31T15:24:44Z</time>
      </trkpt>
      <trkpt lat="46.24348" lon="-0.81247">
        <ele>20.7</ele>
        <time>2020-05-31T15:24:45Z</time>
      </trkpt>
      <trkpt lat="46.2435" lon="-0.81254">
        <ele>20.6</ele>
        <time>2020-05-31T15:24:46Z</time>
      </trkpt>
      <trkpt lat="46.24351" lon="-0.8126">
        <ele>20.5</ele>
        <time>2020-05-31T15:24:47Z</time>
      </trkpt>
      <trkpt lat="46.24352" lon="-0.81266">
        <ele>20.5</ele>
        <time>2020-05-31T15:24:48Z</time>
      </trkpt>
      <trkpt lat="46.24353" lon="-0.81271">
        <ele>20.5</ele>
        <time>2020-05-31T15:24:49Z</time>
      </trkpt>
      <trkpt lat="46.24354" lon="-0.81276">
        <ele>20.4</ele>
        <time>2020-05-31T15:24:50Z</time>
      </trkpt>
      <trkpt lat="46.24354" lon="-0.81281">
        <ele>20.4</ele>
        <time>2020-05-31T15:24:51Z</time>
      </trkpt>
      <trkpt lat="46.24354" lon="-0.81283">
        <ele>20.4</ele>
        <time>2020-05-31T15:24:52Z</time>
      </trkpt>
      <trkpt lat="46.24354" lon="-0.81287">
        <ele>20.4</ele>
        <time>2020-05-31T15:24:53Z</time>
      </trkpt>
      <trkpt lat="46.24354" lon="-0.81288">
        <ele>20.4</ele>
        <time>2020-05-31T15:24:54Z</time>
      </trkpt>
      <trkpt lat="46.24352" lon="-0.81292">
        <ele>20.4</ele>
        <time>2020-05-31T15:24:55Z</time>
      </trkpt>
      <trkpt lat="46.24351" lon="-0.81293">
        <ele>20.3</ele>
        <time>2020-05-31T15:24:56Z</time>
      </trkpt>
      <trkpt lat="46.24348" lon="-0.81298">
        <ele>20.3</ele>
        <time>2020-05-31T15:24:57Z</time>
      </trkpt>
      <trkpt lat="46.24348" lon="-0.81299">
        <ele>20.3</ele>
        <time>2020-05-31T15:24:58Z</time>
      </trkpt>
      <trkpt lat="46.24345" lon="-0.81301">
        <ele>20.3</ele>
        <time>2020-05-31T15:24:59Z</time>
      </trkpt>
      <trkpt lat="46.24343" lon="-0.81301">
        <ele>20.3</ele>
        <time>2020-05-31T15:25:00Z</time>
      </trkpt>
      <trkpt lat="46.2434" lon="-0.81302">
        <ele>20.3</ele>
        <time>2020-05-31T15:25:01Z</time>
      </trkpt>
      <trkpt lat="46.24339" lon="-0.81302">
        <ele>20.3</ele>
        <time>2020-05-31T15:25:02Z</time>
      </trkpt>
      <trkpt lat="46.24336" lon="-0.81301">
        <ele>20.3</ele>
        <time>2020-05-31T15:25:03Z</time>
      </trkpt>
      <trkpt lat="46.24336" lon="-0.813">
        <ele>20.3</ele>
        <time>2020-05-31T15:25:04Z</time>
      </trkpt>
      <trkpt lat="46.24333" lon="-0.81298">
        <ele>20.4</ele>
        <time>2020-05-31T15:25:05Z</time>
      </trkpt>
      <trkpt lat="46.24332" lon="-0.81298">
        <ele>20.4</ele>
        <time>2020-05-31T15:25:06Z</time>
      </trkpt>
      <trkpt lat="46.24329" lon="-0.81297">
        <ele>20.4</ele>
        <time>2020-05-31T15:25:07Z</time>
      </trkpt>
      <trkpt lat="46.24328" lon="-0.81297">
        <ele>20.4</ele>
        <time>2020-05-31T15:25:08Z</time>
      </trkpt>
      <trkpt lat="46.24326" lon="-0.81296">
        <ele>20.4</ele>
        <time>2020-05-31T15:25:09Z</time>
      </trkpt>
      <trkpt lat="46.24325" lon="-0.81296">
        <ele>20.4</ele>
        <time>2020-05-31T15:25:10Z</time>
      </trkpt>
      <trkpt lat="46.24321" lon="-0.81297">
        <ele>20.4</ele>
        <time>2020-05-31T15:25:11Z</time>
      </trkpt>
      <trkpt lat="46.2432" lon="-0.81298">
        <ele>20.4</ele>
        <time>2020-05-31T15:25:12Z</time>
      </trkpt>
      <trkpt lat="46.24317" lon="-0.81301">
        <ele>20.3</ele>
        <time>2020-05-31T15:25:13Z</time>
      </trkpt>
      <trkpt lat="46.24314" lon="-0.81302">
        <ele>20.3</ele>
        <time>2020-05-31T15:25:14Z</time>
      </trkpt>
      <trkpt lat="46.24311" lon="-0.81303">
        <ele>20.4</ele>
        <time>2020-05-31T15:25:15Z</time>
      </trkpt>
      <trkpt lat="46.24309" lon="-0.81303">
        <ele>20.4</ele>
        <time>2020-05-31T15:25:16Z</time>
      </trkpt>
      <trkpt lat="46.24306" lon="-0.81304">
        <ele>20.4</ele>
        <time>2020-05-31T15:25:17Z</time>
      </trkpt>
      <trkpt lat="46.24303" lon="-0.81304">
        <ele>20.5</ele>
        <time>2020-05-31T15:25:18Z</time>
      </trkpt>
      <trkpt lat="46.243" lon="-0.81305">
        <ele>20.5</ele>
        <time>2020-05-31T15:25:19Z</time>
      </trkpt>
      <trkpt lat="46.24297" lon="-0.81306">
        <ele>20.6</ele>
        <time>2020-05-31T15:25:20Z</time>
      </trkpt>
      <trkpt lat="46.24293" lon="-0.81316">
        <ele>20.7</ele>
        <time>2020-05-31T15:25:21Z</time>
      </trkpt>
      <trkpt lat="46.2429" lon="-0.81316">
        <ele>20.8</ele>
        <time>2020-05-31T15:25:22Z</time>
      </trkpt>
      <trkpt lat="46.24286" lon="-0.81315">
        <ele>20.9</ele>
        <time>2020-05-31T15:25:23Z</time>
      </trkpt>
      <trkpt lat="46.24283" lon="-0.81316">
        <ele>21</ele>
        <time>2020-05-31T15:25:24Z</time>
      </trkpt>
      <trkpt lat="46.2428" lon="-0.81316">
        <ele>21.1</ele>
        <time>2020-05-31T15:25:25Z</time>
      </trkpt>
      <trkpt lat="46.24276" lon="-0.81317">
        <ele>21.2</ele>
        <time>2020-05-31T15:25:26Z</time>
      </trkpt>
      <trkpt lat="46.24273" lon="-0.81317">
        <ele>21.2</ele>
        <time>2020-05-31T15:25:27Z</time>
      </trkpt>
      <trkpt lat="46.24269" lon="-0.81318">
        <ele>21.3</ele>
        <time>2020-05-31T15:25:28Z</time>
      </trkpt>
      <trkpt lat="46.24266" lon="-0.81319">
        <ele>21.3</ele>
        <time>2020-05-31T15:25:29Z</time>
      </trkpt>
      <trkpt lat="46.24262" lon="-0.8132">
        <ele>21.4</ele>
        <time>2020-05-31T15:25:30Z</time>
      </trkpt>
      <trkpt lat="46.24258" lon="-0.81321">
        <ele>21.4</ele>
        <time>2020-05-31T15:25:31Z</time>
      </trkpt>
      <trkpt lat="46.24254" lon="-0.81322">
        <ele>21.5</ele>
        <time>2020-05-31T15:25:32Z</time>
      </trkpt>
      <trkpt lat="46.24251" lon="-0.81323">
        <ele>21.5</ele>
        <time>2020-05-31T15:25:33Z</time>
      </trkpt>
      <trkpt lat="46.24247" lon="-0.81325">
        <ele>21.6</ele>
        <time>2020-05-31T15:25:34Z</time>
      </trkpt>
      <trkpt lat="46.24244" lon="-0.8133">
        <ele>21.6</ele>
        <time>2020-05-31T15:25:35Z</time>
      </trkpt>
      <trkpt lat="46.2424" lon="-0.81332">
        <ele>21.6</ele>
        <time>2020-05-31T15:25:36Z</time>
      </trkpt>
      <trkpt lat="46.24235" lon="-0.81334">
        <ele>21.7</ele>
        <time>2020-05-31T15:25:37Z</time>
      </trkpt>
      <trkpt lat="46.24231" lon="-0.81336">
        <ele>21.8</ele>
        <time>2020-05-31T15:25:38Z</time>
      </trkpt>
      <trkpt lat="46.24226" lon="-0.81338">
        <ele>21.8</ele>
        <time>2020-05-31T15:25:39Z</time>
      </trkpt>
      <trkpt lat="46.24222" lon="-0.8134">
        <ele>21.9</ele>
        <time>2020-05-31T15:25:40Z</time>
      </trkpt>
      <trkpt lat="46.24218" lon="-0.8134">
        <ele>22</ele>
        <time>2020-05-31T15:25:41Z</time>
      </trkpt>
      <trkpt lat="46.24214" lon="-0.81341">
        <ele>22.1</ele>
        <time>2020-05-31T15:25:42Z</time>
      </trkpt>
      <trkpt lat="46.2421" lon="-0.81343">
        <ele>22.2</ele>
        <time>2020-05-31T15:25:43Z</time>
      </trkpt>
      <trkpt lat="46.24206" lon="-0.81345">
        <ele>22.3</ele>
        <time>2020-05-31T15:25:44Z</time>
      </trkpt>
      <trkpt lat="46.24203" lon="-0.81347">
        <ele>22.4</ele>
        <time>2020-05-31T15:25:45Z</time>
      </trkpt>
      <trkpt lat="46.242" lon="-0.81348">
        <ele>22.5</ele>
        <time>2020-05-31T15:25:46Z</time>
      </trkpt>
      <trkpt lat="46.24196" lon="-0.8135">
        <ele>22.5</ele>
        <time>2020-05-31T15:25:47Z</time>
      </trkpt>
      <trkpt lat="46.24193" lon="-0.81351">
        <ele>22.6</ele>
        <time>2020-05-31T15:25:48Z</time>
      </trkpt>
      <trkpt lat="46.24189" lon="-0.81353">
        <ele>22.7</ele>
        <time>2020-05-31T15:25:49Z</time>
      </trkpt>
      <trkpt lat="46.24185" lon="-0.81356">
        <ele>22.7</ele>
        <time>2020-05-31T15:25:50Z</time>
      </trkpt>
      <trkpt lat="46.24182" lon="-0.81358">
        <ele>22.8</ele>
        <time>2020-05-31T15:25:51Z</time>
      </trkpt>
      <trkpt lat="46.24178" lon="-0.8136">
        <ele>22.9</ele>
        <time>2020-05-31T15:25:52Z</time>
      </trkpt>
      <trkpt lat="46.24175" lon="-0.81365">
        <ele>23</ele>
        <time>2020-05-31T15:25:53Z</time>
      </trkpt>
      <trkpt lat="46.24172" lon="-0.81369">
        <ele>23.1</ele>
        <time>2020-05-31T15:25:54Z</time>
      </trkpt>
      <trkpt lat="46.24169" lon="-0.81374">
        <ele>23.2</ele>
        <time>2020-05-31T15:25:55Z</time>
      </trkpt>
      <trkpt lat="46.24167" lon="-0.81379">
        <ele>23.2</ele>
        <time>2020-05-31T15:25:56Z</time>
      </trkpt>
      <trkpt lat="46.24165" lon="-0.81384">
        <ele>23.3</ele>
        <time>2020-05-31T15:25:57Z</time>
      </trkpt>
      <trkpt lat="46.24165" lon="-0.81391">
        <ele>23.5</ele>
        <time>2020-05-31T15:25:58Z</time>
      </trkpt>
      <trkpt lat="46.24163" lon="-0.81396">
        <ele>23.6</ele>
        <time>2020-05-31T15:25:59Z</time>
      </trkpt>
      <trkpt lat="46.24161" lon="-0.814">
        <ele>23.7</ele>
        <time>2020-05-31T15:26:00Z</time>
      </trkpt>
      <trkpt lat="46.24159" lon="-0.81405">
        <ele>23.8</ele>
        <time>2020-05-31T15:26:01Z</time>
      </trkpt>
      <trkpt lat="46.24157" lon="-0.8141">
        <ele>24</ele>
        <time>2020-05-31T15:26:02Z</time>
      </trkpt>
      <trkpt lat="46.24155" lon="-0.81415">
        <ele>24</ele>
        <time>2020-05-31T15:26:03Z</time>
      </trkpt>
      <trkpt lat="46.24152" lon="-0.8142">
        <ele>24.1</ele>
        <time>2020-05-31T15:26:04Z</time>
      </trkpt>
      <trkpt lat="46.24149" lon="-0.81425">
        <ele>24.2</ele>
        <time>2020-05-31T15:26:05Z</time>
      </trkpt>
      <trkpt lat="46.24146" lon="-0.81431">
        <ele>24.3</ele>
        <time>2020-05-31T15:26:06Z</time>
      </trkpt>
      <trkpt lat="46.24144" lon="-0.81437">
        <ele>24.4</ele>
        <time>2020-05-31T15:26:07Z</time>
      </trkpt>
      <trkpt lat="46.24141" lon="-0.81442">
        <ele>24.4</ele>
        <time>2020-05-31T15:26:08Z</time>
      </trkpt>
      <trkpt lat="46.24138" lon="-0.81447">
        <ele>24.4</ele>
        <time>2020-05-31T15:26:09Z</time>
      </trkpt>
      <trkpt lat="46.24135" lon="-0.81453">
        <ele>24.4</ele>
        <time>2020-05-31T15:26:10Z</time>
      </trkpt>
      <trkpt lat="46.24133" lon="-0.81459">
        <ele>24.4</ele>
        <time>2020-05-31T15:26:11Z</time>
      </trkpt>
      <trkpt lat="46.24131" lon="-0.81465">
        <ele>24.4</ele>
        <time>2020-05-31T15:26:12Z</time>
      </trkpt>
      <trkpt lat="46.24129" lon="-0.81472">
        <ele>24.4</ele>
        <time>2020-05-31T15:26:13Z</time>
      </trkpt>
      <trkpt lat="46.24124" lon="-0.81476">
        <ele>24.4</ele>
        <time>2020-05-31T15:26:14Z</time>
      </trkpt>
      <trkpt lat="46.24121" lon="-0.81482">
        <ele>24.4</ele>
        <time>2020-05-31T15:26:15Z</time>
      </trkpt>
      <trkpt lat="46.24119" lon="-0.81488">
        <ele>24.4</ele>
        <time>2020-05-31T15:26:16Z</time>
      </trkpt>
      <trkpt lat="46.24118" lon="-0.81495">
        <ele>24.4</ele>
        <time>2020-05-31T15:26:17Z</time>
      </trkpt>
      <trkpt lat="46.24116" lon="-0.81501">
        <ele>24.4</ele>
        <time>2020-05-31T15:26:18Z</time>
      </trkpt>
      <trkpt lat="46.24115" lon="-0.81508">
        <ele>24.4</ele>
        <time>2020-05-31T15:26:19Z</time>
      </trkpt>
      <trkpt lat="46.24114" lon="-0.81515">
        <ele>24.4</ele>
        <time>2020-05-31T15:26:20Z</time>
      </trkpt>
      <trkpt lat="46.24112" lon="-0.81521">
        <ele>24.4</ele>
        <time>2020-05-31T15:26:21Z</time>
      </trkpt>
      <trkpt lat="46.24111" lon="-0.81528">
        <ele>24.4</ele>
        <time>2020-05-31T15:26:22Z</time>
      </trkpt>
      <trkpt lat="46.24108" lon="-0.81534">
        <ele>24.3</ele>
        <time>2020-05-31T15:26:23Z</time>
      </trkpt>
      <trkpt lat="46.24107" lon="-0.81542">
        <ele>24.3</ele>
        <time>2020-05-31T15:26:24Z</time>
      </trkpt>
      <trkpt lat="46.24106" lon="-0.81549">
        <ele>24.3</ele>
        <time>2020-05-31T15:26:25Z</time>
      </trkpt>
      <trkpt lat="46.24104" lon="-0.81555">
        <ele>24.3</ele>
        <time>2020-05-31T15:26:26Z</time>
      </trkpt>
      <trkpt lat="46.24102" lon="-0.81562">
        <ele>24.3</ele>
        <time>2020-05-31T15:26:27Z</time>
      </trkpt>
      <trkpt lat="46.24102" lon="-0.81569">
        <ele>24.3</ele>
        <time>2020-05-31T15:26:28Z</time>
      </trkpt>
      <trkpt lat="46.241" lon="-0.81577">
        <ele>24.3</ele>
        <time>2020-05-31T15:26:29Z</time>
      </trkpt>
      <trkpt lat="46.24098" lon="-0.81584">
        <ele>24.3</ele>
        <time>2020-05-31T15:26:30Z</time>
      </trkpt>
      <trkpt lat="46.24097" lon="-0.81592">
        <ele>24.2</ele>
        <time>2020-05-31T15:26:31Z</time>
      </trkpt>
      <trkpt lat="46.24094" lon="-0.816">
        <ele>24.2</ele>
        <time>2020-05-31T15:26:32Z</time>
      </trkpt>
      <trkpt lat="46.24092" lon="-0.81607">
        <ele>24.2</ele>
        <time>2020-05-31T15:26:33Z</time>
      </trkpt>
      <trkpt lat="46.24091" lon="-0.81615">
        <ele>24.2</ele>
        <time>2020-05-31T15:26:34Z</time>
      </trkpt>
      <trkpt lat="46.24089" lon="-0.81623">
        <ele>24.2</ele>
        <time>2020-05-31T15:26:35Z</time>
      </trkpt>
      <trkpt lat="46.24087" lon="-0.81632">
        <ele>24.2</ele>
        <time>2020-05-31T15:26:36Z</time>
      </trkpt>
      <trkpt lat="46.24087" lon="-0.8164">
        <ele>24.2</ele>
        <time>2020-05-31T15:26:37Z</time>
      </trkpt>
      <trkpt lat="46.24085" lon="-0.81649">
        <ele>24.1</ele>
        <time>2020-05-31T15:26:38Z</time>
      </trkpt>
      <trkpt lat="46.24084" lon="-0.81657">
        <ele>24.1</ele>
        <time>2020-05-31T15:26:39Z</time>
      </trkpt>
      <trkpt lat="46.24085" lon="-0.81666">
        <ele>24</ele>
        <time>2020-05-31T15:26:40Z</time>
      </trkpt>
      <trkpt lat="46.24085" lon="-0.81676">
        <ele>24</ele>
        <time>2020-05-31T15:26:41Z</time>
      </trkpt>
      <trkpt lat="46.24085" lon="-0.81686">
        <ele>23.9</ele>
        <time>2020-05-31T15:26:42Z</time>
      </trkpt>
      <trkpt lat="46.24085" lon="-0.81696">
        <ele>23.9</ele>
        <time>2020-05-31T15:26:43Z</time>
      </trkpt>
      <trkpt lat="46.24085" lon="-0.81706">
        <ele>23.8</ele>
        <time>2020-05-31T15:26:44Z</time>
      </trkpt>
      <trkpt lat="46.24083" lon="-0.81716">
        <ele>23.8</ele>
        <time>2020-05-31T15:26:45Z</time>
      </trkpt>
      <trkpt lat="46.24082" lon="-0.81725">
        <ele>23.8</ele>
        <time>2020-05-31T15:26:46Z</time>
      </trkpt>
      <trkpt lat="46.24081" lon="-0.81735">
        <ele>23.8</ele>
        <time>2020-05-31T15:26:47Z</time>
      </trkpt>
      <trkpt lat="46.24082" lon="-0.81744">
        <ele>23.7</ele>
        <time>2020-05-31T15:26:48Z</time>
      </trkpt>
      <trkpt lat="46.24082" lon="-0.81753">
        <ele>23.7</ele>
        <time>2020-05-31T15:26:49Z</time>
      </trkpt>
      <trkpt lat="46.24082" lon="-0.81762">
        <ele>23.7</ele>
        <time>2020-05-31T15:26:50Z</time>
      </trkpt>
      <trkpt lat="46.24081" lon="-0.81772">
        <ele>23.8</ele>
        <time>2020-05-31T15:26:51Z</time>
      </trkpt>
      <trkpt lat="46.24081" lon="-0.81781">
        <ele>23.8</ele>
        <time>2020-05-31T15:26:52Z</time>
      </trkpt>
      <trkpt lat="46.2408" lon="-0.8179">
        <ele>23.8</ele>
        <time>2020-05-31T15:26:53Z</time>
      </trkpt>
      <trkpt lat="46.24079" lon="-0.81799">
        <ele>23.9</ele>
        <time>2020-05-31T15:26:54Z</time>
      </trkpt>
      <trkpt lat="46.24078" lon="-0.81808">
        <ele>24</ele>
        <time>2020-05-31T15:26:55Z</time>
      </trkpt>
      <trkpt lat="46.24077" lon="-0.81816">
        <ele>24.1</ele>
        <time>2020-05-31T15:26:56Z</time>
      </trkpt>
      <trkpt lat="46.24077" lon="-0.81825">
        <ele>24.3</ele>
        <time>2020-05-31T15:26:57Z</time>
      </trkpt>
      <trkpt lat="46.24076" lon="-0.81833">
        <ele>24.4</ele>
        <time>2020-05-31T15:26:58Z</time>
      </trkpt>
      <trkpt lat="46.24075" lon="-0.8184">
        <ele>24.5</ele>
        <time>2020-05-31T15:26:59Z</time>
      </trkpt>
      <trkpt lat="46.24074" lon="-0.81848">
        <ele>24.7</ele>
        <time>2020-05-31T15:27:00Z</time>
      </trkpt>
      <trkpt lat="46.24073" lon="-0.81854">
        <ele>24.8</ele>
        <time>2020-05-31T15:27:01Z</time>
      </trkpt>
      <trkpt lat="46.24072" lon="-0.81862">
        <ele>24.9</ele>
        <time>2020-05-31T15:27:02Z</time>
      </trkpt>
      <trkpt lat="46.24071" lon="-0.81868">
        <ele>25.1</ele>
        <time>2020-05-31T15:27:03Z</time>
      </trkpt>
      <trkpt lat="46.2407" lon="-0.81875">
        <ele>25.2</ele>
        <time>2020-05-31T15:27:04Z</time>
      </trkpt>
      <trkpt lat="46.24068" lon="-0.81881">
        <ele>25.3</ele>
        <time>2020-05-31T15:27:05Z</time>
      </trkpt>
      <trkpt lat="46.24067" lon="-0.81888">
        <ele>25.4</ele>
        <time>2020-05-31T15:27:06Z</time>
      </trkpt>
      <trkpt lat="46.24065" lon="-0.81894">
        <ele>25.5</ele>
        <time>2020-05-31T15:27:07Z</time>
      </trkpt>
      <trkpt lat="46.24063" lon="-0.81901">
        <ele>25.6</ele>
        <time>2020-05-31T15:27:08Z</time>
      </trkpt>
      <trkpt lat="46.24063" lon="-0.81908">
        <ele>25.7</ele>
        <time>2020-05-31T15:27:09Z</time>
      </trkpt>
      <trkpt lat="46.24062" lon="-0.81914">
        <ele>25.9</ele>
        <time>2020-05-31T15:27:10Z</time>
      </trkpt>
      <trkpt lat="46.24061" lon="-0.81921">
        <ele>26</ele>
        <time>2020-05-31T15:27:11Z</time>
      </trkpt>
      <trkpt lat="46.2406" lon="-0.81927">
        <ele>26.1</ele>
        <time>2020-05-31T15:27:12Z</time>
      </trkpt>
      <trkpt lat="46.2406" lon="-0.81933">
        <ele>26.2</ele>
        <time>2020-05-31T15:27:13Z</time>
      </trkpt>
      <trkpt lat="46.24059" lon="-0.8194">
        <ele>26.3</ele>
        <time>2020-05-31T15:27:14Z</time>
      </trkpt>
      <trkpt lat="46.24058" lon="-0.81946">
        <ele>26.4</ele>
        <time>2020-05-31T15:27:15Z</time>
      </trkpt>
      <trkpt lat="46.24057" lon="-0.81952">
        <ele>26.4</ele>
        <time>2020-05-31T15:27:16Z</time>
      </trkpt>
      <trkpt lat="46.24055" lon="-0.81958">
        <ele>26.5</ele>
        <time>2020-05-31T15:27:17Z</time>
      </trkpt>
      <trkpt lat="46.24054" lon="-0.81964">
        <ele>26.5</ele>
        <time>2020-05-31T15:27:18Z</time>
      </trkpt>
      <trkpt lat="46.24053" lon="-0.81971">
        <ele>26.5</ele>
        <time>2020-05-31T15:27:19Z</time>
      </trkpt>
      <trkpt lat="46.2405" lon="-0.81977">
        <ele>26.6</ele>
        <time>2020-05-31T15:27:20Z</time>
      </trkpt>
      <trkpt lat="46.24049" lon="-0.81983">
        <ele>26.7</ele>
        <time>2020-05-31T15:27:21Z</time>
      </trkpt>
      <trkpt lat="46.24048" lon="-0.81989">
        <ele>26.7</ele>
        <time>2020-05-31T15:27:22Z</time>
      </trkpt>
      <trkpt lat="46.24047" lon="-0.81996">
        <ele>26.8</ele>
        <time>2020-05-31T15:27:23Z</time>
      </trkpt>
      <trkpt lat="46.24044" lon="-0.82002">
        <ele>26.9</ele>
        <time>2020-05-31T15:27:24Z</time>
      </trkpt>
      <trkpt lat="46.24042" lon="-0.82008">
        <ele>26.9</ele>
        <time>2020-05-31T15:27:25Z</time>
      </trkpt>
      <trkpt lat="46.24041" lon="-0.82015">
        <ele>27</ele>
        <time>2020-05-31T15:27:26Z</time>
      </trkpt>
      <trkpt lat="46.24039" lon="-0.82022">
        <ele>27.1</ele>
        <time>2020-05-31T15:27:27Z</time>
      </trkpt>
      <trkpt lat="46.24037" lon="-0.82028">
        <ele>27.2</ele>
        <time>2020-05-31T15:27:28Z</time>
      </trkpt>
      <trkpt lat="46.24035" lon="-0.82035">
        <ele>27.2</ele>
        <time>2020-05-31T15:27:29Z</time>
      </trkpt>
      <trkpt lat="46.24033" lon="-0.82041">
        <ele>27.3</ele>
        <time>2020-05-31T15:27:30Z</time>
      </trkpt>
      <trkpt lat="46.24031" lon="-0.82048">
        <ele>27.4</ele>
        <time>2020-05-31T15:27:31Z</time>
      </trkpt>
      <trkpt lat="46.24027" lon="-0.82053">
        <ele>27.4</ele>
        <time>2020-05-31T15:27:32Z</time>
      </trkpt>
      <trkpt lat="46.24024" lon="-0.82059">
        <ele>27.4</ele>
        <time>2020-05-31T15:27:33Z</time>
      </trkpt>
      <trkpt lat="46.24021" lon="-0.82066">
        <ele>27.5</ele>
        <time>2020-05-31T15:27:34Z</time>
      </trkpt>
      <trkpt lat="46.24018" lon="-0.82072">
        <ele>27.5</ele>
        <time>2020-05-31T15:27:35Z</time>
      </trkpt>
      <trkpt lat="46.24014" lon="-0.82078">
        <ele>27.6</ele>
        <time>2020-05-31T15:27:36Z</time>
      </trkpt>
      <trkpt lat="46.24011" lon="-0.82084">
        <ele>27.6</ele>
        <time>2020-05-31T15:27:37Z</time>
      </trkpt>
      <trkpt lat="46.24007" lon="-0.8209">
        <ele>27.6</ele>
        <time>2020-05-31T15:27:38Z</time>
      </trkpt>
      <trkpt lat="46.24003" lon="-0.82096">
        <ele>27.7</ele>
        <time>2020-05-31T15:27:39Z</time>
      </trkpt>
      <trkpt lat="46.23999" lon="-0.82102">
        <ele>27.7</ele>
        <time>2020-05-31T15:27:40Z</time>
      </trkpt>
      <trkpt lat="46.23995" lon="-0.82108">
        <ele>27.8</ele>
        <time>2020-05-31T15:27:41Z</time>
      </trkpt>
      <trkpt lat="46.23991" lon="-0.82114">
        <ele>27.8</ele>
        <time>2020-05-31T15:27:42Z</time>
      </trkpt>
      <trkpt lat="46.23986" lon="-0.8212">
        <ele>27.9</ele>
        <time>2020-05-31T15:27:43Z</time>
      </trkpt>
      <trkpt lat="46.23982" lon="-0.82126">
        <ele>28</ele>
        <time>2020-05-31T15:27:44Z</time>
      </trkpt>
      <trkpt lat="46.23977" lon="-0.82131">
        <ele>28.1</ele>
        <time>2020-05-31T15:27:45Z</time>
      </trkpt>
      <trkpt lat="46.23972" lon="-0.82137">
        <ele>28.2</ele>
        <time>2020-05-31T15:27:46Z</time>
      </trkpt>
      <trkpt lat="46.23968" lon="-0.82143">
        <ele>28.3</ele>
        <time>2020-05-31T15:27:47Z</time>
      </trkpt>
      <trkpt lat="46.23962" lon="-0.82149">
        <ele>28.4</ele>
        <time>2020-05-31T15:27:48Z</time>
      </trkpt>
      <trkpt lat="46.23958" lon="-0.82155">
        <ele>28.5</ele>
        <time>2020-05-31T15:27:49Z</time>
      </trkpt>
      <trkpt lat="46.23953" lon="-0.82162">
        <ele>28.6</ele>
        <time>2020-05-31T15:27:50Z</time>
      </trkpt>
      <trkpt lat="46.23948" lon="-0.82168">
        <ele>28.7</ele>
        <time>2020-05-31T15:27:51Z</time>
      </trkpt>
      <trkpt lat="46.23943" lon="-0.82174">
        <ele>28.8</ele>
        <time>2020-05-31T15:27:52Z</time>
      </trkpt>
      <trkpt lat="46.23938" lon="-0.8218">
        <ele>29</ele>
        <time>2020-05-31T15:27:53Z</time>
      </trkpt>
      <trkpt lat="46.23933" lon="-0.82185">
        <ele>29.1</ele>
        <time>2020-05-31T15:27:54Z</time>
      </trkpt>
      <trkpt lat="46.23928" lon="-0.82191">
        <ele>29.2</ele>
        <time>2020-05-31T15:27:55Z</time>
      </trkpt>
      <trkpt lat="46.23924" lon="-0.82197">
        <ele>29.4</ele>
        <time>2020-05-31T15:27:56Z</time>
      </trkpt>
      <trkpt lat="46.23919" lon="-0.82203">
        <ele>29.5</ele>
        <time>2020-05-31T15:27:57Z</time>
      </trkpt>
      <trkpt lat="46.23915" lon="-0.8221">
        <ele>29.7</ele>
        <time>2020-05-31T15:27:58Z</time>
      </trkpt>
      <trkpt lat="46.23911" lon="-0.82216">
        <ele>29.8</ele>
        <time>2020-05-31T15:27:59Z</time>
      </trkpt>
      <trkpt lat="46.23908" lon="-0.82223">
        <ele>30</ele>
        <time>2020-05-31T15:28:00Z</time>
      </trkpt>
      <trkpt lat="46.23904" lon="-0.82229">
        <ele>30.2</ele>
        <time>2020-05-31T15:28:01Z</time>
      </trkpt>
      <trkpt lat="46.239" lon="-0.82236">
        <ele>30.3</ele>
        <time>2020-05-31T15:28:02Z</time>
      </trkpt>
      <trkpt lat="46.23897" lon="-0.82244">
        <ele>30.5</ele>
        <time>2020-05-31T15:28:03Z</time>
      </trkpt>
      <trkpt lat="46.23895" lon="-0.82251">
        <ele>30.6</ele>
        <time>2020-05-31T15:28:04Z</time>
      </trkpt>
      <trkpt lat="46.23893" lon="-0.82259">
        <ele>30.8</ele>
        <time>2020-05-31T15:28:05Z</time>
      </trkpt>
      <trkpt lat="46.23892" lon="-0.82267">
        <ele>31</ele>
        <time>2020-05-31T15:28:06Z</time>
      </trkpt>
      <trkpt lat="46.23892" lon="-0.82275">
        <ele>31.1</ele>
        <time>2020-05-31T15:28:07Z</time>
      </trkpt>
      <trkpt lat="46.23892" lon="-0.82283">
        <ele>31.3</ele>
        <time>2020-05-31T15:28:08Z</time>
      </trkpt>
      <trkpt lat="46.23892" lon="-0.82291">
        <ele>31.4</ele>
        <time>2020-05-31T15:28:09Z</time>
      </trkpt>
      <trkpt lat="46.23894" lon="-0.82298">
        <ele>31.5</ele>
        <time>2020-05-31T15:28:10Z</time>
      </trkpt>
      <trkpt lat="46.23895" lon="-0.82305">
        <ele>31.7</ele>
        <time>2020-05-31T15:28:11Z</time>
      </trkpt>
      <trkpt lat="46.23897" lon="-0.82312">
        <ele>31.9</ele>
        <time>2020-05-31T15:28:12Z</time>
      </trkpt>
      <trkpt lat="46.23899" lon="-0.8232">
        <ele>32</ele>
        <time>2020-05-31T15:28:13Z</time>
      </trkpt>
      <trkpt lat="46.239" lon="-0.82327">
        <ele>32.2</ele>
        <time>2020-05-31T15:28:14Z</time>
      </trkpt>
      <trkpt lat="46.23902" lon="-0.82334">
        <ele>32.4</ele>
        <time>2020-05-31T15:28:15Z</time>
      </trkpt>
      <trkpt lat="46.23903" lon="-0.82341">
        <ele>32.5</ele>
        <time>2020-05-31T15:28:16Z</time>
      </trkpt>
      <trkpt lat="46.23905" lon="-0.82348">
        <ele>32.7</ele>
        <time>2020-05-31T15:28:17Z</time>
      </trkpt>
      <trkpt lat="46.23906" lon="-0.82355">
        <ele>32.8</ele>
        <time>2020-05-31T15:28:18Z</time>
      </trkpt>
      <trkpt lat="46.23908" lon="-0.82362">
        <ele>33</ele>
        <time>2020-05-31T15:28:19Z</time>
      </trkpt>
      <trkpt lat="46.23909" lon="-0.82369">
        <ele>33.1</ele>
        <time>2020-05-31T15:28:20Z</time>
      </trkpt>
      <trkpt lat="46.2391" lon="-0.82376">
        <ele>33.3</ele>
        <time>2020-05-31T15:28:21Z</time>
      </trkpt>
      <trkpt lat="46.23912" lon="-0.82382">
        <ele>33.4</ele>
        <time>2020-05-31T15:28:22Z</time>
      </trkpt>
      <trkpt lat="46.23914" lon="-0.82388">
        <ele>33.5</ele>
        <time>2020-05-31T15:28:23Z</time>
      </trkpt>
      <trkpt lat="46.23916" lon="-0.82395">
        <ele>33.7</ele>
        <time>2020-05-31T15:28:24Z</time>
      </trkpt>
      <trkpt lat="46.23917" lon="-0.82401">
        <ele>33.8</ele>
        <time>2020-05-31T15:28:25Z</time>
      </trkpt>
      <trkpt lat="46.23918" lon="-0.82407">
        <ele>33.9</ele>
        <time>2020-05-31T15:28:26Z</time>
      </trkpt>
      <trkpt lat="46.23919" lon="-0.82414">
        <ele>34</ele>
        <time>2020-05-31T15:28:27Z</time>
      </trkpt>
      <trkpt lat="46.2392" lon="-0.82421">
        <ele>34.1</ele>
        <time>2020-05-31T15:28:28Z</time>
      </trkpt>
      <trkpt lat="46.23921" lon="-0.82428">
        <ele>34.3</ele>
        <time>2020-05-31T15:28:29Z</time>
      </trkpt>
      <trkpt lat="46.23923" lon="-0.82434">
        <ele>34.4</ele>
        <time>2020-05-31T15:28:30Z</time>
      </trkpt>
      <trkpt lat="46.23925" lon="-0.82441">
        <ele>34.6</ele>
        <time>2020-05-31T15:28:31Z</time>
      </trkpt>
      <trkpt lat="46.23926" lon="-0.82448">
        <ele>34.7</ele>
        <time>2020-05-31T15:28:32Z</time>
      </trkpt>
      <trkpt lat="46.23927" lon="-0.82455">
        <ele>34.8</ele>
        <time>2020-05-31T15:28:33Z</time>
      </trkpt>
      <trkpt lat="46.23928" lon="-0.82461">
        <ele>35</ele>
        <time>2020-05-31T15:28:34Z</time>
      </trkpt>
      <trkpt lat="46.23929" lon="-0.82467">
        <ele>35.1</ele>
        <time>2020-05-31T15:28:35Z</time>
      </trkpt>
      <trkpt lat="46.2393" lon="-0.82473">
        <ele>35.2</ele>
        <time>2020-05-31T15:28:36Z</time>
      </trkpt>
      <trkpt lat="46.23931" lon="-0.8248">
        <ele>35.3</ele>
        <time>2020-05-31T15:28:37Z</time>
      </trkpt>
      <trkpt lat="46.23931" lon="-0.82486">
        <ele>35.4</ele>
        <time>2020-05-31T15:28:38Z</time>
      </trkpt>
      <trkpt lat="46.23932" lon="-0.82492">
        <ele>35.5</ele>
        <time>2020-05-31T15:28:39Z</time>
      </trkpt>
      <trkpt lat="46.23932" lon="-0.82499">
        <ele>35.7</ele>
        <time>2020-05-31T15:28:40Z</time>
      </trkpt>
      <trkpt lat="46.23933" lon="-0.82505">
        <ele>35.8</ele>
        <time>2020-05-31T15:28:41Z</time>
      </trkpt>
      <trkpt lat="46.23934" lon="-0.82512">
        <ele>35.9</ele>
        <time>2020-05-31T15:28:42Z</time>
      </trkpt>
      <trkpt lat="46.23934" lon="-0.82518">
        <ele>36.1</ele>
        <time>2020-05-31T15:28:43Z</time>
      </trkpt>
      <trkpt lat="46.23935" lon="-0.82524">
        <ele>36.2</ele>
        <time>2020-05-31T15:28:44Z</time>
      </trkpt>
      <trkpt lat="46.23936" lon="-0.8253">
        <ele>36.3</ele>
        <time>2020-05-31T15:28:45Z</time>
      </trkpt>
      <trkpt lat="46.23936" lon="-0.82536">
        <ele>36.4</ele>
        <time>2020-05-31T15:28:46Z</time>
      </trkpt>
      <trkpt lat="46.23938" lon="-0.82542">
        <ele>36.6</ele>
        <time>2020-05-31T15:28:47Z</time>
      </trkpt>
      <trkpt lat="46.23939" lon="-0.82548">
        <ele>36.7</ele>
        <time>2020-05-31T15:28:48Z</time>
      </trkpt>
      <trkpt lat="46.2394" lon="-0.82554">
        <ele>36.8</ele>
        <time>2020-05-31T15:28:49Z</time>
      </trkpt>
      <trkpt lat="46.2394" lon="-0.8256">
        <ele>36.9</ele>
        <time>2020-05-31T15:28:50Z</time>
      </trkpt>
      <trkpt lat="46.23941" lon="-0.82566">
        <ele>37</ele>
        <time>2020-05-31T15:28:51Z</time>
      </trkpt>
      <trkpt lat="46.23941" lon="-0.82572">
        <ele>37.2</ele>
        <time>2020-05-31T15:28:52Z</time>
      </trkpt>
      <trkpt lat="46.23941" lon="-0.82578">
        <ele>37.3</ele>
        <time>2020-05-31T15:28:53Z</time>
      </trkpt>
      <trkpt lat="46.23942" lon="-0.82585">
        <ele>37.4</ele>
        <time>2020-05-31T15:28:54Z</time>
      </trkpt>
      <trkpt lat="46.23943" lon="-0.82591">
        <ele>37.5</ele>
        <time>2020-05-31T15:28:55Z</time>
      </trkpt>
      <trkpt lat="46.23945" lon="-0.82597">
        <ele>37.6</ele>
        <time>2020-05-31T15:28:56Z</time>
      </trkpt>
      <trkpt lat="46.23945" lon="-0.82604">
        <ele>37.8</ele>
        <time>2020-05-31T15:28:57Z</time>
      </trkpt>
      <trkpt lat="46.23946" lon="-0.8261">
        <ele>37.9</ele>
        <time>2020-05-31T15:28:58Z</time>
      </trkpt>
      <trkpt lat="46.23946" lon="-0.82617">
        <ele>38</ele>
        <time>2020-05-31T15:28:59Z</time>
      </trkpt>
      <trkpt lat="46.23946" lon="-0.82624">
        <ele>38.2</ele>
        <time>2020-05-31T15:29:00Z</time>
      </trkpt>
      <trkpt lat="46.23946" lon="-0.8263">
        <ele>38.3</ele>
        <time>2020-05-31T15:29:01Z</time>
      </trkpt>
      <trkpt lat="46.23945" lon="-0.82637">
        <ele>38.5</ele>
        <time>2020-05-31T15:29:02Z</time>
      </trkpt>
      <trkpt lat="46.23945" lon="-0.82643">
        <ele>38.6</ele>
        <time>2020-05-31T15:29:03Z</time>
      </trkpt>
      <trkpt lat="46.23943" lon="-0.82649">
        <ele>38.6</ele>
        <time>2020-05-31T15:29:04Z</time>
      </trkpt>
      <trkpt lat="46.23942" lon="-0.82654">
        <ele>38.7</ele>
        <time>2020-05-31T15:29:05Z</time>
      </trkpt>
      <trkpt lat="46.23941" lon="-0.82659">
        <ele>38.7</ele>
        <time>2020-05-31T15:29:06Z</time>
      </trkpt>
      <trkpt lat="46.23939" lon="-0.82665">
        <ele>38.8</ele>
        <time>2020-05-31T15:29:07Z</time>
      </trkpt>
      <trkpt lat="46.23938" lon="-0.8267">
        <ele>38.9</ele>
        <time>2020-05-31T15:29:08Z</time>
      </trkpt>
      <trkpt lat="46.23936" lon="-0.82676">
        <ele>39</ele>
        <time>2020-05-31T15:29:09Z</time>
      </trkpt>
      <trkpt lat="46.23935" lon="-0.82681">
        <ele>39.1</ele>
        <time>2020-05-31T15:29:10Z</time>
      </trkpt>
      <trkpt lat="46.23933" lon="-0.82685">
        <ele>39.2</ele>
        <time>2020-05-31T15:29:11Z</time>
      </trkpt>
      <trkpt lat="46.23932" lon="-0.8269">
        <ele>39.2</ele>
        <time>2020-05-31T15:29:12Z</time>
      </trkpt>
      <trkpt lat="46.23931" lon="-0.82694">
        <ele>39.3</ele>
        <time>2020-05-31T15:29:13Z</time>
      </trkpt>
      <trkpt lat="46.2393" lon="-0.82698">
        <ele>39.4</ele>
        <time>2020-05-31T15:29:14Z</time>
      </trkpt>
      <trkpt lat="46.23927" lon="-0.82701">
        <ele>39.4</ele>
        <time>2020-05-31T15:29:15Z</time>
      </trkpt>
      <trkpt lat="46.23926" lon="-0.82702">
        <ele>39.5</ele>
        <time>2020-05-31T15:29:16Z</time>
      </trkpt>
      <trkpt lat="46.23925" lon="-0.82706">
        <ele>39.5</ele>
        <time>2020-05-31T15:29:17Z</time>
      </trkpt>
      <trkpt lat="46.23925" lon="-0.82708">
        <ele>39.5</ele>
        <time>2020-05-31T15:29:18Z</time>
      </trkpt>
      <trkpt lat="46.23926" lon="-0.82712">
        <ele>39.6</ele>
        <time>2020-05-31T15:29:19Z</time>
      </trkpt>
      <trkpt lat="46.23924" lon="-0.82716">
        <ele>39.7</ele>
        <time>2020-05-31T15:29:20Z</time>
      </trkpt>
      <trkpt lat="46.23922" lon="-0.8272">
        <ele>39.8</ele>
        <time>2020-05-31T15:29:21Z</time>
      </trkpt>
      <trkpt lat="46.23919" lon="-0.82724">
        <ele>39.8</ele>
        <time>2020-05-31T15:29:22Z</time>
      </trkpt>
      <trkpt lat="46.23917" lon="-0.82728">
        <ele>39.9</ele>
        <time>2020-05-31T15:29:23Z</time>
      </trkpt>
      <trkpt lat="46.23915" lon="-0.82732">
        <ele>40</ele>
        <time>2020-05-31T15:29:24Z</time>
      </trkpt>
      <trkpt lat="46.23913" lon="-0.82737">
        <ele>40.1</ele>
        <time>2020-05-31T15:29:25Z</time>
      </trkpt>
      <trkpt lat="46.23911" lon="-0.82742">
        <ele>40.2</ele>
        <time>2020-05-31T15:29:26Z</time>
      </trkpt>
      <trkpt lat="46.2391" lon="-0.82747">
        <ele>40.3</ele>
        <time>2020-05-31T15:29:27Z</time>
      </trkpt>
      <trkpt lat="46.23909" lon="-0.82752">
        <ele>40.4</ele>
        <time>2020-05-31T15:29:28Z</time>
      </trkpt>
      <trkpt lat="46.23907" lon="-0.82758">
        <ele>40.5</ele>
        <time>2020-05-31T15:29:29Z</time>
      </trkpt>
      <trkpt lat="46.23905" lon="-0.82763">
        <ele>40.6</ele>
        <time>2020-05-31T15:29:30Z</time>
      </trkpt>
      <trkpt lat="46.23904" lon="-0.82769">
        <ele>40.7</ele>
        <time>2020-05-31T15:29:31Z</time>
      </trkpt>
      <trkpt lat="46.23902" lon="-0.82774">
        <ele>40.8</ele>
        <time>2020-05-31T15:29:32Z</time>
      </trkpt>
      <trkpt lat="46.239" lon="-0.82779">
        <ele>40.9</ele>
        <time>2020-05-31T15:29:33Z</time>
      </trkpt>
      <trkpt lat="46.23897" lon="-0.82784">
        <ele>41</ele>
        <time>2020-05-31T15:29:34Z</time>
      </trkpt>
      <trkpt lat="46.23895" lon="-0.82789">
        <ele>41</ele>
        <time>2020-05-31T15:29:35Z</time>
      </trkpt>
      <trkpt lat="46.23893" lon="-0.82795">
        <ele>41.1</ele>
        <time>2020-05-31T15:29:36Z</time>
      </trkpt>
      <trkpt lat="46.23891" lon="-0.828">
        <ele>41.2</ele>
        <time>2020-05-31T15:29:37Z</time>
      </trkpt>
      <trkpt lat="46.2389" lon="-0.82806">
        <ele>41.2</ele>
        <time>2020-05-31T15:29:38Z</time>
      </trkpt>
      <trkpt lat="46.23887" lon="-0.82811">
        <ele>41.3</ele>
        <time>2020-05-31T15:29:39Z</time>
      </trkpt>
      <trkpt lat="46.23885" lon="-0.82816">
        <ele>41.3</ele>
        <time>2020-05-31T15:29:40Z</time>
      </trkpt>
      <trkpt lat="46.23882" lon="-0.82821">
        <ele>41.4</ele>
        <time>2020-05-31T15:29:41Z</time>
      </trkpt>
      <trkpt lat="46.2388" lon="-0.82826">
        <ele>41.5</ele>
        <time>2020-05-31T15:29:42Z</time>
      </trkpt>
      <trkpt lat="46.23878" lon="-0.82832">
        <ele>41.5</ele>
        <time>2020-05-31T15:29:43Z</time>
      </trkpt>
      <trkpt lat="46.23877" lon="-0.82837">
        <ele>41.6</ele>
        <time>2020-05-31T15:29:44Z</time>
      </trkpt>
      <trkpt lat="46.23875" lon="-0.82843">
        <ele>41.6</ele>
        <time>2020-05-31T15:29:45Z</time>
      </trkpt>
      <trkpt lat="46.23874" lon="-0.82848">
        <ele>41.6</ele>
        <time>2020-05-31T15:29:46Z</time>
      </trkpt>
      <trkpt lat="46.23874" lon="-0.82854">
        <ele>41.7</ele>
        <time>2020-05-31T15:29:47Z</time>
      </trkpt>
      <trkpt lat="46.23874" lon="-0.8286">
        <ele>41.7</ele>
        <time>2020-05-31T15:29:48Z</time>
      </trkpt>
      <trkpt lat="46.23872" lon="-0.82866">
        <ele>41.7</ele>
        <time>2020-05-31T15:29:49Z</time>
      </trkpt>
      <trkpt lat="46.23871" lon="-0.82872">
        <ele>41.8</ele>
        <time>2020-05-31T15:29:50Z</time>
      </trkpt>
      <trkpt lat="46.23869" lon="-0.82877">
        <ele>41.8</ele>
        <time>2020-05-31T15:29:51Z</time>
      </trkpt>
      <trkpt lat="46.23867" lon="-0.82883">
        <ele>41.9</ele>
        <time>2020-05-31T15:29:52Z</time>
      </trkpt>
      <trkpt lat="46.23865" lon="-0.82888">
        <ele>41.9</ele>
        <time>2020-05-31T15:29:53Z</time>
      </trkpt>
      <trkpt lat="46.23864" lon="-0.82893">
        <ele>41.9</ele>
        <time>2020-05-31T15:29:54Z</time>
      </trkpt>
      <trkpt lat="46.23862" lon="-0.82899">
        <ele>42</ele>
        <time>2020-05-31T15:29:55Z</time>
      </trkpt>
      <trkpt lat="46.23861" lon="-0.82904">
        <ele>42</ele>
        <time>2020-05-31T15:29:56Z</time>
      </trkpt>
      <trkpt lat="46.23859" lon="-0.82909">
        <ele>42</ele>
        <time>2020-05-31T15:29:57Z</time>
      </trkpt>
      <trkpt lat="46.23857" lon="-0.82914">
        <ele>42.1</ele>
        <time>2020-05-31T15:29:58Z</time>
      </trkpt>
      <trkpt lat="46.23855" lon="-0.82919">
        <ele>42.1</ele>
        <time>2020-05-31T15:29:59Z</time>
      </trkpt>
      <trkpt lat="46.23854" lon="-0.82925">
        <ele>42.2</ele>
        <time>2020-05-31T15:30:00Z</time>
      </trkpt>
      <trkpt lat="46.23852" lon="-0.8293">
        <ele>42.2</ele>
        <time>2020-05-31T15:30:01Z</time>
      </trkpt>
      <trkpt lat="46.2385" lon="-0.82935">
        <ele>42.2</ele>
        <time>2020-05-31T15:30:02Z</time>
      </trkpt>
      <trkpt lat="46.23848" lon="-0.8294">
        <ele>42.2</ele>
        <time>2020-05-31T15:30:03Z</time>
      </trkpt>
      <trkpt lat="46.23847" lon="-0.82945">
        <ele>42.3</ele>
        <time>2020-05-31T15:30:04Z</time>
      </trkpt>
      <trkpt lat="46.23846" lon="-0.8295">
        <ele>42.3</ele>
        <time>2020-05-31T15:30:05Z</time>
      </trkpt>
      <trkpt lat="46.23845" lon="-0.82955">
        <ele>42.3</ele>
        <time>2020-05-31T15:30:06Z</time>
      </trkpt>
      <trkpt lat="46.23844" lon="-0.8296">
        <ele>42.3</ele>
        <time>2020-05-31T15:30:07Z</time>
      </trkpt>
      <trkpt lat="46.23843" lon="-0.82965">
        <ele>42.3</ele>
        <time>2020-05-31T15:30:08Z</time>
      </trkpt>
      <trkpt lat="46.23842" lon="-0.82971">
        <ele>42.3</ele>
        <time>2020-05-31T15:30:09Z</time>
      </trkpt>
      <trkpt lat="46.2384" lon="-0.82976">
        <ele>42.2</ele>
        <time>2020-05-31T15:30:10Z</time>
      </trkpt>
      <trkpt lat="46.23839" lon="-0.82981">
        <ele>42.2</ele>
        <time>2020-05-31T15:30:11Z</time>
      </trkpt>
      <trkpt lat="46.23837" lon="-0.82986">
        <ele>42.1</ele>
        <time>2020-05-31T15:30:12Z</time>
      </trkpt>
      <trkpt lat="46.23836" lon="-0.82991">
        <ele>42.1</ele>
        <time>2020-05-31T15:30:13Z</time>
      </trkpt>
      <trkpt lat="46.23834" lon="-0.82996">
        <ele>42</ele>
        <time>2020-05-31T15:30:14Z</time>
      </trkpt>
      <trkpt lat="46.23833" lon="-0.83001">
        <ele>42</ele>
        <time>2020-05-31T15:30:15Z</time>
      </trkpt>
      <trkpt lat="46.23832" lon="-0.83007">
        <ele>41.9</ele>
        <time>2020-05-31T15:30:16Z</time>
      </trkpt>
      <trkpt lat="46.23831" lon="-0.83013">
        <ele>41.9</ele>
        <time>2020-05-31T15:30:17Z</time>
      </trkpt>
      <trkpt lat="46.23831" lon="-0.83019">
        <ele>41.8</ele>
        <time>2020-05-31T15:30:18Z</time>
      </trkpt>
      <trkpt lat="46.23832" lon="-0.83025">
        <ele>41.7</ele>
        <time>2020-05-31T15:30:19Z</time>
      </trkpt>
      <trkpt lat="46.23831" lon="-0.8303">
        <ele>41.7</ele>
        <time>2020-05-31T15:30:20Z</time>
      </trkpt>
      <trkpt lat="46.2383" lon="-0.83036">
        <ele>41.6</ele>
        <time>2020-05-31T15:30:21Z</time>
      </trkpt>
      <trkpt lat="46.23829" lon="-0.83042">
        <ele>41.6</ele>
        <time>2020-05-31T15:30:22Z</time>
      </trkpt>
      <trkpt lat="46.23829" lon="-0.83048">
        <ele>41.6</ele>
        <time>2020-05-31T15:30:23Z</time>
      </trkpt>
      <trkpt lat="46.23827" lon="-0.83054">
        <ele>41.6</ele>
        <time>2020-05-31T15:30:24Z</time>
      </trkpt>
      <trkpt lat="46.23826" lon="-0.83059">
        <ele>41.5</ele>
        <time>2020-05-31T15:30:25Z</time>
      </trkpt>
      <trkpt lat="46.23825" lon="-0.83066">
        <ele>41.5</ele>
        <time>2020-05-31T15:30:26Z</time>
      </trkpt>
      <trkpt lat="46.23825" lon="-0.83072">
        <ele>41.5</ele>
        <time>2020-05-31T15:30:27Z</time>
      </trkpt>
      <trkpt lat="46.23825" lon="-0.83078">
        <ele>41.5</ele>
        <time>2020-05-31T15:30:28Z</time>
      </trkpt>
      <trkpt lat="46.23825" lon="-0.83084">
        <ele>41.5</ele>
        <time>2020-05-31T15:30:29Z</time>
      </trkpt>
      <trkpt lat="46.23824" lon="-0.83091">
        <ele>41.5</ele>
        <time>2020-05-31T15:30:30Z</time>
      </trkpt>
      <trkpt lat="46.23823" lon="-0.83097">
        <ele>41.6</ele>
        <time>2020-05-31T15:30:31Z</time>
      </trkpt>
      <trkpt lat="46.23823" lon="-0.83104">
        <ele>41.6</ele>
        <time>2020-05-31T15:30:32Z</time>
      </trkpt>
      <trkpt lat="46.23823" lon="-0.8311">
        <ele>41.5</ele>
        <time>2020-05-31T15:30:33Z</time>
      </trkpt>
      <trkpt lat="46.23822" lon="-0.83117">
        <ele>41.5</ele>
        <time>2020-05-31T15:30:34Z</time>
      </trkpt>
      <trkpt lat="46.23821" lon="-0.83124">
        <ele>41.5</ele>
        <time>2020-05-31T15:30:35Z</time>
      </trkpt>
      <trkpt lat="46.2382" lon="-0.8313">
        <ele>41.4</ele>
        <time>2020-05-31T15:30:36Z</time>
      </trkpt>
      <trkpt lat="46.2382" lon="-0.83137">
        <ele>41.4</ele>
        <time>2020-05-31T15:30:37Z</time>
      </trkpt>
      <trkpt lat="46.2382" lon="-0.83143">
        <ele>41.4</ele>
        <time>2020-05-31T15:30:38Z</time>
      </trkpt>
      <trkpt lat="46.23819" lon="-0.8315">
        <ele>41.4</ele>
        <time>2020-05-31T15:30:39Z</time>
      </trkpt>
      <trkpt lat="46.23818" lon="-0.83156">
        <ele>41.3</ele>
        <time>2020-05-31T15:30:40Z</time>
      </trkpt>
      <trkpt lat="46.23818" lon="-0.83163">
        <ele>41.3</ele>
        <time>2020-05-31T15:30:41Z</time>
      </trkpt>
      <trkpt lat="46.23817" lon="-0.8317">
        <ele>41.3</ele>
        <time>2020-05-31T15:30:42Z</time>
      </trkpt>
      <trkpt lat="46.23816" lon="-0.83176">
        <ele>41.2</ele>
        <time>2020-05-31T15:30:43Z</time>
      </trkpt>
      <trkpt lat="46.23816" lon="-0.83183">
        <ele>41.2</ele>
        <time>2020-05-31T15:30:44Z</time>
      </trkpt>
      <trkpt lat="46.23816" lon="-0.83188">
        <ele>41.2</ele>
        <time>2020-05-31T15:30:45Z</time>
      </trkpt>
      <trkpt lat="46.23815" lon="-0.83194">
        <ele>41.2</ele>
        <time>2020-05-31T15:30:46Z</time>
      </trkpt>
      <trkpt lat="46.23814" lon="-0.83199">
        <ele>41.1</ele>
        <time>2020-05-31T15:30:47Z</time>
      </trkpt>
      <trkpt lat="46.23813" lon="-0.83205">
        <ele>41.1</ele>
        <time>2020-05-31T15:30:48Z</time>
      </trkpt>
      <trkpt lat="46.23812" lon="-0.83211">
        <ele>41.1</ele>
        <time>2020-05-31T15:30:49Z</time>
      </trkpt>
      <trkpt lat="46.23811" lon="-0.83217">
        <ele>41.1</ele>
        <time>2020-05-31T15:30:50Z</time>
      </trkpt>
      <trkpt lat="46.2381" lon="-0.83223">
        <ele>41.1</ele>
        <time>2020-05-31T15:30:51Z</time>
      </trkpt>
      <trkpt lat="46.23808" lon="-0.83229">
        <ele>41.1</ele>
        <time>2020-05-31T15:30:52Z</time>
      </trkpt>
      <trkpt lat="46.23806" lon="-0.83234">
        <ele>41</ele>
        <time>2020-05-31T15:30:53Z</time>
      </trkpt>
      <trkpt lat="46.23804" lon="-0.8324">
        <ele>41</ele>
        <time>2020-05-31T15:30:54Z</time>
      </trkpt>
      <trkpt lat="46.23802" lon="-0.83246">
        <ele>41</ele>
        <time>2020-05-31T15:30:55Z</time>
      </trkpt>
      <trkpt lat="46.238" lon="-0.83251">
        <ele>41</ele>
        <time>2020-05-31T15:30:56Z</time>
      </trkpt>
      <trkpt lat="46.23799" lon="-0.83257">
        <ele>41</ele>
        <time>2020-05-31T15:30:57Z</time>
      </trkpt>
      <trkpt lat="46.23797" lon="-0.83262">
        <ele>41</ele>
        <time>2020-05-31T15:30:58Z</time>
      </trkpt>
      <trkpt lat="46.23796" lon="-0.83268">
        <ele>40.9</ele>
        <time>2020-05-31T15:30:59Z</time>
      </trkpt>
      <trkpt lat="46.23794" lon="-0.83273">
        <ele>40.9</ele>
        <time>2020-05-31T15:31:00Z</time>
      </trkpt>
      <trkpt lat="46.23791" lon="-0.83278">
        <ele>40.9</ele>
        <time>2020-05-31T15:31:01Z</time>
      </trkpt>
      <trkpt lat="46.2379" lon="-0.83283">
        <ele>40.9</ele>
        <time>2020-05-31T15:31:02Z</time>
      </trkpt>
      <trkpt lat="46.23788" lon="-0.83288">
        <ele>40.9</ele>
        <time>2020-05-31T15:31:03Z</time>
      </trkpt>
      <trkpt lat="46.23786" lon="-0.83294">
        <ele>40.9</ele>
        <time>2020-05-31T15:31:04Z</time>
      </trkpt>
      <trkpt lat="46.23783" lon="-0.83299">
        <ele>40.9</ele>
        <time>2020-05-31T15:31:05Z</time>
      </trkpt>
      <trkpt lat="46.23781" lon="-0.83304">
        <ele>40.9</ele>
        <time>2020-05-31T15:31:06Z</time>
      </trkpt>
      <trkpt lat="46.23778" lon="-0.83308">
        <ele>40.9</ele>
        <time>2020-05-31T15:31:07Z</time>
      </trkpt>
      <trkpt lat="46.23776" lon="-0.83313">
        <ele>40.8</ele>
        <time>2020-05-31T15:31:08Z</time>
      </trkpt>
      <trkpt lat="46.23774" lon="-0.83318">
        <ele>40.8</ele>
        <time>2020-05-31T15:31:09Z</time>
      </trkpt>
      <trkpt lat="46.23772" lon="-0.83323">
        <ele>40.8</ele>
        <time>2020-05-31T15:31:10Z</time>
      </trkpt>
      <trkpt lat="46.23769" lon="-0.83328">
        <ele>40.7</ele>
        <time>2020-05-31T15:31:11Z</time>
      </trkpt>
      <trkpt lat="46.23766" lon="-0.83331">
        <ele>40.7</ele>
        <time>2020-05-31T15:31:12Z</time>
      </trkpt>
      <trkpt lat="46.23763" lon="-0.83336">
        <ele>40.6</ele>
        <time>2020-05-31T15:31:13Z</time>
      </trkpt>
      <trkpt lat="46.23761" lon="-0.83341">
        <ele>40.6</ele>
        <time>2020-05-31T15:31:14Z</time>
      </trkpt>
      <trkpt lat="46.23758" lon="-0.83346">
        <ele>40.6</ele>
        <time>2020-05-31T15:31:15Z</time>
      </trkpt>
      <trkpt lat="46.23756" lon="-0.8335">
        <ele>40.5</ele>
        <time>2020-05-31T15:31:16Z</time>
      </trkpt>
      <trkpt lat="46.23753" lon="-0.83355">
        <ele>40.5</ele>
        <time>2020-05-31T15:31:17Z</time>
      </trkpt>
      <trkpt lat="46.2375" lon="-0.8336">
        <ele>40.5</ele>
        <time>2020-05-31T15:31:18Z</time>
      </trkpt>
      <trkpt lat="46.23747" lon="-0.83364">
        <ele>40.4</ele>
        <time>2020-05-31T15:31:19Z</time>
      </trkpt>
      <trkpt lat="46.23745" lon="-0.83369">
        <ele>40.4</ele>
        <time>2020-05-31T15:31:20Z</time>
      </trkpt>
      <trkpt lat="46.23742" lon="-0.83373">
        <ele>40.3</ele>
        <time>2020-05-31T15:31:21Z</time>
      </trkpt>
      <trkpt lat="46.23739" lon="-0.83378">
        <ele>40.3</ele>
        <time>2020-05-31T15:31:22Z</time>
      </trkpt>
      <trkpt lat="46.23737" lon="-0.83382">
        <ele>40.3</ele>
        <time>2020-05-31T15:31:23Z</time>
      </trkpt>
      <trkpt lat="46.23734" lon="-0.83387">
        <ele>40.2</ele>
        <time>2020-05-31T15:31:24Z</time>
      </trkpt>
      <trkpt lat="46.23731" lon="-0.83391">
        <ele>40.2</ele>
        <time>2020-05-31T15:31:25Z</time>
      </trkpt>
      <trkpt lat="46.23728" lon="-0.83395">
        <ele>40.2</ele>
        <time>2020-05-31T15:31:26Z</time>
      </trkpt>
      <trkpt lat="46.23725" lon="-0.83399">
        <ele>40.1</ele>
        <time>2020-05-31T15:31:27Z</time>
      </trkpt>
      <trkpt lat="46.23721" lon="-0.83402">
        <ele>40.1</ele>
        <time>2020-05-31T15:31:28Z</time>
      </trkpt>
      <trkpt lat="46.23718" lon="-0.83405">
        <ele>40.1</ele>
        <time>2020-05-31T15:31:29Z</time>
      </trkpt>
      <trkpt lat="46.23715" lon="-0.83408">
        <ele>40.1</ele>
        <time>2020-05-31T15:31:30Z</time>
      </trkpt>
      <trkpt lat="46.23711" lon="-0.83411">
        <ele>40</ele>
        <time>2020-05-31T15:31:31Z</time>
      </trkpt>
      <trkpt lat="46.23707" lon="-0.83414">
        <ele>40</ele>
        <time>2020-05-31T15:31:32Z</time>
      </trkpt>
      <trkpt lat="46.23704" lon="-0.83416">
        <ele>40</ele>
        <time>2020-05-31T15:31:33Z</time>
      </trkpt>
      <trkpt lat="46.237" lon="-0.83418">
        <ele>40</ele>
        <time>2020-05-31T15:31:34Z</time>
      </trkpt>
      <trkpt lat="46.23697" lon="-0.83421">
        <ele>40</ele>
        <time>2020-05-31T15:31:35Z</time>
      </trkpt>
      <trkpt lat="46.23693" lon="-0.83423">
        <ele>40</ele>
        <time>2020-05-31T15:31:36Z</time>
      </trkpt>
      <trkpt lat="46.23689" lon="-0.83424">
        <ele>39.9</ele>
        <time>2020-05-31T15:31:37Z</time>
      </trkpt>
      <trkpt lat="46.23686" lon="-0.83427">
        <ele>39.9</ele>
        <time>2020-05-31T15:31:38Z</time>
      </trkpt>
      <trkpt lat="46.23683" lon="-0.83429">
        <ele>39.9</ele>
        <time>2020-05-31T15:31:39Z</time>
      </trkpt>
      <trkpt lat="46.2368" lon="-0.83432">
        <ele>39.9</ele>
        <time>2020-05-31T15:31:40Z</time>
      </trkpt>
      <trkpt lat="46.23676" lon="-0.83435">
        <ele>39.9</ele>
        <time>2020-05-31T15:31:41Z</time>
      </trkpt>
      <trkpt lat="46.23672" lon="-0.83437">
        <ele>39.9</ele>
        <time>2020-05-31T15:31:42Z</time>
      </trkpt>
      <trkpt lat="46.23668" lon="-0.83438">
        <ele>39.9</ele>
        <time>2020-05-31T15:31:43Z</time>
      </trkpt>
      <trkpt lat="46.23664" lon="-0.83441">
        <ele>39.9</ele>
        <time>2020-05-31T15:31:44Z</time>
      </trkpt>
      <trkpt lat="46.23661" lon="-0.83443">
        <ele>39.9</ele>
        <time>2020-05-31T15:31:45Z</time>
      </trkpt>
      <trkpt lat="46.23658" lon="-0.83444">
        <ele>39.8</ele>
        <time>2020-05-31T15:31:46Z</time>
      </trkpt>
      <trkpt lat="46.23655" lon="-0.83446">
        <ele>39.8</ele>
        <time>2020-05-31T15:31:47Z</time>
      </trkpt>
      <trkpt lat="46.23651" lon="-0.83447">
        <ele>39.8</ele>
        <time>2020-05-31T15:31:48Z</time>
      </trkpt>
      <trkpt lat="46.23648" lon="-0.83448">
        <ele>39.8</ele>
        <time>2020-05-31T15:31:49Z</time>
      </trkpt>
      <trkpt lat="46.23644" lon="-0.8345">
        <ele>39.8</ele>
        <time>2020-05-31T15:31:50Z</time>
      </trkpt>
      <trkpt lat="46.23641" lon="-0.83452">
        <ele>39.8</ele>
        <time>2020-05-31T15:31:51Z</time>
      </trkpt>
      <trkpt lat="46.23638" lon="-0.83455">
        <ele>39.8</ele>
        <time>2020-05-31T15:31:52Z</time>
      </trkpt>
      <trkpt lat="46.23635" lon="-0.83458">
        <ele>39.8</ele>
        <time>2020-05-31T15:31:53Z</time>
      </trkpt>
      <trkpt lat="46.23632" lon="-0.8346">
        <ele>39.8</ele>
        <time>2020-05-31T15:31:54Z</time>
      </trkpt>
      <trkpt lat="46.23629" lon="-0.83462">
        <ele>39.8</ele>
        <time>2020-05-31T15:31:55Z</time>
      </trkpt>
      <trkpt lat="46.23626" lon="-0.83465">
        <ele>39.8</ele>
        <time>2020-05-31T15:31:56Z</time>
      </trkpt>
      <trkpt lat="46.23623" lon="-0.83468">
        <ele>39.8</ele>
        <time>2020-05-31T15:31:57Z</time>
      </trkpt>
      <trkpt lat="46.2362" lon="-0.83469">
        <ele>39.8</ele>
        <time>2020-05-31T15:31:58Z</time>
      </trkpt>
      <trkpt lat="46.23617" lon="-0.8347">
        <ele>39.8</ele>
        <time>2020-05-31T15:31:59Z</time>
      </trkpt>
      <trkpt lat="46.23614" lon="-0.83471">
        <ele>39.8</ele>
        <time>2020-05-31T15:32:00Z</time>
      </trkpt>
      <trkpt lat="46.23611" lon="-0.83473">
        <ele>39.8</ele>
        <time>2020-05-31T15:32:01Z</time>
      </trkpt>
      <trkpt lat="46.23608" lon="-0.83475">
        <ele>39.8</ele>
        <time>2020-05-31T15:32:02Z</time>
      </trkpt>
      <trkpt lat="46.23605" lon="-0.83477">
        <ele>39.8</ele>
        <time>2020-05-31T15:32:03Z</time>
      </trkpt>
      <trkpt lat="46.23602" lon="-0.83478">
        <ele>39.8</ele>
        <time>2020-05-31T15:32:04Z</time>
      </trkpt>
      <trkpt lat="46.23599" lon="-0.8348">
        <ele>39.8</ele>
        <time>2020-05-31T15:32:05Z</time>
      </trkpt>
      <trkpt lat="46.23596" lon="-0.83482">
        <ele>39.7</ele>
        <time>2020-05-31T15:32:06Z</time>
      </trkpt>
      <trkpt lat="46.23593" lon="-0.83485">
        <ele>39.7</ele>
        <time>2020-05-31T15:32:07Z</time>
      </trkpt>
      <trkpt lat="46.2359" lon="-0.83486">
        <ele>39.7</ele>
        <time>2020-05-31T15:32:08Z</time>
      </trkpt>
      <trkpt lat="46.23587" lon="-0.83488">
        <ele>39.7</ele>
        <time>2020-05-31T15:32:09Z</time>
      </trkpt>
      <trkpt lat="46.23584" lon="-0.83489">
        <ele>39.7</ele>
        <time>2020-05-31T15:32:10Z</time>
      </trkpt>
      <trkpt lat="46.23581" lon="-0.83492">
        <ele>39.7</ele>
        <time>2020-05-31T15:32:11Z</time>
      </trkpt>
      <trkpt lat="46.23578" lon="-0.83494">
        <ele>39.7</ele>
        <time>2020-05-31T15:32:12Z</time>
      </trkpt>
      <trkpt lat="46.23575" lon="-0.83496">
        <ele>39.6</ele>
        <time>2020-05-31T15:32:13Z</time>
      </trkpt>
      <trkpt lat="46.23572" lon="-0.83497">
        <ele>39.6</ele>
        <time>2020-05-31T15:32:14Z</time>
      </trkpt>
      <trkpt lat="46.23569" lon="-0.83498">
        <ele>39.6</ele>
        <time>2020-05-31T15:32:15Z</time>
      </trkpt>
      <trkpt lat="46.23566" lon="-0.83499">
        <ele>39.6</ele>
        <time>2020-05-31T15:32:16Z</time>
      </trkpt>
      <trkpt lat="46.23563" lon="-0.835">
        <ele>39.6</ele>
        <time>2020-05-31T15:32:17Z</time>
      </trkpt>
      <trkpt lat="46.2356" lon="-0.83502">
        <ele>39.6</ele>
        <time>2020-05-31T15:32:18Z</time>
      </trkpt>
      <trkpt lat="46.23557" lon="-0.83504">
        <ele>39.5</ele>
        <time>2020-05-31T15:32:19Z</time>
      </trkpt>
      <trkpt lat="46.23554" lon="-0.83506">
        <ele>39.5</ele>
        <time>2020-05-31T15:32:20Z</time>
      </trkpt>
      <trkpt lat="46.23551" lon="-0.83508">
        <ele>39.5</ele>
        <time>2020-05-31T15:32:21Z</time>
      </trkpt>
      <trkpt lat="46.23548" lon="-0.8351">
        <ele>39.5</ele>
        <time>2020-05-31T15:32:22Z</time>
      </trkpt>
      <trkpt lat="46.23545" lon="-0.83512">
        <ele>39.5</ele>
        <time>2020-05-31T15:32:23Z</time>
      </trkpt>
      <trkpt lat="46.23543" lon="-0.83516">
        <ele>39.5</ele>
        <time>2020-05-31T15:32:24Z</time>
      </trkpt>
      <trkpt lat="46.2354" lon="-0.83518">
        <ele>39.5</ele>
        <time>2020-05-31T15:32:25Z</time>
      </trkpt>
      <trkpt lat="46.23537" lon="-0.83519">
        <ele>39.4</ele>
        <time>2020-05-31T15:32:26Z</time>
      </trkpt>
      <trkpt lat="46.23534" lon="-0.83523">
        <ele>39.4</ele>
        <time>2020-05-31T15:32:27Z</time>
      </trkpt>
      <trkpt lat="46.23532" lon="-0.83525">
        <ele>39.4</ele>
        <time>2020-05-31T15:32:28Z</time>
      </trkpt>
      <trkpt lat="46.23529" lon="-0.83528">
        <ele>39.4</ele>
        <time>2020-05-31T15:32:29Z</time>
      </trkpt>
      <trkpt lat="46.23526" lon="-0.83531">
        <ele>39.4</ele>
        <time>2020-05-31T15:32:30Z</time>
      </trkpt>
      <trkpt lat="46.23523" lon="-0.83534">
        <ele>39.4</ele>
        <time>2020-05-31T15:32:31Z</time>
      </trkpt>
      <trkpt lat="46.23521" lon="-0.83537">
        <ele>39.4</ele>
        <time>2020-05-31T15:32:32Z</time>
      </trkpt>
      <trkpt lat="46.23517" lon="-0.83539">
        <ele>39.4</ele>
        <time>2020-05-31T15:32:33Z</time>
      </trkpt>
      <trkpt lat="46.23514" lon="-0.83542">
        <ele>39.3</ele>
        <time>2020-05-31T15:32:34Z</time>
      </trkpt>
      <trkpt lat="46.23511" lon="-0.83546">
        <ele>39.3</ele>
        <time>2020-05-31T15:32:35Z</time>
      </trkpt>
      <trkpt lat="46.23509" lon="-0.83549">
        <ele>39.3</ele>
        <time>2020-05-31T15:32:36Z</time>
      </trkpt>
      <trkpt lat="46.23506" lon="-0.83553">
        <ele>39.3</ele>
        <time>2020-05-31T15:32:37Z</time>
      </trkpt>
      <trkpt lat="46.23503" lon="-0.83556">
        <ele>39.3</ele>
        <time>2020-05-31T15:32:38Z</time>
      </trkpt>
      <trkpt lat="46.235" lon="-0.8356">
        <ele>39.3</ele>
        <time>2020-05-31T15:32:39Z</time>
      </trkpt>
      <trkpt lat="46.23497" lon="-0.83562">
        <ele>39.2</ele>
        <time>2020-05-31T15:32:40Z</time>
      </trkpt>
      <trkpt lat="46.23494" lon="-0.83565">
        <ele>39.2</ele>
        <time>2020-05-31T15:32:41Z</time>
      </trkpt>
      <trkpt lat="46.23492" lon="-0.83569">
        <ele>39.2</ele>
        <time>2020-05-31T15:32:42Z</time>
      </trkpt>
      <trkpt lat="46.23489" lon="-0.83573">
        <ele>39.2</ele>
        <time>2020-05-31T15:32:43Z</time>
      </trkpt>
      <trkpt lat="46.23487" lon="-0.83577">
        <ele>39.1</ele>
        <time>2020-05-31T15:32:44Z</time>
      </trkpt>
      <trkpt lat="46.23484" lon="-0.83581">
        <ele>39.1</ele>
        <time>2020-05-31T15:32:45Z</time>
      </trkpt>
      <trkpt lat="46.23482" lon="-0.83584">
        <ele>39.1</ele>
        <time>2020-05-31T15:32:46Z</time>
      </trkpt>
      <trkpt lat="46.23479" lon="-0.83588">
        <ele>39.1</ele>
        <time>2020-05-31T15:32:47Z</time>
      </trkpt>
      <trkpt lat="46.23477" lon="-0.83593">
        <ele>39</ele>
        <time>2020-05-31T15:32:48Z</time>
      </trkpt>
      <trkpt lat="46.23476" lon="-0.83598">
        <ele>39</ele>
        <time>2020-05-31T15:32:49Z</time>
      </trkpt>
      <trkpt lat="46.23474" lon="-0.83603">
        <ele>39</ele>
        <time>2020-05-31T15:32:50Z</time>
      </trkpt>
      <trkpt lat="46.23472" lon="-0.83608">
        <ele>39</ele>
        <time>2020-05-31T15:32:51Z</time>
      </trkpt>
      <trkpt lat="46.2347" lon="-0.83613">
        <ele>38.9</ele>
        <time>2020-05-31T15:32:52Z</time>
      </trkpt>
      <trkpt lat="46.23468" lon="-0.83618">
        <ele>38.9</ele>
        <time>2020-05-31T15:32:53Z</time>
      </trkpt>
      <trkpt lat="46.23468" lon="-0.83623">
        <ele>38.8</ele>
        <time>2020-05-31T15:32:54Z</time>
      </trkpt>
      <trkpt lat="46.23467" lon="-0.8363">
        <ele>38.8</ele>
        <time>2020-05-31T15:32:55Z</time>
      </trkpt>
      <trkpt lat="46.23465" lon="-0.83636">
        <ele>38.7</ele>
        <time>2020-05-31T15:32:56Z</time>
      </trkpt>
      <trkpt lat="46.23464" lon="-0.83642">
        <ele>38.7</ele>
        <time>2020-05-31T15:32:57Z</time>
      </trkpt>
      <trkpt lat="46.23463" lon="-0.83648">
        <ele>38.6</ele>
        <time>2020-05-31T15:32:58Z</time>
      </trkpt>
      <trkpt lat="46.23463" lon="-0.83655">
        <ele>38.5</ele>
        <time>2020-05-31T15:32:59Z</time>
      </trkpt>
      <trkpt lat="46.23462" lon="-0.83662">
        <ele>38.4</ele>
        <time>2020-05-31T15:33:00Z</time>
      </trkpt>
      <trkpt lat="46.23461" lon="-0.83668">
        <ele>38.3</ele>
        <time>2020-05-31T15:33:01Z</time>
      </trkpt>
      <trkpt lat="46.23461" lon="-0.83675">
        <ele>38.3</ele>
        <time>2020-05-31T15:33:02Z</time>
      </trkpt>
      <trkpt lat="46.23461" lon="-0.83682">
        <ele>38.2</ele>
        <time>2020-05-31T15:33:03Z</time>
      </trkpt>
      <trkpt lat="46.2346" lon="-0.83688">
        <ele>38.1</ele>
        <time>2020-05-31T15:33:04Z</time>
      </trkpt>
      <trkpt lat="46.23459" lon="-0.83695">
        <ele>38</ele>
        <time>2020-05-31T15:33:05Z</time>
      </trkpt>
      <trkpt lat="46.23458" lon="-0.83702">
        <ele>37.9</ele>
        <time>2020-05-31T15:33:06Z</time>
      </trkpt>
      <trkpt lat="46.23458" lon="-0.83709">
        <ele>37.8</ele>
        <time>2020-05-31T15:33:07Z</time>
      </trkpt>
      <trkpt lat="46.23455" lon="-0.83715">
        <ele>37.7</ele>
        <time>2020-05-31T15:33:08Z</time>
      </trkpt>
      <trkpt lat="46.23454" lon="-0.83721">
        <ele>37.6</ele>
        <time>2020-05-31T15:33:09Z</time>
      </trkpt>
      <trkpt lat="46.23451" lon="-0.83728">
        <ele>37.5</ele>
        <time>2020-05-31T15:33:10Z</time>
      </trkpt>
      <trkpt lat="46.2345" lon="-0.83735">
        <ele>37.3</ele>
        <time>2020-05-31T15:33:11Z</time>
      </trkpt>
      <trkpt lat="46.23448" lon="-0.83742">
        <ele>37.2</ele>
        <time>2020-05-31T15:33:12Z</time>
      </trkpt>
      <trkpt lat="46.23446" lon="-0.83749">
        <ele>37.1</ele>
        <time>2020-05-31T15:33:13Z</time>
      </trkpt>
      <trkpt lat="46.23445" lon="-0.83757">
        <ele>37</ele>
        <time>2020-05-31T15:33:14Z</time>
      </trkpt>
      <trkpt lat="46.23445" lon="-0.83765">
        <ele>36.9</ele>
        <time>2020-05-31T15:33:15Z</time>
      </trkpt>
      <trkpt lat="46.23444" lon="-0.83773">
        <ele>36.8</ele>
        <time>2020-05-31T15:33:16Z</time>
      </trkpt>
      <trkpt lat="46.23444" lon="-0.83781">
        <ele>36.7</ele>
        <time>2020-05-31T15:33:17Z</time>
      </trkpt>
      <trkpt lat="46.23443" lon="-0.83788">
        <ele>36.6</ele>
        <time>2020-05-31T15:33:18Z</time>
      </trkpt>
      <trkpt lat="46.23443" lon="-0.83797">
        <ele>36.5</ele>
        <time>2020-05-31T15:33:19Z</time>
      </trkpt>
      <trkpt lat="46.23442" lon="-0.83805">
        <ele>36.4</ele>
        <time>2020-05-31T15:33:20Z</time>
      </trkpt>
      <trkpt lat="46.2344" lon="-0.83813">
        <ele>36.3</ele>
        <time>2020-05-31T15:33:21Z</time>
      </trkpt>
      <trkpt lat="46.23439" lon="-0.83821">
        <ele>36.2</ele>
        <time>2020-05-31T15:33:22Z</time>
      </trkpt>
      <trkpt lat="46.23439" lon="-0.83829">
        <ele>36</ele>
        <time>2020-05-31T15:33:23Z</time>
      </trkpt>
      <trkpt lat="46.23438" lon="-0.83837">
        <ele>35.9</ele>
        <time>2020-05-31T15:33:24Z</time>
      </trkpt>
      <trkpt lat="46.23437" lon="-0.83846">
        <ele>35.8</ele>
        <time>2020-05-31T15:33:25Z</time>
      </trkpt>
      <trkpt lat="46.23437" lon="-0.83855">
        <ele>35.7</ele>
        <time>2020-05-31T15:33:26Z</time>
      </trkpt>
      <trkpt lat="46.23436" lon="-0.83863">
        <ele>35.5</ele>
        <time>2020-05-31T15:33:27Z</time>
      </trkpt>
      <trkpt lat="46.23435" lon="-0.83872">
        <ele>35.3</ele>
        <time>2020-05-31T15:33:28Z</time>
      </trkpt>
      <trkpt lat="46.23434" lon="-0.8388">
        <ele>35.2</ele>
        <time>2020-05-31T15:33:29Z</time>
      </trkpt>
      <trkpt lat="46.23433" lon="-0.83889">
        <ele>35</ele>
        <time>2020-05-31T15:33:30Z</time>
      </trkpt>
      <trkpt lat="46.23432" lon="-0.83898">
        <ele>34.9</ele>
        <time>2020-05-31T15:33:31Z</time>
      </trkpt>
      <trkpt lat="46.2343" lon="-0.83907">
        <ele>34.7</ele>
        <time>2020-05-31T15:33:32Z</time>
      </trkpt>
      <trkpt lat="46.23429" lon="-0.83916">
        <ele>34.6</ele>
        <time>2020-05-31T15:33:33Z</time>
      </trkpt>
      <trkpt lat="46.23427" lon="-0.83925">
        <ele>34.4</ele>
        <time>2020-05-31T15:33:34Z</time>
      </trkpt>
      <trkpt lat="46.23426" lon="-0.83935">
        <ele>34.2</ele>
        <time>2020-05-31T15:33:35Z</time>
      </trkpt>
      <trkpt lat="46.23425" lon="-0.83944">
        <ele>34.1</ele>
        <time>2020-05-31T15:33:36Z</time>
      </trkpt>
      <trkpt lat="46.23423" lon="-0.83954">
        <ele>33.9</ele>
        <time>2020-05-31T15:33:37Z</time>
      </trkpt>
      <trkpt lat="46.23421" lon="-0.83963">
        <ele>33.7</ele>
        <time>2020-05-31T15:33:38Z</time>
      </trkpt>
      <trkpt lat="46.2342" lon="-0.83973">
        <ele>33.6</ele>
        <time>2020-05-31T15:33:39Z</time>
      </trkpt>
      <trkpt lat="46.23419" lon="-0.83982">
        <ele>33.4</ele>
        <time>2020-05-31T15:33:40Z</time>
      </trkpt>
      <trkpt lat="46.23419" lon="-0.83993">
        <ele>33.3</ele>
        <time>2020-05-31T15:33:41Z</time>
      </trkpt>
      <trkpt lat="46.23417" lon="-0.84002">
        <ele>33.2</ele>
        <time>2020-05-31T15:33:42Z</time>
      </trkpt>
      <trkpt lat="46.23416" lon="-0.84012">
        <ele>33</ele>
        <time>2020-05-31T15:33:43Z</time>
      </trkpt>
      <trkpt lat="46.23415" lon="-0.84022">
        <ele>32.9</ele>
        <time>2020-05-31T15:33:44Z</time>
      </trkpt>
      <trkpt lat="46.23413" lon="-0.84032">
        <ele>32.7</ele>
        <time>2020-05-31T15:33:45Z</time>
      </trkpt>
      <trkpt lat="46.23412" lon="-0.84043">
        <ele>32.6</ele>
        <time>2020-05-31T15:33:46Z</time>
      </trkpt>
      <trkpt lat="46.2341" lon="-0.84053">
        <ele>32.4</ele>
        <time>2020-05-31T15:33:47Z</time>
      </trkpt>
      <trkpt lat="46.23408" lon="-0.84064">
        <ele>32.3</ele>
        <time>2020-05-31T15:33:48Z</time>
      </trkpt>
      <trkpt lat="46.23407" lon="-0.84074">
        <ele>32.1</ele>
        <time>2020-05-31T15:33:49Z</time>
      </trkpt>
      <trkpt lat="46.23405" lon="-0.84085">
        <ele>32.1</ele>
        <time>2020-05-31T15:33:50Z</time>
      </trkpt>
      <trkpt lat="46.23403" lon="-0.84096">
        <ele>32.1</ele>
        <time>2020-05-31T15:33:51Z</time>
      </trkpt>
      <trkpt lat="46.23401" lon="-0.84106">
        <ele>32</ele>
        <time>2020-05-31T15:33:52Z</time>
      </trkpt>
      <trkpt lat="46.23399" lon="-0.84117">
        <ele>31.9</ele>
        <time>2020-05-31T15:33:53Z</time>
      </trkpt>
      <trkpt lat="46.23396" lon="-0.84127">
        <ele>31.8</ele>
        <time>2020-05-31T15:33:54Z</time>
      </trkpt>
      <trkpt lat="46.23394" lon="-0.84138">
        <ele>31.7</ele>
        <time>2020-05-31T15:33:55Z</time>
      </trkpt>
      <trkpt lat="46.23391" lon="-0.84148">
        <ele>31.6</ele>
        <time>2020-05-31T15:33:56Z</time>
      </trkpt>
      <trkpt lat="46.23389" lon="-0.84159">
        <ele>31.5</ele>
        <time>2020-05-31T15:33:57Z</time>
      </trkpt>
      <trkpt lat="46.23387" lon="-0.8417">
        <ele>31.4</ele>
        <time>2020-05-31T15:33:58Z</time>
      </trkpt>
      <trkpt lat="46.23385" lon="-0.84181">
        <ele>31.4</ele>
        <time>2020-05-31T15:33:59Z</time>
      </trkpt>
      <trkpt lat="46.23384" lon="-0.84192">
        <ele>31.3</ele>
        <time>2020-05-31T15:34:00Z</time>
      </trkpt>
      <trkpt lat="46.23383" lon="-0.84203">
        <ele>31.3</ele>
        <time>2020-05-31T15:34:01Z</time>
      </trkpt>
      <trkpt lat="46.23383" lon="-0.84214">
        <ele>31.3</ele>
        <time>2020-05-31T15:34:02Z</time>
      </trkpt>
      <trkpt lat="46.23383" lon="-0.84225">
        <ele>31.3</ele>
        <time>2020-05-31T15:34:03Z</time>
      </trkpt>
      <trkpt lat="46.23383" lon="-0.84236">
        <ele>31.3</ele>
        <time>2020-05-31T15:34:04Z</time>
      </trkpt>
      <trkpt lat="46.23382" lon="-0.84247">
        <ele>31.4</ele>
        <time>2020-05-31T15:34:05Z</time>
      </trkpt>
      <trkpt lat="46.23382" lon="-0.84258">
        <ele>31.4</ele>
        <time>2020-05-31T15:34:06Z</time>
      </trkpt>
      <trkpt lat="46.23382" lon="-0.84269">
        <ele>31.4</ele>
        <time>2020-05-31T15:34:07Z</time>
      </trkpt>
      <trkpt lat="46.23381" lon="-0.84279">
        <ele>31.5</ele>
        <time>2020-05-31T15:34:08Z</time>
      </trkpt>
      <trkpt lat="46.23381" lon="-0.84289">
        <ele>31.5</ele>
        <time>2020-05-31T15:34:09Z</time>
      </trkpt>
      <trkpt lat="46.23381" lon="-0.84299">
        <ele>31.6</ele>
        <time>2020-05-31T15:34:10Z</time>
      </trkpt>
      <trkpt lat="46.23381" lon="-0.84309">
        <ele>31.6</ele>
        <time>2020-05-31T15:34:11Z</time>
      </trkpt>
      <trkpt lat="46.23382" lon="-0.8432">
        <ele>31.7</ele>
        <time>2020-05-31T15:34:12Z</time>
      </trkpt>
      <trkpt lat="46.23381" lon="-0.8433">
        <ele>31.7</ele>
        <time>2020-05-31T15:34:13Z</time>
      </trkpt>
      <trkpt lat="46.23381" lon="-0.8434">
        <ele>31.7</ele>
        <time>2020-05-31T15:34:14Z</time>
      </trkpt>
      <trkpt lat="46.23381" lon="-0.84349">
        <ele>31.8</ele>
        <time>2020-05-31T15:34:15Z</time>
      </trkpt>
      <trkpt lat="46.2338" lon="-0.84359">
        <ele>31.8</ele>
        <time>2020-05-31T15:34:16Z</time>
      </trkpt>
      <trkpt lat="46.2338" lon="-0.84368">
        <ele>31.8</ele>
        <time>2020-05-31T15:34:17Z</time>
      </trkpt>
      <trkpt lat="46.2338" lon="-0.84378">
        <ele>31.9</ele>
        <time>2020-05-31T15:34:18Z</time>
      </trkpt>
      <trkpt lat="46.23379" lon="-0.84387">
        <ele>31.9</ele>
        <time>2020-05-31T15:34:19Z</time>
      </trkpt>
      <trkpt lat="46.23379" lon="-0.84395">
        <ele>31.9</ele>
        <time>2020-05-31T15:34:20Z</time>
      </trkpt>
      <trkpt lat="46.23379" lon="-0.84404">
        <ele>31.9</ele>
        <time>2020-05-31T15:34:21Z</time>
      </trkpt>
      <trkpt lat="46.23378" lon="-0.84413">
        <ele>32</ele>
        <time>2020-05-31T15:34:22Z</time>
      </trkpt>
      <trkpt lat="46.23377" lon="-0.84422">
        <ele>32</ele>
        <time>2020-05-31T15:34:23Z</time>
      </trkpt>
      <trkpt lat="46.23376" lon="-0.84431">
        <ele>32</ele>
        <time>2020-05-31T15:34:24Z</time>
      </trkpt>
      <trkpt lat="46.23375" lon="-0.84441">
        <ele>31.9</ele>
        <time>2020-05-31T15:34:25Z</time>
      </trkpt>
      <trkpt lat="46.23375" lon="-0.8445">
        <ele>31.9</ele>
        <time>2020-05-31T15:34:26Z</time>
      </trkpt>
      <trkpt lat="46.23373" lon="-0.8446">
        <ele>31.9</ele>
        <time>2020-05-31T15:34:27Z</time>
      </trkpt>
      <trkpt lat="46.23372" lon="-0.8447">
        <ele>31.9</ele>
        <time>2020-05-31T15:34:28Z</time>
      </trkpt>
      <trkpt lat="46.23367" lon="-0.84478">
        <ele>31.9</ele>
        <time>2020-05-31T15:34:29Z</time>
      </trkpt>
      <trkpt lat="46.23366" lon="-0.84487">
        <ele>31.9</ele>
        <time>2020-05-31T15:34:30Z</time>
      </trkpt>
      <trkpt lat="46.23365" lon="-0.84496">
        <ele>32</ele>
        <time>2020-05-31T15:34:31Z</time>
      </trkpt>
      <trkpt lat="46.23364" lon="-0.84505">
        <ele>32</ele>
        <time>2020-05-31T15:34:32Z</time>
      </trkpt>
      <trkpt lat="46.23364" lon="-0.84515">
        <ele>32.1</ele>
        <time>2020-05-31T15:34:33Z</time>
      </trkpt>
      <trkpt lat="46.23364" lon="-0.84525">
        <ele>32.1</ele>
        <time>2020-05-31T15:34:34Z</time>
      </trkpt>
      <trkpt lat="46.23363" lon="-0.84535">
        <ele>32.1</ele>
        <time>2020-05-31T15:34:35Z</time>
      </trkpt>
      <trkpt lat="46.23362" lon="-0.84545">
        <ele>32.1</ele>
        <time>2020-05-31T15:34:36Z</time>
      </trkpt>
      <trkpt lat="46.23361" lon="-0.84555">
        <ele>32.1</ele>
        <time>2020-05-31T15:34:37Z</time>
      </trkpt>
      <trkpt lat="46.23361" lon="-0.84565">
        <ele>32.1</ele>
        <time>2020-05-31T15:34:38Z</time>
      </trkpt>
      <trkpt lat="46.2336" lon="-0.84575">
        <ele>32.2</ele>
        <time>2020-05-31T15:34:39Z</time>
      </trkpt>
      <trkpt lat="46.2336" lon="-0.84585">
        <ele>32.2</ele>
        <time>2020-05-31T15:34:40Z</time>
      </trkpt>
      <trkpt lat="46.23359" lon="-0.84595">
        <ele>32.2</ele>
        <time>2020-05-31T15:34:41Z</time>
      </trkpt>
      <trkpt lat="46.23358" lon="-0.84605">
        <ele>32.2</ele>
        <time>2020-05-31T15:34:42Z</time>
      </trkpt>
      <trkpt lat="46.23358" lon="-0.84615">
        <ele>32.2</ele>
        <time>2020-05-31T15:34:43Z</time>
      </trkpt>
      <trkpt lat="46.23357" lon="-0.84625">
        <ele>32.3</ele>
        <time>2020-05-31T15:34:44Z</time>
      </trkpt>
      <trkpt lat="46.23356" lon="-0.84635">
        <ele>32.3</ele>
        <time>2020-05-31T15:34:45Z</time>
      </trkpt>
      <trkpt lat="46.23356" lon="-0.84644">
        <ele>32.4</ele>
        <time>2020-05-31T15:34:46Z</time>
      </trkpt>
      <trkpt lat="46.23356" lon="-0.84652">
        <ele>32.4</ele>
        <time>2020-05-31T15:34:47Z</time>
      </trkpt>
      <trkpt lat="46.23355" lon="-0.84661">
        <ele>32.5</ele>
        <time>2020-05-31T15:34:48Z</time>
      </trkpt>
      <trkpt lat="46.23355" lon="-0.8467">
        <ele>32.6</ele>
        <time>2020-05-31T15:34:49Z</time>
      </trkpt>
      <trkpt lat="46.23354" lon="-0.84678">
        <ele>32.6</ele>
        <time>2020-05-31T15:34:50Z</time>
      </trkpt>
      <trkpt lat="46.23354" lon="-0.84687">
        <ele>32.7</ele>
        <time>2020-05-31T15:34:51Z</time>
      </trkpt>
      <trkpt lat="46.23353" lon="-0.84694">
        <ele>32.8</ele>
        <time>2020-05-31T15:34:52Z</time>
      </trkpt>
      <trkpt lat="46.23353" lon="-0.84702">
        <ele>32.8</ele>
        <time>2020-05-31T15:34:53Z</time>
      </trkpt>
      <trkpt lat="46.23352" lon="-0.84709">
        <ele>32.9</ele>
        <time>2020-05-31T15:34:54Z</time>
      </trkpt>
      <trkpt lat="46.23352" lon="-0.84716">
        <ele>32.9</ele>
        <time>2020-05-31T15:34:55Z</time>
      </trkpt>
      <trkpt lat="46.23352" lon="-0.84724">
        <ele>33</ele>
        <time>2020-05-31T15:34:56Z</time>
      </trkpt>
      <trkpt lat="46.23351" lon="-0.84731">
        <ele>33</ele>
        <time>2020-05-31T15:34:57Z</time>
      </trkpt>
      <trkpt lat="46.23351" lon="-0.84738">
        <ele>33.1</ele>
        <time>2020-05-31T15:34:58Z</time>
      </trkpt>
      <trkpt lat="46.2335" lon="-0.84746">
        <ele>33.1</ele>
        <time>2020-05-31T15:34:59Z</time>
      </trkpt>
      <trkpt lat="46.2335" lon="-0.84754">
        <ele>33.1</ele>
        <time>2020-05-31T15:35:00Z</time>
      </trkpt>
      <trkpt lat="46.23349" lon="-0.84762">
        <ele>33.2</ele>
        <time>2020-05-31T15:35:01Z</time>
      </trkpt>
      <trkpt lat="46.23349" lon="-0.84771">
        <ele>33.2</ele>
        <time>2020-05-31T15:35:02Z</time>
      </trkpt>
      <trkpt lat="46.23348" lon="-0.84779">
        <ele>33.3</ele>
        <time>2020-05-31T15:35:03Z</time>
      </trkpt>
      <trkpt lat="46.23348" lon="-0.84787">
        <ele>33.3</ele>
        <time>2020-05-31T15:35:04Z</time>
      </trkpt>
      <trkpt lat="46.23347" lon="-0.84795">
        <ele>33.4</ele>
        <time>2020-05-31T15:35:05Z</time>
      </trkpt>
      <trkpt lat="46.23346" lon="-0.84803">
        <ele>33.5</ele>
        <time>2020-05-31T15:35:06Z</time>
      </trkpt>
      <trkpt lat="46.23346" lon="-0.84811">
        <ele>33.6</ele>
        <time>2020-05-31T15:35:07Z</time>
      </trkpt>
      <trkpt lat="46.23346" lon="-0.84819">
        <ele>33.6</ele>
        <time>2020-05-31T15:35:08Z</time>
      </trkpt>
      <trkpt lat="46.23346" lon="-0.84826">
        <ele>33.6</ele>
        <time>2020-05-31T15:35:09Z</time>
      </trkpt>
      <trkpt lat="46.23345" lon="-0.84833">
        <ele>33.7</ele>
        <time>2020-05-31T15:35:10Z</time>
      </trkpt>
      <trkpt lat="46.23345" lon="-0.8484">
        <ele>33.7</ele>
        <time>2020-05-31T15:35:11Z</time>
      </trkpt>
      <trkpt lat="46.23344" lon="-0.84848">
        <ele>33.7</ele>
        <time>2020-05-31T15:35:12Z</time>
      </trkpt>
      <trkpt lat="46.23344" lon="-0.84855">
        <ele>33.7</ele>
        <time>2020-05-31T15:35:13Z</time>
      </trkpt>
      <trkpt lat="46.23343" lon="-0.84862">
        <ele>33.7</ele>
        <time>2020-05-31T15:35:14Z</time>
      </trkpt>
      <trkpt lat="46.23343" lon="-0.8487">
        <ele>33.8</ele>
        <time>2020-05-31T15:35:15Z</time>
      </trkpt>
      <trkpt lat="46.23342" lon="-0.84878">
        <ele>33.8</ele>
        <time>2020-05-31T15:35:16Z</time>
      </trkpt>
      <trkpt lat="46.23342" lon="-0.84885">
        <ele>33.8</ele>
        <time>2020-05-31T15:35:17Z</time>
      </trkpt>
      <trkpt lat="46.23342" lon="-0.84893">
        <ele>33.8</ele>
        <time>2020-05-31T15:35:18Z</time>
      </trkpt>
      <trkpt lat="46.23342" lon="-0.849">
        <ele>33.8</ele>
        <time>2020-05-31T15:35:19Z</time>
      </trkpt>
      <trkpt lat="46.23342" lon="-0.84907">
        <ele>33.8</ele>
        <time>2020-05-31T15:35:20Z</time>
      </trkpt>
      <trkpt lat="46.23341" lon="-0.84914">
        <ele>33.9</ele>
        <time>2020-05-31T15:35:21Z</time>
      </trkpt>
      <trkpt lat="46.23341" lon="-0.84921">
        <ele>33.9</ele>
        <time>2020-05-31T15:35:22Z</time>
      </trkpt>
      <trkpt lat="46.2334" lon="-0.84928">
        <ele>33.9</ele>
        <time>2020-05-31T15:35:23Z</time>
      </trkpt>
      <trkpt lat="46.23339" lon="-0.84934">
        <ele>34</ele>
        <time>2020-05-31T15:35:24Z</time>
      </trkpt>
      <trkpt lat="46.23339" lon="-0.84941">
        <ele>34.1</ele>
        <time>2020-05-31T15:35:25Z</time>
      </trkpt>
      <trkpt lat="46.2334" lon="-0.84948">
        <ele>34.2</ele>
        <time>2020-05-31T15:35:26Z</time>
      </trkpt>
      <trkpt lat="46.23339" lon="-0.84955">
        <ele>34.3</ele>
        <time>2020-05-31T15:35:27Z</time>
      </trkpt>
      <trkpt lat="46.23339" lon="-0.84963">
        <ele>34.4</ele>
        <time>2020-05-31T15:35:28Z</time>
      </trkpt>
      <trkpt lat="46.23339" lon="-0.84971">
        <ele>34.4</ele>
        <time>2020-05-31T15:35:29Z</time>
      </trkpt>
      <trkpt lat="46.23338" lon="-0.84979">
        <ele>34.5</ele>
        <time>2020-05-31T15:35:30Z</time>
      </trkpt>
      <trkpt lat="46.23337" lon="-0.84987">
        <ele>34.6</ele>
        <time>2020-05-31T15:35:31Z</time>
      </trkpt>
      <trkpt lat="46.23337" lon="-0.84996">
        <ele>34.6</ele>
        <time>2020-05-31T15:35:32Z</time>
      </trkpt>
      <trkpt lat="46.23336" lon="-0.85004">
        <ele>34.7</ele>
        <time>2020-05-31T15:35:33Z</time>
      </trkpt>
      <trkpt lat="46.23336" lon="-0.85014">
        <ele>34.7</ele>
        <time>2020-05-31T15:35:34Z</time>
      </trkpt>
      <trkpt lat="46.23336" lon="-0.85023">
        <ele>34.7</ele>
        <time>2020-05-31T15:35:35Z</time>
      </trkpt>
      <trkpt lat="46.23335" lon="-0.85031">
        <ele>34.7</ele>
        <time>2020-05-31T15:35:36Z</time>
      </trkpt>
      <trkpt lat="46.23333" lon="-0.85039">
        <ele>34.7</ele>
        <time>2020-05-31T15:35:37Z</time>
      </trkpt>
      <trkpt lat="46.23333" lon="-0.85048">
        <ele>34.7</ele>
        <time>2020-05-31T15:35:38Z</time>
      </trkpt>
      <trkpt lat="46.23332" lon="-0.85056">
        <ele>34.6</ele>
        <time>2020-05-31T15:35:39Z</time>
      </trkpt>
      <trkpt lat="46.23331" lon="-0.85064">
        <ele>34.6</ele>
        <time>2020-05-31T15:35:40Z</time>
      </trkpt>
      <trkpt lat="46.23331" lon="-0.85071">
        <ele>34.6</ele>
        <time>2020-05-31T15:35:41Z</time>
      </trkpt>
      <trkpt lat="46.2333" lon="-0.85079">
        <ele>34.6</ele>
        <time>2020-05-31T15:35:42Z</time>
      </trkpt>
      <trkpt lat="46.23331" lon="-0.85086">
        <ele>34.6</ele>
        <time>2020-05-31T15:35:43Z</time>
      </trkpt>
      <trkpt lat="46.23331" lon="-0.85093">
        <ele>34.6</ele>
        <time>2020-05-31T15:35:44Z</time>
      </trkpt>
      <trkpt lat="46.23331" lon="-0.851">
        <ele>34.6</ele>
        <time>2020-05-31T15:35:45Z</time>
      </trkpt>
      <trkpt lat="46.23331" lon="-0.85107">
        <ele>34.6</ele>
        <time>2020-05-31T15:35:46Z</time>
      </trkpt>
      <trkpt lat="46.2333" lon="-0.85114">
        <ele>34.6</ele>
        <time>2020-05-31T15:35:47Z</time>
      </trkpt>
      <trkpt lat="46.23329" lon="-0.85121">
        <ele>34.6</ele>
        <time>2020-05-31T15:35:48Z</time>
      </trkpt>
      <trkpt lat="46.23329" lon="-0.85129">
        <ele>34.6</ele>
        <time>2020-05-31T15:35:49Z</time>
      </trkpt>
      <trkpt lat="46.23328" lon="-0.85136">
        <ele>34.6</ele>
        <time>2020-05-31T15:35:50Z</time>
      </trkpt>
      <trkpt lat="46.23327" lon="-0.85144">
        <ele>34.6</ele>
        <time>2020-05-31T15:35:51Z</time>
      </trkpt>
      <trkpt lat="46.23328" lon="-0.85152">
        <ele>34.5</ele>
        <time>2020-05-31T15:35:52Z</time>
      </trkpt>
      <trkpt lat="46.23327" lon="-0.8516">
        <ele>34.5</ele>
        <time>2020-05-31T15:35:53Z</time>
      </trkpt>
      <trkpt lat="46.23327" lon="-0.85168">
        <ele>34.5</ele>
        <time>2020-05-31T15:35:54Z</time>
      </trkpt>
      <trkpt lat="46.23327" lon="-0.85175">
        <ele>34.5</ele>
        <time>2020-05-31T15:35:55Z</time>
      </trkpt>
      <trkpt lat="46.23325" lon="-0.85182">
        <ele>34.5</ele>
        <time>2020-05-31T15:35:56Z</time>
      </trkpt>
      <trkpt lat="46.23324" lon="-0.85189">
        <ele>34.5</ele>
        <time>2020-05-31T15:35:57Z</time>
      </trkpt>
      <trkpt lat="46.23323" lon="-0.85196">
        <ele>34.5</ele>
        <time>2020-05-31T15:35:58Z</time>
      </trkpt>
      <trkpt lat="46.23321" lon="-0.85203">
        <ele>34.5</ele>
        <time>2020-05-31T15:35:59Z</time>
      </trkpt>
      <trkpt lat="46.23319" lon="-0.85212">
        <ele>34.5</ele>
        <time>2020-05-31T15:36:00Z</time>
      </trkpt>
      <trkpt lat="46.23317" lon="-0.85219">
        <ele>34.4</ele>
        <time>2020-05-31T15:36:01Z</time>
      </trkpt>
      <trkpt lat="46.23312" lon="-0.85225">
        <ele>34.3</ele>
        <time>2020-05-31T15:36:02Z</time>
      </trkpt>
      <trkpt lat="46.23308" lon="-0.8523">
        <ele>34.3</ele>
        <time>2020-05-31T15:36:03Z</time>
      </trkpt>
      <trkpt lat="46.23303" lon="-0.85236">
        <ele>34.2</ele>
        <time>2020-05-31T15:36:04Z</time>
      </trkpt>
      <trkpt lat="46.23298" lon="-0.8524">
        <ele>34.1</ele>
        <time>2020-05-31T15:36:05Z</time>
      </trkpt>
      <trkpt lat="46.23293" lon="-0.85245">
        <ele>34</ele>
        <time>2020-05-31T15:36:06Z</time>
      </trkpt>
      <trkpt lat="46.23287" lon="-0.85249">
        <ele>33.9</ele>
        <time>2020-05-31T15:36:07Z</time>
      </trkpt>
      <trkpt lat="46.23282" lon="-0.85253">
        <ele>33.8</ele>
        <time>2020-05-31T15:36:08Z</time>
      </trkpt>
      <trkpt lat="46.23277" lon="-0.85258">
        <ele>33.7</ele>
        <time>2020-05-31T15:36:09Z</time>
      </trkpt>
      <trkpt lat="46.23271" lon="-0.85261">
        <ele>33.6</ele>
        <time>2020-05-31T15:36:10Z</time>
      </trkpt>
      <trkpt lat="46.23266" lon="-0.85265">
        <ele>33.5</ele>
        <time>2020-05-31T15:36:11Z</time>
      </trkpt>
      <trkpt lat="46.23261" lon="-0.85267">
        <ele>33.4</ele>
        <time>2020-05-31T15:36:12Z</time>
      </trkpt>
      <trkpt lat="46.23256" lon="-0.8527">
        <ele>33.3</ele>
        <time>2020-05-31T15:36:13Z</time>
      </trkpt>
      <trkpt lat="46.23251" lon="-0.85274">
        <ele>33.2</ele>
        <time>2020-05-31T15:36:14Z</time>
      </trkpt>
      <trkpt lat="46.23246" lon="-0.85278">
        <ele>33.1</ele>
        <time>2020-05-31T15:36:15Z</time>
      </trkpt>
      <trkpt lat="46.23241" lon="-0.85283">
        <ele>32.9</ele>
        <time>2020-05-31T15:36:16Z</time>
      </trkpt>
      <trkpt lat="46.23236" lon="-0.85287">
        <ele>32.9</ele>
        <time>2020-05-31T15:36:17Z</time>
      </trkpt>
      <trkpt lat="46.2323" lon="-0.85291">
        <ele>32.8</ele>
        <time>2020-05-31T15:36:18Z</time>
      </trkpt>
      <trkpt lat="46.23224" lon="-0.85295">
        <ele>32.7</ele>
        <time>2020-05-31T15:36:19Z</time>
      </trkpt>
      <trkpt lat="46.23218" lon="-0.85299">
        <ele>32.6</ele>
        <time>2020-05-31T15:36:20Z</time>
      </trkpt>
      <trkpt lat="46.23213" lon="-0.85304">
        <ele>32.4</ele>
        <time>2020-05-31T15:36:21Z</time>
      </trkpt>
      <trkpt lat="46.23207" lon="-0.85308">
        <ele>32.3</ele>
        <time>2020-05-31T15:36:22Z</time>
      </trkpt>
      <trkpt lat="46.23201" lon="-0.85312">
        <ele>32.1</ele>
        <time>2020-05-31T15:36:23Z</time>
      </trkpt>
      <trkpt lat="46.23195" lon="-0.85317">
        <ele>32</ele>
        <time>2020-05-31T15:36:24Z</time>
      </trkpt>
      <trkpt lat="46.23189" lon="-0.85321">
        <ele>31.9</ele>
        <time>2020-05-31T15:36:25Z</time>
      </trkpt>
      <trkpt lat="46.23183" lon="-0.85326">
        <ele>31.8</ele>
        <time>2020-05-31T15:36:26Z</time>
      </trkpt>
      <trkpt lat="46.23177" lon="-0.85331">
        <ele>31.7</ele>
        <time>2020-05-31T15:36:27Z</time>
      </trkpt>
      <trkpt lat="46.23171" lon="-0.85336">
        <ele>31.7</ele>
        <time>2020-05-31T15:36:28Z</time>
      </trkpt>
      <trkpt lat="46.23165" lon="-0.85341">
        <ele>31.6</ele>
        <time>2020-05-31T15:36:29Z</time>
      </trkpt>
      <trkpt lat="46.23159" lon="-0.85345">
        <ele>31.5</ele>
        <time>2020-05-31T15:36:30Z</time>
      </trkpt>
      <trkpt lat="46.23153" lon="-0.8535">
        <ele>31.4</ele>
        <time>2020-05-31T15:36:31Z</time>
      </trkpt>
      <trkpt lat="46.23146" lon="-0.85355">
        <ele>31.4</ele>
        <time>2020-05-31T15:36:32Z</time>
      </trkpt>
      <trkpt lat="46.2314" lon="-0.8536">
        <ele>31.3</ele>
        <time>2020-05-31T15:36:33Z</time>
      </trkpt>
      <trkpt lat="46.23135" lon="-0.85365">
        <ele>31.2</ele>
        <time>2020-05-31T15:36:34Z</time>
      </trkpt>
      <trkpt lat="46.23129" lon="-0.85371">
        <ele>31.1</ele>
        <time>2020-05-31T15:36:35Z</time>
      </trkpt>
      <trkpt lat="46.23123" lon="-0.85376">
        <ele>31</ele>
        <time>2020-05-31T15:36:36Z</time>
      </trkpt>
      <trkpt lat="46.23117" lon="-0.85381">
        <ele>31</ele>
        <time>2020-05-31T15:36:37Z</time>
      </trkpt>
      <trkpt lat="46.23111" lon="-0.85386">
        <ele>30.9</ele>
        <time>2020-05-31T15:36:38Z</time>
      </trkpt>
      <trkpt lat="46.23104" lon="-0.8539">
        <ele>30.8</ele>
        <time>2020-05-31T15:36:39Z</time>
      </trkpt>
      <trkpt lat="46.23099" lon="-0.85395">
        <ele>30.8</ele>
        <time>2020-05-31T15:36:40Z</time>
      </trkpt>
      <trkpt lat="46.23093" lon="-0.85399">
        <ele>30.7</ele>
        <time>2020-05-31T15:36:41Z</time>
      </trkpt>
      <trkpt lat="46.23087" lon="-0.85403">
        <ele>30.6</ele>
        <time>2020-05-31T15:36:42Z</time>
      </trkpt>
      <trkpt lat="46.23081" lon="-0.85408">
        <ele>30.6</ele>
        <time>2020-05-31T15:36:43Z</time>
      </trkpt>
      <trkpt lat="46.23075" lon="-0.85412">
        <ele>30.5</ele>
        <time>2020-05-31T15:36:44Z</time>
      </trkpt>
      <trkpt lat="46.23069" lon="-0.85416">
        <ele>30.5</ele>
        <time>2020-05-31T15:36:45Z</time>
      </trkpt>
      <trkpt lat="46.23064" lon="-0.8542">
        <ele>30.4</ele>
        <time>2020-05-31T15:36:46Z</time>
      </trkpt>
      <trkpt lat="46.23058" lon="-0.85424">
        <ele>30.3</ele>
        <time>2020-05-31T15:36:47Z</time>
      </trkpt>
      <trkpt lat="46.23052" lon="-0.85428">
        <ele>30.1</ele>
        <time>2020-05-31T15:36:48Z</time>
      </trkpt>
      <trkpt lat="46.23047" lon="-0.8543">
        <ele>30</ele>
        <time>2020-05-31T15:36:49Z</time>
      </trkpt>
      <trkpt lat="46.23042" lon="-0.85434">
        <ele>29.9</ele>
        <time>2020-05-31T15:36:50Z</time>
      </trkpt>
      <trkpt lat="46.23037" lon="-0.85438">
        <ele>29.9</ele>
        <time>2020-05-31T15:36:51Z</time>
      </trkpt>
      <trkpt lat="46.23032" lon="-0.85441">
        <ele>29.8</ele>
        <time>2020-05-31T15:36:52Z</time>
      </trkpt>
      <trkpt lat="46.23025" lon="-0.85443">
        <ele>29.7</ele>
        <time>2020-05-31T15:36:53Z</time>
      </trkpt>
      <trkpt lat="46.23019" lon="-0.85447">
        <ele>29.6</ele>
        <time>2020-05-31T15:36:54Z</time>
      </trkpt>
      <trkpt lat="46.23013" lon="-0.85448">
        <ele>29.5</ele>
        <time>2020-05-31T15:36:55Z</time>
      </trkpt>
      <trkpt lat="46.23008" lon="-0.8545">
        <ele>29.4</ele>
        <time>2020-05-31T15:36:56Z</time>
      </trkpt>
      <trkpt lat="46.23002" lon="-0.85452">
        <ele>29.3</ele>
        <time>2020-05-31T15:36:57Z</time>
      </trkpt>
      <trkpt lat="46.22997" lon="-0.85454">
        <ele>29.2</ele>
        <time>2020-05-31T15:36:58Z</time>
      </trkpt>
      <trkpt lat="46.22992" lon="-0.85457">
        <ele>29.1</ele>
        <time>2020-05-31T15:36:59Z</time>
      </trkpt>
      <trkpt lat="46.22986" lon="-0.85459">
        <ele>28.9</ele>
        <time>2020-05-31T15:37:00Z</time>
      </trkpt>
      <trkpt lat="46.22981" lon="-0.85463">
        <ele>28.9</ele>
        <time>2020-05-31T15:37:01Z</time>
      </trkpt>
      <trkpt lat="46.22976" lon="-0.85466">
        <ele>28.8</ele>
        <time>2020-05-31T15:37:02Z</time>
      </trkpt>
      <trkpt lat="46.2297" lon="-0.85469">
        <ele>28.8</ele>
        <time>2020-05-31T15:37:03Z</time>
      </trkpt>
      <trkpt lat="46.22964" lon="-0.85472">
        <ele>28.7</ele>
        <time>2020-05-31T15:37:04Z</time>
      </trkpt>
      <trkpt lat="46.22958" lon="-0.85476">
        <ele>28.5</ele>
        <time>2020-05-31T15:37:05Z</time>
      </trkpt>
      <trkpt lat="46.22953" lon="-0.85479">
        <ele>28.4</ele>
        <time>2020-05-31T15:37:06Z</time>
      </trkpt>
      <trkpt lat="46.22946" lon="-0.85482">
        <ele>28.2</ele>
        <time>2020-05-31T15:37:07Z</time>
      </trkpt>
      <trkpt lat="46.2294" lon="-0.85486">
        <ele>28</ele>
        <time>2020-05-31T15:37:08Z</time>
      </trkpt>
      <trkpt lat="46.22935" lon="-0.8549">
        <ele>27.8</ele>
        <time>2020-05-31T15:37:09Z</time>
      </trkpt>
      <trkpt lat="46.22929" lon="-0.85493">
        <ele>27.6</ele>
        <time>2020-05-31T15:37:10Z</time>
      </trkpt>
      <trkpt lat="46.22924" lon="-0.85498">
        <ele>27.4</ele>
        <time>2020-05-31T15:37:11Z</time>
      </trkpt>
      <trkpt lat="46.22919" lon="-0.85501">
        <ele>27.3</ele>
        <time>2020-05-31T15:37:12Z</time>
      </trkpt>
      <trkpt lat="46.22913" lon="-0.85503">
        <ele>27.2</ele>
        <time>2020-05-31T15:37:13Z</time>
      </trkpt>
      <trkpt lat="46.22908" lon="-0.85505">
        <ele>27.1</ele>
        <time>2020-05-31T15:37:14Z</time>
      </trkpt>
      <trkpt lat="46.22904" lon="-0.85507">
        <ele>27</ele>
        <time>2020-05-31T15:37:15Z</time>
      </trkpt>
      <trkpt lat="46.22901" lon="-0.85511">
        <ele>26.9</ele>
        <time>2020-05-31T15:37:16Z</time>
      </trkpt>
      <trkpt lat="46.229" lon="-0.85515">
        <ele>26.8</ele>
        <time>2020-05-31T15:37:17Z</time>
      </trkpt>
      <trkpt lat="46.229" lon="-0.8552">
        <ele>26.7</ele>
        <time>2020-05-31T15:37:18Z</time>
      </trkpt>
      <trkpt lat="46.22901" lon="-0.85526">
        <ele>26.8</ele>
        <time>2020-05-31T15:37:19Z</time>
      </trkpt>
      <trkpt lat="46.22902" lon="-0.85531">
        <ele>26.8</ele>
        <time>2020-05-31T15:37:20Z</time>
      </trkpt>
      <trkpt lat="46.22902" lon="-0.85539">
        <ele>26.8</ele>
        <time>2020-05-31T15:37:21Z</time>
      </trkpt>
      <trkpt lat="46.22903" lon="-0.85545">
        <ele>26.8</ele>
        <time>2020-05-31T15:37:22Z</time>
      </trkpt>
      <trkpt lat="46.22904" lon="-0.85551">
        <ele>26.8</ele>
        <time>2020-05-31T15:37:23Z</time>
      </trkpt>
      <trkpt lat="46.22906" lon="-0.85557">
        <ele>26.9</ele>
        <time>2020-05-31T15:37:24Z</time>
      </trkpt>
      <trkpt lat="46.22907" lon="-0.85563">
        <ele>26.9</ele>
        <time>2020-05-31T15:37:25Z</time>
      </trkpt>
      <trkpt lat="46.2291" lon="-0.85569">
        <ele>26.9</ele>
        <time>2020-05-31T15:37:26Z</time>
      </trkpt>
      <trkpt lat="46.22911" lon="-0.85575">
        <ele>26.9</ele>
        <time>2020-05-31T15:37:27Z</time>
      </trkpt>
      <trkpt lat="46.22913" lon="-0.85581">
        <ele>27</ele>
        <time>2020-05-31T15:37:28Z</time>
      </trkpt>
      <trkpt lat="46.22913" lon="-0.85587">
        <ele>27</ele>
        <time>2020-05-31T15:37:29Z</time>
      </trkpt>
      <trkpt lat="46.22915" lon="-0.85594">
        <ele>27</ele>
        <time>2020-05-31T15:37:30Z</time>
      </trkpt>
      <trkpt lat="46.22916" lon="-0.85602">
        <ele>27</ele>
        <time>2020-05-31T15:37:31Z</time>
      </trkpt>
      <trkpt lat="46.22918" lon="-0.85609">
        <ele>27</ele>
        <time>2020-05-31T15:37:32Z</time>
      </trkpt>
      <trkpt lat="46.2292" lon="-0.85616">
        <ele>27.1</ele>
        <time>2020-05-31T15:37:33Z</time>
      </trkpt>
      <trkpt lat="46.22921" lon="-0.85623">
        <ele>27.1</ele>
        <time>2020-05-31T15:37:34Z</time>
      </trkpt>
      <trkpt lat="46.22923" lon="-0.85631">
        <ele>27.1</ele>
        <time>2020-05-31T15:37:35Z</time>
      </trkpt>
      <trkpt lat="46.22925" lon="-0.8564">
        <ele>27.2</ele>
        <time>2020-05-31T15:37:36Z</time>
      </trkpt>
      <trkpt lat="46.22927" lon="-0.85647">
        <ele>27.2</ele>
        <time>2020-05-31T15:37:37Z</time>
      </trkpt>
      <trkpt lat="46.22929" lon="-0.85655">
        <ele>27.2</ele>
        <time>2020-05-31T15:37:38Z</time>
      </trkpt>
      <trkpt lat="46.2293" lon="-0.85664">
        <ele>27.3</ele>
        <time>2020-05-31T15:37:39Z</time>
      </trkpt>
      <trkpt lat="46.22932" lon="-0.85671">
        <ele>27.3</ele>
        <time>2020-05-31T15:37:40Z</time>
      </trkpt>
      <trkpt lat="46.22933" lon="-0.85679">
        <ele>27.3</ele>
        <time>2020-05-31T15:37:41Z</time>
      </trkpt>
      <trkpt lat="46.22935" lon="-0.85687">
        <ele>27.4</ele>
        <time>2020-05-31T15:37:42Z</time>
      </trkpt>
      <trkpt lat="46.22936" lon="-0.85693">
        <ele>27.4</ele>
        <time>2020-05-31T15:37:43Z</time>
      </trkpt>
      <trkpt lat="46.22936" lon="-0.85702">
        <ele>27.5</ele>
        <time>2020-05-31T15:37:44Z</time>
      </trkpt>
      <trkpt lat="46.22935" lon="-0.85711">
        <ele>27.5</ele>
        <time>2020-05-31T15:37:45Z</time>
      </trkpt>
      <trkpt lat="46.22935" lon="-0.85719">
        <ele>27.5</ele>
        <time>2020-05-31T15:37:46Z</time>
      </trkpt>
      <trkpt lat="46.22935" lon="-0.85728">
        <ele>27.6</ele>
        <time>2020-05-31T15:37:47Z</time>
      </trkpt>
      <trkpt lat="46.22935" lon="-0.85737">
        <ele>27.7</ele>
        <time>2020-05-31T15:37:48Z</time>
      </trkpt>
      <trkpt lat="46.22935" lon="-0.85748">
        <ele>27.8</ele>
        <time>2020-05-31T15:37:49Z</time>
      </trkpt>
      <trkpt lat="46.22934" lon="-0.85757">
        <ele>28</ele>
        <time>2020-05-31T15:37:50Z</time>
      </trkpt>
      <trkpt lat="46.22933" lon="-0.85767">
        <ele>28.2</ele>
        <time>2020-05-31T15:37:51Z</time>
      </trkpt>
      <trkpt lat="46.22932" lon="-0.85778">
        <ele>28.3</ele>
        <time>2020-05-31T15:37:52Z</time>
      </trkpt>
      <trkpt lat="46.22931" lon="-0.85787">
        <ele>28.3</ele>
        <time>2020-05-31T15:37:53Z</time>
      </trkpt>
      <trkpt lat="46.2293" lon="-0.85797">
        <ele>28.3</ele>
        <time>2020-05-31T15:37:54Z</time>
      </trkpt>
      <trkpt lat="46.2293" lon="-0.85806">
        <ele>28.4</ele>
        <time>2020-05-31T15:37:55Z</time>
      </trkpt>
      <trkpt lat="46.22931" lon="-0.85816">
        <ele>28.4</ele>
        <time>2020-05-31T15:37:56Z</time>
      </trkpt>
      <trkpt lat="46.2293" lon="-0.85825">
        <ele>28.4</ele>
        <time>2020-05-31T15:37:57Z</time>
      </trkpt>
      <trkpt lat="46.2293" lon="-0.85835">
        <ele>28.4</ele>
        <time>2020-05-31T15:37:58Z</time>
      </trkpt>
      <trkpt lat="46.22929" lon="-0.85843">
        <ele>28.5</ele>
        <time>2020-05-31T15:37:59Z</time>
      </trkpt>
      <trkpt lat="46.22928" lon="-0.85851">
        <ele>28.5</ele>
        <time>2020-05-31T15:38:00Z</time>
      </trkpt>
      <trkpt lat="46.22927" lon="-0.85858">
        <ele>28.5</ele>
        <time>2020-05-31T15:38:01Z</time>
      </trkpt>
      <trkpt lat="46.22927" lon="-0.85865">
        <ele>28.5</ele>
        <time>2020-05-31T15:38:02Z</time>
      </trkpt>
      <trkpt lat="46.22925" lon="-0.8587">
        <ele>28.5</ele>
        <time>2020-05-31T15:38:03Z</time>
      </trkpt>
      <trkpt lat="46.22924" lon="-0.85872">
        <ele>28.5</ele>
        <time>2020-05-31T15:38:04Z</time>
      </trkpt>
      <trkpt lat="46.22923" lon="-0.85876">
        <ele>28.6</ele>
        <time>2020-05-31T15:38:05Z</time>
      </trkpt>
      <trkpt lat="46.22922" lon="-0.85879">
        <ele>28.6</ele>
        <time>2020-05-31T15:38:06Z</time>
      </trkpt>
      <trkpt lat="46.22922" lon="-0.85884">
        <ele>28.6</ele>
        <time>2020-05-31T15:38:07Z</time>
      </trkpt>
      <trkpt lat="46.2292" lon="-0.85888">
        <ele>28.5</ele>
        <time>2020-05-31T15:38:08Z</time>
      </trkpt>
      <trkpt lat="46.22917" lon="-0.85893">
        <ele>28.4</ele>
        <time>2020-05-31T15:38:09Z</time>
      </trkpt>
      <trkpt lat="46.22916" lon="-0.85895">
        <ele>28.4</ele>
        <time>2020-05-31T15:38:10Z</time>
      </trkpt>
      <trkpt lat="46.22913" lon="-0.85897">
        <ele>28.4</ele>
        <time>2020-05-31T15:38:11Z</time>
      </trkpt>
      <trkpt lat="46.22911" lon="-0.859">
        <ele>28.3</ele>
        <time>2020-05-31T15:38:12Z</time>
      </trkpt>
      <trkpt lat="46.22907" lon="-0.85904">
        <ele>28.2</ele>
        <time>2020-05-31T15:38:13Z</time>
      </trkpt>
      <trkpt lat="46.22904" lon="-0.85907">
        <ele>28.1</ele>
        <time>2020-05-31T15:38:14Z</time>
      </trkpt>
      <trkpt lat="46.22901" lon="-0.85909">
        <ele>28</ele>
        <time>2020-05-31T15:38:15Z</time>
      </trkpt>
      <trkpt lat="46.22896" lon="-0.85911">
        <ele>27.9</ele>
        <time>2020-05-31T15:38:16Z</time>
      </trkpt>
      <trkpt lat="46.22893" lon="-0.85915">
        <ele>27.8</ele>
        <time>2020-05-31T15:38:17Z</time>
      </trkpt>
      <trkpt lat="46.2289" lon="-0.85918">
        <ele>27.8</ele>
        <time>2020-05-31T15:38:18Z</time>
      </trkpt>
      <trkpt lat="46.22887" lon="-0.85921">
        <ele>27.6</ele>
        <time>2020-05-31T15:38:19Z</time>
      </trkpt>
      <trkpt lat="46.22883" lon="-0.85924">
        <ele>27.6</ele>
        <time>2020-05-31T15:38:20Z</time>
      </trkpt>
      <trkpt lat="46.22878" lon="-0.85929">
        <ele>27.3</ele>
        <time>2020-05-31T15:38:21Z</time>
      </trkpt>
      <trkpt lat="46.22873" lon="-0.85933">
        <ele>27.3</ele>
        <time>2020-05-31T15:38:22Z</time>
      </trkpt>
      <trkpt lat="46.22867" lon="-0.85937">
        <ele>27.2</ele>
        <time>2020-05-31T15:38:23Z</time>
      </trkpt>
      <trkpt lat="46.2286" lon="-0.85941">
        <ele>27.1</ele>
        <time>2020-05-31T15:38:24Z</time>
      </trkpt>
      <trkpt lat="46.22855" lon="-0.85944">
        <ele>26.9</ele>
        <time>2020-05-31T15:38:25Z</time>
      </trkpt>
      <trkpt lat="46.22849" lon="-0.85947">
        <ele>26.7</ele>
        <time>2020-05-31T15:38:26Z</time>
      </trkpt>
      <trkpt lat="46.22843" lon="-0.85949">
        <ele>26.6</ele>
        <time>2020-05-31T15:38:27Z</time>
      </trkpt>
      <trkpt lat="46.22837" lon="-0.85951">
        <ele>26.4</ele>
        <time>2020-05-31T15:38:28Z</time>
      </trkpt>
      <trkpt lat="46.2283" lon="-0.85952">
        <ele>26.2</ele>
        <time>2020-05-31T15:38:29Z</time>
      </trkpt>
      <trkpt lat="46.22825" lon="-0.85954">
        <ele>26.1</ele>
        <time>2020-05-31T15:38:30Z</time>
      </trkpt>
      <trkpt lat="46.22821" lon="-0.85955">
        <ele>26.1</ele>
        <time>2020-05-31T15:38:31Z</time>
      </trkpt>
      <trkpt lat="46.22816" lon="-0.85956">
        <ele>26.1</ele>
        <time>2020-05-31T15:38:32Z</time>
      </trkpt>
      <trkpt lat="46.22812" lon="-0.85957">
        <ele>26</ele>
        <time>2020-05-31T15:38:33Z</time>
      </trkpt>
      <trkpt lat="46.22808" lon="-0.85959">
        <ele>26</ele>
        <time>2020-05-31T15:38:34Z</time>
      </trkpt>
      <trkpt lat="46.22805" lon="-0.8596">
        <ele>25.9</ele>
        <time>2020-05-31T15:38:35Z</time>
      </trkpt>
      <trkpt lat="46.22803" lon="-0.85961">
        <ele>25.9</ele>
        <time>2020-05-31T15:38:36Z</time>
      </trkpt>
      <trkpt lat="46.22802" lon="-0.85963">
        <ele>25.9</ele>
        <time>2020-05-31T15:38:37Z</time>
      </trkpt>
      <trkpt lat="46.228" lon="-0.85964">
        <ele>25.9</ele>
        <time>2020-05-31T15:38:38Z</time>
      </trkpt>
      <trkpt lat="46.22798" lon="-0.85964">
        <ele>25.8</ele>
        <time>2020-05-31T15:38:39Z</time>
      </trkpt>
      <trkpt lat="46.22797" lon="-0.85965">
        <ele>25.8</ele>
        <time>2020-05-31T15:38:40Z</time>
      </trkpt>
      <trkpt lat="46.22795" lon="-0.85966">
        <ele>25.8</ele>
        <time>2020-05-31T15:38:41Z</time>
      </trkpt>
      <trkpt lat="46.22794" lon="-0.85967">
        <ele>25.8</ele>
        <time>2020-05-31T15:38:42Z</time>
      </trkpt>
      <trkpt lat="46.22792" lon="-0.8597">
        <ele>25.8</ele>
        <time>2020-05-31T15:38:43Z</time>
      </trkpt>
      <trkpt lat="46.22792" lon="-0.85971">
        <ele>25.8</ele>
        <time>2020-05-31T15:38:44Z</time>
      </trkpt>
      <trkpt lat="46.22791" lon="-0.85976">
        <ele>25.8</ele>
        <time>2020-05-31T15:38:45Z</time>
      </trkpt>
      <trkpt lat="46.22791" lon="-0.85978">
        <ele>25.8</ele>
        <time>2020-05-31T15:38:46Z</time>
      </trkpt>
      <trkpt lat="46.2279" lon="-0.85982">
        <ele>25.8</ele>
        <time>2020-05-31T15:38:47Z</time>
      </trkpt>
      <trkpt lat="46.2279" lon="-0.85984">
        <ele>25.8</ele>
        <time>2020-05-31T15:38:48Z</time>
      </trkpt>
      <trkpt lat="46.22791" lon="-0.85989">
        <ele>25.8</ele>
        <time>2020-05-31T15:38:49Z</time>
      </trkpt>
      <trkpt lat="46.22791" lon="-0.8599">
        <ele>25.8</ele>
        <time>2020-05-31T15:38:50Z</time>
      </trkpt>
      <trkpt lat="46.22792" lon="-0.85994">
        <ele>25.8</ele>
        <time>2020-05-31T15:38:51Z</time>
      </trkpt>
      <trkpt lat="46.22793" lon="-0.86">
        <ele>25.8</ele>
        <time>2020-05-31T15:38:52Z</time>
      </trkpt>
      <trkpt lat="46.22793" lon="-0.86002">
        <ele>25.8</ele>
        <time>2020-05-31T15:38:53Z</time>
      </trkpt>
      <trkpt lat="46.22794" lon="-0.86007">
        <ele>25.9</ele>
        <time>2020-05-31T15:38:54Z</time>
      </trkpt>
      <trkpt lat="46.22796" lon="-0.86012">
        <ele>26</ele>
        <time>2020-05-31T15:38:55Z</time>
      </trkpt>
      <trkpt lat="46.22796" lon="-0.86017">
        <ele>26</ele>
        <time>2020-05-31T15:38:56Z</time>
      </trkpt>
      <trkpt lat="46.22797" lon="-0.86023">
        <ele>26.1</ele>
        <time>2020-05-31T15:38:57Z</time>
      </trkpt>
      <trkpt lat="46.22798" lon="-0.86029">
        <ele>26.2</ele>
        <time>2020-05-31T15:38:58Z</time>
      </trkpt>
      <trkpt lat="46.228" lon="-0.86034">
        <ele>26.3</ele>
        <time>2020-05-31T15:38:59Z</time>
      </trkpt>
      <trkpt lat="46.22801" lon="-0.86039">
        <ele>26.3</ele>
        <time>2020-05-31T15:39:00Z</time>
      </trkpt>
      <trkpt lat="46.22805" lon="-0.86046">
        <ele>26.4</ele>
        <time>2020-05-31T15:39:01Z</time>
      </trkpt>
      <trkpt lat="46.22808" lon="-0.86053">
        <ele>26.4</ele>
        <time>2020-05-31T15:39:02Z</time>
      </trkpt>
      <trkpt lat="46.22809" lon="-0.86059">
        <ele>26.4</ele>
        <time>2020-05-31T15:39:03Z</time>
      </trkpt>
      <trkpt lat="46.2281" lon="-0.86068">
        <ele>26.5</ele>
        <time>2020-05-31T15:39:04Z</time>
      </trkpt>
      <trkpt lat="46.22811" lon="-0.86073">
        <ele>26.5</ele>
        <time>2020-05-31T15:39:05Z</time>
      </trkpt>
      <trkpt lat="46.22809" lon="-0.86079">
        <ele>26.5</ele>
        <time>2020-05-31T15:39:06Z</time>
      </trkpt>
      <trkpt lat="46.22811" lon="-0.86084">
        <ele>26.5</ele>
        <time>2020-05-31T15:39:07Z</time>
      </trkpt>
      <trkpt lat="46.22812" lon="-0.86089">
        <ele>26.5</ele>
        <time>2020-05-31T15:39:08Z</time>
      </trkpt>
      <trkpt lat="46.22814" lon="-0.86093">
        <ele>26.5</ele>
        <time>2020-05-31T15:39:09Z</time>
      </trkpt>
      <trkpt lat="46.22814" lon="-0.86094">
        <ele>26.5</ele>
        <time>2020-05-31T15:39:10Z</time>
      </trkpt>
      <trkpt lat="46.22817" lon="-0.86094">
        <ele>26.5</ele>
        <time>2020-05-31T15:39:11Z</time>
      </trkpt>
      <trkpt lat="46.22819" lon="-0.86093">
        <ele>26.5</ele>
        <time>2020-05-31T15:39:12Z</time>
      </trkpt>
      <trkpt lat="46.22822" lon="-0.86092">
        <ele>26.6</ele>
        <time>2020-05-31T15:39:13Z</time>
      </trkpt>
      <trkpt lat="46.22825" lon="-0.86091">
        <ele>26.6</ele>
        <time>2020-05-31T15:39:14Z</time>
      </trkpt>
      <trkpt lat="46.22828" lon="-0.8609">
        <ele>26.7</ele>
        <time>2020-05-31T15:39:15Z</time>
      </trkpt>
      <trkpt lat="46.22832" lon="-0.86088">
        <ele>26.8</ele>
        <time>2020-05-31T15:39:16Z</time>
      </trkpt>
      <trkpt lat="46.22838" lon="-0.86084">
        <ele>26.9</ele>
        <time>2020-05-31T15:39:17Z</time>
      </trkpt>
      <trkpt lat="46.22843" lon="-0.8608">
        <ele>27</ele>
        <time>2020-05-31T15:39:18Z</time>
      </trkpt>
      <trkpt lat="46.22847" lon="-0.86078">
        <ele>27.1</ele>
        <time>2020-05-31T15:39:19Z</time>
      </trkpt>
      <trkpt lat="46.22852" lon="-0.86075">
        <ele>27.3</ele>
        <time>2020-05-31T15:39:20Z</time>
      </trkpt>
      <trkpt lat="46.22856" lon="-0.86073">
        <ele>27.4</ele>
        <time>2020-05-31T15:39:21Z</time>
      </trkpt>
      <trkpt lat="46.2286" lon="-0.8607">
        <ele>27.5</ele>
        <time>2020-05-31T15:39:22Z</time>
      </trkpt>
      <trkpt lat="46.22864" lon="-0.86067">
        <ele>27.6</ele>
        <time>2020-05-31T15:39:23Z</time>
      </trkpt>
      <trkpt lat="46.22868" lon="-0.86063">
        <ele>27.7</ele>
        <time>2020-05-31T15:39:24Z</time>
      </trkpt>
      <trkpt lat="46.22873" lon="-0.8606">
        <ele>27.8</ele>
        <time>2020-05-31T15:39:25Z</time>
      </trkpt>
      <trkpt lat="46.22877" lon="-0.86056">
        <ele>27.9</ele>
        <time>2020-05-31T15:39:26Z</time>
      </trkpt>
      <trkpt lat="46.22881" lon="-0.86053">
        <ele>28</ele>
        <time>2020-05-31T15:39:27Z</time>
      </trkpt>
      <trkpt lat="46.22884" lon="-0.86051">
        <ele>28</ele>
        <time>2020-05-31T15:39:28Z</time>
      </trkpt>
      <trkpt lat="46.22886" lon="-0.86047">
        <ele>28.1</ele>
        <time>2020-05-31T15:39:29Z</time>
      </trkpt>
      <trkpt lat="46.22887" lon="-0.86043">
        <ele>28.1</ele>
        <time>2020-05-31T15:39:30Z</time>
      </trkpt>
      <trkpt lat="46.22889" lon="-0.86039">
        <ele>28.1</ele>
        <time>2020-05-31T15:39:31Z</time>
      </trkpt>
      <trkpt lat="46.22892" lon="-0.86036">
        <ele>28.1</ele>
        <time>2020-05-31T15:39:32Z</time>
      </trkpt>
      <trkpt lat="46.22894" lon="-0.86033">
        <ele>28.1</ele>
        <time>2020-05-31T15:39:33Z</time>
      </trkpt>
      <trkpt lat="46.22894" lon="-0.86031">
        <ele>28.1</ele>
        <time>2020-05-31T15:39:34Z</time>
      </trkpt>
      <trkpt lat="46.22894" lon="-0.8603">
        <ele>28.1</ele>
        <time>2020-05-31T15:39:35Z</time>
      </trkpt>
      <trkpt lat="46.22893" lon="-0.86029">
        <ele>28.1</ele>
        <time>2020-05-31T15:39:36Z</time>
      </trkpt>
      <trkpt lat="46.22893" lon="-0.8603">
        <ele>28.1</ele>
        <time>2020-05-31T15:39:37Z</time>
      </trkpt>
      <trkpt lat="46.22892" lon="-0.8603">
        <ele>28.1</ele>
        <time>2020-05-31T15:39:38Z</time>
      </trkpt>
      <trkpt lat="46.22892" lon="-0.86031">
        <ele>28.1</ele>
        <time>2020-05-31T15:39:39Z</time>
      </trkpt>
      <trkpt lat="46.22892" lon="-0.86031">
        <ele>28.1</ele>
        <time>2020-05-31T15:39:40Z</time>
      </trkpt>
      <trkpt lat="46.22892" lon="-0.86031">
        <ele>28.1</ele>
        <time>2020-05-31T15:39:41Z</time>
      </trkpt>
      <trkpt lat="46.22891" lon="-0.86031">
        <ele>28.1</ele>
        <time>2020-05-31T15:39:42Z</time>
      </trkpt>
      <trkpt lat="46.22891" lon="-0.86031">
        <ele>28.1</ele>
        <time>2020-05-31T15:39:43Z</time>
      </trkpt>
      <trkpt lat="46.2289" lon="-0.8603">
        <ele>28.1</ele>
        <time>2020-05-31T15:39:44Z</time>
      </trkpt>
      <trkpt lat="46.2289" lon="-0.8603">
        <ele>28.1</ele>
        <time>2020-05-31T15:39:45Z</time>
      </trkpt>
      <trkpt lat="46.2289" lon="-0.86029">
        <ele>28.1</ele>
        <time>2020-05-31T15:39:46Z</time>
      </trkpt>
      <trkpt lat="46.2289" lon="-0.86029">
        <ele>28.1</ele>
        <time>2020-05-31T15:39:47Z</time>
      </trkpt>
      <trkpt lat="46.2289" lon="-0.86029">
        <ele>28.1</ele>
        <time>2020-05-31T15:39:48Z</time>
      </trkpt>
      <trkpt lat="46.2289" lon="-0.86029">
        <ele>28.1</ele>
        <time>2020-05-31T15:39:49Z</time>
      </trkpt>
      <trkpt lat="46.2289" lon="-0.86029">
        <ele>28.1</ele>
        <time>2020-05-31T15:39:50Z</time>
      </trkpt>
      <trkpt lat="46.2289" lon="-0.86029">
        <ele>28.1</ele>
        <time>2020-05-31T15:39:51Z</time>
      </trkpt>
      <trkpt lat="46.2289" lon="-0.86029">
        <ele>28.1</ele>
        <time>2020-05-31T15:39:52Z</time>
      </trkpt>
      <trkpt lat="46.2289" lon="-0.86029">
        <ele>28.1</ele>
        <time>2020-05-31T15:39:53Z</time>
      </trkpt>
      <trkpt lat="46.2289" lon="-0.86029">
        <ele>28.1</ele>
        <time>2020-05-31T15:39:54Z</time>
      </trkpt>
      <trkpt lat="46.2289" lon="-0.86029">
        <ele>28.1</ele>
        <time>2020-05-31T15:39:55Z</time>
      </trkpt>
      <trkpt lat="46.2289" lon="-0.86029">
        <ele>28.1</ele>
        <time>2020-05-31T15:39:56Z</time>
      </trkpt>
      <trkpt lat="46.2289" lon="-0.86029">
        <ele>28.1</ele>
        <time>2020-05-31T15:39:57Z</time>
      </trkpt>
      <trkpt lat="46.2289" lon="-0.86029">
        <ele>28.1</ele>
        <time>2020-05-31T15:39:58Z</time>
      </trkpt>
      <trkpt lat="46.2289" lon="-0.86029">
        <ele>28.1</ele>
        <time>2020-05-31T15:39:59Z</time>
      </trkpt>
      <trkpt lat="46.2289" lon="-0.86027">
        <ele>28.1</ele>
        <time>2020-05-31T15:40:00Z</time>
      </trkpt>
      <trkpt lat="46.2289" lon="-0.86027">
        <ele>28.1</ele>
        <time>2020-05-31T15:40:01Z</time>
      </trkpt>
      <trkpt lat="46.2289" lon="-0.86026">
        <ele>28.1</ele>
        <time>2020-05-31T15:40:02Z</time>
      </trkpt>
      <trkpt lat="46.22891" lon="-0.86025">
        <ele>28.1</ele>
        <time>2020-05-31T15:40:03Z</time>
      </trkpt>
      <trkpt lat="46.22891" lon="-0.86026">
        <ele>28.1</ele>
        <time>2020-05-31T15:40:04Z</time>
      </trkpt>
      <trkpt lat="46.22891" lon="-0.86027">
        <ele>28.1</ele>
        <time>2020-05-31T15:40:05Z</time>
      </trkpt>
      <trkpt lat="46.22892" lon="-0.86027">
        <ele>28.1</ele>
        <time>2020-05-31T15:40:06Z</time>
      </trkpt>
      <trkpt lat="46.22892" lon="-0.86027">
        <ele>28.1</ele>
        <time>2020-05-31T15:40:07Z</time>
      </trkpt>
      <trkpt lat="46.22892" lon="-0.86027">
        <ele>28.1</ele>
        <time>2020-05-31T15:40:08Z</time>
      </trkpt>
      <trkpt lat="46.22892" lon="-0.86028">
        <ele>28.1</ele>
        <time>2020-05-31T15:40:09Z</time>
      </trkpt>
      <trkpt lat="46.22892" lon="-0.86028">
        <ele>28.2</ele>
        <time>2020-05-31T15:40:10Z</time>
      </trkpt>
      <trkpt lat="46.22892" lon="-0.86028">
        <ele>28.2</ele>
        <time>2020-05-31T15:40:11Z</time>
      </trkpt>
      <trkpt lat="46.22892" lon="-0.86028">
        <ele>28.2</ele>
        <time>2020-05-31T15:40:12Z</time>
      </trkpt>
      <trkpt lat="46.22892" lon="-0.86029">
        <ele>28.2</ele>
        <time>2020-05-31T15:40:13Z</time>
      </trkpt>
      <trkpt lat="46.22892" lon="-0.86029">
        <ele>28.2</ele>
        <time>2020-05-31T15:40:14Z</time>
      </trkpt>
      <trkpt lat="46.22892" lon="-0.86029">
        <ele>28.2</ele>
        <time>2020-05-31T15:40:15Z</time>
      </trkpt>
      <trkpt lat="46.22892" lon="-0.86028">
        <ele>28.2</ele>
        <time>2020-05-31T15:40:16Z</time>
      </trkpt>
      <trkpt lat="46.22892" lon="-0.86027">
        <ele>28.2</ele>
        <time>2020-05-31T15:40:17Z</time>
      </trkpt>
      <trkpt lat="46.22891" lon="-0.86026">
        <ele>28.2</ele>
        <time>2020-05-31T15:40:18Z</time>
      </trkpt>
      <trkpt lat="46.22892" lon="-0.86027">
        <ele>28.2</ele>
        <time>2020-05-31T15:40:19Z</time>
      </trkpt>
      <trkpt lat="46.22892" lon="-0.86028">
        <ele>28.2</ele>
        <time>2020-05-31T15:40:20Z</time>
      </trkpt>
      <trkpt lat="46.22892" lon="-0.86028">
        <ele>28.2</ele>
        <time>2020-05-31T15:40:21Z</time>
      </trkpt>
      <trkpt lat="46.22892" lon="-0.86029">
        <ele>28.2</ele>
        <time>2020-05-31T15:40:22Z</time>
      </trkpt>
      <trkpt lat="46.22893" lon="-0.86031">
        <ele>28.2</ele>
        <time>2020-05-31T15:40:23Z</time>
      </trkpt>
      <trkpt lat="46.22893" lon="-0.86031">
        <ele>28.2</ele>
        <time>2020-05-31T15:40:24Z</time>
      </trkpt>
      <trkpt lat="46.22893" lon="-0.86031">
        <ele>28.2</ele>
        <time>2020-05-31T15:40:25Z</time>
      </trkpt>
      <trkpt lat="46.22894" lon="-0.86031">
        <ele>28.2</ele>
        <time>2020-05-31T15:40:26Z</time>
      </trkpt>
      <trkpt lat="46.22894" lon="-0.86032">
        <ele>28.2</ele>
        <time>2020-05-31T15:40:27Z</time>
      </trkpt>
      <trkpt lat="46.22894" lon="-0.86032">
        <ele>28.2</ele>
        <time>2020-05-31T15:40:28Z</time>
      </trkpt>
      <trkpt lat="46.22894" lon="-0.86032">
        <ele>28.2</ele>
        <time>2020-05-31T15:40:29Z</time>
      </trkpt>
      <trkpt lat="46.22894" lon="-0.86031">
        <ele>28.2</ele>
        <time>2020-05-31T15:40:30Z</time>
      </trkpt>
      <trkpt lat="46.22894" lon="-0.86032">
        <ele>28.2</ele>
        <time>2020-05-31T15:40:31Z</time>
      </trkpt>
      <trkpt lat="46.22894" lon="-0.86031">
        <ele>28.2</ele>
        <time>2020-05-31T15:40:32Z</time>
      </trkpt>
      <trkpt lat="46.22895" lon="-0.86031">
        <ele>28.2</ele>
        <time>2020-05-31T15:40:33Z</time>
      </trkpt>
      <trkpt lat="46.22895" lon="-0.86031">
        <ele>28.2</ele>
        <time>2020-05-31T15:40:34Z</time>
      </trkpt>
      <trkpt lat="46.22894" lon="-0.86031">
        <ele>28.2</ele>
        <time>2020-05-31T15:40:35Z</time>
      </trkpt>
      <trkpt lat="46.22895" lon="-0.86031">
        <ele>28.2</ele>
        <time>2020-05-31T15:40:36Z</time>
      </trkpt>
      <trkpt lat="46.22895" lon="-0.86031">
        <ele>28.2</ele>
        <time>2020-05-31T15:40:37Z</time>
      </trkpt>
      <trkpt lat="46.22895" lon="-0.86031">
        <ele>28.2</ele>
        <time>2020-05-31T15:40:38Z</time>
      </trkpt>
      <trkpt lat="46.22895" lon="-0.86031">
        <ele>28.2</ele>
        <time>2020-05-31T15:40:39Z</time>
      </trkpt>
      <trkpt lat="46.22895" lon="-0.86031">
        <ele>28.2</ele>
        <time>2020-05-31T15:40:40Z</time>
      </trkpt>
      <trkpt lat="46.22895" lon="-0.86031">
        <ele>28.2</ele>
        <time>2020-05-31T15:40:41Z</time>
      </trkpt>
      <trkpt lat="46.22895" lon="-0.8603">
        <ele>28.2</ele>
        <time>2020-05-31T15:40:42Z</time>
      </trkpt>
      <trkpt lat="46.22895" lon="-0.8603">
        <ele>28.2</ele>
        <time>2020-05-31T15:40:43Z</time>
      </trkpt>
      <trkpt lat="46.22895" lon="-0.8603">
        <ele>28.2</ele>
        <time>2020-05-31T15:40:44Z</time>
      </trkpt>
      <trkpt lat="46.22895" lon="-0.86029">
        <ele>28.2</ele>
        <time>2020-05-31T15:40:45Z</time>
      </trkpt>
      <trkpt lat="46.22895" lon="-0.86028">
        <ele>28.2</ele>
        <time>2020-05-31T15:40:46Z</time>
      </trkpt>
      <trkpt lat="46.22895" lon="-0.86026">
        <ele>28.2</ele>
        <time>2020-05-31T15:40:47Z</time>
      </trkpt>
      <trkpt lat="46.22894" lon="-0.86025">
        <ele>28.2</ele>
        <time>2020-05-31T15:40:48Z</time>
      </trkpt>
      <trkpt lat="46.22894" lon="-0.86024">
        <ele>28.2</ele>
        <time>2020-05-31T15:40:49Z</time>
      </trkpt>
      <trkpt lat="46.22894" lon="-0.86024">
        <ele>28.2</ele>
        <time>2020-05-31T15:40:50Z</time>
      </trkpt>
      <trkpt lat="46.22894" lon="-0.86024">
        <ele>28.2</ele>
        <time>2020-05-31T15:40:51Z</time>
      </trkpt>
      <trkpt lat="46.22894" lon="-0.86023">
        <ele>28.2</ele>
        <time>2020-05-31T15:40:52Z</time>
      </trkpt>
      <trkpt lat="46.22894" lon="-0.86022">
        <ele>28.2</ele>
        <time>2020-05-31T15:40:53Z</time>
      </trkpt>
      <trkpt lat="46.22894" lon="-0.86022">
        <ele>28.2</ele>
        <time>2020-05-31T15:40:54Z</time>
      </trkpt>
      <trkpt lat="46.22895" lon="-0.86023">
        <ele>28.2</ele>
        <time>2020-05-31T15:40:55Z</time>
      </trkpt>
      <trkpt lat="46.22895" lon="-0.86022">
        <ele>28.2</ele>
        <time>2020-05-31T15:40:56Z</time>
      </trkpt>
      <trkpt lat="46.22895" lon="-0.86022">
        <ele>28.2</ele>
        <time>2020-05-31T15:40:57Z</time>
      </trkpt>
      <trkpt lat="46.22895" lon="-0.86022">
        <ele>28.2</ele>
        <time>2020-05-31T15:40:58Z</time>
      </trkpt>
      <trkpt lat="46.22895" lon="-0.86022">
        <ele>28.2</ele>
        <time>2020-05-31T15:40:59Z</time>
      </trkpt>
      <trkpt lat="46.22895" lon="-0.86023">
        <ele>28.2</ele>
        <time>2020-05-31T15:41:00Z</time>
      </trkpt>
      <trkpt lat="46.22895" lon="-0.86024">
        <ele>28.2</ele>
        <time>2020-05-31T15:41:01Z</time>
      </trkpt>
      <trkpt lat="46.22895" lon="-0.86025">
        <ele>28.2</ele>
        <time>2020-05-31T15:41:02Z</time>
      </trkpt>
      <trkpt lat="46.22895" lon="-0.86026">
        <ele>28.2</ele>
        <time>2020-05-31T15:41:03Z</time>
      </trkpt>
      <trkpt lat="46.22895" lon="-0.86027">
        <ele>28.2</ele>
        <time>2020-05-31T15:41:04Z</time>
      </trkpt>
      <trkpt lat="46.22895" lon="-0.86028">
        <ele>28.2</ele>
        <time>2020-05-31T15:41:05Z</time>
      </trkpt>
      <trkpt lat="46.22896" lon="-0.86029">
        <ele>28.2</ele>
        <time>2020-05-31T15:41:06Z</time>
      </trkpt>
      <trkpt lat="46.22896" lon="-0.8603">
        <ele>28.2</ele>
        <time>2020-05-31T15:41:07Z</time>
      </trkpt>
      <trkpt lat="46.22897" lon="-0.8603">
        <ele>28.2</ele>
        <time>2020-05-31T15:41:08Z</time>
      </trkpt>
      <trkpt lat="46.22898" lon="-0.8603">
        <ele>28.2</ele>
        <time>2020-05-31T15:41:09Z</time>
      </trkpt>
      <trkpt lat="46.22898" lon="-0.8603">
        <ele>28.2</ele>
        <time>2020-05-31T15:41:10Z</time>
      </trkpt>
      <trkpt lat="46.22898" lon="-0.86031">
        <ele>28.2</ele>
        <time>2020-05-31T15:41:11Z</time>
      </trkpt>
      <trkpt lat="46.22899" lon="-0.86031">
        <ele>28.2</ele>
        <time>2020-05-31T15:41:12Z</time>
      </trkpt>
      <trkpt lat="46.22899" lon="-0.86031">
        <ele>28.2</ele>
        <time>2020-05-31T15:41:13Z</time>
      </trkpt>
      <trkpt lat="46.22899" lon="-0.86031">
        <ele>28.2</ele>
        <time>2020-05-31T15:41:14Z</time>
      </trkpt>
      <trkpt lat="46.22899" lon="-0.86031">
        <ele>28.2</ele>
        <time>2020-05-31T15:41:15Z</time>
      </trkpt>
      <trkpt lat="46.22899" lon="-0.86031">
        <ele>28.2</ele>
        <time>2020-05-31T15:41:16Z</time>
      </trkpt>
      <trkpt lat="46.22898" lon="-0.86031">
        <ele>28.2</ele>
        <time>2020-05-31T15:41:17Z</time>
      </trkpt>
      <trkpt lat="46.22898" lon="-0.86031">
        <ele>28.2</ele>
        <time>2020-05-31T15:41:18Z</time>
      </trkpt>
      <trkpt lat="46.22898" lon="-0.86032">
        <ele>28.2</ele>
        <time>2020-05-31T15:41:19Z</time>
      </trkpt>
      <trkpt lat="46.22898" lon="-0.86032">
        <ele>28.2</ele>
        <time>2020-05-31T15:41:20Z</time>
      </trkpt>
      <trkpt lat="46.22897" lon="-0.86032">
        <ele>28.2</ele>
        <time>2020-05-31T15:41:21Z</time>
      </trkpt>
      <trkpt lat="46.22897" lon="-0.86032">
        <ele>28.2</ele>
        <time>2020-05-31T15:41:22Z</time>
      </trkpt>
      <trkpt lat="46.22897" lon="-0.86032">
        <ele>28.2</ele>
        <time>2020-05-31T15:41:23Z</time>
      </trkpt>
      <trkpt lat="46.22897" lon="-0.86033">
        <ele>28.2</ele>
        <time>2020-05-31T15:41:24Z</time>
      </trkpt>
      <trkpt lat="46.22897" lon="-0.86033">
        <ele>28.2</ele>
        <time>2020-05-31T15:41:25Z</time>
      </trkpt>
      <trkpt lat="46.22897" lon="-0.86032">
        <ele>28.2</ele>
        <time>2020-05-31T15:41:26Z</time>
      </trkpt>
      <trkpt lat="46.22897" lon="-0.86031">
        <ele>28.2</ele>
        <time>2020-05-31T15:41:27Z</time>
      </trkpt>
      <trkpt lat="46.22897" lon="-0.86031">
        <ele>28.2</ele>
        <time>2020-05-31T15:41:28Z</time>
      </trkpt>
      <trkpt lat="46.22897" lon="-0.86031">
        <ele>28.2</ele>
        <time>2020-05-31T15:41:29Z</time>
      </trkpt>
      <trkpt lat="46.22897" lon="-0.86031">
        <ele>28.2</ele>
        <time>2020-05-31T15:41:30Z</time>
      </trkpt>
      <trkpt lat="46.22897" lon="-0.86031">
        <ele>28.2</ele>
        <time>2020-05-31T15:41:31Z</time>
      </trkpt>
      <trkpt lat="46.22897" lon="-0.86031">
        <ele>28.2</ele>
        <time>2020-05-31T15:41:32Z</time>
      </trkpt>
      <trkpt lat="46.22897" lon="-0.86031">
        <ele>28.2</ele>
        <time>2020-05-31T15:41:33Z</time>
      </trkpt>
      <trkpt lat="46.22897" lon="-0.86031">
        <ele>28.2</ele>
        <time>2020-05-31T15:41:34Z</time>
      </trkpt>
      <trkpt lat="46.22897" lon="-0.86031">
        <ele>28.2</ele>
        <time>2020-05-31T15:41:35Z</time>
      </trkpt>
      <trkpt lat="46.22897" lon="-0.8603">
        <ele>28.2</ele>
        <time>2020-05-31T15:41:36Z</time>
      </trkpt>
      <trkpt lat="46.22897" lon="-0.8603">
        <ele>28.2</ele>
        <time>2020-05-31T15:41:37Z</time>
      </trkpt>
      <trkpt lat="46.22897" lon="-0.8603">
        <ele>28.2</ele>
        <time>2020-05-31T15:41:38Z</time>
      </trkpt>
      <trkpt lat="46.22897" lon="-0.8603">
        <ele>28.2</ele>
        <time>2020-05-31T15:41:39Z</time>
      </trkpt>
      <trkpt lat="46.22897" lon="-0.8603">
        <ele>28.2</ele>
        <time>2020-05-31T15:41:40Z</time>
      </trkpt>
      <trkpt lat="46.22896" lon="-0.86029">
        <ele>28.2</ele>
        <time>2020-05-31T15:41:41Z</time>
      </trkpt>
      <trkpt lat="46.22896" lon="-0.86029">
        <ele>28.2</ele>
        <time>2020-05-31T15:41:42Z</time>
      </trkpt>
      <trkpt lat="46.22896" lon="-0.86029">
        <ele>28.2</ele>
        <time>2020-05-31T15:41:43Z</time>
      </trkpt>
      <trkpt lat="46.22896" lon="-0.86029">
        <ele>28.2</ele>
        <time>2020-05-31T15:41:44Z</time>
      </trkpt>
      <trkpt lat="46.22896" lon="-0.86028">
        <ele>28.2</ele>
        <time>2020-05-31T15:41:45Z</time>
      </trkpt>
      <trkpt lat="46.22897" lon="-0.86028">
        <ele>28.2</ele>
        <time>2020-05-31T15:41:46Z</time>
      </trkpt>
      <trkpt lat="46.22897" lon="-0.86028">
        <ele>28.2</ele>
        <time>2020-05-31T15:41:47Z</time>
      </trkpt>
      <trkpt lat="46.22897" lon="-0.86028">
        <ele>28.2</ele>
        <time>2020-05-31T15:41:48Z</time>
      </trkpt>
      <trkpt lat="46.22898" lon="-0.86028">
        <ele>28.2</ele>
        <time>2020-05-31T15:41:49Z</time>
      </trkpt>
      <trkpt lat="46.22898" lon="-0.86028">
        <ele>28.2</ele>
        <time>2020-05-31T15:41:50Z</time>
      </trkpt>
      <trkpt lat="46.229" lon="-0.86027">
        <ele>28.2</ele>
        <time>2020-05-31T15:41:51Z</time>
      </trkpt>
      <trkpt lat="46.229" lon="-0.86027">
        <ele>28.2</ele>
        <time>2020-05-31T15:41:52Z</time>
      </trkpt>
      <trkpt lat="46.229" lon="-0.86027">
        <ele>28.2</ele>
        <time>2020-05-31T15:41:53Z</time>
      </trkpt>
      <trkpt lat="46.229" lon="-0.86027">
        <ele>28.2</ele>
        <time>2020-05-31T15:41:54Z</time>
      </trkpt>
      <trkpt lat="46.229" lon="-0.86027">
        <ele>28.2</ele>
        <time>2020-05-31T15:41:55Z</time>
      </trkpt>
      <trkpt lat="46.229" lon="-0.86027">
        <ele>28.2</ele>
        <time>2020-05-31T15:41:56Z</time>
      </trkpt>
      <trkpt lat="46.229" lon="-0.86027">
        <ele>28.2</ele>
        <time>2020-05-31T15:41:57Z</time>
      </trkpt>
      <trkpt lat="46.22901" lon="-0.86027">
        <ele>28.2</ele>
        <time>2020-05-31T15:41:58Z</time>
      </trkpt>
      <trkpt lat="46.22901" lon="-0.86027">
        <ele>28.2</ele>
        <time>2020-05-31T15:41:59Z</time>
      </trkpt>
      <trkpt lat="46.22902" lon="-0.86027">
        <ele>28.2</ele>
        <time>2020-05-31T15:42:00Z</time>
      </trkpt>
      <trkpt lat="46.22902" lon="-0.86028">
        <ele>28.2</ele>
        <time>2020-05-31T15:42:01Z</time>
      </trkpt>
      <trkpt lat="46.22902" lon="-0.86028">
        <ele>28.2</ele>
        <time>2020-05-31T15:42:02Z</time>
      </trkpt>
      <trkpt lat="46.22902" lon="-0.86028">
        <ele>28.2</ele>
        <time>2020-05-31T15:42:03Z</time>
      </trkpt>
      <trkpt lat="46.22902" lon="-0.86028">
        <ele>28.2</ele>
        <time>2020-05-31T15:42:04Z</time>
      </trkpt>
      <trkpt lat="46.22902" lon="-0.86028">
        <ele>28.2</ele>
        <time>2020-05-31T15:42:05Z</time>
      </trkpt>
      <trkpt lat="46.22902" lon="-0.86028">
        <ele>28.2</ele>
        <time>2020-05-31T15:42:06Z</time>
      </trkpt>
      <trkpt lat="46.22902" lon="-0.86028">
        <ele>28.2</ele>
        <time>2020-05-31T15:42:07Z</time>
      </trkpt>
      <trkpt lat="46.22902" lon="-0.86028">
        <ele>28.2</ele>
        <time>2020-05-31T15:42:08Z</time>
      </trkpt>
      <trkpt lat="46.22901" lon="-0.86028">
        <ele>28.2</ele>
        <time>2020-05-31T15:42:09Z</time>
      </trkpt>
      <trkpt lat="46.22901" lon="-0.86028">
        <ele>28.2</ele>
        <time>2020-05-31T15:42:10Z</time>
      </trkpt>
      <trkpt lat="46.22901" lon="-0.86028">
        <ele>28.2</ele>
        <time>2020-05-31T15:42:11Z</time>
      </trkpt>
      <trkpt lat="46.22901" lon="-0.86028">
        <ele>28.2</ele>
        <time>2020-05-31T15:42:12Z</time>
      </trkpt>
      <trkpt lat="46.22901" lon="-0.86028">
        <ele>28.2</ele>
        <time>2020-05-31T15:42:13Z</time>
      </trkpt>
      <trkpt lat="46.22901" lon="-0.86028">
        <ele>28.2</ele>
        <time>2020-05-31T15:42:14Z</time>
      </trkpt>
      <trkpt lat="46.22901" lon="-0.86028">
        <ele>28.2</ele>
        <time>2020-05-31T15:42:15Z</time>
      </trkpt>
      <trkpt lat="46.22901" lon="-0.86028">
        <ele>28.3</ele>
        <time>2020-05-31T15:42:16Z</time>
      </trkpt>
      <trkpt lat="46.22901" lon="-0.86028">
        <ele>28.3</ele>
        <time>2020-05-31T15:42:17Z</time>
      </trkpt>
      <trkpt lat="46.22901" lon="-0.86028">
        <ele>28.3</ele>
        <time>2020-05-31T15:42:18Z</time>
      </trkpt>
      <trkpt lat="46.22901" lon="-0.86028">
        <ele>28.3</ele>
        <time>2020-05-31T15:42:19Z</time>
      </trkpt>
      <trkpt lat="46.229" lon="-0.86027">
        <ele>28.3</ele>
        <time>2020-05-31T15:42:20Z</time>
      </trkpt>
      <trkpt lat="46.229" lon="-0.86027">
        <ele>28.3</ele>
        <time>2020-05-31T15:42:21Z</time>
      </trkpt>
      <trkpt lat="46.229" lon="-0.86027">
        <ele>28.3</ele>
        <time>2020-05-31T15:42:22Z</time>
      </trkpt>
      <trkpt lat="46.229" lon="-0.86027">
        <ele>28.3</ele>
        <time>2020-05-31T15:42:23Z</time>
      </trkpt>
      <trkpt lat="46.229" lon="-0.86026">
        <ele>28.3</ele>
        <time>2020-05-31T15:42:24Z</time>
      </trkpt>
      <trkpt lat="46.22899" lon="-0.86026">
        <ele>28.3</ele>
        <time>2020-05-31T15:42:25Z</time>
      </trkpt>
      <trkpt lat="46.22899" lon="-0.86025">
        <ele>28.3</ele>
        <time>2020-05-31T15:42:26Z</time>
      </trkpt>
      <trkpt lat="46.22899" lon="-0.86025">
        <ele>28.3</ele>
        <time>2020-05-31T15:42:27Z</time>
      </trkpt>
      <trkpt lat="46.22899" lon="-0.86024">
        <ele>28.3</ele>
        <time>2020-05-31T15:42:28Z</time>
      </trkpt>
      <trkpt lat="46.22899" lon="-0.86023">
        <ele>28.3</ele>
        <time>2020-05-31T15:42:29Z</time>
      </trkpt>
      <trkpt lat="46.22899" lon="-0.86024">
        <ele>28.3</ele>
        <time>2020-05-31T15:42:30Z</time>
      </trkpt>
      <trkpt lat="46.22898" lon="-0.86025">
        <ele>28.3</ele>
        <time>2020-05-31T15:42:31Z</time>
      </trkpt>
      <trkpt lat="46.22898" lon="-0.86027">
        <ele>28.3</ele>
        <time>2020-05-31T15:42:32Z</time>
      </trkpt>
      <trkpt lat="46.22897" lon="-0.86028">
        <ele>28.3</ele>
        <time>2020-05-31T15:42:33Z</time>
      </trkpt>
      <trkpt lat="46.22897" lon="-0.8603">
        <ele>28.3</ele>
        <time>2020-05-31T15:42:34Z</time>
      </trkpt>
      <trkpt lat="46.22894" lon="-0.86033">
        <ele>28.2</ele>
        <time>2020-05-31T15:42:35Z</time>
      </trkpt>
      <trkpt lat="46.22894" lon="-0.86034">
        <ele>28.2</ele>
        <time>2020-05-31T15:42:36Z</time>
      </trkpt>
      <trkpt lat="46.22893" lon="-0.86035">
        <ele>28.2</ele>
        <time>2020-05-31T15:42:37Z</time>
      </trkpt>
      <trkpt lat="46.22893" lon="-0.86037">
        <ele>28.2</ele>
        <time>2020-05-31T15:42:38Z</time>
      </trkpt>
      <trkpt lat="46.22892" lon="-0.86038">
        <ele>28.2</ele>
        <time>2020-05-31T15:42:39Z</time>
      </trkpt>
      <trkpt lat="46.22892" lon="-0.86038">
        <ele>28.2</ele>
        <time>2020-05-31T15:42:40Z</time>
      </trkpt>
      <trkpt lat="46.22892" lon="-0.86038">
        <ele>28.2</ele>
        <time>2020-05-31T15:42:41Z</time>
      </trkpt>
      <trkpt lat="46.22892" lon="-0.86038">
        <ele>28.2</ele>
        <time>2020-05-31T15:42:42Z</time>
      </trkpt>
      <trkpt lat="46.22892" lon="-0.86038">
        <ele>28.2</ele>
        <time>2020-05-31T15:42:43Z</time>
      </trkpt>
      <trkpt lat="46.22892" lon="-0.86038">
        <ele>28.2</ele>
        <time>2020-05-31T15:42:44Z</time>
      </trkpt>
      <trkpt lat="46.22892" lon="-0.86038">
        <ele>28.2</ele>
        <time>2020-05-31T15:42:45Z</time>
      </trkpt>
      <trkpt lat="46.22892" lon="-0.86038">
        <ele>28.2</ele>
        <time>2020-05-31T15:42:46Z</time>
      </trkpt>
      <trkpt lat="46.22892" lon="-0.86038">
        <ele>28.2</ele>
        <time>2020-05-31T15:42:47Z</time>
      </trkpt>
      <trkpt lat="46.22891" lon="-0.86038">
        <ele>28.2</ele>
        <time>2020-05-31T15:42:48Z</time>
      </trkpt>
      <trkpt lat="46.22891" lon="-0.86038">
        <ele>28.2</ele>
        <time>2020-05-31T15:42:49Z</time>
      </trkpt>
      <trkpt lat="46.22891" lon="-0.86038">
        <ele>28.2</ele>
        <time>2020-05-31T15:42:50Z</time>
      </trkpt>
      <trkpt lat="46.22891" lon="-0.86038">
        <ele>28.2</ele>
        <time>2020-05-31T15:42:51Z</time>
      </trkpt>
      <trkpt lat="46.22891" lon="-0.86038">
        <ele>28.2</ele>
        <time>2020-05-31T15:42:52Z</time>
      </trkpt>
      <trkpt lat="46.22891" lon="-0.86038">
        <ele>28.2</ele>
        <time>2020-05-31T15:42:53Z</time>
      </trkpt>
      <trkpt lat="46.22891" lon="-0.86038">
        <ele>28.2</ele>
        <time>2020-05-31T15:42:54Z</time>
      </trkpt>
      <trkpt lat="46.22891" lon="-0.86039">
        <ele>28.2</ele>
        <time>2020-05-31T15:42:55Z</time>
      </trkpt>
      <trkpt lat="46.22891" lon="-0.86039">
        <ele>28.2</ele>
        <time>2020-05-31T15:42:56Z</time>
      </trkpt>
      <trkpt lat="46.22891" lon="-0.86039">
        <ele>28.2</ele>
        <time>2020-05-31T15:42:57Z</time>
      </trkpt>
      <trkpt lat="46.22891" lon="-0.86039">
        <ele>28.2</ele>
        <time>2020-05-31T15:42:58Z</time>
      </trkpt>
      <trkpt lat="46.22891" lon="-0.86039">
        <ele>28.2</ele>
        <time>2020-05-31T15:42:59Z</time>
      </trkpt>
      <trkpt lat="46.22891" lon="-0.86039">
        <ele>28.2</ele>
        <time>2020-05-31T15:43:00Z</time>
      </trkpt>
      <trkpt lat="46.22891" lon="-0.86039">
        <ele>28.2</ele>
        <time>2020-05-31T15:43:01Z</time>
      </trkpt>
      <trkpt lat="46.22891" lon="-0.86039">
        <ele>28.2</ele>
        <time>2020-05-31T15:43:02Z</time>
      </trkpt>
      <trkpt lat="46.22891" lon="-0.86039">
        <ele>28.2</ele>
        <time>2020-05-31T15:43:03Z</time>
      </trkpt>
      <trkpt lat="46.22891" lon="-0.86039">
        <ele>28.2</ele>
        <time>2020-05-31T15:43:04Z</time>
      </trkpt>
      <trkpt lat="46.22891" lon="-0.86039">
        <ele>28.2</ele>
        <time>2020-05-31T15:43:05Z</time>
      </trkpt>
      <trkpt lat="46.22892" lon="-0.86039">
        <ele>28.2</ele>
        <time>2020-05-31T15:43:06Z</time>
      </trkpt>
      <trkpt lat="46.22893" lon="-0.8604">
        <ele>28.2</ele>
        <time>2020-05-31T15:43:07Z</time>
      </trkpt>
      <trkpt lat="46.22894" lon="-0.8604">
        <ele>28.2</ele>
        <time>2020-05-31T15:43:08Z</time>
      </trkpt>
      <trkpt lat="46.22894" lon="-0.8604">
        <ele>28.2</ele>
        <time>2020-05-31T15:43:09Z</time>
      </trkpt>
      <trkpt lat="46.22894" lon="-0.8604">
        <ele>28.2</ele>
        <time>2020-05-31T15:43:10Z</time>
      </trkpt>
      <trkpt lat="46.22894" lon="-0.8604">
        <ele>28.2</ele>
        <time>2020-05-31T15:43:11Z</time>
      </trkpt>
      <trkpt lat="46.22894" lon="-0.8604">
        <ele>28.2</ele>
        <time>2020-05-31T15:43:12Z</time>
      </trkpt>
      <trkpt lat="46.22894" lon="-0.8604">
        <ele>28.2</ele>
        <time>2020-05-31T15:43:13Z</time>
      </trkpt>
      <trkpt lat="46.22894" lon="-0.8604">
        <ele>28.2</ele>
        <time>2020-05-31T15:43:14Z</time>
      </trkpt>
      <trkpt lat="46.22894" lon="-0.8604">
        <ele>28.2</ele>
        <time>2020-05-31T15:43:15Z</time>
      </trkpt>
      <trkpt lat="46.22894" lon="-0.8604">
        <ele>28.2</ele>
        <time>2020-05-31T15:43:16Z</time>
      </trkpt>
      <trkpt lat="46.22894" lon="-0.8604">
        <ele>28.2</ele>
        <time>2020-05-31T15:43:17Z</time>
      </trkpt>
      <trkpt lat="46.22894" lon="-0.8604">
        <ele>28.2</ele>
        <time>2020-05-31T15:43:18Z</time>
      </trkpt>
      <trkpt lat="46.22893" lon="-0.8604">
        <ele>28.2</ele>
        <time>2020-05-31T15:43:19Z</time>
      </trkpt>
      <trkpt lat="46.22893" lon="-0.8604">
        <ele>28.2</ele>
        <time>2020-05-31T15:43:20Z</time>
      </trkpt>
      <trkpt lat="46.22894" lon="-0.8604">
        <ele>28.2</ele>
        <time>2020-05-31T15:43:21Z</time>
      </trkpt>
      <trkpt lat="46.22894" lon="-0.8604">
        <ele>28.2</ele>
        <time>2020-05-31T15:43:22Z</time>
      </trkpt>
      <trkpt lat="46.22894" lon="-0.8604">
        <ele>28.2</ele>
        <time>2020-05-31T15:43:23Z</time>
      </trkpt>
      <trkpt lat="46.22894" lon="-0.8604">
        <ele>28.2</ele>
        <time>2020-05-31T15:43:24Z</time>
      </trkpt>
      <trkpt lat="46.22894" lon="-0.8604">
        <ele>28.2</ele>
        <time>2020-05-31T15:43:25Z</time>
      </trkpt>
      <trkpt lat="46.22894" lon="-0.86041">
        <ele>28.2</ele>
        <time>2020-05-31T15:43:26Z</time>
      </trkpt>
      <trkpt lat="46.22893" lon="-0.86041">
        <ele>28.2</ele>
        <time>2020-05-31T15:43:27Z</time>
      </trkpt>
      <trkpt lat="46.22893" lon="-0.86041">
        <ele>28.2</ele>
        <time>2020-05-31T15:43:28Z</time>
      </trkpt>
      <trkpt lat="46.22893" lon="-0.86041">
        <ele>28.2</ele>
        <time>2020-05-31T15:43:29Z</time>
      </trkpt>
      <trkpt lat="46.22893" lon="-0.86041">
        <ele>28.2</ele>
        <time>2020-05-31T15:43:30Z</time>
      </trkpt>
      <trkpt lat="46.22893" lon="-0.86042">
        <ele>28.2</ele>
        <time>2020-05-31T15:43:31Z</time>
      </trkpt>
      <trkpt lat="46.22893" lon="-0.86042">
        <ele>28.2</ele>
        <time>2020-05-31T15:43:32Z</time>
      </trkpt>
      <trkpt lat="46.22893" lon="-0.86042">
        <ele>28.2</ele>
        <time>2020-05-31T15:43:33Z</time>
      </trkpt>
      <trkpt lat="46.22893" lon="-0.86041">
        <ele>28.2</ele>
        <time>2020-05-31T15:43:34Z</time>
      </trkpt>
      <trkpt lat="46.22892" lon="-0.86041">
        <ele>28.2</ele>
        <time>2020-05-31T15:43:35Z</time>
      </trkpt>
      <trkpt lat="46.22893" lon="-0.8604">
        <ele>28.2</ele>
        <time>2020-05-31T15:43:36Z</time>
      </trkpt>
      <trkpt lat="46.22892" lon="-0.8604">
        <ele>28.2</ele>
        <time>2020-05-31T15:43:37Z</time>
      </trkpt>
      <trkpt lat="46.22892" lon="-0.8604">
        <ele>28.2</ele>
        <time>2020-05-31T15:43:38Z</time>
      </trkpt>
      <trkpt lat="46.22892" lon="-0.8604">
        <ele>28.2</ele>
        <time>2020-05-31T15:43:39Z</time>
      </trkpt>
      <trkpt lat="46.22892" lon="-0.8604">
        <ele>28.2</ele>
        <time>2020-05-31T15:43:40Z</time>
      </trkpt>
      <trkpt lat="46.22892" lon="-0.8604">
        <ele>28.2</ele>
        <time>2020-05-31T15:43:41Z</time>
      </trkpt>
      <trkpt lat="46.22892" lon="-0.8604">
        <ele>28.2</ele>
        <time>2020-05-31T15:43:42Z</time>
      </trkpt>
      <trkpt lat="46.22892" lon="-0.8604">
        <ele>28.2</ele>
        <time>2020-05-31T15:43:43Z</time>
      </trkpt>
      <trkpt lat="46.22892" lon="-0.86041">
        <ele>28.2</ele>
        <time>2020-05-31T15:43:44Z</time>
      </trkpt>
      <trkpt lat="46.22892" lon="-0.86041">
        <ele>28.2</ele>
        <time>2020-05-31T15:43:45Z</time>
      </trkpt>
      <trkpt lat="46.22892" lon="-0.86041">
        <ele>28.2</ele>
        <time>2020-05-31T15:43:46Z</time>
      </trkpt>
      <trkpt lat="46.22892" lon="-0.86041">
        <ele>28.2</ele>
        <time>2020-05-31T15:43:47Z</time>
      </trkpt>
      <trkpt lat="46.22892" lon="-0.8604">
        <ele>28.2</ele>
        <time>2020-05-31T15:43:48Z</time>
      </trkpt>
      <trkpt lat="46.22892" lon="-0.8604">
        <ele>28.2</ele>
        <time>2020-05-31T15:43:49Z</time>
      </trkpt>
      <trkpt lat="46.22892" lon="-0.8604">
        <ele>28.2</ele>
        <time>2020-05-31T15:43:50Z</time>
      </trkpt>
      <trkpt lat="46.22892" lon="-0.8604">
        <ele>28.2</ele>
        <time>2020-05-31T15:43:51Z</time>
      </trkpt>
      <trkpt lat="46.22892" lon="-0.8604">
        <ele>28.2</ele>
        <time>2020-05-31T15:43:52Z</time>
      </trkpt>
      <trkpt lat="46.22892" lon="-0.8604">
        <ele>28.2</ele>
        <time>2020-05-31T15:43:53Z</time>
      </trkpt>
      <trkpt lat="46.22892" lon="-0.8604">
        <ele>28.2</ele>
        <time>2020-05-31T15:43:54Z</time>
      </trkpt>
      <trkpt lat="46.22892" lon="-0.8604">
        <ele>28.2</ele>
        <time>2020-05-31T15:43:55Z</time>
      </trkpt>
      <trkpt lat="46.22892" lon="-0.8604">
        <ele>28.2</ele>
        <time>2020-05-31T15:43:56Z</time>
      </trkpt>
      <trkpt lat="46.22892" lon="-0.8604">
        <ele>28.2</ele>
        <time>2020-05-31T15:43:57Z</time>
      </trkpt>
      <trkpt lat="46.22892" lon="-0.8604">
        <ele>28.2</ele>
        <time>2020-05-31T15:43:58Z</time>
      </trkpt>
      <trkpt lat="46.22892" lon="-0.8604">
        <ele>28.2</ele>
        <time>2020-05-31T15:43:59Z</time>
      </trkpt>
      <trkpt lat="46.22892" lon="-0.8604">
        <ele>28.2</ele>
        <time>2020-05-31T15:44:00Z</time>
      </trkpt>
      <trkpt lat="46.22892" lon="-0.86039">
        <ele>28.2</ele>
        <time>2020-05-31T15:44:01Z</time>
      </trkpt>
      <trkpt lat="46.22892" lon="-0.86039">
        <ele>28.2</ele>
        <time>2020-05-31T15:44:02Z</time>
      </trkpt>
      <trkpt lat="46.22892" lon="-0.86039">
        <ele>28.2</ele>
        <time>2020-05-31T15:44:03Z</time>
      </trkpt>
      <trkpt lat="46.22892" lon="-0.86039">
        <ele>28.2</ele>
        <time>2020-05-31T15:44:04Z</time>
      </trkpt>
      <trkpt lat="46.22892" lon="-0.86038">
        <ele>28.2</ele>
        <time>2020-05-31T15:44:05Z</time>
      </trkpt>
      <trkpt lat="46.22891" lon="-0.86038">
        <ele>28.2</ele>
        <time>2020-05-31T15:44:06Z</time>
      </trkpt>
      <trkpt lat="46.22891" lon="-0.86038">
        <ele>28.2</ele>
        <time>2020-05-31T15:44:07Z</time>
      </trkpt>
      <trkpt lat="46.22891" lon="-0.86038">
        <ele>28.2</ele>
        <time>2020-05-31T15:44:08Z</time>
      </trkpt>
      <trkpt lat="46.22891" lon="-0.86038">
        <ele>28.2</ele>
        <time>2020-05-31T15:44:09Z</time>
      </trkpt>
      <trkpt lat="46.22891" lon="-0.86038">
        <ele>28.2</ele>
        <time>2020-05-31T15:44:10Z</time>
      </trkpt>
      <trkpt lat="46.22891" lon="-0.86038">
        <ele>28.2</ele>
        <time>2020-05-31T15:44:11Z</time>
      </trkpt>
      <trkpt lat="46.22891" lon="-0.86038">
        <ele>28.2</ele>
        <time>2020-05-31T15:44:12Z</time>
      </trkpt>
      <trkpt lat="46.22891" lon="-0.86038">
        <ele>28.2</ele>
        <time>2020-05-31T15:44:13Z</time>
      </trkpt>
      <trkpt lat="46.22891" lon="-0.86038">
        <ele>28.2</ele>
        <time>2020-05-31T15:44:14Z</time>
      </trkpt>
      <trkpt lat="46.22891" lon="-0.86038">
        <ele>28.2</ele>
        <time>2020-05-31T15:44:15Z</time>
      </trkpt>
      <trkpt lat="46.22891" lon="-0.86038">
        <ele>28.2</ele>
        <time>2020-05-31T15:44:16Z</time>
      </trkpt>
      <trkpt lat="46.22891" lon="-0.86038">
        <ele>28.2</ele>
        <time>2020-05-31T15:44:17Z</time>
      </trkpt>
      <trkpt lat="46.22891" lon="-0.86037">
        <ele>28.2</ele>
        <time>2020-05-31T15:44:18Z</time>
      </trkpt>
      <trkpt lat="46.22891" lon="-0.86038">
        <ele>28.2</ele>
        <time>2020-05-31T15:44:19Z</time>
      </trkpt>
      <trkpt lat="46.22891" lon="-0.86037">
        <ele>28.2</ele>
        <time>2020-05-31T15:44:20Z</time>
      </trkpt>
      <trkpt lat="46.22891" lon="-0.86037">
        <ele>28.2</ele>
        <time>2020-05-31T15:44:21Z</time>
      </trkpt>
      <trkpt lat="46.22891" lon="-0.86037">
        <ele>28.2</ele>
        <time>2020-05-31T15:44:22Z</time>
      </trkpt>
      <trkpt lat="46.22892" lon="-0.86037">
        <ele>28.2</ele>
        <time>2020-05-31T15:44:23Z</time>
      </trkpt>
      <trkpt lat="46.22892" lon="-0.86037">
        <ele>28.2</ele>
        <time>2020-05-31T15:44:24Z</time>
      </trkpt>
      <trkpt lat="46.22892" lon="-0.86037">
        <ele>28.2</ele>
        <time>2020-05-31T15:44:25Z</time>
      </trkpt>
      <trkpt lat="46.22892" lon="-0.86037">
        <ele>28.2</ele>
        <time>2020-05-31T15:44:26Z</time>
      </trkpt>
      <trkpt lat="46.22892" lon="-0.86037">
        <ele>28.2</ele>
        <time>2020-05-31T15:44:27Z</time>
      </trkpt>
      <trkpt lat="46.22892" lon="-0.86037">
        <ele>28.2</ele>
        <time>2020-05-31T15:44:28Z</time>
      </trkpt>
      <trkpt lat="46.22892" lon="-0.86037">
        <ele>28.2</ele>
        <time>2020-05-31T15:44:29Z</time>
      </trkpt>
      <trkpt lat="46.22892" lon="-0.86037">
        <ele>28.2</ele>
        <time>2020-05-31T15:44:30Z</time>
      </trkpt>
      <trkpt lat="46.22892" lon="-0.86037">
        <ele>28.2</ele>
        <time>2020-05-31T15:44:31Z</time>
      </trkpt>
      <trkpt lat="46.22892" lon="-0.86037">
        <ele>28.2</ele>
        <time>2020-05-31T15:44:32Z</time>
      </trkpt>
      <trkpt lat="46.22892" lon="-0.86037">
        <ele>28.2</ele>
        <time>2020-05-31T15:44:33Z</time>
      </trkpt>
      <trkpt lat="46.22892" lon="-0.86039">
        <ele>28.2</ele>
        <time>2020-05-31T15:44:34Z</time>
      </trkpt>
      <trkpt lat="46.22892" lon="-0.86039">
        <ele>28.2</ele>
        <time>2020-05-31T15:44:35Z</time>
      </trkpt>
      <trkpt lat="46.22892" lon="-0.86039">
        <ele>28.2</ele>
        <time>2020-05-31T15:44:36Z</time>
      </trkpt>
      <trkpt lat="46.22892" lon="-0.86039">
        <ele>28.2</ele>
        <time>2020-05-31T15:44:37Z</time>
      </trkpt>
      <trkpt lat="46.22892" lon="-0.86039">
        <ele>28.2</ele>
        <time>2020-05-31T15:44:38Z</time>
      </trkpt>
      <trkpt lat="46.22892" lon="-0.86039">
        <ele>28.2</ele>
        <time>2020-05-31T15:44:39Z</time>
      </trkpt>
      <trkpt lat="46.22892" lon="-0.86039">
        <ele>28.2</ele>
        <time>2020-05-31T15:44:40Z</time>
      </trkpt>
      <trkpt lat="46.22892" lon="-0.86039">
        <ele>28.2</ele>
        <time>2020-05-31T15:44:41Z</time>
      </trkpt>
      <trkpt lat="46.22892" lon="-0.86039">
        <ele>28.2</ele>
        <time>2020-05-31T15:44:42Z</time>
      </trkpt>
      <trkpt lat="46.22892" lon="-0.86039">
        <ele>28.2</ele>
        <time>2020-05-31T15:44:43Z</time>
      </trkpt>
      <trkpt lat="46.22892" lon="-0.86039">
        <ele>28.2</ele>
        <time>2020-05-31T15:44:44Z</time>
      </trkpt>
      <trkpt lat="46.22892" lon="-0.86039">
        <ele>28.2</ele>
        <time>2020-05-31T15:44:45Z</time>
      </trkpt>
      <trkpt lat="46.22892" lon="-0.86039">
        <ele>28.2</ele>
        <time>2020-05-31T15:44:46Z</time>
      </trkpt>
      <trkpt lat="46.22892" lon="-0.86039">
        <ele>28.2</ele>
        <time>2020-05-31T15:44:47Z</time>
      </trkpt>
      <trkpt lat="46.22892" lon="-0.8604">
        <ele>28.2</ele>
        <time>2020-05-31T15:44:48Z</time>
      </trkpt>
      <trkpt lat="46.22892" lon="-0.8604">
        <ele>28.2</ele>
        <time>2020-05-31T15:44:49Z</time>
      </trkpt>
      <trkpt lat="46.22892" lon="-0.8604">
        <ele>28.2</ele>
        <time>2020-05-31T15:44:50Z</time>
      </trkpt>
      <trkpt lat="46.22892" lon="-0.86039">
        <ele>28.2</ele>
        <time>2020-05-31T15:44:51Z</time>
      </trkpt>
      <trkpt lat="46.22892" lon="-0.86039">
        <ele>28.2</ele>
        <time>2020-05-31T15:44:52Z</time>
      </trkpt>
      <trkpt lat="46.22892" lon="-0.86039">
        <ele>28.2</ele>
        <time>2020-05-31T15:44:53Z</time>
      </trkpt>
      <trkpt lat="46.22892" lon="-0.86039">
        <ele>28.2</ele>
        <time>2020-05-31T15:44:54Z</time>
      </trkpt>
      <trkpt lat="46.22892" lon="-0.86039">
        <ele>28.2</ele>
        <time>2020-05-31T15:44:55Z</time>
      </trkpt>
      <trkpt lat="46.22892" lon="-0.86039">
        <ele>28.2</ele>
        <time>2020-05-31T15:44:56Z</time>
      </trkpt>
      <trkpt lat="46.22893" lon="-0.86039">
        <ele>28.2</ele>
        <time>2020-05-31T15:44:57Z</time>
      </trkpt>
      <trkpt lat="46.22893" lon="-0.86039">
        <ele>28.2</ele>
        <time>2020-05-31T15:44:58Z</time>
      </trkpt>
      <trkpt lat="46.22893" lon="-0.86039">
        <ele>28.2</ele>
        <time>2020-05-31T15:44:59Z</time>
      </trkpt>
      <trkpt lat="46.22893" lon="-0.86039">
        <ele>28.2</ele>
        <time>2020-05-31T15:45:00Z</time>
      </trkpt>
      <trkpt lat="46.22893" lon="-0.86039">
        <ele>28.2</ele>
        <time>2020-05-31T15:45:01Z</time>
      </trkpt>
      <trkpt lat="46.22893" lon="-0.86039">
        <ele>28.2</ele>
        <time>2020-05-31T15:45:02Z</time>
      </trkpt>
      <trkpt lat="46.22893" lon="-0.86039">
        <ele>28.2</ele>
        <time>2020-05-31T15:45:03Z</time>
      </trkpt>
      <trkpt lat="46.22893" lon="-0.86039">
        <ele>28.2</ele>
        <time>2020-05-31T15:45:04Z</time>
      </trkpt>
      <trkpt lat="46.22893" lon="-0.86039">
        <ele>28.2</ele>
        <time>2020-05-31T15:45:05Z</time>
      </trkpt>
      <trkpt lat="46.22893" lon="-0.86038">
        <ele>28.2</ele>
        <time>2020-05-31T15:45:06Z</time>
      </trkpt>
      <trkpt lat="46.22893" lon="-0.86038">
        <ele>28.2</ele>
        <time>2020-05-31T15:45:07Z</time>
      </trkpt>
      <trkpt lat="46.22893" lon="-0.86038">
        <ele>28.2</ele>
        <time>2020-05-31T15:45:08Z</time>
      </trkpt>
      <trkpt lat="46.22893" lon="-0.86038">
        <ele>28.2</ele>
        <time>2020-05-31T15:45:09Z</time>
      </trkpt>
      <trkpt lat="46.22893" lon="-0.86038">
        <ele>28.2</ele>
        <time>2020-05-31T15:45:10Z</time>
      </trkpt>
      <trkpt lat="46.22893" lon="-0.86038">
        <ele>28.2</ele>
        <time>2020-05-31T15:45:11Z</time>
      </trkpt>
      <trkpt lat="46.22893" lon="-0.86038">
        <ele>28.2</ele>
        <time>2020-05-31T15:45:12Z</time>
      </trkpt>
      <trkpt lat="46.22893" lon="-0.86038">
        <ele>28.2</ele>
        <time>2020-05-31T15:45:13Z</time>
      </trkpt>
      <trkpt lat="46.22893" lon="-0.86038">
        <ele>28.2</ele>
        <time>2020-05-31T15:45:14Z</time>
      </trkpt>
      <trkpt lat="46.22893" lon="-0.86038">
        <ele>28.2</ele>
        <time>2020-05-31T15:45:15Z</time>
      </trkpt>
      <trkpt lat="46.22893" lon="-0.86038">
        <ele>28.2</ele>
        <time>2020-05-31T15:45:16Z</time>
      </trkpt>
      <trkpt lat="46.22893" lon="-0.86038">
        <ele>28.2</ele>
        <time>2020-05-31T15:45:17Z</time>
      </trkpt>
      <trkpt lat="46.22893" lon="-0.86038">
        <ele>28.2</ele>
        <time>2020-05-31T15:45:18Z</time>
      </trkpt>
      <trkpt lat="46.22893" lon="-0.86038">
        <ele>28.2</ele>
        <time>2020-05-31T15:45:19Z</time>
      </trkpt>
      <trkpt lat="46.22893" lon="-0.86038">
        <ele>28.2</ele>
        <time>2020-05-31T15:45:20Z</time>
      </trkpt>
      <trkpt lat="46.22893" lon="-0.86038">
        <ele>28.2</ele>
        <time>2020-05-31T15:45:21Z</time>
      </trkpt>
      <trkpt lat="46.22893" lon="-0.86038">
        <ele>28.2</ele>
        <time>2020-05-31T15:45:22Z</time>
      </trkpt>
      <trkpt lat="46.22893" lon="-0.86038">
        <ele>28.2</ele>
        <time>2020-05-31T15:45:23Z</time>
      </trkpt>
      <trkpt lat="46.22893" lon="-0.86038">
        <ele>28.2</ele>
        <time>2020-05-31T15:45:24Z</time>
      </trkpt>
      <trkpt lat="46.22893" lon="-0.86038">
        <ele>28.2</ele>
        <time>2020-05-31T15:45:25Z</time>
      </trkpt>
      <trkpt lat="46.22893" lon="-0.86038">
        <ele>28.2</ele>
        <time>2020-05-31T15:45:26Z</time>
      </trkpt>
      <trkpt lat="46.22893" lon="-0.86038">
        <ele>28.2</ele>
        <time>2020-05-31T15:45:27Z</time>
      </trkpt>
      <trkpt lat="46.22893" lon="-0.86038">
        <ele>28.2</ele>
        <time>2020-05-31T15:45:28Z</time>
      </trkpt>
      <trkpt lat="46.22894" lon="-0.86038">
        <ele>28.2</ele>
        <time>2020-05-31T15:45:29Z</time>
      </trkpt>
      <trkpt lat="46.22893" lon="-0.8604">
        <ele>28.2</ele>
        <time>2020-05-31T15:45:30Z</time>
      </trkpt>
      <trkpt lat="46.22894" lon="-0.86039">
        <ele>28.2</ele>
        <time>2020-05-31T15:45:31Z</time>
      </trkpt>
      <trkpt lat="46.22894" lon="-0.86039">
        <ele>28.2</ele>
        <time>2020-05-31T15:45:32Z</time>
      </trkpt>
      <trkpt lat="46.22895" lon="-0.86039">
        <ele>28.2</ele>
        <time>2020-05-31T15:45:33Z</time>
      </trkpt>
      <trkpt lat="46.22895" lon="-0.86039">
        <ele>28.2</ele>
        <time>2020-05-31T15:45:34Z</time>
      </trkpt>
      <trkpt lat="46.22895" lon="-0.8604">
        <ele>28.2</ele>
        <time>2020-05-31T15:45:35Z</time>
      </trkpt>
      <trkpt lat="46.22896" lon="-0.86039">
        <ele>28.2</ele>
        <time>2020-05-31T15:45:36Z</time>
      </trkpt>
      <trkpt lat="46.22896" lon="-0.86039">
        <ele>28.2</ele>
        <time>2020-05-31T15:45:37Z</time>
      </trkpt>
      <trkpt lat="46.22896" lon="-0.86039">
        <ele>28.2</ele>
        <time>2020-05-31T15:45:38Z</time>
      </trkpt>
      <trkpt lat="46.22896" lon="-0.86039">
        <ele>28.2</ele>
        <time>2020-05-31T15:45:39Z</time>
      </trkpt>
      <trkpt lat="46.22896" lon="-0.86039">
        <ele>28.2</ele>
        <time>2020-05-31T15:45:40Z</time>
      </trkpt>
      <trkpt lat="46.22896" lon="-0.86039">
        <ele>28.2</ele>
        <time>2020-05-31T15:45:41Z</time>
      </trkpt>
      <trkpt lat="46.22896" lon="-0.86039">
        <ele>28.2</ele>
        <time>2020-05-31T15:45:42Z</time>
      </trkpt>
      <trkpt lat="46.22896" lon="-0.86039">
        <ele>28.2</ele>
        <time>2020-05-31T15:45:43Z</time>
      </trkpt>
      <trkpt lat="46.22896" lon="-0.86039">
        <ele>28.2</ele>
        <time>2020-05-31T15:45:44Z</time>
      </trkpt>
      <trkpt lat="46.22896" lon="-0.86039">
        <ele>28.2</ele>
        <time>2020-05-31T15:45:45Z</time>
      </trkpt>
      <trkpt lat="46.22896" lon="-0.86039">
        <ele>28.2</ele>
        <time>2020-05-31T15:45:46Z</time>
      </trkpt>
      <trkpt lat="46.22896" lon="-0.86039">
        <ele>28.2</ele>
        <time>2020-05-31T15:45:47Z</time>
      </trkpt>
      <trkpt lat="46.22896" lon="-0.86039">
        <ele>28.2</ele>
        <time>2020-05-31T15:45:49Z</time>
      </trkpt>
      <trkpt lat="46.22896" lon="-0.86039">
        <ele>28.2</ele>
        <time>2020-05-31T15:45:50Z</time>
      </trkpt>
      <trkpt lat="46.22897" lon="-0.86039">
        <ele>28.2</ele>
        <time>2020-05-31T15:45:51Z</time>
      </trkpt>
      <trkpt lat="46.22897" lon="-0.86039">
        <ele>28.2</ele>
        <time>2020-05-31T15:45:52Z</time>
      </trkpt>
      <trkpt lat="46.22897" lon="-0.86039">
        <ele>28.2</ele>
        <time>2020-05-31T15:45:53Z</time>
      </trkpt>
      <trkpt lat="46.22897" lon="-0.86039">
        <ele>28.2</ele>
        <time>2020-05-31T15:45:54Z</time>
      </trkpt>
      <trkpt lat="46.22897" lon="-0.86039">
        <ele>28.2</ele>
        <time>2020-05-31T15:45:55Z</time>
      </trkpt>
      <trkpt lat="46.22897" lon="-0.86039">
        <ele>28.2</ele>
        <time>2020-05-31T15:45:56Z</time>
      </trkpt>
      <trkpt lat="46.22897" lon="-0.86039">
        <ele>28.2</ele>
        <time>2020-05-31T15:45:57Z</time>
      </trkpt>
      <trkpt lat="46.22897" lon="-0.86039">
        <ele>28.2</ele>
        <time>2020-05-31T15:45:58Z</time>
      </trkpt>
      <trkpt lat="46.22897" lon="-0.86039">
        <ele>28.2</ele>
        <time>2020-05-31T15:45:59Z</time>
      </trkpt>
      <trkpt lat="46.22897" lon="-0.86039">
        <ele>28.2</ele>
        <time>2020-05-31T15:46:00Z</time>
      </trkpt>
      <trkpt lat="46.22897" lon="-0.8604">
        <ele>28.2</ele>
        <time>2020-05-31T15:46:01Z</time>
      </trkpt>
      <trkpt lat="46.22896" lon="-0.8604">
        <ele>28.2</ele>
        <time>2020-05-31T15:46:02Z</time>
      </trkpt>
      <trkpt lat="46.22896" lon="-0.8604">
        <ele>28.2</ele>
        <time>2020-05-31T15:46:03Z</time>
      </trkpt>
      <trkpt lat="46.22897" lon="-0.8604">
        <ele>28.2</ele>
        <time>2020-05-31T15:46:04Z</time>
      </trkpt>
      <trkpt lat="46.22897" lon="-0.8604">
        <ele>28.2</ele>
        <time>2020-05-31T15:46:05Z</time>
      </trkpt>
      <trkpt lat="46.22897" lon="-0.86039">
        <ele>28.2</ele>
        <time>2020-05-31T15:46:06Z</time>
      </trkpt>
      <trkpt lat="46.22897" lon="-0.86039">
        <ele>28.2</ele>
        <time>2020-05-31T15:46:07Z</time>
      </trkpt>
      <trkpt lat="46.22897" lon="-0.86039">
        <ele>28.2</ele>
        <time>2020-05-31T15:46:08Z</time>
      </trkpt>
      <trkpt lat="46.22897" lon="-0.86039">
        <ele>28.2</ele>
        <time>2020-05-31T15:46:09Z</time>
      </trkpt>
      <trkpt lat="46.22897" lon="-0.86039">
        <ele>28.2</ele>
        <time>2020-05-31T15:46:10Z</time>
      </trkpt>
      <trkpt lat="46.22897" lon="-0.86039">
        <ele>28.2</ele>
        <time>2020-05-31T15:46:11Z</time>
      </trkpt>
      <trkpt lat="46.22897" lon="-0.86039">
        <ele>28.2</ele>
        <time>2020-05-31T15:46:12Z</time>
      </trkpt>
      <trkpt lat="46.22897" lon="-0.86039">
        <ele>28.2</ele>
        <time>2020-05-31T15:46:13Z</time>
      </trkpt>
      <trkpt lat="46.22897" lon="-0.86039">
        <ele>28.2</ele>
        <time>2020-05-31T15:46:14Z</time>
      </trkpt>
      <trkpt lat="46.22897" lon="-0.86039">
        <ele>28.2</ele>
        <time>2020-05-31T15:46:15Z</time>
      </trkpt>
      <trkpt lat="46.22897" lon="-0.86039">
        <ele>28.2</ele>
        <time>2020-05-31T15:46:16Z</time>
      </trkpt>
      <trkpt lat="46.22897" lon="-0.86039">
        <ele>28.2</ele>
        <time>2020-05-31T15:46:17Z</time>
      </trkpt>
      <trkpt lat="46.22897" lon="-0.86038">
        <ele>28.2</ele>
        <time>2020-05-31T15:46:18Z</time>
      </trkpt>
      <trkpt lat="46.22897" lon="-0.86038">
        <ele>28.2</ele>
        <time>2020-05-31T15:46:19Z</time>
      </trkpt>
      <trkpt lat="46.22897" lon="-0.86038">
        <ele>28.2</ele>
        <time>2020-05-31T15:46:20Z</time>
      </trkpt>
      <trkpt lat="46.22897" lon="-0.86038">
        <ele>28.2</ele>
        <time>2020-05-31T15:46:21Z</time>
      </trkpt>
      <trkpt lat="46.22897" lon="-0.86038">
        <ele>28.2</ele>
        <time>2020-05-31T15:46:22Z</time>
      </trkpt>
      <trkpt lat="46.22897" lon="-0.86038">
        <ele>28.2</ele>
        <time>2020-05-31T15:46:23Z</time>
      </trkpt>
      <trkpt lat="46.22897" lon="-0.86039">
        <ele>28.2</ele>
        <time>2020-05-31T15:46:24Z</time>
      </trkpt>
      <trkpt lat="46.22897" lon="-0.8604">
        <ele>28.2</ele>
        <time>2020-05-31T15:46:25Z</time>
      </trkpt>
      <trkpt lat="46.22897" lon="-0.86041">
        <ele>28.2</ele>
        <time>2020-05-31T15:46:26Z</time>
      </trkpt>
      <trkpt lat="46.22896" lon="-0.86043">
        <ele>28.2</ele>
        <time>2020-05-31T15:46:27Z</time>
      </trkpt>
      <trkpt lat="46.22893" lon="-0.86044">
        <ele>28.2</ele>
        <time>2020-05-31T15:46:28Z</time>
      </trkpt>
      <trkpt lat="46.2289" lon="-0.86046">
        <ele>28.2</ele>
        <time>2020-05-31T15:46:29Z</time>
      </trkpt>
      <trkpt lat="46.22886" lon="-0.8605">
        <ele>28.1</ele>
        <time>2020-05-31T15:46:30Z</time>
      </trkpt>
      <trkpt lat="46.22882" lon="-0.86053">
        <ele>28.1</ele>
        <time>2020-05-31T15:46:31Z</time>
      </trkpt>
      <trkpt lat="46.22877" lon="-0.86057">
        <ele>27.9</ele>
        <time>2020-05-31T15:46:32Z</time>
      </trkpt>
      <trkpt lat="46.22873" lon="-0.86059">
        <ele>27.8</ele>
        <time>2020-05-31T15:46:33Z</time>
      </trkpt>
      <trkpt lat="46.22869" lon="-0.86062">
        <ele>27.8</ele>
        <time>2020-05-31T15:46:34Z</time>
      </trkpt>
      <trkpt lat="46.22864" lon="-0.86065">
        <ele>27.7</ele>
        <time>2020-05-31T15:46:35Z</time>
      </trkpt>
      <trkpt lat="46.2286" lon="-0.86068">
        <ele>27.5</ele>
        <time>2020-05-31T15:46:36Z</time>
      </trkpt>
      <trkpt lat="46.22856" lon="-0.86072">
        <ele>27.4</ele>
        <time>2020-05-31T15:46:37Z</time>
      </trkpt>
      <trkpt lat="46.22851" lon="-0.86075">
        <ele>27.2</ele>
        <time>2020-05-31T15:46:38Z</time>
      </trkpt>
      <trkpt lat="46.22846" lon="-0.86079">
        <ele>27.1</ele>
        <time>2020-05-31T15:46:39Z</time>
      </trkpt>
      <trkpt lat="46.22843" lon="-0.86081">
        <ele>27</ele>
        <time>2020-05-31T15:46:40Z</time>
      </trkpt>
      <trkpt lat="46.22838" lon="-0.86084">
        <ele>26.9</ele>
        <time>2020-05-31T15:46:41Z</time>
      </trkpt>
      <trkpt lat="46.22834" lon="-0.86087">
        <ele>26.8</ele>
        <time>2020-05-31T15:46:42Z</time>
      </trkpt>
      <trkpt lat="46.2283" lon="-0.86091">
        <ele>26.7</ele>
        <time>2020-05-31T15:46:43Z</time>
      </trkpt>
      <trkpt lat="46.22826" lon="-0.86093">
        <ele>26.7</ele>
        <time>2020-05-31T15:46:44Z</time>
      </trkpt>
      <trkpt lat="46.22823" lon="-0.86096">
        <ele>26.6</ele>
        <time>2020-05-31T15:46:45Z</time>
      </trkpt>
      <trkpt lat="46.22819" lon="-0.86098">
        <ele>26.6</ele>
        <time>2020-05-31T15:46:46Z</time>
      </trkpt>
      <trkpt lat="46.22815" lon="-0.86102">
        <ele>26.5</ele>
        <time>2020-05-31T15:46:47Z</time>
      </trkpt>
      <trkpt lat="46.22811" lon="-0.86106">
        <ele>26.3</ele>
        <time>2020-05-31T15:46:48Z</time>
      </trkpt>
      <trkpt lat="46.22806" lon="-0.86109">
        <ele>26.2</ele>
        <time>2020-05-31T15:46:49Z</time>
      </trkpt>
      <trkpt lat="46.22801" lon="-0.8611">
        <ele>26</ele>
        <time>2020-05-31T15:46:50Z</time>
      </trkpt>
      <trkpt lat="46.22795" lon="-0.86111">
        <ele>25.9</ele>
        <time>2020-05-31T15:46:51Z</time>
      </trkpt>
      <trkpt lat="46.22788" lon="-0.86111">
        <ele>25.7</ele>
        <time>2020-05-31T15:46:52Z</time>
      </trkpt>
      <trkpt lat="46.22781" lon="-0.86113">
        <ele>25.5</ele>
        <time>2020-05-31T15:46:53Z</time>
      </trkpt>
      <trkpt lat="46.22775" lon="-0.86115">
        <ele>25.3</ele>
        <time>2020-05-31T15:46:54Z</time>
      </trkpt>
      <trkpt lat="46.2277" lon="-0.86116">
        <ele>25.1</ele>
        <time>2020-05-31T15:46:55Z</time>
      </trkpt>
      <trkpt lat="46.22764" lon="-0.86117">
        <ele>25</ele>
        <time>2020-05-31T15:46:56Z</time>
      </trkpt>
      <trkpt lat="46.22758" lon="-0.86119">
        <ele>24.8</ele>
        <time>2020-05-31T15:46:57Z</time>
      </trkpt>
      <trkpt lat="46.22752" lon="-0.8612">
        <ele>24.7</ele>
        <time>2020-05-31T15:46:58Z</time>
      </trkpt>
      <trkpt lat="46.22746" lon="-0.86122">
        <ele>24.5</ele>
        <time>2020-05-31T15:46:59Z</time>
      </trkpt>
      <trkpt lat="46.2274" lon="-0.86123">
        <ele>24.4</ele>
        <time>2020-05-31T15:47:00Z</time>
      </trkpt>
      <trkpt lat="46.22736" lon="-0.86124">
        <ele>24.4</ele>
        <time>2020-05-31T15:47:01Z</time>
      </trkpt>
      <trkpt lat="46.22733" lon="-0.86125">
        <ele>24.3</ele>
        <time>2020-05-31T15:47:02Z</time>
      </trkpt>
      <trkpt lat="46.22731" lon="-0.86125">
        <ele>24.3</ele>
        <time>2020-05-31T15:47:03Z</time>
      </trkpt>
      <trkpt lat="46.22731" lon="-0.86126">
        <ele>24.3</ele>
        <time>2020-05-31T15:47:04Z</time>
      </trkpt>
      <trkpt lat="46.2273" lon="-0.86131">
        <ele>24.3</ele>
        <time>2020-05-31T15:47:05Z</time>
      </trkpt>
      <trkpt lat="46.2273" lon="-0.86133">
        <ele>24.3</ele>
        <time>2020-05-31T15:47:06Z</time>
      </trkpt>
      <trkpt lat="46.2273" lon="-0.86137">
        <ele>24.3</ele>
        <time>2020-05-31T15:47:07Z</time>
      </trkpt>
      <trkpt lat="46.2273" lon="-0.86142">
        <ele>24.4</ele>
        <time>2020-05-31T15:47:08Z</time>
      </trkpt>
      <trkpt lat="46.2273" lon="-0.86147">
        <ele>24.4</ele>
        <time>2020-05-31T15:47:09Z</time>
      </trkpt>
      <trkpt lat="46.2273" lon="-0.86152">
        <ele>24.4</ele>
        <time>2020-05-31T15:47:10Z</time>
      </trkpt>
      <trkpt lat="46.2273" lon="-0.86157">
        <ele>24.4</ele>
        <time>2020-05-31T15:47:11Z</time>
      </trkpt>
      <trkpt lat="46.2273" lon="-0.86162">
        <ele>24.5</ele>
        <time>2020-05-31T15:47:12Z</time>
      </trkpt>
      <trkpt lat="46.2273" lon="-0.86167">
        <ele>24.5</ele>
        <time>2020-05-31T15:47:13Z</time>
      </trkpt>
      <trkpt lat="46.2273" lon="-0.86173">
        <ele>24.5</ele>
        <time>2020-05-31T15:47:14Z</time>
      </trkpt>
      <trkpt lat="46.2273" lon="-0.86178">
        <ele>24.6</ele>
        <time>2020-05-31T15:47:15Z</time>
      </trkpt>
      <trkpt lat="46.2273" lon="-0.86185">
        <ele>24.6</ele>
        <time>2020-05-31T15:47:16Z</time>
      </trkpt>
      <trkpt lat="46.2273" lon="-0.86191">
        <ele>24.6</ele>
        <time>2020-05-31T15:47:17Z</time>
      </trkpt>
      <trkpt lat="46.2273" lon="-0.86197">
        <ele>24.6</ele>
        <time>2020-05-31T15:47:18Z</time>
      </trkpt>
      <trkpt lat="46.2273" lon="-0.86204">
        <ele>24.6</ele>
        <time>2020-05-31T15:47:19Z</time>
      </trkpt>
      <trkpt lat="46.2273" lon="-0.86212">
        <ele>24.6</ele>
        <time>2020-05-31T15:47:20Z</time>
      </trkpt>
      <trkpt lat="46.2273" lon="-0.86221">
        <ele>24.5</ele>
        <time>2020-05-31T15:47:21Z</time>
      </trkpt>
      <trkpt lat="46.2273" lon="-0.86229">
        <ele>24.5</ele>
        <time>2020-05-31T15:47:22Z</time>
      </trkpt>
      <trkpt lat="46.2273" lon="-0.86238">
        <ele>24.5</ele>
        <time>2020-05-31T15:47:23Z</time>
      </trkpt>
      <trkpt lat="46.22729" lon="-0.86247">
        <ele>24.5</ele>
        <time>2020-05-31T15:47:24Z</time>
      </trkpt>
      <trkpt lat="46.22728" lon="-0.86256">
        <ele>24.5</ele>
        <time>2020-05-31T15:47:25Z</time>
      </trkpt>
      <trkpt lat="46.22727" lon="-0.86265">
        <ele>24.5</ele>
        <time>2020-05-31T15:47:26Z</time>
      </trkpt>
      <trkpt lat="46.22727" lon="-0.86275">
        <ele>24.4</ele>
        <time>2020-05-31T15:47:27Z</time>
      </trkpt>
      <trkpt lat="46.22727" lon="-0.86283">
        <ele>24.4</ele>
        <time>2020-05-31T15:47:28Z</time>
      </trkpt>
      <trkpt lat="46.22727" lon="-0.86291">
        <ele>24.4</ele>
        <time>2020-05-31T15:47:29Z</time>
      </trkpt>
      <trkpt lat="46.22727" lon="-0.863">
        <ele>24.4</ele>
        <time>2020-05-31T15:47:30Z</time>
      </trkpt>
      <trkpt lat="46.22726" lon="-0.86309">
        <ele>24.4</ele>
        <time>2020-05-31T15:47:31Z</time>
      </trkpt>
      <trkpt lat="46.22727" lon="-0.86316">
        <ele>24.4</ele>
        <time>2020-05-31T15:47:32Z</time>
      </trkpt>
      <trkpt lat="46.22727" lon="-0.86321">
        <ele>24.3</ele>
        <time>2020-05-31T15:47:33Z</time>
      </trkpt>
      <trkpt lat="46.22729" lon="-0.86325">
        <ele>24.3</ele>
        <time>2020-05-31T15:47:34Z</time>
      </trkpt>
      <trkpt lat="46.2273" lon="-0.86325">
        <ele>24.6</ele>
        <time>2020-05-31T15:47:35Z</time>
      </trkpt>
      <trkpt lat="46.22734" lon="-0.86323">
        <ele>24.6</ele>
        <time>2020-05-31T15:47:36Z</time>
      </trkpt>
      <trkpt lat="46.22739" lon="-0.86321">
        <ele>24.7</ele>
        <time>2020-05-31T15:47:37Z</time>
      </trkpt>
      <trkpt lat="46.22744" lon="-0.86318">
        <ele>24.8</ele>
        <time>2020-05-31T15:47:38Z</time>
      </trkpt>
      <trkpt lat="46.22748" lon="-0.86315">
        <ele>24.9</ele>
        <time>2020-05-31T15:47:39Z</time>
      </trkpt>
      <trkpt lat="46.22752" lon="-0.86313">
        <ele>25</ele>
        <time>2020-05-31T15:47:40Z</time>
      </trkpt>
      <trkpt lat="46.22755" lon="-0.86312">
        <ele>25.1</ele>
        <time>2020-05-31T15:47:41Z</time>
      </trkpt>
      <trkpt lat="46.22758" lon="-0.86312">
        <ele>25.3</ele>
        <time>2020-05-31T15:47:42Z</time>
      </trkpt>
      <trkpt lat="46.2276" lon="-0.86315">
        <ele>25.3</ele>
        <time>2020-05-31T15:47:43Z</time>
      </trkpt>
      <trkpt lat="46.22762" lon="-0.8632">
        <ele>25.4</ele>
        <time>2020-05-31T15:47:44Z</time>
      </trkpt>
      <trkpt lat="46.22763" lon="-0.86324">
        <ele>25.4</ele>
        <time>2020-05-31T15:47:45Z</time>
      </trkpt>
      <trkpt lat="46.22764" lon="-0.8633">
        <ele>25.5</ele>
        <time>2020-05-31T15:47:46Z</time>
      </trkpt>
      <trkpt lat="46.22765" lon="-0.86335">
        <ele>25.7</ele>
        <time>2020-05-31T15:47:47Z</time>
      </trkpt>
      <trkpt lat="46.22767" lon="-0.8634">
        <ele>25.8</ele>
        <time>2020-05-31T15:47:48Z</time>
      </trkpt>
      <trkpt lat="46.22767" lon="-0.86345">
        <ele>25.9</ele>
        <time>2020-05-31T15:47:49Z</time>
      </trkpt>
      <trkpt lat="46.22768" lon="-0.8635">
        <ele>26</ele>
        <time>2020-05-31T15:47:50Z</time>
      </trkpt>
      <trkpt lat="46.22769" lon="-0.86356">
        <ele>26.1</ele>
        <time>2020-05-31T15:47:51Z</time>
      </trkpt>
      <trkpt lat="46.2277" lon="-0.86361">
        <ele>26.1</ele>
        <time>2020-05-31T15:47:52Z</time>
      </trkpt>
      <trkpt lat="46.22771" lon="-0.86367">
        <ele>26.1</ele>
        <time>2020-05-31T15:47:53Z</time>
      </trkpt>
      <trkpt lat="46.22773" lon="-0.86374">
        <ele>26.1</ele>
        <time>2020-05-31T15:47:54Z</time>
      </trkpt>
      <trkpt lat="46.22774" lon="-0.86379">
        <ele>26.1</ele>
        <time>2020-05-31T15:47:55Z</time>
      </trkpt>
      <trkpt lat="46.22776" lon="-0.86383">
        <ele>26.1</ele>
        <time>2020-05-31T15:47:56Z</time>
      </trkpt>
      <trkpt lat="46.22777" lon="-0.86389">
        <ele>26.1</ele>
        <time>2020-05-31T15:47:57Z</time>
      </trkpt>
      <trkpt lat="46.22778" lon="-0.86394">
        <ele>26.1</ele>
        <time>2020-05-31T15:47:58Z</time>
      </trkpt>
      <trkpt lat="46.22779" lon="-0.86399">
        <ele>26.1</ele>
        <time>2020-05-31T15:47:59Z</time>
      </trkpt>
      <trkpt lat="46.2278" lon="-0.86403">
        <ele>26.1</ele>
        <time>2020-05-31T15:48:00Z</time>
      </trkpt>
      <trkpt lat="46.22781" lon="-0.86405">
        <ele>26.1</ele>
        <time>2020-05-31T15:48:01Z</time>
      </trkpt>
      <trkpt lat="46.22781" lon="-0.86405">
        <ele>26.1</ele>
        <time>2020-05-31T15:48:02Z</time>
      </trkpt>
      <trkpt lat="46.22781" lon="-0.86405">
        <ele>26.1</ele>
        <time>2020-05-31T15:48:03Z</time>
      </trkpt>
      <trkpt lat="46.2278" lon="-0.86406">
        <ele>26.1</ele>
        <time>2020-05-31T15:48:04Z</time>
      </trkpt>
      <trkpt lat="46.22781" lon="-0.86406">
        <ele>26.1</ele>
        <time>2020-05-31T15:48:05Z</time>
      </trkpt>
      <trkpt lat="46.22781" lon="-0.86406">
        <ele>26.1</ele>
        <time>2020-05-31T15:48:06Z</time>
      </trkpt>
      <trkpt lat="46.22782" lon="-0.86406">
        <ele>26.1</ele>
        <time>2020-05-31T15:48:07Z</time>
      </trkpt>
      <trkpt lat="46.22782" lon="-0.86406">
        <ele>26.1</ele>
        <time>2020-05-31T15:48:08Z</time>
      </trkpt>
      <trkpt lat="46.22782" lon="-0.86407">
        <ele>26.1</ele>
        <time>2020-05-31T15:48:09Z</time>
      </trkpt>
      <trkpt lat="46.22782" lon="-0.86407">
        <ele>26.1</ele>
        <time>2020-05-31T15:48:10Z</time>
      </trkpt>
      <trkpt lat="46.22782" lon="-0.86407">
        <ele>26.1</ele>
        <time>2020-05-31T15:48:11Z</time>
      </trkpt>
      <trkpt lat="46.22782" lon="-0.86407">
        <ele>26.1</ele>
        <time>2020-05-31T15:48:12Z</time>
      </trkpt>
      <trkpt lat="46.22782" lon="-0.86407">
        <ele>26.1</ele>
        <time>2020-05-31T15:48:13Z</time>
      </trkpt>
      <trkpt lat="46.22782" lon="-0.86407">
        <ele>26.1</ele>
        <time>2020-05-31T15:48:14Z</time>
      </trkpt>
      <trkpt lat="46.22783" lon="-0.86408">
        <ele>26.1</ele>
        <time>2020-05-31T15:48:15Z</time>
      </trkpt>
      <trkpt lat="46.22783" lon="-0.86408">
        <ele>26.1</ele>
        <time>2020-05-31T15:48:16Z</time>
      </trkpt>
      <trkpt lat="46.22783" lon="-0.86408">
        <ele>26.1</ele>
        <time>2020-05-31T15:48:17Z</time>
      </trkpt>
      <trkpt lat="46.22783" lon="-0.86408">
        <ele>26.1</ele>
        <time>2020-05-31T15:48:18Z</time>
      </trkpt>
      <trkpt lat="46.22783" lon="-0.86408">
        <ele>26.1</ele>
        <time>2020-05-31T15:48:19Z</time>
      </trkpt>
      <trkpt lat="46.22783" lon="-0.86408">
        <ele>26.1</ele>
        <time>2020-05-31T15:48:20Z</time>
      </trkpt>
      <trkpt lat="46.22783" lon="-0.86409">
        <ele>26.1</ele>
        <time>2020-05-31T15:48:21Z</time>
      </trkpt>
      <trkpt lat="46.22783" lon="-0.86409">
        <ele>26.1</ele>
        <time>2020-05-31T15:48:22Z</time>
      </trkpt>
      <trkpt lat="46.22783" lon="-0.86409">
        <ele>26.1</ele>
        <time>2020-05-31T15:48:23Z</time>
      </trkpt>
      <trkpt lat="46.22783" lon="-0.86409">
        <ele>26.1</ele>
        <time>2020-05-31T15:48:24Z</time>
      </trkpt>
      <trkpt lat="46.22783" lon="-0.86409">
        <ele>26.1</ele>
        <time>2020-05-31T15:48:25Z</time>
      </trkpt>
      <trkpt lat="46.22783" lon="-0.86409">
        <ele>26.1</ele>
        <time>2020-05-31T15:48:26Z</time>
      </trkpt>
      <trkpt lat="46.22784" lon="-0.86409">
        <ele>26.1</ele>
        <time>2020-05-31T15:48:27Z</time>
      </trkpt>
      <trkpt lat="46.22784" lon="-0.8641">
        <ele>26.1</ele>
        <time>2020-05-31T15:48:28Z</time>
      </trkpt>
      <trkpt lat="46.22784" lon="-0.8641">
        <ele>26.1</ele>
        <time>2020-05-31T15:48:29Z</time>
      </trkpt>
      <trkpt lat="46.22784" lon="-0.8641">
        <ele>26.1</ele>
        <time>2020-05-31T15:48:30Z</time>
      </trkpt>
      <trkpt lat="46.22784" lon="-0.8641">
        <ele>26.1</ele>
        <time>2020-05-31T15:48:31Z</time>
      </trkpt>
      <trkpt lat="46.22784" lon="-0.8641">
        <ele>26.1</ele>
        <time>2020-05-31T15:48:32Z</time>
      </trkpt>
      <trkpt lat="46.22784" lon="-0.8641">
        <ele>26.1</ele>
        <time>2020-05-31T15:48:33Z</time>
      </trkpt>
      <trkpt lat="46.22784" lon="-0.86411">
        <ele>26.1</ele>
        <time>2020-05-31T15:48:34Z</time>
      </trkpt>
      <trkpt lat="46.22784" lon="-0.86411">
        <ele>26.1</ele>
        <time>2020-05-31T15:48:35Z</time>
      </trkpt>
      <trkpt lat="46.22784" lon="-0.86411">
        <ele>26.1</ele>
        <time>2020-05-31T15:48:36Z</time>
      </trkpt>
      <trkpt lat="46.22784" lon="-0.86411">
        <ele>26.1</ele>
        <time>2020-05-31T15:48:37Z</time>
      </trkpt>
      <trkpt lat="46.22784" lon="-0.86411">
        <ele>26.1</ele>
        <time>2020-05-31T15:48:38Z</time>
      </trkpt>
      <trkpt lat="46.22784" lon="-0.86411">
        <ele>26.1</ele>
        <time>2020-05-31T15:48:39Z</time>
      </trkpt>
      <trkpt lat="46.22785" lon="-0.86415">
        <ele>26.1</ele>
        <time>2020-05-31T15:48:40Z</time>
      </trkpt>
      <trkpt lat="46.22785" lon="-0.86417">
        <ele>26.1</ele>
        <time>2020-05-31T15:48:41Z</time>
      </trkpt>
      <trkpt lat="46.22787" lon="-0.86423">
        <ele>26.1</ele>
        <time>2020-05-31T15:48:42Z</time>
      </trkpt>
      <trkpt lat="46.22787" lon="-0.86424">
        <ele>26.1</ele>
        <time>2020-05-31T15:48:43Z</time>
      </trkpt>
      <trkpt lat="46.22789" lon="-0.86428">
        <ele>26.1</ele>
        <time>2020-05-31T15:48:44Z</time>
      </trkpt>
      <trkpt lat="46.22791" lon="-0.86433">
        <ele>26.2</ele>
        <time>2020-05-31T15:48:45Z</time>
      </trkpt>
      <trkpt lat="46.22792" lon="-0.86439">
        <ele>26.2</ele>
        <time>2020-05-31T15:48:46Z</time>
      </trkpt>
      <trkpt lat="46.22793" lon="-0.86443">
        <ele>26.3</ele>
        <time>2020-05-31T15:48:47Z</time>
      </trkpt>
      <trkpt lat="46.22794" lon="-0.8645">
        <ele>26.4</ele>
        <time>2020-05-31T15:48:48Z</time>
      </trkpt>
      <trkpt lat="46.22795" lon="-0.86456">
        <ele>26.5</ele>
        <time>2020-05-31T15:48:49Z</time>
      </trkpt>
      <trkpt lat="46.22796" lon="-0.86462">
        <ele>26.6</ele>
        <time>2020-05-31T15:48:50Z</time>
      </trkpt>
      <trkpt lat="46.22797" lon="-0.86468">
        <ele>26.6</ele>
        <time>2020-05-31T15:48:51Z</time>
      </trkpt>
      <trkpt lat="46.22797" lon="-0.86475">
        <ele>26.6</ele>
        <time>2020-05-31T15:48:52Z</time>
      </trkpt>
      <trkpt lat="46.22797" lon="-0.86481">
        <ele>26.6</ele>
        <time>2020-05-31T15:48:53Z</time>
      </trkpt>
      <trkpt lat="46.22798" lon="-0.86487">
        <ele>26.4</ele>
        <time>2020-05-31T15:48:54Z</time>
      </trkpt>
      <trkpt lat="46.22798" lon="-0.86494">
        <ele>26.3</ele>
        <time>2020-05-31T15:48:55Z</time>
      </trkpt>
      <trkpt lat="46.22799" lon="-0.865">
        <ele>26.2</ele>
        <time>2020-05-31T15:48:56Z</time>
      </trkpt>
      <trkpt lat="46.228" lon="-0.86506">
        <ele>26</ele>
        <time>2020-05-31T15:48:57Z</time>
      </trkpt>
      <trkpt lat="46.228" lon="-0.86512">
        <ele>26</ele>
        <time>2020-05-31T15:48:58Z</time>
      </trkpt>
      <trkpt lat="46.22801" lon="-0.86518">
        <ele>26</ele>
        <time>2020-05-31T15:48:59Z</time>
      </trkpt>
      <trkpt lat="46.22801" lon="-0.86524">
        <ele>25.9</ele>
        <time>2020-05-31T15:49:00Z</time>
      </trkpt>
      <trkpt lat="46.22801" lon="-0.86529">
        <ele>25.9</ele>
        <time>2020-05-31T15:49:01Z</time>
      </trkpt>
      <trkpt lat="46.22801" lon="-0.86534">
        <ele>25.9</ele>
        <time>2020-05-31T15:49:02Z</time>
      </trkpt>
      <trkpt lat="46.22802" lon="-0.86538">
        <ele>25.9</ele>
        <time>2020-05-31T15:49:03Z</time>
      </trkpt>
      <trkpt lat="46.22802" lon="-0.86543">
        <ele>25.9</ele>
        <time>2020-05-31T15:49:04Z</time>
      </trkpt>
      <trkpt lat="46.22803" lon="-0.86547">
        <ele>25.9</ele>
        <time>2020-05-31T15:49:05Z</time>
      </trkpt>
      <trkpt lat="46.22803" lon="-0.86552">
        <ele>25.9</ele>
        <time>2020-05-31T15:49:06Z</time>
      </trkpt>
      <trkpt lat="46.22804" lon="-0.86559">
        <ele>25.8</ele>
        <time>2020-05-31T15:49:07Z</time>
      </trkpt>
      <trkpt lat="46.22805" lon="-0.86566">
        <ele>25.8</ele>
        <time>2020-05-31T15:49:08Z</time>
      </trkpt>
      <trkpt lat="46.22806" lon="-0.86573">
        <ele>25.8</ele>
        <time>2020-05-31T15:49:09Z</time>
      </trkpt>
      <trkpt lat="46.22807" lon="-0.86578">
        <ele>25.7</ele>
        <time>2020-05-31T15:49:10Z</time>
      </trkpt>
      <trkpt lat="46.22809" lon="-0.86584">
        <ele>25.7</ele>
        <time>2020-05-31T15:49:11Z</time>
      </trkpt>
      <trkpt lat="46.2281" lon="-0.86589">
        <ele>25.6</ele>
        <time>2020-05-31T15:49:12Z</time>
      </trkpt>
      <trkpt lat="46.22811" lon="-0.86594">
        <ele>25.5</ele>
        <time>2020-05-31T15:49:13Z</time>
      </trkpt>
      <trkpt lat="46.22812" lon="-0.866">
        <ele>25.4</ele>
        <time>2020-05-31T15:49:14Z</time>
      </trkpt>
      <trkpt lat="46.22813" lon="-0.86605">
        <ele>25.3</ele>
        <time>2020-05-31T15:49:15Z</time>
      </trkpt>
      <trkpt lat="46.22814" lon="-0.8661">
        <ele>25.1</ele>
        <time>2020-05-31T15:49:16Z</time>
      </trkpt>
      <trkpt lat="46.22815" lon="-0.86615">
        <ele>25</ele>
        <time>2020-05-31T15:49:17Z</time>
      </trkpt>
      <trkpt lat="46.22816" lon="-0.8662">
        <ele>24.9</ele>
        <time>2020-05-31T15:49:18Z</time>
      </trkpt>
      <trkpt lat="46.22817" lon="-0.86625">
        <ele>24.9</ele>
        <time>2020-05-31T15:49:19Z</time>
      </trkpt>
      <trkpt lat="46.22818" lon="-0.8663">
        <ele>24.8</ele>
        <time>2020-05-31T15:49:20Z</time>
      </trkpt>
      <trkpt lat="46.22819" lon="-0.86635">
        <ele>24.8</ele>
        <time>2020-05-31T15:49:21Z</time>
      </trkpt>
      <trkpt lat="46.2282" lon="-0.86639">
        <ele>24.8</ele>
        <time>2020-05-31T15:49:22Z</time>
      </trkpt>
      <trkpt lat="46.2282" lon="-0.86641">
        <ele>24.8</ele>
        <time>2020-05-31T15:49:23Z</time>
      </trkpt>
      <trkpt lat="46.22821" lon="-0.86646">
        <ele>24.7</ele>
        <time>2020-05-31T15:49:24Z</time>
      </trkpt>
      <trkpt lat="46.22821" lon="-0.86648">
        <ele>24.7</ele>
        <time>2020-05-31T15:49:25Z</time>
      </trkpt>
      <trkpt lat="46.22821" lon="-0.86653">
        <ele>24.7</ele>
        <time>2020-05-31T15:49:26Z</time>
      </trkpt>
      <trkpt lat="46.2282" lon="-0.86655">
        <ele>24.7</ele>
        <time>2020-05-31T15:49:27Z</time>
      </trkpt>
      <trkpt lat="46.2282" lon="-0.86659">
        <ele>24.7</ele>
        <time>2020-05-31T15:49:28Z</time>
      </trkpt>
      <trkpt lat="46.22821" lon="-0.8666">
        <ele>24.7</ele>
        <time>2020-05-31T15:49:29Z</time>
      </trkpt>
      <trkpt lat="46.22821" lon="-0.86661">
        <ele>24.7</ele>
        <time>2020-05-31T15:49:30Z</time>
      </trkpt>
      <trkpt lat="46.2282" lon="-0.86665">
        <ele>24.6</ele>
        <time>2020-05-31T15:49:31Z</time>
      </trkpt>
      <trkpt lat="46.2282" lon="-0.86667">
        <ele>24.6</ele>
        <time>2020-05-31T15:49:32Z</time>
      </trkpt>
      <trkpt lat="46.22819" lon="-0.86673">
        <ele>24.6</ele>
        <time>2020-05-31T15:49:33Z</time>
      </trkpt>
      <trkpt lat="46.22819" lon="-0.86675">
        <ele>24.6</ele>
        <time>2020-05-31T15:49:34Z</time>
      </trkpt>
      <trkpt lat="46.22818" lon="-0.86679">
        <ele>24.6</ele>
        <time>2020-05-31T15:49:35Z</time>
      </trkpt>
      <trkpt lat="46.22817" lon="-0.86683">
        <ele>24.5</ele>
        <time>2020-05-31T15:49:36Z</time>
      </trkpt>
      <trkpt lat="46.22817" lon="-0.86687">
        <ele>24.5</ele>
        <time>2020-05-31T15:49:37Z</time>
      </trkpt>
      <trkpt lat="46.22816" lon="-0.86692">
        <ele>24.5</ele>
        <time>2020-05-31T15:49:38Z</time>
      </trkpt>
      <trkpt lat="46.22816" lon="-0.86696">
        <ele>24.5</ele>
        <time>2020-05-31T15:49:39Z</time>
      </trkpt>
      <trkpt lat="46.22815" lon="-0.86701">
        <ele>24.4</ele>
        <time>2020-05-31T15:49:40Z</time>
      </trkpt>
      <trkpt lat="46.22814" lon="-0.86705">
        <ele>24.4</ele>
        <time>2020-05-31T15:49:41Z</time>
      </trkpt>
      <trkpt lat="46.22814" lon="-0.86709">
        <ele>24.4</ele>
        <time>2020-05-31T15:49:42Z</time>
      </trkpt>
      <trkpt lat="46.22813" lon="-0.86713">
        <ele>24.4</ele>
        <time>2020-05-31T15:49:43Z</time>
      </trkpt>
      <trkpt lat="46.22813" lon="-0.86718">
        <ele>24.4</ele>
        <time>2020-05-31T15:49:44Z</time>
      </trkpt>
      <trkpt lat="46.22813" lon="-0.86723">
        <ele>24.3</ele>
        <time>2020-05-31T15:49:45Z</time>
      </trkpt>
      <trkpt lat="46.22813" lon="-0.86727">
        <ele>24.3</ele>
        <time>2020-05-31T15:49:46Z</time>
      </trkpt>
      <trkpt lat="46.22813" lon="-0.86732">
        <ele>24.3</ele>
        <time>2020-05-31T15:49:47Z</time>
      </trkpt>
      <trkpt lat="46.22813" lon="-0.86737">
        <ele>24.3</ele>
        <time>2020-05-31T15:49:48Z</time>
      </trkpt>
      <trkpt lat="46.22814" lon="-0.86743">
        <ele>24.2</ele>
        <time>2020-05-31T15:49:49Z</time>
      </trkpt>
      <trkpt lat="46.22814" lon="-0.86749">
        <ele>24.2</ele>
        <time>2020-05-31T15:49:50Z</time>
      </trkpt>
      <trkpt lat="46.22814" lon="-0.86757">
        <ele>24.2</ele>
        <time>2020-05-31T15:49:51Z</time>
      </trkpt>
      <trkpt lat="46.22815" lon="-0.86764">
        <ele>24.1</ele>
        <time>2020-05-31T15:49:52Z</time>
      </trkpt>
      <trkpt lat="46.22815" lon="-0.86771">
        <ele>24.1</ele>
        <time>2020-05-31T15:49:53Z</time>
      </trkpt>
      <trkpt lat="46.22816" lon="-0.86778">
        <ele>24.1</ele>
        <time>2020-05-31T15:49:54Z</time>
      </trkpt>
      <trkpt lat="46.22818" lon="-0.86785">
        <ele>24</ele>
        <time>2020-05-31T15:49:55Z</time>
      </trkpt>
      <trkpt lat="46.22818" lon="-0.8679">
        <ele>24</ele>
        <time>2020-05-31T15:49:56Z</time>
      </trkpt>
      <trkpt lat="46.22819" lon="-0.86796">
        <ele>24</ele>
        <time>2020-05-31T15:49:57Z</time>
      </trkpt>
      <trkpt lat="46.22819" lon="-0.86803">
        <ele>23.9</ele>
        <time>2020-05-31T15:49:58Z</time>
      </trkpt>
      <trkpt lat="46.2282" lon="-0.86809">
        <ele>23.9</ele>
        <time>2020-05-31T15:49:59Z</time>
      </trkpt>
      <trkpt lat="46.2282" lon="-0.86815">
        <ele>23.9</ele>
        <time>2020-05-31T15:50:00Z</time>
      </trkpt>
      <trkpt lat="46.22821" lon="-0.8682">
        <ele>23.8</ele>
        <time>2020-05-31T15:50:01Z</time>
      </trkpt>
      <trkpt lat="46.22821" lon="-0.86826">
        <ele>23.8</ele>
        <time>2020-05-31T15:50:02Z</time>
      </trkpt>
      <trkpt lat="46.22822" lon="-0.86831">
        <ele>23.8</ele>
        <time>2020-05-31T15:50:03Z</time>
      </trkpt>
      <trkpt lat="46.22823" lon="-0.86836">
        <ele>23.7</ele>
        <time>2020-05-31T15:50:04Z</time>
      </trkpt>
      <trkpt lat="46.22823" lon="-0.86842">
        <ele>23.7</ele>
        <time>2020-05-31T15:50:05Z</time>
      </trkpt>
      <trkpt lat="46.22824" lon="-0.86847">
        <ele>23.7</ele>
        <time>2020-05-31T15:50:06Z</time>
      </trkpt>
      <trkpt lat="46.22825" lon="-0.86853">
        <ele>23.7</ele>
        <time>2020-05-31T15:50:07Z</time>
      </trkpt>
      <trkpt lat="46.22826" lon="-0.86857">
        <ele>23.6</ele>
        <time>2020-05-31T15:50:08Z</time>
      </trkpt>
      <trkpt lat="46.22827" lon="-0.86864">
        <ele>23.6</ele>
        <time>2020-05-31T15:50:09Z</time>
      </trkpt>
      <trkpt lat="46.22827" lon="-0.86868">
        <ele>23.6</ele>
        <time>2020-05-31T15:50:10Z</time>
      </trkpt>
      <trkpt lat="46.22828" lon="-0.86873">
        <ele>23.6</ele>
        <time>2020-05-31T15:50:11Z</time>
      </trkpt>
      <trkpt lat="46.22828" lon="-0.86878">
        <ele>23.5</ele>
        <time>2020-05-31T15:50:12Z</time>
      </trkpt>
      <trkpt lat="46.22828" lon="-0.86883">
        <ele>23.5</ele>
        <time>2020-05-31T15:50:13Z</time>
      </trkpt>
      <trkpt lat="46.22828" lon="-0.86888">
        <ele>23.5</ele>
        <time>2020-05-31T15:50:14Z</time>
      </trkpt>
      <trkpt lat="46.22828" lon="-0.86894">
        <ele>23.4</ele>
        <time>2020-05-31T15:50:15Z</time>
      </trkpt>
      <trkpt lat="46.22829" lon="-0.86899">
        <ele>23.4</ele>
        <time>2020-05-31T15:50:16Z</time>
      </trkpt>
      <trkpt lat="46.2283" lon="-0.86905">
        <ele>23.4</ele>
        <time>2020-05-31T15:50:17Z</time>
      </trkpt>
      <trkpt lat="46.2283" lon="-0.86911">
        <ele>23.4</ele>
        <time>2020-05-31T15:50:18Z</time>
      </trkpt>
      <trkpt lat="46.22832" lon="-0.86916">
        <ele>23.3</ele>
        <time>2020-05-31T15:50:19Z</time>
      </trkpt>
      <trkpt lat="46.22833" lon="-0.86922">
        <ele>23.3</ele>
        <time>2020-05-31T15:50:20Z</time>
      </trkpt>
      <trkpt lat="46.22833" lon="-0.86926">
        <ele>23.3</ele>
        <time>2020-05-31T15:50:21Z</time>
      </trkpt>
      <trkpt lat="46.22833" lon="-0.86931">
        <ele>23.3</ele>
        <time>2020-05-31T15:50:22Z</time>
      </trkpt>
      <trkpt lat="46.22833" lon="-0.86936">
        <ele>23.2</ele>
        <time>2020-05-31T15:50:23Z</time>
      </trkpt>
      <trkpt lat="46.22832" lon="-0.86941">
        <ele>23.2</ele>
        <time>2020-05-31T15:50:24Z</time>
      </trkpt>
      <trkpt lat="46.22833" lon="-0.86945">
        <ele>23.2</ele>
        <time>2020-05-31T15:50:25Z</time>
      </trkpt>
      <trkpt lat="46.22833" lon="-0.86949">
        <ele>23.2</ele>
        <time>2020-05-31T15:50:26Z</time>
      </trkpt>
      <trkpt lat="46.22833" lon="-0.86954">
        <ele>23.1</ele>
        <time>2020-05-31T15:50:27Z</time>
      </trkpt>
      <trkpt lat="46.22833" lon="-0.86955">
        <ele>23.1</ele>
        <time>2020-05-31T15:50:28Z</time>
      </trkpt>
      <trkpt lat="46.22833" lon="-0.86958">
        <ele>23.1</ele>
        <time>2020-05-31T15:50:29Z</time>
      </trkpt>
      <trkpt lat="46.22833" lon="-0.8696">
        <ele>23.1</ele>
        <time>2020-05-31T15:50:30Z</time>
      </trkpt>
      <trkpt lat="46.22833" lon="-0.86961">
        <ele>23.1</ele>
        <time>2020-05-31T15:50:31Z</time>
      </trkpt>
      <trkpt lat="46.22832" lon="-0.86961">
        <ele>23.1</ele>
        <time>2020-05-31T15:50:32Z</time>
      </trkpt>
      <trkpt lat="46.22832" lon="-0.86962">
        <ele>23.1</ele>
        <time>2020-05-31T15:50:33Z</time>
      </trkpt>
      <trkpt lat="46.22832" lon="-0.86963">
        <ele>23.1</ele>
        <time>2020-05-31T15:50:34Z</time>
      </trkpt>
      <trkpt lat="46.22832" lon="-0.86964">
        <ele>23.1</ele>
        <time>2020-05-31T15:50:35Z</time>
      </trkpt>
      <trkpt lat="46.22832" lon="-0.86965">
        <ele>23.1</ele>
        <time>2020-05-31T15:50:36Z</time>
      </trkpt>
      <trkpt lat="46.22831" lon="-0.86966">
        <ele>23.1</ele>
        <time>2020-05-31T15:50:37Z</time>
      </trkpt>
      <trkpt lat="46.22831" lon="-0.86967">
        <ele>23.1</ele>
        <time>2020-05-31T15:50:38Z</time>
      </trkpt>
      <trkpt lat="46.22831" lon="-0.86968">
        <ele>23.1</ele>
        <time>2020-05-31T15:50:39Z</time>
      </trkpt>
      <trkpt lat="46.2283" lon="-0.86968">
        <ele>23.1</ele>
        <time>2020-05-31T15:50:40Z</time>
      </trkpt>
      <trkpt lat="46.22829" lon="-0.86968">
        <ele>23.1</ele>
        <time>2020-05-31T15:50:41Z</time>
      </trkpt>
      <trkpt lat="46.22828" lon="-0.86968">
        <ele>23.2</ele>
        <time>2020-05-31T15:50:42Z</time>
      </trkpt>
      <trkpt lat="46.22827" lon="-0.86968">
        <ele>23.2</ele>
        <time>2020-05-31T15:50:43Z</time>
      </trkpt>
      <trkpt lat="46.22827" lon="-0.86966">
        <ele>23.2</ele>
        <time>2020-05-31T15:50:44Z</time>
      </trkpt>
      <trkpt lat="46.22827" lon="-0.86966">
        <ele>23.2</ele>
        <time>2020-05-31T15:50:45Z</time>
      </trkpt>
      <trkpt lat="46.22827" lon="-0.86966">
        <ele>23.2</ele>
        <time>2020-05-31T15:50:46Z</time>
      </trkpt>
      <trkpt lat="46.22827" lon="-0.86966">
        <ele>23.2</ele>
        <time>2020-05-31T15:50:47Z</time>
      </trkpt>
      <trkpt lat="46.22827" lon="-0.86966">
        <ele>23.2</ele>
        <time>2020-05-31T15:50:48Z</time>
      </trkpt>
      <trkpt lat="46.22827" lon="-0.86966">
        <ele>23.2</ele>
        <time>2020-05-31T15:50:49Z</time>
      </trkpt>
      <trkpt lat="46.22827" lon="-0.86966">
        <ele>23.2</ele>
        <time>2020-05-31T15:50:50Z</time>
      </trkpt>
      <trkpt lat="46.22827" lon="-0.86966">
        <ele>23.2</ele>
        <time>2020-05-31T15:50:51Z</time>
      </trkpt>
      <trkpt lat="46.22827" lon="-0.86966">
        <ele>23.2</ele>
        <time>2020-05-31T15:50:52Z</time>
      </trkpt>
      <trkpt lat="46.22827" lon="-0.86966">
        <ele>23.2</ele>
        <time>2020-05-31T15:50:53Z</time>
      </trkpt>
      <trkpt lat="46.22827" lon="-0.86966">
        <ele>23.2</ele>
        <time>2020-05-31T15:50:54Z</time>
      </trkpt>
      <trkpt lat="46.22827" lon="-0.86966">
        <ele>23.2</ele>
        <time>2020-05-31T15:50:55Z</time>
      </trkpt>
      <trkpt lat="46.22827" lon="-0.86966">
        <ele>23.2</ele>
        <time>2020-05-31T15:50:56Z</time>
      </trkpt>
      <trkpt lat="46.22827" lon="-0.86966">
        <ele>23.2</ele>
        <time>2020-05-31T15:50:57Z</time>
      </trkpt>
      <trkpt lat="46.22827" lon="-0.86966">
        <ele>23.2</ele>
        <time>2020-05-31T15:50:58Z</time>
      </trkpt>
      <trkpt lat="46.22827" lon="-0.86966">
        <ele>23.2</ele>
        <time>2020-05-31T15:50:59Z</time>
      </trkpt>
      <trkpt lat="46.22827" lon="-0.86965">
        <ele>23.2</ele>
        <time>2020-05-31T15:51:00Z</time>
      </trkpt>
      <trkpt lat="46.22827" lon="-0.86965">
        <ele>23.2</ele>
        <time>2020-05-31T15:51:01Z</time>
      </trkpt>
      <trkpt lat="46.22827" lon="-0.86965">
        <ele>23.2</ele>
        <time>2020-05-31T15:51:02Z</time>
      </trkpt>
      <trkpt lat="46.22828" lon="-0.86965">
        <ele>23.2</ele>
        <time>2020-05-31T15:51:03Z</time>
      </trkpt>
      <trkpt lat="46.22828" lon="-0.86965">
        <ele>23.2</ele>
        <time>2020-05-31T15:51:04Z</time>
      </trkpt>
      <trkpt lat="46.22828" lon="-0.86965">
        <ele>23.2</ele>
        <time>2020-05-31T15:51:05Z</time>
      </trkpt>
      <trkpt lat="46.22827" lon="-0.86965">
        <ele>23.2</ele>
        <time>2020-05-31T15:51:06Z</time>
      </trkpt>
      <trkpt lat="46.22827" lon="-0.86965">
        <ele>23.2</ele>
        <time>2020-05-31T15:51:07Z</time>
      </trkpt>
      <trkpt lat="46.22827" lon="-0.86965">
        <ele>23.2</ele>
        <time>2020-05-31T15:51:08Z</time>
      </trkpt>
      <trkpt lat="46.22827" lon="-0.86965">
        <ele>23.2</ele>
        <time>2020-05-31T15:51:09Z</time>
      </trkpt>
      <trkpt lat="46.22827" lon="-0.86965">
        <ele>23.2</ele>
        <time>2020-05-31T15:51:10Z</time>
      </trkpt>
      <trkpt lat="46.22828" lon="-0.86966">
        <ele>23.2</ele>
        <time>2020-05-31T15:51:11Z</time>
      </trkpt>
      <trkpt lat="46.22828" lon="-0.86966">
        <ele>23.2</ele>
        <time>2020-05-31T15:51:12Z</time>
      </trkpt>
      <trkpt lat="46.22828" lon="-0.86966">
        <ele>23.2</ele>
        <time>2020-05-31T15:51:13Z</time>
      </trkpt>
      <trkpt lat="46.22828" lon="-0.86966">
        <ele>23.2</ele>
        <time>2020-05-31T15:51:14Z</time>
      </trkpt>
      <trkpt lat="46.22828" lon="-0.86966">
        <ele>23.2</ele>
        <time>2020-05-31T15:51:15Z</time>
      </trkpt>
      <trkpt lat="46.22828" lon="-0.86966">
        <ele>23.2</ele>
        <time>2020-05-31T15:51:16Z</time>
      </trkpt>
      <trkpt lat="46.22828" lon="-0.86966">
        <ele>23.2</ele>
        <time>2020-05-31T15:51:17Z</time>
      </trkpt>
      <trkpt lat="46.22828" lon="-0.86966">
        <ele>23.2</ele>
        <time>2020-05-31T15:51:18Z</time>
      </trkpt>
      <trkpt lat="46.22828" lon="-0.86966">
        <ele>23.2</ele>
        <time>2020-05-31T15:51:19Z</time>
      </trkpt>
      <trkpt lat="46.22828" lon="-0.86966">
        <ele>23.2</ele>
        <time>2020-05-31T15:51:20Z</time>
      </trkpt>
      <trkpt lat="46.22828" lon="-0.86966">
        <ele>23.2</ele>
        <time>2020-05-31T15:51:21Z</time>
      </trkpt>
      <trkpt lat="46.22828" lon="-0.86967">
        <ele>23.2</ele>
        <time>2020-05-31T15:51:22Z</time>
      </trkpt>
      <trkpt lat="46.22828" lon="-0.86967">
        <ele>23.2</ele>
        <time>2020-05-31T15:51:23Z</time>
      </trkpt>
      <trkpt lat="46.22828" lon="-0.86967">
        <ele>23.2</ele>
        <time>2020-05-31T15:51:24Z</time>
      </trkpt>
      <trkpt lat="46.22828" lon="-0.86967">
        <ele>23.2</ele>
        <time>2020-05-31T15:51:25Z</time>
      </trkpt>
      <trkpt lat="46.22828" lon="-0.86967">
        <ele>23.2</ele>
        <time>2020-05-31T15:51:26Z</time>
      </trkpt>
      <trkpt lat="46.22828" lon="-0.86967">
        <ele>23.2</ele>
        <time>2020-05-31T15:51:27Z</time>
      </trkpt>
      <trkpt lat="46.22829" lon="-0.86967">
        <ele>23.2</ele>
        <time>2020-05-31T15:51:28Z</time>
      </trkpt>
      <trkpt lat="46.22829" lon="-0.86967">
        <ele>23.2</ele>
        <time>2020-05-31T15:51:29Z</time>
      </trkpt>
      <trkpt lat="46.22829" lon="-0.86967">
        <ele>23.2</ele>
        <time>2020-05-31T15:51:30Z</time>
      </trkpt>
      <trkpt lat="46.22829" lon="-0.86968">
        <ele>23.2</ele>
        <time>2020-05-31T15:51:31Z</time>
      </trkpt>
      <trkpt lat="46.22829" lon="-0.86968">
        <ele>23.2</ele>
        <time>2020-05-31T15:51:32Z</time>
      </trkpt>
      <trkpt lat="46.22829" lon="-0.86968">
        <ele>23.2</ele>
        <time>2020-05-31T15:51:33Z</time>
      </trkpt>
      <trkpt lat="46.22829" lon="-0.86968">
        <ele>23.2</ele>
        <time>2020-05-31T15:51:34Z</time>
      </trkpt>
      <trkpt lat="46.22829" lon="-0.86968">
        <ele>23.2</ele>
        <time>2020-05-31T15:51:36Z</time>
      </trkpt>
      <trkpt lat="46.22829" lon="-0.86968">
        <ele>23.2</ele>
        <time>2020-05-31T15:51:37Z</time>
      </trkpt>
      <trkpt lat="46.2283" lon="-0.86968">
        <ele>23.2</ele>
        <time>2020-05-31T15:51:38Z</time>
      </trkpt>
      <trkpt lat="46.2283" lon="-0.86968">
        <ele>23.2</ele>
        <time>2020-05-31T15:51:39Z</time>
      </trkpt>
      <trkpt lat="46.2283" lon="-0.86968">
        <ele>23.2</ele>
        <time>2020-05-31T15:51:40Z</time>
      </trkpt>
      <trkpt lat="46.2283" lon="-0.86968">
        <ele>23.2</ele>
        <time>2020-05-31T15:51:41Z</time>
      </trkpt>
      <trkpt lat="46.2283" lon="-0.86968">
        <ele>23.2</ele>
        <time>2020-05-31T15:51:42Z</time>
      </trkpt>
      <trkpt lat="46.2283" lon="-0.86968">
        <ele>23.2</ele>
        <time>2020-05-31T15:51:43Z</time>
      </trkpt>
      <trkpt lat="46.2283" lon="-0.86968">
        <ele>23.2</ele>
        <time>2020-05-31T15:51:44Z</time>
      </trkpt>
      <trkpt lat="46.2283" lon="-0.86968">
        <ele>23.2</ele>
        <time>2020-05-31T15:51:45Z</time>
      </trkpt>
      <trkpt lat="46.2283" lon="-0.86968">
        <ele>23.2</ele>
        <time>2020-05-31T15:51:46Z</time>
      </trkpt>
      <trkpt lat="46.2283" lon="-0.86968">
        <ele>23.2</ele>
        <time>2020-05-31T15:51:47Z</time>
      </trkpt>
      <trkpt lat="46.2283" lon="-0.86968">
        <ele>23.2</ele>
        <time>2020-05-31T15:51:48Z</time>
      </trkpt>
      <trkpt lat="46.2283" lon="-0.86968">
        <ele>23.2</ele>
        <time>2020-05-31T15:51:49Z</time>
      </trkpt>
      <trkpt lat="46.2283" lon="-0.86968">
        <ele>23.2</ele>
        <time>2020-05-31T15:51:50Z</time>
      </trkpt>
      <trkpt lat="46.2283" lon="-0.86968">
        <ele>23.2</ele>
        <time>2020-05-31T15:51:51Z</time>
      </trkpt>
      <trkpt lat="46.2283" lon="-0.86968">
        <ele>23.2</ele>
        <time>2020-05-31T15:51:52Z</time>
      </trkpt>
      <trkpt lat="46.2283" lon="-0.86968">
        <ele>23.2</ele>
        <time>2020-05-31T15:51:53Z</time>
      </trkpt>
      <trkpt lat="46.2283" lon="-0.86968">
        <ele>23.2</ele>
        <time>2020-05-31T15:51:54Z</time>
      </trkpt>
      <trkpt lat="46.2283" lon="-0.86968">
        <ele>23.2</ele>
        <time>2020-05-31T15:51:55Z</time>
      </trkpt>
      <trkpt lat="46.2283" lon="-0.86968">
        <ele>23.2</ele>
        <time>2020-05-31T15:51:56Z</time>
      </trkpt>
      <trkpt lat="46.2283" lon="-0.86968">
        <ele>23.2</ele>
        <time>2020-05-31T15:51:57Z</time>
      </trkpt>
      <trkpt lat="46.2283" lon="-0.86968">
        <ele>23.2</ele>
        <time>2020-05-31T15:51:58Z</time>
      </trkpt>
      <trkpt lat="46.2283" lon="-0.86968">
        <ele>23.2</ele>
        <time>2020-05-31T15:51:59Z</time>
      </trkpt>
      <trkpt lat="46.2283" lon="-0.86968">
        <ele>23.2</ele>
        <time>2020-05-31T15:52:00Z</time>
      </trkpt>
      <trkpt lat="46.22831" lon="-0.86968">
        <ele>23.2</ele>
        <time>2020-05-31T15:52:01Z</time>
      </trkpt>
      <trkpt lat="46.22831" lon="-0.86968">
        <ele>23.2</ele>
        <time>2020-05-31T15:52:02Z</time>
      </trkpt>
      <trkpt lat="46.22831" lon="-0.86968">
        <ele>23.2</ele>
        <time>2020-05-31T15:52:03Z</time>
      </trkpt>
      <trkpt lat="46.22831" lon="-0.86968">
        <ele>23.2</ele>
        <time>2020-05-31T15:52:04Z</time>
      </trkpt>
      <trkpt lat="46.22831" lon="-0.86968">
        <ele>23.2</ele>
        <time>2020-05-31T15:52:05Z</time>
      </trkpt>
      <trkpt lat="46.22831" lon="-0.86968">
        <ele>23.2</ele>
        <time>2020-05-31T15:52:06Z</time>
      </trkpt>
      <trkpt lat="46.22831" lon="-0.86968">
        <ele>23.2</ele>
        <time>2020-05-31T15:52:07Z</time>
      </trkpt>
      <trkpt lat="46.22831" lon="-0.86968">
        <ele>23.2</ele>
        <time>2020-05-31T15:52:08Z</time>
      </trkpt>
      <trkpt lat="46.2283" lon="-0.86968">
        <ele>23.2</ele>
        <time>2020-05-31T15:52:09Z</time>
      </trkpt>
      <trkpt lat="46.22831" lon="-0.86968">
        <ele>23.2</ele>
        <time>2020-05-31T15:52:10Z</time>
      </trkpt>
      <trkpt lat="46.22831" lon="-0.86968">
        <ele>23.2</ele>
        <time>2020-05-31T15:52:11Z</time>
      </trkpt>
      <trkpt lat="46.22831" lon="-0.86968">
        <ele>23.2</ele>
        <time>2020-05-31T15:52:12Z</time>
      </trkpt>
      <trkpt lat="46.22831" lon="-0.86968">
        <ele>23.2</ele>
        <time>2020-05-31T15:52:13Z</time>
      </trkpt>
      <trkpt lat="46.22831" lon="-0.86968">
        <ele>23.2</ele>
        <time>2020-05-31T15:52:14Z</time>
      </trkpt>
      <trkpt lat="46.22831" lon="-0.86968">
        <ele>23.2</ele>
        <time>2020-05-31T15:52:15Z</time>
      </trkpt>
      <trkpt lat="46.22831" lon="-0.86968">
        <ele>23.2</ele>
        <time>2020-05-31T15:52:16Z</time>
      </trkpt>
      <trkpt lat="46.22831" lon="-0.86968">
        <ele>23.2</ele>
        <time>2020-05-31T15:52:17Z</time>
      </trkpt>
      <trkpt lat="46.22831" lon="-0.86968">
        <ele>23.2</ele>
        <time>2020-05-31T15:52:18Z</time>
      </trkpt>
      <trkpt lat="46.22831" lon="-0.86968">
        <ele>23.2</ele>
        <time>2020-05-31T15:52:19Z</time>
      </trkpt>
      <trkpt lat="46.22831" lon="-0.86968">
        <ele>23.2</ele>
        <time>2020-05-31T15:52:20Z</time>
      </trkpt>
      <trkpt lat="46.22831" lon="-0.86968">
        <ele>23.2</ele>
        <time>2020-05-31T15:52:21Z</time>
      </trkpt>
      <trkpt lat="46.22831" lon="-0.86968">
        <ele>23.2</ele>
        <time>2020-05-31T15:52:22Z</time>
      </trkpt>
      <trkpt lat="46.22831" lon="-0.86968">
        <ele>23.2</ele>
        <time>2020-05-31T15:52:23Z</time>
      </trkpt>
      <trkpt lat="46.22831" lon="-0.86968">
        <ele>23.2</ele>
        <time>2020-05-31T15:52:24Z</time>
      </trkpt>
      <trkpt lat="46.22831" lon="-0.86968">
        <ele>23.2</ele>
        <time>2020-05-31T15:52:25Z</time>
      </trkpt>
      <trkpt lat="46.22831" lon="-0.86968">
        <ele>23.2</ele>
        <time>2020-05-31T15:52:26Z</time>
      </trkpt>
      <trkpt lat="46.22831" lon="-0.86968">
        <ele>23.2</ele>
        <time>2020-05-31T15:52:27Z</time>
      </trkpt>
      <trkpt lat="46.22831" lon="-0.86968">
        <ele>23.2</ele>
        <time>2020-05-31T15:52:28Z</time>
      </trkpt>
      <trkpt lat="46.22831" lon="-0.86968">
        <ele>23.2</ele>
        <time>2020-05-31T15:52:29Z</time>
      </trkpt>
      <trkpt lat="46.22831" lon="-0.86968">
        <ele>23.2</ele>
        <time>2020-05-31T15:52:30Z</time>
      </trkpt>
      <trkpt lat="46.22831" lon="-0.86968">
        <ele>23.2</ele>
        <time>2020-05-31T15:52:31Z</time>
      </trkpt>
      <trkpt lat="46.22831" lon="-0.86968">
        <ele>23.2</ele>
        <time>2020-05-31T15:52:32Z</time>
      </trkpt>
      <trkpt lat="46.22831" lon="-0.86968">
        <ele>23.2</ele>
        <time>2020-05-31T15:52:33Z</time>
      </trkpt>
      <trkpt lat="46.22831" lon="-0.86968">
        <ele>23.2</ele>
        <time>2020-05-31T15:52:34Z</time>
      </trkpt>
      <trkpt lat="46.22831" lon="-0.86968">
        <ele>23.2</ele>
        <time>2020-05-31T15:52:35Z</time>
      </trkpt>
      <trkpt lat="46.22831" lon="-0.86968">
        <ele>23.2</ele>
        <time>2020-05-31T15:52:36Z</time>
      </trkpt>
      <trkpt lat="46.22831" lon="-0.86968">
        <ele>23.2</ele>
        <time>2020-05-31T15:52:37Z</time>
      </trkpt>
      <trkpt lat="46.22831" lon="-0.86968">
        <ele>23.2</ele>
        <time>2020-05-31T15:52:38Z</time>
      </trkpt>
      <trkpt lat="46.22831" lon="-0.86968">
        <ele>23.2</ele>
        <time>2020-05-31T15:52:39Z</time>
      </trkpt>
      <trkpt lat="46.22831" lon="-0.86968">
        <ele>23.2</ele>
        <time>2020-05-31T15:52:40Z</time>
      </trkpt>
      <trkpt lat="46.22831" lon="-0.86968">
        <ele>23.2</ele>
        <time>2020-05-31T15:52:41Z</time>
      </trkpt>
      <trkpt lat="46.22831" lon="-0.86968">
        <ele>23.2</ele>
        <time>2020-05-31T15:52:42Z</time>
      </trkpt>
      <trkpt lat="46.22831" lon="-0.86968">
        <ele>23.2</ele>
        <time>2020-05-31T15:52:43Z</time>
      </trkpt>
      <trkpt lat="46.22831" lon="-0.86968">
        <ele>23.2</ele>
        <time>2020-05-31T15:52:44Z</time>
      </trkpt>
      <trkpt lat="46.22831" lon="-0.86968">
        <ele>23.2</ele>
        <time>2020-05-31T15:52:45Z</time>
      </trkpt>
      <trkpt lat="46.22831" lon="-0.86968">
        <ele>23.2</ele>
        <time>2020-05-31T15:52:46Z</time>
      </trkpt>
      <trkpt lat="46.22831" lon="-0.86969">
        <ele>23.2</ele>
        <time>2020-05-31T15:52:47Z</time>
      </trkpt>
      <trkpt lat="46.22831" lon="-0.86969">
        <ele>23.2</ele>
        <time>2020-05-31T15:52:48Z</time>
      </trkpt>
      <trkpt lat="46.22831" lon="-0.86969">
        <ele>23.2</ele>
        <time>2020-05-31T15:52:49Z</time>
      </trkpt>
      <trkpt lat="46.22831" lon="-0.86969">
        <ele>23.2</ele>
        <time>2020-05-31T15:52:50Z</time>
      </trkpt>
      <trkpt lat="46.22831" lon="-0.86968">
        <ele>23.2</ele>
        <time>2020-05-31T15:52:51Z</time>
      </trkpt>
      <trkpt lat="46.22831" lon="-0.86968">
        <ele>23.2</ele>
        <time>2020-05-31T15:52:52Z</time>
      </trkpt>
      <trkpt lat="46.22831" lon="-0.86968">
        <ele>23.2</ele>
        <time>2020-05-31T15:52:53Z</time>
      </trkpt>
      <trkpt lat="46.22831" lon="-0.86968">
        <ele>23.2</ele>
        <time>2020-05-31T15:52:54Z</time>
      </trkpt>
      <trkpt lat="46.22831" lon="-0.86968">
        <ele>23.2</ele>
        <time>2020-05-31T15:52:55Z</time>
      </trkpt>
      <trkpt lat="46.22831" lon="-0.86968">
        <ele>23.2</ele>
        <time>2020-05-31T15:52:56Z</time>
      </trkpt>
      <trkpt lat="46.22831" lon="-0.86968">
        <ele>23.2</ele>
        <time>2020-05-31T15:52:57Z</time>
      </trkpt>
      <trkpt lat="46.22831" lon="-0.86968">
        <ele>23.2</ele>
        <time>2020-05-31T15:52:58Z</time>
      </trkpt>
      <trkpt lat="46.22831" lon="-0.86971">
        <ele>23.2</ele>
        <time>2020-05-31T15:52:59Z</time>
      </trkpt>
      <trkpt lat="46.22831" lon="-0.86973">
        <ele>23.2</ele>
        <time>2020-05-31T15:53:00Z</time>
      </trkpt>
      <trkpt lat="46.22831" lon="-0.86974">
        <ele>23.2</ele>
        <time>2020-05-31T15:53:01Z</time>
      </trkpt>
      <trkpt lat="46.22831" lon="-0.86975">
        <ele>23.2</ele>
        <time>2020-05-31T15:53:02Z</time>
      </trkpt>
      <trkpt lat="46.22831" lon="-0.86975">
        <ele>23.2</ele>
        <time>2020-05-31T15:53:03Z</time>
      </trkpt>
      <trkpt lat="46.22831" lon="-0.86975">
        <ele>23.2</ele>
        <time>2020-05-31T15:53:04Z</time>
      </trkpt>
      <trkpt lat="46.22831" lon="-0.86975">
        <ele>23.2</ele>
        <time>2020-05-31T15:53:05Z</time>
      </trkpt>
      <trkpt lat="46.22831" lon="-0.86975">
        <ele>23.2</ele>
        <time>2020-05-31T15:53:06Z</time>
      </trkpt>
      <trkpt lat="46.22831" lon="-0.86976">
        <ele>23.3</ele>
        <time>2020-05-31T15:53:07Z</time>
      </trkpt>
      <trkpt lat="46.22831" lon="-0.86976">
        <ele>23.3</ele>
        <time>2020-05-31T15:53:08Z</time>
      </trkpt>
      <trkpt lat="46.22831" lon="-0.86976">
        <ele>23.3</ele>
        <time>2020-05-31T15:53:09Z</time>
      </trkpt>
      <trkpt lat="46.22831" lon="-0.86976">
        <ele>23.3</ele>
        <time>2020-05-31T15:53:10Z</time>
      </trkpt>
      <trkpt lat="46.22831" lon="-0.86976">
        <ele>23.3</ele>
        <time>2020-05-31T15:53:11Z</time>
      </trkpt>
      <trkpt lat="46.22831" lon="-0.86976">
        <ele>23.3</ele>
        <time>2020-05-31T15:53:12Z</time>
      </trkpt>
      <trkpt lat="46.22831" lon="-0.86976">
        <ele>23.3</ele>
        <time>2020-05-31T15:53:13Z</time>
      </trkpt>
      <trkpt lat="46.22831" lon="-0.86976">
        <ele>23.3</ele>
        <time>2020-05-31T15:53:14Z</time>
      </trkpt>
      <trkpt lat="46.22831" lon="-0.86976">
        <ele>23.3</ele>
        <time>2020-05-31T15:53:15Z</time>
      </trkpt>
      <trkpt lat="46.22831" lon="-0.86975">
        <ele>23.3</ele>
        <time>2020-05-31T15:53:16Z</time>
      </trkpt>
      <trkpt lat="46.22831" lon="-0.86975">
        <ele>23.3</ele>
        <time>2020-05-31T15:53:17Z</time>
      </trkpt>
      <trkpt lat="46.22831" lon="-0.86975">
        <ele>23.3</ele>
        <time>2020-05-31T15:53:18Z</time>
      </trkpt>
      <trkpt lat="46.22831" lon="-0.86975">
        <ele>23.3</ele>
        <time>2020-05-31T15:53:19Z</time>
      </trkpt>
      <trkpt lat="46.22831" lon="-0.86975">
        <ele>23.3</ele>
        <time>2020-05-31T15:53:20Z</time>
      </trkpt>
      <trkpt lat="46.22831" lon="-0.86975">
        <ele>23.3</ele>
        <time>2020-05-31T15:53:21Z</time>
      </trkpt>
      <trkpt lat="46.22831" lon="-0.86975">
        <ele>23.3</ele>
        <time>2020-05-31T15:53:22Z</time>
      </trkpt>
      <trkpt lat="46.22831" lon="-0.86975">
        <ele>23.3</ele>
        <time>2020-05-31T15:53:23Z</time>
      </trkpt>
      <trkpt lat="46.22831" lon="-0.86975">
        <ele>23.3</ele>
        <time>2020-05-31T15:53:24Z</time>
      </trkpt>
      <trkpt lat="46.22831" lon="-0.86975">
        <ele>23.3</ele>
        <time>2020-05-31T15:53:25Z</time>
      </trkpt>
      <trkpt lat="46.22831" lon="-0.86975">
        <ele>23.3</ele>
        <time>2020-05-31T15:53:26Z</time>
      </trkpt>
      <trkpt lat="46.22831" lon="-0.86975">
        <ele>23.3</ele>
        <time>2020-05-31T15:53:27Z</time>
      </trkpt>
      <trkpt lat="46.22831" lon="-0.86975">
        <ele>23.3</ele>
        <time>2020-05-31T15:53:28Z</time>
      </trkpt>
      <trkpt lat="46.22832" lon="-0.86975">
        <ele>23.3</ele>
        <time>2020-05-31T15:53:29Z</time>
      </trkpt>
      <trkpt lat="46.22832" lon="-0.86976">
        <ele>23.3</ele>
        <time>2020-05-31T15:53:30Z</time>
      </trkpt>
      <trkpt lat="46.22832" lon="-0.86976">
        <ele>23.3</ele>
        <time>2020-05-31T15:53:31Z</time>
      </trkpt>
      <trkpt lat="46.22832" lon="-0.86976">
        <ele>23.3</ele>
        <time>2020-05-31T15:53:32Z</time>
      </trkpt>
      <trkpt lat="46.22832" lon="-0.86976">
        <ele>23.3</ele>
        <time>2020-05-31T15:53:33Z</time>
      </trkpt>
      <trkpt lat="46.22832" lon="-0.86976">
        <ele>23.3</ele>
        <time>2020-05-31T15:53:34Z</time>
      </trkpt>
      <trkpt lat="46.22832" lon="-0.86976">
        <ele>23.3</ele>
        <time>2020-05-31T15:53:35Z</time>
      </trkpt>
      <trkpt lat="46.22832" lon="-0.86976">
        <ele>23.3</ele>
        <time>2020-05-31T15:53:36Z</time>
      </trkpt>
      <trkpt lat="46.22832" lon="-0.86976">
        <ele>23.3</ele>
        <time>2020-05-31T15:53:37Z</time>
      </trkpt>
      <trkpt lat="46.22832" lon="-0.86976">
        <ele>23.3</ele>
        <time>2020-05-31T15:53:38Z</time>
      </trkpt>
      <trkpt lat="46.22832" lon="-0.86976">
        <ele>23.3</ele>
        <time>2020-05-31T15:53:39Z</time>
      </trkpt>
      <trkpt lat="46.22832" lon="-0.86976">
        <ele>23.3</ele>
        <time>2020-05-31T15:53:40Z</time>
      </trkpt>
      <trkpt lat="46.22832" lon="-0.86976">
        <ele>23.3</ele>
        <time>2020-05-31T15:53:41Z</time>
      </trkpt>
      <trkpt lat="46.22832" lon="-0.86976">
        <ele>23.3</ele>
        <time>2020-05-31T15:53:42Z</time>
      </trkpt>
      <trkpt lat="46.22832" lon="-0.86976">
        <ele>23.3</ele>
        <time>2020-05-31T15:53:43Z</time>
      </trkpt>
      <trkpt lat="46.22832" lon="-0.86976">
        <ele>23.3</ele>
        <time>2020-05-31T15:53:44Z</time>
      </trkpt>
      <trkpt lat="46.22832" lon="-0.86976">
        <ele>23.3</ele>
        <time>2020-05-31T15:53:45Z</time>
      </trkpt>
      <trkpt lat="46.22832" lon="-0.86976">
        <ele>23.3</ele>
        <time>2020-05-31T15:53:46Z</time>
      </trkpt>
      <trkpt lat="46.22832" lon="-0.86976">
        <ele>23.3</ele>
        <time>2020-05-31T15:53:47Z</time>
      </trkpt>
      <trkpt lat="46.22832" lon="-0.86976">
        <ele>23.3</ele>
        <time>2020-05-31T15:53:48Z</time>
      </trkpt>
      <trkpt lat="46.22832" lon="-0.86976">
        <ele>23.3</ele>
        <time>2020-05-31T15:53:49Z</time>
      </trkpt>
      <trkpt lat="46.22832" lon="-0.86976">
        <ele>23.3</ele>
        <time>2020-05-31T15:53:50Z</time>
      </trkpt>
      <trkpt lat="46.22832" lon="-0.86976">
        <ele>23.3</ele>
        <time>2020-05-31T15:53:51Z</time>
      </trkpt>
      <trkpt lat="46.22832" lon="-0.86976">
        <ele>23.3</ele>
        <time>2020-05-31T15:53:52Z</time>
      </trkpt>
      <trkpt lat="46.22832" lon="-0.86976">
        <ele>23.3</ele>
        <time>2020-05-31T15:53:53Z</time>
      </trkpt>
      <trkpt lat="46.22832" lon="-0.86976">
        <ele>23.3</ele>
        <time>2020-05-31T15:53:54Z</time>
      </trkpt>
      <trkpt lat="46.22832" lon="-0.86976">
        <ele>23.3</ele>
        <time>2020-05-31T15:53:55Z</time>
      </trkpt>
      <trkpt lat="46.22832" lon="-0.86976">
        <ele>23.3</ele>
        <time>2020-05-31T15:53:56Z</time>
      </trkpt>
      <trkpt lat="46.22832" lon="-0.86975">
        <ele>23.3</ele>
        <time>2020-05-31T15:53:57Z</time>
      </trkpt>
      <trkpt lat="46.22832" lon="-0.86975">
        <ele>23.3</ele>
        <time>2020-05-31T15:53:58Z</time>
      </trkpt>
      <trkpt lat="46.22832" lon="-0.86975">
        <ele>23.3</ele>
        <time>2020-05-31T15:53:59Z</time>
      </trkpt>
      <trkpt lat="46.22832" lon="-0.86975">
        <ele>23.3</ele>
        <time>2020-05-31T15:54:00Z</time>
      </trkpt>
      <trkpt lat="46.22832" lon="-0.86975">
        <ele>23.3</ele>
        <time>2020-05-31T15:54:01Z</time>
      </trkpt>
      <trkpt lat="46.22832" lon="-0.86975">
        <ele>23.3</ele>
        <time>2020-05-31T15:54:02Z</time>
      </trkpt>
      <trkpt lat="46.22832" lon="-0.86975">
        <ele>23.3</ele>
        <time>2020-05-31T15:54:03Z</time>
      </trkpt>
      <trkpt lat="46.22831" lon="-0.86974">
        <ele>23.3</ele>
        <time>2020-05-31T15:54:04Z</time>
      </trkpt>
      <trkpt lat="46.22831" lon="-0.86973">
        <ele>23.3</ele>
        <time>2020-05-31T15:54:05Z</time>
      </trkpt>
      <trkpt lat="46.22832" lon="-0.86972">
        <ele>23.3</ele>
        <time>2020-05-31T15:54:06Z</time>
      </trkpt>
      <trkpt lat="46.22833" lon="-0.86969">
        <ele>23.3</ele>
        <time>2020-05-31T15:54:07Z</time>
      </trkpt>
      <trkpt lat="46.22834" lon="-0.86965">
        <ele>23.3</ele>
        <time>2020-05-31T15:54:08Z</time>
      </trkpt>
      <trkpt lat="46.22834" lon="-0.86964">
        <ele>23.3</ele>
        <time>2020-05-31T15:54:09Z</time>
      </trkpt>
      <trkpt lat="46.22834" lon="-0.86959">
        <ele>23.4</ele>
        <time>2020-05-31T15:54:10Z</time>
      </trkpt>
      <trkpt lat="46.22834" lon="-0.86957">
        <ele>23.4</ele>
        <time>2020-05-31T15:54:11Z</time>
      </trkpt>
      <trkpt lat="46.22834" lon="-0.86953">
        <ele>23.4</ele>
        <time>2020-05-31T15:54:12Z</time>
      </trkpt>
      <trkpt lat="46.22834" lon="-0.86947">
        <ele>23.4</ele>
        <time>2020-05-31T15:54:13Z</time>
      </trkpt>
      <trkpt lat="46.22833" lon="-0.8694">
        <ele>23.4</ele>
        <time>2020-05-31T15:54:14Z</time>
      </trkpt>
      <trkpt lat="46.22833" lon="-0.86935">
        <ele>23.5</ele>
        <time>2020-05-31T15:54:15Z</time>
      </trkpt>
      <trkpt lat="46.22832" lon="-0.86931">
        <ele>23.5</ele>
        <time>2020-05-31T15:54:16Z</time>
      </trkpt>
      <trkpt lat="46.22832" lon="-0.86925">
        <ele>23.5</ele>
        <time>2020-05-31T15:54:17Z</time>
      </trkpt>
      <trkpt lat="46.22832" lon="-0.8692">
        <ele>23.5</ele>
        <time>2020-05-31T15:54:18Z</time>
      </trkpt>
      <trkpt lat="46.22831" lon="-0.86914">
        <ele>23.6</ele>
        <time>2020-05-31T15:54:19Z</time>
      </trkpt>
      <trkpt lat="46.2283" lon="-0.86908">
        <ele>23.6</ele>
        <time>2020-05-31T15:54:20Z</time>
      </trkpt>
      <trkpt lat="46.2283" lon="-0.86902">
        <ele>23.6</ele>
        <time>2020-05-31T15:54:21Z</time>
      </trkpt>
      <trkpt lat="46.22829" lon="-0.86896">
        <ele>23.6</ele>
        <time>2020-05-31T15:54:22Z</time>
      </trkpt>
      <trkpt lat="46.22829" lon="-0.8689">
        <ele>23.7</ele>
        <time>2020-05-31T15:54:23Z</time>
      </trkpt>
      <trkpt lat="46.22828" lon="-0.86884">
        <ele>23.7</ele>
        <time>2020-05-31T15:54:24Z</time>
      </trkpt>
      <trkpt lat="46.22827" lon="-0.86878">
        <ele>23.7</ele>
        <time>2020-05-31T15:54:25Z</time>
      </trkpt>
      <trkpt lat="46.22826" lon="-0.86871">
        <ele>23.7</ele>
        <time>2020-05-31T15:54:26Z</time>
      </trkpt>
      <trkpt lat="46.22826" lon="-0.86861">
        <ele>23.8</ele>
        <time>2020-05-31T15:54:27Z</time>
      </trkpt>
      <trkpt lat="46.22826" lon="-0.86854">
        <ele>23.8</ele>
        <time>2020-05-31T15:54:28Z</time>
      </trkpt>
      <trkpt lat="46.22825" lon="-0.86848">
        <ele>23.8</ele>
        <time>2020-05-31T15:54:29Z</time>
      </trkpt>
      <trkpt lat="46.22825" lon="-0.8684">
        <ele>23.9</ele>
        <time>2020-05-31T15:54:30Z</time>
      </trkpt>
      <trkpt lat="46.22824" lon="-0.86834">
        <ele>23.9</ele>
        <time>2020-05-31T15:54:31Z</time>
      </trkpt>
      <trkpt lat="46.22822" lon="-0.86827">
        <ele>23.9</ele>
        <time>2020-05-31T15:54:32Z</time>
      </trkpt>
      <trkpt lat="46.22821" lon="-0.86819">
        <ele>24</ele>
        <time>2020-05-31T15:54:33Z</time>
      </trkpt>
      <trkpt lat="46.22821" lon="-0.86813">
        <ele>24</ele>
        <time>2020-05-31T15:54:34Z</time>
      </trkpt>
      <trkpt lat="46.2282" lon="-0.86806">
        <ele>24</ele>
        <time>2020-05-31T15:54:35Z</time>
      </trkpt>
      <trkpt lat="46.22819" lon="-0.86799">
        <ele>24.1</ele>
        <time>2020-05-31T15:54:36Z</time>
      </trkpt>
      <trkpt lat="46.22818" lon="-0.86791">
        <ele>24.1</ele>
        <time>2020-05-31T15:54:37Z</time>
      </trkpt>
      <trkpt lat="46.22817" lon="-0.86784">
        <ele>24.1</ele>
        <time>2020-05-31T15:54:38Z</time>
      </trkpt>
      <trkpt lat="46.22816" lon="-0.86778">
        <ele>24.2</ele>
        <time>2020-05-31T15:54:39Z</time>
      </trkpt>
      <trkpt lat="46.22815" lon="-0.86771">
        <ele>24.2</ele>
        <time>2020-05-31T15:54:40Z</time>
      </trkpt>
      <trkpt lat="46.22814" lon="-0.86764">
        <ele>24.2</ele>
        <time>2020-05-31T15:54:41Z</time>
      </trkpt>
      <trkpt lat="46.22814" lon="-0.86758">
        <ele>24.2</ele>
        <time>2020-05-31T15:54:42Z</time>
      </trkpt>
      <trkpt lat="46.22814" lon="-0.86751">
        <ele>24.3</ele>
        <time>2020-05-31T15:54:43Z</time>
      </trkpt>
      <trkpt lat="46.22813" lon="-0.86744">
        <ele>24.3</ele>
        <time>2020-05-31T15:54:44Z</time>
      </trkpt>
      <trkpt lat="46.22813" lon="-0.86738">
        <ele>24.3</ele>
        <time>2020-05-31T15:54:45Z</time>
      </trkpt>
      <trkpt lat="46.22813" lon="-0.8673">
        <ele>24.4</ele>
        <time>2020-05-31T15:54:46Z</time>
      </trkpt>
      <trkpt lat="46.22813" lon="-0.86724">
        <ele>24.4</ele>
        <time>2020-05-31T15:54:47Z</time>
      </trkpt>
      <trkpt lat="46.22813" lon="-0.86718">
        <ele>24.4</ele>
        <time>2020-05-31T15:54:48Z</time>
      </trkpt>
      <trkpt lat="46.22813" lon="-0.86712">
        <ele>24.4</ele>
        <time>2020-05-31T15:54:49Z</time>
      </trkpt>
      <trkpt lat="46.22813" lon="-0.86704">
        <ele>24.5</ele>
        <time>2020-05-31T15:54:50Z</time>
      </trkpt>
      <trkpt lat="46.22814" lon="-0.86698">
        <ele>24.5</ele>
        <time>2020-05-31T15:54:51Z</time>
      </trkpt>
      <trkpt lat="46.22815" lon="-0.86692">
        <ele>24.5</ele>
        <time>2020-05-31T15:54:52Z</time>
      </trkpt>
      <trkpt lat="46.22817" lon="-0.86686">
        <ele>24.6</ele>
        <time>2020-05-31T15:54:53Z</time>
      </trkpt>
      <trkpt lat="46.22818" lon="-0.8668">
        <ele>24.6</ele>
        <time>2020-05-31T15:54:54Z</time>
      </trkpt>
      <trkpt lat="46.22819" lon="-0.86674">
        <ele>24.6</ele>
        <time>2020-05-31T15:54:55Z</time>
      </trkpt>
      <trkpt lat="46.22818" lon="-0.86667">
        <ele>24.6</ele>
        <time>2020-05-31T15:54:56Z</time>
      </trkpt>
      <trkpt lat="46.22819" lon="-0.86662">
        <ele>24.7</ele>
        <time>2020-05-31T15:54:57Z</time>
      </trkpt>
      <trkpt lat="46.2282" lon="-0.86658">
        <ele>24.7</ele>
        <time>2020-05-31T15:54:58Z</time>
      </trkpt>
      <trkpt lat="46.22821" lon="-0.86656">
        <ele>24.7</ele>
        <time>2020-05-31T15:54:59Z</time>
      </trkpt>
      <trkpt lat="46.22823" lon="-0.86654">
        <ele>24.7</ele>
        <time>2020-05-31T15:55:00Z</time>
      </trkpt>
      <trkpt lat="46.22825" lon="-0.86651">
        <ele>24.7</ele>
        <time>2020-05-31T15:55:01Z</time>
      </trkpt>
      <trkpt lat="46.22826" lon="-0.8665">
        <ele>24.7</ele>
        <time>2020-05-31T15:55:02Z</time>
      </trkpt>
      <trkpt lat="46.22828" lon="-0.86648">
        <ele>24.8</ele>
        <time>2020-05-31T15:55:03Z</time>
      </trkpt>
      <trkpt lat="46.22829" lon="-0.86648">
        <ele>24.8</ele>
        <time>2020-05-31T15:55:04Z</time>
      </trkpt>
      <trkpt lat="46.22832" lon="-0.86645">
        <ele>24.8</ele>
        <time>2020-05-31T15:55:05Z</time>
      </trkpt>
      <trkpt lat="46.22833" lon="-0.86644">
        <ele>24.8</ele>
        <time>2020-05-31T15:55:06Z</time>
      </trkpt>
      <trkpt lat="46.22836" lon="-0.86642">
        <ele>24.8</ele>
        <time>2020-05-31T15:55:07Z</time>
      </trkpt>
      <trkpt lat="46.22839" lon="-0.8664">
        <ele>24.9</ele>
        <time>2020-05-31T15:55:08Z</time>
      </trkpt>
      <trkpt lat="46.22842" lon="-0.86637">
        <ele>25</ele>
        <time>2020-05-31T15:55:09Z</time>
      </trkpt>
      <trkpt lat="46.22846" lon="-0.86636">
        <ele>25.1</ele>
        <time>2020-05-31T15:55:10Z</time>
      </trkpt>
      <trkpt lat="46.22847" lon="-0.86636">
        <ele>25.1</ele>
        <time>2020-05-31T15:55:11Z</time>
      </trkpt>
      <trkpt lat="46.22851" lon="-0.86635">
        <ele>25.2</ele>
        <time>2020-05-31T15:55:12Z</time>
      </trkpt>
      <trkpt lat="46.22852" lon="-0.86635">
        <ele>25.2</ele>
        <time>2020-05-31T15:55:13Z</time>
      </trkpt>
      <trkpt lat="46.22855" lon="-0.86635">
        <ele>25.3</ele>
        <time>2020-05-31T15:55:14Z</time>
      </trkpt>
      <trkpt lat="46.22858" lon="-0.86635">
        <ele>25.4</ele>
        <time>2020-05-31T15:55:15Z</time>
      </trkpt>
      <trkpt lat="46.22862" lon="-0.86635">
        <ele>25.5</ele>
        <time>2020-05-31T15:55:16Z</time>
      </trkpt>
      <trkpt lat="46.22865" lon="-0.86634">
        <ele>25.6</ele>
        <time>2020-05-31T15:55:17Z</time>
      </trkpt>
      <trkpt lat="46.22868" lon="-0.86634">
        <ele>25.7</ele>
        <time>2020-05-31T15:55:18Z</time>
      </trkpt>
      <trkpt lat="46.22871" lon="-0.86632">
        <ele>25.8</ele>
        <time>2020-05-31T15:55:19Z</time>
      </trkpt>
      <trkpt lat="46.22874" lon="-0.86629">
        <ele>25.8</ele>
        <time>2020-05-31T15:55:20Z</time>
      </trkpt>
      <trkpt lat="46.22877" lon="-0.86628">
        <ele>25.9</ele>
        <time>2020-05-31T15:55:21Z</time>
      </trkpt>
      <trkpt lat="46.2288" lon="-0.86626">
        <ele>26</ele>
        <time>2020-05-31T15:55:22Z</time>
      </trkpt>
      <trkpt lat="46.22884" lon="-0.86623">
        <ele>26</ele>
        <time>2020-05-31T15:55:23Z</time>
      </trkpt>
      <trkpt lat="46.22885" lon="-0.86621">
        <ele>26.1</ele>
        <time>2020-05-31T15:55:24Z</time>
      </trkpt>
      <trkpt lat="46.22888" lon="-0.86618">
        <ele>26.1</ele>
        <time>2020-05-31T15:55:25Z</time>
      </trkpt>
      <trkpt lat="46.22891" lon="-0.86616">
        <ele>26.2</ele>
        <time>2020-05-31T15:55:26Z</time>
      </trkpt>
      <trkpt lat="46.22894" lon="-0.86615">
        <ele>26.3</ele>
        <time>2020-05-31T15:55:27Z</time>
      </trkpt>
      <trkpt lat="46.22897" lon="-0.86612">
        <ele>26.3</ele>
        <time>2020-05-31T15:55:28Z</time>
      </trkpt>
      <trkpt lat="46.229" lon="-0.86609">
        <ele>26.4</ele>
        <time>2020-05-31T15:55:29Z</time>
      </trkpt>
      <trkpt lat="46.22903" lon="-0.86606">
        <ele>26.4</ele>
        <time>2020-05-31T15:55:30Z</time>
      </trkpt>
      <trkpt lat="46.22905" lon="-0.86604">
        <ele>26.5</ele>
        <time>2020-05-31T15:55:31Z</time>
      </trkpt>
      <trkpt lat="46.22908" lon="-0.86602">
        <ele>26.5</ele>
        <time>2020-05-31T15:55:32Z</time>
      </trkpt>
      <trkpt lat="46.22911" lon="-0.86599">
        <ele>26.6</ele>
        <time>2020-05-31T15:55:33Z</time>
      </trkpt>
      <trkpt lat="46.22914" lon="-0.86598">
        <ele>26.6</ele>
        <time>2020-05-31T15:55:34Z</time>
      </trkpt>
      <trkpt lat="46.22919" lon="-0.86594">
        <ele>26.7</ele>
        <time>2020-05-31T15:55:35Z</time>
      </trkpt>
      <trkpt lat="46.22922" lon="-0.86592">
        <ele>26.7</ele>
        <time>2020-05-31T15:55:36Z</time>
      </trkpt>
      <trkpt lat="46.22925" lon="-0.86591">
        <ele>26.8</ele>
        <time>2020-05-31T15:55:37Z</time>
      </trkpt>
      <trkpt lat="46.22928" lon="-0.8659">
        <ele>26.8</ele>
        <time>2020-05-31T15:55:38Z</time>
      </trkpt>
      <trkpt lat="46.22931" lon="-0.86589">
        <ele>26.8</ele>
        <time>2020-05-31T15:55:39Z</time>
      </trkpt>
      <trkpt lat="46.22934" lon="-0.8659">
        <ele>26.8</ele>
        <time>2020-05-31T15:55:40Z</time>
      </trkpt>
      <trkpt lat="46.22938" lon="-0.86591">
        <ele>26.8</ele>
        <time>2020-05-31T15:55:41Z</time>
      </trkpt>
      <trkpt lat="46.22941" lon="-0.86594">
        <ele>26.8</ele>
        <time>2020-05-31T15:55:42Z</time>
      </trkpt>
      <trkpt lat="46.22944" lon="-0.86595">
        <ele>26.7</ele>
        <time>2020-05-31T15:55:43Z</time>
      </trkpt>
      <trkpt lat="46.22947" lon="-0.86597">
        <ele>26.7</ele>
        <time>2020-05-31T15:55:44Z</time>
      </trkpt>
      <trkpt lat="46.2295" lon="-0.86599">
        <ele>26.7</ele>
        <time>2020-05-31T15:55:45Z</time>
      </trkpt>
      <trkpt lat="46.22954" lon="-0.866">
        <ele>26.6</ele>
        <time>2020-05-31T15:55:46Z</time>
      </trkpt>
      <trkpt lat="46.22957" lon="-0.86602">
        <ele>26.6</ele>
        <time>2020-05-31T15:55:47Z</time>
      </trkpt>
      <trkpt lat="46.22961" lon="-0.86603">
        <ele>26.5</ele>
        <time>2020-05-31T15:55:48Z</time>
      </trkpt>
      <trkpt lat="46.22966" lon="-0.86606">
        <ele>26.4</ele>
        <time>2020-05-31T15:55:49Z</time>
      </trkpt>
      <trkpt lat="46.22969" lon="-0.8661">
        <ele>26.3</ele>
        <time>2020-05-31T15:55:50Z</time>
      </trkpt>
      <trkpt lat="46.22973" lon="-0.86613">
        <ele>26.1</ele>
        <time>2020-05-31T15:55:51Z</time>
      </trkpt>
      <trkpt lat="46.22978" lon="-0.86615">
        <ele>26</ele>
        <time>2020-05-31T15:55:52Z</time>
      </trkpt>
      <trkpt lat="46.22983" lon="-0.86618">
        <ele>25.9</ele>
        <time>2020-05-31T15:55:53Z</time>
      </trkpt>
      <trkpt lat="46.22989" lon="-0.86619">
        <ele>26</ele>
        <time>2020-05-31T15:55:54Z</time>
      </trkpt>
      <trkpt lat="46.22994" lon="-0.86621">
        <ele>26.1</ele>
        <time>2020-05-31T15:55:55Z</time>
      </trkpt>
      <trkpt lat="46.22998" lon="-0.86624">
        <ele>26.2</ele>
        <time>2020-05-31T15:55:56Z</time>
      </trkpt>
      <trkpt lat="46.23004" lon="-0.86626">
        <ele>26.3</ele>
        <time>2020-05-31T15:55:57Z</time>
      </trkpt>
      <trkpt lat="46.23008" lon="-0.86627">
        <ele>26.4</ele>
        <time>2020-05-31T15:55:58Z</time>
      </trkpt>
      <trkpt lat="46.23012" lon="-0.86629">
        <ele>26.4</ele>
        <time>2020-05-31T15:55:59Z</time>
      </trkpt>
      <trkpt lat="46.23016" lon="-0.86631">
        <ele>26.3</ele>
        <time>2020-05-31T15:56:00Z</time>
      </trkpt>
      <trkpt lat="46.23019" lon="-0.86632">
        <ele>26.3</ele>
        <time>2020-05-31T15:56:01Z</time>
      </trkpt>
      <trkpt lat="46.23023" lon="-0.86635">
        <ele>26.3</ele>
        <time>2020-05-31T15:56:02Z</time>
      </trkpt>
      <trkpt lat="46.23026" lon="-0.86636">
        <ele>26.2</ele>
        <time>2020-05-31T15:56:03Z</time>
      </trkpt>
      <trkpt lat="46.23029" lon="-0.86639">
        <ele>26.2</ele>
        <time>2020-05-31T15:56:04Z</time>
      </trkpt>
      <trkpt lat="46.23032" lon="-0.86641">
        <ele>26.2</ele>
        <time>2020-05-31T15:56:05Z</time>
      </trkpt>
      <trkpt lat="46.23036" lon="-0.86642">
        <ele>26.2</ele>
        <time>2020-05-31T15:56:06Z</time>
      </trkpt>
      <trkpt lat="46.2304" lon="-0.86643">
        <ele>26.1</ele>
        <time>2020-05-31T15:56:07Z</time>
      </trkpt>
      <trkpt lat="46.23043" lon="-0.86645">
        <ele>26.1</ele>
        <time>2020-05-31T15:56:08Z</time>
      </trkpt>
      <trkpt lat="46.23046" lon="-0.86647">
        <ele>26.1</ele>
        <time>2020-05-31T15:56:09Z</time>
      </trkpt>
      <trkpt lat="46.2305" lon="-0.86648">
        <ele>26.1</ele>
        <time>2020-05-31T15:56:10Z</time>
      </trkpt>
      <trkpt lat="46.23053" lon="-0.8665">
        <ele>26.1</ele>
        <time>2020-05-31T15:56:11Z</time>
      </trkpt>
      <trkpt lat="46.23056" lon="-0.86652">
        <ele>26.1</ele>
        <time>2020-05-31T15:56:12Z</time>
      </trkpt>
      <trkpt lat="46.2306" lon="-0.86654">
        <ele>26.1</ele>
        <time>2020-05-31T15:56:13Z</time>
      </trkpt>
      <trkpt lat="46.23063" lon="-0.86655">
        <ele>26.1</ele>
        <time>2020-05-31T15:56:14Z</time>
      </trkpt>
      <trkpt lat="46.23066" lon="-0.86656">
        <ele>26.1</ele>
        <time>2020-05-31T15:56:15Z</time>
      </trkpt>
      <trkpt lat="46.23069" lon="-0.86657">
        <ele>26.1</ele>
        <time>2020-05-31T15:56:16Z</time>
      </trkpt>
      <trkpt lat="46.23072" lon="-0.86658">
        <ele>26.2</ele>
        <time>2020-05-31T15:56:17Z</time>
      </trkpt>
      <trkpt lat="46.23075" lon="-0.86658">
        <ele>26.2</ele>
        <time>2020-05-31T15:56:18Z</time>
      </trkpt>
      <trkpt lat="46.23079" lon="-0.86659">
        <ele>26.2</ele>
        <time>2020-05-31T15:56:19Z</time>
      </trkpt>
      <trkpt lat="46.23083" lon="-0.86661">
        <ele>26.2</ele>
        <time>2020-05-31T15:56:20Z</time>
      </trkpt>
      <trkpt lat="46.23087" lon="-0.86662">
        <ele>26.3</ele>
        <time>2020-05-31T15:56:21Z</time>
      </trkpt>
      <trkpt lat="46.2309" lon="-0.86663">
        <ele>26.3</ele>
        <time>2020-05-31T15:56:22Z</time>
      </trkpt>
      <trkpt lat="46.23092" lon="-0.86664">
        <ele>26.4</ele>
        <time>2020-05-31T15:56:23Z</time>
      </trkpt>
      <trkpt lat="46.23096" lon="-0.86664">
        <ele>26.4</ele>
        <time>2020-05-31T15:56:24Z</time>
      </trkpt>
      <trkpt lat="46.23097" lon="-0.86663">
        <ele>26.5</ele>
        <time>2020-05-31T15:56:25Z</time>
      </trkpt>
      <trkpt lat="46.23101" lon="-0.86664">
        <ele>26.5</ele>
        <time>2020-05-31T15:56:26Z</time>
      </trkpt>
      <trkpt lat="46.23103" lon="-0.86664">
        <ele>26.6</ele>
        <time>2020-05-31T15:56:27Z</time>
      </trkpt>
      <trkpt lat="46.23107" lon="-0.86666">
        <ele>26.6</ele>
        <time>2020-05-31T15:56:28Z</time>
      </trkpt>
      <trkpt lat="46.2311" lon="-0.86667">
        <ele>26.6</ele>
        <time>2020-05-31T15:56:29Z</time>
      </trkpt>
      <trkpt lat="46.23114" lon="-0.86668">
        <ele>26.6</ele>
        <time>2020-05-31T15:56:30Z</time>
      </trkpt>
      <trkpt lat="46.23118" lon="-0.86667">
        <ele>26.6</ele>
        <time>2020-05-31T15:56:31Z</time>
      </trkpt>
      <trkpt lat="46.23122" lon="-0.86667">
        <ele>26.6</ele>
        <time>2020-05-31T15:56:32Z</time>
      </trkpt>
      <trkpt lat="46.23125" lon="-0.86668">
        <ele>26.6</ele>
        <time>2020-05-31T15:56:33Z</time>
      </trkpt>
      <trkpt lat="46.23129" lon="-0.86669">
        <ele>26.6</ele>
        <time>2020-05-31T15:56:34Z</time>
      </trkpt>
      <trkpt lat="46.23134" lon="-0.8667">
        <ele>26.6</ele>
        <time>2020-05-31T15:56:35Z</time>
      </trkpt>
      <trkpt lat="46.23138" lon="-0.86671">
        <ele>26.6</ele>
        <time>2020-05-31T15:56:36Z</time>
      </trkpt>
      <trkpt lat="46.23144" lon="-0.86671">
        <ele>26.6</ele>
        <time>2020-05-31T15:56:37Z</time>
      </trkpt>
      <trkpt lat="46.23147" lon="-0.86672">
        <ele>26.6</ele>
        <time>2020-05-31T15:56:38Z</time>
      </trkpt>
      <trkpt lat="46.23151" lon="-0.86674">
        <ele>26.6</ele>
        <time>2020-05-31T15:56:39Z</time>
      </trkpt>
      <trkpt lat="46.23156" lon="-0.86674">
        <ele>26.7</ele>
        <time>2020-05-31T15:56:40Z</time>
      </trkpt>
      <trkpt lat="46.23157" lon="-0.86674">
        <ele>26.7</ele>
        <time>2020-05-31T15:56:41Z</time>
      </trkpt>
      <trkpt lat="46.23161" lon="-0.86676">
        <ele>26.8</ele>
        <time>2020-05-31T15:56:42Z</time>
      </trkpt>
      <trkpt lat="46.23164" lon="-0.86676">
        <ele>26.8</ele>
        <time>2020-05-31T15:56:43Z</time>
      </trkpt>
      <trkpt lat="46.23167" lon="-0.86678">
        <ele>26.9</ele>
        <time>2020-05-31T15:56:44Z</time>
      </trkpt>
      <trkpt lat="46.2317" lon="-0.86678">
        <ele>27</ele>
        <time>2020-05-31T15:56:45Z</time>
      </trkpt>
      <trkpt lat="46.23173" lon="-0.86679">
        <ele>27.1</ele>
        <time>2020-05-31T15:56:46Z</time>
      </trkpt>
      <trkpt lat="46.23176" lon="-0.86679">
        <ele>27.1</ele>
        <time>2020-05-31T15:56:47Z</time>
      </trkpt>
      <trkpt lat="46.2318" lon="-0.86681">
        <ele>27.2</ele>
        <time>2020-05-31T15:56:48Z</time>
      </trkpt>
      <trkpt lat="46.23181" lon="-0.86681">
        <ele>27.3</ele>
        <time>2020-05-31T15:56:49Z</time>
      </trkpt>
      <trkpt lat="46.23186" lon="-0.86681">
        <ele>27.4</ele>
        <time>2020-05-31T15:56:50Z</time>
      </trkpt>
      <trkpt lat="46.23188" lon="-0.86682">
        <ele>27.4</ele>
        <time>2020-05-31T15:56:51Z</time>
      </trkpt>
      <trkpt lat="46.23192" lon="-0.86683">
        <ele>27.5</ele>
        <time>2020-05-31T15:56:52Z</time>
      </trkpt>
      <trkpt lat="46.23196" lon="-0.86684">
        <ele>27.5</ele>
        <time>2020-05-31T15:56:53Z</time>
      </trkpt>
      <trkpt lat="46.232" lon="-0.86686">
        <ele>27.6</ele>
        <time>2020-05-31T15:56:54Z</time>
      </trkpt>
      <trkpt lat="46.23203" lon="-0.86685">
        <ele>27.7</ele>
        <time>2020-05-31T15:56:55Z</time>
      </trkpt>
      <trkpt lat="46.23206" lon="-0.86683">
        <ele>27.7</ele>
        <time>2020-05-31T15:56:56Z</time>
      </trkpt>
      <trkpt lat="46.23208" lon="-0.86682">
        <ele>27.8</ele>
        <time>2020-05-31T15:56:57Z</time>
      </trkpt>
      <trkpt lat="46.23211" lon="-0.86681">
        <ele>27.8</ele>
        <time>2020-05-31T15:56:58Z</time>
      </trkpt>
      <trkpt lat="46.23215" lon="-0.86682">
        <ele>27.9</ele>
        <time>2020-05-31T15:56:59Z</time>
      </trkpt>
      <trkpt lat="46.23219" lon="-0.86682">
        <ele>28</ele>
        <time>2020-05-31T15:57:00Z</time>
      </trkpt>
      <trkpt lat="46.23223" lon="-0.86682">
        <ele>28.1</ele>
        <time>2020-05-31T15:57:01Z</time>
      </trkpt>
      <trkpt lat="46.23227" lon="-0.86682">
        <ele>28.2</ele>
        <time>2020-05-31T15:57:02Z</time>
      </trkpt>
      <trkpt lat="46.23229" lon="-0.86682">
        <ele>28.2</ele>
        <time>2020-05-31T15:57:03Z</time>
      </trkpt>
      <trkpt lat="46.23232" lon="-0.86683">
        <ele>28.2</ele>
        <time>2020-05-31T15:57:04Z</time>
      </trkpt>
      <trkpt lat="46.23235" lon="-0.86683">
        <ele>28.3</ele>
        <time>2020-05-31T15:57:05Z</time>
      </trkpt>
      <trkpt lat="46.23239" lon="-0.86683">
        <ele>28.3</ele>
        <time>2020-05-31T15:57:06Z</time>
      </trkpt>
      <trkpt lat="46.23243" lon="-0.86683">
        <ele>28.3</ele>
        <time>2020-05-31T15:57:07Z</time>
      </trkpt>
      <trkpt lat="46.23247" lon="-0.86684">
        <ele>28.3</ele>
        <time>2020-05-31T15:57:08Z</time>
      </trkpt>
      <trkpt lat="46.2325" lon="-0.86684">
        <ele>28.2</ele>
        <time>2020-05-31T15:57:09Z</time>
      </trkpt>
      <trkpt lat="46.23254" lon="-0.86683">
        <ele>28.2</ele>
        <time>2020-05-31T15:57:10Z</time>
      </trkpt>
      <trkpt lat="46.23257" lon="-0.86683">
        <ele>28.2</ele>
        <time>2020-05-31T15:57:11Z</time>
      </trkpt>
      <trkpt lat="46.23261" lon="-0.86683">
        <ele>28.2</ele>
        <time>2020-05-31T15:57:12Z</time>
      </trkpt>
      <trkpt lat="46.23262" lon="-0.86684">
        <ele>28.2</ele>
        <time>2020-05-31T15:57:13Z</time>
      </trkpt>
      <trkpt lat="46.23264" lon="-0.86685">
        <ele>28.2</ele>
        <time>2020-05-31T15:57:14Z</time>
      </trkpt>
      <trkpt lat="46.23264" lon="-0.86684">
        <ele>28.1</ele>
        <time>2020-05-31T15:57:15Z</time>
      </trkpt>
      <trkpt lat="46.23265" lon="-0.86685">
        <ele>28.1</ele>
        <time>2020-05-31T15:57:16Z</time>
      </trkpt>
      <trkpt lat="46.23265" lon="-0.86685">
        <ele>28.1</ele>
        <time>2020-05-31T15:57:17Z</time>
      </trkpt>
      <trkpt lat="46.23265" lon="-0.86685">
        <ele>28.1</ele>
        <time>2020-05-31T15:57:18Z</time>
      </trkpt>
      <trkpt lat="46.23265" lon="-0.86685">
        <ele>28.1</ele>
        <time>2020-05-31T15:57:19Z</time>
      </trkpt>
      <trkpt lat="46.23265" lon="-0.86686">
        <ele>28.1</ele>
        <time>2020-05-31T15:57:20Z</time>
      </trkpt>
      <trkpt lat="46.23265" lon="-0.86686">
        <ele>28.1</ele>
        <time>2020-05-31T15:57:21Z</time>
      </trkpt>
      <trkpt lat="46.23265" lon="-0.86686">
        <ele>28.1</ele>
        <time>2020-05-31T15:57:22Z</time>
      </trkpt>
      <trkpt lat="46.23265" lon="-0.86686">
        <ele>28.1</ele>
        <time>2020-05-31T15:57:23Z</time>
      </trkpt>
      <trkpt lat="46.23265" lon="-0.86686">
        <ele>28.1</ele>
        <time>2020-05-31T15:57:24Z</time>
      </trkpt>
      <trkpt lat="46.23264" lon="-0.86686">
        <ele>28.1</ele>
        <time>2020-05-31T15:57:25Z</time>
      </trkpt>
      <trkpt lat="46.23264" lon="-0.86686">
        <ele>28.1</ele>
        <time>2020-05-31T15:57:26Z</time>
      </trkpt>
      <trkpt lat="46.23264" lon="-0.86686">
        <ele>28.1</ele>
        <time>2020-05-31T15:57:27Z</time>
      </trkpt>
      <trkpt lat="46.23264" lon="-0.86686">
        <ele>28.1</ele>
        <time>2020-05-31T15:57:28Z</time>
      </trkpt>
      <trkpt lat="46.23264" lon="-0.86686">
        <ele>28.1</ele>
        <time>2020-05-31T15:57:29Z</time>
      </trkpt>
      <trkpt lat="46.23264" lon="-0.86687">
        <ele>28.1</ele>
        <time>2020-05-31T15:57:30Z</time>
      </trkpt>
      <trkpt lat="46.23264" lon="-0.86687">
        <ele>28.1</ele>
        <time>2020-05-31T15:57:31Z</time>
      </trkpt>
      <trkpt lat="46.23264" lon="-0.86687">
        <ele>28.1</ele>
        <time>2020-05-31T15:57:32Z</time>
      </trkpt>
      <trkpt lat="46.23264" lon="-0.86687">
        <ele>28.1</ele>
        <time>2020-05-31T15:57:33Z</time>
      </trkpt>
      <trkpt lat="46.23264" lon="-0.86687">
        <ele>28.1</ele>
        <time>2020-05-31T15:57:34Z</time>
      </trkpt>
      <trkpt lat="46.23264" lon="-0.86687">
        <ele>28.1</ele>
        <time>2020-05-31T15:57:35Z</time>
      </trkpt>
      <trkpt lat="46.23264" lon="-0.86687">
        <ele>28.1</ele>
        <time>2020-05-31T15:57:36Z</time>
      </trkpt>
      <trkpt lat="46.23264" lon="-0.86687">
        <ele>28.1</ele>
        <time>2020-05-31T15:57:37Z</time>
      </trkpt>
      <trkpt lat="46.23264" lon="-0.86687">
        <ele>28.1</ele>
        <time>2020-05-31T15:57:38Z</time>
      </trkpt>
      <trkpt lat="46.23264" lon="-0.86687">
        <ele>28.1</ele>
        <time>2020-05-31T15:57:39Z</time>
      </trkpt>
      <trkpt lat="46.23264" lon="-0.86688">
        <ele>28.1</ele>
        <time>2020-05-31T15:57:40Z</time>
      </trkpt>
      <trkpt lat="46.23264" lon="-0.86688">
        <ele>28.1</ele>
        <time>2020-05-31T15:57:41Z</time>
      </trkpt>
      <trkpt lat="46.23264" lon="-0.86688">
        <ele>28.1</ele>
        <time>2020-05-31T15:57:42Z</time>
      </trkpt>
      <trkpt lat="46.23264" lon="-0.86688">
        <ele>28.1</ele>
        <time>2020-05-31T15:57:43Z</time>
      </trkpt>
      <trkpt lat="46.23264" lon="-0.86688">
        <ele>28.1</ele>
        <time>2020-05-31T15:57:44Z</time>
      </trkpt>
      <trkpt lat="46.23264" lon="-0.86688">
        <ele>28.1</ele>
        <time>2020-05-31T15:57:45Z</time>
      </trkpt>
      <trkpt lat="46.23264" lon="-0.86688">
        <ele>28.1</ele>
        <time>2020-05-31T15:57:46Z</time>
      </trkpt>
      <trkpt lat="46.23264" lon="-0.86688">
        <ele>28.1</ele>
        <time>2020-05-31T15:57:47Z</time>
      </trkpt>
      <trkpt lat="46.23264" lon="-0.86688">
        <ele>28.1</ele>
        <time>2020-05-31T15:57:48Z</time>
      </trkpt>
      <trkpt lat="46.23263" lon="-0.86688">
        <ele>28.1</ele>
        <time>2020-05-31T15:57:49Z</time>
      </trkpt>
      <trkpt lat="46.23263" lon="-0.86688">
        <ele>28.1</ele>
        <time>2020-05-31T15:57:50Z</time>
      </trkpt>
      <trkpt lat="46.23263" lon="-0.86689">
        <ele>28.1</ele>
        <time>2020-05-31T15:57:51Z</time>
      </trkpt>
      <trkpt lat="46.23263" lon="-0.86689">
        <ele>28.1</ele>
        <time>2020-05-31T15:57:52Z</time>
      </trkpt>
      <trkpt lat="46.23263" lon="-0.86689">
        <ele>28.1</ele>
        <time>2020-05-31T15:57:53Z</time>
      </trkpt>
      <trkpt lat="46.23263" lon="-0.86689">
        <ele>28.1</ele>
        <time>2020-05-31T15:57:54Z</time>
      </trkpt>
      <trkpt lat="46.23263" lon="-0.86689">
        <ele>28.1</ele>
        <time>2020-05-31T15:57:55Z</time>
      </trkpt>
      <trkpt lat="46.23263" lon="-0.86689">
        <ele>28.1</ele>
        <time>2020-05-31T15:57:56Z</time>
      </trkpt>
      <trkpt lat="46.23263" lon="-0.86689">
        <ele>28.1</ele>
        <time>2020-05-31T15:57:57Z</time>
      </trkpt>
      <trkpt lat="46.23263" lon="-0.86689">
        <ele>28.1</ele>
        <time>2020-05-31T15:57:58Z</time>
      </trkpt>
      <trkpt lat="46.23263" lon="-0.86689">
        <ele>28.1</ele>
        <time>2020-05-31T15:57:59Z</time>
      </trkpt>
      <trkpt lat="46.23263" lon="-0.86689">
        <ele>28.1</ele>
        <time>2020-05-31T15:58:00Z</time>
      </trkpt>
      <trkpt lat="46.23263" lon="-0.8669">
        <ele>28.1</ele>
        <time>2020-05-31T15:58:01Z</time>
      </trkpt>
      <trkpt lat="46.23263" lon="-0.8669">
        <ele>28.1</ele>
        <time>2020-05-31T15:58:02Z</time>
      </trkpt>
      <trkpt lat="46.23263" lon="-0.8669">
        <ele>28.1</ele>
        <time>2020-05-31T15:58:03Z</time>
      </trkpt>
      <trkpt lat="46.23263" lon="-0.8669">
        <ele>28.1</ele>
        <time>2020-05-31T15:58:04Z</time>
      </trkpt>
      <trkpt lat="46.23263" lon="-0.8669">
        <ele>28.1</ele>
        <time>2020-05-31T15:58:05Z</time>
      </trkpt>
      <trkpt lat="46.23263" lon="-0.8669">
        <ele>28.1</ele>
        <time>2020-05-31T15:58:06Z</time>
      </trkpt>
      <trkpt lat="46.23263" lon="-0.8669">
        <ele>28.1</ele>
        <time>2020-05-31T15:58:07Z</time>
      </trkpt>
      <trkpt lat="46.23263" lon="-0.8669">
        <ele>28.1</ele>
        <time>2020-05-31T15:58:08Z</time>
      </trkpt>
      <trkpt lat="46.23263" lon="-0.8669">
        <ele>28.1</ele>
        <time>2020-05-31T15:58:09Z</time>
      </trkpt>
      <trkpt lat="46.23263" lon="-0.8669">
        <ele>28.1</ele>
        <time>2020-05-31T15:58:10Z</time>
      </trkpt>
      <trkpt lat="46.23263" lon="-0.86691">
        <ele>28.1</ele>
        <time>2020-05-31T15:58:11Z</time>
      </trkpt>
      <trkpt lat="46.23263" lon="-0.86691">
        <ele>28.1</ele>
        <time>2020-05-31T15:58:12Z</time>
      </trkpt>
      <trkpt lat="46.23262" lon="-0.86691">
        <ele>28.1</ele>
        <time>2020-05-31T15:58:13Z</time>
      </trkpt>
      <trkpt lat="46.23262" lon="-0.86691">
        <ele>28.1</ele>
        <time>2020-05-31T15:58:14Z</time>
      </trkpt>
      <trkpt lat="46.23259" lon="-0.86692">
        <ele>28.1</ele>
        <time>2020-05-31T15:58:15Z</time>
      </trkpt>
      <trkpt lat="46.23257" lon="-0.86692">
        <ele>28.1</ele>
        <time>2020-05-31T15:58:16Z</time>
      </trkpt>
      <trkpt lat="46.23254" lon="-0.86689">
        <ele>28.1</ele>
        <time>2020-05-31T15:58:17Z</time>
      </trkpt>
      <trkpt lat="46.2325" lon="-0.86687">
        <ele>28.1</ele>
        <time>2020-05-31T15:58:18Z</time>
      </trkpt>
      <trkpt lat="46.23247" lon="-0.86686">
        <ele>28.1</ele>
        <time>2020-05-31T15:58:19Z</time>
      </trkpt>
      <trkpt lat="46.23244" lon="-0.86686">
        <ele>28.2</ele>
        <time>2020-05-31T15:58:20Z</time>
      </trkpt>
      <trkpt lat="46.2324" lon="-0.86687">
        <ele>28.2</ele>
        <time>2020-05-31T15:58:21Z</time>
      </trkpt>
      <trkpt lat="46.23237" lon="-0.86687">
        <ele>28.2</ele>
        <time>2020-05-31T15:58:22Z</time>
      </trkpt>
      <trkpt lat="46.23233" lon="-0.86687">
        <ele>28.2</ele>
        <time>2020-05-31T15:58:23Z</time>
      </trkpt>
      <trkpt lat="46.23229" lon="-0.86687">
        <ele>28.3</ele>
        <time>2020-05-31T15:58:24Z</time>
      </trkpt>
      <trkpt lat="46.23225" lon="-0.86688">
        <ele>28.3</ele>
        <time>2020-05-31T15:58:25Z</time>
      </trkpt>
      <trkpt lat="46.23221" lon="-0.86688">
        <ele>28.2</ele>
        <time>2020-05-31T15:58:26Z</time>
      </trkpt>
      <trkpt lat="46.23217" lon="-0.86687">
        <ele>28.2</ele>
        <time>2020-05-31T15:58:27Z</time>
      </trkpt>
      <trkpt lat="46.23213" lon="-0.86687">
        <ele>28.1</ele>
        <time>2020-05-31T15:58:28Z</time>
      </trkpt>
      <trkpt lat="46.23209" lon="-0.86686">
        <ele>28</ele>
        <time>2020-05-31T15:58:29Z</time>
      </trkpt>
      <trkpt lat="46.23205" lon="-0.86684">
        <ele>27.9</ele>
        <time>2020-05-31T15:58:30Z</time>
      </trkpt>
      <trkpt lat="46.23201" lon="-0.86684">
        <ele>27.8</ele>
        <time>2020-05-31T15:58:31Z</time>
      </trkpt>
      <trkpt lat="46.23197" lon="-0.86685">
        <ele>27.7</ele>
        <time>2020-05-31T15:58:32Z</time>
      </trkpt>
      <trkpt lat="46.23193" lon="-0.86686">
        <ele>27.7</ele>
        <time>2020-05-31T15:58:33Z</time>
      </trkpt>
      <trkpt lat="46.2319" lon="-0.86686">
        <ele>27.6</ele>
        <time>2020-05-31T15:58:34Z</time>
      </trkpt>
      <trkpt lat="46.23188" lon="-0.86686">
        <ele>27.6</ele>
        <time>2020-05-31T15:58:35Z</time>
      </trkpt>
      <trkpt lat="46.23185" lon="-0.86685">
        <ele>27.5</ele>
        <time>2020-05-31T15:58:36Z</time>
      </trkpt>
      <trkpt lat="46.23182" lon="-0.86683">
        <ele>27.5</ele>
        <time>2020-05-31T15:58:37Z</time>
      </trkpt>
      <trkpt lat="46.23179" lon="-0.86682">
        <ele>27.4</ele>
        <time>2020-05-31T15:58:38Z</time>
      </trkpt>
      <trkpt lat="46.23175" lon="-0.86681">
        <ele>27.3</ele>
        <time>2020-05-31T15:58:39Z</time>
      </trkpt>
      <trkpt lat="46.23171" lon="-0.86681">
        <ele>27.2</ele>
        <time>2020-05-31T15:58:40Z</time>
      </trkpt>
      <trkpt lat="46.23167" lon="-0.86681">
        <ele>27.1</ele>
        <time>2020-05-31T15:58:41Z</time>
      </trkpt>
      <trkpt lat="46.23162" lon="-0.86679">
        <ele>26.9</ele>
        <time>2020-05-31T15:58:42Z</time>
      </trkpt>
      <trkpt lat="46.23157" lon="-0.86677">
        <ele>26.8</ele>
        <time>2020-05-31T15:58:43Z</time>
      </trkpt>
      <trkpt lat="46.23151" lon="-0.86676">
        <ele>26.7</ele>
        <time>2020-05-31T15:58:44Z</time>
      </trkpt>
      <trkpt lat="46.23146" lon="-0.86676">
        <ele>26.6</ele>
        <time>2020-05-31T15:58:45Z</time>
      </trkpt>
      <trkpt lat="46.23141" lon="-0.86675">
        <ele>26.6</ele>
        <time>2020-05-31T15:58:46Z</time>
      </trkpt>
      <trkpt lat="46.23136" lon="-0.86675">
        <ele>26.6</ele>
        <time>2020-05-31T15:58:47Z</time>
      </trkpt>
      <trkpt lat="46.23133" lon="-0.86675">
        <ele>26.6</ele>
        <time>2020-05-31T15:58:48Z</time>
      </trkpt>
      <trkpt lat="46.2313" lon="-0.86674">
        <ele>26.6</ele>
        <time>2020-05-31T15:58:49Z</time>
      </trkpt>
      <trkpt lat="46.23126" lon="-0.86672">
        <ele>26.6</ele>
        <time>2020-05-31T15:58:50Z</time>
      </trkpt>
      <trkpt lat="46.23121" lon="-0.86671">
        <ele>26.6</ele>
        <time>2020-05-31T15:58:51Z</time>
      </trkpt>
      <trkpt lat="46.23118" lon="-0.8667">
        <ele>26.6</ele>
        <time>2020-05-31T15:58:52Z</time>
      </trkpt>
      <trkpt lat="46.23113" lon="-0.86668">
        <ele>26.6</ele>
        <time>2020-05-31T15:58:53Z</time>
      </trkpt>
      <trkpt lat="46.2311" lon="-0.86667">
        <ele>26.6</ele>
        <time>2020-05-31T15:58:54Z</time>
      </trkpt>
      <trkpt lat="46.23105" lon="-0.86666">
        <ele>26.6</ele>
        <time>2020-05-31T15:58:55Z</time>
      </trkpt>
      <trkpt lat="46.23102" lon="-0.86665">
        <ele>26.6</ele>
        <time>2020-05-31T15:58:56Z</time>
      </trkpt>
      <trkpt lat="46.23099" lon="-0.86663">
        <ele>26.5</ele>
        <time>2020-05-31T15:58:58Z</time>
      </trkpt>
      <trkpt lat="46.23095" lon="-0.86662">
        <ele>26.4</ele>
        <time>2020-05-31T15:58:59Z</time>
      </trkpt>
      <trkpt lat="46.23091" lon="-0.86661">
        <ele>26.3</ele>
        <time>2020-05-31T15:59:00Z</time>
      </trkpt>
      <trkpt lat="46.23087" lon="-0.86659">
        <ele>26.3</ele>
        <time>2020-05-31T15:59:01Z</time>
      </trkpt>
      <trkpt lat="46.23083" lon="-0.86658">
        <ele>26.2</ele>
        <time>2020-05-31T15:59:02Z</time>
      </trkpt>
      <trkpt lat="46.23079" lon="-0.86657">
        <ele>26.2</ele>
        <time>2020-05-31T15:59:03Z</time>
      </trkpt>
      <trkpt lat="46.23075" lon="-0.86655">
        <ele>26.2</ele>
        <time>2020-05-31T15:59:04Z</time>
      </trkpt>
      <trkpt lat="46.23072" lon="-0.86654">
        <ele>26.2</ele>
        <time>2020-05-31T15:59:05Z</time>
      </trkpt>
      <trkpt lat="46.23069" lon="-0.86652">
        <ele>26.1</ele>
        <time>2020-05-31T15:59:06Z</time>
      </trkpt>
      <trkpt lat="46.23066" lon="-0.86651">
        <ele>26.1</ele>
        <time>2020-05-31T15:59:07Z</time>
      </trkpt>
      <trkpt lat="46.23064" lon="-0.86651">
        <ele>26.1</ele>
        <time>2020-05-31T15:59:08Z</time>
      </trkpt>
      <trkpt lat="46.23059" lon="-0.8665">
        <ele>26.1</ele>
        <time>2020-05-31T15:59:09Z</time>
      </trkpt>
      <trkpt lat="46.23055" lon="-0.86647">
        <ele>26.1</ele>
        <time>2020-05-31T15:59:10Z</time>
      </trkpt>
      <trkpt lat="46.23051" lon="-0.86646">
        <ele>26.1</ele>
        <time>2020-05-31T15:59:11Z</time>
      </trkpt>
      <trkpt lat="46.23048" lon="-0.86644">
        <ele>26.1</ele>
        <time>2020-05-31T15:59:12Z</time>
      </trkpt>
      <trkpt lat="46.23044" lon="-0.86641">
        <ele>26.1</ele>
        <time>2020-05-31T15:59:13Z</time>
      </trkpt>
      <trkpt lat="46.2304" lon="-0.86639">
        <ele>26.1</ele>
        <time>2020-05-31T15:59:14Z</time>
      </trkpt>
      <trkpt lat="46.23036" lon="-0.86637">
        <ele>26.2</ele>
        <time>2020-05-31T15:59:15Z</time>
      </trkpt>
      <trkpt lat="46.23032" lon="-0.86635">
        <ele>26.2</ele>
        <time>2020-05-31T15:59:16Z</time>
      </trkpt>
      <trkpt lat="46.23028" lon="-0.86634">
        <ele>26.2</ele>
        <time>2020-05-31T15:59:17Z</time>
      </trkpt>
      <trkpt lat="46.23025" lon="-0.86633">
        <ele>26.3</ele>
        <time>2020-05-31T15:59:18Z</time>
      </trkpt>
      <trkpt lat="46.2302" lon="-0.86632">
        <ele>26.3</ele>
        <time>2020-05-31T15:59:19Z</time>
      </trkpt>
      <trkpt lat="46.23015" lon="-0.8663">
        <ele>26.4</ele>
        <time>2020-05-31T15:59:20Z</time>
      </trkpt>
      <trkpt lat="46.2301" lon="-0.86628">
        <ele>26.4</ele>
        <time>2020-05-31T15:59:21Z</time>
      </trkpt>
      <trkpt lat="46.23004" lon="-0.86627">
        <ele>26.3</ele>
        <time>2020-05-31T15:59:22Z</time>
      </trkpt>
      <trkpt lat="46.22999" lon="-0.86625">
        <ele>26.2</ele>
        <time>2020-05-31T15:59:23Z</time>
      </trkpt>
      <trkpt lat="46.22993" lon="-0.86623">
        <ele>26.1</ele>
        <time>2020-05-31T15:59:24Z</time>
      </trkpt>
      <trkpt lat="46.22988" lon="-0.86621">
        <ele>26</ele>
        <time>2020-05-31T15:59:25Z</time>
      </trkpt>
      <trkpt lat="46.22984" lon="-0.86618">
        <ele>25.9</ele>
        <time>2020-05-31T15:59:26Z</time>
      </trkpt>
      <trkpt lat="46.2298" lon="-0.86615">
        <ele>26</ele>
        <time>2020-05-31T15:59:27Z</time>
      </trkpt>
      <trkpt lat="46.22976" lon="-0.86613">
        <ele>26.1</ele>
        <time>2020-05-31T15:59:28Z</time>
      </trkpt>
      <trkpt lat="46.22971" lon="-0.8661">
        <ele>26.2</ele>
        <time>2020-05-31T15:59:29Z</time>
      </trkpt>
      <trkpt lat="46.22966" lon="-0.86607">
        <ele>26.4</ele>
        <time>2020-05-31T15:59:30Z</time>
      </trkpt>
      <trkpt lat="46.22962" lon="-0.86605">
        <ele>26.5</ele>
        <time>2020-05-31T15:59:31Z</time>
      </trkpt>
      <trkpt lat="46.22958" lon="-0.86602">
        <ele>26.6</ele>
        <time>2020-05-31T15:59:32Z</time>
      </trkpt>
      <trkpt lat="46.22953" lon="-0.866">
        <ele>26.6</ele>
        <time>2020-05-31T15:59:33Z</time>
      </trkpt>
      <trkpt lat="46.22949" lon="-0.86597">
        <ele>26.7</ele>
        <time>2020-05-31T15:59:34Z</time>
      </trkpt>
      <trkpt lat="46.22947" lon="-0.86594">
        <ele>26.7</ele>
        <time>2020-05-31T15:59:35Z</time>
      </trkpt>
      <trkpt lat="46.22942" lon="-0.86591">
        <ele>26.8</ele>
        <time>2020-05-31T15:59:36Z</time>
      </trkpt>
      <trkpt lat="46.22937" lon="-0.86589">
        <ele>26.8</ele>
        <time>2020-05-31T15:59:37Z</time>
      </trkpt>
      <trkpt lat="46.22933" lon="-0.86587">
        <ele>26.8</ele>
        <time>2020-05-31T15:59:38Z</time>
      </trkpt>
      <trkpt lat="46.22928" lon="-0.86587">
        <ele>26.8</ele>
        <time>2020-05-31T15:59:39Z</time>
      </trkpt>
      <trkpt lat="46.22923" lon="-0.86588">
        <ele>26.7</ele>
        <time>2020-05-31T15:59:40Z</time>
      </trkpt>
      <trkpt lat="46.22919" lon="-0.86591">
        <ele>26.7</ele>
        <time>2020-05-31T15:59:41Z</time>
      </trkpt>
      <trkpt lat="46.22911" lon="-0.86597">
        <ele>26.6</ele>
        <time>2020-05-31T15:59:42Z</time>
      </trkpt>
      <trkpt lat="46.22907" lon="-0.866">
        <ele>26.5</ele>
        <time>2020-05-31T15:59:43Z</time>
      </trkpt>
      <trkpt lat="46.22903" lon="-0.86604">
        <ele>26.4</ele>
        <time>2020-05-31T15:59:44Z</time>
      </trkpt>
      <trkpt lat="46.22898" lon="-0.86608">
        <ele>26.3</ele>
        <time>2020-05-31T15:59:45Z</time>
      </trkpt>
      <trkpt lat="46.22894" lon="-0.86611">
        <ele>26.2</ele>
        <time>2020-05-31T15:59:46Z</time>
      </trkpt>
      <trkpt lat="46.22889" lon="-0.86614">
        <ele>26.2</ele>
        <time>2020-05-31T15:59:47Z</time>
      </trkpt>
      <trkpt lat="46.22886" lon="-0.86618">
        <ele>26.1</ele>
        <time>2020-05-31T15:59:48Z</time>
      </trkpt>
      <trkpt lat="46.22883" lon="-0.86622">
        <ele>26</ele>
        <time>2020-05-31T15:59:49Z</time>
      </trkpt>
      <trkpt lat="46.22878" lon="-0.86625">
        <ele>25.9</ele>
        <time>2020-05-31T15:59:50Z</time>
      </trkpt>
      <trkpt lat="46.22873" lon="-0.86629">
        <ele>25.8</ele>
        <time>2020-05-31T15:59:51Z</time>
      </trkpt>
      <trkpt lat="46.22869" lon="-0.86633">
        <ele>25.7</ele>
        <time>2020-05-31T15:59:52Z</time>
      </trkpt>
      <trkpt lat="46.22863" lon="-0.86635">
        <ele>25.5</ele>
        <time>2020-05-31T15:59:53Z</time>
      </trkpt>
      <trkpt lat="46.22858" lon="-0.86638">
        <ele>25.3</ele>
        <time>2020-05-31T15:59:54Z</time>
      </trkpt>
      <trkpt lat="46.22852" lon="-0.86641">
        <ele>25.2</ele>
        <time>2020-05-31T15:59:55Z</time>
      </trkpt>
      <trkpt lat="46.22848" lon="-0.86643">
        <ele>25</ele>
        <time>2020-05-31T15:59:56Z</time>
      </trkpt>
      <trkpt lat="46.22844" lon="-0.86644">
        <ele>24.9</ele>
        <time>2020-05-31T15:59:57Z</time>
      </trkpt>
      <trkpt lat="46.22839" lon="-0.86646">
        <ele>24.8</ele>
        <time>2020-05-31T15:59:58Z</time>
      </trkpt>
      <trkpt lat="46.22835" lon="-0.86648">
        <ele>24.8</ele>
        <time>2020-05-31T15:59:59Z</time>
      </trkpt>
      <trkpt lat="46.22831" lon="-0.8665">
        <ele>24.8</ele>
        <time>2020-05-31T16:00:00Z</time>
      </trkpt>
      <trkpt lat="46.22827" lon="-0.86652">
        <ele>24.8</ele>
        <time>2020-05-31T16:00:01Z</time>
      </trkpt>
      <trkpt lat="46.22823" lon="-0.86653">
        <ele>24.7</ele>
        <time>2020-05-31T16:00:02Z</time>
      </trkpt>
      <trkpt lat="46.22819" lon="-0.86653">
        <ele>24.7</ele>
        <time>2020-05-31T16:00:03Z</time>
      </trkpt>
      <trkpt lat="46.22814" lon="-0.86652">
        <ele>24.7</ele>
        <time>2020-05-31T16:00:04Z</time>
      </trkpt>
      <trkpt lat="46.22809" lon="-0.86652">
        <ele>24.7</ele>
        <time>2020-05-31T16:00:05Z</time>
      </trkpt>
      <trkpt lat="46.22805" lon="-0.86651">
        <ele>24.7</ele>
        <time>2020-05-31T16:00:06Z</time>
      </trkpt>
      <trkpt lat="46.228" lon="-0.8665">
        <ele>24.7</ele>
        <time>2020-05-31T16:00:07Z</time>
      </trkpt>
      <trkpt lat="46.22794" lon="-0.86651">
        <ele>24.7</ele>
        <time>2020-05-31T16:00:08Z</time>
      </trkpt>
      <trkpt lat="46.22789" lon="-0.86651">
        <ele>24.7</ele>
        <time>2020-05-31T16:00:09Z</time>
      </trkpt>
      <trkpt lat="46.22784" lon="-0.86651">
        <ele>24.7</ele>
        <time>2020-05-31T16:00:10Z</time>
      </trkpt>
      <trkpt lat="46.22779" lon="-0.86651">
        <ele>24.7</ele>
        <time>2020-05-31T16:00:11Z</time>
      </trkpt>
      <trkpt lat="46.22773" lon="-0.8665">
        <ele>24.7</ele>
        <time>2020-05-31T16:00:12Z</time>
      </trkpt>
      <trkpt lat="46.22767" lon="-0.8665">
        <ele>24.6</ele>
        <time>2020-05-31T16:00:13Z</time>
      </trkpt>
      <trkpt lat="46.22762" lon="-0.8665">
        <ele>24.6</ele>
        <time>2020-05-31T16:00:14Z</time>
      </trkpt>
      <trkpt lat="46.22757" lon="-0.86649">
        <ele>24.5</ele>
        <time>2020-05-31T16:00:15Z</time>
      </trkpt>
      <trkpt lat="46.22752" lon="-0.86648">
        <ele>24.5</ele>
        <time>2020-05-31T16:00:16Z</time>
      </trkpt>
      <trkpt lat="46.22747" lon="-0.86647">
        <ele>24.4</ele>
        <time>2020-05-31T16:00:17Z</time>
      </trkpt>
      <trkpt lat="46.22742" lon="-0.86646">
        <ele>24.3</ele>
        <time>2020-05-31T16:00:18Z</time>
      </trkpt>
      <trkpt lat="46.22737" lon="-0.86646">
        <ele>24.2</ele>
        <time>2020-05-31T16:00:19Z</time>
      </trkpt>
      <trkpt lat="46.22732" lon="-0.86647">
        <ele>24.2</ele>
        <time>2020-05-31T16:00:20Z</time>
      </trkpt>
      <trkpt lat="46.22729" lon="-0.86648">
        <ele>24.1</ele>
        <time>2020-05-31T16:00:21Z</time>
      </trkpt>
      <trkpt lat="46.22727" lon="-0.86652">
        <ele>24.1</ele>
        <time>2020-05-31T16:00:22Z</time>
      </trkpt>
      <trkpt lat="46.22726" lon="-0.86657">
        <ele>24.1</ele>
        <time>2020-05-31T16:00:23Z</time>
      </trkpt>
      <trkpt lat="46.22725" lon="-0.86663">
        <ele>24.1</ele>
        <time>2020-05-31T16:00:24Z</time>
      </trkpt>
      <trkpt lat="46.22725" lon="-0.8667">
        <ele>24</ele>
        <time>2020-05-31T16:00:25Z</time>
      </trkpt>
      <trkpt lat="46.22724" lon="-0.86678">
        <ele>24</ele>
        <time>2020-05-31T16:00:26Z</time>
      </trkpt>
      <trkpt lat="46.22723" lon="-0.86685">
        <ele>23.9</ele>
        <time>2020-05-31T16:00:27Z</time>
      </trkpt>
      <trkpt lat="46.22723" lon="-0.86692">
        <ele>23.9</ele>
        <time>2020-05-31T16:00:28Z</time>
      </trkpt>
      <trkpt lat="46.22724" lon="-0.86698">
        <ele>23.8</ele>
        <time>2020-05-31T16:00:29Z</time>
      </trkpt>
      <trkpt lat="46.22723" lon="-0.86704">
        <ele>23.8</ele>
        <time>2020-05-31T16:00:30Z</time>
      </trkpt>
      <trkpt lat="46.22723" lon="-0.8671">
        <ele>23.8</ele>
        <time>2020-05-31T16:00:31Z</time>
      </trkpt>
      <trkpt lat="46.22723" lon="-0.86717">
        <ele>23.7</ele>
        <time>2020-05-31T16:00:32Z</time>
      </trkpt>
      <trkpt lat="46.22723" lon="-0.86723">
        <ele>23.7</ele>
        <time>2020-05-31T16:00:33Z</time>
      </trkpt>
      <trkpt lat="46.22723" lon="-0.86729">
        <ele>23.6</ele>
        <time>2020-05-31T16:00:34Z</time>
      </trkpt>
      <trkpt lat="46.22723" lon="-0.86736">
        <ele>23.6</ele>
        <time>2020-05-31T16:00:35Z</time>
      </trkpt>
      <trkpt lat="46.22723" lon="-0.86742">
        <ele>23.5</ele>
        <time>2020-05-31T16:00:36Z</time>
      </trkpt>
      <trkpt lat="46.22723" lon="-0.86748">
        <ele>23.5</ele>
        <time>2020-05-31T16:00:37Z</time>
      </trkpt>
      <trkpt lat="46.22723" lon="-0.86754">
        <ele>23.4</ele>
        <time>2020-05-31T16:00:38Z</time>
      </trkpt>
      <trkpt lat="46.22722" lon="-0.8676">
        <ele>23.4</ele>
        <time>2020-05-31T16:00:39Z</time>
      </trkpt>
      <trkpt lat="46.22722" lon="-0.86767">
        <ele>23.3</ele>
        <time>2020-05-31T16:00:40Z</time>
      </trkpt>
      <trkpt lat="46.22722" lon="-0.86771">
        <ele>23.3</ele>
        <time>2020-05-31T16:00:41Z</time>
      </trkpt>
      <trkpt lat="46.22723" lon="-0.86777">
        <ele>23.2</ele>
        <time>2020-05-31T16:00:42Z</time>
      </trkpt>
      <trkpt lat="46.22723" lon="-0.86783">
        <ele>23.1</ele>
        <time>2020-05-31T16:00:43Z</time>
      </trkpt>
      <trkpt lat="46.22724" lon="-0.86788">
        <ele>23.1</ele>
        <time>2020-05-31T16:00:44Z</time>
      </trkpt>
      <trkpt lat="46.22724" lon="-0.86794">
        <ele>23</ele>
        <time>2020-05-31T16:00:45Z</time>
      </trkpt>
      <trkpt lat="46.22724" lon="-0.868">
        <ele>23</ele>
        <time>2020-05-31T16:00:46Z</time>
      </trkpt>
      <trkpt lat="46.22723" lon="-0.86805">
        <ele>22.9</ele>
        <time>2020-05-31T16:00:47Z</time>
      </trkpt>
      <trkpt lat="46.22723" lon="-0.86811">
        <ele>22.9</ele>
        <time>2020-05-31T16:00:48Z</time>
      </trkpt>
      <trkpt lat="46.22723" lon="-0.86817">
        <ele>22.8</ele>
        <time>2020-05-31T16:00:49Z</time>
      </trkpt>
      <trkpt lat="46.22722" lon="-0.86824">
        <ele>22.7</ele>
        <time>2020-05-31T16:00:50Z</time>
      </trkpt>
      <trkpt lat="46.22722" lon="-0.8683">
        <ele>22.7</ele>
        <time>2020-05-31T16:00:51Z</time>
      </trkpt>
      <trkpt lat="46.22722" lon="-0.86836">
        <ele>22.6</ele>
        <time>2020-05-31T16:00:52Z</time>
      </trkpt>
      <trkpt lat="46.22722" lon="-0.86844">
        <ele>22.6</ele>
        <time>2020-05-31T16:00:53Z</time>
      </trkpt>
      <trkpt lat="46.22723" lon="-0.8685">
        <ele>22.5</ele>
        <time>2020-05-31T16:00:54Z</time>
      </trkpt>
      <trkpt lat="46.22723" lon="-0.86856">
        <ele>22.5</ele>
        <time>2020-05-31T16:00:55Z</time>
      </trkpt>
      <trkpt lat="46.22724" lon="-0.86864">
        <ele>22.4</ele>
        <time>2020-05-31T16:00:56Z</time>
      </trkpt>
      <trkpt lat="46.22723" lon="-0.86873">
        <ele>22.2</ele>
        <time>2020-05-31T16:00:57Z</time>
      </trkpt>
      <trkpt lat="46.22723" lon="-0.86884">
        <ele>22.1</ele>
        <time>2020-05-31T16:00:58Z</time>
      </trkpt>
      <trkpt lat="46.22723" lon="-0.86894">
        <ele>22</ele>
        <time>2020-05-31T16:00:59Z</time>
      </trkpt>
      <trkpt lat="46.22723" lon="-0.86903">
        <ele>21.9</ele>
        <time>2020-05-31T16:01:00Z</time>
      </trkpt>
      <trkpt lat="46.22723" lon="-0.86912">
        <ele>21.8</ele>
        <time>2020-05-31T16:01:01Z</time>
      </trkpt>
      <trkpt lat="46.22723" lon="-0.86921">
        <ele>21.8</ele>
        <time>2020-05-31T16:01:02Z</time>
      </trkpt>
      <trkpt lat="46.22723" lon="-0.8693">
        <ele>21.7</ele>
        <time>2020-05-31T16:01:03Z</time>
      </trkpt>
      <trkpt lat="46.22722" lon="-0.86939">
        <ele>21.7</ele>
        <time>2020-05-31T16:01:04Z</time>
      </trkpt>
      <trkpt lat="46.22721" lon="-0.8695">
        <ele>21.6</ele>
        <time>2020-05-31T16:01:05Z</time>
      </trkpt>
      <trkpt lat="46.22721" lon="-0.86959">
        <ele>21.5</ele>
        <time>2020-05-31T16:01:06Z</time>
      </trkpt>
      <trkpt lat="46.2272" lon="-0.86969">
        <ele>21.5</ele>
        <time>2020-05-31T16:01:07Z</time>
      </trkpt>
      <trkpt lat="46.22721" lon="-0.86978">
        <ele>21.5</ele>
        <time>2020-05-31T16:01:08Z</time>
      </trkpt>
      <trkpt lat="46.2272" lon="-0.86987">
        <ele>21.4</ele>
        <time>2020-05-31T16:01:09Z</time>
      </trkpt>
      <trkpt lat="46.2272" lon="-0.86997">
        <ele>21.4</ele>
        <time>2020-05-31T16:01:10Z</time>
      </trkpt>
      <trkpt lat="46.22719" lon="-0.87006">
        <ele>21.3</ele>
        <time>2020-05-31T16:01:11Z</time>
      </trkpt>
      <trkpt lat="46.22719" lon="-0.87015">
        <ele>21.3</ele>
        <time>2020-05-31T16:01:12Z</time>
      </trkpt>
      <trkpt lat="46.22718" lon="-0.87023">
        <ele>21.3</ele>
        <time>2020-05-31T16:01:13Z</time>
      </trkpt>
      <trkpt lat="46.22718" lon="-0.87031">
        <ele>21.2</ele>
        <time>2020-05-31T16:01:14Z</time>
      </trkpt>
      <trkpt lat="46.22718" lon="-0.87037">
        <ele>21.2</ele>
        <time>2020-05-31T16:01:15Z</time>
      </trkpt>
      <trkpt lat="46.22718" lon="-0.87045">
        <ele>21.2</ele>
        <time>2020-05-31T16:01:16Z</time>
      </trkpt>
      <trkpt lat="46.22718" lon="-0.87053">
        <ele>21.1</ele>
        <time>2020-05-31T16:01:17Z</time>
      </trkpt>
      <trkpt lat="46.22718" lon="-0.8706">
        <ele>21.1</ele>
        <time>2020-05-31T16:01:18Z</time>
      </trkpt>
      <trkpt lat="46.22717" lon="-0.8707">
        <ele>21.1</ele>
        <time>2020-05-31T16:01:19Z</time>
      </trkpt>
      <trkpt lat="46.22717" lon="-0.87079">
        <ele>21.1</ele>
        <time>2020-05-31T16:01:20Z</time>
      </trkpt>
      <trkpt lat="46.22716" lon="-0.87087">
        <ele>21.1</ele>
        <time>2020-05-31T16:01:21Z</time>
      </trkpt>
      <trkpt lat="46.22715" lon="-0.87096">
        <ele>21.1</ele>
        <time>2020-05-31T16:01:22Z</time>
      </trkpt>
      <trkpt lat="46.22715" lon="-0.87105">
        <ele>21</ele>
        <time>2020-05-31T16:01:23Z</time>
      </trkpt>
      <trkpt lat="46.22714" lon="-0.87114">
        <ele>21</ele>
        <time>2020-05-31T16:01:24Z</time>
      </trkpt>
      <trkpt lat="46.22714" lon="-0.87123">
        <ele>20.9</ele>
        <time>2020-05-31T16:01:25Z</time>
      </trkpt>
      <trkpt lat="46.22713" lon="-0.87131">
        <ele>20.8</ele>
        <time>2020-05-31T16:01:26Z</time>
      </trkpt>
      <trkpt lat="46.22713" lon="-0.87138">
        <ele>20.7</ele>
        <time>2020-05-31T16:01:27Z</time>
      </trkpt>
      <trkpt lat="46.22713" lon="-0.87143">
        <ele>20.7</ele>
        <time>2020-05-31T16:01:28Z</time>
      </trkpt>
      <trkpt lat="46.22713" lon="-0.87149">
        <ele>20.6</ele>
        <time>2020-05-31T16:01:29Z</time>
      </trkpt>
      <trkpt lat="46.22712" lon="-0.8715">
        <ele>20.6</ele>
        <time>2020-05-31T16:01:30Z</time>
      </trkpt>
      <trkpt lat="46.22713" lon="-0.87156">
        <ele>20.6</ele>
        <time>2020-05-31T16:01:31Z</time>
      </trkpt>
      <trkpt lat="46.22714" lon="-0.87159">
        <ele>20.6</ele>
        <time>2020-05-31T16:01:32Z</time>
      </trkpt>
      <trkpt lat="46.22715" lon="-0.87166">
        <ele>20.5</ele>
        <time>2020-05-31T16:01:33Z</time>
      </trkpt>
      <trkpt lat="46.22716" lon="-0.87173">
        <ele>20.5</ele>
        <time>2020-05-31T16:01:34Z</time>
      </trkpt>
      <trkpt lat="46.22716" lon="-0.87181">
        <ele>20.5</ele>
        <time>2020-05-31T16:01:35Z</time>
      </trkpt>
      <trkpt lat="46.22716" lon="-0.87189">
        <ele>20.5</ele>
        <time>2020-05-31T16:01:36Z</time>
      </trkpt>
      <trkpt lat="46.22714" lon="-0.87197">
        <ele>20.5</ele>
        <time>2020-05-31T16:01:37Z</time>
      </trkpt>
      <trkpt lat="46.22712" lon="-0.87205">
        <ele>20.4</ele>
        <time>2020-05-31T16:01:38Z</time>
      </trkpt>
      <trkpt lat="46.22711" lon="-0.87213">
        <ele>20.4</ele>
        <time>2020-05-31T16:01:39Z</time>
      </trkpt>
      <trkpt lat="46.2271" lon="-0.8722">
        <ele>20.3</ele>
        <time>2020-05-31T16:01:40Z</time>
      </trkpt>
      <trkpt lat="46.22711" lon="-0.87228">
        <ele>20.3</ele>
        <time>2020-05-31T16:01:41Z</time>
      </trkpt>
      <trkpt lat="46.22711" lon="-0.87238">
        <ele>20.2</ele>
        <time>2020-05-31T16:01:42Z</time>
      </trkpt>
      <trkpt lat="46.22712" lon="-0.87248">
        <ele>20.2</ele>
        <time>2020-05-31T16:01:43Z</time>
      </trkpt>
      <trkpt lat="46.22713" lon="-0.87258">
        <ele>20.1</ele>
        <time>2020-05-31T16:01:44Z</time>
      </trkpt>
      <trkpt lat="46.22714" lon="-0.87267">
        <ele>20</ele>
        <time>2020-05-31T16:01:45Z</time>
      </trkpt>
      <trkpt lat="46.22714" lon="-0.87277">
        <ele>20</ele>
        <time>2020-05-31T16:01:46Z</time>
      </trkpt>
      <trkpt lat="46.22714" lon="-0.87286">
        <ele>19.8</ele>
        <time>2020-05-31T16:01:47Z</time>
      </trkpt>
      <trkpt lat="46.22714" lon="-0.87295">
        <ele>19.8</ele>
        <time>2020-05-31T16:01:48Z</time>
      </trkpt>
      <trkpt lat="46.22711" lon="-0.87304">
        <ele>19.8</ele>
        <time>2020-05-31T16:01:49Z</time>
      </trkpt>
      <trkpt lat="46.22709" lon="-0.87314">
        <ele>19.8</ele>
        <time>2020-05-31T16:01:50Z</time>
      </trkpt>
      <trkpt lat="46.22708" lon="-0.87324">
        <ele>19.8</ele>
        <time>2020-05-31T16:01:51Z</time>
      </trkpt>
      <trkpt lat="46.22708" lon="-0.87334">
        <ele>19.7</ele>
        <time>2020-05-31T16:01:52Z</time>
      </trkpt>
      <trkpt lat="46.22707" lon="-0.87344">
        <ele>19.7</ele>
        <time>2020-05-31T16:01:53Z</time>
      </trkpt>
      <trkpt lat="46.22707" lon="-0.87355">
        <ele>19.7</ele>
        <time>2020-05-31T16:01:54Z</time>
      </trkpt>
      <trkpt lat="46.22706" lon="-0.87365">
        <ele>19.6</ele>
        <time>2020-05-31T16:01:55Z</time>
      </trkpt>
      <trkpt lat="46.22706" lon="-0.87374">
        <ele>19.6</ele>
        <time>2020-05-31T16:01:56Z</time>
      </trkpt>
      <trkpt lat="46.22705" lon="-0.87384">
        <ele>19.5</ele>
        <time>2020-05-31T16:01:57Z</time>
      </trkpt>
      <trkpt lat="46.22706" lon="-0.87394">
        <ele>19.5</ele>
        <time>2020-05-31T16:01:58Z</time>
      </trkpt>
      <trkpt lat="46.22706" lon="-0.87404">
        <ele>19.5</ele>
        <time>2020-05-31T16:01:59Z</time>
      </trkpt>
      <trkpt lat="46.22707" lon="-0.87413">
        <ele>19.4</ele>
        <time>2020-05-31T16:02:00Z</time>
      </trkpt>
      <trkpt lat="46.22707" lon="-0.87423">
        <ele>19.4</ele>
        <time>2020-05-31T16:02:01Z</time>
      </trkpt>
      <trkpt lat="46.22708" lon="-0.87433">
        <ele>19.4</ele>
        <time>2020-05-31T16:02:02Z</time>
      </trkpt>
      <trkpt lat="46.22709" lon="-0.87442">
        <ele>19.4</ele>
        <time>2020-05-31T16:02:03Z</time>
      </trkpt>
      <trkpt lat="46.2271" lon="-0.87452">
        <ele>19.4</ele>
        <time>2020-05-31T16:02:04Z</time>
      </trkpt>
      <trkpt lat="46.22712" lon="-0.87461">
        <ele>19.4</ele>
        <time>2020-05-31T16:02:05Z</time>
      </trkpt>
      <trkpt lat="46.22713" lon="-0.87471">
        <ele>19.4</ele>
        <time>2020-05-31T16:02:06Z</time>
      </trkpt>
      <trkpt lat="46.22715" lon="-0.8748">
        <ele>19.4</ele>
        <time>2020-05-31T16:02:07Z</time>
      </trkpt>
      <trkpt lat="46.22717" lon="-0.87489">
        <ele>19.4</ele>
        <time>2020-05-31T16:02:08Z</time>
      </trkpt>
      <trkpt lat="46.22719" lon="-0.87498">
        <ele>19.4</ele>
        <time>2020-05-31T16:02:09Z</time>
      </trkpt>
      <trkpt lat="46.22722" lon="-0.87507">
        <ele>19.4</ele>
        <time>2020-05-31T16:02:10Z</time>
      </trkpt>
      <trkpt lat="46.22724" lon="-0.87515">
        <ele>19.4</ele>
        <time>2020-05-31T16:02:11Z</time>
      </trkpt>
      <trkpt lat="46.22726" lon="-0.87524">
        <ele>19.4</ele>
        <time>2020-05-31T16:02:12Z</time>
      </trkpt>
      <trkpt lat="46.22728" lon="-0.87533">
        <ele>19.4</ele>
        <time>2020-05-31T16:02:13Z</time>
      </trkpt>
      <trkpt lat="46.22731" lon="-0.87542">
        <ele>19.4</ele>
        <time>2020-05-31T16:02:14Z</time>
      </trkpt>
      <trkpt lat="46.22733" lon="-0.87551">
        <ele>19.4</ele>
        <time>2020-05-31T16:02:15Z</time>
      </trkpt>
      <trkpt lat="46.22736" lon="-0.87559">
        <ele>19.4</ele>
        <time>2020-05-31T16:02:16Z</time>
      </trkpt>
      <trkpt lat="46.22739" lon="-0.87566">
        <ele>19.4</ele>
        <time>2020-05-31T16:02:17Z</time>
      </trkpt>
      <trkpt lat="46.22742" lon="-0.87574">
        <ele>19.4</ele>
        <time>2020-05-31T16:02:18Z</time>
      </trkpt>
      <trkpt lat="46.22745" lon="-0.87581">
        <ele>19.4</ele>
        <time>2020-05-31T16:02:19Z</time>
      </trkpt>
      <trkpt lat="46.22749" lon="-0.87588">
        <ele>19.4</ele>
        <time>2020-05-31T16:02:20Z</time>
      </trkpt>
      <trkpt lat="46.22752" lon="-0.87594">
        <ele>19.4</ele>
        <time>2020-05-31T16:02:21Z</time>
      </trkpt>
      <trkpt lat="46.22756" lon="-0.876">
        <ele>19.5</ele>
        <time>2020-05-31T16:02:22Z</time>
      </trkpt>
      <trkpt lat="46.2276" lon="-0.87606">
        <ele>19.5</ele>
        <time>2020-05-31T16:02:23Z</time>
      </trkpt>
      <trkpt lat="46.22764" lon="-0.87611">
        <ele>19.5</ele>
        <time>2020-05-31T16:02:24Z</time>
      </trkpt>
      <trkpt lat="46.22769" lon="-0.87614">
        <ele>19.4</ele>
        <time>2020-05-31T16:02:25Z</time>
      </trkpt>
      <trkpt lat="46.22774" lon="-0.87615">
        <ele>19.4</ele>
        <time>2020-05-31T16:02:26Z</time>
      </trkpt>
      <trkpt lat="46.22779" lon="-0.87616">
        <ele>19.4</ele>
        <time>2020-05-31T16:02:27Z</time>
      </trkpt>
      <trkpt lat="46.22784" lon="-0.87614">
        <ele>19.4</ele>
        <time>2020-05-31T16:02:28Z</time>
      </trkpt>
      <trkpt lat="46.22789" lon="-0.87614">
        <ele>19.4</ele>
        <time>2020-05-31T16:02:29Z</time>
      </trkpt>
      <trkpt lat="46.22794" lon="-0.87613">
        <ele>19.4</ele>
        <time>2020-05-31T16:02:30Z</time>
      </trkpt>
      <trkpt lat="46.22799" lon="-0.87612">
        <ele>19.4</ele>
        <time>2020-05-31T16:02:31Z</time>
      </trkpt>
      <trkpt lat="46.22804" lon="-0.8761">
        <ele>19.4</ele>
        <time>2020-05-31T16:02:32Z</time>
      </trkpt>
      <trkpt lat="46.22809" lon="-0.87609">
        <ele>19.4</ele>
        <time>2020-05-31T16:02:33Z</time>
      </trkpt>
      <trkpt lat="46.22814" lon="-0.87607">
        <ele>19.4</ele>
        <time>2020-05-31T16:02:34Z</time>
      </trkpt>
      <trkpt lat="46.22818" lon="-0.87604">
        <ele>19.4</ele>
        <time>2020-05-31T16:02:35Z</time>
      </trkpt>
      <trkpt lat="46.22821" lon="-0.87599">
        <ele>19.3</ele>
        <time>2020-05-31T16:02:36Z</time>
      </trkpt>
      <trkpt lat="46.22824" lon="-0.87595">
        <ele>19.3</ele>
        <time>2020-05-31T16:02:37Z</time>
      </trkpt>
      <trkpt lat="46.22827" lon="-0.87592">
        <ele>19.3</ele>
        <time>2020-05-31T16:02:38Z</time>
      </trkpt>
      <trkpt lat="46.2283" lon="-0.87592">
        <ele>19.3</ele>
        <time>2020-05-31T16:02:39Z</time>
      </trkpt>
      <trkpt lat="46.22833" lon="-0.87592">
        <ele>19.3</ele>
        <time>2020-05-31T16:02:40Z</time>
      </trkpt>
      <trkpt lat="46.22836" lon="-0.87594">
        <ele>19.3</ele>
        <time>2020-05-31T16:02:41Z</time>
      </trkpt>
      <trkpt lat="46.22836" lon="-0.87596">
        <ele>19.3</ele>
        <time>2020-05-31T16:02:42Z</time>
      </trkpt>
      <trkpt lat="46.22837" lon="-0.87601">
        <ele>19.3</ele>
        <time>2020-05-31T16:02:43Z</time>
      </trkpt>
      <trkpt lat="46.22838" lon="-0.87603">
        <ele>19.3</ele>
        <time>2020-05-31T16:02:44Z</time>
      </trkpt>
      <trkpt lat="46.22837" lon="-0.87607">
        <ele>19.3</ele>
        <time>2020-05-31T16:02:45Z</time>
      </trkpt>
      <trkpt lat="46.22836" lon="-0.8761">
        <ele>19.3</ele>
        <time>2020-05-31T16:02:46Z</time>
      </trkpt>
      <trkpt lat="46.22836" lon="-0.87615">
        <ele>19.3</ele>
        <time>2020-05-31T16:02:47Z</time>
      </trkpt>
      <trkpt lat="46.22835" lon="-0.87619">
        <ele>19.3</ele>
        <time>2020-05-31T16:02:48Z</time>
      </trkpt>
      <trkpt lat="46.22833" lon="-0.87624">
        <ele>19.3</ele>
        <time>2020-05-31T16:02:49Z</time>
      </trkpt>
      <trkpt lat="46.22832" lon="-0.87628">
        <ele>19.3</ele>
        <time>2020-05-31T16:02:50Z</time>
      </trkpt>
      <trkpt lat="46.22831" lon="-0.87633">
        <ele>19.3</ele>
        <time>2020-05-31T16:02:51Z</time>
      </trkpt>
      <trkpt lat="46.2283" lon="-0.87639">
        <ele>19.3</ele>
        <time>2020-05-31T16:02:52Z</time>
      </trkpt>
      <trkpt lat="46.2283" lon="-0.87646">
        <ele>19.3</ele>
        <time>2020-05-31T16:02:53Z</time>
      </trkpt>
      <trkpt lat="46.22829" lon="-0.87653">
        <ele>19.2</ele>
        <time>2020-05-31T16:02:54Z</time>
      </trkpt>
      <trkpt lat="46.22829" lon="-0.8766">
        <ele>19.2</ele>
        <time>2020-05-31T16:02:55Z</time>
      </trkpt>
      <trkpt lat="46.22828" lon="-0.87666">
        <ele>19.2</ele>
        <time>2020-05-31T16:02:56Z</time>
      </trkpt>
      <trkpt lat="46.22828" lon="-0.87674">
        <ele>19.2</ele>
        <time>2020-05-31T16:02:57Z</time>
      </trkpt>
      <trkpt lat="46.22827" lon="-0.87681">
        <ele>19.2</ele>
        <time>2020-05-31T16:02:58Z</time>
      </trkpt>
      <trkpt lat="46.22826" lon="-0.87689">
        <ele>19.2</ele>
        <time>2020-05-31T16:02:59Z</time>
      </trkpt>
      <trkpt lat="46.22825" lon="-0.87697">
        <ele>19.1</ele>
        <time>2020-05-31T16:03:00Z</time>
      </trkpt>
      <trkpt lat="46.22824" lon="-0.87706">
        <ele>19.1</ele>
        <time>2020-05-31T16:03:01Z</time>
      </trkpt>
      <trkpt lat="46.22824" lon="-0.87715">
        <ele>19.1</ele>
        <time>2020-05-31T16:03:02Z</time>
      </trkpt>
      <trkpt lat="46.22825" lon="-0.87724">
        <ele>19.1</ele>
        <time>2020-05-31T16:03:03Z</time>
      </trkpt>
      <trkpt lat="46.22827" lon="-0.87732">
        <ele>19.1</ele>
        <time>2020-05-31T16:03:04Z</time>
      </trkpt>
      <trkpt lat="46.22829" lon="-0.8774">
        <ele>19.1</ele>
        <time>2020-05-31T16:03:05Z</time>
      </trkpt>
      <trkpt lat="46.2283" lon="-0.87748">
        <ele>19.1</ele>
        <time>2020-05-31T16:03:06Z</time>
      </trkpt>
      <trkpt lat="46.22833" lon="-0.87755">
        <ele>19</ele>
        <time>2020-05-31T16:03:07Z</time>
      </trkpt>
      <trkpt lat="46.22836" lon="-0.87761">
        <ele>19</ele>
        <time>2020-05-31T16:03:08Z</time>
      </trkpt>
      <trkpt lat="46.22839" lon="-0.87768">
        <ele>19</ele>
        <time>2020-05-31T16:03:09Z</time>
      </trkpt>
      <trkpt lat="46.22843" lon="-0.87774">
        <ele>19</ele>
        <time>2020-05-31T16:03:10Z</time>
      </trkpt>
      <trkpt lat="46.22846" lon="-0.87781">
        <ele>19</ele>
        <time>2020-05-31T16:03:11Z</time>
      </trkpt>
      <trkpt lat="46.2285" lon="-0.87786">
        <ele>19</ele>
        <time>2020-05-31T16:03:12Z</time>
      </trkpt>
      <trkpt lat="46.22853" lon="-0.87793">
        <ele>19</ele>
        <time>2020-05-31T16:03:13Z</time>
      </trkpt>
      <trkpt lat="46.22857" lon="-0.87799">
        <ele>18.9</ele>
        <time>2020-05-31T16:03:14Z</time>
      </trkpt>
      <trkpt lat="46.2286" lon="-0.87807">
        <ele>18.4</ele>
        <time>2020-05-31T16:03:15Z</time>
      </trkpt>
      <trkpt lat="46.22863" lon="-0.87813">
        <ele>18.4</ele>
        <time>2020-05-31T16:03:16Z</time>
      </trkpt>
      <trkpt lat="46.22866" lon="-0.8782">
        <ele>18.4</ele>
        <time>2020-05-31T16:03:17Z</time>
      </trkpt>
      <trkpt lat="46.22869" lon="-0.87826">
        <ele>18.4</ele>
        <time>2020-05-31T16:03:18Z</time>
      </trkpt>
      <trkpt lat="46.22872" lon="-0.87832">
        <ele>18.4</ele>
        <time>2020-05-31T16:03:19Z</time>
      </trkpt>
      <trkpt lat="46.22874" lon="-0.87841">
        <ele>18.4</ele>
        <time>2020-05-31T16:03:20Z</time>
      </trkpt>
      <trkpt lat="46.22876" lon="-0.87849">
        <ele>18.5</ele>
        <time>2020-05-31T16:03:21Z</time>
      </trkpt>
      <trkpt lat="46.22877" lon="-0.87856">
        <ele>18.5</ele>
        <time>2020-05-31T16:03:22Z</time>
      </trkpt>
      <trkpt lat="46.22879" lon="-0.87863">
        <ele>18.5</ele>
        <time>2020-05-31T16:03:23Z</time>
      </trkpt>
      <trkpt lat="46.22879" lon="-0.87871">
        <ele>18.5</ele>
        <time>2020-05-31T16:03:24Z</time>
      </trkpt>
      <trkpt lat="46.22879" lon="-0.87878">
        <ele>18.5</ele>
        <time>2020-05-31T16:03:25Z</time>
      </trkpt>
      <trkpt lat="46.2288" lon="-0.87885">
        <ele>18.5</ele>
        <time>2020-05-31T16:03:26Z</time>
      </trkpt>
      <trkpt lat="46.2288" lon="-0.87892">
        <ele>18.5</ele>
        <time>2020-05-31T16:03:27Z</time>
      </trkpt>
      <trkpt lat="46.2288" lon="-0.87899">
        <ele>18.6</ele>
        <time>2020-05-31T16:03:28Z</time>
      </trkpt>
      <trkpt lat="46.22879" lon="-0.87904">
        <ele>18.6</ele>
        <time>2020-05-31T16:03:29Z</time>
      </trkpt>
      <trkpt lat="46.2288" lon="-0.87912">
        <ele>18.6</ele>
        <time>2020-05-31T16:03:30Z</time>
      </trkpt>
      <trkpt lat="46.2288" lon="-0.87917">
        <ele>18.6</ele>
        <time>2020-05-31T16:03:31Z</time>
      </trkpt>
      <trkpt lat="46.2288" lon="-0.87922">
        <ele>18.6</ele>
        <time>2020-05-31T16:03:32Z</time>
      </trkpt>
      <trkpt lat="46.22881" lon="-0.87925">
        <ele>18.7</ele>
        <time>2020-05-31T16:03:33Z</time>
      </trkpt>
      <trkpt lat="46.22881" lon="-0.87927">
        <ele>18.7</ele>
        <time>2020-05-31T16:03:34Z</time>
      </trkpt>
      <trkpt lat="46.22881" lon="-0.87928">
        <ele>18.7</ele>
        <time>2020-05-31T16:03:35Z</time>
      </trkpt>
      <trkpt lat="46.2288" lon="-0.8793">
        <ele>18.7</ele>
        <time>2020-05-31T16:03:36Z</time>
      </trkpt>
      <trkpt lat="46.2288" lon="-0.87931">
        <ele>18.7</ele>
        <time>2020-05-31T16:03:37Z</time>
      </trkpt>
      <trkpt lat="46.2288" lon="-0.8793">
        <ele>18.8</ele>
        <time>2020-05-31T16:03:38Z</time>
      </trkpt>
      <trkpt lat="46.2288" lon="-0.87929">
        <ele>18.8</ele>
        <time>2020-05-31T16:03:39Z</time>
      </trkpt>
      <trkpt lat="46.22881" lon="-0.87928">
        <ele>18.8</ele>
        <time>2020-05-31T16:03:40Z</time>
      </trkpt>
      <trkpt lat="46.22881" lon="-0.87928">
        <ele>18.8</ele>
        <time>2020-05-31T16:03:41Z</time>
      </trkpt>
      <trkpt lat="46.22882" lon="-0.87927">
        <ele>18.8</ele>
        <time>2020-05-31T16:03:42Z</time>
      </trkpt>
      <trkpt lat="46.22882" lon="-0.87927">
        <ele>18.8</ele>
        <time>2020-05-31T16:03:43Z</time>
      </trkpt>
      <trkpt lat="46.22882" lon="-0.87927">
        <ele>18.8</ele>
        <time>2020-05-31T16:03:44Z</time>
      </trkpt>
      <trkpt lat="46.22882" lon="-0.87927">
        <ele>18.8</ele>
        <time>2020-05-31T16:03:45Z</time>
      </trkpt>
      <trkpt lat="46.22882" lon="-0.87927">
        <ele>18.8</ele>
        <time>2020-05-31T16:03:46Z</time>
      </trkpt>
      <trkpt lat="46.22882" lon="-0.87926">
        <ele>18.8</ele>
        <time>2020-05-31T16:03:47Z</time>
      </trkpt>
      <trkpt lat="46.22882" lon="-0.87926">
        <ele>18.8</ele>
        <time>2020-05-31T16:03:48Z</time>
      </trkpt>
      <trkpt lat="46.22882" lon="-0.87926">
        <ele>18.8</ele>
        <time>2020-05-31T16:03:49Z</time>
      </trkpt>
      <trkpt lat="46.22882" lon="-0.87926">
        <ele>18.8</ele>
        <time>2020-05-31T16:03:50Z</time>
      </trkpt>
      <trkpt lat="46.22882" lon="-0.87926">
        <ele>18.8</ele>
        <time>2020-05-31T16:03:51Z</time>
      </trkpt>
      <trkpt lat="46.22882" lon="-0.87925">
        <ele>18.8</ele>
        <time>2020-05-31T16:03:52Z</time>
      </trkpt>
      <trkpt lat="46.22882" lon="-0.87925">
        <ele>18.8</ele>
        <time>2020-05-31T16:03:53Z</time>
      </trkpt>
      <trkpt lat="46.22882" lon="-0.87925">
        <ele>18.8</ele>
        <time>2020-05-31T16:03:54Z</time>
      </trkpt>
      <trkpt lat="46.22881" lon="-0.87926">
        <ele>18.8</ele>
        <time>2020-05-31T16:03:55Z</time>
      </trkpt>
      <trkpt lat="46.22881" lon="-0.87927">
        <ele>18.8</ele>
        <time>2020-05-31T16:03:56Z</time>
      </trkpt>
      <trkpt lat="46.2288" lon="-0.87929">
        <ele>18.8</ele>
        <time>2020-05-31T16:03:57Z</time>
      </trkpt>
      <trkpt lat="46.22878" lon="-0.87931">
        <ele>18.8</ele>
        <time>2020-05-31T16:03:58Z</time>
      </trkpt>
      <trkpt lat="46.22874" lon="-0.87932">
        <ele>18.9</ele>
        <time>2020-05-31T16:03:59Z</time>
      </trkpt>
      <trkpt lat="46.22869" lon="-0.8793">
        <ele>18.9</ele>
        <time>2020-05-31T16:04:00Z</time>
      </trkpt>
      <trkpt lat="46.22865" lon="-0.87928">
        <ele>18.9</ele>
        <time>2020-05-31T16:04:01Z</time>
      </trkpt>
      <trkpt lat="46.22862" lon="-0.87926">
        <ele>19</ele>
        <time>2020-05-31T16:04:02Z</time>
      </trkpt>
      <trkpt lat="46.22857" lon="-0.87924">
        <ele>19.1</ele>
        <time>2020-05-31T16:04:03Z</time>
      </trkpt>
      <trkpt lat="46.22853" lon="-0.87922">
        <ele>19.2</ele>
        <time>2020-05-31T16:04:04Z</time>
      </trkpt>
      <trkpt lat="46.22848" lon="-0.87919">
        <ele>19.3</ele>
        <time>2020-05-31T16:04:05Z</time>
      </trkpt>
      <trkpt lat="46.22844" lon="-0.87917">
        <ele>19.4</ele>
        <time>2020-05-31T16:04:06Z</time>
      </trkpt>
      <trkpt lat="46.2284" lon="-0.87914">
        <ele>19.5</ele>
        <time>2020-05-31T16:04:07Z</time>
      </trkpt>
      <trkpt lat="46.22836" lon="-0.87913">
        <ele>19.5</ele>
        <time>2020-05-31T16:04:08Z</time>
      </trkpt>
      <trkpt lat="46.22832" lon="-0.87909">
        <ele>19.7</ele>
        <time>2020-05-31T16:04:09Z</time>
      </trkpt>
      <trkpt lat="46.22828" lon="-0.87907">
        <ele>19.8</ele>
        <time>2020-05-31T16:04:10Z</time>
      </trkpt>
      <trkpt lat="46.22824" lon="-0.87905">
        <ele>19.9</ele>
        <time>2020-05-31T16:04:11Z</time>
      </trkpt>
      <trkpt lat="46.2282" lon="-0.87902">
        <ele>20</ele>
        <time>2020-05-31T16:04:12Z</time>
      </trkpt>
      <trkpt lat="46.22816" lon="-0.87901">
        <ele>20.1</ele>
        <time>2020-05-31T16:04:13Z</time>
      </trkpt>
      <trkpt lat="46.22812" lon="-0.87899">
        <ele>20.2</ele>
        <time>2020-05-31T16:04:14Z</time>
      </trkpt>
      <trkpt lat="46.22808" lon="-0.87897">
        <ele>20.4</ele>
        <time>2020-05-31T16:04:15Z</time>
      </trkpt>
      <trkpt lat="46.22805" lon="-0.87894">
        <ele>20.5</ele>
        <time>2020-05-31T16:04:16Z</time>
      </trkpt>
      <trkpt lat="46.22801" lon="-0.87891">
        <ele>20.6</ele>
        <time>2020-05-31T16:04:17Z</time>
      </trkpt>
      <trkpt lat="46.22796" lon="-0.87889">
        <ele>20.8</ele>
        <time>2020-05-31T16:04:18Z</time>
      </trkpt>
      <trkpt lat="46.22791" lon="-0.87887">
        <ele>20.9</ele>
        <time>2020-05-31T16:04:19Z</time>
      </trkpt>
      <trkpt lat="46.22787" lon="-0.87884">
        <ele>21</ele>
        <time>2020-05-31T16:04:20Z</time>
      </trkpt>
      <trkpt lat="46.22783" lon="-0.87882">
        <ele>21.1</ele>
        <time>2020-05-31T16:04:21Z</time>
      </trkpt>
      <trkpt lat="46.22778" lon="-0.87879">
        <ele>21.3</ele>
        <time>2020-05-31T16:04:22Z</time>
      </trkpt>
      <trkpt lat="46.22774" lon="-0.87877">
        <ele>21.4</ele>
        <time>2020-05-31T16:04:23Z</time>
      </trkpt>
      <trkpt lat="46.22769" lon="-0.87874">
        <ele>21.5</ele>
        <time>2020-05-31T16:04:24Z</time>
      </trkpt>
      <trkpt lat="46.22765" lon="-0.87871">
        <ele>21.7</ele>
        <time>2020-05-31T16:04:25Z</time>
      </trkpt>
      <trkpt lat="46.22761" lon="-0.87869">
        <ele>21.8</ele>
        <time>2020-05-31T16:04:26Z</time>
      </trkpt>
      <trkpt lat="46.22756" lon="-0.87867">
        <ele>22</ele>
        <time>2020-05-31T16:04:27Z</time>
      </trkpt>
      <trkpt lat="46.22753" lon="-0.87864">
        <ele>22.1</ele>
        <time>2020-05-31T16:04:28Z</time>
      </trkpt>
      <trkpt lat="46.22748" lon="-0.87862">
        <ele>22.2</ele>
        <time>2020-05-31T16:04:29Z</time>
      </trkpt>
      <trkpt lat="46.22745" lon="-0.8786">
        <ele>22.4</ele>
        <time>2020-05-31T16:04:30Z</time>
      </trkpt>
      <trkpt lat="46.22741" lon="-0.87857">
        <ele>22.5</ele>
        <time>2020-05-31T16:04:31Z</time>
      </trkpt>
      <trkpt lat="46.22738" lon="-0.87855">
        <ele>22.6</ele>
        <time>2020-05-31T16:04:32Z</time>
      </trkpt>
      <trkpt lat="46.22734" lon="-0.87854">
        <ele>22.7</ele>
        <time>2020-05-31T16:04:33Z</time>
      </trkpt>
      <trkpt lat="46.22731" lon="-0.87852">
        <ele>22.8</ele>
        <time>2020-05-31T16:04:34Z</time>
      </trkpt>
      <trkpt lat="46.22727" lon="-0.8785">
        <ele>22.9</ele>
        <time>2020-05-31T16:04:35Z</time>
      </trkpt>
      <trkpt lat="46.22724" lon="-0.87847">
        <ele>23</ele>
        <time>2020-05-31T16:04:36Z</time>
      </trkpt>
      <trkpt lat="46.2272" lon="-0.87846">
        <ele>23.1</ele>
        <time>2020-05-31T16:04:37Z</time>
      </trkpt>
      <trkpt lat="46.22715" lon="-0.87844">
        <ele>23.1</ele>
        <time>2020-05-31T16:04:38Z</time>
      </trkpt>
      <trkpt lat="46.22711" lon="-0.87842">
        <ele>23.2</ele>
        <time>2020-05-31T16:04:39Z</time>
      </trkpt>
      <trkpt lat="46.22707" lon="-0.87841">
        <ele>23.2</ele>
        <time>2020-05-31T16:04:40Z</time>
      </trkpt>
      <trkpt lat="46.22703" lon="-0.87841">
        <ele>23.2</ele>
        <time>2020-05-31T16:04:41Z</time>
      </trkpt>
      <trkpt lat="46.22699" lon="-0.87839">
        <ele>23.2</ele>
        <time>2020-05-31T16:04:42Z</time>
      </trkpt>
      <trkpt lat="46.22694" lon="-0.87839">
        <ele>23.2</ele>
        <time>2020-05-31T16:04:43Z</time>
      </trkpt>
      <trkpt lat="46.22689" lon="-0.87839">
        <ele>23.2</ele>
        <time>2020-05-31T16:04:44Z</time>
      </trkpt>
      <trkpt lat="46.22684" lon="-0.87839">
        <ele>23.2</ele>
        <time>2020-05-31T16:04:45Z</time>
      </trkpt>
      <trkpt lat="46.22679" lon="-0.87837">
        <ele>23.2</ele>
        <time>2020-05-31T16:04:46Z</time>
      </trkpt>
      <trkpt lat="46.22674" lon="-0.87837">
        <ele>23.2</ele>
        <time>2020-05-31T16:04:47Z</time>
      </trkpt>
      <trkpt lat="46.2267" lon="-0.87838">
        <ele>23.2</ele>
        <time>2020-05-31T16:04:48Z</time>
      </trkpt>
      <trkpt lat="46.22665" lon="-0.87838">
        <ele>23.2</ele>
        <time>2020-05-31T16:04:49Z</time>
      </trkpt>
      <trkpt lat="46.2266" lon="-0.87839">
        <ele>23.2</ele>
        <time>2020-05-31T16:04:50Z</time>
      </trkpt>
      <trkpt lat="46.22655" lon="-0.87841">
        <ele>23.2</ele>
        <time>2020-05-31T16:04:51Z</time>
      </trkpt>
      <trkpt lat="46.2265" lon="-0.87842">
        <ele>23.2</ele>
        <time>2020-05-31T16:04:52Z</time>
      </trkpt>
      <trkpt lat="46.22645" lon="-0.87844">
        <ele>23.2</ele>
        <time>2020-05-31T16:04:53Z</time>
      </trkpt>
      <trkpt lat="46.22638" lon="-0.87846">
        <ele>23.1</ele>
        <time>2020-05-31T16:04:54Z</time>
      </trkpt>
      <trkpt lat="46.22632" lon="-0.87848">
        <ele>23</ele>
        <time>2020-05-31T16:04:55Z</time>
      </trkpt>
      <trkpt lat="46.22627" lon="-0.87851">
        <ele>22.9</ele>
        <time>2020-05-31T16:04:56Z</time>
      </trkpt>
      <trkpt lat="46.22621" lon="-0.87854">
        <ele>22.8</ele>
        <time>2020-05-31T16:04:57Z</time>
      </trkpt>
      <trkpt lat="46.22616" lon="-0.87856">
        <ele>22.7</ele>
        <time>2020-05-31T16:04:58Z</time>
      </trkpt>
      <trkpt lat="46.22609" lon="-0.8786">
        <ele>22.5</ele>
        <time>2020-05-31T16:04:59Z</time>
      </trkpt>
      <trkpt lat="46.22603" lon="-0.87864">
        <ele>22.4</ele>
        <time>2020-05-31T16:05:00Z</time>
      </trkpt>
      <trkpt lat="46.22597" lon="-0.87868">
        <ele>22.2</ele>
        <time>2020-05-31T16:05:01Z</time>
      </trkpt>
      <trkpt lat="46.22591" lon="-0.87872">
        <ele>22</ele>
        <time>2020-05-31T16:05:02Z</time>
      </trkpt>
      <trkpt lat="46.22584" lon="-0.87876">
        <ele>21.8</ele>
        <time>2020-05-31T16:05:03Z</time>
      </trkpt>
      <trkpt lat="46.22577" lon="-0.8788">
        <ele>21.6</ele>
        <time>2020-05-31T16:05:04Z</time>
      </trkpt>
      <trkpt lat="46.22572" lon="-0.87884">
        <ele>21.4</ele>
        <time>2020-05-31T16:05:05Z</time>
      </trkpt>
      <trkpt lat="46.22564" lon="-0.87888">
        <ele>21.2</ele>
        <time>2020-05-31T16:05:06Z</time>
      </trkpt>
      <trkpt lat="46.22557" lon="-0.87893">
        <ele>21</ele>
        <time>2020-05-31T16:05:07Z</time>
      </trkpt>
      <trkpt lat="46.2255" lon="-0.87897">
        <ele>20.8</ele>
        <time>2020-05-31T16:05:08Z</time>
      </trkpt>
      <trkpt lat="46.22543" lon="-0.87901">
        <ele>20.7</ele>
        <time>2020-05-31T16:05:09Z</time>
      </trkpt>
      <trkpt lat="46.22535" lon="-0.87904">
        <ele>20.1</ele>
        <time>2020-05-31T16:05:10Z</time>
      </trkpt>
      <trkpt lat="46.22527" lon="-0.87905">
        <ele>19.6</ele>
        <time>2020-05-31T16:05:11Z</time>
      </trkpt>
      <trkpt lat="46.22518" lon="-0.87906">
        <ele>19.1</ele>
        <time>2020-05-31T16:05:12Z</time>
      </trkpt>
      <trkpt lat="46.2251" lon="-0.87907">
        <ele>18.7</ele>
        <time>2020-05-31T16:05:13Z</time>
      </trkpt>
      <trkpt lat="46.22502" lon="-0.87909">
        <ele>18.6</ele>
        <time>2020-05-31T16:05:14Z</time>
      </trkpt>
      <trkpt lat="46.22494" lon="-0.8791">
        <ele>18.5</ele>
        <time>2020-05-31T16:05:15Z</time>
      </trkpt>
      <trkpt lat="46.22487" lon="-0.8791">
        <ele>18.5</ele>
        <time>2020-05-31T16:05:16Z</time>
      </trkpt>
      <trkpt lat="46.22479" lon="-0.87911">
        <ele>18.4</ele>
        <time>2020-05-31T16:05:17Z</time>
      </trkpt>
      <trkpt lat="46.22472" lon="-0.8791">
        <ele>18.3</ele>
        <time>2020-05-31T16:05:18Z</time>
      </trkpt>
      <trkpt lat="46.22465" lon="-0.87909">
        <ele>18.2</ele>
        <time>2020-05-31T16:05:19Z</time>
      </trkpt>
      <trkpt lat="46.22457" lon="-0.87908">
        <ele>18.2</ele>
        <time>2020-05-31T16:05:20Z</time>
      </trkpt>
      <trkpt lat="46.22451" lon="-0.87906">
        <ele>18.1</ele>
        <time>2020-05-31T16:05:21Z</time>
      </trkpt>
      <trkpt lat="46.22444" lon="-0.87904">
        <ele>18</ele>
        <time>2020-05-31T16:05:22Z</time>
      </trkpt>
      <trkpt lat="46.22437" lon="-0.87902">
        <ele>17.9</ele>
        <time>2020-05-31T16:05:23Z</time>
      </trkpt>
      <trkpt lat="46.22431" lon="-0.87899">
        <ele>17.8</ele>
        <time>2020-05-31T16:05:24Z</time>
      </trkpt>
      <trkpt lat="46.22425" lon="-0.87896">
        <ele>17.7</ele>
        <time>2020-05-31T16:05:25Z</time>
      </trkpt>
      <trkpt lat="46.22419" lon="-0.87893">
        <ele>17.6</ele>
        <time>2020-05-31T16:05:26Z</time>
      </trkpt>
      <trkpt lat="46.22413" lon="-0.87889">
        <ele>17.6</ele>
        <time>2020-05-31T16:05:27Z</time>
      </trkpt>
      <trkpt lat="46.22408" lon="-0.87884">
        <ele>17.5</ele>
        <time>2020-05-31T16:05:28Z</time>
      </trkpt>
      <trkpt lat="46.22402" lon="-0.8788">
        <ele>17.5</ele>
        <time>2020-05-31T16:05:29Z</time>
      </trkpt>
      <trkpt lat="46.22397" lon="-0.87876">
        <ele>17.4</ele>
        <time>2020-05-31T16:05:30Z</time>
      </trkpt>
      <trkpt lat="46.22392" lon="-0.87872">
        <ele>17.4</ele>
        <time>2020-05-31T16:05:31Z</time>
      </trkpt>
      <trkpt lat="46.22386" lon="-0.87867">
        <ele>17.3</ele>
        <time>2020-05-31T16:05:32Z</time>
      </trkpt>
      <trkpt lat="46.22381" lon="-0.87863">
        <ele>17.3</ele>
        <time>2020-05-31T16:05:33Z</time>
      </trkpt>
      <trkpt lat="46.22376" lon="-0.87859">
        <ele>17.2</ele>
        <time>2020-05-31T16:05:34Z</time>
      </trkpt>
      <trkpt lat="46.22371" lon="-0.87854">
        <ele>17.1</ele>
        <time>2020-05-31T16:05:35Z</time>
      </trkpt>
      <trkpt lat="46.22366" lon="-0.8785">
        <ele>17</ele>
        <time>2020-05-31T16:05:36Z</time>
      </trkpt>
      <trkpt lat="46.22361" lon="-0.87846">
        <ele>16.9</ele>
        <time>2020-05-31T16:05:37Z</time>
      </trkpt>
      <trkpt lat="46.22357" lon="-0.87843">
        <ele>16.8</ele>
        <time>2020-05-31T16:05:38Z</time>
      </trkpt>
      <trkpt lat="46.22352" lon="-0.87839">
        <ele>16.7</ele>
        <time>2020-05-31T16:05:39Z</time>
      </trkpt>
      <trkpt lat="46.22348" lon="-0.87836">
        <ele>16.7</ele>
        <time>2020-05-31T16:05:40Z</time>
      </trkpt>
      <trkpt lat="46.22343" lon="-0.87832">
        <ele>16.7</ele>
        <time>2020-05-31T16:05:41Z</time>
      </trkpt>
      <trkpt lat="46.22339" lon="-0.87829">
        <ele>16.7</ele>
        <time>2020-05-31T16:05:42Z</time>
      </trkpt>
      <trkpt lat="46.22335" lon="-0.87825">
        <ele>16.7</ele>
        <time>2020-05-31T16:05:43Z</time>
      </trkpt>
      <trkpt lat="46.22331" lon="-0.87823">
        <ele>16.8</ele>
        <time>2020-05-31T16:05:44Z</time>
      </trkpt>
      <trkpt lat="46.22327" lon="-0.8782">
        <ele>16.8</ele>
        <time>2020-05-31T16:05:45Z</time>
      </trkpt>
      <trkpt lat="46.22322" lon="-0.87818">
        <ele>16.8</ele>
        <time>2020-05-31T16:05:46Z</time>
      </trkpt>
      <trkpt lat="46.22318" lon="-0.87816">
        <ele>16.8</ele>
        <time>2020-05-31T16:05:47Z</time>
      </trkpt>
      <trkpt lat="46.22313" lon="-0.87813">
        <ele>16.8</ele>
        <time>2020-05-31T16:05:48Z</time>
      </trkpt>
      <trkpt lat="46.22309" lon="-0.8781">
        <ele>16.7</ele>
        <time>2020-05-31T16:05:49Z</time>
      </trkpt>
      <trkpt lat="46.22305" lon="-0.87808">
        <ele>16.7</ele>
        <time>2020-05-31T16:05:50Z</time>
      </trkpt>
      <trkpt lat="46.223" lon="-0.87807">
        <ele>16.7</ele>
        <time>2020-05-31T16:05:51Z</time>
      </trkpt>
      <trkpt lat="46.22296" lon="-0.87804">
        <ele>16.7</ele>
        <time>2020-05-31T16:05:52Z</time>
      </trkpt>
      <trkpt lat="46.22292" lon="-0.87802">
        <ele>16.7</ele>
        <time>2020-05-31T16:05:53Z</time>
      </trkpt>
      <trkpt lat="46.22288" lon="-0.87801">
        <ele>16.7</ele>
        <time>2020-05-31T16:05:54Z</time>
      </trkpt>
      <trkpt lat="46.22284" lon="-0.87799">
        <ele>16.7</ele>
        <time>2020-05-31T16:05:55Z</time>
      </trkpt>
      <trkpt lat="46.22279" lon="-0.87798">
        <ele>16.6</ele>
        <time>2020-05-31T16:05:56Z</time>
      </trkpt>
      <trkpt lat="46.22274" lon="-0.87796">
        <ele>16.6</ele>
        <time>2020-05-31T16:05:57Z</time>
      </trkpt>
      <trkpt lat="46.2227" lon="-0.87794">
        <ele>16.6</ele>
        <time>2020-05-31T16:05:58Z</time>
      </trkpt>
      <trkpt lat="46.22264" lon="-0.87792">
        <ele>16.6</ele>
        <time>2020-05-31T16:05:59Z</time>
      </trkpt>
      <trkpt lat="46.22259" lon="-0.8779">
        <ele>16.5</ele>
        <time>2020-05-31T16:06:00Z</time>
      </trkpt>
      <trkpt lat="46.22254" lon="-0.87788">
        <ele>16.5</ele>
        <time>2020-05-31T16:06:01Z</time>
      </trkpt>
      <trkpt lat="46.22248" lon="-0.87786">
        <ele>16.4</ele>
        <time>2020-05-31T16:06:02Z</time>
      </trkpt>
      <trkpt lat="46.22243" lon="-0.87785">
        <ele>16.4</ele>
        <time>2020-05-31T16:06:03Z</time>
      </trkpt>
      <trkpt lat="46.22237" lon="-0.87783">
        <ele>16.3</ele>
        <time>2020-05-31T16:06:04Z</time>
      </trkpt>
      <trkpt lat="46.22232" lon="-0.87781">
        <ele>16.3</ele>
        <time>2020-05-31T16:06:05Z</time>
      </trkpt>
      <trkpt lat="46.22226" lon="-0.8778">
        <ele>16.2</ele>
        <time>2020-05-31T16:06:06Z</time>
      </trkpt>
      <trkpt lat="46.2222" lon="-0.87778">
        <ele>16.2</ele>
        <time>2020-05-31T16:06:07Z</time>
      </trkpt>
      <trkpt lat="46.22214" lon="-0.87776">
        <ele>16.2</ele>
        <time>2020-05-31T16:06:08Z</time>
      </trkpt>
      <trkpt lat="46.22208" lon="-0.87774">
        <ele>16.2</ele>
        <time>2020-05-31T16:06:09Z</time>
      </trkpt>
      <trkpt lat="46.22202" lon="-0.87772">
        <ele>16.1</ele>
        <time>2020-05-31T16:06:10Z</time>
      </trkpt>
      <trkpt lat="46.22196" lon="-0.8777">
        <ele>16.1</ele>
        <time>2020-05-31T16:06:11Z</time>
      </trkpt>
      <trkpt lat="46.2219" lon="-0.87767">
        <ele>16.1</ele>
        <time>2020-05-31T16:06:12Z</time>
      </trkpt>
      <trkpt lat="46.22184" lon="-0.87765">
        <ele>16</ele>
        <time>2020-05-31T16:06:13Z</time>
      </trkpt>
      <trkpt lat="46.22177" lon="-0.87764">
        <ele>15.9</ele>
        <time>2020-05-31T16:06:14Z</time>
      </trkpt>
      <trkpt lat="46.22171" lon="-0.87761">
        <ele>15.9</ele>
        <time>2020-05-31T16:06:15Z</time>
      </trkpt>
      <trkpt lat="46.22164" lon="-0.87759">
        <ele>15.8</ele>
        <time>2020-05-31T16:06:16Z</time>
      </trkpt>
      <trkpt lat="46.22158" lon="-0.87757">
        <ele>15.7</ele>
        <time>2020-05-31T16:06:17Z</time>
      </trkpt>
      <trkpt lat="46.22152" lon="-0.87755">
        <ele>15.7</ele>
        <time>2020-05-31T16:06:18Z</time>
      </trkpt>
      <trkpt lat="46.22145" lon="-0.87753">
        <ele>15.6</ele>
        <time>2020-05-31T16:06:19Z</time>
      </trkpt>
      <trkpt lat="46.22139" lon="-0.87751">
        <ele>15.6</ele>
        <time>2020-05-31T16:06:20Z</time>
      </trkpt>
      <trkpt lat="46.22132" lon="-0.87749">
        <ele>15.6</ele>
        <time>2020-05-31T16:06:21Z</time>
      </trkpt>
      <trkpt lat="46.22126" lon="-0.87746">
        <ele>15.6</ele>
        <time>2020-05-31T16:06:22Z</time>
      </trkpt>
      <trkpt lat="46.22119" lon="-0.87744">
        <ele>15.6</ele>
        <time>2020-05-31T16:06:23Z</time>
      </trkpt>
      <trkpt lat="46.22113" lon="-0.87742">
        <ele>15.6</ele>
        <time>2020-05-31T16:06:24Z</time>
      </trkpt>
      <trkpt lat="46.22107" lon="-0.8774">
        <ele>15.6</ele>
        <time>2020-05-31T16:06:25Z</time>
      </trkpt>
      <trkpt lat="46.221" lon="-0.87738">
        <ele>15.6</ele>
        <time>2020-05-31T16:06:26Z</time>
      </trkpt>
      <trkpt lat="46.22094" lon="-0.87736">
        <ele>15.5</ele>
        <time>2020-05-31T16:06:27Z</time>
      </trkpt>
      <trkpt lat="46.22088" lon="-0.87734">
        <ele>15.4</ele>
        <time>2020-05-31T16:06:28Z</time>
      </trkpt>
      <trkpt lat="46.22082" lon="-0.87732">
        <ele>15.3</ele>
        <time>2020-05-31T16:06:29Z</time>
      </trkpt>
      <trkpt lat="46.22076" lon="-0.87729">
        <ele>15.2</ele>
        <time>2020-05-31T16:06:30Z</time>
      </trkpt>
      <trkpt lat="46.2207" lon="-0.87727">
        <ele>15</ele>
        <time>2020-05-31T16:06:31Z</time>
      </trkpt>
      <trkpt lat="46.22064" lon="-0.87725">
        <ele>14.9</ele>
        <time>2020-05-31T16:06:32Z</time>
      </trkpt>
      <trkpt lat="46.22058" lon="-0.87723">
        <ele>14.9</ele>
        <time>2020-05-31T16:06:33Z</time>
      </trkpt>
      <trkpt lat="46.22052" lon="-0.87721">
        <ele>14.9</ele>
        <time>2020-05-31T16:06:34Z</time>
      </trkpt>
      <trkpt lat="46.22046" lon="-0.87719">
        <ele>14.9</ele>
        <time>2020-05-31T16:06:35Z</time>
      </trkpt>
      <trkpt lat="46.2204" lon="-0.87717">
        <ele>14.9</ele>
        <time>2020-05-31T16:06:36Z</time>
      </trkpt>
      <trkpt lat="46.22034" lon="-0.87714">
        <ele>14.9</ele>
        <time>2020-05-31T16:06:37Z</time>
      </trkpt>
      <trkpt lat="46.22029" lon="-0.87712">
        <ele>14.8</ele>
        <time>2020-05-31T16:06:38Z</time>
      </trkpt>
      <trkpt lat="46.22023" lon="-0.8771">
        <ele>14.7</ele>
        <time>2020-05-31T16:06:39Z</time>
      </trkpt>
      <trkpt lat="46.22017" lon="-0.87708">
        <ele>14.6</ele>
        <time>2020-05-31T16:06:40Z</time>
      </trkpt>
      <trkpt lat="46.22011" lon="-0.87706">
        <ele>14.5</ele>
        <time>2020-05-31T16:06:41Z</time>
      </trkpt>
      <trkpt lat="46.22005" lon="-0.87704">
        <ele>14.4</ele>
        <time>2020-05-31T16:06:42Z</time>
      </trkpt>
      <trkpt lat="46.21999" lon="-0.87702">
        <ele>14.3</ele>
        <time>2020-05-31T16:06:43Z</time>
      </trkpt>
      <trkpt lat="46.21992" lon="-0.877">
        <ele>14.2</ele>
        <time>2020-05-31T16:06:44Z</time>
      </trkpt>
      <trkpt lat="46.21986" lon="-0.87698">
        <ele>14.1</ele>
        <time>2020-05-31T16:06:45Z</time>
      </trkpt>
      <trkpt lat="46.21979" lon="-0.87696">
        <ele>14</ele>
        <time>2020-05-31T16:06:46Z</time>
      </trkpt>
      <trkpt lat="46.21972" lon="-0.87695">
        <ele>13.9</ele>
        <time>2020-05-31T16:06:47Z</time>
      </trkpt>
      <trkpt lat="46.21965" lon="-0.87693">
        <ele>13.8</ele>
        <time>2020-05-31T16:06:48Z</time>
      </trkpt>
      <trkpt lat="46.21959" lon="-0.87691">
        <ele>13.7</ele>
        <time>2020-05-31T16:06:49Z</time>
      </trkpt>
      <trkpt lat="46.21952" lon="-0.87689">
        <ele>13.6</ele>
        <time>2020-05-31T16:06:50Z</time>
      </trkpt>
      <trkpt lat="46.21945" lon="-0.87687">
        <ele>13.5</ele>
        <time>2020-05-31T16:06:51Z</time>
      </trkpt>
      <trkpt lat="46.21939" lon="-0.87685">
        <ele>13.4</ele>
        <time>2020-05-31T16:06:52Z</time>
      </trkpt>
      <trkpt lat="46.21932" lon="-0.87682">
        <ele>13.2</ele>
        <time>2020-05-31T16:06:53Z</time>
      </trkpt>
      <trkpt lat="46.21926" lon="-0.8768">
        <ele>13.1</ele>
        <time>2020-05-31T16:06:54Z</time>
      </trkpt>
      <trkpt lat="46.21919" lon="-0.87677">
        <ele>12.9</ele>
        <time>2020-05-31T16:06:55Z</time>
      </trkpt>
      <trkpt lat="46.21913" lon="-0.87675">
        <ele>12.8</ele>
        <time>2020-05-31T16:06:56Z</time>
      </trkpt>
      <trkpt lat="46.21907" lon="-0.87674">
        <ele>12.7</ele>
        <time>2020-05-31T16:06:57Z</time>
      </trkpt>
      <trkpt lat="46.219" lon="-0.87671">
        <ele>12.7</ele>
        <time>2020-05-31T16:06:58Z</time>
      </trkpt>
      <trkpt lat="46.21894" lon="-0.87669">
        <ele>12.6</ele>
        <time>2020-05-31T16:06:59Z</time>
      </trkpt>
      <trkpt lat="46.21888" lon="-0.87667">
        <ele>12.6</ele>
        <time>2020-05-31T16:07:00Z</time>
      </trkpt>
      <trkpt lat="46.21882" lon="-0.87665">
        <ele>12.6</ele>
        <time>2020-05-31T16:07:01Z</time>
      </trkpt>
      <trkpt lat="46.21876" lon="-0.87663">
        <ele>12.6</ele>
        <time>2020-05-31T16:07:02Z</time>
      </trkpt>
      <trkpt lat="46.2187" lon="-0.87661">
        <ele>12.6</ele>
        <time>2020-05-31T16:07:03Z</time>
      </trkpt>
      <trkpt lat="46.21865" lon="-0.8766">
        <ele>12.6</ele>
        <time>2020-05-31T16:07:04Z</time>
      </trkpt>
      <trkpt lat="46.21859" lon="-0.87658">
        <ele>12.6</ele>
        <time>2020-05-31T16:07:05Z</time>
      </trkpt>
      <trkpt lat="46.21854" lon="-0.87657">
        <ele>12.6</ele>
        <time>2020-05-31T16:07:06Z</time>
      </trkpt>
      <trkpt lat="46.21849" lon="-0.87656">
        <ele>12.5</ele>
        <time>2020-05-31T16:07:07Z</time>
      </trkpt>
      <trkpt lat="46.21844" lon="-0.87654">
        <ele>12.5</ele>
        <time>2020-05-31T16:07:08Z</time>
      </trkpt>
      <trkpt lat="46.21839" lon="-0.87653">
        <ele>12.5</ele>
        <time>2020-05-31T16:07:09Z</time>
      </trkpt>
      <trkpt lat="46.21834" lon="-0.87652">
        <ele>12.5</ele>
        <time>2020-05-31T16:07:10Z</time>
      </trkpt>
      <trkpt lat="46.2183" lon="-0.8765">
        <ele>12.5</ele>
        <time>2020-05-31T16:07:11Z</time>
      </trkpt>
      <trkpt lat="46.21826" lon="-0.87651">
        <ele>12.5</ele>
        <time>2020-05-31T16:07:12Z</time>
      </trkpt>
      <trkpt lat="46.21823" lon="-0.87653">
        <ele>12.5</ele>
        <time>2020-05-31T16:07:13Z</time>
      </trkpt>
      <trkpt lat="46.21822" lon="-0.87658">
        <ele>12.4</ele>
        <time>2020-05-31T16:07:14Z</time>
      </trkpt>
      <trkpt lat="46.21822" lon="-0.87665">
        <ele>12.4</ele>
        <time>2020-05-31T16:07:15Z</time>
      </trkpt>
      <trkpt lat="46.21824" lon="-0.87671">
        <ele>12.4</ele>
        <time>2020-05-31T16:07:16Z</time>
      </trkpt>
      <trkpt lat="46.21824" lon="-0.87678">
        <ele>12.4</ele>
        <time>2020-05-31T16:07:17Z</time>
      </trkpt>
      <trkpt lat="46.21825" lon="-0.87686">
        <ele>12.4</ele>
        <time>2020-05-31T16:07:18Z</time>
      </trkpt>
      <trkpt lat="46.21827" lon="-0.87694">
        <ele>12.3</ele>
        <time>2020-05-31T16:07:19Z</time>
      </trkpt>
      <trkpt lat="46.21828" lon="-0.87701">
        <ele>12.3</ele>
        <time>2020-05-31T16:07:20Z</time>
      </trkpt>
      <trkpt lat="46.21829" lon="-0.87709">
        <ele>12.2</ele>
        <time>2020-05-31T16:07:21Z</time>
      </trkpt>
      <trkpt lat="46.2183" lon="-0.87718">
        <ele>12.2</ele>
        <time>2020-05-31T16:07:22Z</time>
      </trkpt>
      <trkpt lat="46.21831" lon="-0.87726">
        <ele>12.1</ele>
        <time>2020-05-31T16:07:23Z</time>
      </trkpt>
      <trkpt lat="46.21832" lon="-0.87734">
        <ele>12.1</ele>
        <time>2020-05-31T16:07:24Z</time>
      </trkpt>
      <trkpt lat="46.21833" lon="-0.87742">
        <ele>12</ele>
        <time>2020-05-31T16:07:25Z</time>
      </trkpt>
      <trkpt lat="46.21834" lon="-0.8775">
        <ele>12</ele>
        <time>2020-05-31T16:07:26Z</time>
      </trkpt>
      <trkpt lat="46.21834" lon="-0.87758">
        <ele>11.9</ele>
        <time>2020-05-31T16:07:27Z</time>
      </trkpt>
      <trkpt lat="46.21834" lon="-0.87766">
        <ele>11.9</ele>
        <time>2020-05-31T16:07:28Z</time>
      </trkpt>
      <trkpt lat="46.21835" lon="-0.87775">
        <ele>11.9</ele>
        <time>2020-05-31T16:07:29Z</time>
      </trkpt>
      <trkpt lat="46.21836" lon="-0.87783">
        <ele>11.9</ele>
        <time>2020-05-31T16:07:30Z</time>
      </trkpt>
      <trkpt lat="46.21836" lon="-0.87791">
        <ele>11.9</ele>
        <time>2020-05-31T16:07:31Z</time>
      </trkpt>
      <trkpt lat="46.21836" lon="-0.87798">
        <ele>12</ele>
        <time>2020-05-31T16:07:32Z</time>
      </trkpt>
      <trkpt lat="46.21836" lon="-0.87806">
        <ele>12</ele>
        <time>2020-05-31T16:07:33Z</time>
      </trkpt>
      <trkpt lat="46.21835" lon="-0.87814">
        <ele>12</ele>
        <time>2020-05-31T16:07:34Z</time>
      </trkpt>
      <trkpt lat="46.21835" lon="-0.87822">
        <ele>12</ele>
        <time>2020-05-31T16:07:35Z</time>
      </trkpt>
      <trkpt lat="46.21834" lon="-0.87829">
        <ele>12</ele>
        <time>2020-05-31T16:07:36Z</time>
      </trkpt>
      <trkpt lat="46.21833" lon="-0.87837">
        <ele>12</ele>
        <time>2020-05-31T16:07:37Z</time>
      </trkpt>
      <trkpt lat="46.21833" lon="-0.87844">
        <ele>12</ele>
        <time>2020-05-31T16:07:38Z</time>
      </trkpt>
      <trkpt lat="46.21832" lon="-0.87852">
        <ele>12</ele>
        <time>2020-05-31T16:07:39Z</time>
      </trkpt>
      <trkpt lat="46.21832" lon="-0.8786">
        <ele>12</ele>
        <time>2020-05-31T16:07:40Z</time>
      </trkpt>
      <trkpt lat="46.21831" lon="-0.87868">
        <ele>12</ele>
        <time>2020-05-31T16:07:41Z</time>
      </trkpt>
      <trkpt lat="46.2183" lon="-0.87877">
        <ele>12</ele>
        <time>2020-05-31T16:07:42Z</time>
      </trkpt>
      <trkpt lat="46.21829" lon="-0.87885">
        <ele>12</ele>
        <time>2020-05-31T16:07:43Z</time>
      </trkpt>
      <trkpt lat="46.21828" lon="-0.87893">
        <ele>12</ele>
        <time>2020-05-31T16:07:44Z</time>
      </trkpt>
      <trkpt lat="46.21828" lon="-0.87902">
        <ele>12</ele>
        <time>2020-05-31T16:07:45Z</time>
      </trkpt>
      <trkpt lat="46.21827" lon="-0.8791">
        <ele>12</ele>
        <time>2020-05-31T16:07:46Z</time>
      </trkpt>
      <trkpt lat="46.21827" lon="-0.87918">
        <ele>11.9</ele>
        <time>2020-05-31T16:07:47Z</time>
      </trkpt>
      <trkpt lat="46.21826" lon="-0.87926">
        <ele>11.9</ele>
        <time>2020-05-31T16:07:48Z</time>
      </trkpt>
      <trkpt lat="46.21826" lon="-0.87934">
        <ele>11.9</ele>
        <time>2020-05-31T16:07:49Z</time>
      </trkpt>
      <trkpt lat="46.21826" lon="-0.87943">
        <ele>11.8</ele>
        <time>2020-05-31T16:07:50Z</time>
      </trkpt>
      <trkpt lat="46.21826" lon="-0.87952">
        <ele>11.8</ele>
        <time>2020-05-31T16:07:51Z</time>
      </trkpt>
      <trkpt lat="46.21826" lon="-0.8796">
        <ele>11.8</ele>
        <time>2020-05-31T16:07:52Z</time>
      </trkpt>
      <trkpt lat="46.21826" lon="-0.87969">
        <ele>11.8</ele>
        <time>2020-05-31T16:07:53Z</time>
      </trkpt>
      <trkpt lat="46.21825" lon="-0.87978">
        <ele>11.8</ele>
        <time>2020-05-31T16:07:54Z</time>
      </trkpt>
      <trkpt lat="46.21825" lon="-0.87988">
        <ele>11.8</ele>
        <time>2020-05-31T16:07:55Z</time>
      </trkpt>
      <trkpt lat="46.21824" lon="-0.87997">
        <ele>11.7</ele>
        <time>2020-05-31T16:07:56Z</time>
      </trkpt>
      <trkpt lat="46.21824" lon="-0.88006">
        <ele>11.7</ele>
        <time>2020-05-31T16:07:57Z</time>
      </trkpt>
      <trkpt lat="46.21824" lon="-0.88015">
        <ele>11.7</ele>
        <time>2020-05-31T16:07:58Z</time>
      </trkpt>
      <trkpt lat="46.21824" lon="-0.88025">
        <ele>11.6</ele>
        <time>2020-05-31T16:07:59Z</time>
      </trkpt>
      <trkpt lat="46.21825" lon="-0.88034">
        <ele>11.6</ele>
        <time>2020-05-31T16:08:00Z</time>
      </trkpt>
      <trkpt lat="46.21825" lon="-0.88043">
        <ele>11.6</ele>
        <time>2020-05-31T16:08:01Z</time>
      </trkpt>
      <trkpt lat="46.21825" lon="-0.88052">
        <ele>11.6</ele>
        <time>2020-05-31T16:08:02Z</time>
      </trkpt>
      <trkpt lat="46.21825" lon="-0.88062">
        <ele>11.6</ele>
        <time>2020-05-31T16:08:03Z</time>
      </trkpt>
      <trkpt lat="46.21826" lon="-0.88071">
        <ele>11.6</ele>
        <time>2020-05-31T16:08:04Z</time>
      </trkpt>
      <trkpt lat="46.21827" lon="-0.8808">
        <ele>11.6</ele>
        <time>2020-05-31T16:08:05Z</time>
      </trkpt>
      <trkpt lat="46.21828" lon="-0.88089">
        <ele>11.7</ele>
        <time>2020-05-31T16:08:06Z</time>
      </trkpt>
      <trkpt lat="46.21828" lon="-0.88098">
        <ele>11.7</ele>
        <time>2020-05-31T16:08:07Z</time>
      </trkpt>
      <trkpt lat="46.2183" lon="-0.88106">
        <ele>11.7</ele>
        <time>2020-05-31T16:08:08Z</time>
      </trkpt>
      <trkpt lat="46.21831" lon="-0.88116">
        <ele>11.6</ele>
        <time>2020-05-31T16:08:09Z</time>
      </trkpt>
      <trkpt lat="46.21833" lon="-0.88125">
        <ele>11.6</ele>
        <time>2020-05-31T16:08:10Z</time>
      </trkpt>
      <trkpt lat="46.21834" lon="-0.88134">
        <ele>11.6</ele>
        <time>2020-05-31T16:08:11Z</time>
      </trkpt>
      <trkpt lat="46.21835" lon="-0.88143">
        <ele>11.6</ele>
        <time>2020-05-31T16:08:12Z</time>
      </trkpt>
      <trkpt lat="46.21836" lon="-0.88151">
        <ele>11.6</ele>
        <time>2020-05-31T16:08:13Z</time>
      </trkpt>
      <trkpt lat="46.21838" lon="-0.88159">
        <ele>11.6</ele>
        <time>2020-05-31T16:08:14Z</time>
      </trkpt>
      <trkpt lat="46.21839" lon="-0.88169">
        <ele>11.5</ele>
        <time>2020-05-31T16:08:15Z</time>
      </trkpt>
      <trkpt lat="46.21841" lon="-0.88177">
        <ele>11.5</ele>
        <time>2020-05-31T16:08:16Z</time>
      </trkpt>
      <trkpt lat="46.21843" lon="-0.88186">
        <ele>11.5</ele>
        <time>2020-05-31T16:08:17Z</time>
      </trkpt>
      <trkpt lat="46.21844" lon="-0.88194">
        <ele>11.5</ele>
        <time>2020-05-31T16:08:18Z</time>
      </trkpt>
      <trkpt lat="46.21846" lon="-0.88202">
        <ele>11.5</ele>
        <time>2020-05-31T16:08:19Z</time>
      </trkpt>
      <trkpt lat="46.21848" lon="-0.88209">
        <ele>11.5</ele>
        <time>2020-05-31T16:08:20Z</time>
      </trkpt>
      <trkpt lat="46.2185" lon="-0.88217">
        <ele>11.4</ele>
        <time>2020-05-31T16:08:21Z</time>
      </trkpt>
      <trkpt lat="46.21852" lon="-0.88225">
        <ele>11.4</ele>
        <time>2020-05-31T16:08:22Z</time>
      </trkpt>
      <trkpt lat="46.21854" lon="-0.88233">
        <ele>11.4</ele>
        <time>2020-05-31T16:08:23Z</time>
      </trkpt>
      <trkpt lat="46.21856" lon="-0.88242">
        <ele>11.4</ele>
        <time>2020-05-31T16:08:24Z</time>
      </trkpt>
      <trkpt lat="46.21859" lon="-0.88251">
        <ele>11.3</ele>
        <time>2020-05-31T16:08:25Z</time>
      </trkpt>
      <trkpt lat="46.21861" lon="-0.88259">
        <ele>11.3</ele>
        <time>2020-05-31T16:08:26Z</time>
      </trkpt>
      <trkpt lat="46.21863" lon="-0.88268">
        <ele>11.3</ele>
        <time>2020-05-31T16:08:27Z</time>
      </trkpt>
      <trkpt lat="46.21864" lon="-0.88276">
        <ele>11.3</ele>
        <time>2020-05-31T16:08:28Z</time>
      </trkpt>
      <trkpt lat="46.21865" lon="-0.88285">
        <ele>11.3</ele>
        <time>2020-05-31T16:08:29Z</time>
      </trkpt>
      <trkpt lat="46.21867" lon="-0.88294">
        <ele>11.3</ele>
        <time>2020-05-31T16:08:30Z</time>
      </trkpt>
      <trkpt lat="46.21869" lon="-0.88303">
        <ele>11.3</ele>
        <time>2020-05-31T16:08:31Z</time>
      </trkpt>
      <trkpt lat="46.21872" lon="-0.88313">
        <ele>11.2</ele>
        <time>2020-05-31T16:08:32Z</time>
      </trkpt>
      <trkpt lat="46.21873" lon="-0.88322">
        <ele>11.2</ele>
        <time>2020-05-31T16:08:33Z</time>
      </trkpt>
      <trkpt lat="46.21875" lon="-0.88331">
        <ele>11.2</ele>
        <time>2020-05-31T16:08:34Z</time>
      </trkpt>
      <trkpt lat="46.21877" lon="-0.8834">
        <ele>11.3</ele>
        <time>2020-05-31T16:08:35Z</time>
      </trkpt>
      <trkpt lat="46.21878" lon="-0.88349">
        <ele>11.3</ele>
        <time>2020-05-31T16:08:36Z</time>
      </trkpt>
      <trkpt lat="46.21879" lon="-0.88357">
        <ele>11.3</ele>
        <time>2020-05-31T16:08:37Z</time>
      </trkpt>
      <trkpt lat="46.21879" lon="-0.88366">
        <ele>11.3</ele>
        <time>2020-05-31T16:08:38Z</time>
      </trkpt>
      <trkpt lat="46.21881" lon="-0.88374">
        <ele>11.3</ele>
        <time>2020-05-31T16:08:39Z</time>
      </trkpt>
      <trkpt lat="46.21883" lon="-0.88382">
        <ele>11.3</ele>
        <time>2020-05-31T16:08:40Z</time>
      </trkpt>
      <trkpt lat="46.21883" lon="-0.8839">
        <ele>11.3</ele>
        <time>2020-05-31T16:08:41Z</time>
      </trkpt>
      <trkpt lat="46.21884" lon="-0.88398">
        <ele>11.3</ele>
        <time>2020-05-31T16:08:42Z</time>
      </trkpt>
      <trkpt lat="46.21884" lon="-0.88407">
        <ele>11.4</ele>
        <time>2020-05-31T16:08:43Z</time>
      </trkpt>
      <trkpt lat="46.21885" lon="-0.88415">
        <ele>11.4</ele>
        <time>2020-05-31T16:08:44Z</time>
      </trkpt>
      <trkpt lat="46.21886" lon="-0.88423">
        <ele>11.5</ele>
        <time>2020-05-31T16:08:45Z</time>
      </trkpt>
      <trkpt lat="46.21888" lon="-0.8843">
        <ele>11.5</ele>
        <time>2020-05-31T16:08:46Z</time>
      </trkpt>
      <trkpt lat="46.21889" lon="-0.88437">
        <ele>11.5</ele>
        <time>2020-05-31T16:08:47Z</time>
      </trkpt>
      <trkpt lat="46.2189" lon="-0.88445">
        <ele>11.5</ele>
        <time>2020-05-31T16:08:48Z</time>
      </trkpt>
      <trkpt lat="46.21892" lon="-0.88452">
        <ele>11.5</ele>
        <time>2020-05-31T16:08:49Z</time>
      </trkpt>
      <trkpt lat="46.21893" lon="-0.8846">
        <ele>11.5</ele>
        <time>2020-05-31T16:08:50Z</time>
      </trkpt>
      <trkpt lat="46.21894" lon="-0.88467">
        <ele>11.5</ele>
        <time>2020-05-31T16:08:51Z</time>
      </trkpt>
      <trkpt lat="46.21895" lon="-0.88474">
        <ele>11.5</ele>
        <time>2020-05-31T16:08:52Z</time>
      </trkpt>
      <trkpt lat="46.21895" lon="-0.88481">
        <ele>11.5</ele>
        <time>2020-05-31T16:08:53Z</time>
      </trkpt>
      <trkpt lat="46.21896" lon="-0.88488">
        <ele>11.5</ele>
        <time>2020-05-31T16:08:54Z</time>
      </trkpt>
      <trkpt lat="46.21895" lon="-0.88496">
        <ele>11.5</ele>
        <time>2020-05-31T16:08:55Z</time>
      </trkpt>
      <trkpt lat="46.21894" lon="-0.88503">
        <ele>11.5</ele>
        <time>2020-05-31T16:08:56Z</time>
      </trkpt>
      <trkpt lat="46.21894" lon="-0.8851">
        <ele>11.5</ele>
        <time>2020-05-31T16:08:57Z</time>
      </trkpt>
      <trkpt lat="46.21894" lon="-0.88516">
        <ele>11.5</ele>
        <time>2020-05-31T16:08:58Z</time>
      </trkpt>
      <trkpt lat="46.21894" lon="-0.88523">
        <ele>11.6</ele>
        <time>2020-05-31T16:08:59Z</time>
      </trkpt>
      <trkpt lat="46.21894" lon="-0.88529">
        <ele>11.6</ele>
        <time>2020-05-31T16:09:00Z</time>
      </trkpt>
      <trkpt lat="46.21894" lon="-0.88534">
        <ele>11.6</ele>
        <time>2020-05-31T16:09:01Z</time>
      </trkpt>
      <trkpt lat="46.21896" lon="-0.88539">
        <ele>11.6</ele>
        <time>2020-05-31T16:09:02Z</time>
      </trkpt>
      <trkpt lat="46.21897" lon="-0.88542">
        <ele>11.6</ele>
        <time>2020-05-31T16:09:03Z</time>
      </trkpt>
      <trkpt lat="46.21896" lon="-0.88547">
        <ele>11.6</ele>
        <time>2020-05-31T16:09:04Z</time>
      </trkpt>
      <trkpt lat="46.21895" lon="-0.88548">
        <ele>11.7</ele>
        <time>2020-05-31T16:09:05Z</time>
      </trkpt>
      <trkpt lat="46.21892" lon="-0.88549">
        <ele>11.7</ele>
        <time>2020-05-31T16:09:06Z</time>
      </trkpt>
      <trkpt lat="46.21889" lon="-0.88551">
        <ele>11.7</ele>
        <time>2020-05-31T16:09:07Z</time>
      </trkpt>
      <trkpt lat="46.21887" lon="-0.88554">
        <ele>11.6</ele>
        <time>2020-05-31T16:09:08Z</time>
      </trkpt>
      <trkpt lat="46.21884" lon="-0.88556">
        <ele>11.6</ele>
        <time>2020-05-31T16:09:09Z</time>
      </trkpt>
      <trkpt lat="46.2188" lon="-0.88558">
        <ele>11.6</ele>
        <time>2020-05-31T16:09:10Z</time>
      </trkpt>
      <trkpt lat="46.21877" lon="-0.88562">
        <ele>11.6</ele>
        <time>2020-05-31T16:09:11Z</time>
      </trkpt>
      <trkpt lat="46.21874" lon="-0.88565">
        <ele>11.5</ele>
        <time>2020-05-31T16:09:12Z</time>
      </trkpt>
      <trkpt lat="46.2187" lon="-0.88567">
        <ele>11.5</ele>
        <time>2020-05-31T16:09:13Z</time>
      </trkpt>
      <trkpt lat="46.21868" lon="-0.88573">
        <ele>11.5</ele>
        <time>2020-05-31T16:09:14Z</time>
      </trkpt>
      <trkpt lat="46.21865" lon="-0.88577">
        <ele>11.5</ele>
        <time>2020-05-31T16:09:15Z</time>
      </trkpt>
      <trkpt lat="46.21863" lon="-0.88582">
        <ele>11.4</ele>
        <time>2020-05-31T16:09:16Z</time>
      </trkpt>
      <trkpt lat="46.21859" lon="-0.88586">
        <ele>11.4</ele>
        <time>2020-05-31T16:09:17Z</time>
      </trkpt>
      <trkpt lat="46.21856" lon="-0.88589">
        <ele>11.4</ele>
        <time>2020-05-31T16:09:18Z</time>
      </trkpt>
      <trkpt lat="46.21853" lon="-0.88593">
        <ele>11.4</ele>
        <time>2020-05-31T16:09:19Z</time>
      </trkpt>
      <trkpt lat="46.2185" lon="-0.88596">
        <ele>11.4</ele>
        <time>2020-05-31T16:09:20Z</time>
      </trkpt>
      <trkpt lat="46.21848" lon="-0.88599">
        <ele>11.4</ele>
        <time>2020-05-31T16:09:21Z</time>
      </trkpt>
      <trkpt lat="46.21844" lon="-0.886">
        <ele>11.4</ele>
        <time>2020-05-31T16:09:22Z</time>
      </trkpt>
      <trkpt lat="46.21841" lon="-0.88602">
        <ele>11.4</ele>
        <time>2020-05-31T16:09:23Z</time>
      </trkpt>
      <trkpt lat="46.21838" lon="-0.88605">
        <ele>11.4</ele>
        <time>2020-05-31T16:09:24Z</time>
      </trkpt>
      <trkpt lat="46.21835" lon="-0.88607">
        <ele>11.4</ele>
        <time>2020-05-31T16:09:25Z</time>
      </trkpt>
      <trkpt lat="46.21832" lon="-0.88611">
        <ele>11.3</ele>
        <time>2020-05-31T16:09:26Z</time>
      </trkpt>
      <trkpt lat="46.21828" lon="-0.88614">
        <ele>11.3</ele>
        <time>2020-05-31T16:09:27Z</time>
      </trkpt>
      <trkpt lat="46.21825" lon="-0.88617">
        <ele>11.4</ele>
        <time>2020-05-31T16:09:28Z</time>
      </trkpt>
      <trkpt lat="46.21822" lon="-0.88619">
        <ele>11.4</ele>
        <time>2020-05-31T16:09:29Z</time>
      </trkpt>
      <trkpt lat="46.21818" lon="-0.88623">
        <ele>11.4</ele>
        <time>2020-05-31T16:09:30Z</time>
      </trkpt>
      <trkpt lat="46.21813" lon="-0.88629">
        <ele>11.4</ele>
        <time>2020-05-31T16:09:31Z</time>
      </trkpt>
      <trkpt lat="46.21808" lon="-0.88633">
        <ele>11.4</ele>
        <time>2020-05-31T16:09:32Z</time>
      </trkpt>
      <trkpt lat="46.21803" lon="-0.88635">
        <ele>11.4</ele>
        <time>2020-05-31T16:09:33Z</time>
      </trkpt>
      <trkpt lat="46.21799" lon="-0.88635">
        <ele>11.4</ele>
        <time>2020-05-31T16:09:34Z</time>
      </trkpt>
      <trkpt lat="46.21794" lon="-0.88636">
        <ele>11.5</ele>
        <time>2020-05-31T16:09:35Z</time>
      </trkpt>
      <trkpt lat="46.21789" lon="-0.88637">
        <ele>11.5</ele>
        <time>2020-05-31T16:09:36Z</time>
      </trkpt>
      <trkpt lat="46.21784" lon="-0.88638">
        <ele>11.5</ele>
        <time>2020-05-31T16:09:37Z</time>
      </trkpt>
      <trkpt lat="46.2178" lon="-0.8864">
        <ele>11.5</ele>
        <time>2020-05-31T16:09:38Z</time>
      </trkpt>
      <trkpt lat="46.21774" lon="-0.88641">
        <ele>11.4</ele>
        <time>2020-05-31T16:09:39Z</time>
      </trkpt>
      <trkpt lat="46.2177" lon="-0.88643">
        <ele>11.4</ele>
        <time>2020-05-31T16:09:40Z</time>
      </trkpt>
      <trkpt lat="46.21765" lon="-0.88645">
        <ele>11.4</ele>
        <time>2020-05-31T16:09:41Z</time>
      </trkpt>
      <trkpt lat="46.2176" lon="-0.88647">
        <ele>11.4</ele>
        <time>2020-05-31T16:09:42Z</time>
      </trkpt>
      <trkpt lat="46.21755" lon="-0.88651">
        <ele>11.4</ele>
        <time>2020-05-31T16:09:43Z</time>
      </trkpt>
      <trkpt lat="46.2175" lon="-0.88654">
        <ele>11.3</ele>
        <time>2020-05-31T16:09:44Z</time>
      </trkpt>
      <trkpt lat="46.21744" lon="-0.88656">
        <ele>11.3</ele>
        <time>2020-05-31T16:09:45Z</time>
      </trkpt>
      <trkpt lat="46.21739" lon="-0.88659">
        <ele>11.2</ele>
        <time>2020-05-31T16:09:46Z</time>
      </trkpt>
      <trkpt lat="46.21733" lon="-0.88662">
        <ele>11.1</ele>
        <time>2020-05-31T16:09:47Z</time>
      </trkpt>
      <trkpt lat="46.21727" lon="-0.88665">
        <ele>11</ele>
        <time>2020-05-31T16:09:48Z</time>
      </trkpt>
      <trkpt lat="46.21721" lon="-0.88668">
        <ele>10.9</ele>
        <time>2020-05-31T16:09:49Z</time>
      </trkpt>
      <trkpt lat="46.21716" lon="-0.88671">
        <ele>10.8</ele>
        <time>2020-05-31T16:09:50Z</time>
      </trkpt>
      <trkpt lat="46.2171" lon="-0.88673">
        <ele>10.7</ele>
        <time>2020-05-31T16:09:51Z</time>
      </trkpt>
      <trkpt lat="46.21705" lon="-0.88676">
        <ele>10.6</ele>
        <time>2020-05-31T16:09:52Z</time>
      </trkpt>
      <trkpt lat="46.21699" lon="-0.8868">
        <ele>10.6</ele>
        <time>2020-05-31T16:09:53Z</time>
      </trkpt>
      <trkpt lat="46.21694" lon="-0.88682">
        <ele>10.6</ele>
        <time>2020-05-31T16:09:54Z</time>
      </trkpt>
      <trkpt lat="46.2169" lon="-0.88683">
        <ele>10.6</ele>
        <time>2020-05-31T16:09:55Z</time>
      </trkpt>
      <trkpt lat="46.21684" lon="-0.88685">
        <ele>10.6</ele>
        <time>2020-05-31T16:09:56Z</time>
      </trkpt>
      <trkpt lat="46.21678" lon="-0.88687">
        <ele>10.6</ele>
        <time>2020-05-31T16:09:57Z</time>
      </trkpt>
      <trkpt lat="46.21672" lon="-0.88689">
        <ele>10.6</ele>
        <time>2020-05-31T16:09:58Z</time>
      </trkpt>
      <trkpt lat="46.21666" lon="-0.88692">
        <ele>10.6</ele>
        <time>2020-05-31T16:09:59Z</time>
      </trkpt>
      <trkpt lat="46.21659" lon="-0.88694">
        <ele>10.6</ele>
        <time>2020-05-31T16:10:00Z</time>
      </trkpt>
      <trkpt lat="46.21652" lon="-0.88699">
        <ele>10.6</ele>
        <time>2020-05-31T16:10:01Z</time>
      </trkpt>
      <trkpt lat="46.21646" lon="-0.88703">
        <ele>10.5</ele>
        <time>2020-05-31T16:10:02Z</time>
      </trkpt>
      <trkpt lat="46.2164" lon="-0.88706">
        <ele>10.5</ele>
        <time>2020-05-31T16:10:03Z</time>
      </trkpt>
      <trkpt lat="46.21634" lon="-0.88709">
        <ele>10.6</ele>
        <time>2020-05-31T16:10:04Z</time>
      </trkpt>
      <trkpt lat="46.21628" lon="-0.8871">
        <ele>10.6</ele>
        <time>2020-05-31T16:10:05Z</time>
      </trkpt>
      <trkpt lat="46.21623" lon="-0.88713">
        <ele>10.6</ele>
        <time>2020-05-31T16:10:06Z</time>
      </trkpt>
      <trkpt lat="46.21618" lon="-0.88716">
        <ele>10.7</ele>
        <time>2020-05-31T16:10:07Z</time>
      </trkpt>
      <trkpt lat="46.21612" lon="-0.88719">
        <ele>10.7</ele>
        <time>2020-05-31T16:10:08Z</time>
      </trkpt>
      <trkpt lat="46.21607" lon="-0.88722">
        <ele>10.8</ele>
        <time>2020-05-31T16:10:09Z</time>
      </trkpt>
      <trkpt lat="46.21601" lon="-0.88725">
        <ele>10.8</ele>
        <time>2020-05-31T16:10:10Z</time>
      </trkpt>
      <trkpt lat="46.21596" lon="-0.88729">
        <ele>10.9</ele>
        <time>2020-05-31T16:10:11Z</time>
      </trkpt>
      <trkpt lat="46.21592" lon="-0.88733">
        <ele>10.9</ele>
        <time>2020-05-31T16:10:12Z</time>
      </trkpt>
      <trkpt lat="46.21588" lon="-0.88736">
        <ele>10.9</ele>
        <time>2020-05-31T16:10:13Z</time>
      </trkpt>
      <trkpt lat="46.21585" lon="-0.88743">
        <ele>11</ele>
        <time>2020-05-31T16:10:14Z</time>
      </trkpt>
      <trkpt lat="46.21582" lon="-0.88748">
        <ele>11</ele>
        <time>2020-05-31T16:10:15Z</time>
      </trkpt>
      <trkpt lat="46.2158" lon="-0.88753">
        <ele>11</ele>
        <time>2020-05-31T16:10:16Z</time>
      </trkpt>
      <trkpt lat="46.21576" lon="-0.88758">
        <ele>11</ele>
        <time>2020-05-31T16:10:17Z</time>
      </trkpt>
      <trkpt lat="46.21573" lon="-0.88762">
        <ele>11.1</ele>
        <time>2020-05-31T16:10:18Z</time>
      </trkpt>
      <trkpt lat="46.21569" lon="-0.88767">
        <ele>11.2</ele>
        <time>2020-05-31T16:10:19Z</time>
      </trkpt>
      <trkpt lat="46.21567" lon="-0.88771">
        <ele>11.2</ele>
        <time>2020-05-31T16:10:20Z</time>
      </trkpt>
      <trkpt lat="46.21564" lon="-0.88775">
        <ele>11.3</ele>
        <time>2020-05-31T16:10:21Z</time>
      </trkpt>
      <trkpt lat="46.21563" lon="-0.88779">
        <ele>11.3</ele>
        <time>2020-05-31T16:10:22Z</time>
      </trkpt>
      <trkpt lat="46.21561" lon="-0.88785">
        <ele>11.4</ele>
        <time>2020-05-31T16:10:23Z</time>
      </trkpt>
      <trkpt lat="46.21561" lon="-0.8879">
        <ele>11.3</ele>
        <time>2020-05-31T16:10:24Z</time>
      </trkpt>
      <trkpt lat="46.21562" lon="-0.88795">
        <ele>11.2</ele>
        <time>2020-05-31T16:10:25Z</time>
      </trkpt>
      <trkpt lat="46.21562" lon="-0.888">
        <ele>11.2</ele>
        <time>2020-05-31T16:10:26Z</time>
      </trkpt>
      <trkpt lat="46.21563" lon="-0.88804">
        <ele>11.2</ele>
        <time>2020-05-31T16:10:27Z</time>
      </trkpt>
      <trkpt lat="46.21563" lon="-0.88808">
        <ele>11.1</ele>
        <time>2020-05-31T16:10:28Z</time>
      </trkpt>
      <trkpt lat="46.21564" lon="-0.88812">
        <ele>11.1</ele>
        <time>2020-05-31T16:10:29Z</time>
      </trkpt>
      <trkpt lat="46.21565" lon="-0.88816">
        <ele>11</ele>
        <time>2020-05-31T16:10:30Z</time>
      </trkpt>
      <trkpt lat="46.21566" lon="-0.88821">
        <ele>11</ele>
        <time>2020-05-31T16:10:31Z</time>
      </trkpt>
      <trkpt lat="46.21568" lon="-0.88826">
        <ele>10.9</ele>
        <time>2020-05-31T16:10:32Z</time>
      </trkpt>
      <trkpt lat="46.21569" lon="-0.88832">
        <ele>10.9</ele>
        <time>2020-05-31T16:10:33Z</time>
      </trkpt>
      <trkpt lat="46.21571" lon="-0.88839">
        <ele>10.8</ele>
        <time>2020-05-31T16:10:34Z</time>
      </trkpt>
      <trkpt lat="46.21573" lon="-0.88846">
        <ele>10.7</ele>
        <time>2020-05-31T16:10:35Z</time>
      </trkpt>
      <trkpt lat="46.21575" lon="-0.88853">
        <ele>10.7</ele>
        <time>2020-05-31T16:10:36Z</time>
      </trkpt>
      <trkpt lat="46.21577" lon="-0.88858">
        <ele>10.6</ele>
        <time>2020-05-31T16:10:37Z</time>
      </trkpt>
      <trkpt lat="46.21579" lon="-0.88863">
        <ele>10.6</ele>
        <time>2020-05-31T16:10:38Z</time>
      </trkpt>
      <trkpt lat="46.2158" lon="-0.88867">
        <ele>10.6</ele>
        <time>2020-05-31T16:10:39Z</time>
      </trkpt>
      <trkpt lat="46.21582" lon="-0.88872">
        <ele>10.6</ele>
        <time>2020-05-31T16:10:40Z</time>
      </trkpt>
      <trkpt lat="46.21585" lon="-0.88877">
        <ele>10.5</ele>
        <time>2020-05-31T16:10:41Z</time>
      </trkpt>
      <trkpt lat="46.21586" lon="-0.88884">
        <ele>10.5</ele>
        <time>2020-05-31T16:10:42Z</time>
      </trkpt>
      <trkpt lat="46.21587" lon="-0.8889">
        <ele>10.5</ele>
        <time>2020-05-31T16:10:43Z</time>
      </trkpt>
      <trkpt lat="46.21589" lon="-0.88895">
        <ele>10.5</ele>
        <time>2020-05-31T16:10:44Z</time>
      </trkpt>
      <trkpt lat="46.21591" lon="-0.889">
        <ele>10.5</ele>
        <time>2020-05-31T16:10:45Z</time>
      </trkpt>
      <trkpt lat="46.21592" lon="-0.88904">
        <ele>10.5</ele>
        <time>2020-05-31T16:10:46Z</time>
      </trkpt>
      <trkpt lat="46.21593" lon="-0.88909">
        <ele>10.5</ele>
        <time>2020-05-31T16:10:47Z</time>
      </trkpt>
      <trkpt lat="46.21594" lon="-0.88914">
        <ele>10.5</ele>
        <time>2020-05-31T16:10:48Z</time>
      </trkpt>
      <trkpt lat="46.21596" lon="-0.88919">
        <ele>10.5</ele>
        <time>2020-05-31T16:10:49Z</time>
      </trkpt>
      <trkpt lat="46.21598" lon="-0.88926">
        <ele>10.4</ele>
        <time>2020-05-31T16:10:50Z</time>
      </trkpt>
      <trkpt lat="46.216" lon="-0.88933">
        <ele>10.4</ele>
        <time>2020-05-31T16:10:51Z</time>
      </trkpt>
      <trkpt lat="46.21602" lon="-0.88939">
        <ele>10.4</ele>
        <time>2020-05-31T16:10:52Z</time>
      </trkpt>
      <trkpt lat="46.21604" lon="-0.88944">
        <ele>10.4</ele>
        <time>2020-05-31T16:10:53Z</time>
      </trkpt>
      <trkpt lat="46.21605" lon="-0.8895">
        <ele>10.4</ele>
        <time>2020-05-31T16:10:54Z</time>
      </trkpt>
      <trkpt lat="46.21607" lon="-0.88956">
        <ele>10.4</ele>
        <time>2020-05-31T16:10:55Z</time>
      </trkpt>
      <trkpt lat="46.2161" lon="-0.88963">
        <ele>10.4</ele>
        <time>2020-05-31T16:10:56Z</time>
      </trkpt>
      <trkpt lat="46.21612" lon="-0.88969">
        <ele>10.4</ele>
        <time>2020-05-31T16:10:57Z</time>
      </trkpt>
      <trkpt lat="46.21614" lon="-0.88976">
        <ele>10.4</ele>
        <time>2020-05-31T16:10:58Z</time>
      </trkpt>
      <trkpt lat="46.21616" lon="-0.88984">
        <ele>10.3</ele>
        <time>2020-05-31T16:10:59Z</time>
      </trkpt>
      <trkpt lat="46.21618" lon="-0.88992">
        <ele>10.3</ele>
        <time>2020-05-31T16:11:00Z</time>
      </trkpt>
      <trkpt lat="46.2162" lon="-0.89001">
        <ele>10.3</ele>
        <time>2020-05-31T16:11:01Z</time>
      </trkpt>
      <trkpt lat="46.21621" lon="-0.89009">
        <ele>10.3</ele>
        <time>2020-05-31T16:11:02Z</time>
      </trkpt>
      <trkpt lat="46.21623" lon="-0.89016">
        <ele>10.4</ele>
        <time>2020-05-31T16:11:03Z</time>
      </trkpt>
      <trkpt lat="46.21625" lon="-0.89024">
        <ele>10.4</ele>
        <time>2020-05-31T16:11:04Z</time>
      </trkpt>
      <trkpt lat="46.21625" lon="-0.89031">
        <ele>10.5</ele>
        <time>2020-05-31T16:11:05Z</time>
      </trkpt>
      <trkpt lat="46.21627" lon="-0.89038">
        <ele>10.5</ele>
        <time>2020-05-31T16:11:06Z</time>
      </trkpt>
      <trkpt lat="46.21629" lon="-0.89045">
        <ele>10.5</ele>
        <time>2020-05-31T16:11:07Z</time>
      </trkpt>
      <trkpt lat="46.2163" lon="-0.89053">
        <ele>10.5</ele>
        <time>2020-05-31T16:11:08Z</time>
      </trkpt>
      <trkpt lat="46.21631" lon="-0.8906">
        <ele>10.5</ele>
        <time>2020-05-31T16:11:09Z</time>
      </trkpt>
      <trkpt lat="46.21633" lon="-0.89067">
        <ele>10.5</ele>
        <time>2020-05-31T16:11:10Z</time>
      </trkpt>
      <trkpt lat="46.21635" lon="-0.89074">
        <ele>10.5</ele>
        <time>2020-05-31T16:11:11Z</time>
      </trkpt>
      <trkpt lat="46.21638" lon="-0.89081">
        <ele>10.4</ele>
        <time>2020-05-31T16:11:12Z</time>
      </trkpt>
      <trkpt lat="46.21641" lon="-0.89087">
        <ele>10.4</ele>
        <time>2020-05-31T16:11:13Z</time>
      </trkpt>
      <trkpt lat="46.21643" lon="-0.89093">
        <ele>10.4</ele>
        <time>2020-05-31T16:11:14Z</time>
      </trkpt>
      <trkpt lat="46.21647" lon="-0.891">
        <ele>10.3</ele>
        <time>2020-05-31T16:11:15Z</time>
      </trkpt>
      <trkpt lat="46.2165" lon="-0.89107">
        <ele>10.3</ele>
        <time>2020-05-31T16:11:16Z</time>
      </trkpt>
      <trkpt lat="46.21654" lon="-0.89113">
        <ele>10.2</ele>
        <time>2020-05-31T16:11:17Z</time>
      </trkpt>
      <trkpt lat="46.21657" lon="-0.89118">
        <ele>10.2</ele>
        <time>2020-05-31T16:11:18Z</time>
      </trkpt>
      <trkpt lat="46.21661" lon="-0.89124">
        <ele>10.2</ele>
        <time>2020-05-31T16:11:19Z</time>
      </trkpt>
      <trkpt lat="46.21664" lon="-0.8913">
        <ele>10.2</ele>
        <time>2020-05-31T16:11:20Z</time>
      </trkpt>
      <trkpt lat="46.21667" lon="-0.89136">
        <ele>10.2</ele>
        <time>2020-05-31T16:11:21Z</time>
      </trkpt>
      <trkpt lat="46.21671" lon="-0.89141">
        <ele>10.2</ele>
        <time>2020-05-31T16:11:22Z</time>
      </trkpt>
      <trkpt lat="46.21674" lon="-0.89147">
        <ele>10.2</ele>
        <time>2020-05-31T16:11:23Z</time>
      </trkpt>
      <trkpt lat="46.21678" lon="-0.89152">
        <ele>10.2</ele>
        <time>2020-05-31T16:11:24Z</time>
      </trkpt>
      <trkpt lat="46.21681" lon="-0.89157">
        <ele>10.2</ele>
        <time>2020-05-31T16:11:25Z</time>
      </trkpt>
      <trkpt lat="46.21685" lon="-0.89163">
        <ele>10.1</ele>
        <time>2020-05-31T16:11:26Z</time>
      </trkpt>
      <trkpt lat="46.21687" lon="-0.89169">
        <ele>10.1</ele>
        <time>2020-05-31T16:11:27Z</time>
      </trkpt>
      <trkpt lat="46.2169" lon="-0.89175">
        <ele>10.1</ele>
        <time>2020-05-31T16:11:28Z</time>
      </trkpt>
      <trkpt lat="46.21693" lon="-0.89181">
        <ele>10.1</ele>
        <time>2020-05-31T16:11:29Z</time>
      </trkpt>
      <trkpt lat="46.21697" lon="-0.89186">
        <ele>10.1</ele>
        <time>2020-05-31T16:11:30Z</time>
      </trkpt>
      <trkpt lat="46.21699" lon="-0.89192">
        <ele>10.1</ele>
        <time>2020-05-31T16:11:31Z</time>
      </trkpt>
      <trkpt lat="46.21701" lon="-0.89198">
        <ele>10.1</ele>
        <time>2020-05-31T16:11:32Z</time>
      </trkpt>
      <trkpt lat="46.21704" lon="-0.89205">
        <ele>10</ele>
        <time>2020-05-31T16:11:33Z</time>
      </trkpt>
      <trkpt lat="46.21706" lon="-0.8921">
        <ele>10</ele>
        <time>2020-05-31T16:11:34Z</time>
      </trkpt>
      <trkpt lat="46.21708" lon="-0.89216">
        <ele>10</ele>
        <time>2020-05-31T16:11:35Z</time>
      </trkpt>
      <trkpt lat="46.2171" lon="-0.89222">
        <ele>10</ele>
        <time>2020-05-31T16:11:36Z</time>
      </trkpt>
      <trkpt lat="46.21712" lon="-0.89227">
        <ele>9.9</ele>
        <time>2020-05-31T16:11:37Z</time>
      </trkpt>
      <trkpt lat="46.21714" lon="-0.89232">
        <ele>9.9</ele>
        <time>2020-05-31T16:11:38Z</time>
      </trkpt>
      <trkpt lat="46.21716" lon="-0.89237">
        <ele>9.8</ele>
        <time>2020-05-31T16:11:39Z</time>
      </trkpt>
      <trkpt lat="46.21718" lon="-0.89242">
        <ele>9.7</ele>
        <time>2020-05-31T16:11:40Z</time>
      </trkpt>
      <trkpt lat="46.2172" lon="-0.89247">
        <ele>9.6</ele>
        <time>2020-05-31T16:11:41Z</time>
      </trkpt>
      <trkpt lat="46.21722" lon="-0.89251">
        <ele>9.5</ele>
        <time>2020-05-31T16:11:42Z</time>
      </trkpt>
      <trkpt lat="46.21723" lon="-0.89256">
        <ele>9.4</ele>
        <time>2020-05-31T16:11:43Z</time>
      </trkpt>
      <trkpt lat="46.21725" lon="-0.8926">
        <ele>9.4</ele>
        <time>2020-05-31T16:11:44Z</time>
      </trkpt>
      <trkpt lat="46.21726" lon="-0.89265">
        <ele>9.3</ele>
        <time>2020-05-31T16:11:45Z</time>
      </trkpt>
      <trkpt lat="46.21728" lon="-0.89269">
        <ele>9.3</ele>
        <time>2020-05-31T16:11:46Z</time>
      </trkpt>
      <trkpt lat="46.2173" lon="-0.89273">
        <ele>9.2</ele>
        <time>2020-05-31T16:11:47Z</time>
      </trkpt>
      <trkpt lat="46.21731" lon="-0.89277">
        <ele>9.2</ele>
        <time>2020-05-31T16:11:48Z</time>
      </trkpt>
      <trkpt lat="46.21733" lon="-0.89282">
        <ele>9.2</ele>
        <time>2020-05-31T16:11:49Z</time>
      </trkpt>
      <trkpt lat="46.21734" lon="-0.89285">
        <ele>9.2</ele>
        <time>2020-05-31T16:11:50Z</time>
      </trkpt>
      <trkpt lat="46.21736" lon="-0.8929">
        <ele>9.2</ele>
        <time>2020-05-31T16:11:51Z</time>
      </trkpt>
      <trkpt lat="46.21738" lon="-0.89294">
        <ele>9.2</ele>
        <time>2020-05-31T16:11:52Z</time>
      </trkpt>
      <trkpt lat="46.2174" lon="-0.893">
        <ele>9.2</ele>
        <time>2020-05-31T16:11:53Z</time>
      </trkpt>
      <trkpt lat="46.21742" lon="-0.89305">
        <ele>9.2</ele>
        <time>2020-05-31T16:11:54Z</time>
      </trkpt>
      <trkpt lat="46.21744" lon="-0.89311">
        <ele>9.1</ele>
        <time>2020-05-31T16:11:55Z</time>
      </trkpt>
      <trkpt lat="46.21746" lon="-0.89318">
        <ele>9.1</ele>
        <time>2020-05-31T16:11:56Z</time>
      </trkpt>
      <trkpt lat="46.21748" lon="-0.89324">
        <ele>9.1</ele>
        <time>2020-05-31T16:11:57Z</time>
      </trkpt>
      <trkpt lat="46.21749" lon="-0.89331">
        <ele>9.1</ele>
        <time>2020-05-31T16:11:58Z</time>
      </trkpt>
      <trkpt lat="46.21751" lon="-0.89337">
        <ele>9.1</ele>
        <time>2020-05-31T16:11:59Z</time>
      </trkpt>
      <trkpt lat="46.21752" lon="-0.89343">
        <ele>9.1</ele>
        <time>2020-05-31T16:12:00Z</time>
      </trkpt>
      <trkpt lat="46.21754" lon="-0.89349">
        <ele>9.1</ele>
        <time>2020-05-31T16:12:01Z</time>
      </trkpt>
      <trkpt lat="46.21756" lon="-0.89356">
        <ele>9.1</ele>
        <time>2020-05-31T16:12:02Z</time>
      </trkpt>
      <trkpt lat="46.21758" lon="-0.89362">
        <ele>9.1</ele>
        <time>2020-05-31T16:12:03Z</time>
      </trkpt>
      <trkpt lat="46.2176" lon="-0.89369">
        <ele>9.1</ele>
        <time>2020-05-31T16:12:04Z</time>
      </trkpt>
      <trkpt lat="46.21761" lon="-0.89375">
        <ele>9.1</ele>
        <time>2020-05-31T16:12:05Z</time>
      </trkpt>
      <trkpt lat="46.21763" lon="-0.89381">
        <ele>9.1</ele>
        <time>2020-05-31T16:12:06Z</time>
      </trkpt>
      <trkpt lat="46.21765" lon="-0.89388">
        <ele>9.1</ele>
        <time>2020-05-31T16:12:07Z</time>
      </trkpt>
      <trkpt lat="46.21766" lon="-0.89394">
        <ele>9.1</ele>
        <time>2020-05-31T16:12:08Z</time>
      </trkpt>
      <trkpt lat="46.21768" lon="-0.894">
        <ele>9.1</ele>
        <time>2020-05-31T16:12:09Z</time>
      </trkpt>
      <trkpt lat="46.2177" lon="-0.89407">
        <ele>9.1</ele>
        <time>2020-05-31T16:12:10Z</time>
      </trkpt>
      <trkpt lat="46.21771" lon="-0.89414">
        <ele>9.1</ele>
        <time>2020-05-31T16:12:11Z</time>
      </trkpt>
      <trkpt lat="46.21773" lon="-0.89421">
        <ele>9</ele>
        <time>2020-05-31T16:12:12Z</time>
      </trkpt>
      <trkpt lat="46.21775" lon="-0.89429">
        <ele>9</ele>
        <time>2020-05-31T16:12:13Z</time>
      </trkpt>
      <trkpt lat="46.21776" lon="-0.89436">
        <ele>9</ele>
        <time>2020-05-31T16:12:14Z</time>
      </trkpt>
      <trkpt lat="46.21778" lon="-0.89444">
        <ele>9</ele>
        <time>2020-05-31T16:12:15Z</time>
      </trkpt>
      <trkpt lat="46.2178" lon="-0.8945">
        <ele>9</ele>
        <time>2020-05-31T16:12:16Z</time>
      </trkpt>
      <trkpt lat="46.21782" lon="-0.89458">
        <ele>9</ele>
        <time>2020-05-31T16:12:17Z</time>
      </trkpt>
      <trkpt lat="46.21784" lon="-0.89465">
        <ele>8.9</ele>
        <time>2020-05-31T16:12:18Z</time>
      </trkpt>
      <trkpt lat="46.21785" lon="-0.89473">
        <ele>8.9</ele>
        <time>2020-05-31T16:12:19Z</time>
      </trkpt>
      <trkpt lat="46.21787" lon="-0.8948">
        <ele>8.9</ele>
        <time>2020-05-31T16:12:20Z</time>
      </trkpt>
      <trkpt lat="46.21788" lon="-0.89487">
        <ele>8.9</ele>
        <time>2020-05-31T16:12:21Z</time>
      </trkpt>
      <trkpt lat="46.2179" lon="-0.89494">
        <ele>8.9</ele>
        <time>2020-05-31T16:12:22Z</time>
      </trkpt>
      <trkpt lat="46.21791" lon="-0.89501">
        <ele>8.9</ele>
        <time>2020-05-31T16:12:23Z</time>
      </trkpt>
      <trkpt lat="46.21793" lon="-0.89508">
        <ele>8.9</ele>
        <time>2020-05-31T16:12:24Z</time>
      </trkpt>
      <trkpt lat="46.21794" lon="-0.89515">
        <ele>8.9</ele>
        <time>2020-05-31T16:12:25Z</time>
      </trkpt>
      <trkpt lat="46.21795" lon="-0.89522">
        <ele>8.9</ele>
        <time>2020-05-31T16:12:26Z</time>
      </trkpt>
      <trkpt lat="46.21796" lon="-0.89529">
        <ele>8.8</ele>
        <time>2020-05-31T16:12:27Z</time>
      </trkpt>
      <trkpt lat="46.21798" lon="-0.89536">
        <ele>8.8</ele>
        <time>2020-05-31T16:12:28Z</time>
      </trkpt>
      <trkpt lat="46.21799" lon="-0.89544">
        <ele>8.8</ele>
        <time>2020-05-31T16:12:29Z</time>
      </trkpt>
      <trkpt lat="46.218" lon="-0.89552">
        <ele>8.8</ele>
        <time>2020-05-31T16:12:30Z</time>
      </trkpt>
      <trkpt lat="46.21801" lon="-0.89561">
        <ele>8.8</ele>
        <time>2020-05-31T16:12:31Z</time>
      </trkpt>
      <trkpt lat="46.21802" lon="-0.89569">
        <ele>8.7</ele>
        <time>2020-05-31T16:12:32Z</time>
      </trkpt>
      <trkpt lat="46.21803" lon="-0.89577">
        <ele>8.7</ele>
        <time>2020-05-31T16:12:33Z</time>
      </trkpt>
      <trkpt lat="46.21804" lon="-0.89586">
        <ele>8.7</ele>
        <time>2020-05-31T16:12:34Z</time>
      </trkpt>
      <trkpt lat="46.21806" lon="-0.89595">
        <ele>8.7</ele>
        <time>2020-05-31T16:12:35Z</time>
      </trkpt>
      <trkpt lat="46.21807" lon="-0.89603">
        <ele>8.7</ele>
        <time>2020-05-31T16:12:36Z</time>
      </trkpt>
      <trkpt lat="46.21808" lon="-0.89611">
        <ele>8.7</ele>
        <time>2020-05-31T16:12:37Z</time>
      </trkpt>
      <trkpt lat="46.21809" lon="-0.89619">
        <ele>8.7</ele>
        <time>2020-05-31T16:12:38Z</time>
      </trkpt>
      <trkpt lat="46.2181" lon="-0.89627">
        <ele>8.7</ele>
        <time>2020-05-31T16:12:39Z</time>
      </trkpt>
      <trkpt lat="46.2181" lon="-0.89635">
        <ele>8.7</ele>
        <time>2020-05-31T16:12:40Z</time>
      </trkpt>
      <trkpt lat="46.21811" lon="-0.89643">
        <ele>8.7</ele>
        <time>2020-05-31T16:12:41Z</time>
      </trkpt>
      <trkpt lat="46.21812" lon="-0.89651">
        <ele>8.7</ele>
        <time>2020-05-31T16:12:42Z</time>
      </trkpt>
      <trkpt lat="46.21813" lon="-0.8966">
        <ele>8.7</ele>
        <time>2020-05-31T16:12:43Z</time>
      </trkpt>
      <trkpt lat="46.21815" lon="-0.89668">
        <ele>8.7</ele>
        <time>2020-05-31T16:12:44Z</time>
      </trkpt>
      <trkpt lat="46.21816" lon="-0.89677">
        <ele>8.7</ele>
        <time>2020-05-31T16:12:45Z</time>
      </trkpt>
      <trkpt lat="46.21817" lon="-0.89686">
        <ele>8.7</ele>
        <time>2020-05-31T16:12:46Z</time>
      </trkpt>
      <trkpt lat="46.21818" lon="-0.89695">
        <ele>8.7</ele>
        <time>2020-05-31T16:12:47Z</time>
      </trkpt>
      <trkpt lat="46.21818" lon="-0.89703">
        <ele>8.6</ele>
        <time>2020-05-31T16:12:48Z</time>
      </trkpt>
      <trkpt lat="46.21819" lon="-0.89712">
        <ele>8.6</ele>
        <time>2020-05-31T16:12:49Z</time>
      </trkpt>
      <trkpt lat="46.2182" lon="-0.8972">
        <ele>8.6</ele>
        <time>2020-05-31T16:12:50Z</time>
      </trkpt>
      <trkpt lat="46.21821" lon="-0.89728">
        <ele>8.6</ele>
        <time>2020-05-31T16:12:51Z</time>
      </trkpt>
      <trkpt lat="46.21823" lon="-0.89736">
        <ele>8.6</ele>
        <time>2020-05-31T16:12:52Z</time>
      </trkpt>
      <trkpt lat="46.21824" lon="-0.89744">
        <ele>8.6</ele>
        <time>2020-05-31T16:12:53Z</time>
      </trkpt>
      <trkpt lat="46.21825" lon="-0.89752">
        <ele>8.6</ele>
        <time>2020-05-31T16:12:54Z</time>
      </trkpt>
      <trkpt lat="46.21826" lon="-0.8976">
        <ele>8.6</ele>
        <time>2020-05-31T16:12:55Z</time>
      </trkpt>
      <trkpt lat="46.21827" lon="-0.89768">
        <ele>8.6</ele>
        <time>2020-05-31T16:12:56Z</time>
      </trkpt>
      <trkpt lat="46.21828" lon="-0.89776">
        <ele>8.6</ele>
        <time>2020-05-31T16:12:57Z</time>
      </trkpt>
      <trkpt lat="46.21828" lon="-0.89784">
        <ele>8.6</ele>
        <time>2020-05-31T16:12:58Z</time>
      </trkpt>
      <trkpt lat="46.2183" lon="-0.89792">
        <ele>8.6</ele>
        <time>2020-05-31T16:12:59Z</time>
      </trkpt>
      <trkpt lat="46.21831" lon="-0.898">
        <ele>8.6</ele>
        <time>2020-05-31T16:13:00Z</time>
      </trkpt>
      <trkpt lat="46.21832" lon="-0.89808">
        <ele>8.5</ele>
        <time>2020-05-31T16:13:01Z</time>
      </trkpt>
      <trkpt lat="46.21834" lon="-0.89816">
        <ele>8.5</ele>
        <time>2020-05-31T16:13:02Z</time>
      </trkpt>
      <trkpt lat="46.21835" lon="-0.89824">
        <ele>8.5</ele>
        <time>2020-05-31T16:13:03Z</time>
      </trkpt>
      <trkpt lat="46.21837" lon="-0.89832">
        <ele>8.5</ele>
        <time>2020-05-31T16:13:04Z</time>
      </trkpt>
      <trkpt lat="46.21838" lon="-0.8984">
        <ele>8.5</ele>
        <time>2020-05-31T16:13:05Z</time>
      </trkpt>
      <trkpt lat="46.2184" lon="-0.89848">
        <ele>8.5</ele>
        <time>2020-05-31T16:13:06Z</time>
      </trkpt>
      <trkpt lat="46.21841" lon="-0.89856">
        <ele>8.5</ele>
        <time>2020-05-31T16:13:07Z</time>
      </trkpt>
      <trkpt lat="46.21842" lon="-0.89864">
        <ele>8.5</ele>
        <time>2020-05-31T16:13:08Z</time>
      </trkpt>
      <trkpt lat="46.21843" lon="-0.89873">
        <ele>8.5</ele>
        <time>2020-05-31T16:13:09Z</time>
      </trkpt>
      <trkpt lat="46.21845" lon="-0.89881">
        <ele>8.5</ele>
        <time>2020-05-31T16:13:10Z</time>
      </trkpt>
      <trkpt lat="46.21846" lon="-0.8989">
        <ele>8.4</ele>
        <time>2020-05-31T16:13:11Z</time>
      </trkpt>
      <trkpt lat="46.21847" lon="-0.89898">
        <ele>8.4</ele>
        <time>2020-05-31T16:13:12Z</time>
      </trkpt>
      <trkpt lat="46.21848" lon="-0.89907">
        <ele>8.4</ele>
        <time>2020-05-31T16:13:13Z</time>
      </trkpt>
      <trkpt lat="46.21849" lon="-0.89915">
        <ele>8.4</ele>
        <time>2020-05-31T16:13:14Z</time>
      </trkpt>
      <trkpt lat="46.2185" lon="-0.89924">
        <ele>8.4</ele>
        <time>2020-05-31T16:13:15Z</time>
      </trkpt>
      <trkpt lat="46.21851" lon="-0.89933">
        <ele>8.4</ele>
        <time>2020-05-31T16:13:16Z</time>
      </trkpt>
      <trkpt lat="46.21853" lon="-0.89942">
        <ele>8.4</ele>
        <time>2020-05-31T16:13:17Z</time>
      </trkpt>
      <trkpt lat="46.21854" lon="-0.89951">
        <ele>8.4</ele>
        <time>2020-05-31T16:13:18Z</time>
      </trkpt>
      <trkpt lat="46.21856" lon="-0.89959">
        <ele>8.4</ele>
        <time>2020-05-31T16:13:19Z</time>
      </trkpt>
      <trkpt lat="46.21857" lon="-0.89968">
        <ele>8.4</ele>
        <time>2020-05-31T16:13:20Z</time>
      </trkpt>
      <trkpt lat="46.21858" lon="-0.89976">
        <ele>8.4</ele>
        <time>2020-05-31T16:13:21Z</time>
      </trkpt>
      <trkpt lat="46.2186" lon="-0.89985">
        <ele>8.4</ele>
        <time>2020-05-31T16:13:22Z</time>
      </trkpt>
      <trkpt lat="46.21861" lon="-0.89994">
        <ele>8.5</ele>
        <time>2020-05-31T16:13:23Z</time>
      </trkpt>
      <trkpt lat="46.21862" lon="-0.90002">
        <ele>8.5</ele>
        <time>2020-05-31T16:13:24Z</time>
      </trkpt>
      <trkpt lat="46.21864" lon="-0.9001">
        <ele>8.5</ele>
        <time>2020-05-31T16:13:25Z</time>
      </trkpt>
      <trkpt lat="46.21866" lon="-0.90019">
        <ele>8.5</ele>
        <time>2020-05-31T16:13:26Z</time>
      </trkpt>
      <trkpt lat="46.21867" lon="-0.90028">
        <ele>8.5</ele>
        <time>2020-05-31T16:13:27Z</time>
      </trkpt>
      <trkpt lat="46.21869" lon="-0.90037">
        <ele>8.5</ele>
        <time>2020-05-31T16:13:28Z</time>
      </trkpt>
      <trkpt lat="46.2187" lon="-0.90045">
        <ele>8.5</ele>
        <time>2020-05-31T16:13:29Z</time>
      </trkpt>
      <trkpt lat="46.21872" lon="-0.90054">
        <ele>8.5</ele>
        <time>2020-05-31T16:13:30Z</time>
      </trkpt>
      <trkpt lat="46.21874" lon="-0.90062">
        <ele>8.5</ele>
        <time>2020-05-31T16:13:31Z</time>
      </trkpt>
      <trkpt lat="46.21876" lon="-0.90071">
        <ele>8.5</ele>
        <time>2020-05-31T16:13:32Z</time>
      </trkpt>
      <trkpt lat="46.21878" lon="-0.9008">
        <ele>8.5</ele>
        <time>2020-05-31T16:13:33Z</time>
      </trkpt>
      <trkpt lat="46.2188" lon="-0.90089">
        <ele>8.5</ele>
        <time>2020-05-31T16:13:34Z</time>
      </trkpt>
      <trkpt lat="46.21881" lon="-0.90099">
        <ele>8.5</ele>
        <time>2020-05-31T16:13:35Z</time>
      </trkpt>
      <trkpt lat="46.21883" lon="-0.90108">
        <ele>8.5</ele>
        <time>2020-05-31T16:13:36Z</time>
      </trkpt>
      <trkpt lat="46.21885" lon="-0.90117">
        <ele>8.5</ele>
        <time>2020-05-31T16:13:37Z</time>
      </trkpt>
      <trkpt lat="46.21886" lon="-0.90126">
        <ele>8.5</ele>
        <time>2020-05-31T16:13:38Z</time>
      </trkpt>
      <trkpt lat="46.21888" lon="-0.90135">
        <ele>8.5</ele>
        <time>2020-05-31T16:13:39Z</time>
      </trkpt>
      <trkpt lat="46.21889" lon="-0.90145">
        <ele>8.5</ele>
        <time>2020-05-31T16:13:40Z</time>
      </trkpt>
      <trkpt lat="46.21891" lon="-0.90153">
        <ele>8.5</ele>
        <time>2020-05-31T16:13:41Z</time>
      </trkpt>
      <trkpt lat="46.21892" lon="-0.90162">
        <ele>8.4</ele>
        <time>2020-05-31T16:13:42Z</time>
      </trkpt>
      <trkpt lat="46.21893" lon="-0.90171">
        <ele>8.4</ele>
        <time>2020-05-31T16:13:43Z</time>
      </trkpt>
      <trkpt lat="46.21894" lon="-0.9018">
        <ele>8.4</ele>
        <time>2020-05-31T16:13:44Z</time>
      </trkpt>
      <trkpt lat="46.21896" lon="-0.90189">
        <ele>8.4</ele>
        <time>2020-05-31T16:13:45Z</time>
      </trkpt>
      <trkpt lat="46.21897" lon="-0.90198">
        <ele>8.4</ele>
        <time>2020-05-31T16:13:46Z</time>
      </trkpt>
      <trkpt lat="46.21899" lon="-0.90207">
        <ele>8.4</ele>
        <time>2020-05-31T16:13:47Z</time>
      </trkpt>
      <trkpt lat="46.219" lon="-0.90215">
        <ele>8.4</ele>
        <time>2020-05-31T16:13:48Z</time>
      </trkpt>
      <trkpt lat="46.21901" lon="-0.90224">
        <ele>8.4</ele>
        <time>2020-05-31T16:13:49Z</time>
      </trkpt>
      <trkpt lat="46.21903" lon="-0.90233">
        <ele>8.4</ele>
        <time>2020-05-31T16:13:50Z</time>
      </trkpt>
      <trkpt lat="46.21904" lon="-0.90241">
        <ele>8.4</ele>
        <time>2020-05-31T16:13:51Z</time>
      </trkpt>
      <trkpt lat="46.21905" lon="-0.9025">
        <ele>8.4</ele>
        <time>2020-05-31T16:13:52Z</time>
      </trkpt>
      <trkpt lat="46.21906" lon="-0.90259">
        <ele>8.4</ele>
        <time>2020-05-31T16:13:53Z</time>
      </trkpt>
      <trkpt lat="46.21907" lon="-0.90269">
        <ele>8.4</ele>
        <time>2020-05-31T16:13:54Z</time>
      </trkpt>
      <trkpt lat="46.21909" lon="-0.90278">
        <ele>8.3</ele>
        <time>2020-05-31T16:13:55Z</time>
      </trkpt>
      <trkpt lat="46.2191" lon="-0.90286">
        <ele>8.3</ele>
        <time>2020-05-31T16:13:56Z</time>
      </trkpt>
      <trkpt lat="46.21912" lon="-0.90295">
        <ele>8.3</ele>
        <time>2020-05-31T16:13:57Z</time>
      </trkpt>
      <trkpt lat="46.21914" lon="-0.90303">
        <ele>8.3</ele>
        <time>2020-05-31T16:13:58Z</time>
      </trkpt>
      <trkpt lat="46.21917" lon="-0.90312">
        <ele>8.3</ele>
        <time>2020-05-31T16:13:59Z</time>
      </trkpt>
      <trkpt lat="46.21919" lon="-0.90321">
        <ele>8.3</ele>
        <time>2020-05-31T16:14:00Z</time>
      </trkpt>
      <trkpt lat="46.21922" lon="-0.9033">
        <ele>8.3</ele>
        <time>2020-05-31T16:14:01Z</time>
      </trkpt>
      <trkpt lat="46.21925" lon="-0.9034">
        <ele>8.3</ele>
        <time>2020-05-31T16:14:02Z</time>
      </trkpt>
      <trkpt lat="46.21929" lon="-0.90348">
        <ele>8.3</ele>
        <time>2020-05-31T16:14:03Z</time>
      </trkpt>
      <trkpt lat="46.21934" lon="-0.90355">
        <ele>8.2</ele>
        <time>2020-05-31T16:14:04Z</time>
      </trkpt>
      <trkpt lat="46.21939" lon="-0.90362">
        <ele>8.2</ele>
        <time>2020-05-31T16:14:05Z</time>
      </trkpt>
      <trkpt lat="46.21944" lon="-0.90369">
        <ele>8.2</ele>
        <time>2020-05-31T16:14:06Z</time>
      </trkpt>
      <trkpt lat="46.21949" lon="-0.90375">
        <ele>8.2</ele>
        <time>2020-05-31T16:14:07Z</time>
      </trkpt>
      <trkpt lat="46.21953" lon="-0.90381">
        <ele>8.2</ele>
        <time>2020-05-31T16:14:08Z</time>
      </trkpt>
      <trkpt lat="46.21958" lon="-0.90388">
        <ele>8.2</ele>
        <time>2020-05-31T16:14:09Z</time>
      </trkpt>
      <trkpt lat="46.21963" lon="-0.90395">
        <ele>8.2</ele>
        <time>2020-05-31T16:14:10Z</time>
      </trkpt>
      <trkpt lat="46.21967" lon="-0.90403">
        <ele>8.1</ele>
        <time>2020-05-31T16:14:11Z</time>
      </trkpt>
      <trkpt lat="46.21971" lon="-0.9041">
        <ele>8.1</ele>
        <time>2020-05-31T16:14:12Z</time>
      </trkpt>
      <trkpt lat="46.21974" lon="-0.90418">
        <ele>8.1</ele>
        <time>2020-05-31T16:14:13Z</time>
      </trkpt>
      <trkpt lat="46.21977" lon="-0.90426">
        <ele>8.1</ele>
        <time>2020-05-31T16:14:14Z</time>
      </trkpt>
      <trkpt lat="46.21979" lon="-0.90435">
        <ele>8.1</ele>
        <time>2020-05-31T16:14:15Z</time>
      </trkpt>
      <trkpt lat="46.21981" lon="-0.90444">
        <ele>8.1</ele>
        <time>2020-05-31T16:14:16Z</time>
      </trkpt>
      <trkpt lat="46.21983" lon="-0.90452">
        <ele>8.1</ele>
        <time>2020-05-31T16:14:17Z</time>
      </trkpt>
      <trkpt lat="46.21984" lon="-0.90461">
        <ele>8.1</ele>
        <time>2020-05-31T16:14:18Z</time>
      </trkpt>
      <trkpt lat="46.21984" lon="-0.9047">
        <ele>8.1</ele>
        <time>2020-05-31T16:14:19Z</time>
      </trkpt>
      <trkpt lat="46.21985" lon="-0.9048">
        <ele>8.1</ele>
        <time>2020-05-31T16:14:20Z</time>
      </trkpt>
      <trkpt lat="46.21985" lon="-0.90489">
        <ele>8.1</ele>
        <time>2020-05-31T16:14:21Z</time>
      </trkpt>
      <trkpt lat="46.21985" lon="-0.90498">
        <ele>8.1</ele>
        <time>2020-05-31T16:14:22Z</time>
      </trkpt>
      <trkpt lat="46.21985" lon="-0.90506">
        <ele>8.1</ele>
        <time>2020-05-31T16:14:23Z</time>
      </trkpt>
      <trkpt lat="46.21985" lon="-0.90515">
        <ele>8.1</ele>
        <time>2020-05-31T16:14:24Z</time>
      </trkpt>
      <trkpt lat="46.21986" lon="-0.90524">
        <ele>8.1</ele>
        <time>2020-05-31T16:14:25Z</time>
      </trkpt>
      <trkpt lat="46.21986" lon="-0.90533">
        <ele>8.1</ele>
        <time>2020-05-31T16:14:26Z</time>
      </trkpt>
      <trkpt lat="46.21986" lon="-0.90541">
        <ele>8.1</ele>
        <time>2020-05-31T16:14:27Z</time>
      </trkpt>
      <trkpt lat="46.21986" lon="-0.90549">
        <ele>8.1</ele>
        <time>2020-05-31T16:14:28Z</time>
      </trkpt>
      <trkpt lat="46.21985" lon="-0.90558">
        <ele>8</ele>
        <time>2020-05-31T16:14:29Z</time>
      </trkpt>
      <trkpt lat="46.21985" lon="-0.90566">
        <ele>8</ele>
        <time>2020-05-31T16:14:30Z</time>
      </trkpt>
      <trkpt lat="46.21984" lon="-0.90574">
        <ele>8</ele>
        <time>2020-05-31T16:14:31Z</time>
      </trkpt>
      <trkpt lat="46.21983" lon="-0.90583">
        <ele>8</ele>
        <time>2020-05-31T16:14:32Z</time>
      </trkpt>
      <trkpt lat="46.21983" lon="-0.90591">
        <ele>8</ele>
        <time>2020-05-31T16:14:33Z</time>
      </trkpt>
      <trkpt lat="46.21982" lon="-0.906">
        <ele>8</ele>
        <time>2020-05-31T16:14:34Z</time>
      </trkpt>
      <trkpt lat="46.21981" lon="-0.90608">
        <ele>8</ele>
        <time>2020-05-31T16:14:35Z</time>
      </trkpt>
      <trkpt lat="46.2198" lon="-0.90618">
        <ele>7.9</ele>
        <time>2020-05-31T16:14:36Z</time>
      </trkpt>
      <trkpt lat="46.21979" lon="-0.90627">
        <ele>7.9</ele>
        <time>2020-05-31T16:14:37Z</time>
      </trkpt>
      <trkpt lat="46.21978" lon="-0.90637">
        <ele>7.9</ele>
        <time>2020-05-31T16:14:38Z</time>
      </trkpt>
      <trkpt lat="46.21977" lon="-0.90646">
        <ele>7.9</ele>
        <time>2020-05-31T16:14:39Z</time>
      </trkpt>
      <trkpt lat="46.21975" lon="-0.90656">
        <ele>7.8</ele>
        <time>2020-05-31T16:14:40Z</time>
      </trkpt>
      <trkpt lat="46.21974" lon="-0.90666">
        <ele>7.7</ele>
        <time>2020-05-31T16:14:41Z</time>
      </trkpt>
      <trkpt lat="46.21973" lon="-0.90676">
        <ele>7.6</ele>
        <time>2020-05-31T16:14:42Z</time>
      </trkpt>
      <trkpt lat="46.21972" lon="-0.90686">
        <ele>7.5</ele>
        <time>2020-05-31T16:14:43Z</time>
      </trkpt>
      <trkpt lat="46.21971" lon="-0.90697">
        <ele>7.3</ele>
        <time>2020-05-31T16:14:44Z</time>
      </trkpt>
      <trkpt lat="46.2197" lon="-0.90707">
        <ele>7.1</ele>
        <time>2020-05-31T16:14:45Z</time>
      </trkpt>
      <trkpt lat="46.2197" lon="-0.90718">
        <ele>7.1</ele>
        <time>2020-05-31T16:14:46Z</time>
      </trkpt>
      <trkpt lat="46.2197" lon="-0.90729">
        <ele>7</ele>
        <time>2020-05-31T16:14:47Z</time>
      </trkpt>
      <trkpt lat="46.2197" lon="-0.9074">
        <ele>7</ele>
        <time>2020-05-31T16:14:48Z</time>
      </trkpt>
      <trkpt lat="46.21971" lon="-0.90751">
        <ele>7.1</ele>
        <time>2020-05-31T16:14:49Z</time>
      </trkpt>
      <trkpt lat="46.21972" lon="-0.90762">
        <ele>7.1</ele>
        <time>2020-05-31T16:14:50Z</time>
      </trkpt>
      <trkpt lat="46.21974" lon="-0.90771">
        <ele>7.1</ele>
        <time>2020-05-31T16:14:51Z</time>
      </trkpt>
      <trkpt lat="46.21977" lon="-0.90781">
        <ele>7.1</ele>
        <time>2020-05-31T16:14:52Z</time>
      </trkpt>
      <trkpt lat="46.2198" lon="-0.9079">
        <ele>7.1</ele>
        <time>2020-05-31T16:14:53Z</time>
      </trkpt>
      <trkpt lat="46.21982" lon="-0.908">
        <ele>7.1</ele>
        <time>2020-05-31T16:14:54Z</time>
      </trkpt>
      <trkpt lat="46.21985" lon="-0.90809">
        <ele>7.1</ele>
        <time>2020-05-31T16:14:55Z</time>
      </trkpt>
      <trkpt lat="46.21987" lon="-0.90817">
        <ele>7.1</ele>
        <time>2020-05-31T16:14:56Z</time>
      </trkpt>
      <trkpt lat="46.2199" lon="-0.90825">
        <ele>7.1</ele>
        <time>2020-05-31T16:14:57Z</time>
      </trkpt>
      <trkpt lat="46.21993" lon="-0.90833">
        <ele>7.1</ele>
        <time>2020-05-31T16:14:58Z</time>
      </trkpt>
      <trkpt lat="46.21995" lon="-0.90841">
        <ele>7.1</ele>
        <time>2020-05-31T16:14:59Z</time>
      </trkpt>
      <trkpt lat="46.21997" lon="-0.90848">
        <ele>7.1</ele>
        <time>2020-05-31T16:15:00Z</time>
      </trkpt>
      <trkpt lat="46.21999" lon="-0.90856">
        <ele>7.1</ele>
        <time>2020-05-31T16:15:01Z</time>
      </trkpt>
      <trkpt lat="46.22002" lon="-0.90863">
        <ele>7.2</ele>
        <time>2020-05-31T16:15:02Z</time>
      </trkpt>
      <trkpt lat="46.22004" lon="-0.90871">
        <ele>7.2</ele>
        <time>2020-05-31T16:15:03Z</time>
      </trkpt>
      <trkpt lat="46.22006" lon="-0.90879">
        <ele>7.2</ele>
        <time>2020-05-31T16:15:04Z</time>
      </trkpt>
      <trkpt lat="46.22008" lon="-0.90886">
        <ele>7.2</ele>
        <time>2020-05-31T16:15:05Z</time>
      </trkpt>
      <trkpt lat="46.22009" lon="-0.90894">
        <ele>7.2</ele>
        <time>2020-05-31T16:15:06Z</time>
      </trkpt>
      <trkpt lat="46.22011" lon="-0.90902">
        <ele>7.3</ele>
        <time>2020-05-31T16:15:07Z</time>
      </trkpt>
      <trkpt lat="46.22013" lon="-0.90911">
        <ele>7.3</ele>
        <time>2020-05-31T16:15:08Z</time>
      </trkpt>
      <trkpt lat="46.22015" lon="-0.90919">
        <ele>7.3</ele>
        <time>2020-05-31T16:15:09Z</time>
      </trkpt>
      <trkpt lat="46.22017" lon="-0.90928">
        <ele>7.4</ele>
        <time>2020-05-31T16:15:10Z</time>
      </trkpt>
      <trkpt lat="46.22018" lon="-0.90937">
        <ele>7.4</ele>
        <time>2020-05-31T16:15:11Z</time>
      </trkpt>
      <trkpt lat="46.22019" lon="-0.90945">
        <ele>7.4</ele>
        <time>2020-05-31T16:15:12Z</time>
      </trkpt>
      <trkpt lat="46.22021" lon="-0.90954">
        <ele>7.5</ele>
        <time>2020-05-31T16:15:13Z</time>
      </trkpt>
      <trkpt lat="46.22022" lon="-0.90963">
        <ele>7.5</ele>
        <time>2020-05-31T16:15:14Z</time>
      </trkpt>
      <trkpt lat="46.22023" lon="-0.90972">
        <ele>7.5</ele>
        <time>2020-05-31T16:15:15Z</time>
      </trkpt>
      <trkpt lat="46.22025" lon="-0.90982">
        <ele>7.5</ele>
        <time>2020-05-31T16:15:16Z</time>
      </trkpt>
      <trkpt lat="46.22027" lon="-0.90991">
        <ele>7.6</ele>
        <time>2020-05-31T16:15:17Z</time>
      </trkpt>
      <trkpt lat="46.22028" lon="-0.91">
        <ele>7.6</ele>
        <time>2020-05-31T16:15:18Z</time>
      </trkpt>
      <trkpt lat="46.22029" lon="-0.91008">
        <ele>7.6</ele>
        <time>2020-05-31T16:15:19Z</time>
      </trkpt>
      <trkpt lat="46.22031" lon="-0.91018">
        <ele>7.7</ele>
        <time>2020-05-31T16:15:20Z</time>
      </trkpt>
      <trkpt lat="46.22032" lon="-0.91027">
        <ele>7.7</ele>
        <time>2020-05-31T16:15:21Z</time>
      </trkpt>
      <trkpt lat="46.22033" lon="-0.91037">
        <ele>7.8</ele>
        <time>2020-05-31T16:15:22Z</time>
      </trkpt>
      <trkpt lat="46.22034" lon="-0.91046">
        <ele>8</ele>
        <time>2020-05-31T16:15:23Z</time>
      </trkpt>
      <trkpt lat="46.22035" lon="-0.91055">
        <ele>8.1</ele>
        <time>2020-05-31T16:15:24Z</time>
      </trkpt>
      <trkpt lat="46.22037" lon="-0.91064">
        <ele>8.3</ele>
        <time>2020-05-31T16:15:25Z</time>
      </trkpt>
      <trkpt lat="46.22038" lon="-0.91073">
        <ele>8.4</ele>
        <time>2020-05-31T16:15:26Z</time>
      </trkpt>
      <trkpt lat="46.22039" lon="-0.91082">
        <ele>8.4</ele>
        <time>2020-05-31T16:15:27Z</time>
      </trkpt>
      <trkpt lat="46.22041" lon="-0.9109">
        <ele>8.4</ele>
        <time>2020-05-31T16:15:28Z</time>
      </trkpt>
      <trkpt lat="46.22043" lon="-0.91099">
        <ele>8.4</ele>
        <time>2020-05-31T16:15:29Z</time>
      </trkpt>
      <trkpt lat="46.22044" lon="-0.91108">
        <ele>8.4</ele>
        <time>2020-05-31T16:15:30Z</time>
      </trkpt>
      <trkpt lat="46.22045" lon="-0.91117">
        <ele>8.5</ele>
        <time>2020-05-31T16:15:31Z</time>
      </trkpt>
      <trkpt lat="46.22047" lon="-0.91125">
        <ele>8.6</ele>
        <time>2020-05-31T16:15:32Z</time>
      </trkpt>
      <trkpt lat="46.22048" lon="-0.91133">
        <ele>8.7</ele>
        <time>2020-05-31T16:15:33Z</time>
      </trkpt>
      <trkpt lat="46.22049" lon="-0.91141">
        <ele>8.9</ele>
        <time>2020-05-31T16:15:34Z</time>
      </trkpt>
      <trkpt lat="46.22051" lon="-0.91149">
        <ele>9</ele>
        <time>2020-05-31T16:15:35Z</time>
      </trkpt>
      <trkpt lat="46.22053" lon="-0.91157">
        <ele>9.1</ele>
        <time>2020-05-31T16:15:36Z</time>
      </trkpt>
      <trkpt lat="46.22055" lon="-0.91164">
        <ele>9.2</ele>
        <time>2020-05-31T16:15:37Z</time>
      </trkpt>
      <trkpt lat="46.22056" lon="-0.91172">
        <ele>9.3</ele>
        <time>2020-05-31T16:15:38Z</time>
      </trkpt>
      <trkpt lat="46.22057" lon="-0.91179">
        <ele>9.4</ele>
        <time>2020-05-31T16:15:39Z</time>
      </trkpt>
      <trkpt lat="46.22058" lon="-0.91185">
        <ele>9.5</ele>
        <time>2020-05-31T16:15:40Z</time>
      </trkpt>
      <trkpt lat="46.2206" lon="-0.91191">
        <ele>9.6</ele>
        <time>2020-05-31T16:15:41Z</time>
      </trkpt>
      <trkpt lat="46.22061" lon="-0.91197">
        <ele>9.7</ele>
        <time>2020-05-31T16:15:42Z</time>
      </trkpt>
      <trkpt lat="46.22063" lon="-0.91203">
        <ele>9.8</ele>
        <time>2020-05-31T16:15:43Z</time>
      </trkpt>
      <trkpt lat="46.22064" lon="-0.91209">
        <ele>9.8</ele>
        <time>2020-05-31T16:15:44Z</time>
      </trkpt>
      <trkpt lat="46.22066" lon="-0.91215">
        <ele>9.9</ele>
        <time>2020-05-31T16:15:45Z</time>
      </trkpt>
      <trkpt lat="46.22067" lon="-0.9122">
        <ele>10</ele>
        <time>2020-05-31T16:15:46Z</time>
      </trkpt>
      <trkpt lat="46.22069" lon="-0.91225">
        <ele>10.1</ele>
        <time>2020-05-31T16:15:47Z</time>
      </trkpt>
      <trkpt lat="46.2207" lon="-0.91229">
        <ele>10.1</ele>
        <time>2020-05-31T16:15:48Z</time>
      </trkpt>
      <trkpt lat="46.22071" lon="-0.91234">
        <ele>10.2</ele>
        <time>2020-05-31T16:15:49Z</time>
      </trkpt>
      <trkpt lat="46.22073" lon="-0.91238">
        <ele>10.2</ele>
        <time>2020-05-31T16:15:50Z</time>
      </trkpt>
      <trkpt lat="46.22074" lon="-0.91243">
        <ele>10.3</ele>
        <time>2020-05-31T16:15:51Z</time>
      </trkpt>
      <trkpt lat="46.22076" lon="-0.91246">
        <ele>10.3</ele>
        <time>2020-05-31T16:15:52Z</time>
      </trkpt>
      <trkpt lat="46.22077" lon="-0.9125">
        <ele>10.4</ele>
        <time>2020-05-31T16:15:53Z</time>
      </trkpt>
      <trkpt lat="46.22079" lon="-0.91254">
        <ele>10.4</ele>
        <time>2020-05-31T16:15:54Z</time>
      </trkpt>
      <trkpt lat="46.2208" lon="-0.91258">
        <ele>10.5</ele>
        <time>2020-05-31T16:15:55Z</time>
      </trkpt>
      <trkpt lat="46.22082" lon="-0.91263">
        <ele>10.5</ele>
        <time>2020-05-31T16:15:56Z</time>
      </trkpt>
      <trkpt lat="46.22082" lon="-0.91265">
        <ele>10.5</ele>
        <time>2020-05-31T16:15:57Z</time>
      </trkpt>
      <trkpt lat="46.22084" lon="-0.91268">
        <ele>10.6</ele>
        <time>2020-05-31T16:15:58Z</time>
      </trkpt>
      <trkpt lat="46.22086" lon="-0.91272">
        <ele>10.6</ele>
        <time>2020-05-31T16:15:59Z</time>
      </trkpt>
      <trkpt lat="46.22088" lon="-0.91275">
        <ele>10.6</ele>
        <time>2020-05-31T16:16:00Z</time>
      </trkpt>
      <trkpt lat="46.22089" lon="-0.9128">
        <ele>10.7</ele>
        <time>2020-05-31T16:16:01Z</time>
      </trkpt>
      <trkpt lat="46.22091" lon="-0.91284">
        <ele>10.7</ele>
        <time>2020-05-31T16:16:02Z</time>
      </trkpt>
      <trkpt lat="46.22092" lon="-0.9129">
        <ele>10.8</ele>
        <time>2020-05-31T16:16:03Z</time>
      </trkpt>
      <trkpt lat="46.22094" lon="-0.91294">
        <ele>10.8</ele>
        <time>2020-05-31T16:16:04Z</time>
      </trkpt>
      <trkpt lat="46.22096" lon="-0.91299">
        <ele>10.8</ele>
        <time>2020-05-31T16:16:05Z</time>
      </trkpt>
      <trkpt lat="46.22098" lon="-0.91303">
        <ele>10.9</ele>
        <time>2020-05-31T16:16:06Z</time>
      </trkpt>
      <trkpt lat="46.22099" lon="-0.91307">
        <ele>10.9</ele>
        <time>2020-05-31T16:16:07Z</time>
      </trkpt>
      <trkpt lat="46.22101" lon="-0.91312">
        <ele>10.9</ele>
        <time>2020-05-31T16:16:08Z</time>
      </trkpt>
      <trkpt lat="46.22102" lon="-0.91316">
        <ele>10.9</ele>
        <time>2020-05-31T16:16:09Z</time>
      </trkpt>
      <trkpt lat="46.22103" lon="-0.9132">
        <ele>10.9</ele>
        <time>2020-05-31T16:16:10Z</time>
      </trkpt>
      <trkpt lat="46.22104" lon="-0.91324">
        <ele>10.9</ele>
        <time>2020-05-31T16:16:11Z</time>
      </trkpt>
      <trkpt lat="46.22105" lon="-0.91328">
        <ele>11</ele>
        <time>2020-05-31T16:16:12Z</time>
      </trkpt>
      <trkpt lat="46.22106" lon="-0.91332">
        <ele>11</ele>
        <time>2020-05-31T16:16:13Z</time>
      </trkpt>
      <trkpt lat="46.22108" lon="-0.91336">
        <ele>11</ele>
        <time>2020-05-31T16:16:14Z</time>
      </trkpt>
      <trkpt lat="46.2211" lon="-0.91339">
        <ele>11</ele>
        <time>2020-05-31T16:16:15Z</time>
      </trkpt>
      <trkpt lat="46.22112" lon="-0.91343">
        <ele>11</ele>
        <time>2020-05-31T16:16:16Z</time>
      </trkpt>
      <trkpt lat="46.22114" lon="-0.91347">
        <ele>11</ele>
        <time>2020-05-31T16:16:17Z</time>
      </trkpt>
      <trkpt lat="46.22116" lon="-0.91351">
        <ele>11</ele>
        <time>2020-05-31T16:16:18Z</time>
      </trkpt>
      <trkpt lat="46.22118" lon="-0.91355">
        <ele>11</ele>
        <time>2020-05-31T16:16:19Z</time>
      </trkpt>
      <trkpt lat="46.2212" lon="-0.91359">
        <ele>11</ele>
        <time>2020-05-31T16:16:20Z</time>
      </trkpt>
      <trkpt lat="46.22122" lon="-0.91362">
        <ele>11</ele>
        <time>2020-05-31T16:16:21Z</time>
      </trkpt>
      <trkpt lat="46.22124" lon="-0.91366">
        <ele>11</ele>
        <time>2020-05-31T16:16:22Z</time>
      </trkpt>
      <trkpt lat="46.22126" lon="-0.91371">
        <ele>11</ele>
        <time>2020-05-31T16:16:23Z</time>
      </trkpt>
      <trkpt lat="46.22128" lon="-0.91375">
        <ele>11</ele>
        <time>2020-05-31T16:16:24Z</time>
      </trkpt>
      <trkpt lat="46.2213" lon="-0.91379">
        <ele>11</ele>
        <time>2020-05-31T16:16:25Z</time>
      </trkpt>
      <trkpt lat="46.22133" lon="-0.91383">
        <ele>11</ele>
        <time>2020-05-31T16:16:26Z</time>
      </trkpt>
      <trkpt lat="46.22135" lon="-0.91387">
        <ele>11</ele>
        <time>2020-05-31T16:16:27Z</time>
      </trkpt>
      <trkpt lat="46.22137" lon="-0.91392">
        <ele>11</ele>
        <time>2020-05-31T16:16:28Z</time>
      </trkpt>
      <trkpt lat="46.22138" lon="-0.91397">
        <ele>11</ele>
        <time>2020-05-31T16:16:29Z</time>
      </trkpt>
      <trkpt lat="46.2214" lon="-0.91401">
        <ele>11</ele>
        <time>2020-05-31T16:16:30Z</time>
      </trkpt>
      <trkpt lat="46.22142" lon="-0.91406">
        <ele>11</ele>
        <time>2020-05-31T16:16:31Z</time>
      </trkpt>
      <trkpt lat="46.22144" lon="-0.91409">
        <ele>11</ele>
        <time>2020-05-31T16:16:32Z</time>
      </trkpt>
      <trkpt lat="46.22146" lon="-0.91413">
        <ele>11</ele>
        <time>2020-05-31T16:16:33Z</time>
      </trkpt>
      <trkpt lat="46.22148" lon="-0.91417">
        <ele>11</ele>
        <time>2020-05-31T16:16:34Z</time>
      </trkpt>
      <trkpt lat="46.2215" lon="-0.91421">
        <ele>11.1</ele>
        <time>2020-05-31T16:16:35Z</time>
      </trkpt>
      <trkpt lat="46.22152" lon="-0.91425">
        <ele>11.1</ele>
        <time>2020-05-31T16:16:36Z</time>
      </trkpt>
      <trkpt lat="46.22154" lon="-0.91429">
        <ele>11.1</ele>
        <time>2020-05-31T16:16:37Z</time>
      </trkpt>
      <trkpt lat="46.22156" lon="-0.91432">
        <ele>11.1</ele>
        <time>2020-05-31T16:16:38Z</time>
      </trkpt>
      <trkpt lat="46.22157" lon="-0.91436">
        <ele>11.1</ele>
        <time>2020-05-31T16:16:39Z</time>
      </trkpt>
      <trkpt lat="46.22159" lon="-0.91439">
        <ele>11.1</ele>
        <time>2020-05-31T16:16:40Z</time>
      </trkpt>
      <trkpt lat="46.22161" lon="-0.91442">
        <ele>11.1</ele>
        <time>2020-05-31T16:16:41Z</time>
      </trkpt>
      <trkpt lat="46.22163" lon="-0.91445">
        <ele>11.2</ele>
        <time>2020-05-31T16:16:42Z</time>
      </trkpt>
      <trkpt lat="46.22165" lon="-0.91448">
        <ele>11.2</ele>
        <time>2020-05-31T16:16:43Z</time>
      </trkpt>
      <trkpt lat="46.22166" lon="-0.91452">
        <ele>11.2</ele>
        <time>2020-05-31T16:16:44Z</time>
      </trkpt>
      <trkpt lat="46.22168" lon="-0.91455">
        <ele>11.2</ele>
        <time>2020-05-31T16:16:45Z</time>
      </trkpt>
      <trkpt lat="46.2217" lon="-0.91459">
        <ele>11.2</ele>
        <time>2020-05-31T16:16:46Z</time>
      </trkpt>
      <trkpt lat="46.22172" lon="-0.91462">
        <ele>11.2</ele>
        <time>2020-05-31T16:16:47Z</time>
      </trkpt>
      <trkpt lat="46.22174" lon="-0.91466">
        <ele>11.2</ele>
        <time>2020-05-31T16:16:48Z</time>
      </trkpt>
      <trkpt lat="46.22176" lon="-0.91469">
        <ele>11.2</ele>
        <time>2020-05-31T16:16:49Z</time>
      </trkpt>
      <trkpt lat="46.22178" lon="-0.91473">
        <ele>11.2</ele>
        <time>2020-05-31T16:16:50Z</time>
      </trkpt>
      <trkpt lat="46.2218" lon="-0.91476">
        <ele>11.3</ele>
        <time>2020-05-31T16:16:51Z</time>
      </trkpt>
      <trkpt lat="46.22182" lon="-0.9148">
        <ele>11.3</ele>
        <time>2020-05-31T16:16:52Z</time>
      </trkpt>
      <trkpt lat="46.22184" lon="-0.91484">
        <ele>11.3</ele>
        <time>2020-05-31T16:16:53Z</time>
      </trkpt>
      <trkpt lat="46.22186" lon="-0.91489">
        <ele>11.3</ele>
        <time>2020-05-31T16:16:54Z</time>
      </trkpt>
      <trkpt lat="46.22188" lon="-0.91493">
        <ele>11.3</ele>
        <time>2020-05-31T16:16:55Z</time>
      </trkpt>
      <trkpt lat="46.2219" lon="-0.91498">
        <ele>11.3</ele>
        <time>2020-05-31T16:16:56Z</time>
      </trkpt>
      <trkpt lat="46.22192" lon="-0.91503">
        <ele>11.3</ele>
        <time>2020-05-31T16:16:57Z</time>
      </trkpt>
      <trkpt lat="46.22194" lon="-0.91509">
        <ele>11.3</ele>
        <time>2020-05-31T16:16:58Z</time>
      </trkpt>
      <trkpt lat="46.22196" lon="-0.91514">
        <ele>11.4</ele>
        <time>2020-05-31T16:16:59Z</time>
      </trkpt>
      <trkpt lat="46.22199" lon="-0.91519">
        <ele>11.4</ele>
        <time>2020-05-31T16:17:00Z</time>
      </trkpt>
      <trkpt lat="46.22201" lon="-0.91525">
        <ele>11.4</ele>
        <time>2020-05-31T16:17:01Z</time>
      </trkpt>
      <trkpt lat="46.22203" lon="-0.9153">
        <ele>11.4</ele>
        <time>2020-05-31T16:17:02Z</time>
      </trkpt>
      <trkpt lat="46.22205" lon="-0.91536">
        <ele>11.5</ele>
        <time>2020-05-31T16:17:03Z</time>
      </trkpt>
      <trkpt lat="46.22207" lon="-0.91541">
        <ele>11.5</ele>
        <time>2020-05-31T16:17:04Z</time>
      </trkpt>
      <trkpt lat="46.2221" lon="-0.91547">
        <ele>11.5</ele>
        <time>2020-05-31T16:17:05Z</time>
      </trkpt>
      <trkpt lat="46.22211" lon="-0.91552">
        <ele>11.5</ele>
        <time>2020-05-31T16:17:06Z</time>
      </trkpt>
      <trkpt lat="46.22213" lon="-0.91558">
        <ele>11.5</ele>
        <time>2020-05-31T16:17:07Z</time>
      </trkpt>
      <trkpt lat="46.22214" lon="-0.91564">
        <ele>11.5</ele>
        <time>2020-05-31T16:17:08Z</time>
      </trkpt>
      <trkpt lat="46.22215" lon="-0.9157">
        <ele>11.5</ele>
        <time>2020-05-31T16:17:09Z</time>
      </trkpt>
      <trkpt lat="46.22215" lon="-0.91576">
        <ele>11.5</ele>
        <time>2020-05-31T16:17:10Z</time>
      </trkpt>
      <trkpt lat="46.22216" lon="-0.91582">
        <ele>11.5</ele>
        <time>2020-05-31T16:17:11Z</time>
      </trkpt>
      <trkpt lat="46.22217" lon="-0.91587">
        <ele>11.4</ele>
        <time>2020-05-31T16:17:12Z</time>
      </trkpt>
      <trkpt lat="46.22217" lon="-0.91593">
        <ele>11.4</ele>
        <time>2020-05-31T16:17:13Z</time>
      </trkpt>
      <trkpt lat="46.22218" lon="-0.91599">
        <ele>11.4</ele>
        <time>2020-05-31T16:17:14Z</time>
      </trkpt>
      <trkpt lat="46.2222" lon="-0.91605">
        <ele>11.4</ele>
        <time>2020-05-31T16:17:15Z</time>
      </trkpt>
      <trkpt lat="46.22221" lon="-0.91612">
        <ele>11.4</ele>
        <time>2020-05-31T16:17:16Z</time>
      </trkpt>
      <trkpt lat="46.22222" lon="-0.91618">
        <ele>11.4</ele>
        <time>2020-05-31T16:17:17Z</time>
      </trkpt>
      <trkpt lat="46.22222" lon="-0.91625">
        <ele>11.4</ele>
        <time>2020-05-31T16:17:18Z</time>
      </trkpt>
      <trkpt lat="46.22224" lon="-0.91632">
        <ele>11.4</ele>
        <time>2020-05-31T16:17:19Z</time>
      </trkpt>
      <trkpt lat="46.22224" lon="-0.91639">
        <ele>11.4</ele>
        <time>2020-05-31T16:17:20Z</time>
      </trkpt>
      <trkpt lat="46.22225" lon="-0.91646">
        <ele>11.4</ele>
        <time>2020-05-31T16:17:21Z</time>
      </trkpt>
      <trkpt lat="46.22225" lon="-0.91653">
        <ele>11.4</ele>
        <time>2020-05-31T16:17:22Z</time>
      </trkpt>
      <trkpt lat="46.22226" lon="-0.9166">
        <ele>11.4</ele>
        <time>2020-05-31T16:17:23Z</time>
      </trkpt>
      <trkpt lat="46.22227" lon="-0.91668">
        <ele>11.5</ele>
        <time>2020-05-31T16:17:24Z</time>
      </trkpt>
      <trkpt lat="46.22227" lon="-0.91675">
        <ele>11.5</ele>
        <time>2020-05-31T16:17:25Z</time>
      </trkpt>
      <trkpt lat="46.22228" lon="-0.91683">
        <ele>11.6</ele>
        <time>2020-05-31T16:17:26Z</time>
      </trkpt>
      <trkpt lat="46.22228" lon="-0.9169">
        <ele>11.7</ele>
        <time>2020-05-31T16:17:27Z</time>
      </trkpt>
      <trkpt lat="46.2223" lon="-0.91697">
        <ele>11.8</ele>
        <time>2020-05-31T16:17:28Z</time>
      </trkpt>
      <trkpt lat="46.22231" lon="-0.91704">
        <ele>11.9</ele>
        <time>2020-05-31T16:17:29Z</time>
      </trkpt>
      <trkpt lat="46.22233" lon="-0.91712">
        <ele>11.9</ele>
        <time>2020-05-31T16:17:30Z</time>
      </trkpt>
      <trkpt lat="46.22234" lon="-0.91719">
        <ele>12</ele>
        <time>2020-05-31T16:17:31Z</time>
      </trkpt>
      <trkpt lat="46.22235" lon="-0.91726">
        <ele>12</ele>
        <time>2020-05-31T16:17:32Z</time>
      </trkpt>
      <trkpt lat="46.22237" lon="-0.91733">
        <ele>12.1</ele>
        <time>2020-05-31T16:17:33Z</time>
      </trkpt>
      <trkpt lat="46.22238" lon="-0.9174">
        <ele>12.1</ele>
        <time>2020-05-31T16:17:34Z</time>
      </trkpt>
      <trkpt lat="46.22239" lon="-0.91747">
        <ele>12.1</ele>
        <time>2020-05-31T16:17:35Z</time>
      </trkpt>
      <trkpt lat="46.22241" lon="-0.91754">
        <ele>12.1</ele>
        <time>2020-05-31T16:17:36Z</time>
      </trkpt>
      <trkpt lat="46.22242" lon="-0.91762">
        <ele>12.1</ele>
        <time>2020-05-31T16:17:37Z</time>
      </trkpt>
      <trkpt lat="46.22243" lon="-0.91769">
        <ele>12.1</ele>
        <time>2020-05-31T16:17:38Z</time>
      </trkpt>
      <trkpt lat="46.22244" lon="-0.91777">
        <ele>12.2</ele>
        <time>2020-05-31T16:17:39Z</time>
      </trkpt>
      <trkpt lat="46.22246" lon="-0.91784">
        <ele>12.2</ele>
        <time>2020-05-31T16:17:40Z</time>
      </trkpt>
      <trkpt lat="46.22247" lon="-0.91792">
        <ele>12.2</ele>
        <time>2020-05-31T16:17:41Z</time>
      </trkpt>
      <trkpt lat="46.22248" lon="-0.91799">
        <ele>12.3</ele>
        <time>2020-05-31T16:17:42Z</time>
      </trkpt>
      <trkpt lat="46.2225" lon="-0.91807">
        <ele>12.3</ele>
        <time>2020-05-31T16:17:43Z</time>
      </trkpt>
      <trkpt lat="46.22251" lon="-0.91814">
        <ele>12.4</ele>
        <time>2020-05-31T16:17:44Z</time>
      </trkpt>
      <trkpt lat="46.22252" lon="-0.91821">
        <ele>12.4</ele>
        <time>2020-05-31T16:17:45Z</time>
      </trkpt>
      <trkpt lat="46.22253" lon="-0.91829">
        <ele>12.4</ele>
        <time>2020-05-31T16:17:46Z</time>
      </trkpt>
      <trkpt lat="46.22255" lon="-0.91836">
        <ele>12.5</ele>
        <time>2020-05-31T16:17:47Z</time>
      </trkpt>
      <trkpt lat="46.22256" lon="-0.91844">
        <ele>12.5</ele>
        <time>2020-05-31T16:17:48Z</time>
      </trkpt>
      <trkpt lat="46.22257" lon="-0.91852">
        <ele>12.6</ele>
        <time>2020-05-31T16:17:49Z</time>
      </trkpt>
      <trkpt lat="46.22258" lon="-0.91859">
        <ele>12.6</ele>
        <time>2020-05-31T16:17:50Z</time>
      </trkpt>
      <trkpt lat="46.22258" lon="-0.91868">
        <ele>12.7</ele>
        <time>2020-05-31T16:17:51Z</time>
      </trkpt>
      <trkpt lat="46.22258" lon="-0.91876">
        <ele>12.7</ele>
        <time>2020-05-31T16:17:52Z</time>
      </trkpt>
      <trkpt lat="46.22259" lon="-0.91884">
        <ele>12.8</ele>
        <time>2020-05-31T16:17:53Z</time>
      </trkpt>
      <trkpt lat="46.22259" lon="-0.91891">
        <ele>12.8</ele>
        <time>2020-05-31T16:17:54Z</time>
      </trkpt>
      <trkpt lat="46.2226" lon="-0.91899">
        <ele>12.8</ele>
        <time>2020-05-31T16:17:55Z</time>
      </trkpt>
      <trkpt lat="46.2226" lon="-0.91907">
        <ele>12.9</ele>
        <time>2020-05-31T16:17:56Z</time>
      </trkpt>
      <trkpt lat="46.22261" lon="-0.91914">
        <ele>12.9</ele>
        <time>2020-05-31T16:17:57Z</time>
      </trkpt>
      <trkpt lat="46.22261" lon="-0.91922">
        <ele>13</ele>
        <time>2020-05-31T16:17:58Z</time>
      </trkpt>
      <trkpt lat="46.22261" lon="-0.9193">
        <ele>13.1</ele>
        <time>2020-05-31T16:17:59Z</time>
      </trkpt>
      <trkpt lat="46.22261" lon="-0.91938">
        <ele>13.1</ele>
        <time>2020-05-31T16:18:00Z</time>
      </trkpt>
      <trkpt lat="46.22261" lon="-0.91946">
        <ele>13.2</ele>
        <time>2020-05-31T16:18:01Z</time>
      </trkpt>
      <trkpt lat="46.22261" lon="-0.91954">
        <ele>13.3</ele>
        <time>2020-05-31T16:18:02Z</time>
      </trkpt>
      <trkpt lat="46.22262" lon="-0.91961">
        <ele>13.3</ele>
        <time>2020-05-31T16:18:03Z</time>
      </trkpt>
      <trkpt lat="46.22262" lon="-0.91969">
        <ele>13.4</ele>
        <time>2020-05-31T16:18:04Z</time>
      </trkpt>
      <trkpt lat="46.22263" lon="-0.91976">
        <ele>13.4</ele>
        <time>2020-05-31T16:18:05Z</time>
      </trkpt>
      <trkpt lat="46.22263" lon="-0.91984">
        <ele>13.5</ele>
        <time>2020-05-31T16:18:06Z</time>
      </trkpt>
      <trkpt lat="46.22264" lon="-0.91991">
        <ele>13.6</ele>
        <time>2020-05-31T16:18:07Z</time>
      </trkpt>
      <trkpt lat="46.22264" lon="-0.91999">
        <ele>13.6</ele>
        <time>2020-05-31T16:18:08Z</time>
      </trkpt>
      <trkpt lat="46.22265" lon="-0.92007">
        <ele>13.7</ele>
        <time>2020-05-31T16:18:09Z</time>
      </trkpt>
      <trkpt lat="46.22265" lon="-0.92015">
        <ele>13.8</ele>
        <time>2020-05-31T16:18:10Z</time>
      </trkpt>
      <trkpt lat="46.22266" lon="-0.92023">
        <ele>13.9</ele>
        <time>2020-05-31T16:18:11Z</time>
      </trkpt>
      <trkpt lat="46.22267" lon="-0.92031">
        <ele>13.9</ele>
        <time>2020-05-31T16:18:12Z</time>
      </trkpt>
      <trkpt lat="46.22268" lon="-0.92038">
        <ele>14</ele>
        <time>2020-05-31T16:18:13Z</time>
      </trkpt>
      <trkpt lat="46.22269" lon="-0.92047">
        <ele>14</ele>
        <time>2020-05-31T16:18:14Z</time>
      </trkpt>
      <trkpt lat="46.2227" lon="-0.92055">
        <ele>14</ele>
        <time>2020-05-31T16:18:15Z</time>
      </trkpt>
      <trkpt lat="46.22271" lon="-0.92063">
        <ele>14</ele>
        <time>2020-05-31T16:18:16Z</time>
      </trkpt>
      <trkpt lat="46.22272" lon="-0.92072">
        <ele>14</ele>
        <time>2020-05-31T16:18:17Z</time>
      </trkpt>
      <trkpt lat="46.22273" lon="-0.9208">
        <ele>14</ele>
        <time>2020-05-31T16:18:18Z</time>
      </trkpt>
      <trkpt lat="46.22274" lon="-0.92088">
        <ele>14.1</ele>
        <time>2020-05-31T16:18:19Z</time>
      </trkpt>
      <trkpt lat="46.22274" lon="-0.92096">
        <ele>14.1</ele>
        <time>2020-05-31T16:18:20Z</time>
      </trkpt>
      <trkpt lat="46.22275" lon="-0.92104">
        <ele>14.1</ele>
        <time>2020-05-31T16:18:21Z</time>
      </trkpt>
      <trkpt lat="46.22276" lon="-0.92112">
        <ele>14.2</ele>
        <time>2020-05-31T16:18:22Z</time>
      </trkpt>
      <trkpt lat="46.22277" lon="-0.9212">
        <ele>14.2</ele>
        <time>2020-05-31T16:18:23Z</time>
      </trkpt>
      <trkpt lat="46.22278" lon="-0.92128">
        <ele>14.2</ele>
        <time>2020-05-31T16:18:24Z</time>
      </trkpt>
      <trkpt lat="46.22278" lon="-0.92136">
        <ele>14.3</ele>
        <time>2020-05-31T16:18:25Z</time>
      </trkpt>
      <trkpt lat="46.22279" lon="-0.92144">
        <ele>14.3</ele>
        <time>2020-05-31T16:18:26Z</time>
      </trkpt>
      <trkpt lat="46.22279" lon="-0.92152">
        <ele>14.4</ele>
        <time>2020-05-31T16:18:27Z</time>
      </trkpt>
      <trkpt lat="46.2228" lon="-0.92161">
        <ele>14.4</ele>
        <time>2020-05-31T16:18:28Z</time>
      </trkpt>
      <trkpt lat="46.2228" lon="-0.92168">
        <ele>14.5</ele>
        <time>2020-05-31T16:18:29Z</time>
      </trkpt>
      <trkpt lat="46.22281" lon="-0.92176">
        <ele>14.5</ele>
        <time>2020-05-31T16:18:30Z</time>
      </trkpt>
      <trkpt lat="46.22282" lon="-0.92184">
        <ele>14.6</ele>
        <time>2020-05-31T16:18:31Z</time>
      </trkpt>
      <trkpt lat="46.22282" lon="-0.92192">
        <ele>14.6</ele>
        <time>2020-05-31T16:18:32Z</time>
      </trkpt>
      <trkpt lat="46.22284" lon="-0.92199">
        <ele>14.6</ele>
        <time>2020-05-31T16:18:33Z</time>
      </trkpt>
      <trkpt lat="46.22285" lon="-0.92206">
        <ele>14.6</ele>
        <time>2020-05-31T16:18:34Z</time>
      </trkpt>
      <trkpt lat="46.22286" lon="-0.92213">
        <ele>14.6</ele>
        <time>2020-05-31T16:18:35Z</time>
      </trkpt>
      <trkpt lat="46.22286" lon="-0.92221">
        <ele>14.6</ele>
        <time>2020-05-31T16:18:36Z</time>
      </trkpt>
      <trkpt lat="46.22287" lon="-0.92229">
        <ele>14.5</ele>
        <time>2020-05-31T16:18:37Z</time>
      </trkpt>
      <trkpt lat="46.22288" lon="-0.92237">
        <ele>14.5</ele>
        <time>2020-05-31T16:18:38Z</time>
      </trkpt>
      <trkpt lat="46.22288" lon="-0.92245">
        <ele>14.5</ele>
        <time>2020-05-31T16:18:39Z</time>
      </trkpt>
      <trkpt lat="46.22288" lon="-0.92254">
        <ele>14.4</ele>
        <time>2020-05-31T16:18:40Z</time>
      </trkpt>
      <trkpt lat="46.22288" lon="-0.92263">
        <ele>14.4</ele>
        <time>2020-05-31T16:18:41Z</time>
      </trkpt>
      <trkpt lat="46.22289" lon="-0.92272">
        <ele>14.3</ele>
        <time>2020-05-31T16:18:42Z</time>
      </trkpt>
      <trkpt lat="46.22289" lon="-0.92281">
        <ele>14.3</ele>
        <time>2020-05-31T16:18:43Z</time>
      </trkpt>
      <trkpt lat="46.22289" lon="-0.9229">
        <ele>14.2</ele>
        <time>2020-05-31T16:18:44Z</time>
      </trkpt>
      <trkpt lat="46.2229" lon="-0.92299">
        <ele>14.1</ele>
        <time>2020-05-31T16:18:45Z</time>
      </trkpt>
      <trkpt lat="46.2229" lon="-0.92308">
        <ele>14</ele>
        <time>2020-05-31T16:18:46Z</time>
      </trkpt>
      <trkpt lat="46.22291" lon="-0.92317">
        <ele>13.9</ele>
        <time>2020-05-31T16:18:47Z</time>
      </trkpt>
      <trkpt lat="46.22291" lon="-0.92326">
        <ele>13.8</ele>
        <time>2020-05-31T16:18:48Z</time>
      </trkpt>
      <trkpt lat="46.22292" lon="-0.92336">
        <ele>13.7</ele>
        <time>2020-05-31T16:18:49Z</time>
      </trkpt>
      <trkpt lat="46.22293" lon="-0.92345">
        <ele>13.6</ele>
        <time>2020-05-31T16:18:50Z</time>
      </trkpt>
      <trkpt lat="46.22294" lon="-0.92355">
        <ele>13.5</ele>
        <time>2020-05-31T16:18:51Z</time>
      </trkpt>
      <trkpt lat="46.22295" lon="-0.92364">
        <ele>13.4</ele>
        <time>2020-05-31T16:18:52Z</time>
      </trkpt>
      <trkpt lat="46.22296" lon="-0.92374">
        <ele>13.3</ele>
        <time>2020-05-31T16:18:53Z</time>
      </trkpt>
      <trkpt lat="46.22297" lon="-0.92383">
        <ele>13.1</ele>
        <time>2020-05-31T16:18:54Z</time>
      </trkpt>
      <trkpt lat="46.22298" lon="-0.92392">
        <ele>13</ele>
        <time>2020-05-31T16:18:55Z</time>
      </trkpt>
      <trkpt lat="46.22299" lon="-0.92402">
        <ele>12.8</ele>
        <time>2020-05-31T16:18:56Z</time>
      </trkpt>
      <trkpt lat="46.223" lon="-0.92411">
        <ele>12.8</ele>
        <time>2020-05-31T16:18:57Z</time>
      </trkpt>
      <trkpt lat="46.22301" lon="-0.9242">
        <ele>12.7</ele>
        <time>2020-05-31T16:18:58Z</time>
      </trkpt>
      <trkpt lat="46.22302" lon="-0.9243">
        <ele>12.7</ele>
        <time>2020-05-31T16:18:59Z</time>
      </trkpt>
      <trkpt lat="46.22303" lon="-0.9244">
        <ele>12.7</ele>
        <time>2020-05-31T16:19:00Z</time>
      </trkpt>
      <trkpt lat="46.22304" lon="-0.92449">
        <ele>12.7</ele>
        <time>2020-05-31T16:19:01Z</time>
      </trkpt>
      <trkpt lat="46.22306" lon="-0.92459">
        <ele>12.6</ele>
        <time>2020-05-31T16:19:02Z</time>
      </trkpt>
      <trkpt lat="46.22307" lon="-0.92468">
        <ele>12.6</ele>
        <time>2020-05-31T16:19:03Z</time>
      </trkpt>
      <trkpt lat="46.22308" lon="-0.92477">
        <ele>12.6</ele>
        <time>2020-05-31T16:19:04Z</time>
      </trkpt>
      <trkpt lat="46.2231" lon="-0.92487">
        <ele>12.5</ele>
        <time>2020-05-31T16:19:05Z</time>
      </trkpt>
      <trkpt lat="46.22311" lon="-0.92497">
        <ele>12.4</ele>
        <time>2020-05-31T16:19:06Z</time>
      </trkpt>
      <trkpt lat="46.22312" lon="-0.92506">
        <ele>12.4</ele>
        <time>2020-05-31T16:19:07Z</time>
      </trkpt>
      <trkpt lat="46.22313" lon="-0.92516">
        <ele>12.3</ele>
        <time>2020-05-31T16:19:08Z</time>
      </trkpt>
      <trkpt lat="46.22314" lon="-0.92526">
        <ele>12.2</ele>
        <time>2020-05-31T16:19:09Z</time>
      </trkpt>
      <trkpt lat="46.22316" lon="-0.92535">
        <ele>12.2</ele>
        <time>2020-05-31T16:19:10Z</time>
      </trkpt>
      <trkpt lat="46.22317" lon="-0.92545">
        <ele>12.1</ele>
        <time>2020-05-31T16:19:11Z</time>
      </trkpt>
      <trkpt lat="46.22319" lon="-0.92554">
        <ele>12</ele>
        <time>2020-05-31T16:19:12Z</time>
      </trkpt>
      <trkpt lat="46.2232" lon="-0.92563">
        <ele>11.9</ele>
        <time>2020-05-31T16:19:13Z</time>
      </trkpt>
      <trkpt lat="46.22321" lon="-0.92573">
        <ele>11.8</ele>
        <time>2020-05-31T16:19:14Z</time>
      </trkpt>
      <trkpt lat="46.22323" lon="-0.92582">
        <ele>11.7</ele>
        <time>2020-05-31T16:19:15Z</time>
      </trkpt>
      <trkpt lat="46.22324" lon="-0.92591">
        <ele>11.6</ele>
        <time>2020-05-31T16:19:16Z</time>
      </trkpt>
      <trkpt lat="46.22325" lon="-0.92599">
        <ele>11.5</ele>
        <time>2020-05-31T16:19:17Z</time>
      </trkpt>
      <trkpt lat="46.22326" lon="-0.92608">
        <ele>11.5</ele>
        <time>2020-05-31T16:19:18Z</time>
      </trkpt>
      <trkpt lat="46.22328" lon="-0.92618">
        <ele>11.5</ele>
        <time>2020-05-31T16:19:19Z</time>
      </trkpt>
      <trkpt lat="46.22329" lon="-0.92627">
        <ele>11.4</ele>
        <time>2020-05-31T16:19:20Z</time>
      </trkpt>
      <trkpt lat="46.22331" lon="-0.92636">
        <ele>11.3</ele>
        <time>2020-05-31T16:19:21Z</time>
      </trkpt>
      <trkpt lat="46.22332" lon="-0.92645">
        <ele>11.2</ele>
        <time>2020-05-31T16:19:22Z</time>
      </trkpt>
      <trkpt lat="46.22333" lon="-0.92655">
        <ele>11.1</ele>
        <time>2020-05-31T16:19:23Z</time>
      </trkpt>
      <trkpt lat="46.22334" lon="-0.92664">
        <ele>11</ele>
        <time>2020-05-31T16:19:24Z</time>
      </trkpt>
      <trkpt lat="46.22336" lon="-0.92674">
        <ele>10.8</ele>
        <time>2020-05-31T16:19:25Z</time>
      </trkpt>
      <trkpt lat="46.22337" lon="-0.92683">
        <ele>10.7</ele>
        <time>2020-05-31T16:19:26Z</time>
      </trkpt>
      <trkpt lat="46.22339" lon="-0.92692">
        <ele>10.5</ele>
        <time>2020-05-31T16:19:27Z</time>
      </trkpt>
      <trkpt lat="46.2234" lon="-0.92701">
        <ele>10.3</ele>
        <time>2020-05-31T16:19:28Z</time>
      </trkpt>
      <trkpt lat="46.22341" lon="-0.92711">
        <ele>10.2</ele>
        <time>2020-05-31T16:19:29Z</time>
      </trkpt>
      <trkpt lat="46.22342" lon="-0.9272">
        <ele>10.1</ele>
        <time>2020-05-31T16:19:30Z</time>
      </trkpt>
      <trkpt lat="46.22343" lon="-0.92729">
        <ele>10</ele>
        <time>2020-05-31T16:19:31Z</time>
      </trkpt>
      <trkpt lat="46.22345" lon="-0.92739">
        <ele>9.8</ele>
        <time>2020-05-31T16:19:32Z</time>
      </trkpt>
      <trkpt lat="46.22347" lon="-0.92748">
        <ele>9.8</ele>
        <time>2020-05-31T16:19:33Z</time>
      </trkpt>
      <trkpt lat="46.22348" lon="-0.92757">
        <ele>9.7</ele>
        <time>2020-05-31T16:19:34Z</time>
      </trkpt>
      <trkpt lat="46.2235" lon="-0.92766">
        <ele>9.6</ele>
        <time>2020-05-31T16:19:35Z</time>
      </trkpt>
      <trkpt lat="46.22351" lon="-0.92776">
        <ele>9.5</ele>
        <time>2020-05-31T16:19:36Z</time>
      </trkpt>
      <trkpt lat="46.22353" lon="-0.92785">
        <ele>9.4</ele>
        <time>2020-05-31T16:19:37Z</time>
      </trkpt>
      <trkpt lat="46.22354" lon="-0.92794">
        <ele>9.3</ele>
        <time>2020-05-31T16:19:38Z</time>
      </trkpt>
      <trkpt lat="46.22356" lon="-0.92803">
        <ele>9.3</ele>
        <time>2020-05-31T16:19:39Z</time>
      </trkpt>
      <trkpt lat="46.22359" lon="-0.92812">
        <ele>9.2</ele>
        <time>2020-05-31T16:19:40Z</time>
      </trkpt>
      <trkpt lat="46.22361" lon="-0.92821">
        <ele>9.2</ele>
        <time>2020-05-31T16:19:41Z</time>
      </trkpt>
      <trkpt lat="46.22363" lon="-0.92829">
        <ele>9.1</ele>
        <time>2020-05-31T16:19:42Z</time>
      </trkpt>
      <trkpt lat="46.22365" lon="-0.92838">
        <ele>9.1</ele>
        <time>2020-05-31T16:19:43Z</time>
      </trkpt>
      <trkpt lat="46.22367" lon="-0.92847">
        <ele>9.1</ele>
        <time>2020-05-31T16:19:44Z</time>
      </trkpt>
      <trkpt lat="46.22369" lon="-0.92856">
        <ele>9.1</ele>
        <time>2020-05-31T16:19:45Z</time>
      </trkpt>
      <trkpt lat="46.22371" lon="-0.92865">
        <ele>9.1</ele>
        <time>2020-05-31T16:19:46Z</time>
      </trkpt>
      <trkpt lat="46.22373" lon="-0.92874">
        <ele>9</ele>
        <time>2020-05-31T16:19:47Z</time>
      </trkpt>
      <trkpt lat="46.22375" lon="-0.92883">
        <ele>9</ele>
        <time>2020-05-31T16:19:48Z</time>
      </trkpt>
      <trkpt lat="46.22377" lon="-0.92891">
        <ele>8.9</ele>
        <time>2020-05-31T16:19:49Z</time>
      </trkpt>
      <trkpt lat="46.2238" lon="-0.929">
        <ele>8.8</ele>
        <time>2020-05-31T16:19:50Z</time>
      </trkpt>
      <trkpt lat="46.22382" lon="-0.92907">
        <ele>8.7</ele>
        <time>2020-05-31T16:19:51Z</time>
      </trkpt>
      <trkpt lat="46.22385" lon="-0.92915">
        <ele>8.6</ele>
        <time>2020-05-31T16:19:52Z</time>
      </trkpt>
      <trkpt lat="46.22387" lon="-0.92923">
        <ele>8.6</ele>
        <time>2020-05-31T16:19:53Z</time>
      </trkpt>
      <trkpt lat="46.2239" lon="-0.92931">
        <ele>8.6</ele>
        <time>2020-05-31T16:19:54Z</time>
      </trkpt>
      <trkpt lat="46.22393" lon="-0.92938">
        <ele>8.6</ele>
        <time>2020-05-31T16:19:55Z</time>
      </trkpt>
      <trkpt lat="46.22396" lon="-0.92945">
        <ele>8.5</ele>
        <time>2020-05-31T16:19:56Z</time>
      </trkpt>
      <trkpt lat="46.22398" lon="-0.92953">
        <ele>8.5</ele>
        <time>2020-05-31T16:19:57Z</time>
      </trkpt>
      <trkpt lat="46.22401" lon="-0.9296">
        <ele>8.5</ele>
        <time>2020-05-31T16:19:58Z</time>
      </trkpt>
      <trkpt lat="46.22405" lon="-0.92968">
        <ele>8.6</ele>
        <time>2020-05-31T16:19:59Z</time>
      </trkpt>
      <trkpt lat="46.22407" lon="-0.92975">
        <ele>8.6</ele>
        <time>2020-05-31T16:20:00Z</time>
      </trkpt>
      <trkpt lat="46.2241" lon="-0.92983">
        <ele>8.6</ele>
        <time>2020-05-31T16:20:01Z</time>
      </trkpt>
      <trkpt lat="46.22413" lon="-0.92991">
        <ele>8.6</ele>
        <time>2020-05-31T16:20:02Z</time>
      </trkpt>
      <trkpt lat="46.22416" lon="-0.92998">
        <ele>8.6</ele>
        <time>2020-05-31T16:20:03Z</time>
      </trkpt>
      <trkpt lat="46.22418" lon="-0.93006">
        <ele>8.6</ele>
        <time>2020-05-31T16:20:04Z</time>
      </trkpt>
      <trkpt lat="46.2242" lon="-0.93013">
        <ele>8.6</ele>
        <time>2020-05-31T16:20:05Z</time>
      </trkpt>
      <trkpt lat="46.22422" lon="-0.9302">
        <ele>8.7</ele>
        <time>2020-05-31T16:20:06Z</time>
      </trkpt>
      <trkpt lat="46.22423" lon="-0.93027">
        <ele>8.7</ele>
        <time>2020-05-31T16:20:07Z</time>
      </trkpt>
      <trkpt lat="46.22424" lon="-0.93032">
        <ele>8.7</ele>
        <time>2020-05-31T16:20:08Z</time>
      </trkpt>
      <trkpt lat="46.22427" lon="-0.93036">
        <ele>8.7</ele>
        <time>2020-05-31T16:20:09Z</time>
      </trkpt>
      <trkpt lat="46.2243" lon="-0.93041">
        <ele>8.7</ele>
        <time>2020-05-31T16:20:10Z</time>
      </trkpt>
      <trkpt lat="46.22432" lon="-0.93046">
        <ele>8.7</ele>
        <time>2020-05-31T16:20:11Z</time>
      </trkpt>
      <trkpt lat="46.22435" lon="-0.93052">
        <ele>8.7</ele>
        <time>2020-05-31T16:20:12Z</time>
      </trkpt>
      <trkpt lat="46.22438" lon="-0.93058">
        <ele>8.7</ele>
        <time>2020-05-31T16:20:13Z</time>
      </trkpt>
      <trkpt lat="46.2244" lon="-0.93065">
        <ele>8.7</ele>
        <time>2020-05-31T16:20:14Z</time>
      </trkpt>
      <trkpt lat="46.22443" lon="-0.93071">
        <ele>8.7</ele>
        <time>2020-05-31T16:20:15Z</time>
      </trkpt>
      <trkpt lat="46.22446" lon="-0.93076">
        <ele>8.6</ele>
        <time>2020-05-31T16:20:16Z</time>
      </trkpt>
      <trkpt lat="46.22448" lon="-0.93082">
        <ele>8.6</ele>
        <time>2020-05-31T16:20:17Z</time>
      </trkpt>
      <trkpt lat="46.22451" lon="-0.93088">
        <ele>8.5</ele>
        <time>2020-05-31T16:20:18Z</time>
      </trkpt>
      <trkpt lat="46.22455" lon="-0.93093">
        <ele>8.4</ele>
        <time>2020-05-31T16:20:19Z</time>
      </trkpt>
      <trkpt lat="46.22458" lon="-0.93098">
        <ele>8.4</ele>
        <time>2020-05-31T16:20:20Z</time>
      </trkpt>
      <trkpt lat="46.22462" lon="-0.93101">
        <ele>8.3</ele>
        <time>2020-05-31T16:20:21Z</time>
      </trkpt>
      <trkpt lat="46.22465" lon="-0.93105">
        <ele>8.2</ele>
        <time>2020-05-31T16:20:22Z</time>
      </trkpt>
      <trkpt lat="46.22469" lon="-0.93107">
        <ele>8.2</ele>
        <time>2020-05-31T16:20:23Z</time>
      </trkpt>
      <trkpt lat="46.22472" lon="-0.93109">
        <ele>8.1</ele>
        <time>2020-05-31T16:20:24Z</time>
      </trkpt>
      <trkpt lat="46.22476" lon="-0.93109">
        <ele>8.1</ele>
        <time>2020-05-31T16:20:25Z</time>
      </trkpt>
      <trkpt lat="46.22481" lon="-0.93109">
        <ele>8</ele>
        <time>2020-05-31T16:20:26Z</time>
      </trkpt>
      <trkpt lat="46.22486" lon="-0.93108">
        <ele>8</ele>
        <time>2020-05-31T16:20:27Z</time>
      </trkpt>
      <trkpt lat="46.2249" lon="-0.93109">
        <ele>7.9</ele>
        <time>2020-05-31T16:20:28Z</time>
      </trkpt>
      <trkpt lat="46.22495" lon="-0.9311">
        <ele>7.9</ele>
        <time>2020-05-31T16:20:29Z</time>
      </trkpt>
      <trkpt lat="46.225" lon="-0.93112">
        <ele>7.9</ele>
        <time>2020-05-31T16:20:30Z</time>
      </trkpt>
      <trkpt lat="46.22503" lon="-0.93113">
        <ele>7.8</ele>
        <time>2020-05-31T16:20:31Z</time>
      </trkpt>
      <trkpt lat="46.22507" lon="-0.93114">
        <ele>7.8</ele>
        <time>2020-05-31T16:20:32Z</time>
      </trkpt>
      <trkpt lat="46.2251" lon="-0.93114">
        <ele>7.8</ele>
        <time>2020-05-31T16:20:33Z</time>
      </trkpt>
      <trkpt lat="46.22513" lon="-0.93116">
        <ele>7.8</ele>
        <time>2020-05-31T16:20:34Z</time>
      </trkpt>
      <trkpt lat="46.22515" lon="-0.9312">
        <ele>7.7</ele>
        <time>2020-05-31T16:20:35Z</time>
      </trkpt>
      <trkpt lat="46.22517" lon="-0.93126">
        <ele>7.7</ele>
        <time>2020-05-31T16:20:36Z</time>
      </trkpt>
      <trkpt lat="46.2252" lon="-0.93133">
        <ele>7.8</ele>
        <time>2020-05-31T16:20:37Z</time>
      </trkpt>
      <trkpt lat="46.22522" lon="-0.9314">
        <ele>7.8</ele>
        <time>2020-05-31T16:20:38Z</time>
      </trkpt>
      <trkpt lat="46.22526" lon="-0.93147">
        <ele>7.8</ele>
        <time>2020-05-31T16:20:39Z</time>
      </trkpt>
      <trkpt lat="46.22527" lon="-0.93153">
        <ele>7.8</ele>
        <time>2020-05-31T16:20:40Z</time>
      </trkpt>
      <trkpt lat="46.22529" lon="-0.93159">
        <ele>7.8</ele>
        <time>2020-05-31T16:20:41Z</time>
      </trkpt>
      <trkpt lat="46.2253" lon="-0.93165">
        <ele>7.9</ele>
        <time>2020-05-31T16:20:42Z</time>
      </trkpt>
      <trkpt lat="46.2253" lon="-0.93171">
        <ele>7.9</ele>
        <time>2020-05-31T16:20:43Z</time>
      </trkpt>
      <trkpt lat="46.22531" lon="-0.93178">
        <ele>8</ele>
        <time>2020-05-31T16:20:44Z</time>
      </trkpt>
      <trkpt lat="46.22534" lon="-0.93185">
        <ele>8</ele>
        <time>2020-05-31T16:20:45Z</time>
      </trkpt>
      <trkpt lat="46.22535" lon="-0.93193">
        <ele>8.1</ele>
        <time>2020-05-31T16:20:46Z</time>
      </trkpt>
      <trkpt lat="46.22537" lon="-0.93199">
        <ele>8.2</ele>
        <time>2020-05-31T16:20:47Z</time>
      </trkpt>
      <trkpt lat="46.22538" lon="-0.93206">
        <ele>8.2</ele>
        <time>2020-05-31T16:20:48Z</time>
      </trkpt>
      <trkpt lat="46.22541" lon="-0.93212">
        <ele>8.2</ele>
        <time>2020-05-31T16:20:49Z</time>
      </trkpt>
      <trkpt lat="46.22542" lon="-0.93219">
        <ele>8.2</ele>
        <time>2020-05-31T16:20:50Z</time>
      </trkpt>
      <trkpt lat="46.22543" lon="-0.93227">
        <ele>8.2</ele>
        <time>2020-05-31T16:20:51Z</time>
      </trkpt>
      <trkpt lat="46.22543" lon="-0.93235">
        <ele>8.2</ele>
        <time>2020-05-31T16:20:52Z</time>
      </trkpt>
      <trkpt lat="46.22545" lon="-0.93242">
        <ele>8.2</ele>
        <time>2020-05-31T16:20:53Z</time>
      </trkpt>
      <trkpt lat="46.22545" lon="-0.9325">
        <ele>8.2</ele>
        <time>2020-05-31T16:20:54Z</time>
      </trkpt>
      <trkpt lat="46.22547" lon="-0.93258">
        <ele>8.2</ele>
        <time>2020-05-31T16:20:55Z</time>
      </trkpt>
      <trkpt lat="46.22549" lon="-0.93267">
        <ele>8.2</ele>
        <time>2020-05-31T16:20:56Z</time>
      </trkpt>
      <trkpt lat="46.22551" lon="-0.93275">
        <ele>8.2</ele>
        <time>2020-05-31T16:20:57Z</time>
      </trkpt>
      <trkpt lat="46.22553" lon="-0.93283">
        <ele>8.2</ele>
        <time>2020-05-31T16:20:58Z</time>
      </trkpt>
      <trkpt lat="46.22554" lon="-0.93293">
        <ele>8.1</ele>
        <time>2020-05-31T16:20:59Z</time>
      </trkpt>
      <trkpt lat="46.22557" lon="-0.93302">
        <ele>8</ele>
        <time>2020-05-31T16:21:00Z</time>
      </trkpt>
      <trkpt lat="46.22559" lon="-0.9331">
        <ele>8</ele>
        <time>2020-05-31T16:21:01Z</time>
      </trkpt>
      <trkpt lat="46.22562" lon="-0.93318">
        <ele>7.9</ele>
        <time>2020-05-31T16:21:02Z</time>
      </trkpt>
      <trkpt lat="46.22564" lon="-0.93326">
        <ele>7.8</ele>
        <time>2020-05-31T16:21:03Z</time>
      </trkpt>
      <trkpt lat="46.22567" lon="-0.93334">
        <ele>7.8</ele>
        <time>2020-05-31T16:21:04Z</time>
      </trkpt>
      <trkpt lat="46.22569" lon="-0.93342">
        <ele>7.7</ele>
        <time>2020-05-31T16:21:05Z</time>
      </trkpt>
      <trkpt lat="46.22572" lon="-0.93351">
        <ele>7.6</ele>
        <time>2020-05-31T16:21:06Z</time>
      </trkpt>
      <trkpt lat="46.22575" lon="-0.93359">
        <ele>7.6</ele>
        <time>2020-05-31T16:21:07Z</time>
      </trkpt>
      <trkpt lat="46.22577" lon="-0.93367">
        <ele>7.6</ele>
        <time>2020-05-31T16:21:08Z</time>
      </trkpt>
      <trkpt lat="46.22579" lon="-0.93375">
        <ele>7.6</ele>
        <time>2020-05-31T16:21:09Z</time>
      </trkpt>
      <trkpt lat="46.22581" lon="-0.93381">
        <ele>7.5</ele>
        <time>2020-05-31T16:21:10Z</time>
      </trkpt>
      <trkpt lat="46.22583" lon="-0.93389">
        <ele>7.5</ele>
        <time>2020-05-31T16:21:11Z</time>
      </trkpt>
      <trkpt lat="46.22586" lon="-0.93395">
        <ele>7.5</ele>
        <time>2020-05-31T16:21:12Z</time>
      </trkpt>
      <trkpt lat="46.22588" lon="-0.93403">
        <ele>7.4</ele>
        <time>2020-05-31T16:21:13Z</time>
      </trkpt>
      <trkpt lat="46.22591" lon="-0.93411">
        <ele>7.3</ele>
        <time>2020-05-31T16:21:14Z</time>
      </trkpt>
      <trkpt lat="46.22593" lon="-0.93421">
        <ele>7.2</ele>
        <time>2020-05-31T16:21:15Z</time>
      </trkpt>
      <trkpt lat="46.22597" lon="-0.93429">
        <ele>7.1</ele>
        <time>2020-05-31T16:21:16Z</time>
      </trkpt>
      <trkpt lat="46.226" lon="-0.93436">
        <ele>7.1</ele>
        <time>2020-05-31T16:21:17Z</time>
      </trkpt>
      <trkpt lat="46.22603" lon="-0.93444">
        <ele>7</ele>
        <time>2020-05-31T16:21:18Z</time>
      </trkpt>
      <trkpt lat="46.22607" lon="-0.93451">
        <ele>7</ele>
        <time>2020-05-31T16:21:19Z</time>
      </trkpt>
      <trkpt lat="46.2261" lon="-0.9346">
        <ele>7</ele>
        <time>2020-05-31T16:21:20Z</time>
      </trkpt>
      <trkpt lat="46.22613" lon="-0.93468">
        <ele>7</ele>
        <time>2020-05-31T16:21:21Z</time>
      </trkpt>
      <trkpt lat="46.22616" lon="-0.93477">
        <ele>7</ele>
        <time>2020-05-31T16:21:22Z</time>
      </trkpt>
      <trkpt lat="46.2262" lon="-0.93485">
        <ele>7</ele>
        <time>2020-05-31T16:21:23Z</time>
      </trkpt>
      <trkpt lat="46.22623" lon="-0.93494">
        <ele>7</ele>
        <time>2020-05-31T16:21:24Z</time>
      </trkpt>
      <trkpt lat="46.22625" lon="-0.93502">
        <ele>7</ele>
        <time>2020-05-31T16:21:25Z</time>
      </trkpt>
      <trkpt lat="46.22628" lon="-0.9351">
        <ele>6.9</ele>
        <time>2020-05-31T16:21:26Z</time>
      </trkpt>
      <trkpt lat="46.22631" lon="-0.93518">
        <ele>6.9</ele>
        <time>2020-05-31T16:21:27Z</time>
      </trkpt>
      <trkpt lat="46.22634" lon="-0.93526">
        <ele>6.9</ele>
        <time>2020-05-31T16:21:28Z</time>
      </trkpt>
      <trkpt lat="46.22637" lon="-0.93534">
        <ele>6.9</ele>
        <time>2020-05-31T16:21:29Z</time>
      </trkpt>
      <trkpt lat="46.22639" lon="-0.93542">
        <ele>6.9</ele>
        <time>2020-05-31T16:21:30Z</time>
      </trkpt>
      <trkpt lat="46.22642" lon="-0.93549">
        <ele>6.9</ele>
        <time>2020-05-31T16:21:31Z</time>
      </trkpt>
      <trkpt lat="46.22644" lon="-0.93556">
        <ele>6.9</ele>
        <time>2020-05-31T16:21:32Z</time>
      </trkpt>
      <trkpt lat="46.22647" lon="-0.93563">
        <ele>6.9</ele>
        <time>2020-05-31T16:21:33Z</time>
      </trkpt>
      <trkpt lat="46.22649" lon="-0.93569">
        <ele>6.9</ele>
        <time>2020-05-31T16:21:34Z</time>
      </trkpt>
      <trkpt lat="46.22652" lon="-0.93575">
        <ele>6.9</ele>
        <time>2020-05-31T16:21:35Z</time>
      </trkpt>
      <trkpt lat="46.22654" lon="-0.93582">
        <ele>6.9</ele>
        <time>2020-05-31T16:21:36Z</time>
      </trkpt>
      <trkpt lat="46.22656" lon="-0.93589">
        <ele>6.9</ele>
        <time>2020-05-31T16:21:37Z</time>
      </trkpt>
      <trkpt lat="46.22659" lon="-0.93596">
        <ele>6.9</ele>
        <time>2020-05-31T16:21:38Z</time>
      </trkpt>
      <trkpt lat="46.22661" lon="-0.93604">
        <ele>6.9</ele>
        <time>2020-05-31T16:21:39Z</time>
      </trkpt>
      <trkpt lat="46.22665" lon="-0.9361">
        <ele>6.9</ele>
        <time>2020-05-31T16:21:40Z</time>
      </trkpt>
      <trkpt lat="46.22667" lon="-0.93618">
        <ele>6.9</ele>
        <time>2020-05-31T16:21:41Z</time>
      </trkpt>
      <trkpt lat="46.2267" lon="-0.93625">
        <ele>6.9</ele>
        <time>2020-05-31T16:21:42Z</time>
      </trkpt>
      <trkpt lat="46.22671" lon="-0.93632">
        <ele>6.9</ele>
        <time>2020-05-31T16:21:43Z</time>
      </trkpt>
      <trkpt lat="46.22673" lon="-0.93639">
        <ele>6.9</ele>
        <time>2020-05-31T16:21:44Z</time>
      </trkpt>
      <trkpt lat="46.22675" lon="-0.93647">
        <ele>6.9</ele>
        <time>2020-05-31T16:21:45Z</time>
      </trkpt>
      <trkpt lat="46.22676" lon="-0.93655">
        <ele>6.9</ele>
        <time>2020-05-31T16:21:46Z</time>
      </trkpt>
      <trkpt lat="46.22678" lon="-0.93663">
        <ele>6.9</ele>
        <time>2020-05-31T16:21:47Z</time>
      </trkpt>
      <trkpt lat="46.2268" lon="-0.93671">
        <ele>6.9</ele>
        <time>2020-05-31T16:21:48Z</time>
      </trkpt>
      <trkpt lat="46.22682" lon="-0.9368">
        <ele>6.9</ele>
        <time>2020-05-31T16:21:49Z</time>
      </trkpt>
      <trkpt lat="46.22683" lon="-0.93688">
        <ele>6.9</ele>
        <time>2020-05-31T16:21:50Z</time>
      </trkpt>
      <trkpt lat="46.22684" lon="-0.93696">
        <ele>6.9</ele>
        <time>2020-05-31T16:21:51Z</time>
      </trkpt>
      <trkpt lat="46.22687" lon="-0.93703">
        <ele>6.9</ele>
        <time>2020-05-31T16:21:52Z</time>
      </trkpt>
      <trkpt lat="46.22688" lon="-0.9371">
        <ele>6.9</ele>
        <time>2020-05-31T16:21:53Z</time>
      </trkpt>
      <trkpt lat="46.2269" lon="-0.93718">
        <ele>6.9</ele>
        <time>2020-05-31T16:21:54Z</time>
      </trkpt>
      <trkpt lat="46.22691" lon="-0.93726">
        <ele>6.9</ele>
        <time>2020-05-31T16:21:55Z</time>
      </trkpt>
      <trkpt lat="46.22692" lon="-0.93734">
        <ele>6.9</ele>
        <time>2020-05-31T16:21:56Z</time>
      </trkpt>
      <trkpt lat="46.22693" lon="-0.93741">
        <ele>6.9</ele>
        <time>2020-05-31T16:21:57Z</time>
      </trkpt>
      <trkpt lat="46.22694" lon="-0.93748">
        <ele>6.9</ele>
        <time>2020-05-31T16:21:58Z</time>
      </trkpt>
      <trkpt lat="46.22696" lon="-0.93756">
        <ele>6.9</ele>
        <time>2020-05-31T16:21:59Z</time>
      </trkpt>
      <trkpt lat="46.22697" lon="-0.93763">
        <ele>6.9</ele>
        <time>2020-05-31T16:22:00Z</time>
      </trkpt>
      <trkpt lat="46.22697" lon="-0.93769">
        <ele>6.9</ele>
        <time>2020-05-31T16:22:01Z</time>
      </trkpt>
      <trkpt lat="46.22699" lon="-0.93775">
        <ele>6.9</ele>
        <time>2020-05-31T16:22:02Z</time>
      </trkpt>
      <trkpt lat="46.227" lon="-0.93781">
        <ele>6.9</ele>
        <time>2020-05-31T16:22:03Z</time>
      </trkpt>
      <trkpt lat="46.22702" lon="-0.93788">
        <ele>6.9</ele>
        <time>2020-05-31T16:22:04Z</time>
      </trkpt>
      <trkpt lat="46.22704" lon="-0.93795">
        <ele>6.9</ele>
        <time>2020-05-31T16:22:05Z</time>
      </trkpt>
      <trkpt lat="46.22706" lon="-0.93801">
        <ele>6.9</ele>
        <time>2020-05-31T16:22:06Z</time>
      </trkpt>
      <trkpt lat="46.22708" lon="-0.93808">
        <ele>6.9</ele>
        <time>2020-05-31T16:22:07Z</time>
      </trkpt>
      <trkpt lat="46.22709" lon="-0.93815">
        <ele>6.9</ele>
        <time>2020-05-31T16:22:08Z</time>
      </trkpt>
      <trkpt lat="46.2271" lon="-0.93823">
        <ele>6.9</ele>
        <time>2020-05-31T16:22:09Z</time>
      </trkpt>
      <trkpt lat="46.22711" lon="-0.93831">
        <ele>6.9</ele>
        <time>2020-05-31T16:22:10Z</time>
      </trkpt>
      <trkpt lat="46.22712" lon="-0.93838">
        <ele>6.9</ele>
        <time>2020-05-31T16:22:11Z</time>
      </trkpt>
      <trkpt lat="46.22713" lon="-0.93844">
        <ele>6.9</ele>
        <time>2020-05-31T16:22:12Z</time>
      </trkpt>
      <trkpt lat="46.22714" lon="-0.93851">
        <ele>6.9</ele>
        <time>2020-05-31T16:22:13Z</time>
      </trkpt>
      <trkpt lat="46.22716" lon="-0.93859">
        <ele>6.9</ele>
        <time>2020-05-31T16:22:14Z</time>
      </trkpt>
      <trkpt lat="46.22717" lon="-0.93867">
        <ele>6.9</ele>
        <time>2020-05-31T16:22:15Z</time>
      </trkpt>
      <trkpt lat="46.22719" lon="-0.93874">
        <ele>6.9</ele>
        <time>2020-05-31T16:22:16Z</time>
      </trkpt>
      <trkpt lat="46.2272" lon="-0.93881">
        <ele>6.8</ele>
        <time>2020-05-31T16:22:17Z</time>
      </trkpt>
      <trkpt lat="46.22721" lon="-0.93888">
        <ele>6.8</ele>
        <time>2020-05-31T16:22:18Z</time>
      </trkpt>
      <trkpt lat="46.22722" lon="-0.93895">
        <ele>6.8</ele>
        <time>2020-05-31T16:22:19Z</time>
      </trkpt>
      <trkpt lat="46.22723" lon="-0.93902">
        <ele>6.8</ele>
        <time>2020-05-31T16:22:20Z</time>
      </trkpt>
      <trkpt lat="46.22725" lon="-0.9391">
        <ele>6.8</ele>
        <time>2020-05-31T16:22:21Z</time>
      </trkpt>
      <trkpt lat="46.22727" lon="-0.93918">
        <ele>6.8</ele>
        <time>2020-05-31T16:22:22Z</time>
      </trkpt>
      <trkpt lat="46.22729" lon="-0.93926">
        <ele>6.8</ele>
        <time>2020-05-31T16:22:23Z</time>
      </trkpt>
      <trkpt lat="46.2273" lon="-0.93934">
        <ele>6.8</ele>
        <time>2020-05-31T16:22:24Z</time>
      </trkpt>
      <trkpt lat="46.22732" lon="-0.93941">
        <ele>6.8</ele>
        <time>2020-05-31T16:22:25Z</time>
      </trkpt>
      <trkpt lat="46.22734" lon="-0.93948">
        <ele>6.8</ele>
        <time>2020-05-31T16:22:26Z</time>
      </trkpt>
      <trkpt lat="46.22736" lon="-0.93956">
        <ele>6.8</ele>
        <time>2020-05-31T16:22:27Z</time>
      </trkpt>
      <trkpt lat="46.22737" lon="-0.93965">
        <ele>6.8</ele>
        <time>2020-05-31T16:22:28Z</time>
      </trkpt>
      <trkpt lat="46.22738" lon="-0.93973">
        <ele>6.8</ele>
        <time>2020-05-31T16:22:29Z</time>
      </trkpt>
      <trkpt lat="46.22739" lon="-0.93981">
        <ele>6.8</ele>
        <time>2020-05-31T16:22:30Z</time>
      </trkpt>
      <trkpt lat="46.22741" lon="-0.93989">
        <ele>6.7</ele>
        <time>2020-05-31T16:22:31Z</time>
      </trkpt>
      <trkpt lat="46.22743" lon="-0.93996">
        <ele>6.7</ele>
        <time>2020-05-31T16:22:32Z</time>
      </trkpt>
      <trkpt lat="46.22744" lon="-0.94003">
        <ele>6.6</ele>
        <time>2020-05-31T16:22:33Z</time>
      </trkpt>
      <trkpt lat="46.22746" lon="-0.94011">
        <ele>6.6</ele>
        <time>2020-05-31T16:22:34Z</time>
      </trkpt>
      <trkpt lat="46.22747" lon="-0.9402">
        <ele>6.5</ele>
        <time>2020-05-31T16:22:35Z</time>
      </trkpt>
      <trkpt lat="46.22749" lon="-0.94028">
        <ele>6.4</ele>
        <time>2020-05-31T16:22:36Z</time>
      </trkpt>
      <trkpt lat="46.22749" lon="-0.94036">
        <ele>6.4</ele>
        <time>2020-05-31T16:22:37Z</time>
      </trkpt>
      <trkpt lat="46.2275" lon="-0.94044">
        <ele>6.3</ele>
        <time>2020-05-31T16:22:38Z</time>
      </trkpt>
      <trkpt lat="46.22751" lon="-0.94052">
        <ele>6.2</ele>
        <time>2020-05-31T16:22:39Z</time>
      </trkpt>
      <trkpt lat="46.22753" lon="-0.94061">
        <ele>6.2</ele>
        <time>2020-05-31T16:22:40Z</time>
      </trkpt>
      <trkpt lat="46.22754" lon="-0.94069">
        <ele>6.1</ele>
        <time>2020-05-31T16:22:41Z</time>
      </trkpt>
      <trkpt lat="46.22755" lon="-0.94077">
        <ele>6.1</ele>
        <time>2020-05-31T16:22:42Z</time>
      </trkpt>
      <trkpt lat="46.22756" lon="-0.94085">
        <ele>6</ele>
        <time>2020-05-31T16:22:43Z</time>
      </trkpt>
      <trkpt lat="46.22758" lon="-0.94092">
        <ele>6</ele>
        <time>2020-05-31T16:22:44Z</time>
      </trkpt>
      <trkpt lat="46.2276" lon="-0.941">
        <ele>6</ele>
        <time>2020-05-31T16:22:45Z</time>
      </trkpt>
      <trkpt lat="46.22763" lon="-0.94108">
        <ele>5.9</ele>
        <time>2020-05-31T16:22:46Z</time>
      </trkpt>
      <trkpt lat="46.22764" lon="-0.94117">
        <ele>5.8</ele>
        <time>2020-05-31T16:22:47Z</time>
      </trkpt>
      <trkpt lat="46.22767" lon="-0.94126">
        <ele>5.7</ele>
        <time>2020-05-31T16:22:48Z</time>
      </trkpt>
      <trkpt lat="46.22769" lon="-0.94135">
        <ele>5.7</ele>
        <time>2020-05-31T16:22:49Z</time>
      </trkpt>
      <trkpt lat="46.22771" lon="-0.94145">
        <ele>5.6</ele>
        <time>2020-05-31T16:22:50Z</time>
      </trkpt>
      <trkpt lat="46.22772" lon="-0.94154">
        <ele>5.5</ele>
        <time>2020-05-31T16:22:51Z</time>
      </trkpt>
      <trkpt lat="46.22775" lon="-0.94165">
        <ele>5.4</ele>
        <time>2020-05-31T16:22:52Z</time>
      </trkpt>
      <trkpt lat="46.22776" lon="-0.94176">
        <ele>5.4</ele>
        <time>2020-05-31T16:22:53Z</time>
      </trkpt>
      <trkpt lat="46.22778" lon="-0.94187">
        <ele>5.3</ele>
        <time>2020-05-31T16:22:54Z</time>
      </trkpt>
      <trkpt lat="46.22779" lon="-0.94198">
        <ele>5.3</ele>
        <time>2020-05-31T16:22:55Z</time>
      </trkpt>
      <trkpt lat="46.22781" lon="-0.94209">
        <ele>5.3</ele>
        <time>2020-05-31T16:22:56Z</time>
      </trkpt>
      <trkpt lat="46.2278" lon="-0.94221">
        <ele>5.3</ele>
        <time>2020-05-31T16:22:57Z</time>
      </trkpt>
      <trkpt lat="46.22782" lon="-0.94235">
        <ele>5.3</ele>
        <time>2020-05-31T16:22:58Z</time>
      </trkpt>
      <trkpt lat="46.22782" lon="-0.94248">
        <ele>5.3</ele>
        <time>2020-05-31T16:22:59Z</time>
      </trkpt>
      <trkpt lat="46.22783" lon="-0.94261">
        <ele>5.3</ele>
        <time>2020-05-31T16:23:00Z</time>
      </trkpt>
      <trkpt lat="46.22783" lon="-0.94275">
        <ele>5.3</ele>
        <time>2020-05-31T16:23:01Z</time>
      </trkpt>
      <trkpt lat="46.22784" lon="-0.94289">
        <ele>5.3</ele>
        <time>2020-05-31T16:23:02Z</time>
      </trkpt>
      <trkpt lat="46.22784" lon="-0.94301">
        <ele>5.3</ele>
        <time>2020-05-31T16:23:03Z</time>
      </trkpt>
      <trkpt lat="46.22784" lon="-0.94313">
        <ele>5.3</ele>
        <time>2020-05-31T16:23:04Z</time>
      </trkpt>
      <trkpt lat="46.22782" lon="-0.94327">
        <ele>5.3</ele>
        <time>2020-05-31T16:23:05Z</time>
      </trkpt>
      <trkpt lat="46.2278" lon="-0.94341">
        <ele>5.3</ele>
        <time>2020-05-31T16:23:06Z</time>
      </trkpt>
      <trkpt lat="46.22779" lon="-0.94353">
        <ele>5.3</ele>
        <time>2020-05-31T16:23:07Z</time>
      </trkpt>
      <trkpt lat="46.22776" lon="-0.94366">
        <ele>5.3</ele>
        <time>2020-05-31T16:23:08Z</time>
      </trkpt>
      <trkpt lat="46.22773" lon="-0.94377">
        <ele>5.2</ele>
        <time>2020-05-31T16:23:09Z</time>
      </trkpt>
      <trkpt lat="46.22771" lon="-0.94388">
        <ele>5.3</ele>
        <time>2020-05-31T16:23:10Z</time>
      </trkpt>
      <trkpt lat="46.22768" lon="-0.94398">
        <ele>5.3</ele>
        <time>2020-05-31T16:23:11Z</time>
      </trkpt>
      <trkpt lat="46.22765" lon="-0.9441">
        <ele>5.4</ele>
        <time>2020-05-31T16:23:12Z</time>
      </trkpt>
      <trkpt lat="46.22761" lon="-0.94421">
        <ele>5.4</ele>
        <time>2020-05-31T16:23:13Z</time>
      </trkpt>
      <trkpt lat="46.22758" lon="-0.9443">
        <ele>5.5</ele>
        <time>2020-05-31T16:23:14Z</time>
      </trkpt>
      <trkpt lat="46.22754" lon="-0.9444">
        <ele>5.5</ele>
        <time>2020-05-31T16:23:15Z</time>
      </trkpt>
      <trkpt lat="46.2275" lon="-0.94448">
        <ele>5.5</ele>
        <time>2020-05-31T16:23:16Z</time>
      </trkpt>
      <trkpt lat="46.22746" lon="-0.94456">
        <ele>5.6</ele>
        <time>2020-05-31T16:23:17Z</time>
      </trkpt>
      <trkpt lat="46.22741" lon="-0.94463">
        <ele>5.6</ele>
        <time>2020-05-31T16:23:18Z</time>
      </trkpt>
      <trkpt lat="46.22735" lon="-0.94471">
        <ele>5.7</ele>
        <time>2020-05-31T16:23:19Z</time>
      </trkpt>
      <trkpt lat="46.22729" lon="-0.94478">
        <ele>5.7</ele>
        <time>2020-05-31T16:23:20Z</time>
      </trkpt>
      <trkpt lat="46.22722" lon="-0.94486">
        <ele>5.8</ele>
        <time>2020-05-31T16:23:21Z</time>
      </trkpt>
      <trkpt lat="46.22716" lon="-0.94492">
        <ele>5.8</ele>
        <time>2020-05-31T16:23:22Z</time>
      </trkpt>
      <trkpt lat="46.22709" lon="-0.94498">
        <ele>5.8</ele>
        <time>2020-05-31T16:23:23Z</time>
      </trkpt>
      <trkpt lat="46.22703" lon="-0.94503">
        <ele>5.8</ele>
        <time>2020-05-31T16:23:24Z</time>
      </trkpt>
      <trkpt lat="46.22697" lon="-0.94507">
        <ele>5.9</ele>
        <time>2020-05-31T16:23:25Z</time>
      </trkpt>
      <trkpt lat="46.2269" lon="-0.9451">
        <ele>5.9</ele>
        <time>2020-05-31T16:23:26Z</time>
      </trkpt>
      <trkpt lat="46.22684" lon="-0.94514">
        <ele>6</ele>
        <time>2020-05-31T16:23:27Z</time>
      </trkpt>
      <trkpt lat="46.22678" lon="-0.94516">
        <ele>6</ele>
        <time>2020-05-31T16:23:28Z</time>
      </trkpt>
      <trkpt lat="46.22672" lon="-0.94519">
        <ele>6.1</ele>
        <time>2020-05-31T16:23:29Z</time>
      </trkpt>
      <trkpt lat="46.22665" lon="-0.94522">
        <ele>6.1</ele>
        <time>2020-05-31T16:23:30Z</time>
      </trkpt>
      <trkpt lat="46.22659" lon="-0.94524">
        <ele>6.2</ele>
        <time>2020-05-31T16:23:31Z</time>
      </trkpt>
      <trkpt lat="46.22652" lon="-0.94526">
        <ele>6.2</ele>
        <time>2020-05-31T16:23:32Z</time>
      </trkpt>
      <trkpt lat="46.22646" lon="-0.94528">
        <ele>6.2</ele>
        <time>2020-05-31T16:23:33Z</time>
      </trkpt>
      <trkpt lat="46.22639" lon="-0.9453">
        <ele>6.3</ele>
        <time>2020-05-31T16:23:34Z</time>
      </trkpt>
      <trkpt lat="46.22633" lon="-0.94533">
        <ele>6.3</ele>
        <time>2020-05-31T16:23:35Z</time>
      </trkpt>
      <trkpt lat="46.22627" lon="-0.94536">
        <ele>6.4</ele>
        <time>2020-05-31T16:23:36Z</time>
      </trkpt>
      <trkpt lat="46.22621" lon="-0.94539">
        <ele>6.5</ele>
        <time>2020-05-31T16:23:37Z</time>
      </trkpt>
      <trkpt lat="46.22614" lon="-0.9454">
        <ele>6.7</ele>
        <time>2020-05-31T16:23:38Z</time>
      </trkpt>
      <trkpt lat="46.22608" lon="-0.94542">
        <ele>6.8</ele>
        <time>2020-05-31T16:23:39Z</time>
      </trkpt>
      <trkpt lat="46.22602" lon="-0.94543">
        <ele>6.9</ele>
        <time>2020-05-31T16:23:40Z</time>
      </trkpt>
      <trkpt lat="46.22597" lon="-0.94545">
        <ele>7</ele>
        <time>2020-05-31T16:23:41Z</time>
      </trkpt>
      <trkpt lat="46.22591" lon="-0.94546">
        <ele>7</ele>
        <time>2020-05-31T16:23:42Z</time>
      </trkpt>
      <trkpt lat="46.22586" lon="-0.94547">
        <ele>7.1</ele>
        <time>2020-05-31T16:23:43Z</time>
      </trkpt>
      <trkpt lat="46.22582" lon="-0.9455">
        <ele>7.1</ele>
        <time>2020-05-31T16:23:44Z</time>
      </trkpt>
      <trkpt lat="46.22577" lon="-0.94552">
        <ele>7.1</ele>
        <time>2020-05-31T16:23:45Z</time>
      </trkpt>
      <trkpt lat="46.22573" lon="-0.94558">
        <ele>7.2</ele>
        <time>2020-05-31T16:23:46Z</time>
      </trkpt>
      <trkpt lat="46.2257" lon="-0.94565">
        <ele>7.2</ele>
        <time>2020-05-31T16:23:47Z</time>
      </trkpt>
      <trkpt lat="46.22568" lon="-0.94572">
        <ele>7.3</ele>
        <time>2020-05-31T16:23:48Z</time>
      </trkpt>
      <trkpt lat="46.22566" lon="-0.94578">
        <ele>7.2</ele>
        <time>2020-05-31T16:23:49Z</time>
      </trkpt>
      <trkpt lat="46.22563" lon="-0.94583">
        <ele>7.2</ele>
        <time>2020-05-31T16:23:50Z</time>
      </trkpt>
      <trkpt lat="46.22559" lon="-0.94586">
        <ele>7.2</ele>
        <time>2020-05-31T16:23:51Z</time>
      </trkpt>
      <trkpt lat="46.22554" lon="-0.94586">
        <ele>7</ele>
        <time>2020-05-31T16:23:52Z</time>
      </trkpt>
      <trkpt lat="46.22549" lon="-0.94584">
        <ele>6.9</ele>
        <time>2020-05-31T16:23:53Z</time>
      </trkpt>
      <trkpt lat="46.22545" lon="-0.94581">
        <ele>6.9</ele>
        <time>2020-05-31T16:23:54Z</time>
      </trkpt>
      <trkpt lat="46.22541" lon="-0.94576">
        <ele>6.7</ele>
        <time>2020-05-31T16:23:55Z</time>
      </trkpt>
      <trkpt lat="46.22538" lon="-0.9457">
        <ele>6.6</ele>
        <time>2020-05-31T16:23:56Z</time>
      </trkpt>
      <trkpt lat="46.22534" lon="-0.94563">
        <ele>6.5</ele>
        <time>2020-05-31T16:23:57Z</time>
      </trkpt>
      <trkpt lat="46.22529" lon="-0.94559">
        <ele>6.4</ele>
        <time>2020-05-31T16:23:58Z</time>
      </trkpt>
      <trkpt lat="46.22524" lon="-0.94556">
        <ele>6.3</ele>
        <time>2020-05-31T16:23:59Z</time>
      </trkpt>
      <trkpt lat="46.22518" lon="-0.94555">
        <ele>6.2</ele>
        <time>2020-05-31T16:24:00Z</time>
      </trkpt>
      <trkpt lat="46.22513" lon="-0.94557">
        <ele>6.2</ele>
        <time>2020-05-31T16:24:01Z</time>
      </trkpt>
      <trkpt lat="46.22508" lon="-0.94561">
        <ele>6.2</ele>
        <time>2020-05-31T16:24:02Z</time>
      </trkpt>
      <trkpt lat="46.22504" lon="-0.94567">
        <ele>6.1</ele>
        <time>2020-05-31T16:24:03Z</time>
      </trkpt>
      <trkpt lat="46.22499" lon="-0.94572">
        <ele>6.1</ele>
        <time>2020-05-31T16:24:04Z</time>
      </trkpt>
      <trkpt lat="46.22494" lon="-0.94577">
        <ele>6.1</ele>
        <time>2020-05-31T16:24:05Z</time>
      </trkpt>
      <trkpt lat="46.2249" lon="-0.94583">
        <ele>6</ele>
        <time>2020-05-31T16:24:06Z</time>
      </trkpt>
      <trkpt lat="46.22485" lon="-0.94587">
        <ele>6</ele>
        <time>2020-05-31T16:24:07Z</time>
      </trkpt>
      <trkpt lat="46.22481" lon="-0.94592">
        <ele>5.9</ele>
        <time>2020-05-31T16:24:08Z</time>
      </trkpt>
      <trkpt lat="46.22476" lon="-0.94596">
        <ele>5.9</ele>
        <time>2020-05-31T16:24:09Z</time>
      </trkpt>
      <trkpt lat="46.22471" lon="-0.94601">
        <ele>5.8</ele>
        <time>2020-05-31T16:24:10Z</time>
      </trkpt>
      <trkpt lat="46.22467" lon="-0.94605">
        <ele>5.8</ele>
        <time>2020-05-31T16:24:11Z</time>
      </trkpt>
      <trkpt lat="46.22463" lon="-0.94608">
        <ele>5.7</ele>
        <time>2020-05-31T16:24:12Z</time>
      </trkpt>
      <trkpt lat="46.22458" lon="-0.94609">
        <ele>5.7</ele>
        <time>2020-05-31T16:24:13Z</time>
      </trkpt>
      <trkpt lat="46.22454" lon="-0.94611">
        <ele>5.7</ele>
        <time>2020-05-31T16:24:14Z</time>
      </trkpt>
      <trkpt lat="46.22449" lon="-0.94614">
        <ele>5.7</ele>
        <time>2020-05-31T16:24:15Z</time>
      </trkpt>
      <trkpt lat="46.22444" lon="-0.94616">
        <ele>5.7</ele>
        <time>2020-05-31T16:24:16Z</time>
      </trkpt>
      <trkpt lat="46.2244" lon="-0.94618">
        <ele>5.7</ele>
        <time>2020-05-31T16:24:17Z</time>
      </trkpt>
      <trkpt lat="46.22435" lon="-0.94621">
        <ele>5.7</ele>
        <time>2020-05-31T16:24:18Z</time>
      </trkpt>
      <trkpt lat="46.22431" lon="-0.94624">
        <ele>5.7</ele>
        <time>2020-05-31T16:24:19Z</time>
      </trkpt>
      <trkpt lat="46.22426" lon="-0.94626">
        <ele>5.7</ele>
        <time>2020-05-31T16:24:20Z</time>
      </trkpt>
      <trkpt lat="46.2242" lon="-0.94629">
        <ele>5.7</ele>
        <time>2020-05-31T16:24:21Z</time>
      </trkpt>
      <trkpt lat="46.22415" lon="-0.94632">
        <ele>5.7</ele>
        <time>2020-05-31T16:24:22Z</time>
      </trkpt>
      <trkpt lat="46.22409" lon="-0.94634">
        <ele>5.7</ele>
        <time>2020-05-31T16:24:23Z</time>
      </trkpt>
      <trkpt lat="46.22404" lon="-0.94636">
        <ele>5.6</ele>
        <time>2020-05-31T16:24:24Z</time>
      </trkpt>
      <trkpt lat="46.22398" lon="-0.94638">
        <ele>5.6</ele>
        <time>2020-05-31T16:24:25Z</time>
      </trkpt>
      <trkpt lat="46.22393" lon="-0.9464">
        <ele>5.6</ele>
        <time>2020-05-31T16:24:26Z</time>
      </trkpt>
      <trkpt lat="46.22388" lon="-0.94641">
        <ele>5.6</ele>
        <time>2020-05-31T16:24:27Z</time>
      </trkpt>
      <trkpt lat="46.22384" lon="-0.94641">
        <ele>5.6</ele>
        <time>2020-05-31T16:24:28Z</time>
      </trkpt>
      <trkpt lat="46.22379" lon="-0.94642">
        <ele>5.6</ele>
        <time>2020-05-31T16:24:29Z</time>
      </trkpt>
      <trkpt lat="46.22374" lon="-0.94643">
        <ele>5.5</ele>
        <time>2020-05-31T16:24:30Z</time>
      </trkpt>
      <trkpt lat="46.2237" lon="-0.94645">
        <ele>5.5</ele>
        <time>2020-05-31T16:24:31Z</time>
      </trkpt>
      <trkpt lat="46.22366" lon="-0.94647">
        <ele>5.5</ele>
        <time>2020-05-31T16:24:32Z</time>
      </trkpt>
      <trkpt lat="46.22362" lon="-0.94648">
        <ele>5.5</ele>
        <time>2020-05-31T16:24:33Z</time>
      </trkpt>
      <trkpt lat="46.22358" lon="-0.9465">
        <ele>5.4</ele>
        <time>2020-05-31T16:24:34Z</time>
      </trkpt>
      <trkpt lat="46.22354" lon="-0.94651">
        <ele>5.4</ele>
        <time>2020-05-31T16:24:35Z</time>
      </trkpt>
      <trkpt lat="46.2235" lon="-0.94653">
        <ele>5.4</ele>
        <time>2020-05-31T16:24:36Z</time>
      </trkpt>
      <trkpt lat="46.22346" lon="-0.94654">
        <ele>5.3</ele>
        <time>2020-05-31T16:24:37Z</time>
      </trkpt>
      <trkpt lat="46.22342" lon="-0.94656">
        <ele>5.3</ele>
        <time>2020-05-31T16:24:38Z</time>
      </trkpt>
      <trkpt lat="46.22338" lon="-0.94658">
        <ele>5.3</ele>
        <time>2020-05-31T16:24:39Z</time>
      </trkpt>
      <trkpt lat="46.22333" lon="-0.94659">
        <ele>5.2</ele>
        <time>2020-05-31T16:24:40Z</time>
      </trkpt>
      <trkpt lat="46.22329" lon="-0.9466">
        <ele>5.2</ele>
        <time>2020-05-31T16:24:41Z</time>
      </trkpt>
      <trkpt lat="46.22326" lon="-0.94661">
        <ele>5.2</ele>
        <time>2020-05-31T16:24:42Z</time>
      </trkpt>
      <trkpt lat="46.22322" lon="-0.94662">
        <ele>5.2</ele>
        <time>2020-05-31T16:24:43Z</time>
      </trkpt>
      <trkpt lat="46.22318" lon="-0.94664">
        <ele>5.2</ele>
        <time>2020-05-31T16:24:44Z</time>
      </trkpt>
      <trkpt lat="46.22314" lon="-0.94665">
        <ele>5.1</ele>
        <time>2020-05-31T16:24:45Z</time>
      </trkpt>
      <trkpt lat="46.22309" lon="-0.94667">
        <ele>5.1</ele>
        <time>2020-05-31T16:24:46Z</time>
      </trkpt>
      <trkpt lat="46.22305" lon="-0.94669">
        <ele>5.1</ele>
        <time>2020-05-31T16:24:47Z</time>
      </trkpt>
      <trkpt lat="46.223" lon="-0.9467">
        <ele>5.1</ele>
        <time>2020-05-31T16:24:48Z</time>
      </trkpt>
      <trkpt lat="46.22296" lon="-0.94672">
        <ele>5.1</ele>
        <time>2020-05-31T16:24:49Z</time>
      </trkpt>
      <trkpt lat="46.22291" lon="-0.94674">
        <ele>5.1</ele>
        <time>2020-05-31T16:24:50Z</time>
      </trkpt>
      <trkpt lat="46.22287" lon="-0.94677">
        <ele>5.1</ele>
        <time>2020-05-31T16:24:51Z</time>
      </trkpt>
      <trkpt lat="46.22283" lon="-0.94679">
        <ele>5</ele>
        <time>2020-05-31T16:24:52Z</time>
      </trkpt>
      <trkpt lat="46.22278" lon="-0.94683">
        <ele>5</ele>
        <time>2020-05-31T16:24:53Z</time>
      </trkpt>
      <trkpt lat="46.22274" lon="-0.94688">
        <ele>5</ele>
        <time>2020-05-31T16:24:54Z</time>
      </trkpt>
      <trkpt lat="46.22269" lon="-0.94693">
        <ele>5</ele>
        <time>2020-05-31T16:24:55Z</time>
      </trkpt>
      <trkpt lat="46.22264" lon="-0.94695">
        <ele>5</ele>
        <time>2020-05-31T16:24:56Z</time>
      </trkpt>
      <trkpt lat="46.22259" lon="-0.94697">
        <ele>5</ele>
        <time>2020-05-31T16:24:57Z</time>
      </trkpt>
      <trkpt lat="46.22255" lon="-0.94699">
        <ele>5</ele>
        <time>2020-05-31T16:24:58Z</time>
      </trkpt>
      <trkpt lat="46.22251" lon="-0.94702">
        <ele>5.1</ele>
        <time>2020-05-31T16:24:59Z</time>
      </trkpt>
      <trkpt lat="46.22245" lon="-0.94704">
        <ele>5.1</ele>
        <time>2020-05-31T16:25:00Z</time>
      </trkpt>
      <trkpt lat="46.22241" lon="-0.94707">
        <ele>5.1</ele>
        <time>2020-05-31T16:25:01Z</time>
      </trkpt>
      <trkpt lat="46.22236" lon="-0.94711">
        <ele>5.1</ele>
        <time>2020-05-31T16:25:02Z</time>
      </trkpt>
      <trkpt lat="46.2223" lon="-0.94714">
        <ele>5.1</ele>
        <time>2020-05-31T16:25:03Z</time>
      </trkpt>
      <trkpt lat="46.22225" lon="-0.94717">
        <ele>5.1</ele>
        <time>2020-05-31T16:25:04Z</time>
      </trkpt>
      <trkpt lat="46.22221" lon="-0.94719">
        <ele>5.1</ele>
        <time>2020-05-31T16:25:05Z</time>
      </trkpt>
      <trkpt lat="46.22216" lon="-0.94722">
        <ele>5.1</ele>
        <time>2020-05-31T16:25:06Z</time>
      </trkpt>
      <trkpt lat="46.22212" lon="-0.94727">
        <ele>5</ele>
        <time>2020-05-31T16:25:07Z</time>
      </trkpt>
      <trkpt lat="46.22207" lon="-0.9473">
        <ele>5</ele>
        <time>2020-05-31T16:25:08Z</time>
      </trkpt>
      <trkpt lat="46.22203" lon="-0.94732">
        <ele>5</ele>
        <time>2020-05-31T16:25:09Z</time>
      </trkpt>
      <trkpt lat="46.22198" lon="-0.94735">
        <ele>5</ele>
        <time>2020-05-31T16:25:10Z</time>
      </trkpt>
      <trkpt lat="46.22193" lon="-0.94738">
        <ele>5</ele>
        <time>2020-05-31T16:25:11Z</time>
      </trkpt>
      <trkpt lat="46.22187" lon="-0.94742">
        <ele>5</ele>
        <time>2020-05-31T16:25:12Z</time>
      </trkpt>
      <trkpt lat="46.22182" lon="-0.94748">
        <ele>5.1</ele>
        <time>2020-05-31T16:25:13Z</time>
      </trkpt>
      <trkpt lat="46.22177" lon="-0.9475">
        <ele>5.1</ele>
        <time>2020-05-31T16:25:14Z</time>
      </trkpt>
      <trkpt lat="46.22172" lon="-0.94752">
        <ele>5.1</ele>
        <time>2020-05-31T16:25:15Z</time>
      </trkpt>
      <trkpt lat="46.22166" lon="-0.94753">
        <ele>5.1</ele>
        <time>2020-05-31T16:25:16Z</time>
      </trkpt>
      <trkpt lat="46.22162" lon="-0.94756">
        <ele>5</ele>
        <time>2020-05-31T16:25:17Z</time>
      </trkpt>
      <trkpt lat="46.22157" lon="-0.94759">
        <ele>5</ele>
        <time>2020-05-31T16:25:18Z</time>
      </trkpt>
      <trkpt lat="46.22153" lon="-0.94767">
        <ele>5</ele>
        <time>2020-05-31T16:25:19Z</time>
      </trkpt>
      <trkpt lat="46.22149" lon="-0.94772">
        <ele>5</ele>
        <time>2020-05-31T16:25:20Z</time>
      </trkpt>
      <trkpt lat="46.22145" lon="-0.94777">
        <ele>5</ele>
        <time>2020-05-31T16:25:21Z</time>
      </trkpt>
      <trkpt lat="46.22141" lon="-0.94781">
        <ele>4.9</ele>
        <time>2020-05-31T16:25:22Z</time>
      </trkpt>
      <trkpt lat="46.22137" lon="-0.94786">
        <ele>4.9</ele>
        <time>2020-05-31T16:25:23Z</time>
      </trkpt>
      <trkpt lat="46.22133" lon="-0.94788">
        <ele>5</ele>
        <time>2020-05-31T16:25:24Z</time>
      </trkpt>
      <trkpt lat="46.22128" lon="-0.9479">
        <ele>5</ele>
        <time>2020-05-31T16:25:25Z</time>
      </trkpt>
      <trkpt lat="46.22123" lon="-0.94796">
        <ele>5</ele>
        <time>2020-05-31T16:25:26Z</time>
      </trkpt>
      <trkpt lat="46.22118" lon="-0.948">
        <ele>5</ele>
        <time>2020-05-31T16:25:27Z</time>
      </trkpt>
      <trkpt lat="46.22114" lon="-0.94803">
        <ele>5</ele>
        <time>2020-05-31T16:25:28Z</time>
      </trkpt>
      <trkpt lat="46.22107" lon="-0.94808">
        <ele>5</ele>
        <time>2020-05-31T16:25:29Z</time>
      </trkpt>
      <trkpt lat="46.22102" lon="-0.9481">
        <ele>5.1</ele>
        <time>2020-05-31T16:25:30Z</time>
      </trkpt>
      <trkpt lat="46.22096" lon="-0.94813">
        <ele>5.1</ele>
        <time>2020-05-31T16:25:31Z</time>
      </trkpt>
      <trkpt lat="46.2209" lon="-0.94815">
        <ele>5.1</ele>
        <time>2020-05-31T16:25:32Z</time>
      </trkpt>
      <trkpt lat="46.22084" lon="-0.94818">
        <ele>5.2</ele>
        <time>2020-05-31T16:25:33Z</time>
      </trkpt>
      <trkpt lat="46.22078" lon="-0.94821">
        <ele>5.2</ele>
        <time>2020-05-31T16:25:34Z</time>
      </trkpt>
      <trkpt lat="46.22073" lon="-0.94824">
        <ele>5.2</ele>
        <time>2020-05-31T16:25:35Z</time>
      </trkpt>
      <trkpt lat="46.22067" lon="-0.94827">
        <ele>5.2</ele>
        <time>2020-05-31T16:25:36Z</time>
      </trkpt>
      <trkpt lat="46.22062" lon="-0.9483">
        <ele>5.2</ele>
        <time>2020-05-31T16:25:37Z</time>
      </trkpt>
      <trkpt lat="46.22055" lon="-0.94834">
        <ele>5.2</ele>
        <time>2020-05-31T16:25:38Z</time>
      </trkpt>
      <trkpt lat="46.22049" lon="-0.94837">
        <ele>5.2</ele>
        <time>2020-05-31T16:25:39Z</time>
      </trkpt>
      <trkpt lat="46.22044" lon="-0.94839">
        <ele>5.2</ele>
        <time>2020-05-31T16:25:40Z</time>
      </trkpt>
      <trkpt lat="46.22038" lon="-0.94842">
        <ele>5.2</ele>
        <time>2020-05-31T16:25:41Z</time>
      </trkpt>
      <trkpt lat="46.22032" lon="-0.94845">
        <ele>5.2</ele>
        <time>2020-05-31T16:25:42Z</time>
      </trkpt>
      <trkpt lat="46.22025" lon="-0.94848">
        <ele>5.2</ele>
        <time>2020-05-31T16:25:43Z</time>
      </trkpt>
      <trkpt lat="46.22019" lon="-0.94851">
        <ele>5.2</ele>
        <time>2020-05-31T16:25:44Z</time>
      </trkpt>
      <trkpt lat="46.22012" lon="-0.94854">
        <ele>5.1</ele>
        <time>2020-05-31T16:25:45Z</time>
      </trkpt>
      <trkpt lat="46.22006" lon="-0.94857">
        <ele>5.1</ele>
        <time>2020-05-31T16:25:46Z</time>
      </trkpt>
      <trkpt lat="46.22" lon="-0.94859">
        <ele>5.1</ele>
        <time>2020-05-31T16:25:47Z</time>
      </trkpt>
      <trkpt lat="46.21994" lon="-0.94862">
        <ele>5.1</ele>
        <time>2020-05-31T16:25:48Z</time>
      </trkpt>
      <trkpt lat="46.21989" lon="-0.94864">
        <ele>5.1</ele>
        <time>2020-05-31T16:25:49Z</time>
      </trkpt>
      <trkpt lat="46.21983" lon="-0.94866">
        <ele>5.1</ele>
        <time>2020-05-31T16:25:50Z</time>
      </trkpt>
      <trkpt lat="46.21976" lon="-0.94869">
        <ele>5</ele>
        <time>2020-05-31T16:25:51Z</time>
      </trkpt>
      <trkpt lat="46.21971" lon="-0.94872">
        <ele>5</ele>
        <time>2020-05-31T16:25:52Z</time>
      </trkpt>
      <trkpt lat="46.21965" lon="-0.94874">
        <ele>5</ele>
        <time>2020-05-31T16:25:53Z</time>
      </trkpt>
      <trkpt lat="46.21958" lon="-0.94876">
        <ele>5</ele>
        <time>2020-05-31T16:25:54Z</time>
      </trkpt>
      <trkpt lat="46.21951" lon="-0.94879">
        <ele>5</ele>
        <time>2020-05-31T16:25:55Z</time>
      </trkpt>
      <trkpt lat="46.21945" lon="-0.94881">
        <ele>5.1</ele>
        <time>2020-05-31T16:25:56Z</time>
      </trkpt>
      <trkpt lat="46.21937" lon="-0.94882">
        <ele>5.2</ele>
        <time>2020-05-31T16:25:57Z</time>
      </trkpt>
      <trkpt lat="46.21931" lon="-0.94885">
        <ele>5.2</ele>
        <time>2020-05-31T16:25:58Z</time>
      </trkpt>
      <trkpt lat="46.21925" lon="-0.94887">
        <ele>5.3</ele>
        <time>2020-05-31T16:25:59Z</time>
      </trkpt>
      <trkpt lat="46.21918" lon="-0.9489">
        <ele>5.3</ele>
        <time>2020-05-31T16:26:00Z</time>
      </trkpt>
      <trkpt lat="46.21911" lon="-0.94893">
        <ele>5.3</ele>
        <time>2020-05-31T16:26:01Z</time>
      </trkpt>
      <trkpt lat="46.21905" lon="-0.94896">
        <ele>5.3</ele>
        <time>2020-05-31T16:26:02Z</time>
      </trkpt>
      <trkpt lat="46.21899" lon="-0.94899">
        <ele>5.4</ele>
        <time>2020-05-31T16:26:03Z</time>
      </trkpt>
      <trkpt lat="46.21892" lon="-0.94903">
        <ele>5.5</ele>
        <time>2020-05-31T16:26:04Z</time>
      </trkpt>
      <trkpt lat="46.21886" lon="-0.94906">
        <ele>5.6</ele>
        <time>2020-05-31T16:26:05Z</time>
      </trkpt>
      <trkpt lat="46.21876" lon="-0.9491">
        <ele>5.7</ele>
        <time>2020-05-31T16:26:06Z</time>
      </trkpt>
      <trkpt lat="46.21869" lon="-0.94913">
        <ele>5.9</ele>
        <time>2020-05-31T16:26:07Z</time>
      </trkpt>
      <trkpt lat="46.21862" lon="-0.94916">
        <ele>6</ele>
        <time>2020-05-31T16:26:08Z</time>
      </trkpt>
      <trkpt lat="46.21854" lon="-0.94918">
        <ele>6.1</ele>
        <time>2020-05-31T16:26:09Z</time>
      </trkpt>
      <trkpt lat="46.21847" lon="-0.9492">
        <ele>6.1</ele>
        <time>2020-05-31T16:26:10Z</time>
      </trkpt>
      <trkpt lat="46.21839" lon="-0.94923">
        <ele>6.2</ele>
        <time>2020-05-31T16:26:11Z</time>
      </trkpt>
      <trkpt lat="46.2183" lon="-0.94926">
        <ele>6.3</ele>
        <time>2020-05-31T16:26:12Z</time>
      </trkpt>
      <trkpt lat="46.21823" lon="-0.94929">
        <ele>6.4</ele>
        <time>2020-05-31T16:26:13Z</time>
      </trkpt>
      <trkpt lat="46.21816" lon="-0.94932">
        <ele>6.4</ele>
        <time>2020-05-31T16:26:14Z</time>
      </trkpt>
      <trkpt lat="46.2181" lon="-0.94936">
        <ele>6.5</ele>
        <time>2020-05-31T16:26:15Z</time>
      </trkpt>
      <trkpt lat="46.21802" lon="-0.94938">
        <ele>6.7</ele>
        <time>2020-05-31T16:26:16Z</time>
      </trkpt>
      <trkpt lat="46.21795" lon="-0.9494">
        <ele>6.9</ele>
        <time>2020-05-31T16:26:17Z</time>
      </trkpt>
      <trkpt lat="46.21789" lon="-0.9494">
        <ele>7</ele>
        <time>2020-05-31T16:26:18Z</time>
      </trkpt>
      <trkpt lat="46.21783" lon="-0.94942">
        <ele>7.2</ele>
        <time>2020-05-31T16:26:19Z</time>
      </trkpt>
      <trkpt lat="46.21777" lon="-0.94943">
        <ele>7.3</ele>
        <time>2020-05-31T16:26:20Z</time>
      </trkpt>
      <trkpt lat="46.21771" lon="-0.94945">
        <ele>7.4</ele>
        <time>2020-05-31T16:26:21Z</time>
      </trkpt>
      <trkpt lat="46.21767" lon="-0.94948">
        <ele>7.5</ele>
        <time>2020-05-31T16:26:22Z</time>
      </trkpt>
      <trkpt lat="46.21763" lon="-0.94951">
        <ele>7.6</ele>
        <time>2020-05-31T16:26:23Z</time>
      </trkpt>
      <trkpt lat="46.21758" lon="-0.94954">
        <ele>7.6</ele>
        <time>2020-05-31T16:26:24Z</time>
      </trkpt>
      <trkpt lat="46.21754" lon="-0.94957">
        <ele>7.6</ele>
        <time>2020-05-31T16:26:25Z</time>
      </trkpt>
      <trkpt lat="46.21749" lon="-0.9496">
        <ele>7.7</ele>
        <time>2020-05-31T16:26:26Z</time>
      </trkpt>
      <trkpt lat="46.21744" lon="-0.94963">
        <ele>7.7</ele>
        <time>2020-05-31T16:26:27Z</time>
      </trkpt>
      <trkpt lat="46.21739" lon="-0.94966">
        <ele>7.7</ele>
        <time>2020-05-31T16:26:28Z</time>
      </trkpt>
      <trkpt lat="46.21732" lon="-0.94969">
        <ele>7.6</ele>
        <time>2020-05-31T16:26:29Z</time>
      </trkpt>
      <trkpt lat="46.21727" lon="-0.94974">
        <ele>7.6</ele>
        <time>2020-05-31T16:26:30Z</time>
      </trkpt>
      <trkpt lat="46.21722" lon="-0.94979">
        <ele>7.6</ele>
        <time>2020-05-31T16:26:31Z</time>
      </trkpt>
      <trkpt lat="46.21716" lon="-0.94983">
        <ele>7.6</ele>
        <time>2020-05-31T16:26:32Z</time>
      </trkpt>
      <trkpt lat="46.21711" lon="-0.9499">
        <ele>7.5</ele>
        <time>2020-05-31T16:26:33Z</time>
      </trkpt>
      <trkpt lat="46.21705" lon="-0.94994">
        <ele>7.4</ele>
        <time>2020-05-31T16:26:34Z</time>
      </trkpt>
      <trkpt lat="46.217" lon="-0.94999">
        <ele>7.3</ele>
        <time>2020-05-31T16:26:35Z</time>
      </trkpt>
      <trkpt lat="46.21696" lon="-0.95005">
        <ele>7.2</ele>
        <time>2020-05-31T16:26:36Z</time>
      </trkpt>
      <trkpt lat="46.21692" lon="-0.9501">
        <ele>7.2</ele>
        <time>2020-05-31T16:26:37Z</time>
      </trkpt>
      <trkpt lat="46.21687" lon="-0.95016">
        <ele>7</ele>
        <time>2020-05-31T16:26:38Z</time>
      </trkpt>
      <trkpt lat="46.21681" lon="-0.95023">
        <ele>6.9</ele>
        <time>2020-05-31T16:26:39Z</time>
      </trkpt>
      <trkpt lat="46.21676" lon="-0.95028">
        <ele>6.8</ele>
        <time>2020-05-31T16:26:40Z</time>
      </trkpt>
      <trkpt lat="46.2167" lon="-0.95035">
        <ele>6.7</ele>
        <time>2020-05-31T16:26:41Z</time>
      </trkpt>
      <trkpt lat="46.21665" lon="-0.95041">
        <ele>6.6</ele>
        <time>2020-05-31T16:26:42Z</time>
      </trkpt>
      <trkpt lat="46.21659" lon="-0.95048">
        <ele>6.4</ele>
        <time>2020-05-31T16:26:43Z</time>
      </trkpt>
      <trkpt lat="46.21653" lon="-0.95055">
        <ele>6.3</ele>
        <time>2020-05-31T16:26:44Z</time>
      </trkpt>
      <trkpt lat="46.21647" lon="-0.95061">
        <ele>6.2</ele>
        <time>2020-05-31T16:26:45Z</time>
      </trkpt>
      <trkpt lat="46.21643" lon="-0.95068">
        <ele>6</ele>
        <time>2020-05-31T16:26:46Z</time>
      </trkpt>
      <trkpt lat="46.21637" lon="-0.95075">
        <ele>5.9</ele>
        <time>2020-05-31T16:26:47Z</time>
      </trkpt>
      <trkpt lat="46.21633" lon="-0.9508">
        <ele>5.8</ele>
        <time>2020-05-31T16:26:48Z</time>
      </trkpt>
      <trkpt lat="46.21629" lon="-0.95087">
        <ele>5.8</ele>
        <time>2020-05-31T16:26:49Z</time>
      </trkpt>
      <trkpt lat="46.21623" lon="-0.95095">
        <ele>5.7</ele>
        <time>2020-05-31T16:26:50Z</time>
      </trkpt>
      <trkpt lat="46.21618" lon="-0.95103">
        <ele>5.6</ele>
        <time>2020-05-31T16:26:51Z</time>
      </trkpt>
      <trkpt lat="46.21612" lon="-0.95111">
        <ele>5.6</ele>
        <time>2020-05-31T16:26:52Z</time>
      </trkpt>
      <trkpt lat="46.21607" lon="-0.95118">
        <ele>5.5</ele>
        <time>2020-05-31T16:26:53Z</time>
      </trkpt>
      <trkpt lat="46.21602" lon="-0.95125">
        <ele>5.6</ele>
        <time>2020-05-31T16:26:54Z</time>
      </trkpt>
      <trkpt lat="46.21597" lon="-0.95132">
        <ele>5.6</ele>
        <time>2020-05-31T16:26:55Z</time>
      </trkpt>
      <trkpt lat="46.21592" lon="-0.95138">
        <ele>5.6</ele>
        <time>2020-05-31T16:26:56Z</time>
      </trkpt>
      <trkpt lat="46.21588" lon="-0.95145">
        <ele>5.6</ele>
        <time>2020-05-31T16:26:57Z</time>
      </trkpt>
      <trkpt lat="46.21583" lon="-0.95152">
        <ele>5.6</ele>
        <time>2020-05-31T16:26:58Z</time>
      </trkpt>
      <trkpt lat="46.21578" lon="-0.95159">
        <ele>5.7</ele>
        <time>2020-05-31T16:26:59Z</time>
      </trkpt>
      <trkpt lat="46.21573" lon="-0.95166">
        <ele>5.7</ele>
        <time>2020-05-31T16:27:00Z</time>
      </trkpt>
      <trkpt lat="46.21567" lon="-0.95173">
        <ele>5.7</ele>
        <time>2020-05-31T16:27:01Z</time>
      </trkpt>
      <trkpt lat="46.21562" lon="-0.9518">
        <ele>5.7</ele>
        <time>2020-05-31T16:27:02Z</time>
      </trkpt>
      <trkpt lat="46.21558" lon="-0.95187">
        <ele>5.8</ele>
        <time>2020-05-31T16:27:03Z</time>
      </trkpt>
      <trkpt lat="46.21553" lon="-0.95194">
        <ele>5.8</ele>
        <time>2020-05-31T16:27:04Z</time>
      </trkpt>
      <trkpt lat="46.21548" lon="-0.95201">
        <ele>5.8</ele>
        <time>2020-05-31T16:27:05Z</time>
      </trkpt>
      <trkpt lat="46.21543" lon="-0.95207">
        <ele>5.8</ele>
        <time>2020-05-31T16:27:06Z</time>
      </trkpt>
      <trkpt lat="46.21538" lon="-0.95214">
        <ele>5.8</ele>
        <time>2020-05-31T16:27:07Z</time>
      </trkpt>
      <trkpt lat="46.21533" lon="-0.95221">
        <ele>5.8</ele>
        <time>2020-05-31T16:27:08Z</time>
      </trkpt>
      <trkpt lat="46.21528" lon="-0.95227">
        <ele>5.8</ele>
        <time>2020-05-31T16:27:09Z</time>
      </trkpt>
      <trkpt lat="46.21523" lon="-0.95234">
        <ele>5.8</ele>
        <time>2020-05-31T16:27:10Z</time>
      </trkpt>
      <trkpt lat="46.21518" lon="-0.95241">
        <ele>5.8</ele>
        <time>2020-05-31T16:27:11Z</time>
      </trkpt>
      <trkpt lat="46.21513" lon="-0.95249">
        <ele>5.8</ele>
        <time>2020-05-31T16:27:12Z</time>
      </trkpt>
      <trkpt lat="46.21509" lon="-0.95255">
        <ele>5.7</ele>
        <time>2020-05-31T16:27:13Z</time>
      </trkpt>
      <trkpt lat="46.21504" lon="-0.95262">
        <ele>5.7</ele>
        <time>2020-05-31T16:27:14Z</time>
      </trkpt>
      <trkpt lat="46.215" lon="-0.95268">
        <ele>5.7</ele>
        <time>2020-05-31T16:27:15Z</time>
      </trkpt>
      <trkpt lat="46.21495" lon="-0.95274">
        <ele>5.7</ele>
        <time>2020-05-31T16:27:16Z</time>
      </trkpt>
      <trkpt lat="46.21491" lon="-0.95281">
        <ele>5.7</ele>
        <time>2020-05-31T16:27:17Z</time>
      </trkpt>
      <trkpt lat="46.21487" lon="-0.95288">
        <ele>5.7</ele>
        <time>2020-05-31T16:27:18Z</time>
      </trkpt>
      <trkpt lat="46.21483" lon="-0.95294">
        <ele>5.6</ele>
        <time>2020-05-31T16:27:19Z</time>
      </trkpt>
      <trkpt lat="46.21479" lon="-0.95301">
        <ele>5.6</ele>
        <time>2020-05-31T16:27:20Z</time>
      </trkpt>
      <trkpt lat="46.21475" lon="-0.95306">
        <ele>5.6</ele>
        <time>2020-05-31T16:27:21Z</time>
      </trkpt>
      <trkpt lat="46.2147" lon="-0.95311">
        <ele>5.6</ele>
        <time>2020-05-31T16:27:22Z</time>
      </trkpt>
      <trkpt lat="46.21465" lon="-0.95317">
        <ele>5.6</ele>
        <time>2020-05-31T16:27:23Z</time>
      </trkpt>
      <trkpt lat="46.21461" lon="-0.95323">
        <ele>5.6</ele>
        <time>2020-05-31T16:27:24Z</time>
      </trkpt>
      <trkpt lat="46.21455" lon="-0.95327">
        <ele>5.6</ele>
        <time>2020-05-31T16:27:25Z</time>
      </trkpt>
      <trkpt lat="46.2145" lon="-0.95332">
        <ele>5.6</ele>
        <time>2020-05-31T16:27:26Z</time>
      </trkpt>
      <trkpt lat="46.21445" lon="-0.95337">
        <ele>5.7</ele>
        <time>2020-05-31T16:27:27Z</time>
      </trkpt>
      <trkpt lat="46.21441" lon="-0.95342">
        <ele>5.7</ele>
        <time>2020-05-31T16:27:28Z</time>
      </trkpt>
      <trkpt lat="46.21437" lon="-0.95347">
        <ele>5.7</ele>
        <time>2020-05-31T16:27:29Z</time>
      </trkpt>
      <trkpt lat="46.21432" lon="-0.95352">
        <ele>5.7</ele>
        <time>2020-05-31T16:27:30Z</time>
      </trkpt>
      <trkpt lat="46.21427" lon="-0.95356">
        <ele>5.7</ele>
        <time>2020-05-31T16:27:31Z</time>
      </trkpt>
      <trkpt lat="46.21422" lon="-0.9536">
        <ele>5.7</ele>
        <time>2020-05-31T16:27:32Z</time>
      </trkpt>
      <trkpt lat="46.21417" lon="-0.95363">
        <ele>5.7</ele>
        <time>2020-05-31T16:27:33Z</time>
      </trkpt>
      <trkpt lat="46.21412" lon="-0.95367">
        <ele>5.8</ele>
        <time>2020-05-31T16:27:34Z</time>
      </trkpt>
      <trkpt lat="46.21407" lon="-0.95371">
        <ele>5.8</ele>
        <time>2020-05-31T16:27:35Z</time>
      </trkpt>
      <trkpt lat="46.21401" lon="-0.95374">
        <ele>5.9</ele>
        <time>2020-05-31T16:27:36Z</time>
      </trkpt>
      <trkpt lat="46.21395" lon="-0.95377">
        <ele>6</ele>
        <time>2020-05-31T16:27:37Z</time>
      </trkpt>
      <trkpt lat="46.21389" lon="-0.9538">
        <ele>6.1</ele>
        <time>2020-05-31T16:27:38Z</time>
      </trkpt>
      <trkpt lat="46.21383" lon="-0.95382">
        <ele>6.2</ele>
        <time>2020-05-31T16:27:39Z</time>
      </trkpt>
      <trkpt lat="46.21378" lon="-0.95384">
        <ele>6.3</ele>
        <time>2020-05-31T16:27:40Z</time>
      </trkpt>
      <trkpt lat="46.21372" lon="-0.95387">
        <ele>6.4</ele>
        <time>2020-05-31T16:27:41Z</time>
      </trkpt>
      <trkpt lat="46.21367" lon="-0.95389">
        <ele>6.5</ele>
        <time>2020-05-31T16:27:42Z</time>
      </trkpt>
      <trkpt lat="46.21361" lon="-0.95391">
        <ele>6.6</ele>
        <time>2020-05-31T16:27:43Z</time>
      </trkpt>
      <trkpt lat="46.21356" lon="-0.95393">
        <ele>6.7</ele>
        <time>2020-05-31T16:27:44Z</time>
      </trkpt>
      <trkpt lat="46.21351" lon="-0.95395">
        <ele>6.8</ele>
        <time>2020-05-31T16:27:45Z</time>
      </trkpt>
      <trkpt lat="46.21345" lon="-0.95396">
        <ele>7</ele>
        <time>2020-05-31T16:27:46Z</time>
      </trkpt>
      <trkpt lat="46.21339" lon="-0.95398">
        <ele>7.2</ele>
        <time>2020-05-31T16:27:47Z</time>
      </trkpt>
      <trkpt lat="46.21333" lon="-0.95398">
        <ele>7.2</ele>
        <time>2020-05-31T16:27:48Z</time>
      </trkpt>
      <trkpt lat="46.21328" lon="-0.95397">
        <ele>7.3</ele>
        <time>2020-05-31T16:27:49Z</time>
      </trkpt>
      <trkpt lat="46.21323" lon="-0.95397">
        <ele>7.4</ele>
        <time>2020-05-31T16:27:50Z</time>
      </trkpt>
      <trkpt lat="46.21318" lon="-0.95395">
        <ele>7.4</ele>
        <time>2020-05-31T16:27:51Z</time>
      </trkpt>
      <trkpt lat="46.21313" lon="-0.95394">
        <ele>7.5</ele>
        <time>2020-05-31T16:27:52Z</time>
      </trkpt>
      <trkpt lat="46.21308" lon="-0.95394">
        <ele>7.5</ele>
        <time>2020-05-31T16:27:53Z</time>
      </trkpt>
      <trkpt lat="46.21303" lon="-0.95391">
        <ele>7.6</ele>
        <time>2020-05-31T16:27:54Z</time>
      </trkpt>
      <trkpt lat="46.21298" lon="-0.9539">
        <ele>7.8</ele>
        <time>2020-05-31T16:27:55Z</time>
      </trkpt>
      <trkpt lat="46.21293" lon="-0.95388">
        <ele>7.9</ele>
        <time>2020-05-31T16:27:56Z</time>
      </trkpt>
      <trkpt lat="46.21288" lon="-0.95386">
        <ele>8</ele>
        <time>2020-05-31T16:27:57Z</time>
      </trkpt>
      <trkpt lat="46.21283" lon="-0.95384">
        <ele>8.1</ele>
        <time>2020-05-31T16:27:58Z</time>
      </trkpt>
      <trkpt lat="46.21278" lon="-0.95383">
        <ele>8.2</ele>
        <time>2020-05-31T16:27:59Z</time>
      </trkpt>
      <trkpt lat="46.21273" lon="-0.95383">
        <ele>8.3</ele>
        <time>2020-05-31T16:28:00Z</time>
      </trkpt>
      <trkpt lat="46.21268" lon="-0.95382">
        <ele>8.4</ele>
        <time>2020-05-31T16:28:01Z</time>
      </trkpt>
      <trkpt lat="46.21263" lon="-0.95382">
        <ele>8.4</ele>
        <time>2020-05-31T16:28:02Z</time>
      </trkpt>
      <trkpt lat="46.21258" lon="-0.95382">
        <ele>8.5</ele>
        <time>2020-05-31T16:28:03Z</time>
      </trkpt>
      <trkpt lat="46.21253" lon="-0.95382">
        <ele>8.5</ele>
        <time>2020-05-31T16:28:04Z</time>
      </trkpt>
      <trkpt lat="46.21248" lon="-0.95383">
        <ele>8.6</ele>
        <time>2020-05-31T16:28:05Z</time>
      </trkpt>
      <trkpt lat="46.21243" lon="-0.95382">
        <ele>8.7</ele>
        <time>2020-05-31T16:28:06Z</time>
      </trkpt>
      <trkpt lat="46.21238" lon="-0.95382">
        <ele>8.8</ele>
        <time>2020-05-31T16:28:07Z</time>
      </trkpt>
      <trkpt lat="46.21233" lon="-0.95383">
        <ele>8.9</ele>
        <time>2020-05-31T16:28:08Z</time>
      </trkpt>
      <trkpt lat="46.21228" lon="-0.95384">
        <ele>9</ele>
        <time>2020-05-31T16:28:09Z</time>
      </trkpt>
      <trkpt lat="46.21224" lon="-0.95385">
        <ele>9.1</ele>
        <time>2020-05-31T16:28:10Z</time>
      </trkpt>
      <trkpt lat="46.21219" lon="-0.95387">
        <ele>9.2</ele>
        <time>2020-05-31T16:28:11Z</time>
      </trkpt>
      <trkpt lat="46.21215" lon="-0.95389">
        <ele>9.4</ele>
        <time>2020-05-31T16:28:12Z</time>
      </trkpt>
      <trkpt lat="46.2121" lon="-0.95392">
        <ele>9.4</ele>
        <time>2020-05-31T16:28:13Z</time>
      </trkpt>
      <trkpt lat="46.21205" lon="-0.95393">
        <ele>9.5</ele>
        <time>2020-05-31T16:28:14Z</time>
      </trkpt>
      <trkpt lat="46.212" lon="-0.95395">
        <ele>9.6</ele>
        <time>2020-05-31T16:28:15Z</time>
      </trkpt>
      <trkpt lat="46.21196" lon="-0.95398">
        <ele>9.6</ele>
        <time>2020-05-31T16:28:16Z</time>
      </trkpt>
      <trkpt lat="46.21192" lon="-0.95399">
        <ele>9.7</ele>
        <time>2020-05-31T16:28:17Z</time>
      </trkpt>
      <trkpt lat="46.21188" lon="-0.95401">
        <ele>9.8</ele>
        <time>2020-05-31T16:28:18Z</time>
      </trkpt>
      <trkpt lat="46.21183" lon="-0.95403">
        <ele>9.8</ele>
        <time>2020-05-31T16:28:19Z</time>
      </trkpt>
      <trkpt lat="46.21179" lon="-0.95406">
        <ele>9.9</ele>
        <time>2020-05-31T16:28:20Z</time>
      </trkpt>
      <trkpt lat="46.21174" lon="-0.95408">
        <ele>10</ele>
        <time>2020-05-31T16:28:21Z</time>
      </trkpt>
      <trkpt lat="46.2117" lon="-0.95411">
        <ele>10.1</ele>
        <time>2020-05-31T16:28:22Z</time>
      </trkpt>
      <trkpt lat="46.21165" lon="-0.95413">
        <ele>10.1</ele>
        <time>2020-05-31T16:28:23Z</time>
      </trkpt>
      <trkpt lat="46.21161" lon="-0.95416">
        <ele>10.2</ele>
        <time>2020-05-31T16:28:24Z</time>
      </trkpt>
      <trkpt lat="46.21157" lon="-0.9542">
        <ele>10.2</ele>
        <time>2020-05-31T16:28:25Z</time>
      </trkpt>
      <trkpt lat="46.21152" lon="-0.95423">
        <ele>10.3</ele>
        <time>2020-05-31T16:28:26Z</time>
      </trkpt>
      <trkpt lat="46.21147" lon="-0.95425">
        <ele>10.3</ele>
        <time>2020-05-31T16:28:27Z</time>
      </trkpt>
      <trkpt lat="46.21143" lon="-0.95426">
        <ele>10.4</ele>
        <time>2020-05-31T16:28:28Z</time>
      </trkpt>
      <trkpt lat="46.21138" lon="-0.95429">
        <ele>10.5</ele>
        <time>2020-05-31T16:28:29Z</time>
      </trkpt>
      <trkpt lat="46.21134" lon="-0.95432">
        <ele>10.5</ele>
        <time>2020-05-31T16:28:30Z</time>
      </trkpt>
      <trkpt lat="46.21129" lon="-0.95435">
        <ele>10.6</ele>
        <time>2020-05-31T16:28:31Z</time>
      </trkpt>
      <trkpt lat="46.21124" lon="-0.95437">
        <ele>10.7</ele>
        <time>2020-05-31T16:28:32Z</time>
      </trkpt>
      <trkpt lat="46.21119" lon="-0.95439">
        <ele>10.8</ele>
        <time>2020-05-31T16:28:33Z</time>
      </trkpt>
      <trkpt lat="46.21114" lon="-0.95442">
        <ele>10.8</ele>
        <time>2020-05-31T16:28:34Z</time>
      </trkpt>
      <trkpt lat="46.21109" lon="-0.95445">
        <ele>10.9</ele>
        <time>2020-05-31T16:28:35Z</time>
      </trkpt>
      <trkpt lat="46.21104" lon="-0.95448">
        <ele>11</ele>
        <time>2020-05-31T16:28:36Z</time>
      </trkpt>
      <trkpt lat="46.21099" lon="-0.95451">
        <ele>11</ele>
        <time>2020-05-31T16:28:37Z</time>
      </trkpt>
      <trkpt lat="46.21094" lon="-0.95453">
        <ele>11.1</ele>
        <time>2020-05-31T16:28:38Z</time>
      </trkpt>
      <trkpt lat="46.2109" lon="-0.95456">
        <ele>11.1</ele>
        <time>2020-05-31T16:28:39Z</time>
      </trkpt>
      <trkpt lat="46.21086" lon="-0.9546">
        <ele>11.1</ele>
        <time>2020-05-31T16:28:40Z</time>
      </trkpt>
      <trkpt lat="46.21081" lon="-0.95461">
        <ele>11.2</ele>
        <time>2020-05-31T16:28:41Z</time>
      </trkpt>
      <trkpt lat="46.21076" lon="-0.95463">
        <ele>11.2</ele>
        <time>2020-05-31T16:28:42Z</time>
      </trkpt>
      <trkpt lat="46.21072" lon="-0.95467">
        <ele>11.2</ele>
        <time>2020-05-31T16:28:43Z</time>
      </trkpt>
      <trkpt lat="46.21067" lon="-0.95468">
        <ele>11.2</ele>
        <time>2020-05-31T16:28:44Z</time>
      </trkpt>
      <trkpt lat="46.21062" lon="-0.9547">
        <ele>11.3</ele>
        <time>2020-05-31T16:28:45Z</time>
      </trkpt>
      <trkpt lat="46.21057" lon="-0.95471">
        <ele>11.3</ele>
        <time>2020-05-31T16:28:46Z</time>
      </trkpt>
      <trkpt lat="46.21052" lon="-0.95473">
        <ele>11.3</ele>
        <time>2020-05-31T16:28:47Z</time>
      </trkpt>
      <trkpt lat="46.21047" lon="-0.95477">
        <ele>11.4</ele>
        <time>2020-05-31T16:28:48Z</time>
      </trkpt>
      <trkpt lat="46.21043" lon="-0.95479">
        <ele>11.4</ele>
        <time>2020-05-31T16:28:49Z</time>
      </trkpt>
      <trkpt lat="46.21038" lon="-0.95482">
        <ele>11.4</ele>
        <time>2020-05-31T16:28:50Z</time>
      </trkpt>
      <trkpt lat="46.21033" lon="-0.95485">
        <ele>11.4</ele>
        <time>2020-05-31T16:28:51Z</time>
      </trkpt>
      <trkpt lat="46.21029" lon="-0.95488">
        <ele>11.4</ele>
        <time>2020-05-31T16:28:52Z</time>
      </trkpt>
      <trkpt lat="46.21023" lon="-0.9549">
        <ele>11.4</ele>
        <time>2020-05-31T16:28:53Z</time>
      </trkpt>
      <trkpt lat="46.21018" lon="-0.95493">
        <ele>11.4</ele>
        <time>2020-05-31T16:28:54Z</time>
      </trkpt>
      <trkpt lat="46.21013" lon="-0.95495">
        <ele>11.4</ele>
        <time>2020-05-31T16:28:55Z</time>
      </trkpt>
      <trkpt lat="46.21008" lon="-0.95498">
        <ele>11.4</ele>
        <time>2020-05-31T16:28:56Z</time>
      </trkpt>
      <trkpt lat="46.21003" lon="-0.955">
        <ele>11.3</ele>
        <time>2020-05-31T16:28:57Z</time>
      </trkpt>
      <trkpt lat="46.20998" lon="-0.95502">
        <ele>11.3</ele>
        <time>2020-05-31T16:28:58Z</time>
      </trkpt>
      <trkpt lat="46.20993" lon="-0.95504">
        <ele>11.3</ele>
        <time>2020-05-31T16:28:59Z</time>
      </trkpt>
      <trkpt lat="46.20989" lon="-0.95507">
        <ele>11.3</ele>
        <time>2020-05-31T16:29:00Z</time>
      </trkpt>
      <trkpt lat="46.20984" lon="-0.95509">
        <ele>11.3</ele>
        <time>2020-05-31T16:29:01Z</time>
      </trkpt>
      <trkpt lat="46.20979" lon="-0.9551">
        <ele>11.3</ele>
        <time>2020-05-31T16:29:02Z</time>
      </trkpt>
      <trkpt lat="46.20975" lon="-0.95512">
        <ele>11.3</ele>
        <time>2020-05-31T16:29:03Z</time>
      </trkpt>
      <trkpt lat="46.20969" lon="-0.95515">
        <ele>11.3</ele>
        <time>2020-05-31T16:29:04Z</time>
      </trkpt>
      <trkpt lat="46.20964" lon="-0.95517">
        <ele>11.2</ele>
        <time>2020-05-31T16:29:05Z</time>
      </trkpt>
      <trkpt lat="46.20959" lon="-0.95519">
        <ele>11.1</ele>
        <time>2020-05-31T16:29:06Z</time>
      </trkpt>
      <trkpt lat="46.20953" lon="-0.95522">
        <ele>10.9</ele>
        <time>2020-05-31T16:29:07Z</time>
      </trkpt>
      <trkpt lat="46.20948" lon="-0.95525">
        <ele>10.8</ele>
        <time>2020-05-31T16:29:08Z</time>
      </trkpt>
      <trkpt lat="46.20942" lon="-0.95525">
        <ele>10.6</ele>
        <time>2020-05-31T16:29:09Z</time>
      </trkpt>
      <trkpt lat="46.20937" lon="-0.95527">
        <ele>10.5</ele>
        <time>2020-05-31T16:29:10Z</time>
      </trkpt>
      <trkpt lat="46.20931" lon="-0.9553">
        <ele>10.3</ele>
        <time>2020-05-31T16:29:11Z</time>
      </trkpt>
      <trkpt lat="46.20926" lon="-0.95533">
        <ele>10.2</ele>
        <time>2020-05-31T16:29:12Z</time>
      </trkpt>
      <trkpt lat="46.2092" lon="-0.95536">
        <ele>10.1</ele>
        <time>2020-05-31T16:29:13Z</time>
      </trkpt>
      <trkpt lat="46.20914" lon="-0.95537">
        <ele>10</ele>
        <time>2020-05-31T16:29:14Z</time>
      </trkpt>
      <trkpt lat="46.20909" lon="-0.95539">
        <ele>9.9</ele>
        <time>2020-05-31T16:29:15Z</time>
      </trkpt>
      <trkpt lat="46.20903" lon="-0.95541">
        <ele>9.8</ele>
        <time>2020-05-31T16:29:16Z</time>
      </trkpt>
      <trkpt lat="46.20897" lon="-0.95543">
        <ele>9.7</ele>
        <time>2020-05-31T16:29:17Z</time>
      </trkpt>
      <trkpt lat="46.20892" lon="-0.95545">
        <ele>9.6</ele>
        <time>2020-05-31T16:29:18Z</time>
      </trkpt>
      <trkpt lat="46.20886" lon="-0.95546">
        <ele>9.5</ele>
        <time>2020-05-31T16:29:19Z</time>
      </trkpt>
      <trkpt lat="46.2088" lon="-0.95548">
        <ele>9.4</ele>
        <time>2020-05-31T16:29:20Z</time>
      </trkpt>
      <trkpt lat="46.20874" lon="-0.9555">
        <ele>9.3</ele>
        <time>2020-05-31T16:29:21Z</time>
      </trkpt>
      <trkpt lat="46.20868" lon="-0.95552">
        <ele>9.2</ele>
        <time>2020-05-31T16:29:22Z</time>
      </trkpt>
      <trkpt lat="46.20862" lon="-0.95555">
        <ele>9.2</ele>
        <time>2020-05-31T16:29:23Z</time>
      </trkpt>
      <trkpt lat="46.20856" lon="-0.95556">
        <ele>9.1</ele>
        <time>2020-05-31T16:29:24Z</time>
      </trkpt>
      <trkpt lat="46.2085" lon="-0.95557">
        <ele>9.1</ele>
        <time>2020-05-31T16:29:25Z</time>
      </trkpt>
      <trkpt lat="46.20844" lon="-0.95558">
        <ele>9</ele>
        <time>2020-05-31T16:29:26Z</time>
      </trkpt>
      <trkpt lat="46.20838" lon="-0.95559">
        <ele>9</ele>
        <time>2020-05-31T16:29:27Z</time>
      </trkpt>
      <trkpt lat="46.20832" lon="-0.95561">
        <ele>8.9</ele>
        <time>2020-05-31T16:29:28Z</time>
      </trkpt>
      <trkpt lat="46.20826" lon="-0.95564">
        <ele>8.9</ele>
        <time>2020-05-31T16:29:29Z</time>
      </trkpt>
      <trkpt lat="46.2082" lon="-0.95565">
        <ele>8.8</ele>
        <time>2020-05-31T16:29:30Z</time>
      </trkpt>
      <trkpt lat="46.20814" lon="-0.95568">
        <ele>8.7</ele>
        <time>2020-05-31T16:29:31Z</time>
      </trkpt>
      <trkpt lat="46.20808" lon="-0.95569">
        <ele>8.7</ele>
        <time>2020-05-31T16:29:32Z</time>
      </trkpt>
      <trkpt lat="46.20802" lon="-0.95571">
        <ele>8.6</ele>
        <time>2020-05-31T16:29:33Z</time>
      </trkpt>
      <trkpt lat="46.20796" lon="-0.95573">
        <ele>8.6</ele>
        <time>2020-05-31T16:29:34Z</time>
      </trkpt>
      <trkpt lat="46.2079" lon="-0.95575">
        <ele>8.6</ele>
        <time>2020-05-31T16:29:35Z</time>
      </trkpt>
      <trkpt lat="46.20784" lon="-0.95577">
        <ele>8.6</ele>
        <time>2020-05-31T16:29:36Z</time>
      </trkpt>
      <trkpt lat="46.20779" lon="-0.95579">
        <ele>8.6</ele>
        <time>2020-05-31T16:29:37Z</time>
      </trkpt>
      <trkpt lat="46.20774" lon="-0.95581">
        <ele>8.6</ele>
        <time>2020-05-31T16:29:38Z</time>
      </trkpt>
      <trkpt lat="46.20768" lon="-0.95582">
        <ele>8.6</ele>
        <time>2020-05-31T16:29:39Z</time>
      </trkpt>
      <trkpt lat="46.20763" lon="-0.95584">
        <ele>8.6</ele>
        <time>2020-05-31T16:29:40Z</time>
      </trkpt>
      <trkpt lat="46.20757" lon="-0.95587">
        <ele>8.6</ele>
        <time>2020-05-31T16:29:41Z</time>
      </trkpt>
      <trkpt lat="46.20752" lon="-0.9559">
        <ele>8.6</ele>
        <time>2020-05-31T16:29:42Z</time>
      </trkpt>
      <trkpt lat="46.20747" lon="-0.95591">
        <ele>8.6</ele>
        <time>2020-05-31T16:29:43Z</time>
      </trkpt>
      <trkpt lat="46.20741" lon="-0.95593">
        <ele>8.6</ele>
        <time>2020-05-31T16:29:44Z</time>
      </trkpt>
      <trkpt lat="46.20736" lon="-0.95596">
        <ele>8.6</ele>
        <time>2020-05-31T16:29:45Z</time>
      </trkpt>
      <trkpt lat="46.2073" lon="-0.95597">
        <ele>8.6</ele>
        <time>2020-05-31T16:29:46Z</time>
      </trkpt>
      <trkpt lat="46.20724" lon="-0.95599">
        <ele>8.6</ele>
        <time>2020-05-31T16:29:47Z</time>
      </trkpt>
      <trkpt lat="46.20718" lon="-0.95601">
        <ele>8.6</ele>
        <time>2020-05-31T16:29:48Z</time>
      </trkpt>
      <trkpt lat="46.20712" lon="-0.95603">
        <ele>8.5</ele>
        <time>2020-05-31T16:29:49Z</time>
      </trkpt>
      <trkpt lat="46.20707" lon="-0.95605">
        <ele>8.5</ele>
        <time>2020-05-31T16:29:50Z</time>
      </trkpt>
      <trkpt lat="46.20701" lon="-0.95607">
        <ele>8.5</ele>
        <time>2020-05-31T16:29:51Z</time>
      </trkpt>
      <trkpt lat="46.20695" lon="-0.95608">
        <ele>8.5</ele>
        <time>2020-05-31T16:29:52Z</time>
      </trkpt>
      <trkpt lat="46.20689" lon="-0.9561">
        <ele>8.4</ele>
        <time>2020-05-31T16:29:53Z</time>
      </trkpt>
      <trkpt lat="46.20684" lon="-0.9561">
        <ele>8.4</ele>
        <time>2020-05-31T16:29:54Z</time>
      </trkpt>
      <trkpt lat="46.20678" lon="-0.95612">
        <ele>8.5</ele>
        <time>2020-05-31T16:29:55Z</time>
      </trkpt>
      <trkpt lat="46.20672" lon="-0.95614">
        <ele>8.5</ele>
        <time>2020-05-31T16:29:56Z</time>
      </trkpt>
      <trkpt lat="46.20666" lon="-0.95616">
        <ele>8.5</ele>
        <time>2020-05-31T16:29:57Z</time>
      </trkpt>
      <trkpt lat="46.20661" lon="-0.95618">
        <ele>8.6</ele>
        <time>2020-05-31T16:29:58Z</time>
      </trkpt>
      <trkpt lat="46.20655" lon="-0.95619">
        <ele>8.7</ele>
        <time>2020-05-31T16:29:59Z</time>
      </trkpt>
      <trkpt lat="46.20649" lon="-0.95621">
        <ele>8.8</ele>
        <time>2020-05-31T16:30:00Z</time>
      </trkpt>
      <trkpt lat="46.20643" lon="-0.95622">
        <ele>8.9</ele>
        <time>2020-05-31T16:30:01Z</time>
      </trkpt>
      <trkpt lat="46.20638" lon="-0.95623">
        <ele>9</ele>
        <time>2020-05-31T16:30:02Z</time>
      </trkpt>
      <trkpt lat="46.20632" lon="-0.95624">
        <ele>9.1</ele>
        <time>2020-05-31T16:30:03Z</time>
      </trkpt>
      <trkpt lat="46.20627" lon="-0.95625">
        <ele>9.2</ele>
        <time>2020-05-31T16:30:04Z</time>
      </trkpt>
      <trkpt lat="46.20621" lon="-0.95627">
        <ele>9.3</ele>
        <time>2020-05-31T16:30:05Z</time>
      </trkpt>
      <trkpt lat="46.20616" lon="-0.95628">
        <ele>9.4</ele>
        <time>2020-05-31T16:30:06Z</time>
      </trkpt>
      <trkpt lat="46.2061" lon="-0.95629">
        <ele>9.5</ele>
        <time>2020-05-31T16:30:07Z</time>
      </trkpt>
      <trkpt lat="46.20605" lon="-0.9563">
        <ele>9.6</ele>
        <time>2020-05-31T16:30:08Z</time>
      </trkpt>
      <trkpt lat="46.20599" lon="-0.95632">
        <ele>9.7</ele>
        <time>2020-05-31T16:30:09Z</time>
      </trkpt>
      <trkpt lat="46.20594" lon="-0.95633">
        <ele>9.8</ele>
        <time>2020-05-31T16:30:10Z</time>
      </trkpt>
      <trkpt lat="46.20588" lon="-0.95635">
        <ele>10</ele>
        <time>2020-05-31T16:30:11Z</time>
      </trkpt>
      <trkpt lat="46.20583" lon="-0.95638">
        <ele>10.1</ele>
        <time>2020-05-31T16:30:12Z</time>
      </trkpt>
      <trkpt lat="46.20578" lon="-0.95639">
        <ele>10.2</ele>
        <time>2020-05-31T16:30:13Z</time>
      </trkpt>
      <trkpt lat="46.20573" lon="-0.95641">
        <ele>10.4</ele>
        <time>2020-05-31T16:30:14Z</time>
      </trkpt>
      <trkpt lat="46.20567" lon="-0.95642">
        <ele>10.5</ele>
        <time>2020-05-31T16:30:15Z</time>
      </trkpt>
      <trkpt lat="46.20562" lon="-0.95644">
        <ele>10.6</ele>
        <time>2020-05-31T16:30:16Z</time>
      </trkpt>
      <trkpt lat="46.20557" lon="-0.95646">
        <ele>10.8</ele>
        <time>2020-05-31T16:30:17Z</time>
      </trkpt>
      <trkpt lat="46.20552" lon="-0.95648">
        <ele>10.9</ele>
        <time>2020-05-31T16:30:18Z</time>
      </trkpt>
      <trkpt lat="46.20547" lon="-0.95651">
        <ele>11</ele>
        <time>2020-05-31T16:30:19Z</time>
      </trkpt>
      <trkpt lat="46.20542" lon="-0.95653">
        <ele>11.2</ele>
        <time>2020-05-31T16:30:20Z</time>
      </trkpt>
      <trkpt lat="46.20537" lon="-0.95655">
        <ele>11.3</ele>
        <time>2020-05-31T16:30:21Z</time>
      </trkpt>
      <trkpt lat="46.20533" lon="-0.95658">
        <ele>11.4</ele>
        <time>2020-05-31T16:30:22Z</time>
      </trkpt>
      <trkpt lat="46.20528" lon="-0.9566">
        <ele>11.5</ele>
        <time>2020-05-31T16:30:23Z</time>
      </trkpt>
      <trkpt lat="46.20524" lon="-0.95662">
        <ele>11.6</ele>
        <time>2020-05-31T16:30:24Z</time>
      </trkpt>
      <trkpt lat="46.20519" lon="-0.95663">
        <ele>11.7</ele>
        <time>2020-05-31T16:30:25Z</time>
      </trkpt>
      <trkpt lat="46.20515" lon="-0.95666">
        <ele>11.7</ele>
        <time>2020-05-31T16:30:26Z</time>
      </trkpt>
      <trkpt lat="46.2051" lon="-0.95668">
        <ele>11.8</ele>
        <time>2020-05-31T16:30:27Z</time>
      </trkpt>
      <trkpt lat="46.20506" lon="-0.9567">
        <ele>11.9</ele>
        <time>2020-05-31T16:30:28Z</time>
      </trkpt>
      <trkpt lat="46.20502" lon="-0.95672">
        <ele>12</ele>
        <time>2020-05-31T16:30:29Z</time>
      </trkpt>
      <trkpt lat="46.20498" lon="-0.95674">
        <ele>12.1</ele>
        <time>2020-05-31T16:30:30Z</time>
      </trkpt>
      <trkpt lat="46.20493" lon="-0.95678">
        <ele>12.2</ele>
        <time>2020-05-31T16:30:31Z</time>
      </trkpt>
      <trkpt lat="46.20489" lon="-0.9568">
        <ele>12.3</ele>
        <time>2020-05-31T16:30:32Z</time>
      </trkpt>
      <trkpt lat="46.20484" lon="-0.95682">
        <ele>12.3</ele>
        <time>2020-05-31T16:30:33Z</time>
      </trkpt>
      <trkpt lat="46.2048" lon="-0.95683">
        <ele>12.3</ele>
        <time>2020-05-31T16:30:34Z</time>
      </trkpt>
      <trkpt lat="46.20475" lon="-0.95685">
        <ele>12.4</ele>
        <time>2020-05-31T16:30:35Z</time>
      </trkpt>
      <trkpt lat="46.20471" lon="-0.95687">
        <ele>12.4</ele>
        <time>2020-05-31T16:30:36Z</time>
      </trkpt>
      <trkpt lat="46.20467" lon="-0.95688">
        <ele>12.3</ele>
        <time>2020-05-31T16:30:37Z</time>
      </trkpt>
      <trkpt lat="46.20463" lon="-0.95689">
        <ele>12.3</ele>
        <time>2020-05-31T16:30:38Z</time>
      </trkpt>
      <trkpt lat="46.20459" lon="-0.95691">
        <ele>12.3</ele>
        <time>2020-05-31T16:30:39Z</time>
      </trkpt>
      <trkpt lat="46.20455" lon="-0.95693">
        <ele>12.3</ele>
        <time>2020-05-31T16:30:40Z</time>
      </trkpt>
      <trkpt lat="46.2045" lon="-0.95696">
        <ele>12.3</ele>
        <time>2020-05-31T16:30:41Z</time>
      </trkpt>
      <trkpt lat="46.20446" lon="-0.95699">
        <ele>12.3</ele>
        <time>2020-05-31T16:30:42Z</time>
      </trkpt>
      <trkpt lat="46.20441" lon="-0.95701">
        <ele>12.3</ele>
        <time>2020-05-31T16:30:43Z</time>
      </trkpt>
      <trkpt lat="46.20437" lon="-0.95704">
        <ele>12.4</ele>
        <time>2020-05-31T16:30:44Z</time>
      </trkpt>
      <trkpt lat="46.20432" lon="-0.95706">
        <ele>12.5</ele>
        <time>2020-05-31T16:30:45Z</time>
      </trkpt>
      <trkpt lat="46.20428" lon="-0.95708">
        <ele>12.5</ele>
        <time>2020-05-31T16:30:46Z</time>
      </trkpt>
      <trkpt lat="46.20423" lon="-0.95712">
        <ele>12.6</ele>
        <time>2020-05-31T16:30:47Z</time>
      </trkpt>
      <trkpt lat="46.20419" lon="-0.95714">
        <ele>12.7</ele>
        <time>2020-05-31T16:30:48Z</time>
      </trkpt>
      <trkpt lat="46.20414" lon="-0.95718">
        <ele>12.7</ele>
        <time>2020-05-31T16:30:49Z</time>
      </trkpt>
      <trkpt lat="46.2041" lon="-0.95722">
        <ele>12.7</ele>
        <time>2020-05-31T16:30:50Z</time>
      </trkpt>
      <trkpt lat="46.20405" lon="-0.95724">
        <ele>12.8</ele>
        <time>2020-05-31T16:30:51Z</time>
      </trkpt>
      <trkpt lat="46.204" lon="-0.95726">
        <ele>12.8</ele>
        <time>2020-05-31T16:30:52Z</time>
      </trkpt>
      <trkpt lat="46.20395" lon="-0.95729">
        <ele>12.7</ele>
        <time>2020-05-31T16:30:53Z</time>
      </trkpt>
      <trkpt lat="46.2039" lon="-0.95731">
        <ele>12.7</ele>
        <time>2020-05-31T16:30:54Z</time>
      </trkpt>
      <trkpt lat="46.20385" lon="-0.95733">
        <ele>12.7</ele>
        <time>2020-05-31T16:30:55Z</time>
      </trkpt>
      <trkpt lat="46.2038" lon="-0.95736">
        <ele>12.7</ele>
        <time>2020-05-31T16:30:56Z</time>
      </trkpt>
      <trkpt lat="46.20374" lon="-0.95738">
        <ele>12.6</ele>
        <time>2020-05-31T16:30:57Z</time>
      </trkpt>
      <trkpt lat="46.20369" lon="-0.95739">
        <ele>12.6</ele>
        <time>2020-05-31T16:30:58Z</time>
      </trkpt>
      <trkpt lat="46.20364" lon="-0.95742">
        <ele>12.6</ele>
        <time>2020-05-31T16:30:59Z</time>
      </trkpt>
      <trkpt lat="46.20358" lon="-0.95744">
        <ele>12.5</ele>
        <time>2020-05-31T16:31:00Z</time>
      </trkpt>
      <trkpt lat="46.20353" lon="-0.95747">
        <ele>12.5</ele>
        <time>2020-05-31T16:31:01Z</time>
      </trkpt>
      <trkpt lat="46.20347" lon="-0.9575">
        <ele>12.5</ele>
        <time>2020-05-31T16:31:02Z</time>
      </trkpt>
      <trkpt lat="46.20342" lon="-0.95754">
        <ele>12.5</ele>
        <time>2020-05-31T16:31:03Z</time>
      </trkpt>
      <trkpt lat="46.20336" lon="-0.95758">
        <ele>12.5</ele>
        <time>2020-05-31T16:31:04Z</time>
      </trkpt>
      <trkpt lat="46.2033" lon="-0.9576">
        <ele>12.4</ele>
        <time>2020-05-31T16:31:05Z</time>
      </trkpt>
      <trkpt lat="46.20325" lon="-0.95762">
        <ele>12.4</ele>
        <time>2020-05-31T16:31:06Z</time>
      </trkpt>
      <trkpt lat="46.20319" lon="-0.95765">
        <ele>12.4</ele>
        <time>2020-05-31T16:31:07Z</time>
      </trkpt>
      <trkpt lat="46.20314" lon="-0.95766">
        <ele>12.3</ele>
        <time>2020-05-31T16:31:08Z</time>
      </trkpt>
      <trkpt lat="46.20308" lon="-0.95769">
        <ele>12.2</ele>
        <time>2020-05-31T16:31:09Z</time>
      </trkpt>
      <trkpt lat="46.20302" lon="-0.95771">
        <ele>12.2</ele>
        <time>2020-05-31T16:31:10Z</time>
      </trkpt>
      <trkpt lat="46.20296" lon="-0.95773">
        <ele>12.1</ele>
        <time>2020-05-31T16:31:11Z</time>
      </trkpt>
      <trkpt lat="46.20291" lon="-0.95775">
        <ele>12.1</ele>
        <time>2020-05-31T16:31:12Z</time>
      </trkpt>
      <trkpt lat="46.20285" lon="-0.95778">
        <ele>12</ele>
        <time>2020-05-31T16:31:13Z</time>
      </trkpt>
      <trkpt lat="46.2028" lon="-0.9578">
        <ele>11.9</ele>
        <time>2020-05-31T16:31:14Z</time>
      </trkpt>
      <trkpt lat="46.20274" lon="-0.95782">
        <ele>11.9</ele>
        <time>2020-05-31T16:31:15Z</time>
      </trkpt>
      <trkpt lat="46.20268" lon="-0.95786">
        <ele>11.9</ele>
        <time>2020-05-31T16:31:16Z</time>
      </trkpt>
      <trkpt lat="46.20262" lon="-0.95789">
        <ele>12</ele>
        <time>2020-05-31T16:31:17Z</time>
      </trkpt>
      <trkpt lat="46.20256" lon="-0.95792">
        <ele>12</ele>
        <time>2020-05-31T16:31:18Z</time>
      </trkpt>
      <trkpt lat="46.20251" lon="-0.95796">
        <ele>12</ele>
        <time>2020-05-31T16:31:19Z</time>
      </trkpt>
      <trkpt lat="46.20245" lon="-0.95799">
        <ele>12</ele>
        <time>2020-05-31T16:31:20Z</time>
      </trkpt>
      <trkpt lat="46.20239" lon="-0.95803">
        <ele>11.9</ele>
        <time>2020-05-31T16:31:21Z</time>
      </trkpt>
      <trkpt lat="46.20233" lon="-0.95807">
        <ele>11.8</ele>
        <time>2020-05-31T16:31:22Z</time>
      </trkpt>
      <trkpt lat="46.20227" lon="-0.95812">
        <ele>11.7</ele>
        <time>2020-05-31T16:31:23Z</time>
      </trkpt>
      <trkpt lat="46.20222" lon="-0.95817">
        <ele>11.6</ele>
        <time>2020-05-31T16:31:24Z</time>
      </trkpt>
      <trkpt lat="46.20216" lon="-0.9582">
        <ele>11.5</ele>
        <time>2020-05-31T16:31:25Z</time>
      </trkpt>
      <trkpt lat="46.20209" lon="-0.95823">
        <ele>11.4</ele>
        <time>2020-05-31T16:31:26Z</time>
      </trkpt>
      <trkpt lat="46.20203" lon="-0.95826">
        <ele>11.4</ele>
        <time>2020-05-31T16:31:27Z</time>
      </trkpt>
      <trkpt lat="46.20197" lon="-0.95829">
        <ele>11.4</ele>
        <time>2020-05-31T16:31:28Z</time>
      </trkpt>
      <trkpt lat="46.2019" lon="-0.95831">
        <ele>11.4</ele>
        <time>2020-05-31T16:31:29Z</time>
      </trkpt>
      <trkpt lat="46.20184" lon="-0.95834">
        <ele>11.3</ele>
        <time>2020-05-31T16:31:30Z</time>
      </trkpt>
      <trkpt lat="46.20178" lon="-0.95838">
        <ele>11.3</ele>
        <time>2020-05-31T16:31:31Z</time>
      </trkpt>
      <trkpt lat="46.20172" lon="-0.9584">
        <ele>11.3</ele>
        <time>2020-05-31T16:31:32Z</time>
      </trkpt>
      <trkpt lat="46.20166" lon="-0.95843">
        <ele>11.3</ele>
        <time>2020-05-31T16:31:33Z</time>
      </trkpt>
      <trkpt lat="46.20159" lon="-0.95845">
        <ele>11.2</ele>
        <time>2020-05-31T16:31:34Z</time>
      </trkpt>
      <trkpt lat="46.20153" lon="-0.95848">
        <ele>11.2</ele>
        <time>2020-05-31T16:31:35Z</time>
      </trkpt>
      <trkpt lat="46.20147" lon="-0.95852">
        <ele>11.1</ele>
        <time>2020-05-31T16:31:36Z</time>
      </trkpt>
      <trkpt lat="46.20141" lon="-0.95856">
        <ele>11.1</ele>
        <time>2020-05-31T16:31:37Z</time>
      </trkpt>
      <trkpt lat="46.20134" lon="-0.9586">
        <ele>11.1</ele>
        <time>2020-05-31T16:31:38Z</time>
      </trkpt>
      <trkpt lat="46.20128" lon="-0.95865">
        <ele>11.1</ele>
        <time>2020-05-31T16:31:39Z</time>
      </trkpt>
      <trkpt lat="46.20123" lon="-0.95871">
        <ele>11.1</ele>
        <time>2020-05-31T16:31:40Z</time>
      </trkpt>
      <trkpt lat="46.20118" lon="-0.95877">
        <ele>11.1</ele>
        <time>2020-05-31T16:31:41Z</time>
      </trkpt>
      <trkpt lat="46.20113" lon="-0.95884">
        <ele>11.1</ele>
        <time>2020-05-31T16:31:42Z</time>
      </trkpt>
      <trkpt lat="46.20109" lon="-0.95891">
        <ele>11.1</ele>
        <time>2020-05-31T16:31:43Z</time>
      </trkpt>
      <trkpt lat="46.20105" lon="-0.95898">
        <ele>11.1</ele>
        <time>2020-05-31T16:31:44Z</time>
      </trkpt>
      <trkpt lat="46.20101" lon="-0.95906">
        <ele>11</ele>
        <time>2020-05-31T16:31:45Z</time>
      </trkpt>
      <trkpt lat="46.20097" lon="-0.95914">
        <ele>11</ele>
        <time>2020-05-31T16:31:46Z</time>
      </trkpt>
      <trkpt lat="46.20093" lon="-0.95922">
        <ele>11</ele>
        <time>2020-05-31T16:31:47Z</time>
      </trkpt>
      <trkpt lat="46.2009" lon="-0.9593">
        <ele>11</ele>
        <time>2020-05-31T16:31:48Z</time>
      </trkpt>
      <trkpt lat="46.20087" lon="-0.95938">
        <ele>11</ele>
        <time>2020-05-31T16:31:49Z</time>
      </trkpt>
      <trkpt lat="46.20084" lon="-0.95947">
        <ele>11</ele>
        <time>2020-05-31T16:31:50Z</time>
      </trkpt>
      <trkpt lat="46.2008" lon="-0.95955">
        <ele>11</ele>
        <time>2020-05-31T16:31:51Z</time>
      </trkpt>
      <trkpt lat="46.20077" lon="-0.95963">
        <ele>11</ele>
        <time>2020-05-31T16:31:52Z</time>
      </trkpt>
      <trkpt lat="46.20073" lon="-0.95972">
        <ele>11</ele>
        <time>2020-05-31T16:31:53Z</time>
      </trkpt>
      <trkpt lat="46.2007" lon="-0.95979">
        <ele>11</ele>
        <time>2020-05-31T16:31:54Z</time>
      </trkpt>
      <trkpt lat="46.20066" lon="-0.95988">
        <ele>11</ele>
        <time>2020-05-31T16:31:55Z</time>
      </trkpt>
      <trkpt lat="46.20063" lon="-0.95996">
        <ele>11</ele>
        <time>2020-05-31T16:31:56Z</time>
      </trkpt>
      <trkpt lat="46.20059" lon="-0.96004">
        <ele>11.1</ele>
        <time>2020-05-31T16:31:57Z</time>
      </trkpt>
      <trkpt lat="46.20055" lon="-0.96012">
        <ele>11.2</ele>
        <time>2020-05-31T16:31:58Z</time>
      </trkpt>
      <trkpt lat="46.20052" lon="-0.9602">
        <ele>11.4</ele>
        <time>2020-05-31T16:31:59Z</time>
      </trkpt>
      <trkpt lat="46.20048" lon="-0.96028">
        <ele>11.5</ele>
        <time>2020-05-31T16:32:00Z</time>
      </trkpt>
      <trkpt lat="46.20045" lon="-0.96036">
        <ele>11.7</ele>
        <time>2020-05-31T16:32:01Z</time>
      </trkpt>
      <trkpt lat="46.20041" lon="-0.96045">
        <ele>11.8</ele>
        <time>2020-05-31T16:32:02Z</time>
      </trkpt>
      <trkpt lat="46.20038" lon="-0.96052">
        <ele>11.9</ele>
        <time>2020-05-31T16:32:03Z</time>
      </trkpt>
      <trkpt lat="46.20034" lon="-0.9606">
        <ele>12</ele>
        <time>2020-05-31T16:32:04Z</time>
      </trkpt>
      <trkpt lat="46.2003" lon="-0.96068">
        <ele>12.1</ele>
        <time>2020-05-31T16:32:05Z</time>
      </trkpt>
      <trkpt lat="46.20027" lon="-0.96076">
        <ele>12.1</ele>
        <time>2020-05-31T16:32:06Z</time>
      </trkpt>
      <trkpt lat="46.20024" lon="-0.96084">
        <ele>12.2</ele>
        <time>2020-05-31T16:32:07Z</time>
      </trkpt>
      <trkpt lat="46.2002" lon="-0.96092">
        <ele>12.3</ele>
        <time>2020-05-31T16:32:08Z</time>
      </trkpt>
      <trkpt lat="46.20016" lon="-0.961">
        <ele>12.3</ele>
        <time>2020-05-31T16:32:09Z</time>
      </trkpt>
      <trkpt lat="46.20013" lon="-0.96108">
        <ele>12.5</ele>
        <time>2020-05-31T16:32:10Z</time>
      </trkpt>
      <trkpt lat="46.20009" lon="-0.96117">
        <ele>12.6</ele>
        <time>2020-05-31T16:32:11Z</time>
      </trkpt>
      <trkpt lat="46.20006" lon="-0.96124">
        <ele>12.7</ele>
        <time>2020-05-31T16:32:12Z</time>
      </trkpt>
      <trkpt lat="46.20002" lon="-0.96132">
        <ele>12.9</ele>
        <time>2020-05-31T16:32:13Z</time>
      </trkpt>
      <trkpt lat="46.19999" lon="-0.9614">
        <ele>13</ele>
        <time>2020-05-31T16:32:14Z</time>
      </trkpt>
      <trkpt lat="46.19995" lon="-0.96147">
        <ele>13.1</ele>
        <time>2020-05-31T16:32:15Z</time>
      </trkpt>
      <trkpt lat="46.19992" lon="-0.96155">
        <ele>13.2</ele>
        <time>2020-05-31T16:32:16Z</time>
      </trkpt>
      <trkpt lat="46.19988" lon="-0.96162">
        <ele>13.3</ele>
        <time>2020-05-31T16:32:17Z</time>
      </trkpt>
      <trkpt lat="46.19985" lon="-0.9617">
        <ele>13.4</ele>
        <time>2020-05-31T16:32:18Z</time>
      </trkpt>
      <trkpt lat="46.19981" lon="-0.96177">
        <ele>13.5</ele>
        <time>2020-05-31T16:32:19Z</time>
      </trkpt>
      <trkpt lat="46.19978" lon="-0.96185">
        <ele>13.6</ele>
        <time>2020-05-31T16:32:20Z</time>
      </trkpt>
      <trkpt lat="46.19974" lon="-0.96192">
        <ele>13.7</ele>
        <time>2020-05-31T16:32:21Z</time>
      </trkpt>
      <trkpt lat="46.1997" lon="-0.96199">
        <ele>13.8</ele>
        <time>2020-05-31T16:32:22Z</time>
      </trkpt>
      <trkpt lat="46.19967" lon="-0.96207">
        <ele>13.9</ele>
        <time>2020-05-31T16:32:23Z</time>
      </trkpt>
      <trkpt lat="46.19963" lon="-0.96214">
        <ele>14</ele>
        <time>2020-05-31T16:32:24Z</time>
      </trkpt>
      <trkpt lat="46.1996" lon="-0.96222">
        <ele>14.1</ele>
        <time>2020-05-31T16:32:25Z</time>
      </trkpt>
      <trkpt lat="46.19957" lon="-0.96229">
        <ele>14.2</ele>
        <time>2020-05-31T16:32:26Z</time>
      </trkpt>
      <trkpt lat="46.19953" lon="-0.96237">
        <ele>14.3</ele>
        <time>2020-05-31T16:32:27Z</time>
      </trkpt>
      <trkpt lat="46.1995" lon="-0.96244">
        <ele>14.5</ele>
        <time>2020-05-31T16:32:28Z</time>
      </trkpt>
      <trkpt lat="46.19946" lon="-0.96252">
        <ele>14.7</ele>
        <time>2020-05-31T16:32:29Z</time>
      </trkpt>
      <trkpt lat="46.19943" lon="-0.96259">
        <ele>14.8</ele>
        <time>2020-05-31T16:32:30Z</time>
      </trkpt>
      <trkpt lat="46.19939" lon="-0.96266">
        <ele>14.9</ele>
        <time>2020-05-31T16:32:31Z</time>
      </trkpt>
      <trkpt lat="46.19935" lon="-0.96272">
        <ele>15</ele>
        <time>2020-05-31T16:32:32Z</time>
      </trkpt>
      <trkpt lat="46.19932" lon="-0.96278">
        <ele>15.1</ele>
        <time>2020-05-31T16:32:33Z</time>
      </trkpt>
      <trkpt lat="46.19928" lon="-0.96285">
        <ele>15.2</ele>
        <time>2020-05-31T16:32:34Z</time>
      </trkpt>
      <trkpt lat="46.19924" lon="-0.96291">
        <ele>15.3</ele>
        <time>2020-05-31T16:32:35Z</time>
      </trkpt>
      <trkpt lat="46.19921" lon="-0.96297">
        <ele>15.4</ele>
        <time>2020-05-31T16:32:36Z</time>
      </trkpt>
      <trkpt lat="46.19916" lon="-0.96302">
        <ele>15.4</ele>
        <time>2020-05-31T16:32:37Z</time>
      </trkpt>
      <trkpt lat="46.19911" lon="-0.96306">
        <ele>15.6</ele>
        <time>2020-05-31T16:32:38Z</time>
      </trkpt>
      <trkpt lat="46.19906" lon="-0.9631">
        <ele>15.7</ele>
        <time>2020-05-31T16:32:39Z</time>
      </trkpt>
      <trkpt lat="46.19901" lon="-0.96314">
        <ele>15.8</ele>
        <time>2020-05-31T16:32:40Z</time>
      </trkpt>
      <trkpt lat="46.19895" lon="-0.96317">
        <ele>15.9</ele>
        <time>2020-05-31T16:32:41Z</time>
      </trkpt>
      <trkpt lat="46.1989" lon="-0.9632">
        <ele>16</ele>
        <time>2020-05-31T16:32:42Z</time>
      </trkpt>
      <trkpt lat="46.19884" lon="-0.96323">
        <ele>16.1</ele>
        <time>2020-05-31T16:32:43Z</time>
      </trkpt>
      <trkpt lat="46.19879" lon="-0.96327">
        <ele>16.2</ele>
        <time>2020-05-31T16:32:44Z</time>
      </trkpt>
      <trkpt lat="46.19873" lon="-0.9633">
        <ele>16.3</ele>
        <time>2020-05-31T16:32:45Z</time>
      </trkpt>
      <trkpt lat="46.19867" lon="-0.96334">
        <ele>16.4</ele>
        <time>2020-05-31T16:32:46Z</time>
      </trkpt>
      <trkpt lat="46.19862" lon="-0.96338">
        <ele>16.5</ele>
        <time>2020-05-31T16:32:47Z</time>
      </trkpt>
      <trkpt lat="46.19857" lon="-0.96343">
        <ele>16.6</ele>
        <time>2020-05-31T16:32:48Z</time>
      </trkpt>
      <trkpt lat="46.19851" lon="-0.96348">
        <ele>16.8</ele>
        <time>2020-05-31T16:32:49Z</time>
      </trkpt>
      <trkpt lat="46.19846" lon="-0.96352">
        <ele>16.9</ele>
        <time>2020-05-31T16:32:50Z</time>
      </trkpt>
      <trkpt lat="46.1984" lon="-0.96355">
        <ele>17</ele>
        <time>2020-05-31T16:32:51Z</time>
      </trkpt>
      <trkpt lat="46.19835" lon="-0.9636">
        <ele>17.2</ele>
        <time>2020-05-31T16:32:52Z</time>
      </trkpt>
      <trkpt lat="46.1983" lon="-0.96364">
        <ele>17.3</ele>
        <time>2020-05-31T16:32:53Z</time>
      </trkpt>
      <trkpt lat="46.19825" lon="-0.9637">
        <ele>17.5</ele>
        <time>2020-05-31T16:32:54Z</time>
      </trkpt>
      <trkpt lat="46.1982" lon="-0.96373">
        <ele>17.7</ele>
        <time>2020-05-31T16:32:55Z</time>
      </trkpt>
      <trkpt lat="46.19815" lon="-0.96375">
        <ele>17.9</ele>
        <time>2020-05-31T16:32:56Z</time>
      </trkpt>
      <trkpt lat="46.1981" lon="-0.9638">
        <ele>18</ele>
        <time>2020-05-31T16:32:57Z</time>
      </trkpt>
      <trkpt lat="46.19805" lon="-0.96383">
        <ele>18.2</ele>
        <time>2020-05-31T16:32:58Z</time>
      </trkpt>
      <trkpt lat="46.19801" lon="-0.96387">
        <ele>18.3</ele>
        <time>2020-05-31T16:32:59Z</time>
      </trkpt>
      <trkpt lat="46.19796" lon="-0.96392">
        <ele>18.5</ele>
        <time>2020-05-31T16:33:00Z</time>
      </trkpt>
      <trkpt lat="46.19792" lon="-0.96397">
        <ele>18.7</ele>
        <time>2020-05-31T16:33:01Z</time>
      </trkpt>
      <trkpt lat="46.19788" lon="-0.96401">
        <ele>18.9</ele>
        <time>2020-05-31T16:33:02Z</time>
      </trkpt>
      <trkpt lat="46.19783" lon="-0.96405">
        <ele>19.2</ele>
        <time>2020-05-31T16:33:03Z</time>
      </trkpt>
      <trkpt lat="46.19779" lon="-0.96409">
        <ele>19.5</ele>
        <time>2020-05-31T16:33:04Z</time>
      </trkpt>
      <trkpt lat="46.19774" lon="-0.96412">
        <ele>19.7</ele>
        <time>2020-05-31T16:33:05Z</time>
      </trkpt>
      <trkpt lat="46.1977" lon="-0.96415">
        <ele>20</ele>
        <time>2020-05-31T16:33:06Z</time>
      </trkpt>
      <trkpt lat="46.19765" lon="-0.96418">
        <ele>20.3</ele>
        <time>2020-05-31T16:33:07Z</time>
      </trkpt>
      <trkpt lat="46.19761" lon="-0.96422">
        <ele>20.6</ele>
        <time>2020-05-31T16:33:08Z</time>
      </trkpt>
      <trkpt lat="46.19756" lon="-0.96425">
        <ele>20.9</ele>
        <time>2020-05-31T16:33:09Z</time>
      </trkpt>
      <trkpt lat="46.19752" lon="-0.96429">
        <ele>21.2</ele>
        <time>2020-05-31T16:33:10Z</time>
      </trkpt>
      <trkpt lat="46.19747" lon="-0.96432">
        <ele>21.4</ele>
        <time>2020-05-31T16:33:11Z</time>
      </trkpt>
      <trkpt lat="46.19743" lon="-0.96435">
        <ele>21.7</ele>
        <time>2020-05-31T16:33:12Z</time>
      </trkpt>
      <trkpt lat="46.19739" lon="-0.96438">
        <ele>22</ele>
        <time>2020-05-31T16:33:13Z</time>
      </trkpt>
      <trkpt lat="46.19734" lon="-0.96441">
        <ele>22.3</ele>
        <time>2020-05-31T16:33:14Z</time>
      </trkpt>
      <trkpt lat="46.1973" lon="-0.96445">
        <ele>22.5</ele>
        <time>2020-05-31T16:33:15Z</time>
      </trkpt>
      <trkpt lat="46.19727" lon="-0.96449">
        <ele>22.8</ele>
        <time>2020-05-31T16:33:16Z</time>
      </trkpt>
      <trkpt lat="46.19723" lon="-0.96451">
        <ele>23.1</ele>
        <time>2020-05-31T16:33:17Z</time>
      </trkpt>
      <trkpt lat="46.19719" lon="-0.96454">
        <ele>23.4</ele>
        <time>2020-05-31T16:33:18Z</time>
      </trkpt>
      <trkpt lat="46.19715" lon="-0.96457">
        <ele>23.7</ele>
        <time>2020-05-31T16:33:19Z</time>
      </trkpt>
      <trkpt lat="46.19711" lon="-0.9646">
        <ele>23.9</ele>
        <time>2020-05-31T16:33:20Z</time>
      </trkpt>
      <trkpt lat="46.19707" lon="-0.96462">
        <ele>24.2</ele>
        <time>2020-05-31T16:33:21Z</time>
      </trkpt>
      <trkpt lat="46.19704" lon="-0.96465">
        <ele>24.5</ele>
        <time>2020-05-31T16:33:22Z</time>
      </trkpt>
      <trkpt lat="46.197" lon="-0.96467">
        <ele>24.7</ele>
        <time>2020-05-31T16:33:23Z</time>
      </trkpt>
      <trkpt lat="46.19696" lon="-0.9647">
        <ele>25</ele>
        <time>2020-05-31T16:33:24Z</time>
      </trkpt>
      <trkpt lat="46.19693" lon="-0.96472">
        <ele>25.3</ele>
        <time>2020-05-31T16:33:25Z</time>
      </trkpt>
      <trkpt lat="46.19689" lon="-0.96476">
        <ele>25.6</ele>
        <time>2020-05-31T16:33:26Z</time>
      </trkpt>
      <trkpt lat="46.19685" lon="-0.96479">
        <ele>25.9</ele>
        <time>2020-05-31T16:33:27Z</time>
      </trkpt>
      <trkpt lat="46.19682" lon="-0.96483">
        <ele>26.2</ele>
        <time>2020-05-31T16:33:28Z</time>
      </trkpt>
      <trkpt lat="46.19679" lon="-0.96486">
        <ele>26.4</ele>
        <time>2020-05-31T16:33:29Z</time>
      </trkpt>
      <trkpt lat="46.19675" lon="-0.96488">
        <ele>26.7</ele>
        <time>2020-05-31T16:33:30Z</time>
      </trkpt>
      <trkpt lat="46.19672" lon="-0.9649">
        <ele>27</ele>
        <time>2020-05-31T16:33:31Z</time>
      </trkpt>
      <trkpt lat="46.19668" lon="-0.96492">
        <ele>27.2</ele>
        <time>2020-05-31T16:33:32Z</time>
      </trkpt>
      <trkpt lat="46.19665" lon="-0.96495">
        <ele>27.4</ele>
        <time>2020-05-31T16:33:33Z</time>
      </trkpt>
      <trkpt lat="46.19662" lon="-0.96497">
        <ele>27.6</ele>
        <time>2020-05-31T16:33:34Z</time>
      </trkpt>
      <trkpt lat="46.1966" lon="-0.96499">
        <ele>27.8</ele>
        <time>2020-05-31T16:33:35Z</time>
      </trkpt>
      <trkpt lat="46.19657" lon="-0.96501">
        <ele>28</ele>
        <time>2020-05-31T16:33:36Z</time>
      </trkpt>
      <trkpt lat="46.19654" lon="-0.96504">
        <ele>28.2</ele>
        <time>2020-05-31T16:33:37Z</time>
      </trkpt>
      <trkpt lat="46.19652" lon="-0.96507">
        <ele>28.4</ele>
        <time>2020-05-31T16:33:38Z</time>
      </trkpt>
      <trkpt lat="46.19649" lon="-0.96509">
        <ele>28.5</ele>
        <time>2020-05-31T16:33:39Z</time>
      </trkpt>
      <trkpt lat="46.19646" lon="-0.96511">
        <ele>28.7</ele>
        <time>2020-05-31T16:33:40Z</time>
      </trkpt>
      <trkpt lat="46.19643" lon="-0.96512">
        <ele>28.8</ele>
        <time>2020-05-31T16:33:41Z</time>
      </trkpt>
      <trkpt lat="46.1964" lon="-0.96514">
        <ele>29</ele>
        <time>2020-05-31T16:33:42Z</time>
      </trkpt>
      <trkpt lat="46.19638" lon="-0.96517">
        <ele>29.1</ele>
        <time>2020-05-31T16:33:43Z</time>
      </trkpt>
      <trkpt lat="46.19636" lon="-0.9652">
        <ele>29.3</ele>
        <time>2020-05-31T16:33:44Z</time>
      </trkpt>
      <trkpt lat="46.19633" lon="-0.96523">
        <ele>29.2</ele>
        <time>2020-05-31T16:33:45Z</time>
      </trkpt>
      <trkpt lat="46.19631" lon="-0.96526">
        <ele>29.1</ele>
        <time>2020-05-31T16:33:46Z</time>
      </trkpt>
      <trkpt lat="46.19628" lon="-0.96529">
        <ele>29</ele>
        <time>2020-05-31T16:33:47Z</time>
      </trkpt>
      <trkpt lat="46.19625" lon="-0.9653">
        <ele>28.9</ele>
        <time>2020-05-31T16:33:48Z</time>
      </trkpt>
      <trkpt lat="46.19624" lon="-0.96535">
        <ele>29</ele>
        <time>2020-05-31T16:33:49Z</time>
      </trkpt>
      <trkpt lat="46.19623" lon="-0.96539">
        <ele>29</ele>
        <time>2020-05-31T16:33:50Z</time>
      </trkpt>
      <trkpt lat="46.19622" lon="-0.96543">
        <ele>29.1</ele>
        <time>2020-05-31T16:33:51Z</time>
      </trkpt>
      <trkpt lat="46.19618" lon="-0.96546">
        <ele>29.3</ele>
        <time>2020-05-31T16:33:52Z</time>
      </trkpt>
      <trkpt lat="46.19617" lon="-0.96547">
        <ele>29.4</ele>
        <time>2020-05-31T16:33:53Z</time>
      </trkpt>
      <trkpt lat="46.19613" lon="-0.96546">
        <ele>29.5</ele>
        <time>2020-05-31T16:33:54Z</time>
      </trkpt>
      <trkpt lat="46.19612" lon="-0.96546">
        <ele>29.6</ele>
        <time>2020-05-31T16:33:55Z</time>
      </trkpt>
      <trkpt lat="46.19609" lon="-0.96544">
        <ele>29.7</ele>
        <time>2020-05-31T16:33:56Z</time>
      </trkpt>
      <trkpt lat="46.19607" lon="-0.96544">
        <ele>29.9</ele>
        <time>2020-05-31T16:33:57Z</time>
      </trkpt>
      <trkpt lat="46.19604" lon="-0.96545">
        <ele>30</ele>
        <time>2020-05-31T16:33:58Z</time>
      </trkpt>
      <trkpt lat="46.19603" lon="-0.96545">
        <ele>30.1</ele>
        <time>2020-05-31T16:33:59Z</time>
      </trkpt>
      <trkpt lat="46.196" lon="-0.96546">
        <ele>30.2</ele>
        <time>2020-05-31T16:34:00Z</time>
      </trkpt>
      <trkpt lat="46.19597" lon="-0.96548">
        <ele>30.4</ele>
        <time>2020-05-31T16:34:01Z</time>
      </trkpt>
      <trkpt lat="46.19595" lon="-0.96549">
        <ele>30.4</ele>
        <time>2020-05-31T16:34:02Z</time>
      </trkpt>
      <trkpt lat="46.19592" lon="-0.96549">
        <ele>30.5</ele>
        <time>2020-05-31T16:34:03Z</time>
      </trkpt>
      <trkpt lat="46.19588" lon="-0.9655">
        <ele>30.5</ele>
        <time>2020-05-31T16:34:04Z</time>
      </trkpt>
      <trkpt lat="46.19585" lon="-0.9655">
        <ele>30.6</ele>
        <time>2020-05-31T16:34:05Z</time>
      </trkpt>
      <trkpt lat="46.19582" lon="-0.9655">
        <ele>30.6</ele>
        <time>2020-05-31T16:34:06Z</time>
      </trkpt>
      <trkpt lat="46.19578" lon="-0.96552">
        <ele>30.7</ele>
        <time>2020-05-31T16:34:07Z</time>
      </trkpt>
      <trkpt lat="46.19574" lon="-0.96552">
        <ele>30.8</ele>
        <time>2020-05-31T16:34:08Z</time>
      </trkpt>
      <trkpt lat="46.1957" lon="-0.96551">
        <ele>30.9</ele>
        <time>2020-05-31T16:34:09Z</time>
      </trkpt>
      <trkpt lat="46.19566" lon="-0.96552">
        <ele>31</ele>
        <time>2020-05-31T16:34:10Z</time>
      </trkpt>
      <trkpt lat="46.19561" lon="-0.96554">
        <ele>31.1</ele>
        <time>2020-05-31T16:34:11Z</time>
      </trkpt>
      <trkpt lat="46.19557" lon="-0.96554">
        <ele>31.2</ele>
        <time>2020-05-31T16:34:12Z</time>
      </trkpt>
      <trkpt lat="46.19555" lon="-0.96554">
        <ele>31.3</ele>
        <time>2020-05-31T16:34:13Z</time>
      </trkpt>
      <trkpt lat="46.19552" lon="-0.96557">
        <ele>31.3</ele>
        <time>2020-05-31T16:34:14Z</time>
      </trkpt>
      <trkpt lat="46.19549" lon="-0.96557">
        <ele>31.4</ele>
        <time>2020-05-31T16:34:15Z</time>
      </trkpt>
      <trkpt lat="46.19547" lon="-0.96557">
        <ele>31.4</ele>
        <time>2020-05-31T16:34:16Z</time>
      </trkpt>
      <trkpt lat="46.19545" lon="-0.96557">
        <ele>31.5</ele>
        <time>2020-05-31T16:34:17Z</time>
      </trkpt>
      <trkpt lat="46.19543" lon="-0.96557">
        <ele>31.5</ele>
        <time>2020-05-31T16:34:18Z</time>
      </trkpt>
      <trkpt lat="46.19542" lon="-0.96558">
        <ele>31.5</ele>
        <time>2020-05-31T16:34:19Z</time>
      </trkpt>
      <trkpt lat="46.19541" lon="-0.96559">
        <ele>31.5</ele>
        <time>2020-05-31T16:34:20Z</time>
      </trkpt>
      <trkpt lat="46.19541" lon="-0.96559">
        <ele>31.5</ele>
        <time>2020-05-31T16:34:21Z</time>
      </trkpt>
      <trkpt lat="46.19542" lon="-0.9656">
        <ele>31.6</ele>
        <time>2020-05-31T16:34:22Z</time>
      </trkpt>
      <trkpt lat="46.19541" lon="-0.9656">
        <ele>31.6</ele>
        <time>2020-05-31T16:34:23Z</time>
      </trkpt>
      <trkpt lat="46.19542" lon="-0.9656">
        <ele>31.6</ele>
        <time>2020-05-31T16:34:24Z</time>
      </trkpt>
      <trkpt lat="46.19543" lon="-0.96559">
        <ele>31.6</ele>
        <time>2020-05-31T16:34:25Z</time>
      </trkpt>
      <trkpt lat="46.19542" lon="-0.96559">
        <ele>31.6</ele>
        <time>2020-05-31T16:34:26Z</time>
      </trkpt>
      <trkpt lat="46.19542" lon="-0.96559">
        <ele>31.6</ele>
        <time>2020-05-31T16:34:27Z</time>
      </trkpt>
      <trkpt lat="46.19543" lon="-0.96559">
        <ele>31.6</ele>
        <time>2020-05-31T16:34:28Z</time>
      </trkpt>
      <trkpt lat="46.19543" lon="-0.96559">
        <ele>31.6</ele>
        <time>2020-05-31T16:34:29Z</time>
      </trkpt>
      <trkpt lat="46.19543" lon="-0.96559">
        <ele>31.6</ele>
        <time>2020-05-31T16:34:30Z</time>
      </trkpt>
      <trkpt lat="46.19543" lon="-0.96559">
        <ele>31.6</ele>
        <time>2020-05-31T16:34:31Z</time>
      </trkpt>
      <trkpt lat="46.19542" lon="-0.96559">
        <ele>31.6</ele>
        <time>2020-05-31T16:34:32Z</time>
      </trkpt>
      <trkpt lat="46.19542" lon="-0.96559">
        <ele>31.6</ele>
        <time>2020-05-31T16:34:33Z</time>
      </trkpt>
      <trkpt lat="46.19543" lon="-0.96559">
        <ele>31.6</ele>
        <time>2020-05-31T16:34:34Z</time>
      </trkpt>
      <trkpt lat="46.19543" lon="-0.96558">
        <ele>31.6</ele>
        <time>2020-05-31T16:34:35Z</time>
      </trkpt>
      <trkpt lat="46.19543" lon="-0.96558">
        <ele>31.7</ele>
        <time>2020-05-31T16:34:36Z</time>
      </trkpt>
      <trkpt lat="46.19543" lon="-0.96558">
        <ele>31.7</ele>
        <time>2020-05-31T16:34:37Z</time>
      </trkpt>
      <trkpt lat="46.19542" lon="-0.96559">
        <ele>31.7</ele>
        <time>2020-05-31T16:34:38Z</time>
      </trkpt>
      <trkpt lat="46.19542" lon="-0.96559">
        <ele>31.7</ele>
        <time>2020-05-31T16:34:39Z</time>
      </trkpt>
      <trkpt lat="46.19542" lon="-0.96559">
        <ele>31.7</ele>
        <time>2020-05-31T16:34:40Z</time>
      </trkpt>
      <trkpt lat="46.19542" lon="-0.96559">
        <ele>31.7</ele>
        <time>2020-05-31T16:34:41Z</time>
      </trkpt>
      <trkpt lat="46.19542" lon="-0.96559">
        <ele>31.7</ele>
        <time>2020-05-31T16:34:42Z</time>
      </trkpt>
      <trkpt lat="46.19542" lon="-0.96559">
        <ele>31.7</ele>
        <time>2020-05-31T16:34:43Z</time>
      </trkpt>
      <trkpt lat="46.19542" lon="-0.96559">
        <ele>31.7</ele>
        <time>2020-05-31T16:34:44Z</time>
      </trkpt>
      <trkpt lat="46.19542" lon="-0.96559">
        <ele>31.7</ele>
        <time>2020-05-31T16:34:45Z</time>
      </trkpt>
      <trkpt lat="46.19542" lon="-0.9656">
        <ele>31.7</ele>
        <time>2020-05-31T16:34:46Z</time>
      </trkpt>
      <trkpt lat="46.19542" lon="-0.9656">
        <ele>31.7</ele>
        <time>2020-05-31T16:34:47Z</time>
      </trkpt>
      <trkpt lat="46.19542" lon="-0.9656">
        <ele>31.7</ele>
        <time>2020-05-31T16:34:48Z</time>
      </trkpt>
      <trkpt lat="46.19542" lon="-0.96559">
        <ele>31.7</ele>
        <time>2020-05-31T16:34:49Z</time>
      </trkpt>
      <trkpt lat="46.19542" lon="-0.96559">
        <ele>31.7</ele>
        <time>2020-05-31T16:34:50Z</time>
      </trkpt>
      <trkpt lat="46.19543" lon="-0.96559">
        <ele>31.7</ele>
        <time>2020-05-31T16:34:51Z</time>
      </trkpt>
      <trkpt lat="46.19542" lon="-0.96559">
        <ele>31.7</ele>
        <time>2020-05-31T16:34:52Z</time>
      </trkpt>
      <trkpt lat="46.19542" lon="-0.96559">
        <ele>31.7</ele>
        <time>2020-05-31T16:34:53Z</time>
      </trkpt>
      <trkpt lat="46.19543" lon="-0.96559">
        <ele>31.7</ele>
        <time>2020-05-31T16:34:54Z</time>
      </trkpt>
      <trkpt lat="46.19543" lon="-0.96559">
        <ele>31.7</ele>
        <time>2020-05-31T16:34:55Z</time>
      </trkpt>
      <trkpt lat="46.19543" lon="-0.9656">
        <ele>31.8</ele>
        <time>2020-05-31T16:34:56Z</time>
      </trkpt>
      <trkpt lat="46.19543" lon="-0.9656">
        <ele>31.8</ele>
        <time>2020-05-31T16:34:57Z</time>
      </trkpt>
      <trkpt lat="46.19544" lon="-0.96559">
        <ele>31.8</ele>
        <time>2020-05-31T16:34:58Z</time>
      </trkpt>
      <trkpt lat="46.19544" lon="-0.96558">
        <ele>31.8</ele>
        <time>2020-05-31T16:34:59Z</time>
      </trkpt>
      <trkpt lat="46.19544" lon="-0.96558">
        <ele>31.8</ele>
        <time>2020-05-31T16:35:00Z</time>
      </trkpt>
      <trkpt lat="46.19544" lon="-0.96558">
        <ele>31.8</ele>
        <time>2020-05-31T16:35:01Z</time>
      </trkpt>
      <trkpt lat="46.19544" lon="-0.96558">
        <ele>31.8</ele>
        <time>2020-05-31T16:35:02Z</time>
      </trkpt>
      <trkpt lat="46.19543" lon="-0.96558">
        <ele>31.8</ele>
        <time>2020-05-31T16:35:03Z</time>
      </trkpt>
      <trkpt lat="46.19543" lon="-0.96559">
        <ele>31.8</ele>
        <time>2020-05-31T16:35:04Z</time>
      </trkpt>
      <trkpt lat="46.19543" lon="-0.96559">
        <ele>31.8</ele>
        <time>2020-05-31T16:35:05Z</time>
      </trkpt>
      <trkpt lat="46.19542" lon="-0.96559">
        <ele>31.8</ele>
        <time>2020-05-31T16:35:06Z</time>
      </trkpt>
      <trkpt lat="46.19542" lon="-0.96559">
        <ele>31.8</ele>
        <time>2020-05-31T16:35:07Z</time>
      </trkpt>
      <trkpt lat="46.19542" lon="-0.9656">
        <ele>31.8</ele>
        <time>2020-05-31T16:35:08Z</time>
      </trkpt>
      <trkpt lat="46.19541" lon="-0.9656">
        <ele>31.8</ele>
        <time>2020-05-31T16:35:09Z</time>
      </trkpt>
      <trkpt lat="46.19541" lon="-0.9656">
        <ele>31.9</ele>
        <time>2020-05-31T16:35:10Z</time>
      </trkpt>
      <trkpt lat="46.19541" lon="-0.9656">
        <ele>31.9</ele>
        <time>2020-05-31T16:35:11Z</time>
      </trkpt>
      <trkpt lat="46.1954" lon="-0.9656">
        <ele>31.9</ele>
        <time>2020-05-31T16:35:12Z</time>
      </trkpt>
      <trkpt lat="46.1954" lon="-0.96561">
        <ele>31.9</ele>
        <time>2020-05-31T16:35:13Z</time>
      </trkpt>
      <trkpt lat="46.19539" lon="-0.96561">
        <ele>31.9</ele>
        <time>2020-05-31T16:35:14Z</time>
      </trkpt>
      <trkpt lat="46.19537" lon="-0.96562">
        <ele>31.9</ele>
        <time>2020-05-31T16:35:15Z</time>
      </trkpt>
      <trkpt lat="46.19534" lon="-0.96562">
        <ele>32</ele>
        <time>2020-05-31T16:35:16Z</time>
      </trkpt>
      <trkpt lat="46.19531" lon="-0.96562">
        <ele>32.1</ele>
        <time>2020-05-31T16:35:17Z</time>
      </trkpt>
      <trkpt lat="46.19527" lon="-0.96562">
        <ele>32.2</ele>
        <time>2020-05-31T16:35:18Z</time>
      </trkpt>
      <trkpt lat="46.19524" lon="-0.96563">
        <ele>32.2</ele>
        <time>2020-05-31T16:35:19Z</time>
      </trkpt>
      <trkpt lat="46.19521" lon="-0.96563">
        <ele>32.3</ele>
        <time>2020-05-31T16:35:20Z</time>
      </trkpt>
      <trkpt lat="46.19519" lon="-0.96564">
        <ele>32.3</ele>
        <time>2020-05-31T16:35:21Z</time>
      </trkpt>
      <trkpt lat="46.19517" lon="-0.96564">
        <ele>32.4</ele>
        <time>2020-05-31T16:35:22Z</time>
      </trkpt>
      <trkpt lat="46.19513" lon="-0.96564">
        <ele>32.4</ele>
        <time>2020-05-31T16:35:23Z</time>
      </trkpt>
      <trkpt lat="46.1951" lon="-0.96565">
        <ele>32.5</ele>
        <time>2020-05-31T16:35:24Z</time>
      </trkpt>
      <trkpt lat="46.19507" lon="-0.96565">
        <ele>32.5</ele>
        <time>2020-05-31T16:35:25Z</time>
      </trkpt>
      <trkpt lat="46.19503" lon="-0.96564">
        <ele>32.6</ele>
        <time>2020-05-31T16:35:26Z</time>
      </trkpt>
      <trkpt lat="46.195" lon="-0.96563">
        <ele>32.6</ele>
        <time>2020-05-31T16:35:27Z</time>
      </trkpt>
      <trkpt lat="46.19496" lon="-0.96563">
        <ele>32.7</ele>
        <time>2020-05-31T16:35:28Z</time>
      </trkpt>
      <trkpt lat="46.19495" lon="-0.96563">
        <ele>32.7</ele>
        <time>2020-05-31T16:35:29Z</time>
      </trkpt>
      <trkpt lat="46.19493" lon="-0.96562">
        <ele>32.7</ele>
        <time>2020-05-31T16:35:30Z</time>
      </trkpt>
      <trkpt lat="46.19492" lon="-0.96562">
        <ele>32.7</ele>
        <time>2020-05-31T16:35:31Z</time>
      </trkpt>
      <trkpt lat="46.19488" lon="-0.96561">
        <ele>32.7</ele>
        <time>2020-05-31T16:35:32Z</time>
      </trkpt>
      <trkpt lat="46.19487" lon="-0.96562">
        <ele>32.7</ele>
        <time>2020-05-31T16:35:33Z</time>
      </trkpt>
      <trkpt lat="46.19483" lon="-0.96562">
        <ele>32.7</ele>
        <time>2020-05-31T16:35:34Z</time>
      </trkpt>
      <trkpt lat="46.19479" lon="-0.96563">
        <ele>32.7</ele>
        <time>2020-05-31T16:35:35Z</time>
      </trkpt>
      <trkpt lat="46.19476" lon="-0.96562">
        <ele>32.7</ele>
        <time>2020-05-31T16:35:36Z</time>
      </trkpt>
      <trkpt lat="46.19473" lon="-0.96562">
        <ele>32.7</ele>
        <time>2020-05-31T16:35:37Z</time>
      </trkpt>
      <trkpt lat="46.19468" lon="-0.96563">
        <ele>32.7</ele>
        <time>2020-05-31T16:35:38Z</time>
      </trkpt>
      <trkpt lat="46.19462" lon="-0.96563">
        <ele>32.7</ele>
        <time>2020-05-31T16:35:39Z</time>
      </trkpt>
      <trkpt lat="46.19459" lon="-0.96563">
        <ele>32.7</ele>
        <time>2020-05-31T16:35:40Z</time>
      </trkpt>
      <trkpt lat="46.19454" lon="-0.96563">
        <ele>32.7</ele>
        <time>2020-05-31T16:35:41Z</time>
      </trkpt>
      <trkpt lat="46.19451" lon="-0.96563">
        <ele>32.7</ele>
        <time>2020-05-31T16:35:42Z</time>
      </trkpt>
      <trkpt lat="46.19447" lon="-0.96564">
        <ele>32.7</ele>
        <time>2020-05-31T16:35:43Z</time>
      </trkpt>
      <trkpt lat="46.19443" lon="-0.96564">
        <ele>32.7</ele>
        <time>2020-05-31T16:35:44Z</time>
      </trkpt>
      <trkpt lat="46.19438" lon="-0.96564">
        <ele>32.7</ele>
        <time>2020-05-31T16:35:45Z</time>
      </trkpt>
      <trkpt lat="46.19435" lon="-0.96564">
        <ele>32.7</ele>
        <time>2020-05-31T16:35:46Z</time>
      </trkpt>
      <trkpt lat="46.19435" lon="-0.96564">
        <ele>32.7</ele>
        <time>2020-05-31T16:35:47Z</time>
      </trkpt>
      <trkpt lat="46.19428" lon="-0.96565">
        <ele>32.7</ele>
        <time>2020-05-31T16:35:48Z</time>
      </trkpt>
      <trkpt lat="46.19424" lon="-0.96565">
        <ele>32.7</ele>
        <time>2020-05-31T16:35:49Z</time>
      </trkpt>
      <trkpt lat="46.19419" lon="-0.96566">
        <ele>32.7</ele>
        <time>2020-05-31T16:35:50Z</time>
      </trkpt>
      <trkpt lat="46.19414" lon="-0.96567">
        <ele>32.7</ele>
        <time>2020-05-31T16:35:51Z</time>
      </trkpt>
      <trkpt lat="46.1941" lon="-0.96568">
        <ele>32.7</ele>
        <time>2020-05-31T16:35:52Z</time>
      </trkpt>
      <trkpt lat="46.19406" lon="-0.96568">
        <ele>32.7</ele>
        <time>2020-05-31T16:35:53Z</time>
      </trkpt>
      <trkpt lat="46.19402" lon="-0.9657">
        <ele>32.8</ele>
        <time>2020-05-31T16:35:54Z</time>
      </trkpt>
      <trkpt lat="46.19397" lon="-0.96571">
        <ele>32.8</ele>
        <time>2020-05-31T16:35:55Z</time>
      </trkpt>
      <trkpt lat="46.19393" lon="-0.96572">
        <ele>32.8</ele>
        <time>2020-05-31T16:35:56Z</time>
      </trkpt>
      <trkpt lat="46.19392" lon="-0.96573">
        <ele>32.9</ele>
        <time>2020-05-31T16:35:57Z</time>
      </trkpt>
      <trkpt lat="46.19389" lon="-0.96577">
        <ele>33</ele>
        <time>2020-05-31T16:35:58Z</time>
      </trkpt>
      <trkpt lat="46.19386" lon="-0.96581">
        <ele>33.1</ele>
        <time>2020-05-31T16:35:59Z</time>
      </trkpt>
      <trkpt lat="46.19384" lon="-0.96584">
        <ele>33.1</ele>
        <time>2020-05-31T16:36:00Z</time>
      </trkpt>
      <trkpt lat="46.19382" lon="-0.96587">
        <ele>33.2</ele>
        <time>2020-05-31T16:36:01Z</time>
      </trkpt>
      <trkpt lat="46.1938" lon="-0.96592">
        <ele>33.3</ele>
        <time>2020-05-31T16:36:02Z</time>
      </trkpt>
      <trkpt lat="46.19379" lon="-0.96598">
        <ele>33.4</ele>
        <time>2020-05-31T16:36:03Z</time>
      </trkpt>
      <trkpt lat="46.19377" lon="-0.96602">
        <ele>33.5</ele>
        <time>2020-05-31T16:36:04Z</time>
      </trkpt>
      <trkpt lat="46.19375" lon="-0.96607">
        <ele>33.6</ele>
        <time>2020-05-31T16:36:05Z</time>
      </trkpt>
      <trkpt lat="46.19374" lon="-0.96614">
        <ele>33.7</ele>
        <time>2020-05-31T16:36:06Z</time>
      </trkpt>
      <trkpt lat="46.19371" lon="-0.96619">
        <ele>33.8</ele>
        <time>2020-05-31T16:36:07Z</time>
      </trkpt>
      <trkpt lat="46.19369" lon="-0.96625">
        <ele>33.9</ele>
        <time>2020-05-31T16:36:08Z</time>
      </trkpt>
      <trkpt lat="46.19367" lon="-0.9663">
        <ele>34</ele>
        <time>2020-05-31T16:36:09Z</time>
      </trkpt>
      <trkpt lat="46.19364" lon="-0.96637">
        <ele>34.1</ele>
        <time>2020-05-31T16:36:10Z</time>
      </trkpt>
      <trkpt lat="46.19361" lon="-0.96642">
        <ele>34.3</ele>
        <time>2020-05-31T16:36:11Z</time>
      </trkpt>
      <trkpt lat="46.19357" lon="-0.96648">
        <ele>34.4</ele>
        <time>2020-05-31T16:36:12Z</time>
      </trkpt>
      <trkpt lat="46.19354" lon="-0.96654">
        <ele>34.6</ele>
        <time>2020-05-31T16:36:13Z</time>
      </trkpt>
      <trkpt lat="46.1935" lon="-0.96661">
        <ele>35</ele>
        <time>2020-05-31T16:36:14Z</time>
      </trkpt>
      <trkpt lat="46.19347" lon="-0.96668">
        <ele>35.1</ele>
        <time>2020-05-31T16:36:15Z</time>
      </trkpt>
      <trkpt lat="46.19343" lon="-0.96672">
        <ele>35.2</ele>
        <time>2020-05-31T16:36:16Z</time>
      </trkpt>
      <trkpt lat="46.19339" lon="-0.96676">
        <ele>35.3</ele>
        <time>2020-05-31T16:36:17Z</time>
      </trkpt>
      <trkpt lat="46.19336" lon="-0.96681">
        <ele>35.5</ele>
        <time>2020-05-31T16:36:18Z</time>
      </trkpt>
      <trkpt lat="46.19334" lon="-0.96687">
        <ele>35.5</ele>
        <time>2020-05-31T16:36:19Z</time>
      </trkpt>
      <trkpt lat="46.19332" lon="-0.96693">
        <ele>35.6</ele>
        <time>2020-05-31T16:36:20Z</time>
      </trkpt>
      <trkpt lat="46.1933" lon="-0.967">
        <ele>35.7</ele>
        <time>2020-05-31T16:36:21Z</time>
      </trkpt>
      <trkpt lat="46.19328" lon="-0.96706">
        <ele>35.7</ele>
        <time>2020-05-31T16:36:22Z</time>
      </trkpt>
      <trkpt lat="46.19327" lon="-0.96712">
        <ele>35.8</ele>
        <time>2020-05-31T16:36:23Z</time>
      </trkpt>
      <trkpt lat="46.19326" lon="-0.96717">
        <ele>35.8</ele>
        <time>2020-05-31T16:36:24Z</time>
      </trkpt>
      <trkpt lat="46.19324" lon="-0.96721">
        <ele>35.8</ele>
        <time>2020-05-31T16:36:25Z</time>
      </trkpt>
      <trkpt lat="46.19321" lon="-0.96723">
        <ele>35.8</ele>
        <time>2020-05-31T16:36:26Z</time>
      </trkpt>
      <trkpt lat="46.19317" lon="-0.96725">
        <ele>35.5</ele>
        <time>2020-05-31T16:36:27Z</time>
      </trkpt>
      <trkpt lat="46.19313" lon="-0.96729">
        <ele>35.5</ele>
        <time>2020-05-31T16:36:28Z</time>
      </trkpt>
      <trkpt lat="46.1931" lon="-0.96733">
        <ele>35.5</ele>
        <time>2020-05-31T16:36:29Z</time>
      </trkpt>
      <trkpt lat="46.19306" lon="-0.96737">
        <ele>35.5</ele>
        <time>2020-05-31T16:36:30Z</time>
      </trkpt>
      <trkpt lat="46.19302" lon="-0.9674">
        <ele>35.4</ele>
        <time>2020-05-31T16:36:31Z</time>
      </trkpt>
      <trkpt lat="46.19298" lon="-0.96743">
        <ele>35.4</ele>
        <time>2020-05-31T16:36:32Z</time>
      </trkpt>
      <trkpt lat="46.19294" lon="-0.96745">
        <ele>35.4</ele>
        <time>2020-05-31T16:36:33Z</time>
      </trkpt>
      <trkpt lat="46.19291" lon="-0.96749">
        <ele>35.3</ele>
        <time>2020-05-31T16:36:34Z</time>
      </trkpt>
      <trkpt lat="46.19287" lon="-0.96753">
        <ele>35.3</ele>
        <time>2020-05-31T16:36:35Z</time>
      </trkpt>
      <trkpt lat="46.19284" lon="-0.96756">
        <ele>35.3</ele>
        <time>2020-05-31T16:36:36Z</time>
      </trkpt>
      <trkpt lat="46.19281" lon="-0.96759">
        <ele>35.2</ele>
        <time>2020-05-31T16:36:37Z</time>
      </trkpt>
      <trkpt lat="46.19277" lon="-0.96762">
        <ele>35.2</ele>
        <time>2020-05-31T16:36:38Z</time>
      </trkpt>
      <trkpt lat="46.19273" lon="-0.96765">
        <ele>35.1</ele>
        <time>2020-05-31T16:36:39Z</time>
      </trkpt>
      <trkpt lat="46.1927" lon="-0.96769">
        <ele>35.1</ele>
        <time>2020-05-31T16:36:40Z</time>
      </trkpt>
      <trkpt lat="46.19266" lon="-0.96771">
        <ele>35</ele>
        <time>2020-05-31T16:36:41Z</time>
      </trkpt>
      <trkpt lat="46.19262" lon="-0.96773">
        <ele>34.9</ele>
        <time>2020-05-31T16:36:42Z</time>
      </trkpt>
      <trkpt lat="46.19258" lon="-0.96778">
        <ele>34.9</ele>
        <time>2020-05-31T16:36:43Z</time>
      </trkpt>
      <trkpt lat="46.19253" lon="-0.96783">
        <ele>34.8</ele>
        <time>2020-05-31T16:36:44Z</time>
      </trkpt>
      <trkpt lat="46.19249" lon="-0.96786">
        <ele>34.7</ele>
        <time>2020-05-31T16:36:45Z</time>
      </trkpt>
      <trkpt lat="46.19245" lon="-0.96789">
        <ele>34.7</ele>
        <time>2020-05-31T16:36:46Z</time>
      </trkpt>
      <trkpt lat="46.19242" lon="-0.96792">
        <ele>34.6</ele>
        <time>2020-05-31T16:36:47Z</time>
      </trkpt>
      <trkpt lat="46.19239" lon="-0.96796">
        <ele>34.6</ele>
        <time>2020-05-31T16:36:48Z</time>
      </trkpt>
      <trkpt lat="46.19235" lon="-0.968">
        <ele>34.6</ele>
        <time>2020-05-31T16:36:49Z</time>
      </trkpt>
      <trkpt lat="46.1923" lon="-0.96806">
        <ele>34.5</ele>
        <time>2020-05-31T16:36:50Z</time>
      </trkpt>
      <trkpt lat="46.19225" lon="-0.9681">
        <ele>34.5</ele>
        <time>2020-05-31T16:36:51Z</time>
      </trkpt>
      <trkpt lat="46.1922" lon="-0.96815">
        <ele>34.4</ele>
        <time>2020-05-31T16:36:52Z</time>
      </trkpt>
      <trkpt lat="46.19216" lon="-0.9682">
        <ele>34.4</ele>
        <time>2020-05-31T16:36:53Z</time>
      </trkpt>
      <trkpt lat="46.19212" lon="-0.96825">
        <ele>34.5</ele>
        <time>2020-05-31T16:36:54Z</time>
      </trkpt>
      <trkpt lat="46.19209" lon="-0.9683">
        <ele>34.5</ele>
        <time>2020-05-31T16:36:55Z</time>
      </trkpt>
      <trkpt lat="46.19207" lon="-0.96833">
        <ele>34.6</ele>
        <time>2020-05-31T16:36:56Z</time>
      </trkpt>
      <trkpt lat="46.19205" lon="-0.9684">
        <ele>34.6</ele>
        <time>2020-05-31T16:36:57Z</time>
      </trkpt>
      <trkpt lat="46.192" lon="-0.96846">
        <ele>34.6</ele>
        <time>2020-05-31T16:36:58Z</time>
      </trkpt>
      <trkpt lat="46.19196" lon="-0.96851">
        <ele>34.7</ele>
        <time>2020-05-31T16:36:59Z</time>
      </trkpt>
      <trkpt lat="46.19191" lon="-0.96856">
        <ele>34.7</ele>
        <time>2020-05-31T16:37:00Z</time>
      </trkpt>
      <trkpt lat="46.19187" lon="-0.96861">
        <ele>34.7</ele>
        <time>2020-05-31T16:37:01Z</time>
      </trkpt>
      <trkpt lat="46.19184" lon="-0.96865">
        <ele>34.7</ele>
        <time>2020-05-31T16:37:02Z</time>
      </trkpt>
      <trkpt lat="46.19177" lon="-0.96867">
        <ele>34.7</ele>
        <time>2020-05-31T16:37:03Z</time>
      </trkpt>
      <trkpt lat="46.19172" lon="-0.96871">
        <ele>34.7</ele>
        <time>2020-05-31T16:37:04Z</time>
      </trkpt>
      <trkpt lat="46.19167" lon="-0.96873">
        <ele>34.6</ele>
        <time>2020-05-31T16:37:05Z</time>
      </trkpt>
      <trkpt lat="46.19162" lon="-0.96877">
        <ele>34.5</ele>
        <time>2020-05-31T16:37:06Z</time>
      </trkpt>
      <trkpt lat="46.19157" lon="-0.96881">
        <ele>34.5</ele>
        <time>2020-05-31T16:37:07Z</time>
      </trkpt>
      <trkpt lat="46.1915" lon="-0.96884">
        <ele>34.4</ele>
        <time>2020-05-31T16:37:08Z</time>
      </trkpt>
      <trkpt lat="46.19145" lon="-0.96888">
        <ele>34.4</ele>
        <time>2020-05-31T16:37:09Z</time>
      </trkpt>
      <trkpt lat="46.19139" lon="-0.96891">
        <ele>34.3</ele>
        <time>2020-05-31T16:37:10Z</time>
      </trkpt>
      <trkpt lat="46.19133" lon="-0.96894">
        <ele>34.3</ele>
        <time>2020-05-31T16:37:11Z</time>
      </trkpt>
      <trkpt lat="46.19128" lon="-0.96897">
        <ele>34.2</ele>
        <time>2020-05-31T16:37:12Z</time>
      </trkpt>
      <trkpt lat="46.19124" lon="-0.969">
        <ele>34.1</ele>
        <time>2020-05-31T16:37:13Z</time>
      </trkpt>
      <trkpt lat="46.19118" lon="-0.96904">
        <ele>34.1</ele>
        <time>2020-05-31T16:37:14Z</time>
      </trkpt>
      <trkpt lat="46.19112" lon="-0.96908">
        <ele>34</ele>
        <time>2020-05-31T16:37:15Z</time>
      </trkpt>
      <trkpt lat="46.19105" lon="-0.96912">
        <ele>34</ele>
        <time>2020-05-31T16:37:16Z</time>
      </trkpt>
      <trkpt lat="46.19099" lon="-0.96917">
        <ele>33.9</ele>
        <time>2020-05-31T16:37:17Z</time>
      </trkpt>
      <trkpt lat="46.19093" lon="-0.96921">
        <ele>33.8</ele>
        <time>2020-05-31T16:37:18Z</time>
      </trkpt>
      <trkpt lat="46.19088" lon="-0.96925">
        <ele>33.7</ele>
        <time>2020-05-31T16:37:19Z</time>
      </trkpt>
      <trkpt lat="46.19082" lon="-0.96928">
        <ele>33.6</ele>
        <time>2020-05-31T16:37:20Z</time>
      </trkpt>
      <trkpt lat="46.19076" lon="-0.96931">
        <ele>33.5</ele>
        <time>2020-05-31T16:37:21Z</time>
      </trkpt>
      <trkpt lat="46.19069" lon="-0.96935">
        <ele>33.4</ele>
        <time>2020-05-31T16:37:22Z</time>
      </trkpt>
      <trkpt lat="46.19064" lon="-0.96939">
        <ele>33.2</ele>
        <time>2020-05-31T16:37:23Z</time>
      </trkpt>
      <trkpt lat="46.19058" lon="-0.96942">
        <ele>33.1</ele>
        <time>2020-05-31T16:37:24Z</time>
      </trkpt>
      <trkpt lat="46.19052" lon="-0.96946">
        <ele>33</ele>
        <time>2020-05-31T16:37:25Z</time>
      </trkpt>
      <trkpt lat="46.19046" lon="-0.96951">
        <ele>32.9</ele>
        <time>2020-05-31T16:37:26Z</time>
      </trkpt>
      <trkpt lat="46.19042" lon="-0.96954">
        <ele>32.8</ele>
        <time>2020-05-31T16:37:27Z</time>
      </trkpt>
      <trkpt lat="46.19036" lon="-0.96958">
        <ele>32.7</ele>
        <time>2020-05-31T16:37:28Z</time>
      </trkpt>
      <trkpt lat="46.19031" lon="-0.96961">
        <ele>32.6</ele>
        <time>2020-05-31T16:37:29Z</time>
      </trkpt>
      <trkpt lat="46.19026" lon="-0.96965">
        <ele>32.5</ele>
        <time>2020-05-31T16:37:30Z</time>
      </trkpt>
      <trkpt lat="46.19021" lon="-0.96969">
        <ele>32.3</ele>
        <time>2020-05-31T16:37:31Z</time>
      </trkpt>
      <trkpt lat="46.19014" lon="-0.96973">
        <ele>32.2</ele>
        <time>2020-05-31T16:37:32Z</time>
      </trkpt>
      <trkpt lat="46.19009" lon="-0.96977">
        <ele>32</ele>
        <time>2020-05-31T16:37:33Z</time>
      </trkpt>
      <trkpt lat="46.19003" lon="-0.96981">
        <ele>31.8</ele>
        <time>2020-05-31T16:37:34Z</time>
      </trkpt>
      <trkpt lat="46.18997" lon="-0.96986">
        <ele>31.7</ele>
        <time>2020-05-31T16:37:35Z</time>
      </trkpt>
      <trkpt lat="46.18992" lon="-0.9699">
        <ele>31.6</ele>
        <time>2020-05-31T16:37:36Z</time>
      </trkpt>
      <trkpt lat="46.18986" lon="-0.96993">
        <ele>31.4</ele>
        <time>2020-05-31T16:37:37Z</time>
      </trkpt>
      <trkpt lat="46.18981" lon="-0.96997">
        <ele>31.2</ele>
        <time>2020-05-31T16:37:38Z</time>
      </trkpt>
      <trkpt lat="46.18975" lon="-0.97001">
        <ele>31</ele>
        <time>2020-05-31T16:37:39Z</time>
      </trkpt>
      <trkpt lat="46.18969" lon="-0.97005">
        <ele>30.8</ele>
        <time>2020-05-31T16:37:40Z</time>
      </trkpt>
      <trkpt lat="46.18963" lon="-0.9701">
        <ele>30.6</ele>
        <time>2020-05-31T16:37:41Z</time>
      </trkpt>
      <trkpt lat="46.18957" lon="-0.97016">
        <ele>30.4</ele>
        <time>2020-05-31T16:37:42Z</time>
      </trkpt>
      <trkpt lat="46.18953" lon="-0.97024">
        <ele>30.4</ele>
        <time>2020-05-31T16:37:43Z</time>
      </trkpt>
      <trkpt lat="46.1895" lon="-0.97033">
        <ele>30.4</ele>
        <time>2020-05-31T16:37:44Z</time>
      </trkpt>
      <trkpt lat="46.18947" lon="-0.97043">
        <ele>30.3</ele>
        <time>2020-05-31T16:37:45Z</time>
      </trkpt>
      <trkpt lat="46.18945" lon="-0.97053">
        <ele>30.1</ele>
        <time>2020-05-31T16:37:46Z</time>
      </trkpt>
      <trkpt lat="46.18942" lon="-0.97062">
        <ele>30</ele>
        <time>2020-05-31T16:37:47Z</time>
      </trkpt>
      <trkpt lat="46.18939" lon="-0.97073">
        <ele>29.9</ele>
        <time>2020-05-31T16:37:48Z</time>
      </trkpt>
      <trkpt lat="46.18935" lon="-0.97083">
        <ele>29.8</ele>
        <time>2020-05-31T16:37:49Z</time>
      </trkpt>
      <trkpt lat="46.18932" lon="-0.97093">
        <ele>29.7</ele>
        <time>2020-05-31T16:37:50Z</time>
      </trkpt>
      <trkpt lat="46.1893" lon="-0.97103">
        <ele>29.6</ele>
        <time>2020-05-31T16:37:51Z</time>
      </trkpt>
      <trkpt lat="46.18927" lon="-0.97113">
        <ele>29.4</ele>
        <time>2020-05-31T16:37:52Z</time>
      </trkpt>
      <trkpt lat="46.18924" lon="-0.97123">
        <ele>29.1</ele>
        <time>2020-05-31T16:37:53Z</time>
      </trkpt>
      <trkpt lat="46.18922" lon="-0.97133">
        <ele>28.8</ele>
        <time>2020-05-31T16:37:54Z</time>
      </trkpt>
      <trkpt lat="46.18919" lon="-0.97143">
        <ele>28.5</ele>
        <time>2020-05-31T16:37:55Z</time>
      </trkpt>
      <trkpt lat="46.18916" lon="-0.97153">
        <ele>28.2</ele>
        <time>2020-05-31T16:37:56Z</time>
      </trkpt>
      <trkpt lat="46.18914" lon="-0.97163">
        <ele>27.9</ele>
        <time>2020-05-31T16:37:57Z</time>
      </trkpt>
      <trkpt lat="46.18912" lon="-0.97174">
        <ele>27.6</ele>
        <time>2020-05-31T16:37:58Z</time>
      </trkpt>
      <trkpt lat="46.18909" lon="-0.97184">
        <ele>27.2</ele>
        <time>2020-05-31T16:37:59Z</time>
      </trkpt>
      <trkpt lat="46.18906" lon="-0.97195">
        <ele>26.7</ele>
        <time>2020-05-31T16:38:00Z</time>
      </trkpt>
      <trkpt lat="46.18904" lon="-0.97207">
        <ele>26.2</ele>
        <time>2020-05-31T16:38:01Z</time>
      </trkpt>
      <trkpt lat="46.18901" lon="-0.97219">
        <ele>25.7</ele>
        <time>2020-05-31T16:38:02Z</time>
      </trkpt>
      <trkpt lat="46.189" lon="-0.97231">
        <ele>25.3</ele>
        <time>2020-05-31T16:38:03Z</time>
      </trkpt>
      <trkpt lat="46.18899" lon="-0.97243">
        <ele>24.9</ele>
        <time>2020-05-31T16:38:04Z</time>
      </trkpt>
      <trkpt lat="46.18899" lon="-0.97256">
        <ele>24.6</ele>
        <time>2020-05-31T16:38:05Z</time>
      </trkpt>
      <trkpt lat="46.189" lon="-0.97269">
        <ele>24.3</ele>
        <time>2020-05-31T16:38:06Z</time>
      </trkpt>
      <trkpt lat="46.189" lon="-0.97281">
        <ele>24.1</ele>
        <time>2020-05-31T16:38:07Z</time>
      </trkpt>
      <trkpt lat="46.18901" lon="-0.97293">
        <ele>23.9</ele>
        <time>2020-05-31T16:38:08Z</time>
      </trkpt>
      <trkpt lat="46.18901" lon="-0.97305">
        <ele>23.8</ele>
        <time>2020-05-31T16:38:09Z</time>
      </trkpt>
      <trkpt lat="46.18902" lon="-0.97316">
        <ele>23.8</ele>
        <time>2020-05-31T16:38:10Z</time>
      </trkpt>
      <trkpt lat="46.18902" lon="-0.97328">
        <ele>23.8</ele>
        <time>2020-05-31T16:38:11Z</time>
      </trkpt>
      <trkpt lat="46.18902" lon="-0.97339">
        <ele>23.7</ele>
        <time>2020-05-31T16:38:12Z</time>
      </trkpt>
      <trkpt lat="46.18901" lon="-0.9735">
        <ele>23.6</ele>
        <time>2020-05-31T16:38:13Z</time>
      </trkpt>
      <trkpt lat="46.18901" lon="-0.97361">
        <ele>23.5</ele>
        <time>2020-05-31T16:38:14Z</time>
      </trkpt>
      <trkpt lat="46.18901" lon="-0.97372">
        <ele>23.5</ele>
        <time>2020-05-31T16:38:15Z</time>
      </trkpt>
      <trkpt lat="46.18901" lon="-0.97382">
        <ele>23.5</ele>
        <time>2020-05-31T16:38:16Z</time>
      </trkpt>
      <trkpt lat="46.189" lon="-0.97393">
        <ele>23.5</ele>
        <time>2020-05-31T16:38:17Z</time>
      </trkpt>
      <trkpt lat="46.18899" lon="-0.97403">
        <ele>23.6</ele>
        <time>2020-05-31T16:38:18Z</time>
      </trkpt>
      <trkpt lat="46.18898" lon="-0.97412">
        <ele>23.6</ele>
        <time>2020-05-31T16:38:19Z</time>
      </trkpt>
      <trkpt lat="46.18898" lon="-0.97421">
        <ele>23.7</ele>
        <time>2020-05-31T16:38:20Z</time>
      </trkpt>
      <trkpt lat="46.18897" lon="-0.97429">
        <ele>23.8</ele>
        <time>2020-05-31T16:38:21Z</time>
      </trkpt>
      <trkpt lat="46.18896" lon="-0.97436">
        <ele>23.9</ele>
        <time>2020-05-31T16:38:22Z</time>
      </trkpt>
      <trkpt lat="46.18895" lon="-0.97441">
        <ele>23.9</ele>
        <time>2020-05-31T16:38:23Z</time>
      </trkpt>
      <trkpt lat="46.18896" lon="-0.97447">
        <ele>24</ele>
        <time>2020-05-31T16:38:24Z</time>
      </trkpt>
      <trkpt lat="46.18896" lon="-0.97449">
        <ele>24</ele>
        <time>2020-05-31T16:38:25Z</time>
      </trkpt>
      <trkpt lat="46.18896" lon="-0.97453">
        <ele>24.1</ele>
        <time>2020-05-31T16:38:26Z</time>
      </trkpt>
      <trkpt lat="46.18896" lon="-0.97458">
        <ele>24.1</ele>
        <time>2020-05-31T16:38:27Z</time>
      </trkpt>
      <trkpt lat="46.18896" lon="-0.97463">
        <ele>24.2</ele>
        <time>2020-05-31T16:38:28Z</time>
      </trkpt>
      <trkpt lat="46.18895" lon="-0.97469">
        <ele>24.3</ele>
        <time>2020-05-31T16:38:29Z</time>
      </trkpt>
      <trkpt lat="46.18894" lon="-0.97476">
        <ele>24.3</ele>
        <time>2020-05-31T16:38:30Z</time>
      </trkpt>
      <trkpt lat="46.18893" lon="-0.97484">
        <ele>24.4</ele>
        <time>2020-05-31T16:38:31Z</time>
      </trkpt>
      <trkpt lat="46.18892" lon="-0.97491">
        <ele>24.4</ele>
        <time>2020-05-31T16:38:32Z</time>
      </trkpt>
      <trkpt lat="46.18891" lon="-0.975">
        <ele>24.4</ele>
        <time>2020-05-31T16:38:33Z</time>
      </trkpt>
      <trkpt lat="46.1889" lon="-0.97508">
        <ele>24.4</ele>
        <time>2020-05-31T16:38:34Z</time>
      </trkpt>
      <trkpt lat="46.18889" lon="-0.97516">
        <ele>24.4</ele>
        <time>2020-05-31T16:38:35Z</time>
      </trkpt>
      <trkpt lat="46.18888" lon="-0.97524">
        <ele>24.4</ele>
        <time>2020-05-31T16:38:36Z</time>
      </trkpt>
      <trkpt lat="46.18887" lon="-0.97532">
        <ele>24.4</ele>
        <time>2020-05-31T16:38:37Z</time>
      </trkpt>
      <trkpt lat="46.18886" lon="-0.9754">
        <ele>24.5</ele>
        <time>2020-05-31T16:38:38Z</time>
      </trkpt>
      <trkpt lat="46.18885" lon="-0.97548">
        <ele>24.6</ele>
        <time>2020-05-31T16:38:39Z</time>
      </trkpt>
      <trkpt lat="46.18885" lon="-0.97556">
        <ele>24.7</ele>
        <time>2020-05-31T16:38:40Z</time>
      </trkpt>
      <trkpt lat="46.18884" lon="-0.97564">
        <ele>24.8</ele>
        <time>2020-05-31T16:38:41Z</time>
      </trkpt>
      <trkpt lat="46.18883" lon="-0.97572">
        <ele>24.8</ele>
        <time>2020-05-31T16:38:42Z</time>
      </trkpt>
      <trkpt lat="46.18882" lon="-0.97581">
        <ele>24.9</ele>
        <time>2020-05-31T16:38:43Z</time>
      </trkpt>
      <trkpt lat="46.18881" lon="-0.97589">
        <ele>24.9</ele>
        <time>2020-05-31T16:38:44Z</time>
      </trkpt>
      <trkpt lat="46.18881" lon="-0.97597">
        <ele>24.9</ele>
        <time>2020-05-31T16:38:45Z</time>
      </trkpt>
      <trkpt lat="46.18881" lon="-0.97605">
        <ele>24.9</ele>
        <time>2020-05-31T16:38:46Z</time>
      </trkpt>
      <trkpt lat="46.18881" lon="-0.97614">
        <ele>24.9</ele>
        <time>2020-05-31T16:38:47Z</time>
      </trkpt>
      <trkpt lat="46.1888" lon="-0.97622">
        <ele>24.8</ele>
        <time>2020-05-31T16:38:48Z</time>
      </trkpt>
      <trkpt lat="46.18879" lon="-0.97631">
        <ele>24.8</ele>
        <time>2020-05-31T16:38:49Z</time>
      </trkpt>
      <trkpt lat="46.18879" lon="-0.9764">
        <ele>24.7</ele>
        <time>2020-05-31T16:38:50Z</time>
      </trkpt>
      <trkpt lat="46.18879" lon="-0.97648">
        <ele>24.7</ele>
        <time>2020-05-31T16:38:51Z</time>
      </trkpt>
      <trkpt lat="46.18879" lon="-0.97657">
        <ele>24.7</ele>
        <time>2020-05-31T16:38:52Z</time>
      </trkpt>
      <trkpt lat="46.18879" lon="-0.97666">
        <ele>24.6</ele>
        <time>2020-05-31T16:38:53Z</time>
      </trkpt>
      <trkpt lat="46.18879" lon="-0.97675">
        <ele>24.5</ele>
        <time>2020-05-31T16:38:54Z</time>
      </trkpt>
      <trkpt lat="46.18879" lon="-0.97684">
        <ele>24.5</ele>
        <time>2020-05-31T16:38:55Z</time>
      </trkpt>
      <trkpt lat="46.1888" lon="-0.97693">
        <ele>24.4</ele>
        <time>2020-05-31T16:38:56Z</time>
      </trkpt>
      <trkpt lat="46.18879" lon="-0.97701">
        <ele>24.4</ele>
        <time>2020-05-31T16:38:57Z</time>
      </trkpt>
      <trkpt lat="46.1888" lon="-0.9771">
        <ele>24.4</ele>
        <time>2020-05-31T16:38:58Z</time>
      </trkpt>
      <trkpt lat="46.1888" lon="-0.97718">
        <ele>24.4</ele>
        <time>2020-05-31T16:38:59Z</time>
      </trkpt>
      <trkpt lat="46.18881" lon="-0.97727">
        <ele>24.5</ele>
        <time>2020-05-31T16:39:00Z</time>
      </trkpt>
      <trkpt lat="46.18881" lon="-0.97735">
        <ele>24.5</ele>
        <time>2020-05-31T16:39:01Z</time>
      </trkpt>
      <trkpt lat="46.18881" lon="-0.97744">
        <ele>24.6</ele>
        <time>2020-05-31T16:39:02Z</time>
      </trkpt>
      <trkpt lat="46.18881" lon="-0.97753">
        <ele>24.6</ele>
        <time>2020-05-31T16:39:03Z</time>
      </trkpt>
      <trkpt lat="46.18882" lon="-0.97762">
        <ele>24.6</ele>
        <time>2020-05-31T16:39:04Z</time>
      </trkpt>
      <trkpt lat="46.18881" lon="-0.97771">
        <ele>24.6</ele>
        <time>2020-05-31T16:39:05Z</time>
      </trkpt>
      <trkpt lat="46.1888" lon="-0.97779">
        <ele>24.6</ele>
        <time>2020-05-31T16:39:06Z</time>
      </trkpt>
      <trkpt lat="46.18879" lon="-0.97788">
        <ele>24.6</ele>
        <time>2020-05-31T16:39:07Z</time>
      </trkpt>
      <trkpt lat="46.18878" lon="-0.97797">
        <ele>24.6</ele>
        <time>2020-05-31T16:39:08Z</time>
      </trkpt>
      <trkpt lat="46.18875" lon="-0.97806">
        <ele>24.7</ele>
        <time>2020-05-31T16:39:09Z</time>
      </trkpt>
      <trkpt lat="46.18875" lon="-0.97815">
        <ele>24.7</ele>
        <time>2020-05-31T16:39:10Z</time>
      </trkpt>
      <trkpt lat="46.18873" lon="-0.97824">
        <ele>24.7</ele>
        <time>2020-05-31T16:39:11Z</time>
      </trkpt>
      <trkpt lat="46.18872" lon="-0.97832">
        <ele>24.8</ele>
        <time>2020-05-31T16:39:12Z</time>
      </trkpt>
      <trkpt lat="46.18871" lon="-0.97841">
        <ele>24.9</ele>
        <time>2020-05-31T16:39:13Z</time>
      </trkpt>
      <trkpt lat="46.1887" lon="-0.97849">
        <ele>25</ele>
        <time>2020-05-31T16:39:14Z</time>
      </trkpt>
      <trkpt lat="46.18869" lon="-0.97858">
        <ele>25</ele>
        <time>2020-05-31T16:39:15Z</time>
      </trkpt>
      <trkpt lat="46.18867" lon="-0.97867">
        <ele>25.1</ele>
        <time>2020-05-31T16:39:16Z</time>
      </trkpt>
      <trkpt lat="46.18866" lon="-0.97875">
        <ele>25.2</ele>
        <time>2020-05-31T16:39:17Z</time>
      </trkpt>
      <trkpt lat="46.18866" lon="-0.97884">
        <ele>25.3</ele>
        <time>2020-05-31T16:39:18Z</time>
      </trkpt>
      <trkpt lat="46.18865" lon="-0.97893">
        <ele>25.3</ele>
        <time>2020-05-31T16:39:19Z</time>
      </trkpt>
      <trkpt lat="46.18864" lon="-0.97901">
        <ele>25.4</ele>
        <time>2020-05-31T16:39:20Z</time>
      </trkpt>
      <trkpt lat="46.18863" lon="-0.9791">
        <ele>25.5</ele>
        <time>2020-05-31T16:39:21Z</time>
      </trkpt>
      <trkpt lat="46.18862" lon="-0.97919">
        <ele>25.5</ele>
        <time>2020-05-31T16:39:22Z</time>
      </trkpt>
      <trkpt lat="46.18862" lon="-0.97928">
        <ele>25.6</ele>
        <time>2020-05-31T16:39:23Z</time>
      </trkpt>
      <trkpt lat="46.18862" lon="-0.97937">
        <ele>25.7</ele>
        <time>2020-05-31T16:39:24Z</time>
      </trkpt>
      <trkpt lat="46.18861" lon="-0.97945">
        <ele>25.8</ele>
        <time>2020-05-31T16:39:25Z</time>
      </trkpt>
      <trkpt lat="46.18861" lon="-0.97954">
        <ele>25.8</ele>
        <time>2020-05-31T16:39:26Z</time>
      </trkpt>
      <trkpt lat="46.18862" lon="-0.97962">
        <ele>25.8</ele>
        <time>2020-05-31T16:39:27Z</time>
      </trkpt>
      <trkpt lat="46.18862" lon="-0.9797">
        <ele>25.8</ele>
        <time>2020-05-31T16:39:28Z</time>
      </trkpt>
      <trkpt lat="46.18861" lon="-0.97978">
        <ele>25.8</ele>
        <time>2020-05-31T16:39:29Z</time>
      </trkpt>
      <trkpt lat="46.1886" lon="-0.97986">
        <ele>25.8</ele>
        <time>2020-05-31T16:39:30Z</time>
      </trkpt>
      <trkpt lat="46.18859" lon="-0.97994">
        <ele>25.8</ele>
        <time>2020-05-31T16:39:31Z</time>
      </trkpt>
      <trkpt lat="46.18859" lon="-0.98002">
        <ele>25.8</ele>
        <time>2020-05-31T16:39:32Z</time>
      </trkpt>
      <trkpt lat="46.18858" lon="-0.9801">
        <ele>25.9</ele>
        <time>2020-05-31T16:39:33Z</time>
      </trkpt>
      <trkpt lat="46.18857" lon="-0.98018">
        <ele>26</ele>
        <time>2020-05-31T16:39:34Z</time>
      </trkpt>
      <trkpt lat="46.18855" lon="-0.98025">
        <ele>26.1</ele>
        <time>2020-05-31T16:39:35Z</time>
      </trkpt>
      <trkpt lat="46.18853" lon="-0.98032">
        <ele>26.1</ele>
        <time>2020-05-31T16:39:36Z</time>
      </trkpt>
      <trkpt lat="46.18852" lon="-0.98039">
        <ele>26.2</ele>
        <time>2020-05-31T16:39:37Z</time>
      </trkpt>
      <trkpt lat="46.18852" lon="-0.98046">
        <ele>26.2</ele>
        <time>2020-05-31T16:39:38Z</time>
      </trkpt>
      <trkpt lat="46.1885" lon="-0.98052">
        <ele>26.3</ele>
        <time>2020-05-31T16:39:39Z</time>
      </trkpt>
      <trkpt lat="46.18849" lon="-0.98058">
        <ele>26.1</ele>
        <time>2020-05-31T16:39:40Z</time>
      </trkpt>
      <trkpt lat="46.18846" lon="-0.98062">
        <ele>26</ele>
        <time>2020-05-31T16:39:41Z</time>
      </trkpt>
      <trkpt lat="46.18841" lon="-0.98063">
        <ele>25.8</ele>
        <time>2020-05-31T16:39:42Z</time>
      </trkpt>
      <trkpt lat="46.18836" lon="-0.98064">
        <ele>25.7</ele>
        <time>2020-05-31T16:39:43Z</time>
      </trkpt>
      <trkpt lat="46.1883" lon="-0.98065">
        <ele>25.6</ele>
        <time>2020-05-31T16:39:44Z</time>
      </trkpt>
      <trkpt lat="46.18825" lon="-0.98066">
        <ele>25.5</ele>
        <time>2020-05-31T16:39:45Z</time>
      </trkpt>
      <trkpt lat="46.18821" lon="-0.98068">
        <ele>25.5</ele>
        <time>2020-05-31T16:39:46Z</time>
      </trkpt>
      <trkpt lat="46.18816" lon="-0.98071">
        <ele>25.5</ele>
        <time>2020-05-31T16:39:47Z</time>
      </trkpt>
      <trkpt lat="46.18812" lon="-0.98074">
        <ele>25.5</ele>
        <time>2020-05-31T16:39:48Z</time>
      </trkpt>
      <trkpt lat="46.18807" lon="-0.98076">
        <ele>25.5</ele>
        <time>2020-05-31T16:39:49Z</time>
      </trkpt>
      <trkpt lat="46.18802" lon="-0.98077">
        <ele>25.5</ele>
        <time>2020-05-31T16:39:50Z</time>
      </trkpt>
      <trkpt lat="46.18797" lon="-0.98078">
        <ele>25.5</ele>
        <time>2020-05-31T16:39:51Z</time>
      </trkpt>
      <trkpt lat="46.18792" lon="-0.98079">
        <ele>25.5</ele>
        <time>2020-05-31T16:39:52Z</time>
      </trkpt>
      <trkpt lat="46.18787" lon="-0.9808">
        <ele>25.5</ele>
        <time>2020-05-31T16:39:53Z</time>
      </trkpt>
      <trkpt lat="46.18782" lon="-0.98081">
        <ele>25.5</ele>
        <time>2020-05-31T16:39:54Z</time>
      </trkpt>
      <trkpt lat="46.18778" lon="-0.98082">
        <ele>25.4</ele>
        <time>2020-05-31T16:39:55Z</time>
      </trkpt>
      <trkpt lat="46.18773" lon="-0.98085">
        <ele>25.4</ele>
        <time>2020-05-31T16:39:56Z</time>
      </trkpt>
      <trkpt lat="46.18768" lon="-0.98087">
        <ele>25.3</ele>
        <time>2020-05-31T16:39:57Z</time>
      </trkpt>
      <trkpt lat="46.18762" lon="-0.98088">
        <ele>25.2</ele>
        <time>2020-05-31T16:39:58Z</time>
      </trkpt>
      <trkpt lat="46.18757" lon="-0.9809">
        <ele>25.1</ele>
        <time>2020-05-31T16:39:59Z</time>
      </trkpt>
      <trkpt lat="46.18752" lon="-0.98091">
        <ele>25</ele>
        <time>2020-05-31T16:40:00Z</time>
      </trkpt>
      <trkpt lat="46.18747" lon="-0.98092">
        <ele>24.9</ele>
        <time>2020-05-31T16:40:01Z</time>
      </trkpt>
      <trkpt lat="46.18741" lon="-0.98094">
        <ele>24.8</ele>
        <time>2020-05-31T16:40:02Z</time>
      </trkpt>
      <trkpt lat="46.18736" lon="-0.98096">
        <ele>24.7</ele>
        <time>2020-05-31T16:40:03Z</time>
      </trkpt>
      <trkpt lat="46.18732" lon="-0.98098">
        <ele>24.7</ele>
        <time>2020-05-31T16:40:04Z</time>
      </trkpt>
      <trkpt lat="46.18727" lon="-0.981">
        <ele>24.6</ele>
        <time>2020-05-31T16:40:05Z</time>
      </trkpt>
      <trkpt lat="46.18722" lon="-0.98102">
        <ele>24.5</ele>
        <time>2020-05-31T16:40:06Z</time>
      </trkpt>
      <trkpt lat="46.18717" lon="-0.98105">
        <ele>24.5</ele>
        <time>2020-05-31T16:40:07Z</time>
      </trkpt>
      <trkpt lat="46.18712" lon="-0.98106">
        <ele>24.4</ele>
        <time>2020-05-31T16:40:08Z</time>
      </trkpt>
      <trkpt lat="46.18708" lon="-0.98107">
        <ele>24.4</ele>
        <time>2020-05-31T16:40:09Z</time>
      </trkpt>
      <trkpt lat="46.18703" lon="-0.98109">
        <ele>24.3</ele>
        <time>2020-05-31T16:40:10Z</time>
      </trkpt>
      <trkpt lat="46.18698" lon="-0.98111">
        <ele>24.3</ele>
        <time>2020-05-31T16:40:11Z</time>
      </trkpt>
      <trkpt lat="46.18693" lon="-0.98113">
        <ele>24.3</ele>
        <time>2020-05-31T16:40:12Z</time>
      </trkpt>
      <trkpt lat="46.18687" lon="-0.98116">
        <ele>24.2</ele>
        <time>2020-05-31T16:40:13Z</time>
      </trkpt>
      <trkpt lat="46.18682" lon="-0.98117">
        <ele>24.1</ele>
        <time>2020-05-31T16:40:14Z</time>
      </trkpt>
      <trkpt lat="46.18677" lon="-0.9812">
        <ele>24</ele>
        <time>2020-05-31T16:40:15Z</time>
      </trkpt>
      <trkpt lat="46.18672" lon="-0.98123">
        <ele>23.8</ele>
        <time>2020-05-31T16:40:16Z</time>
      </trkpt>
      <trkpt lat="46.18666" lon="-0.98124">
        <ele>23.6</ele>
        <time>2020-05-31T16:40:17Z</time>
      </trkpt>
      <trkpt lat="46.1866" lon="-0.98126">
        <ele>23.4</ele>
        <time>2020-05-31T16:40:18Z</time>
      </trkpt>
      <trkpt lat="46.18655" lon="-0.98128">
        <ele>23.2</ele>
        <time>2020-05-31T16:40:19Z</time>
      </trkpt>
      <trkpt lat="46.18649" lon="-0.98131">
        <ele>23.1</ele>
        <time>2020-05-31T16:40:20Z</time>
      </trkpt>
      <trkpt lat="46.18643" lon="-0.98134">
        <ele>23</ele>
        <time>2020-05-31T16:40:21Z</time>
      </trkpt>
      <trkpt lat="46.18638" lon="-0.98138">
        <ele>22.9</ele>
        <time>2020-05-31T16:40:22Z</time>
      </trkpt>
      <trkpt lat="46.18632" lon="-0.98142">
        <ele>22.8</ele>
        <time>2020-05-31T16:40:23Z</time>
      </trkpt>
      <trkpt lat="46.18627" lon="-0.98145">
        <ele>22.7</ele>
        <time>2020-05-31T16:40:24Z</time>
      </trkpt>
      <trkpt lat="46.18621" lon="-0.98147">
        <ele>22.5</ele>
        <time>2020-05-31T16:40:25Z</time>
      </trkpt>
      <trkpt lat="46.18616" lon="-0.98148">
        <ele>22.3</ele>
        <time>2020-05-31T16:40:26Z</time>
      </trkpt>
      <trkpt lat="46.1861" lon="-0.98152">
        <ele>22.2</ele>
        <time>2020-05-31T16:40:27Z</time>
      </trkpt>
      <trkpt lat="46.18605" lon="-0.98155">
        <ele>22</ele>
        <time>2020-05-31T16:40:28Z</time>
      </trkpt>
      <trkpt lat="46.186" lon="-0.98159">
        <ele>21.9</ele>
        <time>2020-05-31T16:40:29Z</time>
      </trkpt>
      <trkpt lat="46.18595" lon="-0.98161">
        <ele>21.8</ele>
        <time>2020-05-31T16:40:30Z</time>
      </trkpt>
      <trkpt lat="46.18589" lon="-0.98163">
        <ele>21.7</ele>
        <time>2020-05-31T16:40:31Z</time>
      </trkpt>
      <trkpt lat="46.18584" lon="-0.98167">
        <ele>21.6</ele>
        <time>2020-05-31T16:40:32Z</time>
      </trkpt>
      <trkpt lat="46.18579" lon="-0.98169">
        <ele>21.6</ele>
        <time>2020-05-31T16:40:33Z</time>
      </trkpt>
      <trkpt lat="46.18574" lon="-0.98171">
        <ele>21.7</ele>
        <time>2020-05-31T16:40:34Z</time>
      </trkpt>
      <trkpt lat="46.18569" lon="-0.98174">
        <ele>21.8</ele>
        <time>2020-05-31T16:40:35Z</time>
      </trkpt>
      <trkpt lat="46.18564" lon="-0.98177">
        <ele>21.9</ele>
        <time>2020-05-31T16:40:36Z</time>
      </trkpt>
      <trkpt lat="46.1856" lon="-0.98179">
        <ele>22.1</ele>
        <time>2020-05-31T16:40:37Z</time>
      </trkpt>
      <trkpt lat="46.18556" lon="-0.9818">
        <ele>22.2</ele>
        <time>2020-05-31T16:40:38Z</time>
      </trkpt>
      <trkpt lat="46.18553" lon="-0.9818">
        <ele>22.5</ele>
        <time>2020-05-31T16:40:39Z</time>
      </trkpt>
      <trkpt lat="46.18551" lon="-0.98184">
        <ele>22.5</ele>
        <time>2020-05-31T16:40:40Z</time>
      </trkpt>
      <trkpt lat="46.18552" lon="-0.98186">
        <ele>22.5</ele>
        <time>2020-05-31T16:40:41Z</time>
      </trkpt>
      <trkpt lat="46.18553" lon="-0.98191">
        <ele>22.5</ele>
        <time>2020-05-31T16:40:42Z</time>
      </trkpt>
      <trkpt lat="46.18553" lon="-0.98193">
        <ele>22.5</ele>
        <time>2020-05-31T16:40:43Z</time>
      </trkpt>
      <trkpt lat="46.18554" lon="-0.98196">
        <ele>22.5</ele>
        <time>2020-05-31T16:40:44Z</time>
      </trkpt>
      <trkpt lat="46.18555" lon="-0.98197">
        <ele>22.5</ele>
        <time>2020-05-31T16:40:45Z</time>
      </trkpt>
      <trkpt lat="46.18555" lon="-0.98198">
        <ele>22.5</ele>
        <time>2020-05-31T16:40:46Z</time>
      </trkpt>
      <trkpt lat="46.18556" lon="-0.98199">
        <ele>22.5</ele>
        <time>2020-05-31T16:40:47Z</time>
      </trkpt>
      <trkpt lat="46.18557" lon="-0.98199">
        <ele>22.5</ele>
        <time>2020-05-31T16:40:48Z</time>
      </trkpt>
      <trkpt lat="46.18558" lon="-0.982">
        <ele>22.5</ele>
        <time>2020-05-31T16:40:49Z</time>
      </trkpt>
      <trkpt lat="46.18559" lon="-0.982">
        <ele>22.5</ele>
        <time>2020-05-31T16:40:50Z</time>
      </trkpt>
      <trkpt lat="46.18559" lon="-0.98201">
        <ele>22.5</ele>
        <time>2020-05-31T16:40:51Z</time>
      </trkpt>
      <trkpt lat="46.18558" lon="-0.982">
        <ele>22.5</ele>
        <time>2020-05-31T16:40:52Z</time>
      </trkpt>
      <trkpt lat="46.18558" lon="-0.982">
        <ele>22.6</ele>
        <time>2020-05-31T16:40:53Z</time>
      </trkpt>
      <trkpt lat="46.18558" lon="-0.98201">
        <ele>22.6</ele>
        <time>2020-05-31T16:40:54Z</time>
      </trkpt>
      <trkpt lat="46.18559" lon="-0.98202">
        <ele>22.6</ele>
        <time>2020-05-31T16:40:55Z</time>
      </trkpt>
      <trkpt lat="46.18558" lon="-0.98202">
        <ele>22.6</ele>
        <time>2020-05-31T16:40:56Z</time>
      </trkpt>
      <trkpt lat="46.18558" lon="-0.98202">
        <ele>22.6</ele>
        <time>2020-05-31T16:40:57Z</time>
      </trkpt>
      <trkpt lat="46.18558" lon="-0.98203">
        <ele>22.6</ele>
        <time>2020-05-31T16:40:58Z</time>
      </trkpt>
      <trkpt lat="46.18558" lon="-0.98203">
        <ele>22.6</ele>
        <time>2020-05-31T16:40:59Z</time>
      </trkpt>
      <trkpt lat="46.18557" lon="-0.98202">
        <ele>22.6</ele>
        <time>2020-05-31T16:41:00Z</time>
      </trkpt>
      <trkpt lat="46.18558" lon="-0.98203">
        <ele>22.6</ele>
        <time>2020-05-31T16:41:01Z</time>
      </trkpt>
      <trkpt lat="46.18558" lon="-0.98203">
        <ele>22.6</ele>
        <time>2020-05-31T16:41:02Z</time>
      </trkpt>
      <trkpt lat="46.18558" lon="-0.98203">
        <ele>22.6</ele>
        <time>2020-05-31T16:41:03Z</time>
      </trkpt>
      <trkpt lat="46.18557" lon="-0.98201">
        <ele>22.6</ele>
        <time>2020-05-31T16:41:04Z</time>
      </trkpt>
      <trkpt lat="46.18557" lon="-0.98201">
        <ele>22.6</ele>
        <time>2020-05-31T16:41:05Z</time>
      </trkpt>
      <trkpt lat="46.18557" lon="-0.98201">
        <ele>22.6</ele>
        <time>2020-05-31T16:41:06Z</time>
      </trkpt>
      <trkpt lat="46.18557" lon="-0.98201">
        <ele>22.6</ele>
        <time>2020-05-31T16:41:07Z</time>
      </trkpt>
      <trkpt lat="46.18556" lon="-0.98202">
        <ele>22.6</ele>
        <time>2020-05-31T16:41:08Z</time>
      </trkpt>
      <trkpt lat="46.18556" lon="-0.98203">
        <ele>22.6</ele>
        <time>2020-05-31T16:41:09Z</time>
      </trkpt>
      <trkpt lat="46.18556" lon="-0.98202">
        <ele>22.6</ele>
        <time>2020-05-31T16:41:10Z</time>
      </trkpt>
      <trkpt lat="46.18556" lon="-0.98202">
        <ele>22.6</ele>
        <time>2020-05-31T16:41:11Z</time>
      </trkpt>
      <trkpt lat="46.18556" lon="-0.98202">
        <ele>22.6</ele>
        <time>2020-05-31T16:41:12Z</time>
      </trkpt>
      <trkpt lat="46.18556" lon="-0.98202">
        <ele>22.6</ele>
        <time>2020-05-31T16:41:13Z</time>
      </trkpt>
      <trkpt lat="46.18556" lon="-0.98202">
        <ele>22.6</ele>
        <time>2020-05-31T16:41:14Z</time>
      </trkpt>
      <trkpt lat="46.18556" lon="-0.98201">
        <ele>22.6</ele>
        <time>2020-05-31T16:41:15Z</time>
      </trkpt>
      <trkpt lat="46.18555" lon="-0.98201">
        <ele>22.6</ele>
        <time>2020-05-31T16:41:16Z</time>
      </trkpt>
      <trkpt lat="46.18555" lon="-0.98201">
        <ele>22.6</ele>
        <time>2020-05-31T16:41:17Z</time>
      </trkpt>
      <trkpt lat="46.18555" lon="-0.98201">
        <ele>22.6</ele>
        <time>2020-05-31T16:41:18Z</time>
      </trkpt>
      <trkpt lat="46.18555" lon="-0.98201">
        <ele>22.6</ele>
        <time>2020-05-31T16:41:19Z</time>
      </trkpt>
      <trkpt lat="46.18555" lon="-0.98202">
        <ele>22.6</ele>
        <time>2020-05-31T16:41:20Z</time>
      </trkpt>
      <trkpt lat="46.18555" lon="-0.98202">
        <ele>22.6</ele>
        <time>2020-05-31T16:41:21Z</time>
      </trkpt>
      <trkpt lat="46.18555" lon="-0.98202">
        <ele>22.6</ele>
        <time>2020-05-31T16:41:22Z</time>
      </trkpt>
      <trkpt lat="46.18555" lon="-0.98202">
        <ele>22.6</ele>
        <time>2020-05-31T16:41:23Z</time>
      </trkpt>
      <trkpt lat="46.18555" lon="-0.98202">
        <ele>22.6</ele>
        <time>2020-05-31T16:41:24Z</time>
      </trkpt>
      <trkpt lat="46.18554" lon="-0.98202">
        <ele>22.6</ele>
        <time>2020-05-31T16:41:25Z</time>
      </trkpt>
      <trkpt lat="46.18554" lon="-0.98201">
        <ele>22.6</ele>
        <time>2020-05-31T16:41:26Z</time>
      </trkpt>
      <trkpt lat="46.18554" lon="-0.98201">
        <ele>22.6</ele>
        <time>2020-05-31T16:41:27Z</time>
      </trkpt>
      <trkpt lat="46.18555" lon="-0.98202">
        <ele>22.6</ele>
        <time>2020-05-31T16:41:28Z</time>
      </trkpt>
      <trkpt lat="46.18555" lon="-0.98202">
        <ele>22.7</ele>
        <time>2020-05-31T16:41:29Z</time>
      </trkpt>
      <trkpt lat="46.18555" lon="-0.98203">
        <ele>22.7</ele>
        <time>2020-05-31T16:41:30Z</time>
      </trkpt>
      <trkpt lat="46.18555" lon="-0.98203">
        <ele>22.7</ele>
        <time>2020-05-31T16:41:31Z</time>
      </trkpt>
      <trkpt lat="46.18555" lon="-0.98203">
        <ele>22.7</ele>
        <time>2020-05-31T16:41:32Z</time>
      </trkpt>
      <trkpt lat="46.18554" lon="-0.98202">
        <ele>22.7</ele>
        <time>2020-05-31T16:41:33Z</time>
      </trkpt>
      <trkpt lat="46.18554" lon="-0.98202">
        <ele>22.7</ele>
        <time>2020-05-31T16:41:34Z</time>
      </trkpt>
      <trkpt lat="46.18554" lon="-0.98202">
        <ele>22.7</ele>
        <time>2020-05-31T16:41:35Z</time>
      </trkpt>
      <trkpt lat="46.18554" lon="-0.98202">
        <ele>22.7</ele>
        <time>2020-05-31T16:41:36Z</time>
      </trkpt>
      <trkpt lat="46.18554" lon="-0.98201">
        <ele>22.7</ele>
        <time>2020-05-31T16:41:37Z</time>
      </trkpt>
      <trkpt lat="46.18555" lon="-0.98201">
        <ele>22.7</ele>
        <time>2020-05-31T16:41:38Z</time>
      </trkpt>
      <trkpt lat="46.18555" lon="-0.98201">
        <ele>22.7</ele>
        <time>2020-05-31T16:41:39Z</time>
      </trkpt>
      <trkpt lat="46.18555" lon="-0.98201">
        <ele>22.7</ele>
        <time>2020-05-31T16:41:40Z</time>
      </trkpt>
      <trkpt lat="46.18555" lon="-0.98201">
        <ele>22.7</ele>
        <time>2020-05-31T16:41:41Z</time>
      </trkpt>
      <trkpt lat="46.18555" lon="-0.98201">
        <ele>22.7</ele>
        <time>2020-05-31T16:41:42Z</time>
      </trkpt>
      <trkpt lat="46.18555" lon="-0.98202">
        <ele>22.7</ele>
        <time>2020-05-31T16:41:43Z</time>
      </trkpt>
      <trkpt lat="46.18555" lon="-0.98202">
        <ele>22.7</ele>
        <time>2020-05-31T16:41:44Z</time>
      </trkpt>
      <trkpt lat="46.18555" lon="-0.98202">
        <ele>22.7</ele>
        <time>2020-05-31T16:41:45Z</time>
      </trkpt>
      <trkpt lat="46.18555" lon="-0.98203">
        <ele>22.7</ele>
        <time>2020-05-31T16:41:46Z</time>
      </trkpt>
      <trkpt lat="46.18555" lon="-0.98203">
        <ele>22.7</ele>
        <time>2020-05-31T16:41:47Z</time>
      </trkpt>
      <trkpt lat="46.18555" lon="-0.98203">
        <ele>22.7</ele>
        <time>2020-05-31T16:41:48Z</time>
      </trkpt>
      <trkpt lat="46.18555" lon="-0.98203">
        <ele>22.7</ele>
        <time>2020-05-31T16:41:49Z</time>
      </trkpt>
      <trkpt lat="46.18556" lon="-0.98203">
        <ele>22.7</ele>
        <time>2020-05-31T16:41:50Z</time>
      </trkpt>
      <trkpt lat="46.18556" lon="-0.98203">
        <ele>22.7</ele>
        <time>2020-05-31T16:41:51Z</time>
      </trkpt>
      <trkpt lat="46.18556" lon="-0.98202">
        <ele>22.7</ele>
        <time>2020-05-31T16:41:52Z</time>
      </trkpt>
      <trkpt lat="46.18556" lon="-0.98202">
        <ele>22.7</ele>
        <time>2020-05-31T16:41:53Z</time>
      </trkpt>
      <trkpt lat="46.18556" lon="-0.98202">
        <ele>22.7</ele>
        <time>2020-05-31T16:41:54Z</time>
      </trkpt>
      <trkpt lat="46.18555" lon="-0.98201">
        <ele>22.7</ele>
        <time>2020-05-31T16:41:55Z</time>
      </trkpt>
      <trkpt lat="46.18556" lon="-0.98202">
        <ele>22.7</ele>
        <time>2020-05-31T16:41:56Z</time>
      </trkpt>
      <trkpt lat="46.18556" lon="-0.98202">
        <ele>22.7</ele>
        <time>2020-05-31T16:41:57Z</time>
      </trkpt>
      <trkpt lat="46.18556" lon="-0.98203">
        <ele>22.7</ele>
        <time>2020-05-31T16:41:58Z</time>
      </trkpt>
      <trkpt lat="46.18556" lon="-0.98203">
        <ele>22.7</ele>
        <time>2020-05-31T16:41:59Z</time>
      </trkpt>
      <trkpt lat="46.18557" lon="-0.98203">
        <ele>22.7</ele>
        <time>2020-05-31T16:42:00Z</time>
      </trkpt>
      <trkpt lat="46.18557" lon="-0.98203">
        <ele>22.7</ele>
        <time>2020-05-31T16:42:01Z</time>
      </trkpt>
      <trkpt lat="46.18557" lon="-0.98203">
        <ele>22.7</ele>
        <time>2020-05-31T16:42:02Z</time>
      </trkpt>
      <trkpt lat="46.18557" lon="-0.98204">
        <ele>22.8</ele>
        <time>2020-05-31T16:42:03Z</time>
      </trkpt>
      <trkpt lat="46.18557" lon="-0.98204">
        <ele>22.8</ele>
        <time>2020-05-31T16:42:04Z</time>
      </trkpt>
      <trkpt lat="46.18557" lon="-0.98203">
        <ele>22.8</ele>
        <time>2020-05-31T16:42:05Z</time>
      </trkpt>
      <trkpt lat="46.18557" lon="-0.98203">
        <ele>22.8</ele>
        <time>2020-05-31T16:42:06Z</time>
      </trkpt>
      <trkpt lat="46.18557" lon="-0.98203">
        <ele>22.8</ele>
        <time>2020-05-31T16:42:07Z</time>
      </trkpt>
      <trkpt lat="46.18557" lon="-0.98202">
        <ele>22.8</ele>
        <time>2020-05-31T16:42:08Z</time>
      </trkpt>
      <trkpt lat="46.18557" lon="-0.98202">
        <ele>22.8</ele>
        <time>2020-05-31T16:42:09Z</time>
      </trkpt>
      <trkpt lat="46.18557" lon="-0.98202">
        <ele>22.8</ele>
        <time>2020-05-31T16:42:10Z</time>
      </trkpt>
      <trkpt lat="46.18557" lon="-0.98202">
        <ele>22.8</ele>
        <time>2020-05-31T16:42:11Z</time>
      </trkpt>
      <trkpt lat="46.18557" lon="-0.98202">
        <ele>22.8</ele>
        <time>2020-05-31T16:42:12Z</time>
      </trkpt>
      <trkpt lat="46.18557" lon="-0.98202">
        <ele>22.8</ele>
        <time>2020-05-31T16:42:13Z</time>
      </trkpt>
      <trkpt lat="46.18557" lon="-0.98201">
        <ele>22.8</ele>
        <time>2020-05-31T16:42:14Z</time>
      </trkpt>
      <trkpt lat="46.18556" lon="-0.982">
        <ele>22.8</ele>
        <time>2020-05-31T16:42:15Z</time>
      </trkpt>
      <trkpt lat="46.18557" lon="-0.98201">
        <ele>22.8</ele>
        <time>2020-05-31T16:42:16Z</time>
      </trkpt>
      <trkpt lat="46.18557" lon="-0.98201">
        <ele>22.8</ele>
        <time>2020-05-31T16:42:17Z</time>
      </trkpt>
      <trkpt lat="46.18557" lon="-0.98202">
        <ele>22.8</ele>
        <time>2020-05-31T16:42:18Z</time>
      </trkpt>
      <trkpt lat="46.18557" lon="-0.98202">
        <ele>22.8</ele>
        <time>2020-05-31T16:42:19Z</time>
      </trkpt>
      <trkpt lat="46.18557" lon="-0.98203">
        <ele>22.8</ele>
        <time>2020-05-31T16:42:20Z</time>
      </trkpt>
      <trkpt lat="46.18557" lon="-0.98203">
        <ele>22.8</ele>
        <time>2020-05-31T16:42:21Z</time>
      </trkpt>
      <trkpt lat="46.18557" lon="-0.98203">
        <ele>22.8</ele>
        <time>2020-05-31T16:42:22Z</time>
      </trkpt>
      <trkpt lat="46.18557" lon="-0.98204">
        <ele>22.8</ele>
        <time>2020-05-31T16:42:23Z</time>
      </trkpt>
      <trkpt lat="46.18557" lon="-0.98205">
        <ele>22.8</ele>
        <time>2020-05-31T16:42:24Z</time>
      </trkpt>
      <trkpt lat="46.18556" lon="-0.98205">
        <ele>22.8</ele>
        <time>2020-05-31T16:42:25Z</time>
      </trkpt>
      <trkpt lat="46.18556" lon="-0.98206">
        <ele>22.8</ele>
        <time>2020-05-31T16:42:26Z</time>
      </trkpt>
      <trkpt lat="46.18556" lon="-0.98205">
        <ele>22.8</ele>
        <time>2020-05-31T16:42:27Z</time>
      </trkpt>
      <trkpt lat="46.18556" lon="-0.98204">
        <ele>22.8</ele>
        <time>2020-05-31T16:42:28Z</time>
      </trkpt>
      <trkpt lat="46.18556" lon="-0.98203">
        <ele>22.8</ele>
        <time>2020-05-31T16:42:29Z</time>
      </trkpt>
      <trkpt lat="46.18556" lon="-0.98204">
        <ele>22.9</ele>
        <time>2020-05-31T16:42:30Z</time>
      </trkpt>
      <trkpt lat="46.18556" lon="-0.98202">
        <ele>22.9</ele>
        <time>2020-05-31T16:42:31Z</time>
      </trkpt>
      <trkpt lat="46.18556" lon="-0.98203">
        <ele>22.9</ele>
        <time>2020-05-31T16:42:32Z</time>
      </trkpt>
      <trkpt lat="46.18556" lon="-0.98201">
        <ele>22.9</ele>
        <time>2020-05-31T16:42:33Z</time>
      </trkpt>
      <trkpt lat="46.18555" lon="-0.982">
        <ele>22.9</ele>
        <time>2020-05-31T16:42:34Z</time>
      </trkpt>
      <trkpt lat="46.18556" lon="-0.982">
        <ele>22.9</ele>
        <time>2020-05-31T16:42:35Z</time>
      </trkpt>
      <trkpt lat="46.18556" lon="-0.98202">
        <ele>22.9</ele>
        <time>2020-05-31T16:42:36Z</time>
      </trkpt>
      <trkpt lat="46.18556" lon="-0.982">
        <ele>22.9</ele>
        <time>2020-05-31T16:42:37Z</time>
      </trkpt>
      <trkpt lat="46.18556" lon="-0.982">
        <ele>22.9</ele>
        <time>2020-05-31T16:42:38Z</time>
      </trkpt>
      <trkpt lat="46.18556" lon="-0.982">
        <ele>22.9</ele>
        <time>2020-05-31T16:42:39Z</time>
      </trkpt>
      <trkpt lat="46.18556" lon="-0.98202">
        <ele>22.9</ele>
        <time>2020-05-31T16:42:40Z</time>
      </trkpt>
      <trkpt lat="46.18556" lon="-0.98202">
        <ele>22.9</ele>
        <time>2020-05-31T16:42:41Z</time>
      </trkpt>
      <trkpt lat="46.18556" lon="-0.98202">
        <ele>22.9</ele>
        <time>2020-05-31T16:42:42Z</time>
      </trkpt>
      <trkpt lat="46.18556" lon="-0.98202">
        <ele>22.9</ele>
        <time>2020-05-31T16:42:43Z</time>
      </trkpt>
      <trkpt lat="46.18556" lon="-0.98202">
        <ele>22.9</ele>
        <time>2020-05-31T16:42:44Z</time>
      </trkpt>
      <trkpt lat="46.18556" lon="-0.98202">
        <ele>22.9</ele>
        <time>2020-05-31T16:42:45Z</time>
      </trkpt>
      <trkpt lat="46.18556" lon="-0.98202">
        <ele>22.9</ele>
        <time>2020-05-31T16:42:46Z</time>
      </trkpt>
      <trkpt lat="46.18556" lon="-0.98201">
        <ele>23</ele>
        <time>2020-05-31T16:42:47Z</time>
      </trkpt>
      <trkpt lat="46.18556" lon="-0.98201">
        <ele>23</ele>
        <time>2020-05-31T16:42:48Z</time>
      </trkpt>
      <trkpt lat="46.18556" lon="-0.98202">
        <ele>23</ele>
        <time>2020-05-31T16:42:49Z</time>
      </trkpt>
      <trkpt lat="46.18556" lon="-0.98202">
        <ele>23</ele>
        <time>2020-05-31T16:42:50Z</time>
      </trkpt>
      <trkpt lat="46.18556" lon="-0.98202">
        <ele>23</ele>
        <time>2020-05-31T16:42:51Z</time>
      </trkpt>
      <trkpt lat="46.18556" lon="-0.98202">
        <ele>23</ele>
        <time>2020-05-31T16:42:52Z</time>
      </trkpt>
      <trkpt lat="46.18556" lon="-0.98202">
        <ele>23</ele>
        <time>2020-05-31T16:42:53Z</time>
      </trkpt>
      <trkpt lat="46.18556" lon="-0.98202">
        <ele>23</ele>
        <time>2020-05-31T16:42:54Z</time>
      </trkpt>
      <trkpt lat="46.18556" lon="-0.98202">
        <ele>23</ele>
        <time>2020-05-31T16:42:55Z</time>
      </trkpt>
      <trkpt lat="46.18556" lon="-0.98202">
        <ele>23</ele>
        <time>2020-05-31T16:42:56Z</time>
      </trkpt>
      <trkpt lat="46.18556" lon="-0.98202">
        <ele>23</ele>
        <time>2020-05-31T16:42:57Z</time>
      </trkpt>
      <trkpt lat="46.18556" lon="-0.98202">
        <ele>23</ele>
        <time>2020-05-31T16:42:58Z</time>
      </trkpt>
      <trkpt lat="46.18556" lon="-0.98202">
        <ele>23</ele>
        <time>2020-05-31T16:42:59Z</time>
      </trkpt>
      <trkpt lat="46.18556" lon="-0.98202">
        <ele>23</ele>
        <time>2020-05-31T16:43:00Z</time>
      </trkpt>
      <trkpt lat="46.18556" lon="-0.98202">
        <ele>23</ele>
        <time>2020-05-31T16:43:01Z</time>
      </trkpt>
      <trkpt lat="46.18556" lon="-0.98202">
        <ele>23</ele>
        <time>2020-05-31T16:43:02Z</time>
      </trkpt>
      <trkpt lat="46.18556" lon="-0.98202">
        <ele>23</ele>
        <time>2020-05-31T16:43:03Z</time>
      </trkpt>
      <trkpt lat="46.18556" lon="-0.98202">
        <ele>23</ele>
        <time>2020-05-31T16:43:04Z</time>
      </trkpt>
      <trkpt lat="46.18555" lon="-0.98202">
        <ele>23</ele>
        <time>2020-05-31T16:43:05Z</time>
      </trkpt>
      <trkpt lat="46.18555" lon="-0.98202">
        <ele>23</ele>
        <time>2020-05-31T16:43:06Z</time>
      </trkpt>
      <trkpt lat="46.18555" lon="-0.982">
        <ele>23</ele>
        <time>2020-05-31T16:43:07Z</time>
      </trkpt>
      <trkpt lat="46.18555" lon="-0.98201">
        <ele>23</ele>
        <time>2020-05-31T16:43:08Z</time>
      </trkpt>
      <trkpt lat="46.18554" lon="-0.98202">
        <ele>23</ele>
        <time>2020-05-31T16:43:09Z</time>
      </trkpt>
      <trkpt lat="46.18554" lon="-0.98202">
        <ele>23</ele>
        <time>2020-05-31T16:43:10Z</time>
      </trkpt>
      <trkpt lat="46.18554" lon="-0.98201">
        <ele>23</ele>
        <time>2020-05-31T16:43:11Z</time>
      </trkpt>
      <trkpt lat="46.18554" lon="-0.98202">
        <ele>23</ele>
        <time>2020-05-31T16:43:12Z</time>
      </trkpt>
      <trkpt lat="46.18554" lon="-0.98203">
        <ele>23</ele>
        <time>2020-05-31T16:43:13Z</time>
      </trkpt>
      <trkpt lat="46.18554" lon="-0.98202">
        <ele>23</ele>
        <time>2020-05-31T16:43:14Z</time>
      </trkpt>
      <trkpt lat="46.18554" lon="-0.98203">
        <ele>23</ele>
        <time>2020-05-31T16:43:15Z</time>
      </trkpt>
      <trkpt lat="46.18553" lon="-0.98201">
        <ele>23</ele>
        <time>2020-05-31T16:43:16Z</time>
      </trkpt>
      <trkpt lat="46.18554" lon="-0.98202">
        <ele>23</ele>
        <time>2020-05-31T16:43:17Z</time>
      </trkpt>
      <trkpt lat="46.18553" lon="-0.98201">
        <ele>23</ele>
        <time>2020-05-31T16:43:18Z</time>
      </trkpt>
      <trkpt lat="46.18553" lon="-0.982">
        <ele>23</ele>
        <time>2020-05-31T16:43:19Z</time>
      </trkpt>
      <trkpt lat="46.18553" lon="-0.982">
        <ele>23</ele>
        <time>2020-05-31T16:43:20Z</time>
      </trkpt>
      <trkpt lat="46.18553" lon="-0.98201">
        <ele>23</ele>
        <time>2020-05-31T16:43:21Z</time>
      </trkpt>
      <trkpt lat="46.18553" lon="-0.98201">
        <ele>23</ele>
        <time>2020-05-31T16:43:22Z</time>
      </trkpt>
      <trkpt lat="46.18553" lon="-0.98202">
        <ele>23</ele>
        <time>2020-05-31T16:43:23Z</time>
      </trkpt>
      <trkpt lat="46.18553" lon="-0.98201">
        <ele>23</ele>
        <time>2020-05-31T16:43:24Z</time>
      </trkpt>
      <trkpt lat="46.18553" lon="-0.98201">
        <ele>23.1</ele>
        <time>2020-05-31T16:43:25Z</time>
      </trkpt>
      <trkpt lat="46.18553" lon="-0.982">
        <ele>23.1</ele>
        <time>2020-05-31T16:43:26Z</time>
      </trkpt>
      <trkpt lat="46.18553" lon="-0.982">
        <ele>23.1</ele>
        <time>2020-05-31T16:43:27Z</time>
      </trkpt>
      <trkpt lat="46.18553" lon="-0.98201">
        <ele>23.1</ele>
        <time>2020-05-31T16:43:28Z</time>
      </trkpt>
      <trkpt lat="46.18553" lon="-0.98202">
        <ele>23.1</ele>
        <time>2020-05-31T16:43:29Z</time>
      </trkpt>
      <trkpt lat="46.18553" lon="-0.98201">
        <ele>23.1</ele>
        <time>2020-05-31T16:43:30Z</time>
      </trkpt>
      <trkpt lat="46.18553" lon="-0.98201">
        <ele>23.1</ele>
        <time>2020-05-31T16:43:31Z</time>
      </trkpt>
      <trkpt lat="46.18553" lon="-0.98201">
        <ele>23.1</ele>
        <time>2020-05-31T16:43:32Z</time>
      </trkpt>
      <trkpt lat="46.18553" lon="-0.98202">
        <ele>23.1</ele>
        <time>2020-05-31T16:43:33Z</time>
      </trkpt>
      <trkpt lat="46.18554" lon="-0.98204">
        <ele>23.1</ele>
        <time>2020-05-31T16:43:34Z</time>
      </trkpt>
      <trkpt lat="46.18554" lon="-0.98206">
        <ele>23.1</ele>
        <time>2020-05-31T16:43:35Z</time>
      </trkpt>
      <trkpt lat="46.18554" lon="-0.98208">
        <ele>23.1</ele>
        <time>2020-05-31T16:43:36Z</time>
      </trkpt>
      <trkpt lat="46.18555" lon="-0.98213">
        <ele>23.1</ele>
        <time>2020-05-31T16:43:37Z</time>
      </trkpt>
      <trkpt lat="46.18555" lon="-0.98215">
        <ele>23.1</ele>
        <time>2020-05-31T16:43:38Z</time>
      </trkpt>
      <trkpt lat="46.18556" lon="-0.9822">
        <ele>23.2</ele>
        <time>2020-05-31T16:43:39Z</time>
      </trkpt>
      <trkpt lat="46.18557" lon="-0.98226">
        <ele>23.2</ele>
        <time>2020-05-31T16:43:40Z</time>
      </trkpt>
      <trkpt lat="46.18558" lon="-0.98231">
        <ele>23.2</ele>
        <time>2020-05-31T16:43:41Z</time>
      </trkpt>
      <trkpt lat="46.18558" lon="-0.98237">
        <ele>23.2</ele>
        <time>2020-05-31T16:43:42Z</time>
      </trkpt>
      <trkpt lat="46.18558" lon="-0.98243">
        <ele>23.2</ele>
        <time>2020-05-31T16:43:43Z</time>
      </trkpt>
      <trkpt lat="46.18558" lon="-0.98249">
        <ele>23.3</ele>
        <time>2020-05-31T16:43:44Z</time>
      </trkpt>
      <trkpt lat="46.18557" lon="-0.98255">
        <ele>23.3</ele>
        <time>2020-05-31T16:43:45Z</time>
      </trkpt>
      <trkpt lat="46.18557" lon="-0.9826">
        <ele>23.3</ele>
        <time>2020-05-31T16:43:46Z</time>
      </trkpt>
      <trkpt lat="46.18555" lon="-0.98266">
        <ele>23.4</ele>
        <time>2020-05-31T16:43:47Z</time>
      </trkpt>
      <trkpt lat="46.18555" lon="-0.98273">
        <ele>23.4</ele>
        <time>2020-05-31T16:43:48Z</time>
      </trkpt>
      <trkpt lat="46.18554" lon="-0.98279">
        <ele>23.4</ele>
        <time>2020-05-31T16:43:49Z</time>
      </trkpt>
      <trkpt lat="46.18554" lon="-0.98284">
        <ele>23.5</ele>
        <time>2020-05-31T16:43:50Z</time>
      </trkpt>
      <trkpt lat="46.18554" lon="-0.98289">
        <ele>23.5</ele>
        <time>2020-05-31T16:43:51Z</time>
      </trkpt>
      <trkpt lat="46.18554" lon="-0.98295">
        <ele>23.6</ele>
        <time>2020-05-31T16:43:52Z</time>
      </trkpt>
      <trkpt lat="46.18554" lon="-0.98301">
        <ele>23.6</ele>
        <time>2020-05-31T16:43:53Z</time>
      </trkpt>
      <trkpt lat="46.18554" lon="-0.98308">
        <ele>23.6</ele>
        <time>2020-05-31T16:43:54Z</time>
      </trkpt>
      <trkpt lat="46.18554" lon="-0.98314">
        <ele>23.7</ele>
        <time>2020-05-31T16:43:55Z</time>
      </trkpt>
      <trkpt lat="46.18554" lon="-0.9832">
        <ele>23.7</ele>
        <time>2020-05-31T16:43:56Z</time>
      </trkpt>
      <trkpt lat="46.18554" lon="-0.98326">
        <ele>23.8</ele>
        <time>2020-05-31T16:43:57Z</time>
      </trkpt>
      <trkpt lat="46.18554" lon="-0.98332">
        <ele>23.8</ele>
        <time>2020-05-31T16:43:58Z</time>
      </trkpt>
      <trkpt lat="46.18555" lon="-0.98339">
        <ele>23.8</ele>
        <time>2020-05-31T16:43:59Z</time>
      </trkpt>
      <trkpt lat="46.18555" lon="-0.98345">
        <ele>23.9</ele>
        <time>2020-05-31T16:44:00Z</time>
      </trkpt>
      <trkpt lat="46.18558" lon="-0.98352">
        <ele>23.9</ele>
        <time>2020-05-31T16:44:01Z</time>
      </trkpt>
      <trkpt lat="46.18559" lon="-0.98359">
        <ele>24</ele>
        <time>2020-05-31T16:44:02Z</time>
      </trkpt>
      <trkpt lat="46.1856" lon="-0.98366">
        <ele>24</ele>
        <time>2020-05-31T16:44:03Z</time>
      </trkpt>
      <trkpt lat="46.1856" lon="-0.98373">
        <ele>24.1</ele>
        <time>2020-05-31T16:44:04Z</time>
      </trkpt>
      <trkpt lat="46.18561" lon="-0.9838">
        <ele>24.1</ele>
        <time>2020-05-31T16:44:05Z</time>
      </trkpt>
      <trkpt lat="46.18561" lon="-0.98386">
        <ele>24.2</ele>
        <time>2020-05-31T16:44:06Z</time>
      </trkpt>
      <trkpt lat="46.18563" lon="-0.98394">
        <ele>24.2</ele>
        <time>2020-05-31T16:44:07Z</time>
      </trkpt>
      <trkpt lat="46.18564" lon="-0.98401">
        <ele>24.3</ele>
        <time>2020-05-31T16:44:08Z</time>
      </trkpt>
      <trkpt lat="46.18564" lon="-0.98408">
        <ele>24.3</ele>
        <time>2020-05-31T16:44:09Z</time>
      </trkpt>
      <trkpt lat="46.18565" lon="-0.98415">
        <ele>24.4</ele>
        <time>2020-05-31T16:44:10Z</time>
      </trkpt>
      <trkpt lat="46.18566" lon="-0.98422">
        <ele>24.4</ele>
        <time>2020-05-31T16:44:11Z</time>
      </trkpt>
      <trkpt lat="46.18568" lon="-0.9843">
        <ele>24.5</ele>
        <time>2020-05-31T16:44:12Z</time>
      </trkpt>
      <trkpt lat="46.18569" lon="-0.98437">
        <ele>24.5</ele>
        <time>2020-05-31T16:44:13Z</time>
      </trkpt>
      <trkpt lat="46.1857" lon="-0.98445">
        <ele>24.6</ele>
        <time>2020-05-31T16:44:14Z</time>
      </trkpt>
      <trkpt lat="46.18571" lon="-0.98453">
        <ele>24.6</ele>
        <time>2020-05-31T16:44:15Z</time>
      </trkpt>
      <trkpt lat="46.18572" lon="-0.9846">
        <ele>24.7</ele>
        <time>2020-05-31T16:44:16Z</time>
      </trkpt>
      <trkpt lat="46.18573" lon="-0.98468">
        <ele>24.8</ele>
        <time>2020-05-31T16:44:17Z</time>
      </trkpt>
      <trkpt lat="46.18574" lon="-0.98474">
        <ele>24.9</ele>
        <time>2020-05-31T16:44:18Z</time>
      </trkpt>
      <trkpt lat="46.18576" lon="-0.98481">
        <ele>25</ele>
        <time>2020-05-31T16:44:19Z</time>
      </trkpt>
      <trkpt lat="46.18577" lon="-0.98488">
        <ele>25.1</ele>
        <time>2020-05-31T16:44:20Z</time>
      </trkpt>
      <trkpt lat="46.18578" lon="-0.98494">
        <ele>25.2</ele>
        <time>2020-05-31T16:44:21Z</time>
      </trkpt>
      <trkpt lat="46.18579" lon="-0.98499">
        <ele>25.3</ele>
        <time>2020-05-31T16:44:22Z</time>
      </trkpt>
      <trkpt lat="46.1858" lon="-0.98505">
        <ele>25.4</ele>
        <time>2020-05-31T16:44:23Z</time>
      </trkpt>
      <trkpt lat="46.18582" lon="-0.98512">
        <ele>25.4</ele>
        <time>2020-05-31T16:44:24Z</time>
      </trkpt>
      <trkpt lat="46.18584" lon="-0.9852">
        <ele>25.5</ele>
        <time>2020-05-31T16:44:25Z</time>
      </trkpt>
      <trkpt lat="46.18585" lon="-0.98527">
        <ele>25.5</ele>
        <time>2020-05-31T16:44:26Z</time>
      </trkpt>
      <trkpt lat="46.18586" lon="-0.98535">
        <ele>25.5</ele>
        <time>2020-05-31T16:44:27Z</time>
      </trkpt>
      <trkpt lat="46.18588" lon="-0.98543">
        <ele>25.6</ele>
        <time>2020-05-31T16:44:28Z</time>
      </trkpt>
      <trkpt lat="46.1859" lon="-0.98551">
        <ele>25.6</ele>
        <time>2020-05-31T16:44:29Z</time>
      </trkpt>
      <trkpt lat="46.18591" lon="-0.98558">
        <ele>25.6</ele>
        <time>2020-05-31T16:44:30Z</time>
      </trkpt>
      <trkpt lat="46.18591" lon="-0.98566">
        <ele>25.7</ele>
        <time>2020-05-31T16:44:31Z</time>
      </trkpt>
      <trkpt lat="46.18592" lon="-0.98572">
        <ele>25.7</ele>
        <time>2020-05-31T16:44:32Z</time>
      </trkpt>
      <trkpt lat="46.18593" lon="-0.98579">
        <ele>25.8</ele>
        <time>2020-05-31T16:44:33Z</time>
      </trkpt>
      <trkpt lat="46.18594" lon="-0.98585">
        <ele>25.9</ele>
        <time>2020-05-31T16:44:34Z</time>
      </trkpt>
      <trkpt lat="46.18595" lon="-0.98593">
        <ele>26</ele>
        <time>2020-05-31T16:44:35Z</time>
      </trkpt>
      <trkpt lat="46.18596" lon="-0.986">
        <ele>26.1</ele>
        <time>2020-05-31T16:44:36Z</time>
      </trkpt>
      <trkpt lat="46.18597" lon="-0.98607">
        <ele>26.2</ele>
        <time>2020-05-31T16:44:37Z</time>
      </trkpt>
      <trkpt lat="46.18598" lon="-0.98615">
        <ele>26.3</ele>
        <time>2020-05-31T16:44:38Z</time>
      </trkpt>
      <trkpt lat="46.18598" lon="-0.98623">
        <ele>26.4</ele>
        <time>2020-05-31T16:44:39Z</time>
      </trkpt>
      <trkpt lat="46.18599" lon="-0.98629">
        <ele>26.5</ele>
        <time>2020-05-31T16:44:40Z</time>
      </trkpt>
      <trkpt lat="46.18599" lon="-0.98635">
        <ele>26.6</ele>
        <time>2020-05-31T16:44:41Z</time>
      </trkpt>
      <trkpt lat="46.186" lon="-0.98641">
        <ele>26.7</ele>
        <time>2020-05-31T16:44:42Z</time>
      </trkpt>
      <trkpt lat="46.186" lon="-0.98647">
        <ele>26.8</ele>
        <time>2020-05-31T16:44:43Z</time>
      </trkpt>
      <trkpt lat="46.18601" lon="-0.98652">
        <ele>26.8</ele>
        <time>2020-05-31T16:44:44Z</time>
      </trkpt>
      <trkpt lat="46.18602" lon="-0.98658">
        <ele>26.9</ele>
        <time>2020-05-31T16:44:45Z</time>
      </trkpt>
      <trkpt lat="46.18602" lon="-0.98664">
        <ele>27</ele>
        <time>2020-05-31T16:44:46Z</time>
      </trkpt>
      <trkpt lat="46.18603" lon="-0.9867">
        <ele>27.1</ele>
        <time>2020-05-31T16:44:47Z</time>
      </trkpt>
      <trkpt lat="46.18603" lon="-0.98677">
        <ele>27.1</ele>
        <time>2020-05-31T16:44:48Z</time>
      </trkpt>
      <trkpt lat="46.18604" lon="-0.98683">
        <ele>27.2</ele>
        <time>2020-05-31T16:44:49Z</time>
      </trkpt>
      <trkpt lat="46.18605" lon="-0.98689">
        <ele>27.3</ele>
        <time>2020-05-31T16:44:50Z</time>
      </trkpt>
      <trkpt lat="46.18606" lon="-0.98695">
        <ele>27.3</ele>
        <time>2020-05-31T16:44:51Z</time>
      </trkpt>
      <trkpt lat="46.18607" lon="-0.987">
        <ele>27.4</ele>
        <time>2020-05-31T16:44:52Z</time>
      </trkpt>
      <trkpt lat="46.18608" lon="-0.98707">
        <ele>27.5</ele>
        <time>2020-05-31T16:44:53Z</time>
      </trkpt>
      <trkpt lat="46.18609" lon="-0.98713">
        <ele>27.6</ele>
        <time>2020-05-31T16:44:54Z</time>
      </trkpt>
      <trkpt lat="46.1861" lon="-0.9872">
        <ele>27.6</ele>
        <time>2020-05-31T16:44:55Z</time>
      </trkpt>
      <trkpt lat="46.18611" lon="-0.98726">
        <ele>27.7</ele>
        <time>2020-05-31T16:44:56Z</time>
      </trkpt>
      <trkpt lat="46.18611" lon="-0.98733">
        <ele>27.8</ele>
        <time>2020-05-31T16:44:57Z</time>
      </trkpt>
      <trkpt lat="46.18612" lon="-0.98739">
        <ele>27.9</ele>
        <time>2020-05-31T16:44:58Z</time>
      </trkpt>
      <trkpt lat="46.18612" lon="-0.98745">
        <ele>28</ele>
        <time>2020-05-31T16:44:59Z</time>
      </trkpt>
      <trkpt lat="46.18612" lon="-0.98751">
        <ele>28.1</ele>
        <time>2020-05-31T16:45:00Z</time>
      </trkpt>
      <trkpt lat="46.18612" lon="-0.98757">
        <ele>28.1</ele>
        <time>2020-05-31T16:45:01Z</time>
      </trkpt>
      <trkpt lat="46.18612" lon="-0.98763">
        <ele>28.2</ele>
        <time>2020-05-31T16:45:02Z</time>
      </trkpt>
      <trkpt lat="46.18612" lon="-0.98768">
        <ele>28.3</ele>
        <time>2020-05-31T16:45:03Z</time>
      </trkpt>
      <trkpt lat="46.18612" lon="-0.98773">
        <ele>28.4</ele>
        <time>2020-05-31T16:45:04Z</time>
      </trkpt>
      <trkpt lat="46.18612" lon="-0.98777">
        <ele>28.5</ele>
        <time>2020-05-31T16:45:05Z</time>
      </trkpt>
      <trkpt lat="46.18612" lon="-0.98783">
        <ele>28.6</ele>
        <time>2020-05-31T16:45:06Z</time>
      </trkpt>
      <trkpt lat="46.18612" lon="-0.98785">
        <ele>28.6</ele>
        <time>2020-05-31T16:45:07Z</time>
      </trkpt>
      <trkpt lat="46.18611" lon="-0.98791">
        <ele>28.7</ele>
        <time>2020-05-31T16:45:08Z</time>
      </trkpt>
      <trkpt lat="46.1861" lon="-0.98797">
        <ele>28.8</ele>
        <time>2020-05-31T16:45:09Z</time>
      </trkpt>
      <trkpt lat="46.18609" lon="-0.98803">
        <ele>28.8</ele>
        <time>2020-05-31T16:45:10Z</time>
      </trkpt>
      <trkpt lat="46.18608" lon="-0.9881">
        <ele>28.9</ele>
        <time>2020-05-31T16:45:11Z</time>
      </trkpt>
      <trkpt lat="46.18608" lon="-0.98818">
        <ele>29.1</ele>
        <time>2020-05-31T16:45:12Z</time>
      </trkpt>
      <trkpt lat="46.18606" lon="-0.98826">
        <ele>29.2</ele>
        <time>2020-05-31T16:45:13Z</time>
      </trkpt>
      <trkpt lat="46.18606" lon="-0.98834">
        <ele>29.3</ele>
        <time>2020-05-31T16:45:14Z</time>
      </trkpt>
      <trkpt lat="46.18607" lon="-0.9884">
        <ele>29.5</ele>
        <time>2020-05-31T16:45:15Z</time>
      </trkpt>
      <trkpt lat="46.18606" lon="-0.98847">
        <ele>29.6</ele>
        <time>2020-05-31T16:45:16Z</time>
      </trkpt>
      <trkpt lat="46.18606" lon="-0.98855">
        <ele>29.7</ele>
        <time>2020-05-31T16:45:17Z</time>
      </trkpt>
      <trkpt lat="46.18605" lon="-0.98861">
        <ele>29.9</ele>
        <time>2020-05-31T16:45:18Z</time>
      </trkpt>
      <trkpt lat="46.18604" lon="-0.98868">
        <ele>30</ele>
        <time>2020-05-31T16:45:19Z</time>
      </trkpt>
      <trkpt lat="46.18604" lon="-0.98874">
        <ele>30.1</ele>
        <time>2020-05-31T16:45:20Z</time>
      </trkpt>
      <trkpt lat="46.18603" lon="-0.9888">
        <ele>30.2</ele>
        <time>2020-05-31T16:45:21Z</time>
      </trkpt>
      <trkpt lat="46.18603" lon="-0.98887">
        <ele>30.4</ele>
        <time>2020-05-31T16:45:22Z</time>
      </trkpt>
      <trkpt lat="46.18602" lon="-0.98893">
        <ele>30.5</ele>
        <time>2020-05-31T16:45:23Z</time>
      </trkpt>
      <trkpt lat="46.18601" lon="-0.98899">
        <ele>30.6</ele>
        <time>2020-05-31T16:45:24Z</time>
      </trkpt>
      <trkpt lat="46.18602" lon="-0.98908">
        <ele>30.8</ele>
        <time>2020-05-31T16:45:25Z</time>
      </trkpt>
      <trkpt lat="46.18602" lon="-0.98919">
        <ele>31</ele>
        <time>2020-05-31T16:45:26Z</time>
      </trkpt>
      <trkpt lat="46.18602" lon="-0.98928">
        <ele>31.2</ele>
        <time>2020-05-31T16:45:27Z</time>
      </trkpt>
      <trkpt lat="46.18601" lon="-0.98942">
        <ele>31.5</ele>
        <time>2020-05-31T16:45:28Z</time>
      </trkpt>
      <trkpt lat="46.186" lon="-0.98954">
        <ele>31.8</ele>
        <time>2020-05-31T16:45:29Z</time>
      </trkpt>
      <trkpt lat="46.18599" lon="-0.98962">
        <ele>31.9</ele>
        <time>2020-05-31T16:45:30Z</time>
      </trkpt>
      <trkpt lat="46.18597" lon="-0.98973">
        <ele>32.2</ele>
        <time>2020-05-31T16:45:31Z</time>
      </trkpt>
      <trkpt lat="46.18596" lon="-0.98983">
        <ele>32.4</ele>
        <time>2020-05-31T16:45:32Z</time>
      </trkpt>
      <trkpt lat="46.18596" lon="-0.98992">
        <ele>32.6</ele>
        <time>2020-05-31T16:45:33Z</time>
      </trkpt>
      <trkpt lat="46.18595" lon="-0.99002">
        <ele>32.8</ele>
        <time>2020-05-31T16:45:34Z</time>
      </trkpt>
      <trkpt lat="46.18595" lon="-0.99009">
        <ele>33</ele>
        <time>2020-05-31T16:45:35Z</time>
      </trkpt>
      <trkpt lat="46.18594" lon="-0.99016">
        <ele>33.1</ele>
        <time>2020-05-31T16:45:36Z</time>
      </trkpt>
      <trkpt lat="46.18593" lon="-0.99023">
        <ele>33.2</ele>
        <time>2020-05-31T16:45:37Z</time>
      </trkpt>
      <trkpt lat="46.18592" lon="-0.99029">
        <ele>33.2</ele>
        <time>2020-05-31T16:45:38Z</time>
      </trkpt>
      <trkpt lat="46.18592" lon="-0.99036">
        <ele>33.3</ele>
        <time>2020-05-31T16:45:39Z</time>
      </trkpt>
      <trkpt lat="46.18591" lon="-0.99043">
        <ele>33.4</ele>
        <time>2020-05-31T16:45:40Z</time>
      </trkpt>
      <trkpt lat="46.1859" lon="-0.99049">
        <ele>33.4</ele>
        <time>2020-05-31T16:45:41Z</time>
      </trkpt>
      <trkpt lat="46.1859" lon="-0.99053">
        <ele>33.5</ele>
        <time>2020-05-31T16:45:42Z</time>
      </trkpt>
      <trkpt lat="46.18589" lon="-0.99058">
        <ele>33.6</ele>
        <time>2020-05-31T16:45:43Z</time>
      </trkpt>
      <trkpt lat="46.18588" lon="-0.99063">
        <ele>33.7</ele>
        <time>2020-05-31T16:45:44Z</time>
      </trkpt>
      <trkpt lat="46.18588" lon="-0.99068">
        <ele>33.8</ele>
        <time>2020-05-31T16:45:45Z</time>
      </trkpt>
      <trkpt lat="46.18587" lon="-0.99073">
        <ele>33.9</ele>
        <time>2020-05-31T16:45:46Z</time>
      </trkpt>
      <trkpt lat="46.18586" lon="-0.99078">
        <ele>34</ele>
        <time>2020-05-31T16:45:47Z</time>
      </trkpt>
      <trkpt lat="46.18585" lon="-0.99085">
        <ele>34.2</ele>
        <time>2020-05-31T16:45:48Z</time>
      </trkpt>
      <trkpt lat="46.18585" lon="-0.9909">
        <ele>34.3</ele>
        <time>2020-05-31T16:45:49Z</time>
      </trkpt>
      <trkpt lat="46.18584" lon="-0.99096">
        <ele>34.4</ele>
        <time>2020-05-31T16:45:50Z</time>
      </trkpt>
      <trkpt lat="46.18584" lon="-0.99098">
        <ele>34.5</ele>
        <time>2020-05-31T16:45:51Z</time>
      </trkpt>
      <trkpt lat="46.18583" lon="-0.99103">
        <ele>34.6</ele>
        <time>2020-05-31T16:45:52Z</time>
      </trkpt>
      <trkpt lat="46.18583" lon="-0.99106">
        <ele>34.6</ele>
        <time>2020-05-31T16:45:53Z</time>
      </trkpt>
      <trkpt lat="46.18581" lon="-0.99114">
        <ele>34.8</ele>
        <time>2020-05-31T16:45:54Z</time>
      </trkpt>
      <trkpt lat="46.1858" lon="-0.99122">
        <ele>34.8</ele>
        <time>2020-05-31T16:45:55Z</time>
      </trkpt>
      <trkpt lat="46.18578" lon="-0.99131">
        <ele>34.9</ele>
        <time>2020-05-31T16:45:56Z</time>
      </trkpt>
      <trkpt lat="46.18576" lon="-0.99135">
        <ele>35</ele>
        <time>2020-05-31T16:45:57Z</time>
      </trkpt>
      <trkpt lat="46.18575" lon="-0.99141">
        <ele>35.1</ele>
        <time>2020-05-31T16:45:58Z</time>
      </trkpt>
      <trkpt lat="46.18574" lon="-0.99146">
        <ele>35.1</ele>
        <time>2020-05-31T16:45:59Z</time>
      </trkpt>
      <trkpt lat="46.18572" lon="-0.99151">
        <ele>35.2</ele>
        <time>2020-05-31T16:46:00Z</time>
      </trkpt>
      <trkpt lat="46.1857" lon="-0.99157">
        <ele>35.2</ele>
        <time>2020-05-31T16:46:01Z</time>
      </trkpt>
      <trkpt lat="46.18569" lon="-0.99163">
        <ele>35.3</ele>
        <time>2020-05-31T16:46:02Z</time>
      </trkpt>
      <trkpt lat="46.18567" lon="-0.99171">
        <ele>35.4</ele>
        <time>2020-05-31T16:46:03Z</time>
      </trkpt>
      <trkpt lat="46.18567" lon="-0.99181">
        <ele>35.5</ele>
        <time>2020-05-31T16:46:04Z</time>
      </trkpt>
      <trkpt lat="46.18566" lon="-0.99189">
        <ele>35.6</ele>
        <time>2020-05-31T16:46:05Z</time>
      </trkpt>
      <trkpt lat="46.18564" lon="-0.99195">
        <ele>35.6</ele>
        <time>2020-05-31T16:46:06Z</time>
      </trkpt>
      <trkpt lat="46.18562" lon="-0.99202">
        <ele>35.7</ele>
        <time>2020-05-31T16:46:07Z</time>
      </trkpt>
      <trkpt lat="46.1856" lon="-0.9921">
        <ele>35.8</ele>
        <time>2020-05-31T16:46:08Z</time>
      </trkpt>
      <trkpt lat="46.18558" lon="-0.99216">
        <ele>35.8</ele>
        <time>2020-05-31T16:46:09Z</time>
      </trkpt>
      <trkpt lat="46.18556" lon="-0.99222">
        <ele>35.9</ele>
        <time>2020-05-31T16:46:10Z</time>
      </trkpt>
      <trkpt lat="46.18555" lon="-0.99226">
        <ele>35.9</ele>
        <time>2020-05-31T16:46:11Z</time>
      </trkpt>
      <trkpt lat="46.18554" lon="-0.9923">
        <ele>35.9</ele>
        <time>2020-05-31T16:46:12Z</time>
      </trkpt>
      <trkpt lat="46.18552" lon="-0.99235">
        <ele>35.9</ele>
        <time>2020-05-31T16:46:13Z</time>
      </trkpt>
      <trkpt lat="46.18551" lon="-0.99241">
        <ele>36</ele>
        <time>2020-05-31T16:46:14Z</time>
      </trkpt>
      <trkpt lat="46.1855" lon="-0.99248">
        <ele>36</ele>
        <time>2020-05-31T16:46:15Z</time>
      </trkpt>
      <trkpt lat="46.18549" lon="-0.99253">
        <ele>36.1</ele>
        <time>2020-05-31T16:46:16Z</time>
      </trkpt>
      <trkpt lat="46.18547" lon="-0.99261">
        <ele>36.1</ele>
        <time>2020-05-31T16:46:17Z</time>
      </trkpt>
      <trkpt lat="46.18546" lon="-0.99267">
        <ele>36.2</ele>
        <time>2020-05-31T16:46:18Z</time>
      </trkpt>
      <trkpt lat="46.18546" lon="-0.99274">
        <ele>36.2</ele>
        <time>2020-05-31T16:46:19Z</time>
      </trkpt>
      <trkpt lat="46.18545" lon="-0.9928">
        <ele>36.2</ele>
        <time>2020-05-31T16:46:20Z</time>
      </trkpt>
      <trkpt lat="46.18544" lon="-0.99287">
        <ele>36.2</ele>
        <time>2020-05-31T16:46:21Z</time>
      </trkpt>
      <trkpt lat="46.18543" lon="-0.99296">
        <ele>36.3</ele>
        <time>2020-05-31T16:46:22Z</time>
      </trkpt>
      <trkpt lat="46.18542" lon="-0.99303">
        <ele>36.3</ele>
        <time>2020-05-31T16:46:23Z</time>
      </trkpt>
      <trkpt lat="46.18541" lon="-0.99308">
        <ele>36.3</ele>
        <time>2020-05-31T16:46:24Z</time>
      </trkpt>
      <trkpt lat="46.18539" lon="-0.99316">
        <ele>36.3</ele>
        <time>2020-05-31T16:46:25Z</time>
      </trkpt>
      <trkpt lat="46.18537" lon="-0.99323">
        <ele>36.3</ele>
        <time>2020-05-31T16:46:26Z</time>
      </trkpt>
      <trkpt lat="46.18537" lon="-0.99326">
        <ele>36.3</ele>
        <time>2020-05-31T16:46:27Z</time>
      </trkpt>
      <trkpt lat="46.18535" lon="-0.99332">
        <ele>36.3</ele>
        <time>2020-05-31T16:46:28Z</time>
      </trkpt>
      <trkpt lat="46.18535" lon="-0.99337">
        <ele>36.4</ele>
        <time>2020-05-31T16:46:29Z</time>
      </trkpt>
      <trkpt lat="46.18533" lon="-0.99344">
        <ele>36.4</ele>
        <time>2020-05-31T16:46:30Z</time>
      </trkpt>
      <trkpt lat="46.18532" lon="-0.9935">
        <ele>36.4</ele>
        <time>2020-05-31T16:46:31Z</time>
      </trkpt>
      <trkpt lat="46.1853" lon="-0.99358">
        <ele>36.5</ele>
        <time>2020-05-31T16:46:32Z</time>
      </trkpt>
      <trkpt lat="46.18529" lon="-0.99365">
        <ele>36.5</ele>
        <time>2020-05-31T16:46:33Z</time>
      </trkpt>
      <trkpt lat="46.18528" lon="-0.99371">
        <ele>36.5</ele>
        <time>2020-05-31T16:46:34Z</time>
      </trkpt>
      <trkpt lat="46.18526" lon="-0.99377">
        <ele>36.5</ele>
        <time>2020-05-31T16:46:35Z</time>
      </trkpt>
      <trkpt lat="46.18525" lon="-0.99384">
        <ele>36.5</ele>
        <time>2020-05-31T16:46:36Z</time>
      </trkpt>
      <trkpt lat="46.18524" lon="-0.99392">
        <ele>36.5</ele>
        <time>2020-05-31T16:46:37Z</time>
      </trkpt>
      <trkpt lat="46.18522" lon="-0.99399">
        <ele>36.5</ele>
        <time>2020-05-31T16:46:38Z</time>
      </trkpt>
      <trkpt lat="46.1852" lon="-0.99406">
        <ele>36.5</ele>
        <time>2020-05-31T16:46:39Z</time>
      </trkpt>
      <trkpt lat="46.18518" lon="-0.99414">
        <ele>36.5</ele>
        <time>2020-05-31T16:46:40Z</time>
      </trkpt>
      <trkpt lat="46.18515" lon="-0.99424">
        <ele>36.5</ele>
        <time>2020-05-31T16:46:41Z</time>
      </trkpt>
      <trkpt lat="46.18513" lon="-0.99431">
        <ele>36.5</ele>
        <time>2020-05-31T16:46:42Z</time>
      </trkpt>
      <trkpt lat="46.18512" lon="-0.99439">
        <ele>36.5</ele>
        <time>2020-05-31T16:46:43Z</time>
      </trkpt>
      <trkpt lat="46.1851" lon="-0.99445">
        <ele>36.5</ele>
        <time>2020-05-31T16:46:44Z</time>
      </trkpt>
      <trkpt lat="46.18509" lon="-0.99452">
        <ele>36.5</ele>
        <time>2020-05-31T16:46:45Z</time>
      </trkpt>
      <trkpt lat="46.18508" lon="-0.99459">
        <ele>36.6</ele>
        <time>2020-05-31T16:46:46Z</time>
      </trkpt>
      <trkpt lat="46.18506" lon="-0.99466">
        <ele>36.6</ele>
        <time>2020-05-31T16:46:47Z</time>
      </trkpt>
      <trkpt lat="46.18505" lon="-0.9947">
        <ele>36.6</ele>
        <time>2020-05-31T16:46:48Z</time>
      </trkpt>
      <trkpt lat="46.18504" lon="-0.99477">
        <ele>36.6</ele>
        <time>2020-05-31T16:46:49Z</time>
      </trkpt>
      <trkpt lat="46.18502" lon="-0.99482">
        <ele>36.6</ele>
        <time>2020-05-31T16:46:50Z</time>
      </trkpt>
      <trkpt lat="46.185" lon="-0.99488">
        <ele>36.6</ele>
        <time>2020-05-31T16:46:51Z</time>
      </trkpt>
      <trkpt lat="46.18498" lon="-0.99497">
        <ele>36.6</ele>
        <time>2020-05-31T16:46:52Z</time>
      </trkpt>
      <trkpt lat="46.18496" lon="-0.99505">
        <ele>36.6</ele>
        <time>2020-05-31T16:46:53Z</time>
      </trkpt>
      <trkpt lat="46.18494" lon="-0.99513">
        <ele>36.6</ele>
        <time>2020-05-31T16:46:54Z</time>
      </trkpt>
      <trkpt lat="46.18493" lon="-0.99518">
        <ele>36.6</ele>
        <time>2020-05-31T16:46:55Z</time>
      </trkpt>
      <trkpt lat="46.18492" lon="-0.99525">
        <ele>36.6</ele>
        <time>2020-05-31T16:46:56Z</time>
      </trkpt>
      <trkpt lat="46.1849" lon="-0.9953">
        <ele>36.6</ele>
        <time>2020-05-31T16:46:57Z</time>
      </trkpt>
      <trkpt lat="46.18488" lon="-0.99538">
        <ele>36.6</ele>
        <time>2020-05-31T16:46:58Z</time>
      </trkpt>
      <trkpt lat="46.18487" lon="-0.99546">
        <ele>36.6</ele>
        <time>2020-05-31T16:46:59Z</time>
      </trkpt>
      <trkpt lat="46.18486" lon="-0.99553">
        <ele>36.6</ele>
        <time>2020-05-31T16:47:00Z</time>
      </trkpt>
      <trkpt lat="46.18483" lon="-0.9956">
        <ele>36.6</ele>
        <time>2020-05-31T16:47:01Z</time>
      </trkpt>
      <trkpt lat="46.18481" lon="-0.9957">
        <ele>36.6</ele>
        <time>2020-05-31T16:47:02Z</time>
      </trkpt>
      <trkpt lat="46.1848" lon="-0.99578">
        <ele>36.6</ele>
        <time>2020-05-31T16:47:03Z</time>
      </trkpt>
      <trkpt lat="46.18477" lon="-0.99585">
        <ele>36.6</ele>
        <time>2020-05-31T16:47:04Z</time>
      </trkpt>
      <trkpt lat="46.18474" lon="-0.99592">
        <ele>36.6</ele>
        <time>2020-05-31T16:47:05Z</time>
      </trkpt>
      <trkpt lat="46.18472" lon="-0.99598">
        <ele>36.6</ele>
        <time>2020-05-31T16:47:06Z</time>
      </trkpt>
      <trkpt lat="46.1847" lon="-0.99606">
        <ele>36.7</ele>
        <time>2020-05-31T16:47:07Z</time>
      </trkpt>
      <trkpt lat="46.18468" lon="-0.99614">
        <ele>36.7</ele>
        <time>2020-05-31T16:47:08Z</time>
      </trkpt>
      <trkpt lat="46.18465" lon="-0.99621">
        <ele>36.7</ele>
        <time>2020-05-31T16:47:09Z</time>
      </trkpt>
      <trkpt lat="46.18463" lon="-0.99628">
        <ele>36.8</ele>
        <time>2020-05-31T16:47:10Z</time>
      </trkpt>
      <trkpt lat="46.1846" lon="-0.99636">
        <ele>36.8</ele>
        <time>2020-05-31T16:47:11Z</time>
      </trkpt>
      <trkpt lat="46.18458" lon="-0.99642">
        <ele>36.9</ele>
        <time>2020-05-31T16:47:12Z</time>
      </trkpt>
      <trkpt lat="46.18455" lon="-0.99647">
        <ele>36.9</ele>
        <time>2020-05-31T16:47:13Z</time>
      </trkpt>
      <trkpt lat="46.18452" lon="-0.99653">
        <ele>37</ele>
        <time>2020-05-31T16:47:14Z</time>
      </trkpt>
      <trkpt lat="46.18449" lon="-0.9966">
        <ele>37</ele>
        <time>2020-05-31T16:47:15Z</time>
      </trkpt>
      <trkpt lat="46.18447" lon="-0.99668">
        <ele>37.1</ele>
        <time>2020-05-31T16:47:16Z</time>
      </trkpt>
      <trkpt lat="46.18445" lon="-0.99675">
        <ele>37.2</ele>
        <time>2020-05-31T16:47:17Z</time>
      </trkpt>
      <trkpt lat="46.18442" lon="-0.99683">
        <ele>37.2</ele>
        <time>2020-05-31T16:47:18Z</time>
      </trkpt>
      <trkpt lat="46.18439" lon="-0.99688">
        <ele>37.3</ele>
        <time>2020-05-31T16:47:19Z</time>
      </trkpt>
      <trkpt lat="46.18437" lon="-0.99696">
        <ele>37.4</ele>
        <time>2020-05-31T16:47:20Z</time>
      </trkpt>
      <trkpt lat="46.18434" lon="-0.99702">
        <ele>37.4</ele>
        <time>2020-05-31T16:47:21Z</time>
      </trkpt>
      <trkpt lat="46.18432" lon="-0.9971">
        <ele>37.5</ele>
        <time>2020-05-31T16:47:22Z</time>
      </trkpt>
      <trkpt lat="46.18431" lon="-0.99716">
        <ele>37.5</ele>
        <time>2020-05-31T16:47:23Z</time>
      </trkpt>
      <trkpt lat="46.18429" lon="-0.99724">
        <ele>37.5</ele>
        <time>2020-05-31T16:47:24Z</time>
      </trkpt>
      <trkpt lat="46.18428" lon="-0.9973">
        <ele>37.6</ele>
        <time>2020-05-31T16:47:25Z</time>
      </trkpt>
      <trkpt lat="46.18427" lon="-0.99735">
        <ele>37.6</ele>
        <time>2020-05-31T16:47:26Z</time>
      </trkpt>
      <trkpt lat="46.18426" lon="-0.9974">
        <ele>37.6</ele>
        <time>2020-05-31T16:47:27Z</time>
      </trkpt>
      <trkpt lat="46.18425" lon="-0.99745">
        <ele>37.6</ele>
        <time>2020-05-31T16:47:28Z</time>
      </trkpt>
      <trkpt lat="46.18424" lon="-0.99749">
        <ele>37.7</ele>
        <time>2020-05-31T16:47:29Z</time>
      </trkpt>
      <trkpt lat="46.18423" lon="-0.99754">
        <ele>37.7</ele>
        <time>2020-05-31T16:47:30Z</time>
      </trkpt>
      <trkpt lat="46.18422" lon="-0.99761">
        <ele>37.8</ele>
        <time>2020-05-31T16:47:31Z</time>
      </trkpt>
      <trkpt lat="46.18421" lon="-0.99767">
        <ele>37.9</ele>
        <time>2020-05-31T16:47:32Z</time>
      </trkpt>
      <trkpt lat="46.1842" lon="-0.99772">
        <ele>38</ele>
        <time>2020-05-31T16:47:33Z</time>
      </trkpt>
      <trkpt lat="46.1842" lon="-0.99777">
        <ele>38</ele>
        <time>2020-05-31T16:47:34Z</time>
      </trkpt>
      <trkpt lat="46.18419" lon="-0.99781">
        <ele>38.1</ele>
        <time>2020-05-31T16:47:35Z</time>
      </trkpt>
      <trkpt lat="46.18419" lon="-0.99787">
        <ele>38.2</ele>
        <time>2020-05-31T16:47:36Z</time>
      </trkpt>
      <trkpt lat="46.18417" lon="-0.99793">
        <ele>38.3</ele>
        <time>2020-05-31T16:47:37Z</time>
      </trkpt>
      <trkpt lat="46.18416" lon="-0.998">
        <ele>38.3</ele>
        <time>2020-05-31T16:47:38Z</time>
      </trkpt>
      <trkpt lat="46.18416" lon="-0.99806">
        <ele>38.4</ele>
        <time>2020-05-31T16:47:39Z</time>
      </trkpt>
      <trkpt lat="46.18415" lon="-0.99811">
        <ele>38.4</ele>
        <time>2020-05-31T16:47:40Z</time>
      </trkpt>
      <trkpt lat="46.18413" lon="-0.99816">
        <ele>38.5</ele>
        <time>2020-05-31T16:47:41Z</time>
      </trkpt>
      <trkpt lat="46.18411" lon="-0.99821">
        <ele>38.5</ele>
        <time>2020-05-31T16:47:42Z</time>
      </trkpt>
      <trkpt lat="46.18411" lon="-0.99827">
        <ele>38.5</ele>
        <time>2020-05-31T16:47:43Z</time>
      </trkpt>
      <trkpt lat="46.1841" lon="-0.99833">
        <ele>38.5</ele>
        <time>2020-05-31T16:47:44Z</time>
      </trkpt>
      <trkpt lat="46.1841" lon="-0.99839">
        <ele>38.5</ele>
        <time>2020-05-31T16:47:45Z</time>
      </trkpt>
      <trkpt lat="46.18409" lon="-0.99844">
        <ele>38.6</ele>
        <time>2020-05-31T16:47:46Z</time>
      </trkpt>
      <trkpt lat="46.18408" lon="-0.99849">
        <ele>38.6</ele>
        <time>2020-05-31T16:47:47Z</time>
      </trkpt>
      <trkpt lat="46.18408" lon="-0.99854">
        <ele>38.6</ele>
        <time>2020-05-31T16:47:48Z</time>
      </trkpt>
      <trkpt lat="46.18407" lon="-0.99861">
        <ele>38.7</ele>
        <time>2020-05-31T16:47:49Z</time>
      </trkpt>
      <trkpt lat="46.18406" lon="-0.99866">
        <ele>38.8</ele>
        <time>2020-05-31T16:47:50Z</time>
      </trkpt>
      <trkpt lat="46.18406" lon="-0.99872">
        <ele>38.8</ele>
        <time>2020-05-31T16:47:51Z</time>
      </trkpt>
      <trkpt lat="46.18405" lon="-0.99877">
        <ele>38.9</ele>
        <time>2020-05-31T16:47:52Z</time>
      </trkpt>
      <trkpt lat="46.18404" lon="-0.99883">
        <ele>39</ele>
        <time>2020-05-31T16:47:53Z</time>
      </trkpt>
      <trkpt lat="46.18403" lon="-0.99888">
        <ele>39</ele>
        <time>2020-05-31T16:47:54Z</time>
      </trkpt>
      <trkpt lat="46.18402" lon="-0.99892">
        <ele>39.1</ele>
        <time>2020-05-31T16:47:55Z</time>
      </trkpt>
      <trkpt lat="46.18402" lon="-0.99896">
        <ele>39.1</ele>
        <time>2020-05-31T16:47:56Z</time>
      </trkpt>
      <trkpt lat="46.18401" lon="-0.99901">
        <ele>39.2</ele>
        <time>2020-05-31T16:47:57Z</time>
      </trkpt>
      <trkpt lat="46.18401" lon="-0.99907">
        <ele>39.2</ele>
        <time>2020-05-31T16:47:58Z</time>
      </trkpt>
      <trkpt lat="46.18401" lon="-0.9991">
        <ele>39.3</ele>
        <time>2020-05-31T16:47:59Z</time>
      </trkpt>
      <trkpt lat="46.18402" lon="-0.99916">
        <ele>39.3</ele>
        <time>2020-05-31T16:48:00Z</time>
      </trkpt>
      <trkpt lat="46.18401" lon="-0.99922">
        <ele>39.4</ele>
        <time>2020-05-31T16:48:01Z</time>
      </trkpt>
      <trkpt lat="46.184" lon="-0.99929">
        <ele>39.4</ele>
        <time>2020-05-31T16:48:02Z</time>
      </trkpt>
      <trkpt lat="46.18398" lon="-0.99935">
        <ele>39.4</ele>
        <time>2020-05-31T16:48:03Z</time>
      </trkpt>
      <trkpt lat="46.18397" lon="-0.99941">
        <ele>39.4</ele>
        <time>2020-05-31T16:48:04Z</time>
      </trkpt>
      <trkpt lat="46.18397" lon="-0.99948">
        <ele>39.5</ele>
        <time>2020-05-31T16:48:05Z</time>
      </trkpt>
      <trkpt lat="46.18396" lon="-0.99954">
        <ele>39.5</ele>
        <time>2020-05-31T16:48:06Z</time>
      </trkpt>
      <trkpt lat="46.18396" lon="-0.99961">
        <ele>39.5</ele>
        <time>2020-05-31T16:48:07Z</time>
      </trkpt>
      <trkpt lat="46.18396" lon="-0.99966">
        <ele>39.5</ele>
        <time>2020-05-31T16:48:08Z</time>
      </trkpt>
      <trkpt lat="46.18395" lon="-0.99973">
        <ele>39.5</ele>
        <time>2020-05-31T16:48:09Z</time>
      </trkpt>
      <trkpt lat="46.18394" lon="-0.99979">
        <ele>39.5</ele>
        <time>2020-05-31T16:48:10Z</time>
      </trkpt>
      <trkpt lat="46.18394" lon="-0.99984">
        <ele>39.5</ele>
        <time>2020-05-31T16:48:11Z</time>
      </trkpt>
      <trkpt lat="46.18394" lon="-0.99991">
        <ele>39.5</ele>
        <time>2020-05-31T16:48:12Z</time>
      </trkpt>
      <trkpt lat="46.18394" lon="-0.99998">
        <ele>39.5</ele>
        <time>2020-05-31T16:48:13Z</time>
      </trkpt>
      <trkpt lat="46.18394" lon="-1.00004">
        <ele>39.4</ele>
        <time>2020-05-31T16:48:14Z</time>
      </trkpt>
      <trkpt lat="46.18394" lon="-1.00011">
        <ele>39.4</ele>
        <time>2020-05-31T16:48:15Z</time>
      </trkpt>
      <trkpt lat="46.18394" lon="-1.00016">
        <ele>39.4</ele>
        <time>2020-05-31T16:48:16Z</time>
      </trkpt>
      <trkpt lat="46.18393" lon="-1.00022">
        <ele>39.4</ele>
        <time>2020-05-31T16:48:17Z</time>
      </trkpt>
      <trkpt lat="46.18392" lon="-1.00028">
        <ele>39.4</ele>
        <time>2020-05-31T16:48:18Z</time>
      </trkpt>
      <trkpt lat="46.18391" lon="-1.00033">
        <ele>39.4</ele>
        <time>2020-05-31T16:48:19Z</time>
      </trkpt>
      <trkpt lat="46.18391" lon="-1.00039">
        <ele>39.4</ele>
        <time>2020-05-31T16:48:20Z</time>
      </trkpt>
      <trkpt lat="46.1839" lon="-1.00045">
        <ele>39.4</ele>
        <time>2020-05-31T16:48:21Z</time>
      </trkpt>
      <trkpt lat="46.1839" lon="-1.0005">
        <ele>39.4</ele>
        <time>2020-05-31T16:48:22Z</time>
      </trkpt>
      <trkpt lat="46.18389" lon="-1.00054">
        <ele>39.3</ele>
        <time>2020-05-31T16:48:23Z</time>
      </trkpt>
      <trkpt lat="46.18388" lon="-1.00061">
        <ele>39.3</ele>
        <time>2020-05-31T16:48:24Z</time>
      </trkpt>
      <trkpt lat="46.18388" lon="-1.00067">
        <ele>39.3</ele>
        <time>2020-05-31T16:48:25Z</time>
      </trkpt>
      <trkpt lat="46.18388" lon="-1.00075">
        <ele>39.3</ele>
        <time>2020-05-31T16:48:26Z</time>
      </trkpt>
      <trkpt lat="46.18388" lon="-1.00079">
        <ele>39.2</ele>
        <time>2020-05-31T16:48:27Z</time>
      </trkpt>
      <trkpt lat="46.18388" lon="-1.00085">
        <ele>39.2</ele>
        <time>2020-05-31T16:48:28Z</time>
      </trkpt>
      <trkpt lat="46.18387" lon="-1.00089">
        <ele>39.2</ele>
        <time>2020-05-31T16:48:29Z</time>
      </trkpt>
      <trkpt lat="46.18386" lon="-1.00095">
        <ele>39.2</ele>
        <time>2020-05-31T16:48:30Z</time>
      </trkpt>
      <trkpt lat="46.18386" lon="-1.00099">
        <ele>39.2</ele>
        <time>2020-05-31T16:48:31Z</time>
      </trkpt>
      <trkpt lat="46.18387" lon="-1.00107">
        <ele>39.1</ele>
        <time>2020-05-31T16:48:32Z</time>
      </trkpt>
      <trkpt lat="46.18386" lon="-1.00111">
        <ele>39.1</ele>
        <time>2020-05-31T16:48:33Z</time>
      </trkpt>
      <trkpt lat="46.18386" lon="-1.00119">
        <ele>39.1</ele>
        <time>2020-05-31T16:48:34Z</time>
      </trkpt>
      <trkpt lat="46.18385" lon="-1.00124">
        <ele>39.1</ele>
        <time>2020-05-31T16:48:35Z</time>
      </trkpt>
      <trkpt lat="46.18385" lon="-1.00131">
        <ele>39.1</ele>
        <time>2020-05-31T16:48:36Z</time>
      </trkpt>
      <trkpt lat="46.18384" lon="-1.00138">
        <ele>39.1</ele>
        <time>2020-05-31T16:48:37Z</time>
      </trkpt>
      <trkpt lat="46.18382" lon="-1.00145">
        <ele>39</ele>
        <time>2020-05-31T16:48:38Z</time>
      </trkpt>
      <trkpt lat="46.18382" lon="-1.00152">
        <ele>39</ele>
        <time>2020-05-31T16:48:39Z</time>
      </trkpt>
      <trkpt lat="46.18382" lon="-1.00159">
        <ele>39</ele>
        <time>2020-05-31T16:48:40Z</time>
      </trkpt>
      <trkpt lat="46.18382" lon="-1.00165">
        <ele>39</ele>
        <time>2020-05-31T16:48:41Z</time>
      </trkpt>
      <trkpt lat="46.18382" lon="-1.0017">
        <ele>39</ele>
        <time>2020-05-31T16:48:42Z</time>
      </trkpt>
      <trkpt lat="46.18382" lon="-1.00176">
        <ele>38.9</ele>
        <time>2020-05-31T16:48:43Z</time>
      </trkpt>
      <trkpt lat="46.18382" lon="-1.00182">
        <ele>38.9</ele>
        <time>2020-05-31T16:48:44Z</time>
      </trkpt>
      <trkpt lat="46.18381" lon="-1.0019">
        <ele>38.9</ele>
        <time>2020-05-31T16:48:45Z</time>
      </trkpt>
      <trkpt lat="46.18381" lon="-1.00196">
        <ele>38.9</ele>
        <time>2020-05-31T16:48:46Z</time>
      </trkpt>
      <trkpt lat="46.18381" lon="-1.00203">
        <ele>38.9</ele>
        <time>2020-05-31T16:48:47Z</time>
      </trkpt>
      <trkpt lat="46.18381" lon="-1.00209">
        <ele>38.8</ele>
        <time>2020-05-31T16:48:48Z</time>
      </trkpt>
      <trkpt lat="46.18381" lon="-1.00215">
        <ele>38.8</ele>
        <time>2020-05-31T16:48:49Z</time>
      </trkpt>
      <trkpt lat="46.18381" lon="-1.00221">
        <ele>38.8</ele>
        <time>2020-05-31T16:48:50Z</time>
      </trkpt>
      <trkpt lat="46.18381" lon="-1.00226">
        <ele>38.8</ele>
        <time>2020-05-31T16:48:51Z</time>
      </trkpt>
      <trkpt lat="46.18381" lon="-1.00233">
        <ele>38.8</ele>
        <time>2020-05-31T16:48:52Z</time>
      </trkpt>
      <trkpt lat="46.1838" lon="-1.00239">
        <ele>38.7</ele>
        <time>2020-05-31T16:48:53Z</time>
      </trkpt>
      <trkpt lat="46.18379" lon="-1.00245">
        <ele>38.7</ele>
        <time>2020-05-31T16:48:54Z</time>
      </trkpt>
      <trkpt lat="46.1838" lon="-1.00253">
        <ele>38.6</ele>
        <time>2020-05-31T16:48:55Z</time>
      </trkpt>
      <trkpt lat="46.1838" lon="-1.00262">
        <ele>38.5</ele>
        <time>2020-05-31T16:48:56Z</time>
      </trkpt>
      <trkpt lat="46.1838" lon="-1.00269">
        <ele>38.5</ele>
        <time>2020-05-31T16:48:57Z</time>
      </trkpt>
      <trkpt lat="46.18381" lon="-1.00276">
        <ele>38.4</ele>
        <time>2020-05-31T16:48:58Z</time>
      </trkpt>
      <trkpt lat="46.18382" lon="-1.00283">
        <ele>38.3</ele>
        <time>2020-05-31T16:48:59Z</time>
      </trkpt>
      <trkpt lat="46.18383" lon="-1.00289">
        <ele>38.3</ele>
        <time>2020-05-31T16:49:00Z</time>
      </trkpt>
      <trkpt lat="46.18385" lon="-1.00297">
        <ele>38.2</ele>
        <time>2020-05-31T16:49:01Z</time>
      </trkpt>
      <trkpt lat="46.18384" lon="-1.00302">
        <ele>38.2</ele>
        <time>2020-05-31T16:49:02Z</time>
      </trkpt>
      <trkpt lat="46.18385" lon="-1.00309">
        <ele>38.1</ele>
        <time>2020-05-31T16:49:03Z</time>
      </trkpt>
      <trkpt lat="46.18386" lon="-1.00315">
        <ele>38.1</ele>
        <time>2020-05-31T16:49:04Z</time>
      </trkpt>
      <trkpt lat="46.18388" lon="-1.00322">
        <ele>38.1</ele>
        <time>2020-05-31T16:49:05Z</time>
      </trkpt>
      <trkpt lat="46.18389" lon="-1.00328">
        <ele>38.1</ele>
        <time>2020-05-31T16:49:06Z</time>
      </trkpt>
      <trkpt lat="46.18391" lon="-1.00333">
        <ele>38.1</ele>
        <time>2020-05-31T16:49:07Z</time>
      </trkpt>
      <trkpt lat="46.18392" lon="-1.00339">
        <ele>38.1</ele>
        <time>2020-05-31T16:49:08Z</time>
      </trkpt>
      <trkpt lat="46.18394" lon="-1.00345">
        <ele>38.1</ele>
        <time>2020-05-31T16:49:09Z</time>
      </trkpt>
      <trkpt lat="46.18395" lon="-1.00353">
        <ele>38.1</ele>
        <time>2020-05-31T16:49:10Z</time>
      </trkpt>
      <trkpt lat="46.18396" lon="-1.00359">
        <ele>38</ele>
        <time>2020-05-31T16:49:11Z</time>
      </trkpt>
      <trkpt lat="46.18396" lon="-1.00364">
        <ele>38</ele>
        <time>2020-05-31T16:49:12Z</time>
      </trkpt>
      <trkpt lat="46.18397" lon="-1.00373">
        <ele>37.9</ele>
        <time>2020-05-31T16:49:13Z</time>
      </trkpt>
      <trkpt lat="46.18398" lon="-1.00379">
        <ele>37.8</ele>
        <time>2020-05-31T16:49:14Z</time>
      </trkpt>
      <trkpt lat="46.184" lon="-1.00384">
        <ele>37.7</ele>
        <time>2020-05-31T16:49:15Z</time>
      </trkpt>
      <trkpt lat="46.18402" lon="-1.00391">
        <ele>37.6</ele>
        <time>2020-05-31T16:49:16Z</time>
      </trkpt>
      <trkpt lat="46.18404" lon="-1.00397">
        <ele>37.4</ele>
        <time>2020-05-31T16:49:17Z</time>
      </trkpt>
      <trkpt lat="46.18405" lon="-1.00403">
        <ele>37.4</ele>
        <time>2020-05-31T16:49:18Z</time>
      </trkpt>
      <trkpt lat="46.18406" lon="-1.00409">
        <ele>37.3</ele>
        <time>2020-05-31T16:49:19Z</time>
      </trkpt>
      <trkpt lat="46.18408" lon="-1.00416">
        <ele>37.2</ele>
        <time>2020-05-31T16:49:20Z</time>
      </trkpt>
      <trkpt lat="46.18409" lon="-1.00423">
        <ele>37.2</ele>
        <time>2020-05-31T16:49:21Z</time>
      </trkpt>
      <trkpt lat="46.18409" lon="-1.00431">
        <ele>37.1</ele>
        <time>2020-05-31T16:49:22Z</time>
      </trkpt>
      <trkpt lat="46.1841" lon="-1.00438">
        <ele>37</ele>
        <time>2020-05-31T16:49:23Z</time>
      </trkpt>
      <trkpt lat="46.1841" lon="-1.00446">
        <ele>36.9</ele>
        <time>2020-05-31T16:49:24Z</time>
      </trkpt>
      <trkpt lat="46.1841" lon="-1.00452">
        <ele>36.8</ele>
        <time>2020-05-31T16:49:25Z</time>
      </trkpt>
      <trkpt lat="46.18411" lon="-1.00459">
        <ele>36.7</ele>
        <time>2020-05-31T16:49:26Z</time>
      </trkpt>
      <trkpt lat="46.18413" lon="-1.00465">
        <ele>36.6</ele>
        <time>2020-05-31T16:49:27Z</time>
      </trkpt>
      <trkpt lat="46.18414" lon="-1.00472">
        <ele>36.6</ele>
        <time>2020-05-31T16:49:28Z</time>
      </trkpt>
      <trkpt lat="46.18416" lon="-1.00477">
        <ele>36.5</ele>
        <time>2020-05-31T16:49:29Z</time>
      </trkpt>
      <trkpt lat="46.18417" lon="-1.00484">
        <ele>36.4</ele>
        <time>2020-05-31T16:49:30Z</time>
      </trkpt>
      <trkpt lat="46.18418" lon="-1.00491">
        <ele>36.3</ele>
        <time>2020-05-31T16:49:31Z</time>
      </trkpt>
      <trkpt lat="46.1842" lon="-1.00499">
        <ele>36.2</ele>
        <time>2020-05-31T16:49:32Z</time>
      </trkpt>
      <trkpt lat="46.18422" lon="-1.00506">
        <ele>36.1</ele>
        <time>2020-05-31T16:49:33Z</time>
      </trkpt>
      <trkpt lat="46.18425" lon="-1.00514">
        <ele>36</ele>
        <time>2020-05-31T16:49:34Z</time>
      </trkpt>
      <trkpt lat="46.18427" lon="-1.00524">
        <ele>35.9</ele>
        <time>2020-05-31T16:49:35Z</time>
      </trkpt>
      <trkpt lat="46.18429" lon="-1.00533">
        <ele>35.8</ele>
        <time>2020-05-31T16:49:36Z</time>
      </trkpt>
      <trkpt lat="46.18431" lon="-1.00543">
        <ele>35.7</ele>
        <time>2020-05-31T16:49:37Z</time>
      </trkpt>
      <trkpt lat="46.18431" lon="-1.00552">
        <ele>35.6</ele>
        <time>2020-05-31T16:49:38Z</time>
      </trkpt>
      <trkpt lat="46.18433" lon="-1.00561">
        <ele>35.4</ele>
        <time>2020-05-31T16:49:39Z</time>
      </trkpt>
      <trkpt lat="46.18436" lon="-1.00568">
        <ele>35.3</ele>
        <time>2020-05-31T16:49:40Z</time>
      </trkpt>
      <trkpt lat="46.18438" lon="-1.00576">
        <ele>35.1</ele>
        <time>2020-05-31T16:49:41Z</time>
      </trkpt>
      <trkpt lat="46.1844" lon="-1.00589">
        <ele>34.9</ele>
        <time>2020-05-31T16:49:42Z</time>
      </trkpt>
      <trkpt lat="46.18443" lon="-1.006">
        <ele>34.8</ele>
        <time>2020-05-31T16:49:43Z</time>
      </trkpt>
      <trkpt lat="46.18444" lon="-1.0061">
        <ele>34.7</ele>
        <time>2020-05-31T16:49:44Z</time>
      </trkpt>
      <trkpt lat="46.18447" lon="-1.0062">
        <ele>34.6</ele>
        <time>2020-05-31T16:49:45Z</time>
      </trkpt>
      <trkpt lat="46.1845" lon="-1.0063">
        <ele>34.5</ele>
        <time>2020-05-31T16:49:46Z</time>
      </trkpt>
      <trkpt lat="46.18452" lon="-1.00639">
        <ele>34.4</ele>
        <time>2020-05-31T16:49:47Z</time>
      </trkpt>
      <trkpt lat="46.18454" lon="-1.00649">
        <ele>34.4</ele>
        <time>2020-05-31T16:49:48Z</time>
      </trkpt>
      <trkpt lat="46.18456" lon="-1.00658">
        <ele>34.3</ele>
        <time>2020-05-31T16:49:49Z</time>
      </trkpt>
      <trkpt lat="46.18459" lon="-1.00667">
        <ele>34.2</ele>
        <time>2020-05-31T16:49:50Z</time>
      </trkpt>
      <trkpt lat="46.18461" lon="-1.00675">
        <ele>34.2</ele>
        <time>2020-05-31T16:49:51Z</time>
      </trkpt>
      <trkpt lat="46.18463" lon="-1.00683">
        <ele>34.1</ele>
        <time>2020-05-31T16:49:52Z</time>
      </trkpt>
      <trkpt lat="46.18467" lon="-1.00691">
        <ele>34</ele>
        <time>2020-05-31T16:49:53Z</time>
      </trkpt>
      <trkpt lat="46.1847" lon="-1.00699">
        <ele>34</ele>
        <time>2020-05-31T16:49:54Z</time>
      </trkpt>
      <trkpt lat="46.18473" lon="-1.00707">
        <ele>33.9</ele>
        <time>2020-05-31T16:49:55Z</time>
      </trkpt>
      <trkpt lat="46.18475" lon="-1.00714">
        <ele>33.9</ele>
        <time>2020-05-31T16:49:56Z</time>
      </trkpt>
      <trkpt lat="46.18478" lon="-1.00722">
        <ele>33.9</ele>
        <time>2020-05-31T16:49:57Z</time>
      </trkpt>
      <trkpt lat="46.1848" lon="-1.00729">
        <ele>33.8</ele>
        <time>2020-05-31T16:49:58Z</time>
      </trkpt>
      <trkpt lat="46.18482" lon="-1.00737">
        <ele>33.8</ele>
        <time>2020-05-31T16:49:59Z</time>
      </trkpt>
      <trkpt lat="46.18485" lon="-1.00744">
        <ele>33.8</ele>
        <time>2020-05-31T16:50:00Z</time>
      </trkpt>
      <trkpt lat="46.18487" lon="-1.00751">
        <ele>33.8</ele>
        <time>2020-05-31T16:50:01Z</time>
      </trkpt>
      <trkpt lat="46.18489" lon="-1.00758">
        <ele>33.8</ele>
        <time>2020-05-31T16:50:02Z</time>
      </trkpt>
      <trkpt lat="46.18492" lon="-1.00764">
        <ele>33.8</ele>
        <time>2020-05-31T16:50:03Z</time>
      </trkpt>
      <trkpt lat="46.18494" lon="-1.00771">
        <ele>33.8</ele>
        <time>2020-05-31T16:50:04Z</time>
      </trkpt>
      <trkpt lat="46.18496" lon="-1.00777">
        <ele>33.9</ele>
        <time>2020-05-31T16:50:05Z</time>
      </trkpt>
      <trkpt lat="46.18499" lon="-1.00783">
        <ele>33.9</ele>
        <time>2020-05-31T16:50:06Z</time>
      </trkpt>
      <trkpt lat="46.18501" lon="-1.00789">
        <ele>33.9</ele>
        <time>2020-05-31T16:50:07Z</time>
      </trkpt>
      <trkpt lat="46.18503" lon="-1.00794">
        <ele>34</ele>
        <time>2020-05-31T16:50:08Z</time>
      </trkpt>
      <trkpt lat="46.18504" lon="-1.008">
        <ele>34</ele>
        <time>2020-05-31T16:50:09Z</time>
      </trkpt>
      <trkpt lat="46.18506" lon="-1.00805">
        <ele>34.1</ele>
        <time>2020-05-31T16:50:10Z</time>
      </trkpt>
      <trkpt lat="46.18508" lon="-1.00811">
        <ele>34.1</ele>
        <time>2020-05-31T16:50:11Z</time>
      </trkpt>
      <trkpt lat="46.18509" lon="-1.00816">
        <ele>34.2</ele>
        <time>2020-05-31T16:50:12Z</time>
      </trkpt>
      <trkpt lat="46.18512" lon="-1.00821">
        <ele>34.2</ele>
        <time>2020-05-31T16:50:13Z</time>
      </trkpt>
      <trkpt lat="46.18515" lon="-1.00826">
        <ele>34.3</ele>
        <time>2020-05-31T16:50:14Z</time>
      </trkpt>
      <trkpt lat="46.18518" lon="-1.0083">
        <ele>34.3</ele>
        <time>2020-05-31T16:50:15Z</time>
      </trkpt>
      <trkpt lat="46.1852" lon="-1.00834">
        <ele>34.3</ele>
        <time>2020-05-31T16:50:16Z</time>
      </trkpt>
      <trkpt lat="46.18522" lon="-1.00839">
        <ele>34.3</ele>
        <time>2020-05-31T16:50:17Z</time>
      </trkpt>
      <trkpt lat="46.18523" lon="-1.00843">
        <ele>34.2</ele>
        <time>2020-05-31T16:50:18Z</time>
      </trkpt>
      <trkpt lat="46.18525" lon="-1.00848">
        <ele>34.1</ele>
        <time>2020-05-31T16:50:19Z</time>
      </trkpt>
      <trkpt lat="46.18526" lon="-1.00852">
        <ele>34</ele>
        <time>2020-05-31T16:50:20Z</time>
      </trkpt>
      <trkpt lat="46.18528" lon="-1.00857">
        <ele>34</ele>
        <time>2020-05-31T16:50:21Z</time>
      </trkpt>
      <trkpt lat="46.1853" lon="-1.0086">
        <ele>34</ele>
        <time>2020-05-31T16:50:22Z</time>
      </trkpt>
      <trkpt lat="46.18532" lon="-1.00864">
        <ele>34</ele>
        <time>2020-05-31T16:50:23Z</time>
      </trkpt>
      <trkpt lat="46.18534" lon="-1.00868">
        <ele>34</ele>
        <time>2020-05-31T16:50:24Z</time>
      </trkpt>
      <trkpt lat="46.18537" lon="-1.00872">
        <ele>34</ele>
        <time>2020-05-31T16:50:25Z</time>
      </trkpt>
      <trkpt lat="46.1854" lon="-1.00876">
        <ele>34</ele>
        <time>2020-05-31T16:50:26Z</time>
      </trkpt>
      <trkpt lat="46.18543" lon="-1.00881">
        <ele>34</ele>
        <time>2020-05-31T16:50:27Z</time>
      </trkpt>
      <trkpt lat="46.18545" lon="-1.00884">
        <ele>34</ele>
        <time>2020-05-31T16:50:28Z</time>
      </trkpt>
      <trkpt lat="46.18548" lon="-1.00889">
        <ele>34</ele>
        <time>2020-05-31T16:50:29Z</time>
      </trkpt>
      <trkpt lat="46.1855" lon="-1.00895">
        <ele>34</ele>
        <time>2020-05-31T16:50:30Z</time>
      </trkpt>
      <trkpt lat="46.18551" lon="-1.009">
        <ele>34</ele>
        <time>2020-05-31T16:50:31Z</time>
      </trkpt>
      <trkpt lat="46.18552" lon="-1.00906">
        <ele>34</ele>
        <time>2020-05-31T16:50:32Z</time>
      </trkpt>
      <trkpt lat="46.18553" lon="-1.0091">
        <ele>34</ele>
        <time>2020-05-31T16:50:33Z</time>
      </trkpt>
      <trkpt lat="46.18556" lon="-1.00912">
        <ele>34</ele>
        <time>2020-05-31T16:50:34Z</time>
      </trkpt>
      <trkpt lat="46.18559" lon="-1.00915">
        <ele>34</ele>
        <time>2020-05-31T16:50:35Z</time>
      </trkpt>
      <trkpt lat="46.18561" lon="-1.00918">
        <ele>34</ele>
        <time>2020-05-31T16:50:36Z</time>
      </trkpt>
      <trkpt lat="46.18564" lon="-1.00921">
        <ele>34</ele>
        <time>2020-05-31T16:50:37Z</time>
      </trkpt>
      <trkpt lat="46.18566" lon="-1.00925">
        <ele>34</ele>
        <time>2020-05-31T16:50:38Z</time>
      </trkpt>
      <trkpt lat="46.18568" lon="-1.00928">
        <ele>34</ele>
        <time>2020-05-31T16:50:39Z</time>
      </trkpt>
      <trkpt lat="46.1857" lon="-1.00932">
        <ele>34</ele>
        <time>2020-05-31T16:50:40Z</time>
      </trkpt>
      <trkpt lat="46.18572" lon="-1.00937">
        <ele>34.1</ele>
        <time>2020-05-31T16:50:41Z</time>
      </trkpt>
      <trkpt lat="46.18574" lon="-1.00941">
        <ele>34.1</ele>
        <time>2020-05-31T16:50:42Z</time>
      </trkpt>
      <trkpt lat="46.18575" lon="-1.00946">
        <ele>34.1</ele>
        <time>2020-05-31T16:50:43Z</time>
      </trkpt>
      <trkpt lat="46.18576" lon="-1.0095">
        <ele>34.2</ele>
        <time>2020-05-31T16:50:44Z</time>
      </trkpt>
      <trkpt lat="46.18577" lon="-1.00953">
        <ele>34.2</ele>
        <time>2020-05-31T16:50:45Z</time>
      </trkpt>
      <trkpt lat="46.18579" lon="-1.00958">
        <ele>34.2</ele>
        <time>2020-05-31T16:50:46Z</time>
      </trkpt>
      <trkpt lat="46.1858" lon="-1.0096">
        <ele>34.2</ele>
        <time>2020-05-31T16:50:47Z</time>
      </trkpt>
      <trkpt lat="46.18582" lon="-1.00963">
        <ele>34.3</ele>
        <time>2020-05-31T16:50:48Z</time>
      </trkpt>
      <trkpt lat="46.18585" lon="-1.00967">
        <ele>34.3</ele>
        <time>2020-05-31T16:50:49Z</time>
      </trkpt>
      <trkpt lat="46.18588" lon="-1.0097">
        <ele>34.3</ele>
        <time>2020-05-31T16:50:50Z</time>
      </trkpt>
      <trkpt lat="46.18592" lon="-1.00972">
        <ele>34.3</ele>
        <time>2020-05-31T16:50:51Z</time>
      </trkpt>
      <trkpt lat="46.18596" lon="-1.00976">
        <ele>34.4</ele>
        <time>2020-05-31T16:50:52Z</time>
      </trkpt>
      <trkpt lat="46.18599" lon="-1.00981">
        <ele>34.4</ele>
        <time>2020-05-31T16:50:53Z</time>
      </trkpt>
      <trkpt lat="46.18601" lon="-1.00985">
        <ele>34.4</ele>
        <time>2020-05-31T16:50:54Z</time>
      </trkpt>
      <trkpt lat="46.18604" lon="-1.00988">
        <ele>34.4</ele>
        <time>2020-05-31T16:50:55Z</time>
      </trkpt>
      <trkpt lat="46.18608" lon="-1.00991">
        <ele>34.5</ele>
        <time>2020-05-31T16:50:56Z</time>
      </trkpt>
      <trkpt lat="46.18611" lon="-1.00995">
        <ele>34.5</ele>
        <time>2020-05-31T16:50:57Z</time>
      </trkpt>
      <trkpt lat="46.18612" lon="-1.01001">
        <ele>34.5</ele>
        <time>2020-05-31T16:50:58Z</time>
      </trkpt>
      <trkpt lat="46.18615" lon="-1.01005">
        <ele>34.6</ele>
        <time>2020-05-31T16:50:59Z</time>
      </trkpt>
      <trkpt lat="46.18619" lon="-1.0101">
        <ele>34.6</ele>
        <time>2020-05-31T16:51:00Z</time>
      </trkpt>
      <trkpt lat="46.18622" lon="-1.01015">
        <ele>34.6</ele>
        <time>2020-05-31T16:51:01Z</time>
      </trkpt>
      <trkpt lat="46.18624" lon="-1.0102">
        <ele>34.7</ele>
        <time>2020-05-31T16:51:02Z</time>
      </trkpt>
      <trkpt lat="46.18627" lon="-1.01024">
        <ele>34.7</ele>
        <time>2020-05-31T16:51:03Z</time>
      </trkpt>
      <trkpt lat="46.1863" lon="-1.01029">
        <ele>34.7</ele>
        <time>2020-05-31T16:51:04Z</time>
      </trkpt>
      <trkpt lat="46.18632" lon="-1.01035">
        <ele>34.8</ele>
        <time>2020-05-31T16:51:05Z</time>
      </trkpt>
      <trkpt lat="46.18635" lon="-1.0104">
        <ele>34.7</ele>
        <time>2020-05-31T16:51:06Z</time>
      </trkpt>
      <trkpt lat="46.18638" lon="-1.01045">
        <ele>34.7</ele>
        <time>2020-05-31T16:51:07Z</time>
      </trkpt>
      <trkpt lat="46.18641" lon="-1.0105">
        <ele>34.7</ele>
        <time>2020-05-31T16:51:08Z</time>
      </trkpt>
      <trkpt lat="46.18645" lon="-1.01054">
        <ele>34.7</ele>
        <time>2020-05-31T16:51:09Z</time>
      </trkpt>
      <trkpt lat="46.18648" lon="-1.01059">
        <ele>34.7</ele>
        <time>2020-05-31T16:51:10Z</time>
      </trkpt>
      <trkpt lat="46.18652" lon="-1.01063">
        <ele>34.7</ele>
        <time>2020-05-31T16:51:11Z</time>
      </trkpt>
      <trkpt lat="46.18654" lon="-1.01068">
        <ele>34.7</ele>
        <time>2020-05-31T16:51:12Z</time>
      </trkpt>
      <trkpt lat="46.18657" lon="-1.01073">
        <ele>34.7</ele>
        <time>2020-05-31T16:51:13Z</time>
      </trkpt>
      <trkpt lat="46.18662" lon="-1.01077">
        <ele>34.6</ele>
        <time>2020-05-31T16:51:14Z</time>
      </trkpt>
      <trkpt lat="46.18666" lon="-1.01081">
        <ele>34.6</ele>
        <time>2020-05-31T16:51:15Z</time>
      </trkpt>
      <trkpt lat="46.18669" lon="-1.01087">
        <ele>34.6</ele>
        <time>2020-05-31T16:51:16Z</time>
      </trkpt>
      <trkpt lat="46.18672" lon="-1.01092">
        <ele>34.5</ele>
        <time>2020-05-31T16:51:17Z</time>
      </trkpt>
      <trkpt lat="46.18675" lon="-1.01098">
        <ele>34.5</ele>
        <time>2020-05-31T16:51:18Z</time>
      </trkpt>
      <trkpt lat="46.18678" lon="-1.01104">
        <ele>34.5</ele>
        <time>2020-05-31T16:51:19Z</time>
      </trkpt>
      <trkpt lat="46.18682" lon="-1.01109">
        <ele>34.4</ele>
        <time>2020-05-31T16:51:20Z</time>
      </trkpt>
      <trkpt lat="46.18684" lon="-1.01115">
        <ele>34.4</ele>
        <time>2020-05-31T16:51:21Z</time>
      </trkpt>
      <trkpt lat="46.18687" lon="-1.01121">
        <ele>34.4</ele>
        <time>2020-05-31T16:51:22Z</time>
      </trkpt>
      <trkpt lat="46.1869" lon="-1.01127">
        <ele>34.4</ele>
        <time>2020-05-31T16:51:23Z</time>
      </trkpt>
      <trkpt lat="46.18692" lon="-1.01133">
        <ele>34.4</ele>
        <time>2020-05-31T16:51:24Z</time>
      </trkpt>
      <trkpt lat="46.18694" lon="-1.01139">
        <ele>34.3</ele>
        <time>2020-05-31T16:51:25Z</time>
      </trkpt>
      <trkpt lat="46.18697" lon="-1.01145">
        <ele>34.3</ele>
        <time>2020-05-31T16:51:26Z</time>
      </trkpt>
      <trkpt lat="46.18699" lon="-1.01151">
        <ele>34.3</ele>
        <time>2020-05-31T16:51:27Z</time>
      </trkpt>
      <trkpt lat="46.18701" lon="-1.01157">
        <ele>34.3</ele>
        <time>2020-05-31T16:51:28Z</time>
      </trkpt>
      <trkpt lat="46.18703" lon="-1.01164">
        <ele>34.3</ele>
        <time>2020-05-31T16:51:29Z</time>
      </trkpt>
      <trkpt lat="46.18706" lon="-1.0117">
        <ele>34.3</ele>
        <time>2020-05-31T16:51:30Z</time>
      </trkpt>
      <trkpt lat="46.18708" lon="-1.01176">
        <ele>34.3</ele>
        <time>2020-05-31T16:51:31Z</time>
      </trkpt>
      <trkpt lat="46.18711" lon="-1.01182">
        <ele>34.3</ele>
        <time>2020-05-31T16:51:32Z</time>
      </trkpt>
      <trkpt lat="46.18714" lon="-1.01187">
        <ele>34.3</ele>
        <time>2020-05-31T16:51:33Z</time>
      </trkpt>
      <trkpt lat="46.18717" lon="-1.01193">
        <ele>34.3</ele>
        <time>2020-05-31T16:51:34Z</time>
      </trkpt>
      <trkpt lat="46.18719" lon="-1.012">
        <ele>34.3</ele>
        <time>2020-05-31T16:51:35Z</time>
      </trkpt>
      <trkpt lat="46.18721" lon="-1.01206">
        <ele>34.3</ele>
        <time>2020-05-31T16:51:36Z</time>
      </trkpt>
      <trkpt lat="46.18724" lon="-1.01212">
        <ele>34.3</ele>
        <time>2020-05-31T16:51:37Z</time>
      </trkpt>
      <trkpt lat="46.18727" lon="-1.01217">
        <ele>34.2</ele>
        <time>2020-05-31T16:51:38Z</time>
      </trkpt>
      <trkpt lat="46.18729" lon="-1.01221">
        <ele>34.2</ele>
        <time>2020-05-31T16:51:39Z</time>
      </trkpt>
      <trkpt lat="46.18733" lon="-1.01226">
        <ele>34.2</ele>
        <time>2020-05-31T16:51:40Z</time>
      </trkpt>
      <trkpt lat="46.18736" lon="-1.01231">
        <ele>34.2</ele>
        <time>2020-05-31T16:51:41Z</time>
      </trkpt>
      <trkpt lat="46.18739" lon="-1.01237">
        <ele>34.2</ele>
        <time>2020-05-31T16:51:42Z</time>
      </trkpt>
      <trkpt lat="46.18742" lon="-1.01241">
        <ele>34.2</ele>
        <time>2020-05-31T16:51:43Z</time>
      </trkpt>
      <trkpt lat="46.18744" lon="-1.01247">
        <ele>34.1</ele>
        <time>2020-05-31T16:51:44Z</time>
      </trkpt>
      <trkpt lat="46.18747" lon="-1.01253">
        <ele>34</ele>
        <time>2020-05-31T16:51:45Z</time>
      </trkpt>
      <trkpt lat="46.18749" lon="-1.01258">
        <ele>33.9</ele>
        <time>2020-05-31T16:51:46Z</time>
      </trkpt>
      <trkpt lat="46.18752" lon="-1.01264">
        <ele>33.9</ele>
        <time>2020-05-31T16:51:47Z</time>
      </trkpt>
      <trkpt lat="46.18755" lon="-1.01269">
        <ele>33.8</ele>
        <time>2020-05-31T16:51:48Z</time>
      </trkpt>
      <trkpt lat="46.18758" lon="-1.01274">
        <ele>33.7</ele>
        <time>2020-05-31T16:51:49Z</time>
      </trkpt>
      <trkpt lat="46.18762" lon="-1.01279">
        <ele>33.6</ele>
        <time>2020-05-31T16:51:50Z</time>
      </trkpt>
      <trkpt lat="46.18764" lon="-1.01284">
        <ele>33.5</ele>
        <time>2020-05-31T16:51:51Z</time>
      </trkpt>
      <trkpt lat="46.18768" lon="-1.01289">
        <ele>33.5</ele>
        <time>2020-05-31T16:51:52Z</time>
      </trkpt>
      <trkpt lat="46.1877" lon="-1.01294">
        <ele>33.4</ele>
        <time>2020-05-31T16:51:53Z</time>
      </trkpt>
      <trkpt lat="46.18773" lon="-1.01299">
        <ele>33.4</ele>
        <time>2020-05-31T16:51:54Z</time>
      </trkpt>
      <trkpt lat="46.18775" lon="-1.01304">
        <ele>33.3</ele>
        <time>2020-05-31T16:51:55Z</time>
      </trkpt>
      <trkpt lat="46.18776" lon="-1.0131">
        <ele>33.3</ele>
        <time>2020-05-31T16:51:56Z</time>
      </trkpt>
      <trkpt lat="46.18778" lon="-1.01315">
        <ele>33.3</ele>
        <time>2020-05-31T16:51:57Z</time>
      </trkpt>
      <trkpt lat="46.1878" lon="-1.01321">
        <ele>33.2</ele>
        <time>2020-05-31T16:51:58Z</time>
      </trkpt>
      <trkpt lat="46.18782" lon="-1.01327">
        <ele>33.2</ele>
        <time>2020-05-31T16:51:59Z</time>
      </trkpt>
      <trkpt lat="46.18785" lon="-1.01331">
        <ele>33.1</ele>
        <time>2020-05-31T16:52:00Z</time>
      </trkpt>
      <trkpt lat="46.18786" lon="-1.01336">
        <ele>33.1</ele>
        <time>2020-05-31T16:52:01Z</time>
      </trkpt>
      <trkpt lat="46.18789" lon="-1.01341">
        <ele>33</ele>
        <time>2020-05-31T16:52:02Z</time>
      </trkpt>
      <trkpt lat="46.18791" lon="-1.01347">
        <ele>32.9</ele>
        <time>2020-05-31T16:52:03Z</time>
      </trkpt>
      <trkpt lat="46.18796" lon="-1.01353">
        <ele>32.8</ele>
        <time>2020-05-31T16:52:04Z</time>
      </trkpt>
      <trkpt lat="46.18799" lon="-1.0136">
        <ele>32.7</ele>
        <time>2020-05-31T16:52:05Z</time>
      </trkpt>
      <trkpt lat="46.18802" lon="-1.01366">
        <ele>32.6</ele>
        <time>2020-05-31T16:52:06Z</time>
      </trkpt>
      <trkpt lat="46.18805" lon="-1.01372">
        <ele>32.5</ele>
        <time>2020-05-31T16:52:07Z</time>
      </trkpt>
      <trkpt lat="46.18808" lon="-1.01379">
        <ele>32.5</ele>
        <time>2020-05-31T16:52:08Z</time>
      </trkpt>
      <trkpt lat="46.18811" lon="-1.01386">
        <ele>32.4</ele>
        <time>2020-05-31T16:52:09Z</time>
      </trkpt>
      <trkpt lat="46.18813" lon="-1.01392">
        <ele>32.4</ele>
        <time>2020-05-31T16:52:10Z</time>
      </trkpt>
      <trkpt lat="46.18815" lon="-1.01399">
        <ele>32.3</ele>
        <time>2020-05-31T16:52:11Z</time>
      </trkpt>
      <trkpt lat="46.18817" lon="-1.01406">
        <ele>32.3</ele>
        <time>2020-05-31T16:52:12Z</time>
      </trkpt>
      <trkpt lat="46.1882" lon="-1.01413">
        <ele>32.2</ele>
        <time>2020-05-31T16:52:13Z</time>
      </trkpt>
      <trkpt lat="46.18822" lon="-1.01419">
        <ele>32.2</ele>
        <time>2020-05-31T16:52:14Z</time>
      </trkpt>
      <trkpt lat="46.18824" lon="-1.01425">
        <ele>32.1</ele>
        <time>2020-05-31T16:52:15Z</time>
      </trkpt>
      <trkpt lat="46.18826" lon="-1.01433">
        <ele>32.1</ele>
        <time>2020-05-31T16:52:16Z</time>
      </trkpt>
      <trkpt lat="46.18828" lon="-1.01441">
        <ele>32.1</ele>
        <time>2020-05-31T16:52:17Z</time>
      </trkpt>
      <trkpt lat="46.18829" lon="-1.01449">
        <ele>32</ele>
        <time>2020-05-31T16:52:18Z</time>
      </trkpt>
      <trkpt lat="46.18829" lon="-1.01457">
        <ele>32</ele>
        <time>2020-05-31T16:52:19Z</time>
      </trkpt>
      <trkpt lat="46.18831" lon="-1.01466">
        <ele>31.9</ele>
        <time>2020-05-31T16:52:20Z</time>
      </trkpt>
      <trkpt lat="46.18833" lon="-1.01476">
        <ele>31.8</ele>
        <time>2020-05-31T16:52:21Z</time>
      </trkpt>
      <trkpt lat="46.18834" lon="-1.01484">
        <ele>31.8</ele>
        <time>2020-05-31T16:52:22Z</time>
      </trkpt>
      <trkpt lat="46.18836" lon="-1.01493">
        <ele>31.8</ele>
        <time>2020-05-31T16:52:23Z</time>
      </trkpt>
      <trkpt lat="46.18838" lon="-1.01501">
        <ele>31.8</ele>
        <time>2020-05-31T16:52:24Z</time>
      </trkpt>
      <trkpt lat="46.18839" lon="-1.0151">
        <ele>31.8</ele>
        <time>2020-05-31T16:52:25Z</time>
      </trkpt>
      <trkpt lat="46.18841" lon="-1.01518">
        <ele>31.8</ele>
        <time>2020-05-31T16:52:26Z</time>
      </trkpt>
      <trkpt lat="46.18844" lon="-1.01526">
        <ele>31.8</ele>
        <time>2020-05-31T16:52:27Z</time>
      </trkpt>
      <trkpt lat="46.18845" lon="-1.01535">
        <ele>31.7</ele>
        <time>2020-05-31T16:52:28Z</time>
      </trkpt>
      <trkpt lat="46.18847" lon="-1.01544">
        <ele>31.7</ele>
        <time>2020-05-31T16:52:29Z</time>
      </trkpt>
      <trkpt lat="46.18848" lon="-1.01553">
        <ele>31.6</ele>
        <time>2020-05-31T16:52:30Z</time>
      </trkpt>
      <trkpt lat="46.18849" lon="-1.01563">
        <ele>31.6</ele>
        <time>2020-05-31T16:52:31Z</time>
      </trkpt>
      <trkpt lat="46.1885" lon="-1.01572">
        <ele>31.6</ele>
        <time>2020-05-31T16:52:32Z</time>
      </trkpt>
      <trkpt lat="46.18851" lon="-1.0158">
        <ele>31.6</ele>
        <time>2020-05-31T16:52:33Z</time>
      </trkpt>
      <trkpt lat="46.18852" lon="-1.01588">
        <ele>31.6</ele>
        <time>2020-05-31T16:52:34Z</time>
      </trkpt>
      <trkpt lat="46.18853" lon="-1.01597">
        <ele>31.6</ele>
        <time>2020-05-31T16:52:35Z</time>
      </trkpt>
      <trkpt lat="46.18854" lon="-1.01604">
        <ele>31.6</ele>
        <time>2020-05-31T16:52:36Z</time>
      </trkpt>
      <trkpt lat="46.18856" lon="-1.01614">
        <ele>31.6</ele>
        <time>2020-05-31T16:52:37Z</time>
      </trkpt>
      <trkpt lat="46.18858" lon="-1.01623">
        <ele>31.6</ele>
        <time>2020-05-31T16:52:38Z</time>
      </trkpt>
      <trkpt lat="46.18858" lon="-1.0163">
        <ele>31.6</ele>
        <time>2020-05-31T16:52:39Z</time>
      </trkpt>
      <trkpt lat="46.18859" lon="-1.01638">
        <ele>31.6</ele>
        <time>2020-05-31T16:52:40Z</time>
      </trkpt>
      <trkpt lat="46.18861" lon="-1.01645">
        <ele>31.5</ele>
        <time>2020-05-31T16:52:41Z</time>
      </trkpt>
      <trkpt lat="46.18861" lon="-1.01653">
        <ele>31.4</ele>
        <time>2020-05-31T16:52:42Z</time>
      </trkpt>
      <trkpt lat="46.18863" lon="-1.01659">
        <ele>31.4</ele>
        <time>2020-05-31T16:52:43Z</time>
      </trkpt>
      <trkpt lat="46.18864" lon="-1.01666">
        <ele>31.3</ele>
        <time>2020-05-31T16:52:44Z</time>
      </trkpt>
      <trkpt lat="46.18865" lon="-1.01673">
        <ele>31.2</ele>
        <time>2020-05-31T16:52:45Z</time>
      </trkpt>
      <trkpt lat="46.18866" lon="-1.0168">
        <ele>31.1</ele>
        <time>2020-05-31T16:52:46Z</time>
      </trkpt>
      <trkpt lat="46.18868" lon="-1.01688">
        <ele>31.1</ele>
        <time>2020-05-31T16:52:47Z</time>
      </trkpt>
      <trkpt lat="46.18869" lon="-1.01696">
        <ele>31</ele>
        <time>2020-05-31T16:52:48Z</time>
      </trkpt>
      <trkpt lat="46.18871" lon="-1.01703">
        <ele>30.9</ele>
        <time>2020-05-31T16:52:49Z</time>
      </trkpt>
      <trkpt lat="46.18873" lon="-1.01711">
        <ele>30.8</ele>
        <time>2020-05-31T16:52:50Z</time>
      </trkpt>
      <trkpt lat="46.18875" lon="-1.01719">
        <ele>30.7</ele>
        <time>2020-05-31T16:52:51Z</time>
      </trkpt>
      <trkpt lat="46.18877" lon="-1.01726">
        <ele>30.5</ele>
        <time>2020-05-31T16:52:52Z</time>
      </trkpt>
      <trkpt lat="46.18879" lon="-1.01735">
        <ele>30.4</ele>
        <time>2020-05-31T16:52:53Z</time>
      </trkpt>
      <trkpt lat="46.18881" lon="-1.01743">
        <ele>30.2</ele>
        <time>2020-05-31T16:52:54Z</time>
      </trkpt>
      <trkpt lat="46.18882" lon="-1.01751">
        <ele>30.1</ele>
        <time>2020-05-31T16:52:55Z</time>
      </trkpt>
      <trkpt lat="46.18883" lon="-1.01759">
        <ele>29.9</ele>
        <time>2020-05-31T16:52:56Z</time>
      </trkpt>
      <trkpt lat="46.18885" lon="-1.01767">
        <ele>29.8</ele>
        <time>2020-05-31T16:52:57Z</time>
      </trkpt>
      <trkpt lat="46.18886" lon="-1.01775">
        <ele>29.7</ele>
        <time>2020-05-31T16:52:58Z</time>
      </trkpt>
      <trkpt lat="46.18888" lon="-1.01783">
        <ele>29.6</ele>
        <time>2020-05-31T16:52:59Z</time>
      </trkpt>
      <trkpt lat="46.1889" lon="-1.01791">
        <ele>29.6</ele>
        <time>2020-05-31T16:53:00Z</time>
      </trkpt>
      <trkpt lat="46.18892" lon="-1.01799">
        <ele>29.5</ele>
        <time>2020-05-31T16:53:01Z</time>
      </trkpt>
      <trkpt lat="46.18894" lon="-1.01807">
        <ele>29.5</ele>
        <time>2020-05-31T16:53:02Z</time>
      </trkpt>
      <trkpt lat="46.18895" lon="-1.01816">
        <ele>29.4</ele>
        <time>2020-05-31T16:53:03Z</time>
      </trkpt>
      <trkpt lat="46.18896" lon="-1.01825">
        <ele>29.4</ele>
        <time>2020-05-31T16:53:04Z</time>
      </trkpt>
      <trkpt lat="46.18897" lon="-1.01835">
        <ele>29.4</ele>
        <time>2020-05-31T16:53:05Z</time>
      </trkpt>
      <trkpt lat="46.18897" lon="-1.01845">
        <ele>29.3</ele>
        <time>2020-05-31T16:53:06Z</time>
      </trkpt>
      <trkpt lat="46.18896" lon="-1.01854">
        <ele>29.3</ele>
        <time>2020-05-31T16:53:07Z</time>
      </trkpt>
      <trkpt lat="46.18896" lon="-1.01864">
        <ele>29.3</ele>
        <time>2020-05-31T16:53:08Z</time>
      </trkpt>
      <trkpt lat="46.18896" lon="-1.01873">
        <ele>29.3</ele>
        <time>2020-05-31T16:53:09Z</time>
      </trkpt>
      <trkpt lat="46.18895" lon="-1.01883">
        <ele>29.3</ele>
        <time>2020-05-31T16:53:10Z</time>
      </trkpt>
      <trkpt lat="46.18893" lon="-1.01892">
        <ele>29.3</ele>
        <time>2020-05-31T16:53:11Z</time>
      </trkpt>
      <trkpt lat="46.18892" lon="-1.01902">
        <ele>29.3</ele>
        <time>2020-05-31T16:53:12Z</time>
      </trkpt>
      <trkpt lat="46.18892" lon="-1.01911">
        <ele>29.3</ele>
        <time>2020-05-31T16:53:13Z</time>
      </trkpt>
      <trkpt lat="46.18893" lon="-1.0192">
        <ele>29.3</ele>
        <time>2020-05-31T16:53:14Z</time>
      </trkpt>
      <trkpt lat="46.18895" lon="-1.01928">
        <ele>29.3</ele>
        <time>2020-05-31T16:53:15Z</time>
      </trkpt>
      <trkpt lat="46.18896" lon="-1.01936">
        <ele>29.4</ele>
        <time>2020-05-31T16:53:16Z</time>
      </trkpt>
      <trkpt lat="46.18898" lon="-1.01944">
        <ele>29.4</ele>
        <time>2020-05-31T16:53:17Z</time>
      </trkpt>
      <trkpt lat="46.189" lon="-1.01951">
        <ele>29.4</ele>
        <time>2020-05-31T16:53:18Z</time>
      </trkpt>
      <trkpt lat="46.18901" lon="-1.01959">
        <ele>29.4</ele>
        <time>2020-05-31T16:53:19Z</time>
      </trkpt>
      <trkpt lat="46.18903" lon="-1.01966">
        <ele>29.5</ele>
        <time>2020-05-31T16:53:20Z</time>
      </trkpt>
      <trkpt lat="46.18904" lon="-1.01974">
        <ele>29.5</ele>
        <time>2020-05-31T16:53:21Z</time>
      </trkpt>
      <trkpt lat="46.18906" lon="-1.01982">
        <ele>29.6</ele>
        <time>2020-05-31T16:53:22Z</time>
      </trkpt>
      <trkpt lat="46.18908" lon="-1.0199">
        <ele>29.6</ele>
        <time>2020-05-31T16:53:23Z</time>
      </trkpt>
      <trkpt lat="46.18911" lon="-1.01998">
        <ele>29.7</ele>
        <time>2020-05-31T16:53:24Z</time>
      </trkpt>
      <trkpt lat="46.18913" lon="-1.02006">
        <ele>29.7</ele>
        <time>2020-05-31T16:53:25Z</time>
      </trkpt>
      <trkpt lat="46.18915" lon="-1.02014">
        <ele>29.8</ele>
        <time>2020-05-31T16:53:26Z</time>
      </trkpt>
      <trkpt lat="46.18917" lon="-1.02021">
        <ele>29.8</ele>
        <time>2020-05-31T16:53:27Z</time>
      </trkpt>
      <trkpt lat="46.18919" lon="-1.02028">
        <ele>29.9</ele>
        <time>2020-05-31T16:53:28Z</time>
      </trkpt>
      <trkpt lat="46.18922" lon="-1.02035">
        <ele>29.9</ele>
        <time>2020-05-31T16:53:29Z</time>
      </trkpt>
      <trkpt lat="46.18925" lon="-1.02042">
        <ele>30</ele>
        <time>2020-05-31T16:53:30Z</time>
      </trkpt>
      <trkpt lat="46.18927" lon="-1.02049">
        <ele>30.1</ele>
        <time>2020-05-31T16:53:31Z</time>
      </trkpt>
      <trkpt lat="46.1893" lon="-1.02056">
        <ele>30.1</ele>
        <time>2020-05-31T16:53:32Z</time>
      </trkpt>
      <trkpt lat="46.18933" lon="-1.02063">
        <ele>30.2</ele>
        <time>2020-05-31T16:53:33Z</time>
      </trkpt>
      <trkpt lat="46.18936" lon="-1.0207">
        <ele>30.4</ele>
        <time>2020-05-31T16:53:34Z</time>
      </trkpt>
      <trkpt lat="46.18939" lon="-1.02077">
        <ele>30.5</ele>
        <time>2020-05-31T16:53:35Z</time>
      </trkpt>
      <trkpt lat="46.18941" lon="-1.02084">
        <ele>30.6</ele>
        <time>2020-05-31T16:53:36Z</time>
      </trkpt>
      <trkpt lat="46.18943" lon="-1.02091">
        <ele>30.7</ele>
        <time>2020-05-31T16:53:37Z</time>
      </trkpt>
      <trkpt lat="46.18945" lon="-1.02098">
        <ele>30.8</ele>
        <time>2020-05-31T16:53:38Z</time>
      </trkpt>
      <trkpt lat="46.18947" lon="-1.02106">
        <ele>30.9</ele>
        <time>2020-05-31T16:53:39Z</time>
      </trkpt>
      <trkpt lat="46.18949" lon="-1.02112">
        <ele>31</ele>
        <time>2020-05-31T16:53:40Z</time>
      </trkpt>
      <trkpt lat="46.18951" lon="-1.02118">
        <ele>31.1</ele>
        <time>2020-05-31T16:53:41Z</time>
      </trkpt>
      <trkpt lat="46.18953" lon="-1.02124">
        <ele>31.2</ele>
        <time>2020-05-31T16:53:42Z</time>
      </trkpt>
      <trkpt lat="46.18955" lon="-1.0213">
        <ele>31.3</ele>
        <time>2020-05-31T16:53:43Z</time>
      </trkpt>
      <trkpt lat="46.18957" lon="-1.02137">
        <ele>31.3</ele>
        <time>2020-05-31T16:53:44Z</time>
      </trkpt>
      <trkpt lat="46.18959" lon="-1.02143">
        <ele>31.4</ele>
        <time>2020-05-31T16:53:45Z</time>
      </trkpt>
      <trkpt lat="46.18961" lon="-1.0215">
        <ele>31.5</ele>
        <time>2020-05-31T16:53:46Z</time>
      </trkpt>
      <trkpt lat="46.18963" lon="-1.02156">
        <ele>31.6</ele>
        <time>2020-05-31T16:53:47Z</time>
      </trkpt>
      <trkpt lat="46.18966" lon="-1.02162">
        <ele>31.6</ele>
        <time>2020-05-31T16:53:48Z</time>
      </trkpt>
      <trkpt lat="46.18968" lon="-1.02169">
        <ele>31.7</ele>
        <time>2020-05-31T16:53:49Z</time>
      </trkpt>
      <trkpt lat="46.1897" lon="-1.02175">
        <ele>31.7</ele>
        <time>2020-05-31T16:53:50Z</time>
      </trkpt>
      <trkpt lat="46.18972" lon="-1.02181">
        <ele>31.7</ele>
        <time>2020-05-31T16:53:51Z</time>
      </trkpt>
      <trkpt lat="46.18974" lon="-1.02187">
        <ele>31.7</ele>
        <time>2020-05-31T16:53:52Z</time>
      </trkpt>
      <trkpt lat="46.18976" lon="-1.02193">
        <ele>31.8</ele>
        <time>2020-05-31T16:53:53Z</time>
      </trkpt>
      <trkpt lat="46.18977" lon="-1.02199">
        <ele>31.8</ele>
        <time>2020-05-31T16:53:54Z</time>
      </trkpt>
      <trkpt lat="46.18979" lon="-1.02206">
        <ele>31.9</ele>
        <time>2020-05-31T16:53:55Z</time>
      </trkpt>
      <trkpt lat="46.18981" lon="-1.02213">
        <ele>31.9</ele>
        <time>2020-05-31T16:53:56Z</time>
      </trkpt>
      <trkpt lat="46.18983" lon="-1.02219">
        <ele>32</ele>
        <time>2020-05-31T16:53:57Z</time>
      </trkpt>
      <trkpt lat="46.18986" lon="-1.02226">
        <ele>32</ele>
        <time>2020-05-31T16:53:58Z</time>
      </trkpt>
      <trkpt lat="46.18988" lon="-1.02232">
        <ele>32</ele>
        <time>2020-05-31T16:53:59Z</time>
      </trkpt>
      <trkpt lat="46.1899" lon="-1.02238">
        <ele>32</ele>
        <time>2020-05-31T16:54:00Z</time>
      </trkpt>
      <trkpt lat="46.18992" lon="-1.02245">
        <ele>32.1</ele>
        <time>2020-05-31T16:54:01Z</time>
      </trkpt>
      <trkpt lat="46.18994" lon="-1.02252">
        <ele>32.1</ele>
        <time>2020-05-31T16:54:02Z</time>
      </trkpt>
      <trkpt lat="46.18996" lon="-1.02258">
        <ele>32.1</ele>
        <time>2020-05-31T16:54:03Z</time>
      </trkpt>
      <trkpt lat="46.18998" lon="-1.02265">
        <ele>32.1</ele>
        <time>2020-05-31T16:54:04Z</time>
      </trkpt>
      <trkpt lat="46.19" lon="-1.02272">
        <ele>32.2</ele>
        <time>2020-05-31T16:54:05Z</time>
      </trkpt>
      <trkpt lat="46.19003" lon="-1.02278">
        <ele>32.2</ele>
        <time>2020-05-31T16:54:06Z</time>
      </trkpt>
      <trkpt lat="46.19005" lon="-1.02285">
        <ele>32.2</ele>
        <time>2020-05-31T16:54:07Z</time>
      </trkpt>
      <trkpt lat="46.19007" lon="-1.02292">
        <ele>32.2</ele>
        <time>2020-05-31T16:54:08Z</time>
      </trkpt>
      <trkpt lat="46.19009" lon="-1.02299">
        <ele>32.3</ele>
        <time>2020-05-31T16:54:09Z</time>
      </trkpt>
      <trkpt lat="46.19011" lon="-1.02305">
        <ele>32.3</ele>
        <time>2020-05-31T16:54:10Z</time>
      </trkpt>
      <trkpt lat="46.19014" lon="-1.02312">
        <ele>32.3</ele>
        <time>2020-05-31T16:54:11Z</time>
      </trkpt>
      <trkpt lat="46.19016" lon="-1.02319">
        <ele>32.3</ele>
        <time>2020-05-31T16:54:12Z</time>
      </trkpt>
      <trkpt lat="46.19019" lon="-1.02324">
        <ele>32.4</ele>
        <time>2020-05-31T16:54:13Z</time>
      </trkpt>
      <trkpt lat="46.19022" lon="-1.0233">
        <ele>32.4</ele>
        <time>2020-05-31T16:54:14Z</time>
      </trkpt>
      <trkpt lat="46.19024" lon="-1.02335">
        <ele>32.4</ele>
        <time>2020-05-31T16:54:15Z</time>
      </trkpt>
      <trkpt lat="46.19026" lon="-1.02342">
        <ele>32.4</ele>
        <time>2020-05-31T16:54:16Z</time>
      </trkpt>
      <trkpt lat="46.19029" lon="-1.02346">
        <ele>32.4</ele>
        <time>2020-05-31T16:54:17Z</time>
      </trkpt>
      <trkpt lat="46.19032" lon="-1.02351">
        <ele>32.4</ele>
        <time>2020-05-31T16:54:18Z</time>
      </trkpt>
      <trkpt lat="46.19034" lon="-1.02355">
        <ele>32.5</ele>
        <time>2020-05-31T16:54:19Z</time>
      </trkpt>
      <trkpt lat="46.19037" lon="-1.0236">
        <ele>32.5</ele>
        <time>2020-05-31T16:54:20Z</time>
      </trkpt>
      <trkpt lat="46.1904" lon="-1.02364">
        <ele>32.5</ele>
        <time>2020-05-31T16:54:21Z</time>
      </trkpt>
      <trkpt lat="46.19043" lon="-1.02368">
        <ele>32.5</ele>
        <time>2020-05-31T16:54:22Z</time>
      </trkpt>
      <trkpt lat="46.19046" lon="-1.02373">
        <ele>32.5</ele>
        <time>2020-05-31T16:54:23Z</time>
      </trkpt>
      <trkpt lat="46.19049" lon="-1.02377">
        <ele>32.5</ele>
        <time>2020-05-31T16:54:24Z</time>
      </trkpt>
      <trkpt lat="46.19051" lon="-1.02381">
        <ele>32.5</ele>
        <time>2020-05-31T16:54:25Z</time>
      </trkpt>
      <trkpt lat="46.19054" lon="-1.02387">
        <ele>32.4</ele>
        <time>2020-05-31T16:54:26Z</time>
      </trkpt>
      <trkpt lat="46.19056" lon="-1.02391">
        <ele>32.4</ele>
        <time>2020-05-31T16:54:27Z</time>
      </trkpt>
      <trkpt lat="46.19059" lon="-1.02396">
        <ele>32.4</ele>
        <time>2020-05-31T16:54:28Z</time>
      </trkpt>
      <trkpt lat="46.1906" lon="-1.02402">
        <ele>32.4</ele>
        <time>2020-05-31T16:54:29Z</time>
      </trkpt>
      <trkpt lat="46.19063" lon="-1.02407">
        <ele>32.4</ele>
        <time>2020-05-31T16:54:30Z</time>
      </trkpt>
      <trkpt lat="46.19066" lon="-1.02411">
        <ele>32.4</ele>
        <time>2020-05-31T16:54:31Z</time>
      </trkpt>
      <trkpt lat="46.19068" lon="-1.02417">
        <ele>32.4</ele>
        <time>2020-05-31T16:54:32Z</time>
      </trkpt>
      <trkpt lat="46.19071" lon="-1.02423">
        <ele>32.4</ele>
        <time>2020-05-31T16:54:33Z</time>
      </trkpt>
      <trkpt lat="46.19073" lon="-1.02429">
        <ele>32.4</ele>
        <time>2020-05-31T16:54:34Z</time>
      </trkpt>
      <trkpt lat="46.19075" lon="-1.02436">
        <ele>32.4</ele>
        <time>2020-05-31T16:54:35Z</time>
      </trkpt>
      <trkpt lat="46.19076" lon="-1.02443">
        <ele>32.3</ele>
        <time>2020-05-31T16:54:36Z</time>
      </trkpt>
      <trkpt lat="46.19077" lon="-1.0245">
        <ele>32.4</ele>
        <time>2020-05-31T16:54:37Z</time>
      </trkpt>
      <trkpt lat="46.19078" lon="-1.02457">
        <ele>32.4</ele>
        <time>2020-05-31T16:54:38Z</time>
      </trkpt>
      <trkpt lat="46.19079" lon="-1.02463">
        <ele>32.4</ele>
        <time>2020-05-31T16:54:39Z</time>
      </trkpt>
      <trkpt lat="46.19081" lon="-1.0247">
        <ele>32.5</ele>
        <time>2020-05-31T16:54:40Z</time>
      </trkpt>
      <trkpt lat="46.19082" lon="-1.02477">
        <ele>32.5</ele>
        <time>2020-05-31T16:54:41Z</time>
      </trkpt>
      <trkpt lat="46.19083" lon="-1.02484">
        <ele>32.5</ele>
        <time>2020-05-31T16:54:42Z</time>
      </trkpt>
      <trkpt lat="46.19083" lon="-1.02491">
        <ele>32.6</ele>
        <time>2020-05-31T16:54:43Z</time>
      </trkpt>
      <trkpt lat="46.19085" lon="-1.02498">
        <ele>32.6</ele>
        <time>2020-05-31T16:54:44Z</time>
      </trkpt>
      <trkpt lat="46.19086" lon="-1.02505">
        <ele>32.6</ele>
        <time>2020-05-31T16:54:45Z</time>
      </trkpt>
      <trkpt lat="46.19087" lon="-1.02512">
        <ele>32.7</ele>
        <time>2020-05-31T16:54:46Z</time>
      </trkpt>
      <trkpt lat="46.19087" lon="-1.02518">
        <ele>32.7</ele>
        <time>2020-05-31T16:54:47Z</time>
      </trkpt>
      <trkpt lat="46.19089" lon="-1.02524">
        <ele>32.8</ele>
        <time>2020-05-31T16:54:48Z</time>
      </trkpt>
      <trkpt lat="46.1909" lon="-1.0253">
        <ele>32.8</ele>
        <time>2020-05-31T16:54:49Z</time>
      </trkpt>
      <trkpt lat="46.19091" lon="-1.02536">
        <ele>32.9</ele>
        <time>2020-05-31T16:54:50Z</time>
      </trkpt>
      <trkpt lat="46.19093" lon="-1.02543">
        <ele>32.9</ele>
        <time>2020-05-31T16:54:51Z</time>
      </trkpt>
      <trkpt lat="46.19095" lon="-1.0255">
        <ele>33</ele>
        <time>2020-05-31T16:54:52Z</time>
      </trkpt>
      <trkpt lat="46.19096" lon="-1.02555">
        <ele>33</ele>
        <time>2020-05-31T16:54:53Z</time>
      </trkpt>
      <trkpt lat="46.19097" lon="-1.02561">
        <ele>33.1</ele>
        <time>2020-05-31T16:54:54Z</time>
      </trkpt>
      <trkpt lat="46.19099" lon="-1.02567">
        <ele>33.1</ele>
        <time>2020-05-31T16:54:55Z</time>
      </trkpt>
      <trkpt lat="46.19099" lon="-1.02574">
        <ele>33.2</ele>
        <time>2020-05-31T16:54:56Z</time>
      </trkpt>
      <trkpt lat="46.19101" lon="-1.0258">
        <ele>33.2</ele>
        <time>2020-05-31T16:54:57Z</time>
      </trkpt>
      <trkpt lat="46.191" lon="-1.02586">
        <ele>33.3</ele>
        <time>2020-05-31T16:54:58Z</time>
      </trkpt>
      <trkpt lat="46.19098" lon="-1.02592">
        <ele>33.3</ele>
        <time>2020-05-31T16:54:59Z</time>
      </trkpt>
      <trkpt lat="46.19098" lon="-1.02597">
        <ele>33.3</ele>
        <time>2020-05-31T16:55:00Z</time>
      </trkpt>
      <trkpt lat="46.19097" lon="-1.02603">
        <ele>33.4</ele>
        <time>2020-05-31T16:55:01Z</time>
      </trkpt>
      <trkpt lat="46.19098" lon="-1.02609">
        <ele>33.4</ele>
        <time>2020-05-31T16:55:02Z</time>
      </trkpt>
      <trkpt lat="46.19098" lon="-1.02614">
        <ele>33.4</ele>
        <time>2020-05-31T16:55:03Z</time>
      </trkpt>
      <trkpt lat="46.19098" lon="-1.0262">
        <ele>33.4</ele>
        <time>2020-05-31T16:55:04Z</time>
      </trkpt>
      <trkpt lat="46.19097" lon="-1.02626">
        <ele>33.4</ele>
        <time>2020-05-31T16:55:05Z</time>
      </trkpt>
      <trkpt lat="46.19098" lon="-1.02631">
        <ele>33.4</ele>
        <time>2020-05-31T16:55:06Z</time>
      </trkpt>
      <trkpt lat="46.19098" lon="-1.02637">
        <ele>33.4</ele>
        <time>2020-05-31T16:55:07Z</time>
      </trkpt>
      <trkpt lat="46.191" lon="-1.02643">
        <ele>33.4</ele>
        <time>2020-05-31T16:55:08Z</time>
      </trkpt>
      <trkpt lat="46.191" lon="-1.02649">
        <ele>33.4</ele>
        <time>2020-05-31T16:55:09Z</time>
      </trkpt>
      <trkpt lat="46.19101" lon="-1.02655">
        <ele>33.4</ele>
        <time>2020-05-31T16:55:10Z</time>
      </trkpt>
      <trkpt lat="46.19101" lon="-1.02661">
        <ele>33.4</ele>
        <time>2020-05-31T16:55:11Z</time>
      </trkpt>
      <trkpt lat="46.19099" lon="-1.02666">
        <ele>33.4</ele>
        <time>2020-05-31T16:55:12Z</time>
      </trkpt>
      <trkpt lat="46.19098" lon="-1.02672">
        <ele>33.4</ele>
        <time>2020-05-31T16:55:13Z</time>
      </trkpt>
      <trkpt lat="46.19098" lon="-1.02678">
        <ele>33.4</ele>
        <time>2020-05-31T16:55:14Z</time>
      </trkpt>
      <trkpt lat="46.19099" lon="-1.02684">
        <ele>33.4</ele>
        <time>2020-05-31T16:55:15Z</time>
      </trkpt>
      <trkpt lat="46.19098" lon="-1.02691">
        <ele>33.4</ele>
        <time>2020-05-31T16:55:16Z</time>
      </trkpt>
      <trkpt lat="46.19098" lon="-1.02697">
        <ele>33.4</ele>
        <time>2020-05-31T16:55:17Z</time>
      </trkpt>
      <trkpt lat="46.19098" lon="-1.02705">
        <ele>33.5</ele>
        <time>2020-05-31T16:55:18Z</time>
      </trkpt>
      <trkpt lat="46.19098" lon="-1.02712">
        <ele>33.5</ele>
        <time>2020-05-31T16:55:19Z</time>
      </trkpt>
      <trkpt lat="46.19095" lon="-1.02719">
        <ele>33.5</ele>
        <time>2020-05-31T16:55:20Z</time>
      </trkpt>
      <trkpt lat="46.19094" lon="-1.02726">
        <ele>33.5</ele>
        <time>2020-05-31T16:55:21Z</time>
      </trkpt>
      <trkpt lat="46.19092" lon="-1.02731">
        <ele>33.5</ele>
        <time>2020-05-31T16:55:22Z</time>
      </trkpt>
      <trkpt lat="46.19089" lon="-1.02737">
        <ele>33.5</ele>
        <time>2020-05-31T16:55:23Z</time>
      </trkpt>
      <trkpt lat="46.19086" lon="-1.02742">
        <ele>33.6</ele>
        <time>2020-05-31T16:55:24Z</time>
      </trkpt>
      <trkpt lat="46.19083" lon="-1.02747">
        <ele>33.6</ele>
        <time>2020-05-31T16:55:25Z</time>
      </trkpt>
      <trkpt lat="46.1908" lon="-1.02752">
        <ele>33.6</ele>
        <time>2020-05-31T16:55:26Z</time>
      </trkpt>
      <trkpt lat="46.19076" lon="-1.02757">
        <ele>33.6</ele>
        <time>2020-05-31T16:55:27Z</time>
      </trkpt>
      <trkpt lat="46.19074" lon="-1.02764">
        <ele>33.6</ele>
        <time>2020-05-31T16:55:28Z</time>
      </trkpt>
      <trkpt lat="46.19071" lon="-1.02769">
        <ele>33.5</ele>
        <time>2020-05-31T16:55:29Z</time>
      </trkpt>
      <trkpt lat="46.19068" lon="-1.02774">
        <ele>33.5</ele>
        <time>2020-05-31T16:55:30Z</time>
      </trkpt>
      <trkpt lat="46.19065" lon="-1.0278">
        <ele>33.5</ele>
        <time>2020-05-31T16:55:31Z</time>
      </trkpt>
      <trkpt lat="46.19064" lon="-1.02787">
        <ele>33.5</ele>
        <time>2020-05-31T16:55:32Z</time>
      </trkpt>
      <trkpt lat="46.19061" lon="-1.02792">
        <ele>33.4</ele>
        <time>2020-05-31T16:55:33Z</time>
      </trkpt>
      <trkpt lat="46.19058" lon="-1.02797">
        <ele>33.4</ele>
        <time>2020-05-31T16:55:34Z</time>
      </trkpt>
      <trkpt lat="46.19055" lon="-1.02802">
        <ele>33.4</ele>
        <time>2020-05-31T16:55:35Z</time>
      </trkpt>
      <trkpt lat="46.19053" lon="-1.02809">
        <ele>33.4</ele>
        <time>2020-05-31T16:55:36Z</time>
      </trkpt>
      <trkpt lat="46.1905" lon="-1.02814">
        <ele>33.4</ele>
        <time>2020-05-31T16:55:37Z</time>
      </trkpt>
      <trkpt lat="46.19047" lon="-1.02819">
        <ele>33.4</ele>
        <time>2020-05-31T16:55:38Z</time>
      </trkpt>
      <trkpt lat="46.19046" lon="-1.02826">
        <ele>33.4</ele>
        <time>2020-05-31T16:55:39Z</time>
      </trkpt>
      <trkpt lat="46.19043" lon="-1.02831">
        <ele>33.4</ele>
        <time>2020-05-31T16:55:40Z</time>
      </trkpt>
      <trkpt lat="46.19039" lon="-1.02837">
        <ele>33.4</ele>
        <time>2020-05-31T16:55:41Z</time>
      </trkpt>
      <trkpt lat="46.19038" lon="-1.02845">
        <ele>33.4</ele>
        <time>2020-05-31T16:55:42Z</time>
      </trkpt>
      <trkpt lat="46.19035" lon="-1.02851">
        <ele>33.3</ele>
        <time>2020-05-31T16:55:43Z</time>
      </trkpt>
      <trkpt lat="46.19032" lon="-1.02858">
        <ele>33.3</ele>
        <time>2020-05-31T16:55:44Z</time>
      </trkpt>
      <trkpt lat="46.1903" lon="-1.02865">
        <ele>33.3</ele>
        <time>2020-05-31T16:55:45Z</time>
      </trkpt>
      <trkpt lat="46.19027" lon="-1.02872">
        <ele>33.3</ele>
        <time>2020-05-31T16:55:46Z</time>
      </trkpt>
      <trkpt lat="46.19024" lon="-1.02879">
        <ele>33.2</ele>
        <time>2020-05-31T16:55:47Z</time>
      </trkpt>
      <trkpt lat="46.19022" lon="-1.02887">
        <ele>33.1</ele>
        <time>2020-05-31T16:55:48Z</time>
      </trkpt>
      <trkpt lat="46.1902" lon="-1.02893">
        <ele>32.9</ele>
        <time>2020-05-31T16:55:49Z</time>
      </trkpt>
      <trkpt lat="46.19019" lon="-1.029">
        <ele>32.8</ele>
        <time>2020-05-31T16:55:50Z</time>
      </trkpt>
      <trkpt lat="46.19018" lon="-1.02907">
        <ele>32.7</ele>
        <time>2020-05-31T16:55:51Z</time>
      </trkpt>
      <trkpt lat="46.19017" lon="-1.02914">
        <ele>32.6</ele>
        <time>2020-05-31T16:55:52Z</time>
      </trkpt>
      <trkpt lat="46.19015" lon="-1.02921">
        <ele>32.5</ele>
        <time>2020-05-31T16:55:53Z</time>
      </trkpt>
      <trkpt lat="46.19013" lon="-1.02928">
        <ele>32.4</ele>
        <time>2020-05-31T16:55:54Z</time>
      </trkpt>
      <trkpt lat="46.1901" lon="-1.02935">
        <ele>32.3</ele>
        <time>2020-05-31T16:55:55Z</time>
      </trkpt>
      <trkpt lat="46.19008" lon="-1.02942">
        <ele>32.3</ele>
        <time>2020-05-31T16:55:56Z</time>
      </trkpt>
      <trkpt lat="46.19005" lon="-1.02949">
        <ele>32.3</ele>
        <time>2020-05-31T16:55:57Z</time>
      </trkpt>
      <trkpt lat="46.19003" lon="-1.02955">
        <ele>32.2</ele>
        <time>2020-05-31T16:55:58Z</time>
      </trkpt>
      <trkpt lat="46.19" lon="-1.02962">
        <ele>32.1</ele>
        <time>2020-05-31T16:55:59Z</time>
      </trkpt>
      <trkpt lat="46.18998" lon="-1.0297">
        <ele>32</ele>
        <time>2020-05-31T16:56:00Z</time>
      </trkpt>
      <trkpt lat="46.18996" lon="-1.02977">
        <ele>31.9</ele>
        <time>2020-05-31T16:56:01Z</time>
      </trkpt>
      <trkpt lat="46.18993" lon="-1.02984">
        <ele>31.7</ele>
        <time>2020-05-31T16:56:02Z</time>
      </trkpt>
      <trkpt lat="46.18991" lon="-1.02991">
        <ele>31.6</ele>
        <time>2020-05-31T16:56:03Z</time>
      </trkpt>
      <trkpt lat="46.18988" lon="-1.02998">
        <ele>31.5</ele>
        <time>2020-05-31T16:56:04Z</time>
      </trkpt>
      <trkpt lat="46.18986" lon="-1.03006">
        <ele>31.4</ele>
        <time>2020-05-31T16:56:05Z</time>
      </trkpt>
      <trkpt lat="46.18984" lon="-1.03014">
        <ele>31.2</ele>
        <time>2020-05-31T16:56:06Z</time>
      </trkpt>
      <trkpt lat="46.18981" lon="-1.03021">
        <ele>31.1</ele>
        <time>2020-05-31T16:56:07Z</time>
      </trkpt>
      <trkpt lat="46.18978" lon="-1.03029">
        <ele>31</ele>
        <time>2020-05-31T16:56:08Z</time>
      </trkpt>
      <trkpt lat="46.18976" lon="-1.03036">
        <ele>31</ele>
        <time>2020-05-31T16:56:09Z</time>
      </trkpt>
      <trkpt lat="46.18974" lon="-1.03043">
        <ele>30.9</ele>
        <time>2020-05-31T16:56:10Z</time>
      </trkpt>
      <trkpt lat="46.18972" lon="-1.03051">
        <ele>30.7</ele>
        <time>2020-05-31T16:56:11Z</time>
      </trkpt>
      <trkpt lat="46.18969" lon="-1.03059">
        <ele>30.6</ele>
        <time>2020-05-31T16:56:12Z</time>
      </trkpt>
      <trkpt lat="46.18966" lon="-1.03067">
        <ele>30.5</ele>
        <time>2020-05-31T16:56:13Z</time>
      </trkpt>
      <trkpt lat="46.18963" lon="-1.03075">
        <ele>30.3</ele>
        <time>2020-05-31T16:56:14Z</time>
      </trkpt>
      <trkpt lat="46.18962" lon="-1.03084">
        <ele>30.2</ele>
        <time>2020-05-31T16:56:15Z</time>
      </trkpt>
      <trkpt lat="46.18959" lon="-1.03093">
        <ele>30.1</ele>
        <time>2020-05-31T16:56:16Z</time>
      </trkpt>
      <trkpt lat="46.18957" lon="-1.03102">
        <ele>29.9</ele>
        <time>2020-05-31T16:56:17Z</time>
      </trkpt>
      <trkpt lat="46.18955" lon="-1.03111">
        <ele>29.8</ele>
        <time>2020-05-31T16:56:18Z</time>
      </trkpt>
      <trkpt lat="46.18952" lon="-1.03121">
        <ele>29.6</ele>
        <time>2020-05-31T16:56:19Z</time>
      </trkpt>
      <trkpt lat="46.18949" lon="-1.03129">
        <ele>29.5</ele>
        <time>2020-05-31T16:56:20Z</time>
      </trkpt>
      <trkpt lat="46.18946" lon="-1.03137">
        <ele>29.3</ele>
        <time>2020-05-31T16:56:21Z</time>
      </trkpt>
      <trkpt lat="46.18942" lon="-1.03144">
        <ele>29.2</ele>
        <time>2020-05-31T16:56:22Z</time>
      </trkpt>
      <trkpt lat="46.18939" lon="-1.03153">
        <ele>29</ele>
        <time>2020-05-31T16:56:23Z</time>
      </trkpt>
      <trkpt lat="46.18936" lon="-1.03162">
        <ele>28.8</ele>
        <time>2020-05-31T16:56:24Z</time>
      </trkpt>
      <trkpt lat="46.18932" lon="-1.03171">
        <ele>28.5</ele>
        <time>2020-05-31T16:56:25Z</time>
      </trkpt>
      <trkpt lat="46.18928" lon="-1.0318">
        <ele>28.3</ele>
        <time>2020-05-31T16:56:26Z</time>
      </trkpt>
      <trkpt lat="46.18925" lon="-1.0319">
        <ele>28</ele>
        <time>2020-05-31T16:56:27Z</time>
      </trkpt>
      <trkpt lat="46.18923" lon="-1.032">
        <ele>27.8</ele>
        <time>2020-05-31T16:56:28Z</time>
      </trkpt>
      <trkpt lat="46.18921" lon="-1.03211">
        <ele>27.5</ele>
        <time>2020-05-31T16:56:29Z</time>
      </trkpt>
      <trkpt lat="46.18918" lon="-1.03222">
        <ele>27.2</ele>
        <time>2020-05-31T16:56:30Z</time>
      </trkpt>
      <trkpt lat="46.18916" lon="-1.03234">
        <ele>27</ele>
        <time>2020-05-31T16:56:31Z</time>
      </trkpt>
      <trkpt lat="46.18916" lon="-1.03246">
        <ele>26.7</ele>
        <time>2020-05-31T16:56:32Z</time>
      </trkpt>
      <trkpt lat="46.18915" lon="-1.03258">
        <ele>26.5</ele>
        <time>2020-05-31T16:56:33Z</time>
      </trkpt>
      <trkpt lat="46.18915" lon="-1.0327">
        <ele>26.2</ele>
        <time>2020-05-31T16:56:34Z</time>
      </trkpt>
      <trkpt lat="46.18915" lon="-1.03282">
        <ele>25.9</ele>
        <time>2020-05-31T16:56:35Z</time>
      </trkpt>
      <trkpt lat="46.18914" lon="-1.03294">
        <ele>25.6</ele>
        <time>2020-05-31T16:56:36Z</time>
      </trkpt>
      <trkpt lat="46.18913" lon="-1.03306">
        <ele>25.3</ele>
        <time>2020-05-31T16:56:37Z</time>
      </trkpt>
      <trkpt lat="46.18912" lon="-1.03319">
        <ele>25</ele>
        <time>2020-05-31T16:56:38Z</time>
      </trkpt>
      <trkpt lat="46.18911" lon="-1.03332">
        <ele>24.8</ele>
        <time>2020-05-31T16:56:39Z</time>
      </trkpt>
      <trkpt lat="46.18911" lon="-1.03344">
        <ele>24.5</ele>
        <time>2020-05-31T16:56:40Z</time>
      </trkpt>
      <trkpt lat="46.18909" lon="-1.03357">
        <ele>24.2</ele>
        <time>2020-05-31T16:56:41Z</time>
      </trkpt>
      <trkpt lat="46.18907" lon="-1.0337">
        <ele>23.9</ele>
        <time>2020-05-31T16:56:42Z</time>
      </trkpt>
      <trkpt lat="46.18905" lon="-1.03383">
        <ele>23.6</ele>
        <time>2020-05-31T16:56:43Z</time>
      </trkpt>
      <trkpt lat="46.18902" lon="-1.03397">
        <ele>23.2</ele>
        <time>2020-05-31T16:56:44Z</time>
      </trkpt>
      <trkpt lat="46.18899" lon="-1.03412">
        <ele>22.9</ele>
        <time>2020-05-31T16:56:45Z</time>
      </trkpt>
      <trkpt lat="46.18894" lon="-1.03426">
        <ele>22.6</ele>
        <time>2020-05-31T16:56:46Z</time>
      </trkpt>
      <trkpt lat="46.18889" lon="-1.03439">
        <ele>22.3</ele>
        <time>2020-05-31T16:56:47Z</time>
      </trkpt>
      <trkpt lat="46.18885" lon="-1.03452">
        <ele>22</ele>
        <time>2020-05-31T16:56:48Z</time>
      </trkpt>
      <trkpt lat="46.18881" lon="-1.03466">
        <ele>21.8</ele>
        <time>2020-05-31T16:56:49Z</time>
      </trkpt>
      <trkpt lat="46.18878" lon="-1.03481">
        <ele>21.6</ele>
        <time>2020-05-31T16:56:50Z</time>
      </trkpt>
      <trkpt lat="46.18874" lon="-1.03496">
        <ele>21.5</ele>
        <time>2020-05-31T16:56:51Z</time>
      </trkpt>
      <trkpt lat="46.1887" lon="-1.03512">
        <ele>21.3</ele>
        <time>2020-05-31T16:56:52Z</time>
      </trkpt>
      <trkpt lat="46.18867" lon="-1.03528">
        <ele>21.2</ele>
        <time>2020-05-31T16:56:53Z</time>
      </trkpt>
      <trkpt lat="46.18864" lon="-1.03545">
        <ele>21.2</ele>
        <time>2020-05-31T16:56:54Z</time>
      </trkpt>
      <trkpt lat="46.18863" lon="-1.03561">
        <ele>21.2</ele>
        <time>2020-05-31T16:56:55Z</time>
      </trkpt>
      <trkpt lat="46.18861" lon="-1.03578">
        <ele>21.2</ele>
        <time>2020-05-31T16:56:56Z</time>
      </trkpt>
      <trkpt lat="46.1886" lon="-1.03594">
        <ele>21.2</ele>
        <time>2020-05-31T16:56:57Z</time>
      </trkpt>
      <trkpt lat="46.18859" lon="-1.03609">
        <ele>21.4</ele>
        <time>2020-05-31T16:56:58Z</time>
      </trkpt>
      <trkpt lat="46.18858" lon="-1.03624">
        <ele>21.5</ele>
        <time>2020-05-31T16:56:59Z</time>
      </trkpt>
      <trkpt lat="46.18855" lon="-1.03639">
        <ele>21.7</ele>
        <time>2020-05-31T16:57:00Z</time>
      </trkpt>
      <trkpt lat="46.18851" lon="-1.03653">
        <ele>22</ele>
        <time>2020-05-31T16:57:01Z</time>
      </trkpt>
      <trkpt lat="46.18847" lon="-1.03667">
        <ele>22.3</ele>
        <time>2020-05-31T16:57:02Z</time>
      </trkpt>
      <trkpt lat="46.18843" lon="-1.0368">
        <ele>22.6</ele>
        <time>2020-05-31T16:57:03Z</time>
      </trkpt>
      <trkpt lat="46.1884" lon="-1.03693">
        <ele>22.8</ele>
        <time>2020-05-31T16:57:04Z</time>
      </trkpt>
      <trkpt lat="46.18836" lon="-1.03705">
        <ele>23.1</ele>
        <time>2020-05-31T16:57:05Z</time>
      </trkpt>
      <trkpt lat="46.18833" lon="-1.03717">
        <ele>23.3</ele>
        <time>2020-05-31T16:57:06Z</time>
      </trkpt>
      <trkpt lat="46.18829" lon="-1.03729">
        <ele>23.5</ele>
        <time>2020-05-31T16:57:07Z</time>
      </trkpt>
      <trkpt lat="46.18826" lon="-1.0374">
        <ele>23.7</ele>
        <time>2020-05-31T16:57:08Z</time>
      </trkpt>
      <trkpt lat="46.18822" lon="-1.03751">
        <ele>23.9</ele>
        <time>2020-05-31T16:57:09Z</time>
      </trkpt>
      <trkpt lat="46.1882" lon="-1.03763">
        <ele>24.1</ele>
        <time>2020-05-31T16:57:10Z</time>
      </trkpt>
      <trkpt lat="46.18818" lon="-1.03774">
        <ele>24.3</ele>
        <time>2020-05-31T16:57:11Z</time>
      </trkpt>
      <trkpt lat="46.18816" lon="-1.03784">
        <ele>24.4</ele>
        <time>2020-05-31T16:57:12Z</time>
      </trkpt>
      <trkpt lat="46.18814" lon="-1.03794">
        <ele>24.4</ele>
        <time>2020-05-31T16:57:13Z</time>
      </trkpt>
      <trkpt lat="46.18812" lon="-1.03804">
        <ele>24.5</ele>
        <time>2020-05-31T16:57:14Z</time>
      </trkpt>
      <trkpt lat="46.18811" lon="-1.03813">
        <ele>24.6</ele>
        <time>2020-05-31T16:57:15Z</time>
      </trkpt>
      <trkpt lat="46.18809" lon="-1.03822">
        <ele>24.7</ele>
        <time>2020-05-31T16:57:16Z</time>
      </trkpt>
      <trkpt lat="46.18808" lon="-1.03831">
        <ele>24.9</ele>
        <time>2020-05-31T16:57:17Z</time>
      </trkpt>
      <trkpt lat="46.18806" lon="-1.0384">
        <ele>25</ele>
        <time>2020-05-31T16:57:18Z</time>
      </trkpt>
      <trkpt lat="46.18805" lon="-1.03849">
        <ele>25.1</ele>
        <time>2020-05-31T16:57:19Z</time>
      </trkpt>
      <trkpt lat="46.18804" lon="-1.03858">
        <ele>25.2</ele>
        <time>2020-05-31T16:57:20Z</time>
      </trkpt>
      <trkpt lat="46.18804" lon="-1.03867">
        <ele>25.3</ele>
        <time>2020-05-31T16:57:21Z</time>
      </trkpt>
      <trkpt lat="46.18803" lon="-1.03875">
        <ele>25.4</ele>
        <time>2020-05-31T16:57:22Z</time>
      </trkpt>
      <trkpt lat="46.18801" lon="-1.03884">
        <ele>25.5</ele>
        <time>2020-05-31T16:57:23Z</time>
      </trkpt>
      <trkpt lat="46.18802" lon="-1.03892">
        <ele>25.5</ele>
        <time>2020-05-31T16:57:24Z</time>
      </trkpt>
      <trkpt lat="46.188" lon="-1.03899">
        <ele>25.6</ele>
        <time>2020-05-31T16:57:25Z</time>
      </trkpt>
      <trkpt lat="46.188" lon="-1.03907">
        <ele>25.7</ele>
        <time>2020-05-31T16:57:26Z</time>
      </trkpt>
      <trkpt lat="46.18801" lon="-1.03915">
        <ele>25.8</ele>
        <time>2020-05-31T16:57:27Z</time>
      </trkpt>
      <trkpt lat="46.18799" lon="-1.03922">
        <ele>25.8</ele>
        <time>2020-05-31T16:57:28Z</time>
      </trkpt>
      <trkpt lat="46.18798" lon="-1.03929">
        <ele>25.9</ele>
        <time>2020-05-31T16:57:29Z</time>
      </trkpt>
      <trkpt lat="46.18797" lon="-1.03936">
        <ele>26</ele>
        <time>2020-05-31T16:57:30Z</time>
      </trkpt>
      <trkpt lat="46.18797" lon="-1.03944">
        <ele>26</ele>
        <time>2020-05-31T16:57:31Z</time>
      </trkpt>
      <trkpt lat="46.18795" lon="-1.03951">
        <ele>26.1</ele>
        <time>2020-05-31T16:57:32Z</time>
      </trkpt>
      <trkpt lat="46.18795" lon="-1.03958">
        <ele>26.2</ele>
        <time>2020-05-31T16:57:33Z</time>
      </trkpt>
      <trkpt lat="46.18794" lon="-1.03964">
        <ele>26.2</ele>
        <time>2020-05-31T16:57:34Z</time>
      </trkpt>
      <trkpt lat="46.18794" lon="-1.03971">
        <ele>26.2</ele>
        <time>2020-05-31T16:57:35Z</time>
      </trkpt>
      <trkpt lat="46.18793" lon="-1.03978">
        <ele>26.3</ele>
        <time>2020-05-31T16:57:36Z</time>
      </trkpt>
      <trkpt lat="46.18793" lon="-1.03985">
        <ele>26.3</ele>
        <time>2020-05-31T16:57:37Z</time>
      </trkpt>
      <trkpt lat="46.18793" lon="-1.03993">
        <ele>26.4</ele>
        <time>2020-05-31T16:57:38Z</time>
      </trkpt>
      <trkpt lat="46.18792" lon="-1.04001">
        <ele>26.4</ele>
        <time>2020-05-31T16:57:39Z</time>
      </trkpt>
      <trkpt lat="46.18791" lon="-1.04009">
        <ele>26.5</ele>
        <time>2020-05-31T16:57:40Z</time>
      </trkpt>
      <trkpt lat="46.1879" lon="-1.04017">
        <ele>26.5</ele>
        <time>2020-05-31T16:57:41Z</time>
      </trkpt>
      <trkpt lat="46.18789" lon="-1.04025">
        <ele>26.5</ele>
        <time>2020-05-31T16:57:42Z</time>
      </trkpt>
      <trkpt lat="46.18788" lon="-1.04034">
        <ele>26.6</ele>
        <time>2020-05-31T16:57:43Z</time>
      </trkpt>
      <trkpt lat="46.18788" lon="-1.04042">
        <ele>26.6</ele>
        <time>2020-05-31T16:57:44Z</time>
      </trkpt>
      <trkpt lat="46.18786" lon="-1.0405">
        <ele>26.6</ele>
        <time>2020-05-31T16:57:45Z</time>
      </trkpt>
      <trkpt lat="46.18784" lon="-1.04057">
        <ele>26.6</ele>
        <time>2020-05-31T16:57:46Z</time>
      </trkpt>
      <trkpt lat="46.18782" lon="-1.04065">
        <ele>26.6</ele>
        <time>2020-05-31T16:57:47Z</time>
      </trkpt>
      <trkpt lat="46.18778" lon="-1.04072">
        <ele>26.7</ele>
        <time>2020-05-31T16:57:48Z</time>
      </trkpt>
      <trkpt lat="46.18775" lon="-1.04079">
        <ele>26.7</ele>
        <time>2020-05-31T16:57:49Z</time>
      </trkpt>
      <trkpt lat="46.18772" lon="-1.04086">
        <ele>26.7</ele>
        <time>2020-05-31T16:57:50Z</time>
      </trkpt>
      <trkpt lat="46.18767" lon="-1.04092">
        <ele>26.7</ele>
        <time>2020-05-31T16:57:51Z</time>
      </trkpt>
      <trkpt lat="46.18763" lon="-1.04098">
        <ele>26.8</ele>
        <time>2020-05-31T16:57:52Z</time>
      </trkpt>
      <trkpt lat="46.18759" lon="-1.04103">
        <ele>26.8</ele>
        <time>2020-05-31T16:57:53Z</time>
      </trkpt>
      <trkpt lat="46.18754" lon="-1.04107">
        <ele>26.8</ele>
        <time>2020-05-31T16:57:54Z</time>
      </trkpt>
      <trkpt lat="46.1875" lon="-1.04111">
        <ele>26.9</ele>
        <time>2020-05-31T16:57:55Z</time>
      </trkpt>
      <trkpt lat="46.18745" lon="-1.04114">
        <ele>26.9</ele>
        <time>2020-05-31T16:57:56Z</time>
      </trkpt>
      <trkpt lat="46.1874" lon="-1.04117">
        <ele>27</ele>
        <time>2020-05-31T16:57:57Z</time>
      </trkpt>
      <trkpt lat="46.18735" lon="-1.0412">
        <ele>27</ele>
        <time>2020-05-31T16:57:58Z</time>
      </trkpt>
      <trkpt lat="46.1873" lon="-1.04123">
        <ele>27</ele>
        <time>2020-05-31T16:57:59Z</time>
      </trkpt>
      <trkpt lat="46.18726" lon="-1.04126">
        <ele>27.1</ele>
        <time>2020-05-31T16:58:00Z</time>
      </trkpt>
      <trkpt lat="46.18721" lon="-1.0413">
        <ele>27.1</ele>
        <time>2020-05-31T16:58:01Z</time>
      </trkpt>
      <trkpt lat="46.18716" lon="-1.04133">
        <ele>27.1</ele>
        <time>2020-05-31T16:58:02Z</time>
      </trkpt>
      <trkpt lat="46.18711" lon="-1.04137">
        <ele>27.1</ele>
        <time>2020-05-31T16:58:03Z</time>
      </trkpt>
      <trkpt lat="46.18707" lon="-1.0414">
        <ele>27.2</ele>
        <time>2020-05-31T16:58:04Z</time>
      </trkpt>
      <trkpt lat="46.18703" lon="-1.04146">
        <ele>27.2</ele>
        <time>2020-05-31T16:58:05Z</time>
      </trkpt>
      <trkpt lat="46.18698" lon="-1.0415">
        <ele>27.2</ele>
        <time>2020-05-31T16:58:06Z</time>
      </trkpt>
      <trkpt lat="46.18692" lon="-1.04154">
        <ele>27.2</ele>
        <time>2020-05-31T16:58:07Z</time>
      </trkpt>
      <trkpt lat="46.18687" lon="-1.0416">
        <ele>27.2</ele>
        <time>2020-05-31T16:58:08Z</time>
      </trkpt>
      <trkpt lat="46.18682" lon="-1.04165">
        <ele>27.2</ele>
        <time>2020-05-31T16:58:09Z</time>
      </trkpt>
      <trkpt lat="46.18677" lon="-1.04169">
        <ele>27.1</ele>
        <time>2020-05-31T16:58:10Z</time>
      </trkpt>
      <trkpt lat="46.18672" lon="-1.04172">
        <ele>27.1</ele>
        <time>2020-05-31T16:58:11Z</time>
      </trkpt>
      <trkpt lat="46.18666" lon="-1.04176">
        <ele>27</ele>
        <time>2020-05-31T16:58:12Z</time>
      </trkpt>
      <trkpt lat="46.18661" lon="-1.0418">
        <ele>27</ele>
        <time>2020-05-31T16:58:13Z</time>
      </trkpt>
      <trkpt lat="46.18656" lon="-1.04184">
        <ele>26.9</ele>
        <time>2020-05-31T16:58:14Z</time>
      </trkpt>
      <trkpt lat="46.18651" lon="-1.04186">
        <ele>26.9</ele>
        <time>2020-05-31T16:58:15Z</time>
      </trkpt>
      <trkpt lat="46.18646" lon="-1.04189">
        <ele>26.8</ele>
        <time>2020-05-31T16:58:16Z</time>
      </trkpt>
      <trkpt lat="46.18641" lon="-1.04192">
        <ele>26.7</ele>
        <time>2020-05-31T16:58:17Z</time>
      </trkpt>
      <trkpt lat="46.18637" lon="-1.04196">
        <ele>26.6</ele>
        <time>2020-05-31T16:58:18Z</time>
      </trkpt>
      <trkpt lat="46.18632" lon="-1.04199">
        <ele>26.5</ele>
        <time>2020-05-31T16:58:19Z</time>
      </trkpt>
      <trkpt lat="46.18627" lon="-1.04202">
        <ele>26.4</ele>
        <time>2020-05-31T16:58:20Z</time>
      </trkpt>
      <trkpt lat="46.18622" lon="-1.04206">
        <ele>26.4</ele>
        <time>2020-05-31T16:58:21Z</time>
      </trkpt>
      <trkpt lat="46.18618" lon="-1.0421">
        <ele>26.3</ele>
        <time>2020-05-31T16:58:22Z</time>
      </trkpt>
      <trkpt lat="46.18614" lon="-1.04214">
        <ele>26.3</ele>
        <time>2020-05-31T16:58:23Z</time>
      </trkpt>
      <trkpt lat="46.1861" lon="-1.04218">
        <ele>26.2</ele>
        <time>2020-05-31T16:58:24Z</time>
      </trkpt>
      <trkpt lat="46.18606" lon="-1.04222">
        <ele>26.1</ele>
        <time>2020-05-31T16:58:25Z</time>
      </trkpt>
      <trkpt lat="46.18601" lon="-1.04225">
        <ele>26.1</ele>
        <time>2020-05-31T16:58:26Z</time>
      </trkpt>
      <trkpt lat="46.18597" lon="-1.0423">
        <ele>26</ele>
        <time>2020-05-31T16:58:27Z</time>
      </trkpt>
      <trkpt lat="46.18594" lon="-1.04235">
        <ele>25.9</ele>
        <time>2020-05-31T16:58:28Z</time>
      </trkpt>
      <trkpt lat="46.1859" lon="-1.0424">
        <ele>25.8</ele>
        <time>2020-05-31T16:58:29Z</time>
      </trkpt>
      <trkpt lat="46.18585" lon="-1.04244">
        <ele>25.7</ele>
        <time>2020-05-31T16:58:30Z</time>
      </trkpt>
      <trkpt lat="46.18581" lon="-1.04249">
        <ele>25.6</ele>
        <time>2020-05-31T16:58:31Z</time>
      </trkpt>
      <trkpt lat="46.18576" lon="-1.04254">
        <ele>25.4</ele>
        <time>2020-05-31T16:58:32Z</time>
      </trkpt>
      <trkpt lat="46.18571" lon="-1.04261">
        <ele>25.3</ele>
        <time>2020-05-31T16:58:33Z</time>
      </trkpt>
      <trkpt lat="46.18567" lon="-1.04268">
        <ele>25.1</ele>
        <time>2020-05-31T16:58:34Z</time>
      </trkpt>
      <trkpt lat="46.18562" lon="-1.04273">
        <ele>25</ele>
        <time>2020-05-31T16:58:35Z</time>
      </trkpt>
      <trkpt lat="46.18556" lon="-1.04277">
        <ele>24.7</ele>
        <time>2020-05-31T16:58:36Z</time>
      </trkpt>
      <trkpt lat="46.18551" lon="-1.04283">
        <ele>24.5</ele>
        <time>2020-05-31T16:58:37Z</time>
      </trkpt>
      <trkpt lat="46.18546" lon="-1.04289">
        <ele>24.1</ele>
        <time>2020-05-31T16:58:38Z</time>
      </trkpt>
      <trkpt lat="46.1854" lon="-1.04295">
        <ele>23.8</ele>
        <time>2020-05-31T16:58:39Z</time>
      </trkpt>
      <trkpt lat="46.18533" lon="-1.04301">
        <ele>23.5</ele>
        <time>2020-05-31T16:58:40Z</time>
      </trkpt>
      <trkpt lat="46.18528" lon="-1.04307">
        <ele>23.3</ele>
        <time>2020-05-31T16:58:41Z</time>
      </trkpt>
      <trkpt lat="46.18522" lon="-1.04313">
        <ele>23.1</ele>
        <time>2020-05-31T16:58:42Z</time>
      </trkpt>
      <trkpt lat="46.18517" lon="-1.04318">
        <ele>22.9</ele>
        <time>2020-05-31T16:58:43Z</time>
      </trkpt>
      <trkpt lat="46.18511" lon="-1.04324">
        <ele>22.7</ele>
        <time>2020-05-31T16:58:44Z</time>
      </trkpt>
      <trkpt lat="46.18506" lon="-1.04331">
        <ele>22.5</ele>
        <time>2020-05-31T16:58:45Z</time>
      </trkpt>
      <trkpt lat="46.185" lon="-1.04337">
        <ele>22.3</ele>
        <time>2020-05-31T16:58:46Z</time>
      </trkpt>
      <trkpt lat="46.18495" lon="-1.04345">
        <ele>21.9</ele>
        <time>2020-05-31T16:58:47Z</time>
      </trkpt>
      <trkpt lat="46.18488" lon="-1.04351">
        <ele>21.6</ele>
        <time>2020-05-31T16:58:48Z</time>
      </trkpt>
      <trkpt lat="46.18482" lon="-1.04358">
        <ele>21.2</ele>
        <time>2020-05-31T16:58:49Z</time>
      </trkpt>
      <trkpt lat="46.18476" lon="-1.04366">
        <ele>20.8</ele>
        <time>2020-05-31T16:58:50Z</time>
      </trkpt>
      <trkpt lat="46.1847" lon="-1.04373">
        <ele>20.5</ele>
        <time>2020-05-31T16:58:51Z</time>
      </trkpt>
      <trkpt lat="46.18463" lon="-1.0438">
        <ele>20.1</ele>
        <time>2020-05-31T16:58:52Z</time>
      </trkpt>
      <trkpt lat="46.18457" lon="-1.04388">
        <ele>19.8</ele>
        <time>2020-05-31T16:58:53Z</time>
      </trkpt>
      <trkpt lat="46.18451" lon="-1.04396">
        <ele>19.5</ele>
        <time>2020-05-31T16:58:54Z</time>
      </trkpt>
      <trkpt lat="46.18444" lon="-1.04405">
        <ele>19.3</ele>
        <time>2020-05-31T16:58:55Z</time>
      </trkpt>
      <trkpt lat="46.18437" lon="-1.04414">
        <ele>19.1</ele>
        <time>2020-05-31T16:58:56Z</time>
      </trkpt>
      <trkpt lat="46.18429" lon="-1.04423">
        <ele>18.9</ele>
        <time>2020-05-31T16:58:57Z</time>
      </trkpt>
      <trkpt lat="46.18422" lon="-1.04431">
        <ele>18.6</ele>
        <time>2020-05-31T16:58:58Z</time>
      </trkpt>
      <trkpt lat="46.18413" lon="-1.04438">
        <ele>18.3</ele>
        <time>2020-05-31T16:58:59Z</time>
      </trkpt>
      <trkpt lat="46.18405" lon="-1.04445">
        <ele>18</ele>
        <time>2020-05-31T16:59:00Z</time>
      </trkpt>
      <trkpt lat="46.18397" lon="-1.04453">
        <ele>17.7</ele>
        <time>2020-05-31T16:59:01Z</time>
      </trkpt>
      <trkpt lat="46.18389" lon="-1.04462">
        <ele>17.4</ele>
        <time>2020-05-31T16:59:02Z</time>
      </trkpt>
      <trkpt lat="46.18382" lon="-1.0447">
        <ele>17.2</ele>
        <time>2020-05-31T16:59:03Z</time>
      </trkpt>
      <trkpt lat="46.18375" lon="-1.04477">
        <ele>17.1</ele>
        <time>2020-05-31T16:59:04Z</time>
      </trkpt>
      <trkpt lat="46.18369" lon="-1.04486">
        <ele>17.1</ele>
        <time>2020-05-31T16:59:05Z</time>
      </trkpt>
      <trkpt lat="46.18364" lon="-1.04496">
        <ele>17.1</ele>
        <time>2020-05-31T16:59:06Z</time>
      </trkpt>
      <trkpt lat="46.1836" lon="-1.04507">
        <ele>17.1</ele>
        <time>2020-05-31T16:59:07Z</time>
      </trkpt>
      <trkpt lat="46.18356" lon="-1.04517">
        <ele>17.2</ele>
        <time>2020-05-31T16:59:08Z</time>
      </trkpt>
      <trkpt lat="46.18353" lon="-1.04528">
        <ele>17.3</ele>
        <time>2020-05-31T16:59:09Z</time>
      </trkpt>
      <trkpt lat="46.1835" lon="-1.04539">
        <ele>17.3</ele>
        <time>2020-05-31T16:59:10Z</time>
      </trkpt>
      <trkpt lat="46.18347" lon="-1.04549">
        <ele>17.4</ele>
        <time>2020-05-31T16:59:11Z</time>
      </trkpt>
      <trkpt lat="46.18343" lon="-1.04559">
        <ele>17.4</ele>
        <time>2020-05-31T16:59:12Z</time>
      </trkpt>
      <trkpt lat="46.18339" lon="-1.04568">
        <ele>17.5</ele>
        <time>2020-05-31T16:59:13Z</time>
      </trkpt>
      <trkpt lat="46.18335" lon="-1.04576">
        <ele>17.6</ele>
        <time>2020-05-31T16:59:14Z</time>
      </trkpt>
      <trkpt lat="46.18333" lon="-1.04585">
        <ele>17.7</ele>
        <time>2020-05-31T16:59:15Z</time>
      </trkpt>
      <trkpt lat="46.18329" lon="-1.04592">
        <ele>17.8</ele>
        <time>2020-05-31T16:59:16Z</time>
      </trkpt>
      <trkpt lat="46.18326" lon="-1.046">
        <ele>17.9</ele>
        <time>2020-05-31T16:59:17Z</time>
      </trkpt>
      <trkpt lat="46.18323" lon="-1.04607">
        <ele>18</ele>
        <time>2020-05-31T16:59:18Z</time>
      </trkpt>
      <trkpt lat="46.1832" lon="-1.04614">
        <ele>18.1</ele>
        <time>2020-05-31T16:59:19Z</time>
      </trkpt>
      <trkpt lat="46.18316" lon="-1.0462">
        <ele>18.2</ele>
        <time>2020-05-31T16:59:20Z</time>
      </trkpt>
      <trkpt lat="46.18314" lon="-1.04625">
        <ele>18.2</ele>
        <time>2020-05-31T16:59:21Z</time>
      </trkpt>
      <trkpt lat="46.18312" lon="-1.0463">
        <ele>18.3</ele>
        <time>2020-05-31T16:59:22Z</time>
      </trkpt>
      <trkpt lat="46.18309" lon="-1.04634">
        <ele>18.4</ele>
        <time>2020-05-31T16:59:23Z</time>
      </trkpt>
      <trkpt lat="46.18307" lon="-1.04638">
        <ele>18.4</ele>
        <time>2020-05-31T16:59:24Z</time>
      </trkpt>
      <trkpt lat="46.18305" lon="-1.04641">
        <ele>18.5</ele>
        <time>2020-05-31T16:59:25Z</time>
      </trkpt>
      <trkpt lat="46.18304" lon="-1.04644">
        <ele>18.6</ele>
        <time>2020-05-31T16:59:26Z</time>
      </trkpt>
      <trkpt lat="46.18301" lon="-1.04647">
        <ele>18.6</ele>
        <time>2020-05-31T16:59:27Z</time>
      </trkpt>
      <trkpt lat="46.18299" lon="-1.0465">
        <ele>18.7</ele>
        <time>2020-05-31T16:59:28Z</time>
      </trkpt>
      <trkpt lat="46.18296" lon="-1.04653">
        <ele>18.8</ele>
        <time>2020-05-31T16:59:29Z</time>
      </trkpt>
      <trkpt lat="46.18293" lon="-1.04656">
        <ele>18.9</ele>
        <time>2020-05-31T16:59:30Z</time>
      </trkpt>
      <trkpt lat="46.18292" lon="-1.04658">
        <ele>19</ele>
        <time>2020-05-31T16:59:31Z</time>
      </trkpt>
      <trkpt lat="46.18289" lon="-1.04661">
        <ele>19.1</ele>
        <time>2020-05-31T16:59:32Z</time>
      </trkpt>
      <trkpt lat="46.18287" lon="-1.04664">
        <ele>19.2</ele>
        <time>2020-05-31T16:59:33Z</time>
      </trkpt>
      <trkpt lat="46.18284" lon="-1.04665">
        <ele>19.3</ele>
        <time>2020-05-31T16:59:34Z</time>
      </trkpt>
      <trkpt lat="46.18282" lon="-1.04667">
        <ele>19.3</ele>
        <time>2020-05-31T16:59:35Z</time>
      </trkpt>
      <trkpt lat="46.18279" lon="-1.04668">
        <ele>19.4</ele>
        <time>2020-05-31T16:59:36Z</time>
      </trkpt>
      <trkpt lat="46.18276" lon="-1.0467">
        <ele>19.5</ele>
        <time>2020-05-31T16:59:37Z</time>
      </trkpt>
      <trkpt lat="46.18273" lon="-1.04671">
        <ele>19.6</ele>
        <time>2020-05-31T16:59:38Z</time>
      </trkpt>
      <trkpt lat="46.18269" lon="-1.04673">
        <ele>19.7</ele>
        <time>2020-05-31T16:59:39Z</time>
      </trkpt>
      <trkpt lat="46.18268" lon="-1.04673">
        <ele>19.7</ele>
        <time>2020-05-31T16:59:40Z</time>
      </trkpt>
      <trkpt lat="46.18264" lon="-1.04676">
        <ele>19.8</ele>
        <time>2020-05-31T16:59:41Z</time>
      </trkpt>
      <trkpt lat="46.18263" lon="-1.04677">
        <ele>19.8</ele>
        <time>2020-05-31T16:59:42Z</time>
      </trkpt>
      <trkpt lat="46.1826" lon="-1.04679">
        <ele>19.9</ele>
        <time>2020-05-31T16:59:43Z</time>
      </trkpt>
      <trkpt lat="46.18259" lon="-1.0468">
        <ele>19.9</ele>
        <time>2020-05-31T16:59:44Z</time>
      </trkpt>
      <trkpt lat="46.18255" lon="-1.04681">
        <ele>20</ele>
        <time>2020-05-31T16:59:45Z</time>
      </trkpt>
      <trkpt lat="46.18254" lon="-1.04681">
        <ele>20</ele>
        <time>2020-05-31T16:59:46Z</time>
      </trkpt>
      <trkpt lat="46.18251" lon="-1.04684">
        <ele>20</ele>
        <time>2020-05-31T16:59:47Z</time>
      </trkpt>
      <trkpt lat="46.1825" lon="-1.04685">
        <ele>20</ele>
        <time>2020-05-31T16:59:48Z</time>
      </trkpt>
      <trkpt lat="46.18246" lon="-1.04684">
        <ele>20.1</ele>
        <time>2020-05-31T16:59:49Z</time>
      </trkpt>
      <trkpt lat="46.18245" lon="-1.04684">
        <ele>20.1</ele>
        <time>2020-05-31T16:59:50Z</time>
      </trkpt>
      <trkpt lat="46.18242" lon="-1.04685">
        <ele>20.1</ele>
        <time>2020-05-31T16:59:51Z</time>
      </trkpt>
      <trkpt lat="46.18239" lon="-1.04687">
        <ele>20.1</ele>
        <time>2020-05-31T16:59:52Z</time>
      </trkpt>
      <trkpt lat="46.18238" lon="-1.04687">
        <ele>20.2</ele>
        <time>2020-05-31T16:59:53Z</time>
      </trkpt>
      <trkpt lat="46.18234" lon="-1.04688">
        <ele>20.2</ele>
        <time>2020-05-31T16:59:54Z</time>
      </trkpt>
      <trkpt lat="46.18233" lon="-1.04688">
        <ele>20.2</ele>
        <time>2020-05-31T16:59:55Z</time>
      </trkpt>
      <trkpt lat="46.18229" lon="-1.04689">
        <ele>20.2</ele>
        <time>2020-05-31T16:59:56Z</time>
      </trkpt>
      <trkpt lat="46.18227" lon="-1.04689">
        <ele>20.2</ele>
        <time>2020-05-31T16:59:57Z</time>
      </trkpt>
      <trkpt lat="46.18224" lon="-1.04692">
        <ele>20.2</ele>
        <time>2020-05-31T16:59:58Z</time>
      </trkpt>
      <trkpt lat="46.18222" lon="-1.04694">
        <ele>20.3</ele>
        <time>2020-05-31T16:59:59Z</time>
      </trkpt>
      <trkpt lat="46.18218" lon="-1.04694">
        <ele>20.3</ele>
        <time>2020-05-31T17:00:00Z</time>
      </trkpt>
      <trkpt lat="46.18215" lon="-1.04694">
        <ele>20.3</ele>
        <time>2020-05-31T17:00:01Z</time>
      </trkpt>
      <trkpt lat="46.18213" lon="-1.04696">
        <ele>20.3</ele>
        <time>2020-05-31T17:00:02Z</time>
      </trkpt>
      <trkpt lat="46.18209" lon="-1.04696">
        <ele>20.4</ele>
        <time>2020-05-31T17:00:03Z</time>
      </trkpt>
      <trkpt lat="46.18207" lon="-1.04696">
        <ele>20.4</ele>
        <time>2020-05-31T17:00:04Z</time>
      </trkpt>
      <trkpt lat="46.18204" lon="-1.04697">
        <ele>20.4</ele>
        <time>2020-05-31T17:00:05Z</time>
      </trkpt>
      <trkpt lat="46.18201" lon="-1.04698">
        <ele>20.4</ele>
        <time>2020-05-31T17:00:06Z</time>
      </trkpt>
      <trkpt lat="46.18197" lon="-1.04698">
        <ele>20.4</ele>
        <time>2020-05-31T17:00:07Z</time>
      </trkpt>
      <trkpt lat="46.18194" lon="-1.04698">
        <ele>20.4</ele>
        <time>2020-05-31T17:00:08Z</time>
      </trkpt>
      <trkpt lat="46.1819" lon="-1.04698">
        <ele>20.5</ele>
        <time>2020-05-31T17:00:09Z</time>
      </trkpt>
      <trkpt lat="46.18186" lon="-1.04698">
        <ele>20.5</ele>
        <time>2020-05-31T17:00:10Z</time>
      </trkpt>
      <trkpt lat="46.18182" lon="-1.04697">
        <ele>20.5</ele>
        <time>2020-05-31T17:00:11Z</time>
      </trkpt>
      <trkpt lat="46.18178" lon="-1.04696">
        <ele>20.5</ele>
        <time>2020-05-31T17:00:12Z</time>
      </trkpt>
      <trkpt lat="46.18174" lon="-1.04696">
        <ele>20.5</ele>
        <time>2020-05-31T17:00:13Z</time>
      </trkpt>
      <trkpt lat="46.1817" lon="-1.04695">
        <ele>20.5</ele>
        <time>2020-05-31T17:00:14Z</time>
      </trkpt>
      <trkpt lat="46.18166" lon="-1.04695">
        <ele>20.5</ele>
        <time>2020-05-31T17:00:15Z</time>
      </trkpt>
      <trkpt lat="46.18162" lon="-1.04695">
        <ele>20.6</ele>
        <time>2020-05-31T17:00:16Z</time>
      </trkpt>
      <trkpt lat="46.18158" lon="-1.04696">
        <ele>20.6</ele>
        <time>2020-05-31T17:00:17Z</time>
      </trkpt>
      <trkpt lat="46.18154" lon="-1.04698">
        <ele>20.6</ele>
        <time>2020-05-31T17:00:18Z</time>
      </trkpt>
      <trkpt lat="46.1815" lon="-1.047">
        <ele>20.6</ele>
        <time>2020-05-31T17:00:19Z</time>
      </trkpt>
      <trkpt lat="46.18147" lon="-1.04701">
        <ele>20.6</ele>
        <time>2020-05-31T17:00:20Z</time>
      </trkpt>
      <trkpt lat="46.18143" lon="-1.04703">
        <ele>20.6</ele>
        <time>2020-05-31T17:00:21Z</time>
      </trkpt>
      <trkpt lat="46.1814" lon="-1.04705">
        <ele>20.6</ele>
        <time>2020-05-31T17:00:22Z</time>
      </trkpt>
      <trkpt lat="46.18136" lon="-1.04706">
        <ele>20.6</ele>
        <time>2020-05-31T17:00:23Z</time>
      </trkpt>
      <trkpt lat="46.18133" lon="-1.04709">
        <ele>20.6</ele>
        <time>2020-05-31T17:00:24Z</time>
      </trkpt>
      <trkpt lat="46.18129" lon="-1.04712">
        <ele>20.6</ele>
        <time>2020-05-31T17:00:25Z</time>
      </trkpt>
      <trkpt lat="46.18126" lon="-1.04715">
        <ele>20.6</ele>
        <time>2020-05-31T17:00:26Z</time>
      </trkpt>
      <trkpt lat="46.18124" lon="-1.04719">
        <ele>20.6</ele>
        <time>2020-05-31T17:00:27Z</time>
      </trkpt>
      <trkpt lat="46.18121" lon="-1.04724">
        <ele>20.6</ele>
        <time>2020-05-31T17:00:28Z</time>
      </trkpt>
      <trkpt lat="46.18118" lon="-1.0473">
        <ele>20.6</ele>
        <time>2020-05-31T17:00:29Z</time>
      </trkpt>
      <trkpt lat="46.18115" lon="-1.04734">
        <ele>20.6</ele>
        <time>2020-05-31T17:00:30Z</time>
      </trkpt>
      <trkpt lat="46.18111" lon="-1.04739">
        <ele>20.6</ele>
        <time>2020-05-31T17:00:31Z</time>
      </trkpt>
      <trkpt lat="46.18109" lon="-1.04744">
        <ele>20.7</ele>
        <time>2020-05-31T17:00:32Z</time>
      </trkpt>
      <trkpt lat="46.18106" lon="-1.04748">
        <ele>20.7</ele>
        <time>2020-05-31T17:00:33Z</time>
      </trkpt>
      <trkpt lat="46.18103" lon="-1.04752">
        <ele>20.7</ele>
        <time>2020-05-31T17:00:34Z</time>
      </trkpt>
      <trkpt lat="46.181" lon="-1.04757">
        <ele>20.7</ele>
        <time>2020-05-31T17:00:35Z</time>
      </trkpt>
      <trkpt lat="46.18097" lon="-1.04761">
        <ele>20.7</ele>
        <time>2020-05-31T17:00:36Z</time>
      </trkpt>
      <trkpt lat="46.18095" lon="-1.04766">
        <ele>20.7</ele>
        <time>2020-05-31T17:00:37Z</time>
      </trkpt>
      <trkpt lat="46.18092" lon="-1.04772">
        <ele>20.8</ele>
        <time>2020-05-31T17:00:38Z</time>
      </trkpt>
      <trkpt lat="46.18089" lon="-1.04777">
        <ele>20.8</ele>
        <time>2020-05-31T17:00:39Z</time>
      </trkpt>
      <trkpt lat="46.18086" lon="-1.0478">
        <ele>20.8</ele>
        <time>2020-05-31T17:00:40Z</time>
      </trkpt>
      <trkpt lat="46.18082" lon="-1.04785">
        <ele>20.8</ele>
        <time>2020-05-31T17:00:41Z</time>
      </trkpt>
      <trkpt lat="46.18078" lon="-1.04788">
        <ele>20.8</ele>
        <time>2020-05-31T17:00:42Z</time>
      </trkpt>
      <trkpt lat="46.18075" lon="-1.04793">
        <ele>20.8</ele>
        <time>2020-05-31T17:00:43Z</time>
      </trkpt>
      <trkpt lat="46.18072" lon="-1.04797">
        <ele>20.9</ele>
        <time>2020-05-31T17:00:44Z</time>
      </trkpt>
      <trkpt lat="46.18068" lon="-1.048">
        <ele>20.9</ele>
        <time>2020-05-31T17:00:45Z</time>
      </trkpt>
      <trkpt lat="46.18065" lon="-1.04804">
        <ele>20.9</ele>
        <time>2020-05-31T17:00:46Z</time>
      </trkpt>
      <trkpt lat="46.18061" lon="-1.04808">
        <ele>20.9</ele>
        <time>2020-05-31T17:00:47Z</time>
      </trkpt>
      <trkpt lat="46.18058" lon="-1.04813">
        <ele>20.9</ele>
        <time>2020-05-31T17:00:48Z</time>
      </trkpt>
      <trkpt lat="46.18054" lon="-1.04817">
        <ele>21</ele>
        <time>2020-05-31T17:00:49Z</time>
      </trkpt>
      <trkpt lat="46.18051" lon="-1.0482">
        <ele>21</ele>
        <time>2020-05-31T17:00:50Z</time>
      </trkpt>
      <trkpt lat="46.18047" lon="-1.04824">
        <ele>21</ele>
        <time>2020-05-31T17:00:51Z</time>
      </trkpt>
      <trkpt lat="46.18044" lon="-1.04827">
        <ele>21.1</ele>
        <time>2020-05-31T17:00:52Z</time>
      </trkpt>
      <trkpt lat="46.18042" lon="-1.04831">
        <ele>21.1</ele>
        <time>2020-05-31T17:00:53Z</time>
      </trkpt>
      <trkpt lat="46.18039" lon="-1.04834">
        <ele>21.1</ele>
        <time>2020-05-31T17:00:54Z</time>
      </trkpt>
      <trkpt lat="46.18035" lon="-1.04838">
        <ele>21.2</ele>
        <time>2020-05-31T17:00:55Z</time>
      </trkpt>
      <trkpt lat="46.18031" lon="-1.04841">
        <ele>21.2</ele>
        <time>2020-05-31T17:00:56Z</time>
      </trkpt>
      <trkpt lat="46.18028" lon="-1.04845">
        <ele>21.2</ele>
        <time>2020-05-31T17:00:57Z</time>
      </trkpt>
      <trkpt lat="46.18025" lon="-1.04848">
        <ele>21.2</ele>
        <time>2020-05-31T17:00:58Z</time>
      </trkpt>
      <trkpt lat="46.18022" lon="-1.04851">
        <ele>21.2</ele>
        <time>2020-05-31T17:00:59Z</time>
      </trkpt>
      <trkpt lat="46.18019" lon="-1.04855">
        <ele>21.3</ele>
        <time>2020-05-31T17:01:00Z</time>
      </trkpt>
      <trkpt lat="46.18016" lon="-1.04858">
        <ele>21.3</ele>
        <time>2020-05-31T17:01:01Z</time>
      </trkpt>
      <trkpt lat="46.18013" lon="-1.04861">
        <ele>21.3</ele>
        <time>2020-05-31T17:01:02Z</time>
      </trkpt>
      <trkpt lat="46.18009" lon="-1.04864">
        <ele>21.3</ele>
        <time>2020-05-31T17:01:03Z</time>
      </trkpt>
      <trkpt lat="46.18005" lon="-1.04867">
        <ele>21.3</ele>
        <time>2020-05-31T17:01:04Z</time>
      </trkpt>
      <trkpt lat="46.18002" lon="-1.0487">
        <ele>21.3</ele>
        <time>2020-05-31T17:01:05Z</time>
      </trkpt>
      <trkpt lat="46.17999" lon="-1.04874">
        <ele>21.3</ele>
        <time>2020-05-31T17:01:06Z</time>
      </trkpt>
      <trkpt lat="46.17996" lon="-1.04877">
        <ele>21.3</ele>
        <time>2020-05-31T17:01:07Z</time>
      </trkpt>
      <trkpt lat="46.17993" lon="-1.0488">
        <ele>21.4</ele>
        <time>2020-05-31T17:01:08Z</time>
      </trkpt>
      <trkpt lat="46.1799" lon="-1.04884">
        <ele>21.4</ele>
        <time>2020-05-31T17:01:09Z</time>
      </trkpt>
      <trkpt lat="46.17986" lon="-1.04887">
        <ele>21.4</ele>
        <time>2020-05-31T17:01:10Z</time>
      </trkpt>
      <trkpt lat="46.17983" lon="-1.04891">
        <ele>21.4</ele>
        <time>2020-05-31T17:01:11Z</time>
      </trkpt>
      <trkpt lat="46.1798" lon="-1.04895">
        <ele>21.4</ele>
        <time>2020-05-31T17:01:12Z</time>
      </trkpt>
      <trkpt lat="46.17977" lon="-1.04898">
        <ele>21.4</ele>
        <time>2020-05-31T17:01:13Z</time>
      </trkpt>
      <trkpt lat="46.17974" lon="-1.04901">
        <ele>21.5</ele>
        <time>2020-05-31T17:01:14Z</time>
      </trkpt>
      <trkpt lat="46.17971" lon="-1.04905">
        <ele>21.5</ele>
        <time>2020-05-31T17:01:15Z</time>
      </trkpt>
      <trkpt lat="46.17968" lon="-1.04909">
        <ele>21.5</ele>
        <time>2020-05-31T17:01:16Z</time>
      </trkpt>
      <trkpt lat="46.17965" lon="-1.04914">
        <ele>21.5</ele>
        <time>2020-05-31T17:01:17Z</time>
      </trkpt>
      <trkpt lat="46.17963" lon="-1.04917">
        <ele>21.5</ele>
        <time>2020-05-31T17:01:18Z</time>
      </trkpt>
      <trkpt lat="46.1796" lon="-1.04921">
        <ele>21.5</ele>
        <time>2020-05-31T17:01:19Z</time>
      </trkpt>
      <trkpt lat="46.17957" lon="-1.04925">
        <ele>21.5</ele>
        <time>2020-05-31T17:01:20Z</time>
      </trkpt>
      <trkpt lat="46.17954" lon="-1.04927">
        <ele>21.5</ele>
        <time>2020-05-31T17:01:21Z</time>
      </trkpt>
      <trkpt lat="46.17951" lon="-1.0493">
        <ele>21.5</ele>
        <time>2020-05-31T17:01:22Z</time>
      </trkpt>
      <trkpt lat="46.17949" lon="-1.04933">
        <ele>21.5</ele>
        <time>2020-05-31T17:01:23Z</time>
      </trkpt>
      <trkpt lat="46.17946" lon="-1.04936">
        <ele>21.6</ele>
        <time>2020-05-31T17:01:24Z</time>
      </trkpt>
      <trkpt lat="46.17943" lon="-1.0494">
        <ele>21.6</ele>
        <time>2020-05-31T17:01:25Z</time>
      </trkpt>
      <trkpt lat="46.1794" lon="-1.04944">
        <ele>21.6</ele>
        <time>2020-05-31T17:01:26Z</time>
      </trkpt>
      <trkpt lat="46.17938" lon="-1.04948">
        <ele>21.6</ele>
        <time>2020-05-31T17:01:27Z</time>
      </trkpt>
      <trkpt lat="46.17936" lon="-1.04954">
        <ele>21.6</ele>
        <time>2020-05-31T17:01:28Z</time>
      </trkpt>
      <trkpt lat="46.17934" lon="-1.0496">
        <ele>21.6</ele>
        <time>2020-05-31T17:01:29Z</time>
      </trkpt>
      <trkpt lat="46.17932" lon="-1.04966">
        <ele>21.6</ele>
        <time>2020-05-31T17:01:30Z</time>
      </trkpt>
      <trkpt lat="46.1793" lon="-1.04974">
        <ele>21.6</ele>
        <time>2020-05-31T17:01:31Z</time>
      </trkpt>
      <trkpt lat="46.17929" lon="-1.04981">
        <ele>21.7</ele>
        <time>2020-05-31T17:01:32Z</time>
      </trkpt>
      <trkpt lat="46.17927" lon="-1.04987">
        <ele>21.7</ele>
        <time>2020-05-31T17:01:33Z</time>
      </trkpt>
      <trkpt lat="46.17926" lon="-1.04993">
        <ele>21.7</ele>
        <time>2020-05-31T17:01:34Z</time>
      </trkpt>
      <trkpt lat="46.17924" lon="-1.04998">
        <ele>21.7</ele>
        <time>2020-05-31T17:01:35Z</time>
      </trkpt>
      <trkpt lat="46.17922" lon="-1.05004">
        <ele>21.7</ele>
        <time>2020-05-31T17:01:36Z</time>
      </trkpt>
      <trkpt lat="46.1792" lon="-1.0501">
        <ele>21.7</ele>
        <time>2020-05-31T17:01:37Z</time>
      </trkpt>
      <trkpt lat="46.17918" lon="-1.05015">
        <ele>21.7</ele>
        <time>2020-05-31T17:01:38Z</time>
      </trkpt>
      <trkpt lat="46.17916" lon="-1.05022">
        <ele>21.7</ele>
        <time>2020-05-31T17:01:39Z</time>
      </trkpt>
      <trkpt lat="46.17914" lon="-1.05028">
        <ele>21.7</ele>
        <time>2020-05-31T17:01:40Z</time>
      </trkpt>
      <trkpt lat="46.17913" lon="-1.05034">
        <ele>21.7</ele>
        <time>2020-05-31T17:01:41Z</time>
      </trkpt>
      <trkpt lat="46.17919" lon="-1.05039">
        <ele>21.7</ele>
        <time>2020-05-31T17:01:42Z</time>
      </trkpt>
      <trkpt lat="46.17918" lon="-1.05044">
        <ele>21.7</ele>
        <time>2020-05-31T17:01:43Z</time>
      </trkpt>
      <trkpt lat="46.17915" lon="-1.0505">
        <ele>21.7</ele>
        <time>2020-05-31T17:01:44Z</time>
      </trkpt>
      <trkpt lat="46.17913" lon="-1.05057">
        <ele>21.7</ele>
        <time>2020-05-31T17:01:45Z</time>
      </trkpt>
      <trkpt lat="46.17911" lon="-1.05064">
        <ele>21.7</ele>
        <time>2020-05-31T17:01:46Z</time>
      </trkpt>
      <trkpt lat="46.17909" lon="-1.05071">
        <ele>21.7</ele>
        <time>2020-05-31T17:01:47Z</time>
      </trkpt>
      <trkpt lat="46.1791" lon="-1.05077">
        <ele>21.7</ele>
        <time>2020-05-31T17:01:48Z</time>
      </trkpt>
      <trkpt lat="46.17908" lon="-1.05085">
        <ele>21.8</ele>
        <time>2020-05-31T17:01:49Z</time>
      </trkpt>
      <trkpt lat="46.17907" lon="-1.05091">
        <ele>21.8</ele>
        <time>2020-05-31T17:01:50Z</time>
      </trkpt>
      <trkpt lat="46.17906" lon="-1.05099">
        <ele>21.8</ele>
        <time>2020-05-31T17:01:51Z</time>
      </trkpt>
      <trkpt lat="46.17904" lon="-1.05106">
        <ele>21.8</ele>
        <time>2020-05-31T17:01:52Z</time>
      </trkpt>
      <trkpt lat="46.17899" lon="-1.05119">
        <ele>21.9</ele>
        <time>2020-05-31T17:01:53Z</time>
      </trkpt>
      <trkpt lat="46.17897" lon="-1.05125">
        <ele>21.9</ele>
        <time>2020-05-31T17:01:54Z</time>
      </trkpt>
      <trkpt lat="46.17895" lon="-1.0513">
        <ele>21.9</ele>
        <time>2020-05-31T17:01:55Z</time>
      </trkpt>
      <trkpt lat="46.17893" lon="-1.05135">
        <ele>21.9</ele>
        <time>2020-05-31T17:01:56Z</time>
      </trkpt>
      <trkpt lat="46.17891" lon="-1.0514">
        <ele>22</ele>
        <time>2020-05-31T17:01:57Z</time>
      </trkpt>
      <trkpt lat="46.1789" lon="-1.05145">
        <ele>22</ele>
        <time>2020-05-31T17:01:58Z</time>
      </trkpt>
      <trkpt lat="46.17889" lon="-1.05151">
        <ele>22</ele>
        <time>2020-05-31T17:01:59Z</time>
      </trkpt>
      <trkpt lat="46.17888" lon="-1.05157">
        <ele>22</ele>
        <time>2020-05-31T17:02:00Z</time>
      </trkpt>
      <trkpt lat="46.17886" lon="-1.05163">
        <ele>22</ele>
        <time>2020-05-31T17:02:01Z</time>
      </trkpt>
      <trkpt lat="46.17884" lon="-1.05169">
        <ele>22.1</ele>
        <time>2020-05-31T17:02:02Z</time>
      </trkpt>
      <trkpt lat="46.17883" lon="-1.05176">
        <ele>22.1</ele>
        <time>2020-05-31T17:02:03Z</time>
      </trkpt>
      <trkpt lat="46.17882" lon="-1.05183">
        <ele>22</ele>
        <time>2020-05-31T17:02:04Z</time>
      </trkpt>
      <trkpt lat="46.17881" lon="-1.05191">
        <ele>22</ele>
        <time>2020-05-31T17:02:05Z</time>
      </trkpt>
      <trkpt lat="46.1788" lon="-1.05199">
        <ele>22</ele>
        <time>2020-05-31T17:02:06Z</time>
      </trkpt>
      <trkpt lat="46.17878" lon="-1.05206">
        <ele>21.9</ele>
        <time>2020-05-31T17:02:07Z</time>
      </trkpt>
      <trkpt lat="46.17877" lon="-1.05213">
        <ele>21.9</ele>
        <time>2020-05-31T17:02:08Z</time>
      </trkpt>
      <trkpt lat="46.17875" lon="-1.0522">
        <ele>21.9</ele>
        <time>2020-05-31T17:02:09Z</time>
      </trkpt>
      <trkpt lat="46.17875" lon="-1.05226">
        <ele>21.8</ele>
        <time>2020-05-31T17:02:10Z</time>
      </trkpt>
      <trkpt lat="46.17874" lon="-1.05232">
        <ele>21.8</ele>
        <time>2020-05-31T17:02:11Z</time>
      </trkpt>
      <trkpt lat="46.17872" lon="-1.05238">
        <ele>21.8</ele>
        <time>2020-05-31T17:02:12Z</time>
      </trkpt>
      <trkpt lat="46.1787" lon="-1.05246">
        <ele>21.7</ele>
        <time>2020-05-31T17:02:13Z</time>
      </trkpt>
      <trkpt lat="46.17868" lon="-1.05254">
        <ele>21.7</ele>
        <time>2020-05-31T17:02:14Z</time>
      </trkpt>
      <trkpt lat="46.17867" lon="-1.05261">
        <ele>21.6</ele>
        <time>2020-05-31T17:02:15Z</time>
      </trkpt>
      <trkpt lat="46.17866" lon="-1.05268">
        <ele>21.6</ele>
        <time>2020-05-31T17:02:16Z</time>
      </trkpt>
      <trkpt lat="46.17864" lon="-1.05277">
        <ele>21.6</ele>
        <time>2020-05-31T17:02:17Z</time>
      </trkpt>
      <trkpt lat="46.17861" lon="-1.05285">
        <ele>21.5</ele>
        <time>2020-05-31T17:02:18Z</time>
      </trkpt>
      <trkpt lat="46.17859" lon="-1.05294">
        <ele>21.5</ele>
        <time>2020-05-31T17:02:19Z</time>
      </trkpt>
      <trkpt lat="46.17857" lon="-1.05303">
        <ele>21.4</ele>
        <time>2020-05-31T17:02:20Z</time>
      </trkpt>
      <trkpt lat="46.17856" lon="-1.05312">
        <ele>21.4</ele>
        <time>2020-05-31T17:02:21Z</time>
      </trkpt>
      <trkpt lat="46.17854" lon="-1.05322">
        <ele>21.3</ele>
        <time>2020-05-31T17:02:22Z</time>
      </trkpt>
      <trkpt lat="46.17852" lon="-1.05331">
        <ele>21.3</ele>
        <time>2020-05-31T17:02:23Z</time>
      </trkpt>
      <trkpt lat="46.1785" lon="-1.0534">
        <ele>21.4</ele>
        <time>2020-05-31T17:02:24Z</time>
      </trkpt>
      <trkpt lat="46.17848" lon="-1.05349">
        <ele>21.4</ele>
        <time>2020-05-31T17:02:25Z</time>
      </trkpt>
      <trkpt lat="46.17846" lon="-1.05357">
        <ele>21.4</ele>
        <time>2020-05-31T17:02:26Z</time>
      </trkpt>
      <trkpt lat="46.17845" lon="-1.05366">
        <ele>21.4</ele>
        <time>2020-05-31T17:02:27Z</time>
      </trkpt>
      <trkpt lat="46.17843" lon="-1.05374">
        <ele>21.4</ele>
        <time>2020-05-31T17:02:28Z</time>
      </trkpt>
      <trkpt lat="46.17842" lon="-1.05381">
        <ele>21.4</ele>
        <time>2020-05-31T17:02:29Z</time>
      </trkpt>
      <trkpt lat="46.17839" lon="-1.05388">
        <ele>21.4</ele>
        <time>2020-05-31T17:02:30Z</time>
      </trkpt>
      <trkpt lat="46.17837" lon="-1.05396">
        <ele>21.4</ele>
        <time>2020-05-31T17:02:31Z</time>
      </trkpt>
      <trkpt lat="46.17836" lon="-1.05404">
        <ele>21.4</ele>
        <time>2020-05-31T17:02:32Z</time>
      </trkpt>
      <trkpt lat="46.17834" lon="-1.05411">
        <ele>21.4</ele>
        <time>2020-05-31T17:02:33Z</time>
      </trkpt>
      <trkpt lat="46.17832" lon="-1.05418">
        <ele>21.4</ele>
        <time>2020-05-31T17:02:34Z</time>
      </trkpt>
      <trkpt lat="46.1783" lon="-1.05422">
        <ele>21.4</ele>
        <time>2020-05-31T17:02:35Z</time>
      </trkpt>
      <trkpt lat="46.17828" lon="-1.05428">
        <ele>21.4</ele>
        <time>2020-05-31T17:02:36Z</time>
      </trkpt>
      <trkpt lat="46.17826" lon="-1.05435">
        <ele>21.4</ele>
        <time>2020-05-31T17:02:37Z</time>
      </trkpt>
      <trkpt lat="46.17823" lon="-1.05443">
        <ele>21.4</ele>
        <time>2020-05-31T17:02:38Z</time>
      </trkpt>
      <trkpt lat="46.17821" lon="-1.05451">
        <ele>21.4</ele>
        <time>2020-05-31T17:02:39Z</time>
      </trkpt>
      <trkpt lat="46.17818" lon="-1.05459">
        <ele>21.4</ele>
        <time>2020-05-31T17:02:40Z</time>
      </trkpt>
      <trkpt lat="46.17817" lon="-1.05468">
        <ele>21.5</ele>
        <time>2020-05-31T17:02:41Z</time>
      </trkpt>
      <trkpt lat="46.17815" lon="-1.05475">
        <ele>21.6</ele>
        <time>2020-05-31T17:02:42Z</time>
      </trkpt>
      <trkpt lat="46.17812" lon="-1.05483">
        <ele>21.6</ele>
        <time>2020-05-31T17:02:43Z</time>
      </trkpt>
      <trkpt lat="46.1781" lon="-1.05491">
        <ele>21.7</ele>
        <time>2020-05-31T17:02:44Z</time>
      </trkpt>
      <trkpt lat="46.17807" lon="-1.05498">
        <ele>21.7</ele>
        <time>2020-05-31T17:02:45Z</time>
      </trkpt>
      <trkpt lat="46.17804" lon="-1.05505">
        <ele>21.8</ele>
        <time>2020-05-31T17:02:46Z</time>
      </trkpt>
      <trkpt lat="46.17801" lon="-1.05513">
        <ele>21.9</ele>
        <time>2020-05-31T17:02:47Z</time>
      </trkpt>
      <trkpt lat="46.17798" lon="-1.05519">
        <ele>21.9</ele>
        <time>2020-05-31T17:02:48Z</time>
      </trkpt>
      <trkpt lat="46.17796" lon="-1.05527">
        <ele>22</ele>
        <time>2020-05-31T17:02:49Z</time>
      </trkpt>
      <trkpt lat="46.17795" lon="-1.05533">
        <ele>22.1</ele>
        <time>2020-05-31T17:02:50Z</time>
      </trkpt>
      <trkpt lat="46.17794" lon="-1.05541">
        <ele>22.1</ele>
        <time>2020-05-31T17:02:51Z</time>
      </trkpt>
      <trkpt lat="46.17793" lon="-1.05547">
        <ele>22.2</ele>
        <time>2020-05-31T17:02:52Z</time>
      </trkpt>
      <trkpt lat="46.17792" lon="-1.05552">
        <ele>22.2</ele>
        <time>2020-05-31T17:02:53Z</time>
      </trkpt>
      <trkpt lat="46.17791" lon="-1.05559">
        <ele>22.3</ele>
        <time>2020-05-31T17:02:54Z</time>
      </trkpt>
      <trkpt lat="46.1779" lon="-1.05565">
        <ele>22.3</ele>
        <time>2020-05-31T17:02:55Z</time>
      </trkpt>
      <trkpt lat="46.17788" lon="-1.05572">
        <ele>22.4</ele>
        <time>2020-05-31T17:02:56Z</time>
      </trkpt>
      <trkpt lat="46.17789" lon="-1.05576">
        <ele>22.4</ele>
        <time>2020-05-31T17:02:57Z</time>
      </trkpt>
      <trkpt lat="46.17789" lon="-1.05583">
        <ele>22.5</ele>
        <time>2020-05-31T17:02:58Z</time>
      </trkpt>
      <trkpt lat="46.17787" lon="-1.05593">
        <ele>22.6</ele>
        <time>2020-05-31T17:02:59Z</time>
      </trkpt>
      <trkpt lat="46.17785" lon="-1.05601">
        <ele>22.7</ele>
        <time>2020-05-31T17:03:00Z</time>
      </trkpt>
      <trkpt lat="46.17784" lon="-1.05609">
        <ele>22.8</ele>
        <time>2020-05-31T17:03:01Z</time>
      </trkpt>
      <trkpt lat="46.17783" lon="-1.05616">
        <ele>22.9</ele>
        <time>2020-05-31T17:03:02Z</time>
      </trkpt>
      <trkpt lat="46.17781" lon="-1.05625">
        <ele>22.9</ele>
        <time>2020-05-31T17:03:03Z</time>
      </trkpt>
      <trkpt lat="46.17779" lon="-1.05631">
        <ele>23</ele>
        <time>2020-05-31T17:03:04Z</time>
      </trkpt>
      <trkpt lat="46.17778" lon="-1.05638">
        <ele>23.1</ele>
        <time>2020-05-31T17:03:05Z</time>
      </trkpt>
      <trkpt lat="46.17778" lon="-1.05642">
        <ele>23.1</ele>
        <time>2020-05-31T17:03:06Z</time>
      </trkpt>
      <trkpt lat="46.17777" lon="-1.05644">
        <ele>23.2</ele>
        <time>2020-05-31T17:03:07Z</time>
      </trkpt>
      <trkpt lat="46.17775" lon="-1.0565">
        <ele>23.2</ele>
        <time>2020-05-31T17:03:08Z</time>
      </trkpt>
      <trkpt lat="46.17774" lon="-1.05655">
        <ele>23.3</ele>
        <time>2020-05-31T17:03:09Z</time>
      </trkpt>
      <trkpt lat="46.17772" lon="-1.0566">
        <ele>23.3</ele>
        <time>2020-05-31T17:03:10Z</time>
      </trkpt>
      <trkpt lat="46.1777" lon="-1.05666">
        <ele>23.4</ele>
        <time>2020-05-31T17:03:11Z</time>
      </trkpt>
      <trkpt lat="46.17768" lon="-1.05673">
        <ele>23.5</ele>
        <time>2020-05-31T17:03:12Z</time>
      </trkpt>
      <trkpt lat="46.17767" lon="-1.05678">
        <ele>23.5</ele>
        <time>2020-05-31T17:03:13Z</time>
      </trkpt>
      <trkpt lat="46.17765" lon="-1.05686">
        <ele>23.6</ele>
        <time>2020-05-31T17:03:14Z</time>
      </trkpt>
      <trkpt lat="46.17758" lon="-1.05696">
        <ele>23.8</ele>
        <time>2020-05-31T17:03:15Z</time>
      </trkpt>
      <trkpt lat="46.17757" lon="-1.05703">
        <ele>23.8</ele>
        <time>2020-05-31T17:03:16Z</time>
      </trkpt>
      <trkpt lat="46.17755" lon="-1.05712">
        <ele>23.9</ele>
        <time>2020-05-31T17:03:17Z</time>
      </trkpt>
      <trkpt lat="46.17755" lon="-1.05718">
        <ele>24</ele>
        <time>2020-05-31T17:03:18Z</time>
      </trkpt>
      <trkpt lat="46.17753" lon="-1.05725">
        <ele>24.1</ele>
        <time>2020-05-31T17:03:19Z</time>
      </trkpt>
      <trkpt lat="46.17751" lon="-1.05733">
        <ele>24.1</ele>
        <time>2020-05-31T17:03:20Z</time>
      </trkpt>
      <trkpt lat="46.17749" lon="-1.05741">
        <ele>24.2</ele>
        <time>2020-05-31T17:03:21Z</time>
      </trkpt>
      <trkpt lat="46.17747" lon="-1.05749">
        <ele>24.3</ele>
        <time>2020-05-31T17:03:22Z</time>
      </trkpt>
      <trkpt lat="46.17745" lon="-1.05757">
        <ele>24.4</ele>
        <time>2020-05-31T17:03:23Z</time>
      </trkpt>
      <trkpt lat="46.17743" lon="-1.05764">
        <ele>24.4</ele>
        <time>2020-05-31T17:03:24Z</time>
      </trkpt>
      <trkpt lat="46.17741" lon="-1.05773">
        <ele>24.6</ele>
        <time>2020-05-31T17:03:25Z</time>
      </trkpt>
      <trkpt lat="46.17738" lon="-1.05783">
        <ele>24.8</ele>
        <time>2020-05-31T17:03:26Z</time>
      </trkpt>
      <trkpt lat="46.17736" lon="-1.05793">
        <ele>25</ele>
        <time>2020-05-31T17:03:27Z</time>
      </trkpt>
      <trkpt lat="46.17734" lon="-1.05802">
        <ele>25.2</ele>
        <time>2020-05-31T17:03:28Z</time>
      </trkpt>
      <trkpt lat="46.17731" lon="-1.05813">
        <ele>25.3</ele>
        <time>2020-05-31T17:03:29Z</time>
      </trkpt>
      <trkpt lat="46.17729" lon="-1.05823">
        <ele>25.3</ele>
        <time>2020-05-31T17:03:30Z</time>
      </trkpt>
      <trkpt lat="46.17727" lon="-1.0583">
        <ele>25.3</ele>
        <time>2020-05-31T17:03:31Z</time>
      </trkpt>
      <trkpt lat="46.17724" lon="-1.05839">
        <ele>25.4</ele>
        <time>2020-05-31T17:03:32Z</time>
      </trkpt>
      <trkpt lat="46.17722" lon="-1.05848">
        <ele>25.4</ele>
        <time>2020-05-31T17:03:33Z</time>
      </trkpt>
      <trkpt lat="46.17721" lon="-1.05856">
        <ele>25.5</ele>
        <time>2020-05-31T17:03:34Z</time>
      </trkpt>
      <trkpt lat="46.1772" lon="-1.05863">
        <ele>25.5</ele>
        <time>2020-05-31T17:03:35Z</time>
      </trkpt>
      <trkpt lat="46.17718" lon="-1.0587">
        <ele>25.5</ele>
        <time>2020-05-31T17:03:36Z</time>
      </trkpt>
      <trkpt lat="46.17717" lon="-1.05878">
        <ele>25.6</ele>
        <time>2020-05-31T17:03:37Z</time>
      </trkpt>
      <trkpt lat="46.17715" lon="-1.05885">
        <ele>25.7</ele>
        <time>2020-05-31T17:03:38Z</time>
      </trkpt>
      <trkpt lat="46.17714" lon="-1.05893">
        <ele>25.8</ele>
        <time>2020-05-31T17:03:39Z</time>
      </trkpt>
      <trkpt lat="46.17714" lon="-1.059">
        <ele>25.8</ele>
        <time>2020-05-31T17:03:40Z</time>
      </trkpt>
      <trkpt lat="46.17714" lon="-1.05907">
        <ele>25.9</ele>
        <time>2020-05-31T17:03:41Z</time>
      </trkpt>
      <trkpt lat="46.17714" lon="-1.05914">
        <ele>26</ele>
        <time>2020-05-31T17:03:42Z</time>
      </trkpt>
      <trkpt lat="46.17714" lon="-1.0592">
        <ele>26</ele>
        <time>2020-05-31T17:03:43Z</time>
      </trkpt>
      <trkpt lat="46.17713" lon="-1.05928">
        <ele>26.1</ele>
        <time>2020-05-31T17:03:44Z</time>
      </trkpt>
      <trkpt lat="46.17712" lon="-1.05935">
        <ele>26.1</ele>
        <time>2020-05-31T17:03:45Z</time>
      </trkpt>
      <trkpt lat="46.17712" lon="-1.05942">
        <ele>26.2</ele>
        <time>2020-05-31T17:03:46Z</time>
      </trkpt>
      <trkpt lat="46.17711" lon="-1.05949">
        <ele>26.2</ele>
        <time>2020-05-31T17:03:47Z</time>
      </trkpt>
      <trkpt lat="46.1771" lon="-1.05957">
        <ele>26.3</ele>
        <time>2020-05-31T17:03:48Z</time>
      </trkpt>
      <trkpt lat="46.1771" lon="-1.05964">
        <ele>26.3</ele>
        <time>2020-05-31T17:03:49Z</time>
      </trkpt>
      <trkpt lat="46.17708" lon="-1.05971">
        <ele>26.3</ele>
        <time>2020-05-31T17:03:50Z</time>
      </trkpt>
      <trkpt lat="46.17706" lon="-1.0598">
        <ele>26.4</ele>
        <time>2020-05-31T17:03:51Z</time>
      </trkpt>
      <trkpt lat="46.17705" lon="-1.05988">
        <ele>26.4</ele>
        <time>2020-05-31T17:03:52Z</time>
      </trkpt>
      <trkpt lat="46.17703" lon="-1.05995">
        <ele>26.4</ele>
        <time>2020-05-31T17:03:53Z</time>
      </trkpt>
      <trkpt lat="46.17701" lon="-1.06004">
        <ele>26.4</ele>
        <time>2020-05-31T17:03:54Z</time>
      </trkpt>
      <trkpt lat="46.17699" lon="-1.06012">
        <ele>26.5</ele>
        <time>2020-05-31T17:03:55Z</time>
      </trkpt>
      <trkpt lat="46.17698" lon="-1.0602">
        <ele>26.5</ele>
        <time>2020-05-31T17:03:56Z</time>
      </trkpt>
      <trkpt lat="46.17696" lon="-1.06028">
        <ele>26.5</ele>
        <time>2020-05-31T17:03:57Z</time>
      </trkpt>
      <trkpt lat="46.17694" lon="-1.06039">
        <ele>26.6</ele>
        <time>2020-05-31T17:03:58Z</time>
      </trkpt>
      <trkpt lat="46.17694" lon="-1.06047">
        <ele>26.7</ele>
        <time>2020-05-31T17:03:59Z</time>
      </trkpt>
      <trkpt lat="46.17691" lon="-1.06055">
        <ele>26.8</ele>
        <time>2020-05-31T17:04:00Z</time>
      </trkpt>
      <trkpt lat="46.17691" lon="-1.06064">
        <ele>26.8</ele>
        <time>2020-05-31T17:04:01Z</time>
      </trkpt>
      <trkpt lat="46.17689" lon="-1.06072">
        <ele>26.9</ele>
        <time>2020-05-31T17:04:02Z</time>
      </trkpt>
      <trkpt lat="46.17688" lon="-1.0608">
        <ele>26.9</ele>
        <time>2020-05-31T17:04:03Z</time>
      </trkpt>
      <trkpt lat="46.17687" lon="-1.06087">
        <ele>27</ele>
        <time>2020-05-31T17:04:04Z</time>
      </trkpt>
      <trkpt lat="46.17686" lon="-1.06095">
        <ele>27</ele>
        <time>2020-05-31T17:04:05Z</time>
      </trkpt>
      <trkpt lat="46.17684" lon="-1.06103">
        <ele>27.1</ele>
        <time>2020-05-31T17:04:06Z</time>
      </trkpt>
      <trkpt lat="46.17682" lon="-1.0611">
        <ele>27.1</ele>
        <time>2020-05-31T17:04:07Z</time>
      </trkpt>
      <trkpt lat="46.17681" lon="-1.06117">
        <ele>27.1</ele>
        <time>2020-05-31T17:04:08Z</time>
      </trkpt>
      <trkpt lat="46.1768" lon="-1.06124">
        <ele>27.2</ele>
        <time>2020-05-31T17:04:09Z</time>
      </trkpt>
      <trkpt lat="46.17678" lon="-1.06131">
        <ele>27.2</ele>
        <time>2020-05-31T17:04:10Z</time>
      </trkpt>
      <trkpt lat="46.17677" lon="-1.06138">
        <ele>27.2</ele>
        <time>2020-05-31T17:04:11Z</time>
      </trkpt>
      <trkpt lat="46.17676" lon="-1.06146">
        <ele>27.3</ele>
        <time>2020-05-31T17:04:12Z</time>
      </trkpt>
      <trkpt lat="46.17674" lon="-1.06153">
        <ele>27.3</ele>
        <time>2020-05-31T17:04:13Z</time>
      </trkpt>
      <trkpt lat="46.17673" lon="-1.06161">
        <ele>27.4</ele>
        <time>2020-05-31T17:04:14Z</time>
      </trkpt>
      <trkpt lat="46.17672" lon="-1.06168">
        <ele>27.5</ele>
        <time>2020-05-31T17:04:15Z</time>
      </trkpt>
      <trkpt lat="46.1767" lon="-1.06175">
        <ele>27.7</ele>
        <time>2020-05-31T17:04:16Z</time>
      </trkpt>
      <trkpt lat="46.17669" lon="-1.06183">
        <ele>27.8</ele>
        <time>2020-05-31T17:04:17Z</time>
      </trkpt>
      <trkpt lat="46.17667" lon="-1.0619">
        <ele>27.9</ele>
        <time>2020-05-31T17:04:18Z</time>
      </trkpt>
      <trkpt lat="46.17666" lon="-1.06197">
        <ele>28</ele>
        <time>2020-05-31T17:04:19Z</time>
      </trkpt>
      <trkpt lat="46.17665" lon="-1.06204">
        <ele>28.1</ele>
        <time>2020-05-31T17:04:20Z</time>
      </trkpt>
      <trkpt lat="46.17664" lon="-1.0621">
        <ele>28.2</ele>
        <time>2020-05-31T17:04:21Z</time>
      </trkpt>
      <trkpt lat="46.17662" lon="-1.06217">
        <ele>28.2</ele>
        <time>2020-05-31T17:04:22Z</time>
      </trkpt>
      <trkpt lat="46.17661" lon="-1.06225">
        <ele>28.2</ele>
        <time>2020-05-31T17:04:23Z</time>
      </trkpt>
      <trkpt lat="46.17659" lon="-1.06232">
        <ele>28.3</ele>
        <time>2020-05-31T17:04:24Z</time>
      </trkpt>
      <trkpt lat="46.17658" lon="-1.06238">
        <ele>28.3</ele>
        <time>2020-05-31T17:04:25Z</time>
      </trkpt>
      <trkpt lat="46.17657" lon="-1.06245">
        <ele>28.3</ele>
        <time>2020-05-31T17:04:26Z</time>
      </trkpt>
      <trkpt lat="46.17656" lon="-1.06252">
        <ele>28.4</ele>
        <time>2020-05-31T17:04:27Z</time>
      </trkpt>
      <trkpt lat="46.17656" lon="-1.06259">
        <ele>28.5</ele>
        <time>2020-05-31T17:04:28Z</time>
      </trkpt>
      <trkpt lat="46.17655" lon="-1.06266">
        <ele>28.5</ele>
        <time>2020-05-31T17:04:29Z</time>
      </trkpt>
      <trkpt lat="46.17654" lon="-1.06272">
        <ele>28.6</ele>
        <time>2020-05-31T17:04:30Z</time>
      </trkpt>
      <trkpt lat="46.17653" lon="-1.0628">
        <ele>28.7</ele>
        <time>2020-05-31T17:04:31Z</time>
      </trkpt>
      <trkpt lat="46.17652" lon="-1.06286">
        <ele>28.7</ele>
        <time>2020-05-31T17:04:32Z</time>
      </trkpt>
      <trkpt lat="46.1765" lon="-1.06294">
        <ele>28.7</ele>
        <time>2020-05-31T17:04:33Z</time>
      </trkpt>
      <trkpt lat="46.1765" lon="-1.06301">
        <ele>28.8</ele>
        <time>2020-05-31T17:04:34Z</time>
      </trkpt>
      <trkpt lat="46.17649" lon="-1.06307">
        <ele>28.9</ele>
        <time>2020-05-31T17:04:35Z</time>
      </trkpt>
      <trkpt lat="46.17649" lon="-1.06314">
        <ele>28.9</ele>
        <time>2020-05-31T17:04:36Z</time>
      </trkpt>
      <trkpt lat="46.17648" lon="-1.06321">
        <ele>29</ele>
        <time>2020-05-31T17:04:37Z</time>
      </trkpt>
      <trkpt lat="46.17648" lon="-1.06327">
        <ele>29.1</ele>
        <time>2020-05-31T17:04:38Z</time>
      </trkpt>
      <trkpt lat="46.17647" lon="-1.06334">
        <ele>29.2</ele>
        <time>2020-05-31T17:04:39Z</time>
      </trkpt>
      <trkpt lat="46.17646" lon="-1.0634">
        <ele>29.2</ele>
        <time>2020-05-31T17:04:40Z</time>
      </trkpt>
      <trkpt lat="46.17645" lon="-1.06348">
        <ele>29.3</ele>
        <time>2020-05-31T17:04:41Z</time>
      </trkpt>
      <trkpt lat="46.17645" lon="-1.06355">
        <ele>29.4</ele>
        <time>2020-05-31T17:04:42Z</time>
      </trkpt>
      <trkpt lat="46.17644" lon="-1.06363">
        <ele>29.5</ele>
        <time>2020-05-31T17:04:43Z</time>
      </trkpt>
      <trkpt lat="46.17643" lon="-1.0637">
        <ele>29.6</ele>
        <time>2020-05-31T17:04:44Z</time>
      </trkpt>
      <trkpt lat="46.17642" lon="-1.06378">
        <ele>29.7</ele>
        <time>2020-05-31T17:04:45Z</time>
      </trkpt>
      <trkpt lat="46.17641" lon="-1.06385">
        <ele>29.8</ele>
        <time>2020-05-31T17:04:46Z</time>
      </trkpt>
      <trkpt lat="46.1764" lon="-1.06393">
        <ele>30</ele>
        <time>2020-05-31T17:04:47Z</time>
      </trkpt>
      <trkpt lat="46.17639" lon="-1.064">
        <ele>30.1</ele>
        <time>2020-05-31T17:04:48Z</time>
      </trkpt>
      <trkpt lat="46.17637" lon="-1.06407">
        <ele>30.2</ele>
        <time>2020-05-31T17:04:49Z</time>
      </trkpt>
      <trkpt lat="46.17636" lon="-1.06412">
        <ele>30.3</ele>
        <time>2020-05-31T17:04:50Z</time>
      </trkpt>
      <trkpt lat="46.17635" lon="-1.06417">
        <ele>30.4</ele>
        <time>2020-05-31T17:04:51Z</time>
      </trkpt>
      <trkpt lat="46.17634" lon="-1.06422">
        <ele>30.4</ele>
        <time>2020-05-31T17:04:52Z</time>
      </trkpt>
      <trkpt lat="46.17632" lon="-1.06428">
        <ele>30.5</ele>
        <time>2020-05-31T17:04:53Z</time>
      </trkpt>
      <trkpt lat="46.17632" lon="-1.0643">
        <ele>30.6</ele>
        <time>2020-05-31T17:04:54Z</time>
      </trkpt>
      <trkpt lat="46.1763" lon="-1.06435">
        <ele>30.6</ele>
        <time>2020-05-31T17:04:55Z</time>
      </trkpt>
      <trkpt lat="46.17628" lon="-1.0644">
        <ele>30.7</ele>
        <time>2020-05-31T17:04:56Z</time>
      </trkpt>
      <trkpt lat="46.17625" lon="-1.06445">
        <ele>30.8</ele>
        <time>2020-05-31T17:04:57Z</time>
      </trkpt>
      <trkpt lat="46.17622" lon="-1.0645">
        <ele>30.9</ele>
        <time>2020-05-31T17:04:58Z</time>
      </trkpt>
      <trkpt lat="46.17619" lon="-1.06455">
        <ele>31</ele>
        <time>2020-05-31T17:04:59Z</time>
      </trkpt>
      <trkpt lat="46.17615" lon="-1.0646">
        <ele>31.1</ele>
        <time>2020-05-31T17:05:00Z</time>
      </trkpt>
      <trkpt lat="46.17613" lon="-1.06465">
        <ele>31.1</ele>
        <time>2020-05-31T17:05:01Z</time>
      </trkpt>
      <trkpt lat="46.1761" lon="-1.06469">
        <ele>31.1</ele>
        <time>2020-05-31T17:05:02Z</time>
      </trkpt>
      <trkpt lat="46.17607" lon="-1.06473">
        <ele>31.2</ele>
        <time>2020-05-31T17:05:03Z</time>
      </trkpt>
      <trkpt lat="46.17603" lon="-1.06479">
        <ele>31.2</ele>
        <time>2020-05-31T17:05:04Z</time>
      </trkpt>
      <trkpt lat="46.176" lon="-1.06484">
        <ele>31.2</ele>
        <time>2020-05-31T17:05:05Z</time>
      </trkpt>
      <trkpt lat="46.17596" lon="-1.06489">
        <ele>31.2</ele>
        <time>2020-05-31T17:05:06Z</time>
      </trkpt>
      <trkpt lat="46.17593" lon="-1.06496">
        <ele>31.2</ele>
        <time>2020-05-31T17:05:07Z</time>
      </trkpt>
      <trkpt lat="46.17589" lon="-1.06501">
        <ele>31.2</ele>
        <time>2020-05-31T17:05:08Z</time>
      </trkpt>
      <trkpt lat="46.17586" lon="-1.06505">
        <ele>31.2</ele>
        <time>2020-05-31T17:05:09Z</time>
      </trkpt>
      <trkpt lat="46.17583" lon="-1.0651">
        <ele>31.2</ele>
        <time>2020-05-31T17:05:10Z</time>
      </trkpt>
      <trkpt lat="46.17579" lon="-1.06515">
        <ele>31.2</ele>
        <time>2020-05-31T17:05:11Z</time>
      </trkpt>
      <trkpt lat="46.17576" lon="-1.06519">
        <ele>31.2</ele>
        <time>2020-05-31T17:05:12Z</time>
      </trkpt>
      <trkpt lat="46.17572" lon="-1.06525">
        <ele>31.2</ele>
        <time>2020-05-31T17:05:13Z</time>
      </trkpt>
      <trkpt lat="46.17567" lon="-1.06529">
        <ele>31.2</ele>
        <time>2020-05-31T17:05:14Z</time>
      </trkpt>
      <trkpt lat="46.17564" lon="-1.06535">
        <ele>31.2</ele>
        <time>2020-05-31T17:05:15Z</time>
      </trkpt>
      <trkpt lat="46.1756" lon="-1.06538">
        <ele>31.2</ele>
        <time>2020-05-31T17:05:16Z</time>
      </trkpt>
      <trkpt lat="46.17555" lon="-1.0654">
        <ele>31.2</ele>
        <time>2020-05-31T17:05:17Z</time>
      </trkpt>
      <trkpt lat="46.17549" lon="-1.0654">
        <ele>31.2</ele>
        <time>2020-05-31T17:05:18Z</time>
      </trkpt>
      <trkpt lat="46.17543" lon="-1.06539">
        <ele>31.2</ele>
        <time>2020-05-31T17:05:19Z</time>
      </trkpt>
      <trkpt lat="46.17537" lon="-1.06538">
        <ele>31.2</ele>
        <time>2020-05-31T17:05:20Z</time>
      </trkpt>
      <trkpt lat="46.17531" lon="-1.06535">
        <ele>31.2</ele>
        <time>2020-05-31T17:05:21Z</time>
      </trkpt>
      <trkpt lat="46.17526" lon="-1.06532">
        <ele>31.2</ele>
        <time>2020-05-31T17:05:22Z</time>
      </trkpt>
      <trkpt lat="46.17521" lon="-1.06529">
        <ele>31.2</ele>
        <time>2020-05-31T17:05:23Z</time>
      </trkpt>
      <trkpt lat="46.17516" lon="-1.06526">
        <ele>31.2</ele>
        <time>2020-05-31T17:05:24Z</time>
      </trkpt>
      <trkpt lat="46.1751" lon="-1.06525">
        <ele>31.2</ele>
        <time>2020-05-31T17:05:25Z</time>
      </trkpt>
      <trkpt lat="46.17505" lon="-1.06524">
        <ele>31.2</ele>
        <time>2020-05-31T17:05:26Z</time>
      </trkpt>
      <trkpt lat="46.17501" lon="-1.06526">
        <ele>31.2</ele>
        <time>2020-05-31T17:05:27Z</time>
      </trkpt>
      <trkpt lat="46.175" lon="-1.06533">
        <ele>31.2</ele>
        <time>2020-05-31T17:05:28Z</time>
      </trkpt>
      <trkpt lat="46.17497" lon="-1.06541">
        <ele>31.4</ele>
        <time>2020-05-31T17:05:29Z</time>
      </trkpt>
      <trkpt lat="46.17494" lon="-1.06548">
        <ele>31.4</ele>
        <time>2020-05-31T17:05:30Z</time>
      </trkpt>
      <trkpt lat="46.1749" lon="-1.06553">
        <ele>31.4</ele>
        <time>2020-05-31T17:05:31Z</time>
      </trkpt>
      <trkpt lat="46.17485" lon="-1.06559">
        <ele>31.4</ele>
        <time>2020-05-31T17:05:32Z</time>
      </trkpt>
      <trkpt lat="46.1748" lon="-1.06564">
        <ele>31.4</ele>
        <time>2020-05-31T17:05:33Z</time>
      </trkpt>
      <trkpt lat="46.17475" lon="-1.06569">
        <ele>31.4</ele>
        <time>2020-05-31T17:05:34Z</time>
      </trkpt>
      <trkpt lat="46.17471" lon="-1.06573">
        <ele>31.3</ele>
        <time>2020-05-31T17:05:35Z</time>
      </trkpt>
      <trkpt lat="46.17467" lon="-1.06579">
        <ele>31.3</ele>
        <time>2020-05-31T17:05:36Z</time>
      </trkpt>
      <trkpt lat="46.17467" lon="-1.06587">
        <ele>31.3</ele>
        <time>2020-05-31T17:05:37Z</time>
      </trkpt>
      <trkpt lat="46.17467" lon="-1.06595">
        <ele>31.3</ele>
        <time>2020-05-31T17:05:38Z</time>
      </trkpt>
      <trkpt lat="46.17467" lon="-1.06601">
        <ele>31.3</ele>
        <time>2020-05-31T17:05:39Z</time>
      </trkpt>
      <trkpt lat="46.17466" lon="-1.06607">
        <ele>31.3</ele>
        <time>2020-05-31T17:05:40Z</time>
      </trkpt>
      <trkpt lat="46.17467" lon="-1.06612">
        <ele>31.3</ele>
        <time>2020-05-31T17:05:41Z</time>
      </trkpt>
      <trkpt lat="46.17466" lon="-1.06617">
        <ele>31.3</ele>
        <time>2020-05-31T17:05:42Z</time>
      </trkpt>
      <trkpt lat="46.17466" lon="-1.0662">
        <ele>31.3</ele>
        <time>2020-05-31T17:05:43Z</time>
      </trkpt>
      <trkpt lat="46.17467" lon="-1.06621">
        <ele>31.3</ele>
        <time>2020-05-31T17:05:44Z</time>
      </trkpt>
      <trkpt lat="46.17467" lon="-1.06622">
        <ele>31.3</ele>
        <time>2020-05-31T17:05:45Z</time>
      </trkpt>
      <trkpt lat="46.17466" lon="-1.06621">
        <ele>31.3</ele>
        <time>2020-05-31T17:05:46Z</time>
      </trkpt>
      <trkpt lat="46.17466" lon="-1.06622">
        <ele>31.3</ele>
        <time>2020-05-31T17:05:47Z</time>
      </trkpt>
      <trkpt lat="46.17466" lon="-1.06623">
        <ele>31.3</ele>
        <time>2020-05-31T17:05:48Z</time>
      </trkpt>
      <trkpt lat="46.17466" lon="-1.06621">
        <ele>31.3</ele>
        <time>2020-05-31T17:05:49Z</time>
      </trkpt>
      <trkpt lat="46.17466" lon="-1.06621">
        <ele>31.3</ele>
        <time>2020-05-31T17:05:50Z</time>
      </trkpt>
      <trkpt lat="46.17466" lon="-1.06621">
        <ele>31.3</ele>
        <time>2020-05-31T17:05:51Z</time>
      </trkpt>
      <trkpt lat="46.17466" lon="-1.06621">
        <ele>31.3</ele>
        <time>2020-05-31T17:05:52Z</time>
      </trkpt>
      <trkpt lat="46.17466" lon="-1.06621">
        <ele>31.3</ele>
        <time>2020-05-31T17:05:53Z</time>
      </trkpt>
      <trkpt lat="46.17466" lon="-1.06621">
        <ele>31.3</ele>
        <time>2020-05-31T17:05:54Z</time>
      </trkpt>
      <trkpt lat="46.17466" lon="-1.06621">
        <ele>31.3</ele>
        <time>2020-05-31T17:05:55Z</time>
      </trkpt>
      <trkpt lat="46.17466" lon="-1.06621">
        <ele>31.3</ele>
        <time>2020-05-31T17:05:56Z</time>
      </trkpt>
      <trkpt lat="46.17466" lon="-1.06621">
        <ele>31.3</ele>
        <time>2020-05-31T17:05:57Z</time>
      </trkpt>
      <trkpt lat="46.17467" lon="-1.06622">
        <ele>31.3</ele>
        <time>2020-05-31T17:05:58Z</time>
      </trkpt>
      <trkpt lat="46.17467" lon="-1.06623">
        <ele>31.3</ele>
        <time>2020-05-31T17:05:59Z</time>
      </trkpt>
      <trkpt lat="46.17466" lon="-1.06624">
        <ele>31.3</ele>
        <time>2020-05-31T17:06:00Z</time>
      </trkpt>
      <trkpt lat="46.17465" lon="-1.06625">
        <ele>31.3</ele>
        <time>2020-05-31T17:06:01Z</time>
      </trkpt>
      <trkpt lat="46.17464" lon="-1.06629">
        <ele>31.3</ele>
        <time>2020-05-31T17:06:02Z</time>
      </trkpt>
      <trkpt lat="46.17464" lon="-1.06631">
        <ele>31.3</ele>
        <time>2020-05-31T17:06:03Z</time>
      </trkpt>
      <trkpt lat="46.17464" lon="-1.06633">
        <ele>31.2</ele>
        <time>2020-05-31T17:06:04Z</time>
      </trkpt>
      <trkpt lat="46.17463" lon="-1.06635">
        <ele>31.2</ele>
        <time>2020-05-31T17:06:05Z</time>
      </trkpt>
      <trkpt lat="46.17463" lon="-1.0664">
        <ele>31.2</ele>
        <time>2020-05-31T17:06:06Z</time>
      </trkpt>
      <trkpt lat="46.17463" lon="-1.06642">
        <ele>31.2</ele>
        <time>2020-05-31T17:06:07Z</time>
      </trkpt>
      <trkpt lat="46.17462" lon="-1.06648">
        <ele>31.2</ele>
        <time>2020-05-31T17:06:08Z</time>
      </trkpt>
      <trkpt lat="46.17462" lon="-1.0665">
        <ele>31.2</ele>
        <time>2020-05-31T17:06:09Z</time>
      </trkpt>
      <trkpt lat="46.17462" lon="-1.06655">
        <ele>31.1</ele>
        <time>2020-05-31T17:06:10Z</time>
      </trkpt>
      <trkpt lat="46.17461" lon="-1.0666">
        <ele>31.1</ele>
        <time>2020-05-31T17:06:11Z</time>
      </trkpt>
      <trkpt lat="46.1746" lon="-1.06667">
        <ele>31.1</ele>
        <time>2020-05-31T17:06:12Z</time>
      </trkpt>
      <trkpt lat="46.17459" lon="-1.06674">
        <ele>31</ele>
        <time>2020-05-31T17:06:13Z</time>
      </trkpt>
      <trkpt lat="46.17457" lon="-1.06681">
        <ele>30.9</ele>
        <time>2020-05-31T17:06:14Z</time>
      </trkpt>
      <trkpt lat="46.17456" lon="-1.06688">
        <ele>30.9</ele>
        <time>2020-05-31T17:06:15Z</time>
      </trkpt>
      <trkpt lat="46.17455" lon="-1.06694">
        <ele>30.8</ele>
        <time>2020-05-31T17:06:16Z</time>
      </trkpt>
      <trkpt lat="46.17453" lon="-1.067">
        <ele>30.7</ele>
        <time>2020-05-31T17:06:17Z</time>
      </trkpt>
      <trkpt lat="46.1745" lon="-1.06705">
        <ele>30.7</ele>
        <time>2020-05-31T17:06:18Z</time>
      </trkpt>
      <trkpt lat="46.17447" lon="-1.06712">
        <ele>30.6</ele>
        <time>2020-05-31T17:06:19Z</time>
      </trkpt>
      <trkpt lat="46.17443" lon="-1.06719">
        <ele>30.5</ele>
        <time>2020-05-31T17:06:20Z</time>
      </trkpt>
      <trkpt lat="46.17439" lon="-1.06726">
        <ele>30.4</ele>
        <time>2020-05-31T17:06:21Z</time>
      </trkpt>
      <trkpt lat="46.17435" lon="-1.06734">
        <ele>30.3</ele>
        <time>2020-05-31T17:06:22Z</time>
      </trkpt>
      <trkpt lat="46.17431" lon="-1.0674">
        <ele>30.2</ele>
        <time>2020-05-31T17:06:23Z</time>
      </trkpt>
      <trkpt lat="46.17427" lon="-1.06747">
        <ele>30</ele>
        <time>2020-05-31T17:06:24Z</time>
      </trkpt>
      <trkpt lat="46.17423" lon="-1.06754">
        <ele>29.9</ele>
        <time>2020-05-31T17:06:25Z</time>
      </trkpt>
      <trkpt lat="46.17418" lon="-1.0676">
        <ele>29.8</ele>
        <time>2020-05-31T17:06:26Z</time>
      </trkpt>
      <trkpt lat="46.17414" lon="-1.06768">
        <ele>29.7</ele>
        <time>2020-05-31T17:06:27Z</time>
      </trkpt>
      <trkpt lat="46.1741" lon="-1.06776">
        <ele>29.5</ele>
        <time>2020-05-31T17:06:28Z</time>
      </trkpt>
      <trkpt lat="46.17405" lon="-1.06785">
        <ele>29.4</ele>
        <time>2020-05-31T17:06:29Z</time>
      </trkpt>
      <trkpt lat="46.174" lon="-1.06793">
        <ele>29.2</ele>
        <time>2020-05-31T17:06:30Z</time>
      </trkpt>
      <trkpt lat="46.17396" lon="-1.068">
        <ele>29.1</ele>
        <time>2020-05-31T17:06:31Z</time>
      </trkpt>
      <trkpt lat="46.17392" lon="-1.06808">
        <ele>28.9</ele>
        <time>2020-05-31T17:06:32Z</time>
      </trkpt>
      <trkpt lat="46.17387" lon="-1.06816">
        <ele>28.8</ele>
        <time>2020-05-31T17:06:33Z</time>
      </trkpt>
      <trkpt lat="46.17383" lon="-1.06824">
        <ele>28.7</ele>
        <time>2020-05-31T17:06:34Z</time>
      </trkpt>
      <trkpt lat="46.17378" lon="-1.06833">
        <ele>28.6</ele>
        <time>2020-05-31T17:06:35Z</time>
      </trkpt>
      <trkpt lat="46.17374" lon="-1.06841">
        <ele>28.4</ele>
        <time>2020-05-31T17:06:36Z</time>
      </trkpt>
      <trkpt lat="46.17369" lon="-1.06849">
        <ele>28.3</ele>
        <time>2020-05-31T17:06:37Z</time>
      </trkpt>
      <trkpt lat="46.17364" lon="-1.06856">
        <ele>28.1</ele>
        <time>2020-05-31T17:06:38Z</time>
      </trkpt>
      <trkpt lat="46.17359" lon="-1.06864">
        <ele>28</ele>
        <time>2020-05-31T17:06:39Z</time>
      </trkpt>
      <trkpt lat="46.17355" lon="-1.06873">
        <ele>27.8</ele>
        <time>2020-05-31T17:06:40Z</time>
      </trkpt>
      <trkpt lat="46.1735" lon="-1.0688">
        <ele>27.7</ele>
        <time>2020-05-31T17:06:41Z</time>
      </trkpt>
      <trkpt lat="46.17345" lon="-1.06888">
        <ele>27.6</ele>
        <time>2020-05-31T17:06:42Z</time>
      </trkpt>
      <trkpt lat="46.1734" lon="-1.06897">
        <ele>27.5</ele>
        <time>2020-05-31T17:06:43Z</time>
      </trkpt>
      <trkpt lat="46.17335" lon="-1.06906">
        <ele>27.3</ele>
        <time>2020-05-31T17:06:44Z</time>
      </trkpt>
      <trkpt lat="46.1733" lon="-1.06915">
        <ele>27.2</ele>
        <time>2020-05-31T17:06:45Z</time>
      </trkpt>
      <trkpt lat="46.17325" lon="-1.06923">
        <ele>27</ele>
        <time>2020-05-31T17:06:46Z</time>
      </trkpt>
      <trkpt lat="46.1732" lon="-1.06932">
        <ele>26.9</ele>
        <time>2020-05-31T17:06:47Z</time>
      </trkpt>
      <trkpt lat="46.17316" lon="-1.06941">
        <ele>26.8</ele>
        <time>2020-05-31T17:06:48Z</time>
      </trkpt>
      <trkpt lat="46.1731" lon="-1.0695">
        <ele>26.6</ele>
        <time>2020-05-31T17:06:49Z</time>
      </trkpt>
      <trkpt lat="46.17305" lon="-1.06959">
        <ele>26.5</ele>
        <time>2020-05-31T17:06:50Z</time>
      </trkpt>
      <trkpt lat="46.173" lon="-1.06968">
        <ele>26.4</ele>
        <time>2020-05-31T17:06:51Z</time>
      </trkpt>
      <trkpt lat="46.17295" lon="-1.06977">
        <ele>26.2</ele>
        <time>2020-05-31T17:06:52Z</time>
      </trkpt>
      <trkpt lat="46.1729" lon="-1.06986">
        <ele>26.1</ele>
        <time>2020-05-31T17:06:53Z</time>
      </trkpt>
      <trkpt lat="46.17285" lon="-1.06995">
        <ele>26</ele>
        <time>2020-05-31T17:06:54Z</time>
      </trkpt>
      <trkpt lat="46.1728" lon="-1.07004">
        <ele>25.9</ele>
        <time>2020-05-31T17:06:55Z</time>
      </trkpt>
      <trkpt lat="46.17275" lon="-1.07012">
        <ele>25.7</ele>
        <time>2020-05-31T17:06:56Z</time>
      </trkpt>
      <trkpt lat="46.1727" lon="-1.07021">
        <ele>25.6</ele>
        <time>2020-05-31T17:06:57Z</time>
      </trkpt>
      <trkpt lat="46.17265" lon="-1.07029">
        <ele>25.5</ele>
        <time>2020-05-31T17:06:58Z</time>
      </trkpt>
      <trkpt lat="46.1726" lon="-1.07038">
        <ele>25.4</ele>
        <time>2020-05-31T17:06:59Z</time>
      </trkpt>
      <trkpt lat="46.17255" lon="-1.07047">
        <ele>25.3</ele>
        <time>2020-05-31T17:07:00Z</time>
      </trkpt>
      <trkpt lat="46.17251" lon="-1.07055">
        <ele>25.2</ele>
        <time>2020-05-31T17:07:01Z</time>
      </trkpt>
      <trkpt lat="46.17246" lon="-1.07064">
        <ele>25</ele>
        <time>2020-05-31T17:07:02Z</time>
      </trkpt>
      <trkpt lat="46.17241" lon="-1.07072">
        <ele>25</ele>
        <time>2020-05-31T17:07:03Z</time>
      </trkpt>
      <trkpt lat="46.17236" lon="-1.07081">
        <ele>24.9</ele>
        <time>2020-05-31T17:07:04Z</time>
      </trkpt>
      <trkpt lat="46.17231" lon="-1.0709">
        <ele>24.8</ele>
        <time>2020-05-31T17:07:05Z</time>
      </trkpt>
      <trkpt lat="46.17226" lon="-1.07099">
        <ele>24.8</ele>
        <time>2020-05-31T17:07:06Z</time>
      </trkpt>
      <trkpt lat="46.17221" lon="-1.07108">
        <ele>24.6</ele>
        <time>2020-05-31T17:07:07Z</time>
      </trkpt>
      <trkpt lat="46.17216" lon="-1.07117">
        <ele>24.4</ele>
        <time>2020-05-31T17:07:08Z</time>
      </trkpt>
      <trkpt lat="46.17211" lon="-1.07127">
        <ele>24.2</ele>
        <time>2020-05-31T17:07:09Z</time>
      </trkpt>
      <trkpt lat="46.17206" lon="-1.07136">
        <ele>24.1</ele>
        <time>2020-05-31T17:07:10Z</time>
      </trkpt>
      <trkpt lat="46.17202" lon="-1.07145">
        <ele>24</ele>
        <time>2020-05-31T17:07:11Z</time>
      </trkpt>
      <trkpt lat="46.17197" lon="-1.07155">
        <ele>23.9</ele>
        <time>2020-05-31T17:07:12Z</time>
      </trkpt>
      <trkpt lat="46.17193" lon="-1.07164">
        <ele>23.9</ele>
        <time>2020-05-31T17:07:13Z</time>
      </trkpt>
      <trkpt lat="46.17188" lon="-1.07174">
        <ele>23.9</ele>
        <time>2020-05-31T17:07:14Z</time>
      </trkpt>
      <trkpt lat="46.17183" lon="-1.07183">
        <ele>23.9</ele>
        <time>2020-05-31T17:07:15Z</time>
      </trkpt>
      <trkpt lat="46.17178" lon="-1.07192">
        <ele>24</ele>
        <time>2020-05-31T17:07:16Z</time>
      </trkpt>
      <trkpt lat="46.17173" lon="-1.07202">
        <ele>24</ele>
        <time>2020-05-31T17:07:17Z</time>
      </trkpt>
      <trkpt lat="46.17168" lon="-1.07211">
        <ele>24</ele>
        <time>2020-05-31T17:07:18Z</time>
      </trkpt>
      <trkpt lat="46.17162" lon="-1.0722">
        <ele>24</ele>
        <time>2020-05-31T17:07:19Z</time>
      </trkpt>
      <trkpt lat="46.17156" lon="-1.07229">
        <ele>23.9</ele>
        <time>2020-05-31T17:07:20Z</time>
      </trkpt>
      <trkpt lat="46.17151" lon="-1.07239">
        <ele>23.9</ele>
        <time>2020-05-31T17:07:21Z</time>
      </trkpt>
      <trkpt lat="46.17146" lon="-1.07248">
        <ele>24</ele>
        <time>2020-05-31T17:07:22Z</time>
      </trkpt>
      <trkpt lat="46.1714" lon="-1.07258">
        <ele>23.9</ele>
        <time>2020-05-31T17:07:23Z</time>
      </trkpt>
      <trkpt lat="46.17135" lon="-1.07267">
        <ele>23.9</ele>
        <time>2020-05-31T17:07:24Z</time>
      </trkpt>
      <trkpt lat="46.1713" lon="-1.07277">
        <ele>23.9</ele>
        <time>2020-05-31T17:07:25Z</time>
      </trkpt>
      <trkpt lat="46.17124" lon="-1.07286">
        <ele>23.9</ele>
        <time>2020-05-31T17:07:26Z</time>
      </trkpt>
      <trkpt lat="46.17119" lon="-1.07295">
        <ele>23.9</ele>
        <time>2020-05-31T17:07:27Z</time>
      </trkpt>
      <trkpt lat="46.17114" lon="-1.07305">
        <ele>23.9</ele>
        <time>2020-05-31T17:07:28Z</time>
      </trkpt>
      <trkpt lat="46.17109" lon="-1.07315">
        <ele>23.9</ele>
        <time>2020-05-31T17:07:29Z</time>
      </trkpt>
      <trkpt lat="46.17104" lon="-1.07325">
        <ele>23.9</ele>
        <time>2020-05-31T17:07:30Z</time>
      </trkpt>
      <trkpt lat="46.17099" lon="-1.07334">
        <ele>23.9</ele>
        <time>2020-05-31T17:07:31Z</time>
      </trkpt>
      <trkpt lat="46.17093" lon="-1.07343">
        <ele>23.9</ele>
        <time>2020-05-31T17:07:32Z</time>
      </trkpt>
      <trkpt lat="46.17088" lon="-1.07352">
        <ele>23.9</ele>
        <time>2020-05-31T17:07:33Z</time>
      </trkpt>
      <trkpt lat="46.17083" lon="-1.07362">
        <ele>23.9</ele>
        <time>2020-05-31T17:07:34Z</time>
      </trkpt>
      <trkpt lat="46.17077" lon="-1.07371">
        <ele>23.9</ele>
        <time>2020-05-31T17:07:35Z</time>
      </trkpt>
      <trkpt lat="46.17072" lon="-1.0738">
        <ele>23.9</ele>
        <time>2020-05-31T17:07:36Z</time>
      </trkpt>
      <trkpt lat="46.17066" lon="-1.07388">
        <ele>23.9</ele>
        <time>2020-05-31T17:07:37Z</time>
      </trkpt>
      <trkpt lat="46.1706" lon="-1.07398">
        <ele>23.9</ele>
        <time>2020-05-31T17:07:38Z</time>
      </trkpt>
      <trkpt lat="46.17055" lon="-1.07407">
        <ele>23.9</ele>
        <time>2020-05-31T17:07:39Z</time>
      </trkpt>
      <trkpt lat="46.1705" lon="-1.07416">
        <ele>23.9</ele>
        <time>2020-05-31T17:07:40Z</time>
      </trkpt>
      <trkpt lat="46.17044" lon="-1.07425">
        <ele>23.9</ele>
        <time>2020-05-31T17:07:41Z</time>
      </trkpt>
      <trkpt lat="46.17039" lon="-1.07434">
        <ele>23.9</ele>
        <time>2020-05-31T17:07:42Z</time>
      </trkpt>
      <trkpt lat="46.17034" lon="-1.07443">
        <ele>23.9</ele>
        <time>2020-05-31T17:07:43Z</time>
      </trkpt>
      <trkpt lat="46.17028" lon="-1.07452">
        <ele>23.9</ele>
        <time>2020-05-31T17:07:44Z</time>
      </trkpt>
      <trkpt lat="46.17023" lon="-1.07461">
        <ele>23.9</ele>
        <time>2020-05-31T17:07:45Z</time>
      </trkpt>
      <trkpt lat="46.17018" lon="-1.07471">
        <ele>23.9</ele>
        <time>2020-05-31T17:07:46Z</time>
      </trkpt>
      <trkpt lat="46.17013" lon="-1.0748">
        <ele>23.9</ele>
        <time>2020-05-31T17:07:47Z</time>
      </trkpt>
      <trkpt lat="46.17008" lon="-1.07489">
        <ele>23.9</ele>
        <time>2020-05-31T17:07:48Z</time>
      </trkpt>
      <trkpt lat="46.17003" lon="-1.07498">
        <ele>23.8</ele>
        <time>2020-05-31T17:07:49Z</time>
      </trkpt>
      <trkpt lat="46.16998" lon="-1.07508">
        <ele>23.8</ele>
        <time>2020-05-31T17:07:50Z</time>
      </trkpt>
      <trkpt lat="46.16993" lon="-1.07517">
        <ele>23.8</ele>
        <time>2020-05-31T17:07:51Z</time>
      </trkpt>
      <trkpt lat="46.16988" lon="-1.07526">
        <ele>23.8</ele>
        <time>2020-05-31T17:07:52Z</time>
      </trkpt>
      <trkpt lat="46.16983" lon="-1.07535">
        <ele>23.8</ele>
        <time>2020-05-31T17:07:53Z</time>
      </trkpt>
      <trkpt lat="46.16978" lon="-1.07543">
        <ele>23.8</ele>
        <time>2020-05-31T17:07:54Z</time>
      </trkpt>
      <trkpt lat="46.16973" lon="-1.07552">
        <ele>23.8</ele>
        <time>2020-05-31T17:07:55Z</time>
      </trkpt>
      <trkpt lat="46.16968" lon="-1.07561">
        <ele>23.9</ele>
        <time>2020-05-31T17:07:56Z</time>
      </trkpt>
      <trkpt lat="46.16963" lon="-1.0757">
        <ele>23.9</ele>
        <time>2020-05-31T17:07:57Z</time>
      </trkpt>
      <trkpt lat="46.16958" lon="-1.07579">
        <ele>23.9</ele>
        <time>2020-05-31T17:07:58Z</time>
      </trkpt>
      <trkpt lat="46.16953" lon="-1.07588">
        <ele>23.9</ele>
        <time>2020-05-31T17:07:59Z</time>
      </trkpt>
      <trkpt lat="46.16948" lon="-1.07596">
        <ele>23.9</ele>
        <time>2020-05-31T17:08:00Z</time>
      </trkpt>
      <trkpt lat="46.16944" lon="-1.07605">
        <ele>23.9</ele>
        <time>2020-05-31T17:08:01Z</time>
      </trkpt>
      <trkpt lat="46.16939" lon="-1.07614">
        <ele>23.8</ele>
        <time>2020-05-31T17:08:02Z</time>
      </trkpt>
      <trkpt lat="46.16935" lon="-1.07623">
        <ele>23.8</ele>
        <time>2020-05-31T17:08:03Z</time>
      </trkpt>
      <trkpt lat="46.16931" lon="-1.07633">
        <ele>23.7</ele>
        <time>2020-05-31T17:08:04Z</time>
      </trkpt>
      <trkpt lat="46.16927" lon="-1.07642">
        <ele>23.7</ele>
        <time>2020-05-31T17:08:05Z</time>
      </trkpt>
      <trkpt lat="46.16924" lon="-1.07652">
        <ele>23.6</ele>
        <time>2020-05-31T17:08:06Z</time>
      </trkpt>
      <trkpt lat="46.1692" lon="-1.07661">
        <ele>23.5</ele>
        <time>2020-05-31T17:08:07Z</time>
      </trkpt>
      <trkpt lat="46.16917" lon="-1.07671">
        <ele>23.5</ele>
        <time>2020-05-31T17:08:08Z</time>
      </trkpt>
      <trkpt lat="46.16915" lon="-1.07681">
        <ele>23.4</ele>
        <time>2020-05-31T17:08:09Z</time>
      </trkpt>
      <trkpt lat="46.16912" lon="-1.07692">
        <ele>23.4</ele>
        <time>2020-05-31T17:08:10Z</time>
      </trkpt>
      <trkpt lat="46.1691" lon="-1.07702">
        <ele>23.3</ele>
        <time>2020-05-31T17:08:11Z</time>
      </trkpt>
      <trkpt lat="46.16908" lon="-1.07713">
        <ele>23.3</ele>
        <time>2020-05-31T17:08:12Z</time>
      </trkpt>
      <trkpt lat="46.16905" lon="-1.07724">
        <ele>23.3</ele>
        <time>2020-05-31T17:08:13Z</time>
      </trkpt>
      <trkpt lat="46.16903" lon="-1.07735">
        <ele>23.2</ele>
        <time>2020-05-31T17:08:14Z</time>
      </trkpt>
      <trkpt lat="46.16902" lon="-1.07746">
        <ele>23.1</ele>
        <time>2020-05-31T17:08:15Z</time>
      </trkpt>
      <trkpt lat="46.169" lon="-1.07758">
        <ele>23.1</ele>
        <time>2020-05-31T17:08:16Z</time>
      </trkpt>
      <trkpt lat="46.16898" lon="-1.07769">
        <ele>23</ele>
        <time>2020-05-31T17:08:17Z</time>
      </trkpt>
      <trkpt lat="46.16897" lon="-1.0778">
        <ele>22.9</ele>
        <time>2020-05-31T17:08:18Z</time>
      </trkpt>
      <trkpt lat="46.16895" lon="-1.07792">
        <ele>22.9</ele>
        <time>2020-05-31T17:08:19Z</time>
      </trkpt>
      <trkpt lat="46.16894" lon="-1.07803">
        <ele>22.8</ele>
        <time>2020-05-31T17:08:20Z</time>
      </trkpt>
      <trkpt lat="46.16892" lon="-1.07814">
        <ele>22.7</ele>
        <time>2020-05-31T17:08:21Z</time>
      </trkpt>
      <trkpt lat="46.1689" lon="-1.07825">
        <ele>22.7</ele>
        <time>2020-05-31T17:08:22Z</time>
      </trkpt>
      <trkpt lat="46.16888" lon="-1.07836">
        <ele>22.6</ele>
        <time>2020-05-31T17:08:23Z</time>
      </trkpt>
      <trkpt lat="46.16886" lon="-1.07846">
        <ele>22.5</ele>
        <time>2020-05-31T17:08:24Z</time>
      </trkpt>
      <trkpt lat="46.16884" lon="-1.07857">
        <ele>22.4</ele>
        <time>2020-05-31T17:08:25Z</time>
      </trkpt>
      <trkpt lat="46.16882" lon="-1.07868">
        <ele>22.3</ele>
        <time>2020-05-31T17:08:26Z</time>
      </trkpt>
      <trkpt lat="46.16881" lon="-1.07879">
        <ele>22.2</ele>
        <time>2020-05-31T17:08:27Z</time>
      </trkpt>
      <trkpt lat="46.1688" lon="-1.07891">
        <ele>22.1</ele>
        <time>2020-05-31T17:08:28Z</time>
      </trkpt>
      <trkpt lat="46.16879" lon="-1.07902">
        <ele>22</ele>
        <time>2020-05-31T17:08:29Z</time>
      </trkpt>
      <trkpt lat="46.16877" lon="-1.07914">
        <ele>22</ele>
        <time>2020-05-31T17:08:30Z</time>
      </trkpt>
      <trkpt lat="46.16875" lon="-1.07924">
        <ele>21.9</ele>
        <time>2020-05-31T17:08:31Z</time>
      </trkpt>
      <trkpt lat="46.16874" lon="-1.07936">
        <ele>21.9</ele>
        <time>2020-05-31T17:08:32Z</time>
      </trkpt>
      <trkpt lat="46.16873" lon="-1.07947">
        <ele>21.9</ele>
        <time>2020-05-31T17:08:33Z</time>
      </trkpt>
      <trkpt lat="46.16872" lon="-1.07958">
        <ele>21.8</ele>
        <time>2020-05-31T17:08:34Z</time>
      </trkpt>
      <trkpt lat="46.1687" lon="-1.07969">
        <ele>21.7</ele>
        <time>2020-05-31T17:08:35Z</time>
      </trkpt>
      <trkpt lat="46.16869" lon="-1.0798">
        <ele>21.5</ele>
        <time>2020-05-31T17:08:36Z</time>
      </trkpt>
      <trkpt lat="46.16868" lon="-1.07991">
        <ele>21.3</ele>
        <time>2020-05-31T17:08:37Z</time>
      </trkpt>
      <trkpt lat="46.16867" lon="-1.08002">
        <ele>21.1</ele>
        <time>2020-05-31T17:08:38Z</time>
      </trkpt>
      <trkpt lat="46.16866" lon="-1.08014">
        <ele>21</ele>
        <time>2020-05-31T17:08:39Z</time>
      </trkpt>
      <trkpt lat="46.16865" lon="-1.08025">
        <ele>21</ele>
        <time>2020-05-31T17:08:40Z</time>
      </trkpt>
      <trkpt lat="46.16863" lon="-1.08036">
        <ele>21</ele>
        <time>2020-05-31T17:08:41Z</time>
      </trkpt>
      <trkpt lat="46.16862" lon="-1.08047">
        <ele>20.9</ele>
        <time>2020-05-31T17:08:42Z</time>
      </trkpt>
      <trkpt lat="46.1686" lon="-1.08059">
        <ele>20.8</ele>
        <time>2020-05-31T17:08:43Z</time>
      </trkpt>
      <trkpt lat="46.16858" lon="-1.0807">
        <ele>20.7</ele>
        <time>2020-05-31T17:08:44Z</time>
      </trkpt>
      <trkpt lat="46.16856" lon="-1.08082">
        <ele>20.6</ele>
        <time>2020-05-31T17:08:45Z</time>
      </trkpt>
      <trkpt lat="46.16854" lon="-1.08093">
        <ele>20.6</ele>
        <time>2020-05-31T17:08:46Z</time>
      </trkpt>
      <trkpt lat="46.16852" lon="-1.08104">
        <ele>20.5</ele>
        <time>2020-05-31T17:08:47Z</time>
      </trkpt>
      <trkpt lat="46.16851" lon="-1.08116">
        <ele>20.4</ele>
        <time>2020-05-31T17:08:48Z</time>
      </trkpt>
      <trkpt lat="46.16849" lon="-1.08127">
        <ele>20.3</ele>
        <time>2020-05-31T17:08:49Z</time>
      </trkpt>
      <trkpt lat="46.16848" lon="-1.08138">
        <ele>20.2</ele>
        <time>2020-05-31T17:08:50Z</time>
      </trkpt>
      <trkpt lat="46.16846" lon="-1.08149">
        <ele>20.1</ele>
        <time>2020-05-31T17:08:51Z</time>
      </trkpt>
      <trkpt lat="46.16844" lon="-1.0816">
        <ele>20</ele>
        <time>2020-05-31T17:08:52Z</time>
      </trkpt>
      <trkpt lat="46.16843" lon="-1.08172">
        <ele>20</ele>
        <time>2020-05-31T17:08:53Z</time>
      </trkpt>
      <trkpt lat="46.16841" lon="-1.08182">
        <ele>19.9</ele>
        <time>2020-05-31T17:08:54Z</time>
      </trkpt>
      <trkpt lat="46.1684" lon="-1.08193">
        <ele>19.9</ele>
        <time>2020-05-31T17:08:55Z</time>
      </trkpt>
      <trkpt lat="46.16838" lon="-1.08204">
        <ele>19.8</ele>
        <time>2020-05-31T17:08:56Z</time>
      </trkpt>
      <trkpt lat="46.16836" lon="-1.08215">
        <ele>19.7</ele>
        <time>2020-05-31T17:08:57Z</time>
      </trkpt>
      <trkpt lat="46.16835" lon="-1.08226">
        <ele>19.6</ele>
        <time>2020-05-31T17:08:58Z</time>
      </trkpt>
      <trkpt lat="46.16833" lon="-1.08237">
        <ele>19.5</ele>
        <time>2020-05-31T17:08:59Z</time>
      </trkpt>
      <trkpt lat="46.16832" lon="-1.08248">
        <ele>19.4</ele>
        <time>2020-05-31T17:09:00Z</time>
      </trkpt>
      <trkpt lat="46.16831" lon="-1.08259">
        <ele>19.4</ele>
        <time>2020-05-31T17:09:01Z</time>
      </trkpt>
      <trkpt lat="46.1683" lon="-1.0827">
        <ele>19.4</ele>
        <time>2020-05-31T17:09:02Z</time>
      </trkpt>
      <trkpt lat="46.16828" lon="-1.0828">
        <ele>19.3</ele>
        <time>2020-05-31T17:09:03Z</time>
      </trkpt>
      <trkpt lat="46.16827" lon="-1.08291">
        <ele>19.3</ele>
        <time>2020-05-31T17:09:04Z</time>
      </trkpt>
      <trkpt lat="46.16825" lon="-1.08301">
        <ele>19.3</ele>
        <time>2020-05-31T17:09:05Z</time>
      </trkpt>
      <trkpt lat="46.16823" lon="-1.08312">
        <ele>19.2</ele>
        <time>2020-05-31T17:09:06Z</time>
      </trkpt>
      <trkpt lat="46.16821" lon="-1.08322">
        <ele>19.2</ele>
        <time>2020-05-31T17:09:07Z</time>
      </trkpt>
      <trkpt lat="46.16819" lon="-1.08332">
        <ele>19.1</ele>
        <time>2020-05-31T17:09:08Z</time>
      </trkpt>
      <trkpt lat="46.16818" lon="-1.08343">
        <ele>19.1</ele>
        <time>2020-05-31T17:09:09Z</time>
      </trkpt>
      <trkpt lat="46.16816" lon="-1.08352">
        <ele>19</ele>
        <time>2020-05-31T17:09:10Z</time>
      </trkpt>
      <trkpt lat="46.16814" lon="-1.08363">
        <ele>18.9</ele>
        <time>2020-05-31T17:09:11Z</time>
      </trkpt>
      <trkpt lat="46.16814" lon="-1.08373">
        <ele>18.9</ele>
        <time>2020-05-31T17:09:12Z</time>
      </trkpt>
      <trkpt lat="46.16813" lon="-1.08384">
        <ele>18.9</ele>
        <time>2020-05-31T17:09:13Z</time>
      </trkpt>
      <trkpt lat="46.1681" lon="-1.08393">
        <ele>18.8</ele>
        <time>2020-05-31T17:09:14Z</time>
      </trkpt>
      <trkpt lat="46.16809" lon="-1.08403">
        <ele>18.8</ele>
        <time>2020-05-31T17:09:15Z</time>
      </trkpt>
      <trkpt lat="46.16808" lon="-1.08413">
        <ele>18.7</ele>
        <time>2020-05-31T17:09:16Z</time>
      </trkpt>
      <trkpt lat="46.16806" lon="-1.08424">
        <ele>18.6</ele>
        <time>2020-05-31T17:09:17Z</time>
      </trkpt>
      <trkpt lat="46.16804" lon="-1.08435">
        <ele>18.6</ele>
        <time>2020-05-31T17:09:18Z</time>
      </trkpt>
      <trkpt lat="46.16804" lon="-1.08445">
        <ele>18.5</ele>
        <time>2020-05-31T17:09:19Z</time>
      </trkpt>
      <trkpt lat="46.16803" lon="-1.08456">
        <ele>18.4</ele>
        <time>2020-05-31T17:09:20Z</time>
      </trkpt>
      <trkpt lat="46.16802" lon="-1.08466">
        <ele>18.4</ele>
        <time>2020-05-31T17:09:21Z</time>
      </trkpt>
      <trkpt lat="46.168" lon="-1.08477">
        <ele>18.3</ele>
        <time>2020-05-31T17:09:22Z</time>
      </trkpt>
      <trkpt lat="46.16799" lon="-1.08488">
        <ele>18.2</ele>
        <time>2020-05-31T17:09:23Z</time>
      </trkpt>
      <trkpt lat="46.16798" lon="-1.08499">
        <ele>18.2</ele>
        <time>2020-05-31T17:09:24Z</time>
      </trkpt>
      <trkpt lat="46.16796" lon="-1.08509">
        <ele>18.1</ele>
        <time>2020-05-31T17:09:25Z</time>
      </trkpt>
      <trkpt lat="46.16794" lon="-1.0852">
        <ele>18.1</ele>
        <time>2020-05-31T17:09:26Z</time>
      </trkpt>
      <trkpt lat="46.16793" lon="-1.08531">
        <ele>18</ele>
        <time>2020-05-31T17:09:27Z</time>
      </trkpt>
      <trkpt lat="46.16792" lon="-1.08542">
        <ele>18</ele>
        <time>2020-05-31T17:09:28Z</time>
      </trkpt>
      <trkpt lat="46.1679" lon="-1.08552">
        <ele>17.9</ele>
        <time>2020-05-31T17:09:29Z</time>
      </trkpt>
      <trkpt lat="46.16788" lon="-1.08563">
        <ele>17.9</ele>
        <time>2020-05-31T17:09:30Z</time>
      </trkpt>
      <trkpt lat="46.16787" lon="-1.08573">
        <ele>17.8</ele>
        <time>2020-05-31T17:09:31Z</time>
      </trkpt>
      <trkpt lat="46.16785" lon="-1.08584">
        <ele>17.7</ele>
        <time>2020-05-31T17:09:32Z</time>
      </trkpt>
      <trkpt lat="46.16783" lon="-1.08595">
        <ele>17.6</ele>
        <time>2020-05-31T17:09:33Z</time>
      </trkpt>
      <trkpt lat="46.16782" lon="-1.08605">
        <ele>17.6</ele>
        <time>2020-05-31T17:09:34Z</time>
      </trkpt>
      <trkpt lat="46.1678" lon="-1.08616">
        <ele>17.5</ele>
        <time>2020-05-31T17:09:35Z</time>
      </trkpt>
      <trkpt lat="46.16779" lon="-1.08626">
        <ele>17.4</ele>
        <time>2020-05-31T17:09:36Z</time>
      </trkpt>
      <trkpt lat="46.16778" lon="-1.08637">
        <ele>17.2</ele>
        <time>2020-05-31T17:09:37Z</time>
      </trkpt>
      <trkpt lat="46.16776" lon="-1.08647">
        <ele>17.2</ele>
        <time>2020-05-31T17:09:38Z</time>
      </trkpt>
      <trkpt lat="46.16775" lon="-1.08657">
        <ele>17.1</ele>
        <time>2020-05-31T17:09:39Z</time>
      </trkpt>
      <trkpt lat="46.16774" lon="-1.08668">
        <ele>17</ele>
        <time>2020-05-31T17:09:40Z</time>
      </trkpt>
      <trkpt lat="46.16772" lon="-1.08679">
        <ele>16.9</ele>
        <time>2020-05-31T17:09:41Z</time>
      </trkpt>
      <trkpt lat="46.16771" lon="-1.0869">
        <ele>16.9</ele>
        <time>2020-05-31T17:09:42Z</time>
      </trkpt>
      <trkpt lat="46.16769" lon="-1.08701">
        <ele>16.7</ele>
        <time>2020-05-31T17:09:43Z</time>
      </trkpt>
      <trkpt lat="46.16768" lon="-1.08712">
        <ele>16.6</ele>
        <time>2020-05-31T17:09:44Z</time>
      </trkpt>
      <trkpt lat="46.16766" lon="-1.08723">
        <ele>16.4</ele>
        <time>2020-05-31T17:09:45Z</time>
      </trkpt>
      <trkpt lat="46.16765" lon="-1.08735">
        <ele>16.2</ele>
        <time>2020-05-31T17:09:46Z</time>
      </trkpt>
      <trkpt lat="46.16763" lon="-1.08746">
        <ele>16.1</ele>
        <time>2020-05-31T17:09:47Z</time>
      </trkpt>
      <trkpt lat="46.16762" lon="-1.08758">
        <ele>16</ele>
        <time>2020-05-31T17:09:48Z</time>
      </trkpt>
      <trkpt lat="46.16761" lon="-1.08769">
        <ele>16</ele>
        <time>2020-05-31T17:09:49Z</time>
      </trkpt>
      <trkpt lat="46.16759" lon="-1.0878">
        <ele>16</ele>
        <time>2020-05-31T17:09:50Z</time>
      </trkpt>
      <trkpt lat="46.16757" lon="-1.0879">
        <ele>16</ele>
        <time>2020-05-31T17:09:51Z</time>
      </trkpt>
      <trkpt lat="46.16756" lon="-1.088">
        <ele>16</ele>
        <time>2020-05-31T17:09:52Z</time>
      </trkpt>
      <trkpt lat="46.16754" lon="-1.08811">
        <ele>16</ele>
        <time>2020-05-31T17:09:53Z</time>
      </trkpt>
      <trkpt lat="46.16751" lon="-1.08821">
        <ele>16</ele>
        <time>2020-05-31T17:09:54Z</time>
      </trkpt>
      <trkpt lat="46.1675" lon="-1.08831">
        <ele>16</ele>
        <time>2020-05-31T17:09:55Z</time>
      </trkpt>
      <trkpt lat="46.16748" lon="-1.08842">
        <ele>16</ele>
        <time>2020-05-31T17:09:56Z</time>
      </trkpt>
      <trkpt lat="46.16748" lon="-1.08852">
        <ele>16</ele>
        <time>2020-05-31T17:09:57Z</time>
      </trkpt>
      <trkpt lat="46.16746" lon="-1.08863">
        <ele>16</ele>
        <time>2020-05-31T17:09:58Z</time>
      </trkpt>
      <trkpt lat="46.16746" lon="-1.08873">
        <ele>16</ele>
        <time>2020-05-31T17:09:59Z</time>
      </trkpt>
      <trkpt lat="46.16745" lon="-1.08884">
        <ele>16.1</ele>
        <time>2020-05-31T17:10:00Z</time>
      </trkpt>
      <trkpt lat="46.16743" lon="-1.08894">
        <ele>16</ele>
        <time>2020-05-31T17:10:01Z</time>
      </trkpt>
      <trkpt lat="46.16742" lon="-1.08905">
        <ele>16</ele>
        <time>2020-05-31T17:10:02Z</time>
      </trkpt>
      <trkpt lat="46.1674" lon="-1.08915">
        <ele>16</ele>
        <time>2020-05-31T17:10:03Z</time>
      </trkpt>
      <trkpt lat="46.16738" lon="-1.08926">
        <ele>16</ele>
        <time>2020-05-31T17:10:04Z</time>
      </trkpt>
      <trkpt lat="46.16737" lon="-1.08937">
        <ele>16</ele>
        <time>2020-05-31T17:10:05Z</time>
      </trkpt>
      <trkpt lat="46.16735" lon="-1.08947">
        <ele>16</ele>
        <time>2020-05-31T17:10:06Z</time>
      </trkpt>
      <trkpt lat="46.16733" lon="-1.08957">
        <ele>16</ele>
        <time>2020-05-31T17:10:07Z</time>
      </trkpt>
      <trkpt lat="46.16732" lon="-1.08966">
        <ele>16</ele>
        <time>2020-05-31T17:10:08Z</time>
      </trkpt>
      <trkpt lat="46.1673" lon="-1.08976">
        <ele>16</ele>
        <time>2020-05-31T17:10:09Z</time>
      </trkpt>
      <trkpt lat="46.16729" lon="-1.08986">
        <ele>16</ele>
        <time>2020-05-31T17:10:10Z</time>
      </trkpt>
      <trkpt lat="46.16728" lon="-1.08996">
        <ele>16</ele>
        <time>2020-05-31T17:10:11Z</time>
      </trkpt>
      <trkpt lat="46.16727" lon="-1.09006">
        <ele>15.9</ele>
        <time>2020-05-31T17:10:12Z</time>
      </trkpt>
      <trkpt lat="46.16726" lon="-1.09016">
        <ele>15.7</ele>
        <time>2020-05-31T17:10:13Z</time>
      </trkpt>
      <trkpt lat="46.16724" lon="-1.09025">
        <ele>15.6</ele>
        <time>2020-05-31T17:10:14Z</time>
      </trkpt>
      <trkpt lat="46.16723" lon="-1.09034">
        <ele>15.5</ele>
        <time>2020-05-31T17:10:15Z</time>
      </trkpt>
      <trkpt lat="46.16722" lon="-1.09043">
        <ele>15.4</ele>
        <time>2020-05-31T17:10:16Z</time>
      </trkpt>
      <trkpt lat="46.16721" lon="-1.09053">
        <ele>15.3</ele>
        <time>2020-05-31T17:10:17Z</time>
      </trkpt>
      <trkpt lat="46.1672" lon="-1.09062">
        <ele>15.3</ele>
        <time>2020-05-31T17:10:18Z</time>
      </trkpt>
      <trkpt lat="46.16719" lon="-1.09072">
        <ele>15.3</ele>
        <time>2020-05-31T17:10:19Z</time>
      </trkpt>
      <trkpt lat="46.16718" lon="-1.09081">
        <ele>15.3</ele>
        <time>2020-05-31T17:10:20Z</time>
      </trkpt>
      <trkpt lat="46.16718" lon="-1.0909">
        <ele>15.3</ele>
        <time>2020-05-31T17:10:21Z</time>
      </trkpt>
      <trkpt lat="46.16716" lon="-1.09099">
        <ele>15.2</ele>
        <time>2020-05-31T17:10:22Z</time>
      </trkpt>
      <trkpt lat="46.16715" lon="-1.09108">
        <ele>15.2</ele>
        <time>2020-05-31T17:10:23Z</time>
      </trkpt>
      <trkpt lat="46.16714" lon="-1.09117">
        <ele>15.1</ele>
        <time>2020-05-31T17:10:24Z</time>
      </trkpt>
      <trkpt lat="46.16713" lon="-1.09127">
        <ele>14.9</ele>
        <time>2020-05-31T17:10:25Z</time>
      </trkpt>
      <trkpt lat="46.16713" lon="-1.09137">
        <ele>14.8</ele>
        <time>2020-05-31T17:10:26Z</time>
      </trkpt>
      <trkpt lat="46.16712" lon="-1.09147">
        <ele>14.7</ele>
        <time>2020-05-31T17:10:27Z</time>
      </trkpt>
      <trkpt lat="46.16712" lon="-1.09157">
        <ele>14.6</ele>
        <time>2020-05-31T17:10:28Z</time>
      </trkpt>
      <trkpt lat="46.16712" lon="-1.09167">
        <ele>14.6</ele>
        <time>2020-05-31T17:10:29Z</time>
      </trkpt>
      <trkpt lat="46.16713" lon="-1.09177">
        <ele>14.5</ele>
        <time>2020-05-31T17:10:30Z</time>
      </trkpt>
      <trkpt lat="46.16713" lon="-1.09188">
        <ele>14.5</ele>
        <time>2020-05-31T17:10:31Z</time>
      </trkpt>
      <trkpt lat="46.16714" lon="-1.09198">
        <ele>14.5</ele>
        <time>2020-05-31T17:10:32Z</time>
      </trkpt>
      <trkpt lat="46.16715" lon="-1.09208">
        <ele>14.4</ele>
        <time>2020-05-31T17:10:33Z</time>
      </trkpt>
      <trkpt lat="46.16716" lon="-1.09219">
        <ele>14.4</ele>
        <time>2020-05-31T17:10:34Z</time>
      </trkpt>
      <trkpt lat="46.16717" lon="-1.09229">
        <ele>14.4</ele>
        <time>2020-05-31T17:10:35Z</time>
      </trkpt>
      <trkpt lat="46.16718" lon="-1.09239">
        <ele>14.4</ele>
        <time>2020-05-31T17:10:36Z</time>
      </trkpt>
      <trkpt lat="46.1672" lon="-1.09249">
        <ele>14.4</ele>
        <time>2020-05-31T17:10:37Z</time>
      </trkpt>
      <trkpt lat="46.16721" lon="-1.09259">
        <ele>14.3</ele>
        <time>2020-05-31T17:10:38Z</time>
      </trkpt>
      <trkpt lat="46.16723" lon="-1.09269">
        <ele>14.3</ele>
        <time>2020-05-31T17:10:39Z</time>
      </trkpt>
      <trkpt lat="46.16725" lon="-1.09279">
        <ele>14.2</ele>
        <time>2020-05-31T17:10:40Z</time>
      </trkpt>
      <trkpt lat="46.16726" lon="-1.0929">
        <ele>14.1</ele>
        <time>2020-05-31T17:10:41Z</time>
      </trkpt>
      <trkpt lat="46.16728" lon="-1.093">
        <ele>14.1</ele>
        <time>2020-05-31T17:10:42Z</time>
      </trkpt>
      <trkpt lat="46.1673" lon="-1.0931">
        <ele>14</ele>
        <time>2020-05-31T17:10:43Z</time>
      </trkpt>
      <trkpt lat="46.16731" lon="-1.09321">
        <ele>13.9</ele>
        <time>2020-05-31T17:10:44Z</time>
      </trkpt>
      <trkpt lat="46.16733" lon="-1.09331">
        <ele>13.8</ele>
        <time>2020-05-31T17:10:45Z</time>
      </trkpt>
      <trkpt lat="46.16735" lon="-1.09341">
        <ele>13.8</ele>
        <time>2020-05-31T17:10:46Z</time>
      </trkpt>
      <trkpt lat="46.16737" lon="-1.09351">
        <ele>13.7</ele>
        <time>2020-05-31T17:10:47Z</time>
      </trkpt>
      <trkpt lat="46.16739" lon="-1.09361">
        <ele>13.6</ele>
        <time>2020-05-31T17:10:48Z</time>
      </trkpt>
      <trkpt lat="46.16741" lon="-1.09371">
        <ele>13.5</ele>
        <time>2020-05-31T17:10:49Z</time>
      </trkpt>
      <trkpt lat="46.16744" lon="-1.09382">
        <ele>13.5</ele>
        <time>2020-05-31T17:10:50Z</time>
      </trkpt>
      <trkpt lat="46.16746" lon="-1.09392">
        <ele>13.5</ele>
        <time>2020-05-31T17:10:51Z</time>
      </trkpt>
      <trkpt lat="46.16748" lon="-1.09402">
        <ele>13.4</ele>
        <time>2020-05-31T17:10:52Z</time>
      </trkpt>
      <trkpt lat="46.1675" lon="-1.09413">
        <ele>13.4</ele>
        <time>2020-05-31T17:10:53Z</time>
      </trkpt>
      <trkpt lat="46.16752" lon="-1.09423">
        <ele>13.4</ele>
        <time>2020-05-31T17:10:54Z</time>
      </trkpt>
      <trkpt lat="46.16753" lon="-1.09433">
        <ele>13.3</ele>
        <time>2020-05-31T17:10:55Z</time>
      </trkpt>
      <trkpt lat="46.16755" lon="-1.09443">
        <ele>13.3</ele>
        <time>2020-05-31T17:10:56Z</time>
      </trkpt>
      <trkpt lat="46.16756" lon="-1.09453">
        <ele>13.3</ele>
        <time>2020-05-31T17:10:57Z</time>
      </trkpt>
      <trkpt lat="46.16758" lon="-1.09463">
        <ele>13.3</ele>
        <time>2020-05-31T17:10:58Z</time>
      </trkpt>
      <trkpt lat="46.1676" lon="-1.09473">
        <ele>13.2</ele>
        <time>2020-05-31T17:10:59Z</time>
      </trkpt>
      <trkpt lat="46.16762" lon="-1.09483">
        <ele>13.2</ele>
        <time>2020-05-31T17:11:00Z</time>
      </trkpt>
      <trkpt lat="46.16765" lon="-1.09493">
        <ele>13.2</ele>
        <time>2020-05-31T17:11:01Z</time>
      </trkpt>
      <trkpt lat="46.16767" lon="-1.09503">
        <ele>13.2</ele>
        <time>2020-05-31T17:11:02Z</time>
      </trkpt>
      <trkpt lat="46.16769" lon="-1.09512">
        <ele>13.2</ele>
        <time>2020-05-31T17:11:03Z</time>
      </trkpt>
      <trkpt lat="46.1677" lon="-1.09523">
        <ele>13.1</ele>
        <time>2020-05-31T17:11:04Z</time>
      </trkpt>
      <trkpt lat="46.16772" lon="-1.09533">
        <ele>13.1</ele>
        <time>2020-05-31T17:11:05Z</time>
      </trkpt>
      <trkpt lat="46.16773" lon="-1.09543">
        <ele>13.1</ele>
        <time>2020-05-31T17:11:06Z</time>
      </trkpt>
      <trkpt lat="46.16775" lon="-1.09552">
        <ele>13.1</ele>
        <time>2020-05-31T17:11:07Z</time>
      </trkpt>
      <trkpt lat="46.16776" lon="-1.09562">
        <ele>13.1</ele>
        <time>2020-05-31T17:11:08Z</time>
      </trkpt>
      <trkpt lat="46.16778" lon="-1.09572">
        <ele>13.1</ele>
        <time>2020-05-31T17:11:09Z</time>
      </trkpt>
      <trkpt lat="46.16779" lon="-1.09582">
        <ele>13.1</ele>
        <time>2020-05-31T17:11:10Z</time>
      </trkpt>
      <trkpt lat="46.16781" lon="-1.09592">
        <ele>13.1</ele>
        <time>2020-05-31T17:11:11Z</time>
      </trkpt>
      <trkpt lat="46.16783" lon="-1.09602">
        <ele>13.1</ele>
        <time>2020-05-31T17:11:12Z</time>
      </trkpt>
      <trkpt lat="46.16784" lon="-1.09612">
        <ele>13.2</ele>
        <time>2020-05-31T17:11:13Z</time>
      </trkpt>
      <trkpt lat="46.16786" lon="-1.09622">
        <ele>13.2</ele>
        <time>2020-05-31T17:11:14Z</time>
      </trkpt>
      <trkpt lat="46.16787" lon="-1.09631">
        <ele>13.2</ele>
        <time>2020-05-31T17:11:15Z</time>
      </trkpt>
      <trkpt lat="46.16789" lon="-1.09641">
        <ele>13.2</ele>
        <time>2020-05-31T17:11:16Z</time>
      </trkpt>
      <trkpt lat="46.16791" lon="-1.09651">
        <ele>13.2</ele>
        <time>2020-05-31T17:11:17Z</time>
      </trkpt>
      <trkpt lat="46.16793" lon="-1.09661">
        <ele>13.2</ele>
        <time>2020-05-31T17:11:18Z</time>
      </trkpt>
      <trkpt lat="46.16795" lon="-1.09671">
        <ele>13.2</ele>
        <time>2020-05-31T17:11:19Z</time>
      </trkpt>
      <trkpt lat="46.16796" lon="-1.09681">
        <ele>13.2</ele>
        <time>2020-05-31T17:11:20Z</time>
      </trkpt>
      <trkpt lat="46.16797" lon="-1.09691">
        <ele>13.2</ele>
        <time>2020-05-31T17:11:21Z</time>
      </trkpt>
      <trkpt lat="46.16799" lon="-1.09701">
        <ele>13.2</ele>
        <time>2020-05-31T17:11:22Z</time>
      </trkpt>
      <trkpt lat="46.16801" lon="-1.09711">
        <ele>13.2</ele>
        <time>2020-05-31T17:11:23Z</time>
      </trkpt>
      <trkpt lat="46.16803" lon="-1.09721">
        <ele>13.2</ele>
        <time>2020-05-31T17:11:24Z</time>
      </trkpt>
      <trkpt lat="46.16805" lon="-1.09731">
        <ele>13.2</ele>
        <time>2020-05-31T17:11:25Z</time>
      </trkpt>
      <trkpt lat="46.16807" lon="-1.0974">
        <ele>13.2</ele>
        <time>2020-05-31T17:11:26Z</time>
      </trkpt>
      <trkpt lat="46.16809" lon="-1.0975">
        <ele>13.2</ele>
        <time>2020-05-31T17:11:27Z</time>
      </trkpt>
      <trkpt lat="46.1681" lon="-1.0976">
        <ele>13.2</ele>
        <time>2020-05-31T17:11:28Z</time>
      </trkpt>
      <trkpt lat="46.16812" lon="-1.09769">
        <ele>13.2</ele>
        <time>2020-05-31T17:11:29Z</time>
      </trkpt>
      <trkpt lat="46.16813" lon="-1.09779">
        <ele>13.1</ele>
        <time>2020-05-31T17:11:30Z</time>
      </trkpt>
      <trkpt lat="46.16815" lon="-1.09788">
        <ele>13.1</ele>
        <time>2020-05-31T17:11:31Z</time>
      </trkpt>
      <trkpt lat="46.16816" lon="-1.09798">
        <ele>13.1</ele>
        <time>2020-05-31T17:11:32Z</time>
      </trkpt>
      <trkpt lat="46.16817" lon="-1.09807">
        <ele>13</ele>
        <time>2020-05-31T17:11:33Z</time>
      </trkpt>
      <trkpt lat="46.16819" lon="-1.09816">
        <ele>13</ele>
        <time>2020-05-31T17:11:34Z</time>
      </trkpt>
      <trkpt lat="46.16821" lon="-1.09825">
        <ele>13</ele>
        <time>2020-05-31T17:11:35Z</time>
      </trkpt>
      <trkpt lat="46.16823" lon="-1.09834">
        <ele>12.9</ele>
        <time>2020-05-31T17:11:36Z</time>
      </trkpt>
      <trkpt lat="46.16824" lon="-1.09843">
        <ele>12.9</ele>
        <time>2020-05-31T17:11:37Z</time>
      </trkpt>
      <trkpt lat="46.16825" lon="-1.09852">
        <ele>12.9</ele>
        <time>2020-05-31T17:11:38Z</time>
      </trkpt>
      <trkpt lat="46.16827" lon="-1.09861">
        <ele>12.9</ele>
        <time>2020-05-31T17:11:39Z</time>
      </trkpt>
      <trkpt lat="46.16829" lon="-1.09871">
        <ele>12.8</ele>
        <time>2020-05-31T17:11:40Z</time>
      </trkpt>
      <trkpt lat="46.16831" lon="-1.0988">
        <ele>12.8</ele>
        <time>2020-05-31T17:11:41Z</time>
      </trkpt>
      <trkpt lat="46.16833" lon="-1.09889">
        <ele>12.7</ele>
        <time>2020-05-31T17:11:42Z</time>
      </trkpt>
      <trkpt lat="46.16835" lon="-1.09899">
        <ele>12.7</ele>
        <time>2020-05-31T17:11:43Z</time>
      </trkpt>
      <trkpt lat="46.16835" lon="-1.09909">
        <ele>12.6</ele>
        <time>2020-05-31T17:11:44Z</time>
      </trkpt>
      <trkpt lat="46.16836" lon="-1.09918">
        <ele>12.5</ele>
        <time>2020-05-31T17:11:45Z</time>
      </trkpt>
      <trkpt lat="46.16837" lon="-1.09928">
        <ele>12.5</ele>
        <time>2020-05-31T17:11:46Z</time>
      </trkpt>
      <trkpt lat="46.16839" lon="-1.09937">
        <ele>12.5</ele>
        <time>2020-05-31T17:11:47Z</time>
      </trkpt>
      <trkpt lat="46.16841" lon="-1.09947">
        <ele>12.5</ele>
        <time>2020-05-31T17:11:48Z</time>
      </trkpt>
      <trkpt lat="46.16843" lon="-1.09956">
        <ele>12.4</ele>
        <time>2020-05-31T17:11:49Z</time>
      </trkpt>
      <trkpt lat="46.16845" lon="-1.09965">
        <ele>12.4</ele>
        <time>2020-05-31T17:11:50Z</time>
      </trkpt>
      <trkpt lat="46.16847" lon="-1.09974">
        <ele>12.4</ele>
        <time>2020-05-31T17:11:51Z</time>
      </trkpt>
      <trkpt lat="46.16847" lon="-1.09984">
        <ele>12.4</ele>
        <time>2020-05-31T17:11:52Z</time>
      </trkpt>
      <trkpt lat="46.16849" lon="-1.09993">
        <ele>12.4</ele>
        <time>2020-05-31T17:11:53Z</time>
      </trkpt>
      <trkpt lat="46.16851" lon="-1.10002">
        <ele>12.3</ele>
        <time>2020-05-31T17:11:54Z</time>
      </trkpt>
      <trkpt lat="46.16853" lon="-1.1001">
        <ele>12.3</ele>
        <time>2020-05-31T17:11:55Z</time>
      </trkpt>
      <trkpt lat="46.16854" lon="-1.1002">
        <ele>12.2</ele>
        <time>2020-05-31T17:11:56Z</time>
      </trkpt>
      <trkpt lat="46.16855" lon="-1.10029">
        <ele>12.2</ele>
        <time>2020-05-31T17:11:57Z</time>
      </trkpt>
      <trkpt lat="46.16857" lon="-1.10038">
        <ele>12.1</ele>
        <time>2020-05-31T17:11:58Z</time>
      </trkpt>
      <trkpt lat="46.16858" lon="-1.10048">
        <ele>12</ele>
        <time>2020-05-31T17:11:59Z</time>
      </trkpt>
      <trkpt lat="46.16859" lon="-1.10057">
        <ele>12</ele>
        <time>2020-05-31T17:12:00Z</time>
      </trkpt>
      <trkpt lat="46.16862" lon="-1.10066">
        <ele>11.9</ele>
        <time>2020-05-31T17:12:01Z</time>
      </trkpt>
      <trkpt lat="46.16863" lon="-1.10075">
        <ele>11.9</ele>
        <time>2020-05-31T17:12:02Z</time>
      </trkpt>
      <trkpt lat="46.16865" lon="-1.10084">
        <ele>11.8</ele>
        <time>2020-05-31T17:12:03Z</time>
      </trkpt>
      <trkpt lat="46.16866" lon="-1.10093">
        <ele>11.8</ele>
        <time>2020-05-31T17:12:04Z</time>
      </trkpt>
      <trkpt lat="46.16868" lon="-1.10102">
        <ele>11.7</ele>
        <time>2020-05-31T17:12:05Z</time>
      </trkpt>
      <trkpt lat="46.1687" lon="-1.10111">
        <ele>11.6</ele>
        <time>2020-05-31T17:12:06Z</time>
      </trkpt>
      <trkpt lat="46.16871" lon="-1.10121">
        <ele>11.6</ele>
        <time>2020-05-31T17:12:07Z</time>
      </trkpt>
      <trkpt lat="46.16873" lon="-1.10131">
        <ele>11.5</ele>
        <time>2020-05-31T17:12:08Z</time>
      </trkpt>
      <trkpt lat="46.16875" lon="-1.10141">
        <ele>11.4</ele>
        <time>2020-05-31T17:12:09Z</time>
      </trkpt>
      <trkpt lat="46.16877" lon="-1.10151">
        <ele>11.3</ele>
        <time>2020-05-31T17:12:10Z</time>
      </trkpt>
      <trkpt lat="46.16878" lon="-1.10161">
        <ele>11.3</ele>
        <time>2020-05-31T17:12:11Z</time>
      </trkpt>
      <trkpt lat="46.1688" lon="-1.10171">
        <ele>11.2</ele>
        <time>2020-05-31T17:12:12Z</time>
      </trkpt>
      <trkpt lat="46.16881" lon="-1.1018">
        <ele>11.1</ele>
        <time>2020-05-31T17:12:13Z</time>
      </trkpt>
      <trkpt lat="46.16882" lon="-1.1019">
        <ele>11.1</ele>
        <time>2020-05-31T17:12:14Z</time>
      </trkpt>
      <trkpt lat="46.16884" lon="-1.102">
        <ele>11</ele>
        <time>2020-05-31T17:12:15Z</time>
      </trkpt>
      <trkpt lat="46.16885" lon="-1.1021">
        <ele>11</ele>
        <time>2020-05-31T17:12:16Z</time>
      </trkpt>
      <trkpt lat="46.16886" lon="-1.1022">
        <ele>10.9</ele>
        <time>2020-05-31T17:12:17Z</time>
      </trkpt>
      <trkpt lat="46.16887" lon="-1.1023">
        <ele>10.8</ele>
        <time>2020-05-31T17:12:18Z</time>
      </trkpt>
      <trkpt lat="46.16888" lon="-1.1024">
        <ele>10.7</ele>
        <time>2020-05-31T17:12:19Z</time>
      </trkpt>
      <trkpt lat="46.16889" lon="-1.1025">
        <ele>10.6</ele>
        <time>2020-05-31T17:12:20Z</time>
      </trkpt>
      <trkpt lat="46.1689" lon="-1.1026">
        <ele>10.5</ele>
        <time>2020-05-31T17:12:21Z</time>
      </trkpt>
      <trkpt lat="46.16891" lon="-1.1027">
        <ele>10.4</ele>
        <time>2020-05-31T17:12:22Z</time>
      </trkpt>
      <trkpt lat="46.16891" lon="-1.1028">
        <ele>10.3</ele>
        <time>2020-05-31T17:12:23Z</time>
      </trkpt>
      <trkpt lat="46.1689" lon="-1.1029">
        <ele>10.3</ele>
        <time>2020-05-31T17:12:24Z</time>
      </trkpt>
      <trkpt lat="46.1689" lon="-1.10299">
        <ele>10.2</ele>
        <time>2020-05-31T17:12:25Z</time>
      </trkpt>
      <trkpt lat="46.16889" lon="-1.10309">
        <ele>10.1</ele>
        <time>2020-05-31T17:12:26Z</time>
      </trkpt>
      <trkpt lat="46.16889" lon="-1.10318">
        <ele>10.1</ele>
        <time>2020-05-31T17:12:27Z</time>
      </trkpt>
      <trkpt lat="46.16889" lon="-1.10328">
        <ele>10</ele>
        <time>2020-05-31T17:12:28Z</time>
      </trkpt>
      <trkpt lat="46.16889" lon="-1.10338">
        <ele>9.9</ele>
        <time>2020-05-31T17:12:29Z</time>
      </trkpt>
      <trkpt lat="46.16888" lon="-1.10348">
        <ele>9.9</ele>
        <time>2020-05-31T17:12:30Z</time>
      </trkpt>
      <trkpt lat="46.16887" lon="-1.10358">
        <ele>9.8</ele>
        <time>2020-05-31T17:12:31Z</time>
      </trkpt>
      <trkpt lat="46.16886" lon="-1.10368">
        <ele>9.7</ele>
        <time>2020-05-31T17:12:32Z</time>
      </trkpt>
      <trkpt lat="46.16885" lon="-1.10378">
        <ele>9.6</ele>
        <time>2020-05-31T17:12:33Z</time>
      </trkpt>
      <trkpt lat="46.16883" lon="-1.10388">
        <ele>9.5</ele>
        <time>2020-05-31T17:12:34Z</time>
      </trkpt>
      <trkpt lat="46.16881" lon="-1.10398">
        <ele>9.5</ele>
        <time>2020-05-31T17:12:35Z</time>
      </trkpt>
      <trkpt lat="46.16878" lon="-1.10407">
        <ele>9.4</ele>
        <time>2020-05-31T17:12:36Z</time>
      </trkpt>
      <trkpt lat="46.16876" lon="-1.10417">
        <ele>9.3</ele>
        <time>2020-05-31T17:12:37Z</time>
      </trkpt>
      <trkpt lat="46.16875" lon="-1.10427">
        <ele>9.3</ele>
        <time>2020-05-31T17:12:38Z</time>
      </trkpt>
      <trkpt lat="46.16872" lon="-1.10437">
        <ele>9.2</ele>
        <time>2020-05-31T17:12:39Z</time>
      </trkpt>
      <trkpt lat="46.1687" lon="-1.10448">
        <ele>9.2</ele>
        <time>2020-05-31T17:12:40Z</time>
      </trkpt>
      <trkpt lat="46.16867" lon="-1.10458">
        <ele>9.1</ele>
        <time>2020-05-31T17:12:41Z</time>
      </trkpt>
      <trkpt lat="46.16865" lon="-1.10468">
        <ele>9.1</ele>
        <time>2020-05-31T17:12:42Z</time>
      </trkpt>
      <trkpt lat="46.16861" lon="-1.10478">
        <ele>9.1</ele>
        <time>2020-05-31T17:12:43Z</time>
      </trkpt>
      <trkpt lat="46.16859" lon="-1.10489">
        <ele>9</ele>
        <time>2020-05-31T17:12:44Z</time>
      </trkpt>
      <trkpt lat="46.16854" lon="-1.105">
        <ele>8.9</ele>
        <time>2020-05-31T17:12:45Z</time>
      </trkpt>
      <trkpt lat="46.16851" lon="-1.1051">
        <ele>8.7</ele>
        <time>2020-05-31T17:12:46Z</time>
      </trkpt>
      <trkpt lat="46.16846" lon="-1.1052">
        <ele>8.5</ele>
        <time>2020-05-31T17:12:47Z</time>
      </trkpt>
      <trkpt lat="46.16842" lon="-1.10531">
        <ele>8.4</ele>
        <time>2020-05-31T17:12:48Z</time>
      </trkpt>
      <trkpt lat="46.16838" lon="-1.10541">
        <ele>8.3</ele>
        <time>2020-05-31T17:12:49Z</time>
      </trkpt>
      <trkpt lat="46.16834" lon="-1.10551">
        <ele>8.3</ele>
        <time>2020-05-31T17:12:50Z</time>
      </trkpt>
      <trkpt lat="46.16829" lon="-1.10561">
        <ele>8.3</ele>
        <time>2020-05-31T17:12:51Z</time>
      </trkpt>
      <trkpt lat="46.16825" lon="-1.10571">
        <ele>8.3</ele>
        <time>2020-05-31T17:12:52Z</time>
      </trkpt>
      <trkpt lat="46.1682" lon="-1.10581">
        <ele>8.3</ele>
        <time>2020-05-31T17:12:53Z</time>
      </trkpt>
      <trkpt lat="46.16816" lon="-1.10591">
        <ele>8.2</ele>
        <time>2020-05-31T17:12:54Z</time>
      </trkpt>
      <trkpt lat="46.16812" lon="-1.10601">
        <ele>8.2</ele>
        <time>2020-05-31T17:12:55Z</time>
      </trkpt>
      <trkpt lat="46.16808" lon="-1.10611">
        <ele>8.3</ele>
        <time>2020-05-31T17:12:56Z</time>
      </trkpt>
      <trkpt lat="46.16803" lon="-1.10621">
        <ele>8.3</ele>
        <time>2020-05-31T17:12:57Z</time>
      </trkpt>
      <trkpt lat="46.16798" lon="-1.1063">
        <ele>8.3</ele>
        <time>2020-05-31T17:12:58Z</time>
      </trkpt>
      <trkpt lat="46.16793" lon="-1.1064">
        <ele>8.3</ele>
        <time>2020-05-31T17:12:59Z</time>
      </trkpt>
      <trkpt lat="46.16788" lon="-1.1065">
        <ele>8.3</ele>
        <time>2020-05-31T17:13:00Z</time>
      </trkpt>
      <trkpt lat="46.16784" lon="-1.1066">
        <ele>8.3</ele>
        <time>2020-05-31T17:13:01Z</time>
      </trkpt>
      <trkpt lat="46.16779" lon="-1.1067">
        <ele>8.3</ele>
        <time>2020-05-31T17:13:02Z</time>
      </trkpt>
      <trkpt lat="46.16774" lon="-1.10679">
        <ele>8.3</ele>
        <time>2020-05-31T17:13:03Z</time>
      </trkpt>
      <trkpt lat="46.1677" lon="-1.10688">
        <ele>8.3</ele>
        <time>2020-05-31T17:13:04Z</time>
      </trkpt>
      <trkpt lat="46.16765" lon="-1.10698">
        <ele>8.3</ele>
        <time>2020-05-31T17:13:05Z</time>
      </trkpt>
      <trkpt lat="46.16761" lon="-1.10708">
        <ele>8.3</ele>
        <time>2020-05-31T17:13:06Z</time>
      </trkpt>
      <trkpt lat="46.16758" lon="-1.10717">
        <ele>8.3</ele>
        <time>2020-05-31T17:13:07Z</time>
      </trkpt>
      <trkpt lat="46.16753" lon="-1.10726">
        <ele>8.3</ele>
        <time>2020-05-31T17:13:08Z</time>
      </trkpt>
      <trkpt lat="46.1675" lon="-1.10735">
        <ele>8.3</ele>
        <time>2020-05-31T17:13:09Z</time>
      </trkpt>
      <trkpt lat="46.16746" lon="-1.10744">
        <ele>8.3</ele>
        <time>2020-05-31T17:13:10Z</time>
      </trkpt>
      <trkpt lat="46.16742" lon="-1.10753">
        <ele>8.3</ele>
        <time>2020-05-31T17:13:11Z</time>
      </trkpt>
      <trkpt lat="46.16737" lon="-1.10761">
        <ele>8.3</ele>
        <time>2020-05-31T17:13:12Z</time>
      </trkpt>
      <trkpt lat="46.16733" lon="-1.10769">
        <ele>8.3</ele>
        <time>2020-05-31T17:13:13Z</time>
      </trkpt>
      <trkpt lat="46.16729" lon="-1.10777">
        <ele>8.3</ele>
        <time>2020-05-31T17:13:14Z</time>
      </trkpt>
      <trkpt lat="46.16725" lon="-1.10786">
        <ele>8.3</ele>
        <time>2020-05-31T17:13:15Z</time>
      </trkpt>
      <trkpt lat="46.16721" lon="-1.10794">
        <ele>8.3</ele>
        <time>2020-05-31T17:13:16Z</time>
      </trkpt>
      <trkpt lat="46.16716" lon="-1.10801">
        <ele>8.3</ele>
        <time>2020-05-31T17:13:17Z</time>
      </trkpt>
      <trkpt lat="46.16712" lon="-1.10809">
        <ele>8.3</ele>
        <time>2020-05-31T17:13:18Z</time>
      </trkpt>
      <trkpt lat="46.16707" lon="-1.10816">
        <ele>8.4</ele>
        <time>2020-05-31T17:13:19Z</time>
      </trkpt>
      <trkpt lat="46.16702" lon="-1.10823">
        <ele>8.4</ele>
        <time>2020-05-31T17:13:20Z</time>
      </trkpt>
      <trkpt lat="46.16697" lon="-1.10829">
        <ele>8.4</ele>
        <time>2020-05-31T17:13:21Z</time>
      </trkpt>
      <trkpt lat="46.16693" lon="-1.10834">
        <ele>8.4</ele>
        <time>2020-05-31T17:13:22Z</time>
      </trkpt>
      <trkpt lat="46.16689" lon="-1.10839">
        <ele>8.4</ele>
        <time>2020-05-31T17:13:23Z</time>
      </trkpt>
      <trkpt lat="46.16687" lon="-1.10844">
        <ele>8.3</ele>
        <time>2020-05-31T17:13:24Z</time>
      </trkpt>
      <trkpt lat="46.16685" lon="-1.10849">
        <ele>8.3</ele>
        <time>2020-05-31T17:13:25Z</time>
      </trkpt>
      <trkpt lat="46.16685" lon="-1.10853">
        <ele>8.3</ele>
        <time>2020-05-31T17:13:26Z</time>
      </trkpt>
      <trkpt lat="46.16687" lon="-1.10858">
        <ele>8.3</ele>
        <time>2020-05-31T17:13:27Z</time>
      </trkpt>
      <trkpt lat="46.16688" lon="-1.10862">
        <ele>8.3</ele>
        <time>2020-05-31T17:13:28Z</time>
      </trkpt>
      <trkpt lat="46.1669" lon="-1.10865">
        <ele>8.2</ele>
        <time>2020-05-31T17:13:29Z</time>
      </trkpt>
      <trkpt lat="46.16693" lon="-1.10869">
        <ele>8.2</ele>
        <time>2020-05-31T17:13:30Z</time>
      </trkpt>
      <trkpt lat="46.16696" lon="-1.10873">
        <ele>8.2</ele>
        <time>2020-05-31T17:13:31Z</time>
      </trkpt>
      <trkpt lat="46.16699" lon="-1.10877">
        <ele>8.3</ele>
        <time>2020-05-31T17:13:32Z</time>
      </trkpt>
      <trkpt lat="46.16702" lon="-1.10881">
        <ele>8.3</ele>
        <time>2020-05-31T17:13:33Z</time>
      </trkpt>
      <trkpt lat="46.16705" lon="-1.10884">
        <ele>8.3</ele>
        <time>2020-05-31T17:13:34Z</time>
      </trkpt>
      <trkpt lat="46.16709" lon="-1.10885">
        <ele>8.3</ele>
        <time>2020-05-31T17:13:35Z</time>
      </trkpt>
      <trkpt lat="46.16712" lon="-1.10889">
        <ele>8.3</ele>
        <time>2020-05-31T17:13:36Z</time>
      </trkpt>
      <trkpt lat="46.16714" lon="-1.10892">
        <ele>8.4</ele>
        <time>2020-05-31T17:13:37Z</time>
      </trkpt>
      <trkpt lat="46.16714" lon="-1.10895">
        <ele>8.4</ele>
        <time>2020-05-31T17:13:38Z</time>
      </trkpt>
      <trkpt lat="46.16714" lon="-1.10896">
        <ele>8.4</ele>
        <time>2020-05-31T17:13:39Z</time>
      </trkpt>
      <trkpt lat="46.16714" lon="-1.10897">
        <ele>8.4</ele>
        <time>2020-05-31T17:13:40Z</time>
      </trkpt>
      <trkpt lat="46.16716" lon="-1.10901">
        <ele>8.4</ele>
        <time>2020-05-31T17:13:41Z</time>
      </trkpt>
      <trkpt lat="46.16716" lon="-1.10906">
        <ele>8.4</ele>
        <time>2020-05-31T17:13:42Z</time>
      </trkpt>
      <trkpt lat="46.16716" lon="-1.10907">
        <ele>8.4</ele>
        <time>2020-05-31T17:13:43Z</time>
      </trkpt>
      <trkpt lat="46.16716" lon="-1.10909">
        <ele>8.4</ele>
        <time>2020-05-31T17:13:44Z</time>
      </trkpt>
      <trkpt lat="46.16716" lon="-1.10909">
        <ele>8.4</ele>
        <time>2020-05-31T17:13:45Z</time>
      </trkpt>
      <trkpt lat="46.16717" lon="-1.1091">
        <ele>8.4</ele>
        <time>2020-05-31T17:13:46Z</time>
      </trkpt>
      <trkpt lat="46.16717" lon="-1.1091">
        <ele>8.4</ele>
        <time>2020-05-31T17:13:47Z</time>
      </trkpt>
      <trkpt lat="46.16717" lon="-1.10911">
        <ele>8.4</ele>
        <time>2020-05-31T17:13:48Z</time>
      </trkpt>
      <trkpt lat="46.16717" lon="-1.10911">
        <ele>8.4</ele>
        <time>2020-05-31T17:13:49Z</time>
      </trkpt>
      <trkpt lat="46.16717" lon="-1.10912">
        <ele>8.4</ele>
        <time>2020-05-31T17:13:50Z</time>
      </trkpt>
      <trkpt lat="46.16717" lon="-1.10912">
        <ele>8.4</ele>
        <time>2020-05-31T17:13:51Z</time>
      </trkpt>
      <trkpt lat="46.16718" lon="-1.10913">
        <ele>8.4</ele>
        <time>2020-05-31T17:13:52Z</time>
      </trkpt>
      <trkpt lat="46.16718" lon="-1.10913">
        <ele>8.4</ele>
        <time>2020-05-31T17:13:53Z</time>
      </trkpt>
      <trkpt lat="46.16717" lon="-1.10914">
        <ele>8.4</ele>
        <time>2020-05-31T17:13:54Z</time>
      </trkpt>
      <trkpt lat="46.16718" lon="-1.10914">
        <ele>8.4</ele>
        <time>2020-05-31T17:13:55Z</time>
      </trkpt>
      <trkpt lat="46.16718" lon="-1.10914">
        <ele>8.4</ele>
        <time>2020-05-31T17:13:56Z</time>
      </trkpt>
      <trkpt lat="46.16718" lon="-1.10914">
        <ele>8.4</ele>
        <time>2020-05-31T17:13:57Z</time>
      </trkpt>
      <trkpt lat="46.16718" lon="-1.10914">
        <ele>8.4</ele>
        <time>2020-05-31T17:13:58Z</time>
      </trkpt>
      <trkpt lat="46.16719" lon="-1.10914">
        <ele>8.4</ele>
        <time>2020-05-31T17:13:59Z</time>
      </trkpt>
      <trkpt lat="46.1672" lon="-1.10914">
        <ele>8.4</ele>
        <time>2020-05-31T17:14:00Z</time>
      </trkpt>
      <trkpt lat="46.1672" lon="-1.10914">
        <ele>8.4</ele>
        <time>2020-05-31T17:14:01Z</time>
      </trkpt>
      <trkpt lat="46.16721" lon="-1.10914">
        <ele>8.4</ele>
        <time>2020-05-31T17:14:02Z</time>
      </trkpt>
      <trkpt lat="46.16721" lon="-1.10913">
        <ele>8.4</ele>
        <time>2020-05-31T17:14:03Z</time>
      </trkpt>
      <trkpt lat="46.1672" lon="-1.10914">
        <ele>8.4</ele>
        <time>2020-05-31T17:14:04Z</time>
      </trkpt>
      <trkpt lat="46.16721" lon="-1.10913">
        <ele>8.4</ele>
        <time>2020-05-31T17:14:05Z</time>
      </trkpt>
      <trkpt lat="46.16722" lon="-1.10912">
        <ele>8.4</ele>
        <time>2020-05-31T17:14:06Z</time>
      </trkpt>
      <trkpt lat="46.16721" lon="-1.10913">
        <ele>8.4</ele>
        <time>2020-05-31T17:14:07Z</time>
      </trkpt>
      <trkpt lat="46.16722" lon="-1.10912">
        <ele>8.4</ele>
        <time>2020-05-31T17:14:08Z</time>
      </trkpt>
      <trkpt lat="46.16722" lon="-1.10913">
        <ele>8.4</ele>
        <time>2020-05-31T17:14:09Z</time>
      </trkpt>
      <trkpt lat="46.16723" lon="-1.10912">
        <ele>8.5</ele>
        <time>2020-05-31T17:14:10Z</time>
      </trkpt>
      <trkpt lat="46.16721" lon="-1.10913">
        <ele>8.5</ele>
        <time>2020-05-31T17:14:11Z</time>
      </trkpt>
      <trkpt lat="46.16722" lon="-1.10913">
        <ele>8.5</ele>
        <time>2020-05-31T17:14:12Z</time>
      </trkpt>
      <trkpt lat="46.16722" lon="-1.10914">
        <ele>8.5</ele>
        <time>2020-05-31T17:14:13Z</time>
      </trkpt>
      <trkpt lat="46.16722" lon="-1.10915">
        <ele>8.5</ele>
        <time>2020-05-31T17:14:14Z</time>
      </trkpt>
      <trkpt lat="46.16722" lon="-1.10915">
        <ele>8.5</ele>
        <time>2020-05-31T17:14:15Z</time>
      </trkpt>
      <trkpt lat="46.16721" lon="-1.10916">
        <ele>8.5</ele>
        <time>2020-05-31T17:14:16Z</time>
      </trkpt>
      <trkpt lat="46.16721" lon="-1.10916">
        <ele>8.5</ele>
        <time>2020-05-31T17:14:17Z</time>
      </trkpt>
      <trkpt lat="46.16719" lon="-1.10915">
        <ele>8.5</ele>
        <time>2020-05-31T17:14:18Z</time>
      </trkpt>
      <trkpt lat="46.16718" lon="-1.10917">
        <ele>8.5</ele>
        <time>2020-05-31T17:14:19Z</time>
      </trkpt>
      <trkpt lat="46.16716" lon="-1.10921">
        <ele>8.4</ele>
        <time>2020-05-31T17:14:20Z</time>
      </trkpt>
      <trkpt lat="46.16716" lon="-1.10923">
        <ele>8.4</ele>
        <time>2020-05-31T17:14:21Z</time>
      </trkpt>
      <trkpt lat="46.16714" lon="-1.10926">
        <ele>8.4</ele>
        <time>2020-05-31T17:14:22Z</time>
      </trkpt>
      <trkpt lat="46.16712" lon="-1.10928">
        <ele>8.4</ele>
        <time>2020-05-31T17:14:23Z</time>
      </trkpt>
      <trkpt lat="46.1671" lon="-1.10931">
        <ele>8.4</ele>
        <time>2020-05-31T17:14:24Z</time>
      </trkpt>
      <trkpt lat="46.16707" lon="-1.10935">
        <ele>8.4</ele>
        <time>2020-05-31T17:14:25Z</time>
      </trkpt>
      <trkpt lat="46.16706" lon="-1.10936">
        <ele>8.4</ele>
        <time>2020-05-31T17:14:26Z</time>
      </trkpt>
      <trkpt lat="46.16704" lon="-1.10941">
        <ele>8.4</ele>
        <time>2020-05-31T17:14:27Z</time>
      </trkpt>
      <trkpt lat="46.16703" lon="-1.10943">
        <ele>8.4</ele>
        <time>2020-05-31T17:14:28Z</time>
      </trkpt>
      <trkpt lat="46.16702" lon="-1.10946">
        <ele>8.4</ele>
        <time>2020-05-31T17:14:29Z</time>
      </trkpt>
      <trkpt lat="46.167" lon="-1.10949">
        <ele>8.4</ele>
        <time>2020-05-31T17:14:30Z</time>
      </trkpt>
      <trkpt lat="46.16699" lon="-1.10953">
        <ele>8.4</ele>
        <time>2020-05-31T17:14:31Z</time>
      </trkpt>
      <trkpt lat="46.16697" lon="-1.10957">
        <ele>8.4</ele>
        <time>2020-05-31T17:14:32Z</time>
      </trkpt>
      <trkpt lat="46.16695" lon="-1.1096">
        <ele>8.3</ele>
        <time>2020-05-31T17:14:33Z</time>
      </trkpt>
      <trkpt lat="46.16694" lon="-1.10964">
        <ele>8.3</ele>
        <time>2020-05-31T17:14:34Z</time>
      </trkpt>
      <trkpt lat="46.16693" lon="-1.10968">
        <ele>8.3</ele>
        <time>2020-05-31T17:14:35Z</time>
      </trkpt>
      <trkpt lat="46.16692" lon="-1.10973">
        <ele>8.3</ele>
        <time>2020-05-31T17:14:36Z</time>
      </trkpt>
      <trkpt lat="46.16691" lon="-1.10974">
        <ele>8.3</ele>
        <time>2020-05-31T17:14:37Z</time>
      </trkpt>
      <trkpt lat="46.16689" lon="-1.10978">
        <ele>8.2</ele>
        <time>2020-05-31T17:14:38Z</time>
      </trkpt>
      <trkpt lat="46.16688" lon="-1.10979">
        <ele>8.2</ele>
        <time>2020-05-31T17:14:39Z</time>
      </trkpt>
      <trkpt lat="46.16687" lon="-1.10983">
        <ele>8.2</ele>
        <time>2020-05-31T17:14:40Z</time>
      </trkpt>
      <trkpt lat="46.16687" lon="-1.10985">
        <ele>8.2</ele>
        <time>2020-05-31T17:14:41Z</time>
      </trkpt>
      <trkpt lat="46.16686" lon="-1.10991">
        <ele>8.1</ele>
        <time>2020-05-31T17:14:42Z</time>
      </trkpt>
      <trkpt lat="46.16685" lon="-1.10993">
        <ele>8.1</ele>
        <time>2020-05-31T17:14:43Z</time>
      </trkpt>
      <trkpt lat="46.16684" lon="-1.10997">
        <ele>8.1</ele>
        <time>2020-05-31T17:14:44Z</time>
      </trkpt>
      <trkpt lat="46.16683" lon="-1.11002">
        <ele>8</ele>
        <time>2020-05-31T17:14:45Z</time>
      </trkpt>
      <trkpt lat="46.16681" lon="-1.11006">
        <ele>8</ele>
        <time>2020-05-31T17:14:46Z</time>
      </trkpt>
      <trkpt lat="46.16678" lon="-1.1101">
        <ele>7.9</ele>
        <time>2020-05-31T17:14:47Z</time>
      </trkpt>
      <trkpt lat="46.16676" lon="-1.11016">
        <ele>7.9</ele>
        <time>2020-05-31T17:14:48Z</time>
      </trkpt>
      <trkpt lat="46.16672" lon="-1.11022">
        <ele>7.8</ele>
        <time>2020-05-31T17:14:49Z</time>
      </trkpt>
      <trkpt lat="46.16667" lon="-1.11029">
        <ele>7.7</ele>
        <time>2020-05-31T17:14:50Z</time>
      </trkpt>
      <trkpt lat="46.16664" lon="-1.11035">
        <ele>7.7</ele>
        <time>2020-05-31T17:14:51Z</time>
      </trkpt>
      <trkpt lat="46.1666" lon="-1.11043">
        <ele>7.6</ele>
        <time>2020-05-31T17:14:52Z</time>
      </trkpt>
      <trkpt lat="46.16657" lon="-1.1105">
        <ele>7.5</ele>
        <time>2020-05-31T17:14:53Z</time>
      </trkpt>
      <trkpt lat="46.16653" lon="-1.11057">
        <ele>7.4</ele>
        <time>2020-05-31T17:14:54Z</time>
      </trkpt>
      <trkpt lat="46.16649" lon="-1.11065">
        <ele>7.2</ele>
        <time>2020-05-31T17:14:55Z</time>
      </trkpt>
      <trkpt lat="46.16645" lon="-1.11072">
        <ele>7.1</ele>
        <time>2020-05-31T17:14:56Z</time>
      </trkpt>
      <trkpt lat="46.16642" lon="-1.1108">
        <ele>7</ele>
        <time>2020-05-31T17:14:57Z</time>
      </trkpt>
      <trkpt lat="46.16638" lon="-1.11088">
        <ele>6.9</ele>
        <time>2020-05-31T17:14:58Z</time>
      </trkpt>
      <trkpt lat="46.16634" lon="-1.11096">
        <ele>6.8</ele>
        <time>2020-05-31T17:14:59Z</time>
      </trkpt>
      <trkpt lat="46.16629" lon="-1.11104">
        <ele>6.8</ele>
        <time>2020-05-31T17:15:00Z</time>
      </trkpt>
      <trkpt lat="46.16624" lon="-1.11112">
        <ele>6.8</ele>
        <time>2020-05-31T17:15:01Z</time>
      </trkpt>
      <trkpt lat="46.1662" lon="-1.1112">
        <ele>6.8</ele>
        <time>2020-05-31T17:15:02Z</time>
      </trkpt>
      <trkpt lat="46.16615" lon="-1.11129">
        <ele>6.8</ele>
        <time>2020-05-31T17:15:03Z</time>
      </trkpt>
      <trkpt lat="46.16612" lon="-1.11138">
        <ele>6.7</ele>
        <time>2020-05-31T17:15:04Z</time>
      </trkpt>
      <trkpt lat="46.16608" lon="-1.11146">
        <ele>6.7</ele>
        <time>2020-05-31T17:15:05Z</time>
      </trkpt>
      <trkpt lat="46.16604" lon="-1.11154">
        <ele>6.6</ele>
        <time>2020-05-31T17:15:06Z</time>
      </trkpt>
      <trkpt lat="46.166" lon="-1.11161">
        <ele>6.6</ele>
        <time>2020-05-31T17:15:07Z</time>
      </trkpt>
      <trkpt lat="46.16596" lon="-1.11169">
        <ele>6.6</ele>
        <time>2020-05-31T17:15:08Z</time>
      </trkpt>
      <trkpt lat="46.16593" lon="-1.11175">
        <ele>6.6</ele>
        <time>2020-05-31T17:15:09Z</time>
      </trkpt>
      <trkpt lat="46.1659" lon="-1.11182">
        <ele>6.6</ele>
        <time>2020-05-31T17:15:10Z</time>
      </trkpt>
      <trkpt lat="46.16586" lon="-1.1119">
        <ele>6.6</ele>
        <time>2020-05-31T17:15:11Z</time>
      </trkpt>
      <trkpt lat="46.16583" lon="-1.11197">
        <ele>6.6</ele>
        <time>2020-05-31T17:15:12Z</time>
      </trkpt>
      <trkpt lat="46.16579" lon="-1.11203">
        <ele>6.6</ele>
        <time>2020-05-31T17:15:13Z</time>
      </trkpt>
      <trkpt lat="46.16576" lon="-1.1121">
        <ele>6.6</ele>
        <time>2020-05-31T17:15:14Z</time>
      </trkpt>
      <trkpt lat="46.16573" lon="-1.11217">
        <ele>6.6</ele>
        <time>2020-05-31T17:15:15Z</time>
      </trkpt>
      <trkpt lat="46.16569" lon="-1.11224">
        <ele>6.6</ele>
        <time>2020-05-31T17:15:16Z</time>
      </trkpt>
      <trkpt lat="46.16566" lon="-1.11232">
        <ele>6.6</ele>
        <time>2020-05-31T17:15:17Z</time>
      </trkpt>
      <trkpt lat="46.16562" lon="-1.11238">
        <ele>6.6</ele>
        <time>2020-05-31T17:15:18Z</time>
      </trkpt>
      <trkpt lat="46.16559" lon="-1.11245">
        <ele>6.6</ele>
        <time>2020-05-31T17:15:19Z</time>
      </trkpt>
      <trkpt lat="46.16556" lon="-1.11251">
        <ele>6.6</ele>
        <time>2020-05-31T17:15:20Z</time>
      </trkpt>
      <trkpt lat="46.16553" lon="-1.11257">
        <ele>6.6</ele>
        <time>2020-05-31T17:15:21Z</time>
      </trkpt>
      <trkpt lat="46.16549" lon="-1.11264">
        <ele>6.6</ele>
        <time>2020-05-31T17:15:22Z</time>
      </trkpt>
      <trkpt lat="46.16546" lon="-1.11271">
        <ele>6.6</ele>
        <time>2020-05-31T17:15:23Z</time>
      </trkpt>
      <trkpt lat="46.16542" lon="-1.11277">
        <ele>6.6</ele>
        <time>2020-05-31T17:15:24Z</time>
      </trkpt>
      <trkpt lat="46.16539" lon="-1.11283">
        <ele>6.6</ele>
        <time>2020-05-31T17:15:25Z</time>
      </trkpt>
      <trkpt lat="46.16536" lon="-1.11289">
        <ele>6.6</ele>
        <time>2020-05-31T17:15:26Z</time>
      </trkpt>
      <trkpt lat="46.16533" lon="-1.11295">
        <ele>6.6</ele>
        <time>2020-05-31T17:15:27Z</time>
      </trkpt>
      <trkpt lat="46.16529" lon="-1.11302">
        <ele>6.6</ele>
        <time>2020-05-31T17:15:28Z</time>
      </trkpt>
      <trkpt lat="46.16526" lon="-1.11309">
        <ele>6.6</ele>
        <time>2020-05-31T17:15:29Z</time>
      </trkpt>
      <trkpt lat="46.16524" lon="-1.11317">
        <ele>6.6</ele>
        <time>2020-05-31T17:15:30Z</time>
      </trkpt>
      <trkpt lat="46.1652" lon="-1.11324">
        <ele>6.6</ele>
        <time>2020-05-31T17:15:31Z</time>
      </trkpt>
      <trkpt lat="46.16517" lon="-1.11331">
        <ele>6.6</ele>
        <time>2020-05-31T17:15:32Z</time>
      </trkpt>
      <trkpt lat="46.16514" lon="-1.11338">
        <ele>6.6</ele>
        <time>2020-05-31T17:15:33Z</time>
      </trkpt>
      <trkpt lat="46.16511" lon="-1.11346">
        <ele>6.6</ele>
        <time>2020-05-31T17:15:34Z</time>
      </trkpt>
      <trkpt lat="46.16507" lon="-1.11354">
        <ele>6.6</ele>
        <time>2020-05-31T17:15:35Z</time>
      </trkpt>
      <trkpt lat="46.16504" lon="-1.11361">
        <ele>6.6</ele>
        <time>2020-05-31T17:15:36Z</time>
      </trkpt>
      <trkpt lat="46.16501" lon="-1.11367">
        <ele>6.6</ele>
        <time>2020-05-31T17:15:37Z</time>
      </trkpt>
      <trkpt lat="46.16499" lon="-1.11372">
        <ele>6.6</ele>
        <time>2020-05-31T17:15:38Z</time>
      </trkpt>
      <trkpt lat="46.16496" lon="-1.11378">
        <ele>6.6</ele>
        <time>2020-05-31T17:15:39Z</time>
      </trkpt>
      <trkpt lat="46.16492" lon="-1.11385">
        <ele>6.5</ele>
        <time>2020-05-31T17:15:40Z</time>
      </trkpt>
      <trkpt lat="46.16487" lon="-1.11391">
        <ele>6.4</ele>
        <time>2020-05-31T17:15:41Z</time>
      </trkpt>
      <trkpt lat="46.16483" lon="-1.114">
        <ele>6.3</ele>
        <time>2020-05-31T17:15:42Z</time>
      </trkpt>
      <trkpt lat="46.16479" lon="-1.11409">
        <ele>6.2</ele>
        <time>2020-05-31T17:15:43Z</time>
      </trkpt>
      <trkpt lat="46.16475" lon="-1.11418">
        <ele>6.1</ele>
        <time>2020-05-31T17:15:44Z</time>
      </trkpt>
      <trkpt lat="46.16471" lon="-1.11427">
        <ele>6</ele>
        <time>2020-05-31T17:15:45Z</time>
      </trkpt>
      <trkpt lat="46.16467" lon="-1.11437">
        <ele>5.8</ele>
        <time>2020-05-31T17:15:46Z</time>
      </trkpt>
      <trkpt lat="46.16463" lon="-1.11446">
        <ele>5.6</ele>
        <time>2020-05-31T17:15:47Z</time>
      </trkpt>
      <trkpt lat="46.1646" lon="-1.11455">
        <ele>5.5</ele>
        <time>2020-05-31T17:15:48Z</time>
      </trkpt>
      <trkpt lat="46.16456" lon="-1.11464">
        <ele>5.4</ele>
        <time>2020-05-31T17:15:49Z</time>
      </trkpt>
      <trkpt lat="46.16453" lon="-1.11472">
        <ele>5.3</ele>
        <time>2020-05-31T17:15:50Z</time>
      </trkpt>
      <trkpt lat="46.1645" lon="-1.1148">
        <ele>5.2</ele>
        <time>2020-05-31T17:15:51Z</time>
      </trkpt>
      <trkpt lat="46.16446" lon="-1.11489">
        <ele>5.1</ele>
        <time>2020-05-31T17:15:52Z</time>
      </trkpt>
      <trkpt lat="46.16443" lon="-1.11499">
        <ele>5</ele>
        <time>2020-05-31T17:15:53Z</time>
      </trkpt>
      <trkpt lat="46.16439" lon="-1.11509">
        <ele>5</ele>
        <time>2020-05-31T17:15:54Z</time>
      </trkpt>
      <trkpt lat="46.16437" lon="-1.11519">
        <ele>4.9</ele>
        <time>2020-05-31T17:15:55Z</time>
      </trkpt>
      <trkpt lat="46.16433" lon="-1.11528">
        <ele>4.9</ele>
        <time>2020-05-31T17:15:56Z</time>
      </trkpt>
      <trkpt lat="46.1643" lon="-1.11537">
        <ele>4.9</ele>
        <time>2020-05-31T17:15:57Z</time>
      </trkpt>
      <trkpt lat="46.16426" lon="-1.11546">
        <ele>4.8</ele>
        <time>2020-05-31T17:15:58Z</time>
      </trkpt>
      <trkpt lat="46.16424" lon="-1.11555">
        <ele>4.8</ele>
        <time>2020-05-31T17:15:59Z</time>
      </trkpt>
      <trkpt lat="46.1642" lon="-1.11564">
        <ele>4.8</ele>
        <time>2020-05-31T17:16:00Z</time>
      </trkpt>
      <trkpt lat="46.16417" lon="-1.11573">
        <ele>4.8</ele>
        <time>2020-05-31T17:16:01Z</time>
      </trkpt>
      <trkpt lat="46.16414" lon="-1.11582">
        <ele>4.8</ele>
        <time>2020-05-31T17:16:02Z</time>
      </trkpt>
      <trkpt lat="46.16411" lon="-1.11592">
        <ele>4.8</ele>
        <time>2020-05-31T17:16:03Z</time>
      </trkpt>
      <trkpt lat="46.16407" lon="-1.11602">
        <ele>4.8</ele>
        <time>2020-05-31T17:16:04Z</time>
      </trkpt>
      <trkpt lat="46.16404" lon="-1.11612">
        <ele>4.7</ele>
        <time>2020-05-31T17:16:05Z</time>
      </trkpt>
      <trkpt lat="46.16402" lon="-1.11622">
        <ele>4.7</ele>
        <time>2020-05-31T17:16:06Z</time>
      </trkpt>
      <trkpt lat="46.16399" lon="-1.11631">
        <ele>4.7</ele>
        <time>2020-05-31T17:16:07Z</time>
      </trkpt>
      <trkpt lat="46.16395" lon="-1.11641">
        <ele>4.7</ele>
        <time>2020-05-31T17:16:08Z</time>
      </trkpt>
      <trkpt lat="46.16391" lon="-1.11651">
        <ele>4.7</ele>
        <time>2020-05-31T17:16:09Z</time>
      </trkpt>
      <trkpt lat="46.16388" lon="-1.11661">
        <ele>4.7</ele>
        <time>2020-05-31T17:16:10Z</time>
      </trkpt>
      <trkpt lat="46.16384" lon="-1.1167">
        <ele>4.7</ele>
        <time>2020-05-31T17:16:11Z</time>
      </trkpt>
      <trkpt lat="46.1638" lon="-1.1168">
        <ele>4.7</ele>
        <time>2020-05-31T17:16:12Z</time>
      </trkpt>
      <trkpt lat="46.16377" lon="-1.1169">
        <ele>4.7</ele>
        <time>2020-05-31T17:16:13Z</time>
      </trkpt>
      <trkpt lat="46.16374" lon="-1.11699">
        <ele>4.7</ele>
        <time>2020-05-31T17:16:14Z</time>
      </trkpt>
      <trkpt lat="46.16371" lon="-1.11709">
        <ele>4.7</ele>
        <time>2020-05-31T17:16:15Z</time>
      </trkpt>
      <trkpt lat="46.16367" lon="-1.11719">
        <ele>4.7</ele>
        <time>2020-05-31T17:16:16Z</time>
      </trkpt>
      <trkpt lat="46.16363" lon="-1.11729">
        <ele>4.7</ele>
        <time>2020-05-31T17:16:17Z</time>
      </trkpt>
      <trkpt lat="46.1636" lon="-1.11739">
        <ele>4.7</ele>
        <time>2020-05-31T17:16:18Z</time>
      </trkpt>
      <trkpt lat="46.16356" lon="-1.1175">
        <ele>4.7</ele>
        <time>2020-05-31T17:16:19Z</time>
      </trkpt>
      <trkpt lat="46.16353" lon="-1.11759">
        <ele>4.7</ele>
        <time>2020-05-31T17:16:20Z</time>
      </trkpt>
      <trkpt lat="46.1635" lon="-1.11766">
        <ele>4.7</ele>
        <time>2020-05-31T17:16:21Z</time>
      </trkpt>
      <trkpt lat="46.16347" lon="-1.11774">
        <ele>4.7</ele>
        <time>2020-05-31T17:16:22Z</time>
      </trkpt>
      <trkpt lat="46.16344" lon="-1.11782">
        <ele>4.7</ele>
        <time>2020-05-31T17:16:23Z</time>
      </trkpt>
      <trkpt lat="46.1634" lon="-1.11791">
        <ele>4.7</ele>
        <time>2020-05-31T17:16:24Z</time>
      </trkpt>
      <trkpt lat="46.16337" lon="-1.118">
        <ele>4.7</ele>
        <time>2020-05-31T17:16:25Z</time>
      </trkpt>
      <trkpt lat="46.16334" lon="-1.11809">
        <ele>4.7</ele>
        <time>2020-05-31T17:16:26Z</time>
      </trkpt>
      <trkpt lat="46.16332" lon="-1.11818">
        <ele>4.8</ele>
        <time>2020-05-31T17:16:27Z</time>
      </trkpt>
      <trkpt lat="46.16329" lon="-1.11827">
        <ele>4.8</ele>
        <time>2020-05-31T17:16:28Z</time>
      </trkpt>
      <trkpt lat="46.16327" lon="-1.11836">
        <ele>4.8</ele>
        <time>2020-05-31T17:16:29Z</time>
      </trkpt>
      <trkpt lat="46.16325" lon="-1.11846">
        <ele>4.8</ele>
        <time>2020-05-31T17:16:30Z</time>
      </trkpt>
      <trkpt lat="46.16323" lon="-1.11855">
        <ele>4.8</ele>
        <time>2020-05-31T17:16:31Z</time>
      </trkpt>
      <trkpt lat="46.16321" lon="-1.11864">
        <ele>4.8</ele>
        <time>2020-05-31T17:16:32Z</time>
      </trkpt>
      <trkpt lat="46.16318" lon="-1.11874">
        <ele>4.8</ele>
        <time>2020-05-31T17:16:33Z</time>
      </trkpt>
      <trkpt lat="46.16315" lon="-1.11884">
        <ele>4.8</ele>
        <time>2020-05-31T17:16:34Z</time>
      </trkpt>
      <trkpt lat="46.16313" lon="-1.11893">
        <ele>4.8</ele>
        <time>2020-05-31T17:16:35Z</time>
      </trkpt>
      <trkpt lat="46.1631" lon="-1.11903">
        <ele>4.8</ele>
        <time>2020-05-31T17:16:36Z</time>
      </trkpt>
      <trkpt lat="46.16309" lon="-1.11913">
        <ele>4.8</ele>
        <time>2020-05-31T17:16:37Z</time>
      </trkpt>
      <trkpt lat="46.16307" lon="-1.11922">
        <ele>4.8</ele>
        <time>2020-05-31T17:16:38Z</time>
      </trkpt>
      <trkpt lat="46.16306" lon="-1.11931">
        <ele>4.8</ele>
        <time>2020-05-31T17:16:39Z</time>
      </trkpt>
      <trkpt lat="46.16304" lon="-1.11941">
        <ele>4.7</ele>
        <time>2020-05-31T17:16:40Z</time>
      </trkpt>
      <trkpt lat="46.16302" lon="-1.1195">
        <ele>4.7</ele>
        <time>2020-05-31T17:16:41Z</time>
      </trkpt>
      <trkpt lat="46.163" lon="-1.1196">
        <ele>4.7</ele>
        <time>2020-05-31T17:16:42Z</time>
      </trkpt>
      <trkpt lat="46.16297" lon="-1.11969">
        <ele>4.7</ele>
        <time>2020-05-31T17:16:43Z</time>
      </trkpt>
      <trkpt lat="46.16295" lon="-1.11978">
        <ele>4.7</ele>
        <time>2020-05-31T17:16:44Z</time>
      </trkpt>
      <trkpt lat="46.16293" lon="-1.11987">
        <ele>4.7</ele>
        <time>2020-05-31T17:16:45Z</time>
      </trkpt>
      <trkpt lat="46.1629" lon="-1.11996">
        <ele>4.7</ele>
        <time>2020-05-31T17:16:46Z</time>
      </trkpt>
      <trkpt lat="46.16288" lon="-1.12004">
        <ele>4.7</ele>
        <time>2020-05-31T17:16:47Z</time>
      </trkpt>
      <trkpt lat="46.16287" lon="-1.12011">
        <ele>4.7</ele>
        <time>2020-05-31T17:16:48Z</time>
      </trkpt>
      <trkpt lat="46.16284" lon="-1.12019">
        <ele>4.7</ele>
        <time>2020-05-31T17:16:49Z</time>
      </trkpt>
      <trkpt lat="46.16281" lon="-1.12027">
        <ele>4.7</ele>
        <time>2020-05-31T17:16:50Z</time>
      </trkpt>
      <trkpt lat="46.16279" lon="-1.12034">
        <ele>4.7</ele>
        <time>2020-05-31T17:16:51Z</time>
      </trkpt>
      <trkpt lat="46.16276" lon="-1.12042">
        <ele>4.7</ele>
        <time>2020-05-31T17:16:52Z</time>
      </trkpt>
      <trkpt lat="46.16275" lon="-1.12049">
        <ele>4.7</ele>
        <time>2020-05-31T17:16:53Z</time>
      </trkpt>
      <trkpt lat="46.16273" lon="-1.12055">
        <ele>4.7</ele>
        <time>2020-05-31T17:16:54Z</time>
      </trkpt>
      <trkpt lat="46.16273" lon="-1.1206">
        <ele>4.7</ele>
        <time>2020-05-31T17:16:55Z</time>
      </trkpt>
      <trkpt lat="46.16273" lon="-1.12065">
        <ele>4.7</ele>
        <time>2020-05-31T17:16:56Z</time>
      </trkpt>
      <trkpt lat="46.16273" lon="-1.12066">
        <ele>4.7</ele>
        <time>2020-05-31T17:16:57Z</time>
      </trkpt>
      <trkpt lat="46.16272" lon="-1.12068">
        <ele>4.7</ele>
        <time>2020-05-31T17:16:58Z</time>
      </trkpt>
      <trkpt lat="46.16272" lon="-1.12068">
        <ele>4.7</ele>
        <time>2020-05-31T17:16:59Z</time>
      </trkpt>
      <trkpt lat="46.16272" lon="-1.12069">
        <ele>4.7</ele>
        <time>2020-05-31T17:17:00Z</time>
      </trkpt>
      <trkpt lat="46.16271" lon="-1.1207">
        <ele>4.7</ele>
        <time>2020-05-31T17:17:01Z</time>
      </trkpt>
      <trkpt lat="46.16271" lon="-1.12071">
        <ele>4.7</ele>
        <time>2020-05-31T17:17:02Z</time>
      </trkpt>
      <trkpt lat="46.16271" lon="-1.12072">
        <ele>4.7</ele>
        <time>2020-05-31T17:17:03Z</time>
      </trkpt>
      <trkpt lat="46.16271" lon="-1.12072">
        <ele>4.7</ele>
        <time>2020-05-31T17:17:04Z</time>
      </trkpt>
      <trkpt lat="46.16271" lon="-1.12073">
        <ele>4.7</ele>
        <time>2020-05-31T17:17:05Z</time>
      </trkpt>
      <trkpt lat="46.16271" lon="-1.12073">
        <ele>4.7</ele>
        <time>2020-05-31T17:17:06Z</time>
      </trkpt>
      <trkpt lat="46.16271" lon="-1.12074">
        <ele>4.7</ele>
        <time>2020-05-31T17:17:07Z</time>
      </trkpt>
      <trkpt lat="46.16271" lon="-1.12075">
        <ele>4.7</ele>
        <time>2020-05-31T17:17:08Z</time>
      </trkpt>
      <trkpt lat="46.16271" lon="-1.12076">
        <ele>4.6</ele>
        <time>2020-05-31T17:17:09Z</time>
      </trkpt>
      <trkpt lat="46.16271" lon="-1.12076">
        <ele>4.6</ele>
        <time>2020-05-31T17:17:10Z</time>
      </trkpt>
      <trkpt lat="46.16271" lon="-1.12076">
        <ele>4.6</ele>
        <time>2020-05-31T17:17:11Z</time>
      </trkpt>
      <trkpt lat="46.16271" lon="-1.12076">
        <ele>4.6</ele>
        <time>2020-05-31T17:17:12Z</time>
      </trkpt>
      <trkpt lat="46.16271" lon="-1.12077">
        <ele>4.6</ele>
        <time>2020-05-31T17:17:13Z</time>
      </trkpt>
      <trkpt lat="46.16271" lon="-1.12077">
        <ele>4.6</ele>
        <time>2020-05-31T17:17:14Z</time>
      </trkpt>
      <trkpt lat="46.16271" lon="-1.12078">
        <ele>4.6</ele>
        <time>2020-05-31T17:17:15Z</time>
      </trkpt>
      <trkpt lat="46.16271" lon="-1.12078">
        <ele>4.6</ele>
        <time>2020-05-31T17:17:16Z</time>
      </trkpt>
      <trkpt lat="46.16271" lon="-1.12078">
        <ele>4.6</ele>
        <time>2020-05-31T17:17:17Z</time>
      </trkpt>
      <trkpt lat="46.16271" lon="-1.12078">
        <ele>4.6</ele>
        <time>2020-05-31T17:17:18Z</time>
      </trkpt>
      <trkpt lat="46.16271" lon="-1.12078">
        <ele>4.6</ele>
        <time>2020-05-31T17:17:19Z</time>
      </trkpt>
      <trkpt lat="46.1627" lon="-1.12079">
        <ele>4.6</ele>
        <time>2020-05-31T17:17:20Z</time>
      </trkpt>
      <trkpt lat="46.1627" lon="-1.12081">
        <ele>4.6</ele>
        <time>2020-05-31T17:17:21Z</time>
      </trkpt>
      <trkpt lat="46.1627" lon="-1.12081">
        <ele>4.6</ele>
        <time>2020-05-31T17:17:22Z</time>
      </trkpt>
      <trkpt lat="46.16269" lon="-1.12082">
        <ele>4.6</ele>
        <time>2020-05-31T17:17:23Z</time>
      </trkpt>
      <trkpt lat="46.16269" lon="-1.12083">
        <ele>4.6</ele>
        <time>2020-05-31T17:17:24Z</time>
      </trkpt>
      <trkpt lat="46.16268" lon="-1.12084">
        <ele>4.6</ele>
        <time>2020-05-31T17:17:25Z</time>
      </trkpt>
      <trkpt lat="46.16268" lon="-1.12085">
        <ele>4.6</ele>
        <time>2020-05-31T17:17:26Z</time>
      </trkpt>
      <trkpt lat="46.16267" lon="-1.12087">
        <ele>4.6</ele>
        <time>2020-05-31T17:17:27Z</time>
      </trkpt>
      <trkpt lat="46.16266" lon="-1.12091">
        <ele>4.6</ele>
        <time>2020-05-31T17:17:28Z</time>
      </trkpt>
      <trkpt lat="46.16265" lon="-1.12092">
        <ele>4.6</ele>
        <time>2020-05-31T17:17:29Z</time>
      </trkpt>
      <trkpt lat="46.16264" lon="-1.12096">
        <ele>4.6</ele>
        <time>2020-05-31T17:17:30Z</time>
      </trkpt>
      <trkpt lat="46.16262" lon="-1.12101">
        <ele>4.6</ele>
        <time>2020-05-31T17:17:31Z</time>
      </trkpt>
      <trkpt lat="46.16261" lon="-1.12105">
        <ele>4.6</ele>
        <time>2020-05-31T17:17:32Z</time>
      </trkpt>
      <trkpt lat="46.16259" lon="-1.12112">
        <ele>4.6</ele>
        <time>2020-05-31T17:17:33Z</time>
      </trkpt>
      <trkpt lat="46.16258" lon="-1.12118">
        <ele>4.6</ele>
        <time>2020-05-31T17:17:34Z</time>
      </trkpt>
      <trkpt lat="46.16256" lon="-1.12125">
        <ele>4.7</ele>
        <time>2020-05-31T17:17:35Z</time>
      </trkpt>
      <trkpt lat="46.16255" lon="-1.12132">
        <ele>4.7</ele>
        <time>2020-05-31T17:17:36Z</time>
      </trkpt>
      <trkpt lat="46.16253" lon="-1.12139">
        <ele>4.7</ele>
        <time>2020-05-31T17:17:37Z</time>
      </trkpt>
      <trkpt lat="46.16251" lon="-1.12146">
        <ele>4.7</ele>
        <time>2020-05-31T17:17:38Z</time>
      </trkpt>
      <trkpt lat="46.16249" lon="-1.12153">
        <ele>4.7</ele>
        <time>2020-05-31T17:17:39Z</time>
      </trkpt>
      <trkpt lat="46.16247" lon="-1.1216">
        <ele>4.7</ele>
        <time>2020-05-31T17:17:40Z</time>
      </trkpt>
      <trkpt lat="46.16246" lon="-1.12167">
        <ele>4.7</ele>
        <time>2020-05-31T17:17:41Z</time>
      </trkpt>
      <trkpt lat="46.16244" lon="-1.12175">
        <ele>4.7</ele>
        <time>2020-05-31T17:17:42Z</time>
      </trkpt>
      <trkpt lat="46.16242" lon="-1.12182">
        <ele>4.7</ele>
        <time>2020-05-31T17:17:43Z</time>
      </trkpt>
      <trkpt lat="46.1624" lon="-1.1219">
        <ele>4.7</ele>
        <time>2020-05-31T17:17:44Z</time>
      </trkpt>
      <trkpt lat="46.16238" lon="-1.12197">
        <ele>4.7</ele>
        <time>2020-05-31T17:17:45Z</time>
      </trkpt>
      <trkpt lat="46.16236" lon="-1.12205">
        <ele>4.7</ele>
        <time>2020-05-31T17:17:46Z</time>
      </trkpt>
      <trkpt lat="46.16233" lon="-1.12213">
        <ele>4.7</ele>
        <time>2020-05-31T17:17:47Z</time>
      </trkpt>
      <trkpt lat="46.1623" lon="-1.12222">
        <ele>4.7</ele>
        <time>2020-05-31T17:17:48Z</time>
      </trkpt>
      <trkpt lat="46.16227" lon="-1.12231">
        <ele>4.7</ele>
        <time>2020-05-31T17:17:49Z</time>
      </trkpt>
      <trkpt lat="46.16224" lon="-1.12239">
        <ele>4.7</ele>
        <time>2020-05-31T17:17:50Z</time>
      </trkpt>
      <trkpt lat="46.16221" lon="-1.12247">
        <ele>4.7</ele>
        <time>2020-05-31T17:17:51Z</time>
      </trkpt>
      <trkpt lat="46.16219" lon="-1.12255">
        <ele>4.7</ele>
        <time>2020-05-31T17:17:52Z</time>
      </trkpt>
      <trkpt lat="46.16217" lon="-1.12263">
        <ele>4.7</ele>
        <time>2020-05-31T17:17:53Z</time>
      </trkpt>
      <trkpt lat="46.16214" lon="-1.1227">
        <ele>4.7</ele>
        <time>2020-05-31T17:17:54Z</time>
      </trkpt>
      <trkpt lat="46.16213" lon="-1.12279">
        <ele>4.7</ele>
        <time>2020-05-31T17:17:55Z</time>
      </trkpt>
      <trkpt lat="46.1621" lon="-1.12287">
        <ele>4.7</ele>
        <time>2020-05-31T17:17:56Z</time>
      </trkpt>
      <trkpt lat="46.16207" lon="-1.12295">
        <ele>4.6</ele>
        <time>2020-05-31T17:17:57Z</time>
      </trkpt>
      <trkpt lat="46.16204" lon="-1.12304">
        <ele>4.6</ele>
        <time>2020-05-31T17:17:58Z</time>
      </trkpt>
      <trkpt lat="46.16202" lon="-1.12312">
        <ele>4.6</ele>
        <time>2020-05-31T17:17:59Z</time>
      </trkpt>
      <trkpt lat="46.162" lon="-1.12319">
        <ele>4.6</ele>
        <time>2020-05-31T17:18:00Z</time>
      </trkpt>
      <trkpt lat="46.16198" lon="-1.12325">
        <ele>4.6</ele>
        <time>2020-05-31T17:18:01Z</time>
      </trkpt>
      <trkpt lat="46.16197" lon="-1.12331">
        <ele>4.6</ele>
        <time>2020-05-31T17:18:02Z</time>
      </trkpt>
      <trkpt lat="46.16195" lon="-1.12336">
        <ele>4.6</ele>
        <time>2020-05-31T17:18:03Z</time>
      </trkpt>
      <trkpt lat="46.16194" lon="-1.12341">
        <ele>4.6</ele>
        <time>2020-05-31T17:18:04Z</time>
      </trkpt>
      <trkpt lat="46.16193" lon="-1.12346">
        <ele>4.6</ele>
        <time>2020-05-31T17:18:05Z</time>
      </trkpt>
      <trkpt lat="46.16192" lon="-1.12349">
        <ele>4.6</ele>
        <time>2020-05-31T17:18:06Z</time>
      </trkpt>
      <trkpt lat="46.16191" lon="-1.12354">
        <ele>4.6</ele>
        <time>2020-05-31T17:18:07Z</time>
      </trkpt>
      <trkpt lat="46.16191" lon="-1.12358">
        <ele>4.6</ele>
        <time>2020-05-31T17:18:08Z</time>
      </trkpt>
      <trkpt lat="46.16191" lon="-1.12363">
        <ele>4.6</ele>
        <time>2020-05-31T17:18:09Z</time>
      </trkpt>
      <trkpt lat="46.16191" lon="-1.12368">
        <ele>4.6</ele>
        <time>2020-05-31T17:18:10Z</time>
      </trkpt>
      <trkpt lat="46.1619" lon="-1.12372">
        <ele>4.6</ele>
        <time>2020-05-31T17:18:11Z</time>
      </trkpt>
      <trkpt lat="46.16188" lon="-1.12377">
        <ele>4.6</ele>
        <time>2020-05-31T17:18:12Z</time>
      </trkpt>
      <trkpt lat="46.16186" lon="-1.12381">
        <ele>4.6</ele>
        <time>2020-05-31T17:18:13Z</time>
      </trkpt>
      <trkpt lat="46.16184" lon="-1.12384">
        <ele>4.6</ele>
        <time>2020-05-31T17:18:14Z</time>
      </trkpt>
      <trkpt lat="46.16184" lon="-1.12387">
        <ele>4.6</ele>
        <time>2020-05-31T17:18:15Z</time>
      </trkpt>
      <trkpt lat="46.16183" lon="-1.12389">
        <ele>4.7</ele>
        <time>2020-05-31T17:18:16Z</time>
      </trkpt>
      <trkpt lat="46.16183" lon="-1.12389">
        <ele>4.7</ele>
        <time>2020-05-31T17:18:17Z</time>
      </trkpt>
      <trkpt lat="46.16182" lon="-1.1239">
        <ele>4.7</ele>
        <time>2020-05-31T17:18:18Z</time>
      </trkpt>
      <trkpt lat="46.16182" lon="-1.12391">
        <ele>4.7</ele>
        <time>2020-05-31T17:18:19Z</time>
      </trkpt>
      <trkpt lat="46.16182" lon="-1.12393">
        <ele>4.7</ele>
        <time>2020-05-31T17:18:20Z</time>
      </trkpt>
      <trkpt lat="46.16181" lon="-1.12398">
        <ele>4.8</ele>
        <time>2020-05-31T17:18:21Z</time>
      </trkpt>
      <trkpt lat="46.1618" lon="-1.124">
        <ele>4.8</ele>
        <time>2020-05-31T17:18:22Z</time>
      </trkpt>
      <trkpt lat="46.16179" lon="-1.12403">
        <ele>4.8</ele>
        <time>2020-05-31T17:18:23Z</time>
      </trkpt>
      <trkpt lat="46.16178" lon="-1.12407">
        <ele>4.9</ele>
        <time>2020-05-31T17:18:24Z</time>
      </trkpt>
      <trkpt lat="46.16176" lon="-1.12412">
        <ele>4.9</ele>
        <time>2020-05-31T17:18:25Z</time>
      </trkpt>
      <trkpt lat="46.16175" lon="-1.12418">
        <ele>4.9</ele>
        <time>2020-05-31T17:18:26Z</time>
      </trkpt>
      <trkpt lat="46.16173" lon="-1.12423">
        <ele>5</ele>
        <time>2020-05-31T17:18:27Z</time>
      </trkpt>
      <trkpt lat="46.16171" lon="-1.12428">
        <ele>5</ele>
        <time>2020-05-31T17:18:28Z</time>
      </trkpt>
      <trkpt lat="46.1617" lon="-1.12434">
        <ele>5.1</ele>
        <time>2020-05-31T17:18:29Z</time>
      </trkpt>
      <trkpt lat="46.16168" lon="-1.12439">
        <ele>5.1</ele>
        <time>2020-05-31T17:18:30Z</time>
      </trkpt>
      <trkpt lat="46.16167" lon="-1.12444">
        <ele>5.1</ele>
        <time>2020-05-31T17:18:31Z</time>
      </trkpt>
      <trkpt lat="46.16165" lon="-1.12449">
        <ele>5</ele>
        <time>2020-05-31T17:18:32Z</time>
      </trkpt>
      <trkpt lat="46.16164" lon="-1.12454">
        <ele>5</ele>
        <time>2020-05-31T17:18:33Z</time>
      </trkpt>
      <trkpt lat="46.16162" lon="-1.12459">
        <ele>5</ele>
        <time>2020-05-31T17:18:34Z</time>
      </trkpt>
      <trkpt lat="46.1616" lon="-1.12464">
        <ele>5</ele>
        <time>2020-05-31T17:18:35Z</time>
      </trkpt>
      <trkpt lat="46.16158" lon="-1.1247">
        <ele>5</ele>
        <time>2020-05-31T17:18:36Z</time>
      </trkpt>
      <trkpt lat="46.16158" lon="-1.12476">
        <ele>5</ele>
        <time>2020-05-31T17:18:37Z</time>
      </trkpt>
      <trkpt lat="46.16156" lon="-1.12483">
        <ele>4.9</ele>
        <time>2020-05-31T17:18:38Z</time>
      </trkpt>
      <trkpt lat="46.16155" lon="-1.1249">
        <ele>4.9</ele>
        <time>2020-05-31T17:18:39Z</time>
      </trkpt>
      <trkpt lat="46.16153" lon="-1.12496">
        <ele>4.9</ele>
        <time>2020-05-31T17:18:40Z</time>
      </trkpt>
      <trkpt lat="46.16151" lon="-1.12503">
        <ele>4.9</ele>
        <time>2020-05-31T17:18:41Z</time>
      </trkpt>
      <trkpt lat="46.16149" lon="-1.1251">
        <ele>4.8</ele>
        <time>2020-05-31T17:18:42Z</time>
      </trkpt>
      <trkpt lat="46.16147" lon="-1.12517">
        <ele>4.8</ele>
        <time>2020-05-31T17:18:43Z</time>
      </trkpt>
      <trkpt lat="46.16145" lon="-1.12524">
        <ele>4.8</ele>
        <time>2020-05-31T17:18:44Z</time>
      </trkpt>
      <trkpt lat="46.16143" lon="-1.12532">
        <ele>4.8</ele>
        <time>2020-05-31T17:18:45Z</time>
      </trkpt>
      <trkpt lat="46.16141" lon="-1.1254">
        <ele>4.7</ele>
        <time>2020-05-31T17:18:46Z</time>
      </trkpt>
      <trkpt lat="46.16139" lon="-1.12547">
        <ele>4.7</ele>
        <time>2020-05-31T17:18:47Z</time>
      </trkpt>
      <trkpt lat="46.16137" lon="-1.12555">
        <ele>4.7</ele>
        <time>2020-05-31T17:18:48Z</time>
      </trkpt>
      <trkpt lat="46.16135" lon="-1.12563">
        <ele>4.6</ele>
        <time>2020-05-31T17:18:49Z</time>
      </trkpt>
      <trkpt lat="46.16132" lon="-1.1257">
        <ele>4.6</ele>
        <time>2020-05-31T17:18:50Z</time>
      </trkpt>
      <trkpt lat="46.1613" lon="-1.12577">
        <ele>4.5</ele>
        <time>2020-05-31T17:18:51Z</time>
      </trkpt>
      <trkpt lat="46.16128" lon="-1.12584">
        <ele>4.5</ele>
        <time>2020-05-31T17:18:52Z</time>
      </trkpt>
      <trkpt lat="46.16126" lon="-1.12591">
        <ele>4.5</ele>
        <time>2020-05-31T17:18:53Z</time>
      </trkpt>
      <trkpt lat="46.16124" lon="-1.12597">
        <ele>4.5</ele>
        <time>2020-05-31T17:18:54Z</time>
      </trkpt>
      <trkpt lat="46.16122" lon="-1.12605">
        <ele>4.4</ele>
        <time>2020-05-31T17:18:55Z</time>
      </trkpt>
      <trkpt lat="46.1612" lon="-1.12612">
        <ele>4.4</ele>
        <time>2020-05-31T17:18:56Z</time>
      </trkpt>
      <trkpt lat="46.16118" lon="-1.1262">
        <ele>4.4</ele>
        <time>2020-05-31T17:18:57Z</time>
      </trkpt>
      <trkpt lat="46.16117" lon="-1.12627">
        <ele>4.3</ele>
        <time>2020-05-31T17:18:58Z</time>
      </trkpt>
      <trkpt lat="46.16115" lon="-1.12634">
        <ele>4.3</ele>
        <time>2020-05-31T17:18:59Z</time>
      </trkpt>
      <trkpt lat="46.16114" lon="-1.12642">
        <ele>4.3</ele>
        <time>2020-05-31T17:19:00Z</time>
      </trkpt>
      <trkpt lat="46.16111" lon="-1.12649">
        <ele>4.3</ele>
        <time>2020-05-31T17:19:01Z</time>
      </trkpt>
      <trkpt lat="46.16108" lon="-1.12658">
        <ele>4.2</ele>
        <time>2020-05-31T17:19:02Z</time>
      </trkpt>
      <trkpt lat="46.16105" lon="-1.12665">
        <ele>4.2</ele>
        <time>2020-05-31T17:19:03Z</time>
      </trkpt>
      <trkpt lat="46.16101" lon="-1.12673">
        <ele>4.2</ele>
        <time>2020-05-31T17:19:04Z</time>
      </trkpt>
      <trkpt lat="46.16099" lon="-1.12681">
        <ele>4.2</ele>
        <time>2020-05-31T17:19:05Z</time>
      </trkpt>
      <trkpt lat="46.16097" lon="-1.12689">
        <ele>4.2</ele>
        <time>2020-05-31T17:19:06Z</time>
      </trkpt>
      <trkpt lat="46.16094" lon="-1.12697">
        <ele>4.1</ele>
        <time>2020-05-31T17:19:07Z</time>
      </trkpt>
      <trkpt lat="46.16092" lon="-1.12705">
        <ele>4.1</ele>
        <time>2020-05-31T17:19:08Z</time>
      </trkpt>
      <trkpt lat="46.1609" lon="-1.12713">
        <ele>4.1</ele>
        <time>2020-05-31T17:19:09Z</time>
      </trkpt>
      <trkpt lat="46.16088" lon="-1.1272">
        <ele>4.1</ele>
        <time>2020-05-31T17:19:10Z</time>
      </trkpt>
      <trkpt lat="46.16086" lon="-1.12728">
        <ele>4.1</ele>
        <time>2020-05-31T17:19:11Z</time>
      </trkpt>
      <trkpt lat="46.16083" lon="-1.12735">
        <ele>4</ele>
        <time>2020-05-31T17:19:12Z</time>
      </trkpt>
      <trkpt lat="46.16081" lon="-1.12742">
        <ele>4</ele>
        <time>2020-05-31T17:19:13Z</time>
      </trkpt>
      <trkpt lat="46.16078" lon="-1.12749">
        <ele>4</ele>
        <time>2020-05-31T17:19:14Z</time>
      </trkpt>
      <trkpt lat="46.16077" lon="-1.12757">
        <ele>4</ele>
        <time>2020-05-31T17:19:15Z</time>
      </trkpt>
      <trkpt lat="46.16074" lon="-1.12764">
        <ele>3.9</ele>
        <time>2020-05-31T17:19:16Z</time>
      </trkpt>
      <trkpt lat="46.16072" lon="-1.12771">
        <ele>3.9</ele>
        <time>2020-05-31T17:19:17Z</time>
      </trkpt>
      <trkpt lat="46.1607" lon="-1.12778">
        <ele>3.9</ele>
        <time>2020-05-31T17:19:18Z</time>
      </trkpt>
      <trkpt lat="46.16068" lon="-1.12785">
        <ele>3.9</ele>
        <time>2020-05-31T17:19:19Z</time>
      </trkpt>
      <trkpt lat="46.16066" lon="-1.12792">
        <ele>3.9</ele>
        <time>2020-05-31T17:19:20Z</time>
      </trkpt>
      <trkpt lat="46.16064" lon="-1.128">
        <ele>3.8</ele>
        <time>2020-05-31T17:19:21Z</time>
      </trkpt>
      <trkpt lat="46.16063" lon="-1.12807">
        <ele>3.8</ele>
        <time>2020-05-31T17:19:22Z</time>
      </trkpt>
      <trkpt lat="46.16061" lon="-1.12815">
        <ele>3.8</ele>
        <time>2020-05-31T17:19:23Z</time>
      </trkpt>
      <trkpt lat="46.1606" lon="-1.12823">
        <ele>3.7</ele>
        <time>2020-05-31T17:19:24Z</time>
      </trkpt>
      <trkpt lat="46.16059" lon="-1.12831">
        <ele>3.7</ele>
        <time>2020-05-31T17:19:25Z</time>
      </trkpt>
      <trkpt lat="46.16057" lon="-1.12839">
        <ele>3.7</ele>
        <time>2020-05-31T17:19:26Z</time>
      </trkpt>
      <trkpt lat="46.16056" lon="-1.12847">
        <ele>3.7</ele>
        <time>2020-05-31T17:19:27Z</time>
      </trkpt>
      <trkpt lat="46.16054" lon="-1.12856">
        <ele>3.8</ele>
        <time>2020-05-31T17:19:28Z</time>
      </trkpt>
      <trkpt lat="46.16052" lon="-1.12866">
        <ele>3.8</ele>
        <time>2020-05-31T17:19:29Z</time>
      </trkpt>
      <trkpt lat="46.16051" lon="-1.12875">
        <ele>3.8</ele>
        <time>2020-05-31T17:19:30Z</time>
      </trkpt>
      <trkpt lat="46.16052" lon="-1.12884">
        <ele>3.6</ele>
        <time>2020-05-31T17:19:31Z</time>
      </trkpt>
      <trkpt lat="46.16053" lon="-1.12891">
        <ele>3.6</ele>
        <time>2020-05-31T17:19:32Z</time>
      </trkpt>
      <trkpt lat="46.16055" lon="-1.12899">
        <ele>3.6</ele>
        <time>2020-05-31T17:19:33Z</time>
      </trkpt>
      <trkpt lat="46.16053" lon="-1.12907">
        <ele>3.6</ele>
        <time>2020-05-31T17:19:34Z</time>
      </trkpt>
      <trkpt lat="46.16049" lon="-1.12912">
        <ele>3.5</ele>
        <time>2020-05-31T17:19:35Z</time>
      </trkpt>
      <trkpt lat="46.16045" lon="-1.12917">
        <ele>3.5</ele>
        <time>2020-05-31T17:19:36Z</time>
      </trkpt>
      <trkpt lat="46.16041" lon="-1.12919">
        <ele>3.5</ele>
        <time>2020-05-31T17:19:37Z</time>
      </trkpt>
      <trkpt lat="46.16037" lon="-1.12922">
        <ele>3.4</ele>
        <time>2020-05-31T17:19:38Z</time>
      </trkpt>
      <trkpt lat="46.16034" lon="-1.12925">
        <ele>3.4</ele>
        <time>2020-05-31T17:19:39Z</time>
      </trkpt>
      <trkpt lat="46.16031" lon="-1.12925">
        <ele>3.4</ele>
        <time>2020-05-31T17:19:40Z</time>
      </trkpt>
      <trkpt lat="46.16028" lon="-1.12924">
        <ele>3.4</ele>
        <time>2020-05-31T17:19:41Z</time>
      </trkpt>
      <trkpt lat="46.16025" lon="-1.12923">
        <ele>3.3</ele>
        <time>2020-05-31T17:19:42Z</time>
      </trkpt>
      <trkpt lat="46.16023" lon="-1.1292">
        <ele>3.3</ele>
        <time>2020-05-31T17:19:43Z</time>
      </trkpt>
      <trkpt lat="46.1602" lon="-1.12921">
        <ele>3.3</ele>
        <time>2020-05-31T17:19:44Z</time>
      </trkpt>
      <trkpt lat="46.16017" lon="-1.12922">
        <ele>3.3</ele>
        <time>2020-05-31T17:19:45Z</time>
      </trkpt>
      <trkpt lat="46.16016" lon="-1.12927">
        <ele>3.3</ele>
        <time>2020-05-31T17:19:46Z</time>
      </trkpt>
      <trkpt lat="46.16015" lon="-1.12934">
        <ele>3.3</ele>
        <time>2020-05-31T17:19:47Z</time>
      </trkpt>
      <trkpt lat="46.16013" lon="-1.1294">
        <ele>3.3</ele>
        <time>2020-05-31T17:19:48Z</time>
      </trkpt>
      <trkpt lat="46.16011" lon="-1.12946">
        <ele>3.3</ele>
        <time>2020-05-31T17:19:49Z</time>
      </trkpt>
      <trkpt lat="46.16008" lon="-1.12952">
        <ele>3.3</ele>
        <time>2020-05-31T17:19:50Z</time>
      </trkpt>
      <trkpt lat="46.16006" lon="-1.12959">
        <ele>3.3</ele>
        <time>2020-05-31T17:19:51Z</time>
      </trkpt>
      <trkpt lat="46.16004" lon="-1.12966">
        <ele>3.3</ele>
        <time>2020-05-31T17:19:52Z</time>
      </trkpt>
      <trkpt lat="46.16002" lon="-1.12974">
        <ele>3.3</ele>
        <time>2020-05-31T17:19:53Z</time>
      </trkpt>
      <trkpt lat="46.16" lon="-1.12981">
        <ele>3.3</ele>
        <time>2020-05-31T17:19:54Z</time>
      </trkpt>
      <trkpt lat="46.15998" lon="-1.12988">
        <ele>3.3</ele>
        <time>2020-05-31T17:19:55Z</time>
      </trkpt>
      <trkpt lat="46.15996" lon="-1.12995">
        <ele>3.3</ele>
        <time>2020-05-31T17:19:56Z</time>
      </trkpt>
      <trkpt lat="46.15994" lon="-1.13002">
        <ele>3.3</ele>
        <time>2020-05-31T17:19:57Z</time>
      </trkpt>
      <trkpt lat="46.15992" lon="-1.1301">
        <ele>3.3</ele>
        <time>2020-05-31T17:19:58Z</time>
      </trkpt>
      <trkpt lat="46.1599" lon="-1.13017">
        <ele>3.3</ele>
        <time>2020-05-31T17:19:59Z</time>
      </trkpt>
      <trkpt lat="46.15987" lon="-1.13025">
        <ele>3.3</ele>
        <time>2020-05-31T17:20:00Z</time>
      </trkpt>
      <trkpt lat="46.15985" lon="-1.13033">
        <ele>3.3</ele>
        <time>2020-05-31T17:20:01Z</time>
      </trkpt>
      <trkpt lat="46.15982" lon="-1.13041">
        <ele>3.3</ele>
        <time>2020-05-31T17:20:02Z</time>
      </trkpt>
      <trkpt lat="46.1598" lon="-1.1305">
        <ele>3.3</ele>
        <time>2020-05-31T17:20:03Z</time>
      </trkpt>
      <trkpt lat="46.15978" lon="-1.13058">
        <ele>3.3</ele>
        <time>2020-05-31T17:20:04Z</time>
      </trkpt>
      <trkpt lat="46.15975" lon="-1.13066">
        <ele>3.3</ele>
        <time>2020-05-31T17:20:05Z</time>
      </trkpt>
      <trkpt lat="46.15973" lon="-1.13074">
        <ele>3.3</ele>
        <time>2020-05-31T17:20:06Z</time>
      </trkpt>
      <trkpt lat="46.15971" lon="-1.13081">
        <ele>3.3</ele>
        <time>2020-05-31T17:20:07Z</time>
      </trkpt>
      <trkpt lat="46.1597" lon="-1.13088">
        <ele>3.3</ele>
        <time>2020-05-31T17:20:08Z</time>
      </trkpt>
      <trkpt lat="46.15968" lon="-1.13096">
        <ele>3.3</ele>
        <time>2020-05-31T17:20:09Z</time>
      </trkpt>
      <trkpt lat="46.15967" lon="-1.13103">
        <ele>3.3</ele>
        <time>2020-05-31T17:20:10Z</time>
      </trkpt>
      <trkpt lat="46.15964" lon="-1.13111">
        <ele>3.3</ele>
        <time>2020-05-31T17:20:11Z</time>
      </trkpt>
      <trkpt lat="46.15962" lon="-1.13118">
        <ele>3.3</ele>
        <time>2020-05-31T17:20:12Z</time>
      </trkpt>
      <trkpt lat="46.1596" lon="-1.13125">
        <ele>3.4</ele>
        <time>2020-05-31T17:20:13Z</time>
      </trkpt>
      <trkpt lat="46.15958" lon="-1.13133">
        <ele>3.4</ele>
        <time>2020-05-31T17:20:14Z</time>
      </trkpt>
      <trkpt lat="46.15956" lon="-1.13141">
        <ele>3.4</ele>
        <time>2020-05-31T17:20:15Z</time>
      </trkpt>
      <trkpt lat="46.15954" lon="-1.13148">
        <ele>3.3</ele>
        <time>2020-05-31T17:20:16Z</time>
      </trkpt>
      <trkpt lat="46.15952" lon="-1.13157">
        <ele>3.3</ele>
        <time>2020-05-31T17:20:17Z</time>
      </trkpt>
      <trkpt lat="46.15949" lon="-1.13166">
        <ele>3.3</ele>
        <time>2020-05-31T17:20:18Z</time>
      </trkpt>
      <trkpt lat="46.15947" lon="-1.13175">
        <ele>3.3</ele>
        <time>2020-05-31T17:20:19Z</time>
      </trkpt>
      <trkpt lat="46.15944" lon="-1.13184">
        <ele>3.4</ele>
        <time>2020-05-31T17:20:20Z</time>
      </trkpt>
      <trkpt lat="46.15942" lon="-1.13193">
        <ele>3.4</ele>
        <time>2020-05-31T17:20:21Z</time>
      </trkpt>
      <trkpt lat="46.1594" lon="-1.13201">
        <ele>3.4</ele>
        <time>2020-05-31T17:20:22Z</time>
      </trkpt>
      <trkpt lat="46.15937" lon="-1.1321">
        <ele>3.4</ele>
        <time>2020-05-31T17:20:23Z</time>
      </trkpt>
      <trkpt lat="46.15935" lon="-1.13218">
        <ele>3.4</ele>
        <time>2020-05-31T17:20:24Z</time>
      </trkpt>
      <trkpt lat="46.15932" lon="-1.13227">
        <ele>3.4</ele>
        <time>2020-05-31T17:20:25Z</time>
      </trkpt>
      <trkpt lat="46.1593" lon="-1.13236">
        <ele>3.4</ele>
        <time>2020-05-31T17:20:26Z</time>
      </trkpt>
      <trkpt lat="46.15928" lon="-1.13244">
        <ele>3.4</ele>
        <time>2020-05-31T17:20:27Z</time>
      </trkpt>
      <trkpt lat="46.15926" lon="-1.13253">
        <ele>3.4</ele>
        <time>2020-05-31T17:20:28Z</time>
      </trkpt>
      <trkpt lat="46.15923" lon="-1.13261">
        <ele>3.4</ele>
        <time>2020-05-31T17:20:29Z</time>
      </trkpt>
      <trkpt lat="46.1592" lon="-1.13271">
        <ele>3.4</ele>
        <time>2020-05-31T17:20:30Z</time>
      </trkpt>
      <trkpt lat="46.15917" lon="-1.13281">
        <ele>3.3</ele>
        <time>2020-05-31T17:20:31Z</time>
      </trkpt>
      <trkpt lat="46.15914" lon="-1.13292">
        <ele>3.3</ele>
        <time>2020-05-31T17:20:32Z</time>
      </trkpt>
      <trkpt lat="46.15911" lon="-1.133">
        <ele>3.3</ele>
        <time>2020-05-31T17:20:33Z</time>
      </trkpt>
      <trkpt lat="46.15909" lon="-1.1331">
        <ele>3.3</ele>
        <time>2020-05-31T17:20:34Z</time>
      </trkpt>
      <trkpt lat="46.15906" lon="-1.13319">
        <ele>3.3</ele>
        <time>2020-05-31T17:20:35Z</time>
      </trkpt>
      <trkpt lat="46.15904" lon="-1.13329">
        <ele>3.3</ele>
        <time>2020-05-31T17:20:36Z</time>
      </trkpt>
      <trkpt lat="46.15902" lon="-1.13337">
        <ele>3.3</ele>
        <time>2020-05-31T17:20:37Z</time>
      </trkpt>
      <trkpt lat="46.15899" lon="-1.13346">
        <ele>3.3</ele>
        <time>2020-05-31T17:20:38Z</time>
      </trkpt>
      <trkpt lat="46.15897" lon="-1.13354">
        <ele>3.3</ele>
        <time>2020-05-31T17:20:39Z</time>
      </trkpt>
      <trkpt lat="46.15895" lon="-1.13363">
        <ele>3.3</ele>
        <time>2020-05-31T17:20:40Z</time>
      </trkpt>
      <trkpt lat="46.15893" lon="-1.13371">
        <ele>3.3</ele>
        <time>2020-05-31T17:20:41Z</time>
      </trkpt>
      <trkpt lat="46.1589" lon="-1.13379">
        <ele>3.3</ele>
        <time>2020-05-31T17:20:42Z</time>
      </trkpt>
      <trkpt lat="46.15888" lon="-1.13387">
        <ele>3.3</ele>
        <time>2020-05-31T17:20:43Z</time>
      </trkpt>
      <trkpt lat="46.15886" lon="-1.13394">
        <ele>3.4</ele>
        <time>2020-05-31T17:20:44Z</time>
      </trkpt>
      <trkpt lat="46.15884" lon="-1.13401">
        <ele>3.4</ele>
        <time>2020-05-31T17:20:45Z</time>
      </trkpt>
      <trkpt lat="46.15882" lon="-1.1341">
        <ele>3.4</ele>
        <time>2020-05-31T17:20:46Z</time>
      </trkpt>
      <trkpt lat="46.15879" lon="-1.13418">
        <ele>3.4</ele>
        <time>2020-05-31T17:20:47Z</time>
      </trkpt>
      <trkpt lat="46.15877" lon="-1.13426">
        <ele>3.4</ele>
        <time>2020-05-31T17:20:48Z</time>
      </trkpt>
      <trkpt lat="46.15874" lon="-1.13435">
        <ele>3.4</ele>
        <time>2020-05-31T17:20:49Z</time>
      </trkpt>
      <trkpt lat="46.15872" lon="-1.13443">
        <ele>3.4</ele>
        <time>2020-05-31T17:20:50Z</time>
      </trkpt>
      <trkpt lat="46.1587" lon="-1.1345">
        <ele>3.4</ele>
        <time>2020-05-31T17:20:51Z</time>
      </trkpt>
      <trkpt lat="46.15868" lon="-1.13457">
        <ele>3.4</ele>
        <time>2020-05-31T17:20:52Z</time>
      </trkpt>
      <trkpt lat="46.15866" lon="-1.13464">
        <ele>3.3</ele>
        <time>2020-05-31T17:20:53Z</time>
      </trkpt>
      <trkpt lat="46.15864" lon="-1.13471">
        <ele>3.3</ele>
        <time>2020-05-31T17:20:54Z</time>
      </trkpt>
      <trkpt lat="46.15862" lon="-1.13479">
        <ele>3.3</ele>
        <time>2020-05-31T17:20:55Z</time>
      </trkpt>
      <trkpt lat="46.1586" lon="-1.13487">
        <ele>3.3</ele>
        <time>2020-05-31T17:20:56Z</time>
      </trkpt>
      <trkpt lat="46.15857" lon="-1.13496">
        <ele>3.3</ele>
        <time>2020-05-31T17:20:57Z</time>
      </trkpt>
      <trkpt lat="46.15855" lon="-1.13505">
        <ele>3.3</ele>
        <time>2020-05-31T17:20:58Z</time>
      </trkpt>
      <trkpt lat="46.15852" lon="-1.13514">
        <ele>3.3</ele>
        <time>2020-05-31T17:20:59Z</time>
      </trkpt>
      <trkpt lat="46.1585" lon="-1.13522">
        <ele>3.2</ele>
        <time>2020-05-31T17:21:00Z</time>
      </trkpt>
      <trkpt lat="46.15848" lon="-1.13528">
        <ele>3.2</ele>
        <time>2020-05-31T17:21:01Z</time>
      </trkpt>
      <trkpt lat="46.15845" lon="-1.13536">
        <ele>3.2</ele>
        <time>2020-05-31T17:21:02Z</time>
      </trkpt>
      <trkpt lat="46.15843" lon="-1.13543">
        <ele>3.2</ele>
        <time>2020-05-31T17:21:03Z</time>
      </trkpt>
      <trkpt lat="46.15841" lon="-1.13552">
        <ele>3.2</ele>
        <time>2020-05-31T17:21:04Z</time>
      </trkpt>
      <trkpt lat="46.15838" lon="-1.13562">
        <ele>3.1</ele>
        <time>2020-05-31T17:21:05Z</time>
      </trkpt>
      <trkpt lat="46.15836" lon="-1.13571">
        <ele>3.2</ele>
        <time>2020-05-31T17:21:06Z</time>
      </trkpt>
      <trkpt lat="46.15834" lon="-1.13576">
        <ele>3.2</ele>
        <time>2020-05-31T17:21:07Z</time>
      </trkpt>
      <trkpt lat="46.15832" lon="-1.13585">
        <ele>3.3</ele>
        <time>2020-05-31T17:21:08Z</time>
      </trkpt>
      <trkpt lat="46.1583" lon="-1.13591">
        <ele>3.3</ele>
        <time>2020-05-31T17:21:09Z</time>
      </trkpt>
      <trkpt lat="46.15827" lon="-1.136">
        <ele>3.4</ele>
        <time>2020-05-31T17:21:10Z</time>
      </trkpt>
      <trkpt lat="46.15824" lon="-1.1361">
        <ele>3.5</ele>
        <time>2020-05-31T17:21:11Z</time>
      </trkpt>
      <trkpt lat="46.15822" lon="-1.13619">
        <ele>3.5</ele>
        <time>2020-05-31T17:21:12Z</time>
      </trkpt>
      <trkpt lat="46.1582" lon="-1.13628">
        <ele>3.6</ele>
        <time>2020-05-31T17:21:13Z</time>
      </trkpt>
      <trkpt lat="46.15817" lon="-1.13638">
        <ele>3.8</ele>
        <time>2020-05-31T17:21:14Z</time>
      </trkpt>
      <trkpt lat="46.15815" lon="-1.13646">
        <ele>3.9</ele>
        <time>2020-05-31T17:21:15Z</time>
      </trkpt>
      <trkpt lat="46.15813" lon="-1.13654">
        <ele>3.9</ele>
        <time>2020-05-31T17:21:16Z</time>
      </trkpt>
      <trkpt lat="46.1581" lon="-1.13663">
        <ele>4</ele>
        <time>2020-05-31T17:21:17Z</time>
      </trkpt>
      <trkpt lat="46.15808" lon="-1.13671">
        <ele>4.1</ele>
        <time>2020-05-31T17:21:18Z</time>
      </trkpt>
      <trkpt lat="46.15805" lon="-1.13679">
        <ele>4.2</ele>
        <time>2020-05-31T17:21:19Z</time>
      </trkpt>
      <trkpt lat="46.15802" lon="-1.13688">
        <ele>4.2</ele>
        <time>2020-05-31T17:21:20Z</time>
      </trkpt>
      <trkpt lat="46.15798" lon="-1.13696">
        <ele>4.2</ele>
        <time>2020-05-31T17:21:21Z</time>
      </trkpt>
      <trkpt lat="46.15796" lon="-1.13705">
        <ele>4.3</ele>
        <time>2020-05-31T17:21:22Z</time>
      </trkpt>
      <trkpt lat="46.15794" lon="-1.13713">
        <ele>4.3</ele>
        <time>2020-05-31T17:21:23Z</time>
      </trkpt>
      <trkpt lat="46.15791" lon="-1.13721">
        <ele>4.3</ele>
        <time>2020-05-31T17:21:24Z</time>
      </trkpt>
      <trkpt lat="46.15789" lon="-1.13729">
        <ele>4.4</ele>
        <time>2020-05-31T17:21:25Z</time>
      </trkpt>
      <trkpt lat="46.15787" lon="-1.13737">
        <ele>4.4</ele>
        <time>2020-05-31T17:21:26Z</time>
      </trkpt>
      <trkpt lat="46.15784" lon="-1.13746">
        <ele>4.4</ele>
        <time>2020-05-31T17:21:27Z</time>
      </trkpt>
      <trkpt lat="46.15782" lon="-1.13753">
        <ele>4.5</ele>
        <time>2020-05-31T17:21:28Z</time>
      </trkpt>
      <trkpt lat="46.1578" lon="-1.13762">
        <ele>4.5</ele>
        <time>2020-05-31T17:21:29Z</time>
      </trkpt>
      <trkpt lat="46.15779" lon="-1.13767">
        <ele>4.5</ele>
        <time>2020-05-31T17:21:30Z</time>
      </trkpt>
      <trkpt lat="46.15777" lon="-1.13773">
        <ele>4.6</ele>
        <time>2020-05-31T17:21:31Z</time>
      </trkpt>
      <trkpt lat="46.15775" lon="-1.1378">
        <ele>4.6</ele>
        <time>2020-05-31T17:21:32Z</time>
      </trkpt>
      <trkpt lat="46.15773" lon="-1.13787">
        <ele>4.6</ele>
        <time>2020-05-31T17:21:33Z</time>
      </trkpt>
      <trkpt lat="46.15771" lon="-1.13793">
        <ele>4.6</ele>
        <time>2020-05-31T17:21:34Z</time>
      </trkpt>
      <trkpt lat="46.15768" lon="-1.13802">
        <ele>4.7</ele>
        <time>2020-05-31T17:21:35Z</time>
      </trkpt>
      <trkpt lat="46.15766" lon="-1.1381">
        <ele>4.7</ele>
        <time>2020-05-31T17:21:36Z</time>
      </trkpt>
      <trkpt lat="46.15764" lon="-1.13817">
        <ele>4.7</ele>
        <time>2020-05-31T17:21:37Z</time>
      </trkpt>
      <trkpt lat="46.15761" lon="-1.13824">
        <ele>4.7</ele>
        <time>2020-05-31T17:21:38Z</time>
      </trkpt>
      <trkpt lat="46.1576" lon="-1.1383">
        <ele>4.7</ele>
        <time>2020-05-31T17:21:39Z</time>
      </trkpt>
      <trkpt lat="46.15758" lon="-1.13839">
        <ele>4.7</ele>
        <time>2020-05-31T17:21:40Z</time>
      </trkpt>
      <trkpt lat="46.15756" lon="-1.13846">
        <ele>4.7</ele>
        <time>2020-05-31T17:21:41Z</time>
      </trkpt>
      <trkpt lat="46.15754" lon="-1.13854">
        <ele>4.7</ele>
        <time>2020-05-31T17:21:42Z</time>
      </trkpt>
      <trkpt lat="46.15751" lon="-1.13862">
        <ele>4.7</ele>
        <time>2020-05-31T17:21:43Z</time>
      </trkpt>
      <trkpt lat="46.15749" lon="-1.13869">
        <ele>4.7</ele>
        <time>2020-05-31T17:21:44Z</time>
      </trkpt>
      <trkpt lat="46.15747" lon="-1.13877">
        <ele>4.7</ele>
        <time>2020-05-31T17:21:45Z</time>
      </trkpt>
      <trkpt lat="46.15745" lon="-1.13886">
        <ele>4.8</ele>
        <time>2020-05-31T17:21:46Z</time>
      </trkpt>
      <trkpt lat="46.15742" lon="-1.13894">
        <ele>4.8</ele>
        <time>2020-05-31T17:21:47Z</time>
      </trkpt>
      <trkpt lat="46.15739" lon="-1.13902">
        <ele>4.9</ele>
        <time>2020-05-31T17:21:48Z</time>
      </trkpt>
      <trkpt lat="46.15736" lon="-1.13911">
        <ele>5</ele>
        <time>2020-05-31T17:21:49Z</time>
      </trkpt>
      <trkpt lat="46.15734" lon="-1.13918">
        <ele>5</ele>
        <time>2020-05-31T17:21:50Z</time>
      </trkpt>
      <trkpt lat="46.15732" lon="-1.13926">
        <ele>5.1</ele>
        <time>2020-05-31T17:21:51Z</time>
      </trkpt>
      <trkpt lat="46.15729" lon="-1.13934">
        <ele>5.1</ele>
        <time>2020-05-31T17:21:52Z</time>
      </trkpt>
      <trkpt lat="46.15728" lon="-1.13938">
        <ele>5.1</ele>
        <time>2020-05-31T17:21:53Z</time>
      </trkpt>
      <trkpt lat="46.15726" lon="-1.13944">
        <ele>5.2</ele>
        <time>2020-05-31T17:21:54Z</time>
      </trkpt>
      <trkpt lat="46.15724" lon="-1.13951">
        <ele>5.2</ele>
        <time>2020-05-31T17:21:55Z</time>
      </trkpt>
      <trkpt lat="46.15722" lon="-1.13958">
        <ele>5.3</ele>
        <time>2020-05-31T17:21:56Z</time>
      </trkpt>
      <trkpt lat="46.1572" lon="-1.13966">
        <ele>5.3</ele>
        <time>2020-05-31T17:21:57Z</time>
      </trkpt>
      <trkpt lat="46.1572" lon="-1.1397">
        <ele>5.3</ele>
        <time>2020-05-31T17:21:58Z</time>
      </trkpt>
      <trkpt lat="46.15718" lon="-1.13976">
        <ele>5.4</ele>
        <time>2020-05-31T17:21:59Z</time>
      </trkpt>
      <trkpt lat="46.15717" lon="-1.1398">
        <ele>5.4</ele>
        <time>2020-05-31T17:22:00Z</time>
      </trkpt>
      <trkpt lat="46.15716" lon="-1.13985">
        <ele>5.4</ele>
        <time>2020-05-31T17:22:01Z</time>
      </trkpt>
      <trkpt lat="46.15715" lon="-1.13989">
        <ele>5.4</ele>
        <time>2020-05-31T17:22:02Z</time>
      </trkpt>
      <trkpt lat="46.15714" lon="-1.13992">
        <ele>5.4</ele>
        <time>2020-05-31T17:22:03Z</time>
      </trkpt>
      <trkpt lat="46.15712" lon="-1.13997">
        <ele>5.3</ele>
        <time>2020-05-31T17:22:04Z</time>
      </trkpt>
      <trkpt lat="46.15709" lon="-1.14004">
        <ele>5.3</ele>
        <time>2020-05-31T17:22:05Z</time>
      </trkpt>
      <trkpt lat="46.15707" lon="-1.14011">
        <ele>5.2</ele>
        <time>2020-05-31T17:22:06Z</time>
      </trkpt>
      <trkpt lat="46.15705" lon="-1.14016">
        <ele>5.2</ele>
        <time>2020-05-31T17:22:07Z</time>
      </trkpt>
      <trkpt lat="46.15703" lon="-1.14023">
        <ele>5.1</ele>
        <time>2020-05-31T17:22:08Z</time>
      </trkpt>
      <trkpt lat="46.157" lon="-1.14032">
        <ele>5</ele>
        <time>2020-05-31T17:22:09Z</time>
      </trkpt>
      <trkpt lat="46.15701" lon="-1.14041">
        <ele>4.9</ele>
        <time>2020-05-31T17:22:10Z</time>
      </trkpt>
      <trkpt lat="46.15699" lon="-1.14046">
        <ele>4.9</ele>
        <time>2020-05-31T17:22:11Z</time>
      </trkpt>
      <trkpt lat="46.15698" lon="-1.14053">
        <ele>4.8</ele>
        <time>2020-05-31T17:22:12Z</time>
      </trkpt>
      <trkpt lat="46.15696" lon="-1.1406">
        <ele>4.8</ele>
        <time>2020-05-31T17:22:13Z</time>
      </trkpt>
      <trkpt lat="46.15694" lon="-1.14067">
        <ele>4.7</ele>
        <time>2020-05-31T17:22:14Z</time>
      </trkpt>
      <trkpt lat="46.15692" lon="-1.14075">
        <ele>4.7</ele>
        <time>2020-05-31T17:22:15Z</time>
      </trkpt>
      <trkpt lat="46.15691" lon="-1.14084">
        <ele>4.6</ele>
        <time>2020-05-31T17:22:16Z</time>
      </trkpt>
      <trkpt lat="46.15688" lon="-1.14092">
        <ele>4.5</ele>
        <time>2020-05-31T17:22:17Z</time>
      </trkpt>
      <trkpt lat="46.15686" lon="-1.14098">
        <ele>4.5</ele>
        <time>2020-05-31T17:22:18Z</time>
      </trkpt>
      <trkpt lat="46.15683" lon="-1.14105">
        <ele>4.5</ele>
        <time>2020-05-31T17:22:19Z</time>
      </trkpt>
      <trkpt lat="46.1568" lon="-1.14114">
        <ele>4.5</ele>
        <time>2020-05-31T17:22:20Z</time>
      </trkpt>
      <trkpt lat="46.15678" lon="-1.14119">
        <ele>4.5</ele>
        <time>2020-05-31T17:22:21Z</time>
      </trkpt>
      <trkpt lat="46.15677" lon="-1.14126">
        <ele>4.5</ele>
        <time>2020-05-31T17:22:22Z</time>
      </trkpt>
      <trkpt lat="46.15675" lon="-1.14132">
        <ele>4.4</ele>
        <time>2020-05-31T17:22:23Z</time>
      </trkpt>
      <trkpt lat="46.15674" lon="-1.14137">
        <ele>4.4</ele>
        <time>2020-05-31T17:22:24Z</time>
      </trkpt>
      <trkpt lat="46.15672" lon="-1.14143">
        <ele>4.4</ele>
        <time>2020-05-31T17:22:25Z</time>
      </trkpt>
      <trkpt lat="46.1567" lon="-1.14149">
        <ele>4.4</ele>
        <time>2020-05-31T17:22:26Z</time>
      </trkpt>
      <trkpt lat="46.15668" lon="-1.14154">
        <ele>4.4</ele>
        <time>2020-05-31T17:22:27Z</time>
      </trkpt>
      <trkpt lat="46.15671" lon="-1.14158">
        <ele>4.3</ele>
        <time>2020-05-31T17:22:28Z</time>
      </trkpt>
      <trkpt lat="46.1567" lon="-1.14163">
        <ele>4.3</ele>
        <time>2020-05-31T17:22:29Z</time>
      </trkpt>
      <trkpt lat="46.15669" lon="-1.14168">
        <ele>4.2</ele>
        <time>2020-05-31T17:22:30Z</time>
      </trkpt>
      <trkpt lat="46.15667" lon="-1.14172">
        <ele>4.2</ele>
        <time>2020-05-31T17:22:31Z</time>
      </trkpt>
      <trkpt lat="46.15666" lon="-1.14173">
        <ele>4.2</ele>
        <time>2020-05-31T17:22:32Z</time>
      </trkpt>
      <trkpt lat="46.15665" lon="-1.14174">
        <ele>4.2</ele>
        <time>2020-05-31T17:22:33Z</time>
      </trkpt>
      <trkpt lat="46.15665" lon="-1.14173">
        <ele>4.2</ele>
        <time>2020-05-31T17:22:34Z</time>
      </trkpt>
      <trkpt lat="46.15666" lon="-1.14173">
        <ele>4.2</ele>
        <time>2020-05-31T17:22:35Z</time>
      </trkpt>
      <trkpt lat="46.15665" lon="-1.14173">
        <ele>4.2</ele>
        <time>2020-05-31T17:22:36Z</time>
      </trkpt>
      <trkpt lat="46.15665" lon="-1.14175">
        <ele>4.2</ele>
        <time>2020-05-31T17:22:37Z</time>
      </trkpt>
      <trkpt lat="46.15665" lon="-1.14177">
        <ele>4.2</ele>
        <time>2020-05-31T17:22:38Z</time>
      </trkpt>
      <trkpt lat="46.15665" lon="-1.14182">
        <ele>4.2</ele>
        <time>2020-05-31T17:22:39Z</time>
      </trkpt>
      <trkpt lat="46.15668" lon="-1.14186">
        <ele>4.2</ele>
        <time>2020-05-31T17:22:40Z</time>
      </trkpt>
      <trkpt lat="46.15669" lon="-1.14192">
        <ele>4.2</ele>
        <time>2020-05-31T17:22:41Z</time>
      </trkpt>
      <trkpt lat="46.15669" lon="-1.14195">
        <ele>4.2</ele>
        <time>2020-05-31T17:22:42Z</time>
      </trkpt>
      <trkpt lat="46.15669" lon="-1.142">
        <ele>4.2</ele>
        <time>2020-05-31T17:22:43Z</time>
      </trkpt>
      <trkpt lat="46.15669" lon="-1.14207">
        <ele>4.2</ele>
        <time>2020-05-31T17:22:44Z</time>
      </trkpt>
      <trkpt lat="46.15668" lon="-1.14214">
        <ele>4.2</ele>
        <time>2020-05-31T17:22:45Z</time>
      </trkpt>
      <trkpt lat="46.15669" lon="-1.14222">
        <ele>4.2</ele>
        <time>2020-05-31T17:22:46Z</time>
      </trkpt>
      <trkpt lat="46.15669" lon="-1.14228">
        <ele>4.2</ele>
        <time>2020-05-31T17:22:47Z</time>
      </trkpt>
      <trkpt lat="46.15669" lon="-1.1423">
        <ele>4.2</ele>
        <time>2020-05-31T17:22:48Z</time>
      </trkpt>
      <trkpt lat="46.15667" lon="-1.14237">
        <ele>4.2</ele>
        <time>2020-05-31T17:22:49Z</time>
      </trkpt>
      <trkpt lat="46.15666" lon="-1.14243">
        <ele>4.2</ele>
        <time>2020-05-31T17:22:50Z</time>
      </trkpt>
      <trkpt lat="46.15665" lon="-1.14248">
        <ele>4.2</ele>
        <time>2020-05-31T17:22:51Z</time>
      </trkpt>
      <trkpt lat="46.15664" lon="-1.1425">
        <ele>4.2</ele>
        <time>2020-05-31T17:22:52Z</time>
      </trkpt>
      <trkpt lat="46.15662" lon="-1.14253">
        <ele>4.2</ele>
        <time>2020-05-31T17:22:53Z</time>
      </trkpt>
      <trkpt lat="46.1566" lon="-1.14258">
        <ele>4.2</ele>
        <time>2020-05-31T17:22:54Z</time>
      </trkpt>
      <trkpt lat="46.15659" lon="-1.14263">
        <ele>4.2</ele>
        <time>2020-05-31T17:22:55Z</time>
      </trkpt>
      <trkpt lat="46.15658" lon="-1.14267">
        <ele>4.2</ele>
        <time>2020-05-31T17:22:56Z</time>
      </trkpt>
      <trkpt lat="46.15656" lon="-1.14271">
        <ele>4.2</ele>
        <time>2020-05-31T17:22:57Z</time>
      </trkpt>
      <trkpt lat="46.15652" lon="-1.14275">
        <ele>4.3</ele>
        <time>2020-05-31T17:22:58Z</time>
      </trkpt>
      <trkpt lat="46.15648" lon="-1.14278">
        <ele>4.3</ele>
        <time>2020-05-31T17:22:59Z</time>
      </trkpt>
      <trkpt lat="46.15643" lon="-1.14278">
        <ele>4.4</ele>
        <time>2020-05-31T17:23:00Z</time>
      </trkpt>
      <trkpt lat="46.15639" lon="-1.14279">
        <ele>4.4</ele>
        <time>2020-05-31T17:23:01Z</time>
      </trkpt>
      <trkpt lat="46.15636" lon="-1.14281">
        <ele>4.4</ele>
        <time>2020-05-31T17:23:02Z</time>
      </trkpt>
      <trkpt lat="46.15633" lon="-1.14282">
        <ele>4.4</ele>
        <time>2020-05-31T17:23:03Z</time>
      </trkpt>
      <trkpt lat="46.15629" lon="-1.14286">
        <ele>4.4</ele>
        <time>2020-05-31T17:23:04Z</time>
      </trkpt>
      <trkpt lat="46.15628" lon="-1.14288">
        <ele>4.4</ele>
        <time>2020-05-31T17:23:05Z</time>
      </trkpt>
      <trkpt lat="46.15624" lon="-1.1429">
        <ele>4.4</ele>
        <time>2020-05-31T17:23:06Z</time>
      </trkpt>
      <trkpt lat="46.1562" lon="-1.14292">
        <ele>4.4</ele>
        <time>2020-05-31T17:23:07Z</time>
      </trkpt>
      <trkpt lat="46.15617" lon="-1.14292">
        <ele>4.4</ele>
        <time>2020-05-31T17:23:08Z</time>
      </trkpt>
      <trkpt lat="46.15613" lon="-1.14294">
        <ele>4.4</ele>
        <time>2020-05-31T17:23:09Z</time>
      </trkpt>
      <trkpt lat="46.15609" lon="-1.14295">
        <ele>4.4</ele>
        <time>2020-05-31T17:23:10Z</time>
      </trkpt>
      <trkpt lat="46.15605" lon="-1.14298">
        <ele>4.4</ele>
        <time>2020-05-31T17:23:11Z</time>
      </trkpt>
      <trkpt lat="46.15601" lon="-1.14299">
        <ele>4.3</ele>
        <time>2020-05-31T17:23:12Z</time>
      </trkpt>
      <trkpt lat="46.15597" lon="-1.143">
        <ele>4.3</ele>
        <time>2020-05-31T17:23:13Z</time>
      </trkpt>
      <trkpt lat="46.15593" lon="-1.143">
        <ele>4.2</ele>
        <time>2020-05-31T17:23:14Z</time>
      </trkpt>
      <trkpt lat="46.15589" lon="-1.143">
        <ele>4.2</ele>
        <time>2020-05-31T17:23:15Z</time>
      </trkpt>
      <trkpt lat="46.15584" lon="-1.143">
        <ele>4.2</ele>
        <time>2020-05-31T17:23:16Z</time>
      </trkpt>
      <trkpt lat="46.15579" lon="-1.14303">
        <ele>4.1</ele>
        <time>2020-05-31T17:23:17Z</time>
      </trkpt>
      <trkpt lat="46.15574" lon="-1.14302">
        <ele>4.1</ele>
        <time>2020-05-31T17:23:18Z</time>
      </trkpt>
      <trkpt lat="46.15569" lon="-1.14302">
        <ele>4</ele>
        <time>2020-05-31T17:23:19Z</time>
      </trkpt>
      <trkpt lat="46.15563" lon="-1.14304">
        <ele>4</ele>
        <time>2020-05-31T17:23:20Z</time>
      </trkpt>
      <trkpt lat="46.15559" lon="-1.14306">
        <ele>4</ele>
        <time>2020-05-31T17:23:21Z</time>
      </trkpt>
      <trkpt lat="46.15553" lon="-1.14306">
        <ele>4</ele>
        <time>2020-05-31T17:23:22Z</time>
      </trkpt>
      <trkpt lat="46.15549" lon="-1.14305">
        <ele>4</ele>
        <time>2020-05-31T17:23:23Z</time>
      </trkpt>
      <trkpt lat="46.15544" lon="-1.14302">
        <ele>4</ele>
        <time>2020-05-31T17:23:24Z</time>
      </trkpt>
      <trkpt lat="46.15541" lon="-1.14301">
        <ele>4</ele>
        <time>2020-05-31T17:23:25Z</time>
      </trkpt>
      <trkpt lat="46.15537" lon="-1.14304">
        <ele>4.1</ele>
        <time>2020-05-31T17:23:26Z</time>
      </trkpt>
      <trkpt lat="46.15531" lon="-1.14308">
        <ele>4.1</ele>
        <time>2020-05-31T17:23:27Z</time>
      </trkpt>
      <trkpt lat="46.15526" lon="-1.14312">
        <ele>4.2</ele>
        <time>2020-05-31T17:23:28Z</time>
      </trkpt>
      <trkpt lat="46.15521" lon="-1.14317">
        <ele>4.3</ele>
        <time>2020-05-31T17:23:29Z</time>
      </trkpt>
      <trkpt lat="46.15515" lon="-1.1432">
        <ele>4.4</ele>
        <time>2020-05-31T17:23:30Z</time>
      </trkpt>
      <trkpt lat="46.1551" lon="-1.14323">
        <ele>4.4</ele>
        <time>2020-05-31T17:23:31Z</time>
      </trkpt>
      <trkpt lat="46.15505" lon="-1.14327">
        <ele>4.4</ele>
        <time>2020-05-31T17:23:32Z</time>
      </trkpt>
      <trkpt lat="46.15503" lon="-1.14329">
        <ele>4.4</ele>
        <time>2020-05-31T17:23:33Z</time>
      </trkpt>
      <trkpt lat="46.15499" lon="-1.14332">
        <ele>4.4</ele>
        <time>2020-05-31T17:23:34Z</time>
      </trkpt>
      <trkpt lat="46.15496" lon="-1.14336">
        <ele>4.4</ele>
        <time>2020-05-31T17:23:35Z</time>
      </trkpt>
      <trkpt lat="46.15492" lon="-1.1434">
        <ele>4.4</ele>
        <time>2020-05-31T17:23:36Z</time>
      </trkpt>
      <trkpt lat="46.15487" lon="-1.14346">
        <ele>4.4</ele>
        <time>2020-05-31T17:23:37Z</time>
      </trkpt>
      <trkpt lat="46.15483" lon="-1.1435">
        <ele>4.4</ele>
        <time>2020-05-31T17:23:38Z</time>
      </trkpt>
      <trkpt lat="46.15479" lon="-1.14354">
        <ele>4.4</ele>
        <time>2020-05-31T17:23:39Z</time>
      </trkpt>
      <trkpt lat="46.15476" lon="-1.14359">
        <ele>4.4</ele>
        <time>2020-05-31T17:23:40Z</time>
      </trkpt>
      <trkpt lat="46.15473" lon="-1.14364">
        <ele>4.4</ele>
        <time>2020-05-31T17:23:41Z</time>
      </trkpt>
      <trkpt lat="46.15469" lon="-1.14369">
        <ele>4.5</ele>
        <time>2020-05-31T17:23:42Z</time>
      </trkpt>
      <trkpt lat="46.15465" lon="-1.14375">
        <ele>4.5</ele>
        <time>2020-05-31T17:23:43Z</time>
      </trkpt>
      <trkpt lat="46.15461" lon="-1.14382">
        <ele>4.5</ele>
        <time>2020-05-31T17:23:44Z</time>
      </trkpt>
      <trkpt lat="46.15458" lon="-1.14387">
        <ele>4.5</ele>
        <time>2020-05-31T17:23:45Z</time>
      </trkpt>
      <trkpt lat="46.15454" lon="-1.14395">
        <ele>4.6</ele>
        <time>2020-05-31T17:23:46Z</time>
      </trkpt>
      <trkpt lat="46.1545" lon="-1.14401">
        <ele>4.6</ele>
        <time>2020-05-31T17:23:47Z</time>
      </trkpt>
      <trkpt lat="46.15447" lon="-1.14407">
        <ele>4.6</ele>
        <time>2020-05-31T17:23:48Z</time>
      </trkpt>
      <trkpt lat="46.15444" lon="-1.14414">
        <ele>4.6</ele>
        <time>2020-05-31T17:23:49Z</time>
      </trkpt>
      <trkpt lat="46.15441" lon="-1.14421">
        <ele>4.6</ele>
        <time>2020-05-31T17:23:50Z</time>
      </trkpt>
      <trkpt lat="46.15438" lon="-1.14428">
        <ele>4.6</ele>
        <time>2020-05-31T17:23:51Z</time>
      </trkpt>
      <trkpt lat="46.15435" lon="-1.14431">
        <ele>4.6</ele>
        <time>2020-05-31T17:23:52Z</time>
      </trkpt>
      <trkpt lat="46.15432" lon="-1.14438">
        <ele>4.6</ele>
        <time>2020-05-31T17:23:53Z</time>
      </trkpt>
      <trkpt lat="46.15428" lon="-1.14443">
        <ele>4.7</ele>
        <time>2020-05-31T17:23:54Z</time>
      </trkpt>
      <trkpt lat="46.15424" lon="-1.14448">
        <ele>4.7</ele>
        <time>2020-05-31T17:23:55Z</time>
      </trkpt>
      <trkpt lat="46.1542" lon="-1.14453">
        <ele>4.7</ele>
        <time>2020-05-31T17:23:56Z</time>
      </trkpt>
      <trkpt lat="46.15417" lon="-1.14458">
        <ele>4.7</ele>
        <time>2020-05-31T17:23:57Z</time>
      </trkpt>
      <trkpt lat="46.15413" lon="-1.14463">
        <ele>4.8</ele>
        <time>2020-05-31T17:23:58Z</time>
      </trkpt>
      <trkpt lat="46.15411" lon="-1.14469">
        <ele>4.8</ele>
        <time>2020-05-31T17:23:59Z</time>
      </trkpt>
      <trkpt lat="46.15408" lon="-1.14474">
        <ele>4.8</ele>
        <time>2020-05-31T17:24:00Z</time>
      </trkpt>
      <trkpt lat="46.15405" lon="-1.1448">
        <ele>4.9</ele>
        <time>2020-05-31T17:24:01Z</time>
      </trkpt>
      <trkpt lat="46.15401" lon="-1.14486">
        <ele>5</ele>
        <time>2020-05-31T17:24:02Z</time>
      </trkpt>
      <trkpt lat="46.15398" lon="-1.14492">
        <ele>5</ele>
        <time>2020-05-31T17:24:03Z</time>
      </trkpt>
      <trkpt lat="46.15394" lon="-1.14499">
        <ele>5.1</ele>
        <time>2020-05-31T17:24:04Z</time>
      </trkpt>
      <trkpt lat="46.15392" lon="-1.14508">
        <ele>5.2</ele>
        <time>2020-05-31T17:24:05Z</time>
      </trkpt>
      <trkpt lat="46.15389" lon="-1.14514">
        <ele>5.2</ele>
        <time>2020-05-31T17:24:06Z</time>
      </trkpt>
      <trkpt lat="46.15385" lon="-1.14518">
        <ele>5.2</ele>
        <time>2020-05-31T17:24:07Z</time>
      </trkpt>
      <trkpt lat="46.15382" lon="-1.14523">
        <ele>5.3</ele>
        <time>2020-05-31T17:24:08Z</time>
      </trkpt>
      <trkpt lat="46.15378" lon="-1.14529">
        <ele>5.3</ele>
        <time>2020-05-31T17:24:09Z</time>
      </trkpt>
      <trkpt lat="46.15375" lon="-1.14531">
        <ele>5.3</ele>
        <time>2020-05-31T17:24:10Z</time>
      </trkpt>
      <trkpt lat="46.15373" lon="-1.14537">
        <ele>5.3</ele>
        <time>2020-05-31T17:24:11Z</time>
      </trkpt>
      <trkpt lat="46.1537" lon="-1.14543">
        <ele>5.3</ele>
        <time>2020-05-31T17:24:12Z</time>
      </trkpt>
      <trkpt lat="46.15367" lon="-1.14548">
        <ele>5.3</ele>
        <time>2020-05-31T17:24:13Z</time>
      </trkpt>
      <trkpt lat="46.15364" lon="-1.14552">
        <ele>5.3</ele>
        <time>2020-05-31T17:24:14Z</time>
      </trkpt>
      <trkpt lat="46.15361" lon="-1.14558">
        <ele>5.3</ele>
        <time>2020-05-31T17:24:15Z</time>
      </trkpt>
      <trkpt lat="46.15358" lon="-1.14562">
        <ele>5.3</ele>
        <time>2020-05-31T17:24:16Z</time>
      </trkpt>
      <trkpt lat="46.15356" lon="-1.14567">
        <ele>5.3</ele>
        <time>2020-05-31T17:24:17Z</time>
      </trkpt>
      <trkpt lat="46.15352" lon="-1.1457">
        <ele>5.4</ele>
        <time>2020-05-31T17:24:18Z</time>
      </trkpt>
      <trkpt lat="46.15349" lon="-1.14574">
        <ele>5.4</ele>
        <time>2020-05-31T17:24:19Z</time>
      </trkpt>
      <trkpt lat="46.15346" lon="-1.14577">
        <ele>5.4</ele>
        <time>2020-05-31T17:24:20Z</time>
      </trkpt>
      <trkpt lat="46.15343" lon="-1.1458">
        <ele>5.5</ele>
        <time>2020-05-31T17:24:21Z</time>
      </trkpt>
      <trkpt lat="46.15341" lon="-1.14583">
        <ele>5.5</ele>
        <time>2020-05-31T17:24:22Z</time>
      </trkpt>
      <trkpt lat="46.1534" lon="-1.14583">
        <ele>5.5</ele>
        <time>2020-05-31T17:24:23Z</time>
      </trkpt>
      <trkpt lat="46.15341" lon="-1.14585">
        <ele>5.5</ele>
        <time>2020-05-31T17:24:24Z</time>
      </trkpt>
      <trkpt lat="46.15342" lon="-1.14584">
        <ele>5.5</ele>
        <time>2020-05-31T17:24:25Z</time>
      </trkpt>
      <trkpt lat="46.15344" lon="-1.14583">
        <ele>5.5</ele>
        <time>2020-05-31T17:24:26Z</time>
      </trkpt>
      <trkpt lat="46.15346" lon="-1.14587">
        <ele>5.5</ele>
        <time>2020-05-31T17:24:27Z</time>
      </trkpt>
      <trkpt lat="46.15346" lon="-1.14588">
        <ele>5.5</ele>
        <time>2020-05-31T17:24:28Z</time>
      </trkpt>
      <trkpt lat="46.15348" lon="-1.14592">
        <ele>5.4</ele>
        <time>2020-05-31T17:24:29Z</time>
      </trkpt>
      <trkpt lat="46.1535" lon="-1.14597">
        <ele>5.4</ele>
        <time>2020-05-31T17:24:30Z</time>
      </trkpt>
      <trkpt lat="46.1535" lon="-1.14599">
        <ele>5.4</ele>
        <time>2020-05-31T17:24:31Z</time>
      </trkpt>
      <trkpt lat="46.1535" lon="-1.14604">
        <ele>5.4</ele>
        <time>2020-05-31T17:24:32Z</time>
      </trkpt>
      <trkpt lat="46.15351" lon="-1.14609">
        <ele>5.4</ele>
        <time>2020-05-31T17:24:33Z</time>
      </trkpt>
      <trkpt lat="46.15352" lon="-1.14616">
        <ele>5.4</ele>
        <time>2020-05-31T17:24:34Z</time>
      </trkpt>
      <trkpt lat="46.15353" lon="-1.14622">
        <ele>5.5</ele>
        <time>2020-05-31T17:24:35Z</time>
      </trkpt>
      <trkpt lat="46.15355" lon="-1.14627">
        <ele>5.5</ele>
        <time>2020-05-31T17:24:36Z</time>
      </trkpt>
      <trkpt lat="46.15357" lon="-1.14632">
        <ele>5.5</ele>
        <time>2020-05-31T17:24:37Z</time>
      </trkpt>
      <trkpt lat="46.15359" lon="-1.14637">
        <ele>5.5</ele>
        <time>2020-05-31T17:24:38Z</time>
      </trkpt>
      <trkpt lat="46.15362" lon="-1.14642">
        <ele>5.5</ele>
        <time>2020-05-31T17:24:39Z</time>
      </trkpt>
      <trkpt lat="46.15365" lon="-1.14647">
        <ele>5.5</ele>
        <time>2020-05-31T17:24:40Z</time>
      </trkpt>
      <trkpt lat="46.15368" lon="-1.14651">
        <ele>5.5</ele>
        <time>2020-05-31T17:24:41Z</time>
      </trkpt>
      <trkpt lat="46.15372" lon="-1.14655">
        <ele>5.5</ele>
        <time>2020-05-31T17:24:42Z</time>
      </trkpt>
      <trkpt lat="46.15375" lon="-1.1466">
        <ele>5.5</ele>
        <time>2020-05-31T17:24:43Z</time>
      </trkpt>
      <trkpt lat="46.15378" lon="-1.14665">
        <ele>5.5</ele>
        <time>2020-05-31T17:24:44Z</time>
      </trkpt>
      <trkpt lat="46.15381" lon="-1.14669">
        <ele>5.5</ele>
        <time>2020-05-31T17:24:45Z</time>
      </trkpt>
      <trkpt lat="46.15385" lon="-1.14672">
        <ele>5.5</ele>
        <time>2020-05-31T17:24:46Z</time>
      </trkpt>
      <trkpt lat="46.1539" lon="-1.14674">
        <ele>5.5</ele>
        <time>2020-05-31T17:24:47Z</time>
      </trkpt>
      <trkpt lat="46.15394" lon="-1.14679">
        <ele>5.4</ele>
        <time>2020-05-31T17:24:48Z</time>
      </trkpt>
      <trkpt lat="46.15398" lon="-1.14683">
        <ele>5.4</ele>
        <time>2020-05-31T17:24:49Z</time>
      </trkpt>
      <trkpt lat="46.15402" lon="-1.14688">
        <ele>5.4</ele>
        <time>2020-05-31T17:24:50Z</time>
      </trkpt>
      <trkpt lat="46.15406" lon="-1.14692">
        <ele>5.4</ele>
        <time>2020-05-31T17:24:51Z</time>
      </trkpt>
      <trkpt lat="46.15411" lon="-1.14697">
        <ele>5.4</ele>
        <time>2020-05-31T17:24:52Z</time>
      </trkpt>
      <trkpt lat="46.15413" lon="-1.14702">
        <ele>5.4</ele>
        <time>2020-05-31T17:24:53Z</time>
      </trkpt>
      <trkpt lat="46.15417" lon="-1.14706">
        <ele>5.4</ele>
        <time>2020-05-31T17:24:54Z</time>
      </trkpt>
      <trkpt lat="46.15421" lon="-1.1471">
        <ele>5.4</ele>
        <time>2020-05-31T17:24:55Z</time>
      </trkpt>
      <trkpt lat="46.15424" lon="-1.14714">
        <ele>5.4</ele>
        <time>2020-05-31T17:24:56Z</time>
      </trkpt>
      <trkpt lat="46.15428" lon="-1.1472">
        <ele>5.4</ele>
        <time>2020-05-31T17:24:57Z</time>
      </trkpt>
      <trkpt lat="46.15432" lon="-1.14724">
        <ele>5.4</ele>
        <time>2020-05-31T17:24:58Z</time>
      </trkpt>
      <trkpt lat="46.15435" lon="-1.14731">
        <ele>5.4</ele>
        <time>2020-05-31T17:24:59Z</time>
      </trkpt>
      <trkpt lat="46.15438" lon="-1.14737">
        <ele>5.5</ele>
        <time>2020-05-31T17:25:00Z</time>
      </trkpt>
      <trkpt lat="46.15443" lon="-1.14743">
        <ele>5.5</ele>
        <time>2020-05-31T17:25:01Z</time>
      </trkpt>
      <trkpt lat="46.15447" lon="-1.14747">
        <ele>5.5</ele>
        <time>2020-05-31T17:25:02Z</time>
      </trkpt>
      <trkpt lat="46.15451" lon="-1.14752">
        <ele>5.5</ele>
        <time>2020-05-31T17:25:03Z</time>
      </trkpt>
      <trkpt lat="46.15455" lon="-1.14757">
        <ele>5.5</ele>
        <time>2020-05-31T17:25:04Z</time>
      </trkpt>
      <trkpt lat="46.15458" lon="-1.1476">
        <ele>5.5</ele>
        <time>2020-05-31T17:25:05Z</time>
      </trkpt>
      <trkpt lat="46.15463" lon="-1.14764">
        <ele>5.5</ele>
        <time>2020-05-31T17:25:06Z</time>
      </trkpt>
      <trkpt lat="46.15467" lon="-1.14767">
        <ele>5.5</ele>
        <time>2020-05-31T17:25:07Z</time>
      </trkpt>
      <trkpt lat="46.15471" lon="-1.1477">
        <ele>5.5</ele>
        <time>2020-05-31T17:25:08Z</time>
      </trkpt>
      <trkpt lat="46.15474" lon="-1.14773">
        <ele>5.5</ele>
        <time>2020-05-31T17:25:09Z</time>
      </trkpt>
      <trkpt lat="46.15478" lon="-1.14777">
        <ele>5.5</ele>
        <time>2020-05-31T17:25:10Z</time>
      </trkpt>
      <trkpt lat="46.15481" lon="-1.14782">
        <ele>5.5</ele>
        <time>2020-05-31T17:25:11Z</time>
      </trkpt>
      <trkpt lat="46.15485" lon="-1.14787">
        <ele>5.5</ele>
        <time>2020-05-31T17:25:12Z</time>
      </trkpt>
      <trkpt lat="46.15487" lon="-1.14792">
        <ele>5.5</ele>
        <time>2020-05-31T17:25:13Z</time>
      </trkpt>
      <trkpt lat="46.1549" lon="-1.14798">
        <ele>5.5</ele>
        <time>2020-05-31T17:25:14Z</time>
      </trkpt>
      <trkpt lat="46.15494" lon="-1.14804">
        <ele>5.5</ele>
        <time>2020-05-31T17:25:15Z</time>
      </trkpt>
      <trkpt lat="46.15497" lon="-1.14808">
        <ele>5.4</ele>
        <time>2020-05-31T17:25:16Z</time>
      </trkpt>
      <trkpt lat="46.155" lon="-1.14812">
        <ele>5.4</ele>
        <time>2020-05-31T17:25:17Z</time>
      </trkpt>
      <trkpt lat="46.15504" lon="-1.14817">
        <ele>5.4</ele>
        <time>2020-05-31T17:25:18Z</time>
      </trkpt>
      <trkpt lat="46.15507" lon="-1.14821">
        <ele>5.4</ele>
        <time>2020-05-31T17:25:19Z</time>
      </trkpt>
      <trkpt lat="46.15513" lon="-1.14818">
        <ele>5.6</ele>
        <time>2020-05-31T17:25:20Z</time>
      </trkpt>
      <trkpt lat="46.15516" lon="-1.14822">
        <ele>5.7</ele>
        <time>2020-05-31T17:25:21Z</time>
      </trkpt>
      <trkpt lat="46.15521" lon="-1.14827">
        <ele>5.8</ele>
        <time>2020-05-31T17:25:22Z</time>
      </trkpt>
      <trkpt lat="46.15524" lon="-1.14833">
        <ele>5.9</ele>
        <time>2020-05-31T17:25:23Z</time>
      </trkpt>
      <trkpt lat="46.15528" lon="-1.14837">
        <ele>6</ele>
        <time>2020-05-31T17:25:24Z</time>
      </trkpt>
      <trkpt lat="46.15531" lon="-1.1484">
        <ele>6.1</ele>
        <time>2020-05-31T17:25:25Z</time>
      </trkpt>
      <trkpt lat="46.15534" lon="-1.14844">
        <ele>6.2</ele>
        <time>2020-05-31T17:25:26Z</time>
      </trkpt>
      <trkpt lat="46.15537" lon="-1.14846">
        <ele>6.3</ele>
        <time>2020-05-31T17:25:27Z</time>
      </trkpt>
      <trkpt lat="46.1554" lon="-1.1485">
        <ele>6.4</ele>
        <time>2020-05-31T17:25:28Z</time>
      </trkpt>
      <trkpt lat="46.15543" lon="-1.14855">
        <ele>6.5</ele>
        <time>2020-05-31T17:25:29Z</time>
      </trkpt>
      <trkpt lat="46.15545" lon="-1.14859">
        <ele>6.5</ele>
        <time>2020-05-31T17:25:30Z</time>
      </trkpt>
      <trkpt lat="46.15548" lon="-1.14863">
        <ele>6.5</ele>
        <time>2020-05-31T17:25:31Z</time>
      </trkpt>
      <trkpt lat="46.15551" lon="-1.14867">
        <ele>6.5</ele>
        <time>2020-05-31T17:25:32Z</time>
      </trkpt>
      <trkpt lat="46.15552" lon="-1.14874">
        <ele>5.5</ele>
        <time>2020-05-31T17:25:33Z</time>
      </trkpt>
      <trkpt lat="46.15553" lon="-1.1488">
        <ele>5.4</ele>
        <time>2020-05-31T17:25:34Z</time>
      </trkpt>
      <trkpt lat="46.15556" lon="-1.14884">
        <ele>5.3</ele>
        <time>2020-05-31T17:25:35Z</time>
      </trkpt>
      <trkpt lat="46.15558" lon="-1.14889">
        <ele>5.3</ele>
        <time>2020-05-31T17:25:36Z</time>
      </trkpt>
      <trkpt lat="46.15562" lon="-1.14894">
        <ele>5.2</ele>
        <time>2020-05-31T17:25:37Z</time>
      </trkpt>
      <trkpt lat="46.15565" lon="-1.14898">
        <ele>5.2</ele>
        <time>2020-05-31T17:25:38Z</time>
      </trkpt>
      <trkpt lat="46.15569" lon="-1.14902">
        <ele>5.1</ele>
        <time>2020-05-31T17:25:39Z</time>
      </trkpt>
      <trkpt lat="46.15572" lon="-1.14907">
        <ele>5</ele>
        <time>2020-05-31T17:25:40Z</time>
      </trkpt>
      <trkpt lat="46.15575" lon="-1.14911">
        <ele>5</ele>
        <time>2020-05-31T17:25:41Z</time>
      </trkpt>
      <trkpt lat="46.15578" lon="-1.14916">
        <ele>5</ele>
        <time>2020-05-31T17:25:42Z</time>
      </trkpt>
      <trkpt lat="46.15581" lon="-1.1492">
        <ele>5</ele>
        <time>2020-05-31T17:25:43Z</time>
      </trkpt>
      <trkpt lat="46.15583" lon="-1.14925">
        <ele>4.9</ele>
        <time>2020-05-31T17:25:44Z</time>
      </trkpt>
      <trkpt lat="46.15586" lon="-1.1493">
        <ele>4.9</ele>
        <time>2020-05-31T17:25:45Z</time>
      </trkpt>
      <trkpt lat="46.15589" lon="-1.14932">
        <ele>4.9</ele>
        <time>2020-05-31T17:25:46Z</time>
      </trkpt>
      <trkpt lat="46.15593" lon="-1.14936">
        <ele>4.9</ele>
        <time>2020-05-31T17:25:47Z</time>
      </trkpt>
      <trkpt lat="46.15597" lon="-1.14939">
        <ele>4.8</ele>
        <time>2020-05-31T17:25:48Z</time>
      </trkpt>
      <trkpt lat="46.15601" lon="-1.14941">
        <ele>4.8</ele>
        <time>2020-05-31T17:25:49Z</time>
      </trkpt>
      <trkpt lat="46.15606" lon="-1.14942">
        <ele>4.8</ele>
        <time>2020-05-31T17:25:50Z</time>
      </trkpt>
      <trkpt lat="46.15611" lon="-1.14944">
        <ele>4.8</ele>
        <time>2020-05-31T17:25:51Z</time>
      </trkpt>
      <trkpt lat="46.15615" lon="-1.14946">
        <ele>4.8</ele>
        <time>2020-05-31T17:25:52Z</time>
      </trkpt>
      <trkpt lat="46.15619" lon="-1.1495">
        <ele>4.8</ele>
        <time>2020-05-31T17:25:53Z</time>
      </trkpt>
      <trkpt lat="46.15624" lon="-1.14951">
        <ele>4.8</ele>
        <time>2020-05-31T17:25:54Z</time>
      </trkpt>
      <trkpt lat="46.15628" lon="-1.14952">
        <ele>4.8</ele>
        <time>2020-05-31T17:25:55Z</time>
      </trkpt>
      <trkpt lat="46.15633" lon="-1.14953">
        <ele>4.8</ele>
        <time>2020-05-31T17:25:56Z</time>
      </trkpt>
      <trkpt lat="46.15639" lon="-1.14953">
        <ele>4.9</ele>
        <time>2020-05-31T17:25:57Z</time>
      </trkpt>
      <trkpt lat="46.15644" lon="-1.14955">
        <ele>4.9</ele>
        <time>2020-05-31T17:25:58Z</time>
      </trkpt>
      <trkpt lat="46.15647" lon="-1.14959">
        <ele>4.9</ele>
        <time>2020-05-31T17:25:59Z</time>
      </trkpt>
      <trkpt lat="46.15652" lon="-1.14961">
        <ele>5</ele>
        <time>2020-05-31T17:26:00Z</time>
      </trkpt>
      <trkpt lat="46.15656" lon="-1.14964">
        <ele>5</ele>
        <time>2020-05-31T17:26:01Z</time>
      </trkpt>
      <trkpt lat="46.15661" lon="-1.14964">
        <ele>5</ele>
        <time>2020-05-31T17:26:02Z</time>
      </trkpt>
      <trkpt lat="46.15666" lon="-1.14966">
        <ele>5.1</ele>
        <time>2020-05-31T17:26:03Z</time>
      </trkpt>
      <trkpt lat="46.15671" lon="-1.14969">
        <ele>5.1</ele>
        <time>2020-05-31T17:26:04Z</time>
      </trkpt>
      <trkpt lat="46.15675" lon="-1.14975">
        <ele>5.1</ele>
        <time>2020-05-31T17:26:05Z</time>
      </trkpt>
      <trkpt lat="46.15679" lon="-1.14977">
        <ele>5.2</ele>
        <time>2020-05-31T17:26:06Z</time>
      </trkpt>
      <trkpt lat="46.15683" lon="-1.1498">
        <ele>5.2</ele>
        <time>2020-05-31T17:26:07Z</time>
      </trkpt>
      <trkpt lat="46.15687" lon="-1.14981">
        <ele>5.2</ele>
        <time>2020-05-31T17:26:08Z</time>
      </trkpt>
      <trkpt lat="46.15691" lon="-1.14985">
        <ele>5.2</ele>
        <time>2020-05-31T17:26:09Z</time>
      </trkpt>
      <trkpt lat="46.15694" lon="-1.14988">
        <ele>5.3</ele>
        <time>2020-05-31T17:26:10Z</time>
      </trkpt>
      <trkpt lat="46.15699" lon="-1.14991">
        <ele>5.3</ele>
        <time>2020-05-31T17:26:11Z</time>
      </trkpt>
      <trkpt lat="46.15703" lon="-1.14992">
        <ele>5.3</ele>
        <time>2020-05-31T17:26:12Z</time>
      </trkpt>
      <trkpt lat="46.15707" lon="-1.14994">
        <ele>5.3</ele>
        <time>2020-05-31T17:26:13Z</time>
      </trkpt>
      <trkpt lat="46.15712" lon="-1.14995">
        <ele>5.2</ele>
        <time>2020-05-31T17:26:14Z</time>
      </trkpt>
      <trkpt lat="46.15715" lon="-1.14999">
        <ele>5.2</ele>
        <time>2020-05-31T17:26:15Z</time>
      </trkpt>
      <trkpt lat="46.15716" lon="-1.15004">
        <ele>5.1</ele>
        <time>2020-05-31T17:26:16Z</time>
      </trkpt>
      <trkpt lat="46.15715" lon="-1.15006">
        <ele>5.1</ele>
        <time>2020-05-31T17:26:17Z</time>
      </trkpt>
      <trkpt lat="46.15714" lon="-1.15013">
        <ele>4.4</ele>
        <time>2020-05-31T17:26:18Z</time>
      </trkpt>
      <trkpt lat="46.15713" lon="-1.15019">
        <ele>4.3</ele>
        <time>2020-05-31T17:26:19Z</time>
      </trkpt>
      <trkpt lat="46.15712" lon="-1.15025">
        <ele>4.2</ele>
        <time>2020-05-31T17:26:20Z</time>
      </trkpt>
      <trkpt lat="46.15711" lon="-1.1503">
        <ele>4.2</ele>
        <time>2020-05-31T17:26:21Z</time>
      </trkpt>
      <trkpt lat="46.1571" lon="-1.15036">
        <ele>4.1</ele>
        <time>2020-05-31T17:26:22Z</time>
      </trkpt>
      <trkpt lat="46.1571" lon="-1.15042">
        <ele>4.1</ele>
        <time>2020-05-31T17:26:23Z</time>
      </trkpt>
      <trkpt lat="46.1571" lon="-1.15048">
        <ele>4</ele>
        <time>2020-05-31T17:26:24Z</time>
      </trkpt>
      <trkpt lat="46.15709" lon="-1.15052">
        <ele>4</ele>
        <time>2020-05-31T17:26:25Z</time>
      </trkpt>
      <trkpt lat="46.1571" lon="-1.15056">
        <ele>3.9</ele>
        <time>2020-05-31T17:26:26Z</time>
      </trkpt>
      <trkpt lat="46.15711" lon="-1.15061">
        <ele>3.9</ele>
        <time>2020-05-31T17:26:27Z</time>
      </trkpt>
      <trkpt lat="46.15711" lon="-1.15065">
        <ele>3.8</ele>
        <time>2020-05-31T17:26:28Z</time>
      </trkpt>
      <trkpt lat="46.15711" lon="-1.15069">
        <ele>3.8</ele>
        <time>2020-05-31T17:26:29Z</time>
      </trkpt>
      <trkpt lat="46.1571" lon="-1.15075">
        <ele>3.7</ele>
        <time>2020-05-31T17:26:30Z</time>
      </trkpt>
      <trkpt lat="46.1571" lon="-1.1508">
        <ele>3.7</ele>
        <time>2020-05-31T17:26:31Z</time>
      </trkpt>
      <trkpt lat="46.15709" lon="-1.15085">
        <ele>3.7</ele>
        <time>2020-05-31T17:26:32Z</time>
      </trkpt>
      <trkpt lat="46.15709" lon="-1.15086">
        <ele>3.7</ele>
        <time>2020-05-31T17:26:33Z</time>
      </trkpt>
      <trkpt lat="46.15709" lon="-1.15091">
        <ele>3.7</ele>
        <time>2020-05-31T17:26:34Z</time>
      </trkpt>
      <trkpt lat="46.15709" lon="-1.15093">
        <ele>3.7</ele>
        <time>2020-05-31T17:26:35Z</time>
      </trkpt>
      <trkpt lat="46.15709" lon="-1.151">
        <ele>3.7</ele>
        <time>2020-05-31T17:26:36Z</time>
      </trkpt>
      <trkpt lat="46.15709" lon="-1.15107">
        <ele>3.6</ele>
        <time>2020-05-31T17:26:37Z</time>
      </trkpt>
      <trkpt lat="46.15709" lon="-1.15111">
        <ele>3.6</ele>
        <time>2020-05-31T17:26:38Z</time>
      </trkpt>
      <trkpt lat="46.15709" lon="-1.15117">
        <ele>3.6</ele>
        <time>2020-05-31T17:26:39Z</time>
      </trkpt>
      <trkpt lat="46.15711" lon="-1.15123">
        <ele>3.6</ele>
        <time>2020-05-31T17:26:40Z</time>
      </trkpt>
      <trkpt lat="46.15712" lon="-1.15128">
        <ele>3.5</ele>
        <time>2020-05-31T17:26:41Z</time>
      </trkpt>
      <trkpt lat="46.15714" lon="-1.15131">
        <ele>3.5</ele>
        <time>2020-05-31T17:26:42Z</time>
      </trkpt>
      <trkpt lat="46.15718" lon="-1.15131">
        <ele>3.5</ele>
        <time>2020-05-31T17:26:43Z</time>
      </trkpt>
      <trkpt lat="46.15721" lon="-1.15128">
        <ele>3.5</ele>
        <time>2020-05-31T17:26:44Z</time>
      </trkpt>
      <trkpt lat="46.15724" lon="-1.15125">
        <ele>3.5</ele>
        <time>2020-05-31T17:26:45Z</time>
      </trkpt>
      <trkpt lat="46.15727" lon="-1.1512">
        <ele>3.5</ele>
        <time>2020-05-31T17:26:46Z</time>
      </trkpt>
      <trkpt lat="46.15729" lon="-1.15116">
        <ele>3.5</ele>
        <time>2020-05-31T17:26:47Z</time>
      </trkpt>
      <trkpt lat="46.15732" lon="-1.15113">
        <ele>3.6</ele>
        <time>2020-05-31T17:26:48Z</time>
      </trkpt>
      <trkpt lat="46.15734" lon="-1.15111">
        <ele>3.6</ele>
        <time>2020-05-31T17:26:49Z</time>
      </trkpt>
      <trkpt lat="46.15737" lon="-1.15108">
        <ele>3.6</ele>
        <time>2020-05-31T17:26:50Z</time>
      </trkpt>
      <trkpt lat="46.1574" lon="-1.15103">
        <ele>3.6</ele>
        <time>2020-05-31T17:26:51Z</time>
      </trkpt>
      <trkpt lat="46.15743" lon="-1.15099">
        <ele>3.6</ele>
        <time>2020-05-31T17:26:52Z</time>
      </trkpt>
      <trkpt lat="46.15747" lon="-1.15096">
        <ele>3.6</ele>
        <time>2020-05-31T17:26:53Z</time>
      </trkpt>
      <trkpt lat="46.15748" lon="-1.15095">
        <ele>3.7</ele>
        <time>2020-05-31T17:26:54Z</time>
      </trkpt>
      <trkpt lat="46.15749" lon="-1.15093">
        <ele>3.7</ele>
        <time>2020-05-31T17:26:55Z</time>
      </trkpt>
      <trkpt lat="46.15752" lon="-1.1509">
        <ele>3.7</ele>
        <time>2020-05-31T17:26:56Z</time>
      </trkpt>
      <trkpt lat="46.15753" lon="-1.15089">
        <ele>3.7</ele>
        <time>2020-05-31T17:26:57Z</time>
      </trkpt>
      <trkpt lat="46.15755" lon="-1.15087">
        <ele>3.7</ele>
        <time>2020-05-31T17:26:58Z</time>
      </trkpt>
      <trkpt lat="46.15757" lon="-1.15086">
        <ele>3.8</ele>
        <time>2020-05-31T17:26:59Z</time>
      </trkpt>
      <trkpt lat="46.15758" lon="-1.15084">
        <ele>3.8</ele>
        <time>2020-05-31T17:27:00Z</time>
      </trkpt>
      <trkpt lat="46.15761" lon="-1.15082">
        <ele>3.8</ele>
        <time>2020-05-31T17:27:01Z</time>
      </trkpt>
      <trkpt lat="46.15763" lon="-1.1508">
        <ele>3.9</ele>
        <time>2020-05-31T17:27:02Z</time>
      </trkpt>
      <trkpt lat="46.15766" lon="-1.15078">
        <ele>3.9</ele>
        <time>2020-05-31T17:27:03Z</time>
      </trkpt>
      <trkpt lat="46.1577" lon="-1.15075">
        <ele>4</ele>
        <time>2020-05-31T17:27:04Z</time>
      </trkpt>
      <trkpt lat="46.15774" lon="-1.15072">
        <ele>4</ele>
        <time>2020-05-31T17:27:05Z</time>
      </trkpt>
      <trkpt lat="46.15777" lon="-1.15069">
        <ele>4.1</ele>
        <time>2020-05-31T17:27:06Z</time>
      </trkpt>
      <trkpt lat="46.15779" lon="-1.15066">
        <ele>4.1</ele>
        <time>2020-05-31T17:27:07Z</time>
      </trkpt>
      <trkpt lat="46.15782" lon="-1.15064">
        <ele>4.2</ele>
        <time>2020-05-31T17:27:08Z</time>
      </trkpt>
      <trkpt lat="46.15784" lon="-1.15063">
        <ele>4.2</ele>
        <time>2020-05-31T17:27:09Z</time>
      </trkpt>
      <trkpt lat="46.15785" lon="-1.15061">
        <ele>4.3</ele>
        <time>2020-05-31T17:27:10Z</time>
      </trkpt>
      <trkpt lat="46.15786" lon="-1.15061">
        <ele>4.3</ele>
        <time>2020-05-31T17:27:11Z</time>
      </trkpt>
      <trkpt lat="46.15787" lon="-1.1506">
        <ele>4.5</ele>
        <time>2020-05-31T17:27:12Z</time>
      </trkpt>
      <trkpt lat="46.15789" lon="-1.1506">
        <ele>4.5</ele>
        <time>2020-05-31T17:27:13Z</time>
      </trkpt>
      <trkpt lat="46.15792" lon="-1.15061">
        <ele>4.5</ele>
        <time>2020-05-31T17:27:14Z</time>
      </trkpt>
      <trkpt lat="46.15795" lon="-1.15064">
        <ele>4.5</ele>
        <time>2020-05-31T17:27:15Z</time>
      </trkpt>
      <trkpt lat="46.15798" lon="-1.15067">
        <ele>4.5</ele>
        <time>2020-05-31T17:27:16Z</time>
      </trkpt>
      <trkpt lat="46.15801" lon="-1.15069">
        <ele>4.5</ele>
        <time>2020-05-31T17:27:17Z</time>
      </trkpt>
      <trkpt lat="46.15803" lon="-1.15071">
        <ele>4.5</ele>
        <time>2020-05-31T17:27:18Z</time>
      </trkpt>
      <trkpt lat="46.15807" lon="-1.15075">
        <ele>4.5</ele>
        <time>2020-05-31T17:27:19Z</time>
      </trkpt>
      <trkpt lat="46.15808" lon="-1.15077">
        <ele>4.5</ele>
        <time>2020-05-31T17:27:20Z</time>
      </trkpt>
      <trkpt lat="46.15811" lon="-1.15081">
        <ele>4.6</ele>
        <time>2020-05-31T17:27:21Z</time>
      </trkpt>
      <trkpt lat="46.15813" lon="-1.15086">
        <ele>4.6</ele>
        <time>2020-05-31T17:27:22Z</time>
      </trkpt>
      <trkpt lat="46.15813" lon="-1.15087">
        <ele>4.6</ele>
        <time>2020-05-31T17:27:23Z</time>
      </trkpt>
      <trkpt lat="46.15814" lon="-1.15093">
        <ele>4.6</ele>
        <time>2020-05-31T17:27:24Z</time>
      </trkpt>
      <trkpt lat="46.15815" lon="-1.15098">
        <ele>4.6</ele>
        <time>2020-05-31T17:27:25Z</time>
      </trkpt>
      <trkpt lat="46.15817" lon="-1.15103">
        <ele>4.6</ele>
        <time>2020-05-31T17:27:26Z</time>
      </trkpt>
      <trkpt lat="46.15818" lon="-1.15106">
        <ele>4.6</ele>
        <time>2020-05-31T17:27:27Z</time>
      </trkpt>
      <trkpt lat="46.15819" lon="-1.1511">
        <ele>4.6</ele>
        <time>2020-05-31T17:27:28Z</time>
      </trkpt>
      <trkpt lat="46.15819" lon="-1.15116">
        <ele>4.6</ele>
        <time>2020-05-31T17:27:29Z</time>
      </trkpt>
      <trkpt lat="46.1582" lon="-1.1512">
        <ele>4.6</ele>
        <time>2020-05-31T17:27:30Z</time>
      </trkpt>
      <trkpt lat="46.15821" lon="-1.15125">
        <ele>4.6</ele>
        <time>2020-05-31T17:27:31Z</time>
      </trkpt>
      <trkpt lat="46.15821" lon="-1.1513">
        <ele>4.6</ele>
        <time>2020-05-31T17:27:32Z</time>
      </trkpt>
      <trkpt lat="46.15821" lon="-1.15134">
        <ele>4.6</ele>
        <time>2020-05-31T17:27:33Z</time>
      </trkpt>
      <trkpt lat="46.15821" lon="-1.15139">
        <ele>4.6</ele>
        <time>2020-05-31T17:27:34Z</time>
      </trkpt>
      <trkpt lat="46.1582" lon="-1.15143">
        <ele>4.6</ele>
        <time>2020-05-31T17:27:35Z</time>
      </trkpt>
      <trkpt lat="46.1582" lon="-1.15148">
        <ele>4.6</ele>
        <time>2020-05-31T17:27:36Z</time>
      </trkpt>
      <trkpt lat="46.15821" lon="-1.15153">
        <ele>4.6</ele>
        <time>2020-05-31T17:27:37Z</time>
      </trkpt>
      <trkpt lat="46.15822" lon="-1.15159">
        <ele>4.6</ele>
        <time>2020-05-31T17:27:38Z</time>
      </trkpt>
      <trkpt lat="46.15822" lon="-1.15162">
        <ele>4.6</ele>
        <time>2020-05-31T17:27:39Z</time>
      </trkpt>
      <trkpt lat="46.15822" lon="-1.15168">
        <ele>4.6</ele>
        <time>2020-05-31T17:27:40Z</time>
      </trkpt>
      <trkpt lat="46.15822" lon="-1.15171">
        <ele>4.6</ele>
        <time>2020-05-31T17:27:41Z</time>
      </trkpt>
      <trkpt lat="46.15822" lon="-1.15176">
        <ele>4.6</ele>
        <time>2020-05-31T17:27:42Z</time>
      </trkpt>
      <trkpt lat="46.15823" lon="-1.1518">
        <ele>4.6</ele>
        <time>2020-05-31T17:27:43Z</time>
      </trkpt>
      <trkpt lat="46.15823" lon="-1.15186">
        <ele>4.6</ele>
        <time>2020-05-31T17:27:44Z</time>
      </trkpt>
      <trkpt lat="46.15823" lon="-1.15188">
        <ele>4.6</ele>
        <time>2020-05-31T17:27:45Z</time>
      </trkpt>
      <trkpt lat="46.15822" lon="-1.15192">
        <ele>4.6</ele>
        <time>2020-05-31T17:27:46Z</time>
      </trkpt>
      <trkpt lat="46.15822" lon="-1.15197">
        <ele>4.6</ele>
        <time>2020-05-31T17:27:47Z</time>
      </trkpt>
      <trkpt lat="46.15822" lon="-1.15199">
        <ele>4.6</ele>
        <time>2020-05-31T17:27:48Z</time>
      </trkpt>
      <trkpt lat="46.15823" lon="-1.15204">
        <ele>4.6</ele>
        <time>2020-05-31T17:27:49Z</time>
      </trkpt>
      <trkpt lat="46.15823" lon="-1.15206">
        <ele>4.6</ele>
        <time>2020-05-31T17:27:50Z</time>
      </trkpt>
      <trkpt lat="46.15822" lon="-1.15212">
        <ele>4.6</ele>
        <time>2020-05-31T17:27:51Z</time>
      </trkpt>
      <trkpt lat="46.15822" lon="-1.15213">
        <ele>4.6</ele>
        <time>2020-05-31T17:27:52Z</time>
      </trkpt>
      <trkpt lat="46.15821" lon="-1.15217">
        <ele>4.6</ele>
        <time>2020-05-31T17:27:53Z</time>
      </trkpt>
      <trkpt lat="46.15821" lon="-1.15221">
        <ele>4.6</ele>
        <time>2020-05-31T17:27:54Z</time>
      </trkpt>
      <trkpt lat="46.15821" lon="-1.15226">
        <ele>4.6</ele>
        <time>2020-05-31T17:27:55Z</time>
      </trkpt>
      <trkpt lat="46.15821" lon="-1.15231">
        <ele>4.6</ele>
        <time>2020-05-31T17:27:56Z</time>
      </trkpt>
      <trkpt lat="46.15821" lon="-1.15236">
        <ele>4.7</ele>
        <time>2020-05-31T17:27:57Z</time>
      </trkpt>
      <trkpt lat="46.1582" lon="-1.15238">
        <ele>4.7</ele>
        <time>2020-05-31T17:27:58Z</time>
      </trkpt>
      <trkpt lat="46.15819" lon="-1.1524">
        <ele>4.7</ele>
        <time>2020-05-31T17:27:59Z</time>
      </trkpt>
      <trkpt lat="46.15819" lon="-1.15245">
        <ele>4.7</ele>
        <time>2020-05-31T17:28:00Z</time>
      </trkpt>
      <trkpt lat="46.15818" lon="-1.15247">
        <ele>4.7</ele>
        <time>2020-05-31T17:28:01Z</time>
      </trkpt>
      <trkpt lat="46.15818" lon="-1.15252">
        <ele>4.7</ele>
        <time>2020-05-31T17:28:02Z</time>
      </trkpt>
      <trkpt lat="46.15819" lon="-1.15254">
        <ele>4.7</ele>
        <time>2020-05-31T17:28:03Z</time>
      </trkpt>
      <trkpt lat="46.15818" lon="-1.15259">
        <ele>4.8</ele>
        <time>2020-05-31T17:28:04Z</time>
      </trkpt>
      <trkpt lat="46.15817" lon="-1.15261">
        <ele>4.8</ele>
        <time>2020-05-31T17:28:05Z</time>
      </trkpt>
      <trkpt lat="46.15817" lon="-1.15267">
        <ele>4.8</ele>
        <time>2020-05-31T17:28:06Z</time>
      </trkpt>
      <trkpt lat="46.15818" lon="-1.15269">
        <ele>4.8</ele>
        <time>2020-05-31T17:28:07Z</time>
      </trkpt>
      <trkpt lat="46.15817" lon="-1.15273">
        <ele>4.8</ele>
        <time>2020-05-31T17:28:08Z</time>
      </trkpt>
      <trkpt lat="46.15818" lon="-1.15277">
        <ele>4.9</ele>
        <time>2020-05-31T17:28:09Z</time>
      </trkpt>
      <trkpt lat="46.15818" lon="-1.15284">
        <ele>4.8</ele>
        <time>2020-05-31T17:28:10Z</time>
      </trkpt>
      <trkpt lat="46.15818" lon="-1.15289">
        <ele>4.8</ele>
        <time>2020-05-31T17:28:11Z</time>
      </trkpt>
      <trkpt lat="46.15817" lon="-1.15294">
        <ele>4.8</ele>
        <time>2020-05-31T17:28:12Z</time>
      </trkpt>
      <trkpt lat="46.15817" lon="-1.15299">
        <ele>4.8</ele>
        <time>2020-05-31T17:28:13Z</time>
      </trkpt>
      <trkpt lat="46.15817" lon="-1.153">
        <ele>4.8</ele>
        <time>2020-05-31T17:28:14Z</time>
      </trkpt>
      <trkpt lat="46.15818" lon="-1.15305">
        <ele>4.8</ele>
        <time>2020-05-31T17:28:15Z</time>
      </trkpt>
      <trkpt lat="46.15819" lon="-1.15306">
        <ele>4.8</ele>
        <time>2020-05-31T17:28:16Z</time>
      </trkpt>
      <trkpt lat="46.15818" lon="-1.1531">
        <ele>4.8</ele>
        <time>2020-05-31T17:28:17Z</time>
      </trkpt>
      <trkpt lat="46.1582" lon="-1.1531">
        <ele>4.8</ele>
        <time>2020-05-31T17:28:18Z</time>
      </trkpt>
      <trkpt lat="46.1582" lon="-1.1531">
        <ele>4.8</ele>
        <time>2020-05-31T17:28:19Z</time>
      </trkpt>
      <trkpt lat="46.1582" lon="-1.15312">
        <ele>4.6</ele>
        <time>2020-05-31T17:28:20Z</time>
      </trkpt>
      <trkpt lat="46.1582" lon="-1.15313">
        <ele>4.6</ele>
        <time>2020-05-31T17:28:21Z</time>
      </trkpt>
      <trkpt lat="46.1582" lon="-1.15313">
        <ele>4.6</ele>
        <time>2020-05-31T17:28:22Z</time>
      </trkpt>
      <trkpt lat="46.1582" lon="-1.15314">
        <ele>4.6</ele>
        <time>2020-05-31T17:28:23Z</time>
      </trkpt>
      <trkpt lat="46.15819" lon="-1.15314">
        <ele>4.6</ele>
        <time>2020-05-31T17:28:24Z</time>
      </trkpt>
      <trkpt lat="46.15819" lon="-1.15314">
        <ele>4.6</ele>
        <time>2020-05-31T17:28:25Z</time>
      </trkpt>
      <trkpt lat="46.1582" lon="-1.15313">
        <ele>4.6</ele>
        <time>2020-05-31T17:28:26Z</time>
      </trkpt>
      <trkpt lat="46.1582" lon="-1.15313">
        <ele>4.6</ele>
        <time>2020-05-31T17:28:27Z</time>
      </trkpt>
      <trkpt lat="46.1582" lon="-1.15314">
        <ele>4.6</ele>
        <time>2020-05-31T17:28:28Z</time>
      </trkpt>
      <trkpt lat="46.1582" lon="-1.15314">
        <ele>4.6</ele>
        <time>2020-05-31T17:28:29Z</time>
      </trkpt>
      <trkpt lat="46.1582" lon="-1.15314">
        <ele>4.6</ele>
        <time>2020-05-31T17:28:30Z</time>
      </trkpt>
      <trkpt lat="46.1582" lon="-1.15313">
        <ele>4.6</ele>
        <time>2020-05-31T17:28:31Z</time>
      </trkpt>
      <trkpt lat="46.15819" lon="-1.15313">
        <ele>4.6</ele>
        <time>2020-05-31T17:28:32Z</time>
      </trkpt>
      <trkpt lat="46.15819" lon="-1.15313">
        <ele>4.6</ele>
        <time>2020-05-31T17:28:33Z</time>
      </trkpt>
      <trkpt lat="46.15819" lon="-1.15313">
        <ele>4.6</ele>
        <time>2020-05-31T17:28:34Z</time>
      </trkpt>
      <trkpt lat="46.15819" lon="-1.15313">
        <ele>4.6</ele>
        <time>2020-05-31T17:28:35Z</time>
      </trkpt>
      <trkpt lat="46.15818" lon="-1.15313">
        <ele>4.6</ele>
        <time>2020-05-31T17:28:36Z</time>
      </trkpt>
      <trkpt lat="46.15819" lon="-1.15313">
        <ele>4.6</ele>
        <time>2020-05-31T17:28:37Z</time>
      </trkpt>
      <trkpt lat="46.15819" lon="-1.15312">
        <ele>4.6</ele>
        <time>2020-05-31T17:28:38Z</time>
      </trkpt>
      <trkpt lat="46.15819" lon="-1.15312">
        <ele>4.6</ele>
        <time>2020-05-31T17:28:39Z</time>
      </trkpt>
      <trkpt lat="46.15819" lon="-1.15312">
        <ele>4.6</ele>
        <time>2020-05-31T17:28:40Z</time>
      </trkpt>
      <trkpt lat="46.15819" lon="-1.15312">
        <ele>4.6</ele>
        <time>2020-05-31T17:28:41Z</time>
      </trkpt>
      <trkpt lat="46.15819" lon="-1.15312">
        <ele>4.6</ele>
        <time>2020-05-31T17:28:42Z</time>
      </trkpt>
      <trkpt lat="46.15819" lon="-1.15312">
        <ele>4.6</ele>
        <time>2020-05-31T17:28:43Z</time>
      </trkpt>
      <trkpt lat="46.15819" lon="-1.15313">
        <ele>4.6</ele>
        <time>2020-05-31T17:28:44Z</time>
      </trkpt>
      <trkpt lat="46.15818" lon="-1.15314">
        <ele>4.5</ele>
        <time>2020-05-31T17:28:45Z</time>
      </trkpt>
      <trkpt lat="46.15819" lon="-1.15316">
        <ele>4.5</ele>
        <time>2020-05-31T17:28:46Z</time>
      </trkpt>
      <trkpt lat="46.15818" lon="-1.15316">
        <ele>4.5</ele>
        <time>2020-05-31T17:28:47Z</time>
      </trkpt>
      <trkpt lat="46.15818" lon="-1.15316">
        <ele>4.5</ele>
        <time>2020-05-31T17:28:48Z</time>
      </trkpt>
      <trkpt lat="46.15818" lon="-1.15317">
        <ele>4.5</ele>
        <time>2020-05-31T17:28:49Z</time>
      </trkpt>
      <trkpt lat="46.15818" lon="-1.15317">
        <ele>4.5</ele>
        <time>2020-05-31T17:28:50Z</time>
      </trkpt>
      <trkpt lat="46.15818" lon="-1.15315">
        <ele>4.5</ele>
        <time>2020-05-31T17:28:51Z</time>
      </trkpt>
      <trkpt lat="46.15818" lon="-1.15316">
        <ele>4.5</ele>
        <time>2020-05-31T17:28:52Z</time>
      </trkpt>
      <trkpt lat="46.15817" lon="-1.15315">
        <ele>4.5</ele>
        <time>2020-05-31T17:28:53Z</time>
      </trkpt>
      <trkpt lat="46.15816" lon="-1.15315">
        <ele>4.5</ele>
        <time>2020-05-31T17:28:54Z</time>
      </trkpt>
      <trkpt lat="46.15815" lon="-1.15314">
        <ele>4.5</ele>
        <time>2020-05-31T17:28:55Z</time>
      </trkpt>
      <trkpt lat="46.15815" lon="-1.15315">
        <ele>4.5</ele>
        <time>2020-05-31T17:28:56Z</time>
      </trkpt>
      <trkpt lat="46.15815" lon="-1.15315">
        <ele>4.5</ele>
        <time>2020-05-31T17:28:57Z</time>
      </trkpt>
      <trkpt lat="46.15815" lon="-1.15315">
        <ele>4.5</ele>
        <time>2020-05-31T17:28:58Z</time>
      </trkpt>
      <trkpt lat="46.15815" lon="-1.15315">
        <ele>4.5</ele>
        <time>2020-05-31T17:28:59Z</time>
      </trkpt>
      <trkpt lat="46.15816" lon="-1.15315">
        <ele>4.5</ele>
        <time>2020-05-31T17:29:00Z</time>
      </trkpt>
      <trkpt lat="46.15815" lon="-1.15315">
        <ele>4.5</ele>
        <time>2020-05-31T17:29:01Z</time>
      </trkpt>
      <trkpt lat="46.15815" lon="-1.15315">
        <ele>4.5</ele>
        <time>2020-05-31T17:29:02Z</time>
      </trkpt>
      <trkpt lat="46.15815" lon="-1.15315">
        <ele>4.5</ele>
        <time>2020-05-31T17:29:03Z</time>
      </trkpt>
      <trkpt lat="46.15815" lon="-1.15315">
        <ele>4.5</ele>
        <time>2020-05-31T17:29:04Z</time>
      </trkpt>
      <trkpt lat="46.15816" lon="-1.15315">
        <ele>4.5</ele>
        <time>2020-05-31T17:29:05Z</time>
      </trkpt>
      <trkpt lat="46.15815" lon="-1.15315">
        <ele>4.5</ele>
        <time>2020-05-31T17:29:06Z</time>
      </trkpt>
      <trkpt lat="46.15815" lon="-1.15315">
        <ele>4.5</ele>
        <time>2020-05-31T17:29:07Z</time>
      </trkpt>
      <trkpt lat="46.15815" lon="-1.15316">
        <ele>4.5</ele>
        <time>2020-05-31T17:29:08Z</time>
      </trkpt>
      <trkpt lat="46.15815" lon="-1.15315">
        <ele>4.5</ele>
        <time>2020-05-31T17:29:09Z</time>
      </trkpt>
      <trkpt lat="46.15814" lon="-1.15314">
        <ele>4.5</ele>
        <time>2020-05-31T17:29:10Z</time>
      </trkpt>
      <trkpt lat="46.15814" lon="-1.15314">
        <ele>4.5</ele>
        <time>2020-05-31T17:29:11Z</time>
      </trkpt>
      <trkpt lat="46.15813" lon="-1.15313">
        <ele>4.5</ele>
        <time>2020-05-31T17:29:12Z</time>
      </trkpt>
      <trkpt lat="46.15813" lon="-1.15312">
        <ele>4.5</ele>
        <time>2020-05-31T17:29:13Z</time>
      </trkpt>
      <trkpt lat="46.15813" lon="-1.15312">
        <ele>4.5</ele>
        <time>2020-05-31T17:29:14Z</time>
      </trkpt>
      <trkpt lat="46.15814" lon="-1.15312">
        <ele>4.5</ele>
        <time>2020-05-31T17:29:15Z</time>
      </trkpt>
      <trkpt lat="46.15814" lon="-1.15312">
        <ele>4.5</ele>
        <time>2020-05-31T17:29:16Z</time>
      </trkpt>
      <trkpt lat="46.15813" lon="-1.15312">
        <ele>4.5</ele>
        <time>2020-05-31T17:29:17Z</time>
      </trkpt>
      <trkpt lat="46.15814" lon="-1.15312">
        <ele>4.5</ele>
        <time>2020-05-31T17:29:18Z</time>
      </trkpt>
      <trkpt lat="46.15814" lon="-1.15312">
        <ele>4.5</ele>
        <time>2020-05-31T17:29:19Z</time>
      </trkpt>
      <trkpt lat="46.15814" lon="-1.15312">
        <ele>4.5</ele>
        <time>2020-05-31T17:29:20Z</time>
      </trkpt>
      <trkpt lat="46.15814" lon="-1.15312">
        <ele>4.4</ele>
        <time>2020-05-31T17:29:21Z</time>
      </trkpt>
      <trkpt lat="46.15814" lon="-1.15312">
        <ele>4.4</ele>
        <time>2020-05-31T17:29:22Z</time>
      </trkpt>
      <trkpt lat="46.15789" lon="-1.15297">
        <ele>4.3</ele>
        <time>2020-05-31T17:29:49Z</time>
      </trkpt>
      <trkpt lat="46.15806" lon="-1.15252">
        <ele>4.3</ele>
        <time>2020-05-31T17:29:53Z</time>
      </trkpt>
      <trkpt lat="46.15777" lon="-1.15283">
        <ele>4.3</ele>
        <time>2020-05-31T17:29:55Z</time>
      </trkpt>
      <trkpt lat="46.15786" lon="-1.15309">
        <ele>4.3</ele>
        <time>2020-05-31T17:29:56Z</time>
      </trkpt>
      <trkpt lat="46.15787" lon="-1.15309">
        <ele>4.3</ele>
        <time>2020-05-31T17:29:57Z</time>
      </trkpt>
      <trkpt lat="46.15804" lon="-1.15329">
        <ele>4.7</ele>
        <time>2020-05-31T17:29:58Z</time>
      </trkpt>
      <trkpt lat="46.1581" lon="-1.15332">
        <ele>4.7</ele>
        <time>2020-05-31T17:29:59Z</time>
      </trkpt>
      <trkpt lat="46.1581" lon="-1.1533">
        <ele>4.7</ele>
        <time>2020-05-31T17:30:00Z</time>
      </trkpt>
      <trkpt lat="46.15811" lon="-1.15327">
        <ele>4.7</ele>
        <time>2020-05-31T17:30:01Z</time>
      </trkpt>
      <trkpt lat="46.15802" lon="-1.15314">
        <ele>4.7</ele>
        <time>2020-05-31T17:30:02Z</time>
      </trkpt>
      <trkpt lat="46.15802" lon="-1.15319">
        <ele>4.7</ele>
        <time>2020-05-31T17:30:03Z</time>
      </trkpt>
      <trkpt lat="46.15804" lon="-1.15323">
        <ele>4.7</ele>
        <time>2020-05-31T17:30:04Z</time>
      </trkpt>
      <trkpt lat="46.15805" lon="-1.15324">
        <ele>4.7</ele>
        <time>2020-05-31T17:30:05Z</time>
      </trkpt>
      <trkpt lat="46.15806" lon="-1.15322">
        <ele>4.7</ele>
        <time>2020-05-31T17:30:06Z</time>
      </trkpt>
      <trkpt lat="46.15804" lon="-1.15323">
        <ele>4.7</ele>
        <time>2020-05-31T17:30:07Z</time>
      </trkpt>
      <trkpt lat="46.15805" lon="-1.15322">
        <ele>4.7</ele>
        <time>2020-05-31T17:30:08Z</time>
      </trkpt>
      <trkpt lat="46.15806" lon="-1.15319">
        <ele>4.7</ele>
        <time>2020-05-31T17:30:12Z</time>
      </trkpt>
      <trkpt lat="46.15805" lon="-1.15317">
        <ele>4.7</ele>
        <time>2020-05-31T17:30:13Z</time>
      </trkpt>
      <trkpt lat="46.15807" lon="-1.15319">
        <ele>4.7</ele>
        <time>2020-05-31T17:30:14Z</time>
      </trkpt>
      <trkpt lat="46.15808" lon="-1.15317">
        <ele>4.7</ele>
        <time>2020-05-31T17:30:15Z</time>
      </trkpt>
      <trkpt lat="46.15809" lon="-1.15316">
        <ele>4.7</ele>
        <time>2020-05-31T17:30:16Z</time>
      </trkpt>
      <trkpt lat="46.1581" lon="-1.15316">
        <ele>4.7</ele>
        <time>2020-05-31T17:30:17Z</time>
      </trkpt>
      <trkpt lat="46.1581" lon="-1.15317">
        <ele>4.7</ele>
        <time>2020-05-31T17:30:18Z</time>
      </trkpt>
      <trkpt lat="46.1581" lon="-1.15317">
        <ele>4.7</ele>
        <time>2020-05-31T17:30:19Z</time>
      </trkpt>
      <trkpt lat="46.1581" lon="-1.15318">
        <ele>4.7</ele>
        <time>2020-05-31T17:30:20Z</time>
      </trkpt>
      <trkpt lat="46.15811" lon="-1.15317">
        <ele>4.7</ele>
        <time>2020-05-31T17:30:21Z</time>
      </trkpt>
      <trkpt lat="46.15811" lon="-1.15317">
        <ele>4.7</ele>
        <time>2020-05-31T17:30:22Z</time>
      </trkpt>
      <trkpt lat="46.15811" lon="-1.15316">
        <ele>4.7</ele>
        <time>2020-05-31T17:30:23Z</time>
      </trkpt>
      <trkpt lat="46.15812" lon="-1.15316">
        <ele>4.7</ele>
        <time>2020-05-31T17:30:24Z</time>
      </trkpt>
      <trkpt lat="46.15811" lon="-1.15317">
        <ele>4.7</ele>
        <time>2020-05-31T17:30:25Z</time>
      </trkpt>
      <trkpt lat="46.1581" lon="-1.15313">
        <ele>4.7</ele>
        <time>2020-05-31T17:30:26Z</time>
      </trkpt>
      <trkpt lat="46.15811" lon="-1.15312">
        <ele>4.7</ele>
        <time>2020-05-31T17:30:27Z</time>
      </trkpt>
      <trkpt lat="46.15811" lon="-1.15312">
        <ele>4.7</ele>
        <time>2020-05-31T17:30:28Z</time>
      </trkpt>
      <trkpt lat="46.15811" lon="-1.15311">
        <ele>4.7</ele>
        <time>2020-05-31T17:30:29Z</time>
      </trkpt>
      <trkpt lat="46.15811" lon="-1.15311">
        <ele>4.7</ele>
        <time>2020-05-31T17:30:30Z</time>
      </trkpt>
      <trkpt lat="46.15811" lon="-1.15312">
        <ele>4.7</ele>
        <time>2020-05-31T17:30:31Z</time>
      </trkpt>
      <trkpt lat="46.15811" lon="-1.15314">
        <ele>4.7</ele>
        <time>2020-05-31T17:30:32Z</time>
      </trkpt>
      <trkpt lat="46.1581" lon="-1.15316">
        <ele>4.7</ele>
        <time>2020-05-31T17:30:33Z</time>
      </trkpt>
      <trkpt lat="46.1581" lon="-1.15319">
        <ele>4.7</ele>
        <time>2020-05-31T17:30:34Z</time>
      </trkpt>
      <trkpt lat="46.15811" lon="-1.15321">
        <ele>4.7</ele>
        <time>2020-05-31T17:30:35Z</time>
      </trkpt>
      <trkpt lat="46.15811" lon="-1.15325">
        <ele>4.7</ele>
        <time>2020-05-31T17:30:36Z</time>
      </trkpt>
      <trkpt lat="46.15811" lon="-1.15329">
        <ele>4.7</ele>
        <time>2020-05-31T17:30:37Z</time>
      </trkpt>
      <trkpt lat="46.15812" lon="-1.15333">
        <ele>4.7</ele>
        <time>2020-05-31T17:30:38Z</time>
      </trkpt>
      <trkpt lat="46.15812" lon="-1.15338">
        <ele>4.7</ele>
        <time>2020-05-31T17:30:39Z</time>
      </trkpt>
      <trkpt lat="46.15812" lon="-1.15342">
        <ele>4.7</ele>
        <time>2020-05-31T17:30:40Z</time>
      </trkpt>
      <trkpt lat="46.15812" lon="-1.15347">
        <ele>4.7</ele>
        <time>2020-05-31T17:30:41Z</time>
      </trkpt>
      <trkpt lat="46.15813" lon="-1.15351">
        <ele>4.7</ele>
        <time>2020-05-31T17:30:42Z</time>
      </trkpt>
      <trkpt lat="46.15813" lon="-1.15356">
        <ele>4.8</ele>
        <time>2020-05-31T17:30:43Z</time>
      </trkpt>
      <trkpt lat="46.15812" lon="-1.15361">
        <ele>4.8</ele>
        <time>2020-05-31T17:30:44Z</time>
      </trkpt>
      <trkpt lat="46.15811" lon="-1.15367">
        <ele>4.8</ele>
        <time>2020-05-31T17:30:45Z</time>
      </trkpt>
      <trkpt lat="46.1581" lon="-1.15371">
        <ele>4.8</ele>
        <time>2020-05-31T17:30:46Z</time>
      </trkpt>
      <trkpt lat="46.15809" lon="-1.15376">
        <ele>4.8</ele>
        <time>2020-05-31T17:30:47Z</time>
      </trkpt>
      <trkpt lat="46.15807" lon="-1.15381">
        <ele>4.8</ele>
        <time>2020-05-31T17:30:48Z</time>
      </trkpt>
      <trkpt lat="46.15806" lon="-1.15386">
        <ele>4.9</ele>
        <time>2020-05-31T17:30:49Z</time>
      </trkpt>
      <trkpt lat="46.15803" lon="-1.15393">
        <ele>4.9</ele>
        <time>2020-05-31T17:30:50Z</time>
      </trkpt>
      <trkpt lat="46.15801" lon="-1.15399">
        <ele>4.9</ele>
        <time>2020-05-31T17:30:51Z</time>
      </trkpt>
      <trkpt lat="46.15799" lon="-1.15405">
        <ele>4.9</ele>
        <time>2020-05-31T17:30:52Z</time>
      </trkpt>
      <trkpt lat="46.15796" lon="-1.15412">
        <ele>4.9</ele>
        <time>2020-05-31T17:30:53Z</time>
      </trkpt>
      <trkpt lat="46.15794" lon="-1.1542">
        <ele>5</ele>
        <time>2020-05-31T17:30:54Z</time>
      </trkpt>
      <trkpt lat="46.15794" lon="-1.15426">
        <ele>5</ele>
        <time>2020-05-31T17:30:55Z</time>
      </trkpt>
      <trkpt lat="46.15794" lon="-1.15434">
        <ele>5</ele>
        <time>2020-05-31T17:30:56Z</time>
      </trkpt>
      <trkpt lat="46.15792" lon="-1.15441">
        <ele>5.1</ele>
        <time>2020-05-31T17:30:57Z</time>
      </trkpt>
      <trkpt lat="46.1579" lon="-1.15451">
        <ele>5.1</ele>
        <time>2020-05-31T17:30:58Z</time>
      </trkpt>
      <trkpt lat="46.15788" lon="-1.15459">
        <ele>5.1</ele>
        <time>2020-05-31T17:30:59Z</time>
      </trkpt>
      <trkpt lat="46.15788" lon="-1.15468">
        <ele>5.1</ele>
        <time>2020-05-31T17:31:00Z</time>
      </trkpt>
      <trkpt lat="46.15788" lon="-1.15474">
        <ele>5.1</ele>
        <time>2020-05-31T17:31:01Z</time>
      </trkpt>
      <trkpt lat="46.15788" lon="-1.15482">
        <ele>5.1</ele>
        <time>2020-05-31T17:31:02Z</time>
      </trkpt>
      <trkpt lat="46.1579" lon="-1.1549">
        <ele>5.2</ele>
        <time>2020-05-31T17:31:03Z</time>
      </trkpt>
      <trkpt lat="46.15791" lon="-1.15497">
        <ele>5.2</ele>
        <time>2020-05-31T17:31:04Z</time>
      </trkpt>
      <trkpt lat="46.15792" lon="-1.15502">
        <ele>5.2</ele>
        <time>2020-05-31T17:31:05Z</time>
      </trkpt>
      <trkpt lat="46.15794" lon="-1.15507">
        <ele>5.2</ele>
        <time>2020-05-31T17:31:06Z</time>
      </trkpt>
      <trkpt lat="46.15796" lon="-1.15511">
        <ele>5.3</ele>
        <time>2020-05-31T17:31:07Z</time>
      </trkpt>
      <trkpt lat="46.15797" lon="-1.15517">
        <ele>5.3</ele>
        <time>2020-05-31T17:31:08Z</time>
      </trkpt>
      <trkpt lat="46.15798" lon="-1.15523">
        <ele>5.3</ele>
        <time>2020-05-31T17:31:09Z</time>
      </trkpt>
      <trkpt lat="46.15801" lon="-1.15529">
        <ele>5.4</ele>
        <time>2020-05-31T17:31:10Z</time>
      </trkpt>
      <trkpt lat="46.15803" lon="-1.15533">
        <ele>5.4</ele>
        <time>2020-05-31T17:31:11Z</time>
      </trkpt>
      <trkpt lat="46.15805" lon="-1.15537">
        <ele>5.4</ele>
        <time>2020-05-31T17:31:12Z</time>
      </trkpt>
      <trkpt lat="46.15807" lon="-1.15542">
        <ele>5.5</ele>
        <time>2020-05-31T17:31:13Z</time>
      </trkpt>
      <trkpt lat="46.15808" lon="-1.15548">
        <ele>5.5</ele>
        <time>2020-05-31T17:31:14Z</time>
      </trkpt>
      <trkpt lat="46.15809" lon="-1.15553">
        <ele>5.6</ele>
        <time>2020-05-31T17:31:15Z</time>
      </trkpt>
      <trkpt lat="46.1581" lon="-1.1556">
        <ele>5.6</ele>
        <time>2020-05-31T17:31:16Z</time>
      </trkpt>
      <trkpt lat="46.15812" lon="-1.15566">
        <ele>5.7</ele>
        <time>2020-05-31T17:31:17Z</time>
      </trkpt>
      <trkpt lat="46.15813" lon="-1.15573">
        <ele>5.7</ele>
        <time>2020-05-31T17:31:18Z</time>
      </trkpt>
      <trkpt lat="46.15815" lon="-1.15581">
        <ele>5.8</ele>
        <time>2020-05-31T17:31:19Z</time>
      </trkpt>
      <trkpt lat="46.15815" lon="-1.15591">
        <ele>5.8</ele>
        <time>2020-05-31T17:31:20Z</time>
      </trkpt>
      <trkpt lat="46.15816" lon="-1.15598">
        <ele>5.9</ele>
        <time>2020-05-31T17:31:21Z</time>
      </trkpt>
      <trkpt lat="46.15817" lon="-1.15606">
        <ele>5.9</ele>
        <time>2020-05-31T17:31:22Z</time>
      </trkpt>
      <trkpt lat="46.15819" lon="-1.15615">
        <ele>5.9</ele>
        <time>2020-05-31T17:31:23Z</time>
      </trkpt>
      <trkpt lat="46.1582" lon="-1.15623">
        <ele>6</ele>
        <time>2020-05-31T17:31:24Z</time>
      </trkpt>
      <trkpt lat="46.15822" lon="-1.1563">
        <ele>6</ele>
        <time>2020-05-31T17:31:25Z</time>
      </trkpt>
      <trkpt lat="46.15823" lon="-1.15636">
        <ele>6.1</ele>
        <time>2020-05-31T17:31:26Z</time>
      </trkpt>
      <trkpt lat="46.15825" lon="-1.15643">
        <ele>6.1</ele>
        <time>2020-05-31T17:31:27Z</time>
      </trkpt>
      <trkpt lat="46.15825" lon="-1.1565">
        <ele>6.1</ele>
        <time>2020-05-31T17:31:28Z</time>
      </trkpt>
      <trkpt lat="46.15827" lon="-1.15658">
        <ele>6.2</ele>
        <time>2020-05-31T17:31:29Z</time>
      </trkpt>
      <trkpt lat="46.15828" lon="-1.15666">
        <ele>6.1</ele>
        <time>2020-05-31T17:31:30Z</time>
      </trkpt>
      <trkpt lat="46.1583" lon="-1.15674">
        <ele>6.1</ele>
        <time>2020-05-31T17:31:31Z</time>
      </trkpt>
      <trkpt lat="46.15832" lon="-1.15682">
        <ele>6</ele>
        <time>2020-05-31T17:31:32Z</time>
      </trkpt>
      <trkpt lat="46.15834" lon="-1.15691">
        <ele>5.9</ele>
        <time>2020-05-31T17:31:33Z</time>
      </trkpt>
      <trkpt lat="46.15835" lon="-1.15701">
        <ele>5.9</ele>
        <time>2020-05-31T17:31:34Z</time>
      </trkpt>
      <trkpt lat="46.15836" lon="-1.1571">
        <ele>5.8</ele>
        <time>2020-05-31T17:31:35Z</time>
      </trkpt>
      <trkpt lat="46.15838" lon="-1.15721">
        <ele>5.7</ele>
        <time>2020-05-31T17:31:36Z</time>
      </trkpt>
      <trkpt lat="46.1584" lon="-1.15731">
        <ele>5.6</ele>
        <time>2020-05-31T17:31:37Z</time>
      </trkpt>
      <trkpt lat="46.1584" lon="-1.15741">
        <ele>5.5</ele>
        <time>2020-05-31T17:31:38Z</time>
      </trkpt>
      <trkpt lat="46.15842" lon="-1.15751">
        <ele>5.4</ele>
        <time>2020-05-31T17:31:39Z</time>
      </trkpt>
      <trkpt lat="46.15844" lon="-1.1576">
        <ele>5.3</ele>
        <time>2020-05-31T17:31:40Z</time>
      </trkpt>
      <trkpt lat="46.15846" lon="-1.15768">
        <ele>5.3</ele>
        <time>2020-05-31T17:31:41Z</time>
      </trkpt>
      <trkpt lat="46.15848" lon="-1.15777">
        <ele>5.3</ele>
        <time>2020-05-31T17:31:42Z</time>
      </trkpt>
      <trkpt lat="46.15849" lon="-1.15784">
        <ele>5.2</ele>
        <time>2020-05-31T17:31:43Z</time>
      </trkpt>
      <trkpt lat="46.1585" lon="-1.15792">
        <ele>5.2</ele>
        <time>2020-05-31T17:31:44Z</time>
      </trkpt>
      <trkpt lat="46.15852" lon="-1.158">
        <ele>5.2</ele>
        <time>2020-05-31T17:31:45Z</time>
      </trkpt>
      <trkpt lat="46.15854" lon="-1.15807">
        <ele>5.2</ele>
        <time>2020-05-31T17:31:46Z</time>
      </trkpt>
      <trkpt lat="46.15857" lon="-1.15815">
        <ele>5.2</ele>
        <time>2020-05-31T17:31:47Z</time>
      </trkpt>
      <trkpt lat="46.15859" lon="-1.15823">
        <ele>5.2</ele>
        <time>2020-05-31T17:31:48Z</time>
      </trkpt>
      <trkpt lat="46.1586" lon="-1.15833">
        <ele>5.1</ele>
        <time>2020-05-31T17:31:49Z</time>
      </trkpt>
      <trkpt lat="46.15861" lon="-1.15841">
        <ele>5.1</ele>
        <time>2020-05-31T17:31:50Z</time>
      </trkpt>
      <trkpt lat="46.15863" lon="-1.15849">
        <ele>5.1</ele>
        <time>2020-05-31T17:31:51Z</time>
      </trkpt>
      <trkpt lat="46.15865" lon="-1.15858">
        <ele>5</ele>
        <time>2020-05-31T17:31:52Z</time>
      </trkpt>
      <trkpt lat="46.15868" lon="-1.15869">
        <ele>5</ele>
        <time>2020-05-31T17:31:53Z</time>
      </trkpt>
      <trkpt lat="46.1587" lon="-1.15879">
        <ele>4.9</ele>
        <time>2020-05-31T17:31:54Z</time>
      </trkpt>
      <trkpt lat="46.15871" lon="-1.15888">
        <ele>4.7</ele>
        <time>2020-05-31T17:31:55Z</time>
      </trkpt>
      <trkpt lat="46.15871" lon="-1.15896">
        <ele>4.6</ele>
        <time>2020-05-31T17:31:56Z</time>
      </trkpt>
      <trkpt lat="46.15872" lon="-1.15903">
        <ele>4.6</ele>
        <time>2020-05-31T17:31:57Z</time>
      </trkpt>
      <trkpt lat="46.15873" lon="-1.15913">
        <ele>4.3</ele>
        <time>2020-05-31T17:31:58Z</time>
      </trkpt>
      <trkpt lat="46.15874" lon="-1.1592">
        <ele>4.1</ele>
        <time>2020-05-31T17:31:59Z</time>
      </trkpt>
      <trkpt lat="46.15874" lon="-1.15924">
        <ele>3.9</ele>
        <time>2020-05-31T17:32:00Z</time>
      </trkpt>
      <trkpt lat="46.15874" lon="-1.1593">
        <ele>3.8</ele>
        <time>2020-05-31T17:32:01Z</time>
      </trkpt>
      <trkpt lat="46.15874" lon="-1.15931">
        <ele>3.7</ele>
        <time>2020-05-31T17:32:02Z</time>
      </trkpt>
      <trkpt lat="46.15875" lon="-1.15933">
        <ele>3.7</ele>
        <time>2020-05-31T17:32:03Z</time>
      </trkpt>
      <trkpt lat="46.15875" lon="-1.15934">
        <ele>3.7</ele>
        <time>2020-05-31T17:32:04Z</time>
      </trkpt>
      <trkpt lat="46.15875" lon="-1.15934">
        <ele>3.7</ele>
        <time>2020-05-31T17:32:05Z</time>
      </trkpt>
      <trkpt lat="46.15875" lon="-1.15935">
        <ele>3.6</ele>
        <time>2020-05-31T17:32:06Z</time>
      </trkpt>
      <trkpt lat="46.15874" lon="-1.15938">
        <ele>3.5</ele>
        <time>2020-05-31T17:32:07Z</time>
      </trkpt>
      <trkpt lat="46.15873" lon="-1.15939">
        <ele>3.5</ele>
        <time>2020-05-31T17:32:08Z</time>
      </trkpt>
      <trkpt lat="46.15873" lon="-1.15941">
        <ele>3.1</ele>
        <time>2020-05-31T17:32:09Z</time>
      </trkpt>
      <trkpt lat="46.15873" lon="-1.15941">
        <ele>3.1</ele>
        <time>2020-05-31T17:32:10Z</time>
      </trkpt>
      <trkpt lat="46.15873" lon="-1.15941">
        <ele>3.1</ele>
        <time>2020-05-31T17:32:11Z</time>
      </trkpt>
      <trkpt lat="46.15873" lon="-1.15942">
        <ele>3.1</ele>
        <time>2020-05-31T17:32:12Z</time>
      </trkpt>
      <trkpt lat="46.15873" lon="-1.15942">
        <ele>3.1</ele>
        <time>2020-05-31T17:32:13Z</time>
      </trkpt>
      <trkpt lat="46.15873" lon="-1.15942">
        <ele>3.1</ele>
        <time>2020-05-31T17:32:14Z</time>
      </trkpt>
      <trkpt lat="46.15873" lon="-1.15942">
        <ele>3.1</ele>
        <time>2020-05-31T17:32:15Z</time>
      </trkpt>
      <trkpt lat="46.15873" lon="-1.15942">
        <ele>3.1</ele>
        <time>2020-05-31T17:32:16Z</time>
      </trkpt>
      <trkpt lat="46.15873" lon="-1.15942">
        <ele>3.1</ele>
        <time>2020-05-31T17:32:17Z</time>
      </trkpt>
      <trkpt lat="46.15873" lon="-1.15943">
        <ele>3.1</ele>
        <time>2020-05-31T17:32:18Z</time>
      </trkpt>
      <trkpt lat="46.15874" lon="-1.15943">
        <ele>3.1</ele>
        <time>2020-05-31T17:32:19Z</time>
      </trkpt>
      <trkpt lat="46.15874" lon="-1.15943">
        <ele>3.1</ele>
        <time>2020-05-31T17:32:20Z</time>
      </trkpt>
      <trkpt lat="46.15874" lon="-1.15943">
        <ele>3.1</ele>
        <time>2020-05-31T17:32:21Z</time>
      </trkpt>
      <trkpt lat="46.15874" lon="-1.15943">
        <ele>3.1</ele>
        <time>2020-05-31T17:32:22Z</time>
      </trkpt>
      <trkpt lat="46.15874" lon="-1.15943">
        <ele>3.1</ele>
        <time>2020-05-31T17:32:23Z</time>
      </trkpt>
      <trkpt lat="46.15874" lon="-1.15944">
        <ele>3.1</ele>
        <time>2020-05-31T17:32:24Z</time>
      </trkpt>
      <trkpt lat="46.15874" lon="-1.15944">
        <ele>3.1</ele>
        <time>2020-05-31T17:32:25Z</time>
      </trkpt>
      <trkpt lat="46.15874" lon="-1.15944">
        <ele>3.1</ele>
        <time>2020-05-31T17:32:26Z</time>
      </trkpt>
      <trkpt lat="46.15874" lon="-1.15944">
        <ele>3.1</ele>
        <time>2020-05-31T17:32:27Z</time>
      </trkpt>
      <trkpt lat="46.15874" lon="-1.15944">
        <ele>3.1</ele>
        <time>2020-05-31T17:32:28Z</time>
      </trkpt>
      <trkpt lat="46.15874" lon="-1.15944">
        <ele>3.1</ele>
        <time>2020-05-31T17:32:29Z</time>
      </trkpt>
      <trkpt lat="46.15874" lon="-1.15945">
        <ele>3.1</ele>
        <time>2020-05-31T17:32:30Z</time>
      </trkpt>
      <trkpt lat="46.15874" lon="-1.15945">
        <ele>3.1</ele>
        <time>2020-05-31T17:32:31Z</time>
      </trkpt>
      <trkpt lat="46.15874" lon="-1.15945">
        <ele>3.1</ele>
        <time>2020-05-31T17:32:32Z</time>
      </trkpt>
      <trkpt lat="46.15875" lon="-1.15946">
        <ele>3.1</ele>
        <time>2020-05-31T17:32:33Z</time>
      </trkpt>
      <trkpt lat="46.15874" lon="-1.15946">
        <ele>3.1</ele>
        <time>2020-05-31T17:32:34Z</time>
      </trkpt>
      <trkpt lat="46.15874" lon="-1.15947">
        <ele>3.1</ele>
        <time>2020-05-31T17:32:35Z</time>
      </trkpt>
      <trkpt lat="46.15871" lon="-1.15947">
        <ele>3</ele>
        <time>2020-05-31T17:32:36Z</time>
      </trkpt>
      <trkpt lat="46.15868" lon="-1.15947">
        <ele>3</ele>
        <time>2020-05-31T17:32:37Z</time>
      </trkpt>
      <trkpt lat="46.15866" lon="-1.15947">
        <ele>3</ele>
        <time>2020-05-31T17:32:38Z</time>
      </trkpt>
      <trkpt lat="46.15863" lon="-1.15946">
        <ele>3</ele>
        <time>2020-05-31T17:32:39Z</time>
      </trkpt>
      <trkpt lat="46.1586" lon="-1.15945">
        <ele>3</ele>
        <time>2020-05-31T17:32:40Z</time>
      </trkpt>
      <trkpt lat="46.15857" lon="-1.15943">
        <ele>3</ele>
        <time>2020-05-31T17:32:41Z</time>
      </trkpt>
      <trkpt lat="46.15852" lon="-1.15943">
        <ele>2.9</ele>
        <time>2020-05-31T17:32:42Z</time>
      </trkpt>
      <trkpt lat="46.15847" lon="-1.15942">
        <ele>2.9</ele>
        <time>2020-05-31T17:32:43Z</time>
      </trkpt>
      <trkpt lat="46.15842" lon="-1.15941">
        <ele>2.9</ele>
        <time>2020-05-31T17:32:44Z</time>
      </trkpt>
      <trkpt lat="46.15838" lon="-1.15942">
        <ele>2.9</ele>
        <time>2020-05-31T17:32:45Z</time>
      </trkpt>
      <trkpt lat="46.15832" lon="-1.15943">
        <ele>2.9</ele>
        <time>2020-05-31T17:32:46Z</time>
      </trkpt>
      <trkpt lat="46.15827" lon="-1.15943">
        <ele>2.9</ele>
        <time>2020-05-31T17:32:47Z</time>
      </trkpt>
      <trkpt lat="46.15821" lon="-1.15944">
        <ele>3</ele>
        <time>2020-05-31T17:32:48Z</time>
      </trkpt>
      <trkpt lat="46.15815" lon="-1.15942">
        <ele>3</ele>
        <time>2020-05-31T17:32:49Z</time>
      </trkpt>
      <trkpt lat="46.15809" lon="-1.15942">
        <ele>3</ele>
        <time>2020-05-31T17:32:50Z</time>
      </trkpt>
      <trkpt lat="46.15803" lon="-1.15941">
        <ele>3</ele>
        <time>2020-05-31T17:32:51Z</time>
      </trkpt>
      <trkpt lat="46.15797" lon="-1.15941">
        <ele>2.9</ele>
        <time>2020-05-31T17:32:52Z</time>
      </trkpt>
      <trkpt lat="46.1579" lon="-1.15942">
        <ele>2.9</ele>
        <time>2020-05-31T17:32:53Z</time>
      </trkpt>
      <trkpt lat="46.15784" lon="-1.15942">
        <ele>2.9</ele>
        <time>2020-05-31T17:32:54Z</time>
      </trkpt>
      <trkpt lat="46.15778" lon="-1.15941">
        <ele>2.9</ele>
        <time>2020-05-31T17:32:55Z</time>
      </trkpt>
      <trkpt lat="46.15772" lon="-1.15942">
        <ele>2.9</ele>
        <time>2020-05-31T17:32:56Z</time>
      </trkpt>
      <trkpt lat="46.15767" lon="-1.15944">
        <ele>2.9</ele>
        <time>2020-05-31T17:32:57Z</time>
      </trkpt>
      <trkpt lat="46.15762" lon="-1.15947">
        <ele>2.9</ele>
        <time>2020-05-31T17:32:58Z</time>
      </trkpt>
      <trkpt lat="46.15759" lon="-1.15952">
        <ele>2.9</ele>
        <time>2020-05-31T17:32:59Z</time>
      </trkpt>
      <trkpt lat="46.15755" lon="-1.15956">
        <ele>2.9</ele>
        <time>2020-05-31T17:33:00Z</time>
      </trkpt>
      <trkpt lat="46.15752" lon="-1.15962">
        <ele>2.9</ele>
        <time>2020-05-31T17:33:01Z</time>
      </trkpt>
      <trkpt lat="46.15749" lon="-1.15966">
        <ele>2.9</ele>
        <time>2020-05-31T17:33:02Z</time>
      </trkpt>
      <trkpt lat="46.15746" lon="-1.15971">
        <ele>2.9</ele>
        <time>2020-05-31T17:33:03Z</time>
      </trkpt>
      <trkpt lat="46.15744" lon="-1.15976">
        <ele>2.9</ele>
        <time>2020-05-31T17:33:04Z</time>
      </trkpt>
      <trkpt lat="46.15741" lon="-1.15982">
        <ele>3</ele>
        <time>2020-05-31T17:33:05Z</time>
      </trkpt>
      <trkpt lat="46.15738" lon="-1.15986">
        <ele>3</ele>
        <time>2020-05-31T17:33:06Z</time>
      </trkpt>
      <trkpt lat="46.15735" lon="-1.15991">
        <ele>3</ele>
        <time>2020-05-31T17:33:07Z</time>
      </trkpt>
      <trkpt lat="46.15733" lon="-1.15995">
        <ele>3</ele>
        <time>2020-05-31T17:33:08Z</time>
      </trkpt>
      <trkpt lat="46.15729" lon="-1.15998">
        <ele>3</ele>
        <time>2020-05-31T17:33:09Z</time>
      </trkpt>
      <trkpt lat="46.15724" lon="-1.16002">
        <ele>3</ele>
        <time>2020-05-31T17:33:10Z</time>
      </trkpt>
      <trkpt lat="46.15719" lon="-1.16004">
        <ele>3.1</ele>
        <time>2020-05-31T17:33:11Z</time>
      </trkpt>
      <trkpt lat="46.15715" lon="-1.16007">
        <ele>3.1</ele>
        <time>2020-05-31T17:33:12Z</time>
      </trkpt>
      <trkpt lat="46.15711" lon="-1.16009">
        <ele>3.1</ele>
        <time>2020-05-31T17:33:13Z</time>
      </trkpt>
      <trkpt lat="46.15708" lon="-1.16011">
        <ele>3.1</ele>
        <time>2020-05-31T17:33:14Z</time>
      </trkpt>
      <trkpt lat="46.15706" lon="-1.16013">
        <ele>3.1</ele>
        <time>2020-05-31T17:33:15Z</time>
      </trkpt>
      <trkpt lat="46.15702" lon="-1.16015">
        <ele>3.1</ele>
        <time>2020-05-31T17:33:16Z</time>
      </trkpt>
      <trkpt lat="46.15698" lon="-1.16018">
        <ele>3.2</ele>
        <time>2020-05-31T17:33:17Z</time>
      </trkpt>
      <trkpt lat="46.15694" lon="-1.1602">
        <ele>3.2</ele>
        <time>2020-05-31T17:33:18Z</time>
      </trkpt>
      <trkpt lat="46.1569" lon="-1.16023">
        <ele>3.1</ele>
        <time>2020-05-31T17:33:19Z</time>
      </trkpt>
      <trkpt lat="46.15685" lon="-1.16027">
        <ele>3.1</ele>
        <time>2020-05-31T17:33:20Z</time>
      </trkpt>
      <trkpt lat="46.15682" lon="-1.1603">
        <ele>3.1</ele>
        <time>2020-05-31T17:33:21Z</time>
      </trkpt>
      <trkpt lat="46.15679" lon="-1.16033">
        <ele>3.1</ele>
        <time>2020-05-31T17:33:22Z</time>
      </trkpt>
      <trkpt lat="46.15676" lon="-1.16035">
        <ele>3.1</ele>
        <time>2020-05-31T17:33:23Z</time>
      </trkpt>
      <trkpt lat="46.15673" lon="-1.16038">
        <ele>3.1</ele>
        <time>2020-05-31T17:33:24Z</time>
      </trkpt>
      <trkpt lat="46.15669" lon="-1.16041">
        <ele>3.1</ele>
        <time>2020-05-31T17:33:25Z</time>
      </trkpt>
      <trkpt lat="46.15664" lon="-1.16044">
        <ele>3.1</ele>
        <time>2020-05-31T17:33:26Z</time>
      </trkpt>
      <trkpt lat="46.1566" lon="-1.16049">
        <ele>3.1</ele>
        <time>2020-05-31T17:33:27Z</time>
      </trkpt>
      <trkpt lat="46.15655" lon="-1.16054">
        <ele>3.1</ele>
        <time>2020-05-31T17:33:28Z</time>
      </trkpt>
      <trkpt lat="46.15651" lon="-1.16059">
        <ele>3.1</ele>
        <time>2020-05-31T17:33:29Z</time>
      </trkpt>
      <trkpt lat="46.15647" lon="-1.16062">
        <ele>3.1</ele>
        <time>2020-05-31T17:33:30Z</time>
      </trkpt>
      <trkpt lat="46.15643" lon="-1.16067">
        <ele>3.1</ele>
        <time>2020-05-31T17:33:31Z</time>
      </trkpt>
      <trkpt lat="46.15638" lon="-1.16072">
        <ele>3.2</ele>
        <time>2020-05-31T17:33:32Z</time>
      </trkpt>
      <trkpt lat="46.15633" lon="-1.16076">
        <ele>3.2</ele>
        <time>2020-05-31T17:33:33Z</time>
      </trkpt>
      <trkpt lat="46.15629" lon="-1.16077">
        <ele>3.2</ele>
        <time>2020-05-31T17:33:34Z</time>
      </trkpt>
      <trkpt lat="46.15625" lon="-1.16077">
        <ele>3.2</ele>
        <time>2020-05-31T17:33:35Z</time>
      </trkpt>
      <trkpt lat="46.15621" lon="-1.16077">
        <ele>3.2</ele>
        <time>2020-05-31T17:33:36Z</time>
      </trkpt>
      <trkpt lat="46.15621" lon="-1.16077">
        <ele>3.2</ele>
        <time>2020-05-31T17:33:37Z</time>
      </trkpt>
      <trkpt lat="46.15617" lon="-1.16077">
        <ele>3.2</ele>
        <time>2020-05-31T17:33:38Z</time>
      </trkpt>
      <trkpt lat="46.15614" lon="-1.16076">
        <ele>3.2</ele>
        <time>2020-05-31T17:33:39Z</time>
      </trkpt>
      <trkpt lat="46.15613" lon="-1.16075">
        <ele>3.2</ele>
        <time>2020-05-31T17:33:40Z</time>
      </trkpt>
      <trkpt lat="46.1561" lon="-1.16075">
        <ele>3.2</ele>
        <time>2020-05-31T17:33:41Z</time>
      </trkpt>
      <trkpt lat="46.15607" lon="-1.16074">
        <ele>3.2</ele>
        <time>2020-05-31T17:33:42Z</time>
      </trkpt>
      <trkpt lat="46.15605" lon="-1.16073">
        <ele>3.2</ele>
        <time>2020-05-31T17:33:43Z</time>
      </trkpt>
      <trkpt lat="46.15602" lon="-1.16071">
        <ele>3.2</ele>
        <time>2020-05-31T17:33:44Z</time>
      </trkpt>
      <trkpt lat="46.15602" lon="-1.16071">
        <ele>3.3</ele>
        <time>2020-05-31T17:33:45Z</time>
      </trkpt>
      <trkpt lat="46.156" lon="-1.16072">
        <ele>3.3</ele>
        <time>2020-05-31T17:33:46Z</time>
      </trkpt>
      <trkpt lat="46.15599" lon="-1.16072">
        <ele>3.3</ele>
        <time>2020-05-31T17:33:47Z</time>
      </trkpt>
      <trkpt lat="46.15597" lon="-1.16072">
        <ele>3.3</ele>
        <time>2020-05-31T17:33:48Z</time>
      </trkpt>
      <trkpt lat="46.15595" lon="-1.16073">
        <ele>3.3</ele>
        <time>2020-05-31T17:33:49Z</time>
      </trkpt>
      <trkpt lat="46.15592" lon="-1.16075">
        <ele>3.4</ele>
        <time>2020-05-31T17:33:50Z</time>
      </trkpt>
      <trkpt lat="46.15589" lon="-1.16076">
        <ele>3.4</ele>
        <time>2020-05-31T17:33:51Z</time>
      </trkpt>
      <trkpt lat="46.15587" lon="-1.16076">
        <ele>3.5</ele>
        <time>2020-05-31T17:33:52Z</time>
      </trkpt>
      <trkpt lat="46.15586" lon="-1.16077">
        <ele>3.5</ele>
        <time>2020-05-31T17:33:53Z</time>
      </trkpt>
      <trkpt lat="46.15583" lon="-1.1608">
        <ele>3.6</ele>
        <time>2020-05-31T17:33:54Z</time>
      </trkpt>
      <trkpt lat="46.15582" lon="-1.16081">
        <ele>3.6</ele>
        <time>2020-05-31T17:33:55Z</time>
      </trkpt>
      <trkpt lat="46.15579" lon="-1.16082">
        <ele>3.7</ele>
        <time>2020-05-31T17:33:56Z</time>
      </trkpt>
      <trkpt lat="46.15578" lon="-1.16083">
        <ele>3.7</ele>
        <time>2020-05-31T17:33:57Z</time>
      </trkpt>
      <trkpt lat="46.15575" lon="-1.16084">
        <ele>3.8</ele>
        <time>2020-05-31T17:33:58Z</time>
      </trkpt>
      <trkpt lat="46.15571" lon="-1.16085">
        <ele>3.8</ele>
        <time>2020-05-31T17:33:59Z</time>
      </trkpt>
      <trkpt lat="46.1557" lon="-1.16085">
        <ele>3.9</ele>
        <time>2020-05-31T17:34:00Z</time>
      </trkpt>
      <trkpt lat="46.15567" lon="-1.16085">
        <ele>4</ele>
        <time>2020-05-31T17:34:01Z</time>
      </trkpt>
      <trkpt lat="46.15566" lon="-1.16085">
        <ele>4</ele>
        <time>2020-05-31T17:34:02Z</time>
      </trkpt>
      <trkpt lat="46.15564" lon="-1.16084">
        <ele>4</ele>
        <time>2020-05-31T17:34:03Z</time>
      </trkpt>
      <trkpt lat="46.15563" lon="-1.16084">
        <ele>4</ele>
        <time>2020-05-31T17:34:04Z</time>
      </trkpt>
      <trkpt lat="46.15561" lon="-1.16085">
        <ele>4.1</ele>
        <time>2020-05-31T17:34:05Z</time>
      </trkpt>
      <trkpt lat="46.1556" lon="-1.16085">
        <ele>4.1</ele>
        <time>2020-05-31T17:34:06Z</time>
      </trkpt>
      <trkpt lat="46.15559" lon="-1.16085">
        <ele>4.1</ele>
        <time>2020-05-31T17:34:07Z</time>
      </trkpt>
      <trkpt lat="46.15558" lon="-1.16086">
        <ele>4.1</ele>
        <time>2020-05-31T17:34:08Z</time>
      </trkpt>
      <trkpt lat="46.15557" lon="-1.16087">
        <ele>4.2</ele>
        <time>2020-05-31T17:34:09Z</time>
      </trkpt>
      <trkpt lat="46.15557" lon="-1.16087">
        <ele>4.2</ele>
        <time>2020-05-31T17:34:10Z</time>
      </trkpt>
      <trkpt lat="46.15556" lon="-1.16085">
        <ele>4.2</ele>
        <time>2020-05-31T17:34:11Z</time>
      </trkpt>
      <trkpt lat="46.15556" lon="-1.16085">
        <ele>4.2</ele>
        <time>2020-05-31T17:34:12Z</time>
      </trkpt>
      <trkpt lat="46.15556" lon="-1.16085">
        <ele>4.2</ele>
        <time>2020-05-31T17:34:13Z</time>
      </trkpt>
      <trkpt lat="46.15556" lon="-1.16085">
        <ele>4.2</ele>
        <time>2020-05-31T17:34:14Z</time>
      </trkpt>
      <trkpt lat="46.15556" lon="-1.16085">
        <ele>4.2</ele>
        <time>2020-05-31T17:34:15Z</time>
      </trkpt>
      <trkpt lat="46.15556" lon="-1.16085">
        <ele>4.2</ele>
        <time>2020-05-31T17:34:16Z</time>
      </trkpt>
      <trkpt lat="46.15556" lon="-1.16086">
        <ele>4.2</ele>
        <time>2020-05-31T17:34:17Z</time>
      </trkpt>
      <trkpt lat="46.15556" lon="-1.16086">
        <ele>4.2</ele>
        <time>2020-05-31T17:34:18Z</time>
      </trkpt>
      <trkpt lat="46.15556" lon="-1.16085">
        <ele>4.2</ele>
        <time>2020-05-31T17:34:19Z</time>
      </trkpt>
      <trkpt lat="46.15556" lon="-1.16085">
        <ele>4.2</ele>
        <time>2020-05-31T17:34:20Z</time>
      </trkpt>
      <trkpt lat="46.15555" lon="-1.16085">
        <ele>4.2</ele>
        <time>2020-05-31T17:34:21Z</time>
      </trkpt>
      <trkpt lat="46.15555" lon="-1.16085">
        <ele>4.2</ele>
        <time>2020-05-31T17:34:22Z</time>
      </trkpt>
      <trkpt lat="46.15555" lon="-1.16085">
        <ele>4.2</ele>
        <time>2020-05-31T17:34:23Z</time>
      </trkpt>
      <trkpt lat="46.15535" lon="-1.16028">
        <ele>4.6</ele>
        <time>2020-05-31T20:16:58Z</time>
      </trkpt>
      <trkpt lat="46.15533" lon="-1.1604">
        <ele>4.6</ele>
        <time>2020-05-31T20:17:01Z</time>
      </trkpt>
      <trkpt lat="46.15534" lon="-1.16041">
        <ele>4.6</ele>
        <time>2020-05-31T20:17:02Z</time>
      </trkpt>
      <trkpt lat="46.15536" lon="-1.16044">
        <ele>4.6</ele>
        <time>2020-05-31T20:17:03Z</time>
      </trkpt>
      <trkpt lat="46.15537" lon="-1.16046">
        <ele>4.6</ele>
        <time>2020-05-31T20:17:04Z</time>
      </trkpt>
      <trkpt lat="46.15539" lon="-1.16048">
        <ele>4.6</ele>
        <time>2020-05-31T20:17:05Z</time>
      </trkpt>
      <trkpt lat="46.15542" lon="-1.1605">
        <ele>4.5</ele>
        <time>2020-05-31T20:17:06Z</time>
      </trkpt>
      <trkpt lat="46.15544" lon="-1.16053">
        <ele>4.5</ele>
        <time>2020-05-31T20:17:07Z</time>
      </trkpt>
      <trkpt lat="46.15547" lon="-1.16055">
        <ele>4.5</ele>
        <time>2020-05-31T20:17:08Z</time>
      </trkpt>
      <trkpt lat="46.15551" lon="-1.16053">
        <ele>4.5</ele>
        <time>2020-05-31T20:17:09Z</time>
      </trkpt>
      <trkpt lat="46.15557" lon="-1.16058">
        <ele>4.5</ele>
        <time>2020-05-31T20:17:10Z</time>
      </trkpt>
      <trkpt lat="46.1556" lon="-1.1606">
        <ele>4.4</ele>
        <time>2020-05-31T20:17:11Z</time>
      </trkpt>
      <trkpt lat="46.15562" lon="-1.16064">
        <ele>4.3</ele>
        <time>2020-05-31T20:17:12Z</time>
      </trkpt>
      <trkpt lat="46.15565" lon="-1.16067">
        <ele>4.2</ele>
        <time>2020-05-31T20:17:13Z</time>
      </trkpt>
      <trkpt lat="46.15567" lon="-1.1607">
        <ele>4.2</ele>
        <time>2020-05-31T20:17:14Z</time>
      </trkpt>
      <trkpt lat="46.15569" lon="-1.16073">
        <ele>4.1</ele>
        <time>2020-05-31T20:17:15Z</time>
      </trkpt>
      <trkpt lat="46.15571" lon="-1.16077">
        <ele>4</ele>
        <time>2020-05-31T20:17:16Z</time>
      </trkpt>
      <trkpt lat="46.15572" lon="-1.16079">
        <ele>4</ele>
        <time>2020-05-31T20:17:17Z</time>
      </trkpt>
      <trkpt lat="46.15573" lon="-1.16082">
        <ele>3.9</ele>
        <time>2020-05-31T20:17:18Z</time>
      </trkpt>
      <trkpt lat="46.15574" lon="-1.16083">
        <ele>3.9</ele>
        <time>2020-05-31T20:17:19Z</time>
      </trkpt>
      <trkpt lat="46.15575" lon="-1.16084">
        <ele>3.8</ele>
        <time>2020-05-31T20:17:20Z</time>
      </trkpt>
      <trkpt lat="46.15577" lon="-1.16084">
        <ele>3.8</ele>
        <time>2020-05-31T20:17:21Z</time>
      </trkpt>
      <trkpt lat="46.15579" lon="-1.16085">
        <ele>3.7</ele>
        <time>2020-05-31T20:17:22Z</time>
      </trkpt>
      <trkpt lat="46.1558" lon="-1.16086">
        <ele>3.7</ele>
        <time>2020-05-31T20:17:23Z</time>
      </trkpt>
      <trkpt lat="46.15583" lon="-1.16089">
        <ele>3.6</ele>
        <time>2020-05-31T20:17:24Z</time>
      </trkpt>
      <trkpt lat="46.15584" lon="-1.16089">
        <ele>3.6</ele>
        <time>2020-05-31T20:17:25Z</time>
      </trkpt>
      <trkpt lat="46.15586" lon="-1.1609">
        <ele>3.5</ele>
        <time>2020-05-31T20:17:26Z</time>
      </trkpt>
      <trkpt lat="46.15587" lon="-1.16092">
        <ele>3.2</ele>
        <time>2020-05-31T20:17:27Z</time>
      </trkpt>
      <trkpt lat="46.15588" lon="-1.16091">
        <ele>3.2</ele>
        <time>2020-05-31T20:17:28Z</time>
      </trkpt>
      <trkpt lat="46.15588" lon="-1.16091">
        <ele>3.2</ele>
        <time>2020-05-31T20:17:29Z</time>
      </trkpt>
      <trkpt lat="46.15588" lon="-1.16091">
        <ele>3.2</ele>
        <time>2020-05-31T20:17:30Z</time>
      </trkpt>
      <trkpt lat="46.15588" lon="-1.16091">
        <ele>3.2</ele>
        <time>2020-05-31T20:17:31Z</time>
      </trkpt>
      <trkpt lat="46.15588" lon="-1.16091">
        <ele>3.2</ele>
        <time>2020-05-31T20:17:32Z</time>
      </trkpt>
      <trkpt lat="46.15588" lon="-1.16091">
        <ele>3.2</ele>
        <time>2020-05-31T20:17:33Z</time>
      </trkpt>
      <trkpt lat="46.15588" lon="-1.16091">
        <ele>3.2</ele>
        <time>2020-05-31T20:17:34Z</time>
      </trkpt>
      <trkpt lat="46.15588" lon="-1.16091">
        <ele>3.2</ele>
        <time>2020-05-31T20:17:35Z</time>
      </trkpt>
      <trkpt lat="46.15588" lon="-1.16091">
        <ele>3.2</ele>
        <time>2020-05-31T20:17:36Z</time>
      </trkpt>
      <trkpt lat="46.15587" lon="-1.16091">
        <ele>3.2</ele>
        <time>2020-05-31T20:17:37Z</time>
      </trkpt>
      <trkpt lat="46.15587" lon="-1.16091">
        <ele>3.2</ele>
        <time>2020-05-31T20:17:38Z</time>
      </trkpt>
      <trkpt lat="46.15587" lon="-1.16091">
        <ele>3.2</ele>
        <time>2020-05-31T20:17:39Z</time>
      </trkpt>
      <trkpt lat="46.15587" lon="-1.16091">
        <ele>3.2</ele>
        <time>2020-05-31T20:17:40Z</time>
      </trkpt>
      <trkpt lat="46.15587" lon="-1.16091">
        <ele>3.2</ele>
        <time>2020-05-31T20:17:41Z</time>
      </trkpt>
      <trkpt lat="46.15587" lon="-1.16091">
        <ele>3.2</ele>
        <time>2020-05-31T20:17:42Z</time>
      </trkpt>
      <trkpt lat="46.15587" lon="-1.16091">
        <ele>3.2</ele>
        <time>2020-05-31T20:17:43Z</time>
      </trkpt>
      <trkpt lat="46.15587" lon="-1.16091">
        <ele>3.2</ele>
        <time>2020-05-31T20:17:44Z</time>
      </trkpt>
      <trkpt lat="46.15587" lon="-1.16091">
        <ele>3.2</ele>
        <time>2020-05-31T20:17:45Z</time>
      </trkpt>
      <trkpt lat="46.15587" lon="-1.16091">
        <ele>3.2</ele>
        <time>2020-05-31T20:17:46Z</time>
      </trkpt>
      <trkpt lat="46.15587" lon="-1.16091">
        <ele>3.2</ele>
        <time>2020-05-31T20:17:47Z</time>
      </trkpt>
      <trkpt lat="46.15587" lon="-1.16091">
        <ele>3.2</ele>
        <time>2020-05-31T20:17:48Z</time>
      </trkpt>
      <trkpt lat="46.15587" lon="-1.16091">
        <ele>3.2</ele>
        <time>2020-05-31T20:17:49Z</time>
      </trkpt>
      <trkpt lat="46.15587" lon="-1.16091">
        <ele>3.2</ele>
        <time>2020-05-31T20:17:50Z</time>
      </trkpt>
      <trkpt lat="46.15587" lon="-1.16091">
        <ele>3.2</ele>
        <time>2020-05-31T20:17:51Z</time>
      </trkpt>
      <trkpt lat="46.15587" lon="-1.16091">
        <ele>3.2</ele>
        <time>2020-05-31T20:17:52Z</time>
      </trkpt>
      <trkpt lat="46.15588" lon="-1.16091">
        <ele>3.2</ele>
        <time>2020-05-31T20:17:53Z</time>
      </trkpt>
      <trkpt lat="46.15588" lon="-1.16091">
        <ele>3.2</ele>
        <time>2020-05-31T20:17:54Z</time>
      </trkpt>
      <trkpt lat="46.15588" lon="-1.16091">
        <ele>3.2</ele>
        <time>2020-05-31T20:17:55Z</time>
      </trkpt>
      <trkpt lat="46.15588" lon="-1.16091">
        <ele>3.2</ele>
        <time>2020-05-31T20:17:56Z</time>
      </trkpt>
      <trkpt lat="46.15588" lon="-1.16091">
        <ele>3.2</ele>
        <time>2020-05-31T20:17:57Z</time>
      </trkpt>
      <trkpt lat="46.15588" lon="-1.16091">
        <ele>3.2</ele>
        <time>2020-05-31T20:17:58Z</time>
      </trkpt>
      <trkpt lat="46.15588" lon="-1.16091">
        <ele>3.2</ele>
        <time>2020-05-31T20:17:59Z</time>
      </trkpt>
      <trkpt lat="46.15588" lon="-1.16091">
        <ele>3.2</ele>
        <time>2020-05-31T20:18:00Z</time>
      </trkpt>
      <trkpt lat="46.15588" lon="-1.16091">
        <ele>3.2</ele>
        <time>2020-05-31T20:18:01Z</time>
      </trkpt>
      <trkpt lat="46.15588" lon="-1.16091">
        <ele>3.2</ele>
        <time>2020-05-31T20:18:02Z</time>
      </trkpt>
      <trkpt lat="46.15588" lon="-1.16091">
        <ele>3.2</ele>
        <time>2020-05-31T20:18:03Z</time>
      </trkpt>
      <trkpt lat="46.15588" lon="-1.16091">
        <ele>3.2</ele>
        <time>2020-05-31T20:18:04Z</time>
      </trkpt>
      <trkpt lat="46.15588" lon="-1.16091">
        <ele>3.2</ele>
        <time>2020-05-31T20:18:05Z</time>
      </trkpt>
      <trkpt lat="46.15588" lon="-1.16091">
        <ele>3.2</ele>
        <time>2020-05-31T20:18:06Z</time>
      </trkpt>
      <trkpt lat="46.15588" lon="-1.16091">
        <ele>3.2</ele>
        <time>2020-05-31T20:18:07Z</time>
      </trkpt>
      <trkpt lat="46.15588" lon="-1.16091">
        <ele>3.2</ele>
        <time>2020-05-31T20:18:08Z</time>
      </trkpt>
      <trkpt lat="46.15588" lon="-1.16091">
        <ele>3.2</ele>
        <time>2020-05-31T20:18:09Z</time>
      </trkpt>
      <trkpt lat="46.15588" lon="-1.16091">
        <ele>3.2</ele>
        <time>2020-05-31T20:18:10Z</time>
      </trkpt>
      <trkpt lat="46.15588" lon="-1.16091">
        <ele>3.2</ele>
        <time>2020-05-31T20:18:11Z</time>
      </trkpt>
      <trkpt lat="46.15588" lon="-1.16091">
        <ele>3.2</ele>
        <time>2020-05-31T20:18:12Z</time>
      </trkpt>
      <trkpt lat="46.15588" lon="-1.16091">
        <ele>3.2</ele>
        <time>2020-05-31T20:18:13Z</time>
      </trkpt>
      <trkpt lat="46.15588" lon="-1.16091">
        <ele>3.2</ele>
        <time>2020-05-31T20:18:14Z</time>
      </trkpt>
      <trkpt lat="46.15588" lon="-1.16091">
        <ele>3.2</ele>
        <time>2020-05-31T20:18:15Z</time>
      </trkpt>
      <trkpt lat="46.15589" lon="-1.16091">
        <ele>3.2</ele>
        <time>2020-05-31T20:18:16Z</time>
      </trkpt>
      <trkpt lat="46.1559" lon="-1.16091">
        <ele>3.2</ele>
        <time>2020-05-31T20:18:17Z</time>
      </trkpt>
      <trkpt lat="46.15591" lon="-1.16093">
        <ele>3.2</ele>
        <time>2020-05-31T20:18:18Z</time>
      </trkpt>
      <trkpt lat="46.15592" lon="-1.16095">
        <ele>3.2</ele>
        <time>2020-05-31T20:18:19Z</time>
      </trkpt>
      <trkpt lat="46.15593" lon="-1.16096">
        <ele>3.2</ele>
        <time>2020-05-31T20:18:20Z</time>
      </trkpt>
      <trkpt lat="46.15594" lon="-1.16101">
        <ele>3.2</ele>
        <time>2020-05-31T20:18:21Z</time>
      </trkpt>
      <trkpt lat="46.15594" lon="-1.16102">
        <ele>3.2</ele>
        <time>2020-05-31T20:18:22Z</time>
      </trkpt>
      <trkpt lat="46.15596" lon="-1.16106">
        <ele>3.2</ele>
        <time>2020-05-31T20:18:23Z</time>
      </trkpt>
      <trkpt lat="46.15596" lon="-1.16107">
        <ele>3.3</ele>
        <time>2020-05-31T20:18:24Z</time>
      </trkpt>
      <trkpt lat="46.156" lon="-1.16107">
        <ele>3.3</ele>
        <time>2020-05-31T20:18:25Z</time>
      </trkpt>
      <trkpt lat="46.15601" lon="-1.16107">
        <ele>3.3</ele>
        <time>2020-05-31T20:18:26Z</time>
      </trkpt>
      <trkpt lat="46.15604" lon="-1.16107">
        <ele>3.3</ele>
        <time>2020-05-31T20:18:27Z</time>
      </trkpt>
      <trkpt lat="46.15607" lon="-1.16108">
        <ele>3.3</ele>
        <time>2020-05-31T20:18:28Z</time>
      </trkpt>
      <trkpt lat="46.15608" lon="-1.16108">
        <ele>3.3</ele>
        <time>2020-05-31T20:18:29Z</time>
      </trkpt>
      <trkpt lat="46.1561" lon="-1.16113">
        <ele>3.4</ele>
        <time>2020-05-31T20:18:30Z</time>
      </trkpt>
      <trkpt lat="46.1561" lon="-1.16115">
        <ele>3.4</ele>
        <time>2020-05-31T20:18:31Z</time>
      </trkpt>
      <trkpt lat="46.1561" lon="-1.1612">
        <ele>3.4</ele>
        <time>2020-05-31T20:18:32Z</time>
      </trkpt>
      <trkpt lat="46.1561" lon="-1.16125">
        <ele>3.4</ele>
        <time>2020-05-31T20:18:33Z</time>
      </trkpt>
      <trkpt lat="46.15609" lon="-1.16131">
        <ele>3.4</ele>
        <time>2020-05-31T20:18:34Z</time>
      </trkpt>
      <trkpt lat="46.15608" lon="-1.16137">
        <ele>3.4</ele>
        <time>2020-05-31T20:18:35Z</time>
      </trkpt>
      <trkpt lat="46.15608" lon="-1.16143">
        <ele>3.4</ele>
        <time>2020-05-31T20:18:36Z</time>
      </trkpt>
      <trkpt lat="46.15608" lon="-1.16148">
        <ele>3.4</ele>
        <time>2020-05-31T20:18:37Z</time>
      </trkpt>
      <trkpt lat="46.15609" lon="-1.16154">
        <ele>3.4</ele>
        <time>2020-05-31T20:18:38Z</time>
      </trkpt>
      <trkpt lat="46.15607" lon="-1.1616">
        <ele>3.5</ele>
        <time>2020-05-31T20:18:39Z</time>
      </trkpt>
      <trkpt lat="46.15607" lon="-1.16164">
        <ele>3.5</ele>
        <time>2020-05-31T20:18:40Z</time>
      </trkpt>
      <trkpt lat="46.15606" lon="-1.16168">
        <ele>3.5</ele>
        <time>2020-05-31T20:18:41Z</time>
      </trkpt>
      <trkpt lat="46.15605" lon="-1.16174">
        <ele>3.5</ele>
        <time>2020-05-31T20:18:42Z</time>
      </trkpt>
      <trkpt lat="46.15604" lon="-1.16177">
        <ele>3.5</ele>
        <time>2020-05-31T20:18:43Z</time>
      </trkpt>
      <trkpt lat="46.15604" lon="-1.16182">
        <ele>3.6</ele>
        <time>2020-05-31T20:18:44Z</time>
      </trkpt>
      <trkpt lat="46.15603" lon="-1.16184">
        <ele>3.6</ele>
        <time>2020-05-31T20:18:45Z</time>
      </trkpt>
      <trkpt lat="46.15603" lon="-1.16189">
        <ele>3.6</ele>
        <time>2020-05-31T20:18:46Z</time>
      </trkpt>
      <trkpt lat="46.15603" lon="-1.1619">
        <ele>3.6</ele>
        <time>2020-05-31T20:18:47Z</time>
      </trkpt>
      <trkpt lat="46.15603" lon="-1.16194">
        <ele>3.6</ele>
        <time>2020-05-31T20:18:48Z</time>
      </trkpt>
      <trkpt lat="46.15603" lon="-1.16195">
        <ele>3.6</ele>
        <time>2020-05-31T20:18:49Z</time>
      </trkpt>
      <trkpt lat="46.15602" lon="-1.162">
        <ele>3.7</ele>
        <time>2020-05-31T20:18:50Z</time>
      </trkpt>
      <trkpt lat="46.15603" lon="-1.16206">
        <ele>3.7</ele>
        <time>2020-05-31T20:18:51Z</time>
      </trkpt>
      <trkpt lat="46.15604" lon="-1.16211">
        <ele>3.7</ele>
        <time>2020-05-31T20:18:52Z</time>
      </trkpt>
      <trkpt lat="46.15604" lon="-1.16217">
        <ele>3.7</ele>
        <time>2020-05-31T20:18:53Z</time>
      </trkpt>
      <trkpt lat="46.15603" lon="-1.16223">
        <ele>3.8</ele>
        <time>2020-05-31T20:18:54Z</time>
      </trkpt>
      <trkpt lat="46.15603" lon="-1.1623">
        <ele>3.8</ele>
        <time>2020-05-31T20:18:55Z</time>
      </trkpt>
      <trkpt lat="46.15602" lon="-1.16235">
        <ele>3.8</ele>
        <time>2020-05-31T20:18:56Z</time>
      </trkpt>
      <trkpt lat="46.15601" lon="-1.1624">
        <ele>3.8</ele>
        <time>2020-05-31T20:18:57Z</time>
      </trkpt>
      <trkpt lat="46.15601" lon="-1.16246">
        <ele>3.7</ele>
        <time>2020-05-31T20:18:58Z</time>
      </trkpt>
      <trkpt lat="46.15601" lon="-1.16252">
        <ele>3.7</ele>
        <time>2020-05-31T20:18:59Z</time>
      </trkpt>
      <trkpt lat="46.15602" lon="-1.16257">
        <ele>3.7</ele>
        <time>2020-05-31T20:19:00Z</time>
      </trkpt>
      <trkpt lat="46.15602" lon="-1.16263">
        <ele>3.7</ele>
        <time>2020-05-31T20:19:01Z</time>
      </trkpt>
      <trkpt lat="46.15602" lon="-1.16269">
        <ele>3.7</ele>
        <time>2020-05-31T20:19:02Z</time>
      </trkpt>
      <trkpt lat="46.156" lon="-1.16276">
        <ele>3.7</ele>
        <time>2020-05-31T20:19:03Z</time>
      </trkpt>
      <trkpt lat="46.15601" lon="-1.16282">
        <ele>3.7</ele>
        <time>2020-05-31T20:19:04Z</time>
      </trkpt>
      <trkpt lat="46.15601" lon="-1.16289">
        <ele>3.6</ele>
        <time>2020-05-31T20:19:05Z</time>
      </trkpt>
      <trkpt lat="46.15601" lon="-1.16296">
        <ele>3.6</ele>
        <time>2020-05-31T20:19:06Z</time>
      </trkpt>
      <trkpt lat="46.15602" lon="-1.16303">
        <ele>3.6</ele>
        <time>2020-05-31T20:19:07Z</time>
      </trkpt>
      <trkpt lat="46.15602" lon="-1.1631">
        <ele>3.6</ele>
        <time>2020-05-31T20:19:08Z</time>
      </trkpt>
      <trkpt lat="46.15603" lon="-1.16316">
        <ele>3.6</ele>
        <time>2020-05-31T20:19:09Z</time>
      </trkpt>
      <trkpt lat="46.15603" lon="-1.16322">
        <ele>3.6</ele>
        <time>2020-05-31T20:19:10Z</time>
      </trkpt>
      <trkpt lat="46.15602" lon="-1.16329">
        <ele>3.6</ele>
        <time>2020-05-31T20:19:11Z</time>
      </trkpt>
      <trkpt lat="46.15601" lon="-1.16337">
        <ele>3.7</ele>
        <time>2020-05-31T20:19:12Z</time>
      </trkpt>
      <trkpt lat="46.15601" lon="-1.16344">
        <ele>3.7</ele>
        <time>2020-05-31T20:19:13Z</time>
      </trkpt>
      <trkpt lat="46.156" lon="-1.1635">
        <ele>3.8</ele>
        <time>2020-05-31T20:19:14Z</time>
      </trkpt>
      <trkpt lat="46.15601" lon="-1.16356">
        <ele>3.9</ele>
        <time>2020-05-31T20:19:15Z</time>
      </trkpt>
      <trkpt lat="46.156" lon="-1.16363">
        <ele>4</ele>
        <time>2020-05-31T20:19:16Z</time>
      </trkpt>
      <trkpt lat="46.156" lon="-1.16369">
        <ele>4.1</ele>
        <time>2020-05-31T20:19:17Z</time>
      </trkpt>
      <trkpt lat="46.156" lon="-1.16375">
        <ele>4.2</ele>
        <time>2020-05-31T20:19:18Z</time>
      </trkpt>
      <trkpt lat="46.156" lon="-1.16381">
        <ele>4.3</ele>
        <time>2020-05-31T20:19:19Z</time>
      </trkpt>
      <trkpt lat="46.156" lon="-1.16387">
        <ele>4.3</ele>
        <time>2020-05-31T20:19:20Z</time>
      </trkpt>
      <trkpt lat="46.156" lon="-1.16395">
        <ele>4.5</ele>
        <time>2020-05-31T20:19:21Z</time>
      </trkpt>
      <trkpt lat="46.156" lon="-1.16399">
        <ele>4.5</ele>
        <time>2020-05-31T20:19:22Z</time>
      </trkpt>
      <trkpt lat="46.156" lon="-1.16405">
        <ele>4.7</ele>
        <time>2020-05-31T20:19:23Z</time>
      </trkpt>
      <trkpt lat="46.15599" lon="-1.16411">
        <ele>4.8</ele>
        <time>2020-05-31T20:19:24Z</time>
      </trkpt>
      <trkpt lat="46.15598" lon="-1.16418">
        <ele>4.9</ele>
        <time>2020-05-31T20:19:25Z</time>
      </trkpt>
      <trkpt lat="46.15598" lon="-1.16424">
        <ele>4.9</ele>
        <time>2020-05-31T20:19:26Z</time>
      </trkpt>
      <trkpt lat="46.15597" lon="-1.16429">
        <ele>5</ele>
        <time>2020-05-31T20:19:27Z</time>
      </trkpt>
      <trkpt lat="46.15596" lon="-1.16435">
        <ele>5.1</ele>
        <time>2020-05-31T20:19:28Z</time>
      </trkpt>
      <trkpt lat="46.15596" lon="-1.16441">
        <ele>5.2</ele>
        <time>2020-05-31T20:19:29Z</time>
      </trkpt>
      <trkpt lat="46.15595" lon="-1.16447">
        <ele>5.3</ele>
        <time>2020-05-31T20:19:30Z</time>
      </trkpt>
      <trkpt lat="46.15594" lon="-1.16452">
        <ele>5.3</ele>
        <time>2020-05-31T20:19:31Z</time>
      </trkpt>
      <trkpt lat="46.15594" lon="-1.16458">
        <ele>5.5</ele>
        <time>2020-05-31T20:19:32Z</time>
      </trkpt>
      <trkpt lat="46.15594" lon="-1.16464">
        <ele>5.7</ele>
        <time>2020-05-31T20:19:33Z</time>
      </trkpt>
      <trkpt lat="46.15594" lon="-1.1647">
        <ele>5.8</ele>
        <time>2020-05-31T20:19:34Z</time>
      </trkpt>
      <trkpt lat="46.15593" lon="-1.16475">
        <ele>5.9</ele>
        <time>2020-05-31T20:19:35Z</time>
      </trkpt>
      <trkpt lat="46.15594" lon="-1.1648">
        <ele>6</ele>
        <time>2020-05-31T20:19:36Z</time>
      </trkpt>
      <trkpt lat="46.15593" lon="-1.16486">
        <ele>6.1</ele>
        <time>2020-05-31T20:19:37Z</time>
      </trkpt>
      <trkpt lat="46.15593" lon="-1.16493">
        <ele>6.2</ele>
        <time>2020-05-31T20:19:38Z</time>
      </trkpt>
      <trkpt lat="46.15592" lon="-1.16499">
        <ele>6.3</ele>
        <time>2020-05-31T20:19:39Z</time>
      </trkpt>
      <trkpt lat="46.15593" lon="-1.16506">
        <ele>6.4</ele>
        <time>2020-05-31T20:19:40Z</time>
      </trkpt>
      <trkpt lat="46.15593" lon="-1.16513">
        <ele>6.5</ele>
        <time>2020-05-31T20:19:41Z</time>
      </trkpt>
      <trkpt lat="46.15593" lon="-1.16518">
        <ele>6.6</ele>
        <time>2020-05-31T20:19:42Z</time>
      </trkpt>
      <trkpt lat="46.15593" lon="-1.16525">
        <ele>6.7</ele>
        <time>2020-05-31T20:19:43Z</time>
      </trkpt>
      <trkpt lat="46.15593" lon="-1.1653">
        <ele>6.8</ele>
        <time>2020-05-31T20:19:44Z</time>
      </trkpt>
      <trkpt lat="46.15593" lon="-1.16536">
        <ele>7</ele>
        <time>2020-05-31T20:19:45Z</time>
      </trkpt>
      <trkpt lat="46.15594" lon="-1.16542">
        <ele>7.1</ele>
        <time>2020-05-31T20:19:46Z</time>
      </trkpt>
      <trkpt lat="46.15594" lon="-1.16547">
        <ele>7.2</ele>
        <time>2020-05-31T20:19:47Z</time>
      </trkpt>
      <trkpt lat="46.15594" lon="-1.16553">
        <ele>7.2</ele>
        <time>2020-05-31T20:19:48Z</time>
      </trkpt>
      <trkpt lat="46.15594" lon="-1.16558">
        <ele>7.3</ele>
        <time>2020-05-31T20:19:49Z</time>
      </trkpt>
      <trkpt lat="46.15594" lon="-1.16563">
        <ele>7.4</ele>
        <time>2020-05-31T20:19:50Z</time>
      </trkpt>
      <trkpt lat="46.15594" lon="-1.16567">
        <ele>7.4</ele>
        <time>2020-05-31T20:19:51Z</time>
      </trkpt>
      <trkpt lat="46.15594" lon="-1.16571">
        <ele>7.5</ele>
        <time>2020-05-31T20:19:52Z</time>
      </trkpt>
      <trkpt lat="46.15594" lon="-1.16576">
        <ele>7.5</ele>
        <time>2020-05-31T20:19:53Z</time>
      </trkpt>
      <trkpt lat="46.15595" lon="-1.16581">
        <ele>7.6</ele>
        <time>2020-05-31T20:19:54Z</time>
      </trkpt>
      <trkpt lat="46.15595" lon="-1.16586">
        <ele>7.7</ele>
        <time>2020-05-31T20:19:55Z</time>
      </trkpt>
      <trkpt lat="46.15595" lon="-1.16591">
        <ele>7.7</ele>
        <time>2020-05-31T20:19:56Z</time>
      </trkpt>
      <trkpt lat="46.15594" lon="-1.16597">
        <ele>7.8</ele>
        <time>2020-05-31T20:19:57Z</time>
      </trkpt>
      <trkpt lat="46.15593" lon="-1.16603">
        <ele>7.9</ele>
        <time>2020-05-31T20:19:58Z</time>
      </trkpt>
      <trkpt lat="46.15594" lon="-1.1661">
        <ele>8</ele>
        <time>2020-05-31T20:19:59Z</time>
      </trkpt>
      <trkpt lat="46.15592" lon="-1.16616">
        <ele>8.1</ele>
        <time>2020-05-31T20:20:00Z</time>
      </trkpt>
      <trkpt lat="46.1559" lon="-1.16623">
        <ele>8.2</ele>
        <time>2020-05-31T20:20:01Z</time>
      </trkpt>
      <trkpt lat="46.15593" lon="-1.16628">
        <ele>8.3</ele>
        <time>2020-05-31T20:20:02Z</time>
      </trkpt>
      <trkpt lat="46.15594" lon="-1.16631">
        <ele>8.5</ele>
        <time>2020-05-31T20:20:03Z</time>
      </trkpt>
      <trkpt lat="46.15597" lon="-1.16631">
        <ele>8.5</ele>
        <time>2020-05-31T20:20:04Z</time>
      </trkpt>
      <trkpt lat="46.15598" lon="-1.16632">
        <ele>8.5</ele>
        <time>2020-05-31T20:20:05Z</time>
      </trkpt>
      <trkpt lat="46.15602" lon="-1.16633">
        <ele>8.6</ele>
        <time>2020-05-31T20:20:06Z</time>
      </trkpt>
      <trkpt lat="46.15606" lon="-1.16633">
        <ele>8.6</ele>
        <time>2020-05-31T20:20:07Z</time>
      </trkpt>
      <trkpt lat="46.15611" lon="-1.16631">
        <ele>8.7</ele>
        <time>2020-05-31T20:20:08Z</time>
      </trkpt>
      <trkpt lat="46.15617" lon="-1.16632">
        <ele>8.7</ele>
        <time>2020-05-31T20:20:09Z</time>
      </trkpt>
      <trkpt lat="46.15623" lon="-1.16631">
        <ele>8.6</ele>
        <time>2020-05-31T20:20:10Z</time>
      </trkpt>
      <trkpt lat="46.15628" lon="-1.16629">
        <ele>8.6</ele>
        <time>2020-05-31T20:20:11Z</time>
      </trkpt>
      <trkpt lat="46.15634" lon="-1.16628">
        <ele>8.5</ele>
        <time>2020-05-31T20:20:12Z</time>
      </trkpt>
      <trkpt lat="46.15638" lon="-1.16625">
        <ele>8.4</ele>
        <time>2020-05-31T20:20:13Z</time>
      </trkpt>
      <trkpt lat="46.15642" lon="-1.16624">
        <ele>8.3</ele>
        <time>2020-05-31T20:20:14Z</time>
      </trkpt>
      <trkpt lat="46.15647" lon="-1.16624">
        <ele>8.3</ele>
        <time>2020-05-31T20:20:15Z</time>
      </trkpt>
      <trkpt lat="46.15651" lon="-1.16624">
        <ele>8.2</ele>
        <time>2020-05-31T20:20:16Z</time>
      </trkpt>
      <trkpt lat="46.15654" lon="-1.16624">
        <ele>8.1</ele>
        <time>2020-05-31T20:20:17Z</time>
      </trkpt>
      <trkpt lat="46.15658" lon="-1.16623">
        <ele>8.1</ele>
        <time>2020-05-31T20:20:18Z</time>
      </trkpt>
      <trkpt lat="46.15664" lon="-1.16625">
        <ele>8</ele>
        <time>2020-05-31T20:20:19Z</time>
      </trkpt>
      <trkpt lat="46.15667" lon="-1.16624">
        <ele>8</ele>
        <time>2020-05-31T20:20:20Z</time>
      </trkpt>
      <trkpt lat="46.1567" lon="-1.16624">
        <ele>7.9</ele>
        <time>2020-05-31T20:20:21Z</time>
      </trkpt>
      <trkpt lat="46.15674" lon="-1.16623">
        <ele>7.9</ele>
        <time>2020-05-31T20:20:22Z</time>
      </trkpt>
      <trkpt lat="46.15676" lon="-1.16623">
        <ele>7.9</ele>
        <time>2020-05-31T20:20:23Z</time>
      </trkpt>
      <trkpt lat="46.15679" lon="-1.16622">
        <ele>7.8</ele>
        <time>2020-05-31T20:20:24Z</time>
      </trkpt>
      <trkpt lat="46.15683" lon="-1.16621">
        <ele>7.8</ele>
        <time>2020-05-31T20:20:25Z</time>
      </trkpt>
      <trkpt lat="46.15686" lon="-1.1662">
        <ele>7.8</ele>
        <time>2020-05-31T20:20:26Z</time>
      </trkpt>
      <trkpt lat="46.15689" lon="-1.16619">
        <ele>7.7</ele>
        <time>2020-05-31T20:20:27Z</time>
      </trkpt>
      <trkpt lat="46.15693" lon="-1.16619">
        <ele>7.7</ele>
        <time>2020-05-31T20:20:28Z</time>
      </trkpt>
      <trkpt lat="46.15698" lon="-1.16617">
        <ele>7.6</ele>
        <time>2020-05-31T20:20:29Z</time>
      </trkpt>
      <trkpt lat="46.15702" lon="-1.16616">
        <ele>7.6</ele>
        <time>2020-05-31T20:20:30Z</time>
      </trkpt>
      <trkpt lat="46.15706" lon="-1.16615">
        <ele>7.5</ele>
        <time>2020-05-31T20:20:31Z</time>
      </trkpt>
      <trkpt lat="46.1571" lon="-1.16614">
        <ele>7.5</ele>
        <time>2020-05-31T20:20:32Z</time>
      </trkpt>
      <trkpt lat="46.15715" lon="-1.16615">
        <ele>7.4</ele>
        <time>2020-05-31T20:20:33Z</time>
      </trkpt>
      <trkpt lat="46.15719" lon="-1.16615">
        <ele>7.4</ele>
        <time>2020-05-31T20:20:34Z</time>
      </trkpt>
      <trkpt lat="46.15723" lon="-1.16616">
        <ele>7.3</ele>
        <time>2020-05-31T20:20:35Z</time>
      </trkpt>
      <trkpt lat="46.15727" lon="-1.16616">
        <ele>7.3</ele>
        <time>2020-05-31T20:20:36Z</time>
      </trkpt>
      <trkpt lat="46.1573" lon="-1.16616">
        <ele>7.2</ele>
        <time>2020-05-31T20:20:37Z</time>
      </trkpt>
      <trkpt lat="46.15735" lon="-1.16617">
        <ele>7.2</ele>
        <time>2020-05-31T20:20:38Z</time>
      </trkpt>
      <trkpt lat="46.15738" lon="-1.16618">
        <ele>7.1</ele>
        <time>2020-05-31T20:20:39Z</time>
      </trkpt>
      <trkpt lat="46.15741" lon="-1.16617">
        <ele>7.1</ele>
        <time>2020-05-31T20:20:40Z</time>
      </trkpt>
      <trkpt lat="46.15744" lon="-1.16614">
        <ele>7</ele>
        <time>2020-05-31T20:20:41Z</time>
      </trkpt>
      <trkpt lat="46.15747" lon="-1.16613">
        <ele>7</ele>
        <time>2020-05-31T20:20:42Z</time>
      </trkpt>
      <trkpt lat="46.15751" lon="-1.16611">
        <ele>7</ele>
        <time>2020-05-31T20:20:43Z</time>
      </trkpt>
      <trkpt lat="46.15754" lon="-1.16609">
        <ele>7</ele>
        <time>2020-05-31T20:20:44Z</time>
      </trkpt>
      <trkpt lat="46.15757" lon="-1.16608">
        <ele>7</ele>
        <time>2020-05-31T20:20:45Z</time>
      </trkpt>
      <trkpt lat="46.15761" lon="-1.16608">
        <ele>6.9</ele>
        <time>2020-05-31T20:20:46Z</time>
      </trkpt>
      <trkpt lat="46.15764" lon="-1.16609">
        <ele>6.8</ele>
        <time>2020-05-31T20:20:47Z</time>
      </trkpt>
      <trkpt lat="46.15767" lon="-1.16608">
        <ele>6.8</ele>
        <time>2020-05-31T20:20:48Z</time>
      </trkpt>
      <trkpt lat="46.15771" lon="-1.16606">
        <ele>6.7</ele>
        <time>2020-05-31T20:20:49Z</time>
      </trkpt>
      <trkpt lat="46.15775" lon="-1.16605">
        <ele>6.6</ele>
        <time>2020-05-31T20:20:50Z</time>
      </trkpt>
      <trkpt lat="46.15779" lon="-1.16604">
        <ele>6.5</ele>
        <time>2020-05-31T20:20:51Z</time>
      </trkpt>
      <trkpt lat="46.15784" lon="-1.16603">
        <ele>6.4</ele>
        <time>2020-05-31T20:20:52Z</time>
      </trkpt>
      <trkpt lat="46.15788" lon="-1.16602">
        <ele>6.3</ele>
        <time>2020-05-31T20:20:53Z</time>
      </trkpt>
      <trkpt lat="46.15791" lon="-1.16602">
        <ele>6.2</ele>
        <time>2020-05-31T20:20:54Z</time>
      </trkpt>
      <trkpt lat="46.15795" lon="-1.16602">
        <ele>6.1</ele>
        <time>2020-05-31T20:20:55Z</time>
      </trkpt>
      <trkpt lat="46.15798" lon="-1.16601">
        <ele>6</ele>
        <time>2020-05-31T20:20:56Z</time>
      </trkpt>
      <trkpt lat="46.15803" lon="-1.166">
        <ele>5.8</ele>
        <time>2020-05-31T20:20:57Z</time>
      </trkpt>
      <trkpt lat="46.15807" lon="-1.166">
        <ele>5.7</ele>
        <time>2020-05-31T20:20:58Z</time>
      </trkpt>
      <trkpt lat="46.15811" lon="-1.166">
        <ele>5.6</ele>
        <time>2020-05-31T20:20:59Z</time>
      </trkpt>
      <trkpt lat="46.15817" lon="-1.16601">
        <ele>5.4</ele>
        <time>2020-05-31T20:21:00Z</time>
      </trkpt>
      <trkpt lat="46.15822" lon="-1.166">
        <ele>5.3</ele>
        <time>2020-05-31T20:21:01Z</time>
      </trkpt>
      <trkpt lat="46.15827" lon="-1.16599">
        <ele>5.2</ele>
        <time>2020-05-31T20:21:02Z</time>
      </trkpt>
      <trkpt lat="46.15832" lon="-1.16598">
        <ele>5.1</ele>
        <time>2020-05-31T20:21:03Z</time>
      </trkpt>
      <trkpt lat="46.15837" lon="-1.16596">
        <ele>5</ele>
        <time>2020-05-31T20:21:04Z</time>
      </trkpt>
      <trkpt lat="46.15841" lon="-1.16595">
        <ele>4.9</ele>
        <time>2020-05-31T20:21:05Z</time>
      </trkpt>
      <trkpt lat="46.15846" lon="-1.16596">
        <ele>4.8</ele>
        <time>2020-05-31T20:21:06Z</time>
      </trkpt>
      <trkpt lat="46.15851" lon="-1.16595">
        <ele>4.7</ele>
        <time>2020-05-31T20:21:07Z</time>
      </trkpt>
      <trkpt lat="46.15855" lon="-1.16593">
        <ele>4.7</ele>
        <time>2020-05-31T20:21:08Z</time>
      </trkpt>
      <trkpt lat="46.1586" lon="-1.16592">
        <ele>4.6</ele>
        <time>2020-05-31T20:21:09Z</time>
      </trkpt>
      <trkpt lat="46.15864" lon="-1.1659">
        <ele>4.5</ele>
        <time>2020-05-31T20:21:10Z</time>
      </trkpt>
      <trkpt lat="46.1587" lon="-1.16591">
        <ele>4.5</ele>
        <time>2020-05-31T20:21:11Z</time>
      </trkpt>
      <trkpt lat="46.15875" lon="-1.1659">
        <ele>4.4</ele>
        <time>2020-05-31T20:21:12Z</time>
      </trkpt>
      <trkpt lat="46.15879" lon="-1.16589">
        <ele>4.4</ele>
        <time>2020-05-31T20:21:13Z</time>
      </trkpt>
      <trkpt lat="46.15884" lon="-1.16589">
        <ele>4.4</ele>
        <time>2020-05-31T20:21:14Z</time>
      </trkpt>
      <trkpt lat="46.15888" lon="-1.16588">
        <ele>4.4</ele>
        <time>2020-05-31T20:21:15Z</time>
      </trkpt>
      <trkpt lat="46.15892" lon="-1.16587">
        <ele>4.4</ele>
        <time>2020-05-31T20:21:16Z</time>
      </trkpt>
      <trkpt lat="46.15895" lon="-1.16588">
        <ele>4.4</ele>
        <time>2020-05-31T20:21:17Z</time>
      </trkpt>
      <trkpt lat="46.15901" lon="-1.16589">
        <ele>4.4</ele>
        <time>2020-05-31T20:21:18Z</time>
      </trkpt>
      <trkpt lat="46.15904" lon="-1.16586">
        <ele>4.5</ele>
        <time>2020-05-31T20:21:19Z</time>
      </trkpt>
      <trkpt lat="46.15907" lon="-1.16585">
        <ele>4.5</ele>
        <time>2020-05-31T20:21:20Z</time>
      </trkpt>
      <trkpt lat="46.15912" lon="-1.16583">
        <ele>4.4</ele>
        <time>2020-05-31T20:21:21Z</time>
      </trkpt>
      <trkpt lat="46.15916" lon="-1.16581">
        <ele>4.4</ele>
        <time>2020-05-31T20:21:22Z</time>
      </trkpt>
      <trkpt lat="46.15921" lon="-1.16581">
        <ele>4.3</ele>
        <time>2020-05-31T20:21:23Z</time>
      </trkpt>
      <trkpt lat="46.15925" lon="-1.1658">
        <ele>4.3</ele>
        <time>2020-05-31T20:21:24Z</time>
      </trkpt>
      <trkpt lat="46.1593" lon="-1.16579">
        <ele>4.2</ele>
        <time>2020-05-31T20:21:25Z</time>
      </trkpt>
      <trkpt lat="46.15934" lon="-1.16577">
        <ele>4.2</ele>
        <time>2020-05-31T20:21:26Z</time>
      </trkpt>
      <trkpt lat="46.15938" lon="-1.16575">
        <ele>4.1</ele>
        <time>2020-05-31T20:21:27Z</time>
      </trkpt>
      <trkpt lat="46.15943" lon="-1.16573">
        <ele>4.1</ele>
        <time>2020-05-31T20:21:28Z</time>
      </trkpt>
      <trkpt lat="46.15948" lon="-1.16572">
        <ele>4</ele>
        <time>2020-05-31T20:21:29Z</time>
      </trkpt>
      <trkpt lat="46.15953" lon="-1.16571">
        <ele>4</ele>
        <time>2020-05-31T20:21:30Z</time>
      </trkpt>
      <trkpt lat="46.15959" lon="-1.16572">
        <ele>3.9</ele>
        <time>2020-05-31T20:21:31Z</time>
      </trkpt>
      <trkpt lat="46.15964" lon="-1.1657">
        <ele>3.9</ele>
        <time>2020-05-31T20:21:32Z</time>
      </trkpt>
      <trkpt lat="46.15968" lon="-1.1657">
        <ele>3.8</ele>
        <time>2020-05-31T20:21:33Z</time>
      </trkpt>
      <trkpt lat="46.15972" lon="-1.16569">
        <ele>3.8</ele>
        <time>2020-05-31T20:21:34Z</time>
      </trkpt>
      <trkpt lat="46.15977" lon="-1.16569">
        <ele>3.8</ele>
        <time>2020-05-31T20:21:35Z</time>
      </trkpt>
      <trkpt lat="46.15982" lon="-1.16567">
        <ele>3.8</ele>
        <time>2020-05-31T20:21:36Z</time>
      </trkpt>
      <trkpt lat="46.15988" lon="-1.16566">
        <ele>3.8</ele>
        <time>2020-05-31T20:21:37Z</time>
      </trkpt>
      <trkpt lat="46.15992" lon="-1.16565">
        <ele>3.9</ele>
        <time>2020-05-31T20:21:38Z</time>
      </trkpt>
      <trkpt lat="46.15997" lon="-1.16565">
        <ele>3.9</ele>
        <time>2020-05-31T20:21:39Z</time>
      </trkpt>
      <trkpt lat="46.16002" lon="-1.16564">
        <ele>3.9</ele>
        <time>2020-05-31T20:21:40Z</time>
      </trkpt>
      <trkpt lat="46.16006" lon="-1.16562">
        <ele>3.9</ele>
        <time>2020-05-31T20:21:41Z</time>
      </trkpt>
      <trkpt lat="46.1601" lon="-1.16563">
        <ele>4</ele>
        <time>2020-05-31T20:21:42Z</time>
      </trkpt>
      <trkpt lat="46.16015" lon="-1.16562">
        <ele>4</ele>
        <time>2020-05-31T20:21:43Z</time>
      </trkpt>
      <trkpt lat="46.16021" lon="-1.16561">
        <ele>4.1</ele>
        <time>2020-05-31T20:21:44Z</time>
      </trkpt>
      <trkpt lat="46.16026" lon="-1.1656">
        <ele>4.1</ele>
        <time>2020-05-31T20:21:45Z</time>
      </trkpt>
      <trkpt lat="46.1603" lon="-1.16559">
        <ele>4.1</ele>
        <time>2020-05-31T20:21:46Z</time>
      </trkpt>
      <trkpt lat="46.16035" lon="-1.16559">
        <ele>4.2</ele>
        <time>2020-05-31T20:21:47Z</time>
      </trkpt>
      <trkpt lat="46.16039" lon="-1.16558">
        <ele>4.2</ele>
        <time>2020-05-31T20:21:48Z</time>
      </trkpt>
      <trkpt lat="46.16044" lon="-1.16557">
        <ele>4.2</ele>
        <time>2020-05-31T20:21:49Z</time>
      </trkpt>
      <trkpt lat="46.16049" lon="-1.16556">
        <ele>4.3</ele>
        <time>2020-05-31T20:21:50Z</time>
      </trkpt>
      <trkpt lat="46.16054" lon="-1.16555">
        <ele>4.3</ele>
        <time>2020-05-31T20:21:51Z</time>
      </trkpt>
      <trkpt lat="46.16059" lon="-1.16554">
        <ele>4.4</ele>
        <time>2020-05-31T20:21:52Z</time>
      </trkpt>
      <trkpt lat="46.16064" lon="-1.16554">
        <ele>4.4</ele>
        <time>2020-05-31T20:21:53Z</time>
      </trkpt>
      <trkpt lat="46.16069" lon="-1.16553">
        <ele>4.4</ele>
        <time>2020-05-31T20:21:54Z</time>
      </trkpt>
      <trkpt lat="46.16074" lon="-1.16553">
        <ele>4.5</ele>
        <time>2020-05-31T20:21:55Z</time>
      </trkpt>
      <trkpt lat="46.16078" lon="-1.16553">
        <ele>4.5</ele>
        <time>2020-05-31T20:21:56Z</time>
      </trkpt>
      <trkpt lat="46.16082" lon="-1.16552">
        <ele>4.5</ele>
        <time>2020-05-31T20:21:57Z</time>
      </trkpt>
      <trkpt lat="46.16086" lon="-1.16551">
        <ele>4.6</ele>
        <time>2020-05-31T20:21:58Z</time>
      </trkpt>
      <trkpt lat="46.1609" lon="-1.16551">
        <ele>4.6</ele>
        <time>2020-05-31T20:21:59Z</time>
      </trkpt>
      <trkpt lat="46.16095" lon="-1.1655">
        <ele>4.6</ele>
        <time>2020-05-31T20:22:00Z</time>
      </trkpt>
      <trkpt lat="46.161" lon="-1.16549">
        <ele>4.6</ele>
        <time>2020-05-31T20:22:01Z</time>
      </trkpt>
      <trkpt lat="46.16104" lon="-1.16548">
        <ele>4.7</ele>
        <time>2020-05-31T20:22:02Z</time>
      </trkpt>
      <trkpt lat="46.16109" lon="-1.16546">
        <ele>4.7</ele>
        <time>2020-05-31T20:22:03Z</time>
      </trkpt>
      <trkpt lat="46.16114" lon="-1.16546">
        <ele>4.7</ele>
        <time>2020-05-31T20:22:04Z</time>
      </trkpt>
      <trkpt lat="46.16119" lon="-1.16546">
        <ele>4.8</ele>
        <time>2020-05-31T20:22:05Z</time>
      </trkpt>
      <trkpt lat="46.16123" lon="-1.16545">
        <ele>4.8</ele>
        <time>2020-05-31T20:22:06Z</time>
      </trkpt>
      <trkpt lat="46.16127" lon="-1.16543">
        <ele>4.8</ele>
        <time>2020-05-31T20:22:07Z</time>
      </trkpt>
      <trkpt lat="46.16131" lon="-1.16543">
        <ele>4.9</ele>
        <time>2020-05-31T20:22:08Z</time>
      </trkpt>
      <trkpt lat="46.16136" lon="-1.16543">
        <ele>4.9</ele>
        <time>2020-05-31T20:22:09Z</time>
      </trkpt>
      <trkpt lat="46.16141" lon="-1.16542">
        <ele>4.9</ele>
        <time>2020-05-31T20:22:10Z</time>
      </trkpt>
      <trkpt lat="46.16145" lon="-1.16542">
        <ele>5</ele>
        <time>2020-05-31T20:22:11Z</time>
      </trkpt>
      <trkpt lat="46.16149" lon="-1.1654">
        <ele>5</ele>
        <time>2020-05-31T20:22:12Z</time>
      </trkpt>
      <trkpt lat="46.16152" lon="-1.16538">
        <ele>5</ele>
        <time>2020-05-31T20:22:13Z</time>
      </trkpt>
      <trkpt lat="46.16157" lon="-1.16537">
        <ele>5</ele>
        <time>2020-05-31T20:22:14Z</time>
      </trkpt>
      <trkpt lat="46.16161" lon="-1.16535">
        <ele>5</ele>
        <time>2020-05-31T20:22:15Z</time>
      </trkpt>
      <trkpt lat="46.16164" lon="-1.16535">
        <ele>5.1</ele>
        <time>2020-05-31T20:22:16Z</time>
      </trkpt>
      <trkpt lat="46.16167" lon="-1.16535">
        <ele>5.1</ele>
        <time>2020-05-31T20:22:17Z</time>
      </trkpt>
      <trkpt lat="46.16172" lon="-1.16533">
        <ele>5.1</ele>
        <time>2020-05-31T20:22:18Z</time>
      </trkpt>
      <trkpt lat="46.16175" lon="-1.16534">
        <ele>5.1</ele>
        <time>2020-05-31T20:22:19Z</time>
      </trkpt>
      <trkpt lat="46.16177" lon="-1.16534">
        <ele>5.1</ele>
        <time>2020-05-31T20:22:20Z</time>
      </trkpt>
      <trkpt lat="46.1618" lon="-1.16533">
        <ele>5.1</ele>
        <time>2020-05-31T20:22:21Z</time>
      </trkpt>
      <trkpt lat="46.16183" lon="-1.16535">
        <ele>5.2</ele>
        <time>2020-05-31T20:22:22Z</time>
      </trkpt>
      <trkpt lat="46.16187" lon="-1.16536">
        <ele>5.2</ele>
        <time>2020-05-31T20:22:23Z</time>
      </trkpt>
      <trkpt lat="46.16188" lon="-1.16536">
        <ele>5.2</ele>
        <time>2020-05-31T20:22:24Z</time>
      </trkpt>
      <trkpt lat="46.16191" lon="-1.16536">
        <ele>5.2</ele>
        <time>2020-05-31T20:22:25Z</time>
      </trkpt>
      <trkpt lat="46.16193" lon="-1.16536">
        <ele>5.2</ele>
        <time>2020-05-31T20:22:26Z</time>
      </trkpt>
      <trkpt lat="46.16196" lon="-1.16535">
        <ele>5.3</ele>
        <time>2020-05-31T20:22:27Z</time>
      </trkpt>
      <trkpt lat="46.16197" lon="-1.16535">
        <ele>5.3</ele>
        <time>2020-05-31T20:22:28Z</time>
      </trkpt>
      <trkpt lat="46.16201" lon="-1.16534">
        <ele>5.3</ele>
        <time>2020-05-31T20:22:29Z</time>
      </trkpt>
      <trkpt lat="46.16202" lon="-1.16534">
        <ele>5.3</ele>
        <time>2020-05-31T20:22:30Z</time>
      </trkpt>
      <trkpt lat="46.16205" lon="-1.16534">
        <ele>5.3</ele>
        <time>2020-05-31T20:22:31Z</time>
      </trkpt>
      <trkpt lat="46.16206" lon="-1.16534">
        <ele>5.3</ele>
        <time>2020-05-31T20:22:32Z</time>
      </trkpt>
      <trkpt lat="46.1621" lon="-1.16534">
        <ele>5.4</ele>
        <time>2020-05-31T20:22:33Z</time>
      </trkpt>
      <trkpt lat="46.16213" lon="-1.16534">
        <ele>5.4</ele>
        <time>2020-05-31T20:22:34Z</time>
      </trkpt>
      <trkpt lat="46.16216" lon="-1.16535">
        <ele>5.4</ele>
        <time>2020-05-31T20:22:35Z</time>
      </trkpt>
      <trkpt lat="46.16216" lon="-1.16535">
        <ele>5.4</ele>
        <time>2020-05-31T20:22:36Z</time>
      </trkpt>
      <trkpt lat="46.16216" lon="-1.1654">
        <ele>5.5</ele>
        <time>2020-05-31T20:22:37Z</time>
      </trkpt>
      <trkpt lat="46.16216" lon="-1.16542">
        <ele>5.5</ele>
        <time>2020-05-31T20:22:38Z</time>
      </trkpt>
      <trkpt lat="46.16213" lon="-1.16543">
        <ele>5.5</ele>
        <time>2020-05-31T20:22:39Z</time>
      </trkpt>
      <trkpt lat="46.16211" lon="-1.16543">
        <ele>5.5</ele>
        <time>2020-05-31T20:22:40Z</time>
      </trkpt>
      <trkpt lat="46.1621" lon="-1.16542">
        <ele>5.5</ele>
        <time>2020-05-31T20:22:41Z</time>
      </trkpt>
      <trkpt lat="46.16208" lon="-1.16542">
        <ele>5.5</ele>
        <time>2020-05-31T20:22:42Z</time>
      </trkpt>
      <trkpt lat="46.16207" lon="-1.16543">
        <ele>5.6</ele>
        <time>2020-05-31T20:22:43Z</time>
      </trkpt>
      <trkpt lat="46.16206" lon="-1.16543">
        <ele>5.6</ele>
        <time>2020-05-31T20:22:44Z</time>
      </trkpt>
      <trkpt lat="46.16206" lon="-1.16543">
        <ele>5.6</ele>
        <time>2020-05-31T20:22:45Z</time>
      </trkpt>
      <trkpt lat="46.16206" lon="-1.16543">
        <ele>5.6</ele>
        <time>2020-05-31T20:22:46Z</time>
      </trkpt>
      <trkpt lat="46.16206" lon="-1.16543">
        <ele>5.6</ele>
        <time>2020-05-31T20:22:47Z</time>
      </trkpt>
      <trkpt lat="46.16205" lon="-1.16543">
        <ele>5.6</ele>
        <time>2020-05-31T20:22:48Z</time>
      </trkpt>
      <trkpt lat="46.16205" lon="-1.16543">
        <ele>5.6</ele>
        <time>2020-05-31T20:22:49Z</time>
      </trkpt>
      <trkpt lat="46.16205" lon="-1.16543">
        <ele>5.6</ele>
        <time>2020-05-31T20:22:50Z</time>
      </trkpt>
      <trkpt lat="46.16205" lon="-1.16542">
        <ele>5.6</ele>
        <time>2020-05-31T20:22:51Z</time>
      </trkpt>
      <trkpt lat="46.16205" lon="-1.16542">
        <ele>5.6</ele>
        <time>2020-05-31T20:22:52Z</time>
      </trkpt>
      <trkpt lat="46.16205" lon="-1.16541">
        <ele>5.6</ele>
        <time>2020-05-31T20:22:53Z</time>
      </trkpt>
      <trkpt lat="46.16205" lon="-1.16541">
        <ele>5.6</ele>
        <time>2020-05-31T20:22:54Z</time>
      </trkpt>
      <trkpt lat="46.16205" lon="-1.16539">
        <ele>5.6</ele>
        <time>2020-05-31T20:22:55Z</time>
      </trkpt>
      <trkpt lat="46.16205" lon="-1.16539">
        <ele>5.6</ele>
        <time>2020-05-31T20:22:56Z</time>
      </trkpt>
      <trkpt lat="46.16204" lon="-1.16539">
        <ele>5.6</ele>
        <time>2020-05-31T20:22:57Z</time>
      </trkpt>
      <trkpt lat="46.16204" lon="-1.16539">
        <ele>5.6</ele>
        <time>2020-05-31T20:22:58Z</time>
      </trkpt>
      <trkpt lat="46.16204" lon="-1.1654">
        <ele>5.6</ele>
        <time>2020-05-31T20:22:59Z</time>
      </trkpt>
      <trkpt lat="46.16204" lon="-1.1654">
        <ele>5.6</ele>
        <time>2020-05-31T20:23:00Z</time>
      </trkpt>
      <trkpt lat="46.16204" lon="-1.1654">
        <ele>5.6</ele>
        <time>2020-05-31T20:23:01Z</time>
      </trkpt>
      <trkpt lat="46.16204" lon="-1.1654">
        <ele>5.6</ele>
        <time>2020-05-31T20:23:02Z</time>
      </trkpt>
      <trkpt lat="46.16204" lon="-1.16539">
        <ele>5.6</ele>
        <time>2020-05-31T20:23:03Z</time>
      </trkpt>
      <trkpt lat="46.16204" lon="-1.16538">
        <ele>5.6</ele>
        <time>2020-05-31T20:23:04Z</time>
      </trkpt>
      <trkpt lat="46.16204" lon="-1.16538">
        <ele>5.6</ele>
        <time>2020-05-31T20:23:05Z</time>
      </trkpt>
      <trkpt lat="46.16204" lon="-1.16538">
        <ele>5.6</ele>
        <time>2020-05-31T20:23:06Z</time>
      </trkpt>
      <trkpt lat="46.16203" lon="-1.16538">
        <ele>5.6</ele>
        <time>2020-05-31T20:23:07Z</time>
      </trkpt>
      <trkpt lat="46.16202" lon="-1.16538">
        <ele>5.6</ele>
        <time>2020-05-31T20:23:08Z</time>
      </trkpt>
      <trkpt lat="46.16203" lon="-1.16538">
        <ele>5.6</ele>
        <time>2020-05-31T20:23:09Z</time>
      </trkpt>
      <trkpt lat="46.16202" lon="-1.16538">
        <ele>5.6</ele>
        <time>2020-05-31T20:23:10Z</time>
      </trkpt>
      <trkpt lat="46.16202" lon="-1.16537">
        <ele>5.6</ele>
        <time>2020-05-31T20:23:11Z</time>
      </trkpt>
      <trkpt lat="46.16253" lon="-1.16525">
        <ele>6.4</ele>
        <time>2020-05-31T20:48:37Z</time>
      </trkpt>
      <trkpt lat="46.16257" lon="-1.16524">
        <ele>6.4</ele>
        <time>2020-05-31T20:48:38Z</time>
      </trkpt>
      <trkpt lat="46.1626" lon="-1.16523">
        <ele>6.5</ele>
        <time>2020-05-31T20:48:39Z</time>
      </trkpt>
      <trkpt lat="46.16264" lon="-1.16522">
        <ele>6.6</ele>
        <time>2020-05-31T20:48:40Z</time>
      </trkpt>
      <trkpt lat="46.16268" lon="-1.16522">
        <ele>6.7</ele>
        <time>2020-05-31T20:48:41Z</time>
      </trkpt>
      <trkpt lat="46.16272" lon="-1.16521">
        <ele>6.8</ele>
        <time>2020-05-31T20:48:42Z</time>
      </trkpt>
      <trkpt lat="46.16276" lon="-1.16519">
        <ele>6.9</ele>
        <time>2020-05-31T20:48:43Z</time>
      </trkpt>
      <trkpt lat="46.16279" lon="-1.16517">
        <ele>7</ele>
        <time>2020-05-31T20:48:44Z</time>
      </trkpt>
      <trkpt lat="46.16282" lon="-1.16516">
        <ele>7.1</ele>
        <time>2020-05-31T20:48:45Z</time>
      </trkpt>
      <trkpt lat="46.16285" lon="-1.16515">
        <ele>7.2</ele>
        <time>2020-05-31T20:48:46Z</time>
      </trkpt>
      <trkpt lat="46.16289" lon="-1.16514">
        <ele>7.3</ele>
        <time>2020-05-31T20:48:47Z</time>
      </trkpt>
      <trkpt lat="46.16294" lon="-1.16516">
        <ele>7.4</ele>
        <time>2020-05-31T20:48:48Z</time>
      </trkpt>
      <trkpt lat="46.16298" lon="-1.16517">
        <ele>7.6</ele>
        <time>2020-05-31T20:48:49Z</time>
      </trkpt>
      <trkpt lat="46.16299" lon="-1.16517">
        <ele>7.6</ele>
        <time>2020-05-31T20:48:50Z</time>
      </trkpt>
      <trkpt lat="46.16303" lon="-1.16519">
        <ele>7.7</ele>
        <time>2020-05-31T20:48:51Z</time>
      </trkpt>
      <trkpt lat="46.16305" lon="-1.1652">
        <ele>7.9</ele>
        <time>2020-05-31T20:48:52Z</time>
      </trkpt>
      <trkpt lat="46.16307" lon="-1.16525">
        <ele>7.9</ele>
        <time>2020-05-31T20:48:53Z</time>
      </trkpt>
      <trkpt lat="46.16309" lon="-1.16531">
        <ele>7.9</ele>
        <time>2020-05-31T20:48:54Z</time>
      </trkpt>
      <trkpt lat="46.16311" lon="-1.16537">
        <ele>7.9</ele>
        <time>2020-05-31T20:48:55Z</time>
      </trkpt>
      <trkpt lat="46.16313" lon="-1.16542">
        <ele>7.9</ele>
        <time>2020-05-31T20:48:56Z</time>
      </trkpt>
      <trkpt lat="46.16314" lon="-1.16548">
        <ele>7.9</ele>
        <time>2020-05-31T20:48:57Z</time>
      </trkpt>
      <trkpt lat="46.16315" lon="-1.16555">
        <ele>8</ele>
        <time>2020-05-31T20:48:58Z</time>
      </trkpt>
      <trkpt lat="46.16316" lon="-1.16561">
        <ele>8</ele>
        <time>2020-05-31T20:48:59Z</time>
      </trkpt>
      <trkpt lat="46.16317" lon="-1.16567">
        <ele>8</ele>
        <time>2020-05-31T20:49:00Z</time>
      </trkpt>
      <trkpt lat="46.16318" lon="-1.16572">
        <ele>8</ele>
        <time>2020-05-31T20:49:01Z</time>
      </trkpt>
      <trkpt lat="46.16319" lon="-1.16579">
        <ele>8</ele>
        <time>2020-05-31T20:49:02Z</time>
      </trkpt>
      <trkpt lat="46.16319" lon="-1.16587">
        <ele>8</ele>
        <time>2020-05-31T20:49:03Z</time>
      </trkpt>
      <trkpt lat="46.1632" lon="-1.16594">
        <ele>8</ele>
        <time>2020-05-31T20:49:04Z</time>
      </trkpt>
      <trkpt lat="46.16321" lon="-1.16602">
        <ele>8</ele>
        <time>2020-05-31T20:49:05Z</time>
      </trkpt>
      <trkpt lat="46.16321" lon="-1.16609">
        <ele>8</ele>
        <time>2020-05-31T20:49:06Z</time>
      </trkpt>
      <trkpt lat="46.16322" lon="-1.16617">
        <ele>8</ele>
        <time>2020-05-31T20:49:07Z</time>
      </trkpt>
      <trkpt lat="46.16323" lon="-1.16624">
        <ele>8.1</ele>
        <time>2020-05-31T20:49:08Z</time>
      </trkpt>
      <trkpt lat="46.16324" lon="-1.16633">
        <ele>8.1</ele>
        <time>2020-05-31T20:49:09Z</time>
      </trkpt>
      <trkpt lat="46.16325" lon="-1.16641">
        <ele>8.2</ele>
        <time>2020-05-31T20:49:10Z</time>
      </trkpt>
      <trkpt lat="46.16326" lon="-1.16648">
        <ele>8.2</ele>
        <time>2020-05-31T20:49:11Z</time>
      </trkpt>
      <trkpt lat="46.16327" lon="-1.16656">
        <ele>8.2</ele>
        <time>2020-05-31T20:49:12Z</time>
      </trkpt>
      <trkpt lat="46.16327" lon="-1.16664">
        <ele>8.2</ele>
        <time>2020-05-31T20:49:13Z</time>
      </trkpt>
      <trkpt lat="46.16328" lon="-1.16672">
        <ele>8.2</ele>
        <time>2020-05-31T20:49:14Z</time>
      </trkpt>
      <trkpt lat="46.16329" lon="-1.1668">
        <ele>8.2</ele>
        <time>2020-05-31T20:49:15Z</time>
      </trkpt>
      <trkpt lat="46.1633" lon="-1.16688">
        <ele>8.2</ele>
        <time>2020-05-31T20:49:16Z</time>
      </trkpt>
      <trkpt lat="46.1633" lon="-1.16697">
        <ele>8.2</ele>
        <time>2020-05-31T20:49:17Z</time>
      </trkpt>
      <trkpt lat="46.16331" lon="-1.16705">
        <ele>8.2</ele>
        <time>2020-05-31T20:49:18Z</time>
      </trkpt>
      <trkpt lat="46.16331" lon="-1.16712">
        <ele>8.2</ele>
        <time>2020-05-31T20:49:19Z</time>
      </trkpt>
      <trkpt lat="46.16332" lon="-1.1672">
        <ele>8.2</ele>
        <time>2020-05-31T20:49:20Z</time>
      </trkpt>
      <trkpt lat="46.16333" lon="-1.16727">
        <ele>8.2</ele>
        <time>2020-05-31T20:49:21Z</time>
      </trkpt>
      <trkpt lat="46.16334" lon="-1.16735">
        <ele>8.2</ele>
        <time>2020-05-31T20:49:22Z</time>
      </trkpt>
      <trkpt lat="46.16335" lon="-1.16742">
        <ele>8.2</ele>
        <time>2020-05-31T20:49:23Z</time>
      </trkpt>
      <trkpt lat="46.16335" lon="-1.16751">
        <ele>8.2</ele>
        <time>2020-05-31T20:49:24Z</time>
      </trkpt>
      <trkpt lat="46.16336" lon="-1.16759">
        <ele>8.2</ele>
        <time>2020-05-31T20:49:25Z</time>
      </trkpt>
      <trkpt lat="46.16337" lon="-1.16768">
        <ele>8.2</ele>
        <time>2020-05-31T20:49:26Z</time>
      </trkpt>
      <trkpt lat="46.16338" lon="-1.16776">
        <ele>8.2</ele>
        <time>2020-05-31T20:49:27Z</time>
      </trkpt>
      <trkpt lat="46.16338" lon="-1.16784">
        <ele>8.1</ele>
        <time>2020-05-31T20:49:28Z</time>
      </trkpt>
      <trkpt lat="46.16339" lon="-1.16792">
        <ele>8.1</ele>
        <time>2020-05-31T20:49:29Z</time>
      </trkpt>
      <trkpt lat="46.1634" lon="-1.16801">
        <ele>8.1</ele>
        <time>2020-05-31T20:49:30Z</time>
      </trkpt>
      <trkpt lat="46.16341" lon="-1.16808">
        <ele>8.1</ele>
        <time>2020-05-31T20:49:31Z</time>
      </trkpt>
      <trkpt lat="46.16342" lon="-1.16815">
        <ele>8.1</ele>
        <time>2020-05-31T20:49:32Z</time>
      </trkpt>
      <trkpt lat="46.16342" lon="-1.16823">
        <ele>8.1</ele>
        <time>2020-05-31T20:49:33Z</time>
      </trkpt>
      <trkpt lat="46.16342" lon="-1.16831">
        <ele>8.1</ele>
        <time>2020-05-31T20:49:34Z</time>
      </trkpt>
      <trkpt lat="46.16343" lon="-1.16838">
        <ele>8.1</ele>
        <time>2020-05-31T20:49:35Z</time>
      </trkpt>
      <trkpt lat="46.16343" lon="-1.16845">
        <ele>8</ele>
        <time>2020-05-31T20:49:36Z</time>
      </trkpt>
      <trkpt lat="46.16344" lon="-1.16852">
        <ele>8</ele>
        <time>2020-05-31T20:49:37Z</time>
      </trkpt>
      <trkpt lat="46.16346" lon="-1.16859">
        <ele>8</ele>
        <time>2020-05-31T20:49:38Z</time>
      </trkpt>
      <trkpt lat="46.16346" lon="-1.16867">
        <ele>8</ele>
        <time>2020-05-31T20:49:39Z</time>
      </trkpt>
      <trkpt lat="46.16347" lon="-1.16875">
        <ele>8</ele>
        <time>2020-05-31T20:49:40Z</time>
      </trkpt>
      <trkpt lat="46.16348" lon="-1.16883">
        <ele>8</ele>
        <time>2020-05-31T20:49:41Z</time>
      </trkpt>
      <trkpt lat="46.16348" lon="-1.16891">
        <ele>8.1</ele>
        <time>2020-05-31T20:49:42Z</time>
      </trkpt>
      <trkpt lat="46.16349" lon="-1.16899">
        <ele>8.1</ele>
        <time>2020-05-31T20:49:43Z</time>
      </trkpt>
      <trkpt lat="46.1635" lon="-1.16908">
        <ele>8.1</ele>
        <time>2020-05-31T20:49:44Z</time>
      </trkpt>
      <trkpt lat="46.1635" lon="-1.16914">
        <ele>8.1</ele>
        <time>2020-05-31T20:49:45Z</time>
      </trkpt>
      <trkpt lat="46.16351" lon="-1.16922">
        <ele>8.1</ele>
        <time>2020-05-31T20:49:46Z</time>
      </trkpt>
      <trkpt lat="46.16352" lon="-1.16929">
        <ele>8.1</ele>
        <time>2020-05-31T20:49:47Z</time>
      </trkpt>
      <trkpt lat="46.16353" lon="-1.16936">
        <ele>8.1</ele>
        <time>2020-05-31T20:49:48Z</time>
      </trkpt>
      <trkpt lat="46.16354" lon="-1.16945">
        <ele>8.1</ele>
        <time>2020-05-31T20:49:49Z</time>
      </trkpt>
      <trkpt lat="46.16355" lon="-1.16952">
        <ele>8.2</ele>
        <time>2020-05-31T20:49:50Z</time>
      </trkpt>
      <trkpt lat="46.16356" lon="-1.1696">
        <ele>8.3</ele>
        <time>2020-05-31T20:49:51Z</time>
      </trkpt>
      <trkpt lat="46.16356" lon="-1.16966">
        <ele>8.5</ele>
        <time>2020-05-31T20:49:52Z</time>
      </trkpt>
      <trkpt lat="46.16358" lon="-1.16973">
        <ele>8.6</ele>
        <time>2020-05-31T20:49:53Z</time>
      </trkpt>
      <trkpt lat="46.16359" lon="-1.1698">
        <ele>8.7</ele>
        <time>2020-05-31T20:49:54Z</time>
      </trkpt>
      <trkpt lat="46.1636" lon="-1.16986">
        <ele>8.8</ele>
        <time>2020-05-31T20:49:55Z</time>
      </trkpt>
      <trkpt lat="46.16361" lon="-1.16993">
        <ele>8.9</ele>
        <time>2020-05-31T20:49:56Z</time>
      </trkpt>
      <trkpt lat="46.16362" lon="-1.16999">
        <ele>9.1</ele>
        <time>2020-05-31T20:49:57Z</time>
      </trkpt>
      <trkpt lat="46.16362" lon="-1.17008">
        <ele>9.3</ele>
        <time>2020-05-31T20:49:58Z</time>
      </trkpt>
      <trkpt lat="46.16363" lon="-1.17016">
        <ele>9.5</ele>
        <time>2020-05-31T20:49:59Z</time>
      </trkpt>
      <trkpt lat="46.16364" lon="-1.17024">
        <ele>9.7</ele>
        <time>2020-05-31T20:50:00Z</time>
      </trkpt>
      <trkpt lat="46.16365" lon="-1.17032">
        <ele>9.9</ele>
        <time>2020-05-31T20:50:01Z</time>
      </trkpt>
      <trkpt lat="46.16366" lon="-1.17039">
        <ele>10.2</ele>
        <time>2020-05-31T20:50:02Z</time>
      </trkpt>
      <trkpt lat="46.16366" lon="-1.17046">
        <ele>10.4</ele>
        <time>2020-05-31T20:50:03Z</time>
      </trkpt>
      <trkpt lat="46.16367" lon="-1.17052">
        <ele>10.6</ele>
        <time>2020-05-31T20:50:04Z</time>
      </trkpt>
      <trkpt lat="46.16367" lon="-1.17057">
        <ele>10.7</ele>
        <time>2020-05-31T20:50:05Z</time>
      </trkpt>
      <trkpt lat="46.16367" lon="-1.17064">
        <ele>10.9</ele>
        <time>2020-05-31T20:50:06Z</time>
      </trkpt>
      <trkpt lat="46.16367" lon="-1.1707">
        <ele>11.1</ele>
        <time>2020-05-31T20:50:07Z</time>
      </trkpt>
      <trkpt lat="46.16367" lon="-1.17076">
        <ele>11.3</ele>
        <time>2020-05-31T20:50:08Z</time>
      </trkpt>
      <trkpt lat="46.16366" lon="-1.17081">
        <ele>11.3</ele>
        <time>2020-05-31T20:50:09Z</time>
      </trkpt>
      <trkpt lat="46.16368" lon="-1.17087">
        <ele>11.4</ele>
        <time>2020-05-31T20:50:10Z</time>
      </trkpt>
      <trkpt lat="46.16369" lon="-1.17092">
        <ele>11.5</ele>
        <time>2020-05-31T20:50:11Z</time>
      </trkpt>
      <trkpt lat="46.1637" lon="-1.17097">
        <ele>11.6</ele>
        <time>2020-05-31T20:50:12Z</time>
      </trkpt>
      <trkpt lat="46.16371" lon="-1.17102">
        <ele>11.6</ele>
        <time>2020-05-31T20:50:13Z</time>
      </trkpt>
      <trkpt lat="46.16371" lon="-1.17109">
        <ele>11.8</ele>
        <time>2020-05-31T20:50:14Z</time>
      </trkpt>
      <trkpt lat="46.16372" lon="-1.17115">
        <ele>11.8</ele>
        <time>2020-05-31T20:50:15Z</time>
      </trkpt>
      <trkpt lat="46.16371" lon="-1.17121">
        <ele>11.9</ele>
        <time>2020-05-31T20:50:16Z</time>
      </trkpt>
      <trkpt lat="46.16372" lon="-1.17127">
        <ele>11.9</ele>
        <time>2020-05-31T20:50:17Z</time>
      </trkpt>
      <trkpt lat="46.16373" lon="-1.17133">
        <ele>12</ele>
        <time>2020-05-31T20:50:18Z</time>
      </trkpt>
      <trkpt lat="46.16374" lon="-1.1714">
        <ele>12.1</ele>
        <time>2020-05-31T20:50:19Z</time>
      </trkpt>
      <trkpt lat="46.16375" lon="-1.17147">
        <ele>12.2</ele>
        <time>2020-05-31T20:50:20Z</time>
      </trkpt>
      <trkpt lat="46.16375" lon="-1.17153">
        <ele>12.3</ele>
        <time>2020-05-31T20:50:21Z</time>
      </trkpt>
      <trkpt lat="46.16376" lon="-1.1716">
        <ele>12.4</ele>
        <time>2020-05-31T20:50:22Z</time>
      </trkpt>
      <trkpt lat="46.16377" lon="-1.17168">
        <ele>12.5</ele>
        <time>2020-05-31T20:50:23Z</time>
      </trkpt>
      <trkpt lat="46.16377" lon="-1.17175">
        <ele>12.6</ele>
        <time>2020-05-31T20:50:24Z</time>
      </trkpt>
      <trkpt lat="46.16378" lon="-1.17182">
        <ele>12.7</ele>
        <time>2020-05-31T20:50:25Z</time>
      </trkpt>
      <trkpt lat="46.16379" lon="-1.17188">
        <ele>12.8</ele>
        <time>2020-05-31T20:50:26Z</time>
      </trkpt>
      <trkpt lat="46.16379" lon="-1.17194">
        <ele>12.8</ele>
        <time>2020-05-31T20:50:27Z</time>
      </trkpt>
      <trkpt lat="46.1638" lon="-1.17199">
        <ele>12.9</ele>
        <time>2020-05-31T20:50:28Z</time>
      </trkpt>
      <trkpt lat="46.1638" lon="-1.17205">
        <ele>12.9</ele>
        <time>2020-05-31T20:50:29Z</time>
      </trkpt>
      <trkpt lat="46.16382" lon="-1.17211">
        <ele>13</ele>
        <time>2020-05-31T20:50:30Z</time>
      </trkpt>
      <trkpt lat="46.16382" lon="-1.17218">
        <ele>13.1</ele>
        <time>2020-05-31T20:50:31Z</time>
      </trkpt>
      <trkpt lat="46.16383" lon="-1.17225">
        <ele>13.2</ele>
        <time>2020-05-31T20:50:32Z</time>
      </trkpt>
      <trkpt lat="46.16383" lon="-1.17231">
        <ele>13.3</ele>
        <time>2020-05-31T20:50:33Z</time>
      </trkpt>
      <trkpt lat="46.16384" lon="-1.17238">
        <ele>13.4</ele>
        <time>2020-05-31T20:50:34Z</time>
      </trkpt>
      <trkpt lat="46.16384" lon="-1.17245">
        <ele>13.5</ele>
        <time>2020-05-31T20:50:35Z</time>
      </trkpt>
      <trkpt lat="46.16385" lon="-1.17252">
        <ele>13.6</ele>
        <time>2020-05-31T20:50:36Z</time>
      </trkpt>
      <trkpt lat="46.16386" lon="-1.17258">
        <ele>13.8</ele>
        <time>2020-05-31T20:50:37Z</time>
      </trkpt>
      <trkpt lat="46.16387" lon="-1.17264">
        <ele>13.9</ele>
        <time>2020-05-31T20:50:38Z</time>
      </trkpt>
      <trkpt lat="46.16387" lon="-1.17269">
        <ele>14</ele>
        <time>2020-05-31T20:50:39Z</time>
      </trkpt>
      <trkpt lat="46.16388" lon="-1.17276">
        <ele>14.1</ele>
        <time>2020-05-31T20:50:40Z</time>
      </trkpt>
      <trkpt lat="46.16389" lon="-1.17283">
        <ele>14.2</ele>
        <time>2020-05-31T20:50:41Z</time>
      </trkpt>
      <trkpt lat="46.1639" lon="-1.17288">
        <ele>14.4</ele>
        <time>2020-05-31T20:50:42Z</time>
      </trkpt>
      <trkpt lat="46.16391" lon="-1.17295">
        <ele>14.5</ele>
        <time>2020-05-31T20:50:43Z</time>
      </trkpt>
      <trkpt lat="46.16392" lon="-1.17301">
        <ele>14.6</ele>
        <time>2020-05-31T20:50:44Z</time>
      </trkpt>
      <trkpt lat="46.16393" lon="-1.17307">
        <ele>14.8</ele>
        <time>2020-05-31T20:50:45Z</time>
      </trkpt>
      <trkpt lat="46.16394" lon="-1.17313">
        <ele>14.9</ele>
        <time>2020-05-31T20:50:46Z</time>
      </trkpt>
      <trkpt lat="46.16394" lon="-1.17319">
        <ele>15.1</ele>
        <time>2020-05-31T20:50:47Z</time>
      </trkpt>
      <trkpt lat="46.16394" lon="-1.17325">
        <ele>15.2</ele>
        <time>2020-05-31T20:50:48Z</time>
      </trkpt>
      <trkpt lat="46.16394" lon="-1.17332">
        <ele>15.4</ele>
        <time>2020-05-31T20:50:49Z</time>
      </trkpt>
      <trkpt lat="46.16395" lon="-1.17338">
        <ele>15.6</ele>
        <time>2020-05-31T20:50:50Z</time>
      </trkpt>
      <trkpt lat="46.16395" lon="-1.17344">
        <ele>15.7</ele>
        <time>2020-05-31T20:50:51Z</time>
      </trkpt>
      <trkpt lat="46.16396" lon="-1.1735">
        <ele>15.8</ele>
        <time>2020-05-31T20:50:52Z</time>
      </trkpt>
      <trkpt lat="46.16397" lon="-1.17356">
        <ele>15.9</ele>
        <time>2020-05-31T20:50:53Z</time>
      </trkpt>
      <trkpt lat="46.16398" lon="-1.17363">
        <ele>16</ele>
        <time>2020-05-31T20:50:54Z</time>
      </trkpt>
      <trkpt lat="46.16398" lon="-1.17369">
        <ele>16.1</ele>
        <time>2020-05-31T20:50:55Z</time>
      </trkpt>
      <trkpt lat="46.16399" lon="-1.17375">
        <ele>16.2</ele>
        <time>2020-05-31T20:50:56Z</time>
      </trkpt>
      <trkpt lat="46.16399" lon="-1.1738">
        <ele>16.3</ele>
        <time>2020-05-31T20:50:57Z</time>
      </trkpt>
      <trkpt lat="46.16399" lon="-1.17386">
        <ele>16.4</ele>
        <time>2020-05-31T20:50:58Z</time>
      </trkpt>
      <trkpt lat="46.16399" lon="-1.17392">
        <ele>16.5</ele>
        <time>2020-05-31T20:50:59Z</time>
      </trkpt>
      <trkpt lat="46.164" lon="-1.17398">
        <ele>16.7</ele>
        <time>2020-05-31T20:51:00Z</time>
      </trkpt>
      <trkpt lat="46.164" lon="-1.17404">
        <ele>16.8</ele>
        <time>2020-05-31T20:51:01Z</time>
      </trkpt>
      <trkpt lat="46.16401" lon="-1.1741">
        <ele>16.9</ele>
        <time>2020-05-31T20:51:02Z</time>
      </trkpt>
      <trkpt lat="46.16402" lon="-1.17416">
        <ele>17</ele>
        <time>2020-05-31T20:51:03Z</time>
      </trkpt>
      <trkpt lat="46.16403" lon="-1.17421">
        <ele>17.1</ele>
        <time>2020-05-31T20:51:04Z</time>
      </trkpt>
      <trkpt lat="46.16404" lon="-1.17428">
        <ele>17.3</ele>
        <time>2020-05-31T20:51:05Z</time>
      </trkpt>
      <trkpt lat="46.16405" lon="-1.17435">
        <ele>17.4</ele>
        <time>2020-05-31T20:51:06Z</time>
      </trkpt>
      <trkpt lat="46.16405" lon="-1.17439">
        <ele>17.4</ele>
        <time>2020-05-31T20:51:07Z</time>
      </trkpt>
      <trkpt lat="46.16406" lon="-1.17446">
        <ele>17.5</ele>
        <time>2020-05-31T20:51:08Z</time>
      </trkpt>
      <trkpt lat="46.16407" lon="-1.17451">
        <ele>17.6</ele>
        <time>2020-05-31T20:51:09Z</time>
      </trkpt>
      <trkpt lat="46.16407" lon="-1.17456">
        <ele>17.7</ele>
        <time>2020-05-31T20:51:10Z</time>
      </trkpt>
      <trkpt lat="46.16409" lon="-1.17461">
        <ele>17.8</ele>
        <time>2020-05-31T20:51:11Z</time>
      </trkpt>
      <trkpt lat="46.1641" lon="-1.17466">
        <ele>17.9</ele>
        <time>2020-05-31T20:51:12Z</time>
      </trkpt>
      <trkpt lat="46.1641" lon="-1.17471">
        <ele>18</ele>
        <time>2020-05-31T20:51:13Z</time>
      </trkpt>
      <trkpt lat="46.16412" lon="-1.17475">
        <ele>18.2</ele>
        <time>2020-05-31T20:51:14Z</time>
      </trkpt>
      <trkpt lat="46.16413" lon="-1.1748">
        <ele>18.3</ele>
        <time>2020-05-31T20:51:15Z</time>
      </trkpt>
      <trkpt lat="46.16413" lon="-1.17482">
        <ele>18.4</ele>
        <time>2020-05-31T20:51:16Z</time>
      </trkpt>
      <trkpt lat="46.16413" lon="-1.17485">
        <ele>18.4</ele>
        <time>2020-05-31T20:51:17Z</time>
      </trkpt>
      <trkpt lat="46.16414" lon="-1.17486">
        <ele>18.4</ele>
        <time>2020-05-31T20:51:18Z</time>
      </trkpt>
      <trkpt lat="46.16413" lon="-1.17486">
        <ele>18.5</ele>
        <time>2020-05-31T20:51:19Z</time>
      </trkpt>
      <trkpt lat="46.16414" lon="-1.17485">
        <ele>18.5</ele>
        <time>2020-05-31T20:51:20Z</time>
      </trkpt>
      <trkpt lat="46.16414" lon="-1.17485">
        <ele>18.5</ele>
        <time>2020-05-31T20:51:21Z</time>
      </trkpt>
      <trkpt lat="46.16414" lon="-1.17486">
        <ele>18.5</ele>
        <time>2020-05-31T20:51:22Z</time>
      </trkpt>
      <trkpt lat="46.16414" lon="-1.17486">
        <ele>18.5</ele>
        <time>2020-05-31T20:51:23Z</time>
      </trkpt>
      <trkpt lat="46.16415" lon="-1.17486">
        <ele>18.5</ele>
        <time>2020-05-31T20:51:24Z</time>
      </trkpt>
      <trkpt lat="46.16415" lon="-1.17486">
        <ele>18.6</ele>
        <time>2020-05-31T20:51:25Z</time>
      </trkpt>
      <trkpt lat="46.16415" lon="-1.17487">
        <ele>18.6</ele>
        <time>2020-05-31T20:51:26Z</time>
      </trkpt>
      <trkpt lat="46.16415" lon="-1.17487">
        <ele>18.6</ele>
        <time>2020-05-31T20:51:27Z</time>
      </trkpt>
      <trkpt lat="46.16415" lon="-1.17487">
        <ele>18.6</ele>
        <time>2020-05-31T20:51:28Z</time>
      </trkpt>
      <trkpt lat="46.16415" lon="-1.17487">
        <ele>18.6</ele>
        <time>2020-05-31T20:51:29Z</time>
      </trkpt>
      <trkpt lat="46.16415" lon="-1.17488">
        <ele>18.6</ele>
        <time>2020-05-31T20:51:30Z</time>
      </trkpt>
      <trkpt lat="46.16415" lon="-1.17488">
        <ele>18.6</ele>
        <time>2020-05-31T20:51:31Z</time>
      </trkpt>
      <trkpt lat="46.16415" lon="-1.17488">
        <ele>18.6</ele>
        <time>2020-05-31T20:51:32Z</time>
      </trkpt>
      <trkpt lat="46.16415" lon="-1.17488">
        <ele>18.6</ele>
        <time>2020-05-31T20:51:33Z</time>
      </trkpt>
      <trkpt lat="46.16415" lon="-1.17488">
        <ele>18.6</ele>
        <time>2020-05-31T20:51:34Z</time>
      </trkpt>
      <trkpt lat="46.16415" lon="-1.17489">
        <ele>18.6</ele>
        <time>2020-05-31T20:51:35Z</time>
      </trkpt>
      <trkpt lat="46.16415" lon="-1.17489">
        <ele>18.6</ele>
        <time>2020-05-31T20:51:36Z</time>
      </trkpt>
      <trkpt lat="46.16415" lon="-1.17489">
        <ele>18.6</ele>
        <time>2020-05-31T20:51:37Z</time>
      </trkpt>
      <trkpt lat="46.16415" lon="-1.17489">
        <ele>18.6</ele>
        <time>2020-05-31T20:51:38Z</time>
      </trkpt>
      <trkpt lat="46.16414" lon="-1.1749">
        <ele>18.6</ele>
        <time>2020-05-31T20:51:39Z</time>
      </trkpt>
      <trkpt lat="46.16414" lon="-1.1749">
        <ele>18.6</ele>
        <time>2020-05-31T20:51:40Z</time>
      </trkpt>
      <trkpt lat="46.16414" lon="-1.1749">
        <ele>18.7</ele>
        <time>2020-05-31T20:51:41Z</time>
      </trkpt>
      <trkpt lat="46.16414" lon="-1.1749">
        <ele>18.7</ele>
        <time>2020-05-31T20:51:42Z</time>
      </trkpt>
      <trkpt lat="46.16414" lon="-1.1749">
        <ele>18.7</ele>
        <time>2020-05-31T20:51:43Z</time>
      </trkpt>
      <trkpt lat="46.16414" lon="-1.17491">
        <ele>18.7</ele>
        <time>2020-05-31T20:51:44Z</time>
      </trkpt>
      <trkpt lat="46.16414" lon="-1.17491">
        <ele>18.7</ele>
        <time>2020-05-31T20:51:45Z</time>
      </trkpt>
      <trkpt lat="46.16414" lon="-1.17491">
        <ele>18.7</ele>
        <time>2020-05-31T20:51:46Z</time>
      </trkpt>
      <trkpt lat="46.16414" lon="-1.17491">
        <ele>18.7</ele>
        <time>2020-05-31T20:51:47Z</time>
      </trkpt>
      <trkpt lat="46.16414" lon="-1.17492">
        <ele>18.7</ele>
        <time>2020-05-31T20:51:48Z</time>
      </trkpt>
      <trkpt lat="46.16414" lon="-1.17492">
        <ele>18.7</ele>
        <time>2020-05-31T20:51:49Z</time>
      </trkpt>
      <trkpt lat="46.16414" lon="-1.17492">
        <ele>18.7</ele>
        <time>2020-05-31T20:51:50Z</time>
      </trkpt>
      <trkpt lat="46.16414" lon="-1.17492">
        <ele>18.7</ele>
        <time>2020-05-31T20:51:51Z</time>
      </trkpt>
      <trkpt lat="46.16414" lon="-1.17492">
        <ele>18.7</ele>
        <time>2020-05-31T20:51:52Z</time>
      </trkpt>
      <trkpt lat="46.16415" lon="-1.17497">
        <ele>18.8</ele>
        <time>2020-05-31T20:51:53Z</time>
      </trkpt>
      <trkpt lat="46.16415" lon="-1.17503">
        <ele>18.9</ele>
        <time>2020-05-31T20:51:54Z</time>
      </trkpt>
      <trkpt lat="46.16415" lon="-1.17508">
        <ele>19</ele>
        <time>2020-05-31T20:51:55Z</time>
      </trkpt>
      <trkpt lat="46.16416" lon="-1.17514">
        <ele>19.1</ele>
        <time>2020-05-31T20:51:56Z</time>
      </trkpt>
      <trkpt lat="46.16416" lon="-1.1752">
        <ele>19.2</ele>
        <time>2020-05-31T20:51:57Z</time>
      </trkpt>
      <trkpt lat="46.16416" lon="-1.17526">
        <ele>19.3</ele>
        <time>2020-05-31T20:51:58Z</time>
      </trkpt>
      <trkpt lat="46.16417" lon="-1.17531">
        <ele>19.4</ele>
        <time>2020-05-31T20:51:59Z</time>
      </trkpt>
      <trkpt lat="46.16417" lon="-1.17537">
        <ele>19.4</ele>
        <time>2020-05-31T20:52:00Z</time>
      </trkpt>
      <trkpt lat="46.16418" lon="-1.17543">
        <ele>19.6</ele>
        <time>2020-05-31T20:52:01Z</time>
      </trkpt>
      <trkpt lat="46.16419" lon="-1.1755">
        <ele>19.7</ele>
        <time>2020-05-31T20:52:02Z</time>
      </trkpt>
      <trkpt lat="46.16421" lon="-1.17555">
        <ele>19.7</ele>
        <time>2020-05-31T20:52:03Z</time>
      </trkpt>
      <trkpt lat="46.16422" lon="-1.1756">
        <ele>19.7</ele>
        <time>2020-05-31T20:52:04Z</time>
      </trkpt>
      <trkpt lat="46.16423" lon="-1.17566">
        <ele>19.8</ele>
        <time>2020-05-31T20:52:05Z</time>
      </trkpt>
      <trkpt lat="46.16424" lon="-1.17571">
        <ele>19.8</ele>
        <time>2020-05-31T20:52:06Z</time>
      </trkpt>
      <trkpt lat="46.16424" lon="-1.17577">
        <ele>20.1</ele>
        <time>2020-05-31T20:52:07Z</time>
      </trkpt>
      <trkpt lat="46.16424" lon="-1.17583">
        <ele>20.1</ele>
        <time>2020-05-31T20:52:08Z</time>
      </trkpt>
      <trkpt lat="46.16424" lon="-1.17588">
        <ele>20.1</ele>
        <time>2020-05-31T20:52:09Z</time>
      </trkpt>
      <trkpt lat="46.16424" lon="-1.17595">
        <ele>20.1</ele>
        <time>2020-05-31T20:52:10Z</time>
      </trkpt>
      <trkpt lat="46.16424" lon="-1.17601">
        <ele>20.2</ele>
        <time>2020-05-31T20:52:11Z</time>
      </trkpt>
      <trkpt lat="46.16424" lon="-1.17609">
        <ele>20.2</ele>
        <time>2020-05-31T20:52:12Z</time>
      </trkpt>
      <trkpt lat="46.16425" lon="-1.17616">
        <ele>20.3</ele>
        <time>2020-05-31T20:52:13Z</time>
      </trkpt>
      <trkpt lat="46.16424" lon="-1.17623">
        <ele>20.4</ele>
        <time>2020-05-31T20:52:14Z</time>
      </trkpt>
      <trkpt lat="46.16425" lon="-1.1763">
        <ele>20.5</ele>
        <time>2020-05-31T20:52:15Z</time>
      </trkpt>
      <trkpt lat="46.16426" lon="-1.17637">
        <ele>20.6</ele>
        <time>2020-05-31T20:52:16Z</time>
      </trkpt>
      <trkpt lat="46.16427" lon="-1.17643">
        <ele>20.7</ele>
        <time>2020-05-31T20:52:17Z</time>
      </trkpt>
      <trkpt lat="46.16427" lon="-1.17649">
        <ele>20.8</ele>
        <time>2020-05-31T20:52:18Z</time>
      </trkpt>
      <trkpt lat="46.16427" lon="-1.17657">
        <ele>20.8</ele>
        <time>2020-05-31T20:52:19Z</time>
      </trkpt>
      <trkpt lat="46.16428" lon="-1.17665">
        <ele>20.9</ele>
        <time>2020-05-31T20:52:20Z</time>
      </trkpt>
      <trkpt lat="46.16429" lon="-1.17672">
        <ele>20.9</ele>
        <time>2020-05-31T20:52:21Z</time>
      </trkpt>
      <trkpt lat="46.1643" lon="-1.17679">
        <ele>20.9</ele>
        <time>2020-05-31T20:52:22Z</time>
      </trkpt>
      <trkpt lat="46.16432" lon="-1.17686">
        <ele>20.8</ele>
        <time>2020-05-31T20:52:23Z</time>
      </trkpt>
      <trkpt lat="46.16433" lon="-1.17695">
        <ele>20.8</ele>
        <time>2020-05-31T20:52:24Z</time>
      </trkpt>
      <trkpt lat="46.16435" lon="-1.17704">
        <ele>20.7</ele>
        <time>2020-05-31T20:52:25Z</time>
      </trkpt>
      <trkpt lat="46.16437" lon="-1.17713">
        <ele>20.7</ele>
        <time>2020-05-31T20:52:26Z</time>
      </trkpt>
      <trkpt lat="46.16438" lon="-1.17723">
        <ele>20.6</ele>
        <time>2020-05-31T20:52:27Z</time>
      </trkpt>
      <trkpt lat="46.16439" lon="-1.17732">
        <ele>20.5</ele>
        <time>2020-05-31T20:52:28Z</time>
      </trkpt>
      <trkpt lat="46.16441" lon="-1.17741">
        <ele>20.5</ele>
        <time>2020-05-31T20:52:29Z</time>
      </trkpt>
      <trkpt lat="46.16442" lon="-1.17749">
        <ele>20.4</ele>
        <time>2020-05-31T20:52:30Z</time>
      </trkpt>
      <trkpt lat="46.16444" lon="-1.17758">
        <ele>20.3</ele>
        <time>2020-05-31T20:52:31Z</time>
      </trkpt>
      <trkpt lat="46.16445" lon="-1.17766">
        <ele>20.3</ele>
        <time>2020-05-31T20:52:32Z</time>
      </trkpt>
      <trkpt lat="46.16447" lon="-1.17776">
        <ele>20.2</ele>
        <time>2020-05-31T20:52:33Z</time>
      </trkpt>
      <trkpt lat="46.16448" lon="-1.17785">
        <ele>20.2</ele>
        <time>2020-05-31T20:52:34Z</time>
      </trkpt>
      <trkpt lat="46.1645" lon="-1.17795">
        <ele>20.1</ele>
        <time>2020-05-31T20:52:35Z</time>
      </trkpt>
      <trkpt lat="46.16452" lon="-1.17804">
        <ele>20</ele>
        <time>2020-05-31T20:52:36Z</time>
      </trkpt>
      <trkpt lat="46.16454" lon="-1.17814">
        <ele>19.9</ele>
        <time>2020-05-31T20:52:37Z</time>
      </trkpt>
      <trkpt lat="46.16456" lon="-1.17822">
        <ele>19.8</ele>
        <time>2020-05-31T20:52:38Z</time>
      </trkpt>
      <trkpt lat="46.16457" lon="-1.17831">
        <ele>19.7</ele>
        <time>2020-05-31T20:52:39Z</time>
      </trkpt>
      <trkpt lat="46.16459" lon="-1.17839">
        <ele>19.6</ele>
        <time>2020-05-31T20:52:40Z</time>
      </trkpt>
      <trkpt lat="46.1646" lon="-1.17849">
        <ele>19.5</ele>
        <time>2020-05-31T20:52:41Z</time>
      </trkpt>
      <trkpt lat="46.16461" lon="-1.17859">
        <ele>19.4</ele>
        <time>2020-05-31T20:52:42Z</time>
      </trkpt>
      <trkpt lat="46.16463" lon="-1.17869">
        <ele>19.3</ele>
        <time>2020-05-31T20:52:43Z</time>
      </trkpt>
      <trkpt lat="46.16464" lon="-1.17877">
        <ele>19.3</ele>
        <time>2020-05-31T20:52:44Z</time>
      </trkpt>
      <trkpt lat="46.16464" lon="-1.17886">
        <ele>19.3</ele>
        <time>2020-05-31T20:52:45Z</time>
      </trkpt>
      <trkpt lat="46.16464" lon="-1.17896">
        <ele>19.1</ele>
        <time>2020-05-31T20:52:46Z</time>
      </trkpt>
      <trkpt lat="46.16464" lon="-1.17905">
        <ele>19</ele>
        <time>2020-05-31T20:52:47Z</time>
      </trkpt>
      <trkpt lat="46.16464" lon="-1.17916">
        <ele>18.9</ele>
        <time>2020-05-31T20:52:48Z</time>
      </trkpt>
      <trkpt lat="46.16463" lon="-1.17925">
        <ele>18.8</ele>
        <time>2020-05-31T20:52:49Z</time>
      </trkpt>
      <trkpt lat="46.16463" lon="-1.17933">
        <ele>18.7</ele>
        <time>2020-05-31T20:52:50Z</time>
      </trkpt>
      <trkpt lat="46.16462" lon="-1.17943">
        <ele>18.6</ele>
        <time>2020-05-31T20:52:51Z</time>
      </trkpt>
      <trkpt lat="46.16462" lon="-1.17952">
        <ele>18.5</ele>
        <time>2020-05-31T20:52:52Z</time>
      </trkpt>
      <trkpt lat="46.16462" lon="-1.17961">
        <ele>18.4</ele>
        <time>2020-05-31T20:52:53Z</time>
      </trkpt>
      <trkpt lat="46.16462" lon="-1.17971">
        <ele>18.2</ele>
        <time>2020-05-31T20:52:54Z</time>
      </trkpt>
      <trkpt lat="46.16462" lon="-1.17981">
        <ele>18.1</ele>
        <time>2020-05-31T20:52:55Z</time>
      </trkpt>
      <trkpt lat="46.16462" lon="-1.17992">
        <ele>18</ele>
        <time>2020-05-31T20:52:56Z</time>
      </trkpt>
      <trkpt lat="46.16462" lon="-1.18001">
        <ele>18</ele>
        <time>2020-05-31T20:52:57Z</time>
      </trkpt>
      <trkpt lat="46.16462" lon="-1.18011">
        <ele>17.9</ele>
        <time>2020-05-31T20:52:58Z</time>
      </trkpt>
      <trkpt lat="46.16462" lon="-1.18021">
        <ele>17.9</ele>
        <time>2020-05-31T20:52:59Z</time>
      </trkpt>
      <trkpt lat="46.16461" lon="-1.18031">
        <ele>17.8</ele>
        <time>2020-05-31T20:53:00Z</time>
      </trkpt>
      <trkpt lat="46.1646" lon="-1.1804">
        <ele>17.7</ele>
        <time>2020-05-31T20:53:01Z</time>
      </trkpt>
      <trkpt lat="46.16459" lon="-1.18052">
        <ele>17.6</ele>
        <time>2020-05-31T20:53:02Z</time>
      </trkpt>
      <trkpt lat="46.16459" lon="-1.18064">
        <ele>17.5</ele>
        <time>2020-05-31T20:53:03Z</time>
      </trkpt>
      <trkpt lat="46.16458" lon="-1.18076">
        <ele>17.3</ele>
        <time>2020-05-31T20:53:04Z</time>
      </trkpt>
      <trkpt lat="46.16459" lon="-1.18088">
        <ele>17.1</ele>
        <time>2020-05-31T20:53:05Z</time>
      </trkpt>
      <trkpt lat="46.16459" lon="-1.181">
        <ele>16.9</ele>
        <time>2020-05-31T20:53:06Z</time>
      </trkpt>
      <trkpt lat="46.16459" lon="-1.18112">
        <ele>16.7</ele>
        <time>2020-05-31T20:53:07Z</time>
      </trkpt>
      <trkpt lat="46.16459" lon="-1.18123">
        <ele>16.5</ele>
        <time>2020-05-31T20:53:08Z</time>
      </trkpt>
      <trkpt lat="46.16459" lon="-1.18133">
        <ele>16.4</ele>
        <time>2020-05-31T20:53:09Z</time>
      </trkpt>
      <trkpt lat="46.16459" lon="-1.18144">
        <ele>16.3</ele>
        <time>2020-05-31T20:53:10Z</time>
      </trkpt>
      <trkpt lat="46.16459" lon="-1.18155">
        <ele>16.2</ele>
        <time>2020-05-31T20:53:11Z</time>
      </trkpt>
      <trkpt lat="46.16459" lon="-1.18165">
        <ele>16.1</ele>
        <time>2020-05-31T20:53:12Z</time>
      </trkpt>
      <trkpt lat="46.16459" lon="-1.18176">
        <ele>16</ele>
        <time>2020-05-31T20:53:13Z</time>
      </trkpt>
      <trkpt lat="46.1646" lon="-1.18186">
        <ele>16</ele>
        <time>2020-05-31T20:53:14Z</time>
      </trkpt>
      <trkpt lat="46.1646" lon="-1.18196">
        <ele>16.1</ele>
        <time>2020-05-31T20:53:15Z</time>
      </trkpt>
      <trkpt lat="46.16461" lon="-1.18205">
        <ele>16.1</ele>
        <time>2020-05-31T20:53:16Z</time>
      </trkpt>
      <trkpt lat="46.16463" lon="-1.18215">
        <ele>16.1</ele>
        <time>2020-05-31T20:53:17Z</time>
      </trkpt>
      <trkpt lat="46.16465" lon="-1.18224">
        <ele>16.1</ele>
        <time>2020-05-31T20:53:18Z</time>
      </trkpt>
      <trkpt lat="46.16467" lon="-1.18233">
        <ele>16.2</ele>
        <time>2020-05-31T20:53:19Z</time>
      </trkpt>
      <trkpt lat="46.16469" lon="-1.18241">
        <ele>16.2</ele>
        <time>2020-05-31T20:53:20Z</time>
      </trkpt>
      <trkpt lat="46.16471" lon="-1.1825">
        <ele>16.3</ele>
        <time>2020-05-31T20:53:21Z</time>
      </trkpt>
      <trkpt lat="46.16472" lon="-1.18259">
        <ele>16.3</ele>
        <time>2020-05-31T20:53:22Z</time>
      </trkpt>
      <trkpt lat="46.16474" lon="-1.18268">
        <ele>16.4</ele>
        <time>2020-05-31T20:53:23Z</time>
      </trkpt>
      <trkpt lat="46.16475" lon="-1.18276">
        <ele>16.4</ele>
        <time>2020-05-31T20:53:24Z</time>
      </trkpt>
      <trkpt lat="46.16477" lon="-1.18283">
        <ele>16.5</ele>
        <time>2020-05-31T20:53:25Z</time>
      </trkpt>
      <trkpt lat="46.16479" lon="-1.18291">
        <ele>16.5</ele>
        <time>2020-05-31T20:53:26Z</time>
      </trkpt>
      <trkpt lat="46.16482" lon="-1.18297">
        <ele>16.5</ele>
        <time>2020-05-31T20:53:27Z</time>
      </trkpt>
      <trkpt lat="46.16483" lon="-1.18304">
        <ele>16.5</ele>
        <time>2020-05-31T20:53:28Z</time>
      </trkpt>
      <trkpt lat="46.16486" lon="-1.18311">
        <ele>16.6</ele>
        <time>2020-05-31T20:53:29Z</time>
      </trkpt>
      <trkpt lat="46.16487" lon="-1.18319">
        <ele>16.6</ele>
        <time>2020-05-31T20:53:30Z</time>
      </trkpt>
      <trkpt lat="46.16489" lon="-1.18326">
        <ele>16.6</ele>
        <time>2020-05-31T20:53:31Z</time>
      </trkpt>
      <trkpt lat="46.16491" lon="-1.18333">
        <ele>16.6</ele>
        <time>2020-05-31T20:53:32Z</time>
      </trkpt>
      <trkpt lat="46.16493" lon="-1.1834">
        <ele>16.7</ele>
        <time>2020-05-31T20:53:33Z</time>
      </trkpt>
      <trkpt lat="46.16495" lon="-1.18347">
        <ele>16.6</ele>
        <time>2020-05-31T20:53:34Z</time>
      </trkpt>
      <trkpt lat="46.16495" lon="-1.18354">
        <ele>16.6</ele>
        <time>2020-05-31T20:53:35Z</time>
      </trkpt>
      <trkpt lat="46.16494" lon="-1.18361">
        <ele>16.4</ele>
        <time>2020-05-31T20:53:36Z</time>
      </trkpt>
      <trkpt lat="46.16492" lon="-1.1837">
        <ele>16.4</ele>
        <time>2020-05-31T20:53:37Z</time>
      </trkpt>
      <trkpt lat="46.1649" lon="-1.18378">
        <ele>16.3</ele>
        <time>2020-05-31T20:53:38Z</time>
      </trkpt>
      <trkpt lat="46.16491" lon="-1.18387">
        <ele>16.2</ele>
        <time>2020-05-31T20:53:39Z</time>
      </trkpt>
      <trkpt lat="46.16491" lon="-1.18396">
        <ele>16.1</ele>
        <time>2020-05-31T20:53:40Z</time>
      </trkpt>
      <trkpt lat="46.16492" lon="-1.18405">
        <ele>16.1</ele>
        <time>2020-05-31T20:53:41Z</time>
      </trkpt>
      <trkpt lat="46.16493" lon="-1.18413">
        <ele>16</ele>
        <time>2020-05-31T20:53:42Z</time>
      </trkpt>
      <trkpt lat="46.16494" lon="-1.18422">
        <ele>16</ele>
        <time>2020-05-31T20:53:43Z</time>
      </trkpt>
      <trkpt lat="46.16495" lon="-1.1843">
        <ele>15.9</ele>
        <time>2020-05-31T20:53:44Z</time>
      </trkpt>
      <trkpt lat="46.16497" lon="-1.18439">
        <ele>15.8</ele>
        <time>2020-05-31T20:53:45Z</time>
      </trkpt>
      <trkpt lat="46.16498" lon="-1.18447">
        <ele>15.7</ele>
        <time>2020-05-31T20:53:46Z</time>
      </trkpt>
      <trkpt lat="46.16499" lon="-1.18456">
        <ele>15.7</ele>
        <time>2020-05-31T20:53:47Z</time>
      </trkpt>
      <trkpt lat="46.16501" lon="-1.18465">
        <ele>15.6</ele>
        <time>2020-05-31T20:53:48Z</time>
      </trkpt>
      <trkpt lat="46.16503" lon="-1.18473">
        <ele>15.6</ele>
        <time>2020-05-31T20:53:49Z</time>
      </trkpt>
      <trkpt lat="46.16505" lon="-1.18481">
        <ele>15.5</ele>
        <time>2020-05-31T20:53:50Z</time>
      </trkpt>
      <trkpt lat="46.16507" lon="-1.1849">
        <ele>15.5</ele>
        <time>2020-05-31T20:53:51Z</time>
      </trkpt>
      <trkpt lat="46.16508" lon="-1.18498">
        <ele>15.5</ele>
        <time>2020-05-31T20:53:52Z</time>
      </trkpt>
      <trkpt lat="46.16509" lon="-1.18507">
        <ele>15.5</ele>
        <time>2020-05-31T20:53:53Z</time>
      </trkpt>
      <trkpt lat="46.16511" lon="-1.18516">
        <ele>15.5</ele>
        <time>2020-05-31T20:53:54Z</time>
      </trkpt>
      <trkpt lat="46.16513" lon="-1.18524">
        <ele>15.5</ele>
        <time>2020-05-31T20:53:55Z</time>
      </trkpt>
      <trkpt lat="46.16514" lon="-1.18533">
        <ele>15.5</ele>
        <time>2020-05-31T20:53:56Z</time>
      </trkpt>
      <trkpt lat="46.16516" lon="-1.18542">
        <ele>15.4</ele>
        <time>2020-05-31T20:53:57Z</time>
      </trkpt>
      <trkpt lat="46.16518" lon="-1.18551">
        <ele>15.4</ele>
        <time>2020-05-31T20:53:58Z</time>
      </trkpt>
      <trkpt lat="46.1652" lon="-1.18559">
        <ele>15.4</ele>
        <time>2020-05-31T20:53:59Z</time>
      </trkpt>
      <trkpt lat="46.16522" lon="-1.18568">
        <ele>15.5</ele>
        <time>2020-05-31T20:54:00Z</time>
      </trkpt>
      <trkpt lat="46.16524" lon="-1.18576">
        <ele>15.5</ele>
        <time>2020-05-31T20:54:01Z</time>
      </trkpt>
      <trkpt lat="46.16526" lon="-1.18585">
        <ele>15.5</ele>
        <time>2020-05-31T20:54:02Z</time>
      </trkpt>
      <trkpt lat="46.16528" lon="-1.18594">
        <ele>15.6</ele>
        <time>2020-05-31T20:54:03Z</time>
      </trkpt>
      <trkpt lat="46.1653" lon="-1.18603">
        <ele>15.6</ele>
        <time>2020-05-31T20:54:04Z</time>
      </trkpt>
      <trkpt lat="46.16532" lon="-1.18612">
        <ele>15.6</ele>
        <time>2020-05-31T20:54:05Z</time>
      </trkpt>
      <trkpt lat="46.16533" lon="-1.1862">
        <ele>15.6</ele>
        <time>2020-05-31T20:54:06Z</time>
      </trkpt>
      <trkpt lat="46.16535" lon="-1.18629">
        <ele>15.6</ele>
        <time>2020-05-31T20:54:07Z</time>
      </trkpt>
      <trkpt lat="46.16537" lon="-1.18637">
        <ele>15.7</ele>
        <time>2020-05-31T20:54:08Z</time>
      </trkpt>
      <trkpt lat="46.16539" lon="-1.18646">
        <ele>15.7</ele>
        <time>2020-05-31T20:54:09Z</time>
      </trkpt>
      <trkpt lat="46.16541" lon="-1.18654">
        <ele>15.6</ele>
        <time>2020-05-31T20:54:10Z</time>
      </trkpt>
      <trkpt lat="46.16543" lon="-1.18663">
        <ele>15.5</ele>
        <time>2020-05-31T20:54:11Z</time>
      </trkpt>
      <trkpt lat="46.16545" lon="-1.18672">
        <ele>15.5</ele>
        <time>2020-05-31T20:54:12Z</time>
      </trkpt>
      <trkpt lat="46.16546" lon="-1.18681">
        <ele>15.4</ele>
        <time>2020-05-31T20:54:13Z</time>
      </trkpt>
      <trkpt lat="46.16549" lon="-1.18691">
        <ele>15.3</ele>
        <time>2020-05-31T20:54:14Z</time>
      </trkpt>
      <trkpt lat="46.16551" lon="-1.187">
        <ele>15.2</ele>
        <time>2020-05-31T20:54:15Z</time>
      </trkpt>
      <trkpt lat="46.16553" lon="-1.18709">
        <ele>15.2</ele>
        <time>2020-05-31T20:54:16Z</time>
      </trkpt>
      <trkpt lat="46.16555" lon="-1.18719">
        <ele>15.1</ele>
        <time>2020-05-31T20:54:17Z</time>
      </trkpt>
      <trkpt lat="46.16557" lon="-1.18728">
        <ele>15</ele>
        <time>2020-05-31T20:54:18Z</time>
      </trkpt>
      <trkpt lat="46.16559" lon="-1.18738">
        <ele>15</ele>
        <time>2020-05-31T20:54:19Z</time>
      </trkpt>
      <trkpt lat="46.16561" lon="-1.18747">
        <ele>15</ele>
        <time>2020-05-31T20:54:20Z</time>
      </trkpt>
      <trkpt lat="46.16563" lon="-1.18757">
        <ele>14.9</ele>
        <time>2020-05-31T20:54:21Z</time>
      </trkpt>
      <trkpt lat="46.16564" lon="-1.18767">
        <ele>14.8</ele>
        <time>2020-05-31T20:54:22Z</time>
      </trkpt>
      <trkpt lat="46.16565" lon="-1.18777">
        <ele>14.8</ele>
        <time>2020-05-31T20:54:23Z</time>
      </trkpt>
      <trkpt lat="46.16566" lon="-1.18786">
        <ele>14.7</ele>
        <time>2020-05-31T20:54:24Z</time>
      </trkpt>
      <trkpt lat="46.16568" lon="-1.18796">
        <ele>14.6</ele>
        <time>2020-05-31T20:54:25Z</time>
      </trkpt>
      <trkpt lat="46.16571" lon="-1.18805">
        <ele>14.5</ele>
        <time>2020-05-31T20:54:26Z</time>
      </trkpt>
      <trkpt lat="46.16574" lon="-1.18813">
        <ele>14.2</ele>
        <time>2020-05-31T20:54:27Z</time>
      </trkpt>
      <trkpt lat="46.16577" lon="-1.18822">
        <ele>14.2</ele>
        <time>2020-05-31T20:54:28Z</time>
      </trkpt>
      <trkpt lat="46.1658" lon="-1.18831">
        <ele>14</ele>
        <time>2020-05-31T20:54:29Z</time>
      </trkpt>
      <trkpt lat="46.16582" lon="-1.18841">
        <ele>13.9</ele>
        <time>2020-05-31T20:54:30Z</time>
      </trkpt>
      <trkpt lat="46.16583" lon="-1.1885">
        <ele>13.7</ele>
        <time>2020-05-31T20:54:31Z</time>
      </trkpt>
      <trkpt lat="46.16585" lon="-1.18859">
        <ele>13.6</ele>
        <time>2020-05-31T20:54:32Z</time>
      </trkpt>
      <trkpt lat="46.16588" lon="-1.18869">
        <ele>13.5</ele>
        <time>2020-05-31T20:54:33Z</time>
      </trkpt>
      <trkpt lat="46.1659" lon="-1.18878">
        <ele>13.2</ele>
        <time>2020-05-31T20:54:34Z</time>
      </trkpt>
      <trkpt lat="46.16592" lon="-1.18888">
        <ele>13.2</ele>
        <time>2020-05-31T20:54:35Z</time>
      </trkpt>
      <trkpt lat="46.16595" lon="-1.18897">
        <ele>13</ele>
        <time>2020-05-31T20:54:36Z</time>
      </trkpt>
      <trkpt lat="46.16597" lon="-1.18907">
        <ele>12.9</ele>
        <time>2020-05-31T20:54:37Z</time>
      </trkpt>
      <trkpt lat="46.16599" lon="-1.18917">
        <ele>12.8</ele>
        <time>2020-05-31T20:54:38Z</time>
      </trkpt>
      <trkpt lat="46.16602" lon="-1.18927">
        <ele>12.6</ele>
        <time>2020-05-31T20:54:39Z</time>
      </trkpt>
      <trkpt lat="46.16604" lon="-1.18938">
        <ele>12.5</ele>
        <time>2020-05-31T20:54:40Z</time>
      </trkpt>
      <trkpt lat="46.16606" lon="-1.18949">
        <ele>12.4</ele>
        <time>2020-05-31T20:54:41Z</time>
      </trkpt>
      <trkpt lat="46.16609" lon="-1.18959">
        <ele>12.2</ele>
        <time>2020-05-31T20:54:42Z</time>
      </trkpt>
      <trkpt lat="46.16612" lon="-1.1897">
        <ele>12.1</ele>
        <time>2020-05-31T20:54:43Z</time>
      </trkpt>
      <trkpt lat="46.16614" lon="-1.18981">
        <ele>11.9</ele>
        <time>2020-05-31T20:54:44Z</time>
      </trkpt>
      <trkpt lat="46.16617" lon="-1.18992">
        <ele>11.8</ele>
        <time>2020-05-31T20:54:45Z</time>
      </trkpt>
      <trkpt lat="46.16619" lon="-1.19004">
        <ele>11.6</ele>
        <time>2020-05-31T20:54:46Z</time>
      </trkpt>
      <trkpt lat="46.16622" lon="-1.19015">
        <ele>11.5</ele>
        <time>2020-05-31T20:54:47Z</time>
      </trkpt>
      <trkpt lat="46.16624" lon="-1.19026">
        <ele>11.3</ele>
        <time>2020-05-31T20:54:48Z</time>
      </trkpt>
      <trkpt lat="46.16626" lon="-1.19038">
        <ele>11.1</ele>
        <time>2020-05-31T20:54:49Z</time>
      </trkpt>
      <trkpt lat="46.16629" lon="-1.1905">
        <ele>10.9</ele>
        <time>2020-05-31T20:54:50Z</time>
      </trkpt>
      <trkpt lat="46.16632" lon="-1.19062">
        <ele>10.8</ele>
        <time>2020-05-31T20:54:51Z</time>
      </trkpt>
      <trkpt lat="46.16634" lon="-1.19074">
        <ele>10.7</ele>
        <time>2020-05-31T20:54:52Z</time>
      </trkpt>
      <trkpt lat="46.16637" lon="-1.19086">
        <ele>10.7</ele>
        <time>2020-05-31T20:54:53Z</time>
      </trkpt>
      <trkpt lat="46.16639" lon="-1.19097">
        <ele>10.7</ele>
        <time>2020-05-31T20:54:54Z</time>
      </trkpt>
      <trkpt lat="46.16643" lon="-1.19108">
        <ele>10.6</ele>
        <time>2020-05-31T20:54:55Z</time>
      </trkpt>
      <trkpt lat="46.16646" lon="-1.19119">
        <ele>10.6</ele>
        <time>2020-05-31T20:54:56Z</time>
      </trkpt>
      <trkpt lat="46.1665" lon="-1.19129">
        <ele>10.6</ele>
        <time>2020-05-31T20:54:57Z</time>
      </trkpt>
      <trkpt lat="46.16655" lon="-1.19139">
        <ele>10.7</ele>
        <time>2020-05-31T20:54:58Z</time>
      </trkpt>
      <trkpt lat="46.16661" lon="-1.19147">
        <ele>10.7</ele>
        <time>2020-05-31T20:54:59Z</time>
      </trkpt>
      <trkpt lat="46.16665" lon="-1.19157">
        <ele>10.7</ele>
        <time>2020-05-31T20:55:00Z</time>
      </trkpt>
      <trkpt lat="46.16669" lon="-1.19166">
        <ele>10.7</ele>
        <time>2020-05-31T20:55:01Z</time>
      </trkpt>
      <trkpt lat="46.16673" lon="-1.19176">
        <ele>10.7</ele>
        <time>2020-05-31T20:55:02Z</time>
      </trkpt>
      <trkpt lat="46.16677" lon="-1.19185">
        <ele>10.7</ele>
        <time>2020-05-31T20:55:03Z</time>
      </trkpt>
      <trkpt lat="46.16679" lon="-1.19194">
        <ele>10.7</ele>
        <time>2020-05-31T20:55:04Z</time>
      </trkpt>
      <trkpt lat="46.16682" lon="-1.19204">
        <ele>10.7</ele>
        <time>2020-05-31T20:55:05Z</time>
      </trkpt>
      <trkpt lat="46.16685" lon="-1.19214">
        <ele>10.7</ele>
        <time>2020-05-31T20:55:06Z</time>
      </trkpt>
      <trkpt lat="46.16688" lon="-1.19223">
        <ele>10.7</ele>
        <time>2020-05-31T20:55:07Z</time>
      </trkpt>
      <trkpt lat="46.1669" lon="-1.19233">
        <ele>10.7</ele>
        <time>2020-05-31T20:55:08Z</time>
      </trkpt>
      <trkpt lat="46.16692" lon="-1.19243">
        <ele>10.7</ele>
        <time>2020-05-31T20:55:09Z</time>
      </trkpt>
      <trkpt lat="46.16694" lon="-1.19252">
        <ele>10.7</ele>
        <time>2020-05-31T20:55:10Z</time>
      </trkpt>
      <trkpt lat="46.16696" lon="-1.19262">
        <ele>10.7</ele>
        <time>2020-05-31T20:55:11Z</time>
      </trkpt>
      <trkpt lat="46.16698" lon="-1.19272">
        <ele>10.7</ele>
        <time>2020-05-31T20:55:12Z</time>
      </trkpt>
      <trkpt lat="46.16699" lon="-1.19283">
        <ele>10.7</ele>
        <time>2020-05-31T20:55:13Z</time>
      </trkpt>
      <trkpt lat="46.16701" lon="-1.19293">
        <ele>10.6</ele>
        <time>2020-05-31T20:55:14Z</time>
      </trkpt>
      <trkpt lat="46.16702" lon="-1.19303">
        <ele>10.5</ele>
        <time>2020-05-31T20:55:15Z</time>
      </trkpt>
      <trkpt lat="46.16703" lon="-1.19314">
        <ele>10.4</ele>
        <time>2020-05-31T20:55:16Z</time>
      </trkpt>
      <trkpt lat="46.16704" lon="-1.19325">
        <ele>10.2</ele>
        <time>2020-05-31T20:55:17Z</time>
      </trkpt>
      <trkpt lat="46.16705" lon="-1.19335">
        <ele>10.1</ele>
        <time>2020-05-31T20:55:18Z</time>
      </trkpt>
      <trkpt lat="46.16706" lon="-1.19346">
        <ele>10</ele>
        <time>2020-05-31T20:55:19Z</time>
      </trkpt>
      <trkpt lat="46.16706" lon="-1.19356">
        <ele>9.8</ele>
        <time>2020-05-31T20:55:20Z</time>
      </trkpt>
      <trkpt lat="46.16707" lon="-1.19367">
        <ele>9.8</ele>
        <time>2020-05-31T20:55:21Z</time>
      </trkpt>
      <trkpt lat="46.16707" lon="-1.19378">
        <ele>9.7</ele>
        <time>2020-05-31T20:55:22Z</time>
      </trkpt>
      <trkpt lat="46.16708" lon="-1.19388">
        <ele>9.8</ele>
        <time>2020-05-31T20:55:23Z</time>
      </trkpt>
      <trkpt lat="46.16709" lon="-1.19398">
        <ele>9.8</ele>
        <time>2020-05-31T20:55:24Z</time>
      </trkpt>
      <trkpt lat="46.1671" lon="-1.19408">
        <ele>9.9</ele>
        <time>2020-05-31T20:55:25Z</time>
      </trkpt>
      <trkpt lat="46.16711" lon="-1.19418">
        <ele>10</ele>
        <time>2020-05-31T20:55:26Z</time>
      </trkpt>
      <trkpt lat="46.16713" lon="-1.19428">
        <ele>10.1</ele>
        <time>2020-05-31T20:55:27Z</time>
      </trkpt>
      <trkpt lat="46.16714" lon="-1.19437">
        <ele>10.3</ele>
        <time>2020-05-31T20:55:28Z</time>
      </trkpt>
      <trkpt lat="46.16716" lon="-1.19446">
        <ele>10.4</ele>
        <time>2020-05-31T20:55:29Z</time>
      </trkpt>
      <trkpt lat="46.16718" lon="-1.19455">
        <ele>10.6</ele>
        <time>2020-05-31T20:55:30Z</time>
      </trkpt>
      <trkpt lat="46.1672" lon="-1.19463">
        <ele>10.8</ele>
        <time>2020-05-31T20:55:31Z</time>
      </trkpt>
      <trkpt lat="46.16722" lon="-1.19471">
        <ele>11.1</ele>
        <time>2020-05-31T20:55:32Z</time>
      </trkpt>
      <trkpt lat="46.16724" lon="-1.1948">
        <ele>11.3</ele>
        <time>2020-05-31T20:55:33Z</time>
      </trkpt>
      <trkpt lat="46.16725" lon="-1.19488">
        <ele>11.6</ele>
        <time>2020-05-31T20:55:34Z</time>
      </trkpt>
      <trkpt lat="46.16728" lon="-1.19495">
        <ele>11.8</ele>
        <time>2020-05-31T20:55:35Z</time>
      </trkpt>
      <trkpt lat="46.1673" lon="-1.19502">
        <ele>11.9</ele>
        <time>2020-05-31T20:55:36Z</time>
      </trkpt>
      <trkpt lat="46.16733" lon="-1.19507">
        <ele>12</ele>
        <time>2020-05-31T20:55:37Z</time>
      </trkpt>
      <trkpt lat="46.16737" lon="-1.19509">
        <ele>12.1</ele>
        <time>2020-05-31T20:55:38Z</time>
      </trkpt>
      <trkpt lat="46.16741" lon="-1.19509">
        <ele>12.1</ele>
        <time>2020-05-31T20:55:39Z</time>
      </trkpt>
      <trkpt lat="46.16746" lon="-1.19508">
        <ele>12.2</ele>
        <time>2020-05-31T20:55:40Z</time>
      </trkpt>
      <trkpt lat="46.16752" lon="-1.19507">
        <ele>12.2</ele>
        <time>2020-05-31T20:55:41Z</time>
      </trkpt>
      <trkpt lat="46.16757" lon="-1.19507">
        <ele>12.4</ele>
        <time>2020-05-31T20:55:42Z</time>
      </trkpt>
      <trkpt lat="46.16763" lon="-1.19506">
        <ele>12.5</ele>
        <time>2020-05-31T20:55:43Z</time>
      </trkpt>
      <trkpt lat="46.16769" lon="-1.19505">
        <ele>12.6</ele>
        <time>2020-05-31T20:55:44Z</time>
      </trkpt>
      <trkpt lat="46.16774" lon="-1.19504">
        <ele>12.7</ele>
        <time>2020-05-31T20:55:45Z</time>
      </trkpt>
      <trkpt lat="46.1678" lon="-1.19504">
        <ele>12.8</ele>
        <time>2020-05-31T20:55:46Z</time>
      </trkpt>
      <trkpt lat="46.16785" lon="-1.19504">
        <ele>12.8</ele>
        <time>2020-05-31T20:55:47Z</time>
      </trkpt>
      <trkpt lat="46.16791" lon="-1.19504">
        <ele>12.9</ele>
        <time>2020-05-31T20:55:48Z</time>
      </trkpt>
      <trkpt lat="46.16797" lon="-1.19504">
        <ele>12.9</ele>
        <time>2020-05-31T20:55:49Z</time>
      </trkpt>
      <trkpt lat="46.16802" lon="-1.19504">
        <ele>13</ele>
        <time>2020-05-31T20:55:50Z</time>
      </trkpt>
      <trkpt lat="46.16809" lon="-1.19504">
        <ele>13</ele>
        <time>2020-05-31T20:55:51Z</time>
      </trkpt>
      <trkpt lat="46.16815" lon="-1.19506">
        <ele>13.1</ele>
        <time>2020-05-31T20:55:52Z</time>
      </trkpt>
      <trkpt lat="46.16821" lon="-1.19507">
        <ele>13.2</ele>
        <time>2020-05-31T20:55:53Z</time>
      </trkpt>
      <trkpt lat="46.16827" lon="-1.19508">
        <ele>13.3</ele>
        <time>2020-05-31T20:55:54Z</time>
      </trkpt>
      <trkpt lat="46.16832" lon="-1.19509">
        <ele>13.4</ele>
        <time>2020-05-31T20:55:55Z</time>
      </trkpt>
      <trkpt lat="46.16838" lon="-1.1951">
        <ele>13.6</ele>
        <time>2020-05-31T20:55:56Z</time>
      </trkpt>
      <trkpt lat="46.16843" lon="-1.1951">
        <ele>13.7</ele>
        <time>2020-05-31T20:55:57Z</time>
      </trkpt>
      <trkpt lat="46.16849" lon="-1.19509">
        <ele>13.8</ele>
        <time>2020-05-31T20:55:58Z</time>
      </trkpt>
      <trkpt lat="46.16855" lon="-1.19508">
        <ele>13.9</ele>
        <time>2020-05-31T20:55:59Z</time>
      </trkpt>
      <trkpt lat="46.16861" lon="-1.19508">
        <ele>14</ele>
        <time>2020-05-31T20:56:00Z</time>
      </trkpt>
      <trkpt lat="46.16866" lon="-1.19509">
        <ele>14.1</ele>
        <time>2020-05-31T20:56:01Z</time>
      </trkpt>
      <trkpt lat="46.16872" lon="-1.1951">
        <ele>14.2</ele>
        <time>2020-05-31T20:56:02Z</time>
      </trkpt>
      <trkpt lat="46.16878" lon="-1.19511">
        <ele>14.4</ele>
        <time>2020-05-31T20:56:03Z</time>
      </trkpt>
      <trkpt lat="46.16884" lon="-1.19512">
        <ele>14.5</ele>
        <time>2020-05-31T20:56:04Z</time>
      </trkpt>
      <trkpt lat="46.1689" lon="-1.19514">
        <ele>14.5</ele>
        <time>2020-05-31T20:56:05Z</time>
      </trkpt>
      <trkpt lat="46.16896" lon="-1.19514">
        <ele>14.5</ele>
        <time>2020-05-31T20:56:06Z</time>
      </trkpt>
      <trkpt lat="46.16902" lon="-1.19514">
        <ele>14.5</ele>
        <time>2020-05-31T20:56:07Z</time>
      </trkpt>
      <trkpt lat="46.16909" lon="-1.19515">
        <ele>14.6</ele>
        <time>2020-05-31T20:56:08Z</time>
      </trkpt>
      <trkpt lat="46.16916" lon="-1.19516">
        <ele>14.7</ele>
        <time>2020-05-31T20:56:09Z</time>
      </trkpt>
      <trkpt lat="46.16923" lon="-1.19517">
        <ele>14.8</ele>
        <time>2020-05-31T20:56:10Z</time>
      </trkpt>
      <trkpt lat="46.1693" lon="-1.19517">
        <ele>14.9</ele>
        <time>2020-05-31T20:56:11Z</time>
      </trkpt>
      <trkpt lat="46.16937" lon="-1.19517">
        <ele>15</ele>
        <time>2020-05-31T20:56:12Z</time>
      </trkpt>
      <trkpt lat="46.16944" lon="-1.19517">
        <ele>15.1</ele>
        <time>2020-05-31T20:56:13Z</time>
      </trkpt>
      <trkpt lat="46.16952" lon="-1.19518">
        <ele>15.2</ele>
        <time>2020-05-31T20:56:14Z</time>
      </trkpt>
      <trkpt lat="46.16959" lon="-1.19518">
        <ele>15.2</ele>
        <time>2020-05-31T20:56:15Z</time>
      </trkpt>
      <trkpt lat="46.16967" lon="-1.19519">
        <ele>15.2</ele>
        <time>2020-05-31T20:56:16Z</time>
      </trkpt>
      <trkpt lat="46.16974" lon="-1.19519">
        <ele>15.3</ele>
        <time>2020-05-31T20:56:17Z</time>
      </trkpt>
      <trkpt lat="46.16981" lon="-1.1952">
        <ele>15.3</ele>
        <time>2020-05-31T20:56:18Z</time>
      </trkpt>
      <trkpt lat="46.16988" lon="-1.1952">
        <ele>15.4</ele>
        <time>2020-05-31T20:56:19Z</time>
      </trkpt>
      <trkpt lat="46.16995" lon="-1.19519">
        <ele>15.4</ele>
        <time>2020-05-31T20:56:20Z</time>
      </trkpt>
      <trkpt lat="46.17002" lon="-1.19521">
        <ele>15.4</ele>
        <time>2020-05-31T20:56:21Z</time>
      </trkpt>
      <trkpt lat="46.17007" lon="-1.19521">
        <ele>15.5</ele>
        <time>2020-05-31T20:56:22Z</time>
      </trkpt>
      <trkpt lat="46.17013" lon="-1.19523">
        <ele>15.5</ele>
        <time>2020-05-31T20:56:23Z</time>
      </trkpt>
      <trkpt lat="46.17019" lon="-1.19525">
        <ele>15.6</ele>
        <time>2020-05-31T20:56:24Z</time>
      </trkpt>
      <trkpt lat="46.17025" lon="-1.19526">
        <ele>15.6</ele>
        <time>2020-05-31T20:56:25Z</time>
      </trkpt>
      <trkpt lat="46.17031" lon="-1.19526">
        <ele>15.6</ele>
        <time>2020-05-31T20:56:26Z</time>
      </trkpt>
      <trkpt lat="46.17038" lon="-1.19526">
        <ele>15.6</ele>
        <time>2020-05-31T20:56:27Z</time>
      </trkpt>
      <trkpt lat="46.17044" lon="-1.19526">
        <ele>15.5</ele>
        <time>2020-05-31T20:56:28Z</time>
      </trkpt>
      <trkpt lat="46.1705" lon="-1.19524">
        <ele>15.5</ele>
        <time>2020-05-31T20:56:29Z</time>
      </trkpt>
      <trkpt lat="46.17056" lon="-1.19522">
        <ele>15.5</ele>
        <time>2020-05-31T20:56:30Z</time>
      </trkpt>
      <trkpt lat="46.17062" lon="-1.19522">
        <ele>15.5</ele>
        <time>2020-05-31T20:56:31Z</time>
      </trkpt>
      <trkpt lat="46.17068" lon="-1.19525">
        <ele>15.5</ele>
        <time>2020-05-31T20:56:32Z</time>
      </trkpt>
      <trkpt lat="46.17073" lon="-1.19532">
        <ele>15.6</ele>
        <time>2020-05-31T20:56:33Z</time>
      </trkpt>
      <trkpt lat="46.17079" lon="-1.19537">
        <ele>15.7</ele>
        <time>2020-05-31T20:56:34Z</time>
      </trkpt>
      <trkpt lat="46.17085" lon="-1.19542">
        <ele>15.7</ele>
        <time>2020-05-31T20:56:35Z</time>
      </trkpt>
      <trkpt lat="46.17091" lon="-1.19546">
        <ele>15.8</ele>
        <time>2020-05-31T20:56:36Z</time>
      </trkpt>
      <trkpt lat="46.17098" lon="-1.19551">
        <ele>15.9</ele>
        <time>2020-05-31T20:56:37Z</time>
      </trkpt>
      <trkpt lat="46.17105" lon="-1.19556">
        <ele>16</ele>
        <time>2020-05-31T20:56:38Z</time>
      </trkpt>
      <trkpt lat="46.17113" lon="-1.1956">
        <ele>15.9</ele>
        <time>2020-05-31T20:56:39Z</time>
      </trkpt>
      <trkpt lat="46.17121" lon="-1.19563">
        <ele>15.8</ele>
        <time>2020-05-31T20:56:40Z</time>
      </trkpt>
      <trkpt lat="46.17129" lon="-1.19566">
        <ele>15.8</ele>
        <time>2020-05-31T20:56:41Z</time>
      </trkpt>
      <trkpt lat="46.17137" lon="-1.1957">
        <ele>15.7</ele>
        <time>2020-05-31T20:56:42Z</time>
      </trkpt>
      <trkpt lat="46.17145" lon="-1.19574">
        <ele>15.7</ele>
        <time>2020-05-31T20:56:43Z</time>
      </trkpt>
      <trkpt lat="46.17153" lon="-1.19579">
        <ele>15.6</ele>
        <time>2020-05-31T20:56:44Z</time>
      </trkpt>
      <trkpt lat="46.17162" lon="-1.19583">
        <ele>15.6</ele>
        <time>2020-05-31T20:56:45Z</time>
      </trkpt>
      <trkpt lat="46.1717" lon="-1.19586">
        <ele>15.6</ele>
        <time>2020-05-31T20:56:46Z</time>
      </trkpt>
      <trkpt lat="46.17179" lon="-1.19589">
        <ele>15.5</ele>
        <time>2020-05-31T20:56:47Z</time>
      </trkpt>
      <trkpt lat="46.17187" lon="-1.19593">
        <ele>15.4</ele>
        <time>2020-05-31T20:56:48Z</time>
      </trkpt>
      <trkpt lat="46.17195" lon="-1.19595">
        <ele>15.3</ele>
        <time>2020-05-31T20:56:49Z</time>
      </trkpt>
      <trkpt lat="46.17203" lon="-1.19598">
        <ele>15.3</ele>
        <time>2020-05-31T20:56:50Z</time>
      </trkpt>
      <trkpt lat="46.17211" lon="-1.19601">
        <ele>15.1</ele>
        <time>2020-05-31T20:56:51Z</time>
      </trkpt>
      <trkpt lat="46.17219" lon="-1.19603">
        <ele>15</ele>
        <time>2020-05-31T20:56:52Z</time>
      </trkpt>
      <trkpt lat="46.17227" lon="-1.19607">
        <ele>14.9</ele>
        <time>2020-05-31T20:56:53Z</time>
      </trkpt>
      <trkpt lat="46.17235" lon="-1.19609">
        <ele>14.7</ele>
        <time>2020-05-31T20:56:54Z</time>
      </trkpt>
      <trkpt lat="46.17243" lon="-1.19612">
        <ele>14.7</ele>
        <time>2020-05-31T20:56:55Z</time>
      </trkpt>
      <trkpt lat="46.1725" lon="-1.19614">
        <ele>14.8</ele>
        <time>2020-05-31T20:56:56Z</time>
      </trkpt>
      <trkpt lat="46.17257" lon="-1.19617">
        <ele>14.7</ele>
        <time>2020-05-31T20:56:57Z</time>
      </trkpt>
      <trkpt lat="46.17264" lon="-1.19619">
        <ele>14.7</ele>
        <time>2020-05-31T20:56:58Z</time>
      </trkpt>
      <trkpt lat="46.17271" lon="-1.19621">
        <ele>14.5</ele>
        <time>2020-05-31T20:56:59Z</time>
      </trkpt>
      <trkpt lat="46.17278" lon="-1.19623">
        <ele>14.4</ele>
        <time>2020-05-31T20:57:00Z</time>
      </trkpt>
      <trkpt lat="46.17285" lon="-1.19625">
        <ele>14.2</ele>
        <time>2020-05-31T20:57:01Z</time>
      </trkpt>
      <trkpt lat="46.17292" lon="-1.19628">
        <ele>14.1</ele>
        <time>2020-05-31T20:57:02Z</time>
      </trkpt>
      <trkpt lat="46.17299" lon="-1.1963">
        <ele>13.9</ele>
        <time>2020-05-31T20:57:03Z</time>
      </trkpt>
      <trkpt lat="46.17306" lon="-1.19632">
        <ele>13.9</ele>
        <time>2020-05-31T20:57:04Z</time>
      </trkpt>
      <trkpt lat="46.17313" lon="-1.19634">
        <ele>13.8</ele>
        <time>2020-05-31T20:57:05Z</time>
      </trkpt>
      <trkpt lat="46.1732" lon="-1.19637">
        <ele>13.8</ele>
        <time>2020-05-31T20:57:06Z</time>
      </trkpt>
      <trkpt lat="46.17327" lon="-1.1964">
        <ele>13.7</ele>
        <time>2020-05-31T20:57:07Z</time>
      </trkpt>
      <trkpt lat="46.17334" lon="-1.19643">
        <ele>13.6</ele>
        <time>2020-05-31T20:57:08Z</time>
      </trkpt>
      <trkpt lat="46.17341" lon="-1.19646">
        <ele>13.6</ele>
        <time>2020-05-31T20:57:09Z</time>
      </trkpt>
      <trkpt lat="46.17348" lon="-1.19649">
        <ele>13.5</ele>
        <time>2020-05-31T20:57:10Z</time>
      </trkpt>
      <trkpt lat="46.17355" lon="-1.19651">
        <ele>13.4</ele>
        <time>2020-05-31T20:57:11Z</time>
      </trkpt>
      <trkpt lat="46.17362" lon="-1.19654">
        <ele>13.3</ele>
        <time>2020-05-31T20:57:12Z</time>
      </trkpt>
      <trkpt lat="46.1737" lon="-1.19656">
        <ele>13.2</ele>
        <time>2020-05-31T20:57:13Z</time>
      </trkpt>
      <trkpt lat="46.17377" lon="-1.19659">
        <ele>13.1</ele>
        <time>2020-05-31T20:57:14Z</time>
      </trkpt>
      <trkpt lat="46.17384" lon="-1.19662">
        <ele>13</ele>
        <time>2020-05-31T20:57:15Z</time>
      </trkpt>
      <trkpt lat="46.17391" lon="-1.19665">
        <ele>12.9</ele>
        <time>2020-05-31T20:57:16Z</time>
      </trkpt>
      <trkpt lat="46.17398" lon="-1.19669">
        <ele>12.8</ele>
        <time>2020-05-31T20:57:17Z</time>
      </trkpt>
      <trkpt lat="46.17405" lon="-1.19671">
        <ele>12.7</ele>
        <time>2020-05-31T20:57:18Z</time>
      </trkpt>
      <trkpt lat="46.17413" lon="-1.19674">
        <ele>12.6</ele>
        <time>2020-05-31T20:57:19Z</time>
      </trkpt>
      <trkpt lat="46.1742" lon="-1.19676">
        <ele>12.5</ele>
        <time>2020-05-31T20:57:20Z</time>
      </trkpt>
      <trkpt lat="46.17427" lon="-1.19679">
        <ele>12.5</ele>
        <time>2020-05-31T20:57:21Z</time>
      </trkpt>
      <trkpt lat="46.17435" lon="-1.19682">
        <ele>12.5</ele>
        <time>2020-05-31T20:57:22Z</time>
      </trkpt>
      <trkpt lat="46.17442" lon="-1.19685">
        <ele>12.5</ele>
        <time>2020-05-31T20:57:23Z</time>
      </trkpt>
      <trkpt lat="46.17449" lon="-1.19687">
        <ele>12.5</ele>
        <time>2020-05-31T20:57:24Z</time>
      </trkpt>
      <trkpt lat="46.17456" lon="-1.1969">
        <ele>12.5</ele>
        <time>2020-05-31T20:57:25Z</time>
      </trkpt>
      <trkpt lat="46.17462" lon="-1.19693">
        <ele>12.5</ele>
        <time>2020-05-31T20:57:26Z</time>
      </trkpt>
      <trkpt lat="46.17468" lon="-1.19695">
        <ele>12.6</ele>
        <time>2020-05-31T20:57:27Z</time>
      </trkpt>
      <trkpt lat="46.17474" lon="-1.19697">
        <ele>12.6</ele>
        <time>2020-05-31T20:57:28Z</time>
      </trkpt>
      <trkpt lat="46.17479" lon="-1.19701">
        <ele>12.6</ele>
        <time>2020-05-31T20:57:29Z</time>
      </trkpt>
      <trkpt lat="46.17482" lon="-1.19705">
        <ele>12.6</ele>
        <time>2020-05-31T20:57:30Z</time>
      </trkpt>
      <trkpt lat="46.17484" lon="-1.19711">
        <ele>12.6</ele>
        <time>2020-05-31T20:57:31Z</time>
      </trkpt>
      <trkpt lat="46.17484" lon="-1.19718">
        <ele>12.6</ele>
        <time>2020-05-31T20:57:32Z</time>
      </trkpt>
      <trkpt lat="46.17481" lon="-1.19725">
        <ele>12.5</ele>
        <time>2020-05-31T20:57:33Z</time>
      </trkpt>
      <trkpt lat="46.17478" lon="-1.19732">
        <ele>12.5</ele>
        <time>2020-05-31T20:57:34Z</time>
      </trkpt>
      <trkpt lat="46.17475" lon="-1.19739">
        <ele>12.4</ele>
        <time>2020-05-31T20:57:35Z</time>
      </trkpt>
      <trkpt lat="46.17473" lon="-1.19747">
        <ele>12.3</ele>
        <time>2020-05-31T20:57:36Z</time>
      </trkpt>
      <trkpt lat="46.17469" lon="-1.19755">
        <ele>12.2</ele>
        <time>2020-05-31T20:57:37Z</time>
      </trkpt>
      <trkpt lat="46.17466" lon="-1.19764">
        <ele>12.1</ele>
        <time>2020-05-31T20:57:38Z</time>
      </trkpt>
      <trkpt lat="46.17462" lon="-1.19772">
        <ele>12</ele>
        <time>2020-05-31T20:57:39Z</time>
      </trkpt>
      <trkpt lat="46.17459" lon="-1.1978">
        <ele>11.9</ele>
        <time>2020-05-31T20:57:40Z</time>
      </trkpt>
      <trkpt lat="46.17455" lon="-1.19789">
        <ele>11.9</ele>
        <time>2020-05-31T20:57:41Z</time>
      </trkpt>
      <trkpt lat="46.17451" lon="-1.19797">
        <ele>11.8</ele>
        <time>2020-05-31T20:57:42Z</time>
      </trkpt>
      <trkpt lat="46.17447" lon="-1.19806">
        <ele>11.7</ele>
        <time>2020-05-31T20:57:43Z</time>
      </trkpt>
      <trkpt lat="46.17444" lon="-1.19816">
        <ele>11.6</ele>
        <time>2020-05-31T20:57:44Z</time>
      </trkpt>
      <trkpt lat="46.1744" lon="-1.19825">
        <ele>11.5</ele>
        <time>2020-05-31T20:57:45Z</time>
      </trkpt>
      <trkpt lat="46.17436" lon="-1.19834">
        <ele>11.4</ele>
        <time>2020-05-31T20:57:46Z</time>
      </trkpt>
      <trkpt lat="46.17433" lon="-1.19843">
        <ele>11.3</ele>
        <time>2020-05-31T20:57:47Z</time>
      </trkpt>
      <trkpt lat="46.1743" lon="-1.19853">
        <ele>11.3</ele>
        <time>2020-05-31T20:57:48Z</time>
      </trkpt>
      <trkpt lat="46.17426" lon="-1.19862">
        <ele>11.2</ele>
        <time>2020-05-31T20:57:49Z</time>
      </trkpt>
      <trkpt lat="46.17423" lon="-1.19871">
        <ele>11.1</ele>
        <time>2020-05-31T20:57:50Z</time>
      </trkpt>
      <trkpt lat="46.1742" lon="-1.19881">
        <ele>11.1</ele>
        <time>2020-05-31T20:57:51Z</time>
      </trkpt>
      <trkpt lat="46.17416" lon="-1.1989">
        <ele>10.9</ele>
        <time>2020-05-31T20:57:52Z</time>
      </trkpt>
      <trkpt lat="46.17412" lon="-1.199">
        <ele>10.9</ele>
        <time>2020-05-31T20:57:53Z</time>
      </trkpt>
      <trkpt lat="46.17409" lon="-1.19909">
        <ele>10.8</ele>
        <time>2020-05-31T20:57:54Z</time>
      </trkpt>
      <trkpt lat="46.17405" lon="-1.19919">
        <ele>10.7</ele>
        <time>2020-05-31T20:57:55Z</time>
      </trkpt>
      <trkpt lat="46.17401" lon="-1.19928">
        <ele>10.5</ele>
        <time>2020-05-31T20:57:56Z</time>
      </trkpt>
      <trkpt lat="46.17398" lon="-1.19936">
        <ele>10.4</ele>
        <time>2020-05-31T20:57:57Z</time>
      </trkpt>
      <trkpt lat="46.17396" lon="-1.19943">
        <ele>10.4</ele>
        <time>2020-05-31T20:57:58Z</time>
      </trkpt>
      <trkpt lat="46.17393" lon="-1.1995">
        <ele>10.3</ele>
        <time>2020-05-31T20:57:59Z</time>
      </trkpt>
      <trkpt lat="46.1739" lon="-1.19956">
        <ele>10.2</ele>
        <time>2020-05-31T20:58:00Z</time>
      </trkpt>
      <trkpt lat="46.17387" lon="-1.19961">
        <ele>10.2</ele>
        <time>2020-05-31T20:58:01Z</time>
      </trkpt>
      <trkpt lat="46.17385" lon="-1.19966">
        <ele>10.1</ele>
        <time>2020-05-31T20:58:02Z</time>
      </trkpt>
      <trkpt lat="46.17384" lon="-1.19972">
        <ele>10.1</ele>
        <time>2020-05-31T20:58:03Z</time>
      </trkpt>
      <trkpt lat="46.17387" lon="-1.19978">
        <ele>10.1</ele>
        <time>2020-05-31T20:58:04Z</time>
      </trkpt>
      <trkpt lat="46.17387" lon="-1.19985">
        <ele>10</ele>
        <time>2020-05-31T20:58:05Z</time>
      </trkpt>
      <trkpt lat="46.17389" lon="-1.19993">
        <ele>10</ele>
        <time>2020-05-31T20:58:06Z</time>
      </trkpt>
      <trkpt lat="46.1739" lon="-1.20001">
        <ele>9.8</ele>
        <time>2020-05-31T20:58:07Z</time>
      </trkpt>
      <trkpt lat="46.17391" lon="-1.20009">
        <ele>9.7</ele>
        <time>2020-05-31T20:58:08Z</time>
      </trkpt>
      <trkpt lat="46.17392" lon="-1.20017">
        <ele>9.6</ele>
        <time>2020-05-31T20:58:09Z</time>
      </trkpt>
      <trkpt lat="46.17391" lon="-1.20025">
        <ele>9.5</ele>
        <time>2020-05-31T20:58:10Z</time>
      </trkpt>
      <trkpt lat="46.17389" lon="-1.20034">
        <ele>9.4</ele>
        <time>2020-05-31T20:58:11Z</time>
      </trkpt>
      <trkpt lat="46.17387" lon="-1.20044">
        <ele>9.3</ele>
        <time>2020-05-31T20:58:12Z</time>
      </trkpt>
      <trkpt lat="46.17385" lon="-1.20053">
        <ele>9.2</ele>
        <time>2020-05-31T20:58:13Z</time>
      </trkpt>
      <trkpt lat="46.17384" lon="-1.20063">
        <ele>9.1</ele>
        <time>2020-05-31T20:58:14Z</time>
      </trkpt>
      <trkpt lat="46.17384" lon="-1.20073">
        <ele>9</ele>
        <time>2020-05-31T20:58:15Z</time>
      </trkpt>
      <trkpt lat="46.17387" lon="-1.20083">
        <ele>8.9</ele>
        <time>2020-05-31T20:58:16Z</time>
      </trkpt>
      <trkpt lat="46.17389" lon="-1.20093">
        <ele>8.9</ele>
        <time>2020-05-31T20:58:17Z</time>
      </trkpt>
      <trkpt lat="46.17392" lon="-1.20103">
        <ele>8.8</ele>
        <time>2020-05-31T20:58:18Z</time>
      </trkpt>
      <trkpt lat="46.17395" lon="-1.20114">
        <ele>8.8</ele>
        <time>2020-05-31T20:58:19Z</time>
      </trkpt>
      <trkpt lat="46.17398" lon="-1.20124">
        <ele>8.8</ele>
        <time>2020-05-31T20:58:20Z</time>
      </trkpt>
      <trkpt lat="46.17401" lon="-1.20133">
        <ele>8.8</ele>
        <time>2020-05-31T20:58:21Z</time>
      </trkpt>
      <trkpt lat="46.17405" lon="-1.20143">
        <ele>8.8</ele>
        <time>2020-05-31T20:58:22Z</time>
      </trkpt>
      <trkpt lat="46.17408" lon="-1.20153">
        <ele>8.8</ele>
        <time>2020-05-31T20:58:23Z</time>
      </trkpt>
      <trkpt lat="46.1741" lon="-1.20162">
        <ele>8.7</ele>
        <time>2020-05-31T20:58:24Z</time>
      </trkpt>
      <trkpt lat="46.17413" lon="-1.20172">
        <ele>8.7</ele>
        <time>2020-05-31T20:58:25Z</time>
      </trkpt>
      <trkpt lat="46.17416" lon="-1.20183">
        <ele>8.7</ele>
        <time>2020-05-31T20:58:26Z</time>
      </trkpt>
      <trkpt lat="46.17418" lon="-1.20193">
        <ele>8.7</ele>
        <time>2020-05-31T20:58:27Z</time>
      </trkpt>
      <trkpt lat="46.17421" lon="-1.20204">
        <ele>8.8</ele>
        <time>2020-05-31T20:58:28Z</time>
      </trkpt>
      <trkpt lat="46.17423" lon="-1.20214">
        <ele>8.8</ele>
        <time>2020-05-31T20:58:29Z</time>
      </trkpt>
      <trkpt lat="46.17425" lon="-1.20225">
        <ele>8.8</ele>
        <time>2020-05-31T20:58:30Z</time>
      </trkpt>
      <trkpt lat="46.17426" lon="-1.20235">
        <ele>8.9</ele>
        <time>2020-05-31T20:58:31Z</time>
      </trkpt>
      <trkpt lat="46.17427" lon="-1.20245">
        <ele>8.9</ele>
        <time>2020-05-31T20:58:32Z</time>
      </trkpt>
      <trkpt lat="46.17427" lon="-1.20254">
        <ele>9</ele>
        <time>2020-05-31T20:58:33Z</time>
      </trkpt>
      <trkpt lat="46.17428" lon="-1.2026">
        <ele>9</ele>
        <time>2020-05-31T20:58:34Z</time>
      </trkpt>
      <trkpt lat="46.1743" lon="-1.20266">
        <ele>9.1</ele>
        <time>2020-05-31T20:58:35Z</time>
      </trkpt>
      <trkpt lat="46.17432" lon="-1.20273">
        <ele>9.1</ele>
        <time>2020-05-31T20:58:36Z</time>
      </trkpt>
      <trkpt lat="46.17433" lon="-1.20281">
        <ele>9.2</ele>
        <time>2020-05-31T20:58:37Z</time>
      </trkpt>
      <trkpt lat="46.17436" lon="-1.20287">
        <ele>9.2</ele>
        <time>2020-05-31T20:58:38Z</time>
      </trkpt>
      <trkpt lat="46.17439" lon="-1.20294">
        <ele>9.3</ele>
        <time>2020-05-31T20:58:39Z</time>
      </trkpt>
      <trkpt lat="46.17442" lon="-1.20302">
        <ele>9.4</ele>
        <time>2020-05-31T20:58:40Z</time>
      </trkpt>
      <trkpt lat="46.17444" lon="-1.20309">
        <ele>9.5</ele>
        <time>2020-05-31T20:58:41Z</time>
      </trkpt>
      <trkpt lat="46.17446" lon="-1.20317">
        <ele>9.6</ele>
        <time>2020-05-31T20:58:42Z</time>
      </trkpt>
      <trkpt lat="46.17448" lon="-1.20325">
        <ele>9.7</ele>
        <time>2020-05-31T20:58:43Z</time>
      </trkpt>
      <trkpt lat="46.17451" lon="-1.20332">
        <ele>9.8</ele>
        <time>2020-05-31T20:58:44Z</time>
      </trkpt>
      <trkpt lat="46.17453" lon="-1.20341">
        <ele>9.9</ele>
        <time>2020-05-31T20:58:45Z</time>
      </trkpt>
      <trkpt lat="46.17455" lon="-1.20349">
        <ele>9.9</ele>
        <time>2020-05-31T20:58:46Z</time>
      </trkpt>
      <trkpt lat="46.17457" lon="-1.20358">
        <ele>10</ele>
        <time>2020-05-31T20:58:47Z</time>
      </trkpt>
      <trkpt lat="46.17459" lon="-1.20365">
        <ele>10.1</ele>
        <time>2020-05-31T20:58:48Z</time>
      </trkpt>
      <trkpt lat="46.17462" lon="-1.20373">
        <ele>10.2</ele>
        <time>2020-05-31T20:58:49Z</time>
      </trkpt>
      <trkpt lat="46.17465" lon="-1.20382">
        <ele>10.3</ele>
        <time>2020-05-31T20:58:50Z</time>
      </trkpt>
      <trkpt lat="46.17467" lon="-1.20389">
        <ele>10.4</ele>
        <time>2020-05-31T20:58:51Z</time>
      </trkpt>
      <trkpt lat="46.17469" lon="-1.20397">
        <ele>10.5</ele>
        <time>2020-05-31T20:58:52Z</time>
      </trkpt>
      <trkpt lat="46.17472" lon="-1.20405">
        <ele>10.6</ele>
        <time>2020-05-31T20:58:53Z</time>
      </trkpt>
      <trkpt lat="46.17474" lon="-1.20414">
        <ele>10.7</ele>
        <time>2020-05-31T20:58:54Z</time>
      </trkpt>
      <trkpt lat="46.17476" lon="-1.20423">
        <ele>10.8</ele>
        <time>2020-05-31T20:58:55Z</time>
      </trkpt>
      <trkpt lat="46.17478" lon="-1.20431">
        <ele>11</ele>
        <time>2020-05-31T20:58:56Z</time>
      </trkpt>
      <trkpt lat="46.1748" lon="-1.2044">
        <ele>11.1</ele>
        <time>2020-05-31T20:58:57Z</time>
      </trkpt>
      <trkpt lat="46.17483" lon="-1.2045">
        <ele>11.2</ele>
        <time>2020-05-31T20:58:58Z</time>
      </trkpt>
      <trkpt lat="46.17486" lon="-1.20457">
        <ele>11.2</ele>
        <time>2020-05-31T20:58:59Z</time>
      </trkpt>
      <trkpt lat="46.17487" lon="-1.20462">
        <ele>11.3</ele>
        <time>2020-05-31T20:59:00Z</time>
      </trkpt>
      <trkpt lat="46.17488" lon="-1.20471">
        <ele>11.4</ele>
        <time>2020-05-31T20:59:01Z</time>
      </trkpt>
      <trkpt lat="46.1749" lon="-1.20478">
        <ele>11.4</ele>
        <time>2020-05-31T20:59:02Z</time>
      </trkpt>
      <trkpt lat="46.17492" lon="-1.20488">
        <ele>11.5</ele>
        <time>2020-05-31T20:59:03Z</time>
      </trkpt>
      <trkpt lat="46.17495" lon="-1.20497">
        <ele>11.6</ele>
        <time>2020-05-31T20:59:04Z</time>
      </trkpt>
      <trkpt lat="46.17498" lon="-1.20506">
        <ele>11.7</ele>
        <time>2020-05-31T20:59:05Z</time>
      </trkpt>
      <trkpt lat="46.17501" lon="-1.20514">
        <ele>11.7</ele>
        <time>2020-05-31T20:59:06Z</time>
      </trkpt>
      <trkpt lat="46.17504" lon="-1.20522">
        <ele>11.8</ele>
        <time>2020-05-31T20:59:07Z</time>
      </trkpt>
      <trkpt lat="46.17507" lon="-1.20532">
        <ele>11.8</ele>
        <time>2020-05-31T20:59:08Z</time>
      </trkpt>
      <trkpt lat="46.17509" lon="-1.20541">
        <ele>11.9</ele>
        <time>2020-05-31T20:59:09Z</time>
      </trkpt>
      <trkpt lat="46.17511" lon="-1.2055">
        <ele>12</ele>
        <time>2020-05-31T20:59:10Z</time>
      </trkpt>
      <trkpt lat="46.17514" lon="-1.20558">
        <ele>12.1</ele>
        <time>2020-05-31T20:59:11Z</time>
      </trkpt>
      <trkpt lat="46.17516" lon="-1.20568">
        <ele>12.2</ele>
        <time>2020-05-31T20:59:12Z</time>
      </trkpt>
      <trkpt lat="46.17519" lon="-1.20575">
        <ele>12.3</ele>
        <time>2020-05-31T20:59:13Z</time>
      </trkpt>
      <trkpt lat="46.17522" lon="-1.20584">
        <ele>12.4</ele>
        <time>2020-05-31T20:59:14Z</time>
      </trkpt>
      <trkpt lat="46.17524" lon="-1.20593">
        <ele>12.5</ele>
        <time>2020-05-31T20:59:15Z</time>
      </trkpt>
      <trkpt lat="46.17525" lon="-1.20602">
        <ele>12.6</ele>
        <time>2020-05-31T20:59:16Z</time>
      </trkpt>
      <trkpt lat="46.17524" lon="-1.20612">
        <ele>12.7</ele>
        <time>2020-05-31T20:59:17Z</time>
      </trkpt>
      <trkpt lat="46.17524" lon="-1.2062">
        <ele>12.8</ele>
        <time>2020-05-31T20:59:18Z</time>
      </trkpt>
      <trkpt lat="46.17525" lon="-1.20629">
        <ele>12.8</ele>
        <time>2020-05-31T20:59:19Z</time>
      </trkpt>
      <trkpt lat="46.17527" lon="-1.20638">
        <ele>12.9</ele>
        <time>2020-05-31T20:59:20Z</time>
      </trkpt>
      <trkpt lat="46.17529" lon="-1.20646">
        <ele>12.9</ele>
        <time>2020-05-31T20:59:21Z</time>
      </trkpt>
      <trkpt lat="46.17532" lon="-1.20655">
        <ele>13</ele>
        <time>2020-05-31T20:59:22Z</time>
      </trkpt>
      <trkpt lat="46.17536" lon="-1.20665">
        <ele>13</ele>
        <time>2020-05-31T20:59:23Z</time>
      </trkpt>
      <trkpt lat="46.17538" lon="-1.20674">
        <ele>13</ele>
        <time>2020-05-31T20:59:24Z</time>
      </trkpt>
      <trkpt lat="46.17541" lon="-1.20681">
        <ele>13</ele>
        <time>2020-05-31T20:59:25Z</time>
      </trkpt>
      <trkpt lat="46.17544" lon="-1.20688">
        <ele>13</ele>
        <time>2020-05-31T20:59:26Z</time>
      </trkpt>
      <trkpt lat="46.17548" lon="-1.20695">
        <ele>13.1</ele>
        <time>2020-05-31T20:59:27Z</time>
      </trkpt>
      <trkpt lat="46.17552" lon="-1.20703">
        <ele>13.1</ele>
        <time>2020-05-31T20:59:28Z</time>
      </trkpt>
      <trkpt lat="46.17556" lon="-1.20712">
        <ele>13.3</ele>
        <time>2020-05-31T20:59:29Z</time>
      </trkpt>
      <trkpt lat="46.1756" lon="-1.20721">
        <ele>13.4</ele>
        <time>2020-05-31T20:59:30Z</time>
      </trkpt>
      <trkpt lat="46.17561" lon="-1.20731">
        <ele>13.5</ele>
        <time>2020-05-31T20:59:31Z</time>
      </trkpt>
      <trkpt lat="46.17563" lon="-1.2074">
        <ele>13.6</ele>
        <time>2020-05-31T20:59:32Z</time>
      </trkpt>
      <trkpt lat="46.17563" lon="-1.2075">
        <ele>13.7</ele>
        <time>2020-05-31T20:59:33Z</time>
      </trkpt>
      <trkpt lat="46.17565" lon="-1.2076">
        <ele>13.8</ele>
        <time>2020-05-31T20:59:34Z</time>
      </trkpt>
      <trkpt lat="46.17566" lon="-1.20769">
        <ele>14</ele>
        <time>2020-05-31T20:59:35Z</time>
      </trkpt>
      <trkpt lat="46.17567" lon="-1.20778">
        <ele>14.1</ele>
        <time>2020-05-31T20:59:36Z</time>
      </trkpt>
      <trkpt lat="46.17568" lon="-1.20788">
        <ele>14.3</ele>
        <time>2020-05-31T20:59:37Z</time>
      </trkpt>
      <trkpt lat="46.1757" lon="-1.20797">
        <ele>14.4</ele>
        <time>2020-05-31T20:59:38Z</time>
      </trkpt>
      <trkpt lat="46.17571" lon="-1.20806">
        <ele>14.6</ele>
        <time>2020-05-31T20:59:39Z</time>
      </trkpt>
      <trkpt lat="46.17573" lon="-1.20815">
        <ele>14.7</ele>
        <time>2020-05-31T20:59:40Z</time>
      </trkpt>
      <trkpt lat="46.17575" lon="-1.20823">
        <ele>14.8</ele>
        <time>2020-05-31T20:59:41Z</time>
      </trkpt>
      <trkpt lat="46.17578" lon="-1.20831">
        <ele>14.9</ele>
        <time>2020-05-31T20:59:42Z</time>
      </trkpt>
      <trkpt lat="46.17581" lon="-1.20839">
        <ele>15</ele>
        <time>2020-05-31T20:59:43Z</time>
      </trkpt>
      <trkpt lat="46.17584" lon="-1.20847">
        <ele>15.1</ele>
        <time>2020-05-31T20:59:44Z</time>
      </trkpt>
      <trkpt lat="46.17588" lon="-1.20854">
        <ele>15.2</ele>
        <time>2020-05-31T20:59:45Z</time>
      </trkpt>
      <trkpt lat="46.17592" lon="-1.20862">
        <ele>15.2</ele>
        <time>2020-05-31T20:59:46Z</time>
      </trkpt>
      <trkpt lat="46.17595" lon="-1.2087">
        <ele>15.3</ele>
        <time>2020-05-31T20:59:47Z</time>
      </trkpt>
      <trkpt lat="46.17599" lon="-1.20878">
        <ele>15.3</ele>
        <time>2020-05-31T20:59:48Z</time>
      </trkpt>
      <trkpt lat="46.17603" lon="-1.20887">
        <ele>15.3</ele>
        <time>2020-05-31T20:59:49Z</time>
      </trkpt>
      <trkpt lat="46.17606" lon="-1.20896">
        <ele>15.3</ele>
        <time>2020-05-31T20:59:50Z</time>
      </trkpt>
      <trkpt lat="46.1761" lon="-1.20904">
        <ele>15.3</ele>
        <time>2020-05-31T20:59:51Z</time>
      </trkpt>
      <trkpt lat="46.17613" lon="-1.20911">
        <ele>15.3</ele>
        <time>2020-05-31T20:59:52Z</time>
      </trkpt>
      <trkpt lat="46.17617" lon="-1.2092">
        <ele>15.3</ele>
        <time>2020-05-31T20:59:53Z</time>
      </trkpt>
      <trkpt lat="46.1762" lon="-1.20927">
        <ele>15.3</ele>
        <time>2020-05-31T20:59:54Z</time>
      </trkpt>
      <trkpt lat="46.17624" lon="-1.20936">
        <ele>15.3</ele>
        <time>2020-05-31T20:59:55Z</time>
      </trkpt>
      <trkpt lat="46.1763" lon="-1.20944">
        <ele>15.3</ele>
        <time>2020-05-31T20:59:56Z</time>
      </trkpt>
      <trkpt lat="46.17634" lon="-1.20952">
        <ele>15.3</ele>
        <time>2020-05-31T20:59:57Z</time>
      </trkpt>
      <trkpt lat="46.17638" lon="-1.2096">
        <ele>15.3</ele>
        <time>2020-05-31T20:59:58Z</time>
      </trkpt>
      <trkpt lat="46.17644" lon="-1.20967">
        <ele>15.3</ele>
        <time>2020-05-31T20:59:59Z</time>
      </trkpt>
      <trkpt lat="46.17648" lon="-1.20975">
        <ele>15.3</ele>
        <time>2020-05-31T21:00:00Z</time>
      </trkpt>
      <trkpt lat="46.17653" lon="-1.20982">
        <ele>15.3</ele>
        <time>2020-05-31T21:00:01Z</time>
      </trkpt>
      <trkpt lat="46.17658" lon="-1.2099">
        <ele>15.3</ele>
        <time>2020-05-31T21:00:02Z</time>
      </trkpt>
      <trkpt lat="46.17663" lon="-1.20998">
        <ele>15.3</ele>
        <time>2020-05-31T21:00:03Z</time>
      </trkpt>
      <trkpt lat="46.17667" lon="-1.21005">
        <ele>15.3</ele>
        <time>2020-05-31T21:00:04Z</time>
      </trkpt>
      <trkpt lat="46.17672" lon="-1.21012">
        <ele>15.3</ele>
        <time>2020-05-31T21:00:05Z</time>
      </trkpt>
      <trkpt lat="46.17677" lon="-1.21019">
        <ele>15.3</ele>
        <time>2020-05-31T21:00:06Z</time>
      </trkpt>
      <trkpt lat="46.17683" lon="-1.21026">
        <ele>15.2</ele>
        <time>2020-05-31T21:00:07Z</time>
      </trkpt>
      <trkpt lat="46.17688" lon="-1.21033">
        <ele>15.2</ele>
        <time>2020-05-31T21:00:08Z</time>
      </trkpt>
      <trkpt lat="46.17692" lon="-1.21042">
        <ele>15.2</ele>
        <time>2020-05-31T21:00:09Z</time>
      </trkpt>
      <trkpt lat="46.17697" lon="-1.21051">
        <ele>15.1</ele>
        <time>2020-05-31T21:00:10Z</time>
      </trkpt>
      <trkpt lat="46.17701" lon="-1.21059">
        <ele>15.1</ele>
        <time>2020-05-31T21:00:11Z</time>
      </trkpt>
      <trkpt lat="46.17705" lon="-1.21068">
        <ele>15.1</ele>
        <time>2020-05-31T21:00:12Z</time>
      </trkpt>
      <trkpt lat="46.17709" lon="-1.21076">
        <ele>15.1</ele>
        <time>2020-05-31T21:00:13Z</time>
      </trkpt>
      <trkpt lat="46.17714" lon="-1.21084">
        <ele>15.1</ele>
        <time>2020-05-31T21:00:14Z</time>
      </trkpt>
      <trkpt lat="46.17718" lon="-1.21092">
        <ele>15.1</ele>
        <time>2020-05-31T21:00:15Z</time>
      </trkpt>
      <trkpt lat="46.17722" lon="-1.211">
        <ele>15.1</ele>
        <time>2020-05-31T21:00:16Z</time>
      </trkpt>
      <trkpt lat="46.17727" lon="-1.21107">
        <ele>15.1</ele>
        <time>2020-05-31T21:00:17Z</time>
      </trkpt>
      <trkpt lat="46.17732" lon="-1.21114">
        <ele>15.1</ele>
        <time>2020-05-31T21:00:18Z</time>
      </trkpt>
      <trkpt lat="46.17737" lon="-1.2112">
        <ele>15.1</ele>
        <time>2020-05-31T21:00:19Z</time>
      </trkpt>
      <trkpt lat="46.17742" lon="-1.21127">
        <ele>15.1</ele>
        <time>2020-05-31T21:00:20Z</time>
      </trkpt>
      <trkpt lat="46.17746" lon="-1.21135">
        <ele>15.1</ele>
        <time>2020-05-31T21:00:21Z</time>
      </trkpt>
      <trkpt lat="46.1775" lon="-1.21143">
        <ele>15.1</ele>
        <time>2020-05-31T21:00:22Z</time>
      </trkpt>
      <trkpt lat="46.17755" lon="-1.2115">
        <ele>15.1</ele>
        <time>2020-05-31T21:00:23Z</time>
      </trkpt>
      <trkpt lat="46.17759" lon="-1.21157">
        <ele>15.1</ele>
        <time>2020-05-31T21:00:24Z</time>
      </trkpt>
      <trkpt lat="46.17763" lon="-1.21164">
        <ele>15.1</ele>
        <time>2020-05-31T21:00:25Z</time>
      </trkpt>
      <trkpt lat="46.17766" lon="-1.2117">
        <ele>15.1</ele>
        <time>2020-05-31T21:00:26Z</time>
      </trkpt>
      <trkpt lat="46.17768" lon="-1.21176">
        <ele>15.1</ele>
        <time>2020-05-31T21:00:27Z</time>
      </trkpt>
      <trkpt lat="46.17768" lon="-1.21181">
        <ele>15.1</ele>
        <time>2020-05-31T21:00:28Z</time>
      </trkpt>
      <trkpt lat="46.17768" lon="-1.21185">
        <ele>15.1</ele>
        <time>2020-05-31T21:00:29Z</time>
      </trkpt>
      <trkpt lat="46.17767" lon="-1.21186">
        <ele>15.1</ele>
        <time>2020-05-31T21:00:30Z</time>
      </trkpt>
      <trkpt lat="46.17764" lon="-1.21184">
        <ele>15.1</ele>
        <time>2020-05-31T21:00:31Z</time>
      </trkpt>
      <trkpt lat="46.17762" lon="-1.21184">
        <ele>15.1</ele>
        <time>2020-05-31T21:00:32Z</time>
      </trkpt>
      <trkpt lat="46.17758" lon="-1.21183">
        <ele>15.1</ele>
        <time>2020-05-31T21:00:33Z</time>
      </trkpt>
      <trkpt lat="46.17755" lon="-1.21183">
        <ele>15.1</ele>
        <time>2020-05-31T21:00:34Z</time>
      </trkpt>
      <trkpt lat="46.17751" lon="-1.21184">
        <ele>15.1</ele>
        <time>2020-05-31T21:00:35Z</time>
      </trkpt>
      <trkpt lat="46.17748" lon="-1.21187">
        <ele>15.1</ele>
        <time>2020-05-31T21:00:36Z</time>
      </trkpt>
      <trkpt lat="46.17745" lon="-1.2119">
        <ele>15.1</ele>
        <time>2020-05-31T21:00:37Z</time>
      </trkpt>
      <trkpt lat="46.17742" lon="-1.21193">
        <ele>15.1</ele>
        <time>2020-05-31T21:00:38Z</time>
      </trkpt>
      <trkpt lat="46.17739" lon="-1.21193">
        <ele>15.1</ele>
        <time>2020-05-31T21:00:39Z</time>
      </trkpt>
      <trkpt lat="46.17736" lon="-1.2119">
        <ele>15.1</ele>
        <time>2020-05-31T21:00:40Z</time>
      </trkpt>
      <trkpt lat="46.17731" lon="-1.21189">
        <ele>15.1</ele>
        <time>2020-05-31T21:00:41Z</time>
      </trkpt>
      <trkpt lat="46.17726" lon="-1.21187">
        <ele>15.1</ele>
        <time>2020-05-31T21:00:42Z</time>
      </trkpt>
      <trkpt lat="46.17721" lon="-1.21184">
        <ele>15.1</ele>
        <time>2020-05-31T21:00:43Z</time>
      </trkpt>
      <trkpt lat="46.17715" lon="-1.21183">
        <ele>15.1</ele>
        <time>2020-05-31T21:00:44Z</time>
      </trkpt>
      <trkpt lat="46.1771" lon="-1.21181">
        <ele>15.2</ele>
        <time>2020-05-31T21:00:45Z</time>
      </trkpt>
      <trkpt lat="46.17704" lon="-1.2118">
        <ele>15.2</ele>
        <time>2020-05-31T21:00:46Z</time>
      </trkpt>
      <trkpt lat="46.17698" lon="-1.21178">
        <ele>15.2</ele>
        <time>2020-05-31T21:00:47Z</time>
      </trkpt>
      <trkpt lat="46.17692" lon="-1.21176">
        <ele>15.2</ele>
        <time>2020-05-31T21:00:48Z</time>
      </trkpt>
      <trkpt lat="46.17685" lon="-1.21175">
        <ele>15.2</ele>
        <time>2020-05-31T21:00:49Z</time>
      </trkpt>
      <trkpt lat="46.17679" lon="-1.21174">
        <ele>15.2</ele>
        <time>2020-05-31T21:00:50Z</time>
      </trkpt>
      <trkpt lat="46.17673" lon="-1.21173">
        <ele>15.2</ele>
        <time>2020-05-31T21:00:51Z</time>
      </trkpt>
      <trkpt lat="46.17666" lon="-1.21173">
        <ele>15.2</ele>
        <time>2020-05-31T21:00:52Z</time>
      </trkpt>
      <trkpt lat="46.1766" lon="-1.21177">
        <ele>15.3</ele>
        <time>2020-05-31T21:00:53Z</time>
      </trkpt>
      <trkpt lat="46.17656" lon="-1.21184">
        <ele>15.3</ele>
        <time>2020-05-31T21:00:54Z</time>
      </trkpt>
      <trkpt lat="46.17651" lon="-1.21191">
        <ele>15.4</ele>
        <time>2020-05-31T21:00:55Z</time>
      </trkpt>
      <trkpt lat="46.17647" lon="-1.212">
        <ele>15.5</ele>
        <time>2020-05-31T21:00:56Z</time>
      </trkpt>
      <trkpt lat="46.17643" lon="-1.21208">
        <ele>15.5</ele>
        <time>2020-05-31T21:00:57Z</time>
      </trkpt>
      <trkpt lat="46.17639" lon="-1.21216">
        <ele>15.6</ele>
        <time>2020-05-31T21:00:58Z</time>
      </trkpt>
      <trkpt lat="46.17635" lon="-1.21225">
        <ele>15.7</ele>
        <time>2020-05-31T21:00:59Z</time>
      </trkpt>
      <trkpt lat="46.17633" lon="-1.21234">
        <ele>15.8</ele>
        <time>2020-05-31T21:01:00Z</time>
      </trkpt>
      <trkpt lat="46.17632" lon="-1.21244">
        <ele>15.9</ele>
        <time>2020-05-31T21:01:01Z</time>
      </trkpt>
      <trkpt lat="46.1763" lon="-1.21253">
        <ele>16</ele>
        <time>2020-05-31T21:01:02Z</time>
      </trkpt>
      <trkpt lat="46.17629" lon="-1.21263">
        <ele>16.2</ele>
        <time>2020-05-31T21:01:03Z</time>
      </trkpt>
      <trkpt lat="46.17629" lon="-1.21272">
        <ele>16.2</ele>
        <time>2020-05-31T21:01:04Z</time>
      </trkpt>
      <trkpt lat="46.17628" lon="-1.21282">
        <ele>16.3</ele>
        <time>2020-05-31T21:01:05Z</time>
      </trkpt>
      <trkpt lat="46.17627" lon="-1.21291">
        <ele>16.3</ele>
        <time>2020-05-31T21:01:06Z</time>
      </trkpt>
      <trkpt lat="46.17625" lon="-1.21302">
        <ele>16.4</ele>
        <time>2020-05-31T21:01:07Z</time>
      </trkpt>
      <trkpt lat="46.17624" lon="-1.21312">
        <ele>16.4</ele>
        <time>2020-05-31T21:01:08Z</time>
      </trkpt>
      <trkpt lat="46.17623" lon="-1.21322">
        <ele>16.4</ele>
        <time>2020-05-31T21:01:09Z</time>
      </trkpt>
      <trkpt lat="46.17622" lon="-1.21332">
        <ele>16.4</ele>
        <time>2020-05-31T21:01:10Z</time>
      </trkpt>
      <trkpt lat="46.17621" lon="-1.21343">
        <ele>16.4</ele>
        <time>2020-05-31T21:01:11Z</time>
      </trkpt>
      <trkpt lat="46.17619" lon="-1.21353">
        <ele>16.4</ele>
        <time>2020-05-31T21:01:12Z</time>
      </trkpt>
      <trkpt lat="46.17619" lon="-1.21364">
        <ele>16.3</ele>
        <time>2020-05-31T21:01:13Z</time>
      </trkpt>
      <trkpt lat="46.17618" lon="-1.21375">
        <ele>16.3</ele>
        <time>2020-05-31T21:01:14Z</time>
      </trkpt>
      <trkpt lat="46.17618" lon="-1.21386">
        <ele>16.3</ele>
        <time>2020-05-31T21:01:15Z</time>
      </trkpt>
      <trkpt lat="46.17617" lon="-1.21397">
        <ele>16.3</ele>
        <time>2020-05-31T21:01:16Z</time>
      </trkpt>
      <trkpt lat="46.17616" lon="-1.21407">
        <ele>16.2</ele>
        <time>2020-05-31T21:01:17Z</time>
      </trkpt>
      <trkpt lat="46.17615" lon="-1.21418">
        <ele>16.2</ele>
        <time>2020-05-31T21:01:18Z</time>
      </trkpt>
      <trkpt lat="46.17614" lon="-1.21428">
        <ele>16.2</ele>
        <time>2020-05-31T21:01:19Z</time>
      </trkpt>
      <trkpt lat="46.17613" lon="-1.2144">
        <ele>16.2</ele>
        <time>2020-05-31T21:01:20Z</time>
      </trkpt>
      <trkpt lat="46.17612" lon="-1.2145">
        <ele>16.2</ele>
        <time>2020-05-31T21:01:21Z</time>
      </trkpt>
      <trkpt lat="46.17611" lon="-1.21461">
        <ele>16.2</ele>
        <time>2020-05-31T21:01:22Z</time>
      </trkpt>
      <trkpt lat="46.1761" lon="-1.21472">
        <ele>16.2</ele>
        <time>2020-05-31T21:01:23Z</time>
      </trkpt>
      <trkpt lat="46.17609" lon="-1.21482">
        <ele>16.2</ele>
        <time>2020-05-31T21:01:24Z</time>
      </trkpt>
      <trkpt lat="46.17608" lon="-1.21493">
        <ele>16.3</ele>
        <time>2020-05-31T21:01:25Z</time>
      </trkpt>
      <trkpt lat="46.17607" lon="-1.21504">
        <ele>16.3</ele>
        <time>2020-05-31T21:01:26Z</time>
      </trkpt>
      <trkpt lat="46.17607" lon="-1.21514">
        <ele>16.3</ele>
        <time>2020-05-31T21:01:27Z</time>
      </trkpt>
      <trkpt lat="46.17606" lon="-1.21525">
        <ele>16.3</ele>
        <time>2020-05-31T21:01:28Z</time>
      </trkpt>
      <trkpt lat="46.17605" lon="-1.21536">
        <ele>16.3</ele>
        <time>2020-05-31T21:01:29Z</time>
      </trkpt>
      <trkpt lat="46.17605" lon="-1.21546">
        <ele>16.3</ele>
        <time>2020-05-31T21:01:30Z</time>
      </trkpt>
      <trkpt lat="46.17605" lon="-1.21556">
        <ele>16.3</ele>
        <time>2020-05-31T21:01:31Z</time>
      </trkpt>
      <trkpt lat="46.17607" lon="-1.21566">
        <ele>16.3</ele>
        <time>2020-05-31T21:01:32Z</time>
      </trkpt>
      <trkpt lat="46.17609" lon="-1.21576">
        <ele>16.3</ele>
        <time>2020-05-31T21:01:33Z</time>
      </trkpt>
      <trkpt lat="46.1761" lon="-1.21585">
        <ele>16.3</ele>
        <time>2020-05-31T21:01:34Z</time>
      </trkpt>
      <trkpt lat="46.17612" lon="-1.21593">
        <ele>16.3</ele>
        <time>2020-05-31T21:01:35Z</time>
      </trkpt>
      <trkpt lat="46.17614" lon="-1.216">
        <ele>16.2</ele>
        <time>2020-05-31T21:01:36Z</time>
      </trkpt>
      <trkpt lat="46.17616" lon="-1.21606">
        <ele>16.2</ele>
        <time>2020-05-31T21:01:37Z</time>
      </trkpt>
      <trkpt lat="46.17618" lon="-1.21612">
        <ele>16.2</ele>
        <time>2020-05-31T21:01:38Z</time>
      </trkpt>
      <trkpt lat="46.1762" lon="-1.21615">
        <ele>16.2</ele>
        <time>2020-05-31T21:01:39Z</time>
      </trkpt>
      <trkpt lat="46.1762" lon="-1.21617">
        <ele>16.2</ele>
        <time>2020-05-31T21:01:40Z</time>
      </trkpt>
      <trkpt lat="46.1762" lon="-1.21617">
        <ele>16.2</ele>
        <time>2020-05-31T21:01:41Z</time>
      </trkpt>
      <trkpt lat="46.1762" lon="-1.21617">
        <ele>16.2</ele>
        <time>2020-05-31T21:01:42Z</time>
      </trkpt>
      <trkpt lat="46.1762" lon="-1.21617">
        <ele>16.2</ele>
        <time>2020-05-31T21:01:43Z</time>
      </trkpt>
      <trkpt lat="46.1762" lon="-1.21618">
        <ele>16.2</ele>
        <time>2020-05-31T21:01:44Z</time>
      </trkpt>
      <trkpt lat="46.1762" lon="-1.21618">
        <ele>16.2</ele>
        <time>2020-05-31T21:01:45Z</time>
      </trkpt>
      <trkpt lat="46.1762" lon="-1.21618">
        <ele>16.2</ele>
        <time>2020-05-31T21:01:46Z</time>
      </trkpt>
      <trkpt lat="46.17621" lon="-1.21617">
        <ele>16.2</ele>
        <time>2020-05-31T21:01:47Z</time>
      </trkpt>
      <trkpt lat="46.17621" lon="-1.21617">
        <ele>16.2</ele>
        <time>2020-05-31T21:01:48Z</time>
      </trkpt>
      <trkpt lat="46.17621" lon="-1.21617">
        <ele>16.2</ele>
        <time>2020-05-31T21:01:49Z</time>
      </trkpt>
      <trkpt lat="46.17622" lon="-1.21617">
        <ele>16.2</ele>
        <time>2020-05-31T21:01:50Z</time>
      </trkpt>
      <trkpt lat="46.17622" lon="-1.21617">
        <ele>16.2</ele>
        <time>2020-05-31T21:01:51Z</time>
      </trkpt>
      <trkpt lat="46.17621" lon="-1.21618">
        <ele>16.2</ele>
        <time>2020-05-31T21:01:52Z</time>
      </trkpt>
      <trkpt lat="46.17621" lon="-1.21618">
        <ele>16.2</ele>
        <time>2020-05-31T21:01:53Z</time>
      </trkpt>
      <trkpt lat="46.17621" lon="-1.21618">
        <ele>16.2</ele>
        <time>2020-05-31T21:01:54Z</time>
      </trkpt>
      <trkpt lat="46.1762" lon="-1.21618">
        <ele>16.2</ele>
        <time>2020-05-31T21:01:55Z</time>
      </trkpt>
      <trkpt lat="46.17621" lon="-1.21618">
        <ele>16.2</ele>
        <time>2020-05-31T21:01:56Z</time>
      </trkpt>
      <trkpt lat="46.17622" lon="-1.21617">
        <ele>16.2</ele>
        <time>2020-05-31T21:01:57Z</time>
      </trkpt>
      <trkpt lat="46.17622" lon="-1.21617">
        <ele>16.2</ele>
        <time>2020-05-31T21:01:58Z</time>
      </trkpt>
      <trkpt lat="46.17622" lon="-1.21617">
        <ele>16.2</ele>
        <time>2020-05-31T21:01:59Z</time>
      </trkpt>
      <trkpt lat="46.17621" lon="-1.21617">
        <ele>16.2</ele>
        <time>2020-05-31T21:02:00Z</time>
      </trkpt>
      <trkpt lat="46.17621" lon="-1.21618">
        <ele>16.2</ele>
        <time>2020-05-31T21:02:01Z</time>
      </trkpt>
      <trkpt lat="46.17622" lon="-1.21617">
        <ele>16.2</ele>
        <time>2020-05-31T21:02:02Z</time>
      </trkpt>
      <trkpt lat="46.17622" lon="-1.21617">
        <ele>16.2</ele>
        <time>2020-05-31T21:02:03Z</time>
      </trkpt>
      <trkpt lat="46.17622" lon="-1.21617">
        <ele>16.2</ele>
        <time>2020-05-31T21:02:04Z</time>
      </trkpt>
      <trkpt lat="46.17623" lon="-1.21617">
        <ele>16.2</ele>
        <time>2020-05-31T21:02:05Z</time>
      </trkpt>
      <trkpt lat="46.17623" lon="-1.21618">
        <ele>16.2</ele>
        <time>2020-05-31T21:02:06Z</time>
      </trkpt>
      <trkpt lat="46.17622" lon="-1.21618">
        <ele>16.2</ele>
        <time>2020-05-31T21:02:07Z</time>
      </trkpt>
      <trkpt lat="46.17622" lon="-1.21618">
        <ele>16.2</ele>
        <time>2020-05-31T21:02:08Z</time>
      </trkpt>
      <trkpt lat="46.17622" lon="-1.21619">
        <ele>16.2</ele>
        <time>2020-05-31T21:02:09Z</time>
      </trkpt>
      <trkpt lat="46.17623" lon="-1.21618">
        <ele>16.2</ele>
        <time>2020-05-31T21:02:10Z</time>
      </trkpt>
      <trkpt lat="46.17623" lon="-1.21618">
        <ele>16.2</ele>
        <time>2020-05-31T21:02:11Z</time>
      </trkpt>
      <trkpt lat="46.17622" lon="-1.21618">
        <ele>16.2</ele>
        <time>2020-05-31T21:02:12Z</time>
      </trkpt>
      <trkpt lat="46.17622" lon="-1.21618">
        <ele>16.2</ele>
        <time>2020-05-31T21:02:13Z</time>
      </trkpt>
      <trkpt lat="46.17622" lon="-1.21618">
        <ele>16.2</ele>
        <time>2020-05-31T21:02:14Z</time>
      </trkpt>
      <trkpt lat="46.17622" lon="-1.21618">
        <ele>16.2</ele>
        <time>2020-05-31T21:02:15Z</time>
      </trkpt>
      <trkpt lat="46.17622" lon="-1.21619">
        <ele>16.2</ele>
        <time>2020-05-31T21:02:16Z</time>
      </trkpt>
      <trkpt lat="46.17623" lon="-1.21618">
        <ele>16.2</ele>
        <time>2020-05-31T21:02:17Z</time>
      </trkpt>
      <trkpt lat="46.17623" lon="-1.21619">
        <ele>16.2</ele>
        <time>2020-05-31T21:02:18Z</time>
      </trkpt>
      <trkpt lat="46.17623" lon="-1.21619">
        <ele>16.2</ele>
        <time>2020-05-31T21:02:19Z</time>
      </trkpt>
      <trkpt lat="46.17622" lon="-1.21619">
        <ele>16.2</ele>
        <time>2020-05-31T21:02:20Z</time>
      </trkpt>
      <trkpt lat="46.17621" lon="-1.21619">
        <ele>16.2</ele>
        <time>2020-05-31T21:02:21Z</time>
      </trkpt>
      <trkpt lat="46.17621" lon="-1.21619">
        <ele>16.2</ele>
        <time>2020-05-31T21:02:22Z</time>
      </trkpt>
      <trkpt lat="46.17621" lon="-1.21619">
        <ele>16.2</ele>
        <time>2020-05-31T21:02:23Z</time>
      </trkpt>
      <trkpt lat="46.17621" lon="-1.21619">
        <ele>16.2</ele>
        <time>2020-05-31T21:02:24Z</time>
      </trkpt>
      <trkpt lat="46.17621" lon="-1.21619">
        <ele>16.2</ele>
        <time>2020-05-31T21:02:25Z</time>
      </trkpt>
      <trkpt lat="46.17622" lon="-1.21619">
        <ele>16.2</ele>
        <time>2020-05-31T21:02:26Z</time>
      </trkpt>
      <trkpt lat="46.17624" lon="-1.21619">
        <ele>16.2</ele>
        <time>2020-05-31T21:02:27Z</time>
      </trkpt>
      <trkpt lat="46.17625" lon="-1.2162">
        <ele>16.2</ele>
        <time>2020-05-31T21:02:28Z</time>
      </trkpt>
      <trkpt lat="46.17625" lon="-1.21625">
        <ele>16.1</ele>
        <time>2020-05-31T21:02:29Z</time>
      </trkpt>
      <trkpt lat="46.17626" lon="-1.21627">
        <ele>16.1</ele>
        <time>2020-05-31T21:02:30Z</time>
      </trkpt>
      <trkpt lat="46.17627" lon="-1.21631">
        <ele>16.1</ele>
        <time>2020-05-31T21:02:31Z</time>
      </trkpt>
      <trkpt lat="46.17629" lon="-1.21635">
        <ele>16.1</ele>
        <time>2020-05-31T21:02:32Z</time>
      </trkpt>
      <trkpt lat="46.17631" lon="-1.21639">
        <ele>16.1</ele>
        <time>2020-05-31T21:02:33Z</time>
      </trkpt>
      <trkpt lat="46.17633" lon="-1.21645">
        <ele>16.1</ele>
        <time>2020-05-31T21:02:34Z</time>
      </trkpt>
      <trkpt lat="46.17635" lon="-1.21651">
        <ele>16</ele>
        <time>2020-05-31T21:02:35Z</time>
      </trkpt>
      <trkpt lat="46.17637" lon="-1.21657">
        <ele>16</ele>
        <time>2020-05-31T21:02:36Z</time>
      </trkpt>
      <trkpt lat="46.17638" lon="-1.21664">
        <ele>15.9</ele>
        <time>2020-05-31T21:02:37Z</time>
      </trkpt>
      <trkpt lat="46.1764" lon="-1.2167">
        <ele>15.9</ele>
        <time>2020-05-31T21:02:38Z</time>
      </trkpt>
      <trkpt lat="46.17643" lon="-1.21677">
        <ele>15.8</ele>
        <time>2020-05-31T21:02:39Z</time>
      </trkpt>
      <trkpt lat="46.17646" lon="-1.21683">
        <ele>15.7</ele>
        <time>2020-05-31T21:02:40Z</time>
      </trkpt>
      <trkpt lat="46.17648" lon="-1.2169">
        <ele>15.6</ele>
        <time>2020-05-31T21:02:41Z</time>
      </trkpt>
      <trkpt lat="46.17651" lon="-1.21698">
        <ele>15.5</ele>
        <time>2020-05-31T21:02:42Z</time>
      </trkpt>
      <trkpt lat="46.17653" lon="-1.21706">
        <ele>15.4</ele>
        <time>2020-05-31T21:02:43Z</time>
      </trkpt>
      <trkpt lat="46.17655" lon="-1.21713">
        <ele>15.4</ele>
        <time>2020-05-31T21:02:44Z</time>
      </trkpt>
      <trkpt lat="46.17658" lon="-1.21721">
        <ele>15.3</ele>
        <time>2020-05-31T21:02:45Z</time>
      </trkpt>
      <trkpt lat="46.17661" lon="-1.21729">
        <ele>15.3</ele>
        <time>2020-05-31T21:02:46Z</time>
      </trkpt>
      <trkpt lat="46.17664" lon="-1.21736">
        <ele>15.3</ele>
        <time>2020-05-31T21:02:47Z</time>
      </trkpt>
      <trkpt lat="46.17667" lon="-1.21744">
        <ele>15.2</ele>
        <time>2020-05-31T21:02:48Z</time>
      </trkpt>
      <trkpt lat="46.17671" lon="-1.21752">
        <ele>15.2</ele>
        <time>2020-05-31T21:02:49Z</time>
      </trkpt>
      <trkpt lat="46.17674" lon="-1.21761">
        <ele>15.2</ele>
        <time>2020-05-31T21:02:50Z</time>
      </trkpt>
      <trkpt lat="46.17678" lon="-1.21771">
        <ele>15.1</ele>
        <time>2020-05-31T21:02:51Z</time>
      </trkpt>
      <trkpt lat="46.17681" lon="-1.2178">
        <ele>15</ele>
        <time>2020-05-31T21:02:52Z</time>
      </trkpt>
      <trkpt lat="46.17683" lon="-1.21787">
        <ele>15</ele>
        <time>2020-05-31T21:02:53Z</time>
      </trkpt>
      <trkpt lat="46.17686" lon="-1.21795">
        <ele>14.9</ele>
        <time>2020-05-31T21:02:54Z</time>
      </trkpt>
      <trkpt lat="46.17688" lon="-1.21802">
        <ele>14.8</ele>
        <time>2020-05-31T21:02:55Z</time>
      </trkpt>
      <trkpt lat="46.1769" lon="-1.21811">
        <ele>14.7</ele>
        <time>2020-05-31T21:02:56Z</time>
      </trkpt>
      <trkpt lat="46.17692" lon="-1.21818">
        <ele>14.7</ele>
        <time>2020-05-31T21:02:57Z</time>
      </trkpt>
      <trkpt lat="46.17694" lon="-1.21826">
        <ele>14.5</ele>
        <time>2020-05-31T21:02:58Z</time>
      </trkpt>
      <trkpt lat="46.17697" lon="-1.21835">
        <ele>14.3</ele>
        <time>2020-05-31T21:02:59Z</time>
      </trkpt>
      <trkpt lat="46.177" lon="-1.21843">
        <ele>14.1</ele>
        <time>2020-05-31T21:03:00Z</time>
      </trkpt>
      <trkpt lat="46.17702" lon="-1.2185">
        <ele>13.9</ele>
        <time>2020-05-31T21:03:01Z</time>
      </trkpt>
      <trkpt lat="46.17703" lon="-1.21859">
        <ele>13.7</ele>
        <time>2020-05-31T21:03:02Z</time>
      </trkpt>
      <trkpt lat="46.17705" lon="-1.21865">
        <ele>13.6</ele>
        <time>2020-05-31T21:03:03Z</time>
      </trkpt>
      <trkpt lat="46.17707" lon="-1.21874">
        <ele>13.5</ele>
        <time>2020-05-31T21:03:04Z</time>
      </trkpt>
      <trkpt lat="46.17708" lon="-1.2188">
        <ele>13.4</ele>
        <time>2020-05-31T21:03:05Z</time>
      </trkpt>
      <trkpt lat="46.17709" lon="-1.21884">
        <ele>13.3</ele>
        <time>2020-05-31T21:03:06Z</time>
      </trkpt>
      <trkpt lat="46.1771" lon="-1.21891">
        <ele>13</ele>
        <time>2020-05-31T21:03:07Z</time>
      </trkpt>
      <trkpt lat="46.17709" lon="-1.21897">
        <ele>12.7</ele>
        <time>2020-05-31T21:03:08Z</time>
      </trkpt>
      <trkpt lat="46.17705" lon="-1.21904">
        <ele>12.3</ele>
        <time>2020-05-31T21:03:09Z</time>
      </trkpt>
      <trkpt lat="46.17701" lon="-1.21908">
        <ele>12</ele>
        <time>2020-05-31T21:03:10Z</time>
      </trkpt>
      <trkpt lat="46.17698" lon="-1.21911">
        <ele>11.7</ele>
        <time>2020-05-31T21:03:11Z</time>
      </trkpt>
      <trkpt lat="46.17694" lon="-1.21914">
        <ele>11.4</ele>
        <time>2020-05-31T21:03:12Z</time>
      </trkpt>
      <trkpt lat="46.17691" lon="-1.21917">
        <ele>11.2</ele>
        <time>2020-05-31T21:03:13Z</time>
      </trkpt>
      <trkpt lat="46.17687" lon="-1.21919">
        <ele>10.9</ele>
        <time>2020-05-31T21:03:14Z</time>
      </trkpt>
      <trkpt lat="46.17684" lon="-1.21922">
        <ele>10.6</ele>
        <time>2020-05-31T21:03:15Z</time>
      </trkpt>
      <trkpt lat="46.17678" lon="-1.21923">
        <ele>10.2</ele>
        <time>2020-05-31T21:03:16Z</time>
      </trkpt>
      <trkpt lat="46.17673" lon="-1.21926">
        <ele>9.9</ele>
        <time>2020-05-31T21:03:17Z</time>
      </trkpt>
      <trkpt lat="46.17666" lon="-1.21924">
        <ele>9.5</ele>
        <time>2020-05-31T21:03:18Z</time>
      </trkpt>
      <trkpt lat="46.17658" lon="-1.21925">
        <ele>9.2</ele>
        <time>2020-05-31T21:03:19Z</time>
      </trkpt>
      <trkpt lat="46.17651" lon="-1.21925">
        <ele>9</ele>
        <time>2020-05-31T21:03:20Z</time>
      </trkpt>
      <trkpt lat="46.17644" lon="-1.21925">
        <ele>8.8</ele>
        <time>2020-05-31T21:03:21Z</time>
      </trkpt>
      <trkpt lat="46.17639" lon="-1.21926">
        <ele>8.6</ele>
        <time>2020-05-31T21:03:22Z</time>
      </trkpt>
      <trkpt lat="46.17633" lon="-1.21926">
        <ele>8.5</ele>
        <time>2020-05-31T21:03:23Z</time>
      </trkpt>
      <trkpt lat="46.17628" lon="-1.21925">
        <ele>8.4</ele>
        <time>2020-05-31T21:03:24Z</time>
      </trkpt>
      <trkpt lat="46.17625" lon="-1.21925">
        <ele>8.4</ele>
        <time>2020-05-31T21:03:25Z</time>
      </trkpt>
      <trkpt lat="46.17621" lon="-1.21925">
        <ele>8.3</ele>
        <time>2020-05-31T21:03:26Z</time>
      </trkpt>
      <trkpt lat="46.17618" lon="-1.21925">
        <ele>8.3</ele>
        <time>2020-05-31T21:03:27Z</time>
      </trkpt>
      <trkpt lat="46.17615" lon="-1.21925">
        <ele>8.2</ele>
        <time>2020-05-31T21:03:28Z</time>
      </trkpt>
      <trkpt lat="46.17614" lon="-1.21926">
        <ele>8.2</ele>
        <time>2020-05-31T21:03:29Z</time>
      </trkpt>
      <trkpt lat="46.17612" lon="-1.21927">
        <ele>8.2</ele>
        <time>2020-05-31T21:03:30Z</time>
      </trkpt>
      <trkpt lat="46.17611" lon="-1.21928">
        <ele>8.2</ele>
        <time>2020-05-31T21:03:31Z</time>
      </trkpt>
      <trkpt lat="46.1761" lon="-1.21928">
        <ele>8.2</ele>
        <time>2020-05-31T21:03:32Z</time>
      </trkpt>
      <trkpt lat="46.17609" lon="-1.21932">
        <ele>8.2</ele>
        <time>2020-05-31T21:03:33Z</time>
      </trkpt>
      <trkpt lat="46.17609" lon="-1.21937">
        <ele>8.2</ele>
        <time>2020-05-31T21:03:34Z</time>
      </trkpt>
      <trkpt lat="46.17608" lon="-1.21945">
        <ele>8.2</ele>
        <time>2020-05-31T21:03:35Z</time>
      </trkpt>
      <trkpt lat="46.17608" lon="-1.21952">
        <ele>8.2</ele>
        <time>2020-05-31T21:03:36Z</time>
      </trkpt>
      <trkpt lat="46.17608" lon="-1.2196">
        <ele>8.2</ele>
        <time>2020-05-31T21:03:37Z</time>
      </trkpt>
      <trkpt lat="46.17607" lon="-1.21969">
        <ele>8.2</ele>
        <time>2020-05-31T21:03:38Z</time>
      </trkpt>
      <trkpt lat="46.17606" lon="-1.21977">
        <ele>8.2</ele>
        <time>2020-05-31T21:03:39Z</time>
      </trkpt>
      <trkpt lat="46.17606" lon="-1.21986">
        <ele>8.2</ele>
        <time>2020-05-31T21:03:40Z</time>
      </trkpt>
      <trkpt lat="46.17605" lon="-1.21995">
        <ele>8.2</ele>
        <time>2020-05-31T21:03:41Z</time>
      </trkpt>
      <trkpt lat="46.17604" lon="-1.22002">
        <ele>8.2</ele>
        <time>2020-05-31T21:03:42Z</time>
      </trkpt>
      <trkpt lat="46.17603" lon="-1.22011">
        <ele>8.2</ele>
        <time>2020-05-31T21:03:43Z</time>
      </trkpt>
      <trkpt lat="46.17601" lon="-1.22019">
        <ele>8.3</ele>
        <time>2020-05-31T21:03:44Z</time>
      </trkpt>
      <trkpt lat="46.176" lon="-1.22027">
        <ele>8.3</ele>
        <time>2020-05-31T21:03:45Z</time>
      </trkpt>
      <trkpt lat="46.17598" lon="-1.22035">
        <ele>8.4</ele>
        <time>2020-05-31T21:03:46Z</time>
      </trkpt>
      <trkpt lat="46.17597" lon="-1.22043">
        <ele>8.5</ele>
        <time>2020-05-31T21:03:47Z</time>
      </trkpt>
      <trkpt lat="46.17595" lon="-1.22052">
        <ele>8.6</ele>
        <time>2020-05-31T21:03:48Z</time>
      </trkpt>
      <trkpt lat="46.17593" lon="-1.22062">
        <ele>8.7</ele>
        <time>2020-05-31T21:03:49Z</time>
      </trkpt>
      <trkpt lat="46.17591" lon="-1.22073">
        <ele>8.8</ele>
        <time>2020-05-31T21:03:50Z</time>
      </trkpt>
      <trkpt lat="46.1759" lon="-1.22081">
        <ele>8.9</ele>
        <time>2020-05-31T21:03:51Z</time>
      </trkpt>
      <trkpt lat="46.17587" lon="-1.2209">
        <ele>9</ele>
        <time>2020-05-31T21:03:52Z</time>
      </trkpt>
      <trkpt lat="46.17586" lon="-1.22099">
        <ele>9.2</ele>
        <time>2020-05-31T21:03:53Z</time>
      </trkpt>
      <trkpt lat="46.17584" lon="-1.22108">
        <ele>9.2</ele>
        <time>2020-05-31T21:03:54Z</time>
      </trkpt>
      <trkpt lat="46.17583" lon="-1.22118">
        <ele>9.3</ele>
        <time>2020-05-31T21:03:55Z</time>
      </trkpt>
      <trkpt lat="46.17582" lon="-1.22128">
        <ele>9.4</ele>
        <time>2020-05-31T21:03:56Z</time>
      </trkpt>
      <trkpt lat="46.17581" lon="-1.22138">
        <ele>9.5</ele>
        <time>2020-05-31T21:03:57Z</time>
      </trkpt>
      <trkpt lat="46.17579" lon="-1.22148">
        <ele>9.6</ele>
        <time>2020-05-31T21:03:58Z</time>
      </trkpt>
      <trkpt lat="46.17578" lon="-1.22158">
        <ele>9.8</ele>
        <time>2020-05-31T21:03:59Z</time>
      </trkpt>
      <trkpt lat="46.17577" lon="-1.22167">
        <ele>9.9</ele>
        <time>2020-05-31T21:04:00Z</time>
      </trkpt>
      <trkpt lat="46.17575" lon="-1.22176">
        <ele>10</ele>
        <time>2020-05-31T21:04:01Z</time>
      </trkpt>
      <trkpt lat="46.17574" lon="-1.22186">
        <ele>10.1</ele>
        <time>2020-05-31T21:04:02Z</time>
      </trkpt>
      <trkpt lat="46.17573" lon="-1.22196">
        <ele>10.2</ele>
        <time>2020-05-31T21:04:03Z</time>
      </trkpt>
      <trkpt lat="46.17571" lon="-1.22205">
        <ele>10.2</ele>
        <time>2020-05-31T21:04:04Z</time>
      </trkpt>
      <trkpt lat="46.17569" lon="-1.22214">
        <ele>10.3</ele>
        <time>2020-05-31T21:04:05Z</time>
      </trkpt>
      <trkpt lat="46.17568" lon="-1.22224">
        <ele>10.4</ele>
        <time>2020-05-31T21:04:06Z</time>
      </trkpt>
      <trkpt lat="46.17567" lon="-1.22234">
        <ele>10.5</ele>
        <time>2020-05-31T21:04:07Z</time>
      </trkpt>
      <trkpt lat="46.17566" lon="-1.22244">
        <ele>10.6</ele>
        <time>2020-05-31T21:04:08Z</time>
      </trkpt>
      <trkpt lat="46.17564" lon="-1.22253">
        <ele>10.8</ele>
        <time>2020-05-31T21:04:09Z</time>
      </trkpt>
      <trkpt lat="46.17563" lon="-1.22263">
        <ele>10.9</ele>
        <time>2020-05-31T21:04:10Z</time>
      </trkpt>
      <trkpt lat="46.17562" lon="-1.22273">
        <ele>11.1</ele>
        <time>2020-05-31T21:04:11Z</time>
      </trkpt>
      <trkpt lat="46.17561" lon="-1.22283">
        <ele>11.3</ele>
        <time>2020-05-31T21:04:12Z</time>
      </trkpt>
      <trkpt lat="46.17559" lon="-1.22292">
        <ele>11.4</ele>
        <time>2020-05-31T21:04:13Z</time>
      </trkpt>
      <trkpt lat="46.17558" lon="-1.22302">
        <ele>11.6</ele>
        <time>2020-05-31T21:04:14Z</time>
      </trkpt>
      <trkpt lat="46.17557" lon="-1.22312">
        <ele>11.8</ele>
        <time>2020-05-31T21:04:15Z</time>
      </trkpt>
      <trkpt lat="46.17556" lon="-1.22322">
        <ele>11.9</ele>
        <time>2020-05-31T21:04:16Z</time>
      </trkpt>
      <trkpt lat="46.17554" lon="-1.22331">
        <ele>12.1</ele>
        <time>2020-05-31T21:04:17Z</time>
      </trkpt>
      <trkpt lat="46.17553" lon="-1.22341">
        <ele>12.2</ele>
        <time>2020-05-31T21:04:18Z</time>
      </trkpt>
      <trkpt lat="46.17552" lon="-1.22351">
        <ele>12.4</ele>
        <time>2020-05-31T21:04:19Z</time>
      </trkpt>
      <trkpt lat="46.17551" lon="-1.22362">
        <ele>12.6</ele>
        <time>2020-05-31T21:04:20Z</time>
      </trkpt>
      <trkpt lat="46.1755" lon="-1.22372">
        <ele>12.7</ele>
        <time>2020-05-31T21:04:21Z</time>
      </trkpt>
      <trkpt lat="46.17549" lon="-1.22382">
        <ele>12.9</ele>
        <time>2020-05-31T21:04:22Z</time>
      </trkpt>
      <trkpt lat="46.17547" lon="-1.22392">
        <ele>13.1</ele>
        <time>2020-05-31T21:04:23Z</time>
      </trkpt>
      <trkpt lat="46.17546" lon="-1.22402">
        <ele>13.3</ele>
        <time>2020-05-31T21:04:24Z</time>
      </trkpt>
      <trkpt lat="46.17544" lon="-1.22413">
        <ele>13.4</ele>
        <time>2020-05-31T21:04:25Z</time>
      </trkpt>
      <trkpt lat="46.17542" lon="-1.22423">
        <ele>13.5</ele>
        <time>2020-05-31T21:04:26Z</time>
      </trkpt>
      <trkpt lat="46.17541" lon="-1.22433">
        <ele>13.7</ele>
        <time>2020-05-31T21:04:27Z</time>
      </trkpt>
      <trkpt lat="46.17539" lon="-1.22443">
        <ele>13.8</ele>
        <time>2020-05-31T21:04:28Z</time>
      </trkpt>
      <trkpt lat="46.17538" lon="-1.22453">
        <ele>14</ele>
        <time>2020-05-31T21:04:29Z</time>
      </trkpt>
      <trkpt lat="46.17536" lon="-1.22464">
        <ele>14.2</ele>
        <time>2020-05-31T21:04:30Z</time>
      </trkpt>
      <trkpt lat="46.17535" lon="-1.22474">
        <ele>14.3</ele>
        <time>2020-05-31T21:04:31Z</time>
      </trkpt>
      <trkpt lat="46.17533" lon="-1.22485">
        <ele>14.5</ele>
        <time>2020-05-31T21:04:32Z</time>
      </trkpt>
      <trkpt lat="46.17532" lon="-1.22495">
        <ele>14.6</ele>
        <time>2020-05-31T21:04:33Z</time>
      </trkpt>
      <trkpt lat="46.1753" lon="-1.22506">
        <ele>14.8</ele>
        <time>2020-05-31T21:04:34Z</time>
      </trkpt>
      <trkpt lat="46.17528" lon="-1.22516">
        <ele>14.9</ele>
        <time>2020-05-31T21:04:35Z</time>
      </trkpt>
      <trkpt lat="46.17527" lon="-1.22527">
        <ele>15</ele>
        <time>2020-05-31T21:04:36Z</time>
      </trkpt>
      <trkpt lat="46.17525" lon="-1.22537">
        <ele>15.1</ele>
        <time>2020-05-31T21:04:37Z</time>
      </trkpt>
      <trkpt lat="46.17524" lon="-1.22548">
        <ele>15.2</ele>
        <time>2020-05-31T21:04:38Z</time>
      </trkpt>
      <trkpt lat="46.17523" lon="-1.22558">
        <ele>15.3</ele>
        <time>2020-05-31T21:04:39Z</time>
      </trkpt>
      <trkpt lat="46.17521" lon="-1.22569">
        <ele>15.5</ele>
        <time>2020-05-31T21:04:40Z</time>
      </trkpt>
      <trkpt lat="46.1752" lon="-1.22579">
        <ele>15.7</ele>
        <time>2020-05-31T21:04:41Z</time>
      </trkpt>
      <trkpt lat="46.17518" lon="-1.22589">
        <ele>15.9</ele>
        <time>2020-05-31T21:04:42Z</time>
      </trkpt>
      <trkpt lat="46.17517" lon="-1.226">
        <ele>16.1</ele>
        <time>2020-05-31T21:04:43Z</time>
      </trkpt>
      <trkpt lat="46.17516" lon="-1.2261">
        <ele>16.3</ele>
        <time>2020-05-31T21:04:44Z</time>
      </trkpt>
      <trkpt lat="46.17514" lon="-1.2262">
        <ele>16.5</ele>
        <time>2020-05-31T21:04:45Z</time>
      </trkpt>
      <trkpt lat="46.17512" lon="-1.22631">
        <ele>16.7</ele>
        <time>2020-05-31T21:04:46Z</time>
      </trkpt>
      <trkpt lat="46.1751" lon="-1.22641">
        <ele>16.9</ele>
        <time>2020-05-31T21:04:47Z</time>
      </trkpt>
      <trkpt lat="46.17508" lon="-1.22652">
        <ele>17.1</ele>
        <time>2020-05-31T21:04:48Z</time>
      </trkpt>
      <trkpt lat="46.17507" lon="-1.22662">
        <ele>17.2</ele>
        <time>2020-05-31T21:04:49Z</time>
      </trkpt>
      <trkpt lat="46.17505" lon="-1.22672">
        <ele>17.4</ele>
        <time>2020-05-31T21:04:50Z</time>
      </trkpt>
      <trkpt lat="46.17503" lon="-1.22683">
        <ele>17.6</ele>
        <time>2020-05-31T21:04:51Z</time>
      </trkpt>
      <trkpt lat="46.17502" lon="-1.22693">
        <ele>17.8</ele>
        <time>2020-05-31T21:04:52Z</time>
      </trkpt>
      <trkpt lat="46.175" lon="-1.22704">
        <ele>18</ele>
        <time>2020-05-31T21:04:53Z</time>
      </trkpt>
      <trkpt lat="46.17498" lon="-1.22714">
        <ele>18.1</ele>
        <time>2020-05-31T21:04:54Z</time>
      </trkpt>
      <trkpt lat="46.17496" lon="-1.22725">
        <ele>18.3</ele>
        <time>2020-05-31T21:04:55Z</time>
      </trkpt>
      <trkpt lat="46.17494" lon="-1.22735">
        <ele>18.5</ele>
        <time>2020-05-31T21:04:56Z</time>
      </trkpt>
      <trkpt lat="46.17493" lon="-1.22745">
        <ele>18.7</ele>
        <time>2020-05-31T21:04:57Z</time>
      </trkpt>
      <trkpt lat="46.17491" lon="-1.22755">
        <ele>18.9</ele>
        <time>2020-05-31T21:04:58Z</time>
      </trkpt>
      <trkpt lat="46.17489" lon="-1.22766">
        <ele>19</ele>
        <time>2020-05-31T21:04:59Z</time>
      </trkpt>
      <trkpt lat="46.17487" lon="-1.22776">
        <ele>19.2</ele>
        <time>2020-05-31T21:05:00Z</time>
      </trkpt>
      <trkpt lat="46.17485" lon="-1.22786">
        <ele>19.3</ele>
        <time>2020-05-31T21:05:01Z</time>
      </trkpt>
      <trkpt lat="46.17483" lon="-1.22797">
        <ele>19.4</ele>
        <time>2020-05-31T21:05:02Z</time>
      </trkpt>
      <trkpt lat="46.17481" lon="-1.22807">
        <ele>19.6</ele>
        <time>2020-05-31T21:05:03Z</time>
      </trkpt>
      <trkpt lat="46.17479" lon="-1.22818">
        <ele>19.7</ele>
        <time>2020-05-31T21:05:04Z</time>
      </trkpt>
      <trkpt lat="46.17477" lon="-1.22828">
        <ele>19.8</ele>
        <time>2020-05-31T21:05:05Z</time>
      </trkpt>
      <trkpt lat="46.17475" lon="-1.22838">
        <ele>20</ele>
        <time>2020-05-31T21:05:06Z</time>
      </trkpt>
      <trkpt lat="46.17474" lon="-1.22848">
        <ele>20.1</ele>
        <time>2020-05-31T21:05:07Z</time>
      </trkpt>
      <trkpt lat="46.17472" lon="-1.22859">
        <ele>20.3</ele>
        <time>2020-05-31T21:05:08Z</time>
      </trkpt>
      <trkpt lat="46.1747" lon="-1.22869">
        <ele>20.5</ele>
        <time>2020-05-31T21:05:09Z</time>
      </trkpt>
      <trkpt lat="46.17468" lon="-1.22879">
        <ele>20.7</ele>
        <time>2020-05-31T21:05:10Z</time>
      </trkpt>
      <trkpt lat="46.17466" lon="-1.2289">
        <ele>20.9</ele>
        <time>2020-05-31T21:05:11Z</time>
      </trkpt>
      <trkpt lat="46.17465" lon="-1.229">
        <ele>21.1</ele>
        <time>2020-05-31T21:05:12Z</time>
      </trkpt>
      <trkpt lat="46.17463" lon="-1.22911">
        <ele>21.2</ele>
        <time>2020-05-31T21:05:13Z</time>
      </trkpt>
      <trkpt lat="46.17461" lon="-1.22921">
        <ele>21.3</ele>
        <time>2020-05-31T21:05:14Z</time>
      </trkpt>
      <trkpt lat="46.17459" lon="-1.22931">
        <ele>21.3</ele>
        <time>2020-05-31T21:05:15Z</time>
      </trkpt>
      <trkpt lat="46.17457" lon="-1.22941">
        <ele>21.4</ele>
        <time>2020-05-31T21:05:16Z</time>
      </trkpt>
      <trkpt lat="46.17455" lon="-1.2295">
        <ele>21.4</ele>
        <time>2020-05-31T21:05:17Z</time>
      </trkpt>
      <trkpt lat="46.17453" lon="-1.2296">
        <ele>21.5</ele>
        <time>2020-05-31T21:05:18Z</time>
      </trkpt>
      <trkpt lat="46.17451" lon="-1.2297">
        <ele>21.7</ele>
        <time>2020-05-31T21:05:19Z</time>
      </trkpt>
      <trkpt lat="46.17449" lon="-1.2298">
        <ele>21.8</ele>
        <time>2020-05-31T21:05:20Z</time>
      </trkpt>
      <trkpt lat="46.17447" lon="-1.22991">
        <ele>22</ele>
        <time>2020-05-31T21:05:21Z</time>
      </trkpt>
      <trkpt lat="46.17445" lon="-1.23001">
        <ele>22.2</ele>
        <time>2020-05-31T21:05:22Z</time>
      </trkpt>
      <trkpt lat="46.17443" lon="-1.23011">
        <ele>22.4</ele>
        <time>2020-05-31T21:05:23Z</time>
      </trkpt>
      <trkpt lat="46.17441" lon="-1.23021">
        <ele>22.6</ele>
        <time>2020-05-31T21:05:24Z</time>
      </trkpt>
      <trkpt lat="46.17439" lon="-1.23031">
        <ele>22.8</ele>
        <time>2020-05-31T21:05:25Z</time>
      </trkpt>
      <trkpt lat="46.17437" lon="-1.23041">
        <ele>23</ele>
        <time>2020-05-31T21:05:26Z</time>
      </trkpt>
      <trkpt lat="46.17435" lon="-1.23051">
        <ele>23.2</ele>
        <time>2020-05-31T21:05:27Z</time>
      </trkpt>
      <trkpt lat="46.17433" lon="-1.23062">
        <ele>23.3</ele>
        <time>2020-05-31T21:05:28Z</time>
      </trkpt>
      <trkpt lat="46.17431" lon="-1.23072">
        <ele>23.5</ele>
        <time>2020-05-31T21:05:29Z</time>
      </trkpt>
      <trkpt lat="46.17429" lon="-1.23083">
        <ele>23.6</ele>
        <time>2020-05-31T21:05:30Z</time>
      </trkpt>
      <trkpt lat="46.17426" lon="-1.23093">
        <ele>23.8</ele>
        <time>2020-05-31T21:05:31Z</time>
      </trkpt>
      <trkpt lat="46.17424" lon="-1.23103">
        <ele>23.9</ele>
        <time>2020-05-31T21:05:32Z</time>
      </trkpt>
      <trkpt lat="46.17422" lon="-1.23113">
        <ele>24</ele>
        <time>2020-05-31T21:05:33Z</time>
      </trkpt>
      <trkpt lat="46.1742" lon="-1.23123">
        <ele>24.2</ele>
        <time>2020-05-31T21:05:34Z</time>
      </trkpt>
      <trkpt lat="46.17417" lon="-1.23133">
        <ele>24.3</ele>
        <time>2020-05-31T21:05:35Z</time>
      </trkpt>
      <trkpt lat="46.17415" lon="-1.23143">
        <ele>24.5</ele>
        <time>2020-05-31T21:05:36Z</time>
      </trkpt>
      <trkpt lat="46.17412" lon="-1.23153">
        <ele>24.7</ele>
        <time>2020-05-31T21:05:37Z</time>
      </trkpt>
      <trkpt lat="46.1741" lon="-1.23163">
        <ele>24.9</ele>
        <time>2020-05-31T21:05:38Z</time>
      </trkpt>
      <trkpt lat="46.17408" lon="-1.23173">
        <ele>25.1</ele>
        <time>2020-05-31T21:05:39Z</time>
      </trkpt>
      <trkpt lat="46.17406" lon="-1.23183">
        <ele>25.3</ele>
        <time>2020-05-31T21:05:40Z</time>
      </trkpt>
      <trkpt lat="46.17404" lon="-1.23193">
        <ele>25.4</ele>
        <time>2020-05-31T21:05:41Z</time>
      </trkpt>
      <trkpt lat="46.17401" lon="-1.23203">
        <ele>25.6</ele>
        <time>2020-05-31T21:05:42Z</time>
      </trkpt>
      <trkpt lat="46.17399" lon="-1.23213">
        <ele>25.8</ele>
        <time>2020-05-31T21:05:43Z</time>
      </trkpt>
      <trkpt lat="46.17397" lon="-1.23223">
        <ele>25.9</ele>
        <time>2020-05-31T21:05:44Z</time>
      </trkpt>
      <trkpt lat="46.17394" lon="-1.23233">
        <ele>26</ele>
        <time>2020-05-31T21:05:45Z</time>
      </trkpt>
      <trkpt lat="46.17392" lon="-1.23243">
        <ele>26.2</ele>
        <time>2020-05-31T21:05:46Z</time>
      </trkpt>
      <trkpt lat="46.1739" lon="-1.23253">
        <ele>26.3</ele>
        <time>2020-05-31T21:05:47Z</time>
      </trkpt>
      <trkpt lat="46.17387" lon="-1.23263">
        <ele>26.5</ele>
        <time>2020-05-31T21:05:48Z</time>
      </trkpt>
      <trkpt lat="46.17386" lon="-1.23273">
        <ele>26.7</ele>
        <time>2020-05-31T21:05:49Z</time>
      </trkpt>
      <trkpt lat="46.17383" lon="-1.23283">
        <ele>26.9</ele>
        <time>2020-05-31T21:05:50Z</time>
      </trkpt>
      <trkpt lat="46.17381" lon="-1.23293">
        <ele>27.2</ele>
        <time>2020-05-31T21:05:51Z</time>
      </trkpt>
      <trkpt lat="46.17378" lon="-1.23302">
        <ele>27.3</ele>
        <time>2020-05-31T21:05:52Z</time>
      </trkpt>
      <trkpt lat="46.17376" lon="-1.23312">
        <ele>27.5</ele>
        <time>2020-05-31T21:05:53Z</time>
      </trkpt>
      <trkpt lat="46.17374" lon="-1.23322">
        <ele>27.7</ele>
        <time>2020-05-31T21:05:54Z</time>
      </trkpt>
      <trkpt lat="46.17371" lon="-1.23332">
        <ele>27.8</ele>
        <time>2020-05-31T21:05:55Z</time>
      </trkpt>
      <trkpt lat="46.17369" lon="-1.23341">
        <ele>28</ele>
        <time>2020-05-31T21:05:56Z</time>
      </trkpt>
      <trkpt lat="46.17366" lon="-1.23351">
        <ele>28.1</ele>
        <time>2020-05-31T21:05:57Z</time>
      </trkpt>
      <trkpt lat="46.17364" lon="-1.23361">
        <ele>28.2</ele>
        <time>2020-05-31T21:05:58Z</time>
      </trkpt>
      <trkpt lat="46.17362" lon="-1.23371">
        <ele>28.3</ele>
        <time>2020-05-31T21:05:59Z</time>
      </trkpt>
      <trkpt lat="46.1736" lon="-1.23381">
        <ele>28.5</ele>
        <time>2020-05-31T21:06:00Z</time>
      </trkpt>
      <trkpt lat="46.17357" lon="-1.2339">
        <ele>28.6</ele>
        <time>2020-05-31T21:06:01Z</time>
      </trkpt>
      <trkpt lat="46.17355" lon="-1.234">
        <ele>28.8</ele>
        <time>2020-05-31T21:06:02Z</time>
      </trkpt>
      <trkpt lat="46.17352" lon="-1.2341">
        <ele>29</ele>
        <time>2020-05-31T21:06:03Z</time>
      </trkpt>
      <trkpt lat="46.1735" lon="-1.23419">
        <ele>29.1</ele>
        <time>2020-05-31T21:06:04Z</time>
      </trkpt>
      <trkpt lat="46.17347" lon="-1.23429">
        <ele>29.3</ele>
        <time>2020-05-31T21:06:05Z</time>
      </trkpt>
      <trkpt lat="46.17344" lon="-1.23438">
        <ele>29.4</ele>
        <time>2020-05-31T21:06:06Z</time>
      </trkpt>
      <trkpt lat="46.17342" lon="-1.23448">
        <ele>29.6</ele>
        <time>2020-05-31T21:06:07Z</time>
      </trkpt>
      <trkpt lat="46.17339" lon="-1.23458">
        <ele>29.8</ele>
        <time>2020-05-31T21:06:08Z</time>
      </trkpt>
      <trkpt lat="46.17337" lon="-1.23468">
        <ele>29.9</ele>
        <time>2020-05-31T21:06:09Z</time>
      </trkpt>
      <trkpt lat="46.17334" lon="-1.23478">
        <ele>30</ele>
        <time>2020-05-31T21:06:10Z</time>
      </trkpt>
      <trkpt lat="46.17332" lon="-1.23487">
        <ele>30.1</ele>
        <time>2020-05-31T21:06:11Z</time>
      </trkpt>
      <trkpt lat="46.17329" lon="-1.23497">
        <ele>30.2</ele>
        <time>2020-05-31T21:06:12Z</time>
      </trkpt>
      <trkpt lat="46.17326" lon="-1.23507">
        <ele>30.3</ele>
        <time>2020-05-31T21:06:13Z</time>
      </trkpt>
      <trkpt lat="46.17324" lon="-1.23516">
        <ele>30.5</ele>
        <time>2020-05-31T21:06:14Z</time>
      </trkpt>
      <trkpt lat="46.17321" lon="-1.23526">
        <ele>30.6</ele>
        <time>2020-05-31T21:06:15Z</time>
      </trkpt>
      <trkpt lat="46.17319" lon="-1.23536">
        <ele>30.8</ele>
        <time>2020-05-31T21:06:16Z</time>
      </trkpt>
      <trkpt lat="46.17317" lon="-1.23547">
        <ele>30.9</ele>
        <time>2020-05-31T21:06:17Z</time>
      </trkpt>
      <trkpt lat="46.17314" lon="-1.23557">
        <ele>31.1</ele>
        <time>2020-05-31T21:06:18Z</time>
      </trkpt>
      <trkpt lat="46.17311" lon="-1.23566">
        <ele>31.3</ele>
        <time>2020-05-31T21:06:19Z</time>
      </trkpt>
      <trkpt lat="46.17308" lon="-1.23576">
        <ele>31.6</ele>
        <time>2020-05-31T21:06:20Z</time>
      </trkpt>
      <trkpt lat="46.17305" lon="-1.23586">
        <ele>31.8</ele>
        <time>2020-05-31T21:06:21Z</time>
      </trkpt>
      <trkpt lat="46.17303" lon="-1.23596">
        <ele>31.9</ele>
        <time>2020-05-31T21:06:22Z</time>
      </trkpt>
      <trkpt lat="46.173" lon="-1.23606">
        <ele>32.1</ele>
        <time>2020-05-31T21:06:23Z</time>
      </trkpt>
      <trkpt lat="46.17297" lon="-1.23616">
        <ele>32.3</ele>
        <time>2020-05-31T21:06:24Z</time>
      </trkpt>
      <trkpt lat="46.17295" lon="-1.23626">
        <ele>32.5</ele>
        <time>2020-05-31T21:06:25Z</time>
      </trkpt>
      <trkpt lat="46.17292" lon="-1.23635">
        <ele>32.6</ele>
        <time>2020-05-31T21:06:26Z</time>
      </trkpt>
      <trkpt lat="46.17289" lon="-1.23646">
        <ele>32.7</ele>
        <time>2020-05-31T21:06:27Z</time>
      </trkpt>
      <trkpt lat="46.17286" lon="-1.23656">
        <ele>32.9</ele>
        <time>2020-05-31T21:06:28Z</time>
      </trkpt>
      <trkpt lat="46.17283" lon="-1.23665">
        <ele>33</ele>
        <time>2020-05-31T21:06:29Z</time>
      </trkpt>
      <trkpt lat="46.1728" lon="-1.23676">
        <ele>33.2</ele>
        <time>2020-05-31T21:06:30Z</time>
      </trkpt>
      <trkpt lat="46.17276" lon="-1.23685">
        <ele>33.4</ele>
        <time>2020-05-31T21:06:31Z</time>
      </trkpt>
      <trkpt lat="46.17273" lon="-1.23694">
        <ele>33.5</ele>
        <time>2020-05-31T21:06:32Z</time>
      </trkpt>
      <trkpt lat="46.17271" lon="-1.23704">
        <ele>33.7</ele>
        <time>2020-05-31T21:06:33Z</time>
      </trkpt>
      <trkpt lat="46.17268" lon="-1.23714">
        <ele>33.9</ele>
        <time>2020-05-31T21:06:34Z</time>
      </trkpt>
      <trkpt lat="46.17265" lon="-1.23724">
        <ele>34.1</ele>
        <time>2020-05-31T21:06:35Z</time>
      </trkpt>
      <trkpt lat="46.17262" lon="-1.23734">
        <ele>34.3</ele>
        <time>2020-05-31T21:06:36Z</time>
      </trkpt>
      <trkpt lat="46.17259" lon="-1.23743">
        <ele>34.5</ele>
        <time>2020-05-31T21:06:37Z</time>
      </trkpt>
      <trkpt lat="46.17255" lon="-1.23753">
        <ele>34.6</ele>
        <time>2020-05-31T21:06:38Z</time>
      </trkpt>
      <trkpt lat="46.17253" lon="-1.23763">
        <ele>34.8</ele>
        <time>2020-05-31T21:06:39Z</time>
      </trkpt>
      <trkpt lat="46.1725" lon="-1.23772">
        <ele>34.9</ele>
        <time>2020-05-31T21:06:40Z</time>
      </trkpt>
      <trkpt lat="46.17247" lon="-1.23782">
        <ele>35.1</ele>
        <time>2020-05-31T21:06:41Z</time>
      </trkpt>
      <trkpt lat="46.17244" lon="-1.23791">
        <ele>35.2</ele>
        <time>2020-05-31T21:06:42Z</time>
      </trkpt>
      <trkpt lat="46.17241" lon="-1.238">
        <ele>35.4</ele>
        <time>2020-05-31T21:06:43Z</time>
      </trkpt>
      <trkpt lat="46.17238" lon="-1.2381">
        <ele>35.6</ele>
        <time>2020-05-31T21:06:44Z</time>
      </trkpt>
      <trkpt lat="46.17235" lon="-1.23819">
        <ele>35.8</ele>
        <time>2020-05-31T21:06:45Z</time>
      </trkpt>
      <trkpt lat="46.17231" lon="-1.23829">
        <ele>36</ele>
        <time>2020-05-31T21:06:46Z</time>
      </trkpt>
      <trkpt lat="46.17228" lon="-1.23838">
        <ele>36.2</ele>
        <time>2020-05-31T21:06:47Z</time>
      </trkpt>
      <trkpt lat="46.17225" lon="-1.23848">
        <ele>36.3</ele>
        <time>2020-05-31T21:06:48Z</time>
      </trkpt>
      <trkpt lat="46.17222" lon="-1.23857">
        <ele>36.5</ele>
        <time>2020-05-31T21:06:49Z</time>
      </trkpt>
      <trkpt lat="46.17219" lon="-1.23867">
        <ele>36.7</ele>
        <time>2020-05-31T21:06:50Z</time>
      </trkpt>
      <trkpt lat="46.17216" lon="-1.23877">
        <ele>36.9</ele>
        <time>2020-05-31T21:06:51Z</time>
      </trkpt>
      <trkpt lat="46.17213" lon="-1.23886">
        <ele>37</ele>
        <time>2020-05-31T21:06:52Z</time>
      </trkpt>
      <trkpt lat="46.1721" lon="-1.23896">
        <ele>37.2</ele>
        <time>2020-05-31T21:06:53Z</time>
      </trkpt>
      <trkpt lat="46.17207" lon="-1.23905">
        <ele>37.3</ele>
        <time>2020-05-31T21:06:54Z</time>
      </trkpt>
      <trkpt lat="46.17203" lon="-1.23915">
        <ele>37.5</ele>
        <time>2020-05-31T21:06:55Z</time>
      </trkpt>
      <trkpt lat="46.172" lon="-1.23925">
        <ele>37.6</ele>
        <time>2020-05-31T21:06:56Z</time>
      </trkpt>
      <trkpt lat="46.17197" lon="-1.23934">
        <ele>37.8</ele>
        <time>2020-05-31T21:06:57Z</time>
      </trkpt>
      <trkpt lat="46.17194" lon="-1.23944">
        <ele>37.9</ele>
        <time>2020-05-31T21:06:58Z</time>
      </trkpt>
      <trkpt lat="46.17191" lon="-1.23953">
        <ele>38.1</ele>
        <time>2020-05-31T21:06:59Z</time>
      </trkpt>
      <trkpt lat="46.17188" lon="-1.23963">
        <ele>38.2</ele>
        <time>2020-05-31T21:07:00Z</time>
      </trkpt>
      <trkpt lat="46.17184" lon="-1.23972">
        <ele>38.3</ele>
        <time>2020-05-31T21:07:01Z</time>
      </trkpt>
      <trkpt lat="46.1718" lon="-1.23981">
        <ele>38.4</ele>
        <time>2020-05-31T21:07:02Z</time>
      </trkpt>
      <trkpt lat="46.17177" lon="-1.2399">
        <ele>38.5</ele>
        <time>2020-05-31T21:07:03Z</time>
      </trkpt>
      <trkpt lat="46.17173" lon="-1.23999">
        <ele>38.6</ele>
        <time>2020-05-31T21:07:04Z</time>
      </trkpt>
      <trkpt lat="46.1717" lon="-1.24008">
        <ele>38.6</ele>
        <time>2020-05-31T21:07:05Z</time>
      </trkpt>
      <trkpt lat="46.17166" lon="-1.24018">
        <ele>38.7</ele>
        <time>2020-05-31T21:07:06Z</time>
      </trkpt>
      <trkpt lat="46.17163" lon="-1.24027">
        <ele>38.8</ele>
        <time>2020-05-31T21:07:07Z</time>
      </trkpt>
      <trkpt lat="46.17159" lon="-1.24037">
        <ele>38.9</ele>
        <time>2020-05-31T21:07:08Z</time>
      </trkpt>
      <trkpt lat="46.17156" lon="-1.24047">
        <ele>39</ele>
        <time>2020-05-31T21:07:09Z</time>
      </trkpt>
      <trkpt lat="46.17153" lon="-1.24056">
        <ele>39.1</ele>
        <time>2020-05-31T21:07:10Z</time>
      </trkpt>
      <trkpt lat="46.1715" lon="-1.24066">
        <ele>39.3</ele>
        <time>2020-05-31T21:07:11Z</time>
      </trkpt>
      <trkpt lat="46.17146" lon="-1.24076">
        <ele>39.4</ele>
        <time>2020-05-31T21:07:12Z</time>
      </trkpt>
      <trkpt lat="46.17142" lon="-1.24085">
        <ele>39.6</ele>
        <time>2020-05-31T21:07:13Z</time>
      </trkpt>
      <trkpt lat="46.17139" lon="-1.24095">
        <ele>39.7</ele>
        <time>2020-05-31T21:07:14Z</time>
      </trkpt>
      <trkpt lat="46.17136" lon="-1.24105">
        <ele>39.9</ele>
        <time>2020-05-31T21:07:15Z</time>
      </trkpt>
      <trkpt lat="46.17133" lon="-1.24115">
        <ele>40</ele>
        <time>2020-05-31T21:07:16Z</time>
      </trkpt>
      <trkpt lat="46.1713" lon="-1.24126">
        <ele>40.1</ele>
        <time>2020-05-31T21:07:17Z</time>
      </trkpt>
      <trkpt lat="46.17126" lon="-1.24135">
        <ele>40.2</ele>
        <time>2020-05-31T21:07:18Z</time>
      </trkpt>
      <trkpt lat="46.17123" lon="-1.24145">
        <ele>40.3</ele>
        <time>2020-05-31T21:07:19Z</time>
      </trkpt>
      <trkpt lat="46.17119" lon="-1.24154">
        <ele>40.4</ele>
        <time>2020-05-31T21:07:20Z</time>
      </trkpt>
      <trkpt lat="46.17116" lon="-1.24163">
        <ele>40.5</ele>
        <time>2020-05-31T21:07:21Z</time>
      </trkpt>
      <trkpt lat="46.17112" lon="-1.24173">
        <ele>40.7</ele>
        <time>2020-05-31T21:07:22Z</time>
      </trkpt>
      <trkpt lat="46.17109" lon="-1.24182">
        <ele>40.8</ele>
        <time>2020-05-31T21:07:23Z</time>
      </trkpt>
      <trkpt lat="46.17105" lon="-1.24192">
        <ele>40.9</ele>
        <time>2020-05-31T21:07:24Z</time>
      </trkpt>
      <trkpt lat="46.17102" lon="-1.24201">
        <ele>41</ele>
        <time>2020-05-31T21:07:25Z</time>
      </trkpt>
      <trkpt lat="46.17098" lon="-1.24211">
        <ele>41</ele>
        <time>2020-05-31T21:07:26Z</time>
      </trkpt>
      <trkpt lat="46.17094" lon="-1.24221">
        <ele>41</ele>
        <time>2020-05-31T21:07:27Z</time>
      </trkpt>
      <trkpt lat="46.1709" lon="-1.24231">
        <ele>41</ele>
        <time>2020-05-31T21:07:28Z</time>
      </trkpt>
      <trkpt lat="46.17086" lon="-1.2424">
        <ele>41</ele>
        <time>2020-05-31T21:07:29Z</time>
      </trkpt>
      <trkpt lat="46.17082" lon="-1.2425">
        <ele>40.9</ele>
        <time>2020-05-31T21:07:30Z</time>
      </trkpt>
      <trkpt lat="46.17078" lon="-1.2426">
        <ele>41</ele>
        <time>2020-05-31T21:07:31Z</time>
      </trkpt>
      <trkpt lat="46.17074" lon="-1.2427">
        <ele>41</ele>
        <time>2020-05-31T21:07:32Z</time>
      </trkpt>
      <trkpt lat="46.17071" lon="-1.2428">
        <ele>41</ele>
        <time>2020-05-31T21:07:33Z</time>
      </trkpt>
      <trkpt lat="46.17067" lon="-1.24291">
        <ele>41</ele>
        <time>2020-05-31T21:07:34Z</time>
      </trkpt>
      <trkpt lat="46.17063" lon="-1.24301">
        <ele>41</ele>
        <time>2020-05-31T21:07:35Z</time>
      </trkpt>
      <trkpt lat="46.17059" lon="-1.24311">
        <ele>41</ele>
        <time>2020-05-31T21:07:36Z</time>
      </trkpt>
      <trkpt lat="46.17055" lon="-1.24322">
        <ele>41</ele>
        <time>2020-05-31T21:07:37Z</time>
      </trkpt>
      <trkpt lat="46.17051" lon="-1.24333">
        <ele>41</ele>
        <time>2020-05-31T21:07:38Z</time>
      </trkpt>
      <trkpt lat="46.17047" lon="-1.24343">
        <ele>41.1</ele>
        <time>2020-05-31T21:07:39Z</time>
      </trkpt>
      <trkpt lat="46.17042" lon="-1.24354">
        <ele>41.1</ele>
        <time>2020-05-31T21:07:40Z</time>
      </trkpt>
      <trkpt lat="46.17038" lon="-1.24364">
        <ele>41.1</ele>
        <time>2020-05-31T21:07:41Z</time>
      </trkpt>
      <trkpt lat="46.17034" lon="-1.24376">
        <ele>41</ele>
        <time>2020-05-31T21:07:42Z</time>
      </trkpt>
      <trkpt lat="46.1703" lon="-1.24388">
        <ele>41</ele>
        <time>2020-05-31T21:07:43Z</time>
      </trkpt>
      <trkpt lat="46.17026" lon="-1.244">
        <ele>41</ele>
        <time>2020-05-31T21:07:44Z</time>
      </trkpt>
      <trkpt lat="46.17021" lon="-1.24411">
        <ele>41</ele>
        <time>2020-05-31T21:07:45Z</time>
      </trkpt>
      <trkpt lat="46.17017" lon="-1.24423">
        <ele>40.9</ele>
        <time>2020-05-31T21:07:46Z</time>
      </trkpt>
      <trkpt lat="46.17013" lon="-1.24435">
        <ele>40.9</ele>
        <time>2020-05-31T21:07:47Z</time>
      </trkpt>
      <trkpt lat="46.17008" lon="-1.24447">
        <ele>40.8</ele>
        <time>2020-05-31T21:07:48Z</time>
      </trkpt>
      <trkpt lat="46.17003" lon="-1.24459">
        <ele>40.8</ele>
        <time>2020-05-31T21:07:49Z</time>
      </trkpt>
      <trkpt lat="46.16999" lon="-1.2447">
        <ele>40.8</ele>
        <time>2020-05-31T21:07:50Z</time>
      </trkpt>
      <trkpt lat="46.16994" lon="-1.24483">
        <ele>40.8</ele>
        <time>2020-05-31T21:07:51Z</time>
      </trkpt>
      <trkpt lat="46.16989" lon="-1.24495">
        <ele>40.7</ele>
        <time>2020-05-31T21:07:52Z</time>
      </trkpt>
      <trkpt lat="46.16984" lon="-1.24507">
        <ele>40.7</ele>
        <time>2020-05-31T21:07:53Z</time>
      </trkpt>
      <trkpt lat="46.16979" lon="-1.24518">
        <ele>40.6</ele>
        <time>2020-05-31T21:07:54Z</time>
      </trkpt>
      <trkpt lat="46.16974" lon="-1.2453">
        <ele>40.5</ele>
        <time>2020-05-31T21:07:55Z</time>
      </trkpt>
      <trkpt lat="46.16969" lon="-1.24542">
        <ele>40.3</ele>
        <time>2020-05-31T21:07:56Z</time>
      </trkpt>
      <trkpt lat="46.16964" lon="-1.24553">
        <ele>40.2</ele>
        <time>2020-05-31T21:07:57Z</time>
      </trkpt>
      <trkpt lat="46.16959" lon="-1.24564">
        <ele>40.1</ele>
        <time>2020-05-31T21:07:58Z</time>
      </trkpt>
      <trkpt lat="46.16954" lon="-1.24576">
        <ele>40</ele>
        <time>2020-05-31T21:07:59Z</time>
      </trkpt>
      <trkpt lat="46.16949" lon="-1.24587">
        <ele>39.9</ele>
        <time>2020-05-31T21:08:00Z</time>
      </trkpt>
      <trkpt lat="46.16944" lon="-1.24598">
        <ele>39.8</ele>
        <time>2020-05-31T21:08:01Z</time>
      </trkpt>
      <trkpt lat="46.16939" lon="-1.24609">
        <ele>39.8</ele>
        <time>2020-05-31T21:08:02Z</time>
      </trkpt>
      <trkpt lat="46.16935" lon="-1.2462">
        <ele>39.7</ele>
        <time>2020-05-31T21:08:03Z</time>
      </trkpt>
      <trkpt lat="46.1693" lon="-1.24631">
        <ele>39.7</ele>
        <time>2020-05-31T21:08:04Z</time>
      </trkpt>
      <trkpt lat="46.16925" lon="-1.24642">
        <ele>39.5</ele>
        <time>2020-05-31T21:08:05Z</time>
      </trkpt>
      <trkpt lat="46.1692" lon="-1.24653">
        <ele>39.4</ele>
        <time>2020-05-31T21:08:06Z</time>
      </trkpt>
      <trkpt lat="46.16915" lon="-1.24664">
        <ele>39.2</ele>
        <time>2020-05-31T21:08:07Z</time>
      </trkpt>
      <trkpt lat="46.1691" lon="-1.24674">
        <ele>39</ele>
        <time>2020-05-31T21:08:08Z</time>
      </trkpt>
      <trkpt lat="46.16905" lon="-1.24685">
        <ele>38.8</ele>
        <time>2020-05-31T21:08:09Z</time>
      </trkpt>
      <trkpt lat="46.169" lon="-1.24696">
        <ele>38.6</ele>
        <time>2020-05-31T21:08:10Z</time>
      </trkpt>
      <trkpt lat="46.16895" lon="-1.24706">
        <ele>38.5</ele>
        <time>2020-05-31T21:08:11Z</time>
      </trkpt>
      <trkpt lat="46.1689" lon="-1.24717">
        <ele>38.4</ele>
        <time>2020-05-31T21:08:12Z</time>
      </trkpt>
      <trkpt lat="46.16885" lon="-1.24728">
        <ele>38.3</ele>
        <time>2020-05-31T21:08:13Z</time>
      </trkpt>
      <trkpt lat="46.1688" lon="-1.24739">
        <ele>38.1</ele>
        <time>2020-05-31T21:08:14Z</time>
      </trkpt>
      <trkpt lat="46.16875" lon="-1.2475">
        <ele>37.9</ele>
        <time>2020-05-31T21:08:15Z</time>
      </trkpt>
      <trkpt lat="46.1687" lon="-1.2476">
        <ele>37.7</ele>
        <time>2020-05-31T21:08:16Z</time>
      </trkpt>
      <trkpt lat="46.16865" lon="-1.24771">
        <ele>37.4</ele>
        <time>2020-05-31T21:08:17Z</time>
      </trkpt>
      <trkpt lat="46.1686" lon="-1.24782">
        <ele>37.2</ele>
        <time>2020-05-31T21:08:18Z</time>
      </trkpt>
      <trkpt lat="46.16855" lon="-1.24793">
        <ele>37</ele>
        <time>2020-05-31T21:08:19Z</time>
      </trkpt>
      <trkpt lat="46.1685" lon="-1.24805">
        <ele>36.7</ele>
        <time>2020-05-31T21:08:20Z</time>
      </trkpt>
      <trkpt lat="46.16845" lon="-1.24816">
        <ele>36.5</ele>
        <time>2020-05-31T21:08:21Z</time>
      </trkpt>
      <trkpt lat="46.16839" lon="-1.24826">
        <ele>36.2</ele>
        <time>2020-05-31T21:08:22Z</time>
      </trkpt>
      <trkpt lat="46.16833" lon="-1.24837">
        <ele>36</ele>
        <time>2020-05-31T21:08:23Z</time>
      </trkpt>
      <trkpt lat="46.16828" lon="-1.24847">
        <ele>35.8</ele>
        <time>2020-05-31T21:08:24Z</time>
      </trkpt>
      <trkpt lat="46.16823" lon="-1.24858">
        <ele>35.6</ele>
        <time>2020-05-31T21:08:25Z</time>
      </trkpt>
      <trkpt lat="46.16818" lon="-1.24869">
        <ele>35.4</ele>
        <time>2020-05-31T21:08:26Z</time>
      </trkpt>
      <trkpt lat="46.16813" lon="-1.2488">
        <ele>35.1</ele>
        <time>2020-05-31T21:08:27Z</time>
      </trkpt>
      <trkpt lat="46.16807" lon="-1.24891">
        <ele>34.9</ele>
        <time>2020-05-31T21:08:28Z</time>
      </trkpt>
      <trkpt lat="46.16802" lon="-1.24902">
        <ele>34.6</ele>
        <time>2020-05-31T21:08:29Z</time>
      </trkpt>
      <trkpt lat="46.16796" lon="-1.24912">
        <ele>34.3</ele>
        <time>2020-05-31T21:08:30Z</time>
      </trkpt>
      <trkpt lat="46.16791" lon="-1.24923">
        <ele>34</ele>
        <time>2020-05-31T21:08:31Z</time>
      </trkpt>
      <trkpt lat="46.16785" lon="-1.24934">
        <ele>33.7</ele>
        <time>2020-05-31T21:08:32Z</time>
      </trkpt>
      <trkpt lat="46.1678" lon="-1.24945">
        <ele>33.4</ele>
        <time>2020-05-31T21:08:33Z</time>
      </trkpt>
      <trkpt lat="46.16774" lon="-1.24956">
        <ele>33</ele>
        <time>2020-05-31T21:08:34Z</time>
      </trkpt>
      <trkpt lat="46.16768" lon="-1.24967">
        <ele>32.6</ele>
        <time>2020-05-31T21:08:35Z</time>
      </trkpt>
      <trkpt lat="46.16762" lon="-1.24979">
        <ele>32.3</ele>
        <time>2020-05-31T21:08:36Z</time>
      </trkpt>
      <trkpt lat="46.16756" lon="-1.2499">
        <ele>31.9</ele>
        <time>2020-05-31T21:08:37Z</time>
      </trkpt>
      <trkpt lat="46.1675" lon="-1.25002">
        <ele>31.6</ele>
        <time>2020-05-31T21:08:38Z</time>
      </trkpt>
      <trkpt lat="46.16744" lon="-1.25014">
        <ele>31.2</ele>
        <time>2020-05-31T21:08:39Z</time>
      </trkpt>
      <trkpt lat="46.16738" lon="-1.25026">
        <ele>30.9</ele>
        <time>2020-05-31T21:08:40Z</time>
      </trkpt>
      <trkpt lat="46.16732" lon="-1.25038">
        <ele>30.5</ele>
        <time>2020-05-31T21:08:41Z</time>
      </trkpt>
      <trkpt lat="46.16725" lon="-1.2505">
        <ele>30.1</ele>
        <time>2020-05-31T21:08:42Z</time>
      </trkpt>
      <trkpt lat="46.16719" lon="-1.25062">
        <ele>29.7</ele>
        <time>2020-05-31T21:08:43Z</time>
      </trkpt>
      <trkpt lat="46.16712" lon="-1.25074">
        <ele>29.3</ele>
        <time>2020-05-31T21:08:44Z</time>
      </trkpt>
      <trkpt lat="46.16706" lon="-1.25086">
        <ele>28.9</ele>
        <time>2020-05-31T21:08:45Z</time>
      </trkpt>
      <trkpt lat="46.16699" lon="-1.25099">
        <ele>28.4</ele>
        <time>2020-05-31T21:08:46Z</time>
      </trkpt>
      <trkpt lat="46.16693" lon="-1.25111">
        <ele>28</ele>
        <time>2020-05-31T21:08:47Z</time>
      </trkpt>
      <trkpt lat="46.16686" lon="-1.25124">
        <ele>27.5</ele>
        <time>2020-05-31T21:08:48Z</time>
      </trkpt>
      <trkpt lat="46.16679" lon="-1.25137">
        <ele>27.1</ele>
        <time>2020-05-31T21:08:49Z</time>
      </trkpt>
      <trkpt lat="46.16672" lon="-1.25149">
        <ele>26.6</ele>
        <time>2020-05-31T21:08:50Z</time>
      </trkpt>
      <trkpt lat="46.16665" lon="-1.25162">
        <ele>26.1</ele>
        <time>2020-05-31T21:08:51Z</time>
      </trkpt>
      <trkpt lat="46.16658" lon="-1.25175">
        <ele>25.6</ele>
        <time>2020-05-31T21:08:52Z</time>
      </trkpt>
      <trkpt lat="46.16651" lon="-1.25188">
        <ele>25</ele>
        <time>2020-05-31T21:08:53Z</time>
      </trkpt>
      <trkpt lat="46.16643" lon="-1.25201">
        <ele>24.6</ele>
        <time>2020-05-31T21:08:54Z</time>
      </trkpt>
      <trkpt lat="46.16636" lon="-1.25214">
        <ele>24.1</ele>
        <time>2020-05-31T21:08:55Z</time>
      </trkpt>
      <trkpt lat="46.16629" lon="-1.25228">
        <ele>23.6</ele>
        <time>2020-05-31T21:08:56Z</time>
      </trkpt>
      <trkpt lat="46.16621" lon="-1.25241">
        <ele>23</ele>
        <time>2020-05-31T21:08:57Z</time>
      </trkpt>
      <trkpt lat="46.16614" lon="-1.25254">
        <ele>22.5</ele>
        <time>2020-05-31T21:08:58Z</time>
      </trkpt>
      <trkpt lat="46.16606" lon="-1.25268">
        <ele>22</ele>
        <time>2020-05-31T21:08:59Z</time>
      </trkpt>
      <trkpt lat="46.16599" lon="-1.25282">
        <ele>21.5</ele>
        <time>2020-05-31T21:09:00Z</time>
      </trkpt>
      <trkpt lat="46.1659" lon="-1.25295">
        <ele>21</ele>
        <time>2020-05-31T21:09:01Z</time>
      </trkpt>
      <trkpt lat="46.16582" lon="-1.25309">
        <ele>20.4</ele>
        <time>2020-05-31T21:09:02Z</time>
      </trkpt>
      <trkpt lat="46.16574" lon="-1.25324">
        <ele>19.8</ele>
        <time>2020-05-31T21:09:03Z</time>
      </trkpt>
      <trkpt lat="46.16565" lon="-1.25339">
        <ele>19.2</ele>
        <time>2020-05-31T21:09:04Z</time>
      </trkpt>
      <trkpt lat="46.16556" lon="-1.25354">
        <ele>18.5</ele>
        <time>2020-05-31T21:09:05Z</time>
      </trkpt>
      <trkpt lat="46.16547" lon="-1.25369">
        <ele>17.8</ele>
        <time>2020-05-31T21:09:06Z</time>
      </trkpt>
      <trkpt lat="46.16539" lon="-1.25384">
        <ele>17.2</ele>
        <time>2020-05-31T21:09:07Z</time>
      </trkpt>
      <trkpt lat="46.16529" lon="-1.25399">
        <ele>16.5</ele>
        <time>2020-05-31T21:09:08Z</time>
      </trkpt>
      <trkpt lat="46.16519" lon="-1.25414">
        <ele>15.8</ele>
        <time>2020-05-31T21:09:09Z</time>
      </trkpt>
      <trkpt lat="46.1651" lon="-1.2543">
        <ele>15.1</ele>
        <time>2020-05-31T21:09:10Z</time>
      </trkpt>
      <trkpt lat="46.16501" lon="-1.25446">
        <ele>14.4</ele>
        <time>2020-05-31T21:09:11Z</time>
      </trkpt>
      <trkpt lat="46.16491" lon="-1.25462">
        <ele>13.9</ele>
        <time>2020-05-31T21:09:12Z</time>
      </trkpt>
      <trkpt lat="46.16481" lon="-1.25477">
        <ele>13.3</ele>
        <time>2020-05-31T21:09:13Z</time>
      </trkpt>
      <trkpt lat="46.16472" lon="-1.25493">
        <ele>12.8</ele>
        <time>2020-05-31T21:09:14Z</time>
      </trkpt>
      <trkpt lat="46.16462" lon="-1.25509">
        <ele>12.3</ele>
        <time>2020-05-31T21:09:15Z</time>
      </trkpt>
      <trkpt lat="46.16452" lon="-1.25524">
        <ele>11.8</ele>
        <time>2020-05-31T21:09:16Z</time>
      </trkpt>
      <trkpt lat="46.16442" lon="-1.2554">
        <ele>11.2</ele>
        <time>2020-05-31T21:09:17Z</time>
      </trkpt>
      <trkpt lat="46.16432" lon="-1.25556">
        <ele>10.7</ele>
        <time>2020-05-31T21:09:18Z</time>
      </trkpt>
      <trkpt lat="46.16422" lon="-1.25571">
        <ele>10.2</ele>
        <time>2020-05-31T21:09:19Z</time>
      </trkpt>
      <trkpt lat="46.16412" lon="-1.25585">
        <ele>9.9</ele>
        <time>2020-05-31T21:09:20Z</time>
      </trkpt>
      <trkpt lat="46.16402" lon="-1.256">
        <ele>9.5</ele>
        <time>2020-05-31T21:09:21Z</time>
      </trkpt>
      <trkpt lat="46.16393" lon="-1.25614">
        <ele>9.4</ele>
        <time>2020-05-31T21:09:22Z</time>
      </trkpt>
      <trkpt lat="46.16385" lon="-1.25627">
        <ele>9.3</ele>
        <time>2020-05-31T21:09:23Z</time>
      </trkpt>
      <trkpt lat="46.16377" lon="-1.2564">
        <ele>9</ele>
        <time>2020-05-31T21:09:24Z</time>
      </trkpt>
      <trkpt lat="46.16369" lon="-1.25652">
        <ele>8.6</ele>
        <time>2020-05-31T21:09:25Z</time>
      </trkpt>
      <trkpt lat="46.16361" lon="-1.25662">
        <ele>8.3</ele>
        <time>2020-05-31T21:09:26Z</time>
      </trkpt>
      <trkpt lat="46.16353" lon="-1.25671">
        <ele>8</ele>
        <time>2020-05-31T21:09:27Z</time>
      </trkpt>
      <trkpt lat="46.16345" lon="-1.2568">
        <ele>7.8</ele>
        <time>2020-05-31T21:09:28Z</time>
      </trkpt>
      <trkpt lat="46.16338" lon="-1.25688">
        <ele>7.6</ele>
        <time>2020-05-31T21:09:29Z</time>
      </trkpt>
      <trkpt lat="46.16332" lon="-1.25697">
        <ele>7.4</ele>
        <time>2020-05-31T21:09:30Z</time>
      </trkpt>
      <trkpt lat="46.16326" lon="-1.25705">
        <ele>7.2</ele>
        <time>2020-05-31T21:09:31Z</time>
      </trkpt>
      <trkpt lat="46.16321" lon="-1.25714">
        <ele>7</ele>
        <time>2020-05-31T21:09:32Z</time>
      </trkpt>
      <trkpt lat="46.16318" lon="-1.25725">
        <ele>6.8</ele>
        <time>2020-05-31T21:09:33Z</time>
      </trkpt>
      <trkpt lat="46.16316" lon="-1.25736">
        <ele>6.6</ele>
        <time>2020-05-31T21:09:34Z</time>
      </trkpt>
      <trkpt lat="46.16313" lon="-1.25746">
        <ele>6.5</ele>
        <time>2020-05-31T21:09:35Z</time>
      </trkpt>
      <trkpt lat="46.1631" lon="-1.25756">
        <ele>6.3</ele>
        <time>2020-05-31T21:09:36Z</time>
      </trkpt>
      <trkpt lat="46.16307" lon="-1.25765">
        <ele>6.1</ele>
        <time>2020-05-31T21:09:37Z</time>
      </trkpt>
      <trkpt lat="46.16305" lon="-1.25773">
        <ele>5.9</ele>
        <time>2020-05-31T21:09:38Z</time>
      </trkpt>
      <trkpt lat="46.16302" lon="-1.25781">
        <ele>5.8</ele>
        <time>2020-05-31T21:09:39Z</time>
      </trkpt>
      <trkpt lat="46.16299" lon="-1.25789">
        <ele>5.6</ele>
        <time>2020-05-31T21:09:40Z</time>
      </trkpt>
      <trkpt lat="46.16296" lon="-1.25797">
        <ele>5.5</ele>
        <time>2020-05-31T21:09:41Z</time>
      </trkpt>
      <trkpt lat="46.16294" lon="-1.25804">
        <ele>5.5</ele>
        <time>2020-05-31T21:09:42Z</time>
      </trkpt>
      <trkpt lat="46.16292" lon="-1.25811">
        <ele>5.4</ele>
        <time>2020-05-31T21:09:43Z</time>
      </trkpt>
      <trkpt lat="46.16289" lon="-1.25818">
        <ele>5.4</ele>
        <time>2020-05-31T21:09:44Z</time>
      </trkpt>
      <trkpt lat="46.16287" lon="-1.25825">
        <ele>5.4</ele>
        <time>2020-05-31T21:09:45Z</time>
      </trkpt>
      <trkpt lat="46.16284" lon="-1.2583">
        <ele>5.4</ele>
        <time>2020-05-31T21:09:46Z</time>
      </trkpt>
      <trkpt lat="46.16282" lon="-1.25836">
        <ele>5.4</ele>
        <time>2020-05-31T21:09:47Z</time>
      </trkpt>
      <trkpt lat="46.16278" lon="-1.2584">
        <ele>5.4</ele>
        <time>2020-05-31T21:09:48Z</time>
      </trkpt>
      <trkpt lat="46.16275" lon="-1.25845">
        <ele>5.3</ele>
        <time>2020-05-31T21:09:49Z</time>
      </trkpt>
      <trkpt lat="46.16272" lon="-1.25849">
        <ele>5.3</ele>
        <time>2020-05-31T21:09:50Z</time>
      </trkpt>
      <trkpt lat="46.1627" lon="-1.25855">
        <ele>5.2</ele>
        <time>2020-05-31T21:09:51Z</time>
      </trkpt>
      <trkpt lat="46.16267" lon="-1.25859">
        <ele>5.2</ele>
        <time>2020-05-31T21:09:52Z</time>
      </trkpt>
      <trkpt lat="46.16264" lon="-1.25864">
        <ele>5.2</ele>
        <time>2020-05-31T21:09:53Z</time>
      </trkpt>
      <trkpt lat="46.16261" lon="-1.25868">
        <ele>5.1</ele>
        <time>2020-05-31T21:09:54Z</time>
      </trkpt>
      <trkpt lat="46.16259" lon="-1.25873">
        <ele>5.1</ele>
        <time>2020-05-31T21:09:55Z</time>
      </trkpt>
      <trkpt lat="46.16257" lon="-1.25879">
        <ele>5</ele>
        <time>2020-05-31T21:09:56Z</time>
      </trkpt>
      <trkpt lat="46.16255" lon="-1.25883">
        <ele>5</ele>
        <time>2020-05-31T21:09:57Z</time>
      </trkpt>
      <trkpt lat="46.16254" lon="-1.25889">
        <ele>4.9</ele>
        <time>2020-05-31T21:09:58Z</time>
      </trkpt>
      <trkpt lat="46.16252" lon="-1.25894">
        <ele>4.9</ele>
        <time>2020-05-31T21:09:59Z</time>
      </trkpt>
      <trkpt lat="46.1625" lon="-1.25899">
        <ele>4.8</ele>
        <time>2020-05-31T21:10:00Z</time>
      </trkpt>
      <trkpt lat="46.16249" lon="-1.25905">
        <ele>4.8</ele>
        <time>2020-05-31T21:10:01Z</time>
      </trkpt>
      <trkpt lat="46.16247" lon="-1.25911">
        <ele>4.7</ele>
        <time>2020-05-31T21:10:02Z</time>
      </trkpt>
      <trkpt lat="46.16246" lon="-1.25916">
        <ele>4.7</ele>
        <time>2020-05-31T21:10:03Z</time>
      </trkpt>
      <trkpt lat="46.16244" lon="-1.2592">
        <ele>4.7</ele>
        <time>2020-05-31T21:10:04Z</time>
      </trkpt>
      <trkpt lat="46.16242" lon="-1.25925">
        <ele>4.6</ele>
        <time>2020-05-31T21:10:05Z</time>
      </trkpt>
      <trkpt lat="46.1624" lon="-1.2593">
        <ele>4.6</ele>
        <time>2020-05-31T21:10:06Z</time>
      </trkpt>
      <trkpt lat="46.16238" lon="-1.25934">
        <ele>4.6</ele>
        <time>2020-05-31T21:10:07Z</time>
      </trkpt>
      <trkpt lat="46.16237" lon="-1.2594">
        <ele>4.6</ele>
        <time>2020-05-31T21:10:08Z</time>
      </trkpt>
      <trkpt lat="46.16235" lon="-1.25944">
        <ele>4.6</ele>
        <time>2020-05-31T21:10:09Z</time>
      </trkpt>
      <trkpt lat="46.16235" lon="-1.25948">
        <ele>4.6</ele>
        <time>2020-05-31T21:10:10Z</time>
      </trkpt>
      <trkpt lat="46.16234" lon="-1.25953">
        <ele>4.6</ele>
        <time>2020-05-31T21:10:11Z</time>
      </trkpt>
      <trkpt lat="46.16231" lon="-1.25957">
        <ele>4.6</ele>
        <time>2020-05-31T21:10:12Z</time>
      </trkpt>
      <trkpt lat="46.1623" lon="-1.25961">
        <ele>4.6</ele>
        <time>2020-05-31T21:10:13Z</time>
      </trkpt>
      <trkpt lat="46.16228" lon="-1.25965">
        <ele>4.6</ele>
        <time>2020-05-31T21:10:14Z</time>
      </trkpt>
      <trkpt lat="46.16226" lon="-1.25969">
        <ele>4.6</ele>
        <time>2020-05-31T21:10:15Z</time>
      </trkpt>
      <trkpt lat="46.16225" lon="-1.25973">
        <ele>4.6</ele>
        <time>2020-05-31T21:10:16Z</time>
      </trkpt>
      <trkpt lat="46.16224" lon="-1.25978">
        <ele>4.6</ele>
        <time>2020-05-31T21:10:17Z</time>
      </trkpt>
      <trkpt lat="46.16222" lon="-1.25982">
        <ele>4.6</ele>
        <time>2020-05-31T21:10:18Z</time>
      </trkpt>
      <trkpt lat="46.1622" lon="-1.25986">
        <ele>4.6</ele>
        <time>2020-05-31T21:10:19Z</time>
      </trkpt>
      <trkpt lat="46.16218" lon="-1.25989">
        <ele>4.6</ele>
        <time>2020-05-31T21:10:20Z</time>
      </trkpt>
      <trkpt lat="46.16216" lon="-1.25993">
        <ele>4.6</ele>
        <time>2020-05-31T21:10:21Z</time>
      </trkpt>
      <trkpt lat="46.16215" lon="-1.25997">
        <ele>4.6</ele>
        <time>2020-05-31T21:10:22Z</time>
      </trkpt>
      <trkpt lat="46.16213" lon="-1.26001">
        <ele>4.6</ele>
        <time>2020-05-31T21:10:23Z</time>
      </trkpt>
      <trkpt lat="46.16211" lon="-1.26006">
        <ele>4.6</ele>
        <time>2020-05-31T21:10:24Z</time>
      </trkpt>
      <trkpt lat="46.16209" lon="-1.26009">
        <ele>4.6</ele>
        <time>2020-05-31T21:10:25Z</time>
      </trkpt>
      <trkpt lat="46.16207" lon="-1.26013">
        <ele>4.6</ele>
        <time>2020-05-31T21:10:26Z</time>
      </trkpt>
      <trkpt lat="46.16206" lon="-1.26018">
        <ele>4.6</ele>
        <time>2020-05-31T21:10:27Z</time>
      </trkpt>
      <trkpt lat="46.16204" lon="-1.26022">
        <ele>4.6</ele>
        <time>2020-05-31T21:10:28Z</time>
      </trkpt>
      <trkpt lat="46.16202" lon="-1.26026">
        <ele>4.6</ele>
        <time>2020-05-31T21:10:29Z</time>
      </trkpt>
      <trkpt lat="46.16201" lon="-1.2603">
        <ele>4.6</ele>
        <time>2020-05-31T21:10:30Z</time>
      </trkpt>
      <trkpt lat="46.16199" lon="-1.26033">
        <ele>4.6</ele>
        <time>2020-05-31T21:10:31Z</time>
      </trkpt>
      <trkpt lat="46.16197" lon="-1.26037">
        <ele>4.6</ele>
        <time>2020-05-31T21:10:32Z</time>
      </trkpt>
      <trkpt lat="46.16195" lon="-1.2604">
        <ele>4.6</ele>
        <time>2020-05-31T21:10:33Z</time>
      </trkpt>
      <trkpt lat="46.16193" lon="-1.26043">
        <ele>4.6</ele>
        <time>2020-05-31T21:10:34Z</time>
      </trkpt>
      <trkpt lat="46.16191" lon="-1.26046">
        <ele>4.6</ele>
        <time>2020-05-31T21:10:35Z</time>
      </trkpt>
      <trkpt lat="46.16189" lon="-1.26049">
        <ele>4.6</ele>
        <time>2020-05-31T21:10:36Z</time>
      </trkpt>
      <trkpt lat="46.16186" lon="-1.26053">
        <ele>4.6</ele>
        <time>2020-05-31T21:10:37Z</time>
      </trkpt>
      <trkpt lat="46.16185" lon="-1.26054">
        <ele>4.6</ele>
        <time>2020-05-31T21:10:38Z</time>
      </trkpt>
      <trkpt lat="46.16182" lon="-1.26058">
        <ele>4.6</ele>
        <time>2020-05-31T21:10:39Z</time>
      </trkpt>
      <trkpt lat="46.16181" lon="-1.26059">
        <ele>4.6</ele>
        <time>2020-05-31T21:10:40Z</time>
      </trkpt>
      <trkpt lat="46.16179" lon="-1.26062">
        <ele>4.6</ele>
        <time>2020-05-31T21:10:41Z</time>
      </trkpt>
      <trkpt lat="46.16176" lon="-1.26066">
        <ele>4.6</ele>
        <time>2020-05-31T21:10:42Z</time>
      </trkpt>
      <trkpt lat="46.16175" lon="-1.26068">
        <ele>4.6</ele>
        <time>2020-05-31T21:10:43Z</time>
      </trkpt>
      <trkpt lat="46.16172" lon="-1.26071">
        <ele>4.6</ele>
        <time>2020-05-31T21:10:44Z</time>
      </trkpt>
      <trkpt lat="46.16171" lon="-1.26072">
        <ele>4.6</ele>
        <time>2020-05-31T21:10:45Z</time>
      </trkpt>
      <trkpt lat="46.16168" lon="-1.26075">
        <ele>4.6</ele>
        <time>2020-05-31T21:10:46Z</time>
      </trkpt>
      <trkpt lat="46.16167" lon="-1.26076">
        <ele>4.6</ele>
        <time>2020-05-31T21:10:47Z</time>
      </trkpt>
      <trkpt lat="46.16165" lon="-1.2608">
        <ele>4.7</ele>
        <time>2020-05-31T21:10:48Z</time>
      </trkpt>
      <trkpt lat="46.16164" lon="-1.26081">
        <ele>4.7</ele>
        <time>2020-05-31T21:10:49Z</time>
      </trkpt>
      <trkpt lat="46.16161" lon="-1.26084">
        <ele>4.7</ele>
        <time>2020-05-31T21:10:50Z</time>
      </trkpt>
      <trkpt lat="46.1616" lon="-1.26085">
        <ele>4.7</ele>
        <time>2020-05-31T21:10:51Z</time>
      </trkpt>
      <trkpt lat="46.16157" lon="-1.26088">
        <ele>4.7</ele>
        <time>2020-05-31T21:10:52Z</time>
      </trkpt>
      <trkpt lat="46.16156" lon="-1.26089">
        <ele>4.7</ele>
        <time>2020-05-31T21:10:53Z</time>
      </trkpt>
      <trkpt lat="46.16152" lon="-1.26092">
        <ele>4.8</ele>
        <time>2020-05-31T21:10:54Z</time>
      </trkpt>
      <trkpt lat="46.16151" lon="-1.26092">
        <ele>4.8</ele>
        <time>2020-05-31T21:10:55Z</time>
      </trkpt>
      <trkpt lat="46.16148" lon="-1.26094">
        <ele>4.8</ele>
        <time>2020-05-31T21:10:56Z</time>
      </trkpt>
      <trkpt lat="46.16147" lon="-1.26095">
        <ele>4.8</ele>
        <time>2020-05-31T21:10:57Z</time>
      </trkpt>
      <trkpt lat="46.16147" lon="-1.261">
        <ele>4.8</ele>
        <time>2020-05-31T21:10:58Z</time>
      </trkpt>
      <trkpt lat="46.16146" lon="-1.26102">
        <ele>4.9</ele>
        <time>2020-05-31T21:10:59Z</time>
      </trkpt>
      <trkpt lat="46.16144" lon="-1.26103">
        <ele>4.9</ele>
        <time>2020-05-31T21:11:00Z</time>
      </trkpt>
      <trkpt lat="46.16143" lon="-1.26103">
        <ele>4.9</ele>
        <time>2020-05-31T21:11:01Z</time>
      </trkpt>
      <trkpt lat="46.16143" lon="-1.26103">
        <ele>4.9</ele>
        <time>2020-05-31T21:11:02Z</time>
      </trkpt>
      <trkpt lat="46.16143" lon="-1.26103">
        <ele>4.9</ele>
        <time>2020-05-31T21:11:03Z</time>
      </trkpt>
      <trkpt lat="46.16143" lon="-1.26103">
        <ele>4.9</ele>
        <time>2020-05-31T21:11:04Z</time>
      </trkpt>
      <trkpt lat="46.16142" lon="-1.26102">
        <ele>4.9</ele>
        <time>2020-05-31T21:11:05Z</time>
      </trkpt>
      <trkpt lat="46.16142" lon="-1.26102">
        <ele>4.9</ele>
        <time>2020-05-31T21:11:06Z</time>
      </trkpt>
      <trkpt lat="46.16143" lon="-1.26103">
        <ele>4.9</ele>
        <time>2020-05-31T21:11:07Z</time>
      </trkpt>
      <trkpt lat="46.16143" lon="-1.26104">
        <ele>4.9</ele>
        <time>2020-05-31T21:11:08Z</time>
      </trkpt>
      <trkpt lat="46.16143" lon="-1.26105">
        <ele>4.9</ele>
        <time>2020-05-31T21:11:09Z</time>
      </trkpt>
      <trkpt lat="46.16142" lon="-1.26104">
        <ele>4.9</ele>
        <time>2020-05-31T21:11:10Z</time>
      </trkpt>
      <trkpt lat="46.16143" lon="-1.26105">
        <ele>4.9</ele>
        <time>2020-05-31T21:11:11Z</time>
      </trkpt>
      <trkpt lat="46.16135" lon="-1.26112">
        <ele>5</ele>
        <time>2020-05-31T21:12:46Z</time>
      </trkpt>
      <trkpt lat="46.16135" lon="-1.26112">
        <ele>5</ele>
        <time>2020-05-31T21:12:47Z</time>
      </trkpt>
      <trkpt lat="46.16135" lon="-1.26112">
        <ele>5</ele>
        <time>2020-05-31T21:12:48Z</time>
      </trkpt>
      <trkpt lat="46.16135" lon="-1.26113">
        <ele>5</ele>
        <time>2020-05-31T21:12:49Z</time>
      </trkpt>
      <trkpt lat="46.16135" lon="-1.26115">
        <ele>5</ele>
        <time>2020-05-31T21:12:50Z</time>
      </trkpt>
      <trkpt lat="46.16135" lon="-1.26116">
        <ele>5</ele>
        <time>2020-05-31T21:12:51Z</time>
      </trkpt>
      <trkpt lat="46.16135" lon="-1.2612">
        <ele>5</ele>
        <time>2020-05-31T21:12:52Z</time>
      </trkpt>
      <trkpt lat="46.16135" lon="-1.26122">
        <ele>5</ele>
        <time>2020-05-31T21:12:53Z</time>
      </trkpt>
      <trkpt lat="46.16134" lon="-1.26127">
        <ele>5</ele>
        <time>2020-05-31T21:12:54Z</time>
      </trkpt>
      <trkpt lat="46.16134" lon="-1.26128">
        <ele>5</ele>
        <time>2020-05-31T21:12:55Z</time>
      </trkpt>
      <trkpt lat="46.16132" lon="-1.26133">
        <ele>5</ele>
        <time>2020-05-31T21:12:56Z</time>
      </trkpt>
      <trkpt lat="46.16131" lon="-1.26134">
        <ele>5</ele>
        <time>2020-05-31T21:12:57Z</time>
      </trkpt>
      <trkpt lat="46.16129" lon="-1.26138">
        <ele>5.1</ele>
        <time>2020-05-31T21:12:58Z</time>
      </trkpt>
      <trkpt lat="46.16128" lon="-1.2614">
        <ele>5.1</ele>
        <time>2020-05-31T21:12:59Z</time>
      </trkpt>
      <trkpt lat="46.16125" lon="-1.26144">
        <ele>5.1</ele>
        <time>2020-05-31T21:13:00Z</time>
      </trkpt>
      <trkpt lat="46.16124" lon="-1.26145">
        <ele>5.1</ele>
        <time>2020-05-31T21:13:01Z</time>
      </trkpt>
      <trkpt lat="46.16122" lon="-1.2615">
        <ele>5.2</ele>
        <time>2020-05-31T21:13:02Z</time>
      </trkpt>
      <trkpt lat="46.16121" lon="-1.26152">
        <ele>5.2</ele>
        <time>2020-05-31T21:13:03Z</time>
      </trkpt>
      <trkpt lat="46.16119" lon="-1.26156">
        <ele>5.2</ele>
        <time>2020-05-31T21:13:04Z</time>
      </trkpt>
      <trkpt lat="46.16116" lon="-1.2616">
        <ele>5.2</ele>
        <time>2020-05-31T21:13:05Z</time>
      </trkpt>
      <trkpt lat="46.16114" lon="-1.26166">
        <ele>5.3</ele>
        <time>2020-05-31T21:13:06Z</time>
      </trkpt>
      <trkpt lat="46.16112" lon="-1.26174">
        <ele>5.3</ele>
        <time>2020-05-31T21:13:07Z</time>
      </trkpt>
      <trkpt lat="46.1611" lon="-1.26181">
        <ele>5.4</ele>
        <time>2020-05-31T21:13:08Z</time>
      </trkpt>
      <trkpt lat="46.16108" lon="-1.26188">
        <ele>5.4</ele>
        <time>2020-05-31T21:13:09Z</time>
      </trkpt>
      <trkpt lat="46.16105" lon="-1.26194">
        <ele>5.4</ele>
        <time>2020-05-31T21:13:10Z</time>
      </trkpt>
      <trkpt lat="46.16103" lon="-1.26201">
        <ele>5.5</ele>
        <time>2020-05-31T21:13:11Z</time>
      </trkpt>
      <trkpt lat="46.161" lon="-1.26208">
        <ele>5.5</ele>
        <time>2020-05-31T21:13:12Z</time>
      </trkpt>
      <trkpt lat="46.16097" lon="-1.26215">
        <ele>5.5</ele>
        <time>2020-05-31T21:13:13Z</time>
      </trkpt>
      <trkpt lat="46.16094" lon="-1.26222">
        <ele>5.5</ele>
        <time>2020-05-31T21:13:14Z</time>
      </trkpt>
      <trkpt lat="46.16092" lon="-1.26228">
        <ele>5.6</ele>
        <time>2020-05-31T21:13:15Z</time>
      </trkpt>
      <trkpt lat="46.16089" lon="-1.26234">
        <ele>5.5</ele>
        <time>2020-05-31T21:13:16Z</time>
      </trkpt>
      <trkpt lat="46.16087" lon="-1.26241">
        <ele>5.5</ele>
        <time>2020-05-31T21:13:17Z</time>
      </trkpt>
      <trkpt lat="46.16084" lon="-1.26248">
        <ele>5.5</ele>
        <time>2020-05-31T21:13:18Z</time>
      </trkpt>
      <trkpt lat="46.16081" lon="-1.26255">
        <ele>5.5</ele>
        <time>2020-05-31T21:13:19Z</time>
      </trkpt>
      <trkpt lat="46.16078" lon="-1.26263">
        <ele>5.5</ele>
        <time>2020-05-31T21:13:20Z</time>
      </trkpt>
      <trkpt lat="46.16075" lon="-1.2627">
        <ele>5.5</ele>
        <time>2020-05-31T21:13:21Z</time>
      </trkpt>
      <trkpt lat="46.16072" lon="-1.26278">
        <ele>5.5</ele>
        <time>2020-05-31T21:13:22Z</time>
      </trkpt>
      <trkpt lat="46.1607" lon="-1.26286">
        <ele>5.5</ele>
        <time>2020-05-31T21:13:23Z</time>
      </trkpt>
      <trkpt lat="46.16066" lon="-1.26292">
        <ele>5.5</ele>
        <time>2020-05-31T21:13:24Z</time>
      </trkpt>
      <trkpt lat="46.16062" lon="-1.26299">
        <ele>5.5</ele>
        <time>2020-05-31T21:13:25Z</time>
      </trkpt>
      <trkpt lat="46.16058" lon="-1.26306">
        <ele>5.5</ele>
        <time>2020-05-31T21:13:26Z</time>
      </trkpt>
      <trkpt lat="46.16055" lon="-1.26313">
        <ele>5.5</ele>
        <time>2020-05-31T21:13:27Z</time>
      </trkpt>
      <trkpt lat="46.16052" lon="-1.2632">
        <ele>5.4</ele>
        <time>2020-05-31T21:13:28Z</time>
      </trkpt>
      <trkpt lat="46.16048" lon="-1.26326">
        <ele>5.4</ele>
        <time>2020-05-31T21:13:29Z</time>
      </trkpt>
      <trkpt lat="46.16043" lon="-1.26332">
        <ele>5.4</ele>
        <time>2020-05-31T21:13:30Z</time>
      </trkpt>
      <trkpt lat="46.1604" lon="-1.26338">
        <ele>5.4</ele>
        <time>2020-05-31T21:13:31Z</time>
      </trkpt>
      <trkpt lat="46.16035" lon="-1.26344">
        <ele>5.4</ele>
        <time>2020-05-31T21:13:32Z</time>
      </trkpt>
      <trkpt lat="46.16031" lon="-1.26353">
        <ele>5.4</ele>
        <time>2020-05-31T21:13:33Z</time>
      </trkpt>
      <trkpt lat="46.16028" lon="-1.2636">
        <ele>5.3</ele>
        <time>2020-05-31T21:13:34Z</time>
      </trkpt>
      <trkpt lat="46.16024" lon="-1.26368">
        <ele>5.3</ele>
        <time>2020-05-31T21:13:35Z</time>
      </trkpt>
      <trkpt lat="46.16022" lon="-1.26375">
        <ele>5.3</ele>
        <time>2020-05-31T21:13:36Z</time>
      </trkpt>
      <trkpt lat="46.16023" lon="-1.26384">
        <ele>5.2</ele>
        <time>2020-05-31T21:13:37Z</time>
      </trkpt>
      <trkpt lat="46.16022" lon="-1.26394">
        <ele>5.2</ele>
        <time>2020-05-31T21:13:38Z</time>
      </trkpt>
      <trkpt lat="46.1602" lon="-1.26405">
        <ele>5.1</ele>
        <time>2020-05-31T21:13:39Z</time>
      </trkpt>
      <trkpt lat="46.16017" lon="-1.26414">
        <ele>5</ele>
        <time>2020-05-31T21:13:40Z</time>
      </trkpt>
      <trkpt lat="46.16013" lon="-1.26423">
        <ele>5</ele>
        <time>2020-05-31T21:13:41Z</time>
      </trkpt>
      <trkpt lat="46.1601" lon="-1.26431">
        <ele>5</ele>
        <time>2020-05-31T21:13:42Z</time>
      </trkpt>
      <trkpt lat="46.16007" lon="-1.2644">
        <ele>4.9</ele>
        <time>2020-05-31T21:13:43Z</time>
      </trkpt>
      <trkpt lat="46.16004" lon="-1.26449">
        <ele>4.9</ele>
        <time>2020-05-31T21:13:44Z</time>
      </trkpt>
      <trkpt lat="46.16001" lon="-1.26458">
        <ele>4.8</ele>
        <time>2020-05-31T21:13:45Z</time>
      </trkpt>
      <trkpt lat="46.15999" lon="-1.26466">
        <ele>4.8</ele>
        <time>2020-05-31T21:13:46Z</time>
      </trkpt>
      <trkpt lat="46.15997" lon="-1.26475">
        <ele>4.7</ele>
        <time>2020-05-31T21:13:47Z</time>
      </trkpt>
      <trkpt lat="46.15995" lon="-1.26483">
        <ele>4.7</ele>
        <time>2020-05-31T21:13:48Z</time>
      </trkpt>
      <trkpt lat="46.15992" lon="-1.26492">
        <ele>4.6</ele>
        <time>2020-05-31T21:13:49Z</time>
      </trkpt>
      <trkpt lat="46.1599" lon="-1.265">
        <ele>4.6</ele>
        <time>2020-05-31T21:13:50Z</time>
      </trkpt>
      <trkpt lat="46.15987" lon="-1.26507">
        <ele>4.6</ele>
        <time>2020-05-31T21:13:51Z</time>
      </trkpt>
      <trkpt lat="46.15985" lon="-1.26515">
        <ele>4.5</ele>
        <time>2020-05-31T21:13:52Z</time>
      </trkpt>
      <trkpt lat="46.15983" lon="-1.26523">
        <ele>4.5</ele>
        <time>2020-05-31T21:13:53Z</time>
      </trkpt>
      <trkpt lat="46.15981" lon="-1.2653">
        <ele>4.5</ele>
        <time>2020-05-31T21:13:54Z</time>
      </trkpt>
      <trkpt lat="46.1598" lon="-1.26538">
        <ele>4.5</ele>
        <time>2020-05-31T21:13:55Z</time>
      </trkpt>
      <trkpt lat="46.15982" lon="-1.26546">
        <ele>4.5</ele>
        <time>2020-05-31T21:13:56Z</time>
      </trkpt>
      <trkpt lat="46.15982" lon="-1.26553">
        <ele>4.5</ele>
        <time>2020-05-31T21:13:57Z</time>
      </trkpt>
      <trkpt lat="46.15983" lon="-1.26561">
        <ele>4.5</ele>
        <time>2020-05-31T21:13:58Z</time>
      </trkpt>
      <trkpt lat="46.15984" lon="-1.26566">
        <ele>4.5</ele>
        <time>2020-05-31T21:13:59Z</time>
      </trkpt>
      <trkpt lat="46.15984" lon="-1.26571">
        <ele>4.5</ele>
        <time>2020-05-31T21:14:00Z</time>
      </trkpt>
      <trkpt lat="46.15985" lon="-1.26575">
        <ele>4.5</ele>
        <time>2020-05-31T21:14:01Z</time>
      </trkpt>
      <trkpt lat="46.15985" lon="-1.2658">
        <ele>4.5</ele>
        <time>2020-05-31T21:14:02Z</time>
      </trkpt>
      <trkpt lat="46.15983" lon="-1.26584">
        <ele>4.6</ele>
        <time>2020-05-31T21:14:03Z</time>
      </trkpt>
      <trkpt lat="46.15983" lon="-1.26585">
        <ele>4.6</ele>
        <time>2020-05-31T21:14:04Z</time>
      </trkpt>
      <trkpt lat="46.1598" lon="-1.26587">
        <ele>4.7</ele>
        <time>2020-05-31T21:14:05Z</time>
      </trkpt>
      <trkpt lat="46.15979" lon="-1.26588">
        <ele>4.7</ele>
        <time>2020-05-31T21:14:06Z</time>
      </trkpt>
      <trkpt lat="46.15975" lon="-1.2659">
        <ele>4.9</ele>
        <time>2020-05-31T21:14:07Z</time>
      </trkpt>
      <trkpt lat="46.15972" lon="-1.26593">
        <ele>4.9</ele>
        <time>2020-05-31T21:14:08Z</time>
      </trkpt>
      <trkpt lat="46.15968" lon="-1.26596">
        <ele>5</ele>
        <time>2020-05-31T21:14:09Z</time>
      </trkpt>
      <trkpt lat="46.15965" lon="-1.266">
        <ele>5.1</ele>
        <time>2020-05-31T21:14:10Z</time>
      </trkpt>
      <trkpt lat="46.15962" lon="-1.26604">
        <ele>5.2</ele>
        <time>2020-05-31T21:14:11Z</time>
      </trkpt>
      <trkpt lat="46.15959" lon="-1.26608">
        <ele>5.2</ele>
        <time>2020-05-31T21:14:12Z</time>
      </trkpt>
      <trkpt lat="46.15955" lon="-1.26612">
        <ele>5.3</ele>
        <time>2020-05-31T21:14:13Z</time>
      </trkpt>
      <trkpt lat="46.15951" lon="-1.26617">
        <ele>5.4</ele>
        <time>2020-05-31T21:14:14Z</time>
      </trkpt>
      <trkpt lat="46.15947" lon="-1.2662">
        <ele>5.5</ele>
        <time>2020-05-31T21:14:15Z</time>
      </trkpt>
      <trkpt lat="46.15943" lon="-1.26624">
        <ele>5.6</ele>
        <time>2020-05-31T21:14:16Z</time>
      </trkpt>
      <trkpt lat="46.15938" lon="-1.26628">
        <ele>5.8</ele>
        <time>2020-05-31T21:14:17Z</time>
      </trkpt>
      <trkpt lat="46.15934" lon="-1.26633">
        <ele>5.9</ele>
        <time>2020-05-31T21:14:18Z</time>
      </trkpt>
      <trkpt lat="46.15931" lon="-1.26639">
        <ele>6.1</ele>
        <time>2020-05-31T21:14:19Z</time>
      </trkpt>
      <trkpt lat="46.15928" lon="-1.26645">
        <ele>6.3</ele>
        <time>2020-05-31T21:14:20Z</time>
      </trkpt>
      <trkpt lat="46.15925" lon="-1.26652">
        <ele>6.4</ele>
        <time>2020-05-31T21:14:21Z</time>
      </trkpt>
      <trkpt lat="46.15921" lon="-1.26657">
        <ele>6.5</ele>
        <time>2020-05-31T21:14:22Z</time>
      </trkpt>
      <trkpt lat="46.15918" lon="-1.26664">
        <ele>6.6</ele>
        <time>2020-05-31T21:14:23Z</time>
      </trkpt>
      <trkpt lat="46.15916" lon="-1.26671">
        <ele>6.7</ele>
        <time>2020-05-31T21:14:24Z</time>
      </trkpt>
      <trkpt lat="46.15913" lon="-1.26678">
        <ele>6.8</ele>
        <time>2020-05-31T21:14:25Z</time>
      </trkpt>
      <trkpt lat="46.15911" lon="-1.26685">
        <ele>6.9</ele>
        <time>2020-05-31T21:14:26Z</time>
      </trkpt>
      <trkpt lat="46.15909" lon="-1.26692">
        <ele>7</ele>
        <time>2020-05-31T21:14:27Z</time>
      </trkpt>
      <trkpt lat="46.15907" lon="-1.26699">
        <ele>7</ele>
        <time>2020-05-31T21:14:28Z</time>
      </trkpt>
      <trkpt lat="46.15905" lon="-1.26706">
        <ele>7</ele>
        <time>2020-05-31T21:14:29Z</time>
      </trkpt>
      <trkpt lat="46.15904" lon="-1.26713">
        <ele>7.1</ele>
        <time>2020-05-31T21:14:30Z</time>
      </trkpt>
      <trkpt lat="46.15902" lon="-1.26719">
        <ele>7.1</ele>
        <time>2020-05-31T21:14:31Z</time>
      </trkpt>
      <trkpt lat="46.159" lon="-1.26726">
        <ele>7.1</ele>
        <time>2020-05-31T21:14:32Z</time>
      </trkpt>
      <trkpt lat="46.15899" lon="-1.26733">
        <ele>7.2</ele>
        <time>2020-05-31T21:14:33Z</time>
      </trkpt>
      <trkpt lat="46.15897" lon="-1.26741">
        <ele>7.2</ele>
        <time>2020-05-31T21:14:34Z</time>
      </trkpt>
      <trkpt lat="46.15896" lon="-1.26748">
        <ele>7.2</ele>
        <time>2020-05-31T21:14:35Z</time>
      </trkpt>
      <trkpt lat="46.15895" lon="-1.26755">
        <ele>7.2</ele>
        <time>2020-05-31T21:14:36Z</time>
      </trkpt>
      <trkpt lat="46.15893" lon="-1.26762">
        <ele>7.2</ele>
        <time>2020-05-31T21:14:37Z</time>
      </trkpt>
      <trkpt lat="46.15892" lon="-1.26769">
        <ele>7.3</ele>
        <time>2020-05-31T21:14:38Z</time>
      </trkpt>
      <trkpt lat="46.15891" lon="-1.26777">
        <ele>7.3</ele>
        <time>2020-05-31T21:14:39Z</time>
      </trkpt>
      <trkpt lat="46.1589" lon="-1.26784">
        <ele>7.3</ele>
        <time>2020-05-31T21:14:40Z</time>
      </trkpt>
      <trkpt lat="46.15889" lon="-1.26792">
        <ele>7.3</ele>
        <time>2020-05-31T21:14:41Z</time>
      </trkpt>
      <trkpt lat="46.15888" lon="-1.26799">
        <ele>7.3</ele>
        <time>2020-05-31T21:14:42Z</time>
      </trkpt>
      <trkpt lat="46.15887" lon="-1.26806">
        <ele>7.3</ele>
        <time>2020-05-31T21:14:43Z</time>
      </trkpt>
      <trkpt lat="46.15886" lon="-1.26814">
        <ele>7.3</ele>
        <time>2020-05-31T21:14:44Z</time>
      </trkpt>
      <trkpt lat="46.15886" lon="-1.26822">
        <ele>7.3</ele>
        <time>2020-05-31T21:14:45Z</time>
      </trkpt>
      <trkpt lat="46.15885" lon="-1.26829">
        <ele>7.4</ele>
        <time>2020-05-31T21:14:46Z</time>
      </trkpt>
      <trkpt lat="46.15884" lon="-1.26837">
        <ele>7.4</ele>
        <time>2020-05-31T21:14:47Z</time>
      </trkpt>
      <trkpt lat="46.15883" lon="-1.26844">
        <ele>7.4</ele>
        <time>2020-05-31T21:14:48Z</time>
      </trkpt>
      <trkpt lat="46.15881" lon="-1.26852">
        <ele>7.4</ele>
        <time>2020-05-31T21:14:49Z</time>
      </trkpt>
      <trkpt lat="46.1588" lon="-1.2686">
        <ele>7.4</ele>
        <time>2020-05-31T21:14:50Z</time>
      </trkpt>
      <trkpt lat="46.15879" lon="-1.26868">
        <ele>7.4</ele>
        <time>2020-05-31T21:14:51Z</time>
      </trkpt>
      <trkpt lat="46.15878" lon="-1.26876">
        <ele>7.4</ele>
        <time>2020-05-31T21:14:52Z</time>
      </trkpt>
      <trkpt lat="46.15877" lon="-1.26884">
        <ele>7.4</ele>
        <time>2020-05-31T21:14:53Z</time>
      </trkpt>
      <trkpt lat="46.15876" lon="-1.26893">
        <ele>7.4</ele>
        <time>2020-05-31T21:14:54Z</time>
      </trkpt>
      <trkpt lat="46.15876" lon="-1.26902">
        <ele>7.4</ele>
        <time>2020-05-31T21:14:55Z</time>
      </trkpt>
      <trkpt lat="46.15876" lon="-1.2691">
        <ele>7.4</ele>
        <time>2020-05-31T21:14:56Z</time>
      </trkpt>
      <trkpt lat="46.15876" lon="-1.26919">
        <ele>7.4</ele>
        <time>2020-05-31T21:14:57Z</time>
      </trkpt>
      <trkpt lat="46.15876" lon="-1.26927">
        <ele>7.3</ele>
        <time>2020-05-31T21:14:58Z</time>
      </trkpt>
      <trkpt lat="46.15876" lon="-1.26935">
        <ele>7.3</ele>
        <time>2020-05-31T21:14:59Z</time>
      </trkpt>
      <trkpt lat="46.15876" lon="-1.26944">
        <ele>7.3</ele>
        <time>2020-05-31T21:15:00Z</time>
      </trkpt>
      <trkpt lat="46.15876" lon="-1.26952">
        <ele>7.3</ele>
        <time>2020-05-31T21:15:01Z</time>
      </trkpt>
      <trkpt lat="46.15876" lon="-1.2696">
        <ele>7.2</ele>
        <time>2020-05-31T21:15:02Z</time>
      </trkpt>
      <trkpt lat="46.15876" lon="-1.26969">
        <ele>7.2</ele>
        <time>2020-05-31T21:15:03Z</time>
      </trkpt>
      <trkpt lat="46.15877" lon="-1.26978">
        <ele>7.2</ele>
        <time>2020-05-31T21:15:04Z</time>
      </trkpt>
      <trkpt lat="46.15878" lon="-1.26987">
        <ele>7.2</ele>
        <time>2020-05-31T21:15:05Z</time>
      </trkpt>
      <trkpt lat="46.15878" lon="-1.26996">
        <ele>7.1</ele>
        <time>2020-05-31T21:15:06Z</time>
      </trkpt>
      <trkpt lat="46.15878" lon="-1.27004">
        <ele>7.1</ele>
        <time>2020-05-31T21:15:07Z</time>
      </trkpt>
      <trkpt lat="46.15879" lon="-1.27013">
        <ele>7.1</ele>
        <time>2020-05-31T21:15:08Z</time>
      </trkpt>
      <trkpt lat="46.1588" lon="-1.27022">
        <ele>7</ele>
        <time>2020-05-31T21:15:09Z</time>
      </trkpt>
      <trkpt lat="46.1588" lon="-1.2703">
        <ele>7</ele>
        <time>2020-05-31T21:15:10Z</time>
      </trkpt>
      <trkpt lat="46.1588" lon="-1.27038">
        <ele>7</ele>
        <time>2020-05-31T21:15:11Z</time>
      </trkpt>
      <trkpt lat="46.1588" lon="-1.27046">
        <ele>7</ele>
        <time>2020-05-31T21:15:12Z</time>
      </trkpt>
      <trkpt lat="46.1588" lon="-1.27054">
        <ele>6.9</ele>
        <time>2020-05-31T21:15:13Z</time>
      </trkpt>
      <trkpt lat="46.1588" lon="-1.27062">
        <ele>6.9</ele>
        <time>2020-05-31T21:15:14Z</time>
      </trkpt>
      <trkpt lat="46.15881" lon="-1.27069">
        <ele>6.9</ele>
        <time>2020-05-31T21:15:15Z</time>
      </trkpt>
      <trkpt lat="46.15881" lon="-1.27077">
        <ele>6.8</ele>
        <time>2020-05-31T21:15:16Z</time>
      </trkpt>
      <trkpt lat="46.15882" lon="-1.27086">
        <ele>6.8</ele>
        <time>2020-05-31T21:15:17Z</time>
      </trkpt>
      <trkpt lat="46.15883" lon="-1.27093">
        <ele>6.8</ele>
        <time>2020-05-31T21:15:18Z</time>
      </trkpt>
      <trkpt lat="46.15884" lon="-1.27102">
        <ele>6.7</ele>
        <time>2020-05-31T21:15:19Z</time>
      </trkpt>
      <trkpt lat="46.15885" lon="-1.27109">
        <ele>6.7</ele>
        <time>2020-05-31T21:15:20Z</time>
      </trkpt>
      <trkpt lat="46.15887" lon="-1.27115">
        <ele>6.6</ele>
        <time>2020-05-31T21:15:21Z</time>
      </trkpt>
      <trkpt lat="46.15889" lon="-1.27125">
        <ele>6.6</ele>
        <time>2020-05-31T21:15:22Z</time>
      </trkpt>
      <trkpt lat="46.1589" lon="-1.27133">
        <ele>6.5</ele>
        <time>2020-05-31T21:15:23Z</time>
      </trkpt>
      <trkpt lat="46.15893" lon="-1.27144">
        <ele>6.4</ele>
        <time>2020-05-31T21:15:24Z</time>
      </trkpt>
      <trkpt lat="46.15895" lon="-1.27152">
        <ele>6.3</ele>
        <time>2020-05-31T21:15:25Z</time>
      </trkpt>
      <trkpt lat="46.15897" lon="-1.27159">
        <ele>6.1</ele>
        <time>2020-05-31T21:15:26Z</time>
      </trkpt>
      <trkpt lat="46.159" lon="-1.27166">
        <ele>6</ele>
        <time>2020-05-31T21:15:27Z</time>
      </trkpt>
      <trkpt lat="46.15904" lon="-1.27176">
        <ele>5.8</ele>
        <time>2020-05-31T21:15:28Z</time>
      </trkpt>
      <trkpt lat="46.15907" lon="-1.27186">
        <ele>5.6</ele>
        <time>2020-05-31T21:15:29Z</time>
      </trkpt>
      <trkpt lat="46.1591" lon="-1.27196">
        <ele>5.5</ele>
        <time>2020-05-31T21:15:30Z</time>
      </trkpt>
      <trkpt lat="46.15912" lon="-1.27207">
        <ele>5.3</ele>
        <time>2020-05-31T21:15:31Z</time>
      </trkpt>
      <trkpt lat="46.15914" lon="-1.27218">
        <ele>5.3</ele>
        <time>2020-05-31T21:15:32Z</time>
      </trkpt>
      <trkpt lat="46.15915" lon="-1.27229">
        <ele>5.2</ele>
        <time>2020-05-31T21:15:33Z</time>
      </trkpt>
      <trkpt lat="46.15916" lon="-1.27239">
        <ele>5.1</ele>
        <time>2020-05-31T21:15:34Z</time>
      </trkpt>
      <trkpt lat="46.15915" lon="-1.27249">
        <ele>5.1</ele>
        <time>2020-05-31T21:15:35Z</time>
      </trkpt>
      <trkpt lat="46.15915" lon="-1.27258">
        <ele>5</ele>
        <time>2020-05-31T21:15:36Z</time>
      </trkpt>
      <trkpt lat="46.15914" lon="-1.27267">
        <ele>4.9</ele>
        <time>2020-05-31T21:15:37Z</time>
      </trkpt>
      <trkpt lat="46.15913" lon="-1.27275">
        <ele>4.8</ele>
        <time>2020-05-31T21:15:38Z</time>
      </trkpt>
      <trkpt lat="46.15912" lon="-1.27284">
        <ele>4.7</ele>
        <time>2020-05-31T21:15:39Z</time>
      </trkpt>
      <trkpt lat="46.15912" lon="-1.27291">
        <ele>4.7</ele>
        <time>2020-05-31T21:15:40Z</time>
      </trkpt>
      <trkpt lat="46.15911" lon="-1.273">
        <ele>4.7</ele>
        <time>2020-05-31T21:15:41Z</time>
      </trkpt>
      <trkpt lat="46.1591" lon="-1.27309">
        <ele>4.7</ele>
        <time>2020-05-31T21:15:42Z</time>
      </trkpt>
      <trkpt lat="46.1591" lon="-1.27317">
        <ele>4.7</ele>
        <time>2020-05-31T21:15:43Z</time>
      </trkpt>
      <trkpt lat="46.15909" lon="-1.27325">
        <ele>4.7</ele>
        <time>2020-05-31T21:15:44Z</time>
      </trkpt>
      <trkpt lat="46.15908" lon="-1.27334">
        <ele>4.6</ele>
        <time>2020-05-31T21:15:45Z</time>
      </trkpt>
      <trkpt lat="46.15907" lon="-1.27343">
        <ele>4.5</ele>
        <time>2020-05-31T21:15:46Z</time>
      </trkpt>
      <trkpt lat="46.15907" lon="-1.27352">
        <ele>4.4</ele>
        <time>2020-05-31T21:15:47Z</time>
      </trkpt>
      <trkpt lat="46.15908" lon="-1.27361">
        <ele>4.3</ele>
        <time>2020-05-31T21:15:48Z</time>
      </trkpt>
      <trkpt lat="46.1591" lon="-1.27369">
        <ele>4.1</ele>
        <time>2020-05-31T21:15:49Z</time>
      </trkpt>
      <trkpt lat="46.15912" lon="-1.27377">
        <ele>4</ele>
        <time>2020-05-31T21:15:50Z</time>
      </trkpt>
      <trkpt lat="46.15915" lon="-1.27385">
        <ele>3.9</ele>
        <time>2020-05-31T21:15:51Z</time>
      </trkpt>
      <trkpt lat="46.15919" lon="-1.27393">
        <ele>3.9</ele>
        <time>2020-05-31T21:15:52Z</time>
      </trkpt>
      <trkpt lat="46.15922" lon="-1.27402">
        <ele>3.8</ele>
        <time>2020-05-31T21:15:53Z</time>
      </trkpt>
      <trkpt lat="46.15924" lon="-1.2741">
        <ele>3.7</ele>
        <time>2020-05-31T21:15:54Z</time>
      </trkpt>
      <trkpt lat="46.15928" lon="-1.27418">
        <ele>3.7</ele>
        <time>2020-05-31T21:15:55Z</time>
      </trkpt>
      <trkpt lat="46.15931" lon="-1.27427">
        <ele>3.6</ele>
        <time>2020-05-31T21:15:56Z</time>
      </trkpt>
      <trkpt lat="46.15935" lon="-1.27434">
        <ele>3.5</ele>
        <time>2020-05-31T21:15:57Z</time>
      </trkpt>
      <trkpt lat="46.15938" lon="-1.27443">
        <ele>3.4</ele>
        <time>2020-05-31T21:15:58Z</time>
      </trkpt>
      <trkpt lat="46.15941" lon="-1.2745">
        <ele>3.3</ele>
        <time>2020-05-31T21:15:59Z</time>
      </trkpt>
      <trkpt lat="46.15945" lon="-1.27458">
        <ele>3.2</ele>
        <time>2020-05-31T21:16:00Z</time>
      </trkpt>
      <trkpt lat="46.15948" lon="-1.27465">
        <ele>3.1</ele>
        <time>2020-05-31T21:16:01Z</time>
      </trkpt>
      <trkpt lat="46.15952" lon="-1.27472">
        <ele>3</ele>
        <time>2020-05-31T21:16:02Z</time>
      </trkpt>
      <trkpt lat="46.15955" lon="-1.2748">
        <ele>3</ele>
        <time>2020-05-31T21:16:03Z</time>
      </trkpt>
      <trkpt lat="46.15959" lon="-1.27487">
        <ele>3</ele>
        <time>2020-05-31T21:16:04Z</time>
      </trkpt>
      <trkpt lat="46.15962" lon="-1.27495">
        <ele>2.9</ele>
        <time>2020-05-31T21:16:05Z</time>
      </trkpt>
      <trkpt lat="46.15965" lon="-1.27502">
        <ele>2.9</ele>
        <time>2020-05-31T21:16:06Z</time>
      </trkpt>
      <trkpt lat="46.15969" lon="-1.2751">
        <ele>2.8</ele>
        <time>2020-05-31T21:16:07Z</time>
      </trkpt>
      <trkpt lat="46.15972" lon="-1.27518">
        <ele>2.8</ele>
        <time>2020-05-31T21:16:08Z</time>
      </trkpt>
      <trkpt lat="46.15975" lon="-1.27525">
        <ele>2.8</ele>
        <time>2020-05-31T21:16:09Z</time>
      </trkpt>
      <trkpt lat="46.15979" lon="-1.27533">
        <ele>2.8</ele>
        <time>2020-05-31T21:16:10Z</time>
      </trkpt>
      <trkpt lat="46.15982" lon="-1.2754">
        <ele>2.8</ele>
        <time>2020-05-31T21:16:11Z</time>
      </trkpt>
      <trkpt lat="46.15985" lon="-1.27548">
        <ele>2.7</ele>
        <time>2020-05-31T21:16:12Z</time>
      </trkpt>
      <trkpt lat="46.15988" lon="-1.27556">
        <ele>2.7</ele>
        <time>2020-05-31T21:16:13Z</time>
      </trkpt>
      <trkpt lat="46.1599" lon="-1.27564">
        <ele>2.8</ele>
        <time>2020-05-31T21:16:14Z</time>
      </trkpt>
      <trkpt lat="46.15992" lon="-1.27573">
        <ele>2.8</ele>
        <time>2020-05-31T21:16:15Z</time>
      </trkpt>
      <trkpt lat="46.15994" lon="-1.27581">
        <ele>2.9</ele>
        <time>2020-05-31T21:16:16Z</time>
      </trkpt>
      <trkpt lat="46.15995" lon="-1.2759">
        <ele>3</ele>
        <time>2020-05-31T21:16:17Z</time>
      </trkpt>
      <trkpt lat="46.15997" lon="-1.27599">
        <ele>3.1</ele>
        <time>2020-05-31T21:16:18Z</time>
      </trkpt>
      <trkpt lat="46.15999" lon="-1.27606">
        <ele>3.2</ele>
        <time>2020-05-31T21:16:19Z</time>
      </trkpt>
      <trkpt lat="46.16" lon="-1.27614">
        <ele>3.2</ele>
        <time>2020-05-31T21:16:20Z</time>
      </trkpt>
      <trkpt lat="46.16002" lon="-1.27622">
        <ele>3.3</ele>
        <time>2020-05-31T21:16:21Z</time>
      </trkpt>
      <trkpt lat="46.16003" lon="-1.2763">
        <ele>3.4</ele>
        <time>2020-05-31T21:16:22Z</time>
      </trkpt>
      <trkpt lat="46.16004" lon="-1.27638">
        <ele>3.5</ele>
        <time>2020-05-31T21:16:23Z</time>
      </trkpt>
      <trkpt lat="46.16003" lon="-1.27646">
        <ele>3.6</ele>
        <time>2020-05-31T21:16:24Z</time>
      </trkpt>
      <trkpt lat="46.16002" lon="-1.27653">
        <ele>3.7</ele>
        <time>2020-05-31T21:16:25Z</time>
      </trkpt>
      <trkpt lat="46.15998" lon="-1.27656">
        <ele>3.8</ele>
        <time>2020-05-31T21:16:26Z</time>
      </trkpt>
      <trkpt lat="46.15994" lon="-1.27657">
        <ele>3.9</ele>
        <time>2020-05-31T21:16:27Z</time>
      </trkpt>
      <trkpt lat="46.15989" lon="-1.27659">
        <ele>3.9</ele>
        <time>2020-05-31T21:16:28Z</time>
      </trkpt>
      <trkpt lat="46.15985" lon="-1.27659">
        <ele>4</ele>
        <time>2020-05-31T21:16:29Z</time>
      </trkpt>
      <trkpt lat="46.1598" lon="-1.2766">
        <ele>4</ele>
        <time>2020-05-31T21:16:30Z</time>
      </trkpt>
      <trkpt lat="46.15976" lon="-1.2766">
        <ele>4</ele>
        <time>2020-05-31T21:16:31Z</time>
      </trkpt>
      <trkpt lat="46.15971" lon="-1.27659">
        <ele>4.1</ele>
        <time>2020-05-31T21:16:32Z</time>
      </trkpt>
      <trkpt lat="46.15968" lon="-1.27658">
        <ele>4.1</ele>
        <time>2020-05-31T21:16:33Z</time>
      </trkpt>
      <trkpt lat="46.15964" lon="-1.27658">
        <ele>4.2</ele>
        <time>2020-05-31T21:16:34Z</time>
      </trkpt>
      <trkpt lat="46.1596" lon="-1.27658">
        <ele>4.2</ele>
        <time>2020-05-31T21:16:35Z</time>
      </trkpt>
      <trkpt lat="46.15955" lon="-1.27656">
        <ele>4.3</ele>
        <time>2020-05-31T21:16:36Z</time>
      </trkpt>
      <trkpt lat="46.15951" lon="-1.27657">
        <ele>4.4</ele>
        <time>2020-05-31T21:16:37Z</time>
      </trkpt>
      <trkpt lat="46.15949" lon="-1.27662">
        <ele>4.4</ele>
        <time>2020-05-31T21:16:38Z</time>
      </trkpt>
      <trkpt lat="46.15948" lon="-1.27667">
        <ele>4.7</ele>
        <time>2020-05-31T21:16:39Z</time>
      </trkpt>
      <trkpt lat="46.15947" lon="-1.27674">
        <ele>4.8</ele>
        <time>2020-05-31T21:16:40Z</time>
      </trkpt>
      <trkpt lat="46.15944" lon="-1.27679">
        <ele>4.8</ele>
        <time>2020-05-31T21:16:41Z</time>
      </trkpt>
      <trkpt lat="46.15941" lon="-1.27685">
        <ele>4.9</ele>
        <time>2020-05-31T21:16:42Z</time>
      </trkpt>
      <trkpt lat="46.15941" lon="-1.27693">
        <ele>5</ele>
        <time>2020-05-31T21:16:43Z</time>
      </trkpt>
      <trkpt lat="46.1594" lon="-1.277">
        <ele>5.1</ele>
        <time>2020-05-31T21:16:44Z</time>
      </trkpt>
      <trkpt lat="46.15939" lon="-1.27708">
        <ele>5.3</ele>
        <time>2020-05-31T21:16:45Z</time>
      </trkpt>
      <trkpt lat="46.15937" lon="-1.27716">
        <ele>5.4</ele>
        <time>2020-05-31T21:16:46Z</time>
      </trkpt>
      <trkpt lat="46.15936" lon="-1.27724">
        <ele>5.6</ele>
        <time>2020-05-31T21:16:47Z</time>
      </trkpt>
      <trkpt lat="46.15935" lon="-1.27731">
        <ele>5.8</ele>
        <time>2020-05-31T21:16:48Z</time>
      </trkpt>
      <trkpt lat="46.15935" lon="-1.27739">
        <ele>6</ele>
        <time>2020-05-31T21:16:49Z</time>
      </trkpt>
      <trkpt lat="46.15934" lon="-1.27747">
        <ele>6.1</ele>
        <time>2020-05-31T21:16:50Z</time>
      </trkpt>
      <trkpt lat="46.15933" lon="-1.27756">
        <ele>6.2</ele>
        <time>2020-05-31T21:16:51Z</time>
      </trkpt>
      <trkpt lat="46.15932" lon="-1.27764">
        <ele>6.3</ele>
        <time>2020-05-31T21:16:52Z</time>
      </trkpt>
      <trkpt lat="46.15932" lon="-1.27772">
        <ele>6.4</ele>
        <time>2020-05-31T21:16:53Z</time>
      </trkpt>
      <trkpt lat="46.1593" lon="-1.27781">
        <ele>6.5</ele>
        <time>2020-05-31T21:16:54Z</time>
      </trkpt>
      <trkpt lat="46.15928" lon="-1.27788">
        <ele>6.6</ele>
        <time>2020-05-31T21:16:55Z</time>
      </trkpt>
      <trkpt lat="46.15928" lon="-1.27795">
        <ele>6.6</ele>
        <time>2020-05-31T21:16:56Z</time>
      </trkpt>
      <trkpt lat="46.15927" lon="-1.27803">
        <ele>6.7</ele>
        <time>2020-05-31T21:16:57Z</time>
      </trkpt>
      <trkpt lat="46.15924" lon="-1.27814">
        <ele>6.8</ele>
        <time>2020-05-31T21:16:58Z</time>
      </trkpt>
      <trkpt lat="46.15923" lon="-1.27823">
        <ele>6.8</ele>
        <time>2020-05-31T21:16:59Z</time>
      </trkpt>
      <trkpt lat="46.15922" lon="-1.27832">
        <ele>6.9</ele>
        <time>2020-05-31T21:17:00Z</time>
      </trkpt>
      <trkpt lat="46.15922" lon="-1.27839">
        <ele>6.9</ele>
        <time>2020-05-31T21:17:01Z</time>
      </trkpt>
      <trkpt lat="46.1592" lon="-1.27848">
        <ele>7</ele>
        <time>2020-05-31T21:17:02Z</time>
      </trkpt>
      <trkpt lat="46.15919" lon="-1.27854">
        <ele>7</ele>
        <time>2020-05-31T21:17:03Z</time>
      </trkpt>
      <trkpt lat="46.15918" lon="-1.27862">
        <ele>7</ele>
        <time>2020-05-31T21:17:04Z</time>
      </trkpt>
      <trkpt lat="46.15917" lon="-1.27871">
        <ele>7</ele>
        <time>2020-05-31T21:17:05Z</time>
      </trkpt>
      <trkpt lat="46.15917" lon="-1.2788">
        <ele>7.1</ele>
        <time>2020-05-31T21:17:06Z</time>
      </trkpt>
      <trkpt lat="46.15916" lon="-1.27888">
        <ele>7.1</ele>
        <time>2020-05-31T21:17:07Z</time>
      </trkpt>
      <trkpt lat="46.15915" lon="-1.27898">
        <ele>7.1</ele>
        <time>2020-05-31T21:17:08Z</time>
      </trkpt>
      <trkpt lat="46.15914" lon="-1.27905">
        <ele>7.1</ele>
        <time>2020-05-31T21:17:09Z</time>
      </trkpt>
      <trkpt lat="46.15913" lon="-1.27913">
        <ele>7.1</ele>
        <time>2020-05-31T21:17:10Z</time>
      </trkpt>
      <trkpt lat="46.15912" lon="-1.27918">
        <ele>7.1</ele>
        <time>2020-05-31T21:17:11Z</time>
      </trkpt>
      <trkpt lat="46.1591" lon="-1.27926">
        <ele>7.2</ele>
        <time>2020-05-31T21:17:12Z</time>
      </trkpt>
      <trkpt lat="46.15909" lon="-1.27935">
        <ele>7.2</ele>
        <time>2020-05-31T21:17:13Z</time>
      </trkpt>
      <trkpt lat="46.15908" lon="-1.27943">
        <ele>7.3</ele>
        <time>2020-05-31T21:17:14Z</time>
      </trkpt>
      <trkpt lat="46.15907" lon="-1.27951">
        <ele>7.4</ele>
        <time>2020-05-31T21:17:15Z</time>
      </trkpt>
      <trkpt lat="46.15906" lon="-1.27961">
        <ele>7.6</ele>
        <time>2020-05-31T21:17:16Z</time>
      </trkpt>
      <trkpt lat="46.15905" lon="-1.2797">
        <ele>7.7</ele>
        <time>2020-05-31T21:17:17Z</time>
      </trkpt>
      <trkpt lat="46.15903" lon="-1.27978">
        <ele>7.8</ele>
        <time>2020-05-31T21:17:18Z</time>
      </trkpt>
      <trkpt lat="46.15901" lon="-1.27986">
        <ele>7.9</ele>
        <time>2020-05-31T21:17:19Z</time>
      </trkpt>
      <trkpt lat="46.15899" lon="-1.27994">
        <ele>8</ele>
        <time>2020-05-31T21:17:20Z</time>
      </trkpt>
      <trkpt lat="46.15897" lon="-1.28002">
        <ele>8.1</ele>
        <time>2020-05-31T21:17:21Z</time>
      </trkpt>
      <trkpt lat="46.15895" lon="-1.28009">
        <ele>8.1</ele>
        <time>2020-05-31T21:17:22Z</time>
      </trkpt>
      <trkpt lat="46.15892" lon="-1.28018">
        <ele>8.2</ele>
        <time>2020-05-31T21:17:23Z</time>
      </trkpt>
      <trkpt lat="46.1589" lon="-1.28025">
        <ele>8.3</ele>
        <time>2020-05-31T21:17:24Z</time>
      </trkpt>
      <trkpt lat="46.15887" lon="-1.28031">
        <ele>8.3</ele>
        <time>2020-05-31T21:17:25Z</time>
      </trkpt>
      <trkpt lat="46.15883" lon="-1.28036">
        <ele>8.4</ele>
        <time>2020-05-31T21:17:26Z</time>
      </trkpt>
      <trkpt lat="46.1588" lon="-1.28041">
        <ele>8.5</ele>
        <time>2020-05-31T21:17:27Z</time>
      </trkpt>
      <trkpt lat="46.15877" lon="-1.28046">
        <ele>8.6</ele>
        <time>2020-05-31T21:17:28Z</time>
      </trkpt>
      <trkpt lat="46.15874" lon="-1.28052">
        <ele>8.7</ele>
        <time>2020-05-31T21:17:29Z</time>
      </trkpt>
      <trkpt lat="46.1587" lon="-1.28057">
        <ele>8.8</ele>
        <time>2020-05-31T21:17:30Z</time>
      </trkpt>
      <trkpt lat="46.15867" lon="-1.28062">
        <ele>8.9</ele>
        <time>2020-05-31T21:17:31Z</time>
      </trkpt>
      <trkpt lat="46.15864" lon="-1.2807">
        <ele>9</ele>
        <time>2020-05-31T21:17:32Z</time>
      </trkpt>
      <trkpt lat="46.15861" lon="-1.28076">
        <ele>9.2</ele>
        <time>2020-05-31T21:17:33Z</time>
      </trkpt>
      <trkpt lat="46.15857" lon="-1.28085">
        <ele>9.3</ele>
        <time>2020-05-31T21:17:34Z</time>
      </trkpt>
      <trkpt lat="46.15854" lon="-1.28091">
        <ele>9.4</ele>
        <time>2020-05-31T21:17:35Z</time>
      </trkpt>
      <trkpt lat="46.15851" lon="-1.281">
        <ele>9.4</ele>
        <time>2020-05-31T21:17:36Z</time>
      </trkpt>
      <trkpt lat="46.15848" lon="-1.28106">
        <ele>9.4</ele>
        <time>2020-05-31T21:17:37Z</time>
      </trkpt>
      <trkpt lat="46.15844" lon="-1.28113">
        <ele>9.4</ele>
        <time>2020-05-31T21:17:38Z</time>
      </trkpt>
      <trkpt lat="46.15841" lon="-1.2812">
        <ele>9.5</ele>
        <time>2020-05-31T21:17:39Z</time>
      </trkpt>
      <trkpt lat="46.15838" lon="-1.28126">
        <ele>9.5</ele>
        <time>2020-05-31T21:17:40Z</time>
      </trkpt>
      <trkpt lat="46.15836" lon="-1.28134">
        <ele>9.5</ele>
        <time>2020-05-31T21:17:41Z</time>
      </trkpt>
      <trkpt lat="46.15834" lon="-1.2814">
        <ele>9.5</ele>
        <time>2020-05-31T21:17:42Z</time>
      </trkpt>
      <trkpt lat="46.15832" lon="-1.28146">
        <ele>9.5</ele>
        <time>2020-05-31T21:17:43Z</time>
      </trkpt>
      <trkpt lat="46.15829" lon="-1.28153">
        <ele>9.5</ele>
        <time>2020-05-31T21:17:44Z</time>
      </trkpt>
      <trkpt lat="46.15827" lon="-1.28161">
        <ele>9.5</ele>
        <time>2020-05-31T21:17:45Z</time>
      </trkpt>
      <trkpt lat="46.15824" lon="-1.28168">
        <ele>9.6</ele>
        <time>2020-05-31T21:17:46Z</time>
      </trkpt>
      <trkpt lat="46.15822" lon="-1.28175">
        <ele>9.7</ele>
        <time>2020-05-31T21:17:47Z</time>
      </trkpt>
      <trkpt lat="46.15819" lon="-1.28182">
        <ele>9.9</ele>
        <time>2020-05-31T21:17:48Z</time>
      </trkpt>
      <trkpt lat="46.15816" lon="-1.28189">
        <ele>10</ele>
        <time>2020-05-31T21:17:49Z</time>
      </trkpt>
      <trkpt lat="46.15813" lon="-1.28196">
        <ele>10.2</ele>
        <time>2020-05-31T21:17:50Z</time>
      </trkpt>
      <trkpt lat="46.15811" lon="-1.28204">
        <ele>10.3</ele>
        <time>2020-05-31T21:17:51Z</time>
      </trkpt>
      <trkpt lat="46.15808" lon="-1.28211">
        <ele>10.4</ele>
        <time>2020-05-31T21:17:52Z</time>
      </trkpt>
      <trkpt lat="46.15805" lon="-1.28218">
        <ele>10.4</ele>
        <time>2020-05-31T21:17:53Z</time>
      </trkpt>
      <trkpt lat="46.15802" lon="-1.28226">
        <ele>10.5</ele>
        <time>2020-05-31T21:17:54Z</time>
      </trkpt>
      <trkpt lat="46.15799" lon="-1.28232">
        <ele>10.5</ele>
        <time>2020-05-31T21:17:55Z</time>
      </trkpt>
      <trkpt lat="46.15796" lon="-1.2824">
        <ele>10.6</ele>
        <time>2020-05-31T21:17:56Z</time>
      </trkpt>
      <trkpt lat="46.15793" lon="-1.28247">
        <ele>10.7</ele>
        <time>2020-05-31T21:17:57Z</time>
      </trkpt>
      <trkpt lat="46.1579" lon="-1.28254">
        <ele>10.7</ele>
        <time>2020-05-31T21:17:58Z</time>
      </trkpt>
      <trkpt lat="46.15788" lon="-1.28263">
        <ele>10.8</ele>
        <time>2020-05-31T21:17:59Z</time>
      </trkpt>
      <trkpt lat="46.15785" lon="-1.2827">
        <ele>10.9</ele>
        <time>2020-05-31T21:18:00Z</time>
      </trkpt>
      <trkpt lat="46.15782" lon="-1.28277">
        <ele>10.9</ele>
        <time>2020-05-31T21:18:01Z</time>
      </trkpt>
      <trkpt lat="46.1578" lon="-1.28283">
        <ele>10.9</ele>
        <time>2020-05-31T21:18:02Z</time>
      </trkpt>
      <trkpt lat="46.15777" lon="-1.28289">
        <ele>11</ele>
        <time>2020-05-31T21:18:03Z</time>
      </trkpt>
      <trkpt lat="46.15774" lon="-1.28296">
        <ele>11</ele>
        <time>2020-05-31T21:18:04Z</time>
      </trkpt>
      <trkpt lat="46.15772" lon="-1.28303">
        <ele>11</ele>
        <time>2020-05-31T21:18:05Z</time>
      </trkpt>
      <trkpt lat="46.15769" lon="-1.28308">
        <ele>11</ele>
        <time>2020-05-31T21:18:06Z</time>
      </trkpt>
      <trkpt lat="46.15766" lon="-1.28315">
        <ele>11</ele>
        <time>2020-05-31T21:18:07Z</time>
      </trkpt>
      <trkpt lat="46.15763" lon="-1.28321">
        <ele>10.9</ele>
        <time>2020-05-31T21:18:08Z</time>
      </trkpt>
      <trkpt lat="46.15761" lon="-1.28328">
        <ele>10.9</ele>
        <time>2020-05-31T21:18:09Z</time>
      </trkpt>
      <trkpt lat="46.15758" lon="-1.28335">
        <ele>10.9</ele>
        <time>2020-05-31T21:18:10Z</time>
      </trkpt>
      <trkpt lat="46.15755" lon="-1.28343">
        <ele>10.8</ele>
        <time>2020-05-31T21:18:11Z</time>
      </trkpt>
      <trkpt lat="46.15753" lon="-1.2835">
        <ele>10.8</ele>
        <time>2020-05-31T21:18:12Z</time>
      </trkpt>
      <trkpt lat="46.15751" lon="-1.28358">
        <ele>10.8</ele>
        <time>2020-05-31T21:18:13Z</time>
      </trkpt>
      <trkpt lat="46.15748" lon="-1.28365">
        <ele>10.8</ele>
        <time>2020-05-31T21:18:14Z</time>
      </trkpt>
      <trkpt lat="46.15746" lon="-1.28372">
        <ele>10.8</ele>
        <time>2020-05-31T21:18:15Z</time>
      </trkpt>
      <trkpt lat="46.15743" lon="-1.2838">
        <ele>10.8</ele>
        <time>2020-05-31T21:18:16Z</time>
      </trkpt>
      <trkpt lat="46.15742" lon="-1.28387">
        <ele>10.9</ele>
        <time>2020-05-31T21:18:17Z</time>
      </trkpt>
      <trkpt lat="46.1574" lon="-1.28394">
        <ele>10.8</ele>
        <time>2020-05-31T21:18:18Z</time>
      </trkpt>
      <trkpt lat="46.15738" lon="-1.284">
        <ele>10.8</ele>
        <time>2020-05-31T21:18:19Z</time>
      </trkpt>
      <trkpt lat="46.15737" lon="-1.28408">
        <ele>10.8</ele>
        <time>2020-05-31T21:18:20Z</time>
      </trkpt>
      <trkpt lat="46.15736" lon="-1.28416">
        <ele>10.8</ele>
        <time>2020-05-31T21:18:21Z</time>
      </trkpt>
      <trkpt lat="46.15733" lon="-1.28424">
        <ele>10.8</ele>
        <time>2020-05-31T21:18:22Z</time>
      </trkpt>
      <trkpt lat="46.1573" lon="-1.28431">
        <ele>10.8</ele>
        <time>2020-05-31T21:18:23Z</time>
      </trkpt>
      <trkpt lat="46.15727" lon="-1.28439">
        <ele>10.8</ele>
        <time>2020-05-31T21:18:24Z</time>
      </trkpt>
      <trkpt lat="46.15724" lon="-1.28446">
        <ele>10.8</ele>
        <time>2020-05-31T21:18:25Z</time>
      </trkpt>
      <trkpt lat="46.15721" lon="-1.28453">
        <ele>10.8</ele>
        <time>2020-05-31T21:18:26Z</time>
      </trkpt>
      <trkpt lat="46.15719" lon="-1.28461">
        <ele>10.8</ele>
        <time>2020-05-31T21:18:27Z</time>
      </trkpt>
      <trkpt lat="46.15716" lon="-1.28467">
        <ele>10.8</ele>
        <time>2020-05-31T21:18:28Z</time>
      </trkpt>
      <trkpt lat="46.15713" lon="-1.28475">
        <ele>10.8</ele>
        <time>2020-05-31T21:18:29Z</time>
      </trkpt>
      <trkpt lat="46.15712" lon="-1.28484">
        <ele>10.8</ele>
        <time>2020-05-31T21:18:30Z</time>
      </trkpt>
      <trkpt lat="46.15708" lon="-1.28492">
        <ele>10.8</ele>
        <time>2020-05-31T21:18:31Z</time>
      </trkpt>
      <trkpt lat="46.15705" lon="-1.285">
        <ele>10.8</ele>
        <time>2020-05-31T21:18:32Z</time>
      </trkpt>
      <trkpt lat="46.15702" lon="-1.28507">
        <ele>10.8</ele>
        <time>2020-05-31T21:18:33Z</time>
      </trkpt>
      <trkpt lat="46.15699" lon="-1.28516">
        <ele>10.8</ele>
        <time>2020-05-31T21:18:34Z</time>
      </trkpt>
      <trkpt lat="46.15695" lon="-1.28521">
        <ele>10.8</ele>
        <time>2020-05-31T21:18:35Z</time>
      </trkpt>
      <trkpt lat="46.15692" lon="-1.28529">
        <ele>10.8</ele>
        <time>2020-05-31T21:18:36Z</time>
      </trkpt>
      <trkpt lat="46.15689" lon="-1.28535">
        <ele>10.8</ele>
        <time>2020-05-31T21:18:37Z</time>
      </trkpt>
      <trkpt lat="46.15686" lon="-1.28542">
        <ele>10.8</ele>
        <time>2020-05-31T21:18:38Z</time>
      </trkpt>
      <trkpt lat="46.15683" lon="-1.28549">
        <ele>10.8</ele>
        <time>2020-05-31T21:18:39Z</time>
      </trkpt>
      <trkpt lat="46.1568" lon="-1.28555">
        <ele>10.8</ele>
        <time>2020-05-31T21:18:40Z</time>
      </trkpt>
      <trkpt lat="46.15678" lon="-1.28561">
        <ele>10.8</ele>
        <time>2020-05-31T21:18:41Z</time>
      </trkpt>
      <trkpt lat="46.15674" lon="-1.28568">
        <ele>10.8</ele>
        <time>2020-05-31T21:18:42Z</time>
      </trkpt>
      <trkpt lat="46.1567" lon="-1.28575">
        <ele>10.8</ele>
        <time>2020-05-31T21:18:43Z</time>
      </trkpt>
      <trkpt lat="46.15667" lon="-1.28581">
        <ele>10.8</ele>
        <time>2020-05-31T21:18:44Z</time>
      </trkpt>
      <trkpt lat="46.15664" lon="-1.28587">
        <ele>10.8</ele>
        <time>2020-05-31T21:18:45Z</time>
      </trkpt>
      <trkpt lat="46.15661" lon="-1.28594">
        <ele>10.8</ele>
        <time>2020-05-31T21:18:46Z</time>
      </trkpt>
      <trkpt lat="46.15658" lon="-1.286">
        <ele>10.8</ele>
        <time>2020-05-31T21:18:47Z</time>
      </trkpt>
      <trkpt lat="46.15656" lon="-1.28607">
        <ele>10.8</ele>
        <time>2020-05-31T21:18:48Z</time>
      </trkpt>
      <trkpt lat="46.15653" lon="-1.28613">
        <ele>10.8</ele>
        <time>2020-05-31T21:18:49Z</time>
      </trkpt>
      <trkpt lat="46.15651" lon="-1.28619">
        <ele>10.8</ele>
        <time>2020-05-31T21:18:50Z</time>
      </trkpt>
      <trkpt lat="46.15648" lon="-1.28625">
        <ele>10.8</ele>
        <time>2020-05-31T21:18:51Z</time>
      </trkpt>
      <trkpt lat="46.15645" lon="-1.28631">
        <ele>10.8</ele>
        <time>2020-05-31T21:18:52Z</time>
      </trkpt>
      <trkpt lat="46.15642" lon="-1.28638">
        <ele>10.8</ele>
        <time>2020-05-31T21:18:53Z</time>
      </trkpt>
      <trkpt lat="46.15639" lon="-1.28644">
        <ele>10.8</ele>
        <time>2020-05-31T21:18:54Z</time>
      </trkpt>
      <trkpt lat="46.15636" lon="-1.28651">
        <ele>10.8</ele>
        <time>2020-05-31T21:18:55Z</time>
      </trkpt>
      <trkpt lat="46.15633" lon="-1.28659">
        <ele>10.8</ele>
        <time>2020-05-31T21:18:56Z</time>
      </trkpt>
      <trkpt lat="46.1563" lon="-1.28667">
        <ele>10.8</ele>
        <time>2020-05-31T21:18:57Z</time>
      </trkpt>
      <trkpt lat="46.15626" lon="-1.28674">
        <ele>10.8</ele>
        <time>2020-05-31T21:18:58Z</time>
      </trkpt>
      <trkpt lat="46.15623" lon="-1.28681">
        <ele>10.8</ele>
        <time>2020-05-31T21:18:59Z</time>
      </trkpt>
      <trkpt lat="46.1562" lon="-1.28688">
        <ele>10.8</ele>
        <time>2020-05-31T21:19:00Z</time>
      </trkpt>
      <trkpt lat="46.15617" lon="-1.28696">
        <ele>10.8</ele>
        <time>2020-05-31T21:19:01Z</time>
      </trkpt>
      <trkpt lat="46.15614" lon="-1.28703">
        <ele>10.8</ele>
        <time>2020-05-31T21:19:02Z</time>
      </trkpt>
      <trkpt lat="46.15611" lon="-1.2871">
        <ele>10.7</ele>
        <time>2020-05-31T21:19:03Z</time>
      </trkpt>
      <trkpt lat="46.15607" lon="-1.28716">
        <ele>10.7</ele>
        <time>2020-05-31T21:19:04Z</time>
      </trkpt>
      <trkpt lat="46.15604" lon="-1.28723">
        <ele>10.7</ele>
        <time>2020-05-31T21:19:05Z</time>
      </trkpt>
      <trkpt lat="46.15602" lon="-1.2873">
        <ele>10.7</ele>
        <time>2020-05-31T21:19:06Z</time>
      </trkpt>
      <trkpt lat="46.15599" lon="-1.28738">
        <ele>10.7</ele>
        <time>2020-05-31T21:19:07Z</time>
      </trkpt>
      <trkpt lat="46.15597" lon="-1.28745">
        <ele>10.7</ele>
        <time>2020-05-31T21:19:08Z</time>
      </trkpt>
      <trkpt lat="46.15595" lon="-1.28753">
        <ele>10.7</ele>
        <time>2020-05-31T21:19:09Z</time>
      </trkpt>
      <trkpt lat="46.15594" lon="-1.2876">
        <ele>10.7</ele>
        <time>2020-05-31T21:19:10Z</time>
      </trkpt>
      <trkpt lat="46.15592" lon="-1.28768">
        <ele>10.7</ele>
        <time>2020-05-31T21:19:11Z</time>
      </trkpt>
      <trkpt lat="46.1559" lon="-1.28775">
        <ele>10.7</ele>
        <time>2020-05-31T21:19:12Z</time>
      </trkpt>
      <trkpt lat="46.15589" lon="-1.28783">
        <ele>10.7</ele>
        <time>2020-05-31T21:19:13Z</time>
      </trkpt>
      <trkpt lat="46.15587" lon="-1.28791">
        <ele>10.6</ele>
        <time>2020-05-31T21:19:14Z</time>
      </trkpt>
      <trkpt lat="46.15586" lon="-1.28799">
        <ele>10.6</ele>
        <time>2020-05-31T21:19:15Z</time>
      </trkpt>
      <trkpt lat="46.15584" lon="-1.28806">
        <ele>10.6</ele>
        <time>2020-05-31T21:19:16Z</time>
      </trkpt>
      <trkpt lat="46.15583" lon="-1.28815">
        <ele>10.6</ele>
        <time>2020-05-31T21:19:17Z</time>
      </trkpt>
      <trkpt lat="46.15582" lon="-1.28823">
        <ele>10.5</ele>
        <time>2020-05-31T21:19:18Z</time>
      </trkpt>
      <trkpt lat="46.15581" lon="-1.2883">
        <ele>10.5</ele>
        <time>2020-05-31T21:19:19Z</time>
      </trkpt>
      <trkpt lat="46.1558" lon="-1.28837">
        <ele>10.5</ele>
        <time>2020-05-31T21:19:20Z</time>
      </trkpt>
      <trkpt lat="46.15578" lon="-1.28844">
        <ele>10.5</ele>
        <time>2020-05-31T21:19:21Z</time>
      </trkpt>
      <trkpt lat="46.15577" lon="-1.28851">
        <ele>10.5</ele>
        <time>2020-05-31T21:19:22Z</time>
      </trkpt>
      <trkpt lat="46.15576" lon="-1.28858">
        <ele>10.5</ele>
        <time>2020-05-31T21:19:23Z</time>
      </trkpt>
      <trkpt lat="46.15575" lon="-1.28865">
        <ele>10.5</ele>
        <time>2020-05-31T21:19:24Z</time>
      </trkpt>
      <trkpt lat="46.15574" lon="-1.28872">
        <ele>10.5</ele>
        <time>2020-05-31T21:19:25Z</time>
      </trkpt>
      <trkpt lat="46.15574" lon="-1.28881">
        <ele>10.5</ele>
        <time>2020-05-31T21:19:26Z</time>
      </trkpt>
      <trkpt lat="46.15573" lon="-1.28888">
        <ele>10.5</ele>
        <time>2020-05-31T21:19:27Z</time>
      </trkpt>
      <trkpt lat="46.15573" lon="-1.28896">
        <ele>10.5</ele>
        <time>2020-05-31T21:19:28Z</time>
      </trkpt>
      <trkpt lat="46.15571" lon="-1.28904">
        <ele>10.5</ele>
        <time>2020-05-31T21:19:29Z</time>
      </trkpt>
      <trkpt lat="46.1557" lon="-1.28912">
        <ele>10.5</ele>
        <time>2020-05-31T21:19:30Z</time>
      </trkpt>
      <trkpt lat="46.15568" lon="-1.28919">
        <ele>10.5</ele>
        <time>2020-05-31T21:19:31Z</time>
      </trkpt>
      <trkpt lat="46.15566" lon="-1.28927">
        <ele>10.5</ele>
        <time>2020-05-31T21:19:32Z</time>
      </trkpt>
      <trkpt lat="46.15565" lon="-1.28936">
        <ele>10.5</ele>
        <time>2020-05-31T21:19:33Z</time>
      </trkpt>
      <trkpt lat="46.15563" lon="-1.28944">
        <ele>10.4</ele>
        <time>2020-05-31T21:19:34Z</time>
      </trkpt>
      <trkpt lat="46.15562" lon="-1.28952">
        <ele>10.4</ele>
        <time>2020-05-31T21:19:35Z</time>
      </trkpt>
      <trkpt lat="46.1556" lon="-1.28959">
        <ele>10.4</ele>
        <time>2020-05-31T21:19:36Z</time>
      </trkpt>
      <trkpt lat="46.15559" lon="-1.28967">
        <ele>10.4</ele>
        <time>2020-05-31T21:19:37Z</time>
      </trkpt>
      <trkpt lat="46.15556" lon="-1.28973">
        <ele>10.4</ele>
        <time>2020-05-31T21:19:38Z</time>
      </trkpt>
      <trkpt lat="46.15554" lon="-1.28979">
        <ele>10.4</ele>
        <time>2020-05-31T21:19:39Z</time>
      </trkpt>
      <trkpt lat="46.15552" lon="-1.28987">
        <ele>10.3</ele>
        <time>2020-05-31T21:19:40Z</time>
      </trkpt>
      <trkpt lat="46.1555" lon="-1.28993">
        <ele>10.3</ele>
        <time>2020-05-31T21:19:41Z</time>
      </trkpt>
      <trkpt lat="46.15548" lon="-1.29001">
        <ele>10.3</ele>
        <time>2020-05-31T21:19:42Z</time>
      </trkpt>
      <trkpt lat="46.15545" lon="-1.29007">
        <ele>10.2</ele>
        <time>2020-05-31T21:19:43Z</time>
      </trkpt>
      <trkpt lat="46.15543" lon="-1.29014">
        <ele>10.2</ele>
        <time>2020-05-31T21:19:44Z</time>
      </trkpt>
      <trkpt lat="46.15541" lon="-1.29021">
        <ele>10.1</ele>
        <time>2020-05-31T21:19:45Z</time>
      </trkpt>
      <trkpt lat="46.15538" lon="-1.29028">
        <ele>10.1</ele>
        <time>2020-05-31T21:19:46Z</time>
      </trkpt>
      <trkpt lat="46.15536" lon="-1.29034">
        <ele>10.1</ele>
        <time>2020-05-31T21:19:47Z</time>
      </trkpt>
      <trkpt lat="46.15534" lon="-1.29041">
        <ele>10.1</ele>
        <time>2020-05-31T21:19:48Z</time>
      </trkpt>
      <trkpt lat="46.15531" lon="-1.29047">
        <ele>10</ele>
        <time>2020-05-31T21:19:49Z</time>
      </trkpt>
      <trkpt lat="46.15528" lon="-1.29053">
        <ele>10</ele>
        <time>2020-05-31T21:19:50Z</time>
      </trkpt>
      <trkpt lat="46.15525" lon="-1.2906">
        <ele>9.9</ele>
        <time>2020-05-31T21:19:51Z</time>
      </trkpt>
      <trkpt lat="46.15523" lon="-1.29068">
        <ele>9.9</ele>
        <time>2020-05-31T21:19:52Z</time>
      </trkpt>
      <trkpt lat="46.1552" lon="-1.29075">
        <ele>9.7</ele>
        <time>2020-05-31T21:19:53Z</time>
      </trkpt>
      <trkpt lat="46.15517" lon="-1.29082">
        <ele>9.6</ele>
        <time>2020-05-31T21:19:54Z</time>
      </trkpt>
      <trkpt lat="46.15514" lon="-1.2909">
        <ele>9.5</ele>
        <time>2020-05-31T21:19:55Z</time>
      </trkpt>
      <trkpt lat="46.15511" lon="-1.29098">
        <ele>9.4</ele>
        <time>2020-05-31T21:19:56Z</time>
      </trkpt>
      <trkpt lat="46.15508" lon="-1.29105">
        <ele>9.3</ele>
        <time>2020-05-31T21:19:57Z</time>
      </trkpt>
      <trkpt lat="46.15506" lon="-1.29112">
        <ele>9.2</ele>
        <time>2020-05-31T21:19:58Z</time>
      </trkpt>
      <trkpt lat="46.15503" lon="-1.2912">
        <ele>9.1</ele>
        <time>2020-05-31T21:19:59Z</time>
      </trkpt>
      <trkpt lat="46.15499" lon="-1.29127">
        <ele>9</ele>
        <time>2020-05-31T21:20:00Z</time>
      </trkpt>
      <trkpt lat="46.15495" lon="-1.29135">
        <ele>8.9</ele>
        <time>2020-05-31T21:20:01Z</time>
      </trkpt>
      <trkpt lat="46.15492" lon="-1.29142">
        <ele>8.8</ele>
        <time>2020-05-31T21:20:02Z</time>
      </trkpt>
      <trkpt lat="46.15488" lon="-1.29149">
        <ele>8.7</ele>
        <time>2020-05-31T21:20:03Z</time>
      </trkpt>
      <trkpt lat="46.15484" lon="-1.29156">
        <ele>8.6</ele>
        <time>2020-05-31T21:20:04Z</time>
      </trkpt>
      <trkpt lat="46.1548" lon="-1.29163">
        <ele>8.5</ele>
        <time>2020-05-31T21:20:05Z</time>
      </trkpt>
      <trkpt lat="46.15476" lon="-1.2917">
        <ele>8.3</ele>
        <time>2020-05-31T21:20:06Z</time>
      </trkpt>
      <trkpt lat="46.1547" lon="-1.29178">
        <ele>8.2</ele>
        <time>2020-05-31T21:20:07Z</time>
      </trkpt>
      <trkpt lat="46.15465" lon="-1.29185">
        <ele>8.1</ele>
        <time>2020-05-31T21:20:08Z</time>
      </trkpt>
      <trkpt lat="46.15461" lon="-1.29191">
        <ele>7.9</ele>
        <time>2020-05-31T21:20:09Z</time>
      </trkpt>
      <trkpt lat="46.15457" lon="-1.29197">
        <ele>7.8</ele>
        <time>2020-05-31T21:20:10Z</time>
      </trkpt>
      <trkpt lat="46.15453" lon="-1.29203">
        <ele>7.7</ele>
        <time>2020-05-31T21:20:11Z</time>
      </trkpt>
      <trkpt lat="46.1545" lon="-1.29209">
        <ele>7.6</ele>
        <time>2020-05-31T21:20:12Z</time>
      </trkpt>
      <trkpt lat="46.15447" lon="-1.29214">
        <ele>7.6</ele>
        <time>2020-05-31T21:20:13Z</time>
      </trkpt>
      <trkpt lat="46.15444" lon="-1.2922">
        <ele>7.5</ele>
        <time>2020-05-31T21:20:14Z</time>
      </trkpt>
      <trkpt lat="46.15441" lon="-1.29226">
        <ele>7.5</ele>
        <time>2020-05-31T21:20:15Z</time>
      </trkpt>
      <trkpt lat="46.15438" lon="-1.29234">
        <ele>7.4</ele>
        <time>2020-05-31T21:20:16Z</time>
      </trkpt>
      <trkpt lat="46.15436" lon="-1.29239">
        <ele>7.3</ele>
        <time>2020-05-31T21:20:17Z</time>
      </trkpt>
      <trkpt lat="46.15432" lon="-1.29244">
        <ele>7.3</ele>
        <time>2020-05-31T21:20:18Z</time>
      </trkpt>
      <trkpt lat="46.15429" lon="-1.29247">
        <ele>7.3</ele>
        <time>2020-05-31T21:20:19Z</time>
      </trkpt>
      <trkpt lat="46.15427" lon="-1.2925">
        <ele>7.2</ele>
        <time>2020-05-31T21:20:20Z</time>
      </trkpt>
      <trkpt lat="46.15424" lon="-1.29252">
        <ele>7.2</ele>
        <time>2020-05-31T21:20:21Z</time>
      </trkpt>
      <trkpt lat="46.15422" lon="-1.29255">
        <ele>7.2</ele>
        <time>2020-05-31T21:20:22Z</time>
      </trkpt>
      <trkpt lat="46.15419" lon="-1.29258">
        <ele>7.2</ele>
        <time>2020-05-31T21:20:23Z</time>
      </trkpt>
      <trkpt lat="46.15418" lon="-1.2926">
        <ele>7.2</ele>
        <time>2020-05-31T21:20:24Z</time>
      </trkpt>
      <trkpt lat="46.15416" lon="-1.29264">
        <ele>7.1</ele>
        <time>2020-05-31T21:20:25Z</time>
      </trkpt>
      <trkpt lat="46.15415" lon="-1.29265">
        <ele>7.1</ele>
        <time>2020-05-31T21:20:26Z</time>
      </trkpt>
      <trkpt lat="46.15414" lon="-1.2927">
        <ele>7.1</ele>
        <time>2020-05-31T21:20:27Z</time>
      </trkpt>
      <trkpt lat="46.15413" lon="-1.29272">
        <ele>7.1</ele>
        <time>2020-05-31T21:20:28Z</time>
      </trkpt>
      <trkpt lat="46.15411" lon="-1.29275">
        <ele>7.1</ele>
        <time>2020-05-31T21:20:29Z</time>
      </trkpt>
      <trkpt lat="46.15409" lon="-1.2928">
        <ele>7.1</ele>
        <time>2020-05-31T21:20:30Z</time>
      </trkpt>
      <trkpt lat="46.15409" lon="-1.29282">
        <ele>7</ele>
        <time>2020-05-31T21:20:31Z</time>
      </trkpt>
      <trkpt lat="46.15408" lon="-1.29287">
        <ele>7</ele>
        <time>2020-05-31T21:20:32Z</time>
      </trkpt>
      <trkpt lat="46.15408" lon="-1.29288">
        <ele>7</ele>
        <time>2020-05-31T21:20:33Z</time>
      </trkpt>
      <trkpt lat="46.15406" lon="-1.29292">
        <ele>7</ele>
        <time>2020-05-31T21:20:34Z</time>
      </trkpt>
      <trkpt lat="46.15406" lon="-1.29293">
        <ele>7</ele>
        <time>2020-05-31T21:20:35Z</time>
      </trkpt>
      <trkpt lat="46.15405" lon="-1.29297">
        <ele>7</ele>
        <time>2020-05-31T21:20:36Z</time>
      </trkpt>
      <trkpt lat="46.15404" lon="-1.293">
        <ele>7</ele>
        <time>2020-05-31T21:20:37Z</time>
      </trkpt>
      <trkpt lat="46.15403" lon="-1.29301">
        <ele>7</ele>
        <time>2020-05-31T21:20:38Z</time>
      </trkpt>
      <trkpt lat="46.15403" lon="-1.29305">
        <ele>7</ele>
        <time>2020-05-31T21:20:39Z</time>
      </trkpt>
      <trkpt lat="46.15402" lon="-1.29307">
        <ele>6.9</ele>
        <time>2020-05-31T21:20:40Z</time>
      </trkpt>
      <trkpt lat="46.15402" lon="-1.29311">
        <ele>6.9</ele>
        <time>2020-05-31T21:20:41Z</time>
      </trkpt>
      <trkpt lat="46.15401" lon="-1.29312">
        <ele>6.9</ele>
        <time>2020-05-31T21:20:42Z</time>
      </trkpt>
      <trkpt lat="46.154" lon="-1.29316">
        <ele>6.9</ele>
        <time>2020-05-31T21:20:43Z</time>
      </trkpt>
      <trkpt lat="46.154" lon="-1.29318">
        <ele>6.9</ele>
        <time>2020-05-31T21:20:44Z</time>
      </trkpt>
      <trkpt lat="46.15399" lon="-1.29322">
        <ele>6.9</ele>
        <time>2020-05-31T21:20:45Z</time>
      </trkpt>
      <trkpt lat="46.15399" lon="-1.29324">
        <ele>6.9</ele>
        <time>2020-05-31T21:20:46Z</time>
      </trkpt>
      <trkpt lat="46.15398" lon="-1.29326">
        <ele>6.9</ele>
        <time>2020-05-31T21:20:47Z</time>
      </trkpt>
      <trkpt lat="46.15398" lon="-1.29328">
        <ele>6.9</ele>
        <time>2020-05-31T21:20:48Z</time>
      </trkpt>
      <trkpt lat="46.15397" lon="-1.29332">
        <ele>6.8</ele>
        <time>2020-05-31T21:20:49Z</time>
      </trkpt>
      <trkpt lat="46.15396" lon="-1.29334">
        <ele>6.8</ele>
        <time>2020-05-31T21:20:50Z</time>
      </trkpt>
      <trkpt lat="46.15395" lon="-1.29338">
        <ele>6.8</ele>
        <time>2020-05-31T21:20:51Z</time>
      </trkpt>
      <trkpt lat="46.15394" lon="-1.2934">
        <ele>6.8</ele>
        <time>2020-05-31T21:20:52Z</time>
      </trkpt>
      <trkpt lat="46.15393" lon="-1.29345">
        <ele>6.8</ele>
        <time>2020-05-31T21:20:53Z</time>
      </trkpt>
      <trkpt lat="46.15392" lon="-1.29346">
        <ele>6.8</ele>
        <time>2020-05-31T21:20:54Z</time>
      </trkpt>
      <trkpt lat="46.15391" lon="-1.29351">
        <ele>6.8</ele>
        <time>2020-05-31T21:20:55Z</time>
      </trkpt>
      <trkpt lat="46.15391" lon="-1.29353">
        <ele>6.7</ele>
        <time>2020-05-31T21:20:56Z</time>
      </trkpt>
      <trkpt lat="46.1539" lon="-1.29358">
        <ele>6.7</ele>
        <time>2020-05-31T21:20:57Z</time>
      </trkpt>
      <trkpt lat="46.1539" lon="-1.2936">
        <ele>6.7</ele>
        <time>2020-05-31T21:20:58Z</time>
      </trkpt>
      <trkpt lat="46.15389" lon="-1.29363">
        <ele>6.7</ele>
        <time>2020-05-31T21:20:59Z</time>
      </trkpt>
      <trkpt lat="46.15388" lon="-1.29364">
        <ele>6.7</ele>
        <time>2020-05-31T21:21:00Z</time>
      </trkpt>
      <trkpt lat="46.15388" lon="-1.29365">
        <ele>6.7</ele>
        <time>2020-05-31T21:21:01Z</time>
      </trkpt>
      <trkpt lat="46.15387" lon="-1.29368">
        <ele>6.7</ele>
        <time>2020-05-31T21:21:02Z</time>
      </trkpt>
      <trkpt lat="46.15387" lon="-1.29369">
        <ele>6.7</ele>
        <time>2020-05-31T21:21:03Z</time>
      </trkpt>
      <trkpt lat="46.15386" lon="-1.2937">
        <ele>6.7</ele>
        <time>2020-05-31T21:21:04Z</time>
      </trkpt>
      <trkpt lat="46.15386" lon="-1.2937">
        <ele>6.7</ele>
        <time>2020-05-31T21:21:05Z</time>
      </trkpt>
      <trkpt lat="46.15386" lon="-1.2937">
        <ele>6.7</ele>
        <time>2020-05-31T21:21:06Z</time>
      </trkpt>
      <trkpt lat="46.15386" lon="-1.29369">
        <ele>6.7</ele>
        <time>2020-05-31T21:21:07Z</time>
      </trkpt>
      <trkpt lat="46.15386" lon="-1.29368">
        <ele>6.7</ele>
        <time>2020-05-31T21:21:08Z</time>
      </trkpt>
      <trkpt lat="46.15386" lon="-1.29368">
        <ele>6.7</ele>
        <time>2020-05-31T21:21:09Z</time>
      </trkpt>
      <trkpt lat="46.15386" lon="-1.29368">
        <ele>6.7</ele>
        <time>2020-05-31T21:21:10Z</time>
      </trkpt>
      <trkpt lat="46.15386" lon="-1.29369">
        <ele>6.7</ele>
        <time>2020-05-31T21:21:11Z</time>
      </trkpt>
      <trkpt lat="46.15387" lon="-1.29368">
        <ele>6.7</ele>
        <time>2020-05-31T21:21:12Z</time>
      </trkpt>
      <trkpt lat="46.15387" lon="-1.29368">
        <ele>6.7</ele>
        <time>2020-05-31T21:21:13Z</time>
      </trkpt>
      <trkpt lat="46.15387" lon="-1.29368">
        <ele>6.7</ele>
        <time>2020-05-31T21:21:14Z</time>
      </trkpt>
      <trkpt lat="46.15387" lon="-1.29368">
        <ele>6.7</ele>
        <time>2020-05-31T21:21:15Z</time>
      </trkpt>
      <trkpt lat="46.15387" lon="-1.29368">
        <ele>6.7</ele>
        <time>2020-05-31T21:21:16Z</time>
      </trkpt>
      <trkpt lat="46.15387" lon="-1.29367">
        <ele>6.7</ele>
        <time>2020-05-31T21:21:17Z</time>
      </trkpt>
      <trkpt lat="46.15387" lon="-1.29367">
        <ele>6.7</ele>
        <time>2020-05-31T21:21:18Z</time>
      </trkpt>
      <trkpt lat="46.15387" lon="-1.29367">
        <ele>6.7</ele>
        <time>2020-05-31T21:21:19Z</time>
      </trkpt>
      <trkpt lat="46.15387" lon="-1.29367">
        <ele>6.7</ele>
        <time>2020-05-31T21:21:20Z</time>
      </trkpt>
      <trkpt lat="46.15387" lon="-1.29367">
        <ele>6.7</ele>
        <time>2020-05-31T21:21:21Z</time>
      </trkpt>
      <trkpt lat="46.15386" lon="-1.29366">
        <ele>6.7</ele>
        <time>2020-05-31T21:21:22Z</time>
      </trkpt>
      <trkpt lat="46.15387" lon="-1.29366">
        <ele>6.7</ele>
        <time>2020-05-31T21:21:23Z</time>
      </trkpt>
      <trkpt lat="46.15387" lon="-1.29366">
        <ele>6.7</ele>
        <time>2020-05-31T21:21:24Z</time>
      </trkpt>
      <trkpt lat="46.15386" lon="-1.29366">
        <ele>6.7</ele>
        <time>2020-05-31T21:21:25Z</time>
      </trkpt>
      <trkpt lat="46.15386" lon="-1.29366">
        <ele>6.7</ele>
        <time>2020-05-31T21:21:26Z</time>
      </trkpt>
      <trkpt lat="46.15386" lon="-1.29365">
        <ele>6.7</ele>
        <time>2020-05-31T21:21:27Z</time>
      </trkpt>
      <trkpt lat="46.15386" lon="-1.29366">
        <ele>6.7</ele>
        <time>2020-05-31T21:21:28Z</time>
      </trkpt>
      <trkpt lat="46.15386" lon="-1.29366">
        <ele>6.7</ele>
        <time>2020-05-31T21:21:29Z</time>
      </trkpt>
      <trkpt lat="46.15387" lon="-1.29366">
        <ele>6.7</ele>
        <time>2020-05-31T21:21:30Z</time>
      </trkpt>
      <trkpt lat="46.15387" lon="-1.29366">
        <ele>6.7</ele>
        <time>2020-05-31T21:21:31Z</time>
      </trkpt>
      <trkpt lat="46.15387" lon="-1.29366">
        <ele>6.7</ele>
        <time>2020-05-31T21:21:32Z</time>
      </trkpt>
      <trkpt lat="46.15387" lon="-1.29366">
        <ele>6.7</ele>
        <time>2020-05-31T21:21:33Z</time>
      </trkpt>
      <trkpt lat="46.15388" lon="-1.29366">
        <ele>6.7</ele>
        <time>2020-05-31T21:21:34Z</time>
      </trkpt>
      <trkpt lat="46.15388" lon="-1.29365">
        <ele>6.7</ele>
        <time>2020-05-31T21:21:35Z</time>
      </trkpt>
      <trkpt lat="46.15388" lon="-1.29366">
        <ele>6.7</ele>
        <time>2020-05-31T21:21:36Z</time>
      </trkpt>
      <trkpt lat="46.15389" lon="-1.29366">
        <ele>6.7</ele>
        <time>2020-05-31T21:21:37Z</time>
      </trkpt>
      <trkpt lat="46.15388" lon="-1.29366">
        <ele>6.7</ele>
        <time>2020-05-31T21:21:38Z</time>
      </trkpt>
      <trkpt lat="46.15388" lon="-1.29366">
        <ele>6.7</ele>
        <time>2020-05-31T21:21:39Z</time>
      </trkpt>
      <trkpt lat="46.15388" lon="-1.29366">
        <ele>6.7</ele>
        <time>2020-05-31T21:21:40Z</time>
      </trkpt>
      <trkpt lat="46.15388" lon="-1.29367">
        <ele>6.7</ele>
        <time>2020-05-31T21:21:41Z</time>
      </trkpt>
      <trkpt lat="46.15388" lon="-1.29366">
        <ele>6.7</ele>
        <time>2020-05-31T21:21:42Z</time>
      </trkpt>
      <trkpt lat="46.15388" lon="-1.29366">
        <ele>6.7</ele>
        <time>2020-05-31T21:21:43Z</time>
      </trkpt>
      <trkpt lat="46.15388" lon="-1.29366">
        <ele>6.7</ele>
        <time>2020-05-31T21:21:44Z</time>
      </trkpt>
      <trkpt lat="46.15389" lon="-1.29366">
        <ele>6.7</ele>
        <time>2020-05-31T21:21:45Z</time>
      </trkpt>
      <trkpt lat="46.15388" lon="-1.29365">
        <ele>6.7</ele>
        <time>2020-05-31T21:21:46Z</time>
      </trkpt>
      <trkpt lat="46.15388" lon="-1.29365">
        <ele>6.7</ele>
        <time>2020-05-31T21:21:47Z</time>
      </trkpt>
      <trkpt lat="46.15388" lon="-1.29365">
        <ele>6.7</ele>
        <time>2020-05-31T21:21:48Z</time>
      </trkpt>
      <trkpt lat="46.15388" lon="-1.29365">
        <ele>6.7</ele>
        <time>2020-05-31T21:21:49Z</time>
      </trkpt>
      <trkpt lat="46.15388" lon="-1.29366">
        <ele>6.7</ele>
        <time>2020-05-31T21:21:50Z</time>
      </trkpt>
      <trkpt lat="46.15388" lon="-1.29366">
        <ele>6.7</ele>
        <time>2020-05-31T21:21:51Z</time>
      </trkpt>
      <trkpt lat="46.15388" lon="-1.29366">
        <ele>6.7</ele>
        <time>2020-05-31T21:21:52Z</time>
      </trkpt>
      <trkpt lat="46.15388" lon="-1.29366">
        <ele>6.7</ele>
        <time>2020-05-31T21:21:53Z</time>
      </trkpt>
      <trkpt lat="46.15388" lon="-1.29366">
        <ele>6.7</ele>
        <time>2020-05-31T21:21:54Z</time>
      </trkpt>
      <trkpt lat="46.15388" lon="-1.29366">
        <ele>6.7</ele>
        <time>2020-05-31T21:21:55Z</time>
      </trkpt>
      <trkpt lat="46.15388" lon="-1.29366">
        <ele>6.7</ele>
        <time>2020-05-31T21:21:56Z</time>
      </trkpt>
      <trkpt lat="46.15388" lon="-1.29366">
        <ele>6.7</ele>
        <time>2020-05-31T21:21:57Z</time>
      </trkpt>
      <trkpt lat="46.15388" lon="-1.29366">
        <ele>6.7</ele>
        <time>2020-05-31T21:21:58Z</time>
      </trkpt>
      <trkpt lat="46.15388" lon="-1.29366">
        <ele>6.7</ele>
        <time>2020-05-31T21:21:59Z</time>
      </trkpt>
      <trkpt lat="46.15388" lon="-1.29366">
        <ele>6.7</ele>
        <time>2020-05-31T21:22:00Z</time>
      </trkpt>
      <trkpt lat="46.15388" lon="-1.29366">
        <ele>6.7</ele>
        <time>2020-05-31T21:22:01Z</time>
      </trkpt>
      <trkpt lat="46.15388" lon="-1.29366">
        <ele>6.7</ele>
        <time>2020-05-31T21:22:02Z</time>
      </trkpt>
      <trkpt lat="46.15388" lon="-1.29366">
        <ele>6.7</ele>
        <time>2020-05-31T21:22:03Z</time>
      </trkpt>
      <trkpt lat="46.15388" lon="-1.29366">
        <ele>6.7</ele>
        <time>2020-05-31T21:22:04Z</time>
      </trkpt>
      <trkpt lat="46.15388" lon="-1.29366">
        <ele>6.7</ele>
        <time>2020-05-31T21:22:05Z</time>
      </trkpt>
      <trkpt lat="46.15388" lon="-1.29366">
        <ele>6.7</ele>
        <time>2020-05-31T21:22:06Z</time>
      </trkpt>
      <trkpt lat="46.15388" lon="-1.29366">
        <ele>6.7</ele>
        <time>2020-05-31T21:22:07Z</time>
      </trkpt>
      <trkpt lat="46.15388" lon="-1.29366">
        <ele>6.7</ele>
        <time>2020-05-31T21:22:08Z</time>
      </trkpt>
      <trkpt lat="46.15388" lon="-1.29366">
        <ele>6.7</ele>
        <time>2020-05-31T21:22:09Z</time>
      </trkpt>
      <trkpt lat="46.15388" lon="-1.29367">
        <ele>6.7</ele>
        <time>2020-05-31T21:22:10Z</time>
      </trkpt>
      <trkpt lat="46.15388" lon="-1.29367">
        <ele>6.7</ele>
        <time>2020-05-31T21:22:11Z</time>
      </trkpt>
      <trkpt lat="46.15388" lon="-1.29367">
        <ele>6.7</ele>
        <time>2020-05-31T21:22:12Z</time>
      </trkpt>
      <trkpt lat="46.15387" lon="-1.29367">
        <ele>6.7</ele>
        <time>2020-05-31T21:22:13Z</time>
      </trkpt>
      <trkpt lat="46.15387" lon="-1.29368">
        <ele>6.7</ele>
        <time>2020-05-31T21:22:14Z</time>
      </trkpt>
      <trkpt lat="46.15387" lon="-1.29368">
        <ele>6.7</ele>
        <time>2020-05-31T21:22:15Z</time>
      </trkpt>
      <trkpt lat="46.15388" lon="-1.29369">
        <ele>6.7</ele>
        <time>2020-05-31T21:22:16Z</time>
      </trkpt>
      <trkpt lat="46.15387" lon="-1.29368">
        <ele>6.7</ele>
        <time>2020-05-31T21:22:17Z</time>
      </trkpt>
      <trkpt lat="46.15387" lon="-1.29368">
        <ele>6.7</ele>
        <time>2020-05-31T21:22:18Z</time>
      </trkpt>
      <trkpt lat="46.15388" lon="-1.29368">
        <ele>6.7</ele>
        <time>2020-05-31T21:22:19Z</time>
      </trkpt>
      <trkpt lat="46.15388" lon="-1.29367">
        <ele>6.7</ele>
        <time>2020-05-31T21:22:20Z</time>
      </trkpt>
      <trkpt lat="46.15387" lon="-1.29367">
        <ele>6.7</ele>
        <time>2020-05-31T21:22:21Z</time>
      </trkpt>
      <trkpt lat="46.15387" lon="-1.29367">
        <ele>6.7</ele>
        <time>2020-05-31T21:22:22Z</time>
      </trkpt>
      <trkpt lat="46.15387" lon="-1.29366">
        <ele>6.7</ele>
        <time>2020-05-31T21:22:23Z</time>
      </trkpt>
      <trkpt lat="46.15387" lon="-1.29366">
        <ele>6.7</ele>
        <time>2020-05-31T21:22:24Z</time>
      </trkpt>
      <trkpt lat="46.15388" lon="-1.29365">
        <ele>6.7</ele>
        <time>2020-05-31T21:22:25Z</time>
      </trkpt>
      <trkpt lat="46.15388" lon="-1.29365">
        <ele>6.7</ele>
        <time>2020-05-31T21:22:26Z</time>
      </trkpt>
      <trkpt lat="46.15388" lon="-1.29364">
        <ele>6.7</ele>
        <time>2020-05-31T21:22:27Z</time>
      </trkpt>
      <trkpt lat="46.15388" lon="-1.29364">
        <ele>6.7</ele>
        <time>2020-05-31T21:22:28Z</time>
      </trkpt>
      <trkpt lat="46.15388" lon="-1.29363">
        <ele>6.7</ele>
        <time>2020-05-31T21:22:29Z</time>
      </trkpt>
      <trkpt lat="46.15388" lon="-1.29363">
        <ele>6.7</ele>
        <time>2020-05-31T21:22:30Z</time>
      </trkpt>
      <trkpt lat="46.15389" lon="-1.29362">
        <ele>6.7</ele>
        <time>2020-05-31T21:22:31Z</time>
      </trkpt>
      <trkpt lat="46.15388" lon="-1.29363">
        <ele>6.7</ele>
        <time>2020-05-31T21:22:32Z</time>
      </trkpt>
      <trkpt lat="46.15388" lon="-1.29363">
        <ele>6.7</ele>
        <time>2020-05-31T21:22:33Z</time>
      </trkpt>
      <trkpt lat="46.15388" lon="-1.29364">
        <ele>6.7</ele>
        <time>2020-05-31T21:22:34Z</time>
      </trkpt>
      <trkpt lat="46.15388" lon="-1.29365">
        <ele>6.7</ele>
        <time>2020-05-31T21:22:35Z</time>
      </trkpt>
      <trkpt lat="46.15388" lon="-1.29365">
        <ele>6.7</ele>
        <time>2020-05-31T21:22:36Z</time>
      </trkpt>
      <trkpt lat="46.15388" lon="-1.29366">
        <ele>6.7</ele>
        <time>2020-05-31T21:22:37Z</time>
      </trkpt>
      <trkpt lat="46.15388" lon="-1.29366">
        <ele>6.7</ele>
        <time>2020-05-31T21:22:38Z</time>
      </trkpt>
      <trkpt lat="46.15387" lon="-1.29366">
        <ele>6.7</ele>
        <time>2020-05-31T21:22:39Z</time>
      </trkpt>
      <trkpt lat="46.15386" lon="-1.29368">
        <ele>6.7</ele>
        <time>2020-05-31T21:22:40Z</time>
      </trkpt>
      <trkpt lat="46.15386" lon="-1.29372">
        <ele>6.7</ele>
        <time>2020-05-31T21:22:41Z</time>
      </trkpt>
      <trkpt lat="46.15385" lon="-1.29374">
        <ele>6.7</ele>
        <time>2020-05-31T21:22:42Z</time>
      </trkpt>
      <trkpt lat="46.15384" lon="-1.29379">
        <ele>6.8</ele>
        <time>2020-05-31T21:22:43Z</time>
      </trkpt>
      <trkpt lat="46.15383" lon="-1.29384">
        <ele>6.8</ele>
        <time>2020-05-31T21:22:44Z</time>
      </trkpt>
      <trkpt lat="46.15382" lon="-1.29389">
        <ele>6.8</ele>
        <time>2020-05-31T21:22:45Z</time>
      </trkpt>
      <trkpt lat="46.15382" lon="-1.29391">
        <ele>6.8</ele>
        <time>2020-05-31T21:22:46Z</time>
      </trkpt>
      <trkpt lat="46.15381" lon="-1.29397">
        <ele>6.9</ele>
        <time>2020-05-31T21:22:47Z</time>
      </trkpt>
      <trkpt lat="46.1538" lon="-1.29402">
        <ele>7</ele>
        <time>2020-05-31T21:22:48Z</time>
      </trkpt>
      <trkpt lat="46.1538" lon="-1.29407">
        <ele>7</ele>
        <time>2020-05-31T21:22:49Z</time>
      </trkpt>
      <trkpt lat="46.15379" lon="-1.2941">
        <ele>7.1</ele>
        <time>2020-05-31T21:22:50Z</time>
      </trkpt>
      <trkpt lat="46.15379" lon="-1.29414">
        <ele>7.2</ele>
        <time>2020-05-31T21:22:51Z</time>
      </trkpt>
      <trkpt lat="46.15378" lon="-1.29419">
        <ele>7.2</ele>
        <time>2020-05-31T21:22:52Z</time>
      </trkpt>
      <trkpt lat="46.15377" lon="-1.29425">
        <ele>7.4</ele>
        <time>2020-05-31T21:22:53Z</time>
      </trkpt>
      <trkpt lat="46.15377" lon="-1.2943">
        <ele>7.4</ele>
        <time>2020-05-31T21:22:54Z</time>
      </trkpt>
      <trkpt lat="46.15376" lon="-1.29436">
        <ele>7.5</ele>
        <time>2020-05-31T21:22:55Z</time>
      </trkpt>
      <trkpt lat="46.15376" lon="-1.29441">
        <ele>7.6</ele>
        <time>2020-05-31T21:22:56Z</time>
      </trkpt>
      <trkpt lat="46.15376" lon="-1.29445">
        <ele>7.7</ele>
        <time>2020-05-31T21:22:57Z</time>
      </trkpt>
      <trkpt lat="46.15376" lon="-1.29451">
        <ele>7.7</ele>
        <time>2020-05-31T21:22:58Z</time>
      </trkpt>
      <trkpt lat="46.15377" lon="-1.29457">
        <ele>7.7</ele>
        <time>2020-05-31T21:22:59Z</time>
      </trkpt>
      <trkpt lat="46.15377" lon="-1.29462">
        <ele>7.8</ele>
        <time>2020-05-31T21:23:00Z</time>
      </trkpt>
      <trkpt lat="46.15376" lon="-1.29466">
        <ele>7.8</ele>
        <time>2020-05-31T21:23:01Z</time>
      </trkpt>
      <trkpt lat="46.15376" lon="-1.29471">
        <ele>7.8</ele>
        <time>2020-05-31T21:23:02Z</time>
      </trkpt>
      <trkpt lat="46.15376" lon="-1.29476">
        <ele>7.9</ele>
        <time>2020-05-31T21:23:03Z</time>
      </trkpt>
      <trkpt lat="46.15376" lon="-1.29482">
        <ele>7.9</ele>
        <time>2020-05-31T21:23:04Z</time>
      </trkpt>
      <trkpt lat="46.15377" lon="-1.29488">
        <ele>8</ele>
        <time>2020-05-31T21:23:05Z</time>
      </trkpt>
      <trkpt lat="46.15377" lon="-1.29493">
        <ele>8</ele>
        <time>2020-05-31T21:23:06Z</time>
      </trkpt>
      <trkpt lat="46.15377" lon="-1.29499">
        <ele>8.1</ele>
        <time>2020-05-31T21:23:07Z</time>
      </trkpt>
      <trkpt lat="46.15378" lon="-1.29504">
        <ele>8.1</ele>
        <time>2020-05-31T21:23:08Z</time>
      </trkpt>
      <trkpt lat="46.15378" lon="-1.2951">
        <ele>8.2</ele>
        <time>2020-05-31T21:23:09Z</time>
      </trkpt>
      <trkpt lat="46.15378" lon="-1.29516">
        <ele>8.3</ele>
        <time>2020-05-31T21:23:10Z</time>
      </trkpt>
      <trkpt lat="46.1538" lon="-1.29522">
        <ele>8.3</ele>
        <time>2020-05-31T21:23:11Z</time>
      </trkpt>
      <trkpt lat="46.15381" lon="-1.29528">
        <ele>8.4</ele>
        <time>2020-05-31T21:23:12Z</time>
      </trkpt>
      <trkpt lat="46.15382" lon="-1.29535">
        <ele>8.5</ele>
        <time>2020-05-31T21:23:13Z</time>
      </trkpt>
      <trkpt lat="46.15383" lon="-1.2954">
        <ele>8.6</ele>
        <time>2020-05-31T21:23:14Z</time>
      </trkpt>
      <trkpt lat="46.15385" lon="-1.29546">
        <ele>8.6</ele>
        <time>2020-05-31T21:23:15Z</time>
      </trkpt>
      <trkpt lat="46.15384" lon="-1.29554">
        <ele>8.7</ele>
        <time>2020-05-31T21:23:16Z</time>
      </trkpt>
      <trkpt lat="46.15385" lon="-1.2956">
        <ele>8.7</ele>
        <time>2020-05-31T21:23:17Z</time>
      </trkpt>
      <trkpt lat="46.15385" lon="-1.29566">
        <ele>8.8</ele>
        <time>2020-05-31T21:23:18Z</time>
      </trkpt>
      <trkpt lat="46.15385" lon="-1.29571">
        <ele>8.8</ele>
        <time>2020-05-31T21:23:19Z</time>
      </trkpt>
      <trkpt lat="46.15386" lon="-1.29577">
        <ele>8.9</ele>
        <time>2020-05-31T21:23:20Z</time>
      </trkpt>
      <trkpt lat="46.15386" lon="-1.29584">
        <ele>8.9</ele>
        <time>2020-05-31T21:23:21Z</time>
      </trkpt>
      <trkpt lat="46.15386" lon="-1.29591">
        <ele>9</ele>
        <time>2020-05-31T21:23:22Z</time>
      </trkpt>
      <trkpt lat="46.15386" lon="-1.29598">
        <ele>9.1</ele>
        <time>2020-05-31T21:23:23Z</time>
      </trkpt>
      <trkpt lat="46.15386" lon="-1.29605">
        <ele>9.2</ele>
        <time>2020-05-31T21:23:24Z</time>
      </trkpt>
      <trkpt lat="46.15386" lon="-1.29611">
        <ele>9.2</ele>
        <time>2020-05-31T21:23:25Z</time>
      </trkpt>
      <trkpt lat="46.15386" lon="-1.29618">
        <ele>9.3</ele>
        <time>2020-05-31T21:23:26Z</time>
      </trkpt>
      <trkpt lat="46.15386" lon="-1.29624">
        <ele>9.4</ele>
        <time>2020-05-31T21:23:27Z</time>
      </trkpt>
      <trkpt lat="46.15385" lon="-1.29629">
        <ele>9.4</ele>
        <time>2020-05-31T21:23:28Z</time>
      </trkpt>
      <trkpt lat="46.15384" lon="-1.29636">
        <ele>9.5</ele>
        <time>2020-05-31T21:23:29Z</time>
      </trkpt>
      <trkpt lat="46.15384" lon="-1.29642">
        <ele>9.6</ele>
        <time>2020-05-31T21:23:30Z</time>
      </trkpt>
      <trkpt lat="46.15382" lon="-1.2965">
        <ele>9.6</ele>
        <time>2020-05-31T21:23:31Z</time>
      </trkpt>
      <trkpt lat="46.15382" lon="-1.29657">
        <ele>9.7</ele>
        <time>2020-05-31T21:23:32Z</time>
      </trkpt>
      <trkpt lat="46.15382" lon="-1.29663">
        <ele>9.7</ele>
        <time>2020-05-31T21:23:33Z</time>
      </trkpt>
      <trkpt lat="46.15381" lon="-1.2967">
        <ele>9.7</ele>
        <time>2020-05-31T21:23:34Z</time>
      </trkpt>
      <trkpt lat="46.1538" lon="-1.29678">
        <ele>9.8</ele>
        <time>2020-05-31T21:23:35Z</time>
      </trkpt>
      <trkpt lat="46.1538" lon="-1.29686">
        <ele>9.8</ele>
        <time>2020-05-31T21:23:36Z</time>
      </trkpt>
      <trkpt lat="46.15379" lon="-1.29694">
        <ele>9.9</ele>
        <time>2020-05-31T21:23:37Z</time>
      </trkpt>
      <trkpt lat="46.15378" lon="-1.29703">
        <ele>9.9</ele>
        <time>2020-05-31T21:23:38Z</time>
      </trkpt>
      <trkpt lat="46.15377" lon="-1.29712">
        <ele>10</ele>
        <time>2020-05-31T21:23:39Z</time>
      </trkpt>
      <trkpt lat="46.15376" lon="-1.29722">
        <ele>10</ele>
        <time>2020-05-31T21:23:40Z</time>
      </trkpt>
      <trkpt lat="46.15376" lon="-1.29731">
        <ele>10</ele>
        <time>2020-05-31T21:23:41Z</time>
      </trkpt>
      <trkpt lat="46.15375" lon="-1.29738">
        <ele>10.1</ele>
        <time>2020-05-31T21:23:42Z</time>
      </trkpt>
      <trkpt lat="46.15374" lon="-1.29747">
        <ele>10.1</ele>
        <time>2020-05-31T21:23:43Z</time>
      </trkpt>
      <trkpt lat="46.15374" lon="-1.29756">
        <ele>10.1</ele>
        <time>2020-05-31T21:23:44Z</time>
      </trkpt>
      <trkpt lat="46.15373" lon="-1.29765">
        <ele>10.2</ele>
        <time>2020-05-31T21:23:45Z</time>
      </trkpt>
      <trkpt lat="46.15373" lon="-1.29775">
        <ele>10.2</ele>
        <time>2020-05-31T21:23:46Z</time>
      </trkpt>
      <trkpt lat="46.15373" lon="-1.29784">
        <ele>10.2</ele>
        <time>2020-05-31T21:23:47Z</time>
      </trkpt>
      <trkpt lat="46.15372" lon="-1.29792">
        <ele>10.2</ele>
        <time>2020-05-31T21:23:48Z</time>
      </trkpt>
      <trkpt lat="46.15372" lon="-1.29801">
        <ele>10.3</ele>
        <time>2020-05-31T21:23:49Z</time>
      </trkpt>
      <trkpt lat="46.15372" lon="-1.2981">
        <ele>10.3</ele>
        <time>2020-05-31T21:23:50Z</time>
      </trkpt>
      <trkpt lat="46.15371" lon="-1.29819">
        <ele>10.3</ele>
        <time>2020-05-31T21:23:51Z</time>
      </trkpt>
      <trkpt lat="46.1537" lon="-1.29827">
        <ele>10.3</ele>
        <time>2020-05-31T21:23:52Z</time>
      </trkpt>
      <trkpt lat="46.1537" lon="-1.29836">
        <ele>10.3</ele>
        <time>2020-05-31T21:23:53Z</time>
      </trkpt>
      <trkpt lat="46.1537" lon="-1.29845">
        <ele>10.4</ele>
        <time>2020-05-31T21:23:54Z</time>
      </trkpt>
      <trkpt lat="46.15369" lon="-1.29854">
        <ele>10.4</ele>
        <time>2020-05-31T21:23:55Z</time>
      </trkpt>
      <trkpt lat="46.15368" lon="-1.29864">
        <ele>10.5</ele>
        <time>2020-05-31T21:23:56Z</time>
      </trkpt>
      <trkpt lat="46.15367" lon="-1.29872">
        <ele>10.5</ele>
        <time>2020-05-31T21:23:57Z</time>
      </trkpt>
      <trkpt lat="46.15366" lon="-1.2988">
        <ele>10.5</ele>
        <time>2020-05-31T21:23:58Z</time>
      </trkpt>
      <trkpt lat="46.15365" lon="-1.29888">
        <ele>10.5</ele>
        <time>2020-05-31T21:23:59Z</time>
      </trkpt>
      <trkpt lat="46.15365" lon="-1.29896">
        <ele>10.5</ele>
        <time>2020-05-31T21:24:00Z</time>
      </trkpt>
      <trkpt lat="46.15364" lon="-1.29905">
        <ele>10.5</ele>
        <time>2020-05-31T21:24:01Z</time>
      </trkpt>
      <trkpt lat="46.15364" lon="-1.29912">
        <ele>10.5</ele>
        <time>2020-05-31T21:24:02Z</time>
      </trkpt>
      <trkpt lat="46.15364" lon="-1.29918">
        <ele>10.5</ele>
        <time>2020-05-31T21:24:03Z</time>
      </trkpt>
      <trkpt lat="46.15363" lon="-1.29925">
        <ele>10.5</ele>
        <time>2020-05-31T21:24:04Z</time>
      </trkpt>
      <trkpt lat="46.15362" lon="-1.29931">
        <ele>10.5</ele>
        <time>2020-05-31T21:24:05Z</time>
      </trkpt>
      <trkpt lat="46.15362" lon="-1.29939">
        <ele>10.5</ele>
        <time>2020-05-31T21:24:06Z</time>
      </trkpt>
      <trkpt lat="46.15362" lon="-1.29946">
        <ele>10.5</ele>
        <time>2020-05-31T21:24:07Z</time>
      </trkpt>
      <trkpt lat="46.15361" lon="-1.29954">
        <ele>10.5</ele>
        <time>2020-05-31T21:24:08Z</time>
      </trkpt>
      <trkpt lat="46.15361" lon="-1.29962">
        <ele>10.5</ele>
        <time>2020-05-31T21:24:09Z</time>
      </trkpt>
      <trkpt lat="46.15361" lon="-1.29971">
        <ele>10.5</ele>
        <time>2020-05-31T21:24:10Z</time>
      </trkpt>
      <trkpt lat="46.1536" lon="-1.29979">
        <ele>10.5</ele>
        <time>2020-05-31T21:24:11Z</time>
      </trkpt>
      <trkpt lat="46.15359" lon="-1.29988">
        <ele>10.5</ele>
        <time>2020-05-31T21:24:12Z</time>
      </trkpt>
      <trkpt lat="46.15358" lon="-1.29998">
        <ele>10.5</ele>
        <time>2020-05-31T21:24:13Z</time>
      </trkpt>
      <trkpt lat="46.15358" lon="-1.30007">
        <ele>10.5</ele>
        <time>2020-05-31T21:24:14Z</time>
      </trkpt>
      <trkpt lat="46.15357" lon="-1.30015">
        <ele>10.5</ele>
        <time>2020-05-31T21:24:15Z</time>
      </trkpt>
      <trkpt lat="46.15357" lon="-1.30024">
        <ele>10.5</ele>
        <time>2020-05-31T21:24:16Z</time>
      </trkpt>
      <trkpt lat="46.15357" lon="-1.30033">
        <ele>10.5</ele>
        <time>2020-05-31T21:24:17Z</time>
      </trkpt>
      <trkpt lat="46.15356" lon="-1.30042">
        <ele>10.5</ele>
        <time>2020-05-31T21:24:18Z</time>
      </trkpt>
      <trkpt lat="46.15355" lon="-1.30051">
        <ele>10.5</ele>
        <time>2020-05-31T21:24:19Z</time>
      </trkpt>
      <trkpt lat="46.15355" lon="-1.3006">
        <ele>10.6</ele>
        <time>2020-05-31T21:24:20Z</time>
      </trkpt>
      <trkpt lat="46.15355" lon="-1.30069">
        <ele>10.6</ele>
        <time>2020-05-31T21:24:21Z</time>
      </trkpt>
      <trkpt lat="46.15354" lon="-1.30079">
        <ele>10.6</ele>
        <time>2020-05-31T21:24:22Z</time>
      </trkpt>
      <trkpt lat="46.15353" lon="-1.30089">
        <ele>10.6</ele>
        <time>2020-05-31T21:24:23Z</time>
      </trkpt>
      <trkpt lat="46.15352" lon="-1.30097">
        <ele>10.7</ele>
        <time>2020-05-31T21:24:24Z</time>
      </trkpt>
      <trkpt lat="46.15351" lon="-1.30106">
        <ele>10.7</ele>
        <time>2020-05-31T21:24:25Z</time>
      </trkpt>
      <trkpt lat="46.1535" lon="-1.30117">
        <ele>10.7</ele>
        <time>2020-05-31T21:24:26Z</time>
      </trkpt>
      <trkpt lat="46.15349" lon="-1.30126">
        <ele>10.7</ele>
        <time>2020-05-31T21:24:27Z</time>
      </trkpt>
      <trkpt lat="46.15347" lon="-1.30135">
        <ele>10.7</ele>
        <time>2020-05-31T21:24:28Z</time>
      </trkpt>
      <trkpt lat="46.15346" lon="-1.30144">
        <ele>10.7</ele>
        <time>2020-05-31T21:24:29Z</time>
      </trkpt>
      <trkpt lat="46.15344" lon="-1.30152">
        <ele>10.7</ele>
        <time>2020-05-31T21:24:30Z</time>
      </trkpt>
      <trkpt lat="46.15343" lon="-1.30161">
        <ele>10.7</ele>
        <time>2020-05-31T21:24:31Z</time>
      </trkpt>
      <trkpt lat="46.15341" lon="-1.30171">
        <ele>10.7</ele>
        <time>2020-05-31T21:24:32Z</time>
      </trkpt>
      <trkpt lat="46.15339" lon="-1.30181">
        <ele>10.7</ele>
        <time>2020-05-31T21:24:33Z</time>
      </trkpt>
      <trkpt lat="46.15337" lon="-1.30191">
        <ele>10.7</ele>
        <time>2020-05-31T21:24:34Z</time>
      </trkpt>
      <trkpt lat="46.15336" lon="-1.302">
        <ele>10.6</ele>
        <time>2020-05-31T21:24:35Z</time>
      </trkpt>
      <trkpt lat="46.15335" lon="-1.3021">
        <ele>10.6</ele>
        <time>2020-05-31T21:24:36Z</time>
      </trkpt>
      <trkpt lat="46.15333" lon="-1.30219">
        <ele>10.6</ele>
        <time>2020-05-31T21:24:37Z</time>
      </trkpt>
      <trkpt lat="46.15332" lon="-1.30228">
        <ele>10.5</ele>
        <time>2020-05-31T21:24:38Z</time>
      </trkpt>
      <trkpt lat="46.1533" lon="-1.30236">
        <ele>10.5</ele>
        <time>2020-05-31T21:24:39Z</time>
      </trkpt>
      <trkpt lat="46.15329" lon="-1.30245">
        <ele>10.5</ele>
        <time>2020-05-31T21:24:40Z</time>
      </trkpt>
      <trkpt lat="46.15327" lon="-1.30254">
        <ele>10.5</ele>
        <time>2020-05-31T21:24:41Z</time>
      </trkpt>
      <trkpt lat="46.15326" lon="-1.30263">
        <ele>10.5</ele>
        <time>2020-05-31T21:24:42Z</time>
      </trkpt>
      <trkpt lat="46.15324" lon="-1.30271">
        <ele>10.5</ele>
        <time>2020-05-31T21:24:43Z</time>
      </trkpt>
      <trkpt lat="46.15323" lon="-1.3028">
        <ele>10.5</ele>
        <time>2020-05-31T21:24:44Z</time>
      </trkpt>
      <trkpt lat="46.15322" lon="-1.30289">
        <ele>10.5</ele>
        <time>2020-05-31T21:24:45Z</time>
      </trkpt>
      <trkpt lat="46.15321" lon="-1.30298">
        <ele>10.5</ele>
        <time>2020-05-31T21:24:46Z</time>
      </trkpt>
      <trkpt lat="46.15321" lon="-1.30307">
        <ele>10.5</ele>
        <time>2020-05-31T21:24:47Z</time>
      </trkpt>
      <trkpt lat="46.1532" lon="-1.30316">
        <ele>10.5</ele>
        <time>2020-05-31T21:24:48Z</time>
      </trkpt>
      <trkpt lat="46.1532" lon="-1.30324">
        <ele>10.4</ele>
        <time>2020-05-31T21:24:49Z</time>
      </trkpt>
      <trkpt lat="46.15319" lon="-1.30333">
        <ele>10.4</ele>
        <time>2020-05-31T21:24:50Z</time>
      </trkpt>
      <trkpt lat="46.15318" lon="-1.30342">
        <ele>10.4</ele>
        <time>2020-05-31T21:24:51Z</time>
      </trkpt>
      <trkpt lat="46.15318" lon="-1.30352">
        <ele>10.4</ele>
        <time>2020-05-31T21:24:52Z</time>
      </trkpt>
      <trkpt lat="46.15318" lon="-1.30361">
        <ele>10.4</ele>
        <time>2020-05-31T21:24:53Z</time>
      </trkpt>
      <trkpt lat="46.15317" lon="-1.3037">
        <ele>10.4</ele>
        <time>2020-05-31T21:24:54Z</time>
      </trkpt>
      <trkpt lat="46.15318" lon="-1.3038">
        <ele>10.4</ele>
        <time>2020-05-31T21:24:55Z</time>
      </trkpt>
      <trkpt lat="46.15318" lon="-1.30389">
        <ele>10.4</ele>
        <time>2020-05-31T21:24:56Z</time>
      </trkpt>
      <trkpt lat="46.15319" lon="-1.30398">
        <ele>10.4</ele>
        <time>2020-05-31T21:24:57Z</time>
      </trkpt>
      <trkpt lat="46.1532" lon="-1.30407">
        <ele>10.4</ele>
        <time>2020-05-31T21:24:58Z</time>
      </trkpt>
      <trkpt lat="46.15321" lon="-1.30416">
        <ele>10.4</ele>
        <time>2020-05-31T21:24:59Z</time>
      </trkpt>
      <trkpt lat="46.15322" lon="-1.30425">
        <ele>10.4</ele>
        <time>2020-05-31T21:25:00Z</time>
      </trkpt>
      <trkpt lat="46.15324" lon="-1.30434">
        <ele>10.4</ele>
        <time>2020-05-31T21:25:01Z</time>
      </trkpt>
      <trkpt lat="46.15325" lon="-1.30443">
        <ele>10.4</ele>
        <time>2020-05-31T21:25:02Z</time>
      </trkpt>
      <trkpt lat="46.15326" lon="-1.30452">
        <ele>10.4</ele>
        <time>2020-05-31T21:25:03Z</time>
      </trkpt>
      <trkpt lat="46.15327" lon="-1.30461">
        <ele>10.4</ele>
        <time>2020-05-31T21:25:04Z</time>
      </trkpt>
      <trkpt lat="46.15328" lon="-1.3047">
        <ele>10.4</ele>
        <time>2020-05-31T21:25:05Z</time>
      </trkpt>
      <trkpt lat="46.15329" lon="-1.30478">
        <ele>10.4</ele>
        <time>2020-05-31T21:25:06Z</time>
      </trkpt>
      <trkpt lat="46.1533" lon="-1.30486">
        <ele>10.4</ele>
        <time>2020-05-31T21:25:07Z</time>
      </trkpt>
      <trkpt lat="46.15332" lon="-1.30494">
        <ele>10.4</ele>
        <time>2020-05-31T21:25:08Z</time>
      </trkpt>
      <trkpt lat="46.15333" lon="-1.30503">
        <ele>10.4</ele>
        <time>2020-05-31T21:25:09Z</time>
      </trkpt>
      <trkpt lat="46.15335" lon="-1.30511">
        <ele>10.4</ele>
        <time>2020-05-31T21:25:10Z</time>
      </trkpt>
      <trkpt lat="46.15336" lon="-1.3052">
        <ele>10.4</ele>
        <time>2020-05-31T21:25:11Z</time>
      </trkpt>
      <trkpt lat="46.15337" lon="-1.30528">
        <ele>10.4</ele>
        <time>2020-05-31T21:25:12Z</time>
      </trkpt>
      <trkpt lat="46.15336" lon="-1.30537">
        <ele>10.4</ele>
        <time>2020-05-31T21:25:13Z</time>
      </trkpt>
      <trkpt lat="46.15336" lon="-1.30546">
        <ele>10.4</ele>
        <time>2020-05-31T21:25:14Z</time>
      </trkpt>
      <trkpt lat="46.15336" lon="-1.30554">
        <ele>10.4</ele>
        <time>2020-05-31T21:25:15Z</time>
      </trkpt>
      <trkpt lat="46.15337" lon="-1.30562">
        <ele>10.4</ele>
        <time>2020-05-31T21:25:16Z</time>
      </trkpt>
      <trkpt lat="46.15338" lon="-1.3057">
        <ele>10.4</ele>
        <time>2020-05-31T21:25:17Z</time>
      </trkpt>
      <trkpt lat="46.15339" lon="-1.30576">
        <ele>10.4</ele>
        <time>2020-05-31T21:25:18Z</time>
      </trkpt>
      <trkpt lat="46.15339" lon="-1.30582">
        <ele>10.4</ele>
        <time>2020-05-31T21:25:19Z</time>
      </trkpt>
      <trkpt lat="46.1534" lon="-1.30588">
        <ele>10.4</ele>
        <time>2020-05-31T21:25:20Z</time>
      </trkpt>
      <trkpt lat="46.15341" lon="-1.30594">
        <ele>10.4</ele>
        <time>2020-05-31T21:25:21Z</time>
      </trkpt>
      <trkpt lat="46.15341" lon="-1.30601">
        <ele>10.5</ele>
        <time>2020-05-31T21:25:22Z</time>
      </trkpt>
      <trkpt lat="46.15341" lon="-1.30608">
        <ele>10.5</ele>
        <time>2020-05-31T21:25:23Z</time>
      </trkpt>
      <trkpt lat="46.15342" lon="-1.30614">
        <ele>10.5</ele>
        <time>2020-05-31T21:25:24Z</time>
      </trkpt>
      <trkpt lat="46.15346" lon="-1.30617">
        <ele>10.5</ele>
        <time>2020-05-31T21:25:25Z</time>
      </trkpt>
      <trkpt lat="46.15349" lon="-1.30621">
        <ele>10.5</ele>
        <time>2020-05-31T21:25:26Z</time>
      </trkpt>
      <trkpt lat="46.15352" lon="-1.30626">
        <ele>10.5</ele>
        <time>2020-05-31T21:25:27Z</time>
      </trkpt>
      <trkpt lat="46.15354" lon="-1.3063">
        <ele>10.5</ele>
        <time>2020-05-31T21:25:28Z</time>
      </trkpt>
      <trkpt lat="46.15357" lon="-1.30635">
        <ele>10.5</ele>
        <time>2020-05-31T21:25:29Z</time>
      </trkpt>
      <trkpt lat="46.15358" lon="-1.3064">
        <ele>10.5</ele>
        <time>2020-05-31T21:25:30Z</time>
      </trkpt>
      <trkpt lat="46.15359" lon="-1.30646">
        <ele>10.4</ele>
        <time>2020-05-31T21:25:31Z</time>
      </trkpt>
      <trkpt lat="46.15357" lon="-1.30652">
        <ele>10.4</ele>
        <time>2020-05-31T21:25:32Z</time>
      </trkpt>
      <trkpt lat="46.15356" lon="-1.30659">
        <ele>10.4</ele>
        <time>2020-05-31T21:25:33Z</time>
      </trkpt>
      <trkpt lat="46.15354" lon="-1.30666">
        <ele>10.4</ele>
        <time>2020-05-31T21:25:34Z</time>
      </trkpt>
      <trkpt lat="46.15353" lon="-1.30672">
        <ele>10.3</ele>
        <time>2020-05-31T21:25:35Z</time>
      </trkpt>
      <trkpt lat="46.15352" lon="-1.30679">
        <ele>10.3</ele>
        <time>2020-05-31T21:25:36Z</time>
      </trkpt>
      <trkpt lat="46.15352" lon="-1.30686">
        <ele>10.3</ele>
        <time>2020-05-31T21:25:37Z</time>
      </trkpt>
      <trkpt lat="46.15353" lon="-1.30694">
        <ele>10.3</ele>
        <time>2020-05-31T21:25:38Z</time>
      </trkpt>
      <trkpt lat="46.15353" lon="-1.30703">
        <ele>10.3</ele>
        <time>2020-05-31T21:25:39Z</time>
      </trkpt>
      <trkpt lat="46.15353" lon="-1.30711">
        <ele>10.3</ele>
        <time>2020-05-31T21:25:40Z</time>
      </trkpt>
      <trkpt lat="46.15353" lon="-1.3072">
        <ele>10.3</ele>
        <time>2020-05-31T21:25:41Z</time>
      </trkpt>
      <trkpt lat="46.15353" lon="-1.30728">
        <ele>10.3</ele>
        <time>2020-05-31T21:25:42Z</time>
      </trkpt>
      <trkpt lat="46.15352" lon="-1.30737">
        <ele>10.4</ele>
        <time>2020-05-31T21:25:43Z</time>
      </trkpt>
      <trkpt lat="46.15351" lon="-1.30746">
        <ele>10.4</ele>
        <time>2020-05-31T21:25:44Z</time>
      </trkpt>
      <trkpt lat="46.1535" lon="-1.30755">
        <ele>10.4</ele>
        <time>2020-05-31T21:25:45Z</time>
      </trkpt>
      <trkpt lat="46.1535" lon="-1.30765">
        <ele>10.4</ele>
        <time>2020-05-31T21:25:46Z</time>
      </trkpt>
      <trkpt lat="46.1535" lon="-1.30774">
        <ele>10.4</ele>
        <time>2020-05-31T21:25:47Z</time>
      </trkpt>
      <trkpt lat="46.15351" lon="-1.30784">
        <ele>10.4</ele>
        <time>2020-05-31T21:25:48Z</time>
      </trkpt>
      <trkpt lat="46.15351" lon="-1.30794">
        <ele>10.4</ele>
        <time>2020-05-31T21:25:49Z</time>
      </trkpt>
      <trkpt lat="46.15351" lon="-1.30803">
        <ele>10.5</ele>
        <time>2020-05-31T21:25:50Z</time>
      </trkpt>
      <trkpt lat="46.15352" lon="-1.30813">
        <ele>10.5</ele>
        <time>2020-05-31T21:25:51Z</time>
      </trkpt>
      <trkpt lat="46.15352" lon="-1.30822">
        <ele>10.5</ele>
        <time>2020-05-31T21:25:52Z</time>
      </trkpt>
      <trkpt lat="46.15353" lon="-1.30831">
        <ele>10.5</ele>
        <time>2020-05-31T21:25:53Z</time>
      </trkpt>
      <trkpt lat="46.15354" lon="-1.3084">
        <ele>10.5</ele>
        <time>2020-05-31T21:25:54Z</time>
      </trkpt>
      <trkpt lat="46.15355" lon="-1.30849">
        <ele>10.5</ele>
        <time>2020-05-31T21:25:55Z</time>
      </trkpt>
      <trkpt lat="46.15356" lon="-1.30858">
        <ele>10.5</ele>
        <time>2020-05-31T21:25:56Z</time>
      </trkpt>
      <trkpt lat="46.15358" lon="-1.30867">
        <ele>10.6</ele>
        <time>2020-05-31T21:25:57Z</time>
      </trkpt>
      <trkpt lat="46.15359" lon="-1.30876">
        <ele>10.6</ele>
        <time>2020-05-31T21:25:58Z</time>
      </trkpt>
      <trkpt lat="46.15361" lon="-1.30885">
        <ele>10.6</ele>
        <time>2020-05-31T21:25:59Z</time>
      </trkpt>
      <trkpt lat="46.15363" lon="-1.30894">
        <ele>10.6</ele>
        <time>2020-05-31T21:26:00Z</time>
      </trkpt>
      <trkpt lat="46.15365" lon="-1.30903">
        <ele>10.6</ele>
        <time>2020-05-31T21:26:01Z</time>
      </trkpt>
      <trkpt lat="46.15366" lon="-1.30912">
        <ele>10.6</ele>
        <time>2020-05-31T21:26:02Z</time>
      </trkpt>
      <trkpt lat="46.15368" lon="-1.30922">
        <ele>10.6</ele>
        <time>2020-05-31T21:26:03Z</time>
      </trkpt>
      <trkpt lat="46.1537" lon="-1.3093">
        <ele>10.6</ele>
        <time>2020-05-31T21:26:04Z</time>
      </trkpt>
      <trkpt lat="46.15372" lon="-1.30939">
        <ele>10.5</ele>
        <time>2020-05-31T21:26:05Z</time>
      </trkpt>
      <trkpt lat="46.15374" lon="-1.30948">
        <ele>10.5</ele>
        <time>2020-05-31T21:26:06Z</time>
      </trkpt>
      <trkpt lat="46.15376" lon="-1.30957">
        <ele>10.5</ele>
        <time>2020-05-31T21:26:07Z</time>
      </trkpt>
      <trkpt lat="46.15378" lon="-1.30965">
        <ele>10.5</ele>
        <time>2020-05-31T21:26:08Z</time>
      </trkpt>
      <trkpt lat="46.1538" lon="-1.30974">
        <ele>10.5</ele>
        <time>2020-05-31T21:26:09Z</time>
      </trkpt>
      <trkpt lat="46.15382" lon="-1.30983">
        <ele>10.6</ele>
        <time>2020-05-31T21:26:10Z</time>
      </trkpt>
      <trkpt lat="46.15384" lon="-1.30993">
        <ele>10.6</ele>
        <time>2020-05-31T21:26:11Z</time>
      </trkpt>
      <trkpt lat="46.15385" lon="-1.31002">
        <ele>10.6</ele>
        <time>2020-05-31T21:26:12Z</time>
      </trkpt>
      <trkpt lat="46.15387" lon="-1.3101">
        <ele>10.6</ele>
        <time>2020-05-31T21:26:13Z</time>
      </trkpt>
      <trkpt lat="46.15389" lon="-1.31019">
        <ele>10.6</ele>
        <time>2020-05-31T21:26:14Z</time>
      </trkpt>
      <trkpt lat="46.15391" lon="-1.31028">
        <ele>10.6</ele>
        <time>2020-05-31T21:26:15Z</time>
      </trkpt>
      <trkpt lat="46.15393" lon="-1.31036">
        <ele>10.6</ele>
        <time>2020-05-31T21:26:16Z</time>
      </trkpt>
      <trkpt lat="46.15396" lon="-1.31045">
        <ele>10.6</ele>
        <time>2020-05-31T21:26:17Z</time>
      </trkpt>
      <trkpt lat="46.15398" lon="-1.31054">
        <ele>10.7</ele>
        <time>2020-05-31T21:26:18Z</time>
      </trkpt>
      <trkpt lat="46.154" lon="-1.31062">
        <ele>10.7</ele>
        <time>2020-05-31T21:26:19Z</time>
      </trkpt>
      <trkpt lat="46.15402" lon="-1.31071">
        <ele>10.7</ele>
        <time>2020-05-31T21:26:20Z</time>
      </trkpt>
      <trkpt lat="46.15404" lon="-1.3108">
        <ele>10.7</ele>
        <time>2020-05-31T21:26:21Z</time>
      </trkpt>
      <trkpt lat="46.15407" lon="-1.31089">
        <ele>10.7</ele>
        <time>2020-05-31T21:26:22Z</time>
      </trkpt>
      <trkpt lat="46.15409" lon="-1.31098">
        <ele>10.7</ele>
        <time>2020-05-31T21:26:23Z</time>
      </trkpt>
      <trkpt lat="46.15411" lon="-1.31107">
        <ele>10.7</ele>
        <time>2020-05-31T21:26:24Z</time>
      </trkpt>
      <trkpt lat="46.15413" lon="-1.31116">
        <ele>10.7</ele>
        <time>2020-05-31T21:26:25Z</time>
      </trkpt>
      <trkpt lat="46.15414" lon="-1.31126">
        <ele>10.7</ele>
        <time>2020-05-31T21:26:26Z</time>
      </trkpt>
      <trkpt lat="46.15417" lon="-1.31134">
        <ele>10.7</ele>
        <time>2020-05-31T21:26:27Z</time>
      </trkpt>
      <trkpt lat="46.1542" lon="-1.31143">
        <ele>10.7</ele>
        <time>2020-05-31T21:26:28Z</time>
      </trkpt>
      <trkpt lat="46.15421" lon="-1.31152">
        <ele>10.7</ele>
        <time>2020-05-31T21:26:29Z</time>
      </trkpt>
      <trkpt lat="46.15423" lon="-1.31161">
        <ele>10.7</ele>
        <time>2020-05-31T21:26:30Z</time>
      </trkpt>
      <trkpt lat="46.15425" lon="-1.3117">
        <ele>10.7</ele>
        <time>2020-05-31T21:26:31Z</time>
      </trkpt>
      <trkpt lat="46.15427" lon="-1.31179">
        <ele>10.7</ele>
        <time>2020-05-31T21:26:32Z</time>
      </trkpt>
      <trkpt lat="46.15428" lon="-1.31188">
        <ele>10.7</ele>
        <time>2020-05-31T21:26:33Z</time>
      </trkpt>
      <trkpt lat="46.1543" lon="-1.31197">
        <ele>10.7</ele>
        <time>2020-05-31T21:26:34Z</time>
      </trkpt>
      <trkpt lat="46.15432" lon="-1.31203">
        <ele>10.7</ele>
        <time>2020-05-31T21:26:35Z</time>
      </trkpt>
      <trkpt lat="46.15436" lon="-1.31206">
        <ele>10.6</ele>
        <time>2020-05-31T21:26:36Z</time>
      </trkpt>
      <trkpt lat="46.15439" lon="-1.31211">
        <ele>10.6</ele>
        <time>2020-05-31T21:26:37Z</time>
      </trkpt>
      <trkpt lat="46.15442" lon="-1.31217">
        <ele>10.6</ele>
        <time>2020-05-31T21:26:38Z</time>
      </trkpt>
      <trkpt lat="46.15444" lon="-1.31224">
        <ele>10.6</ele>
        <time>2020-05-31T21:26:39Z</time>
      </trkpt>
      <trkpt lat="46.15445" lon="-1.31233">
        <ele>10.6</ele>
        <time>2020-05-31T21:26:40Z</time>
      </trkpt>
      <trkpt lat="46.15445" lon="-1.31242">
        <ele>10.6</ele>
        <time>2020-05-31T21:26:41Z</time>
      </trkpt>
      <trkpt lat="46.15446" lon="-1.3125">
        <ele>10.6</ele>
        <time>2020-05-31T21:26:42Z</time>
      </trkpt>
      <trkpt lat="46.15447" lon="-1.31259">
        <ele>10.6</ele>
        <time>2020-05-31T21:26:43Z</time>
      </trkpt>
      <trkpt lat="46.15448" lon="-1.31268">
        <ele>10.6</ele>
        <time>2020-05-31T21:26:44Z</time>
      </trkpt>
      <trkpt lat="46.15448" lon="-1.31276">
        <ele>10.6</ele>
        <time>2020-05-31T21:26:45Z</time>
      </trkpt>
      <trkpt lat="46.15449" lon="-1.31286">
        <ele>10.6</ele>
        <time>2020-05-31T21:26:46Z</time>
      </trkpt>
      <trkpt lat="46.1545" lon="-1.31295">
        <ele>10.6</ele>
        <time>2020-05-31T21:26:47Z</time>
      </trkpt>
      <trkpt lat="46.15451" lon="-1.31303">
        <ele>10.6</ele>
        <time>2020-05-31T21:26:48Z</time>
      </trkpt>
      <trkpt lat="46.15454" lon="-1.31311">
        <ele>10.5</ele>
        <time>2020-05-31T21:26:49Z</time>
      </trkpt>
      <trkpt lat="46.15457" lon="-1.3132">
        <ele>10.5</ele>
        <time>2020-05-31T21:26:50Z</time>
      </trkpt>
      <trkpt lat="46.1546" lon="-1.31328">
        <ele>10.4</ele>
        <time>2020-05-31T21:26:51Z</time>
      </trkpt>
      <trkpt lat="46.15463" lon="-1.31336">
        <ele>10.3</ele>
        <time>2020-05-31T21:26:52Z</time>
      </trkpt>
      <trkpt lat="46.15467" lon="-1.31344">
        <ele>10.3</ele>
        <time>2020-05-31T21:26:53Z</time>
      </trkpt>
      <trkpt lat="46.15471" lon="-1.31351">
        <ele>10.2</ele>
        <time>2020-05-31T21:26:54Z</time>
      </trkpt>
      <trkpt lat="46.15474" lon="-1.31359">
        <ele>10.2</ele>
        <time>2020-05-31T21:26:55Z</time>
      </trkpt>
      <trkpt lat="46.15478" lon="-1.31367">
        <ele>10.2</ele>
        <time>2020-05-31T21:26:56Z</time>
      </trkpt>
      <trkpt lat="46.15482" lon="-1.31377">
        <ele>10.1</ele>
        <time>2020-05-31T21:26:57Z</time>
      </trkpt>
      <trkpt lat="46.15486" lon="-1.31384">
        <ele>10.1</ele>
        <time>2020-05-31T21:26:58Z</time>
      </trkpt>
      <trkpt lat="46.1549" lon="-1.31393">
        <ele>10</ele>
        <time>2020-05-31T21:26:59Z</time>
      </trkpt>
      <trkpt lat="46.15493" lon="-1.314">
        <ele>10</ele>
        <time>2020-05-31T21:27:00Z</time>
      </trkpt>
      <trkpt lat="46.15497" lon="-1.31408">
        <ele>10</ele>
        <time>2020-05-31T21:27:01Z</time>
      </trkpt>
      <trkpt lat="46.15501" lon="-1.31415">
        <ele>9.9</ele>
        <time>2020-05-31T21:27:02Z</time>
      </trkpt>
      <trkpt lat="46.15504" lon="-1.31423">
        <ele>9.9</ele>
        <time>2020-05-31T21:27:03Z</time>
      </trkpt>
      <trkpt lat="46.15508" lon="-1.3143">
        <ele>10</ele>
        <time>2020-05-31T21:27:04Z</time>
      </trkpt>
      <trkpt lat="46.15512" lon="-1.31437">
        <ele>10</ele>
        <time>2020-05-31T21:27:05Z</time>
      </trkpt>
      <trkpt lat="46.15515" lon="-1.31442">
        <ele>10</ele>
        <time>2020-05-31T21:27:06Z</time>
      </trkpt>
      <trkpt lat="46.15519" lon="-1.31449">
        <ele>10</ele>
        <time>2020-05-31T21:27:07Z</time>
      </trkpt>
      <trkpt lat="46.15523" lon="-1.31455">
        <ele>10</ele>
        <time>2020-05-31T21:27:08Z</time>
      </trkpt>
      <trkpt lat="46.15527" lon="-1.31462">
        <ele>10</ele>
        <time>2020-05-31T21:27:09Z</time>
      </trkpt>
      <trkpt lat="46.15531" lon="-1.31468">
        <ele>10</ele>
        <time>2020-05-31T21:27:10Z</time>
      </trkpt>
      <trkpt lat="46.15534" lon="-1.31478">
        <ele>10.1</ele>
        <time>2020-05-31T21:27:11Z</time>
      </trkpt>
      <trkpt lat="46.15536" lon="-1.31484">
        <ele>10.1</ele>
        <time>2020-05-31T21:27:12Z</time>
      </trkpt>
      <trkpt lat="46.15537" lon="-1.31489">
        <ele>10.1</ele>
        <time>2020-05-31T21:27:13Z</time>
      </trkpt>
      <trkpt lat="46.15539" lon="-1.31493">
        <ele>10.1</ele>
        <time>2020-05-31T21:27:14Z</time>
      </trkpt>
      <trkpt lat="46.15541" lon="-1.31497">
        <ele>10.1</ele>
        <time>2020-05-31T21:27:15Z</time>
      </trkpt>
      <trkpt lat="46.15543" lon="-1.31501">
        <ele>10.1</ele>
        <time>2020-05-31T21:27:16Z</time>
      </trkpt>
      <trkpt lat="46.15547" lon="-1.31504">
        <ele>10.1</ele>
        <time>2020-05-31T21:27:17Z</time>
      </trkpt>
      <trkpt lat="46.15549" lon="-1.31505">
        <ele>10.1</ele>
        <time>2020-05-31T21:27:18Z</time>
      </trkpt>
      <trkpt lat="46.1555" lon="-1.31504">
        <ele>10.1</ele>
        <time>2020-05-31T21:27:19Z</time>
      </trkpt>
      <trkpt lat="46.15553" lon="-1.31508">
        <ele>10.1</ele>
        <time>2020-05-31T21:27:20Z</time>
      </trkpt>
      <trkpt lat="46.15553" lon="-1.31511">
        <ele>10.1</ele>
        <time>2020-05-31T21:27:21Z</time>
      </trkpt>
      <trkpt lat="46.15554" lon="-1.31514">
        <ele>10.1</ele>
        <time>2020-05-31T21:27:22Z</time>
      </trkpt>
      <trkpt lat="46.15555" lon="-1.3152">
        <ele>10.2</ele>
        <time>2020-05-31T21:27:23Z</time>
      </trkpt>
      <trkpt lat="46.15555" lon="-1.31522">
        <ele>10.2</ele>
        <time>2020-05-31T21:27:24Z</time>
      </trkpt>
      <trkpt lat="46.15556" lon="-1.31527">
        <ele>10.2</ele>
        <time>2020-05-31T21:27:25Z</time>
      </trkpt>
      <trkpt lat="46.15557" lon="-1.31534">
        <ele>10.2</ele>
        <time>2020-05-31T21:27:26Z</time>
      </trkpt>
      <trkpt lat="46.15558" lon="-1.3154">
        <ele>10.2</ele>
        <time>2020-05-31T21:27:27Z</time>
      </trkpt>
      <trkpt lat="46.15559" lon="-1.31549">
        <ele>10.2</ele>
        <time>2020-05-31T21:27:28Z</time>
      </trkpt>
      <trkpt lat="46.1556" lon="-1.31553">
        <ele>10.2</ele>
        <time>2020-05-31T21:27:29Z</time>
      </trkpt>
      <trkpt lat="46.15563" lon="-1.31558">
        <ele>10.2</ele>
        <time>2020-05-31T21:27:30Z</time>
      </trkpt>
      <trkpt lat="46.15565" lon="-1.31561">
        <ele>10.2</ele>
        <time>2020-05-31T21:27:31Z</time>
      </trkpt>
      <trkpt lat="46.15567" lon="-1.31565">
        <ele>10.1</ele>
        <time>2020-05-31T21:27:32Z</time>
      </trkpt>
      <trkpt lat="46.1557" lon="-1.3157">
        <ele>10.1</ele>
        <time>2020-05-31T21:27:33Z</time>
      </trkpt>
      <trkpt lat="46.15572" lon="-1.31572">
        <ele>10.1</ele>
        <time>2020-05-31T21:27:34Z</time>
      </trkpt>
      <trkpt lat="46.15574" lon="-1.31577">
        <ele>10.1</ele>
        <time>2020-05-31T21:27:35Z</time>
      </trkpt>
      <trkpt lat="46.15576" lon="-1.31581">
        <ele>10.1</ele>
        <time>2020-05-31T21:27:36Z</time>
      </trkpt>
      <trkpt lat="46.15579" lon="-1.31584">
        <ele>10</ele>
        <time>2020-05-31T21:27:37Z</time>
      </trkpt>
      <trkpt lat="46.15581" lon="-1.31588">
        <ele>10</ele>
        <time>2020-05-31T21:27:38Z</time>
      </trkpt>
      <trkpt lat="46.15583" lon="-1.31591">
        <ele>9.9</ele>
        <time>2020-05-31T21:27:39Z</time>
      </trkpt>
      <trkpt lat="46.15584" lon="-1.31592">
        <ele>9.9</ele>
        <time>2020-05-31T21:27:40Z</time>
      </trkpt>
      <trkpt lat="46.15585" lon="-1.31596">
        <ele>9.8</ele>
        <time>2020-05-31T21:27:41Z</time>
      </trkpt>
      <trkpt lat="46.15586" lon="-1.31597">
        <ele>9.8</ele>
        <time>2020-05-31T21:27:42Z</time>
      </trkpt>
      <trkpt lat="46.15588" lon="-1.31602">
        <ele>9.7</ele>
        <time>2020-05-31T21:27:43Z</time>
      </trkpt>
      <trkpt lat="46.1559" lon="-1.31607">
        <ele>9.7</ele>
        <time>2020-05-31T21:27:44Z</time>
      </trkpt>
      <trkpt lat="46.15592" lon="-1.31611">
        <ele>9.6</ele>
        <time>2020-05-31T21:27:45Z</time>
      </trkpt>
      <trkpt lat="46.15593" lon="-1.31615">
        <ele>9.6</ele>
        <time>2020-05-31T21:27:46Z</time>
      </trkpt>
      <trkpt lat="46.15595" lon="-1.31621">
        <ele>9.5</ele>
        <time>2020-05-31T21:27:47Z</time>
      </trkpt>
      <trkpt lat="46.15596" lon="-1.31624">
        <ele>9.5</ele>
        <time>2020-05-31T21:27:48Z</time>
      </trkpt>
      <trkpt lat="46.15597" lon="-1.31627">
        <ele>9.4</ele>
        <time>2020-05-31T21:27:49Z</time>
      </trkpt>
      <trkpt lat="46.156" lon="-1.31632">
        <ele>9.4</ele>
        <time>2020-05-31T21:27:50Z</time>
      </trkpt>
      <trkpt lat="46.15602" lon="-1.31636">
        <ele>9.4</ele>
        <time>2020-05-31T21:27:51Z</time>
      </trkpt>
      <trkpt lat="46.15605" lon="-1.3164">
        <ele>9.3</ele>
        <time>2020-05-31T21:27:52Z</time>
      </trkpt>
      <trkpt lat="46.15607" lon="-1.31645">
        <ele>9.3</ele>
        <time>2020-05-31T21:27:53Z</time>
      </trkpt>
      <trkpt lat="46.1561" lon="-1.3165">
        <ele>9.3</ele>
        <time>2020-05-31T21:27:54Z</time>
      </trkpt>
      <trkpt lat="46.15613" lon="-1.31656">
        <ele>9.3</ele>
        <time>2020-05-31T21:27:55Z</time>
      </trkpt>
      <trkpt lat="46.15615" lon="-1.31663">
        <ele>9.2</ele>
        <time>2020-05-31T21:27:56Z</time>
      </trkpt>
      <trkpt lat="46.15618" lon="-1.3167">
        <ele>9.2</ele>
        <time>2020-05-31T21:27:57Z</time>
      </trkpt>
      <trkpt lat="46.15622" lon="-1.31679">
        <ele>9.1</ele>
        <time>2020-05-31T21:27:58Z</time>
      </trkpt>
      <trkpt lat="46.15625" lon="-1.31686">
        <ele>9</ele>
        <time>2020-05-31T21:27:59Z</time>
      </trkpt>
      <trkpt lat="46.15627" lon="-1.31692">
        <ele>9</ele>
        <time>2020-05-31T21:28:00Z</time>
      </trkpt>
      <trkpt lat="46.15631" lon="-1.31699">
        <ele>8.9</ele>
        <time>2020-05-31T21:28:01Z</time>
      </trkpt>
      <trkpt lat="46.15633" lon="-1.31705">
        <ele>8.8</ele>
        <time>2020-05-31T21:28:02Z</time>
      </trkpt>
      <trkpt lat="46.15636" lon="-1.31712">
        <ele>8.8</ele>
        <time>2020-05-31T21:28:03Z</time>
      </trkpt>
      <trkpt lat="46.15638" lon="-1.31718">
        <ele>8.7</ele>
        <time>2020-05-31T21:28:04Z</time>
      </trkpt>
      <trkpt lat="46.1564" lon="-1.31725">
        <ele>8.6</ele>
        <time>2020-05-31T21:28:05Z</time>
      </trkpt>
      <trkpt lat="46.15643" lon="-1.31733">
        <ele>8.6</ele>
        <time>2020-05-31T21:28:06Z</time>
      </trkpt>
      <trkpt lat="46.15646" lon="-1.31741">
        <ele>8.5</ele>
        <time>2020-05-31T21:28:07Z</time>
      </trkpt>
      <trkpt lat="46.15649" lon="-1.31748">
        <ele>8.4</ele>
        <time>2020-05-31T21:28:08Z</time>
      </trkpt>
      <trkpt lat="46.15652" lon="-1.31755">
        <ele>8.3</ele>
        <time>2020-05-31T21:28:09Z</time>
      </trkpt>
      <trkpt lat="46.15654" lon="-1.31762">
        <ele>8.3</ele>
        <time>2020-05-31T21:28:10Z</time>
      </trkpt>
      <trkpt lat="46.15657" lon="-1.31769">
        <ele>8.2</ele>
        <time>2020-05-31T21:28:11Z</time>
      </trkpt>
      <trkpt lat="46.15659" lon="-1.31777">
        <ele>8.1</ele>
        <time>2020-05-31T21:28:12Z</time>
      </trkpt>
      <trkpt lat="46.15661" lon="-1.31786">
        <ele>8</ele>
        <time>2020-05-31T21:28:13Z</time>
      </trkpt>
      <trkpt lat="46.15663" lon="-1.31794">
        <ele>7.9</ele>
        <time>2020-05-31T21:28:14Z</time>
      </trkpt>
      <trkpt lat="46.15666" lon="-1.31803">
        <ele>7.8</ele>
        <time>2020-05-31T21:28:15Z</time>
      </trkpt>
      <trkpt lat="46.15669" lon="-1.31811">
        <ele>7.8</ele>
        <time>2020-05-31T21:28:16Z</time>
      </trkpt>
      <trkpt lat="46.15672" lon="-1.3182">
        <ele>7.7</ele>
        <time>2020-05-31T21:28:17Z</time>
      </trkpt>
      <trkpt lat="46.15674" lon="-1.31827">
        <ele>7.7</ele>
        <time>2020-05-31T21:28:18Z</time>
      </trkpt>
      <trkpt lat="46.15677" lon="-1.31835">
        <ele>7.6</ele>
        <time>2020-05-31T21:28:19Z</time>
      </trkpt>
      <trkpt lat="46.15679" lon="-1.31843">
        <ele>7.6</ele>
        <time>2020-05-31T21:28:20Z</time>
      </trkpt>
      <trkpt lat="46.15681" lon="-1.3185">
        <ele>7.6</ele>
        <time>2020-05-31T21:28:21Z</time>
      </trkpt>
      <trkpt lat="46.15684" lon="-1.31859">
        <ele>7.6</ele>
        <time>2020-05-31T21:28:22Z</time>
      </trkpt>
      <trkpt lat="46.15686" lon="-1.31868">
        <ele>7.6</ele>
        <time>2020-05-31T21:28:23Z</time>
      </trkpt>
      <trkpt lat="46.15689" lon="-1.31876">
        <ele>7.6</ele>
        <time>2020-05-31T21:28:24Z</time>
      </trkpt>
      <trkpt lat="46.15691" lon="-1.31885">
        <ele>7.7</ele>
        <time>2020-05-31T21:28:25Z</time>
      </trkpt>
      <trkpt lat="46.15694" lon="-1.31893">
        <ele>7.7</ele>
        <time>2020-05-31T21:28:26Z</time>
      </trkpt>
      <trkpt lat="46.15696" lon="-1.31902">
        <ele>7.7</ele>
        <time>2020-05-31T21:28:27Z</time>
      </trkpt>
      <trkpt lat="46.15698" lon="-1.3191">
        <ele>7.8</ele>
        <time>2020-05-31T21:28:28Z</time>
      </trkpt>
      <trkpt lat="46.15701" lon="-1.31918">
        <ele>7.8</ele>
        <time>2020-05-31T21:28:29Z</time>
      </trkpt>
      <trkpt lat="46.15704" lon="-1.31927">
        <ele>7.9</ele>
        <time>2020-05-31T21:28:30Z</time>
      </trkpt>
      <trkpt lat="46.15706" lon="-1.31935">
        <ele>7.9</ele>
        <time>2020-05-31T21:28:31Z</time>
      </trkpt>
      <trkpt lat="46.15708" lon="-1.31942">
        <ele>7.8</ele>
        <time>2020-05-31T21:28:32Z</time>
      </trkpt>
      <trkpt lat="46.15711" lon="-1.3195">
        <ele>7.8</ele>
        <time>2020-05-31T21:28:33Z</time>
      </trkpt>
      <trkpt lat="46.15714" lon="-1.31957">
        <ele>7.8</ele>
        <time>2020-05-31T21:28:34Z</time>
      </trkpt>
      <trkpt lat="46.15716" lon="-1.31964">
        <ele>7.8</ele>
        <time>2020-05-31T21:28:35Z</time>
      </trkpt>
      <trkpt lat="46.15718" lon="-1.31972">
        <ele>7.8</ele>
        <time>2020-05-31T21:28:36Z</time>
      </trkpt>
      <trkpt lat="46.1572" lon="-1.31979">
        <ele>7.8</ele>
        <time>2020-05-31T21:28:37Z</time>
      </trkpt>
      <trkpt lat="46.15722" lon="-1.31985">
        <ele>7.8</ele>
        <time>2020-05-31T21:28:38Z</time>
      </trkpt>
      <trkpt lat="46.15724" lon="-1.31993">
        <ele>7.8</ele>
        <time>2020-05-31T21:28:39Z</time>
      </trkpt>
      <trkpt lat="46.15726" lon="-1.32">
        <ele>7.8</ele>
        <time>2020-05-31T21:28:40Z</time>
      </trkpt>
      <trkpt lat="46.15728" lon="-1.32008">
        <ele>7.9</ele>
        <time>2020-05-31T21:28:41Z</time>
      </trkpt>
      <trkpt lat="46.15731" lon="-1.32017">
        <ele>7.9</ele>
        <time>2020-05-31T21:28:42Z</time>
      </trkpt>
      <trkpt lat="46.15733" lon="-1.32024">
        <ele>8</ele>
        <time>2020-05-31T21:28:43Z</time>
      </trkpt>
      <trkpt lat="46.15736" lon="-1.32032">
        <ele>8.1</ele>
        <time>2020-05-31T21:28:44Z</time>
      </trkpt>
      <trkpt lat="46.15738" lon="-1.32039">
        <ele>8.2</ele>
        <time>2020-05-31T21:28:45Z</time>
      </trkpt>
      <trkpt lat="46.1574" lon="-1.32046">
        <ele>8.2</ele>
        <time>2020-05-31T21:28:46Z</time>
      </trkpt>
      <trkpt lat="46.15743" lon="-1.32056">
        <ele>8.3</ele>
        <time>2020-05-31T21:28:47Z</time>
      </trkpt>
      <trkpt lat="46.15746" lon="-1.32063">
        <ele>8.2</ele>
        <time>2020-05-31T21:28:48Z</time>
      </trkpt>
      <trkpt lat="46.15749" lon="-1.32072">
        <ele>8.2</ele>
        <time>2020-05-31T21:28:49Z</time>
      </trkpt>
      <trkpt lat="46.15752" lon="-1.3208">
        <ele>8.2</ele>
        <time>2020-05-31T21:28:50Z</time>
      </trkpt>
      <trkpt lat="46.15755" lon="-1.32089">
        <ele>8.2</ele>
        <time>2020-05-31T21:28:51Z</time>
      </trkpt>
      <trkpt lat="46.15757" lon="-1.32097">
        <ele>8.2</ele>
        <time>2020-05-31T21:28:52Z</time>
      </trkpt>
      <trkpt lat="46.1576" lon="-1.32105">
        <ele>8.1</ele>
        <time>2020-05-31T21:28:53Z</time>
      </trkpt>
      <trkpt lat="46.15762" lon="-1.3211">
        <ele>8.1</ele>
        <time>2020-05-31T21:28:54Z</time>
      </trkpt>
      <trkpt lat="46.15766" lon="-1.32116">
        <ele>8.1</ele>
        <time>2020-05-31T21:28:55Z</time>
      </trkpt>
      <trkpt lat="46.15769" lon="-1.32123">
        <ele>8.1</ele>
        <time>2020-05-31T21:28:56Z</time>
      </trkpt>
      <trkpt lat="46.15772" lon="-1.3213">
        <ele>8.1</ele>
        <time>2020-05-31T21:28:57Z</time>
      </trkpt>
      <trkpt lat="46.15775" lon="-1.32138">
        <ele>8</ele>
        <time>2020-05-31T21:28:58Z</time>
      </trkpt>
      <trkpt lat="46.15778" lon="-1.32146">
        <ele>8</ele>
        <time>2020-05-31T21:28:59Z</time>
      </trkpt>
      <trkpt lat="46.1578" lon="-1.32155">
        <ele>8</ele>
        <time>2020-05-31T21:29:00Z</time>
      </trkpt>
      <trkpt lat="46.15782" lon="-1.32164">
        <ele>7.9</ele>
        <time>2020-05-31T21:29:01Z</time>
      </trkpt>
      <trkpt lat="46.15784" lon="-1.32173">
        <ele>7.9</ele>
        <time>2020-05-31T21:29:02Z</time>
      </trkpt>
      <trkpt lat="46.15786" lon="-1.32183">
        <ele>7.8</ele>
        <time>2020-05-31T21:29:03Z</time>
      </trkpt>
      <trkpt lat="46.15787" lon="-1.3219">
        <ele>7.8</ele>
        <time>2020-05-31T21:29:04Z</time>
      </trkpt>
      <trkpt lat="46.15789" lon="-1.32199">
        <ele>7.8</ele>
        <time>2020-05-31T21:29:05Z</time>
      </trkpt>
      <trkpt lat="46.15791" lon="-1.32207">
        <ele>7.7</ele>
        <time>2020-05-31T21:29:06Z</time>
      </trkpt>
      <trkpt lat="46.15793" lon="-1.32216">
        <ele>7.7</ele>
        <time>2020-05-31T21:29:07Z</time>
      </trkpt>
      <trkpt lat="46.15796" lon="-1.32225">
        <ele>7.6</ele>
        <time>2020-05-31T21:29:08Z</time>
      </trkpt>
      <trkpt lat="46.15799" lon="-1.32234">
        <ele>7.7</ele>
        <time>2020-05-31T21:29:09Z</time>
      </trkpt>
      <trkpt lat="46.15802" lon="-1.32242">
        <ele>7.7</ele>
        <time>2020-05-31T21:29:10Z</time>
      </trkpt>
      <trkpt lat="46.15805" lon="-1.32251">
        <ele>7.7</ele>
        <time>2020-05-31T21:29:11Z</time>
      </trkpt>
      <trkpt lat="46.15809" lon="-1.3226">
        <ele>7.7</ele>
        <time>2020-05-31T21:29:12Z</time>
      </trkpt>
      <trkpt lat="46.15811" lon="-1.32268">
        <ele>7.7</ele>
        <time>2020-05-31T21:29:13Z</time>
      </trkpt>
      <trkpt lat="46.15814" lon="-1.32276">
        <ele>7.7</ele>
        <time>2020-05-31T21:29:14Z</time>
      </trkpt>
      <trkpt lat="46.15816" lon="-1.32285">
        <ele>7.7</ele>
        <time>2020-05-31T21:29:15Z</time>
      </trkpt>
      <trkpt lat="46.15819" lon="-1.32293">
        <ele>7.6</ele>
        <time>2020-05-31T21:29:16Z</time>
      </trkpt>
      <trkpt lat="46.15821" lon="-1.32301">
        <ele>7.5</ele>
        <time>2020-05-31T21:29:17Z</time>
      </trkpt>
      <trkpt lat="46.15824" lon="-1.32309">
        <ele>7.5</ele>
        <time>2020-05-31T21:29:18Z</time>
      </trkpt>
      <trkpt lat="46.15828" lon="-1.32318">
        <ele>7.4</ele>
        <time>2020-05-31T21:29:19Z</time>
      </trkpt>
      <trkpt lat="46.15831" lon="-1.32327">
        <ele>7.3</ele>
        <time>2020-05-31T21:29:20Z</time>
      </trkpt>
      <trkpt lat="46.15834" lon="-1.32335">
        <ele>7.3</ele>
        <time>2020-05-31T21:29:21Z</time>
      </trkpt>
      <trkpt lat="46.15837" lon="-1.32343">
        <ele>7.3</ele>
        <time>2020-05-31T21:29:22Z</time>
      </trkpt>
      <trkpt lat="46.1584" lon="-1.3235">
        <ele>7.3</ele>
        <time>2020-05-31T21:29:23Z</time>
      </trkpt>
      <trkpt lat="46.15844" lon="-1.32357">
        <ele>7.3</ele>
        <time>2020-05-31T21:29:24Z</time>
      </trkpt>
      <trkpt lat="46.15849" lon="-1.32365">
        <ele>7.3</ele>
        <time>2020-05-31T21:29:25Z</time>
      </trkpt>
      <trkpt lat="46.15854" lon="-1.32371">
        <ele>7.3</ele>
        <time>2020-05-31T21:29:26Z</time>
      </trkpt>
      <trkpt lat="46.15859" lon="-1.32377">
        <ele>7.3</ele>
        <time>2020-05-31T21:29:27Z</time>
      </trkpt>
      <trkpt lat="46.15864" lon="-1.32382">
        <ele>7.4</ele>
        <time>2020-05-31T21:29:28Z</time>
      </trkpt>
      <trkpt lat="46.15868" lon="-1.32388">
        <ele>7.5</ele>
        <time>2020-05-31T21:29:29Z</time>
      </trkpt>
      <trkpt lat="46.15873" lon="-1.32393">
        <ele>7.6</ele>
        <time>2020-05-31T21:29:30Z</time>
      </trkpt>
      <trkpt lat="46.15877" lon="-1.32398">
        <ele>7.6</ele>
        <time>2020-05-31T21:29:31Z</time>
      </trkpt>
      <trkpt lat="46.15881" lon="-1.32403">
        <ele>7.7</ele>
        <time>2020-05-31T21:29:32Z</time>
      </trkpt>
      <trkpt lat="46.15885" lon="-1.32408">
        <ele>7.7</ele>
        <time>2020-05-31T21:29:33Z</time>
      </trkpt>
      <trkpt lat="46.15888" lon="-1.32416">
        <ele>7.8</ele>
        <time>2020-05-31T21:29:34Z</time>
      </trkpt>
      <trkpt lat="46.1589" lon="-1.32423">
        <ele>7.8</ele>
        <time>2020-05-31T21:29:35Z</time>
      </trkpt>
      <trkpt lat="46.15891" lon="-1.32432">
        <ele>7.9</ele>
        <time>2020-05-31T21:29:36Z</time>
      </trkpt>
      <trkpt lat="46.15893" lon="-1.32439">
        <ele>7.9</ele>
        <time>2020-05-31T21:29:37Z</time>
      </trkpt>
      <trkpt lat="46.15893" lon="-1.32447">
        <ele>7.9</ele>
        <time>2020-05-31T21:29:38Z</time>
      </trkpt>
      <trkpt lat="46.15894" lon="-1.32454">
        <ele>8</ele>
        <time>2020-05-31T21:29:39Z</time>
      </trkpt>
      <trkpt lat="46.15894" lon="-1.32461">
        <ele>8</ele>
        <time>2020-05-31T21:29:40Z</time>
      </trkpt>
      <trkpt lat="46.15894" lon="-1.32468">
        <ele>8</ele>
        <time>2020-05-31T21:29:41Z</time>
      </trkpt>
      <trkpt lat="46.15893" lon="-1.32478">
        <ele>8</ele>
        <time>2020-05-31T21:29:42Z</time>
      </trkpt>
      <trkpt lat="46.15892" lon="-1.32487">
        <ele>8</ele>
        <time>2020-05-31T21:29:43Z</time>
      </trkpt>
      <trkpt lat="46.15891" lon="-1.32495">
        <ele>8</ele>
        <time>2020-05-31T21:29:44Z</time>
      </trkpt>
      <trkpt lat="46.15892" lon="-1.32503">
        <ele>8</ele>
        <time>2020-05-31T21:29:45Z</time>
      </trkpt>
      <trkpt lat="46.15893" lon="-1.3251">
        <ele>8</ele>
        <time>2020-05-31T21:29:46Z</time>
      </trkpt>
      <trkpt lat="46.15894" lon="-1.32518">
        <ele>8.1</ele>
        <time>2020-05-31T21:29:47Z</time>
      </trkpt>
      <trkpt lat="46.15897" lon="-1.32527">
        <ele>8.1</ele>
        <time>2020-05-31T21:29:48Z</time>
      </trkpt>
      <trkpt lat="46.15899" lon="-1.32535">
        <ele>8.1</ele>
        <time>2020-05-31T21:29:49Z</time>
      </trkpt>
      <trkpt lat="46.15902" lon="-1.32542">
        <ele>8.1</ele>
        <time>2020-05-31T21:29:50Z</time>
      </trkpt>
      <trkpt lat="46.15904" lon="-1.32548">
        <ele>8.1</ele>
        <time>2020-05-31T21:29:51Z</time>
      </trkpt>
      <trkpt lat="46.15906" lon="-1.32555">
        <ele>8.1</ele>
        <time>2020-05-31T21:29:52Z</time>
      </trkpt>
      <trkpt lat="46.15908" lon="-1.32562">
        <ele>8.1</ele>
        <time>2020-05-31T21:29:53Z</time>
      </trkpt>
      <trkpt lat="46.1591" lon="-1.3257">
        <ele>8</ele>
        <time>2020-05-31T21:29:54Z</time>
      </trkpt>
      <trkpt lat="46.15913" lon="-1.32577">
        <ele>8</ele>
        <time>2020-05-31T21:29:55Z</time>
      </trkpt>
      <trkpt lat="46.15915" lon="-1.32583">
        <ele>8</ele>
        <time>2020-05-31T21:29:56Z</time>
      </trkpt>
      <trkpt lat="46.15917" lon="-1.32592">
        <ele>8</ele>
        <time>2020-05-31T21:29:57Z</time>
      </trkpt>
      <trkpt lat="46.15919" lon="-1.326">
        <ele>8</ele>
        <time>2020-05-31T21:29:58Z</time>
      </trkpt>
      <trkpt lat="46.15921" lon="-1.32608">
        <ele>8</ele>
        <time>2020-05-31T21:29:59Z</time>
      </trkpt>
      <trkpt lat="46.15924" lon="-1.32618">
        <ele>8</ele>
        <time>2020-05-31T21:30:00Z</time>
      </trkpt>
      <trkpt lat="46.15925" lon="-1.32627">
        <ele>8</ele>
        <time>2020-05-31T21:30:01Z</time>
      </trkpt>
      <trkpt lat="46.15929" lon="-1.32636">
        <ele>8</ele>
        <time>2020-05-31T21:30:02Z</time>
      </trkpt>
      <trkpt lat="46.15931" lon="-1.32644">
        <ele>7.9</ele>
        <time>2020-05-31T21:30:03Z</time>
      </trkpt>
      <trkpt lat="46.15934" lon="-1.32654">
        <ele>7.9</ele>
        <time>2020-05-31T21:30:04Z</time>
      </trkpt>
      <trkpt lat="46.15936" lon="-1.32659">
        <ele>7.9</ele>
        <time>2020-05-31T21:30:05Z</time>
      </trkpt>
      <trkpt lat="46.1594" lon="-1.32668">
        <ele>7.9</ele>
        <time>2020-05-31T21:30:06Z</time>
      </trkpt>
      <trkpt lat="46.15942" lon="-1.32673">
        <ele>7.8</ele>
        <time>2020-05-31T21:30:07Z</time>
      </trkpt>
      <trkpt lat="46.15945" lon="-1.32681">
        <ele>7.8</ele>
        <time>2020-05-31T21:30:08Z</time>
      </trkpt>
      <trkpt lat="46.15947" lon="-1.32687">
        <ele>7.7</ele>
        <time>2020-05-31T21:30:09Z</time>
      </trkpt>
      <trkpt lat="46.15949" lon="-1.32696">
        <ele>7.7</ele>
        <time>2020-05-31T21:30:10Z</time>
      </trkpt>
      <trkpt lat="46.15952" lon="-1.32704">
        <ele>7.6</ele>
        <time>2020-05-31T21:30:11Z</time>
      </trkpt>
      <trkpt lat="46.15953" lon="-1.32712">
        <ele>7.5</ele>
        <time>2020-05-31T21:30:12Z</time>
      </trkpt>
      <trkpt lat="46.15956" lon="-1.32718">
        <ele>7.5</ele>
        <time>2020-05-31T21:30:13Z</time>
      </trkpt>
      <trkpt lat="46.15959" lon="-1.32727">
        <ele>7.4</ele>
        <time>2020-05-31T21:30:14Z</time>
      </trkpt>
      <trkpt lat="46.15961" lon="-1.32735">
        <ele>7.3</ele>
        <time>2020-05-31T21:30:15Z</time>
      </trkpt>
      <trkpt lat="46.15964" lon="-1.32743">
        <ele>7.2</ele>
        <time>2020-05-31T21:30:16Z</time>
      </trkpt>
      <trkpt lat="46.15966" lon="-1.32752">
        <ele>7.1</ele>
        <time>2020-05-31T21:30:17Z</time>
      </trkpt>
      <trkpt lat="46.15968" lon="-1.3276">
        <ele>7</ele>
        <time>2020-05-31T21:30:18Z</time>
      </trkpt>
      <trkpt lat="46.1597" lon="-1.32768">
        <ele>6.9</ele>
        <time>2020-05-31T21:30:19Z</time>
      </trkpt>
      <trkpt lat="46.15972" lon="-1.32776">
        <ele>6.8</ele>
        <time>2020-05-31T21:30:20Z</time>
      </trkpt>
      <trkpt lat="46.15974" lon="-1.32786">
        <ele>6.7</ele>
        <time>2020-05-31T21:30:21Z</time>
      </trkpt>
      <trkpt lat="46.15976" lon="-1.32796">
        <ele>6.6</ele>
        <time>2020-05-31T21:30:22Z</time>
      </trkpt>
      <trkpt lat="46.15978" lon="-1.32803">
        <ele>6.5</ele>
        <time>2020-05-31T21:30:23Z</time>
      </trkpt>
      <trkpt lat="46.1598" lon="-1.32811">
        <ele>6.5</ele>
        <time>2020-05-31T21:30:24Z</time>
      </trkpt>
      <trkpt lat="46.15982" lon="-1.3282">
        <ele>6.4</ele>
        <time>2020-05-31T21:30:25Z</time>
      </trkpt>
      <trkpt lat="46.15984" lon="-1.32829">
        <ele>6.3</ele>
        <time>2020-05-31T21:30:26Z</time>
      </trkpt>
      <trkpt lat="46.15986" lon="-1.32838">
        <ele>6.2</ele>
        <time>2020-05-31T21:30:27Z</time>
      </trkpt>
      <trkpt lat="46.15987" lon="-1.32847">
        <ele>6</ele>
        <time>2020-05-31T21:30:28Z</time>
      </trkpt>
      <trkpt lat="46.15988" lon="-1.32856">
        <ele>5.9</ele>
        <time>2020-05-31T21:30:29Z</time>
      </trkpt>
      <trkpt lat="46.1599" lon="-1.32864">
        <ele>5.9</ele>
        <time>2020-05-31T21:30:30Z</time>
      </trkpt>
      <trkpt lat="46.15991" lon="-1.32873">
        <ele>5.8</ele>
        <time>2020-05-31T21:30:31Z</time>
      </trkpt>
      <trkpt lat="46.15992" lon="-1.32882">
        <ele>5.7</ele>
        <time>2020-05-31T21:30:32Z</time>
      </trkpt>
      <trkpt lat="46.15993" lon="-1.3289">
        <ele>5.7</ele>
        <time>2020-05-31T21:30:33Z</time>
      </trkpt>
      <trkpt lat="46.15994" lon="-1.32899">
        <ele>5.7</ele>
        <time>2020-05-31T21:30:34Z</time>
      </trkpt>
      <trkpt lat="46.15994" lon="-1.32909">
        <ele>5.7</ele>
        <time>2020-05-31T21:30:35Z</time>
      </trkpt>
      <trkpt lat="46.15995" lon="-1.32917">
        <ele>5.7</ele>
        <time>2020-05-31T21:30:36Z</time>
      </trkpt>
      <trkpt lat="46.15995" lon="-1.32926">
        <ele>5.6</ele>
        <time>2020-05-31T21:30:37Z</time>
      </trkpt>
      <trkpt lat="46.15996" lon="-1.32935">
        <ele>5.6</ele>
        <time>2020-05-31T21:30:38Z</time>
      </trkpt>
      <trkpt lat="46.15997" lon="-1.32945">
        <ele>5.5</ele>
        <time>2020-05-31T21:30:39Z</time>
      </trkpt>
      <trkpt lat="46.15998" lon="-1.32954">
        <ele>5.4</ele>
        <time>2020-05-31T21:30:40Z</time>
      </trkpt>
      <trkpt lat="46.15998" lon="-1.32964">
        <ele>5.3</ele>
        <time>2020-05-31T21:30:41Z</time>
      </trkpt>
      <trkpt lat="46.15999" lon="-1.32973">
        <ele>5.2</ele>
        <time>2020-05-31T21:30:42Z</time>
      </trkpt>
      <trkpt lat="46.15999" lon="-1.32982">
        <ele>5.1</ele>
        <time>2020-05-31T21:30:43Z</time>
      </trkpt>
      <trkpt lat="46.15999" lon="-1.32991">
        <ele>5</ele>
        <time>2020-05-31T21:30:44Z</time>
      </trkpt>
      <trkpt lat="46.15999" lon="-1.33001">
        <ele>4.9</ele>
        <time>2020-05-31T21:30:45Z</time>
      </trkpt>
      <trkpt lat="46.15999" lon="-1.3301">
        <ele>4.9</ele>
        <time>2020-05-31T21:30:46Z</time>
      </trkpt>
      <trkpt lat="46.15999" lon="-1.33019">
        <ele>4.8</ele>
        <time>2020-05-31T21:30:47Z</time>
      </trkpt>
      <trkpt lat="46.15999" lon="-1.33028">
        <ele>4.8</ele>
        <time>2020-05-31T21:30:48Z</time>
      </trkpt>
      <trkpt lat="46.15998" lon="-1.33037">
        <ele>4.7</ele>
        <time>2020-05-31T21:30:49Z</time>
      </trkpt>
      <trkpt lat="46.15998" lon="-1.33046">
        <ele>4.7</ele>
        <time>2020-05-31T21:30:50Z</time>
      </trkpt>
      <trkpt lat="46.15997" lon="-1.33055">
        <ele>4.6</ele>
        <time>2020-05-31T21:30:51Z</time>
      </trkpt>
      <trkpt lat="46.15996" lon="-1.33064">
        <ele>4.6</ele>
        <time>2020-05-31T21:30:52Z</time>
      </trkpt>
      <trkpt lat="46.15996" lon="-1.33073">
        <ele>4.5</ele>
        <time>2020-05-31T21:30:53Z</time>
      </trkpt>
      <trkpt lat="46.15995" lon="-1.33082">
        <ele>4.4</ele>
        <time>2020-05-31T21:30:54Z</time>
      </trkpt>
      <trkpt lat="46.15994" lon="-1.33091">
        <ele>4.3</ele>
        <time>2020-05-31T21:30:55Z</time>
      </trkpt>
      <trkpt lat="46.15994" lon="-1.331">
        <ele>4.2</ele>
        <time>2020-05-31T21:30:56Z</time>
      </trkpt>
      <trkpt lat="46.15993" lon="-1.33109">
        <ele>4.1</ele>
        <time>2020-05-31T21:30:57Z</time>
      </trkpt>
      <trkpt lat="46.15993" lon="-1.33117">
        <ele>4</ele>
        <time>2020-05-31T21:30:58Z</time>
      </trkpt>
      <trkpt lat="46.15992" lon="-1.33125">
        <ele>4</ele>
        <time>2020-05-31T21:30:59Z</time>
      </trkpt>
      <trkpt lat="46.15991" lon="-1.33133">
        <ele>3.9</ele>
        <time>2020-05-31T21:31:00Z</time>
      </trkpt>
      <trkpt lat="46.15991" lon="-1.33141">
        <ele>3.9</ele>
        <time>2020-05-31T21:31:01Z</time>
      </trkpt>
      <trkpt lat="46.15991" lon="-1.33147">
        <ele>3.9</ele>
        <time>2020-05-31T21:31:02Z</time>
      </trkpt>
      <trkpt lat="46.15991" lon="-1.33155">
        <ele>3.9</ele>
        <time>2020-05-31T21:31:03Z</time>
      </trkpt>
      <trkpt lat="46.15992" lon="-1.33159">
        <ele>3.9</ele>
        <time>2020-05-31T21:31:04Z</time>
      </trkpt>
      <trkpt lat="46.15994" lon="-1.33162">
        <ele>3.9</ele>
        <time>2020-05-31T21:31:05Z</time>
      </trkpt>
      <trkpt lat="46.15997" lon="-1.33163">
        <ele>3.9</ele>
        <time>2020-05-31T21:31:06Z</time>
      </trkpt>
      <trkpt lat="46.15998" lon="-1.33165">
        <ele>4</ele>
        <time>2020-05-31T21:31:07Z</time>
      </trkpt>
      <trkpt lat="46.15998" lon="-1.3317">
        <ele>4</ele>
        <time>2020-05-31T21:31:08Z</time>
      </trkpt>
      <trkpt lat="46.15998" lon="-1.33172">
        <ele>4</ele>
        <time>2020-05-31T21:31:09Z</time>
      </trkpt>
      <trkpt lat="46.15999" lon="-1.33178">
        <ele>4</ele>
        <time>2020-05-31T21:31:10Z</time>
      </trkpt>
      <trkpt lat="46.15999" lon="-1.33183">
        <ele>4</ele>
        <time>2020-05-31T21:31:11Z</time>
      </trkpt>
      <trkpt lat="46.15998" lon="-1.33188">
        <ele>4</ele>
        <time>2020-05-31T21:31:12Z</time>
      </trkpt>
      <trkpt lat="46.15997" lon="-1.33194">
        <ele>4.1</ele>
        <time>2020-05-31T21:31:13Z</time>
      </trkpt>
      <trkpt lat="46.15995" lon="-1.33198">
        <ele>4.1</ele>
        <time>2020-05-31T21:31:14Z</time>
      </trkpt>
      <trkpt lat="46.15993" lon="-1.33204">
        <ele>4.1</ele>
        <time>2020-05-31T21:31:15Z</time>
      </trkpt>
      <trkpt lat="46.15989" lon="-1.33208">
        <ele>4.2</ele>
        <time>2020-05-31T21:31:16Z</time>
      </trkpt>
      <trkpt lat="46.15985" lon="-1.33212">
        <ele>4.2</ele>
        <time>2020-05-31T21:31:17Z</time>
      </trkpt>
      <trkpt lat="46.15981" lon="-1.33217">
        <ele>4.3</ele>
        <time>2020-05-31T21:31:18Z</time>
      </trkpt>
      <trkpt lat="46.15978" lon="-1.33223">
        <ele>4.3</ele>
        <time>2020-05-31T21:31:19Z</time>
      </trkpt>
      <trkpt lat="46.15977" lon="-1.33231">
        <ele>4.3</ele>
        <time>2020-05-31T21:31:20Z</time>
      </trkpt>
      <trkpt lat="46.15976" lon="-1.33238">
        <ele>4.3</ele>
        <time>2020-05-31T21:31:21Z</time>
      </trkpt>
      <trkpt lat="46.15974" lon="-1.33245">
        <ele>4.3</ele>
        <time>2020-05-31T21:31:22Z</time>
      </trkpt>
      <trkpt lat="46.15972" lon="-1.33252">
        <ele>4.3</ele>
        <time>2020-05-31T21:31:23Z</time>
      </trkpt>
      <trkpt lat="46.15971" lon="-1.33258">
        <ele>4.3</ele>
        <time>2020-05-31T21:31:24Z</time>
      </trkpt>
      <trkpt lat="46.1597" lon="-1.33264">
        <ele>4.3</ele>
        <time>2020-05-31T21:31:25Z</time>
      </trkpt>
      <trkpt lat="46.15969" lon="-1.33272">
        <ele>4.3</ele>
        <time>2020-05-31T21:31:26Z</time>
      </trkpt>
      <trkpt lat="46.15967" lon="-1.33279">
        <ele>4.3</ele>
        <time>2020-05-31T21:31:27Z</time>
      </trkpt>
      <trkpt lat="46.15966" lon="-1.33287">
        <ele>4.4</ele>
        <time>2020-05-31T21:31:28Z</time>
      </trkpt>
      <trkpt lat="46.15965" lon="-1.33295">
        <ele>4.4</ele>
        <time>2020-05-31T21:31:29Z</time>
      </trkpt>
      <trkpt lat="46.15965" lon="-1.33303">
        <ele>4.5</ele>
        <time>2020-05-31T21:31:30Z</time>
      </trkpt>
      <trkpt lat="46.15964" lon="-1.33311">
        <ele>4.5</ele>
        <time>2020-05-31T21:31:31Z</time>
      </trkpt>
      <trkpt lat="46.15961" lon="-1.33317">
        <ele>4.6</ele>
        <time>2020-05-31T21:31:32Z</time>
      </trkpt>
      <trkpt lat="46.15959" lon="-1.33325">
        <ele>4.6</ele>
        <time>2020-05-31T21:31:33Z</time>
      </trkpt>
      <trkpt lat="46.15958" lon="-1.33332">
        <ele>4.6</ele>
        <time>2020-05-31T21:31:34Z</time>
      </trkpt>
      <trkpt lat="46.15956" lon="-1.33341">
        <ele>4.6</ele>
        <time>2020-05-31T21:31:35Z</time>
      </trkpt>
      <trkpt lat="46.15954" lon="-1.33349">
        <ele>4.7</ele>
        <time>2020-05-31T21:31:36Z</time>
      </trkpt>
      <trkpt lat="46.15953" lon="-1.33357">
        <ele>4.7</ele>
        <time>2020-05-31T21:31:37Z</time>
      </trkpt>
      <trkpt lat="46.15952" lon="-1.33365">
        <ele>4.8</ele>
        <time>2020-05-31T21:31:38Z</time>
      </trkpt>
      <trkpt lat="46.15952" lon="-1.33371">
        <ele>4.8</ele>
        <time>2020-05-31T21:31:39Z</time>
      </trkpt>
      <trkpt lat="46.15951" lon="-1.33378">
        <ele>4.9</ele>
        <time>2020-05-31T21:31:40Z</time>
      </trkpt>
      <trkpt lat="46.15951" lon="-1.33386">
        <ele>5</ele>
        <time>2020-05-31T21:31:41Z</time>
      </trkpt>
      <trkpt lat="46.1595" lon="-1.33393">
        <ele>5.1</ele>
        <time>2020-05-31T21:31:42Z</time>
      </trkpt>
      <trkpt lat="46.15951" lon="-1.334">
        <ele>5.2</ele>
        <time>2020-05-31T21:31:43Z</time>
      </trkpt>
      <trkpt lat="46.15951" lon="-1.33407">
        <ele>5.3</ele>
        <time>2020-05-31T21:31:44Z</time>
      </trkpt>
      <trkpt lat="46.15951" lon="-1.33415">
        <ele>5.5</ele>
        <time>2020-05-31T21:31:45Z</time>
      </trkpt>
      <trkpt lat="46.15951" lon="-1.33423">
        <ele>5.6</ele>
        <time>2020-05-31T21:31:46Z</time>
      </trkpt>
      <trkpt lat="46.15951" lon="-1.3343">
        <ele>5.8</ele>
        <time>2020-05-31T21:31:47Z</time>
      </trkpt>
      <trkpt lat="46.15951" lon="-1.33437">
        <ele>5.9</ele>
        <time>2020-05-31T21:31:48Z</time>
      </trkpt>
      <trkpt lat="46.15951" lon="-1.33445">
        <ele>6</ele>
        <time>2020-05-31T21:31:49Z</time>
      </trkpt>
      <trkpt lat="46.15951" lon="-1.33452">
        <ele>6.1</ele>
        <time>2020-05-31T21:31:50Z</time>
      </trkpt>
      <trkpt lat="46.15952" lon="-1.33459">
        <ele>6.3</ele>
        <time>2020-05-31T21:31:51Z</time>
      </trkpt>
      <trkpt lat="46.15953" lon="-1.33466">
        <ele>6.4</ele>
        <time>2020-05-31T21:31:52Z</time>
      </trkpt>
      <trkpt lat="46.15954" lon="-1.33471">
        <ele>6.5</ele>
        <time>2020-05-31T21:31:53Z</time>
      </trkpt>
      <trkpt lat="46.15954" lon="-1.33477">
        <ele>6.6</ele>
        <time>2020-05-31T21:31:54Z</time>
      </trkpt>
      <trkpt lat="46.15955" lon="-1.33485">
        <ele>6.7</ele>
        <time>2020-05-31T21:31:55Z</time>
      </trkpt>
      <trkpt lat="46.15955" lon="-1.33492">
        <ele>6.8</ele>
        <time>2020-05-31T21:31:56Z</time>
      </trkpt>
      <trkpt lat="46.15955" lon="-1.33497">
        <ele>6.9</ele>
        <time>2020-05-31T21:31:57Z</time>
      </trkpt>
      <trkpt lat="46.15957" lon="-1.33504">
        <ele>7</ele>
        <time>2020-05-31T21:31:58Z</time>
      </trkpt>
      <trkpt lat="46.15957" lon="-1.33509">
        <ele>7.1</ele>
        <time>2020-05-31T21:31:59Z</time>
      </trkpt>
      <trkpt lat="46.15959" lon="-1.33517">
        <ele>7.2</ele>
        <time>2020-05-31T21:32:00Z</time>
      </trkpt>
      <trkpt lat="46.15959" lon="-1.33522">
        <ele>7.2</ele>
        <time>2020-05-31T21:32:01Z</time>
      </trkpt>
      <trkpt lat="46.1596" lon="-1.33529">
        <ele>7.3</ele>
        <time>2020-05-31T21:32:02Z</time>
      </trkpt>
      <trkpt lat="46.15961" lon="-1.33535">
        <ele>7.3</ele>
        <time>2020-05-31T21:32:03Z</time>
      </trkpt>
      <trkpt lat="46.15962" lon="-1.33542">
        <ele>7.3</ele>
        <time>2020-05-31T21:32:04Z</time>
      </trkpt>
      <trkpt lat="46.15962" lon="-1.33547">
        <ele>7.4</ele>
        <time>2020-05-31T21:32:05Z</time>
      </trkpt>
      <trkpt lat="46.15963" lon="-1.33553">
        <ele>7.4</ele>
        <time>2020-05-31T21:32:06Z</time>
      </trkpt>
      <trkpt lat="46.15964" lon="-1.3356">
        <ele>7.5</ele>
        <time>2020-05-31T21:32:07Z</time>
      </trkpt>
      <trkpt lat="46.15965" lon="-1.33568">
        <ele>7.6</ele>
        <time>2020-05-31T21:32:08Z</time>
      </trkpt>
      <trkpt lat="46.15965" lon="-1.33574">
        <ele>7.7</ele>
        <time>2020-05-31T21:32:09Z</time>
      </trkpt>
      <trkpt lat="46.15966" lon="-1.33579">
        <ele>7.7</ele>
        <time>2020-05-31T21:32:10Z</time>
      </trkpt>
      <trkpt lat="46.15967" lon="-1.33586">
        <ele>7.8</ele>
        <time>2020-05-31T21:32:11Z</time>
      </trkpt>
      <trkpt lat="46.15968" lon="-1.33592">
        <ele>7.9</ele>
        <time>2020-05-31T21:32:12Z</time>
      </trkpt>
      <trkpt lat="46.15968" lon="-1.33599">
        <ele>8</ele>
        <time>2020-05-31T21:32:13Z</time>
      </trkpt>
      <trkpt lat="46.1597" lon="-1.33606">
        <ele>8.1</ele>
        <time>2020-05-31T21:32:14Z</time>
      </trkpt>
      <trkpt lat="46.15971" lon="-1.33612">
        <ele>8.1</ele>
        <time>2020-05-31T21:32:15Z</time>
      </trkpt>
      <trkpt lat="46.15972" lon="-1.3362">
        <ele>8.1</ele>
        <time>2020-05-31T21:32:16Z</time>
      </trkpt>
      <trkpt lat="46.15973" lon="-1.33626">
        <ele>8.2</ele>
        <time>2020-05-31T21:32:17Z</time>
      </trkpt>
      <trkpt lat="46.15974" lon="-1.33634">
        <ele>8.2</ele>
        <time>2020-05-31T21:32:18Z</time>
      </trkpt>
      <trkpt lat="46.15975" lon="-1.33642">
        <ele>8.3</ele>
        <time>2020-05-31T21:32:19Z</time>
      </trkpt>
      <trkpt lat="46.15975" lon="-1.33648">
        <ele>8.3</ele>
        <time>2020-05-31T21:32:20Z</time>
      </trkpt>
      <trkpt lat="46.15976" lon="-1.33655">
        <ele>8.4</ele>
        <time>2020-05-31T21:32:21Z</time>
      </trkpt>
      <trkpt lat="46.15977" lon="-1.33662">
        <ele>8.4</ele>
        <time>2020-05-31T21:32:22Z</time>
      </trkpt>
      <trkpt lat="46.15978" lon="-1.3367">
        <ele>8.5</ele>
        <time>2020-05-31T21:32:23Z</time>
      </trkpt>
      <trkpt lat="46.15979" lon="-1.33677">
        <ele>8.5</ele>
        <time>2020-05-31T21:32:24Z</time>
      </trkpt>
      <trkpt lat="46.15979" lon="-1.33685">
        <ele>8.6</ele>
        <time>2020-05-31T21:32:25Z</time>
      </trkpt>
      <trkpt lat="46.1598" lon="-1.33692">
        <ele>8.6</ele>
        <time>2020-05-31T21:32:26Z</time>
      </trkpt>
      <trkpt lat="46.15982" lon="-1.33699">
        <ele>8.7</ele>
        <time>2020-05-31T21:32:27Z</time>
      </trkpt>
      <trkpt lat="46.15982" lon="-1.33705">
        <ele>8.7</ele>
        <time>2020-05-31T21:32:28Z</time>
      </trkpt>
      <trkpt lat="46.15983" lon="-1.33713">
        <ele>8.8</ele>
        <time>2020-05-31T21:32:29Z</time>
      </trkpt>
      <trkpt lat="46.15984" lon="-1.3372">
        <ele>8.8</ele>
        <time>2020-05-31T21:32:30Z</time>
      </trkpt>
      <trkpt lat="46.15985" lon="-1.33727">
        <ele>8.8</ele>
        <time>2020-05-31T21:32:31Z</time>
      </trkpt>
      <trkpt lat="46.15986" lon="-1.33734">
        <ele>8.8</ele>
        <time>2020-05-31T21:32:32Z</time>
      </trkpt>
      <trkpt lat="46.15988" lon="-1.33741">
        <ele>8.8</ele>
        <time>2020-05-31T21:32:33Z</time>
      </trkpt>
      <trkpt lat="46.15989" lon="-1.33748">
        <ele>8.9</ele>
        <time>2020-05-31T21:32:34Z</time>
      </trkpt>
      <trkpt lat="46.1599" lon="-1.33755">
        <ele>8.9</ele>
        <time>2020-05-31T21:32:35Z</time>
      </trkpt>
      <trkpt lat="46.15991" lon="-1.33762">
        <ele>8.9</ele>
        <time>2020-05-31T21:32:36Z</time>
      </trkpt>
      <trkpt lat="46.15992" lon="-1.33768">
        <ele>8.9</ele>
        <time>2020-05-31T21:32:37Z</time>
      </trkpt>
      <trkpt lat="46.15993" lon="-1.33775">
        <ele>8.9</ele>
        <time>2020-05-31T21:32:38Z</time>
      </trkpt>
      <trkpt lat="46.15994" lon="-1.33783">
        <ele>8.9</ele>
        <time>2020-05-31T21:32:39Z</time>
      </trkpt>
      <trkpt lat="46.15995" lon="-1.3379">
        <ele>8.9</ele>
        <time>2020-05-31T21:32:40Z</time>
      </trkpt>
      <trkpt lat="46.15996" lon="-1.33796">
        <ele>8.9</ele>
        <time>2020-05-31T21:32:41Z</time>
      </trkpt>
      <trkpt lat="46.15997" lon="-1.33803">
        <ele>8.9</ele>
        <time>2020-05-31T21:32:42Z</time>
      </trkpt>
      <trkpt lat="46.15998" lon="-1.33809">
        <ele>8.9</ele>
        <time>2020-05-31T21:32:43Z</time>
      </trkpt>
      <trkpt lat="46.15999" lon="-1.33816">
        <ele>9</ele>
        <time>2020-05-31T21:32:44Z</time>
      </trkpt>
      <trkpt lat="46.16" lon="-1.33824">
        <ele>9</ele>
        <time>2020-05-31T21:32:45Z</time>
      </trkpt>
      <trkpt lat="46.16001" lon="-1.33832">
        <ele>9.1</ele>
        <time>2020-05-31T21:32:46Z</time>
      </trkpt>
      <trkpt lat="46.16002" lon="-1.3384">
        <ele>9.1</ele>
        <time>2020-05-31T21:32:47Z</time>
      </trkpt>
      <trkpt lat="46.16003" lon="-1.33846">
        <ele>9.2</ele>
        <time>2020-05-31T21:32:48Z</time>
      </trkpt>
      <trkpt lat="46.16003" lon="-1.33853">
        <ele>9.3</ele>
        <time>2020-05-31T21:32:49Z</time>
      </trkpt>
      <trkpt lat="46.16004" lon="-1.3386">
        <ele>9.4</ele>
        <time>2020-05-31T21:32:50Z</time>
      </trkpt>
      <trkpt lat="46.16005" lon="-1.33868">
        <ele>9.5</ele>
        <time>2020-05-31T21:32:51Z</time>
      </trkpt>
      <trkpt lat="46.16006" lon="-1.33873">
        <ele>9.5</ele>
        <time>2020-05-31T21:32:52Z</time>
      </trkpt>
      <trkpt lat="46.16007" lon="-1.33878">
        <ele>9.5</ele>
        <time>2020-05-31T21:32:53Z</time>
      </trkpt>
      <trkpt lat="46.16007" lon="-1.33882">
        <ele>9.5</ele>
        <time>2020-05-31T21:32:54Z</time>
      </trkpt>
      <trkpt lat="46.16007" lon="-1.3389">
        <ele>9.5</ele>
        <time>2020-05-31T21:32:55Z</time>
      </trkpt>
      <trkpt lat="46.16008" lon="-1.33893">
        <ele>9.5</ele>
        <time>2020-05-31T21:32:56Z</time>
      </trkpt>
      <trkpt lat="46.16009" lon="-1.33899">
        <ele>9.5</ele>
        <time>2020-05-31T21:32:57Z</time>
      </trkpt>
      <trkpt lat="46.1601" lon="-1.33905">
        <ele>9.5</ele>
        <time>2020-05-31T21:32:58Z</time>
      </trkpt>
      <trkpt lat="46.16011" lon="-1.33914">
        <ele>9.5</ele>
        <time>2020-05-31T21:32:59Z</time>
      </trkpt>
      <trkpt lat="46.16012" lon="-1.33921">
        <ele>9.5</ele>
        <time>2020-05-31T21:33:00Z</time>
      </trkpt>
      <trkpt lat="46.16013" lon="-1.33928">
        <ele>9.5</ele>
        <time>2020-05-31T21:33:01Z</time>
      </trkpt>
      <trkpt lat="46.16014" lon="-1.33937">
        <ele>9.5</ele>
        <time>2020-05-31T21:33:02Z</time>
      </trkpt>
      <trkpt lat="46.16014" lon="-1.33944">
        <ele>9.5</ele>
        <time>2020-05-31T21:33:03Z</time>
      </trkpt>
      <trkpt lat="46.16015" lon="-1.33951">
        <ele>9.5</ele>
        <time>2020-05-31T21:33:04Z</time>
      </trkpt>
      <trkpt lat="46.16015" lon="-1.33958">
        <ele>9.5</ele>
        <time>2020-05-31T21:33:05Z</time>
      </trkpt>
      <trkpt lat="46.16016" lon="-1.33966">
        <ele>9.6</ele>
        <time>2020-05-31T21:33:06Z</time>
      </trkpt>
      <trkpt lat="46.16017" lon="-1.33973">
        <ele>9.6</ele>
        <time>2020-05-31T21:33:07Z</time>
      </trkpt>
      <trkpt lat="46.16018" lon="-1.3398">
        <ele>9.6</ele>
        <time>2020-05-31T21:33:08Z</time>
      </trkpt>
      <trkpt lat="46.1602" lon="-1.33987">
        <ele>9.7</ele>
        <time>2020-05-31T21:33:09Z</time>
      </trkpt>
      <trkpt lat="46.1602" lon="-1.33994">
        <ele>9.7</ele>
        <time>2020-05-31T21:33:10Z</time>
      </trkpt>
      <trkpt lat="46.16021" lon="-1.34">
        <ele>9.8</ele>
        <time>2020-05-31T21:33:11Z</time>
      </trkpt>
      <trkpt lat="46.16022" lon="-1.34007">
        <ele>9.8</ele>
        <time>2020-05-31T21:33:12Z</time>
      </trkpt>
      <trkpt lat="46.16023" lon="-1.34015">
        <ele>9.9</ele>
        <time>2020-05-31T21:33:13Z</time>
      </trkpt>
      <trkpt lat="46.16024" lon="-1.34021">
        <ele>9.9</ele>
        <time>2020-05-31T21:33:14Z</time>
      </trkpt>
      <trkpt lat="46.16024" lon="-1.34028">
        <ele>9.9</ele>
        <time>2020-05-31T21:33:15Z</time>
      </trkpt>
      <trkpt lat="46.16025" lon="-1.34035">
        <ele>9.9</ele>
        <time>2020-05-31T21:33:16Z</time>
      </trkpt>
      <trkpt lat="46.16026" lon="-1.34042">
        <ele>9.9</ele>
        <time>2020-05-31T21:33:17Z</time>
      </trkpt>
      <trkpt lat="46.16027" lon="-1.3405">
        <ele>9.9</ele>
        <time>2020-05-31T21:33:18Z</time>
      </trkpt>
      <trkpt lat="46.16028" lon="-1.34058">
        <ele>10</ele>
        <time>2020-05-31T21:33:19Z</time>
      </trkpt>
      <trkpt lat="46.16029" lon="-1.34065">
        <ele>10</ele>
        <time>2020-05-31T21:33:20Z</time>
      </trkpt>
      <trkpt lat="46.1603" lon="-1.34072">
        <ele>10</ele>
        <time>2020-05-31T21:33:21Z</time>
      </trkpt>
      <trkpt lat="46.16031" lon="-1.34079">
        <ele>10</ele>
        <time>2020-05-31T21:33:22Z</time>
      </trkpt>
      <trkpt lat="46.16032" lon="-1.34086">
        <ele>10</ele>
        <time>2020-05-31T21:33:23Z</time>
      </trkpt>
      <trkpt lat="46.16033" lon="-1.34094">
        <ele>10</ele>
        <time>2020-05-31T21:33:24Z</time>
      </trkpt>
      <trkpt lat="46.16034" lon="-1.34102">
        <ele>10</ele>
        <time>2020-05-31T21:33:25Z</time>
      </trkpt>
      <trkpt lat="46.16035" lon="-1.34109">
        <ele>10</ele>
        <time>2020-05-31T21:33:26Z</time>
      </trkpt>
      <trkpt lat="46.16035" lon="-1.34117">
        <ele>10</ele>
        <time>2020-05-31T21:33:27Z</time>
      </trkpt>
      <trkpt lat="46.16036" lon="-1.34124">
        <ele>10.1</ele>
        <time>2020-05-31T21:33:28Z</time>
      </trkpt>
      <trkpt lat="46.16038" lon="-1.34131">
        <ele>10.1</ele>
        <time>2020-05-31T21:33:29Z</time>
      </trkpt>
      <trkpt lat="46.16039" lon="-1.34138">
        <ele>10.1</ele>
        <time>2020-05-31T21:33:30Z</time>
      </trkpt>
      <trkpt lat="46.16041" lon="-1.34146">
        <ele>10.1</ele>
        <time>2020-05-31T21:33:31Z</time>
      </trkpt>
      <trkpt lat="46.16043" lon="-1.34154">
        <ele>10.1</ele>
        <time>2020-05-31T21:33:32Z</time>
      </trkpt>
      <trkpt lat="46.16045" lon="-1.3416">
        <ele>10.2</ele>
        <time>2020-05-31T21:33:33Z</time>
      </trkpt>
      <trkpt lat="46.16046" lon="-1.34167">
        <ele>10.2</ele>
        <time>2020-05-31T21:33:34Z</time>
      </trkpt>
      <trkpt lat="46.16048" lon="-1.34175">
        <ele>10.2</ele>
        <time>2020-05-31T21:33:35Z</time>
      </trkpt>
      <trkpt lat="46.16049" lon="-1.34183">
        <ele>10.2</ele>
        <time>2020-05-31T21:33:36Z</time>
      </trkpt>
      <trkpt lat="46.16051" lon="-1.3419">
        <ele>10.2</ele>
        <time>2020-05-31T21:33:37Z</time>
      </trkpt>
      <trkpt lat="46.16054" lon="-1.34197">
        <ele>10.3</ele>
        <time>2020-05-31T21:33:38Z</time>
      </trkpt>
      <trkpt lat="46.16057" lon="-1.34205">
        <ele>10.3</ele>
        <time>2020-05-31T21:33:39Z</time>
      </trkpt>
      <trkpt lat="46.16059" lon="-1.34212">
        <ele>10.3</ele>
        <time>2020-05-31T21:33:40Z</time>
      </trkpt>
      <trkpt lat="46.16062" lon="-1.3422">
        <ele>10.3</ele>
        <time>2020-05-31T21:33:41Z</time>
      </trkpt>
      <trkpt lat="46.16065" lon="-1.34227">
        <ele>10.3</ele>
        <time>2020-05-31T21:33:42Z</time>
      </trkpt>
      <trkpt lat="46.16067" lon="-1.34233">
        <ele>10.3</ele>
        <time>2020-05-31T21:33:43Z</time>
      </trkpt>
      <trkpt lat="46.1607" lon="-1.3424">
        <ele>10.3</ele>
        <time>2020-05-31T21:33:44Z</time>
      </trkpt>
      <trkpt lat="46.16073" lon="-1.34247">
        <ele>10.3</ele>
        <time>2020-05-31T21:33:45Z</time>
      </trkpt>
      <trkpt lat="46.16076" lon="-1.34254">
        <ele>10.3</ele>
        <time>2020-05-31T21:33:46Z</time>
      </trkpt>
      <trkpt lat="46.16078" lon="-1.34259">
        <ele>10.3</ele>
        <time>2020-05-31T21:33:47Z</time>
      </trkpt>
      <trkpt lat="46.16081" lon="-1.34266">
        <ele>10.3</ele>
        <time>2020-05-31T21:33:48Z</time>
      </trkpt>
      <trkpt lat="46.16083" lon="-1.34274">
        <ele>10.3</ele>
        <time>2020-05-31T21:33:49Z</time>
      </trkpt>
      <trkpt lat="46.16086" lon="-1.34282">
        <ele>10.3</ele>
        <time>2020-05-31T21:33:50Z</time>
      </trkpt>
      <trkpt lat="46.16089" lon="-1.34289">
        <ele>10.3</ele>
        <time>2020-05-31T21:33:51Z</time>
      </trkpt>
      <trkpt lat="46.16092" lon="-1.34295">
        <ele>10.3</ele>
        <time>2020-05-31T21:33:52Z</time>
      </trkpt>
      <trkpt lat="46.16095" lon="-1.34301">
        <ele>10.3</ele>
        <time>2020-05-31T21:33:53Z</time>
      </trkpt>
      <trkpt lat="46.16098" lon="-1.34306">
        <ele>10.3</ele>
        <time>2020-05-31T21:33:54Z</time>
      </trkpt>
      <trkpt lat="46.16101" lon="-1.34311">
        <ele>10.3</ele>
        <time>2020-05-31T21:33:55Z</time>
      </trkpt>
      <trkpt lat="46.16105" lon="-1.34319">
        <ele>10.3</ele>
        <time>2020-05-31T21:33:56Z</time>
      </trkpt>
      <trkpt lat="46.16107" lon="-1.34325">
        <ele>10.4</ele>
        <time>2020-05-31T21:33:57Z</time>
      </trkpt>
      <trkpt lat="46.16109" lon="-1.34332">
        <ele>10.4</ele>
        <time>2020-05-31T21:33:58Z</time>
      </trkpt>
      <trkpt lat="46.16112" lon="-1.34338">
        <ele>10.5</ele>
        <time>2020-05-31T21:33:59Z</time>
      </trkpt>
      <trkpt lat="46.16113" lon="-1.34345">
        <ele>10.6</ele>
        <time>2020-05-31T21:34:00Z</time>
      </trkpt>
      <trkpt lat="46.16115" lon="-1.3435">
        <ele>10.6</ele>
        <time>2020-05-31T21:34:01Z</time>
      </trkpt>
      <trkpt lat="46.16117" lon="-1.34355">
        <ele>10.6</ele>
        <time>2020-05-31T21:34:02Z</time>
      </trkpt>
      <trkpt lat="46.16118" lon="-1.34362">
        <ele>10.6</ele>
        <time>2020-05-31T21:34:03Z</time>
      </trkpt>
      <trkpt lat="46.16119" lon="-1.3437">
        <ele>10.6</ele>
        <time>2020-05-31T21:34:04Z</time>
      </trkpt>
      <trkpt lat="46.1612" lon="-1.34378">
        <ele>10.6</ele>
        <time>2020-05-31T21:34:05Z</time>
      </trkpt>
      <trkpt lat="46.16121" lon="-1.34384">
        <ele>10.6</ele>
        <time>2020-05-31T21:34:06Z</time>
      </trkpt>
      <trkpt lat="46.16121" lon="-1.34392">
        <ele>10.6</ele>
        <time>2020-05-31T21:34:07Z</time>
      </trkpt>
      <trkpt lat="46.16123" lon="-1.344">
        <ele>10.6</ele>
        <time>2020-05-31T21:34:08Z</time>
      </trkpt>
      <trkpt lat="46.16123" lon="-1.34406">
        <ele>10.6</ele>
        <time>2020-05-31T21:34:09Z</time>
      </trkpt>
      <trkpt lat="46.16125" lon="-1.34413">
        <ele>10.6</ele>
        <time>2020-05-31T21:34:10Z</time>
      </trkpt>
      <trkpt lat="46.16127" lon="-1.34417">
        <ele>10.6</ele>
        <time>2020-05-31T21:34:11Z</time>
      </trkpt>
      <trkpt lat="46.16129" lon="-1.34425">
        <ele>10.6</ele>
        <time>2020-05-31T21:34:12Z</time>
      </trkpt>
      <trkpt lat="46.16132" lon="-1.34432">
        <ele>10.6</ele>
        <time>2020-05-31T21:34:13Z</time>
      </trkpt>
      <trkpt lat="46.16134" lon="-1.34439">
        <ele>10.6</ele>
        <time>2020-05-31T21:34:14Z</time>
      </trkpt>
      <trkpt lat="46.16135" lon="-1.34445">
        <ele>10.6</ele>
        <time>2020-05-31T21:34:15Z</time>
      </trkpt>
      <trkpt lat="46.16138" lon="-1.34452">
        <ele>10.6</ele>
        <time>2020-05-31T21:34:16Z</time>
      </trkpt>
      <trkpt lat="46.1614" lon="-1.3446">
        <ele>10.6</ele>
        <time>2020-05-31T21:34:17Z</time>
      </trkpt>
      <trkpt lat="46.16143" lon="-1.34468">
        <ele>10.7</ele>
        <time>2020-05-31T21:34:18Z</time>
      </trkpt>
      <trkpt lat="46.16146" lon="-1.34474">
        <ele>10.7</ele>
        <time>2020-05-31T21:34:19Z</time>
      </trkpt>
      <trkpt lat="46.16148" lon="-1.34481">
        <ele>10.7</ele>
        <time>2020-05-31T21:34:20Z</time>
      </trkpt>
      <trkpt lat="46.16149" lon="-1.34486">
        <ele>10.7</ele>
        <time>2020-05-31T21:34:21Z</time>
      </trkpt>
      <trkpt lat="46.1615" lon="-1.34492">
        <ele>10.7</ele>
        <time>2020-05-31T21:34:22Z</time>
      </trkpt>
      <trkpt lat="46.16152" lon="-1.34499">
        <ele>10.7</ele>
        <time>2020-05-31T21:34:23Z</time>
      </trkpt>
      <trkpt lat="46.16154" lon="-1.34507">
        <ele>10.7</ele>
        <time>2020-05-31T21:34:24Z</time>
      </trkpt>
      <trkpt lat="46.16157" lon="-1.34515">
        <ele>10.7</ele>
        <time>2020-05-31T21:34:25Z</time>
      </trkpt>
      <trkpt lat="46.16159" lon="-1.34522">
        <ele>10.7</ele>
        <time>2020-05-31T21:34:26Z</time>
      </trkpt>
      <trkpt lat="46.1616" lon="-1.34529">
        <ele>10.7</ele>
        <time>2020-05-31T21:34:27Z</time>
      </trkpt>
      <trkpt lat="46.16162" lon="-1.34536">
        <ele>10.7</ele>
        <time>2020-05-31T21:34:28Z</time>
      </trkpt>
      <trkpt lat="46.16164" lon="-1.34542">
        <ele>10.7</ele>
        <time>2020-05-31T21:34:29Z</time>
      </trkpt>
      <trkpt lat="46.16166" lon="-1.34549">
        <ele>10.7</ele>
        <time>2020-05-31T21:34:30Z</time>
      </trkpt>
      <trkpt lat="46.16167" lon="-1.34554">
        <ele>10.7</ele>
        <time>2020-05-31T21:34:31Z</time>
      </trkpt>
      <trkpt lat="46.1617" lon="-1.34561">
        <ele>10.7</ele>
        <time>2020-05-31T21:34:32Z</time>
      </trkpt>
      <trkpt lat="46.16171" lon="-1.34568">
        <ele>10.6</ele>
        <time>2020-05-31T21:34:33Z</time>
      </trkpt>
      <trkpt lat="46.16172" lon="-1.34573">
        <ele>10.6</ele>
        <time>2020-05-31T21:34:34Z</time>
      </trkpt>
      <trkpt lat="46.16174" lon="-1.3458">
        <ele>10.6</ele>
        <time>2020-05-31T21:34:35Z</time>
      </trkpt>
      <trkpt lat="46.16176" lon="-1.34588">
        <ele>10.6</ele>
        <time>2020-05-31T21:34:36Z</time>
      </trkpt>
      <trkpt lat="46.16177" lon="-1.34594">
        <ele>10.6</ele>
        <time>2020-05-31T21:34:37Z</time>
      </trkpt>
      <trkpt lat="46.16179" lon="-1.34602">
        <ele>10.6</ele>
        <time>2020-05-31T21:34:38Z</time>
      </trkpt>
      <trkpt lat="46.16181" lon="-1.34607">
        <ele>10.6</ele>
        <time>2020-05-31T21:34:39Z</time>
      </trkpt>
      <trkpt lat="46.16183" lon="-1.34613">
        <ele>10.6</ele>
        <time>2020-05-31T21:34:40Z</time>
      </trkpt>
      <trkpt lat="46.16185" lon="-1.3462">
        <ele>10.6</ele>
        <time>2020-05-31T21:34:41Z</time>
      </trkpt>
      <trkpt lat="46.16187" lon="-1.34627">
        <ele>10.6</ele>
        <time>2020-05-31T21:34:42Z</time>
      </trkpt>
      <trkpt lat="46.16189" lon="-1.34633">
        <ele>10.6</ele>
        <time>2020-05-31T21:34:43Z</time>
      </trkpt>
      <trkpt lat="46.1619" lon="-1.34638">
        <ele>10.6</ele>
        <time>2020-05-31T21:34:44Z</time>
      </trkpt>
      <trkpt lat="46.16195" lon="-1.34645">
        <ele>10.5</ele>
        <time>2020-05-31T21:34:45Z</time>
      </trkpt>
      <trkpt lat="46.16198" lon="-1.34648">
        <ele>10.5</ele>
        <time>2020-05-31T21:34:46Z</time>
      </trkpt>
      <trkpt lat="46.16202" lon="-1.34653">
        <ele>10.5</ele>
        <time>2020-05-31T21:34:47Z</time>
      </trkpt>
      <trkpt lat="46.16205" lon="-1.34659">
        <ele>10.5</ele>
        <time>2020-05-31T21:34:48Z</time>
      </trkpt>
      <trkpt lat="46.16209" lon="-1.34663">
        <ele>10.6</ele>
        <time>2020-05-31T21:34:49Z</time>
      </trkpt>
      <trkpt lat="46.16212" lon="-1.34667">
        <ele>10.6</ele>
        <time>2020-05-31T21:34:50Z</time>
      </trkpt>
      <trkpt lat="46.16215" lon="-1.34671">
        <ele>10.6</ele>
        <time>2020-05-31T21:34:51Z</time>
      </trkpt>
      <trkpt lat="46.16219" lon="-1.34675">
        <ele>10.7</ele>
        <time>2020-05-31T21:34:52Z</time>
      </trkpt>
      <trkpt lat="46.16223" lon="-1.34679">
        <ele>10.8</ele>
        <time>2020-05-31T21:34:53Z</time>
      </trkpt>
      <trkpt lat="46.16227" lon="-1.34683">
        <ele>11</ele>
        <time>2020-05-31T21:34:54Z</time>
      </trkpt>
      <trkpt lat="46.16229" lon="-1.34687">
        <ele>11</ele>
        <time>2020-05-31T21:34:55Z</time>
      </trkpt>
      <trkpt lat="46.16232" lon="-1.34691">
        <ele>11.1</ele>
        <time>2020-05-31T21:34:56Z</time>
      </trkpt>
      <trkpt lat="46.16234" lon="-1.34692">
        <ele>11.2</ele>
        <time>2020-05-31T21:34:57Z</time>
      </trkpt>
      <trkpt lat="46.16237" lon="-1.34696">
        <ele>11.3</ele>
        <time>2020-05-31T21:34:58Z</time>
      </trkpt>
      <trkpt lat="46.1624" lon="-1.347">
        <ele>11.3</ele>
        <time>2020-05-31T21:34:59Z</time>
      </trkpt>
      <trkpt lat="46.16243" lon="-1.34704">
        <ele>11.3</ele>
        <time>2020-05-31T21:35:00Z</time>
      </trkpt>
      <trkpt lat="46.16247" lon="-1.3471">
        <ele>11.3</ele>
        <time>2020-05-31T21:35:01Z</time>
      </trkpt>
      <trkpt lat="46.1625" lon="-1.34715">
        <ele>11.3</ele>
        <time>2020-05-31T21:35:02Z</time>
      </trkpt>
      <trkpt lat="46.16253" lon="-1.34722">
        <ele>11.4</ele>
        <time>2020-05-31T21:35:03Z</time>
      </trkpt>
      <trkpt lat="46.16255" lon="-1.34727">
        <ele>11.4</ele>
        <time>2020-05-31T21:35:04Z</time>
      </trkpt>
      <trkpt lat="46.16257" lon="-1.34735">
        <ele>11.4</ele>
        <time>2020-05-31T21:35:05Z</time>
      </trkpt>
      <trkpt lat="46.16258" lon="-1.3474">
        <ele>11.5</ele>
        <time>2020-05-31T21:35:06Z</time>
      </trkpt>
      <trkpt lat="46.16258" lon="-1.34747">
        <ele>11.5</ele>
        <time>2020-05-31T21:35:07Z</time>
      </trkpt>
      <trkpt lat="46.16259" lon="-1.34752">
        <ele>11.5</ele>
        <time>2020-05-31T21:35:08Z</time>
      </trkpt>
      <trkpt lat="46.16259" lon="-1.34757">
        <ele>11.6</ele>
        <time>2020-05-31T21:35:09Z</time>
      </trkpt>
      <trkpt lat="46.16259" lon="-1.34761">
        <ele>11.6</ele>
        <time>2020-05-31T21:35:10Z</time>
      </trkpt>
      <trkpt lat="46.1626" lon="-1.34768">
        <ele>11.6</ele>
        <time>2020-05-31T21:35:11Z</time>
      </trkpt>
      <trkpt lat="46.16261" lon="-1.34774">
        <ele>11.6</ele>
        <time>2020-05-31T21:35:12Z</time>
      </trkpt>
      <trkpt lat="46.16261" lon="-1.3478">
        <ele>11.7</ele>
        <time>2020-05-31T21:35:13Z</time>
      </trkpt>
      <trkpt lat="46.16263" lon="-1.34789">
        <ele>11.7</ele>
        <time>2020-05-31T21:35:14Z</time>
      </trkpt>
      <trkpt lat="46.16263" lon="-1.34795">
        <ele>11.7</ele>
        <time>2020-05-31T21:35:15Z</time>
      </trkpt>
      <trkpt lat="46.16265" lon="-1.34801">
        <ele>11.7</ele>
        <time>2020-05-31T21:35:16Z</time>
      </trkpt>
      <trkpt lat="46.16266" lon="-1.34805">
        <ele>11.7</ele>
        <time>2020-05-31T21:35:17Z</time>
      </trkpt>
      <trkpt lat="46.16266" lon="-1.34811">
        <ele>11.7</ele>
        <time>2020-05-31T21:35:18Z</time>
      </trkpt>
      <trkpt lat="46.16267" lon="-1.34817">
        <ele>11.7</ele>
        <time>2020-05-31T21:35:19Z</time>
      </trkpt>
      <trkpt lat="46.16268" lon="-1.34822">
        <ele>11.7</ele>
        <time>2020-05-31T21:35:20Z</time>
      </trkpt>
      <trkpt lat="46.1627" lon="-1.34826">
        <ele>11.7</ele>
        <time>2020-05-31T21:35:21Z</time>
      </trkpt>
      <trkpt lat="46.16273" lon="-1.3483">
        <ele>11.7</ele>
        <time>2020-05-31T21:35:22Z</time>
      </trkpt>
      <trkpt lat="46.16274" lon="-1.34833">
        <ele>11.7</ele>
        <time>2020-05-31T21:35:23Z</time>
      </trkpt>
      <trkpt lat="46.16276" lon="-1.34837">
        <ele>11.7</ele>
        <time>2020-05-31T21:35:24Z</time>
      </trkpt>
      <trkpt lat="46.16278" lon="-1.34841">
        <ele>11.7</ele>
        <time>2020-05-31T21:35:25Z</time>
      </trkpt>
      <trkpt lat="46.16279" lon="-1.34843">
        <ele>11.7</ele>
        <time>2020-05-31T21:35:26Z</time>
      </trkpt>
      <trkpt lat="46.16282" lon="-1.34847">
        <ele>11.7</ele>
        <time>2020-05-31T21:35:27Z</time>
      </trkpt>
      <trkpt lat="46.16285" lon="-1.34852">
        <ele>11.7</ele>
        <time>2020-05-31T21:35:28Z</time>
      </trkpt>
      <trkpt lat="46.16288" lon="-1.34855">
        <ele>11.7</ele>
        <time>2020-05-31T21:35:29Z</time>
      </trkpt>
      <trkpt lat="46.1629" lon="-1.34859">
        <ele>11.7</ele>
        <time>2020-05-31T21:35:30Z</time>
      </trkpt>
      <trkpt lat="46.16293" lon="-1.34864">
        <ele>11.7</ele>
        <time>2020-05-31T21:35:31Z</time>
      </trkpt>
      <trkpt lat="46.16294" lon="-1.34865">
        <ele>11.8</ele>
        <time>2020-05-31T21:35:32Z</time>
      </trkpt>
      <trkpt lat="46.16295" lon="-1.34866">
        <ele>11.7</ele>
        <time>2020-05-31T21:35:33Z</time>
      </trkpt>
      <trkpt lat="46.16297" lon="-1.34867">
        <ele>11.7</ele>
        <time>2020-05-31T21:35:34Z</time>
      </trkpt>
      <trkpt lat="46.16297" lon="-1.34868">
        <ele>11.7</ele>
        <time>2020-05-31T21:35:35Z</time>
      </trkpt>
      <trkpt lat="46.16298" lon="-1.34868">
        <ele>11.7</ele>
        <time>2020-05-31T21:35:36Z</time>
      </trkpt>
      <trkpt lat="46.16299" lon="-1.34865">
        <ele>11.7</ele>
        <time>2020-05-31T21:35:37Z</time>
      </trkpt>
      <trkpt lat="46.16298" lon="-1.34865">
        <ele>11.7</ele>
        <time>2020-05-31T21:35:38Z</time>
      </trkpt>
      <trkpt lat="46.16298" lon="-1.34867">
        <ele>11.7</ele>
        <time>2020-05-31T21:35:39Z</time>
      </trkpt>
      <trkpt lat="46.16298" lon="-1.34868">
        <ele>11.7</ele>
        <time>2020-05-31T21:35:40Z</time>
      </trkpt>
      <trkpt lat="46.16297" lon="-1.34869">
        <ele>11.7</ele>
        <time>2020-05-31T21:35:41Z</time>
      </trkpt>
      <trkpt lat="46.16297" lon="-1.34869">
        <ele>11.7</ele>
        <time>2020-05-31T21:35:42Z</time>
      </trkpt>
      <trkpt lat="46.16298" lon="-1.34868">
        <ele>11.7</ele>
        <time>2020-05-31T21:35:43Z</time>
      </trkpt>
      <trkpt lat="46.16297" lon="-1.34868">
        <ele>11.7</ele>
        <time>2020-05-31T21:35:44Z</time>
      </trkpt>
      <trkpt lat="46.16297" lon="-1.34867">
        <ele>11.7</ele>
        <time>2020-05-31T21:35:45Z</time>
      </trkpt>
      <trkpt lat="46.16297" lon="-1.34867">
        <ele>11.7</ele>
        <time>2020-05-31T21:35:46Z</time>
      </trkpt>
      <trkpt lat="46.16297" lon="-1.34867">
        <ele>11.7</ele>
        <time>2020-05-31T21:35:47Z</time>
      </trkpt>
      <trkpt lat="46.16296" lon="-1.34867">
        <ele>11.7</ele>
        <time>2020-05-31T21:35:48Z</time>
      </trkpt>
      <trkpt lat="46.16297" lon="-1.34866">
        <ele>11.7</ele>
        <time>2020-05-31T21:35:49Z</time>
      </trkpt>
      <trkpt lat="46.16297" lon="-1.34865">
        <ele>11.7</ele>
        <time>2020-05-31T21:35:50Z</time>
      </trkpt>
      <trkpt lat="46.16297" lon="-1.34864">
        <ele>11.7</ele>
        <time>2020-05-31T21:35:51Z</time>
      </trkpt>
      <trkpt lat="46.16297" lon="-1.34864">
        <ele>11.7</ele>
        <time>2020-05-31T21:35:52Z</time>
      </trkpt>
      <trkpt lat="46.16297" lon="-1.34863">
        <ele>11.7</ele>
        <time>2020-05-31T21:35:53Z</time>
      </trkpt>
      <trkpt lat="46.16298" lon="-1.34863">
        <ele>11.7</ele>
        <time>2020-05-31T21:35:54Z</time>
      </trkpt>
      <trkpt lat="46.16298" lon="-1.34863">
        <ele>11.7</ele>
        <time>2020-05-31T21:35:55Z</time>
      </trkpt>
      <trkpt lat="46.16297" lon="-1.34863">
        <ele>11.7</ele>
        <time>2020-05-31T21:35:56Z</time>
      </trkpt>
      <trkpt lat="46.16296" lon="-1.34863">
        <ele>11.7</ele>
        <time>2020-05-31T21:35:57Z</time>
      </trkpt>
      <trkpt lat="46.16297" lon="-1.34863">
        <ele>11.7</ele>
        <time>2020-05-31T21:35:58Z</time>
      </trkpt>
      <trkpt lat="46.16298" lon="-1.34861">
        <ele>11.7</ele>
        <time>2020-05-31T21:35:59Z</time>
      </trkpt>
      <trkpt lat="46.16298" lon="-1.34861">
        <ele>11.7</ele>
        <time>2020-05-31T21:36:00Z</time>
      </trkpt>
      <trkpt lat="46.16298" lon="-1.34861">
        <ele>11.7</ele>
        <time>2020-05-31T21:36:01Z</time>
      </trkpt>
      <trkpt lat="46.16299" lon="-1.34861">
        <ele>11.7</ele>
        <time>2020-05-31T21:36:02Z</time>
      </trkpt>
      <trkpt lat="46.16299" lon="-1.3486">
        <ele>11.7</ele>
        <time>2020-05-31T21:36:03Z</time>
      </trkpt>
      <trkpt lat="46.16298" lon="-1.34862">
        <ele>11.7</ele>
        <time>2020-05-31T21:36:04Z</time>
      </trkpt>
      <trkpt lat="46.16297" lon="-1.34863">
        <ele>11.7</ele>
        <time>2020-05-31T21:36:05Z</time>
      </trkpt>
      <trkpt lat="46.16297" lon="-1.34864">
        <ele>11.7</ele>
        <time>2020-05-31T21:36:06Z</time>
      </trkpt>
      <trkpt lat="46.16298" lon="-1.34864">
        <ele>11.7</ele>
        <time>2020-05-31T21:36:07Z</time>
      </trkpt>
      <trkpt lat="46.16297" lon="-1.34865">
        <ele>11.7</ele>
        <time>2020-05-31T21:36:08Z</time>
      </trkpt>
      <trkpt lat="46.16297" lon="-1.34866">
        <ele>11.7</ele>
        <time>2020-05-31T21:36:09Z</time>
      </trkpt>
      <trkpt lat="46.16298" lon="-1.34865">
        <ele>11.7</ele>
        <time>2020-05-31T21:36:10Z</time>
      </trkpt>
      <trkpt lat="46.16298" lon="-1.34866">
        <ele>11.7</ele>
        <time>2020-05-31T21:36:11Z</time>
      </trkpt>
      <trkpt lat="46.16297" lon="-1.34867">
        <ele>11.7</ele>
        <time>2020-05-31T21:36:12Z</time>
      </trkpt>
      <trkpt lat="46.16297" lon="-1.34868">
        <ele>11.7</ele>
        <time>2020-05-31T21:36:13Z</time>
      </trkpt>
      <trkpt lat="46.16297" lon="-1.34868">
        <ele>11.7</ele>
        <time>2020-05-31T21:36:14Z</time>
      </trkpt>
      <trkpt lat="46.16297" lon="-1.34868">
        <ele>11.7</ele>
        <time>2020-05-31T21:36:15Z</time>
      </trkpt>
      <trkpt lat="46.16297" lon="-1.34868">
        <ele>11.7</ele>
        <time>2020-05-31T21:36:16Z</time>
      </trkpt>
      <trkpt lat="46.16297" lon="-1.34869">
        <ele>11.7</ele>
        <time>2020-05-31T21:36:17Z</time>
      </trkpt>
      <trkpt lat="46.16297" lon="-1.34868">
        <ele>11.7</ele>
        <time>2020-05-31T21:36:18Z</time>
      </trkpt>
      <trkpt lat="46.16296" lon="-1.3487">
        <ele>11.7</ele>
        <time>2020-05-31T21:36:19Z</time>
      </trkpt>
      <trkpt lat="46.16295" lon="-1.34871">
        <ele>11.7</ele>
        <time>2020-05-31T21:36:20Z</time>
      </trkpt>
      <trkpt lat="46.16296" lon="-1.3487">
        <ele>11.7</ele>
        <time>2020-05-31T21:36:21Z</time>
      </trkpt>
      <trkpt lat="46.16296" lon="-1.34869">
        <ele>11.7</ele>
        <time>2020-05-31T21:36:22Z</time>
      </trkpt>
      <trkpt lat="46.16296" lon="-1.34869">
        <ele>11.7</ele>
        <time>2020-05-31T21:36:23Z</time>
      </trkpt>
      <trkpt lat="46.16296" lon="-1.34869">
        <ele>11.7</ele>
        <time>2020-05-31T21:36:24Z</time>
      </trkpt>
      <trkpt lat="46.16297" lon="-1.34869">
        <ele>11.7</ele>
        <time>2020-05-31T21:36:25Z</time>
      </trkpt>
      <trkpt lat="46.16297" lon="-1.34868">
        <ele>11.7</ele>
        <time>2020-05-31T21:36:26Z</time>
      </trkpt>
      <trkpt lat="46.16298" lon="-1.34867">
        <ele>11.7</ele>
        <time>2020-05-31T21:36:27Z</time>
      </trkpt>
      <trkpt lat="46.16298" lon="-1.34867">
        <ele>11.7</ele>
        <time>2020-05-31T21:36:28Z</time>
      </trkpt>
      <trkpt lat="46.16298" lon="-1.34866">
        <ele>11.7</ele>
        <time>2020-05-31T21:36:29Z</time>
      </trkpt>
      <trkpt lat="46.16298" lon="-1.34867">
        <ele>11.7</ele>
        <time>2020-05-31T21:36:30Z</time>
      </trkpt>
      <trkpt lat="46.16299" lon="-1.34866">
        <ele>11.7</ele>
        <time>2020-05-31T21:36:31Z</time>
      </trkpt>
      <trkpt lat="46.16299" lon="-1.34865">
        <ele>11.7</ele>
        <time>2020-05-31T21:36:32Z</time>
      </trkpt>
      <trkpt lat="46.163" lon="-1.34865">
        <ele>11.7</ele>
        <time>2020-05-31T21:36:33Z</time>
      </trkpt>
      <trkpt lat="46.163" lon="-1.34865">
        <ele>11.7</ele>
        <time>2020-05-31T21:36:34Z</time>
      </trkpt>
      <trkpt lat="46.163" lon="-1.34865">
        <ele>11.7</ele>
        <time>2020-05-31T21:36:35Z</time>
      </trkpt>
      <trkpt lat="46.16299" lon="-1.34867">
        <ele>11.7</ele>
        <time>2020-05-31T21:36:36Z</time>
      </trkpt>
      <trkpt lat="46.16299" lon="-1.34867">
        <ele>11.7</ele>
        <time>2020-05-31T21:36:37Z</time>
      </trkpt>
      <trkpt lat="46.16299" lon="-1.34867">
        <ele>11.7</ele>
        <time>2020-05-31T21:36:38Z</time>
      </trkpt>
      <trkpt lat="46.16299" lon="-1.34867">
        <ele>11.7</ele>
        <time>2020-05-31T21:36:39Z</time>
      </trkpt>
      <trkpt lat="46.163" lon="-1.34867">
        <ele>11.7</ele>
        <time>2020-05-31T21:36:40Z</time>
      </trkpt>
      <trkpt lat="46.163" lon="-1.34866">
        <ele>11.7</ele>
        <time>2020-05-31T21:36:41Z</time>
      </trkpt>
      <trkpt lat="46.163" lon="-1.34867">
        <ele>11.7</ele>
        <time>2020-05-31T21:36:42Z</time>
      </trkpt>
      <trkpt lat="46.16299" lon="-1.34868">
        <ele>11.7</ele>
        <time>2020-05-31T21:36:43Z</time>
      </trkpt>
      <trkpt lat="46.16299" lon="-1.34868">
        <ele>11.7</ele>
        <time>2020-05-31T21:36:44Z</time>
      </trkpt>
      <trkpt lat="46.16299" lon="-1.34869">
        <ele>11.7</ele>
        <time>2020-05-31T21:36:45Z</time>
      </trkpt>
      <trkpt lat="46.16299" lon="-1.34868">
        <ele>11.7</ele>
        <time>2020-05-31T21:36:46Z</time>
      </trkpt>
      <trkpt lat="46.163" lon="-1.34868">
        <ele>11.7</ele>
        <time>2020-05-31T21:36:47Z</time>
      </trkpt>
      <trkpt lat="46.163" lon="-1.34868">
        <ele>11.7</ele>
        <time>2020-05-31T21:36:48Z</time>
      </trkpt>
      <trkpt lat="46.16299" lon="-1.34868">
        <ele>11.7</ele>
        <time>2020-05-31T21:36:49Z</time>
      </trkpt>
      <trkpt lat="46.16299" lon="-1.34868">
        <ele>11.7</ele>
        <time>2020-05-31T21:36:50Z</time>
      </trkpt>
      <trkpt lat="46.16299" lon="-1.34869">
        <ele>11.7</ele>
        <time>2020-05-31T21:36:51Z</time>
      </trkpt>
      <trkpt lat="46.16299" lon="-1.34868">
        <ele>11.7</ele>
        <time>2020-05-31T21:36:52Z</time>
      </trkpt>
      <trkpt lat="46.16299" lon="-1.34868">
        <ele>11.7</ele>
        <time>2020-05-31T21:36:53Z</time>
      </trkpt>
      <trkpt lat="46.16299" lon="-1.34868">
        <ele>11.7</ele>
        <time>2020-05-31T21:36:54Z</time>
      </trkpt>
      <trkpt lat="46.16299" lon="-1.34868">
        <ele>11.7</ele>
        <time>2020-05-31T21:36:55Z</time>
      </trkpt>
      <trkpt lat="46.16299" lon="-1.34869">
        <ele>11.7</ele>
        <time>2020-05-31T21:36:56Z</time>
      </trkpt>
      <trkpt lat="46.16299" lon="-1.34869">
        <ele>11.7</ele>
        <time>2020-05-31T21:36:57Z</time>
      </trkpt>
      <trkpt lat="46.163" lon="-1.34868">
        <ele>11.7</ele>
        <time>2020-05-31T21:36:58Z</time>
      </trkpt>
      <trkpt lat="46.163" lon="-1.34867">
        <ele>11.7</ele>
        <time>2020-05-31T21:36:59Z</time>
      </trkpt>
      <trkpt lat="46.16301" lon="-1.34867">
        <ele>11.7</ele>
        <time>2020-05-31T21:37:00Z</time>
      </trkpt>
      <trkpt lat="46.163" lon="-1.34868">
        <ele>11.7</ele>
        <time>2020-05-31T21:37:01Z</time>
      </trkpt>
      <trkpt lat="46.16298" lon="-1.34869">
        <ele>11.7</ele>
        <time>2020-05-31T21:37:02Z</time>
      </trkpt>
      <trkpt lat="46.16297" lon="-1.3487">
        <ele>11.7</ele>
        <time>2020-05-31T21:37:03Z</time>
      </trkpt>
      <trkpt lat="46.16297" lon="-1.3487">
        <ele>11.7</ele>
        <time>2020-05-31T21:37:04Z</time>
      </trkpt>
      <trkpt lat="46.16295" lon="-1.3487">
        <ele>11.7</ele>
        <time>2020-05-31T21:37:05Z</time>
      </trkpt>
      <trkpt lat="46.16295" lon="-1.3487">
        <ele>11.7</ele>
        <time>2020-05-31T21:37:06Z</time>
      </trkpt>
      <trkpt lat="46.16294" lon="-1.3487">
        <ele>11.7</ele>
        <time>2020-05-31T21:37:07Z</time>
      </trkpt>
      <trkpt lat="46.16294" lon="-1.3487">
        <ele>11.7</ele>
        <time>2020-05-31T21:37:08Z</time>
      </trkpt>
      <trkpt lat="46.16293" lon="-1.3487">
        <ele>11.7</ele>
        <time>2020-05-31T21:37:09Z</time>
      </trkpt>
      <trkpt lat="46.16293" lon="-1.3487">
        <ele>11.7</ele>
        <time>2020-05-31T21:37:10Z</time>
      </trkpt>
      <trkpt lat="46.16293" lon="-1.3487">
        <ele>11.7</ele>
        <time>2020-05-31T21:37:11Z</time>
      </trkpt>
      <trkpt lat="46.16292" lon="-1.3487">
        <ele>11.7</ele>
        <time>2020-05-31T21:37:12Z</time>
      </trkpt>
      <trkpt lat="46.16291" lon="-1.34869">
        <ele>11.7</ele>
        <time>2020-05-31T21:37:13Z</time>
      </trkpt>
      <trkpt lat="46.16291" lon="-1.34869">
        <ele>11.7</ele>
        <time>2020-05-31T21:37:14Z</time>
      </trkpt>
      <trkpt lat="46.16291" lon="-1.34869">
        <ele>11.7</ele>
        <time>2020-05-31T21:37:15Z</time>
      </trkpt>
      <trkpt lat="46.16291" lon="-1.34869">
        <ele>11.7</ele>
        <time>2020-05-31T21:37:16Z</time>
      </trkpt>
      <trkpt lat="46.16291" lon="-1.34869">
        <ele>11.7</ele>
        <time>2020-05-31T21:37:17Z</time>
      </trkpt>
      <trkpt lat="46.16291" lon="-1.34869">
        <ele>11.7</ele>
        <time>2020-05-31T21:37:18Z</time>
      </trkpt>
      <trkpt lat="46.16291" lon="-1.34869">
        <ele>11.7</ele>
        <time>2020-05-31T21:37:19Z</time>
      </trkpt>
      <trkpt lat="46.16291" lon="-1.34869">
        <ele>11.7</ele>
        <time>2020-05-31T21:37:20Z</time>
      </trkpt>
      <trkpt lat="46.16291" lon="-1.34869">
        <ele>11.7</ele>
        <time>2020-05-31T21:37:21Z</time>
      </trkpt>
      <trkpt lat="46.16291" lon="-1.34869">
        <ele>11.7</ele>
        <time>2020-05-31T21:37:22Z</time>
      </trkpt>
      <trkpt lat="46.16291" lon="-1.34869">
        <ele>11.7</ele>
        <time>2020-05-31T21:37:23Z</time>
      </trkpt>
      <trkpt lat="46.16291" lon="-1.34869">
        <ele>11.7</ele>
        <time>2020-05-31T21:37:24Z</time>
      </trkpt>
      <trkpt lat="46.16292" lon="-1.3487">
        <ele>11.7</ele>
        <time>2020-05-31T21:37:25Z</time>
      </trkpt>
      <trkpt lat="46.16291" lon="-1.34871">
        <ele>11.7</ele>
        <time>2020-05-31T21:37:26Z</time>
      </trkpt>
      <trkpt lat="46.16291" lon="-1.34871">
        <ele>11.7</ele>
        <time>2020-05-31T21:37:27Z</time>
      </trkpt>
      <trkpt lat="46.16291" lon="-1.34871">
        <ele>11.7</ele>
        <time>2020-05-31T21:37:28Z</time>
      </trkpt>
      <trkpt lat="46.16291" lon="-1.34871">
        <ele>11.7</ele>
        <time>2020-05-31T21:37:29Z</time>
      </trkpt>
      <trkpt lat="46.16291" lon="-1.34871">
        <ele>11.7</ele>
        <time>2020-05-31T21:37:30Z</time>
      </trkpt>
      <trkpt lat="46.16292" lon="-1.3487">
        <ele>11.7</ele>
        <time>2020-05-31T21:37:31Z</time>
      </trkpt>
      <trkpt lat="46.16292" lon="-1.3487">
        <ele>11.7</ele>
        <time>2020-05-31T21:37:32Z</time>
      </trkpt>
      <trkpt lat="46.16292" lon="-1.3487">
        <ele>11.7</ele>
        <time>2020-05-31T21:37:33Z</time>
      </trkpt>
      <trkpt lat="46.16292" lon="-1.3487">
        <ele>11.7</ele>
        <time>2020-05-31T21:37:34Z</time>
      </trkpt>
      <trkpt lat="46.16292" lon="-1.3487">
        <ele>11.7</ele>
        <time>2020-05-31T21:37:35Z</time>
      </trkpt>
      <trkpt lat="46.16292" lon="-1.3487">
        <ele>11.7</ele>
        <time>2020-05-31T21:37:36Z</time>
      </trkpt>
      <trkpt lat="46.16292" lon="-1.3487">
        <ele>11.7</ele>
        <time>2020-05-31T21:37:37Z</time>
      </trkpt>
      <trkpt lat="46.16292" lon="-1.3487">
        <ele>11.7</ele>
        <time>2020-05-31T21:37:38Z</time>
      </trkpt>
      <trkpt lat="46.16292" lon="-1.3487">
        <ele>11.7</ele>
        <time>2020-05-31T21:37:39Z</time>
      </trkpt>
      <trkpt lat="46.16293" lon="-1.3487">
        <ele>11.7</ele>
        <time>2020-05-31T21:37:40Z</time>
      </trkpt>
      <trkpt lat="46.16294" lon="-1.34869">
        <ele>11.7</ele>
        <time>2020-05-31T21:37:41Z</time>
      </trkpt>
      <trkpt lat="46.16295" lon="-1.34868">
        <ele>11.7</ele>
        <time>2020-05-31T21:37:42Z</time>
      </trkpt>
      <trkpt lat="46.16295" lon="-1.34867">
        <ele>11.7</ele>
        <time>2020-05-31T21:37:43Z</time>
      </trkpt>
      <trkpt lat="46.16295" lon="-1.34867">
        <ele>11.7</ele>
        <time>2020-05-31T21:37:44Z</time>
      </trkpt>
      <trkpt lat="46.16296" lon="-1.34867">
        <ele>11.7</ele>
        <time>2020-05-31T21:37:45Z</time>
      </trkpt>
      <trkpt lat="46.16296" lon="-1.34867">
        <ele>11.7</ele>
        <time>2020-05-31T21:37:46Z</time>
      </trkpt>
      <trkpt lat="46.16297" lon="-1.34867">
        <ele>11.7</ele>
        <time>2020-05-31T21:37:47Z</time>
      </trkpt>
      <trkpt lat="46.16297" lon="-1.34867">
        <ele>11.7</ele>
        <time>2020-05-31T21:37:48Z</time>
      </trkpt>
      <trkpt lat="46.16297" lon="-1.34867">
        <ele>11.7</ele>
        <time>2020-05-31T21:37:49Z</time>
      </trkpt>
      <trkpt lat="46.16297" lon="-1.34867">
        <ele>11.7</ele>
        <time>2020-05-31T21:37:50Z</time>
      </trkpt>
      <trkpt lat="46.16296" lon="-1.34867">
        <ele>11.7</ele>
        <time>2020-05-31T21:37:51Z</time>
      </trkpt>
      <trkpt lat="46.16296" lon="-1.34868">
        <ele>11.7</ele>
        <time>2020-05-31T21:37:52Z</time>
      </trkpt>
      <trkpt lat="46.16296" lon="-1.34868">
        <ele>11.7</ele>
        <time>2020-05-31T21:37:53Z</time>
      </trkpt>
      <trkpt lat="46.16296" lon="-1.34867">
        <ele>11.7</ele>
        <time>2020-05-31T21:37:54Z</time>
      </trkpt>
      <trkpt lat="46.16297" lon="-1.34867">
        <ele>11.7</ele>
        <time>2020-05-31T21:37:55Z</time>
      </trkpt>
      <trkpt lat="46.16297" lon="-1.34867">
        <ele>11.7</ele>
        <time>2020-05-31T21:37:56Z</time>
      </trkpt>
      <trkpt lat="46.16297" lon="-1.34867">
        <ele>11.7</ele>
        <time>2020-05-31T21:37:57Z</time>
      </trkpt>
      <trkpt lat="46.16295" lon="-1.34868">
        <ele>11.7</ele>
        <time>2020-05-31T21:37:58Z</time>
      </trkpt>
      <trkpt lat="46.16295" lon="-1.34869">
        <ele>11.7</ele>
        <time>2020-05-31T21:37:59Z</time>
      </trkpt>
      <trkpt lat="46.16295" lon="-1.34869">
        <ele>11.7</ele>
        <time>2020-05-31T21:38:00Z</time>
      </trkpt>
      <trkpt lat="46.16295" lon="-1.34869">
        <ele>11.7</ele>
        <time>2020-05-31T21:38:01Z</time>
      </trkpt>
      <trkpt lat="46.16294" lon="-1.3487">
        <ele>11.7</ele>
        <time>2020-05-31T21:38:02Z</time>
      </trkpt>
      <trkpt lat="46.16295" lon="-1.34869">
        <ele>11.7</ele>
        <time>2020-05-31T21:38:03Z</time>
      </trkpt>
      <trkpt lat="46.16295" lon="-1.34869">
        <ele>11.7</ele>
        <time>2020-05-31T21:38:04Z</time>
      </trkpt>
      <trkpt lat="46.16295" lon="-1.34869">
        <ele>11.7</ele>
        <time>2020-05-31T21:38:05Z</time>
      </trkpt>
      <trkpt lat="46.16294" lon="-1.3487">
        <ele>11.7</ele>
        <time>2020-05-31T21:38:06Z</time>
      </trkpt>
      <trkpt lat="46.16295" lon="-1.34869">
        <ele>11.7</ele>
        <time>2020-05-31T21:38:07Z</time>
      </trkpt>
      <trkpt lat="46.16295" lon="-1.34868">
        <ele>11.7</ele>
        <time>2020-05-31T21:38:08Z</time>
      </trkpt>
      <trkpt lat="46.16296" lon="-1.34867">
        <ele>11.7</ele>
        <time>2020-05-31T21:38:09Z</time>
      </trkpt>
      <trkpt lat="46.16296" lon="-1.34867">
        <ele>11.7</ele>
        <time>2020-05-31T21:38:10Z</time>
      </trkpt>
      <trkpt lat="46.16296" lon="-1.34867">
        <ele>11.7</ele>
        <time>2020-05-31T21:38:11Z</time>
      </trkpt>
      <trkpt lat="46.16296" lon="-1.34866">
        <ele>11.7</ele>
        <time>2020-05-31T21:38:12Z</time>
      </trkpt>
      <trkpt lat="46.16297" lon="-1.34866">
        <ele>11.7</ele>
        <time>2020-05-31T21:38:13Z</time>
      </trkpt>
      <trkpt lat="46.16297" lon="-1.34865">
        <ele>11.7</ele>
        <time>2020-05-31T21:38:14Z</time>
      </trkpt>
      <trkpt lat="46.16296" lon="-1.34866">
        <ele>11.7</ele>
        <time>2020-05-31T21:38:15Z</time>
      </trkpt>
      <trkpt lat="46.16293" lon="-1.34868">
        <ele>11.7</ele>
        <time>2020-05-31T21:38:16Z</time>
      </trkpt>
      <trkpt lat="46.16292" lon="-1.34868">
        <ele>11.7</ele>
        <time>2020-05-31T21:38:17Z</time>
      </trkpt>
      <trkpt lat="46.16292" lon="-1.34868">
        <ele>11.7</ele>
        <time>2020-05-31T21:38:18Z</time>
      </trkpt>
      <trkpt lat="46.16291" lon="-1.34869">
        <ele>11.7</ele>
        <time>2020-05-31T21:38:19Z</time>
      </trkpt>
      <trkpt lat="46.16292" lon="-1.34869">
        <ele>11.7</ele>
        <time>2020-05-31T21:38:20Z</time>
      </trkpt>
      <trkpt lat="46.16291" lon="-1.34869">
        <ele>11.7</ele>
        <time>2020-05-31T21:38:21Z</time>
      </trkpt>
      <trkpt lat="46.16291" lon="-1.34869">
        <ele>11.7</ele>
        <time>2020-05-31T21:38:22Z</time>
      </trkpt>
      <trkpt lat="46.16292" lon="-1.34869">
        <ele>11.7</ele>
        <time>2020-05-31T21:38:23Z</time>
      </trkpt>
      <trkpt lat="46.16293" lon="-1.34868">
        <ele>11.7</ele>
        <time>2020-05-31T21:38:24Z</time>
      </trkpt>
      <trkpt lat="46.16295" lon="-1.34868">
        <ele>11.7</ele>
        <time>2020-05-31T21:38:25Z</time>
      </trkpt>
      <trkpt lat="46.16295" lon="-1.34868">
        <ele>11.7</ele>
        <time>2020-05-31T21:38:26Z</time>
      </trkpt>
      <trkpt lat="46.16296" lon="-1.34867">
        <ele>11.7</ele>
        <time>2020-05-31T21:38:27Z</time>
      </trkpt>
      <trkpt lat="46.16297" lon="-1.34867">
        <ele>11.7</ele>
        <time>2020-05-31T21:38:28Z</time>
      </trkpt>
      <trkpt lat="46.16297" lon="-1.34868">
        <ele>11.7</ele>
        <time>2020-05-31T21:38:29Z</time>
      </trkpt>
      <trkpt lat="46.16297" lon="-1.34869">
        <ele>11.7</ele>
        <time>2020-05-31T21:38:30Z</time>
      </trkpt>
      <trkpt lat="46.16297" lon="-1.34869">
        <ele>11.7</ele>
        <time>2020-05-31T21:38:31Z</time>
      </trkpt>
      <trkpt lat="46.16297" lon="-1.34869">
        <ele>11.7</ele>
        <time>2020-05-31T21:38:32Z</time>
      </trkpt>
      <trkpt lat="46.16297" lon="-1.3487">
        <ele>11.7</ele>
        <time>2020-05-31T21:38:33Z</time>
      </trkpt>
      <trkpt lat="46.16298" lon="-1.3487">
        <ele>11.7</ele>
        <time>2020-05-31T21:38:34Z</time>
      </trkpt>
      <trkpt lat="46.16298" lon="-1.3487">
        <ele>11.7</ele>
        <time>2020-05-31T21:38:35Z</time>
      </trkpt>
      <trkpt lat="46.16298" lon="-1.34871">
        <ele>11.7</ele>
        <time>2020-05-31T21:38:36Z</time>
      </trkpt>
      <trkpt lat="46.16298" lon="-1.34871">
        <ele>11.7</ele>
        <time>2020-05-31T21:38:37Z</time>
      </trkpt>
      <trkpt lat="46.16299" lon="-1.3487">
        <ele>11.7</ele>
        <time>2020-05-31T21:38:38Z</time>
      </trkpt>
      <trkpt lat="46.16298" lon="-1.3487">
        <ele>11.7</ele>
        <time>2020-05-31T21:38:39Z</time>
      </trkpt>
      <trkpt lat="46.16298" lon="-1.3487">
        <ele>11.7</ele>
        <time>2020-05-31T21:38:40Z</time>
      </trkpt>
      <trkpt lat="46.16298" lon="-1.3487">
        <ele>11.7</ele>
        <time>2020-05-31T21:38:41Z</time>
      </trkpt>
      <trkpt lat="46.16298" lon="-1.3487">
        <ele>11.7</ele>
        <time>2020-05-31T21:38:42Z</time>
      </trkpt>
      <trkpt lat="46.16298" lon="-1.3487">
        <ele>11.7</ele>
        <time>2020-05-31T21:38:43Z</time>
      </trkpt>
      <trkpt lat="46.16296" lon="-1.34872">
        <ele>11.7</ele>
        <time>2020-05-31T21:38:44Z</time>
      </trkpt>
      <trkpt lat="46.16296" lon="-1.34872">
        <ele>11.7</ele>
        <time>2020-05-31T21:38:45Z</time>
      </trkpt>
      <trkpt lat="46.16297" lon="-1.34873">
        <ele>11.8</ele>
        <time>2020-05-31T21:38:46Z</time>
      </trkpt>
      <trkpt lat="46.16298" lon="-1.34875">
        <ele>11.7</ele>
        <time>2020-05-31T21:38:47Z</time>
      </trkpt>
      <trkpt lat="46.16299" lon="-1.34877">
        <ele>11.7</ele>
        <time>2020-05-31T21:38:48Z</time>
      </trkpt>
      <trkpt lat="46.163" lon="-1.34881">
        <ele>11.7</ele>
        <time>2020-05-31T21:38:49Z</time>
      </trkpt>
      <trkpt lat="46.16301" lon="-1.34886">
        <ele>11.7</ele>
        <time>2020-05-31T21:38:50Z</time>
      </trkpt>
      <trkpt lat="46.16302" lon="-1.3489">
        <ele>11.7</ele>
        <time>2020-05-31T21:38:51Z</time>
      </trkpt>
      <trkpt lat="46.16304" lon="-1.34894">
        <ele>11.7</ele>
        <time>2020-05-31T21:38:52Z</time>
      </trkpt>
      <trkpt lat="46.16305" lon="-1.34898">
        <ele>11.7</ele>
        <time>2020-05-31T21:38:53Z</time>
      </trkpt>
      <trkpt lat="46.16308" lon="-1.34902">
        <ele>11.7</ele>
        <time>2020-05-31T21:38:54Z</time>
      </trkpt>
      <trkpt lat="46.1631" lon="-1.34907">
        <ele>11.7</ele>
        <time>2020-05-31T21:38:55Z</time>
      </trkpt>
      <trkpt lat="46.16313" lon="-1.34912">
        <ele>11.7</ele>
        <time>2020-05-31T21:38:56Z</time>
      </trkpt>
      <trkpt lat="46.16316" lon="-1.34917">
        <ele>11.7</ele>
        <time>2020-05-31T21:38:57Z</time>
      </trkpt>
      <trkpt lat="46.16319" lon="-1.34923">
        <ele>11.7</ele>
        <time>2020-05-31T21:38:58Z</time>
      </trkpt>
      <trkpt lat="46.16322" lon="-1.34929">
        <ele>11.7</ele>
        <time>2020-05-31T21:38:59Z</time>
      </trkpt>
      <trkpt lat="46.16325" lon="-1.34935">
        <ele>11.7</ele>
        <time>2020-05-31T21:39:00Z</time>
      </trkpt>
      <trkpt lat="46.16328" lon="-1.34942">
        <ele>11.7</ele>
        <time>2020-05-31T21:39:01Z</time>
      </trkpt>
      <trkpt lat="46.16331" lon="-1.34947">
        <ele>11.7</ele>
        <time>2020-05-31T21:39:02Z</time>
      </trkpt>
      <trkpt lat="46.16334" lon="-1.34953">
        <ele>11.7</ele>
        <time>2020-05-31T21:39:03Z</time>
      </trkpt>
      <trkpt lat="46.16338" lon="-1.3496">
        <ele>11.6</ele>
        <time>2020-05-31T21:39:04Z</time>
      </trkpt>
      <trkpt lat="46.16341" lon="-1.34966">
        <ele>11.6</ele>
        <time>2020-05-31T21:39:05Z</time>
      </trkpt>
      <trkpt lat="46.16344" lon="-1.34973">
        <ele>11.5</ele>
        <time>2020-05-31T21:39:06Z</time>
      </trkpt>
      <trkpt lat="46.16348" lon="-1.34979">
        <ele>11.4</ele>
        <time>2020-05-31T21:39:07Z</time>
      </trkpt>
      <trkpt lat="46.16351" lon="-1.34986">
        <ele>11.3</ele>
        <time>2020-05-31T21:39:08Z</time>
      </trkpt>
      <trkpt lat="46.16353" lon="-1.34992">
        <ele>11.2</ele>
        <time>2020-05-31T21:39:09Z</time>
      </trkpt>
      <trkpt lat="46.16356" lon="-1.35">
        <ele>11.1</ele>
        <time>2020-05-31T21:39:10Z</time>
      </trkpt>
      <trkpt lat="46.16359" lon="-1.35007">
        <ele>11.1</ele>
        <time>2020-05-31T21:39:11Z</time>
      </trkpt>
      <trkpt lat="46.16363" lon="-1.35013">
        <ele>11</ele>
        <time>2020-05-31T21:39:12Z</time>
      </trkpt>
      <trkpt lat="46.16366" lon="-1.3502">
        <ele>11</ele>
        <time>2020-05-31T21:39:13Z</time>
      </trkpt>
      <trkpt lat="46.16369" lon="-1.35027">
        <ele>10.9</ele>
        <time>2020-05-31T21:39:14Z</time>
      </trkpt>
      <trkpt lat="46.16373" lon="-1.35034">
        <ele>10.9</ele>
        <time>2020-05-31T21:39:15Z</time>
      </trkpt>
      <trkpt lat="46.16377" lon="-1.35041">
        <ele>10.9</ele>
        <time>2020-05-31T21:39:16Z</time>
      </trkpt>
      <trkpt lat="46.1638" lon="-1.35047">
        <ele>10.9</ele>
        <time>2020-05-31T21:39:17Z</time>
      </trkpt>
      <trkpt lat="46.16383" lon="-1.35053">
        <ele>10.9</ele>
        <time>2020-05-31T21:39:18Z</time>
      </trkpt>
      <trkpt lat="46.16386" lon="-1.35059">
        <ele>10.8</ele>
        <time>2020-05-31T21:39:19Z</time>
      </trkpt>
      <trkpt lat="46.16389" lon="-1.35065">
        <ele>10.8</ele>
        <time>2020-05-31T21:39:20Z</time>
      </trkpt>
      <trkpt lat="46.16393" lon="-1.35071">
        <ele>10.8</ele>
        <time>2020-05-31T21:39:21Z</time>
      </trkpt>
      <trkpt lat="46.16396" lon="-1.35075">
        <ele>10.8</ele>
        <time>2020-05-31T21:39:22Z</time>
      </trkpt>
      <trkpt lat="46.16399" lon="-1.35079">
        <ele>10.8</ele>
        <time>2020-05-31T21:39:23Z</time>
      </trkpt>
      <trkpt lat="46.16401" lon="-1.35083">
        <ele>10.8</ele>
        <time>2020-05-31T21:39:24Z</time>
      </trkpt>
      <trkpt lat="46.16404" lon="-1.35087">
        <ele>10.8</ele>
        <time>2020-05-31T21:39:25Z</time>
      </trkpt>
      <trkpt lat="46.16406" lon="-1.35092">
        <ele>10.8</ele>
        <time>2020-05-31T21:39:26Z</time>
      </trkpt>
      <trkpt lat="46.16409" lon="-1.35097">
        <ele>10.7</ele>
        <time>2020-05-31T21:39:27Z</time>
      </trkpt>
      <trkpt lat="46.16411" lon="-1.35102">
        <ele>10.7</ele>
        <time>2020-05-31T21:39:28Z</time>
      </trkpt>
      <trkpt lat="46.16414" lon="-1.35107">
        <ele>10.7</ele>
        <time>2020-05-31T21:39:29Z</time>
      </trkpt>
      <trkpt lat="46.16417" lon="-1.35112">
        <ele>10.7</ele>
        <time>2020-05-31T21:39:30Z</time>
      </trkpt>
      <trkpt lat="46.1642" lon="-1.35118">
        <ele>10.7</ele>
        <time>2020-05-31T21:39:31Z</time>
      </trkpt>
      <trkpt lat="46.16424" lon="-1.35126">
        <ele>10.6</ele>
        <time>2020-05-31T21:39:32Z</time>
      </trkpt>
      <trkpt lat="46.16428" lon="-1.35133">
        <ele>10.6</ele>
        <time>2020-05-31T21:39:33Z</time>
      </trkpt>
      <trkpt lat="46.16432" lon="-1.3514">
        <ele>10.6</ele>
        <time>2020-05-31T21:39:34Z</time>
      </trkpt>
      <trkpt lat="46.16435" lon="-1.35146">
        <ele>10.5</ele>
        <time>2020-05-31T21:39:35Z</time>
      </trkpt>
      <trkpt lat="46.16439" lon="-1.35155">
        <ele>10.4</ele>
        <time>2020-05-31T21:39:36Z</time>
      </trkpt>
      <trkpt lat="46.16443" lon="-1.35162">
        <ele>10.4</ele>
        <time>2020-05-31T21:39:37Z</time>
      </trkpt>
      <trkpt lat="46.16446" lon="-1.35169">
        <ele>10.3</ele>
        <time>2020-05-31T21:39:38Z</time>
      </trkpt>
      <trkpt lat="46.16451" lon="-1.35176">
        <ele>10.3</ele>
        <time>2020-05-31T21:39:39Z</time>
      </trkpt>
      <trkpt lat="46.16454" lon="-1.35182">
        <ele>10.2</ele>
        <time>2020-05-31T21:39:40Z</time>
      </trkpt>
      <trkpt lat="46.16458" lon="-1.35189">
        <ele>10.2</ele>
        <time>2020-05-31T21:39:41Z</time>
      </trkpt>
      <trkpt lat="46.16463" lon="-1.35197">
        <ele>10.2</ele>
        <time>2020-05-31T21:39:42Z</time>
      </trkpt>
      <trkpt lat="46.16467" lon="-1.35203">
        <ele>10.1</ele>
        <time>2020-05-31T21:39:43Z</time>
      </trkpt>
      <trkpt lat="46.1647" lon="-1.3521">
        <ele>10.1</ele>
        <time>2020-05-31T21:39:44Z</time>
      </trkpt>
      <trkpt lat="46.16472" lon="-1.35218">
        <ele>10.1</ele>
        <time>2020-05-31T21:39:45Z</time>
      </trkpt>
      <trkpt lat="46.16474" lon="-1.35226">
        <ele>10.1</ele>
        <time>2020-05-31T21:39:46Z</time>
      </trkpt>
      <trkpt lat="46.16477" lon="-1.35234">
        <ele>10.1</ele>
        <time>2020-05-31T21:39:47Z</time>
      </trkpt>
      <trkpt lat="46.16479" lon="-1.35241">
        <ele>10.1</ele>
        <time>2020-05-31T21:39:48Z</time>
      </trkpt>
      <trkpt lat="46.16481" lon="-1.3525">
        <ele>10.1</ele>
        <time>2020-05-31T21:39:49Z</time>
      </trkpt>
      <trkpt lat="46.16483" lon="-1.35258">
        <ele>10</ele>
        <time>2020-05-31T21:39:50Z</time>
      </trkpt>
      <trkpt lat="46.16486" lon="-1.35267">
        <ele>10</ele>
        <time>2020-05-31T21:39:51Z</time>
      </trkpt>
      <trkpt lat="46.16488" lon="-1.35275">
        <ele>10</ele>
        <time>2020-05-31T21:39:52Z</time>
      </trkpt>
      <trkpt lat="46.16489" lon="-1.35284">
        <ele>10</ele>
        <time>2020-05-31T21:39:53Z</time>
      </trkpt>
      <trkpt lat="46.16491" lon="-1.35292">
        <ele>10</ele>
        <time>2020-05-31T21:39:54Z</time>
      </trkpt>
      <trkpt lat="46.16492" lon="-1.35302">
        <ele>9.9</ele>
        <time>2020-05-31T21:39:55Z</time>
      </trkpt>
      <trkpt lat="46.16493" lon="-1.3531">
        <ele>9.9</ele>
        <time>2020-05-31T21:39:56Z</time>
      </trkpt>
      <trkpt lat="46.16494" lon="-1.35319">
        <ele>9.8</ele>
        <time>2020-05-31T21:39:57Z</time>
      </trkpt>
      <trkpt lat="46.16495" lon="-1.35326">
        <ele>9.7</ele>
        <time>2020-05-31T21:39:58Z</time>
      </trkpt>
      <trkpt lat="46.16496" lon="-1.35335">
        <ele>9.7</ele>
        <time>2020-05-31T21:39:59Z</time>
      </trkpt>
      <trkpt lat="46.16497" lon="-1.35343">
        <ele>9.6</ele>
        <time>2020-05-31T21:40:00Z</time>
      </trkpt>
      <trkpt lat="46.16498" lon="-1.35352">
        <ele>9.5</ele>
        <time>2020-05-31T21:40:01Z</time>
      </trkpt>
      <trkpt lat="46.16499" lon="-1.35359">
        <ele>9.4</ele>
        <time>2020-05-31T21:40:02Z</time>
      </trkpt>
      <trkpt lat="46.16501" lon="-1.35368">
        <ele>9.3</ele>
        <time>2020-05-31T21:40:03Z</time>
      </trkpt>
      <trkpt lat="46.16503" lon="-1.35378">
        <ele>9.3</ele>
        <time>2020-05-31T21:40:04Z</time>
      </trkpt>
      <trkpt lat="46.16505" lon="-1.35387">
        <ele>9.2</ele>
        <time>2020-05-31T21:40:05Z</time>
      </trkpt>
      <trkpt lat="46.16507" lon="-1.35395">
        <ele>9.1</ele>
        <time>2020-05-31T21:40:06Z</time>
      </trkpt>
      <trkpt lat="46.16509" lon="-1.35402">
        <ele>9.1</ele>
        <time>2020-05-31T21:40:07Z</time>
      </trkpt>
      <trkpt lat="46.16511" lon="-1.3541">
        <ele>9.1</ele>
        <time>2020-05-31T21:40:08Z</time>
      </trkpt>
      <trkpt lat="46.16513" lon="-1.35418">
        <ele>9</ele>
        <time>2020-05-31T21:40:09Z</time>
      </trkpt>
      <trkpt lat="46.16515" lon="-1.35425">
        <ele>9</ele>
        <time>2020-05-31T21:40:10Z</time>
      </trkpt>
      <trkpt lat="46.16517" lon="-1.35434">
        <ele>9</ele>
        <time>2020-05-31T21:40:11Z</time>
      </trkpt>
      <trkpt lat="46.1652" lon="-1.35442">
        <ele>9</ele>
        <time>2020-05-31T21:40:12Z</time>
      </trkpt>
      <trkpt lat="46.16522" lon="-1.35449">
        <ele>9</ele>
        <time>2020-05-31T21:40:13Z</time>
      </trkpt>
      <trkpt lat="46.16525" lon="-1.35458">
        <ele>8.9</ele>
        <time>2020-05-31T21:40:14Z</time>
      </trkpt>
      <trkpt lat="46.16528" lon="-1.35466">
        <ele>8.9</ele>
        <time>2020-05-31T21:40:15Z</time>
      </trkpt>
      <trkpt lat="46.16531" lon="-1.35473">
        <ele>8.9</ele>
        <time>2020-05-31T21:40:16Z</time>
      </trkpt>
      <trkpt lat="46.16534" lon="-1.35475">
        <ele>8.9</ele>
        <time>2020-05-31T21:40:17Z</time>
      </trkpt>
      <trkpt lat="46.16538" lon="-1.35481">
        <ele>8.9</ele>
        <time>2020-05-31T21:40:18Z</time>
      </trkpt>
      <trkpt lat="46.16542" lon="-1.35489">
        <ele>8.8</ele>
        <time>2020-05-31T21:40:19Z</time>
      </trkpt>
      <trkpt lat="46.16545" lon="-1.35495">
        <ele>8.8</ele>
        <time>2020-05-31T21:40:20Z</time>
      </trkpt>
      <trkpt lat="46.16548" lon="-1.35502">
        <ele>8.6</ele>
        <time>2020-05-31T21:40:21Z</time>
      </trkpt>
      <trkpt lat="46.16552" lon="-1.35512">
        <ele>8.4</ele>
        <time>2020-05-31T21:40:22Z</time>
      </trkpt>
      <trkpt lat="46.16556" lon="-1.3552">
        <ele>8.2</ele>
        <time>2020-05-31T21:40:23Z</time>
      </trkpt>
      <trkpt lat="46.1656" lon="-1.35529">
        <ele>8.1</ele>
        <time>2020-05-31T21:40:24Z</time>
      </trkpt>
      <trkpt lat="46.16564" lon="-1.35537">
        <ele>8</ele>
        <time>2020-05-31T21:40:25Z</time>
      </trkpt>
      <trkpt lat="46.16569" lon="-1.35543">
        <ele>7.9</ele>
        <time>2020-05-31T21:40:26Z</time>
      </trkpt>
      <trkpt lat="46.16573" lon="-1.35552">
        <ele>7.8</ele>
        <time>2020-05-31T21:40:27Z</time>
      </trkpt>
      <trkpt lat="46.16576" lon="-1.35559">
        <ele>7.8</ele>
        <time>2020-05-31T21:40:28Z</time>
      </trkpt>
      <trkpt lat="46.1658" lon="-1.35566">
        <ele>7.7</ele>
        <time>2020-05-31T21:40:29Z</time>
      </trkpt>
      <trkpt lat="46.16584" lon="-1.35574">
        <ele>7.7</ele>
        <time>2020-05-31T21:40:30Z</time>
      </trkpt>
      <trkpt lat="46.16588" lon="-1.35583">
        <ele>7.6</ele>
        <time>2020-05-31T21:40:31Z</time>
      </trkpt>
      <trkpt lat="46.16592" lon="-1.35591">
        <ele>7.5</ele>
        <time>2020-05-31T21:40:32Z</time>
      </trkpt>
      <trkpt lat="46.16596" lon="-1.35599">
        <ele>7.5</ele>
        <time>2020-05-31T21:40:33Z</time>
      </trkpt>
      <trkpt lat="46.16601" lon="-1.35608">
        <ele>7.3</ele>
        <time>2020-05-31T21:40:34Z</time>
      </trkpt>
      <trkpt lat="46.16605" lon="-1.35615">
        <ele>7.2</ele>
        <time>2020-05-31T21:40:35Z</time>
      </trkpt>
      <trkpt lat="46.16609" lon="-1.35622">
        <ele>7.1</ele>
        <time>2020-05-31T21:40:36Z</time>
      </trkpt>
      <trkpt lat="46.16613" lon="-1.3563">
        <ele>7</ele>
        <time>2020-05-31T21:40:37Z</time>
      </trkpt>
      <trkpt lat="46.16617" lon="-1.35638">
        <ele>6.9</ele>
        <time>2020-05-31T21:40:38Z</time>
      </trkpt>
      <trkpt lat="46.16621" lon="-1.35646">
        <ele>6.9</ele>
        <time>2020-05-31T21:40:39Z</time>
      </trkpt>
      <trkpt lat="46.16626" lon="-1.35655">
        <ele>6.9</ele>
        <time>2020-05-31T21:40:40Z</time>
      </trkpt>
      <trkpt lat="46.16629" lon="-1.35662">
        <ele>6.9</ele>
        <time>2020-05-31T21:40:41Z</time>
      </trkpt>
      <trkpt lat="46.16633" lon="-1.3567">
        <ele>6.8</ele>
        <time>2020-05-31T21:40:42Z</time>
      </trkpt>
      <trkpt lat="46.16637" lon="-1.35677">
        <ele>6.8</ele>
        <time>2020-05-31T21:40:43Z</time>
      </trkpt>
      <trkpt lat="46.1664" lon="-1.35685">
        <ele>6.8</ele>
        <time>2020-05-31T21:40:44Z</time>
      </trkpt>
      <trkpt lat="46.16644" lon="-1.35692">
        <ele>6.7</ele>
        <time>2020-05-31T21:40:45Z</time>
      </trkpt>
      <trkpt lat="46.16648" lon="-1.357">
        <ele>6.6</ele>
        <time>2020-05-31T21:40:46Z</time>
      </trkpt>
      <trkpt lat="46.16651" lon="-1.35708">
        <ele>6.5</ele>
        <time>2020-05-31T21:40:47Z</time>
      </trkpt>
      <trkpt lat="46.16654" lon="-1.35717">
        <ele>6.4</ele>
        <time>2020-05-31T21:40:48Z</time>
      </trkpt>
      <trkpt lat="46.16658" lon="-1.35725">
        <ele>6.3</ele>
        <time>2020-05-31T21:40:49Z</time>
      </trkpt>
      <trkpt lat="46.16662" lon="-1.35733">
        <ele>6.2</ele>
        <time>2020-05-31T21:40:50Z</time>
      </trkpt>
      <trkpt lat="46.16665" lon="-1.3574">
        <ele>6.1</ele>
        <time>2020-05-31T21:40:51Z</time>
      </trkpt>
      <trkpt lat="46.16669" lon="-1.35748">
        <ele>6.1</ele>
        <time>2020-05-31T21:40:52Z</time>
      </trkpt>
      <trkpt lat="46.16672" lon="-1.35756">
        <ele>6.1</ele>
        <time>2020-05-31T21:40:53Z</time>
      </trkpt>
      <trkpt lat="46.16677" lon="-1.35762">
        <ele>6.1</ele>
        <time>2020-05-31T21:40:54Z</time>
      </trkpt>
      <trkpt lat="46.16681" lon="-1.35768">
        <ele>6.2</ele>
        <time>2020-05-31T21:40:55Z</time>
      </trkpt>
      <trkpt lat="46.16683" lon="-1.35775">
        <ele>6.2</ele>
        <time>2020-05-31T21:40:56Z</time>
      </trkpt>
      <trkpt lat="46.16686" lon="-1.35783">
        <ele>6.2</ele>
        <time>2020-05-31T21:40:57Z</time>
      </trkpt>
      <trkpt lat="46.16688" lon="-1.35791">
        <ele>6.2</ele>
        <time>2020-05-31T21:40:58Z</time>
      </trkpt>
      <trkpt lat="46.16689" lon="-1.35799">
        <ele>6.2</ele>
        <time>2020-05-31T21:40:59Z</time>
      </trkpt>
      <trkpt lat="46.1669" lon="-1.35807">
        <ele>6.2</ele>
        <time>2020-05-31T21:41:00Z</time>
      </trkpt>
      <trkpt lat="46.16693" lon="-1.35815">
        <ele>6.2</ele>
        <time>2020-05-31T21:41:01Z</time>
      </trkpt>
      <trkpt lat="46.16696" lon="-1.35822">
        <ele>6.2</ele>
        <time>2020-05-31T21:41:02Z</time>
      </trkpt>
      <trkpt lat="46.16699" lon="-1.35829">
        <ele>6.2</ele>
        <time>2020-05-31T21:41:03Z</time>
      </trkpt>
      <trkpt lat="46.16702" lon="-1.35836">
        <ele>6.3</ele>
        <time>2020-05-31T21:41:04Z</time>
      </trkpt>
      <trkpt lat="46.16705" lon="-1.35844">
        <ele>6.3</ele>
        <time>2020-05-31T21:41:05Z</time>
      </trkpt>
      <trkpt lat="46.16709" lon="-1.35851">
        <ele>6.3</ele>
        <time>2020-05-31T21:41:06Z</time>
      </trkpt>
      <trkpt lat="46.16713" lon="-1.35859">
        <ele>6.3</ele>
        <time>2020-05-31T21:41:07Z</time>
      </trkpt>
      <trkpt lat="46.16716" lon="-1.35867">
        <ele>6.4</ele>
        <time>2020-05-31T21:41:08Z</time>
      </trkpt>
      <trkpt lat="46.1672" lon="-1.35874">
        <ele>6.4</ele>
        <time>2020-05-31T21:41:09Z</time>
      </trkpt>
      <trkpt lat="46.16724" lon="-1.35881">
        <ele>6.4</ele>
        <time>2020-05-31T21:41:10Z</time>
      </trkpt>
      <trkpt lat="46.16727" lon="-1.35889">
        <ele>6.5</ele>
        <time>2020-05-31T21:41:11Z</time>
      </trkpt>
      <trkpt lat="46.16731" lon="-1.35896">
        <ele>6.6</ele>
        <time>2020-05-31T21:41:12Z</time>
      </trkpt>
      <trkpt lat="46.16734" lon="-1.35903">
        <ele>6.7</ele>
        <time>2020-05-31T21:41:13Z</time>
      </trkpt>
      <trkpt lat="46.16738" lon="-1.3591">
        <ele>6.7</ele>
        <time>2020-05-31T21:41:14Z</time>
      </trkpt>
      <trkpt lat="46.16742" lon="-1.35918">
        <ele>6.8</ele>
        <time>2020-05-31T21:41:15Z</time>
      </trkpt>
      <trkpt lat="46.16745" lon="-1.35926">
        <ele>6.9</ele>
        <time>2020-05-31T21:41:16Z</time>
      </trkpt>
      <trkpt lat="46.16748" lon="-1.35934">
        <ele>6.9</ele>
        <time>2020-05-31T21:41:17Z</time>
      </trkpt>
      <trkpt lat="46.16752" lon="-1.35942">
        <ele>7</ele>
        <time>2020-05-31T21:41:18Z</time>
      </trkpt>
      <trkpt lat="46.16756" lon="-1.3595">
        <ele>7</ele>
        <time>2020-05-31T21:41:19Z</time>
      </trkpt>
      <trkpt lat="46.1676" lon="-1.35956">
        <ele>7.1</ele>
        <time>2020-05-31T21:41:20Z</time>
      </trkpt>
      <trkpt lat="46.16763" lon="-1.35963">
        <ele>7.1</ele>
        <time>2020-05-31T21:41:21Z</time>
      </trkpt>
      <trkpt lat="46.16765" lon="-1.35969">
        <ele>7.1</ele>
        <time>2020-05-31T21:41:22Z</time>
      </trkpt>
      <trkpt lat="46.16768" lon="-1.35974">
        <ele>7.1</ele>
        <time>2020-05-31T21:41:23Z</time>
      </trkpt>
      <trkpt lat="46.16772" lon="-1.35982">
        <ele>7.1</ele>
        <time>2020-05-31T21:41:24Z</time>
      </trkpt>
      <trkpt lat="46.16774" lon="-1.35988">
        <ele>7.1</ele>
        <time>2020-05-31T21:41:25Z</time>
      </trkpt>
      <trkpt lat="46.16777" lon="-1.35994">
        <ele>7.1</ele>
        <time>2020-05-31T21:41:26Z</time>
      </trkpt>
      <trkpt lat="46.1678" lon="-1.36001">
        <ele>7.2</ele>
        <time>2020-05-31T21:41:27Z</time>
      </trkpt>
      <trkpt lat="46.16784" lon="-1.36008">
        <ele>7.2</ele>
        <time>2020-05-31T21:41:28Z</time>
      </trkpt>
      <trkpt lat="46.16786" lon="-1.36016">
        <ele>7.2</ele>
        <time>2020-05-31T21:41:29Z</time>
      </trkpt>
      <trkpt lat="46.16789" lon="-1.36022">
        <ele>7.3</ele>
        <time>2020-05-31T21:41:30Z</time>
      </trkpt>
      <trkpt lat="46.16791" lon="-1.36027">
        <ele>7.4</ele>
        <time>2020-05-31T21:41:31Z</time>
      </trkpt>
      <trkpt lat="46.16795" lon="-1.36032">
        <ele>7.4</ele>
        <time>2020-05-31T21:41:32Z</time>
      </trkpt>
      <trkpt lat="46.16797" lon="-1.36039">
        <ele>7.5</ele>
        <time>2020-05-31T21:41:33Z</time>
      </trkpt>
      <trkpt lat="46.168" lon="-1.36046">
        <ele>7.5</ele>
        <time>2020-05-31T21:41:34Z</time>
      </trkpt>
      <trkpt lat="46.16803" lon="-1.36054">
        <ele>7.6</ele>
        <time>2020-05-31T21:41:35Z</time>
      </trkpt>
      <trkpt lat="46.16806" lon="-1.3606">
        <ele>7.7</ele>
        <time>2020-05-31T21:41:36Z</time>
      </trkpt>
      <trkpt lat="46.1681" lon="-1.3607">
        <ele>7.7</ele>
        <time>2020-05-31T21:41:37Z</time>
      </trkpt>
      <trkpt lat="46.16813" lon="-1.36077">
        <ele>7.7</ele>
        <time>2020-05-31T21:41:38Z</time>
      </trkpt>
      <trkpt lat="46.16816" lon="-1.36084">
        <ele>7.7</ele>
        <time>2020-05-31T21:41:39Z</time>
      </trkpt>
      <trkpt lat="46.16819" lon="-1.36091">
        <ele>7.7</ele>
        <time>2020-05-31T21:41:40Z</time>
      </trkpt>
      <trkpt lat="46.16822" lon="-1.36098">
        <ele>7.7</ele>
        <time>2020-05-31T21:41:41Z</time>
      </trkpt>
      <trkpt lat="46.16826" lon="-1.36106">
        <ele>7.7</ele>
        <time>2020-05-31T21:41:42Z</time>
      </trkpt>
      <trkpt lat="46.1683" lon="-1.36113">
        <ele>7.7</ele>
        <time>2020-05-31T21:41:43Z</time>
      </trkpt>
      <trkpt lat="46.16833" lon="-1.36118">
        <ele>7.7</ele>
        <time>2020-05-31T21:41:44Z</time>
      </trkpt>
      <trkpt lat="46.16837" lon="-1.36124">
        <ele>7.8</ele>
        <time>2020-05-31T21:41:45Z</time>
      </trkpt>
      <trkpt lat="46.1684" lon="-1.36129">
        <ele>7.8</ele>
        <time>2020-05-31T21:41:46Z</time>
      </trkpt>
      <trkpt lat="46.16844" lon="-1.36135">
        <ele>7.8</ele>
        <time>2020-05-31T21:41:47Z</time>
      </trkpt>
      <trkpt lat="46.16847" lon="-1.3614">
        <ele>7.8</ele>
        <time>2020-05-31T21:41:48Z</time>
      </trkpt>
      <trkpt lat="46.16851" lon="-1.36145">
        <ele>7.8</ele>
        <time>2020-05-31T21:41:49Z</time>
      </trkpt>
      <trkpt lat="46.16854" lon="-1.36151">
        <ele>7.8</ele>
        <time>2020-05-31T21:41:50Z</time>
      </trkpt>
      <trkpt lat="46.16858" lon="-1.36156">
        <ele>7.8</ele>
        <time>2020-05-31T21:41:51Z</time>
      </trkpt>
      <trkpt lat="46.16862" lon="-1.36162">
        <ele>7.8</ele>
        <time>2020-05-31T21:41:52Z</time>
      </trkpt>
      <trkpt lat="46.16866" lon="-1.36167">
        <ele>7.8</ele>
        <time>2020-05-31T21:41:53Z</time>
      </trkpt>
      <trkpt lat="46.16873" lon="-1.36173">
        <ele>7.8</ele>
        <time>2020-05-31T21:41:54Z</time>
      </trkpt>
      <trkpt lat="46.16878" lon="-1.36177">
        <ele>7.8</ele>
        <time>2020-05-31T21:41:55Z</time>
      </trkpt>
      <trkpt lat="46.16884" lon="-1.36182">
        <ele>7.8</ele>
        <time>2020-05-31T21:41:56Z</time>
      </trkpt>
      <trkpt lat="46.1689" lon="-1.36187">
        <ele>7.8</ele>
        <time>2020-05-31T21:41:57Z</time>
      </trkpt>
      <trkpt lat="46.16894" lon="-1.36192">
        <ele>7.8</ele>
        <time>2020-05-31T21:41:58Z</time>
      </trkpt>
      <trkpt lat="46.16899" lon="-1.36197">
        <ele>7.8</ele>
        <time>2020-05-31T21:41:59Z</time>
      </trkpt>
      <trkpt lat="46.16903" lon="-1.362">
        <ele>7.9</ele>
        <time>2020-05-31T21:42:00Z</time>
      </trkpt>
      <trkpt lat="46.16907" lon="-1.36204">
        <ele>7.9</ele>
        <time>2020-05-31T21:42:01Z</time>
      </trkpt>
      <trkpt lat="46.16912" lon="-1.36207">
        <ele>7.9</ele>
        <time>2020-05-31T21:42:02Z</time>
      </trkpt>
      <trkpt lat="46.16916" lon="-1.3621">
        <ele>7.9</ele>
        <time>2020-05-31T21:42:03Z</time>
      </trkpt>
      <trkpt lat="46.16922" lon="-1.36215">
        <ele>8</ele>
        <time>2020-05-31T21:42:04Z</time>
      </trkpt>
      <trkpt lat="46.16927" lon="-1.36217">
        <ele>8</ele>
        <time>2020-05-31T21:42:05Z</time>
      </trkpt>
      <trkpt lat="46.16932" lon="-1.3622">
        <ele>8.1</ele>
        <time>2020-05-31T21:42:06Z</time>
      </trkpt>
      <trkpt lat="46.16937" lon="-1.36223">
        <ele>8.1</ele>
        <time>2020-05-31T21:42:07Z</time>
      </trkpt>
      <trkpt lat="46.16942" lon="-1.36225">
        <ele>8.2</ele>
        <time>2020-05-31T21:42:08Z</time>
      </trkpt>
      <trkpt lat="46.16946" lon="-1.36229">
        <ele>8.2</ele>
        <time>2020-05-31T21:42:09Z</time>
      </trkpt>
      <trkpt lat="46.16951" lon="-1.36232">
        <ele>8.3</ele>
        <time>2020-05-31T21:42:10Z</time>
      </trkpt>
      <trkpt lat="46.16957" lon="-1.36236">
        <ele>8.3</ele>
        <time>2020-05-31T21:42:11Z</time>
      </trkpt>
      <trkpt lat="46.16962" lon="-1.36238">
        <ele>8.4</ele>
        <time>2020-05-31T21:42:12Z</time>
      </trkpt>
      <trkpt lat="46.16966" lon="-1.36241">
        <ele>8.4</ele>
        <time>2020-05-31T21:42:13Z</time>
      </trkpt>
      <trkpt lat="46.16971" lon="-1.36244">
        <ele>8.4</ele>
        <time>2020-05-31T21:42:14Z</time>
      </trkpt>
      <trkpt lat="46.16978" lon="-1.36247">
        <ele>8.4</ele>
        <time>2020-05-31T21:42:15Z</time>
      </trkpt>
      <trkpt lat="46.16983" lon="-1.36249">
        <ele>8.4</ele>
        <time>2020-05-31T21:42:16Z</time>
      </trkpt>
      <trkpt lat="46.16988" lon="-1.36251">
        <ele>8.4</ele>
        <time>2020-05-31T21:42:17Z</time>
      </trkpt>
      <trkpt lat="46.16993" lon="-1.36254">
        <ele>8.4</ele>
        <time>2020-05-31T21:42:18Z</time>
      </trkpt>
      <trkpt lat="46.16997" lon="-1.36257">
        <ele>8.5</ele>
        <time>2020-05-31T21:42:19Z</time>
      </trkpt>
      <trkpt lat="46.17002" lon="-1.36259">
        <ele>8.5</ele>
        <time>2020-05-31T21:42:20Z</time>
      </trkpt>
      <trkpt lat="46.17007" lon="-1.3626">
        <ele>8.5</ele>
        <time>2020-05-31T21:42:21Z</time>
      </trkpt>
      <trkpt lat="46.17013" lon="-1.36264">
        <ele>8.5</ele>
        <time>2020-05-31T21:42:22Z</time>
      </trkpt>
      <trkpt lat="46.17017" lon="-1.36266">
        <ele>8.4</ele>
        <time>2020-05-31T21:42:23Z</time>
      </trkpt>
      <trkpt lat="46.17022" lon="-1.36268">
        <ele>8.4</ele>
        <time>2020-05-31T21:42:24Z</time>
      </trkpt>
      <trkpt lat="46.17027" lon="-1.3627">
        <ele>8.4</ele>
        <time>2020-05-31T21:42:25Z</time>
      </trkpt>
      <trkpt lat="46.17032" lon="-1.36273">
        <ele>8.4</ele>
        <time>2020-05-31T21:42:26Z</time>
      </trkpt>
      <trkpt lat="46.17037" lon="-1.36276">
        <ele>8.4</ele>
        <time>2020-05-31T21:42:27Z</time>
      </trkpt>
      <trkpt lat="46.17043" lon="-1.3628">
        <ele>8.4</ele>
        <time>2020-05-31T21:42:28Z</time>
      </trkpt>
      <trkpt lat="46.17049" lon="-1.36284">
        <ele>8.4</ele>
        <time>2020-05-31T21:42:29Z</time>
      </trkpt>
      <trkpt lat="46.17055" lon="-1.36287">
        <ele>8.4</ele>
        <time>2020-05-31T21:42:30Z</time>
      </trkpt>
      <trkpt lat="46.17059" lon="-1.36291">
        <ele>8.3</ele>
        <time>2020-05-31T21:42:31Z</time>
      </trkpt>
      <trkpt lat="46.17065" lon="-1.36293">
        <ele>8.3</ele>
        <time>2020-05-31T21:42:32Z</time>
      </trkpt>
      <trkpt lat="46.17072" lon="-1.36299">
        <ele>8.1</ele>
        <time>2020-05-31T21:42:33Z</time>
      </trkpt>
      <trkpt lat="46.17077" lon="-1.36303">
        <ele>8</ele>
        <time>2020-05-31T21:42:34Z</time>
      </trkpt>
      <trkpt lat="46.17083" lon="-1.36306">
        <ele>7.9</ele>
        <time>2020-05-31T21:42:35Z</time>
      </trkpt>
      <trkpt lat="46.17087" lon="-1.36309">
        <ele>7.7</ele>
        <time>2020-05-31T21:42:36Z</time>
      </trkpt>
      <trkpt lat="46.17092" lon="-1.36314">
        <ele>7.6</ele>
        <time>2020-05-31T21:42:37Z</time>
      </trkpt>
      <trkpt lat="46.17097" lon="-1.36318">
        <ele>7.5</ele>
        <time>2020-05-31T21:42:38Z</time>
      </trkpt>
      <trkpt lat="46.17102" lon="-1.36323">
        <ele>7.4</ele>
        <time>2020-05-31T21:42:39Z</time>
      </trkpt>
      <trkpt lat="46.17106" lon="-1.36327">
        <ele>7.3</ele>
        <time>2020-05-31T21:42:40Z</time>
      </trkpt>
      <trkpt lat="46.17112" lon="-1.36331">
        <ele>7.1</ele>
        <time>2020-05-31T21:42:41Z</time>
      </trkpt>
      <trkpt lat="46.17117" lon="-1.36337">
        <ele>7</ele>
        <time>2020-05-31T21:42:42Z</time>
      </trkpt>
      <trkpt lat="46.17122" lon="-1.3634">
        <ele>6.8</ele>
        <time>2020-05-31T21:42:43Z</time>
      </trkpt>
      <trkpt lat="46.17126" lon="-1.36345">
        <ele>6.7</ele>
        <time>2020-05-31T21:42:44Z</time>
      </trkpt>
      <trkpt lat="46.17131" lon="-1.36349">
        <ele>6.5</ele>
        <time>2020-05-31T21:42:45Z</time>
      </trkpt>
      <trkpt lat="46.17137" lon="-1.36356">
        <ele>6.3</ele>
        <time>2020-05-31T21:42:46Z</time>
      </trkpt>
      <trkpt lat="46.17142" lon="-1.36362">
        <ele>6.1</ele>
        <time>2020-05-31T21:42:47Z</time>
      </trkpt>
      <trkpt lat="46.17147" lon="-1.36368">
        <ele>6</ele>
        <time>2020-05-31T21:42:48Z</time>
      </trkpt>
      <trkpt lat="46.17152" lon="-1.36375">
        <ele>5.9</ele>
        <time>2020-05-31T21:42:49Z</time>
      </trkpt>
      <trkpt lat="46.17158" lon="-1.36381">
        <ele>5.8</ele>
        <time>2020-05-31T21:42:50Z</time>
      </trkpt>
      <trkpt lat="46.17163" lon="-1.36388">
        <ele>5.7</ele>
        <time>2020-05-31T21:42:51Z</time>
      </trkpt>
      <trkpt lat="46.17168" lon="-1.36394">
        <ele>5.5</ele>
        <time>2020-05-31T21:42:52Z</time>
      </trkpt>
      <trkpt lat="46.17174" lon="-1.364">
        <ele>5.4</ele>
        <time>2020-05-31T21:42:53Z</time>
      </trkpt>
      <trkpt lat="46.17179" lon="-1.36406">
        <ele>5.3</ele>
        <time>2020-05-31T21:42:54Z</time>
      </trkpt>
      <trkpt lat="46.17184" lon="-1.36412">
        <ele>5.2</ele>
        <time>2020-05-31T21:42:55Z</time>
      </trkpt>
      <trkpt lat="46.1719" lon="-1.36417">
        <ele>5.1</ele>
        <time>2020-05-31T21:42:56Z</time>
      </trkpt>
      <trkpt lat="46.17195" lon="-1.36423">
        <ele>5.1</ele>
        <time>2020-05-31T21:42:57Z</time>
      </trkpt>
      <trkpt lat="46.172" lon="-1.36428">
        <ele>5.1</ele>
        <time>2020-05-31T21:42:58Z</time>
      </trkpt>
      <trkpt lat="46.17205" lon="-1.36433">
        <ele>5.1</ele>
        <time>2020-05-31T21:42:59Z</time>
      </trkpt>
      <trkpt lat="46.1721" lon="-1.36438">
        <ele>5.1</ele>
        <time>2020-05-31T21:43:00Z</time>
      </trkpt>
      <trkpt lat="46.17216" lon="-1.36443">
        <ele>5.1</ele>
        <time>2020-05-31T21:43:01Z</time>
      </trkpt>
      <trkpt lat="46.17221" lon="-1.36448">
        <ele>5.2</ele>
        <time>2020-05-31T21:43:02Z</time>
      </trkpt>
      <trkpt lat="46.17226" lon="-1.36453">
        <ele>5.3</ele>
        <time>2020-05-31T21:43:03Z</time>
      </trkpt>
      <trkpt lat="46.1723" lon="-1.36458">
        <ele>5.3</ele>
        <time>2020-05-31T21:43:04Z</time>
      </trkpt>
      <trkpt lat="46.17234" lon="-1.36463">
        <ele>5.4</ele>
        <time>2020-05-31T21:43:05Z</time>
      </trkpt>
      <trkpt lat="46.17239" lon="-1.36466">
        <ele>5.5</ele>
        <time>2020-05-31T21:43:06Z</time>
      </trkpt>
      <trkpt lat="46.17243" lon="-1.3647">
        <ele>5.6</ele>
        <time>2020-05-31T21:43:07Z</time>
      </trkpt>
      <trkpt lat="46.17247" lon="-1.36474">
        <ele>5.7</ele>
        <time>2020-05-31T21:43:08Z</time>
      </trkpt>
      <trkpt lat="46.17251" lon="-1.36478">
        <ele>5.9</ele>
        <time>2020-05-31T21:43:09Z</time>
      </trkpt>
      <trkpt lat="46.17254" lon="-1.3648">
        <ele>5.9</ele>
        <time>2020-05-31T21:43:10Z</time>
      </trkpt>
      <trkpt lat="46.1726" lon="-1.36487">
        <ele>6.1</ele>
        <time>2020-05-31T21:43:11Z</time>
      </trkpt>
      <trkpt lat="46.17263" lon="-1.36489">
        <ele>6.2</ele>
        <time>2020-05-31T21:43:12Z</time>
      </trkpt>
      <trkpt lat="46.17266" lon="-1.36492">
        <ele>6.3</ele>
        <time>2020-05-31T21:43:13Z</time>
      </trkpt>
      <trkpt lat="46.1727" lon="-1.36496">
        <ele>6.4</ele>
        <time>2020-05-31T21:43:14Z</time>
      </trkpt>
      <trkpt lat="46.17274" lon="-1.36501">
        <ele>6.5</ele>
        <time>2020-05-31T21:43:15Z</time>
      </trkpt>
      <trkpt lat="46.17278" lon="-1.36506">
        <ele>6.6</ele>
        <time>2020-05-31T21:43:16Z</time>
      </trkpt>
      <trkpt lat="46.17282" lon="-1.3651">
        <ele>6.7</ele>
        <time>2020-05-31T21:43:17Z</time>
      </trkpt>
      <trkpt lat="46.17285" lon="-1.36514">
        <ele>6.8</ele>
        <time>2020-05-31T21:43:18Z</time>
      </trkpt>
      <trkpt lat="46.17289" lon="-1.36518">
        <ele>6.9</ele>
        <time>2020-05-31T21:43:19Z</time>
      </trkpt>
      <trkpt lat="46.17292" lon="-1.36522">
        <ele>6.9</ele>
        <time>2020-05-31T21:43:20Z</time>
      </trkpt>
      <trkpt lat="46.17296" lon="-1.36527">
        <ele>7</ele>
        <time>2020-05-31T21:43:21Z</time>
      </trkpt>
      <trkpt lat="46.173" lon="-1.36532">
        <ele>7.1</ele>
        <time>2020-05-31T21:43:22Z</time>
      </trkpt>
      <trkpt lat="46.17304" lon="-1.36536">
        <ele>7.1</ele>
        <time>2020-05-31T21:43:23Z</time>
      </trkpt>
      <trkpt lat="46.17306" lon="-1.36542">
        <ele>7.2</ele>
        <time>2020-05-31T21:43:24Z</time>
      </trkpt>
      <trkpt lat="46.17308" lon="-1.36547">
        <ele>7.2</ele>
        <time>2020-05-31T21:43:25Z</time>
      </trkpt>
      <trkpt lat="46.17313" lon="-1.36553">
        <ele>7.3</ele>
        <time>2020-05-31T21:43:26Z</time>
      </trkpt>
      <trkpt lat="46.17317" lon="-1.36558">
        <ele>7.4</ele>
        <time>2020-05-31T21:43:27Z</time>
      </trkpt>
      <trkpt lat="46.17321" lon="-1.36561">
        <ele>7.5</ele>
        <time>2020-05-31T21:43:28Z</time>
      </trkpt>
      <trkpt lat="46.17324" lon="-1.36565">
        <ele>7.5</ele>
        <time>2020-05-31T21:43:29Z</time>
      </trkpt>
      <trkpt lat="46.17327" lon="-1.36569">
        <ele>7.6</ele>
        <time>2020-05-31T21:43:30Z</time>
      </trkpt>
      <trkpt lat="46.17329" lon="-1.36574">
        <ele>7.6</ele>
        <time>2020-05-31T21:43:31Z</time>
      </trkpt>
      <trkpt lat="46.17333" lon="-1.36579">
        <ele>7.7</ele>
        <time>2020-05-31T21:43:32Z</time>
      </trkpt>
      <trkpt lat="46.17337" lon="-1.36585">
        <ele>7.7</ele>
        <time>2020-05-31T21:43:33Z</time>
      </trkpt>
      <trkpt lat="46.1734" lon="-1.36589">
        <ele>7.7</ele>
        <time>2020-05-31T21:43:34Z</time>
      </trkpt>
      <trkpt lat="46.17342" lon="-1.36593">
        <ele>7.7</ele>
        <time>2020-05-31T21:43:35Z</time>
      </trkpt>
      <trkpt lat="46.17344" lon="-1.36599">
        <ele>7.8</ele>
        <time>2020-05-31T21:43:36Z</time>
      </trkpt>
      <trkpt lat="46.17348" lon="-1.36604">
        <ele>7.9</ele>
        <time>2020-05-31T21:43:37Z</time>
      </trkpt>
      <trkpt lat="46.17351" lon="-1.36609">
        <ele>7.9</ele>
        <time>2020-05-31T21:43:38Z</time>
      </trkpt>
      <trkpt lat="46.17355" lon="-1.36617">
        <ele>8.1</ele>
        <time>2020-05-31T21:43:39Z</time>
      </trkpt>
      <trkpt lat="46.17358" lon="-1.36621">
        <ele>8.2</ele>
        <time>2020-05-31T21:43:40Z</time>
      </trkpt>
      <trkpt lat="46.17362" lon="-1.36626">
        <ele>8.3</ele>
        <time>2020-05-31T21:43:41Z</time>
      </trkpt>
      <trkpt lat="46.17365" lon="-1.3663">
        <ele>8.4</ele>
        <time>2020-05-31T21:43:42Z</time>
      </trkpt>
      <trkpt lat="46.17369" lon="-1.36635">
        <ele>8.6</ele>
        <time>2020-05-31T21:43:43Z</time>
      </trkpt>
      <trkpt lat="46.17371" lon="-1.36641">
        <ele>8.6</ele>
        <time>2020-05-31T21:43:44Z</time>
      </trkpt>
      <trkpt lat="46.17374" lon="-1.36646">
        <ele>8.7</ele>
        <time>2020-05-31T21:43:45Z</time>
      </trkpt>
      <trkpt lat="46.17377" lon="-1.3665">
        <ele>8.7</ele>
        <time>2020-05-31T21:43:46Z</time>
      </trkpt>
      <trkpt lat="46.17379" lon="-1.36653">
        <ele>8.8</ele>
        <time>2020-05-31T21:43:47Z</time>
      </trkpt>
      <trkpt lat="46.17382" lon="-1.3666">
        <ele>8.8</ele>
        <time>2020-05-31T21:43:48Z</time>
      </trkpt>
      <trkpt lat="46.17384" lon="-1.36664">
        <ele>8.8</ele>
        <time>2020-05-31T21:43:49Z</time>
      </trkpt>
      <trkpt lat="46.17387" lon="-1.36669">
        <ele>8.8</ele>
        <time>2020-05-31T21:43:50Z</time>
      </trkpt>
      <trkpt lat="46.17389" lon="-1.36673">
        <ele>8.9</ele>
        <time>2020-05-31T21:43:51Z</time>
      </trkpt>
      <trkpt lat="46.17392" lon="-1.36678">
        <ele>8.9</ele>
        <time>2020-05-31T21:43:52Z</time>
      </trkpt>
      <trkpt lat="46.17394" lon="-1.36683">
        <ele>8.9</ele>
        <time>2020-05-31T21:43:53Z</time>
      </trkpt>
      <trkpt lat="46.17397" lon="-1.36688">
        <ele>8.9</ele>
        <time>2020-05-31T21:43:54Z</time>
      </trkpt>
      <trkpt lat="46.17399" lon="-1.36694">
        <ele>9</ele>
        <time>2020-05-31T21:43:55Z</time>
      </trkpt>
      <trkpt lat="46.17402" lon="-1.36699">
        <ele>9</ele>
        <time>2020-05-31T21:43:56Z</time>
      </trkpt>
      <trkpt lat="46.17405" lon="-1.36705">
        <ele>9.1</ele>
        <time>2020-05-31T21:43:57Z</time>
      </trkpt>
      <trkpt lat="46.17407" lon="-1.3671">
        <ele>9.1</ele>
        <time>2020-05-31T21:43:58Z</time>
      </trkpt>
      <trkpt lat="46.17411" lon="-1.36715">
        <ele>9.2</ele>
        <time>2020-05-31T21:43:59Z</time>
      </trkpt>
      <trkpt lat="46.17414" lon="-1.3672">
        <ele>9.2</ele>
        <time>2020-05-31T21:44:00Z</time>
      </trkpt>
      <trkpt lat="46.17418" lon="-1.36725">
        <ele>9.3</ele>
        <time>2020-05-31T21:44:01Z</time>
      </trkpt>
      <trkpt lat="46.1742" lon="-1.3673">
        <ele>9.3</ele>
        <time>2020-05-31T21:44:02Z</time>
      </trkpt>
      <trkpt lat="46.17422" lon="-1.36735">
        <ele>9.4</ele>
        <time>2020-05-31T21:44:03Z</time>
      </trkpt>
      <trkpt lat="46.17426" lon="-1.36739">
        <ele>9.4</ele>
        <time>2020-05-31T21:44:04Z</time>
      </trkpt>
      <trkpt lat="46.17428" lon="-1.36742">
        <ele>9.4</ele>
        <time>2020-05-31T21:44:05Z</time>
      </trkpt>
      <trkpt lat="46.17432" lon="-1.36742">
        <ele>9.5</ele>
        <time>2020-05-31T21:44:06Z</time>
      </trkpt>
      <trkpt lat="46.17433" lon="-1.36744">
        <ele>9.5</ele>
        <time>2020-05-31T21:44:07Z</time>
      </trkpt>
      <trkpt lat="46.17437" lon="-1.36748">
        <ele>9.5</ele>
        <time>2020-05-31T21:44:08Z</time>
      </trkpt>
      <trkpt lat="46.17441" lon="-1.36753">
        <ele>9.6</ele>
        <time>2020-05-31T21:44:09Z</time>
      </trkpt>
      <trkpt lat="46.17446" lon="-1.36759">
        <ele>9.6</ele>
        <time>2020-05-31T21:44:10Z</time>
      </trkpt>
      <trkpt lat="46.1745" lon="-1.36763">
        <ele>9.7</ele>
        <time>2020-05-31T21:44:11Z</time>
      </trkpt>
      <trkpt lat="46.17454" lon="-1.36766">
        <ele>9.7</ele>
        <time>2020-05-31T21:44:12Z</time>
      </trkpt>
      <trkpt lat="46.17457" lon="-1.3677">
        <ele>9.8</ele>
        <time>2020-05-31T21:44:13Z</time>
      </trkpt>
      <trkpt lat="46.17461" lon="-1.36774">
        <ele>9.8</ele>
        <time>2020-05-31T21:44:14Z</time>
      </trkpt>
      <trkpt lat="46.17465" lon="-1.36777">
        <ele>9.8</ele>
        <time>2020-05-31T21:44:15Z</time>
      </trkpt>
      <trkpt lat="46.17468" lon="-1.36783">
        <ele>9.8</ele>
        <time>2020-05-31T21:44:16Z</time>
      </trkpt>
      <trkpt lat="46.17473" lon="-1.36785">
        <ele>9.8</ele>
        <time>2020-05-31T21:44:17Z</time>
      </trkpt>
      <trkpt lat="46.17478" lon="-1.36787">
        <ele>9.8</ele>
        <time>2020-05-31T21:44:18Z</time>
      </trkpt>
      <trkpt lat="46.17483" lon="-1.36788">
        <ele>9.8</ele>
        <time>2020-05-31T21:44:19Z</time>
      </trkpt>
      <trkpt lat="46.17487" lon="-1.36791">
        <ele>9.8</ele>
        <time>2020-05-31T21:44:20Z</time>
      </trkpt>
      <trkpt lat="46.17492" lon="-1.36796">
        <ele>9.8</ele>
        <time>2020-05-31T21:44:21Z</time>
      </trkpt>
      <trkpt lat="46.17497" lon="-1.36799">
        <ele>9.8</ele>
        <time>2020-05-31T21:44:22Z</time>
      </trkpt>
      <trkpt lat="46.17502" lon="-1.36802">
        <ele>9.8</ele>
        <time>2020-05-31T21:44:23Z</time>
      </trkpt>
      <trkpt lat="46.17506" lon="-1.36804">
        <ele>9.8</ele>
        <time>2020-05-31T21:44:24Z</time>
      </trkpt>
      <trkpt lat="46.17511" lon="-1.36807">
        <ele>9.8</ele>
        <time>2020-05-31T21:44:25Z</time>
      </trkpt>
      <trkpt lat="46.17515" lon="-1.36809">
        <ele>9.8</ele>
        <time>2020-05-31T21:44:26Z</time>
      </trkpt>
      <trkpt lat="46.17521" lon="-1.36814">
        <ele>9.8</ele>
        <time>2020-05-31T21:44:27Z</time>
      </trkpt>
      <trkpt lat="46.17525" lon="-1.36817">
        <ele>9.8</ele>
        <time>2020-05-31T21:44:28Z</time>
      </trkpt>
      <trkpt lat="46.1753" lon="-1.3682">
        <ele>9.8</ele>
        <time>2020-05-31T21:44:29Z</time>
      </trkpt>
      <trkpt lat="46.17535" lon="-1.36824">
        <ele>9.8</ele>
        <time>2020-05-31T21:44:30Z</time>
      </trkpt>
      <trkpt lat="46.1754" lon="-1.36828">
        <ele>9.8</ele>
        <time>2020-05-31T21:44:31Z</time>
      </trkpt>
      <trkpt lat="46.17545" lon="-1.36832">
        <ele>9.8</ele>
        <time>2020-05-31T21:44:32Z</time>
      </trkpt>
      <trkpt lat="46.1755" lon="-1.36835">
        <ele>9.8</ele>
        <time>2020-05-31T21:44:33Z</time>
      </trkpt>
      <trkpt lat="46.17554" lon="-1.36838">
        <ele>9.8</ele>
        <time>2020-05-31T21:44:34Z</time>
      </trkpt>
      <trkpt lat="46.17558" lon="-1.36842">
        <ele>9.8</ele>
        <time>2020-05-31T21:44:35Z</time>
      </trkpt>
      <trkpt lat="46.17559" lon="-1.36845">
        <ele>9.8</ele>
        <time>2020-05-31T21:44:36Z</time>
      </trkpt>
      <trkpt lat="46.17564" lon="-1.3685">
        <ele>9.8</ele>
        <time>2020-05-31T21:44:37Z</time>
      </trkpt>
      <trkpt lat="46.1757" lon="-1.36856">
        <ele>9.8</ele>
        <time>2020-05-31T21:44:38Z</time>
      </trkpt>
      <trkpt lat="46.17574" lon="-1.36862">
        <ele>9.8</ele>
        <time>2020-05-31T21:44:39Z</time>
      </trkpt>
      <trkpt lat="46.17579" lon="-1.36865">
        <ele>9.8</ele>
        <time>2020-05-31T21:44:40Z</time>
      </trkpt>
      <trkpt lat="46.17583" lon="-1.3687">
        <ele>9.8</ele>
        <time>2020-05-31T21:44:41Z</time>
      </trkpt>
      <trkpt lat="46.17588" lon="-1.36875">
        <ele>9.7</ele>
        <time>2020-05-31T21:44:42Z</time>
      </trkpt>
      <trkpt lat="46.17591" lon="-1.3688">
        <ele>9.7</ele>
        <time>2020-05-31T21:44:43Z</time>
      </trkpt>
      <trkpt lat="46.17595" lon="-1.36886">
        <ele>9.6</ele>
        <time>2020-05-31T21:44:44Z</time>
      </trkpt>
      <trkpt lat="46.17599" lon="-1.3689">
        <ele>9.5</ele>
        <time>2020-05-31T21:44:45Z</time>
      </trkpt>
      <trkpt lat="46.17602" lon="-1.36893">
        <ele>9.5</ele>
        <time>2020-05-31T21:44:46Z</time>
      </trkpt>
      <trkpt lat="46.17605" lon="-1.36901">
        <ele>9.4</ele>
        <time>2020-05-31T21:44:47Z</time>
      </trkpt>
      <trkpt lat="46.17609" lon="-1.3691">
        <ele>9.2</ele>
        <time>2020-05-31T21:44:48Z</time>
      </trkpt>
      <trkpt lat="46.17613" lon="-1.36919">
        <ele>9.1</ele>
        <time>2020-05-31T21:44:49Z</time>
      </trkpt>
      <trkpt lat="46.17616" lon="-1.36927">
        <ele>9</ele>
        <time>2020-05-31T21:44:50Z</time>
      </trkpt>
      <trkpt lat="46.17619" lon="-1.36937">
        <ele>8.9</ele>
        <time>2020-05-31T21:44:51Z</time>
      </trkpt>
      <trkpt lat="46.17622" lon="-1.36945">
        <ele>8.9</ele>
        <time>2020-05-31T21:44:52Z</time>
      </trkpt>
      <trkpt lat="46.17625" lon="-1.36953">
        <ele>8.8</ele>
        <time>2020-05-31T21:44:53Z</time>
      </trkpt>
      <trkpt lat="46.17628" lon="-1.3696">
        <ele>8.8</ele>
        <time>2020-05-31T21:44:54Z</time>
      </trkpt>
      <trkpt lat="46.17631" lon="-1.36968">
        <ele>8.8</ele>
        <time>2020-05-31T21:44:55Z</time>
      </trkpt>
      <trkpt lat="46.17635" lon="-1.36975">
        <ele>8.8</ele>
        <time>2020-05-31T21:44:56Z</time>
      </trkpt>
      <trkpt lat="46.17638" lon="-1.36982">
        <ele>8.8</ele>
        <time>2020-05-31T21:44:57Z</time>
      </trkpt>
      <trkpt lat="46.1764" lon="-1.36989">
        <ele>8.8</ele>
        <time>2020-05-31T21:44:58Z</time>
      </trkpt>
      <trkpt lat="46.17643" lon="-1.36997">
        <ele>8.7</ele>
        <time>2020-05-31T21:44:59Z</time>
      </trkpt>
      <trkpt lat="46.17645" lon="-1.37003">
        <ele>8.7</ele>
        <time>2020-05-31T21:45:00Z</time>
      </trkpt>
      <trkpt lat="46.17648" lon="-1.37008">
        <ele>8.7</ele>
        <time>2020-05-31T21:45:01Z</time>
      </trkpt>
      <trkpt lat="46.17653" lon="-1.37013">
        <ele>8.7</ele>
        <time>2020-05-31T21:45:02Z</time>
      </trkpt>
      <trkpt lat="46.17658" lon="-1.37016">
        <ele>8.6</ele>
        <time>2020-05-31T21:45:03Z</time>
      </trkpt>
      <trkpt lat="46.17664" lon="-1.3702">
        <ele>8.6</ele>
        <time>2020-05-31T21:45:04Z</time>
      </trkpt>
      <trkpt lat="46.17668" lon="-1.37023">
        <ele>8.5</ele>
        <time>2020-05-31T21:45:05Z</time>
      </trkpt>
      <trkpt lat="46.17672" lon="-1.37025">
        <ele>8.5</ele>
        <time>2020-05-31T21:45:06Z</time>
      </trkpt>
      <trkpt lat="46.17678" lon="-1.37027">
        <ele>8.4</ele>
        <time>2020-05-31T21:45:07Z</time>
      </trkpt>
      <trkpt lat="46.17684" lon="-1.37028">
        <ele>8.3</ele>
        <time>2020-05-31T21:45:08Z</time>
      </trkpt>
      <trkpt lat="46.17689" lon="-1.3703">
        <ele>8.3</ele>
        <time>2020-05-31T21:45:09Z</time>
      </trkpt>
      <trkpt lat="46.17694" lon="-1.37031">
        <ele>8.2</ele>
        <time>2020-05-31T21:45:10Z</time>
      </trkpt>
      <trkpt lat="46.17699" lon="-1.37033">
        <ele>8.1</ele>
        <time>2020-05-31T21:45:11Z</time>
      </trkpt>
      <trkpt lat="46.17706" lon="-1.37034">
        <ele>8</ele>
        <time>2020-05-31T21:45:12Z</time>
      </trkpt>
      <trkpt lat="46.17711" lon="-1.37037">
        <ele>7.9</ele>
        <time>2020-05-31T21:45:13Z</time>
      </trkpt>
      <trkpt lat="46.17716" lon="-1.37039">
        <ele>7.8</ele>
        <time>2020-05-31T21:45:14Z</time>
      </trkpt>
      <trkpt lat="46.17721" lon="-1.37041">
        <ele>7.8</ele>
        <time>2020-05-31T21:45:15Z</time>
      </trkpt>
      <trkpt lat="46.17726" lon="-1.37044">
        <ele>7.7</ele>
        <time>2020-05-31T21:45:16Z</time>
      </trkpt>
      <trkpt lat="46.17732" lon="-1.37047">
        <ele>7.6</ele>
        <time>2020-05-31T21:45:17Z</time>
      </trkpt>
      <trkpt lat="46.17737" lon="-1.3705">
        <ele>7.5</ele>
        <time>2020-05-31T21:45:18Z</time>
      </trkpt>
      <trkpt lat="46.17746" lon="-1.37056">
        <ele>7.3</ele>
        <time>2020-05-31T21:45:19Z</time>
      </trkpt>
      <trkpt lat="46.17752" lon="-1.37061">
        <ele>7.2</ele>
        <time>2020-05-31T21:45:20Z</time>
      </trkpt>
      <trkpt lat="46.17757" lon="-1.37066">
        <ele>7.1</ele>
        <time>2020-05-31T21:45:21Z</time>
      </trkpt>
      <trkpt lat="46.17763" lon="-1.37071">
        <ele>6.9</ele>
        <time>2020-05-31T21:45:22Z</time>
      </trkpt>
      <trkpt lat="46.17768" lon="-1.37075">
        <ele>6.8</ele>
        <time>2020-05-31T21:45:23Z</time>
      </trkpt>
      <trkpt lat="46.17774" lon="-1.3708">
        <ele>6.6</ele>
        <time>2020-05-31T21:45:24Z</time>
      </trkpt>
      <trkpt lat="46.17781" lon="-1.37087">
        <ele>6.4</ele>
        <time>2020-05-31T21:45:25Z</time>
      </trkpt>
      <trkpt lat="46.17788" lon="-1.37095">
        <ele>6.2</ele>
        <time>2020-05-31T21:45:26Z</time>
      </trkpt>
      <trkpt lat="46.17793" lon="-1.37102">
        <ele>6.1</ele>
        <time>2020-05-31T21:45:27Z</time>
      </trkpt>
      <trkpt lat="46.17798" lon="-1.3711">
        <ele>6</ele>
        <time>2020-05-31T21:45:28Z</time>
      </trkpt>
      <trkpt lat="46.17802" lon="-1.37118">
        <ele>5.9</ele>
        <time>2020-05-31T21:45:29Z</time>
      </trkpt>
      <trkpt lat="46.17807" lon="-1.37126">
        <ele>5.8</ele>
        <time>2020-05-31T21:45:30Z</time>
      </trkpt>
      <trkpt lat="46.17811" lon="-1.37133">
        <ele>5.8</ele>
        <time>2020-05-31T21:45:31Z</time>
      </trkpt>
      <trkpt lat="46.17816" lon="-1.3714">
        <ele>5.7</ele>
        <time>2020-05-31T21:45:32Z</time>
      </trkpt>
      <trkpt lat="46.1782" lon="-1.37146">
        <ele>5.7</ele>
        <time>2020-05-31T21:45:33Z</time>
      </trkpt>
      <trkpt lat="46.17825" lon="-1.37154">
        <ele>5.7</ele>
        <time>2020-05-31T21:45:34Z</time>
      </trkpt>
      <trkpt lat="46.17829" lon="-1.3716">
        <ele>5.7</ele>
        <time>2020-05-31T21:45:35Z</time>
      </trkpt>
      <trkpt lat="46.17834" lon="-1.37166">
        <ele>5.8</ele>
        <time>2020-05-31T21:45:36Z</time>
      </trkpt>
      <trkpt lat="46.17838" lon="-1.37173">
        <ele>5.9</ele>
        <time>2020-05-31T21:45:37Z</time>
      </trkpt>
      <trkpt lat="46.17843" lon="-1.37179">
        <ele>5.9</ele>
        <time>2020-05-31T21:45:38Z</time>
      </trkpt>
      <trkpt lat="46.17846" lon="-1.37186">
        <ele>6</ele>
        <time>2020-05-31T21:45:39Z</time>
      </trkpt>
      <trkpt lat="46.1785" lon="-1.3719">
        <ele>6.1</ele>
        <time>2020-05-31T21:45:40Z</time>
      </trkpt>
      <trkpt lat="46.17855" lon="-1.37194">
        <ele>6.2</ele>
        <time>2020-05-31T21:45:41Z</time>
      </trkpt>
      <trkpt lat="46.17858" lon="-1.372">
        <ele>6.3</ele>
        <time>2020-05-31T21:45:42Z</time>
      </trkpt>
      <trkpt lat="46.1786" lon="-1.37207">
        <ele>6.4</ele>
        <time>2020-05-31T21:45:43Z</time>
      </trkpt>
      <trkpt lat="46.17861" lon="-1.37215">
        <ele>6.5</ele>
        <time>2020-05-31T21:45:44Z</time>
      </trkpt>
      <trkpt lat="46.17861" lon="-1.37222">
        <ele>6.6</ele>
        <time>2020-05-31T21:45:45Z</time>
      </trkpt>
      <trkpt lat="46.1786" lon="-1.3723">
        <ele>6.7</ele>
        <time>2020-05-31T21:45:46Z</time>
      </trkpt>
      <trkpt lat="46.17861" lon="-1.37238">
        <ele>6.8</ele>
        <time>2020-05-31T21:45:47Z</time>
      </trkpt>
      <trkpt lat="46.17859" lon="-1.37245">
        <ele>6.9</ele>
        <time>2020-05-31T21:45:48Z</time>
      </trkpt>
      <trkpt lat="46.17858" lon="-1.37251">
        <ele>7</ele>
        <time>2020-05-31T21:45:49Z</time>
      </trkpt>
      <trkpt lat="46.17857" lon="-1.37258">
        <ele>7.1</ele>
        <time>2020-05-31T21:45:50Z</time>
      </trkpt>
      <trkpt lat="46.17855" lon="-1.37265">
        <ele>7.2</ele>
        <time>2020-05-31T21:45:51Z</time>
      </trkpt>
      <trkpt lat="46.17855" lon="-1.37273">
        <ele>7.2</ele>
        <time>2020-05-31T21:45:52Z</time>
      </trkpt>
      <trkpt lat="46.17856" lon="-1.37281">
        <ele>7.3</ele>
        <time>2020-05-31T21:45:53Z</time>
      </trkpt>
      <trkpt lat="46.17858" lon="-1.37288">
        <ele>7.4</ele>
        <time>2020-05-31T21:45:54Z</time>
      </trkpt>
      <trkpt lat="46.17859" lon="-1.37295">
        <ele>7.4</ele>
        <time>2020-05-31T21:45:55Z</time>
      </trkpt>
      <trkpt lat="46.17858" lon="-1.37303">
        <ele>7.4</ele>
        <time>2020-05-31T21:45:56Z</time>
      </trkpt>
      <trkpt lat="46.17857" lon="-1.37311">
        <ele>7.4</ele>
        <time>2020-05-31T21:45:57Z</time>
      </trkpt>
      <trkpt lat="46.17857" lon="-1.37319">
        <ele>7.4</ele>
        <time>2020-05-31T21:45:58Z</time>
      </trkpt>
      <trkpt lat="46.17858" lon="-1.37327">
        <ele>7.4</ele>
        <time>2020-05-31T21:45:59Z</time>
      </trkpt>
      <trkpt lat="46.1786" lon="-1.37333">
        <ele>7.4</ele>
        <time>2020-05-31T21:46:00Z</time>
      </trkpt>
      <trkpt lat="46.17861" lon="-1.3734">
        <ele>7.4</ele>
        <time>2020-05-31T21:46:01Z</time>
      </trkpt>
      <trkpt lat="46.17863" lon="-1.37347">
        <ele>7.4</ele>
        <time>2020-05-31T21:46:02Z</time>
      </trkpt>
      <trkpt lat="46.17866" lon="-1.37352">
        <ele>7.4</ele>
        <time>2020-05-31T21:46:03Z</time>
      </trkpt>
      <trkpt lat="46.17869" lon="-1.37357">
        <ele>7.4</ele>
        <time>2020-05-31T21:46:04Z</time>
      </trkpt>
      <trkpt lat="46.17871" lon="-1.37362">
        <ele>7.4</ele>
        <time>2020-05-31T21:46:05Z</time>
      </trkpt>
      <trkpt lat="46.17873" lon="-1.37366">
        <ele>7.4</ele>
        <time>2020-05-31T21:46:06Z</time>
      </trkpt>
      <trkpt lat="46.17876" lon="-1.37369">
        <ele>7.4</ele>
        <time>2020-05-31T21:46:07Z</time>
      </trkpt>
      <trkpt lat="46.17878" lon="-1.37374">
        <ele>7.4</ele>
        <time>2020-05-31T21:46:08Z</time>
      </trkpt>
      <trkpt lat="46.1788" lon="-1.37378">
        <ele>7.4</ele>
        <time>2020-05-31T21:46:09Z</time>
      </trkpt>
      <trkpt lat="46.17881" lon="-1.37381">
        <ele>7.4</ele>
        <time>2020-05-31T21:46:10Z</time>
      </trkpt>
      <trkpt lat="46.17881" lon="-1.37384">
        <ele>7.4</ele>
        <time>2020-05-31T21:46:11Z</time>
      </trkpt>
      <trkpt lat="46.17881" lon="-1.37386">
        <ele>7.4</ele>
        <time>2020-05-31T21:46:12Z</time>
      </trkpt>
      <trkpt lat="46.17883" lon="-1.37386">
        <ele>7.4</ele>
        <time>2020-05-31T21:46:13Z</time>
      </trkpt>
      <trkpt lat="46.17882" lon="-1.37387">
        <ele>7.4</ele>
        <time>2020-05-31T21:46:14Z</time>
      </trkpt>
      <trkpt lat="46.17882" lon="-1.37387">
        <ele>7.4</ele>
        <time>2020-05-31T21:46:15Z</time>
      </trkpt>
      <trkpt lat="46.17882" lon="-1.37388">
        <ele>7.4</ele>
        <time>2020-05-31T21:46:16Z</time>
      </trkpt>
      <trkpt lat="46.17881" lon="-1.37388">
        <ele>7.4</ele>
        <time>2020-05-31T21:46:17Z</time>
      </trkpt>
      <trkpt lat="46.17882" lon="-1.37388">
        <ele>7.4</ele>
        <time>2020-05-31T21:46:18Z</time>
      </trkpt>
      <trkpt lat="46.17882" lon="-1.37388">
        <ele>7.4</ele>
        <time>2020-05-31T21:46:19Z</time>
      </trkpt>
      <trkpt lat="46.17883" lon="-1.37388">
        <ele>7.4</ele>
        <time>2020-05-31T21:46:20Z</time>
      </trkpt>
      <trkpt lat="46.17883" lon="-1.37389">
        <ele>7.3</ele>
        <time>2020-05-31T21:46:21Z</time>
      </trkpt>
      <trkpt lat="46.17884" lon="-1.37389">
        <ele>7.3</ele>
        <time>2020-05-31T21:46:22Z</time>
      </trkpt>
      <trkpt lat="46.17884" lon="-1.37388">
        <ele>7.3</ele>
        <time>2020-05-31T21:46:23Z</time>
      </trkpt>
      <trkpt lat="46.17885" lon="-1.37388">
        <ele>7.3</ele>
        <time>2020-05-31T21:46:24Z</time>
      </trkpt>
      <trkpt lat="46.17885" lon="-1.37388">
        <ele>7.3</ele>
        <time>2020-05-31T21:46:25Z</time>
      </trkpt>
      <trkpt lat="46.17883" lon="-1.37389">
        <ele>7.3</ele>
        <time>2020-05-31T21:46:26Z</time>
      </trkpt>
      <trkpt lat="46.17883" lon="-1.37389">
        <ele>7.3</ele>
        <time>2020-05-31T21:46:27Z</time>
      </trkpt>
      <trkpt lat="46.17883" lon="-1.37389">
        <ele>7.3</ele>
        <time>2020-05-31T21:46:28Z</time>
      </trkpt>
      <trkpt lat="46.17884" lon="-1.37388">
        <ele>7.3</ele>
        <time>2020-05-31T21:46:29Z</time>
      </trkpt>
      <trkpt lat="46.17884" lon="-1.37388">
        <ele>7.3</ele>
        <time>2020-05-31T21:46:30Z</time>
      </trkpt>
      <trkpt lat="46.17884" lon="-1.37388">
        <ele>7.3</ele>
        <time>2020-05-31T21:46:31Z</time>
      </trkpt>
      <trkpt lat="46.17883" lon="-1.37389">
        <ele>7.3</ele>
        <time>2020-05-31T21:46:32Z</time>
      </trkpt>
      <trkpt lat="46.17884" lon="-1.37389">
        <ele>7.3</ele>
        <time>2020-05-31T21:46:33Z</time>
      </trkpt>
      <trkpt lat="46.17884" lon="-1.37388">
        <ele>7.3</ele>
        <time>2020-05-31T21:46:34Z</time>
      </trkpt>
      <trkpt lat="46.17885" lon="-1.37387">
        <ele>7.3</ele>
        <time>2020-05-31T21:46:35Z</time>
      </trkpt>
      <trkpt lat="46.17885" lon="-1.37387">
        <ele>7.3</ele>
        <time>2020-05-31T21:46:36Z</time>
      </trkpt>
      <trkpt lat="46.17884" lon="-1.37389">
        <ele>7.3</ele>
        <time>2020-05-31T21:46:37Z</time>
      </trkpt>
      <trkpt lat="46.17884" lon="-1.3739">
        <ele>7.3</ele>
        <time>2020-05-31T21:46:38Z</time>
      </trkpt>
      <trkpt lat="46.17884" lon="-1.3739">
        <ele>7.3</ele>
        <time>2020-05-31T21:46:39Z</time>
      </trkpt>
      <trkpt lat="46.17885" lon="-1.37389">
        <ele>7.3</ele>
        <time>2020-05-31T21:46:40Z</time>
      </trkpt>
      <trkpt lat="46.17884" lon="-1.3739">
        <ele>7.3</ele>
        <time>2020-05-31T21:46:41Z</time>
      </trkpt>
      <trkpt lat="46.17885" lon="-1.3739">
        <ele>7.3</ele>
        <time>2020-05-31T21:46:42Z</time>
      </trkpt>
      <trkpt lat="46.17886" lon="-1.37388">
        <ele>7.3</ele>
        <time>2020-05-31T21:46:43Z</time>
      </trkpt>
      <trkpt lat="46.17886" lon="-1.37388">
        <ele>7.3</ele>
        <time>2020-05-31T21:46:44Z</time>
      </trkpt>
      <trkpt lat="46.17887" lon="-1.37388">
        <ele>7.3</ele>
        <time>2020-05-31T21:46:45Z</time>
      </trkpt>
      <trkpt lat="46.17887" lon="-1.37388">
        <ele>7.3</ele>
        <time>2020-05-31T21:46:46Z</time>
      </trkpt>
      <trkpt lat="46.17887" lon="-1.37387">
        <ele>7.3</ele>
        <time>2020-05-31T21:46:47Z</time>
      </trkpt>
      <trkpt lat="46.17888" lon="-1.37386">
        <ele>7.3</ele>
        <time>2020-05-31T21:46:48Z</time>
      </trkpt>
      <trkpt lat="46.17888" lon="-1.37386">
        <ele>7.3</ele>
        <time>2020-05-31T21:46:49Z</time>
      </trkpt>
      <trkpt lat="46.17889" lon="-1.37385">
        <ele>7.3</ele>
        <time>2020-05-31T21:46:50Z</time>
      </trkpt>
      <trkpt lat="46.17888" lon="-1.37386">
        <ele>7.3</ele>
        <time>2020-05-31T21:46:51Z</time>
      </trkpt>
      <trkpt lat="46.17888" lon="-1.37386">
        <ele>7.3</ele>
        <time>2020-05-31T21:46:52Z</time>
      </trkpt>
      <trkpt lat="46.17887" lon="-1.37387">
        <ele>7.3</ele>
        <time>2020-05-31T21:46:53Z</time>
      </trkpt>
      <trkpt lat="46.17887" lon="-1.37387">
        <ele>7.3</ele>
        <time>2020-05-31T21:46:54Z</time>
      </trkpt>
      <trkpt lat="46.17887" lon="-1.37388">
        <ele>7.3</ele>
        <time>2020-05-31T21:46:55Z</time>
      </trkpt>
      <trkpt lat="46.17887" lon="-1.37389">
        <ele>7.3</ele>
        <time>2020-05-31T21:46:56Z</time>
      </trkpt>
      <trkpt lat="46.17886" lon="-1.3739">
        <ele>7.3</ele>
        <time>2020-05-31T21:46:57Z</time>
      </trkpt>
      <trkpt lat="46.17887" lon="-1.37391">
        <ele>7.3</ele>
        <time>2020-05-31T21:46:58Z</time>
      </trkpt>
      <trkpt lat="46.17887" lon="-1.37391">
        <ele>7.3</ele>
        <time>2020-05-31T21:46:59Z</time>
      </trkpt>
      <trkpt lat="46.17886" lon="-1.37391">
        <ele>7.3</ele>
        <time>2020-05-31T21:47:00Z</time>
      </trkpt>
      <trkpt lat="46.17886" lon="-1.37392">
        <ele>7.3</ele>
        <time>2020-05-31T21:47:01Z</time>
      </trkpt>
      <trkpt lat="46.17885" lon="-1.37394">
        <ele>7.3</ele>
        <time>2020-05-31T21:47:02Z</time>
      </trkpt>
      <trkpt lat="46.17885" lon="-1.37395">
        <ele>7.3</ele>
        <time>2020-05-31T21:47:03Z</time>
      </trkpt>
      <trkpt lat="46.17885" lon="-1.37395">
        <ele>7.3</ele>
        <time>2020-05-31T21:47:04Z</time>
      </trkpt>
      <trkpt lat="46.17886" lon="-1.37393">
        <ele>7.3</ele>
        <time>2020-05-31T21:47:05Z</time>
      </trkpt>
      <trkpt lat="46.17886" lon="-1.37394">
        <ele>7.3</ele>
        <time>2020-05-31T21:47:06Z</time>
      </trkpt>
      <trkpt lat="46.17885" lon="-1.37394">
        <ele>7.3</ele>
        <time>2020-05-31T21:47:07Z</time>
      </trkpt>
      <trkpt lat="46.17885" lon="-1.37395">
        <ele>7.3</ele>
        <time>2020-05-31T21:47:08Z</time>
      </trkpt>
      <trkpt lat="46.17885" lon="-1.37393">
        <ele>7.3</ele>
        <time>2020-05-31T21:47:09Z</time>
      </trkpt>
      <trkpt lat="46.17885" lon="-1.37394">
        <ele>7.3</ele>
        <time>2020-05-31T21:47:10Z</time>
      </trkpt>
      <trkpt lat="46.17885" lon="-1.37394">
        <ele>7.3</ele>
        <time>2020-05-31T21:47:11Z</time>
      </trkpt>
      <trkpt lat="46.17885" lon="-1.37395">
        <ele>7.3</ele>
        <time>2020-05-31T21:47:12Z</time>
      </trkpt>
      <trkpt lat="46.17885" lon="-1.37395">
        <ele>7.3</ele>
        <time>2020-05-31T21:47:13Z</time>
      </trkpt>
      <trkpt lat="46.17886" lon="-1.37394">
        <ele>7.3</ele>
        <time>2020-05-31T21:47:14Z</time>
      </trkpt>
      <trkpt lat="46.17886" lon="-1.37394">
        <ele>7.3</ele>
        <time>2020-05-31T21:47:15Z</time>
      </trkpt>
      <trkpt lat="46.17886" lon="-1.37393">
        <ele>7.3</ele>
        <time>2020-05-31T21:47:16Z</time>
      </trkpt>
      <trkpt lat="46.17887" lon="-1.37393">
        <ele>7.3</ele>
        <time>2020-05-31T21:47:17Z</time>
      </trkpt>
      <trkpt lat="46.17887" lon="-1.37393">
        <ele>7.3</ele>
        <time>2020-05-31T21:47:18Z</time>
      </trkpt>
      <trkpt lat="46.17888" lon="-1.37392">
        <ele>7.2</ele>
        <time>2020-05-31T21:47:19Z</time>
      </trkpt>
      <trkpt lat="46.17889" lon="-1.37391">
        <ele>7.2</ele>
        <time>2020-05-31T21:47:20Z</time>
      </trkpt>
      <trkpt lat="46.17888" lon="-1.37392">
        <ele>7.2</ele>
        <time>2020-05-31T21:47:21Z</time>
      </trkpt>
      <trkpt lat="46.17888" lon="-1.37392">
        <ele>7.2</ele>
        <time>2020-05-31T21:47:22Z</time>
      </trkpt>
      <trkpt lat="46.17888" lon="-1.37393">
        <ele>7.2</ele>
        <time>2020-05-31T21:47:23Z</time>
      </trkpt>
      <trkpt lat="46.17888" lon="-1.37392">
        <ele>7.2</ele>
        <time>2020-05-31T21:47:24Z</time>
      </trkpt>
      <trkpt lat="46.17888" lon="-1.37392">
        <ele>7.2</ele>
        <time>2020-05-31T21:47:25Z</time>
      </trkpt>
      <trkpt lat="46.17889" lon="-1.37392">
        <ele>7.2</ele>
        <time>2020-05-31T21:47:26Z</time>
      </trkpt>
      <trkpt lat="46.17889" lon="-1.37391">
        <ele>7.2</ele>
        <time>2020-05-31T21:47:27Z</time>
      </trkpt>
      <trkpt lat="46.17889" lon="-1.37391">
        <ele>7.2</ele>
        <time>2020-05-31T21:47:28Z</time>
      </trkpt>
      <trkpt lat="46.17889" lon="-1.37391">
        <ele>7.2</ele>
        <time>2020-05-31T21:47:29Z</time>
      </trkpt>
      <trkpt lat="46.17889" lon="-1.37392">
        <ele>7.2</ele>
        <time>2020-05-31T21:47:30Z</time>
      </trkpt>
      <trkpt lat="46.17889" lon="-1.37391">
        <ele>7.2</ele>
        <time>2020-05-31T21:47:31Z</time>
      </trkpt>
      <trkpt lat="46.1789" lon="-1.3739">
        <ele>7.2</ele>
        <time>2020-05-31T21:47:32Z</time>
      </trkpt>
      <trkpt lat="46.17889" lon="-1.3739">
        <ele>7.2</ele>
        <time>2020-05-31T21:47:33Z</time>
      </trkpt>
      <trkpt lat="46.1789" lon="-1.37391">
        <ele>7.2</ele>
        <time>2020-05-31T21:47:34Z</time>
      </trkpt>
      <trkpt lat="46.1789" lon="-1.3739">
        <ele>7.2</ele>
        <time>2020-05-31T21:47:35Z</time>
      </trkpt>
      <trkpt lat="46.17891" lon="-1.3739">
        <ele>7.2</ele>
        <time>2020-05-31T21:47:36Z</time>
      </trkpt>
      <trkpt lat="46.17889" lon="-1.37392">
        <ele>7.2</ele>
        <time>2020-05-31T21:47:37Z</time>
      </trkpt>
      <trkpt lat="46.17889" lon="-1.37392">
        <ele>7.2</ele>
        <time>2020-05-31T21:47:38Z</time>
      </trkpt>
      <trkpt lat="46.17889" lon="-1.37393">
        <ele>7.2</ele>
        <time>2020-05-31T21:47:39Z</time>
      </trkpt>
      <trkpt lat="46.1789" lon="-1.37393">
        <ele>7.2</ele>
        <time>2020-05-31T21:47:40Z</time>
      </trkpt>
      <trkpt lat="46.1789" lon="-1.37393">
        <ele>7.2</ele>
        <time>2020-05-31T21:47:41Z</time>
      </trkpt>
      <trkpt lat="46.17889" lon="-1.37395">
        <ele>7.2</ele>
        <time>2020-05-31T21:47:42Z</time>
      </trkpt>
      <trkpt lat="46.17889" lon="-1.37396">
        <ele>7.2</ele>
        <time>2020-05-31T21:47:43Z</time>
      </trkpt>
      <trkpt lat="46.17888" lon="-1.37397">
        <ele>7.2</ele>
        <time>2020-05-31T21:47:44Z</time>
      </trkpt>
      <trkpt lat="46.17887" lon="-1.37398">
        <ele>7.2</ele>
        <time>2020-05-31T21:47:45Z</time>
      </trkpt>
      <trkpt lat="46.17888" lon="-1.37398">
        <ele>7.2</ele>
        <time>2020-05-31T21:47:46Z</time>
      </trkpt>
      <trkpt lat="46.17887" lon="-1.37397">
        <ele>7.2</ele>
        <time>2020-05-31T21:47:47Z</time>
      </trkpt>
      <trkpt lat="46.17887" lon="-1.37397">
        <ele>7.2</ele>
        <time>2020-05-31T21:47:48Z</time>
      </trkpt>
      <trkpt lat="46.17888" lon="-1.37396">
        <ele>7.2</ele>
        <time>2020-05-31T21:47:49Z</time>
      </trkpt>
      <trkpt lat="46.17888" lon="-1.37395">
        <ele>7.2</ele>
        <time>2020-05-31T21:47:50Z</time>
      </trkpt>
      <trkpt lat="46.17888" lon="-1.37396">
        <ele>7.2</ele>
        <time>2020-05-31T21:47:51Z</time>
      </trkpt>
      <trkpt lat="46.17888" lon="-1.37395">
        <ele>7.2</ele>
        <time>2020-05-31T21:47:52Z</time>
      </trkpt>
      <trkpt lat="46.17888" lon="-1.37396">
        <ele>7.2</ele>
        <time>2020-05-31T21:47:53Z</time>
      </trkpt>
      <trkpt lat="46.17888" lon="-1.37395">
        <ele>7.2</ele>
        <time>2020-05-31T21:47:54Z</time>
      </trkpt>
      <trkpt lat="46.17888" lon="-1.37396">
        <ele>7.2</ele>
        <time>2020-05-31T21:47:55Z</time>
      </trkpt>
      <trkpt lat="46.17888" lon="-1.37396">
        <ele>7.2</ele>
        <time>2020-05-31T21:47:56Z</time>
      </trkpt>
      <trkpt lat="46.17888" lon="-1.37395">
        <ele>7.2</ele>
        <time>2020-05-31T21:47:57Z</time>
      </trkpt>
      <trkpt lat="46.17888" lon="-1.37395">
        <ele>7.2</ele>
        <time>2020-05-31T21:47:58Z</time>
      </trkpt>
      <trkpt lat="46.17888" lon="-1.37396">
        <ele>7.2</ele>
        <time>2020-05-31T21:47:59Z</time>
      </trkpt>
      <trkpt lat="46.17888" lon="-1.37395">
        <ele>7.2</ele>
        <time>2020-05-31T21:48:00Z</time>
      </trkpt>
      <trkpt lat="46.17888" lon="-1.37395">
        <ele>7.2</ele>
        <time>2020-05-31T21:48:01Z</time>
      </trkpt>
      <trkpt lat="46.17887" lon="-1.37396">
        <ele>7.2</ele>
        <time>2020-05-31T21:48:02Z</time>
      </trkpt>
      <trkpt lat="46.17887" lon="-1.37396">
        <ele>7.2</ele>
        <time>2020-05-31T21:48:03Z</time>
      </trkpt>
      <trkpt lat="46.17886" lon="-1.37397">
        <ele>7.2</ele>
        <time>2020-05-31T21:48:04Z</time>
      </trkpt>
      <trkpt lat="46.17887" lon="-1.37396">
        <ele>7.2</ele>
        <time>2020-05-31T21:48:05Z</time>
      </trkpt>
      <trkpt lat="46.17887" lon="-1.37396">
        <ele>7.2</ele>
        <time>2020-05-31T21:48:06Z</time>
      </trkpt>
      <trkpt lat="46.17887" lon="-1.37396">
        <ele>7.2</ele>
        <time>2020-05-31T21:48:07Z</time>
      </trkpt>
      <trkpt lat="46.17888" lon="-1.37396">
        <ele>7.2</ele>
        <time>2020-05-31T21:48:08Z</time>
      </trkpt>
      <trkpt lat="46.17888" lon="-1.37396">
        <ele>7.2</ele>
        <time>2020-05-31T21:48:09Z</time>
      </trkpt>
      <trkpt lat="46.17888" lon="-1.37396">
        <ele>7.2</ele>
        <time>2020-05-31T21:48:10Z</time>
      </trkpt>
      <trkpt lat="46.17886" lon="-1.37398">
        <ele>7.2</ele>
        <time>2020-05-31T21:48:11Z</time>
      </trkpt>
      <trkpt lat="46.17887" lon="-1.37397">
        <ele>7.2</ele>
        <time>2020-05-31T21:48:12Z</time>
      </trkpt>
      <trkpt lat="46.17887" lon="-1.37396">
        <ele>7.2</ele>
        <time>2020-05-31T21:48:13Z</time>
      </trkpt>
      <trkpt lat="46.17887" lon="-1.37396">
        <ele>7.2</ele>
        <time>2020-05-31T21:48:14Z</time>
      </trkpt>
      <trkpt lat="46.17888" lon="-1.37394">
        <ele>7.2</ele>
        <time>2020-05-31T21:48:15Z</time>
      </trkpt>
      <trkpt lat="46.17889" lon="-1.37393">
        <ele>7.2</ele>
        <time>2020-05-31T21:48:16Z</time>
      </trkpt>
      <trkpt lat="46.17889" lon="-1.37393">
        <ele>7.2</ele>
        <time>2020-05-31T21:48:17Z</time>
      </trkpt>
      <trkpt lat="46.17889" lon="-1.37394">
        <ele>7.2</ele>
        <time>2020-05-31T21:48:18Z</time>
      </trkpt>
      <trkpt lat="46.17889" lon="-1.37393">
        <ele>7.2</ele>
        <time>2020-05-31T21:48:19Z</time>
      </trkpt>
      <trkpt lat="46.17889" lon="-1.37393">
        <ele>7.2</ele>
        <time>2020-05-31T21:48:20Z</time>
      </trkpt>
      <trkpt lat="46.17888" lon="-1.37394">
        <ele>7.2</ele>
        <time>2020-05-31T21:48:21Z</time>
      </trkpt>
      <trkpt lat="46.17886" lon="-1.37396">
        <ele>7.2</ele>
        <time>2020-05-31T21:48:22Z</time>
      </trkpt>
      <trkpt lat="46.17887" lon="-1.37397">
        <ele>7.2</ele>
        <time>2020-05-31T21:48:23Z</time>
      </trkpt>
      <trkpt lat="46.17887" lon="-1.37397">
        <ele>7.2</ele>
        <time>2020-05-31T21:48:24Z</time>
      </trkpt>
      <trkpt lat="46.17888" lon="-1.37397">
        <ele>7.2</ele>
        <time>2020-05-31T21:48:25Z</time>
      </trkpt>
      <trkpt lat="46.17889" lon="-1.37398">
        <ele>7.2</ele>
        <time>2020-05-31T21:48:26Z</time>
      </trkpt>
      <trkpt lat="46.1789" lon="-1.37398">
        <ele>7.2</ele>
        <time>2020-05-31T21:48:27Z</time>
      </trkpt>
      <trkpt lat="46.1789" lon="-1.37397">
        <ele>7.2</ele>
        <time>2020-05-31T21:48:28Z</time>
      </trkpt>
      <trkpt lat="46.1789" lon="-1.37397">
        <ele>7.2</ele>
        <time>2020-05-31T21:48:29Z</time>
      </trkpt>
      <trkpt lat="46.1789" lon="-1.37397">
        <ele>7.2</ele>
        <time>2020-05-31T21:48:30Z</time>
      </trkpt>
      <trkpt lat="46.1789" lon="-1.37397">
        <ele>7.2</ele>
        <time>2020-05-31T21:48:31Z</time>
      </trkpt>
      <trkpt lat="46.1789" lon="-1.37397">
        <ele>7.2</ele>
        <time>2020-05-31T21:48:32Z</time>
      </trkpt>
      <trkpt lat="46.17889" lon="-1.37399">
        <ele>7.2</ele>
        <time>2020-05-31T21:48:33Z</time>
      </trkpt>
      <trkpt lat="46.1789" lon="-1.37398">
        <ele>7.2</ele>
        <time>2020-05-31T21:48:34Z</time>
      </trkpt>
      <trkpt lat="46.1789" lon="-1.37397">
        <ele>7.2</ele>
        <time>2020-05-31T21:48:35Z</time>
      </trkpt>
      <trkpt lat="46.1789" lon="-1.37397">
        <ele>7.2</ele>
        <time>2020-05-31T21:48:36Z</time>
      </trkpt>
      <trkpt lat="46.17891" lon="-1.37396">
        <ele>7.2</ele>
        <time>2020-05-31T21:48:37Z</time>
      </trkpt>
      <trkpt lat="46.17891" lon="-1.37395">
        <ele>7.2</ele>
        <time>2020-05-31T21:48:38Z</time>
      </trkpt>
      <trkpt lat="46.17891" lon="-1.37395">
        <ele>7.2</ele>
        <time>2020-05-31T21:48:39Z</time>
      </trkpt>
      <trkpt lat="46.17891" lon="-1.37395">
        <ele>7.2</ele>
        <time>2020-05-31T21:48:40Z</time>
      </trkpt>
      <trkpt lat="46.17891" lon="-1.37394">
        <ele>7.2</ele>
        <time>2020-05-31T21:48:41Z</time>
      </trkpt>
      <trkpt lat="46.17891" lon="-1.37394">
        <ele>7.2</ele>
        <time>2020-05-31T21:48:42Z</time>
      </trkpt>
      <trkpt lat="46.1789" lon="-1.37394">
        <ele>7.2</ele>
        <time>2020-05-31T21:48:43Z</time>
      </trkpt>
      <trkpt lat="46.1789" lon="-1.37395">
        <ele>7.2</ele>
        <time>2020-05-31T21:48:44Z</time>
      </trkpt>
      <trkpt lat="46.17891" lon="-1.37394">
        <ele>7.2</ele>
        <time>2020-05-31T21:48:45Z</time>
      </trkpt>
      <trkpt lat="46.17891" lon="-1.37393">
        <ele>7.2</ele>
        <time>2020-05-31T21:48:46Z</time>
      </trkpt>
      <trkpt lat="46.17892" lon="-1.37392">
        <ele>7.2</ele>
        <time>2020-05-31T21:48:47Z</time>
      </trkpt>
      <trkpt lat="46.17892" lon="-1.37392">
        <ele>7.2</ele>
        <time>2020-05-31T21:48:48Z</time>
      </trkpt>
      <trkpt lat="46.17891" lon="-1.37392">
        <ele>7.2</ele>
        <time>2020-05-31T21:48:49Z</time>
      </trkpt>
      <trkpt lat="46.1789" lon="-1.37393">
        <ele>7.2</ele>
        <time>2020-05-31T21:48:50Z</time>
      </trkpt>
      <trkpt lat="46.1789" lon="-1.37393">
        <ele>7.2</ele>
        <time>2020-05-31T21:48:51Z</time>
      </trkpt>
      <trkpt lat="46.17891" lon="-1.37393">
        <ele>7.2</ele>
        <time>2020-05-31T21:48:52Z</time>
      </trkpt>
      <trkpt lat="46.1789" lon="-1.37393">
        <ele>7.2</ele>
        <time>2020-05-31T21:48:53Z</time>
      </trkpt>
      <trkpt lat="46.1789" lon="-1.37393">
        <ele>7.2</ele>
        <time>2020-05-31T21:48:54Z</time>
      </trkpt>
      <trkpt lat="46.1789" lon="-1.37393">
        <ele>7.2</ele>
        <time>2020-05-31T21:48:55Z</time>
      </trkpt>
      <trkpt lat="46.17889" lon="-1.37393">
        <ele>7.2</ele>
        <time>2020-05-31T21:48:56Z</time>
      </trkpt>
      <trkpt lat="46.17889" lon="-1.37395">
        <ele>7.2</ele>
        <time>2020-05-31T21:48:57Z</time>
      </trkpt>
      <trkpt lat="46.17889" lon="-1.37395">
        <ele>7.2</ele>
        <time>2020-05-31T21:48:58Z</time>
      </trkpt>
      <trkpt lat="46.17889" lon="-1.37395">
        <ele>7.2</ele>
        <time>2020-05-31T21:48:59Z</time>
      </trkpt>
      <trkpt lat="46.17889" lon="-1.37395">
        <ele>7.2</ele>
        <time>2020-05-31T21:49:00Z</time>
      </trkpt>
      <trkpt lat="46.17889" lon="-1.37394">
        <ele>7.2</ele>
        <time>2020-05-31T21:49:01Z</time>
      </trkpt>
      <trkpt lat="46.17889" lon="-1.37394">
        <ele>7.2</ele>
        <time>2020-05-31T21:49:02Z</time>
      </trkpt>
      <trkpt lat="46.17889" lon="-1.37395">
        <ele>7.2</ele>
        <time>2020-05-31T21:49:03Z</time>
      </trkpt>
      <trkpt lat="46.17889" lon="-1.37395">
        <ele>7.2</ele>
        <time>2020-05-31T21:49:04Z</time>
      </trkpt>
      <trkpt lat="46.17889" lon="-1.37395">
        <ele>7.2</ele>
        <time>2020-05-31T21:49:05Z</time>
      </trkpt>
      <trkpt lat="46.1789" lon="-1.37393">
        <ele>7.2</ele>
        <time>2020-05-31T21:49:06Z</time>
      </trkpt>
      <trkpt lat="46.17891" lon="-1.37392">
        <ele>7.2</ele>
        <time>2020-05-31T21:49:07Z</time>
      </trkpt>
      <trkpt lat="46.17892" lon="-1.37391">
        <ele>7.2</ele>
        <time>2020-05-31T21:49:08Z</time>
      </trkpt>
      <trkpt lat="46.17892" lon="-1.37391">
        <ele>7.2</ele>
        <time>2020-05-31T21:49:09Z</time>
      </trkpt>
      <trkpt lat="46.17892" lon="-1.37391">
        <ele>7.2</ele>
        <time>2020-05-31T21:49:10Z</time>
      </trkpt>
      <trkpt lat="46.17893" lon="-1.37391">
        <ele>7.2</ele>
        <time>2020-05-31T21:49:11Z</time>
      </trkpt>
      <trkpt lat="46.17893" lon="-1.37391">
        <ele>7.2</ele>
        <time>2020-05-31T21:49:12Z</time>
      </trkpt>
      <trkpt lat="46.17893" lon="-1.3739">
        <ele>7.2</ele>
        <time>2020-05-31T21:49:13Z</time>
      </trkpt>
      <trkpt lat="46.17894" lon="-1.3739">
        <ele>7.2</ele>
        <time>2020-05-31T21:49:14Z</time>
      </trkpt>
      <trkpt lat="46.17894" lon="-1.3739">
        <ele>7.2</ele>
        <time>2020-05-31T21:49:15Z</time>
      </trkpt>
      <trkpt lat="46.17894" lon="-1.3739">
        <ele>7.2</ele>
        <time>2020-05-31T21:49:16Z</time>
      </trkpt>
      <trkpt lat="46.17895" lon="-1.37389">
        <ele>7.2</ele>
        <time>2020-05-31T21:49:17Z</time>
      </trkpt>
      <trkpt lat="46.17895" lon="-1.37389">
        <ele>7.2</ele>
        <time>2020-05-31T21:49:18Z</time>
      </trkpt>
      <trkpt lat="46.17899" lon="-1.3739">
        <ele>7.2</ele>
        <time>2020-05-31T21:49:19Z</time>
      </trkpt>
      <trkpt lat="46.179" lon="-1.3739">
        <ele>7.2</ele>
        <time>2020-05-31T21:49:20Z</time>
      </trkpt>
      <trkpt lat="46.17904" lon="-1.37391">
        <ele>7.2</ele>
        <time>2020-05-31T21:49:21Z</time>
      </trkpt>
      <trkpt lat="46.17907" lon="-1.37389">
        <ele>7.2</ele>
        <time>2020-05-31T21:49:22Z</time>
      </trkpt>
      <trkpt lat="46.1791" lon="-1.3739">
        <ele>7.2</ele>
        <time>2020-05-31T21:49:23Z</time>
      </trkpt>
      <trkpt lat="46.17913" lon="-1.37388">
        <ele>7.3</ele>
        <time>2020-05-31T21:49:24Z</time>
      </trkpt>
      <trkpt lat="46.17916" lon="-1.37387">
        <ele>7.3</ele>
        <time>2020-05-31T21:49:25Z</time>
      </trkpt>
      <trkpt lat="46.1792" lon="-1.37387">
        <ele>7.3</ele>
        <time>2020-05-31T21:49:26Z</time>
      </trkpt>
      <trkpt lat="46.17923" lon="-1.37387">
        <ele>7.3</ele>
        <time>2020-05-31T21:49:27Z</time>
      </trkpt>
      <trkpt lat="46.17926" lon="-1.37388">
        <ele>7.3</ele>
        <time>2020-05-31T21:49:28Z</time>
      </trkpt>
      <trkpt lat="46.17929" lon="-1.37388">
        <ele>7.3</ele>
        <time>2020-05-31T21:49:29Z</time>
      </trkpt>
      <trkpt lat="46.1793" lon="-1.3739">
        <ele>7.3</ele>
        <time>2020-05-31T21:49:30Z</time>
      </trkpt>
      <trkpt lat="46.17931" lon="-1.37391">
        <ele>7.3</ele>
        <time>2020-05-31T21:49:31Z</time>
      </trkpt>
      <trkpt lat="46.17933" lon="-1.37393">
        <ele>7.3</ele>
        <time>2020-05-31T21:49:32Z</time>
      </trkpt>
      <trkpt lat="46.17933" lon="-1.37395">
        <ele>7.3</ele>
        <time>2020-05-31T21:49:33Z</time>
      </trkpt>
      <trkpt lat="46.17934" lon="-1.37397">
        <ele>7.3</ele>
        <time>2020-05-31T21:49:34Z</time>
      </trkpt>
      <trkpt lat="46.17935" lon="-1.37399">
        <ele>7.3</ele>
        <time>2020-05-31T21:49:35Z</time>
      </trkpt>
      <trkpt lat="46.17935" lon="-1.374">
        <ele>7.3</ele>
        <time>2020-05-31T21:49:36Z</time>
      </trkpt>
      <trkpt lat="46.17935" lon="-1.37401">
        <ele>7.3</ele>
        <time>2020-05-31T21:49:37Z</time>
      </trkpt>
      <trkpt lat="46.17934" lon="-1.37403">
        <ele>7.3</ele>
        <time>2020-05-31T21:49:38Z</time>
      </trkpt>
      <trkpt lat="46.17934" lon="-1.37405">
        <ele>7.3</ele>
        <time>2020-05-31T21:49:39Z</time>
      </trkpt>
      <trkpt lat="46.17935" lon="-1.37405">
        <ele>7.3</ele>
        <time>2020-05-31T21:49:40Z</time>
      </trkpt>
      <trkpt lat="46.17936" lon="-1.37406">
        <ele>7.3</ele>
        <time>2020-05-31T21:49:41Z</time>
      </trkpt>
      <trkpt lat="46.17937" lon="-1.37408">
        <ele>7.3</ele>
        <time>2020-05-31T21:49:42Z</time>
      </trkpt>
      <trkpt lat="46.17938" lon="-1.37409">
        <ele>7.2</ele>
        <time>2020-05-31T21:49:43Z</time>
      </trkpt>
      <trkpt lat="46.1794" lon="-1.37413">
        <ele>7.2</ele>
        <time>2020-05-31T21:49:44Z</time>
      </trkpt>
      <trkpt lat="46.1794" lon="-1.37415">
        <ele>7.2</ele>
        <time>2020-05-31T21:49:45Z</time>
      </trkpt>
      <trkpt lat="46.17941" lon="-1.37419">
        <ele>7.2</ele>
        <time>2020-05-31T21:49:46Z</time>
      </trkpt>
      <trkpt lat="46.17942" lon="-1.37423">
        <ele>7.2</ele>
        <time>2020-05-31T21:49:47Z</time>
      </trkpt>
      <trkpt lat="46.17943" lon="-1.37427">
        <ele>7.1</ele>
        <time>2020-05-31T21:49:48Z</time>
      </trkpt>
      <trkpt lat="46.17944" lon="-1.37432">
        <ele>7.1</ele>
        <time>2020-05-31T21:49:49Z</time>
      </trkpt>
      <trkpt lat="46.17944" lon="-1.37436">
        <ele>7.1</ele>
        <time>2020-05-31T21:49:50Z</time>
      </trkpt>
      <trkpt lat="46.17943" lon="-1.37441">
        <ele>7</ele>
        <time>2020-05-31T21:49:51Z</time>
      </trkpt>
      <trkpt lat="46.17942" lon="-1.37445">
        <ele>7</ele>
        <time>2020-05-31T21:49:52Z</time>
      </trkpt>
      <trkpt lat="46.17941" lon="-1.37449">
        <ele>7</ele>
        <time>2020-05-31T21:49:53Z</time>
      </trkpt>
      <trkpt lat="46.1794" lon="-1.37454">
        <ele>6.9</ele>
        <time>2020-05-31T21:49:54Z</time>
      </trkpt>
      <trkpt lat="46.17939" lon="-1.3746">
        <ele>6.8</ele>
        <time>2020-05-31T21:49:55Z</time>
      </trkpt>
      <trkpt lat="46.1794" lon="-1.37466">
        <ele>6.8</ele>
        <time>2020-05-31T21:49:56Z</time>
      </trkpt>
      <trkpt lat="46.17939" lon="-1.37472">
        <ele>6.7</ele>
        <time>2020-05-31T21:49:57Z</time>
      </trkpt>
      <trkpt lat="46.17937" lon="-1.37478">
        <ele>6.7</ele>
        <time>2020-05-31T21:49:58Z</time>
      </trkpt>
      <trkpt lat="46.17934" lon="-1.37484">
        <ele>6.6</ele>
        <time>2020-05-31T21:49:59Z</time>
      </trkpt>
      <trkpt lat="46.1793" lon="-1.37487">
        <ele>6.6</ele>
        <time>2020-05-31T21:50:00Z</time>
      </trkpt>
      <trkpt lat="46.17928" lon="-1.37492">
        <ele>6.6</ele>
        <time>2020-05-31T21:50:01Z</time>
      </trkpt>
      <trkpt lat="46.17927" lon="-1.37498">
        <ele>6.5</ele>
        <time>2020-05-31T21:50:02Z</time>
      </trkpt>
      <trkpt lat="46.17926" lon="-1.37504">
        <ele>6.5</ele>
        <time>2020-05-31T21:50:03Z</time>
      </trkpt>
      <trkpt lat="46.17925" lon="-1.3751">
        <ele>6.5</ele>
        <time>2020-05-31T21:50:04Z</time>
      </trkpt>
      <trkpt lat="46.17926" lon="-1.37517">
        <ele>6.4</ele>
        <time>2020-05-31T21:50:05Z</time>
      </trkpt>
      <trkpt lat="46.17926" lon="-1.37524">
        <ele>6.4</ele>
        <time>2020-05-31T21:50:06Z</time>
      </trkpt>
      <trkpt lat="46.17927" lon="-1.37531">
        <ele>6.4</ele>
        <time>2020-05-31T21:50:07Z</time>
      </trkpt>
      <trkpt lat="46.1793" lon="-1.37537">
        <ele>6.5</ele>
        <time>2020-05-31T21:50:08Z</time>
      </trkpt>
      <trkpt lat="46.17934" lon="-1.37542">
        <ele>6.5</ele>
        <time>2020-05-31T21:50:09Z</time>
      </trkpt>
      <trkpt lat="46.17938" lon="-1.37546">
        <ele>6.6</ele>
        <time>2020-05-31T21:50:10Z</time>
      </trkpt>
      <trkpt lat="46.17942" lon="-1.3755">
        <ele>6.7</ele>
        <time>2020-05-31T21:50:11Z</time>
      </trkpt>
      <trkpt lat="46.17947" lon="-1.37552">
        <ele>6.8</ele>
        <time>2020-05-31T21:50:12Z</time>
      </trkpt>
      <trkpt lat="46.17951" lon="-1.37552">
        <ele>6.9</ele>
        <time>2020-05-31T21:50:13Z</time>
      </trkpt>
      <trkpt lat="46.17954" lon="-1.37554">
        <ele>7</ele>
        <time>2020-05-31T21:50:14Z</time>
      </trkpt>
      <trkpt lat="46.17957" lon="-1.37555">
        <ele>7.1</ele>
        <time>2020-05-31T21:50:15Z</time>
      </trkpt>
      <trkpt lat="46.1796" lon="-1.37557">
        <ele>7.2</ele>
        <time>2020-05-31T21:50:16Z</time>
      </trkpt>
      <trkpt lat="46.17963" lon="-1.37559">
        <ele>7.3</ele>
        <time>2020-05-31T21:50:17Z</time>
      </trkpt>
      <trkpt lat="46.17966" lon="-1.37561">
        <ele>7.4</ele>
        <time>2020-05-31T21:50:18Z</time>
      </trkpt>
      <trkpt lat="46.17969" lon="-1.37562">
        <ele>7.5</ele>
        <time>2020-05-31T21:50:19Z</time>
      </trkpt>
      <trkpt lat="46.17972" lon="-1.37563">
        <ele>7.6</ele>
        <time>2020-05-31T21:50:20Z</time>
      </trkpt>
      <trkpt lat="46.17975" lon="-1.37565">
        <ele>7.6</ele>
        <time>2020-05-31T21:50:21Z</time>
      </trkpt>
      <trkpt lat="46.17978" lon="-1.37567">
        <ele>7.7</ele>
        <time>2020-05-31T21:50:22Z</time>
      </trkpt>
      <trkpt lat="46.1798" lon="-1.37571">
        <ele>7.8</ele>
        <time>2020-05-31T21:50:23Z</time>
      </trkpt>
      <trkpt lat="46.17983" lon="-1.37573">
        <ele>7.9</ele>
        <time>2020-05-31T21:50:24Z</time>
      </trkpt>
      <trkpt lat="46.17985" lon="-1.37577">
        <ele>8</ele>
        <time>2020-05-31T21:50:25Z</time>
      </trkpt>
      <trkpt lat="46.17988" lon="-1.37579">
        <ele>8</ele>
        <time>2020-05-31T21:50:26Z</time>
      </trkpt>
      <trkpt lat="46.17991" lon="-1.37582">
        <ele>8.1</ele>
        <time>2020-05-31T21:50:27Z</time>
      </trkpt>
      <trkpt lat="46.17993" lon="-1.37586">
        <ele>8.2</ele>
        <time>2020-05-31T21:50:28Z</time>
      </trkpt>
      <trkpt lat="46.17996" lon="-1.37588">
        <ele>8.2</ele>
        <time>2020-05-31T21:50:29Z</time>
      </trkpt>
      <trkpt lat="46.17998" lon="-1.3759">
        <ele>8.2</ele>
        <time>2020-05-31T21:50:30Z</time>
      </trkpt>
      <trkpt lat="46.18002" lon="-1.37592">
        <ele>8.3</ele>
        <time>2020-05-31T21:50:31Z</time>
      </trkpt>
      <trkpt lat="46.18005" lon="-1.37593">
        <ele>8.3</ele>
        <time>2020-05-31T21:50:32Z</time>
      </trkpt>
      <trkpt lat="46.18009" lon="-1.37594">
        <ele>8.4</ele>
        <time>2020-05-31T21:50:33Z</time>
      </trkpt>
      <trkpt lat="46.18014" lon="-1.37594">
        <ele>8.4</ele>
        <time>2020-05-31T21:50:34Z</time>
      </trkpt>
      <trkpt lat="46.18018" lon="-1.37595">
        <ele>8.4</ele>
        <time>2020-05-31T21:50:35Z</time>
      </trkpt>
      <trkpt lat="46.18023" lon="-1.37595">
        <ele>8.5</ele>
        <time>2020-05-31T21:50:36Z</time>
      </trkpt>
      <trkpt lat="46.18027" lon="-1.37595">
        <ele>8.6</ele>
        <time>2020-05-31T21:50:37Z</time>
      </trkpt>
      <trkpt lat="46.1803" lon="-1.37596">
        <ele>8.6</ele>
        <time>2020-05-31T21:50:38Z</time>
      </trkpt>
      <trkpt lat="46.18033" lon="-1.37598">
        <ele>8.7</ele>
        <time>2020-05-31T21:50:39Z</time>
      </trkpt>
      <trkpt lat="46.18036" lon="-1.376">
        <ele>8.8</ele>
        <time>2020-05-31T21:50:40Z</time>
      </trkpt>
      <trkpt lat="46.18039" lon="-1.37603">
        <ele>8.9</ele>
        <time>2020-05-31T21:50:41Z</time>
      </trkpt>
      <trkpt lat="46.18042" lon="-1.37605">
        <ele>9</ele>
        <time>2020-05-31T21:50:42Z</time>
      </trkpt>
      <trkpt lat="46.18045" lon="-1.37607">
        <ele>9.1</ele>
        <time>2020-05-31T21:50:43Z</time>
      </trkpt>
      <trkpt lat="46.18048" lon="-1.37606">
        <ele>9.2</ele>
        <time>2020-05-31T21:50:44Z</time>
      </trkpt>
      <trkpt lat="46.18051" lon="-1.37608">
        <ele>9.2</ele>
        <time>2020-05-31T21:50:45Z</time>
      </trkpt>
      <trkpt lat="46.18054" lon="-1.37608">
        <ele>9.2</ele>
        <time>2020-05-31T21:50:46Z</time>
      </trkpt>
      <trkpt lat="46.18058" lon="-1.37611">
        <ele>9.3</ele>
        <time>2020-05-31T21:50:47Z</time>
      </trkpt>
      <trkpt lat="46.18061" lon="-1.37615">
        <ele>9.2</ele>
        <time>2020-05-31T21:50:48Z</time>
      </trkpt>
      <trkpt lat="46.18065" lon="-1.37617">
        <ele>9.2</ele>
        <time>2020-05-31T21:50:49Z</time>
      </trkpt>
      <trkpt lat="46.1807" lon="-1.3762">
        <ele>9.1</ele>
        <time>2020-05-31T21:50:50Z</time>
      </trkpt>
      <trkpt lat="46.18074" lon="-1.37622">
        <ele>9</ele>
        <time>2020-05-31T21:50:51Z</time>
      </trkpt>
      <trkpt lat="46.18078" lon="-1.37624">
        <ele>8.9</ele>
        <time>2020-05-31T21:50:52Z</time>
      </trkpt>
      <trkpt lat="46.18082" lon="-1.37625">
        <ele>8.8</ele>
        <time>2020-05-31T21:50:53Z</time>
      </trkpt>
      <trkpt lat="46.18087" lon="-1.37628">
        <ele>8.6</ele>
        <time>2020-05-31T21:50:54Z</time>
      </trkpt>
      <trkpt lat="46.18092" lon="-1.3763">
        <ele>8.5</ele>
        <time>2020-05-31T21:50:55Z</time>
      </trkpt>
      <trkpt lat="46.18097" lon="-1.37633">
        <ele>8.3</ele>
        <time>2020-05-31T21:50:56Z</time>
      </trkpt>
      <trkpt lat="46.18102" lon="-1.37637">
        <ele>8.2</ele>
        <time>2020-05-31T21:50:57Z</time>
      </trkpt>
      <trkpt lat="46.18107" lon="-1.37639">
        <ele>8.2</ele>
        <time>2020-05-31T21:50:58Z</time>
      </trkpt>
      <trkpt lat="46.18113" lon="-1.37641">
        <ele>8.1</ele>
        <time>2020-05-31T21:50:59Z</time>
      </trkpt>
      <trkpt lat="46.18118" lon="-1.37643">
        <ele>8.1</ele>
        <time>2020-05-31T21:51:00Z</time>
      </trkpt>
      <trkpt lat="46.18123" lon="-1.37644">
        <ele>8</ele>
        <time>2020-05-31T21:51:01Z</time>
      </trkpt>
      <trkpt lat="46.18128" lon="-1.37645">
        <ele>8</ele>
        <time>2020-05-31T21:51:02Z</time>
      </trkpt>
      <trkpt lat="46.18131" lon="-1.37646">
        <ele>8</ele>
        <time>2020-05-31T21:51:03Z</time>
      </trkpt>
      <trkpt lat="46.18132" lon="-1.3765">
        <ele>8</ele>
        <time>2020-05-31T21:51:04Z</time>
      </trkpt>
      <trkpt lat="46.18132" lon="-1.37651">
        <ele>8</ele>
        <time>2020-05-31T21:51:05Z</time>
      </trkpt>
      <trkpt lat="46.18132" lon="-1.37653">
        <ele>8</ele>
        <time>2020-05-31T21:51:06Z</time>
      </trkpt>
      <trkpt lat="46.18132" lon="-1.37654">
        <ele>8</ele>
        <time>2020-05-31T21:51:07Z</time>
      </trkpt>
      <trkpt lat="46.18132" lon="-1.37655">
        <ele>8</ele>
        <time>2020-05-31T21:51:08Z</time>
      </trkpt>
      <trkpt lat="46.18131" lon="-1.37656">
        <ele>8</ele>
        <time>2020-05-31T21:51:09Z</time>
      </trkpt>
      <trkpt lat="46.18131" lon="-1.37657">
        <ele>8</ele>
        <time>2020-05-31T21:51:10Z</time>
      </trkpt>
      <trkpt lat="46.18131" lon="-1.37657">
        <ele>8</ele>
        <time>2020-05-31T21:51:11Z</time>
      </trkpt>
      <trkpt lat="46.18131" lon="-1.37657">
        <ele>8</ele>
        <time>2020-05-31T21:51:12Z</time>
      </trkpt>
      <trkpt lat="46.18131" lon="-1.37658">
        <ele>8</ele>
        <time>2020-05-31T21:51:13Z</time>
      </trkpt>
      <trkpt lat="46.18131" lon="-1.37658">
        <ele>8</ele>
        <time>2020-05-31T21:51:14Z</time>
      </trkpt>
      <trkpt lat="46.1813" lon="-1.37658">
        <ele>8</ele>
        <time>2020-05-31T21:51:15Z</time>
      </trkpt>
      <trkpt lat="46.1813" lon="-1.37659">
        <ele>8</ele>
        <time>2020-05-31T21:51:16Z</time>
      </trkpt>
      <trkpt lat="46.1813" lon="-1.37659">
        <ele>8</ele>
        <time>2020-05-31T21:51:17Z</time>
      </trkpt>
      <trkpt lat="46.1813" lon="-1.3766">
        <ele>8</ele>
        <time>2020-05-31T21:51:18Z</time>
      </trkpt>
      <trkpt lat="46.18129" lon="-1.37661">
        <ele>8</ele>
        <time>2020-05-31T21:51:19Z</time>
      </trkpt>
      <trkpt lat="46.18128" lon="-1.37664">
        <ele>8</ele>
        <time>2020-05-31T21:51:20Z</time>
      </trkpt>
      <trkpt lat="46.18127" lon="-1.37668">
        <ele>8</ele>
        <time>2020-05-31T21:51:21Z</time>
      </trkpt>
      <trkpt lat="46.18127" lon="-1.37669">
        <ele>8</ele>
        <time>2020-05-31T21:51:22Z</time>
      </trkpt>
      <trkpt lat="46.18126" lon="-1.37671">
        <ele>8</ele>
        <time>2020-05-31T21:51:23Z</time>
      </trkpt>
      <trkpt lat="46.18126" lon="-1.37672">
        <ele>8</ele>
        <time>2020-05-31T21:51:24Z</time>
      </trkpt>
      <trkpt lat="46.18125" lon="-1.37673">
        <ele>8</ele>
        <time>2020-05-31T21:51:25Z</time>
      </trkpt>
      <trkpt lat="46.18126" lon="-1.37674">
        <ele>8</ele>
        <time>2020-05-31T21:51:26Z</time>
      </trkpt>
      <trkpt lat="46.18127" lon="-1.37675">
        <ele>8</ele>
        <time>2020-05-31T21:51:27Z</time>
      </trkpt>
      <trkpt lat="46.18127" lon="-1.37676">
        <ele>8</ele>
        <time>2020-05-31T21:51:28Z</time>
      </trkpt>
      <trkpt lat="46.18127" lon="-1.37677">
        <ele>8</ele>
        <time>2020-05-31T21:51:29Z</time>
      </trkpt>
      <trkpt lat="46.18127" lon="-1.37677">
        <ele>7.9</ele>
        <time>2020-05-31T21:51:30Z</time>
      </trkpt>
      <trkpt lat="46.1813" lon="-1.37682">
        <ele>7.9</ele>
        <time>2020-05-31T21:51:31Z</time>
      </trkpt>
      <trkpt lat="46.18131" lon="-1.37684">
        <ele>7.9</ele>
        <time>2020-05-31T21:51:32Z</time>
      </trkpt>
      <trkpt lat="46.18133" lon="-1.37689">
        <ele>7.9</ele>
        <time>2020-05-31T21:51:33Z</time>
      </trkpt>
      <trkpt lat="46.18135" lon="-1.37693">
        <ele>7.8</ele>
        <time>2020-05-31T21:51:34Z</time>
      </trkpt>
      <trkpt lat="46.18136" lon="-1.37698">
        <ele>7.8</ele>
        <time>2020-05-31T21:51:35Z</time>
      </trkpt>
      <trkpt lat="46.18138" lon="-1.37704">
        <ele>7.8</ele>
        <time>2020-05-31T21:51:36Z</time>
      </trkpt>
      <trkpt lat="46.18139" lon="-1.37711">
        <ele>7.7</ele>
        <time>2020-05-31T21:51:37Z</time>
      </trkpt>
      <trkpt lat="46.18141" lon="-1.37718">
        <ele>7.7</ele>
        <time>2020-05-31T21:51:38Z</time>
      </trkpt>
      <trkpt lat="46.18143" lon="-1.37726">
        <ele>7.6</ele>
        <time>2020-05-31T21:51:39Z</time>
      </trkpt>
      <trkpt lat="46.18144" lon="-1.37735">
        <ele>7.6</ele>
        <time>2020-05-31T21:51:40Z</time>
      </trkpt>
      <trkpt lat="46.18146" lon="-1.37745">
        <ele>7.5</ele>
        <time>2020-05-31T21:51:41Z</time>
      </trkpt>
      <trkpt lat="46.18148" lon="-1.37755">
        <ele>7.5</ele>
        <time>2020-05-31T21:51:42Z</time>
      </trkpt>
      <trkpt lat="46.18149" lon="-1.37769">
        <ele>7.5</ele>
        <time>2020-05-31T21:51:43Z</time>
      </trkpt>
      <trkpt lat="46.18151" lon="-1.37785">
        <ele>7.5</ele>
        <time>2020-05-31T21:51:44Z</time>
      </trkpt>
      <trkpt lat="46.18152" lon="-1.37798">
        <ele>7.5</ele>
        <time>2020-05-31T21:51:45Z</time>
      </trkpt>
      <trkpt lat="46.18155" lon="-1.37809">
        <ele>7.4</ele>
        <time>2020-05-31T21:51:46Z</time>
      </trkpt>
      <trkpt lat="46.18156" lon="-1.3782">
        <ele>7.4</ele>
        <time>2020-05-31T21:51:47Z</time>
      </trkpt>
      <trkpt lat="46.18158" lon="-1.37829">
        <ele>7.4</ele>
        <time>2020-05-31T21:51:48Z</time>
      </trkpt>
      <trkpt lat="46.18159" lon="-1.37837">
        <ele>7.4</ele>
        <time>2020-05-31T21:51:49Z</time>
      </trkpt>
      <trkpt lat="46.1816" lon="-1.37845">
        <ele>7.4</ele>
        <time>2020-05-31T21:51:50Z</time>
      </trkpt>
      <trkpt lat="46.18162" lon="-1.37856">
        <ele>7.4</ele>
        <time>2020-05-31T21:51:51Z</time>
      </trkpt>
      <trkpt lat="46.18166" lon="-1.37865">
        <ele>7.3</ele>
        <time>2020-05-31T21:51:52Z</time>
      </trkpt>
      <trkpt lat="46.1817" lon="-1.37875">
        <ele>7.3</ele>
        <time>2020-05-31T21:51:53Z</time>
      </trkpt>
      <trkpt lat="46.18173" lon="-1.37883">
        <ele>7.2</ele>
        <time>2020-05-31T21:51:54Z</time>
      </trkpt>
      <trkpt lat="46.18175" lon="-1.37891">
        <ele>7.2</ele>
        <time>2020-05-31T21:51:55Z</time>
      </trkpt>
      <trkpt lat="46.18177" lon="-1.379">
        <ele>7.1</ele>
        <time>2020-05-31T21:51:56Z</time>
      </trkpt>
      <trkpt lat="46.18179" lon="-1.37909">
        <ele>7.1</ele>
        <time>2020-05-31T21:51:57Z</time>
      </trkpt>
      <trkpt lat="46.18181" lon="-1.37917">
        <ele>7.1</ele>
        <time>2020-05-31T21:51:58Z</time>
      </trkpt>
      <trkpt lat="46.18184" lon="-1.37927">
        <ele>7</ele>
        <time>2020-05-31T21:51:59Z</time>
      </trkpt>
      <trkpt lat="46.18186" lon="-1.37934">
        <ele>7</ele>
        <time>2020-05-31T21:52:00Z</time>
      </trkpt>
      <trkpt lat="46.18188" lon="-1.37942">
        <ele>6.9</ele>
        <time>2020-05-31T21:52:01Z</time>
      </trkpt>
      <trkpt lat="46.18189" lon="-1.37951">
        <ele>6.9</ele>
        <time>2020-05-31T21:52:02Z</time>
      </trkpt>
      <trkpt lat="46.1819" lon="-1.3796">
        <ele>6.9</ele>
        <time>2020-05-31T21:52:03Z</time>
      </trkpt>
      <trkpt lat="46.18192" lon="-1.37969">
        <ele>6.9</ele>
        <time>2020-05-31T21:52:04Z</time>
      </trkpt>
      <trkpt lat="46.18193" lon="-1.37977">
        <ele>7</ele>
        <time>2020-05-31T21:52:05Z</time>
      </trkpt>
      <trkpt lat="46.18195" lon="-1.37987">
        <ele>7</ele>
        <time>2020-05-31T21:52:06Z</time>
      </trkpt>
      <trkpt lat="46.18199" lon="-1.37998">
        <ele>7</ele>
        <time>2020-05-31T21:52:07Z</time>
      </trkpt>
      <trkpt lat="46.18204" lon="-1.38005">
        <ele>7</ele>
        <time>2020-05-31T21:52:08Z</time>
      </trkpt>
      <trkpt lat="46.18209" lon="-1.3801">
        <ele>7</ele>
        <time>2020-05-31T21:52:09Z</time>
      </trkpt>
      <trkpt lat="46.18214" lon="-1.38014">
        <ele>7.1</ele>
        <time>2020-05-31T21:52:10Z</time>
      </trkpt>
      <trkpt lat="46.18219" lon="-1.38016">
        <ele>7.1</ele>
        <time>2020-05-31T21:52:11Z</time>
      </trkpt>
      <trkpt lat="46.18224" lon="-1.3802">
        <ele>7.1</ele>
        <time>2020-05-31T21:52:12Z</time>
      </trkpt>
      <trkpt lat="46.18229" lon="-1.38023">
        <ele>7.1</ele>
        <time>2020-05-31T21:52:13Z</time>
      </trkpt>
      <trkpt lat="46.18235" lon="-1.38028">
        <ele>7.1</ele>
        <time>2020-05-31T21:52:14Z</time>
      </trkpt>
      <trkpt lat="46.18238" lon="-1.38032">
        <ele>7.1</ele>
        <time>2020-05-31T21:52:15Z</time>
      </trkpt>
      <trkpt lat="46.18242" lon="-1.38036">
        <ele>7.1</ele>
        <time>2020-05-31T21:52:16Z</time>
      </trkpt>
      <trkpt lat="46.18246" lon="-1.38037">
        <ele>7.1</ele>
        <time>2020-05-31T21:52:17Z</time>
      </trkpt>
      <trkpt lat="46.18248" lon="-1.38042">
        <ele>7.1</ele>
        <time>2020-05-31T21:52:18Z</time>
      </trkpt>
      <trkpt lat="46.18251" lon="-1.38046">
        <ele>7.1</ele>
        <time>2020-05-31T21:52:19Z</time>
      </trkpt>
      <trkpt lat="46.18254" lon="-1.38051">
        <ele>7.1</ele>
        <time>2020-05-31T21:52:20Z</time>
      </trkpt>
      <trkpt lat="46.18259" lon="-1.38055">
        <ele>7.1</ele>
        <time>2020-05-31T21:52:21Z</time>
      </trkpt>
      <trkpt lat="46.18264" lon="-1.38057">
        <ele>7.1</ele>
        <time>2020-05-31T21:52:22Z</time>
      </trkpt>
      <trkpt lat="46.18269" lon="-1.38059">
        <ele>7</ele>
        <time>2020-05-31T21:52:23Z</time>
      </trkpt>
      <trkpt lat="46.18274" lon="-1.38062">
        <ele>7</ele>
        <time>2020-05-31T21:52:24Z</time>
      </trkpt>
      <trkpt lat="46.18278" lon="-1.38065">
        <ele>7</ele>
        <time>2020-05-31T21:52:25Z</time>
      </trkpt>
      <trkpt lat="46.18281" lon="-1.38067">
        <ele>6.9</ele>
        <time>2020-05-31T21:52:26Z</time>
      </trkpt>
      <trkpt lat="46.18285" lon="-1.38069">
        <ele>6.9</ele>
        <time>2020-05-31T21:52:27Z</time>
      </trkpt>
      <trkpt lat="46.1829" lon="-1.3807">
        <ele>6.8</ele>
        <time>2020-05-31T21:52:28Z</time>
      </trkpt>
      <trkpt lat="46.18292" lon="-1.38071">
        <ele>6.8</ele>
        <time>2020-05-31T21:52:29Z</time>
      </trkpt>
      <trkpt lat="46.18296" lon="-1.38073">
        <ele>6.8</ele>
        <time>2020-05-31T21:52:30Z</time>
      </trkpt>
      <trkpt lat="46.183" lon="-1.38074">
        <ele>6.7</ele>
        <time>2020-05-31T21:52:31Z</time>
      </trkpt>
      <trkpt lat="46.18303" lon="-1.38077">
        <ele>6.7</ele>
        <time>2020-05-31T21:52:32Z</time>
      </trkpt>
      <trkpt lat="46.18308" lon="-1.38078">
        <ele>6.6</ele>
        <time>2020-05-31T21:52:33Z</time>
      </trkpt>
      <trkpt lat="46.18313" lon="-1.3808">
        <ele>6.6</ele>
        <time>2020-05-31T21:52:34Z</time>
      </trkpt>
      <trkpt lat="46.18318" lon="-1.38083">
        <ele>6.6</ele>
        <time>2020-05-31T21:52:35Z</time>
      </trkpt>
      <trkpt lat="46.18322" lon="-1.38085">
        <ele>6.5</ele>
        <time>2020-05-31T21:52:36Z</time>
      </trkpt>
      <trkpt lat="46.18327" lon="-1.38087">
        <ele>6.5</ele>
        <time>2020-05-31T21:52:37Z</time>
      </trkpt>
      <trkpt lat="46.18332" lon="-1.38089">
        <ele>6.4</ele>
        <time>2020-05-31T21:52:38Z</time>
      </trkpt>
      <trkpt lat="46.18336" lon="-1.38092">
        <ele>6.4</ele>
        <time>2020-05-31T21:52:39Z</time>
      </trkpt>
      <trkpt lat="46.1834" lon="-1.38095">
        <ele>6.4</ele>
        <time>2020-05-31T21:52:40Z</time>
      </trkpt>
      <trkpt lat="46.18343" lon="-1.38097">
        <ele>6.3</ele>
        <time>2020-05-31T21:52:41Z</time>
      </trkpt>
      <trkpt lat="46.18347" lon="-1.38098">
        <ele>6.3</ele>
        <time>2020-05-31T21:52:42Z</time>
      </trkpt>
      <trkpt lat="46.18353" lon="-1.38101">
        <ele>6.3</ele>
        <time>2020-05-31T21:52:43Z</time>
      </trkpt>
      <trkpt lat="46.18359" lon="-1.38103">
        <ele>6.2</ele>
        <time>2020-05-31T21:52:44Z</time>
      </trkpt>
      <trkpt lat="46.18363" lon="-1.38106">
        <ele>6.2</ele>
        <time>2020-05-31T21:52:45Z</time>
      </trkpt>
      <trkpt lat="46.18367" lon="-1.38108">
        <ele>6.2</ele>
        <time>2020-05-31T21:52:46Z</time>
      </trkpt>
      <trkpt lat="46.18371" lon="-1.38111">
        <ele>6.2</ele>
        <time>2020-05-31T21:52:47Z</time>
      </trkpt>
      <trkpt lat="46.18375" lon="-1.38113">
        <ele>6.1</ele>
        <time>2020-05-31T21:52:48Z</time>
      </trkpt>
      <trkpt lat="46.18379" lon="-1.38115">
        <ele>6.1</ele>
        <time>2020-05-31T21:52:49Z</time>
      </trkpt>
      <trkpt lat="46.18383" lon="-1.38118">
        <ele>6</ele>
        <time>2020-05-31T21:52:50Z</time>
      </trkpt>
      <trkpt lat="46.18387" lon="-1.38121">
        <ele>6</ele>
        <time>2020-05-31T21:52:51Z</time>
      </trkpt>
      <trkpt lat="46.18392" lon="-1.38124">
        <ele>5.9</ele>
        <time>2020-05-31T21:52:52Z</time>
      </trkpt>
      <trkpt lat="46.18396" lon="-1.38126">
        <ele>5.9</ele>
        <time>2020-05-31T21:52:53Z</time>
      </trkpt>
      <trkpt lat="46.18399" lon="-1.38129">
        <ele>5.8</ele>
        <time>2020-05-31T21:52:54Z</time>
      </trkpt>
      <trkpt lat="46.18402" lon="-1.38132">
        <ele>5.7</ele>
        <time>2020-05-31T21:52:55Z</time>
      </trkpt>
      <trkpt lat="46.18406" lon="-1.38135">
        <ele>5.6</ele>
        <time>2020-05-31T21:52:56Z</time>
      </trkpt>
      <trkpt lat="46.18414" lon="-1.38141">
        <ele>5.4</ele>
        <time>2020-05-31T21:52:57Z</time>
      </trkpt>
      <trkpt lat="46.1842" lon="-1.38145">
        <ele>5.2</ele>
        <time>2020-05-31T21:52:58Z</time>
      </trkpt>
      <trkpt lat="46.18426" lon="-1.3815">
        <ele>5</ele>
        <time>2020-05-31T21:52:59Z</time>
      </trkpt>
      <trkpt lat="46.18431" lon="-1.38154">
        <ele>4.8</ele>
        <time>2020-05-31T21:53:00Z</time>
      </trkpt>
      <trkpt lat="46.18435" lon="-1.38159">
        <ele>4.7</ele>
        <time>2020-05-31T21:53:01Z</time>
      </trkpt>
      <trkpt lat="46.18439" lon="-1.38163">
        <ele>4.5</ele>
        <time>2020-05-31T21:53:02Z</time>
      </trkpt>
      <trkpt lat="46.18444" lon="-1.38171">
        <ele>4.3</ele>
        <time>2020-05-31T21:53:03Z</time>
      </trkpt>
      <trkpt lat="46.1845" lon="-1.38178">
        <ele>4.1</ele>
        <time>2020-05-31T21:53:04Z</time>
      </trkpt>
      <trkpt lat="46.18455" lon="-1.38183">
        <ele>4</ele>
        <time>2020-05-31T21:53:05Z</time>
      </trkpt>
      <trkpt lat="46.1846" lon="-1.38185">
        <ele>3.9</ele>
        <time>2020-05-31T21:53:06Z</time>
      </trkpt>
      <trkpt lat="46.18465" lon="-1.38187">
        <ele>3.8</ele>
        <time>2020-05-31T21:53:07Z</time>
      </trkpt>
      <trkpt lat="46.1847" lon="-1.38188">
        <ele>3.8</ele>
        <time>2020-05-31T21:53:08Z</time>
      </trkpt>
      <trkpt lat="46.18477" lon="-1.38189">
        <ele>3.7</ele>
        <time>2020-05-31T21:53:09Z</time>
      </trkpt>
      <trkpt lat="46.18482" lon="-1.38193">
        <ele>3.7</ele>
        <time>2020-05-31T21:53:10Z</time>
      </trkpt>
      <trkpt lat="46.18486" lon="-1.38196">
        <ele>3.7</ele>
        <time>2020-05-31T21:53:11Z</time>
      </trkpt>
      <trkpt lat="46.18487" lon="-1.38205">
        <ele>3.7</ele>
        <time>2020-05-31T21:53:12Z</time>
      </trkpt>
      <trkpt lat="46.18485" lon="-1.3821">
        <ele>3.7</ele>
        <time>2020-05-31T21:53:13Z</time>
      </trkpt>
      <trkpt lat="46.18482" lon="-1.38216">
        <ele>3.7</ele>
        <time>2020-05-31T21:53:14Z</time>
      </trkpt>
      <trkpt lat="46.18479" lon="-1.38221">
        <ele>3.7</ele>
        <time>2020-05-31T21:53:15Z</time>
      </trkpt>
      <trkpt lat="46.18476" lon="-1.38227">
        <ele>3.7</ele>
        <time>2020-05-31T21:53:16Z</time>
      </trkpt>
      <trkpt lat="46.18472" lon="-1.38233">
        <ele>3.6</ele>
        <time>2020-05-31T21:53:17Z</time>
      </trkpt>
      <trkpt lat="46.18468" lon="-1.38237">
        <ele>3.6</ele>
        <time>2020-05-31T21:53:18Z</time>
      </trkpt>
      <trkpt lat="46.18464" lon="-1.38242">
        <ele>3.6</ele>
        <time>2020-05-31T21:53:19Z</time>
      </trkpt>
      <trkpt lat="46.18461" lon="-1.38248">
        <ele>3.5</ele>
        <time>2020-05-31T21:53:20Z</time>
      </trkpt>
      <trkpt lat="46.18457" lon="-1.38252">
        <ele>3.5</ele>
        <time>2020-05-31T21:53:21Z</time>
      </trkpt>
      <trkpt lat="46.18453" lon="-1.38258">
        <ele>3.5</ele>
        <time>2020-05-31T21:53:22Z</time>
      </trkpt>
      <trkpt lat="46.18449" lon="-1.38264">
        <ele>3.5</ele>
        <time>2020-05-31T21:53:23Z</time>
      </trkpt>
      <trkpt lat="46.18446" lon="-1.38269">
        <ele>3.5</ele>
        <time>2020-05-31T21:53:24Z</time>
      </trkpt>
      <trkpt lat="46.18442" lon="-1.38275">
        <ele>3.4</ele>
        <time>2020-05-31T21:53:25Z</time>
      </trkpt>
      <trkpt lat="46.18439" lon="-1.38279">
        <ele>3.4</ele>
        <time>2020-05-31T21:53:26Z</time>
      </trkpt>
      <trkpt lat="46.18436" lon="-1.38284">
        <ele>3.4</ele>
        <time>2020-05-31T21:53:27Z</time>
      </trkpt>
      <trkpt lat="46.18434" lon="-1.38289">
        <ele>3.4</ele>
        <time>2020-05-31T21:53:28Z</time>
      </trkpt>
      <trkpt lat="46.18432" lon="-1.38292">
        <ele>3.4</ele>
        <time>2020-05-31T21:53:29Z</time>
      </trkpt>
      <trkpt lat="46.18429" lon="-1.38297">
        <ele>3.4</ele>
        <time>2020-05-31T21:53:30Z</time>
      </trkpt>
      <trkpt lat="46.18426" lon="-1.38301">
        <ele>3.4</ele>
        <time>2020-05-31T21:53:31Z</time>
      </trkpt>
      <trkpt lat="46.18422" lon="-1.38306">
        <ele>3.4</ele>
        <time>2020-05-31T21:53:32Z</time>
      </trkpt>
      <trkpt lat="46.18417" lon="-1.38312">
        <ele>3.5</ele>
        <time>2020-05-31T21:53:33Z</time>
      </trkpt>
      <trkpt lat="46.18412" lon="-1.38318">
        <ele>3.5</ele>
        <time>2020-05-31T21:53:34Z</time>
      </trkpt>
      <trkpt lat="46.18409" lon="-1.38324">
        <ele>3.6</ele>
        <time>2020-05-31T21:53:35Z</time>
      </trkpt>
      <trkpt lat="46.18406" lon="-1.38331">
        <ele>3.7</ele>
        <time>2020-05-31T21:53:36Z</time>
      </trkpt>
      <trkpt lat="46.18402" lon="-1.38337">
        <ele>3.7</ele>
        <time>2020-05-31T21:53:37Z</time>
      </trkpt>
      <trkpt lat="46.184" lon="-1.38344">
        <ele>3.8</ele>
        <time>2020-05-31T21:53:38Z</time>
      </trkpt>
      <trkpt lat="46.18401" lon="-1.38349">
        <ele>3.8</ele>
        <time>2020-05-31T21:53:39Z</time>
      </trkpt>
      <trkpt lat="46.18403" lon="-1.38353">
        <ele>3.9</ele>
        <time>2020-05-31T21:53:40Z</time>
      </trkpt>
      <trkpt lat="46.18406" lon="-1.38357">
        <ele>3.9</ele>
        <time>2020-05-31T21:53:41Z</time>
      </trkpt>
      <trkpt lat="46.18408" lon="-1.3836">
        <ele>3.9</ele>
        <time>2020-05-31T21:53:42Z</time>
      </trkpt>
      <trkpt lat="46.18411" lon="-1.38363">
        <ele>3.9</ele>
        <time>2020-05-31T21:53:43Z</time>
      </trkpt>
      <trkpt lat="46.18415" lon="-1.38367">
        <ele>4</ele>
        <time>2020-05-31T21:53:44Z</time>
      </trkpt>
      <trkpt lat="46.18418" lon="-1.38369">
        <ele>4</ele>
        <time>2020-05-31T21:53:45Z</time>
      </trkpt>
      <trkpt lat="46.18421" lon="-1.38373">
        <ele>4</ele>
        <time>2020-05-31T21:53:46Z</time>
      </trkpt>
      <trkpt lat="46.18424" lon="-1.38378">
        <ele>4.1</ele>
        <time>2020-05-31T21:53:47Z</time>
      </trkpt>
      <trkpt lat="46.18428" lon="-1.38383">
        <ele>4.2</ele>
        <time>2020-05-31T21:53:48Z</time>
      </trkpt>
      <trkpt lat="46.18431" lon="-1.38389">
        <ele>4.3</ele>
        <time>2020-05-31T21:53:49Z</time>
      </trkpt>
      <trkpt lat="46.18434" lon="-1.38394">
        <ele>4.4</ele>
        <time>2020-05-31T21:53:50Z</time>
      </trkpt>
      <trkpt lat="46.18437" lon="-1.384">
        <ele>4.5</ele>
        <time>2020-05-31T21:53:51Z</time>
      </trkpt>
      <trkpt lat="46.18441" lon="-1.38406">
        <ele>4.6</ele>
        <time>2020-05-31T21:53:52Z</time>
      </trkpt>
      <trkpt lat="46.18444" lon="-1.38411">
        <ele>4.7</ele>
        <time>2020-05-31T21:53:53Z</time>
      </trkpt>
      <trkpt lat="46.18447" lon="-1.38417">
        <ele>4.7</ele>
        <time>2020-05-31T21:53:54Z</time>
      </trkpt>
      <trkpt lat="46.1845" lon="-1.38422">
        <ele>4.7</ele>
        <time>2020-05-31T21:53:55Z</time>
      </trkpt>
      <trkpt lat="46.18454" lon="-1.38429">
        <ele>4.8</ele>
        <time>2020-05-31T21:53:56Z</time>
      </trkpt>
      <trkpt lat="46.18458" lon="-1.38435">
        <ele>4.8</ele>
        <time>2020-05-31T21:53:57Z</time>
      </trkpt>
      <trkpt lat="46.1846" lon="-1.38439">
        <ele>4.8</ele>
        <time>2020-05-31T21:53:58Z</time>
      </trkpt>
      <trkpt lat="46.18462" lon="-1.38444">
        <ele>4.8</ele>
        <time>2020-05-31T21:53:59Z</time>
      </trkpt>
      <trkpt lat="46.18465" lon="-1.38448">
        <ele>4.8</ele>
        <time>2020-05-31T21:54:00Z</time>
      </trkpt>
      <trkpt lat="46.18468" lon="-1.38451">
        <ele>4.8</ele>
        <time>2020-05-31T21:54:01Z</time>
      </trkpt>
      <trkpt lat="46.18471" lon="-1.38454">
        <ele>4.8</ele>
        <time>2020-05-31T21:54:02Z</time>
      </trkpt>
      <trkpt lat="46.18473" lon="-1.38455">
        <ele>4.8</ele>
        <time>2020-05-31T21:54:03Z</time>
      </trkpt>
      <trkpt lat="46.18475" lon="-1.38457">
        <ele>4.9</ele>
        <time>2020-05-31T21:54:04Z</time>
      </trkpt>
      <trkpt lat="46.18476" lon="-1.3846">
        <ele>4.9</ele>
        <time>2020-05-31T21:54:05Z</time>
      </trkpt>
      <trkpt lat="46.18475" lon="-1.38465">
        <ele>4.9</ele>
        <time>2020-05-31T21:54:06Z</time>
      </trkpt>
      <trkpt lat="46.18476" lon="-1.38471">
        <ele>4.9</ele>
        <time>2020-05-31T21:54:07Z</time>
      </trkpt>
      <trkpt lat="46.18476" lon="-1.38473">
        <ele>4.9</ele>
        <time>2020-05-31T21:54:08Z</time>
      </trkpt>
      <trkpt lat="46.18477" lon="-1.38479">
        <ele>4.9</ele>
        <time>2020-05-31T21:54:09Z</time>
      </trkpt>
      <trkpt lat="46.18478" lon="-1.38481">
        <ele>4.9</ele>
        <time>2020-05-31T21:54:10Z</time>
      </trkpt>
      <trkpt lat="46.1848" lon="-1.38484">
        <ele>4.9</ele>
        <time>2020-05-31T21:54:11Z</time>
      </trkpt>
      <trkpt lat="46.18482" lon="-1.38487">
        <ele>4.9</ele>
        <time>2020-05-31T21:54:12Z</time>
      </trkpt>
      <trkpt lat="46.18484" lon="-1.38493">
        <ele>4.9</ele>
        <time>2020-05-31T21:54:13Z</time>
      </trkpt>
      <trkpt lat="46.18485" lon="-1.38496">
        <ele>4.9</ele>
        <time>2020-05-31T21:54:14Z</time>
      </trkpt>
      <trkpt lat="46.18485" lon="-1.38501">
        <ele>4.9</ele>
        <time>2020-05-31T21:54:15Z</time>
      </trkpt>
      <trkpt lat="46.18485" lon="-1.38506">
        <ele>4.9</ele>
        <time>2020-05-31T21:54:16Z</time>
      </trkpt>
      <trkpt lat="46.18486" lon="-1.38511">
        <ele>4.9</ele>
        <time>2020-05-31T21:54:17Z</time>
      </trkpt>
      <trkpt lat="46.18489" lon="-1.38517">
        <ele>5</ele>
        <time>2020-05-31T21:54:18Z</time>
      </trkpt>
      <trkpt lat="46.1849" lon="-1.38519">
        <ele>5</ele>
        <time>2020-05-31T21:54:19Z</time>
      </trkpt>
      <trkpt lat="46.18491" lon="-1.38525">
        <ele>5</ele>
        <time>2020-05-31T21:54:20Z</time>
      </trkpt>
      <trkpt lat="46.18493" lon="-1.38531">
        <ele>5</ele>
        <time>2020-05-31T21:54:21Z</time>
      </trkpt>
      <trkpt lat="46.18494" lon="-1.38537">
        <ele>5.1</ele>
        <time>2020-05-31T21:54:22Z</time>
      </trkpt>
      <trkpt lat="46.18496" lon="-1.38545">
        <ele>5.1</ele>
        <time>2020-05-31T21:54:23Z</time>
      </trkpt>
      <trkpt lat="46.18497" lon="-1.3855">
        <ele>5.1</ele>
        <time>2020-05-31T21:54:24Z</time>
      </trkpt>
      <trkpt lat="46.18498" lon="-1.38556">
        <ele>5.2</ele>
        <time>2020-05-31T21:54:25Z</time>
      </trkpt>
      <trkpt lat="46.185" lon="-1.38562">
        <ele>5.2</ele>
        <time>2020-05-31T21:54:26Z</time>
      </trkpt>
      <trkpt lat="46.18501" lon="-1.38569">
        <ele>5.2</ele>
        <time>2020-05-31T21:54:27Z</time>
      </trkpt>
      <trkpt lat="46.18503" lon="-1.38576">
        <ele>5.2</ele>
        <time>2020-05-31T21:54:28Z</time>
      </trkpt>
      <trkpt lat="46.18504" lon="-1.38584">
        <ele>5.3</ele>
        <time>2020-05-31T21:54:29Z</time>
      </trkpt>
      <trkpt lat="46.18504" lon="-1.38591">
        <ele>5.3</ele>
        <time>2020-05-31T21:54:30Z</time>
      </trkpt>
      <trkpt lat="46.18505" lon="-1.38599">
        <ele>5.3</ele>
        <time>2020-05-31T21:54:31Z</time>
      </trkpt>
      <trkpt lat="46.18505" lon="-1.38606">
        <ele>5.3</ele>
        <time>2020-05-31T21:54:32Z</time>
      </trkpt>
      <trkpt lat="46.18504" lon="-1.38613">
        <ele>5.4</ele>
        <time>2020-05-31T21:54:33Z</time>
      </trkpt>
      <trkpt lat="46.18505" lon="-1.3862">
        <ele>5.5</ele>
        <time>2020-05-31T21:54:34Z</time>
      </trkpt>
      <trkpt lat="46.18505" lon="-1.38627">
        <ele>5.5</ele>
        <time>2020-05-31T21:54:35Z</time>
      </trkpt>
      <trkpt lat="46.18505" lon="-1.38634">
        <ele>5.6</ele>
        <time>2020-05-31T21:54:36Z</time>
      </trkpt>
      <trkpt lat="46.18505" lon="-1.3864">
        <ele>5.6</ele>
        <time>2020-05-31T21:54:37Z</time>
      </trkpt>
      <trkpt lat="46.18503" lon="-1.38646">
        <ele>5.7</ele>
        <time>2020-05-31T21:54:38Z</time>
      </trkpt>
      <trkpt lat="46.18503" lon="-1.38653">
        <ele>5.8</ele>
        <time>2020-05-31T21:54:39Z</time>
      </trkpt>
      <trkpt lat="46.18502" lon="-1.38661">
        <ele>5.8</ele>
        <time>2020-05-31T21:54:40Z</time>
      </trkpt>
      <trkpt lat="46.18501" lon="-1.38668">
        <ele>5.8</ele>
        <time>2020-05-31T21:54:41Z</time>
      </trkpt>
      <trkpt lat="46.18501" lon="-1.38674">
        <ele>5.9</ele>
        <time>2020-05-31T21:54:42Z</time>
      </trkpt>
      <trkpt lat="46.18499" lon="-1.38681">
        <ele>5.9</ele>
        <time>2020-05-31T21:54:43Z</time>
      </trkpt>
      <trkpt lat="46.18499" lon="-1.38688">
        <ele>6</ele>
        <time>2020-05-31T21:54:44Z</time>
      </trkpt>
      <trkpt lat="46.18497" lon="-1.38694">
        <ele>6</ele>
        <time>2020-05-31T21:54:45Z</time>
      </trkpt>
      <trkpt lat="46.18495" lon="-1.38699">
        <ele>6</ele>
        <time>2020-05-31T21:54:46Z</time>
      </trkpt>
      <trkpt lat="46.18492" lon="-1.38705">
        <ele>6</ele>
        <time>2020-05-31T21:54:47Z</time>
      </trkpt>
      <trkpt lat="46.18488" lon="-1.38707">
        <ele>6</ele>
        <time>2020-05-31T21:54:48Z</time>
      </trkpt>
      <trkpt lat="46.18482" lon="-1.38704">
        <ele>6</ele>
        <time>2020-05-31T21:54:49Z</time>
      </trkpt>
      <trkpt lat="46.18477" lon="-1.38701">
        <ele>6</ele>
        <time>2020-05-31T21:54:50Z</time>
      </trkpt>
      <trkpt lat="46.18471" lon="-1.387">
        <ele>5.9</ele>
        <time>2020-05-31T21:54:51Z</time>
      </trkpt>
      <trkpt lat="46.18466" lon="-1.38699">
        <ele>5.8</ele>
        <time>2020-05-31T21:54:52Z</time>
      </trkpt>
      <trkpt lat="46.18462" lon="-1.38696">
        <ele>5.7</ele>
        <time>2020-05-31T21:54:53Z</time>
      </trkpt>
      <trkpt lat="46.18457" lon="-1.38693">
        <ele>5.7</ele>
        <time>2020-05-31T21:54:54Z</time>
      </trkpt>
      <trkpt lat="46.18452" lon="-1.38691">
        <ele>5.6</ele>
        <time>2020-05-31T21:54:55Z</time>
      </trkpt>
      <trkpt lat="46.18446" lon="-1.38687">
        <ele>5.5</ele>
        <time>2020-05-31T21:54:56Z</time>
      </trkpt>
      <trkpt lat="46.18441" lon="-1.38683">
        <ele>5.4</ele>
        <time>2020-05-31T21:54:57Z</time>
      </trkpt>
      <trkpt lat="46.18436" lon="-1.38681">
        <ele>5.3</ele>
        <time>2020-05-31T21:54:58Z</time>
      </trkpt>
      <trkpt lat="46.18432" lon="-1.38677">
        <ele>5.2</ele>
        <time>2020-05-31T21:54:59Z</time>
      </trkpt>
      <trkpt lat="46.18428" lon="-1.38673">
        <ele>5.1</ele>
        <time>2020-05-31T21:55:00Z</time>
      </trkpt>
      <trkpt lat="46.18424" lon="-1.3867">
        <ele>5.1</ele>
        <time>2020-05-31T21:55:01Z</time>
      </trkpt>
      <trkpt lat="46.1842" lon="-1.38666">
        <ele>5</ele>
        <time>2020-05-31T21:55:02Z</time>
      </trkpt>
      <trkpt lat="46.18414" lon="-1.38663">
        <ele>5</ele>
        <time>2020-05-31T21:55:03Z</time>
      </trkpt>
      <trkpt lat="46.1841" lon="-1.3866">
        <ele>4.9</ele>
        <time>2020-05-31T21:55:04Z</time>
      </trkpt>
      <trkpt lat="46.18405" lon="-1.38656">
        <ele>4.9</ele>
        <time>2020-05-31T21:55:05Z</time>
      </trkpt>
      <trkpt lat="46.18401" lon="-1.38652">
        <ele>4.9</ele>
        <time>2020-05-31T21:55:06Z</time>
      </trkpt>
      <trkpt lat="46.18396" lon="-1.38648">
        <ele>4.8</ele>
        <time>2020-05-31T21:55:07Z</time>
      </trkpt>
      <trkpt lat="46.18392" lon="-1.38645">
        <ele>4.8</ele>
        <time>2020-05-31T21:55:08Z</time>
      </trkpt>
      <trkpt lat="46.18386" lon="-1.38641">
        <ele>4.7</ele>
        <time>2020-05-31T21:55:09Z</time>
      </trkpt>
      <trkpt lat="46.18381" lon="-1.3864">
        <ele>4.7</ele>
        <time>2020-05-31T21:55:10Z</time>
      </trkpt>
      <trkpt lat="46.18376" lon="-1.38636">
        <ele>4.6</ele>
        <time>2020-05-31T21:55:11Z</time>
      </trkpt>
      <trkpt lat="46.18372" lon="-1.38632">
        <ele>4.6</ele>
        <time>2020-05-31T21:55:12Z</time>
      </trkpt>
      <trkpt lat="46.18367" lon="-1.38628">
        <ele>4.5</ele>
        <time>2020-05-31T21:55:13Z</time>
      </trkpt>
      <trkpt lat="46.18363" lon="-1.38625">
        <ele>4.5</ele>
        <time>2020-05-31T21:55:14Z</time>
      </trkpt>
      <trkpt lat="46.18359" lon="-1.38622">
        <ele>4.4</ele>
        <time>2020-05-31T21:55:15Z</time>
      </trkpt>
      <trkpt lat="46.18354" lon="-1.38618">
        <ele>4.4</ele>
        <time>2020-05-31T21:55:16Z</time>
      </trkpt>
      <trkpt lat="46.1835" lon="-1.38614">
        <ele>4.4</ele>
        <time>2020-05-31T21:55:17Z</time>
      </trkpt>
      <trkpt lat="46.18345" lon="-1.3861">
        <ele>4.4</ele>
        <time>2020-05-31T21:55:18Z</time>
      </trkpt>
      <trkpt lat="46.18341" lon="-1.38607">
        <ele>4.4</ele>
        <time>2020-05-31T21:55:19Z</time>
      </trkpt>
      <trkpt lat="46.18336" lon="-1.38604">
        <ele>4.3</ele>
        <time>2020-05-31T21:55:20Z</time>
      </trkpt>
      <trkpt lat="46.18332" lon="-1.38602">
        <ele>4.3</ele>
        <time>2020-05-31T21:55:21Z</time>
      </trkpt>
      <trkpt lat="46.18327" lon="-1.38599">
        <ele>4.3</ele>
        <time>2020-05-31T21:55:22Z</time>
      </trkpt>
      <trkpt lat="46.18324" lon="-1.38596">
        <ele>4.3</ele>
        <time>2020-05-31T21:55:23Z</time>
      </trkpt>
      <trkpt lat="46.1832" lon="-1.38593">
        <ele>4.4</ele>
        <time>2020-05-31T21:55:24Z</time>
      </trkpt>
      <trkpt lat="46.18317" lon="-1.38591">
        <ele>4.4</ele>
        <time>2020-05-31T21:55:25Z</time>
      </trkpt>
      <trkpt lat="46.18313" lon="-1.38588">
        <ele>4.4</ele>
        <time>2020-05-31T21:55:26Z</time>
      </trkpt>
      <trkpt lat="46.1831" lon="-1.38587">
        <ele>4.3</ele>
        <time>2020-05-31T21:55:27Z</time>
      </trkpt>
      <trkpt lat="46.18306" lon="-1.38585">
        <ele>4.3</ele>
        <time>2020-05-31T21:55:28Z</time>
      </trkpt>
      <trkpt lat="46.18302" lon="-1.38584">
        <ele>4.3</ele>
        <time>2020-05-31T21:55:29Z</time>
      </trkpt>
      <trkpt lat="46.18301" lon="-1.38583">
        <ele>4.3</ele>
        <time>2020-05-31T21:55:30Z</time>
      </trkpt>
      <trkpt lat="46.18297" lon="-1.3858">
        <ele>4.2</ele>
        <time>2020-05-31T21:55:31Z</time>
      </trkpt>
      <trkpt lat="46.18294" lon="-1.38578">
        <ele>4.2</ele>
        <time>2020-05-31T21:55:32Z</time>
      </trkpt>
      <trkpt lat="46.18292" lon="-1.38577">
        <ele>4.2</ele>
        <time>2020-05-31T21:55:33Z</time>
      </trkpt>
      <trkpt lat="46.18289" lon="-1.38576">
        <ele>4.2</ele>
        <time>2020-05-31T21:55:34Z</time>
      </trkpt>
      <trkpt lat="46.18286" lon="-1.38575">
        <ele>4.2</ele>
        <time>2020-05-31T21:55:35Z</time>
      </trkpt>
      <trkpt lat="46.18283" lon="-1.38573">
        <ele>4.1</ele>
        <time>2020-05-31T21:55:36Z</time>
      </trkpt>
      <trkpt lat="46.18279" lon="-1.38572">
        <ele>4.1</ele>
        <time>2020-05-31T21:55:37Z</time>
      </trkpt>
      <trkpt lat="46.18278" lon="-1.38571">
        <ele>4.1</ele>
        <time>2020-05-31T21:55:38Z</time>
      </trkpt>
      <trkpt lat="46.18274" lon="-1.38571">
        <ele>4</ele>
        <time>2020-05-31T21:55:39Z</time>
      </trkpt>
      <trkpt lat="46.18272" lon="-1.3857">
        <ele>4</ele>
        <time>2020-05-31T21:55:40Z</time>
      </trkpt>
      <trkpt lat="46.18269" lon="-1.38569">
        <ele>4</ele>
        <time>2020-05-31T21:55:41Z</time>
      </trkpt>
      <trkpt lat="46.18266" lon="-1.38567">
        <ele>3.9</ele>
        <time>2020-05-31T21:55:42Z</time>
      </trkpt>
      <trkpt lat="46.18264" lon="-1.38566">
        <ele>3.9</ele>
        <time>2020-05-31T21:55:43Z</time>
      </trkpt>
      <trkpt lat="46.18261" lon="-1.38564">
        <ele>3.9</ele>
        <time>2020-05-31T21:55:44Z</time>
      </trkpt>
      <trkpt lat="46.18257" lon="-1.38563">
        <ele>3.8</ele>
        <time>2020-05-31T21:55:45Z</time>
      </trkpt>
      <trkpt lat="46.18254" lon="-1.38562">
        <ele>3.8</ele>
        <time>2020-05-31T21:55:46Z</time>
      </trkpt>
      <trkpt lat="46.18251" lon="-1.3856">
        <ele>3.8</ele>
        <time>2020-05-31T21:55:47Z</time>
      </trkpt>
      <trkpt lat="46.18248" lon="-1.38559">
        <ele>3.7</ele>
        <time>2020-05-31T21:55:48Z</time>
      </trkpt>
      <trkpt lat="46.18244" lon="-1.38558">
        <ele>3.7</ele>
        <time>2020-05-31T21:55:49Z</time>
      </trkpt>
      <trkpt lat="46.18241" lon="-1.38556">
        <ele>3.6</ele>
        <time>2020-05-31T21:55:50Z</time>
      </trkpt>
      <trkpt lat="46.1824" lon="-1.38555">
        <ele>3.6</ele>
        <time>2020-05-31T21:55:51Z</time>
      </trkpt>
      <trkpt lat="46.18239" lon="-1.38555">
        <ele>3.6</ele>
        <time>2020-05-31T21:55:52Z</time>
      </trkpt>
      <trkpt lat="46.18238" lon="-1.38554">
        <ele>3.6</ele>
        <time>2020-05-31T21:55:53Z</time>
      </trkpt>
      <trkpt lat="46.18234" lon="-1.38553">
        <ele>3.6</ele>
        <time>2020-05-31T21:55:54Z</time>
      </trkpt>
      <trkpt lat="46.18232" lon="-1.38552">
        <ele>3.5</ele>
        <time>2020-05-31T21:55:55Z</time>
      </trkpt>
      <trkpt lat="46.18228" lon="-1.38552">
        <ele>3.5</ele>
        <time>2020-05-31T21:55:56Z</time>
      </trkpt>
      <trkpt lat="46.18224" lon="-1.3855">
        <ele>3.5</ele>
        <time>2020-05-31T21:55:57Z</time>
      </trkpt>
      <trkpt lat="46.1822" lon="-1.3855">
        <ele>3.5</ele>
        <time>2020-05-31T21:55:58Z</time>
      </trkpt>
      <trkpt lat="46.18216" lon="-1.3855">
        <ele>3.4</ele>
        <time>2020-05-31T21:55:59Z</time>
      </trkpt>
      <trkpt lat="46.18215" lon="-1.38549">
        <ele>3.4</ele>
        <time>2020-05-31T21:56:00Z</time>
      </trkpt>
      <trkpt lat="46.18212" lon="-1.38549">
        <ele>3.4</ele>
        <time>2020-05-31T21:56:01Z</time>
      </trkpt>
      <trkpt lat="46.1821" lon="-1.3855">
        <ele>3.4</ele>
        <time>2020-05-31T21:56:02Z</time>
      </trkpt>
      <trkpt lat="46.18207" lon="-1.38552">
        <ele>3.4</ele>
        <time>2020-05-31T21:56:03Z</time>
      </trkpt>
      <trkpt lat="46.18204" lon="-1.38558">
        <ele>3.3</ele>
        <time>2020-05-31T21:56:04Z</time>
      </trkpt>
      <trkpt lat="46.18202" lon="-1.38564">
        <ele>3.4</ele>
        <time>2020-05-31T21:56:05Z</time>
      </trkpt>
      <trkpt lat="46.18201" lon="-1.38571">
        <ele>3.4</ele>
        <time>2020-05-31T21:56:06Z</time>
      </trkpt>
      <trkpt lat="46.18201" lon="-1.38577">
        <ele>3.4</ele>
        <time>2020-05-31T21:56:07Z</time>
      </trkpt>
      <trkpt lat="46.182" lon="-1.38583">
        <ele>3.5</ele>
        <time>2020-05-31T21:56:08Z</time>
      </trkpt>
      <trkpt lat="46.18199" lon="-1.3859">
        <ele>3.5</ele>
        <time>2020-05-31T21:56:09Z</time>
      </trkpt>
      <trkpt lat="46.18199" lon="-1.38595">
        <ele>3.5</ele>
        <time>2020-05-31T21:56:10Z</time>
      </trkpt>
      <trkpt lat="46.18198" lon="-1.38601">
        <ele>3.6</ele>
        <time>2020-05-31T21:56:11Z</time>
      </trkpt>
      <trkpt lat="46.18197" lon="-1.38606">
        <ele>3.6</ele>
        <time>2020-05-31T21:56:12Z</time>
      </trkpt>
      <trkpt lat="46.18196" lon="-1.38611">
        <ele>3.6</ele>
        <time>2020-05-31T21:56:13Z</time>
      </trkpt>
      <trkpt lat="46.18197" lon="-1.38618">
        <ele>3.7</ele>
        <time>2020-05-31T21:56:14Z</time>
      </trkpt>
      <trkpt lat="46.18196" lon="-1.38623">
        <ele>3.7</ele>
        <time>2020-05-31T21:56:15Z</time>
      </trkpt>
      <trkpt lat="46.18195" lon="-1.38628">
        <ele>3.8</ele>
        <time>2020-05-31T21:56:16Z</time>
      </trkpt>
      <trkpt lat="46.18195" lon="-1.38633">
        <ele>3.8</ele>
        <time>2020-05-31T21:56:17Z</time>
      </trkpt>
      <trkpt lat="46.18195" lon="-1.38638">
        <ele>3.8</ele>
        <time>2020-05-31T21:56:18Z</time>
      </trkpt>
      <trkpt lat="46.18195" lon="-1.3864">
        <ele>3.8</ele>
        <time>2020-05-31T21:56:19Z</time>
      </trkpt>
      <trkpt lat="46.18195" lon="-1.38641">
        <ele>3.8</ele>
        <time>2020-05-31T21:56:20Z</time>
      </trkpt>
      <trkpt lat="46.18194" lon="-1.38641">
        <ele>3.8</ele>
        <time>2020-05-31T21:56:21Z</time>
      </trkpt>
      <trkpt lat="46.18194" lon="-1.38642">
        <ele>3.8</ele>
        <time>2020-05-31T21:56:22Z</time>
      </trkpt>
      <trkpt lat="46.18194" lon="-1.38641">
        <ele>3.8</ele>
        <time>2020-05-31T21:56:23Z</time>
      </trkpt>
      <trkpt lat="46.18195" lon="-1.38641">
        <ele>3.8</ele>
        <time>2020-05-31T21:56:24Z</time>
      </trkpt>
      <trkpt lat="46.18195" lon="-1.3864">
        <ele>3.8</ele>
        <time>2020-05-31T21:56:25Z</time>
      </trkpt>
      <trkpt lat="46.18195" lon="-1.3864">
        <ele>3.8</ele>
        <time>2020-05-31T21:56:26Z</time>
      </trkpt>
      <trkpt lat="46.18196" lon="-1.3864">
        <ele>3.8</ele>
        <time>2020-05-31T21:56:27Z</time>
      </trkpt>
      <trkpt lat="46.18195" lon="-1.3864">
        <ele>3.8</ele>
        <time>2020-05-31T21:56:28Z</time>
      </trkpt>
      <trkpt lat="46.18194" lon="-1.38641">
        <ele>3.8</ele>
        <time>2020-05-31T21:56:29Z</time>
      </trkpt>
      <trkpt lat="46.18194" lon="-1.38641">
        <ele>3.8</ele>
        <time>2020-05-31T21:56:30Z</time>
      </trkpt>
      <trkpt lat="46.18193" lon="-1.38641">
        <ele>3.8</ele>
        <time>2020-05-31T21:56:31Z</time>
      </trkpt>
      <trkpt lat="46.18195" lon="-1.38641">
        <ele>3.8</ele>
        <time>2020-05-31T21:56:32Z</time>
      </trkpt>
      <trkpt lat="46.18195" lon="-1.3864">
        <ele>3.8</ele>
        <time>2020-05-31T21:56:33Z</time>
      </trkpt>
      <trkpt lat="46.18195" lon="-1.3864">
        <ele>3.8</ele>
        <time>2020-05-31T21:56:34Z</time>
      </trkpt>
      <trkpt lat="46.18195" lon="-1.3864">
        <ele>3.8</ele>
        <time>2020-05-31T21:56:35Z</time>
      </trkpt>
      <trkpt lat="46.18195" lon="-1.3864">
        <ele>3.8</ele>
        <time>2020-05-31T21:56:36Z</time>
      </trkpt>
      <trkpt lat="46.18195" lon="-1.3864">
        <ele>3.8</ele>
        <time>2020-05-31T21:56:37Z</time>
      </trkpt>
      <trkpt lat="46.18195" lon="-1.38641">
        <ele>3.8</ele>
        <time>2020-05-31T21:56:38Z</time>
      </trkpt>
      <trkpt lat="46.18195" lon="-1.38641">
        <ele>3.8</ele>
        <time>2020-05-31T21:56:39Z</time>
      </trkpt>
      <trkpt lat="46.18195" lon="-1.38641">
        <ele>3.8</ele>
        <time>2020-05-31T21:56:40Z</time>
      </trkpt>
      <trkpt lat="46.18195" lon="-1.38641">
        <ele>3.8</ele>
        <time>2020-05-31T21:56:41Z</time>
      </trkpt>
      <trkpt lat="46.18195" lon="-1.38641">
        <ele>3.8</ele>
        <time>2020-05-31T21:56:42Z</time>
      </trkpt>
      <trkpt lat="46.18195" lon="-1.38641">
        <ele>3.8</ele>
        <time>2020-05-31T21:56:43Z</time>
      </trkpt>
      <trkpt lat="46.18195" lon="-1.38641">
        <ele>3.8</ele>
        <time>2020-05-31T21:56:44Z</time>
      </trkpt>
      <trkpt lat="46.18195" lon="-1.38641">
        <ele>3.8</ele>
        <time>2020-05-31T21:56:45Z</time>
      </trkpt>
      <trkpt lat="46.18195" lon="-1.38641">
        <ele>3.8</ele>
        <time>2020-05-31T21:56:46Z</time>
      </trkpt>
      <trkpt lat="46.18195" lon="-1.38641">
        <ele>3.8</ele>
        <time>2020-05-31T21:56:47Z</time>
      </trkpt>
      <trkpt lat="46.18195" lon="-1.38641">
        <ele>3.8</ele>
        <time>2020-05-31T21:56:48Z</time>
      </trkpt>
      <trkpt lat="46.18195" lon="-1.38641">
        <ele>3.8</ele>
        <time>2020-05-31T21:56:49Z</time>
      </trkpt>
      <trkpt lat="46.18195" lon="-1.38641">
        <ele>3.8</ele>
        <time>2020-05-31T21:56:50Z</time>
      </trkpt>
      <trkpt lat="46.18194" lon="-1.38641">
        <ele>3.8</ele>
        <time>2020-05-31T21:56:51Z</time>
      </trkpt>
      <trkpt lat="46.18194" lon="-1.38641">
        <ele>3.8</ele>
        <time>2020-05-31T21:56:52Z</time>
      </trkpt>
      <trkpt lat="46.18194" lon="-1.38641">
        <ele>3.8</ele>
        <time>2020-05-31T21:56:53Z</time>
      </trkpt>
      <trkpt lat="46.18194" lon="-1.38641">
        <ele>3.8</ele>
        <time>2020-05-31T21:56:54Z</time>
      </trkpt>
      <trkpt lat="46.18194" lon="-1.38641">
        <ele>3.8</ele>
        <time>2020-05-31T21:56:55Z</time>
      </trkpt>
      <trkpt lat="46.18194" lon="-1.38641">
        <ele>3.8</ele>
        <time>2020-05-31T21:56:56Z</time>
      </trkpt>
      <trkpt lat="46.18194" lon="-1.38641">
        <ele>3.8</ele>
        <time>2020-05-31T21:56:57Z</time>
      </trkpt>
      <trkpt lat="46.18194" lon="-1.38641">
        <ele>3.8</ele>
        <time>2020-05-31T21:56:58Z</time>
      </trkpt>
      <trkpt lat="46.18194" lon="-1.38641">
        <ele>3.8</ele>
        <time>2020-05-31T21:56:59Z</time>
      </trkpt>
      <trkpt lat="46.18194" lon="-1.38642">
        <ele>3.8</ele>
        <time>2020-05-31T21:57:00Z</time>
      </trkpt>
      <trkpt lat="46.18194" lon="-1.38642">
        <ele>3.8</ele>
        <time>2020-05-31T21:57:01Z</time>
      </trkpt>
      <trkpt lat="46.18194" lon="-1.38642">
        <ele>3.8</ele>
        <time>2020-05-31T21:57:02Z</time>
      </trkpt>
      <trkpt lat="46.18194" lon="-1.38642">
        <ele>3.8</ele>
        <time>2020-05-31T21:57:03Z</time>
      </trkpt>
      <trkpt lat="46.18194" lon="-1.38642">
        <ele>3.8</ele>
        <time>2020-05-31T21:57:04Z</time>
      </trkpt>
      <trkpt lat="46.18194" lon="-1.38642">
        <ele>3.8</ele>
        <time>2020-05-31T21:57:05Z</time>
      </trkpt>
      <trkpt lat="46.18194" lon="-1.38642">
        <ele>3.8</ele>
        <time>2020-05-31T21:57:06Z</time>
      </trkpt>
      <trkpt lat="46.18194" lon="-1.38642">
        <ele>3.8</ele>
        <time>2020-05-31T21:57:07Z</time>
      </trkpt>
      <trkpt lat="46.18194" lon="-1.38642">
        <ele>3.8</ele>
        <time>2020-05-31T21:57:08Z</time>
      </trkpt>
      <trkpt lat="46.18194" lon="-1.38642">
        <ele>3.8</ele>
        <time>2020-05-31T21:57:09Z</time>
      </trkpt>
      <trkpt lat="46.18194" lon="-1.38642">
        <ele>3.8</ele>
        <time>2020-05-31T21:57:10Z</time>
      </trkpt>
      <trkpt lat="46.18194" lon="-1.38642">
        <ele>3.7</ele>
        <time>2020-05-31T21:57:11Z</time>
      </trkpt>
      <trkpt lat="46.18194" lon="-1.38642">
        <ele>3.7</ele>
        <time>2020-05-31T21:57:12Z</time>
      </trkpt>
      <trkpt lat="46.18194" lon="-1.38642">
        <ele>3.7</ele>
        <time>2020-05-31T21:57:13Z</time>
      </trkpt>
      <trkpt lat="46.18194" lon="-1.38643">
        <ele>3.7</ele>
        <time>2020-05-31T21:57:14Z</time>
      </trkpt>
      <trkpt lat="46.18194" lon="-1.38643">
        <ele>3.7</ele>
        <time>2020-05-31T21:57:15Z</time>
      </trkpt>
      <trkpt lat="46.18194" lon="-1.38643">
        <ele>3.7</ele>
        <time>2020-05-31T21:57:16Z</time>
      </trkpt>
      <trkpt lat="46.18194" lon="-1.38644">
        <ele>3.7</ele>
        <time>2020-05-31T21:57:17Z</time>
      </trkpt>
      <trkpt lat="46.18194" lon="-1.38644">
        <ele>3.7</ele>
        <time>2020-05-31T21:57:18Z</time>
      </trkpt>
      <trkpt lat="46.18194" lon="-1.38644">
        <ele>3.7</ele>
        <time>2020-05-31T21:57:19Z</time>
      </trkpt>
      <trkpt lat="46.18194" lon="-1.38644">
        <ele>3.7</ele>
        <time>2020-05-31T21:57:20Z</time>
      </trkpt>
      <trkpt lat="46.18195" lon="-1.38644">
        <ele>3.7</ele>
        <time>2020-05-31T21:57:21Z</time>
      </trkpt>
      <trkpt lat="46.18195" lon="-1.38645">
        <ele>3.7</ele>
        <time>2020-05-31T21:57:22Z</time>
      </trkpt>
      <trkpt lat="46.18195" lon="-1.38644">
        <ele>3.7</ele>
        <time>2020-05-31T21:57:23Z</time>
      </trkpt>
      <trkpt lat="46.18195" lon="-1.38645">
        <ele>3.7</ele>
        <time>2020-05-31T21:57:24Z</time>
      </trkpt>
      <trkpt lat="46.18195" lon="-1.38645">
        <ele>3.7</ele>
        <time>2020-05-31T21:57:25Z</time>
      </trkpt>
      <trkpt lat="46.18194" lon="-1.38645">
        <ele>3.7</ele>
        <time>2020-05-31T21:57:26Z</time>
      </trkpt>
      <trkpt lat="46.18194" lon="-1.38645">
        <ele>3.8</ele>
        <time>2020-05-31T21:57:27Z</time>
      </trkpt>
      <trkpt lat="46.18194" lon="-1.38645">
        <ele>3.8</ele>
        <time>2020-05-31T21:57:28Z</time>
      </trkpt>
      <trkpt lat="46.18194" lon="-1.38645">
        <ele>3.8</ele>
        <time>2020-05-31T21:57:29Z</time>
      </trkpt>
      <trkpt lat="46.18194" lon="-1.38645">
        <ele>3.8</ele>
        <time>2020-05-31T21:57:30Z</time>
      </trkpt>
      <trkpt lat="46.18194" lon="-1.38645">
        <ele>3.8</ele>
        <time>2020-05-31T21:57:31Z</time>
      </trkpt>
      <trkpt lat="46.18194" lon="-1.38645">
        <ele>3.8</ele>
        <time>2020-05-31T21:57:32Z</time>
      </trkpt>
      <trkpt lat="46.18194" lon="-1.38645">
        <ele>3.8</ele>
        <time>2020-05-31T21:57:33Z</time>
      </trkpt>
      <trkpt lat="46.18194" lon="-1.38645">
        <ele>3.8</ele>
        <time>2020-05-31T21:57:34Z</time>
      </trkpt>
      <trkpt lat="46.18194" lon="-1.38645">
        <ele>3.8</ele>
        <time>2020-05-31T21:57:35Z</time>
      </trkpt>
      <trkpt lat="46.18194" lon="-1.38645">
        <ele>3.8</ele>
        <time>2020-05-31T21:57:36Z</time>
      </trkpt>
      <trkpt lat="46.18194" lon="-1.38645">
        <ele>3.8</ele>
        <time>2020-05-31T21:57:37Z</time>
      </trkpt>
      <trkpt lat="46.18193" lon="-1.38644">
        <ele>3.8</ele>
        <time>2020-05-31T21:57:38Z</time>
      </trkpt>
      <trkpt lat="46.18193" lon="-1.38643">
        <ele>3.8</ele>
        <time>2020-05-31T21:57:39Z</time>
      </trkpt>
      <trkpt lat="46.18193" lon="-1.38643">
        <ele>3.8</ele>
        <time>2020-05-31T21:57:40Z</time>
      </trkpt>
      <trkpt lat="46.18193" lon="-1.38643">
        <ele>3.8</ele>
        <time>2020-05-31T21:57:41Z</time>
      </trkpt>
      <trkpt lat="46.18193" lon="-1.38643">
        <ele>3.8</ele>
        <time>2020-05-31T21:57:42Z</time>
      </trkpt>
      <trkpt lat="46.18193" lon="-1.38643">
        <ele>3.8</ele>
        <time>2020-05-31T21:57:43Z</time>
      </trkpt>
      <trkpt lat="46.18193" lon="-1.38643">
        <ele>3.8</ele>
        <time>2020-05-31T21:57:44Z</time>
      </trkpt>
      <trkpt lat="46.18193" lon="-1.38642">
        <ele>3.8</ele>
        <time>2020-05-31T21:57:45Z</time>
      </trkpt>
      <trkpt lat="46.18193" lon="-1.38642">
        <ele>3.8</ele>
        <time>2020-05-31T21:57:46Z</time>
      </trkpt>
      <trkpt lat="46.18193" lon="-1.38641">
        <ele>3.8</ele>
        <time>2020-05-31T21:57:47Z</time>
      </trkpt>
      <trkpt lat="46.18193" lon="-1.3864">
        <ele>3.8</ele>
        <time>2020-05-31T21:57:48Z</time>
      </trkpt>
      <trkpt lat="46.18193" lon="-1.3864">
        <ele>3.8</ele>
        <time>2020-05-31T21:57:49Z</time>
      </trkpt>
      <trkpt lat="46.18193" lon="-1.3864">
        <ele>3.8</ele>
        <time>2020-05-31T21:57:50Z</time>
      </trkpt>
      <trkpt lat="46.18193" lon="-1.3864">
        <ele>3.8</ele>
        <time>2020-05-31T21:57:51Z</time>
      </trkpt>
      <trkpt lat="46.18193" lon="-1.3864">
        <ele>3.8</ele>
        <time>2020-05-31T21:57:52Z</time>
      </trkpt>
      <trkpt lat="46.18193" lon="-1.3864">
        <ele>3.8</ele>
        <time>2020-05-31T21:57:53Z</time>
      </trkpt>
      <trkpt lat="46.18193" lon="-1.3864">
        <ele>3.8</ele>
        <time>2020-05-31T21:57:54Z</time>
      </trkpt>
      <trkpt lat="46.18193" lon="-1.3864">
        <ele>3.8</ele>
        <time>2020-05-31T21:57:55Z</time>
      </trkpt>
      <trkpt lat="46.18193" lon="-1.3864">
        <ele>3.8</ele>
        <time>2020-05-31T21:57:56Z</time>
      </trkpt>
      <trkpt lat="46.18193" lon="-1.3864">
        <ele>3.8</ele>
        <time>2020-05-31T21:57:57Z</time>
      </trkpt>
      <trkpt lat="46.18193" lon="-1.3864">
        <ele>3.8</ele>
        <time>2020-05-31T21:57:58Z</time>
      </trkpt>
      <trkpt lat="46.18192" lon="-1.3864">
        <ele>3.8</ele>
        <time>2020-05-31T21:57:59Z</time>
      </trkpt>
      <trkpt lat="46.18192" lon="-1.3864">
        <ele>3.8</ele>
        <time>2020-05-31T21:58:00Z</time>
      </trkpt>
      <trkpt lat="46.18192" lon="-1.3864">
        <ele>3.8</ele>
        <time>2020-05-31T21:58:01Z</time>
      </trkpt>
      <trkpt lat="46.18192" lon="-1.3864">
        <ele>3.8</ele>
        <time>2020-05-31T21:58:02Z</time>
      </trkpt>
      <trkpt lat="46.18192" lon="-1.3864">
        <ele>3.8</ele>
        <time>2020-05-31T21:58:03Z</time>
      </trkpt>
      <trkpt lat="46.18192" lon="-1.3864">
        <ele>3.8</ele>
        <time>2020-05-31T21:58:04Z</time>
      </trkpt>
      <trkpt lat="46.18192" lon="-1.3864">
        <ele>3.8</ele>
        <time>2020-05-31T21:58:05Z</time>
      </trkpt>
      <trkpt lat="46.18192" lon="-1.38641">
        <ele>3.8</ele>
        <time>2020-05-31T21:58:06Z</time>
      </trkpt>
      <trkpt lat="46.18192" lon="-1.38641">
        <ele>3.8</ele>
        <time>2020-05-31T21:58:07Z</time>
      </trkpt>
      <trkpt lat="46.18192" lon="-1.38641">
        <ele>3.8</ele>
        <time>2020-05-31T21:58:08Z</time>
      </trkpt>
      <trkpt lat="46.18192" lon="-1.38641">
        <ele>3.8</ele>
        <time>2020-05-31T21:58:09Z</time>
      </trkpt>
      <trkpt lat="46.18192" lon="-1.38641">
        <ele>3.8</ele>
        <time>2020-05-31T21:58:10Z</time>
      </trkpt>
      <trkpt lat="46.18192" lon="-1.38641">
        <ele>3.8</ele>
        <time>2020-05-31T21:58:11Z</time>
      </trkpt>
      <trkpt lat="46.18192" lon="-1.38641">
        <ele>3.8</ele>
        <time>2020-05-31T21:58:12Z</time>
      </trkpt>
      <trkpt lat="46.18192" lon="-1.3864">
        <ele>3.8</ele>
        <time>2020-05-31T21:58:13Z</time>
      </trkpt>
      <trkpt lat="46.18192" lon="-1.38639">
        <ele>3.8</ele>
        <time>2020-05-31T21:58:14Z</time>
      </trkpt>
      <trkpt lat="46.18192" lon="-1.38639">
        <ele>3.8</ele>
        <time>2020-05-31T21:58:15Z</time>
      </trkpt>
      <trkpt lat="46.18192" lon="-1.38639">
        <ele>3.8</ele>
        <time>2020-05-31T21:58:16Z</time>
      </trkpt>
      <trkpt lat="46.18192" lon="-1.38639">
        <ele>3.8</ele>
        <time>2020-05-31T21:58:17Z</time>
      </trkpt>
      <trkpt lat="46.18192" lon="-1.38639">
        <ele>3.8</ele>
        <time>2020-05-31T21:58:18Z</time>
      </trkpt>
      <trkpt lat="46.18192" lon="-1.38639">
        <ele>3.8</ele>
        <time>2020-05-31T21:58:19Z</time>
      </trkpt>
      <trkpt lat="46.18192" lon="-1.38639">
        <ele>3.8</ele>
        <time>2020-05-31T21:58:20Z</time>
      </trkpt>
      <trkpt lat="46.18192" lon="-1.38639">
        <ele>3.8</ele>
        <time>2020-05-31T21:58:21Z</time>
      </trkpt>
      <trkpt lat="46.18192" lon="-1.38639">
        <ele>3.8</ele>
        <time>2020-05-31T21:58:22Z</time>
      </trkpt>
      <trkpt lat="46.18193" lon="-1.38639">
        <ele>3.8</ele>
        <time>2020-05-31T21:58:23Z</time>
      </trkpt>
      <trkpt lat="46.18193" lon="-1.38639">
        <ele>3.8</ele>
        <time>2020-05-31T21:58:24Z</time>
      </trkpt>
      <trkpt lat="46.18193" lon="-1.38639">
        <ele>3.8</ele>
        <time>2020-05-31T21:58:25Z</time>
      </trkpt>
      <trkpt lat="46.18193" lon="-1.38639">
        <ele>3.8</ele>
        <time>2020-05-31T21:58:26Z</time>
      </trkpt>
      <trkpt lat="46.18193" lon="-1.3864">
        <ele>3.8</ele>
        <time>2020-05-31T21:58:27Z</time>
      </trkpt>
      <trkpt lat="46.18193" lon="-1.3864">
        <ele>3.8</ele>
        <time>2020-05-31T21:58:28Z</time>
      </trkpt>
      <trkpt lat="46.18193" lon="-1.3864">
        <ele>3.8</ele>
        <time>2020-05-31T21:58:29Z</time>
      </trkpt>
      <trkpt lat="46.18193" lon="-1.3864">
        <ele>3.8</ele>
        <time>2020-05-31T21:58:30Z</time>
      </trkpt>
      <trkpt lat="46.18193" lon="-1.3864">
        <ele>3.8</ele>
        <time>2020-05-31T21:58:31Z</time>
      </trkpt>
      <trkpt lat="46.18193" lon="-1.3864">
        <ele>3.8</ele>
        <time>2020-05-31T21:58:32Z</time>
      </trkpt>
      <trkpt lat="46.18193" lon="-1.3864">
        <ele>3.8</ele>
        <time>2020-05-31T21:58:33Z</time>
      </trkpt>
      <trkpt lat="46.18193" lon="-1.3864">
        <ele>3.8</ele>
        <time>2020-05-31T21:58:34Z</time>
      </trkpt>
      <trkpt lat="46.18193" lon="-1.3864">
        <ele>3.8</ele>
        <time>2020-05-31T21:58:35Z</time>
      </trkpt>
      <trkpt lat="46.18193" lon="-1.3864">
        <ele>3.8</ele>
        <time>2020-05-31T21:58:36Z</time>
      </trkpt>
      <trkpt lat="46.18193" lon="-1.3864">
        <ele>3.8</ele>
        <time>2020-05-31T21:58:37Z</time>
      </trkpt>
      <trkpt lat="46.18193" lon="-1.3864">
        <ele>3.8</ele>
        <time>2020-05-31T21:58:38Z</time>
      </trkpt>
      <trkpt lat="46.18193" lon="-1.38641">
        <ele>3.8</ele>
        <time>2020-05-31T21:58:39Z</time>
      </trkpt>
      <trkpt lat="46.18193" lon="-1.38641">
        <ele>3.8</ele>
        <time>2020-05-31T21:58:40Z</time>
      </trkpt>
      <trkpt lat="46.18193" lon="-1.38641">
        <ele>3.8</ele>
        <time>2020-05-31T21:58:41Z</time>
      </trkpt>
      <trkpt lat="46.18194" lon="-1.38641">
        <ele>3.8</ele>
        <time>2020-05-31T21:58:42Z</time>
      </trkpt>
      <trkpt lat="46.18194" lon="-1.38641">
        <ele>3.8</ele>
        <time>2020-05-31T21:58:43Z</time>
      </trkpt>
      <trkpt lat="46.18194" lon="-1.38641">
        <ele>3.8</ele>
        <time>2020-05-31T21:58:44Z</time>
      </trkpt>
      <trkpt lat="46.18194" lon="-1.38641">
        <ele>3.8</ele>
        <time>2020-05-31T21:58:45Z</time>
      </trkpt>
      <trkpt lat="46.18194" lon="-1.38641">
        <ele>3.8</ele>
        <time>2020-05-31T21:58:46Z</time>
      </trkpt>
      <trkpt lat="46.18194" lon="-1.38641">
        <ele>3.9</ele>
        <time>2020-05-31T21:58:47Z</time>
      </trkpt>
      <trkpt lat="46.18194" lon="-1.38641">
        <ele>3.9</ele>
        <time>2020-05-31T21:58:48Z</time>
      </trkpt>
      <trkpt lat="46.18194" lon="-1.38641">
        <ele>3.9</ele>
        <time>2020-05-31T21:58:49Z</time>
      </trkpt>
      <trkpt lat="46.18194" lon="-1.38642">
        <ele>3.9</ele>
        <time>2020-05-31T21:58:50Z</time>
      </trkpt>
      <trkpt lat="46.18194" lon="-1.38642">
        <ele>3.9</ele>
        <time>2020-05-31T21:58:51Z</time>
      </trkpt>
      <trkpt lat="46.18194" lon="-1.38642">
        <ele>3.9</ele>
        <time>2020-05-31T21:58:52Z</time>
      </trkpt>
      <trkpt lat="46.18194" lon="-1.38642">
        <ele>3.9</ele>
        <time>2020-05-31T21:58:53Z</time>
      </trkpt>
      <trkpt lat="46.18194" lon="-1.38642">
        <ele>3.9</ele>
        <time>2020-05-31T21:58:54Z</time>
      </trkpt>
      <trkpt lat="46.18194" lon="-1.38642">
        <ele>3.9</ele>
        <time>2020-05-31T21:58:55Z</time>
      </trkpt>
      <trkpt lat="46.18194" lon="-1.38642">
        <ele>3.9</ele>
        <time>2020-05-31T21:58:56Z</time>
      </trkpt>
      <trkpt lat="46.18194" lon="-1.38642">
        <ele>3.9</ele>
        <time>2020-05-31T21:58:57Z</time>
      </trkpt>
      <trkpt lat="46.18194" lon="-1.38642">
        <ele>3.9</ele>
        <time>2020-05-31T21:58:58Z</time>
      </trkpt>
      <trkpt lat="46.18194" lon="-1.38642">
        <ele>3.9</ele>
        <time>2020-05-31T21:58:59Z</time>
      </trkpt>
      <trkpt lat="46.18195" lon="-1.38642">
        <ele>3.9</ele>
        <time>2020-05-31T21:59:00Z</time>
      </trkpt>
      <trkpt lat="46.18195" lon="-1.38642">
        <ele>3.9</ele>
        <time>2020-05-31T21:59:01Z</time>
      </trkpt>
      <trkpt lat="46.18195" lon="-1.38643">
        <ele>3.9</ele>
        <time>2020-05-31T21:59:02Z</time>
      </trkpt>
      <trkpt lat="46.18195" lon="-1.38643">
        <ele>3.9</ele>
        <time>2020-05-31T21:59:03Z</time>
      </trkpt>
      <trkpt lat="46.18195" lon="-1.38643">
        <ele>3.9</ele>
        <time>2020-05-31T21:59:04Z</time>
      </trkpt>
      <trkpt lat="46.18195" lon="-1.38643">
        <ele>3.9</ele>
        <time>2020-05-31T21:59:05Z</time>
      </trkpt>
      <trkpt lat="46.18195" lon="-1.38643">
        <ele>3.9</ele>
        <time>2020-05-31T21:59:06Z</time>
      </trkpt>
      <trkpt lat="46.18195" lon="-1.38643">
        <ele>3.9</ele>
        <time>2020-05-31T21:59:07Z</time>
      </trkpt>
      <trkpt lat="46.18195" lon="-1.38643">
        <ele>3.9</ele>
        <time>2020-05-31T21:59:08Z</time>
      </trkpt>
      <trkpt lat="46.18195" lon="-1.38643">
        <ele>3.9</ele>
        <time>2020-05-31T21:59:09Z</time>
      </trkpt>
      <trkpt lat="46.18195" lon="-1.38643">
        <ele>3.9</ele>
        <time>2020-05-31T21:59:10Z</time>
      </trkpt>
      <trkpt lat="46.18195" lon="-1.38643">
        <ele>3.9</ele>
        <time>2020-05-31T21:59:11Z</time>
      </trkpt>
      <trkpt lat="46.18195" lon="-1.38643">
        <ele>3.9</ele>
        <time>2020-05-31T21:59:12Z</time>
      </trkpt>
      <trkpt lat="46.18199" lon="-1.38648">
        <ele>3.9</ele>
        <time>2020-05-31T21:59:13Z</time>
      </trkpt>
      <trkpt lat="46.182" lon="-1.38649">
        <ele>3.9</ele>
        <time>2020-05-31T21:59:14Z</time>
      </trkpt>
      <trkpt lat="46.18204" lon="-1.38653">
        <ele>3.9</ele>
        <time>2020-05-31T21:59:15Z</time>
      </trkpt>
      <trkpt lat="46.18208" lon="-1.38657">
        <ele>3.9</ele>
        <time>2020-05-31T21:59:16Z</time>
      </trkpt>
      <trkpt lat="46.18213" lon="-1.38661">
        <ele>3.9</ele>
        <time>2020-05-31T21:59:17Z</time>
      </trkpt>
      <trkpt lat="46.18218" lon="-1.38663">
        <ele>3.9</ele>
        <time>2020-05-31T21:59:18Z</time>
      </trkpt>
      <trkpt lat="46.18223" lon="-1.38666">
        <ele>3.9</ele>
        <time>2020-05-31T21:59:19Z</time>
      </trkpt>
      <trkpt lat="46.18228" lon="-1.38669">
        <ele>3.9</ele>
        <time>2020-05-31T21:59:20Z</time>
      </trkpt>
      <trkpt lat="46.18232" lon="-1.3867">
        <ele>3.9</ele>
        <time>2020-05-31T21:59:21Z</time>
      </trkpt>
      <trkpt lat="46.18235" lon="-1.38672">
        <ele>3.9</ele>
        <time>2020-05-31T21:59:22Z</time>
      </trkpt>
      <trkpt lat="46.18239" lon="-1.38673">
        <ele>3.9</ele>
        <time>2020-05-31T21:59:23Z</time>
      </trkpt>
      <trkpt lat="46.18243" lon="-1.38675">
        <ele>3.9</ele>
        <time>2020-05-31T21:59:24Z</time>
      </trkpt>
      <trkpt lat="46.18246" lon="-1.38675">
        <ele>4</ele>
        <time>2020-05-31T21:59:25Z</time>
      </trkpt>
      <trkpt lat="46.1825" lon="-1.38677">
        <ele>4</ele>
        <time>2020-05-31T21:59:26Z</time>
      </trkpt>
      <trkpt lat="46.18253" lon="-1.38678">
        <ele>4</ele>
        <time>2020-05-31T21:59:27Z</time>
      </trkpt>
      <trkpt lat="46.18255" lon="-1.38679">
        <ele>4.1</ele>
        <time>2020-05-31T21:59:28Z</time>
      </trkpt>
      <trkpt lat="46.18258" lon="-1.38681">
        <ele>4.1</ele>
        <time>2020-05-31T21:59:29Z</time>
      </trkpt>
      <trkpt lat="46.18261" lon="-1.38683">
        <ele>4.1</ele>
        <time>2020-05-31T21:59:30Z</time>
      </trkpt>
      <trkpt lat="46.18261" lon="-1.38684">
        <ele>4.1</ele>
        <time>2020-05-31T21:59:31Z</time>
      </trkpt>
      <trkpt lat="46.18264" lon="-1.38686">
        <ele>4.2</ele>
        <time>2020-05-31T21:59:32Z</time>
      </trkpt>
      <trkpt lat="46.18265" lon="-1.38686">
        <ele>4.2</ele>
        <time>2020-05-31T21:59:33Z</time>
      </trkpt>
      <trkpt lat="46.18267" lon="-1.38687">
        <ele>4.3</ele>
        <time>2020-05-31T21:59:34Z</time>
      </trkpt>
      <trkpt lat="46.18268" lon="-1.38687">
        <ele>4.3</ele>
        <time>2020-05-31T21:59:35Z</time>
      </trkpt>
      <trkpt lat="46.18272" lon="-1.38688">
        <ele>4.3</ele>
        <time>2020-05-31T21:59:36Z</time>
      </trkpt>
      <trkpt lat="46.18273" lon="-1.38688">
        <ele>4.3</ele>
        <time>2020-05-31T21:59:37Z</time>
      </trkpt>
      <trkpt lat="46.18276" lon="-1.38688">
        <ele>4.4</ele>
        <time>2020-05-31T21:59:38Z</time>
      </trkpt>
      <trkpt lat="46.18278" lon="-1.38689">
        <ele>4.5</ele>
        <time>2020-05-31T21:59:39Z</time>
      </trkpt>
      <trkpt lat="46.18281" lon="-1.38691">
        <ele>4.5</ele>
        <time>2020-05-31T21:59:40Z</time>
      </trkpt>
      <trkpt lat="46.18282" lon="-1.38692">
        <ele>4.5</ele>
        <time>2020-05-31T21:59:41Z</time>
      </trkpt>
      <trkpt lat="46.18285" lon="-1.38693">
        <ele>4.6</ele>
        <time>2020-05-31T21:59:42Z</time>
      </trkpt>
      <trkpt lat="46.18287" lon="-1.38693">
        <ele>4.7</ele>
        <time>2020-05-31T21:59:43Z</time>
      </trkpt>
      <trkpt lat="46.1829" lon="-1.38696">
        <ele>4.7</ele>
        <time>2020-05-31T21:59:44Z</time>
      </trkpt>
      <trkpt lat="46.18291" lon="-1.38697">
        <ele>4.7</ele>
        <time>2020-05-31T21:59:45Z</time>
      </trkpt>
      <trkpt lat="46.18293" lon="-1.38699">
        <ele>4.8</ele>
        <time>2020-05-31T21:59:46Z</time>
      </trkpt>
      <trkpt lat="46.18294" lon="-1.387">
        <ele>4.8</ele>
        <time>2020-05-31T21:59:47Z</time>
      </trkpt>
      <trkpt lat="46.18296" lon="-1.38701">
        <ele>4.9</ele>
        <time>2020-05-31T21:59:48Z</time>
      </trkpt>
      <trkpt lat="46.18299" lon="-1.38703">
        <ele>5</ele>
        <time>2020-05-31T21:59:49Z</time>
      </trkpt>
      <trkpt lat="46.18302" lon="-1.38705">
        <ele>5</ele>
        <time>2020-05-31T21:59:50Z</time>
      </trkpt>
      <trkpt lat="46.18303" lon="-1.38705">
        <ele>5</ele>
        <time>2020-05-31T21:59:51Z</time>
      </trkpt>
      <trkpt lat="46.18305" lon="-1.38707">
        <ele>5.1</ele>
        <time>2020-05-31T21:59:52Z</time>
      </trkpt>
      <trkpt lat="46.18306" lon="-1.38708">
        <ele>5.1</ele>
        <time>2020-05-31T21:59:53Z</time>
      </trkpt>
      <trkpt lat="46.18307" lon="-1.38709">
        <ele>5.2</ele>
        <time>2020-05-31T21:59:54Z</time>
      </trkpt>
      <trkpt lat="46.18307" lon="-1.38708">
        <ele>5.2</ele>
        <time>2020-05-31T21:59:55Z</time>
      </trkpt>
      <trkpt lat="46.18308" lon="-1.38704">
        <ele>5.1</ele>
        <time>2020-05-31T21:59:56Z</time>
      </trkpt>
      <trkpt lat="46.18307" lon="-1.38706">
        <ele>5.1</ele>
        <time>2020-05-31T21:59:57Z</time>
      </trkpt>
      <trkpt lat="46.18307" lon="-1.38707">
        <ele>5.1</ele>
        <time>2020-05-31T21:59:58Z</time>
      </trkpt>
      <trkpt lat="46.18306" lon="-1.38707">
        <ele>5.1</ele>
        <time>2020-05-31T21:59:59Z</time>
      </trkpt>
      <trkpt lat="46.18306" lon="-1.38706">
        <ele>5.1</ele>
        <time>2020-05-31T22:00:00Z</time>
      </trkpt>
      <trkpt lat="46.18307" lon="-1.38708">
        <ele>5.1</ele>
        <time>2020-05-31T22:00:01Z</time>
      </trkpt>
      <trkpt lat="46.18307" lon="-1.38709">
        <ele>5.1</ele>
        <time>2020-05-31T22:00:02Z</time>
      </trkpt>
      <trkpt lat="46.18306" lon="-1.3871">
        <ele>5.1</ele>
        <time>2020-05-31T22:00:03Z</time>
      </trkpt>
      <trkpt lat="46.18306" lon="-1.38712">
        <ele>5.2</ele>
        <time>2020-05-31T22:00:04Z</time>
      </trkpt>
      <trkpt lat="46.18307" lon="-1.38713">
        <ele>5.2</ele>
        <time>2020-05-31T22:00:05Z</time>
      </trkpt>
      <trkpt lat="46.18307" lon="-1.38713">
        <ele>5.2</ele>
        <time>2020-05-31T22:00:06Z</time>
      </trkpt>
      <trkpt lat="46.18307" lon="-1.38711">
        <ele>5.2</ele>
        <time>2020-05-31T22:00:07Z</time>
      </trkpt>
      <trkpt lat="46.18306" lon="-1.38711">
        <ele>5.2</ele>
        <time>2020-05-31T22:00:08Z</time>
      </trkpt>
      <trkpt lat="46.18307" lon="-1.38713">
        <ele>5.2</ele>
        <time>2020-05-31T22:00:09Z</time>
      </trkpt>
      <trkpt lat="46.18306" lon="-1.38713">
        <ele>5.2</ele>
        <time>2020-05-31T22:00:10Z</time>
      </trkpt>
      <trkpt lat="46.18305" lon="-1.38713">
        <ele>5.2</ele>
        <time>2020-05-31T22:00:11Z</time>
      </trkpt>
      <trkpt lat="46.18305" lon="-1.38714">
        <ele>5.2</ele>
        <time>2020-05-31T22:00:12Z</time>
      </trkpt>
      <trkpt lat="46.18305" lon="-1.38713">
        <ele>5.2</ele>
        <time>2020-05-31T22:00:13Z</time>
      </trkpt>
      <trkpt lat="46.18305" lon="-1.38713">
        <ele>5.2</ele>
        <time>2020-05-31T22:00:14Z</time>
      </trkpt>
      <trkpt lat="46.18305" lon="-1.38713">
        <ele>5.2</ele>
        <time>2020-05-31T22:00:15Z</time>
      </trkpt>
      <trkpt lat="46.18305" lon="-1.38713">
        <ele>5.2</ele>
        <time>2020-05-31T22:00:16Z</time>
      </trkpt>
      <trkpt lat="46.18306" lon="-1.38713">
        <ele>5.2</ele>
        <time>2020-05-31T22:00:17Z</time>
      </trkpt>
      <trkpt lat="46.18306" lon="-1.38713">
        <ele>5.2</ele>
        <time>2020-05-31T22:00:18Z</time>
      </trkpt>
      <trkpt lat="46.18306" lon="-1.38713">
        <ele>5.2</ele>
        <time>2020-05-31T22:00:19Z</time>
      </trkpt>
      <trkpt lat="46.18306" lon="-1.38713">
        <ele>5.2</ele>
        <time>2020-05-31T22:00:20Z</time>
      </trkpt>
      <trkpt lat="46.18306" lon="-1.38713">
        <ele>5.2</ele>
        <time>2020-05-31T22:00:21Z</time>
      </trkpt>
      <trkpt lat="46.18306" lon="-1.38713">
        <ele>5.2</ele>
        <time>2020-05-31T22:00:22Z</time>
      </trkpt>
      <trkpt lat="46.18306" lon="-1.38713">
        <ele>5.1</ele>
        <time>2020-05-31T22:00:23Z</time>
      </trkpt>
      <trkpt lat="46.18306" lon="-1.38713">
        <ele>5.1</ele>
        <time>2020-05-31T22:00:24Z</time>
      </trkpt>
      <trkpt lat="46.18306" lon="-1.38713">
        <ele>5.1</ele>
        <time>2020-05-31T22:00:25Z</time>
      </trkpt>
      <trkpt lat="46.18306" lon="-1.38713">
        <ele>5.1</ele>
        <time>2020-05-31T22:00:26Z</time>
      </trkpt>
      <trkpt lat="46.18306" lon="-1.38713">
        <ele>5.1</ele>
        <time>2020-05-31T22:00:27Z</time>
      </trkpt>
      <trkpt lat="46.18306" lon="-1.38713">
        <ele>5.1</ele>
        <time>2020-05-31T22:00:28Z</time>
      </trkpt>
      <trkpt lat="46.18306" lon="-1.38713">
        <ele>5.1</ele>
        <time>2020-05-31T22:00:29Z</time>
      </trkpt>
      <trkpt lat="46.18306" lon="-1.38714">
        <ele>5.1</ele>
        <time>2020-05-31T22:00:30Z</time>
      </trkpt>
      <trkpt lat="46.18306" lon="-1.38714">
        <ele>5.1</ele>
        <time>2020-05-31T22:00:31Z</time>
      </trkpt>
      <trkpt lat="46.18306" lon="-1.38714">
        <ele>5.1</ele>
        <time>2020-05-31T22:00:32Z</time>
      </trkpt>
      <trkpt lat="46.18306" lon="-1.38714">
        <ele>5.1</ele>
        <time>2020-05-31T22:00:33Z</time>
      </trkpt>
      <trkpt lat="46.18306" lon="-1.38714">
        <ele>5.1</ele>
        <time>2020-05-31T22:00:34Z</time>
      </trkpt>
      <trkpt lat="46.18306" lon="-1.38714">
        <ele>5.1</ele>
        <time>2020-05-31T22:00:35Z</time>
      </trkpt>
      <trkpt lat="46.18306" lon="-1.38714">
        <ele>5.1</ele>
        <time>2020-05-31T22:00:36Z</time>
      </trkpt>
      <trkpt lat="46.18306" lon="-1.38714">
        <ele>5.1</ele>
        <time>2020-05-31T22:00:37Z</time>
      </trkpt>
      <trkpt lat="46.18306" lon="-1.38714">
        <ele>5.1</ele>
        <time>2020-05-31T22:00:38Z</time>
      </trkpt>
      <trkpt lat="46.18306" lon="-1.38714">
        <ele>5.1</ele>
        <time>2020-05-31T22:00:39Z</time>
      </trkpt>
      <trkpt lat="46.18306" lon="-1.38714">
        <ele>5.1</ele>
        <time>2020-05-31T22:00:40Z</time>
      </trkpt>
      <trkpt lat="46.18307" lon="-1.38714">
        <ele>5.1</ele>
        <time>2020-05-31T22:00:41Z</time>
      </trkpt>
      <trkpt lat="46.18307" lon="-1.38714">
        <ele>5.1</ele>
        <time>2020-05-31T22:00:42Z</time>
      </trkpt>
      <trkpt lat="46.18307" lon="-1.38714">
        <ele>5.1</ele>
        <time>2020-05-31T22:00:43Z</time>
      </trkpt>
      <trkpt lat="46.18307" lon="-1.38714">
        <ele>5.1</ele>
        <time>2020-05-31T22:00:44Z</time>
      </trkpt>
      <trkpt lat="46.18307" lon="-1.38714">
        <ele>5.1</ele>
        <time>2020-05-31T22:00:45Z</time>
      </trkpt>
      <trkpt lat="46.18307" lon="-1.38714">
        <ele>5.1</ele>
        <time>2020-05-31T22:00:46Z</time>
      </trkpt>
      <trkpt lat="46.18307" lon="-1.38714">
        <ele>5.1</ele>
        <time>2020-05-31T22:00:47Z</time>
      </trkpt>
      <trkpt lat="46.18307" lon="-1.38714">
        <ele>5.1</ele>
        <time>2020-05-31T22:00:48Z</time>
      </trkpt>
      <trkpt lat="46.18307" lon="-1.38714">
        <ele>5.1</ele>
        <time>2020-05-31T22:00:49Z</time>
      </trkpt>
      <trkpt lat="46.18307" lon="-1.38714">
        <ele>5.1</ele>
        <time>2020-05-31T22:00:50Z</time>
      </trkpt>
      <trkpt lat="46.18307" lon="-1.38713">
        <ele>5.1</ele>
        <time>2020-05-31T22:00:51Z</time>
      </trkpt>
      <trkpt lat="46.18307" lon="-1.38713">
        <ele>5.2</ele>
        <time>2020-05-31T22:00:52Z</time>
      </trkpt>
      <trkpt lat="46.18307" lon="-1.38713">
        <ele>5.2</ele>
        <time>2020-05-31T22:00:53Z</time>
      </trkpt>
      <trkpt lat="46.1822" lon="-1.38673">
        <ele>3.9</ele>
        <time>2020-05-31T23:03:14Z</time>
      </trkpt>
      <trkpt lat="46.18214" lon="-1.38664">
        <ele>3.9</ele>
        <time>2020-05-31T23:03:15Z</time>
      </trkpt>
      <trkpt lat="46.18212" lon="-1.38662">
        <ele>3.9</ele>
        <time>2020-05-31T23:03:16Z</time>
      </trkpt>
      <trkpt lat="46.1821" lon="-1.38659">
        <ele>3.9</ele>
        <time>2020-05-31T23:03:17Z</time>
      </trkpt>
      <trkpt lat="46.18207" lon="-1.38657">
        <ele>3.9</ele>
        <time>2020-05-31T23:03:18Z</time>
      </trkpt>
      <trkpt lat="46.18205" lon="-1.38654">
        <ele>3.9</ele>
        <time>2020-05-31T23:03:19Z</time>
      </trkpt>
      <trkpt lat="46.18203" lon="-1.38651">
        <ele>3.9</ele>
        <time>2020-05-31T23:03:20Z</time>
      </trkpt>
      <trkpt lat="46.18201" lon="-1.38649">
        <ele>3.9</ele>
        <time>2020-05-31T23:03:21Z</time>
      </trkpt>
      <trkpt lat="46.18199" lon="-1.38646">
        <ele>3.9</ele>
        <time>2020-05-31T23:03:22Z</time>
      </trkpt>
      <trkpt lat="46.18197" lon="-1.38643">
        <ele>3.9</ele>
        <time>2020-05-31T23:03:23Z</time>
      </trkpt>
      <trkpt lat="46.18194" lon="-1.3864">
        <ele>3.9</ele>
        <time>2020-05-31T23:03:24Z</time>
      </trkpt>
      <trkpt lat="46.18193" lon="-1.38635">
        <ele>3.9</ele>
        <time>2020-05-31T23:03:25Z</time>
      </trkpt>
      <trkpt lat="46.18193" lon="-1.38633">
        <ele>3.8</ele>
        <time>2020-05-31T23:03:26Z</time>
      </trkpt>
      <trkpt lat="46.18191" lon="-1.38628">
        <ele>3.8</ele>
        <time>2020-05-31T23:03:27Z</time>
      </trkpt>
      <trkpt lat="46.1819" lon="-1.38627">
        <ele>3.8</ele>
        <time>2020-05-31T23:03:28Z</time>
      </trkpt>
      <trkpt lat="46.1819" lon="-1.38624">
        <ele>3.7</ele>
        <time>2020-05-31T23:03:29Z</time>
      </trkpt>
      <trkpt lat="46.1819" lon="-1.38622">
        <ele>3.7</ele>
        <time>2020-05-31T23:03:30Z</time>
      </trkpt>
      <trkpt lat="46.18191" lon="-1.38622">
        <ele>3.7</ele>
        <time>2020-05-31T23:03:31Z</time>
      </trkpt>
      <trkpt lat="46.18191" lon="-1.38621">
        <ele>3.7</ele>
        <time>2020-05-31T23:03:32Z</time>
      </trkpt>
      <trkpt lat="46.18191" lon="-1.3862">
        <ele>3.7</ele>
        <time>2020-05-31T23:03:33Z</time>
      </trkpt>
      <trkpt lat="46.18191" lon="-1.38619">
        <ele>3.7</ele>
        <time>2020-05-31T23:03:34Z</time>
      </trkpt>
      <trkpt lat="46.18192" lon="-1.38618">
        <ele>3.7</ele>
        <time>2020-05-31T23:03:35Z</time>
      </trkpt>
      <trkpt lat="46.18192" lon="-1.38618">
        <ele>3.7</ele>
        <time>2020-05-31T23:03:36Z</time>
      </trkpt>
      <trkpt lat="46.18192" lon="-1.38618">
        <ele>3.7</ele>
        <time>2020-05-31T23:03:37Z</time>
      </trkpt>
      <trkpt lat="46.18192" lon="-1.38617">
        <ele>3.7</ele>
        <time>2020-05-31T23:03:38Z</time>
      </trkpt>
      <trkpt lat="46.18192" lon="-1.38617">
        <ele>3.7</ele>
        <time>2020-05-31T23:03:39Z</time>
      </trkpt>
      <trkpt lat="46.18192" lon="-1.38617">
        <ele>3.7</ele>
        <time>2020-05-31T23:03:40Z</time>
      </trkpt>
      <trkpt lat="46.18193" lon="-1.38617">
        <ele>3.7</ele>
        <time>2020-05-31T23:03:41Z</time>
      </trkpt>
      <trkpt lat="46.18193" lon="-1.38618">
        <ele>3.7</ele>
        <time>2020-05-31T23:03:42Z</time>
      </trkpt>
      <trkpt lat="46.18193" lon="-1.38617">
        <ele>3.7</ele>
        <time>2020-05-31T23:03:43Z</time>
      </trkpt>
      <trkpt lat="46.18194" lon="-1.38618">
        <ele>3.7</ele>
        <time>2020-05-31T23:03:44Z</time>
      </trkpt>
      <trkpt lat="46.18194" lon="-1.38618">
        <ele>3.7</ele>
        <time>2020-05-31T23:03:45Z</time>
      </trkpt>
      <trkpt lat="46.18194" lon="-1.38618">
        <ele>3.7</ele>
        <time>2020-05-31T23:03:46Z</time>
      </trkpt>
      <trkpt lat="46.18194" lon="-1.38616">
        <ele>3.7</ele>
        <time>2020-05-31T23:03:47Z</time>
      </trkpt>
      <trkpt lat="46.18194" lon="-1.38615">
        <ele>3.6</ele>
        <time>2020-05-31T23:03:48Z</time>
      </trkpt>
      <trkpt lat="46.18194" lon="-1.38615">
        <ele>3.6</ele>
        <time>2020-05-31T23:03:49Z</time>
      </trkpt>
      <trkpt lat="46.18194" lon="-1.38615">
        <ele>3.6</ele>
        <time>2020-05-31T23:03:50Z</time>
      </trkpt>
      <trkpt lat="46.18194" lon="-1.38615">
        <ele>3.6</ele>
        <time>2020-05-31T23:03:51Z</time>
      </trkpt>
      <trkpt lat="46.18194" lon="-1.38615">
        <ele>3.6</ele>
        <time>2020-05-31T23:03:52Z</time>
      </trkpt>
      <trkpt lat="46.18194" lon="-1.38615">
        <ele>3.6</ele>
        <time>2020-05-31T23:03:53Z</time>
      </trkpt>
      <trkpt lat="46.18194" lon="-1.38615">
        <ele>3.6</ele>
        <time>2020-05-31T23:03:54Z</time>
      </trkpt>
      <trkpt lat="46.18194" lon="-1.38615">
        <ele>3.6</ele>
        <time>2020-05-31T23:03:55Z</time>
      </trkpt>
      <trkpt lat="46.18194" lon="-1.38615">
        <ele>3.6</ele>
        <time>2020-05-31T23:03:56Z</time>
      </trkpt>
      <trkpt lat="46.18194" lon="-1.38615">
        <ele>3.6</ele>
        <time>2020-05-31T23:03:57Z</time>
      </trkpt>
      <trkpt lat="46.18194" lon="-1.38615">
        <ele>3.6</ele>
        <time>2020-05-31T23:03:58Z</time>
      </trkpt>
      <trkpt lat="46.18194" lon="-1.38615">
        <ele>3.6</ele>
        <time>2020-05-31T23:03:59Z</time>
      </trkpt>
      <trkpt lat="46.18194" lon="-1.38615">
        <ele>3.6</ele>
        <time>2020-05-31T23:04:00Z</time>
      </trkpt>
      <trkpt lat="46.18194" lon="-1.38615">
        <ele>3.6</ele>
        <time>2020-05-31T23:04:01Z</time>
      </trkpt>
      <trkpt lat="46.18194" lon="-1.38614">
        <ele>3.6</ele>
        <time>2020-05-31T23:04:02Z</time>
      </trkpt>
      <trkpt lat="46.18194" lon="-1.38614">
        <ele>3.6</ele>
        <time>2020-05-31T23:04:03Z</time>
      </trkpt>
      <trkpt lat="46.18194" lon="-1.38614">
        <ele>3.6</ele>
        <time>2020-05-31T23:04:04Z</time>
      </trkpt>
      <trkpt lat="46.18194" lon="-1.38614">
        <ele>3.6</ele>
        <time>2020-05-31T23:04:05Z</time>
      </trkpt>
      <trkpt lat="46.18194" lon="-1.38614">
        <ele>3.6</ele>
        <time>2020-05-31T23:04:06Z</time>
      </trkpt>
      <trkpt lat="46.18194" lon="-1.38614">
        <ele>3.6</ele>
        <time>2020-05-31T23:04:07Z</time>
      </trkpt>
      <trkpt lat="46.18194" lon="-1.38614">
        <ele>3.6</ele>
        <time>2020-05-31T23:04:08Z</time>
      </trkpt>
      <trkpt lat="46.18194" lon="-1.38614">
        <ele>3.6</ele>
        <time>2020-05-31T23:04:09Z</time>
      </trkpt>
      <trkpt lat="46.18194" lon="-1.38614">
        <ele>3.6</ele>
        <time>2020-05-31T23:04:10Z</time>
      </trkpt>
      <trkpt lat="46.18194" lon="-1.38614">
        <ele>3.6</ele>
        <time>2020-05-31T23:04:11Z</time>
      </trkpt>
      <trkpt lat="46.18194" lon="-1.38614">
        <ele>3.6</ele>
        <time>2020-05-31T23:04:12Z</time>
      </trkpt>
      <trkpt lat="46.18194" lon="-1.38614">
        <ele>3.6</ele>
        <time>2020-05-31T23:04:13Z</time>
      </trkpt>
      <trkpt lat="46.18194" lon="-1.38614">
        <ele>3.6</ele>
        <time>2020-05-31T23:04:14Z</time>
      </trkpt>
      <trkpt lat="46.18194" lon="-1.38614">
        <ele>3.6</ele>
        <time>2020-05-31T23:04:15Z</time>
      </trkpt>
      <trkpt lat="46.18194" lon="-1.38614">
        <ele>3.6</ele>
        <time>2020-05-31T23:04:16Z</time>
      </trkpt>
      <trkpt lat="46.18194" lon="-1.38613">
        <ele>3.6</ele>
        <time>2020-05-31T23:04:17Z</time>
      </trkpt>
      <trkpt lat="46.18194" lon="-1.38613">
        <ele>3.6</ele>
        <time>2020-05-31T23:04:18Z</time>
      </trkpt>
      <trkpt lat="46.18194" lon="-1.38613">
        <ele>3.6</ele>
        <time>2020-05-31T23:04:19Z</time>
      </trkpt>
      <trkpt lat="46.18194" lon="-1.38613">
        <ele>3.6</ele>
        <time>2020-05-31T23:04:20Z</time>
      </trkpt>
      <trkpt lat="46.18194" lon="-1.38613">
        <ele>3.6</ele>
        <time>2020-05-31T23:04:21Z</time>
      </trkpt>
      <trkpt lat="46.18194" lon="-1.38613">
        <ele>3.6</ele>
        <time>2020-05-31T23:04:22Z</time>
      </trkpt>
      <trkpt lat="46.18194" lon="-1.38613">
        <ele>3.6</ele>
        <time>2020-05-31T23:04:23Z</time>
      </trkpt>
      <trkpt lat="46.18194" lon="-1.38613">
        <ele>3.6</ele>
        <time>2020-05-31T23:04:24Z</time>
      </trkpt>
      <trkpt lat="46.18194" lon="-1.38613">
        <ele>3.6</ele>
        <time>2020-05-31T23:04:25Z</time>
      </trkpt>
      <trkpt lat="46.18195" lon="-1.38613">
        <ele>3.6</ele>
        <time>2020-05-31T23:04:26Z</time>
      </trkpt>
      <trkpt lat="46.18195" lon="-1.38613">
        <ele>3.6</ele>
        <time>2020-05-31T23:04:27Z</time>
      </trkpt>
      <trkpt lat="46.18195" lon="-1.38613">
        <ele>3.6</ele>
        <time>2020-05-31T23:04:28Z</time>
      </trkpt>
      <trkpt lat="46.18195" lon="-1.38613">
        <ele>3.6</ele>
        <time>2020-05-31T23:04:29Z</time>
      </trkpt>
      <trkpt lat="46.18195" lon="-1.38613">
        <ele>3.6</ele>
        <time>2020-05-31T23:04:30Z</time>
      </trkpt>
      <trkpt lat="46.18195" lon="-1.38613">
        <ele>3.6</ele>
        <time>2020-05-31T23:04:31Z</time>
      </trkpt>
      <trkpt lat="46.18195" lon="-1.38613">
        <ele>3.6</ele>
        <time>2020-05-31T23:04:32Z</time>
      </trkpt>
      <trkpt lat="46.18195" lon="-1.38612">
        <ele>3.6</ele>
        <time>2020-05-31T23:04:33Z</time>
      </trkpt>
      <trkpt lat="46.18195" lon="-1.38612">
        <ele>3.6</ele>
        <time>2020-05-31T23:04:34Z</time>
      </trkpt>
      <trkpt lat="46.18195" lon="-1.38612">
        <ele>3.6</ele>
        <time>2020-05-31T23:04:35Z</time>
      </trkpt>
      <trkpt lat="46.18195" lon="-1.38612">
        <ele>3.6</ele>
        <time>2020-05-31T23:04:36Z</time>
      </trkpt>
      <trkpt lat="46.18195" lon="-1.38612">
        <ele>3.6</ele>
        <time>2020-05-31T23:04:37Z</time>
      </trkpt>
      <trkpt lat="46.18195" lon="-1.38612">
        <ele>3.6</ele>
        <time>2020-05-31T23:04:38Z</time>
      </trkpt>
      <trkpt lat="46.18195" lon="-1.38612">
        <ele>3.6</ele>
        <time>2020-05-31T23:04:39Z</time>
      </trkpt>
      <trkpt lat="46.18195" lon="-1.38612">
        <ele>3.6</ele>
        <time>2020-05-31T23:04:40Z</time>
      </trkpt>
      <trkpt lat="46.18195" lon="-1.38612">
        <ele>3.6</ele>
        <time>2020-05-31T23:04:41Z</time>
      </trkpt>
      <trkpt lat="46.18195" lon="-1.38612">
        <ele>3.6</ele>
        <time>2020-05-31T23:04:42Z</time>
      </trkpt>
      <trkpt lat="46.18195" lon="-1.38612">
        <ele>3.6</ele>
        <time>2020-05-31T23:04:43Z</time>
      </trkpt>
      <trkpt lat="46.18195" lon="-1.38612">
        <ele>3.6</ele>
        <time>2020-05-31T23:04:44Z</time>
      </trkpt>
      <trkpt lat="46.18195" lon="-1.38612">
        <ele>3.6</ele>
        <time>2020-05-31T23:04:45Z</time>
      </trkpt>
      <trkpt lat="46.18195" lon="-1.38612">
        <ele>3.6</ele>
        <time>2020-05-31T23:04:46Z</time>
      </trkpt>
      <trkpt lat="46.18195" lon="-1.38612">
        <ele>3.6</ele>
        <time>2020-05-31T23:04:47Z</time>
      </trkpt>
      <trkpt lat="46.18195" lon="-1.38611">
        <ele>3.6</ele>
        <time>2020-05-31T23:04:48Z</time>
      </trkpt>
      <trkpt lat="46.18195" lon="-1.38611">
        <ele>3.6</ele>
        <time>2020-05-31T23:04:49Z</time>
      </trkpt>
      <trkpt lat="46.18195" lon="-1.38611">
        <ele>3.6</ele>
        <time>2020-05-31T23:04:50Z</time>
      </trkpt>
      <trkpt lat="46.18195" lon="-1.38611">
        <ele>3.6</ele>
        <time>2020-05-31T23:04:51Z</time>
      </trkpt>
      <trkpt lat="46.18195" lon="-1.38611">
        <ele>3.6</ele>
        <time>2020-05-31T23:04:52Z</time>
      </trkpt>
      <trkpt lat="46.18195" lon="-1.38611">
        <ele>3.6</ele>
        <time>2020-05-31T23:04:53Z</time>
      </trkpt>
      <trkpt lat="46.18195" lon="-1.38611">
        <ele>3.6</ele>
        <time>2020-05-31T23:04:54Z</time>
      </trkpt>
      <trkpt lat="46.18195" lon="-1.38611">
        <ele>3.6</ele>
        <time>2020-05-31T23:04:55Z</time>
      </trkpt>
      <trkpt lat="46.18195" lon="-1.38611">
        <ele>3.6</ele>
        <time>2020-05-31T23:04:56Z</time>
      </trkpt>
      <trkpt lat="46.18195" lon="-1.38611">
        <ele>3.6</ele>
        <time>2020-05-31T23:04:57Z</time>
      </trkpt>
      <trkpt lat="46.18195" lon="-1.38611">
        <ele>3.6</ele>
        <time>2020-05-31T23:04:58Z</time>
      </trkpt>
      <trkpt lat="46.18195" lon="-1.38611">
        <ele>3.6</ele>
        <time>2020-05-31T23:04:59Z</time>
      </trkpt>
      <trkpt lat="46.18195" lon="-1.38611">
        <ele>3.6</ele>
        <time>2020-05-31T23:05:00Z</time>
      </trkpt>
      <trkpt lat="46.18195" lon="-1.38611">
        <ele>3.6</ele>
        <time>2020-05-31T23:05:01Z</time>
      </trkpt>
      <trkpt lat="46.18195" lon="-1.38611">
        <ele>3.6</ele>
        <time>2020-05-31T23:05:02Z</time>
      </trkpt>
      <trkpt lat="46.18195" lon="-1.38611">
        <ele>3.6</ele>
        <time>2020-05-31T23:05:03Z</time>
      </trkpt>
      <trkpt lat="46.18195" lon="-1.3861">
        <ele>3.6</ele>
        <time>2020-05-31T23:05:04Z</time>
      </trkpt>
      <trkpt lat="46.18195" lon="-1.3861">
        <ele>3.6</ele>
        <time>2020-05-31T23:05:05Z</time>
      </trkpt>
      <trkpt lat="46.18195" lon="-1.3861">
        <ele>3.6</ele>
        <time>2020-05-31T23:05:06Z</time>
      </trkpt>
      <trkpt lat="46.18195" lon="-1.3861">
        <ele>3.6</ele>
        <time>2020-05-31T23:05:07Z</time>
      </trkpt>
      <trkpt lat="46.18195" lon="-1.3861">
        <ele>3.6</ele>
        <time>2020-05-31T23:05:08Z</time>
      </trkpt>
      <trkpt lat="46.18195" lon="-1.3861">
        <ele>3.6</ele>
        <time>2020-05-31T23:05:09Z</time>
      </trkpt>
      <trkpt lat="46.18195" lon="-1.3861">
        <ele>3.6</ele>
        <time>2020-05-31T23:05:10Z</time>
      </trkpt>
      <trkpt lat="46.18193" lon="-1.38607">
        <ele>3.6</ele>
        <time>2020-05-31T23:05:11Z</time>
      </trkpt>
      <trkpt lat="46.18194" lon="-1.38603">
        <ele>3.6</ele>
        <time>2020-05-31T23:05:12Z</time>
      </trkpt>
      <trkpt lat="46.18194" lon="-1.38601">
        <ele>3.5</ele>
        <time>2020-05-31T23:05:13Z</time>
      </trkpt>
      <trkpt lat="46.18195" lon="-1.38595">
        <ele>3.5</ele>
        <time>2020-05-31T23:05:14Z</time>
      </trkpt>
      <trkpt lat="46.18196" lon="-1.38593">
        <ele>3.5</ele>
        <time>2020-05-31T23:05:15Z</time>
      </trkpt>
      <trkpt lat="46.18196" lon="-1.38589">
        <ele>3.5</ele>
        <time>2020-05-31T23:05:16Z</time>
      </trkpt>
      <trkpt lat="46.18197" lon="-1.38584">
        <ele>3.5</ele>
        <time>2020-05-31T23:05:17Z</time>
      </trkpt>
      <trkpt lat="46.18198" lon="-1.38579">
        <ele>3.4</ele>
        <time>2020-05-31T23:05:18Z</time>
      </trkpt>
      <trkpt lat="46.18198" lon="-1.38573">
        <ele>3.4</ele>
        <time>2020-05-31T23:05:19Z</time>
      </trkpt>
      <trkpt lat="46.182" lon="-1.38568">
        <ele>3.4</ele>
        <time>2020-05-31T23:05:20Z</time>
      </trkpt>
      <trkpt lat="46.18202" lon="-1.38564">
        <ele>3.4</ele>
        <time>2020-05-31T23:05:21Z</time>
      </trkpt>
      <trkpt lat="46.18202" lon="-1.38559">
        <ele>3.4</ele>
        <time>2020-05-31T23:05:22Z</time>
      </trkpt>
      <trkpt lat="46.18203" lon="-1.38556">
        <ele>3.4</ele>
        <time>2020-05-31T23:05:23Z</time>
      </trkpt>
      <trkpt lat="46.18205" lon="-1.38552">
        <ele>3.3</ele>
        <time>2020-05-31T23:05:24Z</time>
      </trkpt>
      <trkpt lat="46.18209" lon="-1.3855">
        <ele>3.4</ele>
        <time>2020-05-31T23:05:25Z</time>
      </trkpt>
      <trkpt lat="46.18211" lon="-1.38548">
        <ele>3.4</ele>
        <time>2020-05-31T23:05:26Z</time>
      </trkpt>
      <trkpt lat="46.18214" lon="-1.38548">
        <ele>3.4</ele>
        <time>2020-05-31T23:05:27Z</time>
      </trkpt>
      <trkpt lat="46.18218" lon="-1.3855">
        <ele>3.4</ele>
        <time>2020-05-31T23:05:28Z</time>
      </trkpt>
      <trkpt lat="46.18222" lon="-1.3855">
        <ele>3.5</ele>
        <time>2020-05-31T23:05:29Z</time>
      </trkpt>
      <trkpt lat="46.18226" lon="-1.3855">
        <ele>3.5</ele>
        <time>2020-05-31T23:05:30Z</time>
      </trkpt>
      <trkpt lat="46.1823" lon="-1.3855">
        <ele>3.5</ele>
        <time>2020-05-31T23:05:31Z</time>
      </trkpt>
      <trkpt lat="46.18233" lon="-1.38552">
        <ele>3.6</ele>
        <time>2020-05-31T23:05:32Z</time>
      </trkpt>
      <trkpt lat="46.18236" lon="-1.38553">
        <ele>3.6</ele>
        <time>2020-05-31T23:05:33Z</time>
      </trkpt>
      <trkpt lat="46.1824" lon="-1.38555">
        <ele>3.6</ele>
        <time>2020-05-31T23:05:34Z</time>
      </trkpt>
      <trkpt lat="46.18244" lon="-1.38557">
        <ele>3.7</ele>
        <time>2020-05-31T23:05:35Z</time>
      </trkpt>
      <trkpt lat="46.18247" lon="-1.38558">
        <ele>3.7</ele>
        <time>2020-05-31T23:05:36Z</time>
      </trkpt>
      <trkpt lat="46.18251" lon="-1.3856">
        <ele>3.8</ele>
        <time>2020-05-31T23:05:37Z</time>
      </trkpt>
      <trkpt lat="46.18256" lon="-1.38562">
        <ele>3.8</ele>
        <time>2020-05-31T23:05:38Z</time>
      </trkpt>
      <trkpt lat="46.1826" lon="-1.38564">
        <ele>3.9</ele>
        <time>2020-05-31T23:05:39Z</time>
      </trkpt>
      <trkpt lat="46.18265" lon="-1.38566">
        <ele>3.9</ele>
        <time>2020-05-31T23:05:40Z</time>
      </trkpt>
      <trkpt lat="46.1827" lon="-1.38568">
        <ele>4</ele>
        <time>2020-05-31T23:05:41Z</time>
      </trkpt>
      <trkpt lat="46.18274" lon="-1.3857">
        <ele>4.1</ele>
        <time>2020-05-31T23:05:42Z</time>
      </trkpt>
      <trkpt lat="46.18278" lon="-1.38572">
        <ele>4.1</ele>
        <time>2020-05-31T23:05:43Z</time>
      </trkpt>
      <trkpt lat="46.18283" lon="-1.38574">
        <ele>4.1</ele>
        <time>2020-05-31T23:05:44Z</time>
      </trkpt>
      <trkpt lat="46.18287" lon="-1.38577">
        <ele>4.2</ele>
        <time>2020-05-31T23:05:45Z</time>
      </trkpt>
      <trkpt lat="46.18292" lon="-1.3858">
        <ele>4.2</ele>
        <time>2020-05-31T23:05:46Z</time>
      </trkpt>
      <trkpt lat="46.18297" lon="-1.38581">
        <ele>4.3</ele>
        <time>2020-05-31T23:05:47Z</time>
      </trkpt>
      <trkpt lat="46.18302" lon="-1.38583">
        <ele>4.3</ele>
        <time>2020-05-31T23:05:48Z</time>
      </trkpt>
      <trkpt lat="46.18307" lon="-1.38585">
        <ele>4.3</ele>
        <time>2020-05-31T23:05:49Z</time>
      </trkpt>
      <trkpt lat="46.18312" lon="-1.38588">
        <ele>4.4</ele>
        <time>2020-05-31T23:05:50Z</time>
      </trkpt>
      <trkpt lat="46.18317" lon="-1.38591">
        <ele>4.4</ele>
        <time>2020-05-31T23:05:51Z</time>
      </trkpt>
      <trkpt lat="46.18321" lon="-1.38593">
        <ele>4.4</ele>
        <time>2020-05-31T23:05:52Z</time>
      </trkpt>
      <trkpt lat="46.18325" lon="-1.38596">
        <ele>4.3</ele>
        <time>2020-05-31T23:05:53Z</time>
      </trkpt>
      <trkpt lat="46.1833" lon="-1.38599">
        <ele>4.3</ele>
        <time>2020-05-31T23:05:54Z</time>
      </trkpt>
      <trkpt lat="46.18334" lon="-1.386">
        <ele>4.3</ele>
        <time>2020-05-31T23:05:55Z</time>
      </trkpt>
      <trkpt lat="46.18338" lon="-1.38603">
        <ele>4.3</ele>
        <time>2020-05-31T23:05:56Z</time>
      </trkpt>
      <trkpt lat="46.18342" lon="-1.38606">
        <ele>4.4</ele>
        <time>2020-05-31T23:05:57Z</time>
      </trkpt>
      <trkpt lat="46.18347" lon="-1.38609">
        <ele>4.4</ele>
        <time>2020-05-31T23:05:58Z</time>
      </trkpt>
      <trkpt lat="46.18351" lon="-1.38613">
        <ele>4.4</ele>
        <time>2020-05-31T23:05:59Z</time>
      </trkpt>
      <trkpt lat="46.18355" lon="-1.38617">
        <ele>4.4</ele>
        <time>2020-05-31T23:06:00Z</time>
      </trkpt>
      <trkpt lat="46.18359" lon="-1.38623">
        <ele>4.5</ele>
        <time>2020-05-31T23:06:01Z</time>
      </trkpt>
      <trkpt lat="46.18362" lon="-1.38627">
        <ele>4.5</ele>
        <time>2020-05-31T23:06:02Z</time>
      </trkpt>
      <trkpt lat="46.18367" lon="-1.3863">
        <ele>4.5</ele>
        <time>2020-05-31T23:06:03Z</time>
      </trkpt>
      <trkpt lat="46.18372" lon="-1.38633">
        <ele>4.6</ele>
        <time>2020-05-31T23:06:04Z</time>
      </trkpt>
      <trkpt lat="46.18376" lon="-1.38636">
        <ele>4.6</ele>
        <time>2020-05-31T23:06:05Z</time>
      </trkpt>
      <trkpt lat="46.18381" lon="-1.38639">
        <ele>4.7</ele>
        <time>2020-05-31T23:06:06Z</time>
      </trkpt>
      <trkpt lat="46.18384" lon="-1.38641">
        <ele>4.7</ele>
        <time>2020-05-31T23:06:07Z</time>
      </trkpt>
      <trkpt lat="46.18388" lon="-1.38644">
        <ele>4.7</ele>
        <time>2020-05-31T23:06:08Z</time>
      </trkpt>
      <trkpt lat="46.18392" lon="-1.38647">
        <ele>4.8</ele>
        <time>2020-05-31T23:06:09Z</time>
      </trkpt>
      <trkpt lat="46.18396" lon="-1.3865">
        <ele>4.8</ele>
        <time>2020-05-31T23:06:10Z</time>
      </trkpt>
      <trkpt lat="46.184" lon="-1.38653">
        <ele>4.8</ele>
        <time>2020-05-31T23:06:11Z</time>
      </trkpt>
      <trkpt lat="46.18404" lon="-1.38656">
        <ele>4.9</ele>
        <time>2020-05-31T23:06:12Z</time>
      </trkpt>
      <trkpt lat="46.18408" lon="-1.38659">
        <ele>4.9</ele>
        <time>2020-05-31T23:06:13Z</time>
      </trkpt>
      <trkpt lat="46.18412" lon="-1.38662">
        <ele>4.9</ele>
        <time>2020-05-31T23:06:14Z</time>
      </trkpt>
      <trkpt lat="46.18416" lon="-1.38666">
        <ele>5</ele>
        <time>2020-05-31T23:06:15Z</time>
      </trkpt>
      <trkpt lat="46.1842" lon="-1.38668">
        <ele>5</ele>
        <time>2020-05-31T23:06:16Z</time>
      </trkpt>
      <trkpt lat="46.18425" lon="-1.38671">
        <ele>5.1</ele>
        <time>2020-05-31T23:06:17Z</time>
      </trkpt>
      <trkpt lat="46.18429" lon="-1.38675">
        <ele>5.1</ele>
        <time>2020-05-31T23:06:18Z</time>
      </trkpt>
      <trkpt lat="46.18433" lon="-1.38677">
        <ele>5.2</ele>
        <time>2020-05-31T23:06:19Z</time>
      </trkpt>
      <trkpt lat="46.18437" lon="-1.3868">
        <ele>5.3</ele>
        <time>2020-05-31T23:06:20Z</time>
      </trkpt>
      <trkpt lat="46.18441" lon="-1.38682">
        <ele>5.3</ele>
        <time>2020-05-31T23:06:21Z</time>
      </trkpt>
      <trkpt lat="46.18446" lon="-1.38684">
        <ele>5.4</ele>
        <time>2020-05-31T23:06:22Z</time>
      </trkpt>
      <trkpt lat="46.18451" lon="-1.38687">
        <ele>5.5</ele>
        <time>2020-05-31T23:06:23Z</time>
      </trkpt>
      <trkpt lat="46.18455" lon="-1.38689">
        <ele>5.6</ele>
        <time>2020-05-31T23:06:24Z</time>
      </trkpt>
      <trkpt lat="46.18459" lon="-1.38691">
        <ele>5.7</ele>
        <time>2020-05-31T23:06:25Z</time>
      </trkpt>
      <trkpt lat="46.18463" lon="-1.38694">
        <ele>5.7</ele>
        <time>2020-05-31T23:06:26Z</time>
      </trkpt>
      <trkpt lat="46.18467" lon="-1.38696">
        <ele>5.8</ele>
        <time>2020-05-31T23:06:27Z</time>
      </trkpt>
      <trkpt lat="46.18471" lon="-1.38698">
        <ele>5.8</ele>
        <time>2020-05-31T23:06:28Z</time>
      </trkpt>
      <trkpt lat="46.18475" lon="-1.387">
        <ele>5.9</ele>
        <time>2020-05-31T23:06:29Z</time>
      </trkpt>
      <trkpt lat="46.18479" lon="-1.38702">
        <ele>6</ele>
        <time>2020-05-31T23:06:30Z</time>
      </trkpt>
      <trkpt lat="46.18483" lon="-1.38705">
        <ele>6</ele>
        <time>2020-05-31T23:06:31Z</time>
      </trkpt>
      <trkpt lat="46.18487" lon="-1.38708">
        <ele>6</ele>
        <time>2020-05-31T23:06:32Z</time>
      </trkpt>
      <trkpt lat="46.18492" lon="-1.38712">
        <ele>6</ele>
        <time>2020-05-31T23:06:33Z</time>
      </trkpt>
      <trkpt lat="46.18495" lon="-1.38718">
        <ele>5.9</ele>
        <time>2020-05-31T23:06:34Z</time>
      </trkpt>
      <trkpt lat="46.18498" lon="-1.38726">
        <ele>5.8</ele>
        <time>2020-05-31T23:06:35Z</time>
      </trkpt>
      <trkpt lat="46.18497" lon="-1.38735">
        <ele>5.7</ele>
        <time>2020-05-31T23:06:36Z</time>
      </trkpt>
      <trkpt lat="46.18497" lon="-1.38743">
        <ele>5.7</ele>
        <time>2020-05-31T23:06:37Z</time>
      </trkpt>
      <trkpt lat="46.18497" lon="-1.38749">
        <ele>5.7</ele>
        <time>2020-05-31T23:06:38Z</time>
      </trkpt>
      <trkpt lat="46.18497" lon="-1.38756">
        <ele>5.7</ele>
        <time>2020-05-31T23:06:39Z</time>
      </trkpt>
      <trkpt lat="46.18497" lon="-1.38763">
        <ele>5.7</ele>
        <time>2020-05-31T23:06:40Z</time>
      </trkpt>
      <trkpt lat="46.18497" lon="-1.3877">
        <ele>5.7</ele>
        <time>2020-05-31T23:06:41Z</time>
      </trkpt>
      <trkpt lat="46.18498" lon="-1.38777">
        <ele>5.7</ele>
        <time>2020-05-31T23:06:42Z</time>
      </trkpt>
      <trkpt lat="46.18497" lon="-1.38784">
        <ele>5.8</ele>
        <time>2020-05-31T23:06:43Z</time>
      </trkpt>
      <trkpt lat="46.18497" lon="-1.3879">
        <ele>5.8</ele>
        <time>2020-05-31T23:06:44Z</time>
      </trkpt>
      <trkpt lat="46.18497" lon="-1.38797">
        <ele>5.8</ele>
        <time>2020-05-31T23:06:45Z</time>
      </trkpt>
      <trkpt lat="46.18498" lon="-1.38804">
        <ele>5.8</ele>
        <time>2020-05-31T23:06:46Z</time>
      </trkpt>
      <trkpt lat="46.18499" lon="-1.38811">
        <ele>5.8</ele>
        <time>2020-05-31T23:06:47Z</time>
      </trkpt>
      <trkpt lat="46.185" lon="-1.38818">
        <ele>5.8</ele>
        <time>2020-05-31T23:06:48Z</time>
      </trkpt>
      <trkpt lat="46.18501" lon="-1.38824">
        <ele>5.8</ele>
        <time>2020-05-31T23:06:49Z</time>
      </trkpt>
      <trkpt lat="46.18502" lon="-1.38832">
        <ele>5.8</ele>
        <time>2020-05-31T23:06:50Z</time>
      </trkpt>
      <trkpt lat="46.18502" lon="-1.38839">
        <ele>5.9</ele>
        <time>2020-05-31T23:06:51Z</time>
      </trkpt>
      <trkpt lat="46.18503" lon="-1.38846">
        <ele>5.9</ele>
        <time>2020-05-31T23:06:52Z</time>
      </trkpt>
      <trkpt lat="46.18504" lon="-1.38853">
        <ele>5.9</ele>
        <time>2020-05-31T23:06:53Z</time>
      </trkpt>
      <trkpt lat="46.18504" lon="-1.38861">
        <ele>5.9</ele>
        <time>2020-05-31T23:06:54Z</time>
      </trkpt>
      <trkpt lat="46.18506" lon="-1.38868">
        <ele>5.9</ele>
        <time>2020-05-31T23:06:55Z</time>
      </trkpt>
      <trkpt lat="46.18507" lon="-1.38875">
        <ele>5.9</ele>
        <time>2020-05-31T23:06:56Z</time>
      </trkpt>
      <trkpt lat="46.18509" lon="-1.38882">
        <ele>5.9</ele>
        <time>2020-05-31T23:06:57Z</time>
      </trkpt>
      <trkpt lat="46.1851" lon="-1.3889">
        <ele>6</ele>
        <time>2020-05-31T23:06:58Z</time>
      </trkpt>
      <trkpt lat="46.18511" lon="-1.38897">
        <ele>6</ele>
        <time>2020-05-31T23:06:59Z</time>
      </trkpt>
      <trkpt lat="46.18512" lon="-1.38905">
        <ele>6</ele>
        <time>2020-05-31T23:07:00Z</time>
      </trkpt>
      <trkpt lat="46.18513" lon="-1.38914">
        <ele>6.1</ele>
        <time>2020-05-31T23:07:01Z</time>
      </trkpt>
      <trkpt lat="46.18515" lon="-1.38922">
        <ele>6.1</ele>
        <time>2020-05-31T23:07:02Z</time>
      </trkpt>
      <trkpt lat="46.18516" lon="-1.3893">
        <ele>6.2</ele>
        <time>2020-05-31T23:07:03Z</time>
      </trkpt>
      <trkpt lat="46.18518" lon="-1.38938">
        <ele>6.2</ele>
        <time>2020-05-31T23:07:04Z</time>
      </trkpt>
      <trkpt lat="46.1852" lon="-1.38946">
        <ele>6.2</ele>
        <time>2020-05-31T23:07:05Z</time>
      </trkpt>
      <trkpt lat="46.18521" lon="-1.38954">
        <ele>6.3</ele>
        <time>2020-05-31T23:07:06Z</time>
      </trkpt>
      <trkpt lat="46.18521" lon="-1.38961">
        <ele>6.3</ele>
        <time>2020-05-31T23:07:07Z</time>
      </trkpt>
      <trkpt lat="46.1852" lon="-1.38969">
        <ele>6.3</ele>
        <time>2020-05-31T23:07:08Z</time>
      </trkpt>
      <trkpt lat="46.1852" lon="-1.38978">
        <ele>6.4</ele>
        <time>2020-05-31T23:07:09Z</time>
      </trkpt>
      <trkpt lat="46.1852" lon="-1.38986">
        <ele>6.4</ele>
        <time>2020-05-31T23:07:10Z</time>
      </trkpt>
      <trkpt lat="46.18518" lon="-1.38994">
        <ele>6.5</ele>
        <time>2020-05-31T23:07:11Z</time>
      </trkpt>
      <trkpt lat="46.18518" lon="-1.39002">
        <ele>6.5</ele>
        <time>2020-05-31T23:07:12Z</time>
      </trkpt>
      <trkpt lat="46.18517" lon="-1.39009">
        <ele>6.6</ele>
        <time>2020-05-31T23:07:13Z</time>
      </trkpt>
      <trkpt lat="46.18515" lon="-1.39017">
        <ele>6.6</ele>
        <time>2020-05-31T23:07:14Z</time>
      </trkpt>
      <trkpt lat="46.18514" lon="-1.39025">
        <ele>6.7</ele>
        <time>2020-05-31T23:07:15Z</time>
      </trkpt>
      <trkpt lat="46.18514" lon="-1.39034">
        <ele>6.7</ele>
        <time>2020-05-31T23:07:16Z</time>
      </trkpt>
      <trkpt lat="46.18512" lon="-1.39042">
        <ele>6.8</ele>
        <time>2020-05-31T23:07:17Z</time>
      </trkpt>
      <trkpt lat="46.18511" lon="-1.3905">
        <ele>6.8</ele>
        <time>2020-05-31T23:07:18Z</time>
      </trkpt>
      <trkpt lat="46.1851" lon="-1.3906">
        <ele>6.9</ele>
        <time>2020-05-31T23:07:19Z</time>
      </trkpt>
      <trkpt lat="46.18509" lon="-1.39069">
        <ele>6.9</ele>
        <time>2020-05-31T23:07:20Z</time>
      </trkpt>
      <trkpt lat="46.18508" lon="-1.39078">
        <ele>6.9</ele>
        <time>2020-05-31T23:07:21Z</time>
      </trkpt>
      <trkpt lat="46.18507" lon="-1.39085">
        <ele>6.9</ele>
        <time>2020-05-31T23:07:22Z</time>
      </trkpt>
      <trkpt lat="46.18505" lon="-1.39094">
        <ele>6.9</ele>
        <time>2020-05-31T23:07:23Z</time>
      </trkpt>
      <trkpt lat="46.18503" lon="-1.39102">
        <ele>6.8</ele>
        <time>2020-05-31T23:07:24Z</time>
      </trkpt>
      <trkpt lat="46.18502" lon="-1.39111">
        <ele>6.8</ele>
        <time>2020-05-31T23:07:25Z</time>
      </trkpt>
      <trkpt lat="46.18501" lon="-1.39117">
        <ele>6.8</ele>
        <time>2020-05-31T23:07:26Z</time>
      </trkpt>
      <trkpt lat="46.18499" lon="-1.39123">
        <ele>6.7</ele>
        <time>2020-05-31T23:07:27Z</time>
      </trkpt>
      <trkpt lat="46.18497" lon="-1.3913">
        <ele>6.7</ele>
        <time>2020-05-31T23:07:28Z</time>
      </trkpt>
      <trkpt lat="46.18496" lon="-1.39137">
        <ele>6.7</ele>
        <time>2020-05-31T23:07:29Z</time>
      </trkpt>
      <trkpt lat="46.18495" lon="-1.39143">
        <ele>6.6</ele>
        <time>2020-05-31T23:07:30Z</time>
      </trkpt>
      <trkpt lat="46.18492" lon="-1.39151">
        <ele>6.6</ele>
        <time>2020-05-31T23:07:31Z</time>
      </trkpt>
      <trkpt lat="46.1849" lon="-1.39159">
        <ele>6.5</ele>
        <time>2020-05-31T23:07:32Z</time>
      </trkpt>
      <trkpt lat="46.18489" lon="-1.39167">
        <ele>6.5</ele>
        <time>2020-05-31T23:07:33Z</time>
      </trkpt>
      <trkpt lat="46.18487" lon="-1.39175">
        <ele>6.4</ele>
        <time>2020-05-31T23:07:34Z</time>
      </trkpt>
      <trkpt lat="46.18485" lon="-1.39183">
        <ele>6.4</ele>
        <time>2020-05-31T23:07:35Z</time>
      </trkpt>
      <trkpt lat="46.18483" lon="-1.3919">
        <ele>6.4</ele>
        <time>2020-05-31T23:07:36Z</time>
      </trkpt>
      <trkpt lat="46.1848" lon="-1.39199">
        <ele>6.3</ele>
        <time>2020-05-31T23:07:37Z</time>
      </trkpt>
      <trkpt lat="46.18478" lon="-1.39206">
        <ele>6.3</ele>
        <time>2020-05-31T23:07:38Z</time>
      </trkpt>
      <trkpt lat="46.18475" lon="-1.39213">
        <ele>6.2</ele>
        <time>2020-05-31T23:07:39Z</time>
      </trkpt>
      <trkpt lat="46.18473" lon="-1.3922">
        <ele>6.2</ele>
        <time>2020-05-31T23:07:40Z</time>
      </trkpt>
      <trkpt lat="46.18471" lon="-1.39228">
        <ele>6.2</ele>
        <time>2020-05-31T23:07:41Z</time>
      </trkpt>
      <trkpt lat="46.1847" lon="-1.39235">
        <ele>6.1</ele>
        <time>2020-05-31T23:07:42Z</time>
      </trkpt>
      <trkpt lat="46.1847" lon="-1.39243">
        <ele>6.1</ele>
        <time>2020-05-31T23:07:43Z</time>
      </trkpt>
      <trkpt lat="46.18471" lon="-1.39252">
        <ele>6</ele>
        <time>2020-05-31T23:07:44Z</time>
      </trkpt>
      <trkpt lat="46.18472" lon="-1.39261">
        <ele>6</ele>
        <time>2020-05-31T23:07:45Z</time>
      </trkpt>
      <trkpt lat="46.18472" lon="-1.3927">
        <ele>6</ele>
        <time>2020-05-31T23:07:46Z</time>
      </trkpt>
      <trkpt lat="46.18474" lon="-1.39279">
        <ele>6.1</ele>
        <time>2020-05-31T23:07:47Z</time>
      </trkpt>
      <trkpt lat="46.18476" lon="-1.39286">
        <ele>6.1</ele>
        <time>2020-05-31T23:07:48Z</time>
      </trkpt>
      <trkpt lat="46.18479" lon="-1.39293">
        <ele>6.2</ele>
        <time>2020-05-31T23:07:49Z</time>
      </trkpt>
      <trkpt lat="46.18482" lon="-1.39299">
        <ele>6.2</ele>
        <time>2020-05-31T23:07:50Z</time>
      </trkpt>
      <trkpt lat="46.18484" lon="-1.39305">
        <ele>6.2</ele>
        <time>2020-05-31T23:07:51Z</time>
      </trkpt>
      <trkpt lat="46.18487" lon="-1.39312">
        <ele>6.2</ele>
        <time>2020-05-31T23:07:52Z</time>
      </trkpt>
      <trkpt lat="46.18488" lon="-1.39321">
        <ele>6.3</ele>
        <time>2020-05-31T23:07:53Z</time>
      </trkpt>
      <trkpt lat="46.18489" lon="-1.3933">
        <ele>6.3</ele>
        <time>2020-05-31T23:07:54Z</time>
      </trkpt>
      <trkpt lat="46.18488" lon="-1.39338">
        <ele>6.3</ele>
        <time>2020-05-31T23:07:55Z</time>
      </trkpt>
      <trkpt lat="46.18487" lon="-1.39345">
        <ele>6.2</ele>
        <time>2020-05-31T23:07:56Z</time>
      </trkpt>
      <trkpt lat="46.18484" lon="-1.39351">
        <ele>6.2</ele>
        <time>2020-05-31T23:07:57Z</time>
      </trkpt>
      <trkpt lat="46.18481" lon="-1.39358">
        <ele>6.2</ele>
        <time>2020-05-31T23:07:58Z</time>
      </trkpt>
      <trkpt lat="46.18478" lon="-1.39365">
        <ele>6.1</ele>
        <time>2020-05-31T23:07:59Z</time>
      </trkpt>
      <trkpt lat="46.18474" lon="-1.39371">
        <ele>6.1</ele>
        <time>2020-05-31T23:08:00Z</time>
      </trkpt>
      <trkpt lat="46.1847" lon="-1.39377">
        <ele>6</ele>
        <time>2020-05-31T23:08:01Z</time>
      </trkpt>
      <trkpt lat="46.18466" lon="-1.39384">
        <ele>5.9</ele>
        <time>2020-05-31T23:08:02Z</time>
      </trkpt>
      <trkpt lat="46.18463" lon="-1.3939">
        <ele>5.9</ele>
        <time>2020-05-31T23:08:03Z</time>
      </trkpt>
      <trkpt lat="46.18459" lon="-1.39396">
        <ele>5.8</ele>
        <time>2020-05-31T23:08:04Z</time>
      </trkpt>
      <trkpt lat="46.18455" lon="-1.39402">
        <ele>5.8</ele>
        <time>2020-05-31T23:08:05Z</time>
      </trkpt>
      <trkpt lat="46.18451" lon="-1.39408">
        <ele>5.8</ele>
        <time>2020-05-31T23:08:06Z</time>
      </trkpt>
      <trkpt lat="46.18447" lon="-1.39415">
        <ele>5.7</ele>
        <time>2020-05-31T23:08:07Z</time>
      </trkpt>
      <trkpt lat="46.18444" lon="-1.39421">
        <ele>5.7</ele>
        <time>2020-05-31T23:08:08Z</time>
      </trkpt>
      <trkpt lat="46.1844" lon="-1.39428">
        <ele>5.7</ele>
        <time>2020-05-31T23:08:09Z</time>
      </trkpt>
      <trkpt lat="46.18436" lon="-1.39435">
        <ele>5.6</ele>
        <time>2020-05-31T23:08:10Z</time>
      </trkpt>
      <trkpt lat="46.18433" lon="-1.39442">
        <ele>5.6</ele>
        <time>2020-05-31T23:08:11Z</time>
      </trkpt>
      <trkpt lat="46.18429" lon="-1.39448">
        <ele>5.6</ele>
        <time>2020-05-31T23:08:12Z</time>
      </trkpt>
      <trkpt lat="46.18426" lon="-1.39455">
        <ele>5.6</ele>
        <time>2020-05-31T23:08:13Z</time>
      </trkpt>
      <trkpt lat="46.18424" lon="-1.39461">
        <ele>5.6</ele>
        <time>2020-05-31T23:08:14Z</time>
      </trkpt>
      <trkpt lat="46.18421" lon="-1.39467">
        <ele>5.5</ele>
        <time>2020-05-31T23:08:15Z</time>
      </trkpt>
      <trkpt lat="46.18418" lon="-1.39475">
        <ele>5.5</ele>
        <time>2020-05-31T23:08:16Z</time>
      </trkpt>
      <trkpt lat="46.18417" lon="-1.39481">
        <ele>5.5</ele>
        <time>2020-05-31T23:08:17Z</time>
      </trkpt>
      <trkpt lat="46.18414" lon="-1.39488">
        <ele>5.5</ele>
        <time>2020-05-31T23:08:18Z</time>
      </trkpt>
      <trkpt lat="46.18411" lon="-1.39496">
        <ele>5.4</ele>
        <time>2020-05-31T23:08:19Z</time>
      </trkpt>
      <trkpt lat="46.18409" lon="-1.39505">
        <ele>5.4</ele>
        <time>2020-05-31T23:08:20Z</time>
      </trkpt>
      <trkpt lat="46.18405" lon="-1.39514">
        <ele>5.3</ele>
        <time>2020-05-31T23:08:21Z</time>
      </trkpt>
      <trkpt lat="46.18401" lon="-1.39525">
        <ele>5.3</ele>
        <time>2020-05-31T23:08:22Z</time>
      </trkpt>
      <trkpt lat="46.18398" lon="-1.39534">
        <ele>5.3</ele>
        <time>2020-05-31T23:08:23Z</time>
      </trkpt>
      <trkpt lat="46.18394" lon="-1.39543">
        <ele>5.3</ele>
        <time>2020-05-31T23:08:24Z</time>
      </trkpt>
      <trkpt lat="46.1839" lon="-1.39552">
        <ele>5.2</ele>
        <time>2020-05-31T23:08:25Z</time>
      </trkpt>
      <trkpt lat="46.18386" lon="-1.39561">
        <ele>5.2</ele>
        <time>2020-05-31T23:08:26Z</time>
      </trkpt>
      <trkpt lat="46.18383" lon="-1.39567">
        <ele>5.2</ele>
        <time>2020-05-31T23:08:27Z</time>
      </trkpt>
      <trkpt lat="46.1838" lon="-1.39574">
        <ele>5.2</ele>
        <time>2020-05-31T23:08:28Z</time>
      </trkpt>
      <trkpt lat="46.18377" lon="-1.39582">
        <ele>5.1</ele>
        <time>2020-05-31T23:08:29Z</time>
      </trkpt>
      <trkpt lat="46.18373" lon="-1.3959">
        <ele>5.1</ele>
        <time>2020-05-31T23:08:30Z</time>
      </trkpt>
      <trkpt lat="46.18371" lon="-1.39595">
        <ele>5.1</ele>
        <time>2020-05-31T23:08:31Z</time>
      </trkpt>
      <trkpt lat="46.18367" lon="-1.39602">
        <ele>5.1</ele>
        <time>2020-05-31T23:08:32Z</time>
      </trkpt>
      <trkpt lat="46.18364" lon="-1.39611">
        <ele>5</ele>
        <time>2020-05-31T23:08:33Z</time>
      </trkpt>
      <trkpt lat="46.18361" lon="-1.39619">
        <ele>5</ele>
        <time>2020-05-31T23:08:34Z</time>
      </trkpt>
      <trkpt lat="46.18359" lon="-1.39625">
        <ele>5.1</ele>
        <time>2020-05-31T23:08:35Z</time>
      </trkpt>
      <trkpt lat="46.18355" lon="-1.39633">
        <ele>5.1</ele>
        <time>2020-05-31T23:08:36Z</time>
      </trkpt>
      <trkpt lat="46.18353" lon="-1.3964">
        <ele>5.1</ele>
        <time>2020-05-31T23:08:37Z</time>
      </trkpt>
      <trkpt lat="46.18352" lon="-1.39646">
        <ele>5.1</ele>
        <time>2020-05-31T23:08:38Z</time>
      </trkpt>
      <trkpt lat="46.1835" lon="-1.39653">
        <ele>5.2</ele>
        <time>2020-05-31T23:08:39Z</time>
      </trkpt>
      <trkpt lat="46.1835" lon="-1.39661">
        <ele>5.2</ele>
        <time>2020-05-31T23:08:40Z</time>
      </trkpt>
      <trkpt lat="46.18348" lon="-1.39669">
        <ele>5.2</ele>
        <time>2020-05-31T23:08:41Z</time>
      </trkpt>
      <trkpt lat="46.18346" lon="-1.39678">
        <ele>5.2</ele>
        <time>2020-05-31T23:08:42Z</time>
      </trkpt>
      <trkpt lat="46.18347" lon="-1.39685">
        <ele>5.2</ele>
        <time>2020-05-31T23:08:43Z</time>
      </trkpt>
      <trkpt lat="46.18346" lon="-1.39695">
        <ele>5.2</ele>
        <time>2020-05-31T23:08:44Z</time>
      </trkpt>
      <trkpt lat="46.18346" lon="-1.39705">
        <ele>5.3</ele>
        <time>2020-05-31T23:08:45Z</time>
      </trkpt>
      <trkpt lat="46.18347" lon="-1.39713">
        <ele>5.3</ele>
        <time>2020-05-31T23:08:46Z</time>
      </trkpt>
      <trkpt lat="46.18348" lon="-1.39722">
        <ele>5.5</ele>
        <time>2020-05-31T23:08:47Z</time>
      </trkpt>
      <trkpt lat="46.1835" lon="-1.39732">
        <ele>5.5</ele>
        <time>2020-05-31T23:08:48Z</time>
      </trkpt>
      <trkpt lat="46.18354" lon="-1.39741">
        <ele>5.5</ele>
        <time>2020-05-31T23:08:49Z</time>
      </trkpt>
      <trkpt lat="46.18357" lon="-1.39747">
        <ele>5.5</ele>
        <time>2020-05-31T23:08:50Z</time>
      </trkpt>
      <trkpt lat="46.1836" lon="-1.39753">
        <ele>5.6</ele>
        <time>2020-05-31T23:08:51Z</time>
      </trkpt>
      <trkpt lat="46.18368" lon="-1.39761">
        <ele>5.6</ele>
        <time>2020-05-31T23:08:52Z</time>
      </trkpt>
      <trkpt lat="46.18374" lon="-1.39768">
        <ele>5.6</ele>
        <time>2020-05-31T23:08:53Z</time>
      </trkpt>
      <trkpt lat="46.1838" lon="-1.39775">
        <ele>5.6</ele>
        <time>2020-05-31T23:08:54Z</time>
      </trkpt>
      <trkpt lat="46.18386" lon="-1.39781">
        <ele>5.7</ele>
        <time>2020-05-31T23:08:55Z</time>
      </trkpt>
      <trkpt lat="46.18392" lon="-1.39787">
        <ele>5.7</ele>
        <time>2020-05-31T23:08:56Z</time>
      </trkpt>
      <trkpt lat="46.18398" lon="-1.39794">
        <ele>5.6</ele>
        <time>2020-05-31T23:08:57Z</time>
      </trkpt>
      <trkpt lat="46.18404" lon="-1.398">
        <ele>5.6</ele>
        <time>2020-05-31T23:08:58Z</time>
      </trkpt>
      <trkpt lat="46.18409" lon="-1.39806">
        <ele>5.6</ele>
        <time>2020-05-31T23:08:59Z</time>
      </trkpt>
      <trkpt lat="46.18415" lon="-1.39813">
        <ele>5.6</ele>
        <time>2020-05-31T23:09:00Z</time>
      </trkpt>
      <trkpt lat="46.1842" lon="-1.3982">
        <ele>5.5</ele>
        <time>2020-05-31T23:09:01Z</time>
      </trkpt>
      <trkpt lat="46.18426" lon="-1.39826">
        <ele>5.5</ele>
        <time>2020-05-31T23:09:02Z</time>
      </trkpt>
      <trkpt lat="46.18432" lon="-1.39832">
        <ele>5.5</ele>
        <time>2020-05-31T23:09:03Z</time>
      </trkpt>
      <trkpt lat="46.18437" lon="-1.39838">
        <ele>5.5</ele>
        <time>2020-05-31T23:09:04Z</time>
      </trkpt>
      <trkpt lat="46.18443" lon="-1.39845">
        <ele>5.5</ele>
        <time>2020-05-31T23:09:05Z</time>
      </trkpt>
      <trkpt lat="46.18448" lon="-1.39851">
        <ele>5.5</ele>
        <time>2020-05-31T23:09:06Z</time>
      </trkpt>
      <trkpt lat="46.18453" lon="-1.39857">
        <ele>5.5</ele>
        <time>2020-05-31T23:09:07Z</time>
      </trkpt>
      <trkpt lat="46.18458" lon="-1.39862">
        <ele>5.5</ele>
        <time>2020-05-31T23:09:08Z</time>
      </trkpt>
      <trkpt lat="46.18463" lon="-1.39868">
        <ele>5.5</ele>
        <time>2020-05-31T23:09:09Z</time>
      </trkpt>
      <trkpt lat="46.18468" lon="-1.39873">
        <ele>5.5</ele>
        <time>2020-05-31T23:09:10Z</time>
      </trkpt>
      <trkpt lat="46.18473" lon="-1.39878">
        <ele>5.5</ele>
        <time>2020-05-31T23:09:11Z</time>
      </trkpt>
      <trkpt lat="46.18477" lon="-1.39883">
        <ele>5.6</ele>
        <time>2020-05-31T23:09:12Z</time>
      </trkpt>
      <trkpt lat="46.18482" lon="-1.39888">
        <ele>5.6</ele>
        <time>2020-05-31T23:09:13Z</time>
      </trkpt>
      <trkpt lat="46.18487" lon="-1.39892">
        <ele>5.6</ele>
        <time>2020-05-31T23:09:14Z</time>
      </trkpt>
      <trkpt lat="46.18491" lon="-1.39897">
        <ele>5.6</ele>
        <time>2020-05-31T23:09:15Z</time>
      </trkpt>
      <trkpt lat="46.18496" lon="-1.39901">
        <ele>5.6</ele>
        <time>2020-05-31T23:09:16Z</time>
      </trkpt>
      <trkpt lat="46.18501" lon="-1.39906">
        <ele>5.6</ele>
        <time>2020-05-31T23:09:17Z</time>
      </trkpt>
      <trkpt lat="46.18506" lon="-1.39911">
        <ele>5.6</ele>
        <time>2020-05-31T23:09:18Z</time>
      </trkpt>
      <trkpt lat="46.1851" lon="-1.39915">
        <ele>5.6</ele>
        <time>2020-05-31T23:09:19Z</time>
      </trkpt>
      <trkpt lat="46.18515" lon="-1.3992">
        <ele>5.6</ele>
        <time>2020-05-31T23:09:20Z</time>
      </trkpt>
      <trkpt lat="46.18519" lon="-1.39924">
        <ele>5.6</ele>
        <time>2020-05-31T23:09:21Z</time>
      </trkpt>
      <trkpt lat="46.18523" lon="-1.39929">
        <ele>5.6</ele>
        <time>2020-05-31T23:09:22Z</time>
      </trkpt>
      <trkpt lat="46.18527" lon="-1.39933">
        <ele>5.5</ele>
        <time>2020-05-31T23:09:23Z</time>
      </trkpt>
      <trkpt lat="46.18531" lon="-1.39938">
        <ele>5.5</ele>
        <time>2020-05-31T23:09:24Z</time>
      </trkpt>
      <trkpt lat="46.18535" lon="-1.39944">
        <ele>5.4</ele>
        <time>2020-05-31T23:09:25Z</time>
      </trkpt>
      <trkpt lat="46.1854" lon="-1.39949">
        <ele>5.4</ele>
        <time>2020-05-31T23:09:26Z</time>
      </trkpt>
      <trkpt lat="46.18545" lon="-1.39954">
        <ele>5.3</ele>
        <time>2020-05-31T23:09:27Z</time>
      </trkpt>
      <trkpt lat="46.18549" lon="-1.3996">
        <ele>5.2</ele>
        <time>2020-05-31T23:09:28Z</time>
      </trkpt>
      <trkpt lat="46.18554" lon="-1.39965">
        <ele>5.1</ele>
        <time>2020-05-31T23:09:29Z</time>
      </trkpt>
      <trkpt lat="46.18559" lon="-1.3997">
        <ele>5.1</ele>
        <time>2020-05-31T23:09:30Z</time>
      </trkpt>
      <trkpt lat="46.18563" lon="-1.39975">
        <ele>5</ele>
        <time>2020-05-31T23:09:31Z</time>
      </trkpt>
      <trkpt lat="46.18567" lon="-1.39981">
        <ele>4.9</ele>
        <time>2020-05-31T23:09:32Z</time>
      </trkpt>
      <trkpt lat="46.18571" lon="-1.39986">
        <ele>4.8</ele>
        <time>2020-05-31T23:09:33Z</time>
      </trkpt>
      <trkpt lat="46.18576" lon="-1.39992">
        <ele>4.7</ele>
        <time>2020-05-31T23:09:34Z</time>
      </trkpt>
      <trkpt lat="46.1858" lon="-1.39998">
        <ele>4.6</ele>
        <time>2020-05-31T23:09:35Z</time>
      </trkpt>
      <trkpt lat="46.18584" lon="-1.40004">
        <ele>4.5</ele>
        <time>2020-05-31T23:09:36Z</time>
      </trkpt>
      <trkpt lat="46.18588" lon="-1.4001">
        <ele>4.4</ele>
        <time>2020-05-31T23:09:37Z</time>
      </trkpt>
      <trkpt lat="46.18591" lon="-1.40017">
        <ele>4.4</ele>
        <time>2020-05-31T23:09:38Z</time>
      </trkpt>
      <trkpt lat="46.18595" lon="-1.40024">
        <ele>4.3</ele>
        <time>2020-05-31T23:09:39Z</time>
      </trkpt>
      <trkpt lat="46.18599" lon="-1.4003">
        <ele>4.3</ele>
        <time>2020-05-31T23:09:40Z</time>
      </trkpt>
      <trkpt lat="46.18603" lon="-1.40037">
        <ele>4.2</ele>
        <time>2020-05-31T23:09:41Z</time>
      </trkpt>
      <trkpt lat="46.18607" lon="-1.40044">
        <ele>4.1</ele>
        <time>2020-05-31T23:09:42Z</time>
      </trkpt>
      <trkpt lat="46.18611" lon="-1.40051">
        <ele>4.1</ele>
        <time>2020-05-31T23:09:43Z</time>
      </trkpt>
      <trkpt lat="46.18615" lon="-1.40057">
        <ele>4</ele>
        <time>2020-05-31T23:09:44Z</time>
      </trkpt>
      <trkpt lat="46.18619" lon="-1.40064">
        <ele>4</ele>
        <time>2020-05-31T23:09:45Z</time>
      </trkpt>
      <trkpt lat="46.18623" lon="-1.40071">
        <ele>4</ele>
        <time>2020-05-31T23:09:46Z</time>
      </trkpt>
      <trkpt lat="46.18627" lon="-1.40077">
        <ele>3.9</ele>
        <time>2020-05-31T23:09:47Z</time>
      </trkpt>
      <trkpt lat="46.1863" lon="-1.40083">
        <ele>3.9</ele>
        <time>2020-05-31T23:09:48Z</time>
      </trkpt>
      <trkpt lat="46.18633" lon="-1.4009">
        <ele>3.8</ele>
        <time>2020-05-31T23:09:49Z</time>
      </trkpt>
      <trkpt lat="46.18637" lon="-1.40097">
        <ele>3.8</ele>
        <time>2020-05-31T23:09:50Z</time>
      </trkpt>
      <trkpt lat="46.1864" lon="-1.40103">
        <ele>3.7</ele>
        <time>2020-05-31T23:09:51Z</time>
      </trkpt>
      <trkpt lat="46.18643" lon="-1.40109">
        <ele>3.7</ele>
        <time>2020-05-31T23:09:52Z</time>
      </trkpt>
      <trkpt lat="46.18647" lon="-1.40114">
        <ele>3.7</ele>
        <time>2020-05-31T23:09:53Z</time>
      </trkpt>
      <trkpt lat="46.18651" lon="-1.40118">
        <ele>3.7</ele>
        <time>2020-05-31T23:09:54Z</time>
      </trkpt>
      <trkpt lat="46.18656" lon="-1.40121">
        <ele>3.7</ele>
        <time>2020-05-31T23:09:55Z</time>
      </trkpt>
      <trkpt lat="46.1866" lon="-1.40124">
        <ele>3.6</ele>
        <time>2020-05-31T23:09:56Z</time>
      </trkpt>
      <trkpt lat="46.18665" lon="-1.40128">
        <ele>3.6</ele>
        <time>2020-05-31T23:09:57Z</time>
      </trkpt>
      <trkpt lat="46.18669" lon="-1.40132">
        <ele>3.6</ele>
        <time>2020-05-31T23:09:58Z</time>
      </trkpt>
      <trkpt lat="46.18674" lon="-1.40136">
        <ele>3.6</ele>
        <time>2020-05-31T23:09:59Z</time>
      </trkpt>
      <trkpt lat="46.18678" lon="-1.40142">
        <ele>3.6</ele>
        <time>2020-05-31T23:10:00Z</time>
      </trkpt>
      <trkpt lat="46.18682" lon="-1.40147">
        <ele>3.6</ele>
        <time>2020-05-31T23:10:01Z</time>
      </trkpt>
      <trkpt lat="46.18687" lon="-1.40152">
        <ele>3.5</ele>
        <time>2020-05-31T23:10:02Z</time>
      </trkpt>
      <trkpt lat="46.18691" lon="-1.40156">
        <ele>3.5</ele>
        <time>2020-05-31T23:10:03Z</time>
      </trkpt>
      <trkpt lat="46.18696" lon="-1.40155">
        <ele>3.5</ele>
        <time>2020-05-31T23:10:04Z</time>
      </trkpt>
      <trkpt lat="46.18701" lon="-1.40154">
        <ele>3.5</ele>
        <time>2020-05-31T23:10:05Z</time>
      </trkpt>
      <trkpt lat="46.18706" lon="-1.40154">
        <ele>3.5</ele>
        <time>2020-05-31T23:10:06Z</time>
      </trkpt>
      <trkpt lat="46.18711" lon="-1.40155">
        <ele>3.5</ele>
        <time>2020-05-31T23:10:07Z</time>
      </trkpt>
      <trkpt lat="46.18717" lon="-1.40156">
        <ele>3.5</ele>
        <time>2020-05-31T23:10:08Z</time>
      </trkpt>
      <trkpt lat="46.18722" lon="-1.40157">
        <ele>3.5</ele>
        <time>2020-05-31T23:10:09Z</time>
      </trkpt>
      <trkpt lat="46.18727" lon="-1.40158">
        <ele>3.5</ele>
        <time>2020-05-31T23:10:10Z</time>
      </trkpt>
      <trkpt lat="46.18732" lon="-1.4016">
        <ele>3.4</ele>
        <time>2020-05-31T23:10:11Z</time>
      </trkpt>
      <trkpt lat="46.18738" lon="-1.40161">
        <ele>3.4</ele>
        <time>2020-05-31T23:10:12Z</time>
      </trkpt>
      <trkpt lat="46.18743" lon="-1.40162">
        <ele>3.4</ele>
        <time>2020-05-31T23:10:13Z</time>
      </trkpt>
      <trkpt lat="46.18749" lon="-1.40164">
        <ele>3.4</ele>
        <time>2020-05-31T23:10:14Z</time>
      </trkpt>
      <trkpt lat="46.18754" lon="-1.40165">
        <ele>3.4</ele>
        <time>2020-05-31T23:10:15Z</time>
      </trkpt>
      <trkpt lat="46.18758" lon="-1.40166">
        <ele>3.3</ele>
        <time>2020-05-31T23:10:16Z</time>
      </trkpt>
      <trkpt lat="46.18762" lon="-1.40167">
        <ele>3.3</ele>
        <time>2020-05-31T23:10:17Z</time>
      </trkpt>
      <trkpt lat="46.18765" lon="-1.40169">
        <ele>3.3</ele>
        <time>2020-05-31T23:10:18Z</time>
      </trkpt>
      <trkpt lat="46.18768" lon="-1.40171">
        <ele>3.3</ele>
        <time>2020-05-31T23:10:19Z</time>
      </trkpt>
      <trkpt lat="46.18772" lon="-1.40172">
        <ele>3.2</ele>
        <time>2020-05-31T23:10:20Z</time>
      </trkpt>
      <trkpt lat="46.18777" lon="-1.40174">
        <ele>3.2</ele>
        <time>2020-05-31T23:10:21Z</time>
      </trkpt>
      <trkpt lat="46.18783" lon="-1.40175">
        <ele>3.2</ele>
        <time>2020-05-31T23:10:22Z</time>
      </trkpt>
      <trkpt lat="46.18789" lon="-1.40178">
        <ele>3.2</ele>
        <time>2020-05-31T23:10:23Z</time>
      </trkpt>
      <trkpt lat="46.18795" lon="-1.4018">
        <ele>3.2</ele>
        <time>2020-05-31T23:10:24Z</time>
      </trkpt>
      <trkpt lat="46.18801" lon="-1.40184">
        <ele>3.1</ele>
        <time>2020-05-31T23:10:25Z</time>
      </trkpt>
      <trkpt lat="46.18807" lon="-1.40186">
        <ele>3.1</ele>
        <time>2020-05-31T23:10:26Z</time>
      </trkpt>
      <trkpt lat="46.18813" lon="-1.40189">
        <ele>3.1</ele>
        <time>2020-05-31T23:10:27Z</time>
      </trkpt>
      <trkpt lat="46.18818" lon="-1.40191">
        <ele>3.1</ele>
        <time>2020-05-31T23:10:28Z</time>
      </trkpt>
      <trkpt lat="46.18824" lon="-1.40193">
        <ele>3.1</ele>
        <time>2020-05-31T23:10:29Z</time>
      </trkpt>
      <trkpt lat="46.18829" lon="-1.40196">
        <ele>3.1</ele>
        <time>2020-05-31T23:10:30Z</time>
      </trkpt>
      <trkpt lat="46.18834" lon="-1.40198">
        <ele>3.1</ele>
        <time>2020-05-31T23:10:31Z</time>
      </trkpt>
      <trkpt lat="46.1884" lon="-1.402">
        <ele>3.1</ele>
        <time>2020-05-31T23:10:32Z</time>
      </trkpt>
      <trkpt lat="46.18845" lon="-1.40202">
        <ele>3.2</ele>
        <time>2020-05-31T23:10:33Z</time>
      </trkpt>
      <trkpt lat="46.18851" lon="-1.40205">
        <ele>3.2</ele>
        <time>2020-05-31T23:10:34Z</time>
      </trkpt>
      <trkpt lat="46.18857" lon="-1.40207">
        <ele>3.2</ele>
        <time>2020-05-31T23:10:35Z</time>
      </trkpt>
      <trkpt lat="46.18863" lon="-1.4021">
        <ele>3.2</ele>
        <time>2020-05-31T23:10:36Z</time>
      </trkpt>
      <trkpt lat="46.18869" lon="-1.40213">
        <ele>3.3</ele>
        <time>2020-05-31T23:10:37Z</time>
      </trkpt>
      <trkpt lat="46.18875" lon="-1.40215">
        <ele>3.3</ele>
        <time>2020-05-31T23:10:38Z</time>
      </trkpt>
      <trkpt lat="46.18881" lon="-1.40218">
        <ele>3.3</ele>
        <time>2020-05-31T23:10:39Z</time>
      </trkpt>
      <trkpt lat="46.18887" lon="-1.40221">
        <ele>3.4</ele>
        <time>2020-05-31T23:10:40Z</time>
      </trkpt>
      <trkpt lat="46.18893" lon="-1.40224">
        <ele>3.4</ele>
        <time>2020-05-31T23:10:41Z</time>
      </trkpt>
      <trkpt lat="46.18899" lon="-1.40226">
        <ele>3.4</ele>
        <time>2020-05-31T23:10:42Z</time>
      </trkpt>
      <trkpt lat="46.18905" lon="-1.40229">
        <ele>3.4</ele>
        <time>2020-05-31T23:10:43Z</time>
      </trkpt>
      <trkpt lat="46.18911" lon="-1.40231">
        <ele>3.4</ele>
        <time>2020-05-31T23:10:44Z</time>
      </trkpt>
      <trkpt lat="46.18917" lon="-1.40233">
        <ele>3.4</ele>
        <time>2020-05-31T23:10:45Z</time>
      </trkpt>
      <trkpt lat="46.18924" lon="-1.40235">
        <ele>3.4</ele>
        <time>2020-05-31T23:10:46Z</time>
      </trkpt>
      <trkpt lat="46.1893" lon="-1.40237">
        <ele>3.4</ele>
        <time>2020-05-31T23:10:47Z</time>
      </trkpt>
      <trkpt lat="46.18936" lon="-1.40239">
        <ele>3.5</ele>
        <time>2020-05-31T23:10:48Z</time>
      </trkpt>
      <trkpt lat="46.18942" lon="-1.4024">
        <ele>3.5</ele>
        <time>2020-05-31T23:10:49Z</time>
      </trkpt>
      <trkpt lat="46.18949" lon="-1.40242">
        <ele>3.5</ele>
        <time>2020-05-31T23:10:50Z</time>
      </trkpt>
      <trkpt lat="46.18954" lon="-1.40243">
        <ele>3.5</ele>
        <time>2020-05-31T23:10:51Z</time>
      </trkpt>
      <trkpt lat="46.18959" lon="-1.40245">
        <ele>3.5</ele>
        <time>2020-05-31T23:10:52Z</time>
      </trkpt>
      <trkpt lat="46.18965" lon="-1.40247">
        <ele>3.5</ele>
        <time>2020-05-31T23:10:53Z</time>
      </trkpt>
      <trkpt lat="46.1897" lon="-1.40249">
        <ele>3.5</ele>
        <time>2020-05-31T23:10:54Z</time>
      </trkpt>
      <trkpt lat="46.18975" lon="-1.40251">
        <ele>3.5</ele>
        <time>2020-05-31T23:10:55Z</time>
      </trkpt>
      <trkpt lat="46.1898" lon="-1.40252">
        <ele>3.5</ele>
        <time>2020-05-31T23:10:56Z</time>
      </trkpt>
      <trkpt lat="46.18985" lon="-1.40253">
        <ele>3.5</ele>
        <time>2020-05-31T23:10:57Z</time>
      </trkpt>
      <trkpt lat="46.18991" lon="-1.40254">
        <ele>3.5</ele>
        <time>2020-05-31T23:10:58Z</time>
      </trkpt>
      <trkpt lat="46.18996" lon="-1.40256">
        <ele>3.4</ele>
        <time>2020-05-31T23:10:59Z</time>
      </trkpt>
      <trkpt lat="46.19" lon="-1.40257">
        <ele>3.4</ele>
        <time>2020-05-31T23:11:00Z</time>
      </trkpt>
      <trkpt lat="46.19006" lon="-1.40259">
        <ele>3.4</ele>
        <time>2020-05-31T23:11:01Z</time>
      </trkpt>
      <trkpt lat="46.19011" lon="-1.40261">
        <ele>3.4</ele>
        <time>2020-05-31T23:11:02Z</time>
      </trkpt>
      <trkpt lat="46.19016" lon="-1.40263">
        <ele>3.4</ele>
        <time>2020-05-31T23:11:03Z</time>
      </trkpt>
      <trkpt lat="46.19022" lon="-1.40265">
        <ele>3.4</ele>
        <time>2020-05-31T23:11:04Z</time>
      </trkpt>
      <trkpt lat="46.19027" lon="-1.40266">
        <ele>3.4</ele>
        <time>2020-05-31T23:11:05Z</time>
      </trkpt>
      <trkpt lat="46.19032" lon="-1.40267">
        <ele>3.4</ele>
        <time>2020-05-31T23:11:06Z</time>
      </trkpt>
      <trkpt lat="46.19038" lon="-1.40268">
        <ele>3.3</ele>
        <time>2020-05-31T23:11:07Z</time>
      </trkpt>
      <trkpt lat="46.19044" lon="-1.40269">
        <ele>3.3</ele>
        <time>2020-05-31T23:11:08Z</time>
      </trkpt>
      <trkpt lat="46.19051" lon="-1.4027">
        <ele>3.3</ele>
        <time>2020-05-31T23:11:09Z</time>
      </trkpt>
      <trkpt lat="46.19057" lon="-1.40272">
        <ele>3.3</ele>
        <time>2020-05-31T23:11:10Z</time>
      </trkpt>
      <trkpt lat="46.19064" lon="-1.40273">
        <ele>3.3</ele>
        <time>2020-05-31T23:11:11Z</time>
      </trkpt>
      <trkpt lat="46.19071" lon="-1.40276">
        <ele>3.3</ele>
        <time>2020-05-31T23:11:12Z</time>
      </trkpt>
      <trkpt lat="46.19079" lon="-1.40279">
        <ele>3.2</ele>
        <time>2020-05-31T23:11:13Z</time>
      </trkpt>
      <trkpt lat="46.19086" lon="-1.40282">
        <ele>3.2</ele>
        <time>2020-05-31T23:11:14Z</time>
      </trkpt>
      <trkpt lat="46.19093" lon="-1.40286">
        <ele>3.2</ele>
        <time>2020-05-31T23:11:15Z</time>
      </trkpt>
      <trkpt lat="46.191" lon="-1.40289">
        <ele>3.1</ele>
        <time>2020-05-31T23:11:16Z</time>
      </trkpt>
      <trkpt lat="46.19107" lon="-1.40292">
        <ele>3.1</ele>
        <time>2020-05-31T23:11:17Z</time>
      </trkpt>
      <trkpt lat="46.19114" lon="-1.40295">
        <ele>3.1</ele>
        <time>2020-05-31T23:11:18Z</time>
      </trkpt>
      <trkpt lat="46.1912" lon="-1.40299">
        <ele>3.1</ele>
        <time>2020-05-31T23:11:19Z</time>
      </trkpt>
      <trkpt lat="46.19125" lon="-1.40303">
        <ele>3</ele>
        <time>2020-05-31T23:11:20Z</time>
      </trkpt>
      <trkpt lat="46.19131" lon="-1.40308">
        <ele>3</ele>
        <time>2020-05-31T23:11:21Z</time>
      </trkpt>
      <trkpt lat="46.19137" lon="-1.40312">
        <ele>3</ele>
        <time>2020-05-31T23:11:22Z</time>
      </trkpt>
      <trkpt lat="46.19143" lon="-1.40316">
        <ele>3</ele>
        <time>2020-05-31T23:11:23Z</time>
      </trkpt>
      <trkpt lat="46.19149" lon="-1.40321">
        <ele>2.9</ele>
        <time>2020-05-31T23:11:24Z</time>
      </trkpt>
      <trkpt lat="46.19154" lon="-1.40325">
        <ele>2.9</ele>
        <time>2020-05-31T23:11:25Z</time>
      </trkpt>
      <trkpt lat="46.19159" lon="-1.4033">
        <ele>2.9</ele>
        <time>2020-05-31T23:11:26Z</time>
      </trkpt>
      <trkpt lat="46.19164" lon="-1.40335">
        <ele>2.9</ele>
        <time>2020-05-31T23:11:27Z</time>
      </trkpt>
      <trkpt lat="46.19169" lon="-1.4034">
        <ele>2.9</ele>
        <time>2020-05-31T23:11:28Z</time>
      </trkpt>
      <trkpt lat="46.19174" lon="-1.40344">
        <ele>2.9</ele>
        <time>2020-05-31T23:11:29Z</time>
      </trkpt>
      <trkpt lat="46.1918" lon="-1.40349">
        <ele>2.9</ele>
        <time>2020-05-31T23:11:30Z</time>
      </trkpt>
      <trkpt lat="46.19185" lon="-1.40354">
        <ele>2.9</ele>
        <time>2020-05-31T23:11:31Z</time>
      </trkpt>
      <trkpt lat="46.19189" lon="-1.40359">
        <ele>2.9</ele>
        <time>2020-05-31T23:11:32Z</time>
      </trkpt>
      <trkpt lat="46.19195" lon="-1.40364">
        <ele>2.8</ele>
        <time>2020-05-31T23:11:33Z</time>
      </trkpt>
      <trkpt lat="46.19199" lon="-1.4037">
        <ele>2.8</ele>
        <time>2020-05-31T23:11:34Z</time>
      </trkpt>
      <trkpt lat="46.19204" lon="-1.40375">
        <ele>2.8</ele>
        <time>2020-05-31T23:11:35Z</time>
      </trkpt>
      <trkpt lat="46.19209" lon="-1.40381">
        <ele>2.8</ele>
        <time>2020-05-31T23:11:36Z</time>
      </trkpt>
      <trkpt lat="46.19214" lon="-1.40387">
        <ele>2.8</ele>
        <time>2020-05-31T23:11:37Z</time>
      </trkpt>
      <trkpt lat="46.19219" lon="-1.40393">
        <ele>2.8</ele>
        <time>2020-05-31T23:11:38Z</time>
      </trkpt>
      <trkpt lat="46.19224" lon="-1.40399">
        <ele>2.7</ele>
        <time>2020-05-31T23:11:39Z</time>
      </trkpt>
      <trkpt lat="46.19229" lon="-1.40404">
        <ele>2.7</ele>
        <time>2020-05-31T23:11:40Z</time>
      </trkpt>
      <trkpt lat="46.19233" lon="-1.40411">
        <ele>2.7</ele>
        <time>2020-05-31T23:11:41Z</time>
      </trkpt>
      <trkpt lat="46.19238" lon="-1.40417">
        <ele>2.7</ele>
        <time>2020-05-31T23:11:42Z</time>
      </trkpt>
      <trkpt lat="46.19242" lon="-1.40423">
        <ele>2.7</ele>
        <time>2020-05-31T23:11:43Z</time>
      </trkpt>
      <trkpt lat="46.19247" lon="-1.40429">
        <ele>2.7</ele>
        <time>2020-05-31T23:11:44Z</time>
      </trkpt>
      <trkpt lat="46.19252" lon="-1.40434">
        <ele>2.7</ele>
        <time>2020-05-31T23:11:45Z</time>
      </trkpt>
      <trkpt lat="46.19257" lon="-1.40438">
        <ele>2.6</ele>
        <time>2020-05-31T23:11:46Z</time>
      </trkpt>
      <trkpt lat="46.19261" lon="-1.40443">
        <ele>2.6</ele>
        <time>2020-05-31T23:11:47Z</time>
      </trkpt>
      <trkpt lat="46.19265" lon="-1.40447">
        <ele>2.6</ele>
        <time>2020-05-31T23:11:48Z</time>
      </trkpt>
      <trkpt lat="46.19269" lon="-1.40451">
        <ele>2.6</ele>
        <time>2020-05-31T23:11:49Z</time>
      </trkpt>
      <trkpt lat="46.19273" lon="-1.40458">
        <ele>2.6</ele>
        <time>2020-05-31T23:11:50Z</time>
      </trkpt>
      <trkpt lat="46.19275" lon="-1.40465">
        <ele>2.6</ele>
        <time>2020-05-31T23:11:51Z</time>
      </trkpt>
      <trkpt lat="46.19277" lon="-1.40474">
        <ele>2.5</ele>
        <time>2020-05-31T23:11:52Z</time>
      </trkpt>
      <trkpt lat="46.19279" lon="-1.40482">
        <ele>2.5</ele>
        <time>2020-05-31T23:11:53Z</time>
      </trkpt>
      <trkpt lat="46.19281" lon="-1.40491">
        <ele>2.5</ele>
        <time>2020-05-31T23:11:54Z</time>
      </trkpt>
      <trkpt lat="46.19282" lon="-1.40499">
        <ele>2.5</ele>
        <time>2020-05-31T23:11:55Z</time>
      </trkpt>
      <trkpt lat="46.19284" lon="-1.40507">
        <ele>2.4</ele>
        <time>2020-05-31T23:11:56Z</time>
      </trkpt>
      <trkpt lat="46.19286" lon="-1.40515">
        <ele>2.4</ele>
        <time>2020-05-31T23:11:57Z</time>
      </trkpt>
      <trkpt lat="46.19288" lon="-1.40522">
        <ele>2.4</ele>
        <time>2020-05-31T23:11:58Z</time>
      </trkpt>
      <trkpt lat="46.1929" lon="-1.4053">
        <ele>2.4</ele>
        <time>2020-05-31T23:11:59Z</time>
      </trkpt>
      <trkpt lat="46.19292" lon="-1.40537">
        <ele>2.4</ele>
        <time>2020-05-31T23:12:00Z</time>
      </trkpt>
      <trkpt lat="46.19294" lon="-1.40545">
        <ele>2.3</ele>
        <time>2020-05-31T23:12:01Z</time>
      </trkpt>
      <trkpt lat="46.19296" lon="-1.40552">
        <ele>2.3</ele>
        <time>2020-05-31T23:12:02Z</time>
      </trkpt>
      <trkpt lat="46.19298" lon="-1.40558">
        <ele>2.2</ele>
        <time>2020-05-31T23:12:03Z</time>
      </trkpt>
      <trkpt lat="46.193" lon="-1.40563">
        <ele>2.2</ele>
        <time>2020-05-31T23:12:04Z</time>
      </trkpt>
      <trkpt lat="46.19301" lon="-1.40569">
        <ele>2.1</ele>
        <time>2020-05-31T23:12:05Z</time>
      </trkpt>
      <trkpt lat="46.19302" lon="-1.40575">
        <ele>2</ele>
        <time>2020-05-31T23:12:06Z</time>
      </trkpt>
      <trkpt lat="46.19304" lon="-1.40582">
        <ele>2</ele>
        <time>2020-05-31T23:12:07Z</time>
      </trkpt>
      <trkpt lat="46.19305" lon="-1.40588">
        <ele>1.9</ele>
        <time>2020-05-31T23:12:08Z</time>
      </trkpt>
      <trkpt lat="46.19308" lon="-1.40595">
        <ele>1.9</ele>
        <time>2020-05-31T23:12:09Z</time>
      </trkpt>
      <trkpt lat="46.1931" lon="-1.40602">
        <ele>1.9</ele>
        <time>2020-05-31T23:12:10Z</time>
      </trkpt>
      <trkpt lat="46.19312" lon="-1.4061">
        <ele>1.8</ele>
        <time>2020-05-31T23:12:11Z</time>
      </trkpt>
      <trkpt lat="46.19314" lon="-1.40617">
        <ele>1.8</ele>
        <time>2020-05-31T23:12:12Z</time>
      </trkpt>
      <trkpt lat="46.19316" lon="-1.40624">
        <ele>1.8</ele>
        <time>2020-05-31T23:12:13Z</time>
      </trkpt>
      <trkpt lat="46.19317" lon="-1.40631">
        <ele>1.8</ele>
        <time>2020-05-31T23:12:14Z</time>
      </trkpt>
      <trkpt lat="46.19318" lon="-1.40636">
        <ele>1.8</ele>
        <time>2020-05-31T23:12:15Z</time>
      </trkpt>
      <trkpt lat="46.19319" lon="-1.40644">
        <ele>1.8</ele>
        <time>2020-05-31T23:12:16Z</time>
      </trkpt>
      <trkpt lat="46.1932" lon="-1.40651">
        <ele>1.7</ele>
        <time>2020-05-31T23:12:17Z</time>
      </trkpt>
      <trkpt lat="46.1932" lon="-1.40657">
        <ele>1.7</ele>
        <time>2020-05-31T23:12:18Z</time>
      </trkpt>
      <trkpt lat="46.19321" lon="-1.40664">
        <ele>1.6</ele>
        <time>2020-05-31T23:12:19Z</time>
      </trkpt>
      <trkpt lat="46.19323" lon="-1.40671">
        <ele>1.6</ele>
        <time>2020-05-31T23:12:20Z</time>
      </trkpt>
      <trkpt lat="46.19325" lon="-1.40679">
        <ele>1.5</ele>
        <time>2020-05-31T23:12:21Z</time>
      </trkpt>
      <trkpt lat="46.19327" lon="-1.40685">
        <ele>1.5</ele>
        <time>2020-05-31T23:12:22Z</time>
      </trkpt>
      <trkpt lat="46.1933" lon="-1.40695">
        <ele>1.4</ele>
        <time>2020-05-31T23:12:23Z</time>
      </trkpt>
      <trkpt lat="46.19332" lon="-1.40704">
        <ele>1.3</ele>
        <time>2020-05-31T23:12:24Z</time>
      </trkpt>
      <trkpt lat="46.19334" lon="-1.40709">
        <ele>1.3</ele>
        <time>2020-05-31T23:12:25Z</time>
      </trkpt>
      <trkpt lat="46.19336" lon="-1.40719">
        <ele>1.2</ele>
        <time>2020-05-31T23:12:26Z</time>
      </trkpt>
      <trkpt lat="46.19338" lon="-1.40725">
        <ele>1.2</ele>
        <time>2020-05-31T23:12:27Z</time>
      </trkpt>
      <trkpt lat="46.19339" lon="-1.40733">
        <ele>1.1</ele>
        <time>2020-05-31T23:12:28Z</time>
      </trkpt>
      <trkpt lat="46.19341" lon="-1.4074">
        <ele>1.1</ele>
        <time>2020-05-31T23:12:29Z</time>
      </trkpt>
      <trkpt lat="46.19343" lon="-1.40746">
        <ele>1</ele>
        <time>2020-05-31T23:12:30Z</time>
      </trkpt>
      <trkpt lat="46.19345" lon="-1.40753">
        <ele>1</ele>
        <time>2020-05-31T23:12:31Z</time>
      </trkpt>
      <trkpt lat="46.19346" lon="-1.40761">
        <ele>1</ele>
        <time>2020-05-31T23:12:32Z</time>
      </trkpt>
      <trkpt lat="46.19348" lon="-1.40769">
        <ele>1</ele>
        <time>2020-05-31T23:12:33Z</time>
      </trkpt>
      <trkpt lat="46.1935" lon="-1.40776">
        <ele>1</ele>
        <time>2020-05-31T23:12:34Z</time>
      </trkpt>
      <trkpt lat="46.19352" lon="-1.40783">
        <ele>0.9</ele>
        <time>2020-05-31T23:12:35Z</time>
      </trkpt>
      <trkpt lat="46.19355" lon="-1.40789">
        <ele>0.9</ele>
        <time>2020-05-31T23:12:36Z</time>
      </trkpt>
      <trkpt lat="46.19356" lon="-1.40796">
        <ele>0.9</ele>
        <time>2020-05-31T23:12:37Z</time>
      </trkpt>
      <trkpt lat="46.19358" lon="-1.40802">
        <ele>0.9</ele>
        <time>2020-05-31T23:12:38Z</time>
      </trkpt>
      <trkpt lat="46.19359" lon="-1.40809">
        <ele>0.9</ele>
        <time>2020-05-31T23:12:39Z</time>
      </trkpt>
      <trkpt lat="46.19361" lon="-1.40817">
        <ele>0.9</ele>
        <time>2020-05-31T23:12:40Z</time>
      </trkpt>
      <trkpt lat="46.19363" lon="-1.40825">
        <ele>0.9</ele>
        <time>2020-05-31T23:12:41Z</time>
      </trkpt>
      <trkpt lat="46.19364" lon="-1.40833">
        <ele>0.9</ele>
        <time>2020-05-31T23:12:42Z</time>
      </trkpt>
      <trkpt lat="46.19365" lon="-1.4084">
        <ele>0.9</ele>
        <time>2020-05-31T23:12:43Z</time>
      </trkpt>
      <trkpt lat="46.19367" lon="-1.40847">
        <ele>0.9</ele>
        <time>2020-05-31T23:12:44Z</time>
      </trkpt>
      <trkpt lat="46.19369" lon="-1.40854">
        <ele>0.9</ele>
        <time>2020-05-31T23:12:45Z</time>
      </trkpt>
      <trkpt lat="46.19371" lon="-1.40861">
        <ele>0.8</ele>
        <time>2020-05-31T23:12:46Z</time>
      </trkpt>
      <trkpt lat="46.19372" lon="-1.40867">
        <ele>0.8</ele>
        <time>2020-05-31T23:12:47Z</time>
      </trkpt>
      <trkpt lat="46.19374" lon="-1.40874">
        <ele>0.8</ele>
        <time>2020-05-31T23:12:48Z</time>
      </trkpt>
      <trkpt lat="46.19375" lon="-1.40881">
        <ele>0.8</ele>
        <time>2020-05-31T23:12:49Z</time>
      </trkpt>
      <trkpt lat="46.19377" lon="-1.40888">
        <ele>0.8</ele>
        <time>2020-05-31T23:12:50Z</time>
      </trkpt>
      <trkpt lat="46.19379" lon="-1.40895">
        <ele>0.8</ele>
        <time>2020-05-31T23:12:51Z</time>
      </trkpt>
      <trkpt lat="46.1938" lon="-1.40903">
        <ele>0.8</ele>
        <time>2020-05-31T23:12:52Z</time>
      </trkpt>
      <trkpt lat="46.19382" lon="-1.40911">
        <ele>0.8</ele>
        <time>2020-05-31T23:12:53Z</time>
      </trkpt>
      <trkpt lat="46.19385" lon="-1.40919">
        <ele>0.8</ele>
        <time>2020-05-31T23:12:54Z</time>
      </trkpt>
      <trkpt lat="46.19386" lon="-1.40927">
        <ele>0.8</ele>
        <time>2020-05-31T23:12:55Z</time>
      </trkpt>
      <trkpt lat="46.19389" lon="-1.40935">
        <ele>0.8</ele>
        <time>2020-05-31T23:12:56Z</time>
      </trkpt>
      <trkpt lat="46.19391" lon="-1.40943">
        <ele>0.8</ele>
        <time>2020-05-31T23:12:57Z</time>
      </trkpt>
      <trkpt lat="46.19393" lon="-1.40951">
        <ele>0.8</ele>
        <time>2020-05-31T23:12:58Z</time>
      </trkpt>
      <trkpt lat="46.19395" lon="-1.40958">
        <ele>0.8</ele>
        <time>2020-05-31T23:12:59Z</time>
      </trkpt>
      <trkpt lat="46.19397" lon="-1.40965">
        <ele>0.7</ele>
        <time>2020-05-31T23:13:00Z</time>
      </trkpt>
      <trkpt lat="46.19398" lon="-1.40973">
        <ele>0.7</ele>
        <time>2020-05-31T23:13:01Z</time>
      </trkpt>
      <trkpt lat="46.19399" lon="-1.40982">
        <ele>0.7</ele>
        <time>2020-05-31T23:13:02Z</time>
      </trkpt>
      <trkpt lat="46.19401" lon="-1.4099">
        <ele>0.7</ele>
        <time>2020-05-31T23:13:03Z</time>
      </trkpt>
      <trkpt lat="46.19403" lon="-1.40997">
        <ele>0.7</ele>
        <time>2020-05-31T23:13:04Z</time>
      </trkpt>
      <trkpt lat="46.19404" lon="-1.41006">
        <ele>0.7</ele>
        <time>2020-05-31T23:13:05Z</time>
      </trkpt>
      <trkpt lat="46.19406" lon="-1.41013">
        <ele>0.7</ele>
        <time>2020-05-31T23:13:06Z</time>
      </trkpt>
      <trkpt lat="46.19408" lon="-1.41021">
        <ele>0.7</ele>
        <time>2020-05-31T23:13:07Z</time>
      </trkpt>
      <trkpt lat="46.1941" lon="-1.41027">
        <ele>0.7</ele>
        <time>2020-05-31T23:13:08Z</time>
      </trkpt>
      <trkpt lat="46.19412" lon="-1.41035">
        <ele>0.7</ele>
        <time>2020-05-31T23:13:09Z</time>
      </trkpt>
      <trkpt lat="46.19413" lon="-1.41041">
        <ele>0.7</ele>
        <time>2020-05-31T23:13:10Z</time>
      </trkpt>
      <trkpt lat="46.19414" lon="-1.41046">
        <ele>0.7</ele>
        <time>2020-05-31T23:13:11Z</time>
      </trkpt>
      <trkpt lat="46.19415" lon="-1.41055">
        <ele>0.7</ele>
        <time>2020-05-31T23:13:12Z</time>
      </trkpt>
      <trkpt lat="46.19415" lon="-1.41061">
        <ele>0.7</ele>
        <time>2020-05-31T23:13:13Z</time>
      </trkpt>
      <trkpt lat="46.19416" lon="-1.41068">
        <ele>0.7</ele>
        <time>2020-05-31T23:13:14Z</time>
      </trkpt>
      <trkpt lat="46.19415" lon="-1.41076">
        <ele>0.7</ele>
        <time>2020-05-31T23:13:15Z</time>
      </trkpt>
      <trkpt lat="46.19412" lon="-1.41084">
        <ele>0.7</ele>
        <time>2020-05-31T23:13:16Z</time>
      </trkpt>
      <trkpt lat="46.1941" lon="-1.41092">
        <ele>0.7</ele>
        <time>2020-05-31T23:13:17Z</time>
      </trkpt>
      <trkpt lat="46.19408" lon="-1.411">
        <ele>0.7</ele>
        <time>2020-05-31T23:13:18Z</time>
      </trkpt>
      <trkpt lat="46.19405" lon="-1.41109">
        <ele>0.7</ele>
        <time>2020-05-31T23:13:19Z</time>
      </trkpt>
      <trkpt lat="46.19404" lon="-1.41113">
        <ele>0.7</ele>
        <time>2020-05-31T23:13:20Z</time>
      </trkpt>
      <trkpt lat="46.19402" lon="-1.4112">
        <ele>0.7</ele>
        <time>2020-05-31T23:13:21Z</time>
      </trkpt>
      <trkpt lat="46.194" lon="-1.41127">
        <ele>0.7</ele>
        <time>2020-05-31T23:13:22Z</time>
      </trkpt>
      <trkpt lat="46.19398" lon="-1.41133">
        <ele>0.7</ele>
        <time>2020-05-31T23:13:23Z</time>
      </trkpt>
      <trkpt lat="46.19396" lon="-1.41141">
        <ele>0.7</ele>
        <time>2020-05-31T23:13:24Z</time>
      </trkpt>
      <trkpt lat="46.19394" lon="-1.41145">
        <ele>0.7</ele>
        <time>2020-05-31T23:13:25Z</time>
      </trkpt>
      <trkpt lat="46.19392" lon="-1.4115">
        <ele>0.7</ele>
        <time>2020-05-31T23:13:26Z</time>
      </trkpt>
      <trkpt lat="46.1939" lon="-1.41154">
        <ele>0.7</ele>
        <time>2020-05-31T23:13:27Z</time>
      </trkpt>
      <trkpt lat="46.19389" lon="-1.41159">
        <ele>0.7</ele>
        <time>2020-05-31T23:13:28Z</time>
      </trkpt>
      <trkpt lat="46.19388" lon="-1.41162">
        <ele>0.7</ele>
        <time>2020-05-31T23:13:29Z</time>
      </trkpt>
      <trkpt lat="46.19387" lon="-1.41167">
        <ele>0.7</ele>
        <time>2020-05-31T23:13:30Z</time>
      </trkpt>
      <trkpt lat="46.19385" lon="-1.41172">
        <ele>0.7</ele>
        <time>2020-05-31T23:13:31Z</time>
      </trkpt>
      <trkpt lat="46.19385" lon="-1.41174">
        <ele>0.7</ele>
        <time>2020-05-31T23:13:32Z</time>
      </trkpt>
      <trkpt lat="46.19385" lon="-1.41176">
        <ele>0.7</ele>
        <time>2020-05-31T23:13:33Z</time>
      </trkpt>
      <trkpt lat="46.19385" lon="-1.41176">
        <ele>0.7</ele>
        <time>2020-05-31T23:13:34Z</time>
      </trkpt>
      <trkpt lat="46.19385" lon="-1.41176">
        <ele>0.7</ele>
        <time>2020-05-31T23:13:35Z</time>
      </trkpt>
      <trkpt lat="46.19386" lon="-1.41174">
        <ele>0.7</ele>
        <time>2020-05-31T23:13:36Z</time>
      </trkpt>
      <trkpt lat="46.19386" lon="-1.41173">
        <ele>0.7</ele>
        <time>2020-05-31T23:13:37Z</time>
      </trkpt>
      <trkpt lat="46.19386" lon="-1.41172">
        <ele>0.7</ele>
        <time>2020-05-31T23:13:38Z</time>
      </trkpt>
      <trkpt lat="46.19386" lon="-1.41171">
        <ele>0.7</ele>
        <time>2020-05-31T23:13:39Z</time>
      </trkpt>
      <trkpt lat="46.19386" lon="-1.4117">
        <ele>0.7</ele>
        <time>2020-05-31T23:13:40Z</time>
      </trkpt>
      <trkpt lat="46.19387" lon="-1.4117">
        <ele>0.7</ele>
        <time>2020-05-31T23:13:41Z</time>
      </trkpt>
      <trkpt lat="46.19387" lon="-1.4117">
        <ele>0.7</ele>
        <time>2020-05-31T23:13:42Z</time>
      </trkpt>
      <trkpt lat="46.19387" lon="-1.41171">
        <ele>0.7</ele>
        <time>2020-05-31T23:13:43Z</time>
      </trkpt>
      <trkpt lat="46.19387" lon="-1.41171">
        <ele>0.7</ele>
        <time>2020-05-31T23:13:44Z</time>
      </trkpt>
      <trkpt lat="46.19387" lon="-1.41171">
        <ele>0.7</ele>
        <time>2020-05-31T23:13:45Z</time>
      </trkpt>
      <trkpt lat="46.19387" lon="-1.41171">
        <ele>0.7</ele>
        <time>2020-05-31T23:13:46Z</time>
      </trkpt>
      <trkpt lat="46.19387" lon="-1.41171">
        <ele>0.7</ele>
        <time>2020-05-31T23:13:47Z</time>
      </trkpt>
      <trkpt lat="46.19387" lon="-1.41171">
        <ele>0.7</ele>
        <time>2020-05-31T23:13:48Z</time>
      </trkpt>
      <trkpt lat="46.19387" lon="-1.41172">
        <ele>0.7</ele>
        <time>2020-05-31T23:13:49Z</time>
      </trkpt>
      <trkpt lat="46.19387" lon="-1.41172">
        <ele>0.7</ele>
        <time>2020-05-31T23:13:50Z</time>
      </trkpt>
      <trkpt lat="46.19387" lon="-1.41172">
        <ele>0.7</ele>
        <time>2020-05-31T23:13:51Z</time>
      </trkpt>
      <trkpt lat="46.19387" lon="-1.41172">
        <ele>0.7</ele>
        <time>2020-05-31T23:13:52Z</time>
      </trkpt>
      <trkpt lat="46.19387" lon="-1.41172">
        <ele>0.7</ele>
        <time>2020-05-31T23:13:53Z</time>
      </trkpt>
      <trkpt lat="46.19387" lon="-1.41172">
        <ele>0.7</ele>
        <time>2020-05-31T23:13:54Z</time>
      </trkpt>
      <trkpt lat="46.19387" lon="-1.41173">
        <ele>0.7</ele>
        <time>2020-05-31T23:13:55Z</time>
      </trkpt>
      <trkpt lat="46.19387" lon="-1.41173">
        <ele>0.7</ele>
        <time>2020-05-31T23:13:56Z</time>
      </trkpt>
      <trkpt lat="46.19387" lon="-1.41173">
        <ele>0.7</ele>
        <time>2020-05-31T23:13:57Z</time>
      </trkpt>
      <trkpt lat="46.19387" lon="-1.41173">
        <ele>0.7</ele>
        <time>2020-05-31T23:13:58Z</time>
      </trkpt>
      <trkpt lat="46.19387" lon="-1.41173">
        <ele>0.7</ele>
        <time>2020-05-31T23:13:59Z</time>
      </trkpt>
      <trkpt lat="46.19387" lon="-1.41173">
        <ele>0.7</ele>
        <time>2020-05-31T23:14:00Z</time>
      </trkpt>
      <trkpt lat="46.19387" lon="-1.41174">
        <ele>0.7</ele>
        <time>2020-05-31T23:14:01Z</time>
      </trkpt>
      <trkpt lat="46.19387" lon="-1.41174">
        <ele>0.7</ele>
        <time>2020-05-31T23:14:02Z</time>
      </trkpt>
      <trkpt lat="46.19387" lon="-1.41174">
        <ele>0.7</ele>
        <time>2020-05-31T23:14:03Z</time>
      </trkpt>
      <trkpt lat="46.19387" lon="-1.41174">
        <ele>0.7</ele>
        <time>2020-05-31T23:14:04Z</time>
      </trkpt>
      <trkpt lat="46.19387" lon="-1.41174">
        <ele>0.7</ele>
        <time>2020-05-31T23:14:05Z</time>
      </trkpt>
      <trkpt lat="46.19387" lon="-1.41174">
        <ele>0.7</ele>
        <time>2020-05-31T23:14:06Z</time>
      </trkpt>
      <trkpt lat="46.19387" lon="-1.41175">
        <ele>0.7</ele>
        <time>2020-05-31T23:14:07Z</time>
      </trkpt>
      <trkpt lat="46.19387" lon="-1.41175">
        <ele>0.7</ele>
        <time>2020-05-31T23:14:08Z</time>
      </trkpt>
      <trkpt lat="46.19387" lon="-1.41175">
        <ele>0.7</ele>
        <time>2020-05-31T23:14:09Z</time>
      </trkpt>
      <trkpt lat="46.19387" lon="-1.41175">
        <ele>0.7</ele>
        <time>2020-05-31T23:14:10Z</time>
      </trkpt>
      <trkpt lat="46.19387" lon="-1.41175">
        <ele>0.7</ele>
        <time>2020-05-31T23:14:11Z</time>
      </trkpt>
      <trkpt lat="46.19387" lon="-1.41175">
        <ele>0.7</ele>
        <time>2020-05-31T23:14:12Z</time>
      </trkpt>
      <trkpt lat="46.19387" lon="-1.41176">
        <ele>0.7</ele>
        <time>2020-05-31T23:14:13Z</time>
      </trkpt>
      <trkpt lat="46.19387" lon="-1.41176">
        <ele>0.7</ele>
        <time>2020-05-31T23:14:14Z</time>
      </trkpt>
      <trkpt lat="46.19387" lon="-1.41176">
        <ele>0.7</ele>
        <time>2020-05-31T23:14:15Z</time>
      </trkpt>
      <trkpt lat="46.19387" lon="-1.4118">
        <ele>0.7</ele>
        <time>2020-05-31T23:14:16Z</time>
      </trkpt>
      <trkpt lat="46.19386" lon="-1.41186">
        <ele>0.7</ele>
        <time>2020-05-31T23:14:17Z</time>
      </trkpt>
      <trkpt lat="46.19385" lon="-1.41192">
        <ele>0.7</ele>
        <time>2020-05-31T23:14:18Z</time>
      </trkpt>
      <trkpt lat="46.19385" lon="-1.41197">
        <ele>0.7</ele>
        <time>2020-05-31T23:14:19Z</time>
      </trkpt>
      <trkpt lat="46.19384" lon="-1.41201">
        <ele>0.7</ele>
        <time>2020-05-31T23:14:20Z</time>
      </trkpt>
      <trkpt lat="46.19383" lon="-1.41206">
        <ele>0.7</ele>
        <time>2020-05-31T23:14:21Z</time>
      </trkpt>
      <trkpt lat="46.19382" lon="-1.41211">
        <ele>0.8</ele>
        <time>2020-05-31T23:14:22Z</time>
      </trkpt>
      <trkpt lat="46.19382" lon="-1.41218">
        <ele>0.8</ele>
        <time>2020-05-31T23:14:23Z</time>
      </trkpt>
      <trkpt lat="46.19381" lon="-1.41225">
        <ele>0.8</ele>
        <time>2020-05-31T23:14:24Z</time>
      </trkpt>
      <trkpt lat="46.1938" lon="-1.41232">
        <ele>0.8</ele>
        <time>2020-05-31T23:14:25Z</time>
      </trkpt>
      <trkpt lat="46.19379" lon="-1.41239">
        <ele>0.8</ele>
        <time>2020-05-31T23:14:26Z</time>
      </trkpt>
      <trkpt lat="46.19378" lon="-1.41245">
        <ele>0.8</ele>
        <time>2020-05-31T23:14:27Z</time>
      </trkpt>
      <trkpt lat="46.19378" lon="-1.41252">
        <ele>0.8</ele>
        <time>2020-05-31T23:14:28Z</time>
      </trkpt>
      <trkpt lat="46.19376" lon="-1.41258">
        <ele>0.8</ele>
        <time>2020-05-31T23:14:29Z</time>
      </trkpt>
      <trkpt lat="46.19374" lon="-1.41266">
        <ele>0.8</ele>
        <time>2020-05-31T23:14:30Z</time>
      </trkpt>
      <trkpt lat="46.19373" lon="-1.41273">
        <ele>0.8</ele>
        <time>2020-05-31T23:14:31Z</time>
      </trkpt>
      <trkpt lat="46.1937" lon="-1.41281">
        <ele>0.8</ele>
        <time>2020-05-31T23:14:32Z</time>
      </trkpt>
      <trkpt lat="46.19368" lon="-1.41288">
        <ele>0.8</ele>
        <time>2020-05-31T23:14:33Z</time>
      </trkpt>
      <trkpt lat="46.19366" lon="-1.41295">
        <ele>0.8</ele>
        <time>2020-05-31T23:14:34Z</time>
      </trkpt>
      <trkpt lat="46.19363" lon="-1.41302">
        <ele>0.8</ele>
        <time>2020-05-31T23:14:35Z</time>
      </trkpt>
      <trkpt lat="46.1936" lon="-1.4131">
        <ele>0.8</ele>
        <time>2020-05-31T23:14:36Z</time>
      </trkpt>
      <trkpt lat="46.19357" lon="-1.41317">
        <ele>0.8</ele>
        <time>2020-05-31T23:14:37Z</time>
      </trkpt>
      <trkpt lat="46.19353" lon="-1.41325">
        <ele>0.8</ele>
        <time>2020-05-31T23:14:38Z</time>
      </trkpt>
      <trkpt lat="46.19349" lon="-1.41332">
        <ele>0.9</ele>
        <time>2020-05-31T23:14:39Z</time>
      </trkpt>
      <trkpt lat="46.19346" lon="-1.4134">
        <ele>0.9</ele>
        <time>2020-05-31T23:14:40Z</time>
      </trkpt>
      <trkpt lat="46.19343" lon="-1.41347">
        <ele>0.9</ele>
        <time>2020-05-31T23:14:41Z</time>
      </trkpt>
      <trkpt lat="46.1934" lon="-1.41355">
        <ele>0.9</ele>
        <time>2020-05-31T23:14:42Z</time>
      </trkpt>
      <trkpt lat="46.19337" lon="-1.41362">
        <ele>0.9</ele>
        <time>2020-05-31T23:14:43Z</time>
      </trkpt>
      <trkpt lat="46.19335" lon="-1.41371">
        <ele>0.9</ele>
        <time>2020-05-31T23:14:44Z</time>
      </trkpt>
      <trkpt lat="46.19335" lon="-1.4138">
        <ele>0.9</ele>
        <time>2020-05-31T23:14:45Z</time>
      </trkpt>
      <trkpt lat="46.19335" lon="-1.41389">
        <ele>1</ele>
        <time>2020-05-31T23:14:46Z</time>
      </trkpt>
      <trkpt lat="46.19335" lon="-1.41399">
        <ele>1</ele>
        <time>2020-05-31T23:14:47Z</time>
      </trkpt>
      <trkpt lat="46.19336" lon="-1.41408">
        <ele>1</ele>
        <time>2020-05-31T23:14:48Z</time>
      </trkpt>
      <trkpt lat="46.19337" lon="-1.41417">
        <ele>1</ele>
        <time>2020-05-31T23:14:49Z</time>
      </trkpt>
      <trkpt lat="46.19339" lon="-1.41425">
        <ele>1.1</ele>
        <time>2020-05-31T23:14:50Z</time>
      </trkpt>
      <trkpt lat="46.19341" lon="-1.41434">
        <ele>1.1</ele>
        <time>2020-05-31T23:14:51Z</time>
      </trkpt>
      <trkpt lat="46.19343" lon="-1.41443">
        <ele>1.1</ele>
        <time>2020-05-31T23:14:52Z</time>
      </trkpt>
      <trkpt lat="46.19346" lon="-1.41452">
        <ele>1.2</ele>
        <time>2020-05-31T23:14:53Z</time>
      </trkpt>
      <trkpt lat="46.19349" lon="-1.41462">
        <ele>1.2</ele>
        <time>2020-05-31T23:14:54Z</time>
      </trkpt>
      <trkpt lat="46.19352" lon="-1.41471">
        <ele>1.2</ele>
        <time>2020-05-31T23:14:55Z</time>
      </trkpt>
      <trkpt lat="46.19354" lon="-1.4148">
        <ele>1.3</ele>
        <time>2020-05-31T23:14:56Z</time>
      </trkpt>
      <trkpt lat="46.19357" lon="-1.41489">
        <ele>1.3</ele>
        <time>2020-05-31T23:14:57Z</time>
      </trkpt>
      <trkpt lat="46.19359" lon="-1.41498">
        <ele>1.4</ele>
        <time>2020-05-31T23:14:58Z</time>
      </trkpt>
      <trkpt lat="46.19362" lon="-1.41507">
        <ele>1.4</ele>
        <time>2020-05-31T23:14:59Z</time>
      </trkpt>
      <trkpt lat="46.19363" lon="-1.41516">
        <ele>1.5</ele>
        <time>2020-05-31T23:15:00Z</time>
      </trkpt>
      <trkpt lat="46.19365" lon="-1.41525">
        <ele>1.5</ele>
        <time>2020-05-31T23:15:01Z</time>
      </trkpt>
      <trkpt lat="46.19366" lon="-1.41535">
        <ele>1.6</ele>
        <time>2020-05-31T23:15:02Z</time>
      </trkpt>
      <trkpt lat="46.19367" lon="-1.41545">
        <ele>1.6</ele>
        <time>2020-05-31T23:15:03Z</time>
      </trkpt>
      <trkpt lat="46.19368" lon="-1.41554">
        <ele>1.6</ele>
        <time>2020-05-31T23:15:04Z</time>
      </trkpt>
      <trkpt lat="46.19369" lon="-1.41563">
        <ele>1.7</ele>
        <time>2020-05-31T23:15:05Z</time>
      </trkpt>
      <trkpt lat="46.19369" lon="-1.41571">
        <ele>1.7</ele>
        <time>2020-05-31T23:15:06Z</time>
      </trkpt>
      <trkpt lat="46.1937" lon="-1.4158">
        <ele>1.7</ele>
        <time>2020-05-31T23:15:07Z</time>
      </trkpt>
      <trkpt lat="46.19371" lon="-1.41589">
        <ele>1.8</ele>
        <time>2020-05-31T23:15:08Z</time>
      </trkpt>
      <trkpt lat="46.19371" lon="-1.41598">
        <ele>1.8</ele>
        <time>2020-05-31T23:15:09Z</time>
      </trkpt>
      <trkpt lat="46.19372" lon="-1.41607">
        <ele>1.8</ele>
        <time>2020-05-31T23:15:10Z</time>
      </trkpt>
      <trkpt lat="46.19373" lon="-1.41616">
        <ele>1.9</ele>
        <time>2020-05-31T23:15:11Z</time>
      </trkpt>
      <trkpt lat="46.19374" lon="-1.41624">
        <ele>1.9</ele>
        <time>2020-05-31T23:15:12Z</time>
      </trkpt>
      <trkpt lat="46.19376" lon="-1.41632">
        <ele>1.9</ele>
        <time>2020-05-31T23:15:13Z</time>
      </trkpt>
      <trkpt lat="46.19377" lon="-1.41641">
        <ele>1.9</ele>
        <time>2020-05-31T23:15:14Z</time>
      </trkpt>
      <trkpt lat="46.19379" lon="-1.41649">
        <ele>2</ele>
        <time>2020-05-31T23:15:15Z</time>
      </trkpt>
      <trkpt lat="46.19382" lon="-1.41657">
        <ele>2</ele>
        <time>2020-05-31T23:15:16Z</time>
      </trkpt>
      <trkpt lat="46.19384" lon="-1.41665">
        <ele>2</ele>
        <time>2020-05-31T23:15:17Z</time>
      </trkpt>
      <trkpt lat="46.19387" lon="-1.41673">
        <ele>2.1</ele>
        <time>2020-05-31T23:15:18Z</time>
      </trkpt>
      <trkpt lat="46.1939" lon="-1.4168">
        <ele>2.1</ele>
        <time>2020-05-31T23:15:19Z</time>
      </trkpt>
      <trkpt lat="46.19394" lon="-1.41688">
        <ele>2.1</ele>
        <time>2020-05-31T23:15:20Z</time>
      </trkpt>
      <trkpt lat="46.19397" lon="-1.41695">
        <ele>2.2</ele>
        <time>2020-05-31T23:15:21Z</time>
      </trkpt>
      <trkpt lat="46.19401" lon="-1.41702">
        <ele>2.2</ele>
        <time>2020-05-31T23:15:22Z</time>
      </trkpt>
      <trkpt lat="46.19404" lon="-1.41709">
        <ele>2.2</ele>
        <time>2020-05-31T23:15:23Z</time>
      </trkpt>
      <trkpt lat="46.19407" lon="-1.41716">
        <ele>2.2</ele>
        <time>2020-05-31T23:15:24Z</time>
      </trkpt>
      <trkpt lat="46.1941" lon="-1.41723">
        <ele>2.3</ele>
        <time>2020-05-31T23:15:25Z</time>
      </trkpt>
      <trkpt lat="46.19411" lon="-1.41731">
        <ele>2.3</ele>
        <time>2020-05-31T23:15:26Z</time>
      </trkpt>
      <trkpt lat="46.19413" lon="-1.41739">
        <ele>2.3</ele>
        <time>2020-05-31T23:15:27Z</time>
      </trkpt>
      <trkpt lat="46.19414" lon="-1.41747">
        <ele>2.3</ele>
        <time>2020-05-31T23:15:28Z</time>
      </trkpt>
      <trkpt lat="46.19415" lon="-1.41755">
        <ele>2.3</ele>
        <time>2020-05-31T23:15:29Z</time>
      </trkpt>
      <trkpt lat="46.19416" lon="-1.41763">
        <ele>2.4</ele>
        <time>2020-05-31T23:15:30Z</time>
      </trkpt>
      <trkpt lat="46.19417" lon="-1.41771">
        <ele>2.4</ele>
        <time>2020-05-31T23:15:31Z</time>
      </trkpt>
      <trkpt lat="46.19418" lon="-1.4178">
        <ele>2.4</ele>
        <time>2020-05-31T23:15:32Z</time>
      </trkpt>
      <trkpt lat="46.19419" lon="-1.41788">
        <ele>2.4</ele>
        <time>2020-05-31T23:15:33Z</time>
      </trkpt>
      <trkpt lat="46.1942" lon="-1.41796">
        <ele>2.4</ele>
        <time>2020-05-31T23:15:34Z</time>
      </trkpt>
      <trkpt lat="46.19421" lon="-1.41804">
        <ele>2.5</ele>
        <time>2020-05-31T23:15:35Z</time>
      </trkpt>
      <trkpt lat="46.19419" lon="-1.41812">
        <ele>2.5</ele>
        <time>2020-05-31T23:15:36Z</time>
      </trkpt>
      <trkpt lat="46.19419" lon="-1.4182">
        <ele>2.5</ele>
        <time>2020-05-31T23:15:37Z</time>
      </trkpt>
      <trkpt lat="46.19418" lon="-1.41828">
        <ele>2.5</ele>
        <time>2020-05-31T23:15:38Z</time>
      </trkpt>
      <trkpt lat="46.19417" lon="-1.41836">
        <ele>2.6</ele>
        <time>2020-05-31T23:15:39Z</time>
      </trkpt>
      <trkpt lat="46.19416" lon="-1.41843">
        <ele>2.6</ele>
        <time>2020-05-31T23:15:40Z</time>
      </trkpt>
      <trkpt lat="46.19414" lon="-1.4185">
        <ele>2.6</ele>
        <time>2020-05-31T23:15:41Z</time>
      </trkpt>
      <trkpt lat="46.19412" lon="-1.41856">
        <ele>2.6</ele>
        <time>2020-05-31T23:15:42Z</time>
      </trkpt>
      <trkpt lat="46.19409" lon="-1.41862">
        <ele>2.6</ele>
        <time>2020-05-31T23:15:43Z</time>
      </trkpt>
      <trkpt lat="46.19407" lon="-1.41868">
        <ele>2.7</ele>
        <time>2020-05-31T23:15:44Z</time>
      </trkpt>
      <trkpt lat="46.19405" lon="-1.41874">
        <ele>2.7</ele>
        <time>2020-05-31T23:15:45Z</time>
      </trkpt>
      <trkpt lat="46.19402" lon="-1.4188">
        <ele>2.7</ele>
        <time>2020-05-31T23:15:46Z</time>
      </trkpt>
      <trkpt lat="46.19399" lon="-1.41884">
        <ele>2.7</ele>
        <time>2020-05-31T23:15:47Z</time>
      </trkpt>
      <trkpt lat="46.19396" lon="-1.41889">
        <ele>2.8</ele>
        <time>2020-05-31T23:15:48Z</time>
      </trkpt>
      <trkpt lat="46.19395" lon="-1.41894">
        <ele>2.8</ele>
        <time>2020-05-31T23:15:49Z</time>
      </trkpt>
      <trkpt lat="46.19394" lon="-1.41899">
        <ele>2.8</ele>
        <time>2020-05-31T23:15:50Z</time>
      </trkpt>
      <trkpt lat="46.19395" lon="-1.41903">
        <ele>2.8</ele>
        <time>2020-05-31T23:15:51Z</time>
      </trkpt>
      <trkpt lat="46.19398" lon="-1.41906">
        <ele>2.7</ele>
        <time>2020-05-31T23:15:52Z</time>
      </trkpt>
      <trkpt lat="46.19402" lon="-1.41907">
        <ele>2.7</ele>
        <time>2020-05-31T23:15:53Z</time>
      </trkpt>
      <trkpt lat="46.19407" lon="-1.4191">
        <ele>2.7</ele>
        <time>2020-05-31T23:15:54Z</time>
      </trkpt>
      <trkpt lat="46.19411" lon="-1.41911">
        <ele>2.7</ele>
        <time>2020-05-31T23:15:55Z</time>
      </trkpt>
      <trkpt lat="46.19415" lon="-1.41912">
        <ele>2.7</ele>
        <time>2020-05-31T23:15:56Z</time>
      </trkpt>
      <trkpt lat="46.1942" lon="-1.41913">
        <ele>2.7</ele>
        <time>2020-05-31T23:15:57Z</time>
      </trkpt>
      <trkpt lat="46.19424" lon="-1.41914">
        <ele>2.7</ele>
        <time>2020-05-31T23:15:58Z</time>
      </trkpt>
      <trkpt lat="46.19429" lon="-1.41915">
        <ele>2.7</ele>
        <time>2020-05-31T23:15:59Z</time>
      </trkpt>
      <trkpt lat="46.19433" lon="-1.41916">
        <ele>2.7</ele>
        <time>2020-05-31T23:16:00Z</time>
      </trkpt>
      <trkpt lat="46.19437" lon="-1.41918">
        <ele>2.7</ele>
        <time>2020-05-31T23:16:01Z</time>
      </trkpt>
      <trkpt lat="46.19441" lon="-1.41919">
        <ele>2.7</ele>
        <time>2020-05-31T23:16:02Z</time>
      </trkpt>
      <trkpt lat="46.19445" lon="-1.41921">
        <ele>2.7</ele>
        <time>2020-05-31T23:16:03Z</time>
      </trkpt>
      <trkpt lat="46.19449" lon="-1.41923">
        <ele>2.7</ele>
        <time>2020-05-31T23:16:04Z</time>
      </trkpt>
      <trkpt lat="46.19453" lon="-1.41923">
        <ele>2.8</ele>
        <time>2020-05-31T23:16:05Z</time>
      </trkpt>
      <trkpt lat="46.19457" lon="-1.41924">
        <ele>2.8</ele>
        <time>2020-05-31T23:16:06Z</time>
      </trkpt>
      <trkpt lat="46.19461" lon="-1.41925">
        <ele>2.8</ele>
        <time>2020-05-31T23:16:07Z</time>
      </trkpt>
      <trkpt lat="46.19465" lon="-1.41925">
        <ele>2.8</ele>
        <time>2020-05-31T23:16:08Z</time>
      </trkpt>
      <trkpt lat="46.1947" lon="-1.41926">
        <ele>2.8</ele>
        <time>2020-05-31T23:16:09Z</time>
      </trkpt>
      <trkpt lat="46.19474" lon="-1.41926">
        <ele>2.8</ele>
        <time>2020-05-31T23:16:10Z</time>
      </trkpt>
      <trkpt lat="46.19478" lon="-1.41926">
        <ele>2.9</ele>
        <time>2020-05-31T23:16:11Z</time>
      </trkpt>
      <trkpt lat="46.19482" lon="-1.41926">
        <ele>2.9</ele>
        <time>2020-05-31T23:16:12Z</time>
      </trkpt>
      <trkpt lat="46.19486" lon="-1.41925">
        <ele>2.9</ele>
        <time>2020-05-31T23:16:13Z</time>
      </trkpt>
      <trkpt lat="46.1949" lon="-1.41925">
        <ele>2.9</ele>
        <time>2020-05-31T23:16:14Z</time>
      </trkpt>
      <trkpt lat="46.19494" lon="-1.41926">
        <ele>2.9</ele>
        <time>2020-05-31T23:16:15Z</time>
      </trkpt>
      <trkpt lat="46.19497" lon="-1.41926">
        <ele>2.9</ele>
        <time>2020-05-31T23:16:16Z</time>
      </trkpt>
      <trkpt lat="46.19501" lon="-1.41928">
        <ele>2.9</ele>
        <time>2020-05-31T23:16:17Z</time>
      </trkpt>
      <trkpt lat="46.19505" lon="-1.41928">
        <ele>2.9</ele>
        <time>2020-05-31T23:16:18Z</time>
      </trkpt>
      <trkpt lat="46.19509" lon="-1.41929">
        <ele>2.9</ele>
        <time>2020-05-31T23:16:19Z</time>
      </trkpt>
      <trkpt lat="46.19512" lon="-1.41929">
        <ele>2.9</ele>
        <time>2020-05-31T23:16:20Z</time>
      </trkpt>
      <trkpt lat="46.19516" lon="-1.41931">
        <ele>2.9</ele>
        <time>2020-05-31T23:16:21Z</time>
      </trkpt>
      <trkpt lat="46.1952" lon="-1.41932">
        <ele>2.9</ele>
        <time>2020-05-31T23:16:22Z</time>
      </trkpt>
      <trkpt lat="46.19523" lon="-1.41934">
        <ele>2.9</ele>
        <time>2020-05-31T23:16:23Z</time>
      </trkpt>
      <trkpt lat="46.19526" lon="-1.41939">
        <ele>2.9</ele>
        <time>2020-05-31T23:16:24Z</time>
      </trkpt>
      <trkpt lat="46.19527" lon="-1.41945">
        <ele>2.9</ele>
        <time>2020-05-31T23:16:25Z</time>
      </trkpt>
      <trkpt lat="46.19527" lon="-1.4195">
        <ele>2.9</ele>
        <time>2020-05-31T23:16:26Z</time>
      </trkpt>
      <trkpt lat="46.19527" lon="-1.41955">
        <ele>2.9</ele>
        <time>2020-05-31T23:16:27Z</time>
      </trkpt>
      <trkpt lat="46.19527" lon="-1.41961">
        <ele>2.9</ele>
        <time>2020-05-31T23:16:28Z</time>
      </trkpt>
      <trkpt lat="46.19527" lon="-1.41967">
        <ele>2.9</ele>
        <time>2020-05-31T23:16:29Z</time>
      </trkpt>
      <trkpt lat="46.19526" lon="-1.41972">
        <ele>2.9</ele>
        <time>2020-05-31T23:16:30Z</time>
      </trkpt>
      <trkpt lat="46.19527" lon="-1.41978">
        <ele>2.9</ele>
        <time>2020-05-31T23:16:31Z</time>
      </trkpt>
      <trkpt lat="46.19527" lon="-1.41984">
        <ele>2.9</ele>
        <time>2020-05-31T23:16:32Z</time>
      </trkpt>
      <trkpt lat="46.19527" lon="-1.41989">
        <ele>2.9</ele>
        <time>2020-05-31T23:16:33Z</time>
      </trkpt>
      <trkpt lat="46.19528" lon="-1.41994">
        <ele>2.9</ele>
        <time>2020-05-31T23:16:34Z</time>
      </trkpt>
      <trkpt lat="46.19528" lon="-1.41999">
        <ele>2.9</ele>
        <time>2020-05-31T23:16:35Z</time>
      </trkpt>
      <trkpt lat="46.19528" lon="-1.42004">
        <ele>2.9</ele>
        <time>2020-05-31T23:16:36Z</time>
      </trkpt>
      <trkpt lat="46.19528" lon="-1.4201">
        <ele>2.8</ele>
        <time>2020-05-31T23:16:37Z</time>
      </trkpt>
      <trkpt lat="46.19529" lon="-1.42016">
        <ele>2.8</ele>
        <time>2020-05-31T23:16:38Z</time>
      </trkpt>
      <trkpt lat="46.1953" lon="-1.42022">
        <ele>2.8</ele>
        <time>2020-05-31T23:16:39Z</time>
      </trkpt>
      <trkpt lat="46.19531" lon="-1.42027">
        <ele>2.8</ele>
        <time>2020-05-31T23:16:40Z</time>
      </trkpt>
      <trkpt lat="46.19532" lon="-1.42032">
        <ele>2.8</ele>
        <time>2020-05-31T23:16:41Z</time>
      </trkpt>
      <trkpt lat="46.19533" lon="-1.42037">
        <ele>2.8</ele>
        <time>2020-05-31T23:16:42Z</time>
      </trkpt>
      <trkpt lat="46.19535" lon="-1.42041">
        <ele>2.8</ele>
        <time>2020-05-31T23:16:43Z</time>
      </trkpt>
      <trkpt lat="46.19536" lon="-1.42045">
        <ele>2.8</ele>
        <time>2020-05-31T23:16:44Z</time>
      </trkpt>
      <trkpt lat="46.19538" lon="-1.42048">
        <ele>2.8</ele>
        <time>2020-05-31T23:16:45Z</time>
      </trkpt>
      <trkpt lat="46.19542" lon="-1.42051">
        <ele>2.8</ele>
        <time>2020-05-31T23:16:46Z</time>
      </trkpt>
      <trkpt lat="46.19543" lon="-1.42051">
        <ele>2.8</ele>
        <time>2020-05-31T23:16:47Z</time>
      </trkpt>
      <trkpt lat="46.19544" lon="-1.4205">
        <ele>2.8</ele>
        <time>2020-05-31T23:16:48Z</time>
      </trkpt>
      <trkpt lat="46.19545" lon="-1.42051">
        <ele>2.8</ele>
        <time>2020-05-31T23:16:49Z</time>
      </trkpt>
      <trkpt lat="46.19544" lon="-1.42051">
        <ele>2.8</ele>
        <time>2020-05-31T23:16:50Z</time>
      </trkpt>
      <trkpt lat="46.19544" lon="-1.4205">
        <ele>2.8</ele>
        <time>2020-05-31T23:16:51Z</time>
      </trkpt>
      <trkpt lat="46.19545" lon="-1.42051">
        <ele>2.8</ele>
        <time>2020-05-31T23:16:52Z</time>
      </trkpt>
      <trkpt lat="46.19545" lon="-1.42051">
        <ele>2.8</ele>
        <time>2020-05-31T23:16:53Z</time>
      </trkpt>
      <trkpt lat="46.19546" lon="-1.4205">
        <ele>2.8</ele>
        <time>2020-05-31T23:16:54Z</time>
      </trkpt>
      <trkpt lat="46.19546" lon="-1.4205">
        <ele>2.8</ele>
        <time>2020-05-31T23:16:55Z</time>
      </trkpt>
      <trkpt lat="46.19546" lon="-1.4205">
        <ele>2.8</ele>
        <time>2020-05-31T23:16:56Z</time>
      </trkpt>
      <trkpt lat="46.19546" lon="-1.42051">
        <ele>2.8</ele>
        <time>2020-05-31T23:16:57Z</time>
      </trkpt>
      <trkpt lat="46.19546" lon="-1.42051">
        <ele>2.8</ele>
        <time>2020-05-31T23:16:58Z</time>
      </trkpt>
      <trkpt lat="46.19546" lon="-1.42051">
        <ele>2.8</ele>
        <time>2020-05-31T23:16:59Z</time>
      </trkpt>
      <trkpt lat="46.19546" lon="-1.42052">
        <ele>2.8</ele>
        <time>2020-05-31T23:17:00Z</time>
      </trkpt>
      <trkpt lat="46.19546" lon="-1.42051">
        <ele>2.8</ele>
        <time>2020-05-31T23:17:01Z</time>
      </trkpt>
      <trkpt lat="46.19547" lon="-1.4205">
        <ele>2.8</ele>
        <time>2020-05-31T23:17:02Z</time>
      </trkpt>
      <trkpt lat="46.19547" lon="-1.42049">
        <ele>2.8</ele>
        <time>2020-05-31T23:17:03Z</time>
      </trkpt>
      <trkpt lat="46.19548" lon="-1.42048">
        <ele>2.8</ele>
        <time>2020-05-31T23:17:04Z</time>
      </trkpt>
      <trkpt lat="46.19549" lon="-1.42048">
        <ele>2.8</ele>
        <time>2020-05-31T23:17:05Z</time>
      </trkpt>
      <trkpt lat="46.19549" lon="-1.42047">
        <ele>2.8</ele>
        <time>2020-05-31T23:17:06Z</time>
      </trkpt>
      <trkpt lat="46.19549" lon="-1.42047">
        <ele>2.8</ele>
        <time>2020-05-31T23:17:07Z</time>
      </trkpt>
      <trkpt lat="46.19549" lon="-1.42047">
        <ele>2.8</ele>
        <time>2020-05-31T23:17:08Z</time>
      </trkpt>
      <trkpt lat="46.1955" lon="-1.42046">
        <ele>2.8</ele>
        <time>2020-05-31T23:17:09Z</time>
      </trkpt>
      <trkpt lat="46.1955" lon="-1.42046">
        <ele>2.8</ele>
        <time>2020-05-31T23:17:10Z</time>
      </trkpt>
      <trkpt lat="46.1955" lon="-1.42045">
        <ele>2.8</ele>
        <time>2020-05-31T23:17:11Z</time>
      </trkpt>
      <trkpt lat="46.19551" lon="-1.42045">
        <ele>2.8</ele>
        <time>2020-05-31T23:17:12Z</time>
      </trkpt>
      <trkpt lat="46.19551" lon="-1.42044">
        <ele>2.8</ele>
        <time>2020-05-31T23:17:13Z</time>
      </trkpt>
      <trkpt lat="46.19551" lon="-1.42044">
        <ele>2.8</ele>
        <time>2020-05-31T23:17:14Z</time>
      </trkpt>
      <trkpt lat="46.19551" lon="-1.42043">
        <ele>2.8</ele>
        <time>2020-05-31T23:17:15Z</time>
      </trkpt>
      <trkpt lat="46.19552" lon="-1.42043">
        <ele>2.8</ele>
        <time>2020-05-31T23:17:16Z</time>
      </trkpt>
      <trkpt lat="46.19555" lon="-1.42038">
        <ele>2.8</ele>
        <time>2020-05-31T23:17:17Z</time>
      </trkpt>
      <trkpt lat="46.19557" lon="-1.42033">
        <ele>2.8</ele>
        <time>2020-05-31T23:17:18Z</time>
      </trkpt>
      <trkpt lat="46.1956" lon="-1.42027">
        <ele>2.9</ele>
        <time>2020-05-31T23:17:19Z</time>
      </trkpt>
      <trkpt lat="46.19563" lon="-1.42022">
        <ele>2.9</ele>
        <time>2020-05-31T23:17:20Z</time>
      </trkpt>
      <trkpt lat="46.19565" lon="-1.42017">
        <ele>2.9</ele>
        <time>2020-05-31T23:17:21Z</time>
      </trkpt>
      <trkpt lat="46.19569" lon="-1.42012">
        <ele>2.9</ele>
        <time>2020-05-31T23:17:22Z</time>
      </trkpt>
      <trkpt lat="46.19572" lon="-1.42007">
        <ele>2.9</ele>
        <time>2020-05-31T23:17:23Z</time>
      </trkpt>
      <trkpt lat="46.19575" lon="-1.42003">
        <ele>2.9</ele>
        <time>2020-05-31T23:17:24Z</time>
      </trkpt>
      <trkpt lat="46.19578" lon="-1.41997">
        <ele>2.9</ele>
        <time>2020-05-31T23:17:25Z</time>
      </trkpt>
      <trkpt lat="46.19581" lon="-1.41991">
        <ele>2.9</ele>
        <time>2020-05-31T23:17:26Z</time>
      </trkpt>
      <trkpt lat="46.19585" lon="-1.41987">
        <ele>2.9</ele>
        <time>2020-05-31T23:17:27Z</time>
      </trkpt>
      <trkpt lat="46.19589" lon="-1.41987">
        <ele>2.9</ele>
        <time>2020-05-31T23:17:28Z</time>
      </trkpt>
      <trkpt lat="46.19592" lon="-1.41985">
        <ele>3</ele>
        <time>2020-05-31T23:17:29Z</time>
      </trkpt>
      <trkpt lat="46.19596" lon="-1.41983">
        <ele>3</ele>
        <time>2020-05-31T23:17:30Z</time>
      </trkpt>
      <trkpt lat="46.196" lon="-1.41983">
        <ele>2.9</ele>
        <time>2020-05-31T23:17:31Z</time>
      </trkpt>
      <trkpt lat="46.19603" lon="-1.41984">
        <ele>2.9</ele>
        <time>2020-05-31T23:17:32Z</time>
      </trkpt>
      <trkpt lat="46.19604" lon="-1.41988">
        <ele>2.9</ele>
        <time>2020-05-31T23:17:33Z</time>
      </trkpt>
      <trkpt lat="46.19605" lon="-1.41992">
        <ele>2.8</ele>
        <time>2020-05-31T23:17:34Z</time>
      </trkpt>
      <trkpt lat="46.19607" lon="-1.41996">
        <ele>2.8</ele>
        <time>2020-05-31T23:17:35Z</time>
      </trkpt>
      <trkpt lat="46.19608" lon="-1.41998">
        <ele>2.8</ele>
        <time>2020-05-31T23:17:36Z</time>
      </trkpt>
      <trkpt lat="46.19609" lon="-1.42003">
        <ele>2.8</ele>
        <time>2020-05-31T23:17:37Z</time>
      </trkpt>
      <trkpt lat="46.19609" lon="-1.42005">
        <ele>2.7</ele>
        <time>2020-05-31T23:17:38Z</time>
      </trkpt>
      <trkpt lat="46.19611" lon="-1.4201">
        <ele>2.7</ele>
        <time>2020-05-31T23:17:39Z</time>
      </trkpt>
      <trkpt lat="46.19613" lon="-1.42015">
        <ele>2.7</ele>
        <time>2020-05-31T23:17:40Z</time>
      </trkpt>
      <trkpt lat="46.19615" lon="-1.42021">
        <ele>2.6</ele>
        <time>2020-05-31T23:17:41Z</time>
      </trkpt>
      <trkpt lat="46.19616" lon="-1.42025">
        <ele>2.6</ele>
        <time>2020-05-31T23:17:42Z</time>
      </trkpt>
      <trkpt lat="46.19617" lon="-1.42031">
        <ele>2.6</ele>
        <time>2020-05-31T23:17:43Z</time>
      </trkpt>
      <trkpt lat="46.19618" lon="-1.42036">
        <ele>2.5</ele>
        <time>2020-05-31T23:17:44Z</time>
      </trkpt>
      <trkpt lat="46.1962" lon="-1.42042">
        <ele>2.5</ele>
        <time>2020-05-31T23:17:45Z</time>
      </trkpt>
      <trkpt lat="46.19622" lon="-1.42048">
        <ele>2.4</ele>
        <time>2020-05-31T23:17:46Z</time>
      </trkpt>
      <trkpt lat="46.19624" lon="-1.42054">
        <ele>2.4</ele>
        <time>2020-05-31T23:17:47Z</time>
      </trkpt>
      <trkpt lat="46.19626" lon="-1.42061">
        <ele>2.4</ele>
        <time>2020-05-31T23:17:48Z</time>
      </trkpt>
      <trkpt lat="46.19627" lon="-1.42067">
        <ele>2.4</ele>
        <time>2020-05-31T23:17:49Z</time>
      </trkpt>
      <trkpt lat="46.19629" lon="-1.42074">
        <ele>2.4</ele>
        <time>2020-05-31T23:17:50Z</time>
      </trkpt>
      <trkpt lat="46.1963" lon="-1.42081">
        <ele>2.4</ele>
        <time>2020-05-31T23:17:51Z</time>
      </trkpt>
      <trkpt lat="46.19632" lon="-1.42088">
        <ele>2.4</ele>
        <time>2020-05-31T23:17:52Z</time>
      </trkpt>
      <trkpt lat="46.19633" lon="-1.42096">
        <ele>2.4</ele>
        <time>2020-05-31T23:17:53Z</time>
      </trkpt>
      <trkpt lat="46.19635" lon="-1.42103">
        <ele>2.5</ele>
        <time>2020-05-31T23:17:54Z</time>
      </trkpt>
      <trkpt lat="46.19636" lon="-1.4211">
        <ele>2.6</ele>
        <time>2020-05-31T23:17:55Z</time>
      </trkpt>
      <trkpt lat="46.19637" lon="-1.42117">
        <ele>2.6</ele>
        <time>2020-05-31T23:17:56Z</time>
      </trkpt>
      <trkpt lat="46.19639" lon="-1.42124">
        <ele>2.7</ele>
        <time>2020-05-31T23:17:57Z</time>
      </trkpt>
      <trkpt lat="46.19639" lon="-1.42132">
        <ele>2.7</ele>
        <time>2020-05-31T23:17:58Z</time>
      </trkpt>
      <trkpt lat="46.19641" lon="-1.42138">
        <ele>2.8</ele>
        <time>2020-05-31T23:17:59Z</time>
      </trkpt>
      <trkpt lat="46.19643" lon="-1.42145">
        <ele>2.9</ele>
        <time>2020-05-31T23:18:00Z</time>
      </trkpt>
      <trkpt lat="46.19644" lon="-1.42152">
        <ele>2.9</ele>
        <time>2020-05-31T23:18:01Z</time>
      </trkpt>
      <trkpt lat="46.19644" lon="-1.42159">
        <ele>3</ele>
        <time>2020-05-31T23:18:02Z</time>
      </trkpt>
      <trkpt lat="46.19645" lon="-1.42166">
        <ele>3</ele>
        <time>2020-05-31T23:18:03Z</time>
      </trkpt>
      <trkpt lat="46.19646" lon="-1.42173">
        <ele>3.1</ele>
        <time>2020-05-31T23:18:04Z</time>
      </trkpt>
      <trkpt lat="46.19647" lon="-1.4218">
        <ele>3</ele>
        <time>2020-05-31T23:18:05Z</time>
      </trkpt>
      <trkpt lat="46.19649" lon="-1.42187">
        <ele>2.9</ele>
        <time>2020-05-31T23:18:06Z</time>
      </trkpt>
      <trkpt lat="46.1965" lon="-1.42194">
        <ele>2.9</ele>
        <time>2020-05-31T23:18:07Z</time>
      </trkpt>
      <trkpt lat="46.19651" lon="-1.42201">
        <ele>2.8</ele>
        <time>2020-05-31T23:18:08Z</time>
      </trkpt>
      <trkpt lat="46.1965" lon="-1.42208">
        <ele>2.7</ele>
        <time>2020-05-31T23:18:09Z</time>
      </trkpt>
      <trkpt lat="46.1965" lon="-1.42214">
        <ele>2.7</ele>
        <time>2020-05-31T23:18:10Z</time>
      </trkpt>
      <trkpt lat="46.1965" lon="-1.42219">
        <ele>2.7</ele>
        <time>2020-05-31T23:18:11Z</time>
      </trkpt>
      <trkpt lat="46.1965" lon="-1.42223">
        <ele>2.6</ele>
        <time>2020-05-31T23:18:12Z</time>
      </trkpt>
      <trkpt lat="46.1965" lon="-1.42227">
        <ele>2.6</ele>
        <time>2020-05-31T23:18:13Z</time>
      </trkpt>
      <trkpt lat="46.19651" lon="-1.42231">
        <ele>2.6</ele>
        <time>2020-05-31T23:18:14Z</time>
      </trkpt>
      <trkpt lat="46.19652" lon="-1.42236">
        <ele>2.6</ele>
        <time>2020-05-31T23:18:15Z</time>
      </trkpt>
      <trkpt lat="46.19654" lon="-1.42242">
        <ele>2.6</ele>
        <time>2020-05-31T23:18:16Z</time>
      </trkpt>
      <trkpt lat="46.19656" lon="-1.42247">
        <ele>2.6</ele>
        <time>2020-05-31T23:18:17Z</time>
      </trkpt>
      <trkpt lat="46.19658" lon="-1.42253">
        <ele>2.6</ele>
        <time>2020-05-31T23:18:18Z</time>
      </trkpt>
      <trkpt lat="46.19659" lon="-1.42259">
        <ele>2.6</ele>
        <time>2020-05-31T23:18:19Z</time>
      </trkpt>
      <trkpt lat="46.19661" lon="-1.42265">
        <ele>2.6</ele>
        <time>2020-05-31T23:18:20Z</time>
      </trkpt>
      <trkpt lat="46.19663" lon="-1.4227">
        <ele>2.5</ele>
        <time>2020-05-31T23:18:21Z</time>
      </trkpt>
      <trkpt lat="46.19665" lon="-1.42276">
        <ele>2.5</ele>
        <time>2020-05-31T23:18:22Z</time>
      </trkpt>
      <trkpt lat="46.19669" lon="-1.42281">
        <ele>2.5</ele>
        <time>2020-05-31T23:18:23Z</time>
      </trkpt>
      <trkpt lat="46.1967" lon="-1.42289">
        <ele>2.5</ele>
        <time>2020-05-31T23:18:24Z</time>
      </trkpt>
      <trkpt lat="46.19673" lon="-1.42295">
        <ele>2.5</ele>
        <time>2020-05-31T23:18:25Z</time>
      </trkpt>
      <trkpt lat="46.19676" lon="-1.423">
        <ele>2.5</ele>
        <time>2020-05-31T23:18:26Z</time>
      </trkpt>
      <trkpt lat="46.19679" lon="-1.42306">
        <ele>2.4</ele>
        <time>2020-05-31T23:18:27Z</time>
      </trkpt>
      <trkpt lat="46.19682" lon="-1.42312">
        <ele>2.4</ele>
        <time>2020-05-31T23:18:28Z</time>
      </trkpt>
      <trkpt lat="46.19684" lon="-1.42317">
        <ele>2.3</ele>
        <time>2020-05-31T23:18:29Z</time>
      </trkpt>
      <trkpt lat="46.19687" lon="-1.42322">
        <ele>2.3</ele>
        <time>2020-05-31T23:18:30Z</time>
      </trkpt>
      <trkpt lat="46.1969" lon="-1.42327">
        <ele>2.2</ele>
        <time>2020-05-31T23:18:31Z</time>
      </trkpt>
      <trkpt lat="46.19693" lon="-1.42333">
        <ele>2.2</ele>
        <time>2020-05-31T23:18:32Z</time>
      </trkpt>
      <trkpt lat="46.19696" lon="-1.42338">
        <ele>2.1</ele>
        <time>2020-05-31T23:18:33Z</time>
      </trkpt>
      <trkpt lat="46.19698" lon="-1.42344">
        <ele>2.1</ele>
        <time>2020-05-31T23:18:34Z</time>
      </trkpt>
      <trkpt lat="46.19702" lon="-1.4235">
        <ele>2.1</ele>
        <time>2020-05-31T23:18:35Z</time>
      </trkpt>
      <trkpt lat="46.19705" lon="-1.42355">
        <ele>2</ele>
        <time>2020-05-31T23:18:36Z</time>
      </trkpt>
      <trkpt lat="46.1971" lon="-1.42359">
        <ele>2</ele>
        <time>2020-05-31T23:18:37Z</time>
      </trkpt>
      <trkpt lat="46.19714" lon="-1.42364">
        <ele>2</ele>
        <time>2020-05-31T23:18:38Z</time>
      </trkpt>
      <trkpt lat="46.19718" lon="-1.42368">
        <ele>2</ele>
        <time>2020-05-31T23:18:39Z</time>
      </trkpt>
      <trkpt lat="46.19722" lon="-1.42372">
        <ele>1.9</ele>
        <time>2020-05-31T23:18:40Z</time>
      </trkpt>
      <trkpt lat="46.19725" lon="-1.42377">
        <ele>1.9</ele>
        <time>2020-05-31T23:18:41Z</time>
      </trkpt>
      <trkpt lat="46.19728" lon="-1.42382">
        <ele>1.9</ele>
        <time>2020-05-31T23:18:42Z</time>
      </trkpt>
      <trkpt lat="46.19731" lon="-1.42386">
        <ele>1.9</ele>
        <time>2020-05-31T23:18:43Z</time>
      </trkpt>
      <trkpt lat="46.19735" lon="-1.42388">
        <ele>1.9</ele>
        <time>2020-05-31T23:18:44Z</time>
      </trkpt>
      <trkpt lat="46.19738" lon="-1.4239">
        <ele>1.9</ele>
        <time>2020-05-31T23:18:45Z</time>
      </trkpt>
      <trkpt lat="46.1974" lon="-1.42389">
        <ele>1.9</ele>
        <time>2020-05-31T23:18:46Z</time>
      </trkpt>
      <trkpt lat="46.19744" lon="-1.42389">
        <ele>1.9</ele>
        <time>2020-05-31T23:18:47Z</time>
      </trkpt>
      <trkpt lat="46.19745" lon="-1.42388">
        <ele>1.9</ele>
        <time>2020-05-31T23:18:48Z</time>
      </trkpt>
      <trkpt lat="46.19747" lon="-1.42384">
        <ele>1.9</ele>
        <time>2020-05-31T23:18:49Z</time>
      </trkpt>
      <trkpt lat="46.19749" lon="-1.42382">
        <ele>1.9</ele>
        <time>2020-05-31T23:18:50Z</time>
      </trkpt>
      <trkpt lat="46.1975" lon="-1.42377">
        <ele>1.9</ele>
        <time>2020-05-31T23:18:51Z</time>
      </trkpt>
      <trkpt lat="46.19751" lon="-1.42373">
        <ele>1.9</ele>
        <time>2020-05-31T23:18:52Z</time>
      </trkpt>
      <trkpt lat="46.19753" lon="-1.42368">
        <ele>1.9</ele>
        <time>2020-05-31T23:18:53Z</time>
      </trkpt>
      <trkpt lat="46.19753" lon="-1.42366">
        <ele>1.9</ele>
        <time>2020-05-31T23:18:54Z</time>
      </trkpt>
      <trkpt lat="46.19755" lon="-1.42363">
        <ele>1.9</ele>
        <time>2020-05-31T23:18:55Z</time>
      </trkpt>
      <trkpt lat="46.19755" lon="-1.42362">
        <ele>2</ele>
        <time>2020-05-31T23:18:56Z</time>
      </trkpt>
      <trkpt lat="46.19756" lon="-1.4236">
        <ele>2</ele>
        <time>2020-05-31T23:18:57Z</time>
      </trkpt>
      <trkpt lat="46.19757" lon="-1.42359">
        <ele>2</ele>
        <time>2020-05-31T23:18:58Z</time>
      </trkpt>
      <trkpt lat="46.19758" lon="-1.42358">
        <ele>2</ele>
        <time>2020-05-31T23:18:59Z</time>
      </trkpt>
      <trkpt lat="46.19759" lon="-1.42358">
        <ele>2</ele>
        <time>2020-05-31T23:19:00Z</time>
      </trkpt>
      <trkpt lat="46.1976" lon="-1.42358">
        <ele>2</ele>
        <time>2020-05-31T23:19:01Z</time>
      </trkpt>
      <trkpt lat="46.1976" lon="-1.42358">
        <ele>2</ele>
        <time>2020-05-31T23:19:02Z</time>
      </trkpt>
    </trkseg>
  </trk>
</gpx>